<?xml version="1.0" encoding="UTF-8"?>
<gpx schemaLocation="http://www.topografix.com/GPX/1/1 http://www.topografix.com/GPX/11.xsd" version="1.1" creator="Garmin Connect" xmlns="http://www.topografix.com/GPX/1/1" xmlns:xsi="http://www.w3.org/2001/XMLSchema-instance" xsi:schemaLocation="http://www.topografix.com/GPX/1/1 http://www.topografix.com/GPX/1/1/gpx.xsd http://www.garmin.com/xmlschemas/GpxExtensions/v3 http://www.garmin.com/xmlschemas/GpxExtensionsv3.xsd http://www.garmin.com/xmlschemas/TrackPointExtension/v1 http://www.garmin.com/xmlschemas/TrackPointExtensionv1.xsd http://www.garmin.com/xmlschemas/PowerExtension/v1 http://www.garmin.com/xmlschemas/PowerExtensionv1.xsd http://www.topografix.com/GPX/gpx_style/0/2 http://www.topografix.com/GPX/gpx_style/0/2/gpx_style.xsd" xmlns:gpxtpx="http://www.garmin.com/xmlschemas/TrackPointExtension/v1" xmlns:gpxx="http://www.garmin.com/xmlschemas/GpxExtensions/v3" xmlns:gpxpx="http://www.garmin.com/xmlschemas/PowerExtension/v1" xmlns:gpx_style="http://www.topografix.com/GPX/gpx_style/0/2">
  <metadata>
    <name>20260506_round_trip</name>
    <author>
      <name>gpx.studio</name>
      <link href="https://gpx.studio"/>
    </author>
    <time>2026-05-06T06:53:24.000Z</time>
  </metadata>
  <trk>
    <name>20260506 Komatina Rocks Round Trip</name>
    <type>20260506Mountain hike</type>
    <trkseg>
      <trkpt lat="41.841803" lon="22.991065">
        <ele>1142.3</ele>
        <time>2026-05-06T06:53:24.000Z</time>
      </trkpt>
      <trkpt lat="41.8418" lon="22.991058">
        <ele>1142.3</ele>
        <time>2026-05-06T06:53:25.000Z</time>
      </trkpt>
      <trkpt lat="41.841802" lon="22.991054">
        <ele>1142.3</ele>
        <time>2026-05-06T06:53:26.000Z</time>
      </trkpt>
      <trkpt lat="41.841802" lon="22.991051">
        <ele>1142.3</ele>
        <time>2026-05-06T06:53:27.000Z</time>
      </trkpt>
      <trkpt lat="41.841803" lon="22.99105">
        <ele>1142.3</ele>
        <time>2026-05-06T06:53:28.000Z</time>
      </trkpt>
      <trkpt lat="41.841804" lon="22.991051">
        <ele>1142.3</ele>
        <time>2026-05-06T06:53:29.000Z</time>
      </trkpt>
      <trkpt lat="41.841805" lon="22.991051">
        <ele>1142.3</ele>
        <time>2026-05-06T06:53:30.000Z</time>
      </trkpt>
      <trkpt lat="41.841806" lon="22.991051">
        <ele>1142.3</ele>
        <time>2026-05-06T06:53:31.000Z</time>
      </trkpt>
      <trkpt lat="41.841806" lon="22.991052">
        <ele>1142.3</ele>
        <time>2026-05-06T06:53:32.000Z</time>
      </trkpt>
      <trkpt lat="41.841807" lon="22.991051">
        <ele>1142.3</ele>
        <time>2026-05-06T06:53:33.000Z</time>
      </trkpt>
      <trkpt lat="41.841808" lon="22.991051">
        <ele>1142.3</ele>
        <time>2026-05-06T06:53:34.000Z</time>
      </trkpt>
      <trkpt lat="41.841809" lon="22.99105">
        <ele>1142.3</ele>
        <time>2026-05-06T06:53:35.000Z</time>
      </trkpt>
      <trkpt lat="41.84181" lon="22.991048">
        <ele>1142.3</ele>
        <time>2026-05-06T06:53:36.000Z</time>
      </trkpt>
      <trkpt lat="41.841811" lon="22.991046">
        <ele>1142.3</ele>
        <time>2026-05-06T06:53:37.000Z</time>
      </trkpt>
      <trkpt lat="41.841811" lon="22.991045">
        <ele>1142.5</ele>
        <time>2026-05-06T06:53:38.000Z</time>
      </trkpt>
      <trkpt lat="41.841811" lon="22.991043">
        <ele>1142.5</ele>
        <time>2026-05-06T06:53:39.000Z</time>
      </trkpt>
      <trkpt lat="41.841809" lon="22.991041">
        <ele>1142.5</ele>
        <time>2026-05-06T06:53:40.000Z</time>
      </trkpt>
      <trkpt lat="41.841807" lon="22.991038">
        <ele>1142.5</ele>
        <time>2026-05-06T06:53:41.000Z</time>
      </trkpt>
      <trkpt lat="41.841806" lon="22.991031">
        <ele>1142.5</ele>
        <time>2026-05-06T06:53:42.000Z</time>
      </trkpt>
      <trkpt lat="41.841805" lon="22.991021">
        <ele>1142.7</ele>
        <time>2026-05-06T06:53:43.000Z</time>
      </trkpt>
      <trkpt lat="41.841803" lon="22.991008">
        <ele>1142.7</ele>
        <time>2026-05-06T06:53:44.000Z</time>
      </trkpt>
      <trkpt lat="41.841802" lon="22.990996">
        <ele>1142.7</ele>
        <time>2026-05-06T06:53:45.000Z</time>
      </trkpt>
      <trkpt lat="41.841801" lon="22.990981">
        <ele>1142.7</ele>
        <time>2026-05-06T06:53:46.000Z</time>
      </trkpt>
      <trkpt lat="41.841799" lon="22.990968">
        <ele>1142.7</ele>
        <time>2026-05-06T06:53:47.000Z</time>
      </trkpt>
      <trkpt lat="41.841796" lon="22.990956">
        <ele>1142.8</ele>
        <time>2026-05-06T06:53:48.000Z</time>
      </trkpt>
      <trkpt lat="41.841794" lon="22.990943">
        <ele>1142.8</ele>
        <time>2026-05-06T06:53:49.000Z</time>
      </trkpt>
      <trkpt lat="41.84179" lon="22.99093">
        <ele>1142.8</ele>
        <time>2026-05-06T06:53:50.000Z</time>
      </trkpt>
      <trkpt lat="41.841785" lon="22.990918">
        <ele>1142.8</ele>
        <time>2026-05-06T06:53:51.000Z</time>
      </trkpt>
      <trkpt lat="41.841781" lon="22.990907">
        <ele>1142.8</ele>
        <time>2026-05-06T06:53:52.000Z</time>
      </trkpt>
      <trkpt lat="41.841779" lon="22.990896">
        <ele>1143</ele>
        <time>2026-05-06T06:53:53.000Z</time>
      </trkpt>
      <trkpt lat="41.841776" lon="22.990884">
        <ele>1143</ele>
        <time>2026-05-06T06:53:54.000Z</time>
      </trkpt>
      <trkpt lat="41.841774" lon="22.990872">
        <ele>1143</ele>
        <time>2026-05-06T06:53:55.000Z</time>
      </trkpt>
      <trkpt lat="41.841772" lon="22.99086">
        <ele>1143</ele>
        <time>2026-05-06T06:53:56.000Z</time>
      </trkpt>
      <trkpt lat="41.84177" lon="22.990849">
        <ele>1143</ele>
        <time>2026-05-06T06:53:57.000Z</time>
      </trkpt>
      <trkpt lat="41.841767" lon="22.990837">
        <ele>1143.3</ele>
        <time>2026-05-06T06:53:58.000Z</time>
      </trkpt>
      <trkpt lat="41.841765" lon="22.990826">
        <ele>1143.3</ele>
        <time>2026-05-06T06:53:59.000Z</time>
      </trkpt>
      <trkpt lat="41.841765" lon="22.990814">
        <ele>1143.3</ele>
        <time>2026-05-06T06:54:00.000Z</time>
      </trkpt>
      <trkpt lat="41.841767" lon="22.990802">
        <ele>1143.3</ele>
        <time>2026-05-06T06:54:01.000Z</time>
      </trkpt>
      <trkpt lat="41.841771" lon="22.990791">
        <ele>1143.3</ele>
        <time>2026-05-06T06:54:02.000Z</time>
      </trkpt>
      <trkpt lat="41.841776" lon="22.990781">
        <ele>1143.5</ele>
        <time>2026-05-06T06:54:03.000Z</time>
      </trkpt>
      <trkpt lat="41.841783" lon="22.990773">
        <ele>1143.5</ele>
        <time>2026-05-06T06:54:04.000Z</time>
      </trkpt>
      <trkpt lat="41.841791" lon="22.990767">
        <ele>1143.5</ele>
        <time>2026-05-06T06:54:05.000Z</time>
      </trkpt>
      <trkpt lat="41.8418" lon="22.990762">
        <ele>1143.5</ele>
        <time>2026-05-06T06:54:06.000Z</time>
      </trkpt>
      <trkpt lat="41.841809" lon="22.990758">
        <ele>1143.5</ele>
        <time>2026-05-06T06:54:07.000Z</time>
      </trkpt>
      <trkpt lat="41.84182" lon="22.990755">
        <ele>1144.2</ele>
        <time>2026-05-06T06:54:08.000Z</time>
      </trkpt>
      <trkpt lat="41.841831" lon="22.990751">
        <ele>1144.2</ele>
        <time>2026-05-06T06:54:09.000Z</time>
      </trkpt>
      <trkpt lat="41.841842" lon="22.990746">
        <ele>1144.2</ele>
        <time>2026-05-06T06:54:10.000Z</time>
      </trkpt>
      <trkpt lat="41.841856" lon="22.990742">
        <ele>1144.2</ele>
        <time>2026-05-06T06:54:11.000Z</time>
      </trkpt>
      <trkpt lat="41.84187" lon="22.990738">
        <ele>1144.2</ele>
        <time>2026-05-06T06:54:12.000Z</time>
      </trkpt>
      <trkpt lat="41.841884" lon="22.990734">
        <ele>1145.3</ele>
        <time>2026-05-06T06:54:13.000Z</time>
      </trkpt>
      <trkpt lat="41.841897" lon="22.990729">
        <ele>1145.3</ele>
        <time>2026-05-06T06:54:14.000Z</time>
      </trkpt>
      <trkpt lat="41.84191" lon="22.990725">
        <ele>1145.3</ele>
        <time>2026-05-06T06:54:15.000Z</time>
      </trkpt>
      <trkpt lat="41.841919" lon="22.990721">
        <ele>1145.3</ele>
        <time>2026-05-06T06:54:16.000Z</time>
      </trkpt>
      <trkpt lat="41.841928" lon="22.990719">
        <ele>1145.3</ele>
        <time>2026-05-06T06:54:17.000Z</time>
      </trkpt>
      <trkpt lat="41.841936" lon="22.990718">
        <ele>1146</ele>
        <time>2026-05-06T06:54:18.000Z</time>
      </trkpt>
      <trkpt lat="41.841945" lon="22.99072">
        <ele>1146</ele>
        <time>2026-05-06T06:54:19.000Z</time>
      </trkpt>
      <trkpt lat="41.841954" lon="22.990722">
        <ele>1146</ele>
        <time>2026-05-06T06:54:20.000Z</time>
      </trkpt>
      <trkpt lat="41.841962" lon="22.990725">
        <ele>1146</ele>
        <time>2026-05-06T06:54:21.000Z</time>
      </trkpt>
      <trkpt lat="41.841969" lon="22.990727">
        <ele>1146</ele>
        <time>2026-05-06T06:54:22.000Z</time>
      </trkpt>
      <trkpt lat="41.841973" lon="22.990727">
        <ele>1147.8</ele>
        <time>2026-05-06T06:54:23.000Z</time>
      </trkpt>
      <trkpt lat="41.841977" lon="22.990727">
        <ele>1147.8</ele>
        <time>2026-05-06T06:54:24.000Z</time>
      </trkpt>
      <trkpt lat="41.841979" lon="22.990727">
        <ele>1147.8</ele>
        <time>2026-05-06T06:54:25.000Z</time>
      </trkpt>
      <trkpt lat="41.841981" lon="22.990728">
        <ele>1147.8</ele>
        <time>2026-05-06T06:54:26.000Z</time>
      </trkpt>
      <trkpt lat="41.841982" lon="22.990729">
        <ele>1147.8</ele>
        <time>2026-05-06T06:54:27.000Z</time>
      </trkpt>
      <trkpt lat="41.841985" lon="22.990729">
        <ele>1150</ele>
        <time>2026-05-06T06:54:28.000Z</time>
      </trkpt>
      <trkpt lat="41.841987" lon="22.990731">
        <ele>1150</ele>
        <time>2026-05-06T06:54:29.000Z</time>
      </trkpt>
      <trkpt lat="41.841988" lon="22.990732">
        <ele>1150</ele>
        <time>2026-05-06T06:54:30.000Z</time>
      </trkpt>
      <trkpt lat="41.841989" lon="22.990733">
        <ele>1150</ele>
        <time>2026-05-06T06:54:31.000Z</time>
      </trkpt>
      <trkpt lat="41.84199" lon="22.990733">
        <ele>1150</ele>
        <time>2026-05-06T06:54:32.000Z</time>
      </trkpt>
      <trkpt lat="41.841989" lon="22.990734">
        <ele>1150.9</ele>
        <time>2026-05-06T06:54:33.000Z</time>
      </trkpt>
      <trkpt lat="41.841989" lon="22.990735">
        <ele>1150.9</ele>
        <time>2026-05-06T06:54:34.000Z</time>
      </trkpt>
      <trkpt lat="41.841988" lon="22.990735">
        <ele>1150.9</ele>
        <time>2026-05-06T06:54:35.000Z</time>
      </trkpt>
      <trkpt lat="41.841987" lon="22.990735">
        <ele>1150.9</ele>
        <time>2026-05-06T06:54:36.000Z</time>
      </trkpt>
      <trkpt lat="41.841986" lon="22.990736">
        <ele>1150.9</ele>
        <time>2026-05-06T06:54:37.000Z</time>
      </trkpt>
      <trkpt lat="41.841986" lon="22.990736">
        <ele>1151.8</ele>
        <time>2026-05-06T06:54:38.000Z</time>
      </trkpt>
      <trkpt lat="41.841986" lon="22.990736">
        <ele>1151.8</ele>
        <time>2026-05-06T06:54:39.000Z</time>
      </trkpt>
      <trkpt lat="41.841988" lon="22.990737">
        <ele>1151.8</ele>
        <time>2026-05-06T06:54:40.000Z</time>
      </trkpt>
      <trkpt lat="41.84199" lon="22.990738">
        <ele>1151.8</ele>
        <time>2026-05-06T06:54:41.000Z</time>
      </trkpt>
      <trkpt lat="41.841993" lon="22.990739">
        <ele>1151.8</ele>
        <time>2026-05-06T06:54:42.000Z</time>
      </trkpt>
      <trkpt lat="41.841996" lon="22.990739">
        <ele>1152</ele>
        <time>2026-05-06T06:54:43.000Z</time>
      </trkpt>
      <trkpt lat="41.841998" lon="22.990738">
        <ele>1152</ele>
        <time>2026-05-06T06:54:44.000Z</time>
      </trkpt>
      <trkpt lat="41.841999" lon="22.990738">
        <ele>1152</ele>
        <time>2026-05-06T06:54:45.000Z</time>
      </trkpt>
      <trkpt lat="41.841999" lon="22.990738">
        <ele>1152</ele>
        <time>2026-05-06T06:54:46.000Z</time>
      </trkpt>
      <trkpt lat="41.841999" lon="22.990737">
        <ele>1152</ele>
        <time>2026-05-06T06:54:47.000Z</time>
      </trkpt>
      <trkpt lat="41.841998" lon="22.990738">
        <ele>1152.1</ele>
        <time>2026-05-06T06:54:48.000Z</time>
      </trkpt>
      <trkpt lat="41.841998" lon="22.990738">
        <ele>1152.1</ele>
        <time>2026-05-06T06:54:49.000Z</time>
      </trkpt>
      <trkpt lat="41.841997" lon="22.990739">
        <ele>1152.1</ele>
        <time>2026-05-06T06:54:50.000Z</time>
      </trkpt>
      <trkpt lat="41.841997" lon="22.99074">
        <ele>1152.1</ele>
        <time>2026-05-06T06:54:51.000Z</time>
      </trkpt>
      <trkpt lat="41.841996" lon="22.990741">
        <ele>1152.1</ele>
        <time>2026-05-06T06:54:52.000Z</time>
      </trkpt>
      <trkpt lat="41.841996" lon="22.990741">
        <ele>1152.3</ele>
        <time>2026-05-06T06:54:53.000Z</time>
      </trkpt>
      <trkpt lat="41.841997" lon="22.990741">
        <ele>1152.3</ele>
        <time>2026-05-06T06:54:54.000Z</time>
      </trkpt>
      <trkpt lat="41.841997" lon="22.990741">
        <ele>1152.3</ele>
        <time>2026-05-06T06:54:55.000Z</time>
      </trkpt>
      <trkpt lat="41.841998" lon="22.99074">
        <ele>1152.3</ele>
        <time>2026-05-06T06:54:56.000Z</time>
      </trkpt>
      <trkpt lat="41.841998" lon="22.990739">
        <ele>1152.3</ele>
        <time>2026-05-06T06:54:57.000Z</time>
      </trkpt>
      <trkpt lat="41.841999" lon="22.990739">
        <ele>1152.6</ele>
        <time>2026-05-06T06:54:58.000Z</time>
      </trkpt>
      <trkpt lat="41.842" lon="22.990738">
        <ele>1152.6</ele>
        <time>2026-05-06T06:54:59.000Z</time>
      </trkpt>
      <trkpt lat="41.842" lon="22.990737">
        <ele>1152.6</ele>
        <time>2026-05-06T06:55:00.000Z</time>
      </trkpt>
      <trkpt lat="41.842001" lon="22.990737">
        <ele>1152.6</ele>
        <time>2026-05-06T06:55:01.000Z</time>
      </trkpt>
      <trkpt lat="41.842001" lon="22.990737">
        <ele>1152.6</ele>
        <time>2026-05-06T06:55:02.000Z</time>
      </trkpt>
      <trkpt lat="41.842002" lon="22.990736">
        <ele>1152.7</ele>
        <time>2026-05-06T06:55:03.000Z</time>
      </trkpt>
      <trkpt lat="41.842002" lon="22.990736">
        <ele>1152.7</ele>
        <time>2026-05-06T06:55:04.000Z</time>
      </trkpt>
      <trkpt lat="41.842002" lon="22.990736">
        <ele>1152.7</ele>
        <time>2026-05-06T06:55:05.000Z</time>
      </trkpt>
      <trkpt lat="41.842002" lon="22.990735">
        <ele>1152.7</ele>
        <time>2026-05-06T06:55:06.000Z</time>
      </trkpt>
      <trkpt lat="41.842004" lon="22.990734">
        <ele>1152.7</ele>
        <time>2026-05-06T06:55:07.000Z</time>
      </trkpt>
      <trkpt lat="41.842005" lon="22.990734">
        <ele>1152.8</ele>
        <time>2026-05-06T06:55:08.000Z</time>
      </trkpt>
      <trkpt lat="41.842007" lon="22.990734">
        <ele>1152.8</ele>
        <time>2026-05-06T06:55:09.000Z</time>
      </trkpt>
      <trkpt lat="41.84201" lon="22.990733">
        <ele>1152.8</ele>
        <time>2026-05-06T06:55:10.000Z</time>
      </trkpt>
      <trkpt lat="41.842012" lon="22.990732">
        <ele>1152.8</ele>
        <time>2026-05-06T06:55:11.000Z</time>
      </trkpt>
      <trkpt lat="41.842012" lon="22.99073">
        <ele>1152.8</ele>
        <time>2026-05-06T06:55:12.000Z</time>
      </trkpt>
      <trkpt lat="41.842012" lon="22.990727">
        <ele>1152.8</ele>
        <time>2026-05-06T06:55:13.000Z</time>
      </trkpt>
      <trkpt lat="41.842012" lon="22.990725">
        <ele>1152.8</ele>
        <time>2026-05-06T06:55:14.000Z</time>
      </trkpt>
      <trkpt lat="41.842012" lon="22.990723">
        <ele>1152.8</ele>
        <time>2026-05-06T06:55:15.000Z</time>
      </trkpt>
      <trkpt lat="41.842013" lon="22.990721">
        <ele>1152.8</ele>
        <time>2026-05-06T06:55:16.000Z</time>
      </trkpt>
      <trkpt lat="41.842012" lon="22.990721">
        <ele>1152.8</ele>
        <time>2026-05-06T06:55:17.000Z</time>
      </trkpt>
      <trkpt lat="41.842012" lon="22.990721">
        <ele>1152.8</ele>
        <time>2026-05-06T06:55:18.000Z</time>
      </trkpt>
      <trkpt lat="41.842011" lon="22.990721">
        <ele>1152.8</ele>
        <time>2026-05-06T06:55:19.000Z</time>
      </trkpt>
      <trkpt lat="41.842009" lon="22.990722">
        <ele>1152.8</ele>
        <time>2026-05-06T06:55:20.000Z</time>
      </trkpt>
      <trkpt lat="41.842008" lon="22.990723">
        <ele>1152.8</ele>
        <time>2026-05-06T06:55:21.000Z</time>
      </trkpt>
      <trkpt lat="41.842009" lon="22.990724">
        <ele>1152.8</ele>
        <time>2026-05-06T06:55:22.000Z</time>
      </trkpt>
      <trkpt lat="41.842009" lon="22.990724">
        <ele>1152.7</ele>
        <time>2026-05-06T06:55:23.000Z</time>
      </trkpt>
      <trkpt lat="41.84201" lon="22.990725">
        <ele>1152.7</ele>
        <time>2026-05-06T06:55:24.000Z</time>
      </trkpt>
      <trkpt lat="41.84201" lon="22.990725">
        <ele>1152.7</ele>
        <time>2026-05-06T06:55:25.000Z</time>
      </trkpt>
      <trkpt lat="41.842011" lon="22.990725">
        <ele>1152.7</ele>
        <time>2026-05-06T06:55:26.000Z</time>
      </trkpt>
      <trkpt lat="41.842011" lon="22.990725">
        <ele>1152.7</ele>
        <time>2026-05-06T06:55:27.000Z</time>
      </trkpt>
      <trkpt lat="41.842011" lon="22.990725">
        <ele>1152.6</ele>
        <time>2026-05-06T06:55:28.000Z</time>
      </trkpt>
      <trkpt lat="41.842011" lon="22.990725">
        <ele>1152.6</ele>
        <time>2026-05-06T06:55:29.000Z</time>
      </trkpt>
      <trkpt lat="41.842011" lon="22.990725">
        <ele>1152.6</ele>
        <time>2026-05-06T06:55:30.000Z</time>
      </trkpt>
      <trkpt lat="41.842011" lon="22.990725">
        <ele>1152.6</ele>
        <time>2026-05-06T06:55:31.000Z</time>
      </trkpt>
      <trkpt lat="41.842012" lon="22.990726">
        <ele>1152.6</ele>
        <time>2026-05-06T06:55:32.000Z</time>
      </trkpt>
      <trkpt lat="41.842013" lon="22.990728">
        <ele>1152.6</ele>
        <time>2026-05-06T06:55:33.000Z</time>
      </trkpt>
      <trkpt lat="41.842016" lon="22.99073">
        <ele>1152.6</ele>
        <time>2026-05-06T06:55:34.000Z</time>
      </trkpt>
      <trkpt lat="41.84202" lon="22.990733">
        <ele>1152.6</ele>
        <time>2026-05-06T06:55:35.000Z</time>
      </trkpt>
      <trkpt lat="41.842024" lon="22.990736">
        <ele>1152.6</ele>
        <time>2026-05-06T06:55:36.000Z</time>
      </trkpt>
      <trkpt lat="41.842028" lon="22.990739">
        <ele>1152.6</ele>
        <time>2026-05-06T06:55:37.000Z</time>
      </trkpt>
      <trkpt lat="41.842031" lon="22.990741">
        <ele>1152.5</ele>
        <time>2026-05-06T06:55:38.000Z</time>
      </trkpt>
      <trkpt lat="41.842033" lon="22.990743">
        <ele>1152.5</ele>
        <time>2026-05-06T06:55:39.000Z</time>
      </trkpt>
      <trkpt lat="41.842033" lon="22.990746">
        <ele>1152.5</ele>
        <time>2026-05-06T06:55:40.000Z</time>
      </trkpt>
      <trkpt lat="41.842033" lon="22.990747">
        <ele>1152.5</ele>
        <time>2026-05-06T06:55:41.000Z</time>
      </trkpt>
      <trkpt lat="41.842032" lon="22.990747">
        <ele>1152.5</ele>
        <time>2026-05-06T06:55:42.000Z</time>
      </trkpt>
      <trkpt lat="41.842032" lon="22.990746">
        <ele>1152.7</ele>
        <time>2026-05-06T06:55:43.000Z</time>
      </trkpt>
      <trkpt lat="41.842033" lon="22.990745">
        <ele>1152.7</ele>
        <time>2026-05-06T06:55:44.000Z</time>
      </trkpt>
      <trkpt lat="41.842036" lon="22.990743">
        <ele>1152.7</ele>
        <time>2026-05-06T06:55:45.000Z</time>
      </trkpt>
      <trkpt lat="41.84204" lon="22.990742">
        <ele>1152.7</ele>
        <time>2026-05-06T06:55:46.000Z</time>
      </trkpt>
      <trkpt lat="41.842046" lon="22.990743">
        <ele>1152.7</ele>
        <time>2026-05-06T06:55:47.000Z</time>
      </trkpt>
      <trkpt lat="41.842053" lon="22.990743">
        <ele>1153</ele>
        <time>2026-05-06T06:55:48.000Z</time>
      </trkpt>
      <trkpt lat="41.842061" lon="22.990744">
        <ele>1153</ele>
        <time>2026-05-06T06:55:49.000Z</time>
      </trkpt>
      <trkpt lat="41.84207" lon="22.990745">
        <ele>1153</ele>
        <time>2026-05-06T06:55:50.000Z</time>
      </trkpt>
      <trkpt lat="41.842079" lon="22.990746">
        <ele>1153</ele>
        <time>2026-05-06T06:55:51.000Z</time>
      </trkpt>
      <trkpt lat="41.842086" lon="22.990747">
        <ele>1153</ele>
        <time>2026-05-06T06:55:52.000Z</time>
      </trkpt>
      <trkpt lat="41.842094" lon="22.990747">
        <ele>1153.5</ele>
        <time>2026-05-06T06:55:53.000Z</time>
      </trkpt>
      <trkpt lat="41.842105" lon="22.990747">
        <ele>1153.5</ele>
        <time>2026-05-06T06:55:54.000Z</time>
      </trkpt>
      <trkpt lat="41.842115" lon="22.990747">
        <ele>1153.5</ele>
        <time>2026-05-06T06:55:55.000Z</time>
      </trkpt>
      <trkpt lat="41.842126" lon="22.990747">
        <ele>1153.5</ele>
        <time>2026-05-06T06:55:56.000Z</time>
      </trkpt>
      <trkpt lat="41.842137" lon="22.990746">
        <ele>1153.5</ele>
        <time>2026-05-06T06:55:57.000Z</time>
      </trkpt>
      <trkpt lat="41.842149" lon="22.990747">
        <ele>1154.2</ele>
        <time>2026-05-06T06:55:58.000Z</time>
      </trkpt>
      <trkpt lat="41.842159" lon="22.990747">
        <ele>1154.2</ele>
        <time>2026-05-06T06:55:59.000Z</time>
      </trkpt>
      <trkpt lat="41.842168" lon="22.990748">
        <ele>1154.2</ele>
        <time>2026-05-06T06:56:00.000Z</time>
      </trkpt>
      <trkpt lat="41.842177" lon="22.99075">
        <ele>1154.2</ele>
        <time>2026-05-06T06:56:01.000Z</time>
      </trkpt>
      <trkpt lat="41.842187" lon="22.990752">
        <ele>1154.2</ele>
        <time>2026-05-06T06:56:02.000Z</time>
      </trkpt>
      <trkpt lat="41.842195" lon="22.990754">
        <ele>1154.6</ele>
        <time>2026-05-06T06:56:03.000Z</time>
      </trkpt>
      <trkpt lat="41.842204" lon="22.990756">
        <ele>1154.6</ele>
        <time>2026-05-06T06:56:04.000Z</time>
      </trkpt>
      <trkpt lat="41.842213" lon="22.990758">
        <ele>1154.6</ele>
        <time>2026-05-06T06:56:05.000Z</time>
      </trkpt>
      <trkpt lat="41.842223" lon="22.990761">
        <ele>1154.6</ele>
        <time>2026-05-06T06:56:06.000Z</time>
      </trkpt>
      <trkpt lat="41.842232" lon="22.990764">
        <ele>1154.6</ele>
        <time>2026-05-06T06:56:07.000Z</time>
      </trkpt>
      <trkpt lat="41.842241" lon="22.990767">
        <ele>1155.7</ele>
        <time>2026-05-06T06:56:08.000Z</time>
      </trkpt>
      <trkpt lat="41.842251" lon="22.990772">
        <ele>1155.7</ele>
        <time>2026-05-06T06:56:09.000Z</time>
      </trkpt>
      <trkpt lat="41.84226" lon="22.990777">
        <ele>1155.7</ele>
        <time>2026-05-06T06:56:10.000Z</time>
      </trkpt>
      <trkpt lat="41.84227" lon="22.990781">
        <ele>1155.7</ele>
        <time>2026-05-06T06:56:11.000Z</time>
      </trkpt>
      <trkpt lat="41.84228" lon="22.990786">
        <ele>1155.7</ele>
        <time>2026-05-06T06:56:12.000Z</time>
      </trkpt>
      <trkpt lat="41.842289" lon="22.990791">
        <ele>1157</ele>
        <time>2026-05-06T06:56:13.000Z</time>
      </trkpt>
      <trkpt lat="41.842298" lon="22.990796">
        <ele>1157</ele>
        <time>2026-05-06T06:56:14.000Z</time>
      </trkpt>
      <trkpt lat="41.842308" lon="22.990801">
        <ele>1157</ele>
        <time>2026-05-06T06:56:15.000Z</time>
      </trkpt>
      <trkpt lat="41.842316" lon="22.990807">
        <ele>1157</ele>
        <time>2026-05-06T06:56:16.000Z</time>
      </trkpt>
      <trkpt lat="41.842326" lon="22.990811">
        <ele>1157</ele>
        <time>2026-05-06T06:56:17.000Z</time>
      </trkpt>
      <trkpt lat="41.842335" lon="22.990814">
        <ele>1157.5</ele>
        <time>2026-05-06T06:56:18.000Z</time>
      </trkpt>
      <trkpt lat="41.842344" lon="22.990815">
        <ele>1157.5</ele>
        <time>2026-05-06T06:56:19.000Z</time>
      </trkpt>
      <trkpt lat="41.84235" lon="22.990812">
        <ele>1157.5</ele>
        <time>2026-05-06T06:56:20.000Z</time>
      </trkpt>
      <trkpt lat="41.842357" lon="22.990805">
        <ele>1157.5</ele>
        <time>2026-05-06T06:56:21.000Z</time>
      </trkpt>
      <trkpt lat="41.842364" lon="22.990798">
        <ele>1157.5</ele>
        <time>2026-05-06T06:56:22.000Z</time>
      </trkpt>
      <trkpt lat="41.842371" lon="22.990791">
        <ele>1158.5</ele>
        <time>2026-05-06T06:56:23.000Z</time>
      </trkpt>
      <trkpt lat="41.84238" lon="22.990784">
        <ele>1158.5</ele>
        <time>2026-05-06T06:56:24.000Z</time>
      </trkpt>
      <trkpt lat="41.84239" lon="22.990779">
        <ele>1158.5</ele>
        <time>2026-05-06T06:56:25.000Z</time>
      </trkpt>
      <trkpt lat="41.842401" lon="22.990776">
        <ele>1158.5</ele>
        <time>2026-05-06T06:56:26.000Z</time>
      </trkpt>
      <trkpt lat="41.842409" lon="22.990772">
        <ele>1158.5</ele>
        <time>2026-05-06T06:56:27.000Z</time>
      </trkpt>
      <trkpt lat="41.842415" lon="22.990764">
        <ele>1159.1</ele>
        <time>2026-05-06T06:56:28.000Z</time>
      </trkpt>
      <trkpt lat="41.842419" lon="22.990754">
        <ele>1159.1</ele>
        <time>2026-05-06T06:56:29.000Z</time>
      </trkpt>
      <trkpt lat="41.84242" lon="22.990742">
        <ele>1159.1</ele>
        <time>2026-05-06T06:56:30.000Z</time>
      </trkpt>
      <trkpt lat="41.842419" lon="22.990729">
        <ele>1159.1</ele>
        <time>2026-05-06T06:56:31.000Z</time>
      </trkpt>
      <trkpt lat="41.842418" lon="22.990713">
        <ele>1159.1</ele>
        <time>2026-05-06T06:56:32.000Z</time>
      </trkpt>
      <trkpt lat="41.842416" lon="22.990698">
        <ele>1159.5</ele>
        <time>2026-05-06T06:56:33.000Z</time>
      </trkpt>
      <trkpt lat="41.842414" lon="22.990681">
        <ele>1159.5</ele>
        <time>2026-05-06T06:56:34.000Z</time>
      </trkpt>
      <trkpt lat="41.842411" lon="22.990665">
        <ele>1159.5</ele>
        <time>2026-05-06T06:56:35.000Z</time>
      </trkpt>
      <trkpt lat="41.842409" lon="22.990648">
        <ele>1159.5</ele>
        <time>2026-05-06T06:56:36.000Z</time>
      </trkpt>
      <trkpt lat="41.842408" lon="22.990632">
        <ele>1159.5</ele>
        <time>2026-05-06T06:56:37.000Z</time>
      </trkpt>
      <trkpt lat="41.842408" lon="22.990618">
        <ele>1160.2</ele>
        <time>2026-05-06T06:56:38.000Z</time>
      </trkpt>
      <trkpt lat="41.84241" lon="22.990606">
        <ele>1160.2</ele>
        <time>2026-05-06T06:56:39.000Z</time>
      </trkpt>
      <trkpt lat="41.842411" lon="22.990598">
        <ele>1160.2</ele>
        <time>2026-05-06T06:56:40.000Z</time>
      </trkpt>
      <trkpt lat="41.842412" lon="22.990594">
        <ele>1160.2</ele>
        <time>2026-05-06T06:56:41.000Z</time>
      </trkpt>
      <trkpt lat="41.842413" lon="22.990594">
        <ele>1160.2</ele>
        <time>2026-05-06T06:56:42.000Z</time>
      </trkpt>
      <trkpt lat="41.842414" lon="22.990596">
        <ele>1160.5</ele>
        <time>2026-05-06T06:56:43.000Z</time>
      </trkpt>
      <trkpt lat="41.842415" lon="22.990602">
        <ele>1160.5</ele>
        <time>2026-05-06T06:56:44.000Z</time>
      </trkpt>
      <trkpt lat="41.842416" lon="22.990607">
        <ele>1160.5</ele>
        <time>2026-05-06T06:56:45.000Z</time>
      </trkpt>
      <trkpt lat="41.842417" lon="22.990612">
        <ele>1160.5</ele>
        <time>2026-05-06T06:56:46.000Z</time>
      </trkpt>
      <trkpt lat="41.842418" lon="22.990614">
        <ele>1160.5</ele>
        <time>2026-05-06T06:56:47.000Z</time>
      </trkpt>
      <trkpt lat="41.842417" lon="22.990615">
        <ele>1160.4</ele>
        <time>2026-05-06T06:56:48.000Z</time>
      </trkpt>
      <trkpt lat="41.842416" lon="22.990615">
        <ele>1160.4</ele>
        <time>2026-05-06T06:56:49.000Z</time>
      </trkpt>
      <trkpt lat="41.842416" lon="22.990616">
        <ele>1160.4</ele>
        <time>2026-05-06T06:56:50.000Z</time>
      </trkpt>
      <trkpt lat="41.842415" lon="22.990616">
        <ele>1160.4</ele>
        <time>2026-05-06T06:56:51.000Z</time>
      </trkpt>
      <trkpt lat="41.842415" lon="22.990616">
        <ele>1160.4</ele>
        <time>2026-05-06T06:56:52.000Z</time>
      </trkpt>
      <trkpt lat="41.842415" lon="22.990616">
        <ele>1160.2</ele>
        <time>2026-05-06T06:56:53.000Z</time>
      </trkpt>
      <trkpt lat="41.842416" lon="22.990616">
        <ele>1160.2</ele>
        <time>2026-05-06T06:56:54.000Z</time>
      </trkpt>
      <trkpt lat="41.842416" lon="22.990616">
        <ele>1160.2</ele>
        <time>2026-05-06T06:56:55.000Z</time>
      </trkpt>
      <trkpt lat="41.842416" lon="22.990616">
        <ele>1160.2</ele>
        <time>2026-05-06T06:56:56.000Z</time>
      </trkpt>
      <trkpt lat="41.842416" lon="22.990616">
        <ele>1160.2</ele>
        <time>2026-05-06T06:56:57.000Z</time>
      </trkpt>
      <trkpt lat="41.842416" lon="22.990616">
        <ele>1160.2</ele>
        <time>2026-05-06T06:56:58.000Z</time>
      </trkpt>
      <trkpt lat="41.842416" lon="22.990619">
        <ele>1160.2</ele>
        <time>2026-05-06T06:56:59.000Z</time>
      </trkpt>
      <trkpt lat="41.842418" lon="22.990625">
        <ele>1160.2</ele>
        <time>2026-05-06T06:57:00.000Z</time>
      </trkpt>
      <trkpt lat="41.842419" lon="22.990632">
        <ele>1160.2</ele>
        <time>2026-05-06T06:57:01.000Z</time>
      </trkpt>
      <trkpt lat="41.842423" lon="22.990641">
        <ele>1160.2</ele>
        <time>2026-05-06T06:57:02.000Z</time>
      </trkpt>
      <trkpt lat="41.842427" lon="22.990656">
        <ele>1160.3</ele>
        <time>2026-05-06T06:57:03.000Z</time>
      </trkpt>
      <trkpt lat="41.842431" lon="22.990669">
        <ele>1160.3</ele>
        <time>2026-05-06T06:57:04.000Z</time>
      </trkpt>
      <trkpt lat="41.842435" lon="22.99068">
        <ele>1160.3</ele>
        <time>2026-05-06T06:57:05.000Z</time>
      </trkpt>
      <trkpt lat="41.84244" lon="22.990691">
        <ele>1160.3</ele>
        <time>2026-05-06T06:57:06.000Z</time>
      </trkpt>
      <trkpt lat="41.842443" lon="22.990699">
        <ele>1160.3</ele>
        <time>2026-05-06T06:57:07.000Z</time>
      </trkpt>
      <trkpt lat="41.842446" lon="22.990702">
        <ele>1160.5</ele>
        <time>2026-05-06T06:57:08.000Z</time>
      </trkpt>
      <trkpt lat="41.842448" lon="22.990703">
        <ele>1160.5</ele>
        <time>2026-05-06T06:57:09.000Z</time>
      </trkpt>
      <trkpt lat="41.842449" lon="22.990704">
        <ele>1160.5</ele>
        <time>2026-05-06T06:57:10.000Z</time>
      </trkpt>
      <trkpt lat="41.842449" lon="22.990704">
        <ele>1160.5</ele>
        <time>2026-05-06T06:57:11.000Z</time>
      </trkpt>
      <trkpt lat="41.84245" lon="22.990703">
        <ele>1160.5</ele>
        <time>2026-05-06T06:57:12.000Z</time>
      </trkpt>
      <trkpt lat="41.842451" lon="22.990701">
        <ele>1160.7</ele>
        <time>2026-05-06T06:57:13.000Z</time>
      </trkpt>
      <trkpt lat="41.842454" lon="22.990699">
        <ele>1160.7</ele>
        <time>2026-05-06T06:57:14.000Z</time>
      </trkpt>
      <trkpt lat="41.842457" lon="22.990694">
        <ele>1160.7</ele>
        <time>2026-05-06T06:57:15.000Z</time>
      </trkpt>
      <trkpt lat="41.842461" lon="22.99069">
        <ele>1160.7</ele>
        <time>2026-05-06T06:57:16.000Z</time>
      </trkpt>
      <trkpt lat="41.842463" lon="22.990686">
        <ele>1160.7</ele>
        <time>2026-05-06T06:57:17.000Z</time>
      </trkpt>
      <trkpt lat="41.842465" lon="22.990683">
        <ele>1160.8</ele>
        <time>2026-05-06T06:57:18.000Z</time>
      </trkpt>
      <trkpt lat="41.842468" lon="22.990681">
        <ele>1160.8</ele>
        <time>2026-05-06T06:57:19.000Z</time>
      </trkpt>
      <trkpt lat="41.84247" lon="22.990682">
        <ele>1160.8</ele>
        <time>2026-05-06T06:57:20.000Z</time>
      </trkpt>
      <trkpt lat="41.842471" lon="22.990683">
        <ele>1160.8</ele>
        <time>2026-05-06T06:57:21.000Z</time>
      </trkpt>
      <trkpt lat="41.842475" lon="22.990686">
        <ele>1160.8</ele>
        <time>2026-05-06T06:57:22.000Z</time>
      </trkpt>
      <trkpt lat="41.842478" lon="22.99069">
        <ele>1161.2</ele>
        <time>2026-05-06T06:57:23.000Z</time>
      </trkpt>
      <trkpt lat="41.842481" lon="22.990694">
        <ele>1161.2</ele>
        <time>2026-05-06T06:57:24.000Z</time>
      </trkpt>
      <trkpt lat="41.842484" lon="22.990696">
        <ele>1161.2</ele>
        <time>2026-05-06T06:57:25.000Z</time>
      </trkpt>
      <trkpt lat="41.842489" lon="22.990698">
        <ele>1161.2</ele>
        <time>2026-05-06T06:57:26.000Z</time>
      </trkpt>
      <trkpt lat="41.842493" lon="22.990699">
        <ele>1161.2</ele>
        <time>2026-05-06T06:57:27.000Z</time>
      </trkpt>
      <trkpt lat="41.842497" lon="22.990697">
        <ele>1161.8</ele>
        <time>2026-05-06T06:57:28.000Z</time>
      </trkpt>
      <trkpt lat="41.8425" lon="22.990695">
        <ele>1161.8</ele>
        <time>2026-05-06T06:57:29.000Z</time>
      </trkpt>
      <trkpt lat="41.842502" lon="22.990695">
        <ele>1161.8</ele>
        <time>2026-05-06T06:57:30.000Z</time>
      </trkpt>
      <trkpt lat="41.842502" lon="22.990695">
        <ele>1161.8</ele>
        <time>2026-05-06T06:57:31.000Z</time>
      </trkpt>
      <trkpt lat="41.842502" lon="22.990696">
        <ele>1161.8</ele>
        <time>2026-05-06T06:57:32.000Z</time>
      </trkpt>
      <trkpt lat="41.842501" lon="22.990697">
        <ele>1162.2</ele>
        <time>2026-05-06T06:57:33.000Z</time>
      </trkpt>
      <trkpt lat="41.842501" lon="22.990697">
        <ele>1162.2</ele>
        <time>2026-05-06T06:57:34.000Z</time>
      </trkpt>
      <trkpt lat="41.842501" lon="22.990697">
        <ele>1162.2</ele>
        <time>2026-05-06T06:57:35.000Z</time>
      </trkpt>
      <trkpt lat="41.8425" lon="22.990696">
        <ele>1162.2</ele>
        <time>2026-05-06T06:57:36.000Z</time>
      </trkpt>
      <trkpt lat="41.8425" lon="22.990694">
        <ele>1162.2</ele>
        <time>2026-05-06T06:57:37.000Z</time>
      </trkpt>
      <trkpt lat="41.842498" lon="22.990692">
        <ele>1163</ele>
        <time>2026-05-06T06:57:38.000Z</time>
      </trkpt>
      <trkpt lat="41.842496" lon="22.990691">
        <ele>1163</ele>
        <time>2026-05-06T06:57:39.000Z</time>
      </trkpt>
      <trkpt lat="41.842495" lon="22.990689">
        <ele>1163</ele>
        <time>2026-05-06T06:57:40.000Z</time>
      </trkpt>
      <trkpt lat="41.842493" lon="22.990687">
        <ele>1163</ele>
        <time>2026-05-06T06:57:41.000Z</time>
      </trkpt>
      <trkpt lat="41.842493" lon="22.990687">
        <ele>1163</ele>
        <time>2026-05-06T06:57:42.000Z</time>
      </trkpt>
      <trkpt lat="41.842494" lon="22.990687">
        <ele>1163.6</ele>
        <time>2026-05-06T06:57:43.000Z</time>
      </trkpt>
      <trkpt lat="41.842495" lon="22.990685">
        <ele>1163.6</ele>
        <time>2026-05-06T06:57:44.000Z</time>
      </trkpt>
      <trkpt lat="41.842496" lon="22.990682">
        <ele>1163.6</ele>
        <time>2026-05-06T06:57:45.000Z</time>
      </trkpt>
      <trkpt lat="41.842498" lon="22.990677">
        <ele>1163.6</ele>
        <time>2026-05-06T06:57:46.000Z</time>
      </trkpt>
      <trkpt lat="41.842498" lon="22.99067">
        <ele>1163.6</ele>
        <time>2026-05-06T06:57:47.000Z</time>
      </trkpt>
      <trkpt lat="41.842497" lon="22.990662">
        <ele>1163.8</ele>
        <time>2026-05-06T06:57:48.000Z</time>
      </trkpt>
      <trkpt lat="41.842497" lon="22.990653">
        <ele>1163.8</ele>
        <time>2026-05-06T06:57:49.000Z</time>
      </trkpt>
      <trkpt lat="41.842499" lon="22.990645">
        <ele>1163.8</ele>
        <time>2026-05-06T06:57:50.000Z</time>
      </trkpt>
      <trkpt lat="41.8425" lon="22.990637">
        <ele>1163.8</ele>
        <time>2026-05-06T06:57:51.000Z</time>
      </trkpt>
      <trkpt lat="41.842503" lon="22.990628">
        <ele>1163.8</ele>
        <time>2026-05-06T06:57:52.000Z</time>
      </trkpt>
      <trkpt lat="41.842506" lon="22.990619">
        <ele>1164.1</ele>
        <time>2026-05-06T06:57:53.000Z</time>
      </trkpt>
      <trkpt lat="41.842509" lon="22.990609">
        <ele>1164.1</ele>
        <time>2026-05-06T06:57:54.000Z</time>
      </trkpt>
      <trkpt lat="41.84251" lon="22.990596">
        <ele>1164.1</ele>
        <time>2026-05-06T06:57:55.000Z</time>
      </trkpt>
      <trkpt lat="41.842512" lon="22.990583">
        <ele>1164.1</ele>
        <time>2026-05-06T06:57:56.000Z</time>
      </trkpt>
      <trkpt lat="41.842513" lon="22.99057">
        <ele>1164.1</ele>
        <time>2026-05-06T06:57:57.000Z</time>
      </trkpt>
      <trkpt lat="41.842516" lon="22.990559">
        <ele>1164.2</ele>
        <time>2026-05-06T06:57:58.000Z</time>
      </trkpt>
      <trkpt lat="41.842519" lon="22.990552">
        <ele>1164.2</ele>
        <time>2026-05-06T06:57:59.000Z</time>
      </trkpt>
      <trkpt lat="41.842522" lon="22.990548">
        <ele>1164.2</ele>
        <time>2026-05-06T06:58:00.000Z</time>
      </trkpt>
      <trkpt lat="41.842526" lon="22.990547">
        <ele>1164.2</ele>
        <time>2026-05-06T06:58:01.000Z</time>
      </trkpt>
      <trkpt lat="41.842527" lon="22.990547">
        <ele>1164.2</ele>
        <time>2026-05-06T06:58:02.000Z</time>
      </trkpt>
      <trkpt lat="41.842526" lon="22.990545">
        <ele>1164.1</ele>
        <time>2026-05-06T06:58:03.000Z</time>
      </trkpt>
      <trkpt lat="41.842524" lon="22.990539">
        <ele>1164.1</ele>
        <time>2026-05-06T06:58:04.000Z</time>
      </trkpt>
      <trkpt lat="41.842522" lon="22.990531">
        <ele>1164.1</ele>
        <time>2026-05-06T06:58:05.000Z</time>
      </trkpt>
      <trkpt lat="41.842521" lon="22.99052">
        <ele>1164.1</ele>
        <time>2026-05-06T06:58:06.000Z</time>
      </trkpt>
      <trkpt lat="41.842521" lon="22.990506">
        <ele>1164.1</ele>
        <time>2026-05-06T06:58:07.000Z</time>
      </trkpt>
      <trkpt lat="41.842522" lon="22.990491">
        <ele>1164</ele>
        <time>2026-05-06T06:58:08.000Z</time>
      </trkpt>
      <trkpt lat="41.842524" lon="22.990477">
        <ele>1164</ele>
        <time>2026-05-06T06:58:09.000Z</time>
      </trkpt>
      <trkpt lat="41.842527" lon="22.990464">
        <ele>1164</ele>
        <time>2026-05-06T06:58:10.000Z</time>
      </trkpt>
      <trkpt lat="41.84253" lon="22.990451">
        <ele>1164</ele>
        <time>2026-05-06T06:58:11.000Z</time>
      </trkpt>
      <trkpt lat="41.842535" lon="22.990441">
        <ele>1164</ele>
        <time>2026-05-06T06:58:12.000Z</time>
      </trkpt>
      <trkpt lat="41.842541" lon="22.990432">
        <ele>1164</ele>
        <time>2026-05-06T06:58:13.000Z</time>
      </trkpt>
      <trkpt lat="41.842546" lon="22.990425">
        <ele>1164</ele>
        <time>2026-05-06T06:58:14.000Z</time>
      </trkpt>
      <trkpt lat="41.842551" lon="22.990421">
        <ele>1164</ele>
        <time>2026-05-06T06:58:15.000Z</time>
      </trkpt>
      <trkpt lat="41.842554" lon="22.990416">
        <ele>1164</ele>
        <time>2026-05-06T06:58:16.000Z</time>
      </trkpt>
      <trkpt lat="41.842557" lon="22.990412">
        <ele>1164</ele>
        <time>2026-05-06T06:58:17.000Z</time>
      </trkpt>
      <trkpt lat="41.842558" lon="22.99041">
        <ele>1164</ele>
        <time>2026-05-06T06:58:18.000Z</time>
      </trkpt>
      <trkpt lat="41.84256" lon="22.990406">
        <ele>1164</ele>
        <time>2026-05-06T06:58:19.000Z</time>
      </trkpt>
      <trkpt lat="41.842566" lon="22.990403">
        <ele>1164</ele>
        <time>2026-05-06T06:58:20.000Z</time>
      </trkpt>
      <trkpt lat="41.842572" lon="22.990403">
        <ele>1164</ele>
        <time>2026-05-06T06:58:21.000Z</time>
      </trkpt>
      <trkpt lat="41.842579" lon="22.990403">
        <ele>1164</ele>
        <time>2026-05-06T06:58:22.000Z</time>
      </trkpt>
      <trkpt lat="41.842588" lon="22.990404">
        <ele>1164.1</ele>
        <time>2026-05-06T06:58:23.000Z</time>
      </trkpt>
      <trkpt lat="41.842595" lon="22.990408">
        <ele>1164.1</ele>
        <time>2026-05-06T06:58:24.000Z</time>
      </trkpt>
      <trkpt lat="41.842601" lon="22.99041">
        <ele>1164.1</ele>
        <time>2026-05-06T06:58:25.000Z</time>
      </trkpt>
      <trkpt lat="41.842606" lon="22.990412">
        <ele>1164.1</ele>
        <time>2026-05-06T06:58:26.000Z</time>
      </trkpt>
      <trkpt lat="41.842611" lon="22.99041">
        <ele>1164.1</ele>
        <time>2026-05-06T06:58:27.000Z</time>
      </trkpt>
      <trkpt lat="41.842618" lon="22.990408">
        <ele>1164.3</ele>
        <time>2026-05-06T06:58:28.000Z</time>
      </trkpt>
      <trkpt lat="41.842625" lon="22.990405">
        <ele>1164.3</ele>
        <time>2026-05-06T06:58:29.000Z</time>
      </trkpt>
      <trkpt lat="41.842632" lon="22.990404">
        <ele>1164.3</ele>
        <time>2026-05-06T06:58:30.000Z</time>
      </trkpt>
      <trkpt lat="41.842638" lon="22.990403">
        <ele>1164.3</ele>
        <time>2026-05-06T06:58:31.000Z</time>
      </trkpt>
      <trkpt lat="41.842641" lon="22.990402">
        <ele>1164.3</ele>
        <time>2026-05-06T06:58:32.000Z</time>
      </trkpt>
      <trkpt lat="41.842643" lon="22.990401">
        <ele>1164.6</ele>
        <time>2026-05-06T06:58:33.000Z</time>
      </trkpt>
      <trkpt lat="41.842644" lon="22.990401">
        <ele>1164.6</ele>
        <time>2026-05-06T06:58:34.000Z</time>
      </trkpt>
      <trkpt lat="41.842643" lon="22.990402">
        <ele>1164.6</ele>
        <time>2026-05-06T06:58:35.000Z</time>
      </trkpt>
      <trkpt lat="41.842643" lon="22.990406">
        <ele>1164.6</ele>
        <time>2026-05-06T06:58:36.000Z</time>
      </trkpt>
      <trkpt lat="41.842643" lon="22.990414">
        <ele>1164.6</ele>
        <time>2026-05-06T06:58:37.000Z</time>
      </trkpt>
      <trkpt lat="41.842638" lon="22.990423">
        <ele>1165.5</ele>
        <time>2026-05-06T06:58:38.000Z</time>
      </trkpt>
      <trkpt lat="41.84263" lon="22.99043">
        <ele>1165.5</ele>
        <time>2026-05-06T06:58:39.000Z</time>
      </trkpt>
      <trkpt lat="41.842621" lon="22.990435">
        <ele>1165.5</ele>
        <time>2026-05-06T06:58:40.000Z</time>
      </trkpt>
      <trkpt lat="41.842616" lon="22.990438">
        <ele>1165.5</ele>
        <time>2026-05-06T06:58:41.000Z</time>
      </trkpt>
      <trkpt lat="41.842609" lon="22.990437">
        <ele>1165.5</ele>
        <time>2026-05-06T06:58:42.000Z</time>
      </trkpt>
      <trkpt lat="41.842611" lon="22.99044">
        <ele>1166.6</ele>
        <time>2026-05-06T06:58:43.000Z</time>
      </trkpt>
      <trkpt lat="41.842615" lon="22.990446">
        <ele>1166.6</ele>
        <time>2026-05-06T06:58:44.000Z</time>
      </trkpt>
      <trkpt lat="41.84262" lon="22.990454">
        <ele>1166.6</ele>
        <time>2026-05-06T06:58:45.000Z</time>
      </trkpt>
      <trkpt lat="41.842623" lon="22.990465">
        <ele>1166.6</ele>
        <time>2026-05-06T06:58:46.000Z</time>
      </trkpt>
      <trkpt lat="41.842629" lon="22.99048">
        <ele>1166.6</ele>
        <time>2026-05-06T06:58:47.000Z</time>
      </trkpt>
      <trkpt lat="41.842631" lon="22.990493">
        <ele>1166.9</ele>
        <time>2026-05-06T06:58:48.000Z</time>
      </trkpt>
      <trkpt lat="41.842634" lon="22.990508">
        <ele>1166.9</ele>
        <time>2026-05-06T06:58:49.000Z</time>
      </trkpt>
      <trkpt lat="41.842638" lon="22.990522">
        <ele>1166.9</ele>
        <time>2026-05-06T06:58:50.000Z</time>
      </trkpt>
      <trkpt lat="41.84264" lon="22.990533">
        <ele>1166.9</ele>
        <time>2026-05-06T06:58:51.000Z</time>
      </trkpt>
      <trkpt lat="41.842642" lon="22.990544">
        <ele>1166.9</ele>
        <time>2026-05-06T06:58:52.000Z</time>
      </trkpt>
      <trkpt lat="41.842643" lon="22.990553">
        <ele>1167.4</ele>
        <time>2026-05-06T06:58:53.000Z</time>
      </trkpt>
      <trkpt lat="41.842643" lon="22.990559">
        <ele>1167.4</ele>
        <time>2026-05-06T06:58:54.000Z</time>
      </trkpt>
      <trkpt lat="41.842641" lon="22.990562">
        <ele>1167.4</ele>
        <time>2026-05-06T06:58:55.000Z</time>
      </trkpt>
      <trkpt lat="41.84264" lon="22.990565">
        <ele>1167.4</ele>
        <time>2026-05-06T06:58:56.000Z</time>
      </trkpt>
      <trkpt lat="41.84264" lon="22.990566">
        <ele>1167.4</ele>
        <time>2026-05-06T06:58:57.000Z</time>
      </trkpt>
      <trkpt lat="41.842639" lon="22.990567">
        <ele>1167.5</ele>
        <time>2026-05-06T06:58:58.000Z</time>
      </trkpt>
      <trkpt lat="41.842638" lon="22.990567">
        <ele>1167.5</ele>
        <time>2026-05-06T06:58:59.000Z</time>
      </trkpt>
      <trkpt lat="41.842638" lon="22.990567">
        <ele>1167.5</ele>
        <time>2026-05-06T06:59:00.000Z</time>
      </trkpt>
      <trkpt lat="41.842638" lon="22.990566">
        <ele>1167.5</ele>
        <time>2026-05-06T06:59:01.000Z</time>
      </trkpt>
      <trkpt lat="41.842638" lon="22.990564">
        <ele>1167.5</ele>
        <time>2026-05-06T06:59:02.000Z</time>
      </trkpt>
      <trkpt lat="41.842639" lon="22.990564">
        <ele>1167.5</ele>
        <time>2026-05-06T06:59:03.000Z</time>
      </trkpt>
      <trkpt lat="41.842638" lon="22.990563">
        <ele>1167.5</ele>
        <time>2026-05-06T06:59:04.000Z</time>
      </trkpt>
      <trkpt lat="41.842638" lon="22.990562">
        <ele>1167.5</ele>
        <time>2026-05-06T06:59:05.000Z</time>
      </trkpt>
      <trkpt lat="41.842638" lon="22.990562">
        <ele>1167.5</ele>
        <time>2026-05-06T06:59:06.000Z</time>
      </trkpt>
      <trkpt lat="41.842639" lon="22.990562">
        <ele>1167.5</ele>
        <time>2026-05-06T06:59:07.000Z</time>
      </trkpt>
      <trkpt lat="41.842639" lon="22.990562">
        <ele>1167.5</ele>
        <time>2026-05-06T06:59:08.000Z</time>
      </trkpt>
      <trkpt lat="41.842639" lon="22.990561">
        <ele>1167.5</ele>
        <time>2026-05-06T06:59:09.000Z</time>
      </trkpt>
      <trkpt lat="41.842639" lon="22.990561">
        <ele>1167.5</ele>
        <time>2026-05-06T06:59:10.000Z</time>
      </trkpt>
      <trkpt lat="41.842639" lon="22.990563">
        <ele>1167.5</ele>
        <time>2026-05-06T06:59:11.000Z</time>
      </trkpt>
      <trkpt lat="41.842638" lon="22.990566">
        <ele>1167.5</ele>
        <time>2026-05-06T06:59:12.000Z</time>
      </trkpt>
      <trkpt lat="41.842637" lon="22.990569">
        <ele>1167.5</ele>
        <time>2026-05-06T06:59:13.000Z</time>
      </trkpt>
      <trkpt lat="41.842636" lon="22.990572">
        <ele>1167.5</ele>
        <time>2026-05-06T06:59:14.000Z</time>
      </trkpt>
      <trkpt lat="41.842635" lon="22.990576">
        <ele>1167.5</ele>
        <time>2026-05-06T06:59:15.000Z</time>
      </trkpt>
      <trkpt lat="41.842634" lon="22.990579">
        <ele>1167.5</ele>
        <time>2026-05-06T06:59:16.000Z</time>
      </trkpt>
      <trkpt lat="41.842635" lon="22.990583">
        <ele>1167.5</ele>
        <time>2026-05-06T06:59:17.000Z</time>
      </trkpt>
      <trkpt lat="41.842636" lon="22.990588">
        <ele>1167.5</ele>
        <time>2026-05-06T06:59:18.000Z</time>
      </trkpt>
      <trkpt lat="41.842637" lon="22.990593">
        <ele>1167.5</ele>
        <time>2026-05-06T06:59:19.000Z</time>
      </trkpt>
      <trkpt lat="41.842637" lon="22.990599">
        <ele>1167.5</ele>
        <time>2026-05-06T06:59:20.000Z</time>
      </trkpt>
      <trkpt lat="41.842637" lon="22.990603">
        <ele>1167.5</ele>
        <time>2026-05-06T06:59:21.000Z</time>
      </trkpt>
      <trkpt lat="41.842637" lon="22.990605">
        <ele>1167.5</ele>
        <time>2026-05-06T06:59:22.000Z</time>
      </trkpt>
      <trkpt lat="41.842637" lon="22.990605">
        <ele>1167.5</ele>
        <time>2026-05-06T06:59:23.000Z</time>
      </trkpt>
      <trkpt lat="41.842638" lon="22.990605">
        <ele>1167.5</ele>
        <time>2026-05-06T06:59:24.000Z</time>
      </trkpt>
      <trkpt lat="41.842638" lon="22.990605">
        <ele>1167.5</ele>
        <time>2026-05-06T06:59:25.000Z</time>
      </trkpt>
      <trkpt lat="41.842639" lon="22.990604">
        <ele>1167.5</ele>
        <time>2026-05-06T06:59:26.000Z</time>
      </trkpt>
      <trkpt lat="41.842639" lon="22.990605">
        <ele>1167.5</ele>
        <time>2026-05-06T06:59:27.000Z</time>
      </trkpt>
      <trkpt lat="41.842639" lon="22.990605">
        <ele>1167.5</ele>
        <time>2026-05-06T06:59:28.000Z</time>
      </trkpt>
      <trkpt lat="41.842639" lon="22.990605">
        <ele>1167.5</ele>
        <time>2026-05-06T06:59:29.000Z</time>
      </trkpt>
      <trkpt lat="41.842638" lon="22.990605">
        <ele>1167.5</ele>
        <time>2026-05-06T06:59:30.000Z</time>
      </trkpt>
      <trkpt lat="41.842638" lon="22.990604">
        <ele>1167.5</ele>
        <time>2026-05-06T06:59:31.000Z</time>
      </trkpt>
      <trkpt lat="41.842636" lon="22.990604">
        <ele>1167.5</ele>
        <time>2026-05-06T06:59:32.000Z</time>
      </trkpt>
      <trkpt lat="41.842635" lon="22.990603">
        <ele>1167.5</ele>
        <time>2026-05-06T06:59:33.000Z</time>
      </trkpt>
      <trkpt lat="41.842633" lon="22.990602">
        <ele>1167.5</ele>
        <time>2026-05-06T06:59:34.000Z</time>
      </trkpt>
      <trkpt lat="41.842632" lon="22.990601">
        <ele>1167.5</ele>
        <time>2026-05-06T06:59:35.000Z</time>
      </trkpt>
      <trkpt lat="41.842633" lon="22.990601">
        <ele>1167.5</ele>
        <time>2026-05-06T06:59:36.000Z</time>
      </trkpt>
      <trkpt lat="41.842634" lon="22.9906">
        <ele>1167.5</ele>
        <time>2026-05-06T06:59:37.000Z</time>
      </trkpt>
      <trkpt lat="41.842635" lon="22.990599">
        <ele>1167.5</ele>
        <time>2026-05-06T06:59:38.000Z</time>
      </trkpt>
      <trkpt lat="41.842635" lon="22.990599">
        <ele>1167.5</ele>
        <time>2026-05-06T06:59:39.000Z</time>
      </trkpt>
      <trkpt lat="41.842636" lon="22.990599">
        <ele>1167.5</ele>
        <time>2026-05-06T06:59:40.000Z</time>
      </trkpt>
      <trkpt lat="41.842636" lon="22.990599">
        <ele>1167.5</ele>
        <time>2026-05-06T06:59:41.000Z</time>
      </trkpt>
      <trkpt lat="41.842638" lon="22.990602">
        <ele>1167.5</ele>
        <time>2026-05-06T06:59:42.000Z</time>
      </trkpt>
      <trkpt lat="41.842642" lon="22.990607">
        <ele>1167.5</ele>
        <time>2026-05-06T06:59:43.000Z</time>
      </trkpt>
      <trkpt lat="41.842647" lon="22.990612">
        <ele>1167.5</ele>
        <time>2026-05-06T06:59:44.000Z</time>
      </trkpt>
      <trkpt lat="41.842652" lon="22.99062">
        <ele>1167.5</ele>
        <time>2026-05-06T06:59:45.000Z</time>
      </trkpt>
      <trkpt lat="41.842658" lon="22.990631">
        <ele>1167.5</ele>
        <time>2026-05-06T06:59:46.000Z</time>
      </trkpt>
      <trkpt lat="41.842661" lon="22.990643">
        <ele>1167.5</ele>
        <time>2026-05-06T06:59:47.000Z</time>
      </trkpt>
      <trkpt lat="41.842663" lon="22.990652">
        <ele>1167.5</ele>
        <time>2026-05-06T06:59:48.000Z</time>
      </trkpt>
      <trkpt lat="41.842664" lon="22.990661">
        <ele>1167.5</ele>
        <time>2026-05-06T06:59:49.000Z</time>
      </trkpt>
      <trkpt lat="41.842664" lon="22.990667">
        <ele>1167.5</ele>
        <time>2026-05-06T06:59:50.000Z</time>
      </trkpt>
      <trkpt lat="41.842664" lon="22.990671">
        <ele>1167.5</ele>
        <time>2026-05-06T06:59:51.000Z</time>
      </trkpt>
      <trkpt lat="41.842663" lon="22.990673">
        <ele>1167.5</ele>
        <time>2026-05-06T06:59:52.000Z</time>
      </trkpt>
      <trkpt lat="41.842663" lon="22.990674">
        <ele>1167.5</ele>
        <time>2026-05-06T06:59:53.000Z</time>
      </trkpt>
      <trkpt lat="41.842663" lon="22.990675">
        <ele>1167.5</ele>
        <time>2026-05-06T06:59:54.000Z</time>
      </trkpt>
      <trkpt lat="41.842663" lon="22.990676">
        <ele>1167.5</ele>
        <time>2026-05-06T06:59:55.000Z</time>
      </trkpt>
      <trkpt lat="41.842663" lon="22.990676">
        <ele>1167.5</ele>
        <time>2026-05-06T06:59:56.000Z</time>
      </trkpt>
      <trkpt lat="41.842663" lon="22.990676">
        <ele>1167.5</ele>
        <time>2026-05-06T06:59:57.000Z</time>
      </trkpt>
      <trkpt lat="41.842663" lon="22.990677">
        <ele>1167.7</ele>
        <time>2026-05-06T06:59:58.000Z</time>
      </trkpt>
      <trkpt lat="41.842663" lon="22.990678">
        <ele>1167.7</ele>
        <time>2026-05-06T06:59:59.000Z</time>
      </trkpt>
      <trkpt lat="41.842662" lon="22.990679">
        <ele>1167.7</ele>
        <time>2026-05-06T07:00:00.000Z</time>
      </trkpt>
      <trkpt lat="41.842662" lon="22.99068">
        <ele>1167.7</ele>
        <time>2026-05-06T07:00:01.000Z</time>
      </trkpt>
      <trkpt lat="41.842662" lon="22.99068">
        <ele>1167.7</ele>
        <time>2026-05-06T07:00:02.000Z</time>
      </trkpt>
      <trkpt lat="41.842662" lon="22.99068">
        <ele>1167.7</ele>
        <time>2026-05-06T07:00:03.000Z</time>
      </trkpt>
      <trkpt lat="41.842662" lon="22.99068">
        <ele>1167.7</ele>
        <time>2026-05-06T07:00:04.000Z</time>
      </trkpt>
      <trkpt lat="41.842662" lon="22.99068">
        <ele>1167.7</ele>
        <time>2026-05-06T07:00:05.000Z</time>
      </trkpt>
      <trkpt lat="41.842662" lon="22.990682">
        <ele>1167.7</ele>
        <time>2026-05-06T07:00:06.000Z</time>
      </trkpt>
      <trkpt lat="41.842662" lon="22.990683">
        <ele>1167.7</ele>
        <time>2026-05-06T07:00:07.000Z</time>
      </trkpt>
      <trkpt lat="41.842662" lon="22.990684">
        <ele>1167.8</ele>
        <time>2026-05-06T07:00:08.000Z</time>
      </trkpt>
      <trkpt lat="41.842662" lon="22.990685">
        <ele>1167.8</ele>
        <time>2026-05-06T07:00:09.000Z</time>
      </trkpt>
      <trkpt lat="41.842662" lon="22.990686">
        <ele>1167.8</ele>
        <time>2026-05-06T07:00:10.000Z</time>
      </trkpt>
      <trkpt lat="41.842662" lon="22.990686">
        <ele>1167.8</ele>
        <time>2026-05-06T07:00:11.000Z</time>
      </trkpt>
      <trkpt lat="41.842662" lon="22.990685">
        <ele>1167.8</ele>
        <time>2026-05-06T07:00:12.000Z</time>
      </trkpt>
      <trkpt lat="41.842662" lon="22.990685">
        <ele>1167.6</ele>
        <time>2026-05-06T07:00:13.000Z</time>
      </trkpt>
      <trkpt lat="41.842662" lon="22.990685">
        <ele>1167.6</ele>
        <time>2026-05-06T07:00:14.000Z</time>
      </trkpt>
      <trkpt lat="41.842662" lon="22.990685">
        <ele>1167.6</ele>
        <time>2026-05-06T07:00:15.000Z</time>
      </trkpt>
      <trkpt lat="41.842662" lon="22.990685">
        <ele>1167.6</ele>
        <time>2026-05-06T07:00:16.000Z</time>
      </trkpt>
      <trkpt lat="41.842662" lon="22.990685">
        <ele>1167.6</ele>
        <time>2026-05-06T07:00:17.000Z</time>
      </trkpt>
      <trkpt lat="41.842662" lon="22.990685">
        <ele>1167.5</ele>
        <time>2026-05-06T07:00:18.000Z</time>
      </trkpt>
      <trkpt lat="41.842662" lon="22.990685">
        <ele>1167.5</ele>
        <time>2026-05-06T07:00:19.000Z</time>
      </trkpt>
      <trkpt lat="41.842661" lon="22.990685">
        <ele>1167.5</ele>
        <time>2026-05-06T07:00:20.000Z</time>
      </trkpt>
      <trkpt lat="41.842661" lon="22.990685">
        <ele>1167.5</ele>
        <time>2026-05-06T07:00:21.000Z</time>
      </trkpt>
      <trkpt lat="41.842661" lon="22.990685">
        <ele>1167.5</ele>
        <time>2026-05-06T07:00:22.000Z</time>
      </trkpt>
      <trkpt lat="41.842661" lon="22.990685">
        <ele>1167.5</ele>
        <time>2026-05-06T07:00:23.000Z</time>
      </trkpt>
      <trkpt lat="41.842661" lon="22.990684">
        <ele>1167.5</ele>
        <time>2026-05-06T07:00:24.000Z</time>
      </trkpt>
      <trkpt lat="41.842661" lon="22.990684">
        <ele>1167.5</ele>
        <time>2026-05-06T07:00:25.000Z</time>
      </trkpt>
      <trkpt lat="41.842661" lon="22.990684">
        <ele>1167.5</ele>
        <time>2026-05-06T07:00:26.000Z</time>
      </trkpt>
      <trkpt lat="41.842662" lon="22.990683">
        <ele>1167.5</ele>
        <time>2026-05-06T07:00:27.000Z</time>
      </trkpt>
      <trkpt lat="41.842663" lon="22.990683">
        <ele>1167.5</ele>
        <time>2026-05-06T07:00:28.000Z</time>
      </trkpt>
      <trkpt lat="41.842664" lon="22.990683">
        <ele>1167.5</ele>
        <time>2026-05-06T07:00:29.000Z</time>
      </trkpt>
      <trkpt lat="41.842665" lon="22.990684">
        <ele>1167.5</ele>
        <time>2026-05-06T07:00:30.000Z</time>
      </trkpt>
      <trkpt lat="41.842667" lon="22.990684">
        <ele>1167.5</ele>
        <time>2026-05-06T07:00:31.000Z</time>
      </trkpt>
      <trkpt lat="41.842668" lon="22.990685">
        <ele>1167.5</ele>
        <time>2026-05-06T07:00:32.000Z</time>
      </trkpt>
      <trkpt lat="41.842671" lon="22.990688">
        <ele>1167.5</ele>
        <time>2026-05-06T07:00:33.000Z</time>
      </trkpt>
      <trkpt lat="41.842673" lon="22.990692">
        <ele>1167.5</ele>
        <time>2026-05-06T07:00:34.000Z</time>
      </trkpt>
      <trkpt lat="41.842674" lon="22.990699">
        <ele>1167.5</ele>
        <time>2026-05-06T07:00:35.000Z</time>
      </trkpt>
      <trkpt lat="41.842674" lon="22.990707">
        <ele>1167.5</ele>
        <time>2026-05-06T07:00:36.000Z</time>
      </trkpt>
      <trkpt lat="41.842674" lon="22.990719">
        <ele>1167.5</ele>
        <time>2026-05-06T07:00:37.000Z</time>
      </trkpt>
      <trkpt lat="41.842674" lon="22.990731">
        <ele>1167.4</ele>
        <time>2026-05-06T07:00:38.000Z</time>
      </trkpt>
      <trkpt lat="41.842674" lon="22.990744">
        <ele>1167.4</ele>
        <time>2026-05-06T07:00:39.000Z</time>
      </trkpt>
      <trkpt lat="41.842674" lon="22.990754">
        <ele>1167.4</ele>
        <time>2026-05-06T07:00:40.000Z</time>
      </trkpt>
      <trkpt lat="41.842674" lon="22.990764">
        <ele>1167.4</ele>
        <time>2026-05-06T07:00:41.000Z</time>
      </trkpt>
      <trkpt lat="41.842675" lon="22.990771">
        <ele>1167.4</ele>
        <time>2026-05-06T07:00:42.000Z</time>
      </trkpt>
      <trkpt lat="41.842676" lon="22.990779">
        <ele>1167.3</ele>
        <time>2026-05-06T07:00:43.000Z</time>
      </trkpt>
      <trkpt lat="41.842678" lon="22.990787">
        <ele>1167.3</ele>
        <time>2026-05-06T07:00:44.000Z</time>
      </trkpt>
      <trkpt lat="41.842681" lon="22.990796">
        <ele>1167.3</ele>
        <time>2026-05-06T07:00:45.000Z</time>
      </trkpt>
      <trkpt lat="41.842686" lon="22.990807">
        <ele>1167.3</ele>
        <time>2026-05-06T07:00:46.000Z</time>
      </trkpt>
      <trkpt lat="41.842691" lon="22.990819">
        <ele>1167.3</ele>
        <time>2026-05-06T07:00:47.000Z</time>
      </trkpt>
      <trkpt lat="41.842697" lon="22.990829">
        <ele>1167.2</ele>
        <time>2026-05-06T07:00:48.000Z</time>
      </trkpt>
      <trkpt lat="41.842704" lon="22.990839">
        <ele>1167.2</ele>
        <time>2026-05-06T07:00:49.000Z</time>
      </trkpt>
      <trkpt lat="41.842712" lon="22.990849">
        <ele>1167.2</ele>
        <time>2026-05-06T07:00:50.000Z</time>
      </trkpt>
      <trkpt lat="41.84272" lon="22.99086">
        <ele>1167.2</ele>
        <time>2026-05-06T07:00:51.000Z</time>
      </trkpt>
      <trkpt lat="41.842727" lon="22.990871">
        <ele>1167.2</ele>
        <time>2026-05-06T07:00:52.000Z</time>
      </trkpt>
      <trkpt lat="41.842734" lon="22.990883">
        <ele>1166.8</ele>
        <time>2026-05-06T07:00:53.000Z</time>
      </trkpt>
      <trkpt lat="41.842741" lon="22.990895">
        <ele>1166.8</ele>
        <time>2026-05-06T07:00:54.000Z</time>
      </trkpt>
      <trkpt lat="41.842746" lon="22.990908">
        <ele>1166.8</ele>
        <time>2026-05-06T07:00:55.000Z</time>
      </trkpt>
      <trkpt lat="41.842749" lon="22.99092">
        <ele>1166.8</ele>
        <time>2026-05-06T07:00:56.000Z</time>
      </trkpt>
      <trkpt lat="41.842752" lon="22.990929">
        <ele>1166.8</ele>
        <time>2026-05-06T07:00:57.000Z</time>
      </trkpt>
      <trkpt lat="41.842753" lon="22.990936">
        <ele>1166.3</ele>
        <time>2026-05-06T07:00:58.000Z</time>
      </trkpt>
      <trkpt lat="41.842753" lon="22.990941">
        <ele>1166.3</ele>
        <time>2026-05-06T07:00:59.000Z</time>
      </trkpt>
      <trkpt lat="41.842753" lon="22.99094">
        <ele>1166.3</ele>
        <time>2026-05-06T07:01:00.000Z</time>
      </trkpt>
      <trkpt lat="41.842756" lon="22.990935">
        <ele>1166.3</ele>
        <time>2026-05-06T07:01:01.000Z</time>
      </trkpt>
      <trkpt lat="41.84276" lon="22.990929">
        <ele>1166.3</ele>
        <time>2026-05-06T07:01:02.000Z</time>
      </trkpt>
      <trkpt lat="41.842764" lon="22.990925">
        <ele>1166</ele>
        <time>2026-05-06T07:01:03.000Z</time>
      </trkpt>
      <trkpt lat="41.842769" lon="22.990922">
        <ele>1166</ele>
        <time>2026-05-06T07:01:04.000Z</time>
      </trkpt>
      <trkpt lat="41.842773" lon="22.990925">
        <ele>1166</ele>
        <time>2026-05-06T07:01:05.000Z</time>
      </trkpt>
      <trkpt lat="41.842776" lon="22.990932">
        <ele>1166</ele>
        <time>2026-05-06T07:01:06.000Z</time>
      </trkpt>
      <trkpt lat="41.842777" lon="22.990942">
        <ele>1166</ele>
        <time>2026-05-06T07:01:07.000Z</time>
      </trkpt>
      <trkpt lat="41.842776" lon="22.990952">
        <ele>1165.4</ele>
        <time>2026-05-06T07:01:08.000Z</time>
      </trkpt>
      <trkpt lat="41.842777" lon="22.99096">
        <ele>1165.4</ele>
        <time>2026-05-06T07:01:09.000Z</time>
      </trkpt>
      <trkpt lat="41.842779" lon="22.990968">
        <ele>1165.4</ele>
        <time>2026-05-06T07:01:10.000Z</time>
      </trkpt>
      <trkpt lat="41.842782" lon="22.990974">
        <ele>1165.4</ele>
        <time>2026-05-06T07:01:11.000Z</time>
      </trkpt>
      <trkpt lat="41.842787" lon="22.990981">
        <ele>1165.4</ele>
        <time>2026-05-06T07:01:12.000Z</time>
      </trkpt>
      <trkpt lat="41.842794" lon="22.990989">
        <ele>1164.9</ele>
        <time>2026-05-06T07:01:13.000Z</time>
      </trkpt>
      <trkpt lat="41.842802" lon="22.990999">
        <ele>1164.9</ele>
        <time>2026-05-06T07:01:14.000Z</time>
      </trkpt>
      <trkpt lat="41.842809" lon="22.991009">
        <ele>1164.9</ele>
        <time>2026-05-06T07:01:15.000Z</time>
      </trkpt>
      <trkpt lat="41.842815" lon="22.991019">
        <ele>1164.9</ele>
        <time>2026-05-06T07:01:16.000Z</time>
      </trkpt>
      <trkpt lat="41.84282" lon="22.991025">
        <ele>1164.9</ele>
        <time>2026-05-06T07:01:17.000Z</time>
      </trkpt>
      <trkpt lat="41.842824" lon="22.991029">
        <ele>1164.7</ele>
        <time>2026-05-06T07:01:18.000Z</time>
      </trkpt>
      <trkpt lat="41.842829" lon="22.991034">
        <ele>1164.7</ele>
        <time>2026-05-06T07:01:19.000Z</time>
      </trkpt>
      <trkpt lat="41.842833" lon="22.991038">
        <ele>1164.7</ele>
        <time>2026-05-06T07:01:20.000Z</time>
      </trkpt>
      <trkpt lat="41.842836" lon="22.991042">
        <ele>1164.7</ele>
        <time>2026-05-06T07:01:21.000Z</time>
      </trkpt>
      <trkpt lat="41.842839" lon="22.991046">
        <ele>1164.7</ele>
        <time>2026-05-06T07:01:22.000Z</time>
      </trkpt>
      <trkpt lat="41.842842" lon="22.991051">
        <ele>1164.3</ele>
        <time>2026-05-06T07:01:23.000Z</time>
      </trkpt>
      <trkpt lat="41.842843" lon="22.991054">
        <ele>1164.3</ele>
        <time>2026-05-06T07:01:24.000Z</time>
      </trkpt>
      <trkpt lat="41.842843" lon="22.991056">
        <ele>1164.3</ele>
        <time>2026-05-06T07:01:25.000Z</time>
      </trkpt>
      <trkpt lat="41.842843" lon="22.991058">
        <ele>1164.3</ele>
        <time>2026-05-06T07:01:26.000Z</time>
      </trkpt>
      <trkpt lat="41.842843" lon="22.991061">
        <ele>1164.3</ele>
        <time>2026-05-06T07:01:27.000Z</time>
      </trkpt>
      <trkpt lat="41.842842" lon="22.991064">
        <ele>1163.8</ele>
        <time>2026-05-06T07:01:28.000Z</time>
      </trkpt>
      <trkpt lat="41.842842" lon="22.991068">
        <ele>1163.8</ele>
        <time>2026-05-06T07:01:29.000Z</time>
      </trkpt>
      <trkpt lat="41.842843" lon="22.99107">
        <ele>1163.8</ele>
        <time>2026-05-06T07:01:30.000Z</time>
      </trkpt>
      <trkpt lat="41.842845" lon="22.991072">
        <ele>1163.8</ele>
        <time>2026-05-06T07:01:31.000Z</time>
      </trkpt>
      <trkpt lat="41.842849" lon="22.991075">
        <ele>1163.8</ele>
        <time>2026-05-06T07:01:32.000Z</time>
      </trkpt>
      <trkpt lat="41.842855" lon="22.991078">
        <ele>1163.5</ele>
        <time>2026-05-06T07:01:33.000Z</time>
      </trkpt>
      <trkpt lat="41.842863" lon="22.99108">
        <ele>1163.5</ele>
        <time>2026-05-06T07:01:34.000Z</time>
      </trkpt>
      <trkpt lat="41.842872" lon="22.991083">
        <ele>1163.5</ele>
        <time>2026-05-06T07:01:35.000Z</time>
      </trkpt>
      <trkpt lat="41.842882" lon="22.991084">
        <ele>1163.5</ele>
        <time>2026-05-06T07:01:36.000Z</time>
      </trkpt>
      <trkpt lat="41.842891" lon="22.991084">
        <ele>1163.5</ele>
        <time>2026-05-06T07:01:37.000Z</time>
      </trkpt>
      <trkpt lat="41.8429" lon="22.991083">
        <ele>1163.2</ele>
        <time>2026-05-06T07:01:38.000Z</time>
      </trkpt>
      <trkpt lat="41.842908" lon="22.991081">
        <ele>1163.2</ele>
        <time>2026-05-06T07:01:39.000Z</time>
      </trkpt>
      <trkpt lat="41.842914" lon="22.991078">
        <ele>1163.2</ele>
        <time>2026-05-06T07:01:40.000Z</time>
      </trkpt>
      <trkpt lat="41.84292" lon="22.991074">
        <ele>1163.2</ele>
        <time>2026-05-06T07:01:41.000Z</time>
      </trkpt>
      <trkpt lat="41.842926" lon="22.991068">
        <ele>1163.2</ele>
        <time>2026-05-06T07:01:42.000Z</time>
      </trkpt>
      <trkpt lat="41.842931" lon="22.991061">
        <ele>1163</ele>
        <time>2026-05-06T07:01:43.000Z</time>
      </trkpt>
      <trkpt lat="41.842934" lon="22.991054">
        <ele>1163</ele>
        <time>2026-05-06T07:01:44.000Z</time>
      </trkpt>
      <trkpt lat="41.84294" lon="22.991046">
        <ele>1163</ele>
        <time>2026-05-06T07:01:45.000Z</time>
      </trkpt>
      <trkpt lat="41.842945" lon="22.991039">
        <ele>1163</ele>
        <time>2026-05-06T07:01:46.000Z</time>
      </trkpt>
      <trkpt lat="41.842952" lon="22.991034">
        <ele>1163</ele>
        <time>2026-05-06T07:01:47.000Z</time>
      </trkpt>
      <trkpt lat="41.842959" lon="22.991032">
        <ele>1163.1</ele>
        <time>2026-05-06T07:01:48.000Z</time>
      </trkpt>
      <trkpt lat="41.842968" lon="22.99103">
        <ele>1163.1</ele>
        <time>2026-05-06T07:01:49.000Z</time>
      </trkpt>
      <trkpt lat="41.842978" lon="22.991029">
        <ele>1163.1</ele>
        <time>2026-05-06T07:01:50.000Z</time>
      </trkpt>
      <trkpt lat="41.842987" lon="22.991028">
        <ele>1163.1</ele>
        <time>2026-05-06T07:01:51.000Z</time>
      </trkpt>
      <trkpt lat="41.842995" lon="22.991026">
        <ele>1163.1</ele>
        <time>2026-05-06T07:01:52.000Z</time>
      </trkpt>
      <trkpt lat="41.843002" lon="22.991022">
        <ele>1163.5</ele>
        <time>2026-05-06T07:01:53.000Z</time>
      </trkpt>
      <trkpt lat="41.843008" lon="22.991016">
        <ele>1163.5</ele>
        <time>2026-05-06T07:01:54.000Z</time>
      </trkpt>
      <trkpt lat="41.843013" lon="22.99101">
        <ele>1163.5</ele>
        <time>2026-05-06T07:01:55.000Z</time>
      </trkpt>
      <trkpt lat="41.84302" lon="22.991003">
        <ele>1163.5</ele>
        <time>2026-05-06T07:01:56.000Z</time>
      </trkpt>
      <trkpt lat="41.843028" lon="22.990995">
        <ele>1163.5</ele>
        <time>2026-05-06T07:01:57.000Z</time>
      </trkpt>
      <trkpt lat="41.843038" lon="22.990988">
        <ele>1164.4</ele>
        <time>2026-05-06T07:01:58.000Z</time>
      </trkpt>
      <trkpt lat="41.843047" lon="22.990981">
        <ele>1164.4</ele>
        <time>2026-05-06T07:01:59.000Z</time>
      </trkpt>
      <trkpt lat="41.843054" lon="22.990974">
        <ele>1164.4</ele>
        <time>2026-05-06T07:02:00.000Z</time>
      </trkpt>
      <trkpt lat="41.84306" lon="22.990966">
        <ele>1164.4</ele>
        <time>2026-05-06T07:02:01.000Z</time>
      </trkpt>
      <trkpt lat="41.843063" lon="22.990956">
        <ele>1164.4</ele>
        <time>2026-05-06T07:02:02.000Z</time>
      </trkpt>
      <trkpt lat="41.843065" lon="22.990946">
        <ele>1164.9</ele>
        <time>2026-05-06T07:02:03.000Z</time>
      </trkpt>
      <trkpt lat="41.843066" lon="22.990934">
        <ele>1164.9</ele>
        <time>2026-05-06T07:02:04.000Z</time>
      </trkpt>
      <trkpt lat="41.843069" lon="22.990923">
        <ele>1164.9</ele>
        <time>2026-05-06T07:02:05.000Z</time>
      </trkpt>
      <trkpt lat="41.843071" lon="22.990913">
        <ele>1164.9</ele>
        <time>2026-05-06T07:02:06.000Z</time>
      </trkpt>
      <trkpt lat="41.843072" lon="22.990903">
        <ele>1164.9</ele>
        <time>2026-05-06T07:02:07.000Z</time>
      </trkpt>
      <trkpt lat="41.843074" lon="22.990893">
        <ele>1165.6</ele>
        <time>2026-05-06T07:02:08.000Z</time>
      </trkpt>
      <trkpt lat="41.843074" lon="22.990884">
        <ele>1165.6</ele>
        <time>2026-05-06T07:02:09.000Z</time>
      </trkpt>
      <trkpt lat="41.843075" lon="22.990874">
        <ele>1165.6</ele>
        <time>2026-05-06T07:02:10.000Z</time>
      </trkpt>
      <trkpt lat="41.843076" lon="22.990864">
        <ele>1165.6</ele>
        <time>2026-05-06T07:02:11.000Z</time>
      </trkpt>
      <trkpt lat="41.843077" lon="22.990854">
        <ele>1165.6</ele>
        <time>2026-05-06T07:02:12.000Z</time>
      </trkpt>
      <trkpt lat="41.843079" lon="22.990844">
        <ele>1166.3</ele>
        <time>2026-05-06T07:02:13.000Z</time>
      </trkpt>
      <trkpt lat="41.84308" lon="22.990836">
        <ele>1166.3</ele>
        <time>2026-05-06T07:02:14.000Z</time>
      </trkpt>
      <trkpt lat="41.84308" lon="22.990827">
        <ele>1166.3</ele>
        <time>2026-05-06T07:02:15.000Z</time>
      </trkpt>
      <trkpt lat="41.843078" lon="22.990819">
        <ele>1166.3</ele>
        <time>2026-05-06T07:02:16.000Z</time>
      </trkpt>
      <trkpt lat="41.843075" lon="22.990813">
        <ele>1166.3</ele>
        <time>2026-05-06T07:02:17.000Z</time>
      </trkpt>
      <trkpt lat="41.843071" lon="22.990807">
        <ele>1166.6</ele>
        <time>2026-05-06T07:02:18.000Z</time>
      </trkpt>
      <trkpt lat="41.843066" lon="22.990799">
        <ele>1166.6</ele>
        <time>2026-05-06T07:02:19.000Z</time>
      </trkpt>
      <trkpt lat="41.843061" lon="22.990793">
        <ele>1166.6</ele>
        <time>2026-05-06T07:02:20.000Z</time>
      </trkpt>
      <trkpt lat="41.843056" lon="22.990786">
        <ele>1166.6</ele>
        <time>2026-05-06T07:02:21.000Z</time>
      </trkpt>
      <trkpt lat="41.843049" lon="22.990777">
        <ele>1166.6</ele>
        <time>2026-05-06T07:02:22.000Z</time>
      </trkpt>
      <trkpt lat="41.843041" lon="22.990769">
        <ele>1167.5</ele>
        <time>2026-05-06T07:02:23.000Z</time>
      </trkpt>
      <trkpt lat="41.843034" lon="22.990762">
        <ele>1167.5</ele>
        <time>2026-05-06T07:02:24.000Z</time>
      </trkpt>
      <trkpt lat="41.843026" lon="22.990754">
        <ele>1167.5</ele>
        <time>2026-05-06T07:02:25.000Z</time>
      </trkpt>
      <trkpt lat="41.843019" lon="22.990746">
        <ele>1167.5</ele>
        <time>2026-05-06T07:02:26.000Z</time>
      </trkpt>
      <trkpt lat="41.843012" lon="22.990738">
        <ele>1167.5</ele>
        <time>2026-05-06T07:02:27.000Z</time>
      </trkpt>
      <trkpt lat="41.843007" lon="22.990729">
        <ele>1168.6</ele>
        <time>2026-05-06T07:02:28.000Z</time>
      </trkpt>
      <trkpt lat="41.843002" lon="22.990723">
        <ele>1168.6</ele>
        <time>2026-05-06T07:02:29.000Z</time>
      </trkpt>
      <trkpt lat="41.842998" lon="22.990716">
        <ele>1168.6</ele>
        <time>2026-05-06T07:02:30.000Z</time>
      </trkpt>
      <trkpt lat="41.842994" lon="22.99071">
        <ele>1168.6</ele>
        <time>2026-05-06T07:02:31.000Z</time>
      </trkpt>
      <trkpt lat="41.84299" lon="22.990704">
        <ele>1168.6</ele>
        <time>2026-05-06T07:02:32.000Z</time>
      </trkpt>
      <trkpt lat="41.842986" lon="22.990697">
        <ele>1169.2</ele>
        <time>2026-05-06T07:02:33.000Z</time>
      </trkpt>
      <trkpt lat="41.842982" lon="22.990687">
        <ele>1169.2</ele>
        <time>2026-05-06T07:02:34.000Z</time>
      </trkpt>
      <trkpt lat="41.842978" lon="22.990676">
        <ele>1169.2</ele>
        <time>2026-05-06T07:02:35.000Z</time>
      </trkpt>
      <trkpt lat="41.842976" lon="22.990663">
        <ele>1169.2</ele>
        <time>2026-05-06T07:02:36.000Z</time>
      </trkpt>
      <trkpt lat="41.842973" lon="22.990652">
        <ele>1169.2</ele>
        <time>2026-05-06T07:02:37.000Z</time>
      </trkpt>
      <trkpt lat="41.842972" lon="22.99064">
        <ele>1170.7</ele>
        <time>2026-05-06T07:02:38.000Z</time>
      </trkpt>
      <trkpt lat="41.842969" lon="22.99063">
        <ele>1170.7</ele>
        <time>2026-05-06T07:02:39.000Z</time>
      </trkpt>
      <trkpt lat="41.842965" lon="22.990623">
        <ele>1170.7</ele>
        <time>2026-05-06T07:02:40.000Z</time>
      </trkpt>
      <trkpt lat="41.842962" lon="22.990616">
        <ele>1170.7</ele>
        <time>2026-05-06T07:02:41.000Z</time>
      </trkpt>
      <trkpt lat="41.842957" lon="22.990609">
        <ele>1170.7</ele>
        <time>2026-05-06T07:02:42.000Z</time>
      </trkpt>
      <trkpt lat="41.842952" lon="22.990602">
        <ele>1172.6</ele>
        <time>2026-05-06T07:02:43.000Z</time>
      </trkpt>
      <trkpt lat="41.842947" lon="22.990596">
        <ele>1172.6</ele>
        <time>2026-05-06T07:02:44.000Z</time>
      </trkpt>
      <trkpt lat="41.842942" lon="22.990587">
        <ele>1172.6</ele>
        <time>2026-05-06T07:02:45.000Z</time>
      </trkpt>
      <trkpt lat="41.842937" lon="22.990579">
        <ele>1172.6</ele>
        <time>2026-05-06T07:02:46.000Z</time>
      </trkpt>
      <trkpt lat="41.842932" lon="22.990571">
        <ele>1172.6</ele>
        <time>2026-05-06T07:02:47.000Z</time>
      </trkpt>
      <trkpt lat="41.842925" lon="22.990563">
        <ele>1173.6</ele>
        <time>2026-05-06T07:02:48.000Z</time>
      </trkpt>
      <trkpt lat="41.842919" lon="22.990554">
        <ele>1173.6</ele>
        <time>2026-05-06T07:02:49.000Z</time>
      </trkpt>
      <trkpt lat="41.842914" lon="22.990545">
        <ele>1173.6</ele>
        <time>2026-05-06T07:02:50.000Z</time>
      </trkpt>
      <trkpt lat="41.842908" lon="22.990535">
        <ele>1173.6</ele>
        <time>2026-05-06T07:02:51.000Z</time>
      </trkpt>
      <trkpt lat="41.842901" lon="22.990526">
        <ele>1173.6</ele>
        <time>2026-05-06T07:02:52.000Z</time>
      </trkpt>
      <trkpt lat="41.842895" lon="22.990519">
        <ele>1175.6</ele>
        <time>2026-05-06T07:02:53.000Z</time>
      </trkpt>
      <trkpt lat="41.842888" lon="22.990512">
        <ele>1175.6</ele>
        <time>2026-05-06T07:02:54.000Z</time>
      </trkpt>
      <trkpt lat="41.842881" lon="22.990507">
        <ele>1175.6</ele>
        <time>2026-05-06T07:02:55.000Z</time>
      </trkpt>
      <trkpt lat="41.842874" lon="22.990504">
        <ele>1175.6</ele>
        <time>2026-05-06T07:02:56.000Z</time>
      </trkpt>
      <trkpt lat="41.842868" lon="22.990501">
        <ele>1175.6</ele>
        <time>2026-05-06T07:02:57.000Z</time>
      </trkpt>
      <trkpt lat="41.842861" lon="22.990497">
        <ele>1177.2</ele>
        <time>2026-05-06T07:02:58.000Z</time>
      </trkpt>
      <trkpt lat="41.842856" lon="22.990496">
        <ele>1177.2</ele>
        <time>2026-05-06T07:02:59.000Z</time>
      </trkpt>
      <trkpt lat="41.84285" lon="22.990494">
        <ele>1177.2</ele>
        <time>2026-05-06T07:03:00.000Z</time>
      </trkpt>
      <trkpt lat="41.842843" lon="22.990491">
        <ele>1177.2</ele>
        <time>2026-05-06T07:03:01.000Z</time>
      </trkpt>
      <trkpt lat="41.842837" lon="22.990486">
        <ele>1177.2</ele>
        <time>2026-05-06T07:03:02.000Z</time>
      </trkpt>
      <trkpt lat="41.84283" lon="22.990481">
        <ele>1178</ele>
        <time>2026-05-06T07:03:03.000Z</time>
      </trkpt>
      <trkpt lat="41.842823" lon="22.990474">
        <ele>1178</ele>
        <time>2026-05-06T07:03:04.000Z</time>
      </trkpt>
      <trkpt lat="41.842816" lon="22.990466">
        <ele>1178</ele>
        <time>2026-05-06T07:03:05.000Z</time>
      </trkpt>
      <trkpt lat="41.84281" lon="22.990459">
        <ele>1178</ele>
        <time>2026-05-06T07:03:06.000Z</time>
      </trkpt>
      <trkpt lat="41.842804" lon="22.990452">
        <ele>1178</ele>
        <time>2026-05-06T07:03:07.000Z</time>
      </trkpt>
      <trkpt lat="41.842797" lon="22.990448">
        <ele>1179.6</ele>
        <time>2026-05-06T07:03:08.000Z</time>
      </trkpt>
      <trkpt lat="41.84279" lon="22.990445">
        <ele>1179.6</ele>
        <time>2026-05-06T07:03:09.000Z</time>
      </trkpt>
      <trkpt lat="41.842784" lon="22.990443">
        <ele>1179.6</ele>
        <time>2026-05-06T07:03:10.000Z</time>
      </trkpt>
      <trkpt lat="41.842781" lon="22.990443">
        <ele>1179.6</ele>
        <time>2026-05-06T07:03:11.000Z</time>
      </trkpt>
      <trkpt lat="41.842779" lon="22.990443">
        <ele>1179.6</ele>
        <time>2026-05-06T07:03:12.000Z</time>
      </trkpt>
      <trkpt lat="41.842778" lon="22.990442">
        <ele>1181.2</ele>
        <time>2026-05-06T07:03:13.000Z</time>
      </trkpt>
      <trkpt lat="41.842776" lon="22.990441">
        <ele>1181.2</ele>
        <time>2026-05-06T07:03:14.000Z</time>
      </trkpt>
      <trkpt lat="41.842774" lon="22.99044">
        <ele>1181.2</ele>
        <time>2026-05-06T07:03:15.000Z</time>
      </trkpt>
      <trkpt lat="41.84277" lon="22.990438">
        <ele>1181.2</ele>
        <time>2026-05-06T07:03:16.000Z</time>
      </trkpt>
      <trkpt lat="41.842767" lon="22.990436">
        <ele>1181.2</ele>
        <time>2026-05-06T07:03:17.000Z</time>
      </trkpt>
      <trkpt lat="41.842765" lon="22.990435">
        <ele>1182</ele>
        <time>2026-05-06T07:03:18.000Z</time>
      </trkpt>
      <trkpt lat="41.842764" lon="22.990434">
        <ele>1182</ele>
        <time>2026-05-06T07:03:19.000Z</time>
      </trkpt>
      <trkpt lat="41.842765" lon="22.990433">
        <ele>1182</ele>
        <time>2026-05-06T07:03:20.000Z</time>
      </trkpt>
      <trkpt lat="41.842765" lon="22.990433">
        <ele>1182</ele>
        <time>2026-05-06T07:03:21.000Z</time>
      </trkpt>
      <trkpt lat="41.842766" lon="22.990434">
        <ele>1182</ele>
        <time>2026-05-06T07:03:22.000Z</time>
      </trkpt>
      <trkpt lat="41.842766" lon="22.990433">
        <ele>1183.1</ele>
        <time>2026-05-06T07:03:23.000Z</time>
      </trkpt>
      <trkpt lat="41.842766" lon="22.990434">
        <ele>1183.1</ele>
        <time>2026-05-06T07:03:24.000Z</time>
      </trkpt>
      <trkpt lat="41.842766" lon="22.990434">
        <ele>1183.1</ele>
        <time>2026-05-06T07:03:25.000Z</time>
      </trkpt>
      <trkpt lat="41.842766" lon="22.990434">
        <ele>1183.1</ele>
        <time>2026-05-06T07:03:26.000Z</time>
      </trkpt>
      <trkpt lat="41.842766" lon="22.990434">
        <ele>1183.1</ele>
        <time>2026-05-06T07:03:27.000Z</time>
      </trkpt>
      <trkpt lat="41.842765" lon="22.990435">
        <ele>1183.8</ele>
        <time>2026-05-06T07:03:28.000Z</time>
      </trkpt>
      <trkpt lat="41.842764" lon="22.990437">
        <ele>1183.8</ele>
        <time>2026-05-06T07:03:29.000Z</time>
      </trkpt>
      <trkpt lat="41.842763" lon="22.990438">
        <ele>1183.8</ele>
        <time>2026-05-06T07:03:30.000Z</time>
      </trkpt>
      <trkpt lat="41.842762" lon="22.990438">
        <ele>1183.8</ele>
        <time>2026-05-06T07:03:31.000Z</time>
      </trkpt>
      <trkpt lat="41.842762" lon="22.990438">
        <ele>1183.8</ele>
        <time>2026-05-06T07:03:32.000Z</time>
      </trkpt>
      <trkpt lat="41.842763" lon="22.990438">
        <ele>1184.1</ele>
        <time>2026-05-06T07:03:33.000Z</time>
      </trkpt>
      <trkpt lat="41.842763" lon="22.990438">
        <ele>1184.1</ele>
        <time>2026-05-06T07:03:34.000Z</time>
      </trkpt>
      <trkpt lat="41.842763" lon="22.990438">
        <ele>1184.1</ele>
        <time>2026-05-06T07:03:35.000Z</time>
      </trkpt>
      <trkpt lat="41.842764" lon="22.990438">
        <ele>1184.1</ele>
        <time>2026-05-06T07:03:36.000Z</time>
      </trkpt>
      <trkpt lat="41.842764" lon="22.990438">
        <ele>1184.1</ele>
        <time>2026-05-06T07:03:37.000Z</time>
      </trkpt>
      <trkpt lat="41.842764" lon="22.990437">
        <ele>1184.3</ele>
        <time>2026-05-06T07:03:38.000Z</time>
      </trkpt>
      <trkpt lat="41.842764" lon="22.990436">
        <ele>1184.3</ele>
        <time>2026-05-06T07:03:39.000Z</time>
      </trkpt>
      <trkpt lat="41.842764" lon="22.990435">
        <ele>1184.3</ele>
        <time>2026-05-06T07:03:40.000Z</time>
      </trkpt>
      <trkpt lat="41.842764" lon="22.990435">
        <ele>1184.3</ele>
        <time>2026-05-06T07:03:41.000Z</time>
      </trkpt>
      <trkpt lat="41.842764" lon="22.990434">
        <ele>1184.3</ele>
        <time>2026-05-06T07:03:42.000Z</time>
      </trkpt>
      <trkpt lat="41.842764" lon="22.990434">
        <ele>1184.4</ele>
        <time>2026-05-06T07:03:43.000Z</time>
      </trkpt>
      <trkpt lat="41.842764" lon="22.990434">
        <ele>1184.4</ele>
        <time>2026-05-06T07:03:44.000Z</time>
      </trkpt>
      <trkpt lat="41.842764" lon="22.990434">
        <ele>1184.4</ele>
        <time>2026-05-06T07:03:45.000Z</time>
      </trkpt>
      <trkpt lat="41.842764" lon="22.990434">
        <ele>1184.4</ele>
        <time>2026-05-06T07:03:46.000Z</time>
      </trkpt>
      <trkpt lat="41.842764" lon="22.990434">
        <ele>1184.4</ele>
        <time>2026-05-06T07:03:47.000Z</time>
      </trkpt>
      <trkpt lat="41.842764" lon="22.990434">
        <ele>1184.5</ele>
        <time>2026-05-06T07:03:48.000Z</time>
      </trkpt>
      <trkpt lat="41.842764" lon="22.990434">
        <ele>1184.5</ele>
        <time>2026-05-06T07:03:49.000Z</time>
      </trkpt>
      <trkpt lat="41.842764" lon="22.990434">
        <ele>1184.5</ele>
        <time>2026-05-06T07:03:50.000Z</time>
      </trkpt>
      <trkpt lat="41.842764" lon="22.990434">
        <ele>1184.5</ele>
        <time>2026-05-06T07:03:51.000Z</time>
      </trkpt>
      <trkpt lat="41.842764" lon="22.990434">
        <ele>1184.5</ele>
        <time>2026-05-06T07:03:52.000Z</time>
      </trkpt>
      <trkpt lat="41.842764" lon="22.990434">
        <ele>1184.5</ele>
        <time>2026-05-06T07:03:53.000Z</time>
      </trkpt>
      <trkpt lat="41.842764" lon="22.990434">
        <ele>1184.5</ele>
        <time>2026-05-06T07:03:54.000Z</time>
      </trkpt>
      <trkpt lat="41.842764" lon="22.990434">
        <ele>1184.5</ele>
        <time>2026-05-06T07:03:55.000Z</time>
      </trkpt>
      <trkpt lat="41.842764" lon="22.990434">
        <ele>1184.5</ele>
        <time>2026-05-06T07:03:56.000Z</time>
      </trkpt>
      <trkpt lat="41.842764" lon="22.990434">
        <ele>1184.5</ele>
        <time>2026-05-06T07:03:57.000Z</time>
      </trkpt>
      <trkpt lat="41.842764" lon="22.990434">
        <ele>1184.6</ele>
        <time>2026-05-06T07:03:58.000Z</time>
      </trkpt>
      <trkpt lat="41.842764" lon="22.990434">
        <ele>1184.6</ele>
        <time>2026-05-06T07:03:59.000Z</time>
      </trkpt>
      <trkpt lat="41.842764" lon="22.990434">
        <ele>1184.6</ele>
        <time>2026-05-06T07:04:00.000Z</time>
      </trkpt>
      <trkpt lat="41.842765" lon="22.990434">
        <ele>1184.6</ele>
        <time>2026-05-06T07:04:01.000Z</time>
      </trkpt>
      <trkpt lat="41.842765" lon="22.990434">
        <ele>1184.6</ele>
        <time>2026-05-06T07:04:02.000Z</time>
      </trkpt>
      <trkpt lat="41.842765" lon="22.990433">
        <ele>1184.6</ele>
        <time>2026-05-06T07:04:03.000Z</time>
      </trkpt>
      <trkpt lat="41.842766" lon="22.990433">
        <ele>1184.6</ele>
        <time>2026-05-06T07:04:04.000Z</time>
      </trkpt>
      <trkpt lat="41.842767" lon="22.990432">
        <ele>1184.6</ele>
        <time>2026-05-06T07:04:05.000Z</time>
      </trkpt>
      <trkpt lat="41.842768" lon="22.990431">
        <ele>1184.6</ele>
        <time>2026-05-06T07:04:06.000Z</time>
      </trkpt>
      <trkpt lat="41.842772" lon="22.99043">
        <ele>1184.6</ele>
        <time>2026-05-06T07:04:07.000Z</time>
      </trkpt>
      <trkpt lat="41.842777" lon="22.990429">
        <ele>1184.5</ele>
        <time>2026-05-06T07:04:08.000Z</time>
      </trkpt>
      <trkpt lat="41.842784" lon="22.990427">
        <ele>1184.5</ele>
        <time>2026-05-06T07:04:09.000Z</time>
      </trkpt>
      <trkpt lat="41.842793" lon="22.990423">
        <ele>1184.5</ele>
        <time>2026-05-06T07:04:10.000Z</time>
      </trkpt>
      <trkpt lat="41.842803" lon="22.990418">
        <ele>1184.5</ele>
        <time>2026-05-06T07:04:11.000Z</time>
      </trkpt>
      <trkpt lat="41.842811" lon="22.990412">
        <ele>1184.5</ele>
        <time>2026-05-06T07:04:12.000Z</time>
      </trkpt>
      <trkpt lat="41.842818" lon="22.990403">
        <ele>1184.4</ele>
        <time>2026-05-06T07:04:13.000Z</time>
      </trkpt>
      <trkpt lat="41.842823" lon="22.990392">
        <ele>1184.4</ele>
        <time>2026-05-06T07:04:14.000Z</time>
      </trkpt>
      <trkpt lat="41.842829" lon="22.990382">
        <ele>1184.4</ele>
        <time>2026-05-06T07:04:15.000Z</time>
      </trkpt>
      <trkpt lat="41.842835" lon="22.990375">
        <ele>1184.4</ele>
        <time>2026-05-06T07:04:16.000Z</time>
      </trkpt>
      <trkpt lat="41.842843" lon="22.99037">
        <ele>1184.4</ele>
        <time>2026-05-06T07:04:17.000Z</time>
      </trkpt>
      <trkpt lat="41.842851" lon="22.990366">
        <ele>1184.3</ele>
        <time>2026-05-06T07:04:18.000Z</time>
      </trkpt>
      <trkpt lat="41.842861" lon="22.990364">
        <ele>1184.3</ele>
        <time>2026-05-06T07:04:19.000Z</time>
      </trkpt>
      <trkpt lat="41.84287" lon="22.990359">
        <ele>1184.3</ele>
        <time>2026-05-06T07:04:20.000Z</time>
      </trkpt>
      <trkpt lat="41.842878" lon="22.990352">
        <ele>1184.3</ele>
        <time>2026-05-06T07:04:21.000Z</time>
      </trkpt>
      <trkpt lat="41.842886" lon="22.990342">
        <ele>1184.3</ele>
        <time>2026-05-06T07:04:22.000Z</time>
      </trkpt>
      <trkpt lat="41.842892" lon="22.990331">
        <ele>1184.1</ele>
        <time>2026-05-06T07:04:23.000Z</time>
      </trkpt>
      <trkpt lat="41.842896" lon="22.990318">
        <ele>1184.1</ele>
        <time>2026-05-06T07:04:24.000Z</time>
      </trkpt>
      <trkpt lat="41.842898" lon="22.990305">
        <ele>1184.1</ele>
        <time>2026-05-06T07:04:25.000Z</time>
      </trkpt>
      <trkpt lat="41.842896" lon="22.990291">
        <ele>1184.1</ele>
        <time>2026-05-06T07:04:26.000Z</time>
      </trkpt>
      <trkpt lat="41.842893" lon="22.990278">
        <ele>1184.1</ele>
        <time>2026-05-06T07:04:27.000Z</time>
      </trkpt>
      <trkpt lat="41.84289" lon="22.990265">
        <ele>1183.7</ele>
        <time>2026-05-06T07:04:28.000Z</time>
      </trkpt>
      <trkpt lat="41.842887" lon="22.99025">
        <ele>1183.7</ele>
        <time>2026-05-06T07:04:29.000Z</time>
      </trkpt>
      <trkpt lat="41.842885" lon="22.990236">
        <ele>1183.7</ele>
        <time>2026-05-06T07:04:30.000Z</time>
      </trkpt>
      <trkpt lat="41.842883" lon="22.990221">
        <ele>1183.7</ele>
        <time>2026-05-06T07:04:31.000Z</time>
      </trkpt>
      <trkpt lat="41.842881" lon="22.990206">
        <ele>1183.7</ele>
        <time>2026-05-06T07:04:32.000Z</time>
      </trkpt>
      <trkpt lat="41.842879" lon="22.990192">
        <ele>1183.4</ele>
        <time>2026-05-06T07:04:33.000Z</time>
      </trkpt>
      <trkpt lat="41.842876" lon="22.99018">
        <ele>1183.4</ele>
        <time>2026-05-06T07:04:34.000Z</time>
      </trkpt>
      <trkpt lat="41.842874" lon="22.990169">
        <ele>1183.4</ele>
        <time>2026-05-06T07:04:35.000Z</time>
      </trkpt>
      <trkpt lat="41.842872" lon="22.990158">
        <ele>1183.4</ele>
        <time>2026-05-06T07:04:36.000Z</time>
      </trkpt>
      <trkpt lat="41.84287" lon="22.990147">
        <ele>1183.4</ele>
        <time>2026-05-06T07:04:37.000Z</time>
      </trkpt>
      <trkpt lat="41.842865" lon="22.990135">
        <ele>1183.5</ele>
        <time>2026-05-06T07:04:38.000Z</time>
      </trkpt>
      <trkpt lat="41.842858" lon="22.990122">
        <ele>1183.5</ele>
        <time>2026-05-06T07:04:39.000Z</time>
      </trkpt>
      <trkpt lat="41.842849" lon="22.990111">
        <ele>1183.5</ele>
        <time>2026-05-06T07:04:40.000Z</time>
      </trkpt>
      <trkpt lat="41.84284" lon="22.990102">
        <ele>1183.5</ele>
        <time>2026-05-06T07:04:41.000Z</time>
      </trkpt>
      <trkpt lat="41.842833" lon="22.990095">
        <ele>1183.5</ele>
        <time>2026-05-06T07:04:42.000Z</time>
      </trkpt>
      <trkpt lat="41.842829" lon="22.990091">
        <ele>1184.4</ele>
        <time>2026-05-06T07:04:43.000Z</time>
      </trkpt>
      <trkpt lat="41.842828" lon="22.990089">
        <ele>1184.4</ele>
        <time>2026-05-06T07:04:44.000Z</time>
      </trkpt>
      <trkpt lat="41.842827" lon="22.990088">
        <ele>1184.4</ele>
        <time>2026-05-06T07:04:45.000Z</time>
      </trkpt>
      <trkpt lat="41.842827" lon="22.990087">
        <ele>1184.4</ele>
        <time>2026-05-06T07:04:46.000Z</time>
      </trkpt>
      <trkpt lat="41.842827" lon="22.990087">
        <ele>1184.4</ele>
        <time>2026-05-06T07:04:47.000Z</time>
      </trkpt>
      <trkpt lat="41.842828" lon="22.990085">
        <ele>1185.2</ele>
        <time>2026-05-06T07:04:48.000Z</time>
      </trkpt>
      <trkpt lat="41.842831" lon="22.990079">
        <ele>1185.2</ele>
        <time>2026-05-06T07:04:49.000Z</time>
      </trkpt>
      <trkpt lat="41.842835" lon="22.990071">
        <ele>1185.2</ele>
        <time>2026-05-06T07:04:50.000Z</time>
      </trkpt>
      <trkpt lat="41.842839" lon="22.990061">
        <ele>1185.2</ele>
        <time>2026-05-06T07:04:51.000Z</time>
      </trkpt>
      <trkpt lat="41.842843" lon="22.990048">
        <ele>1185.2</ele>
        <time>2026-05-06T07:04:52.000Z</time>
      </trkpt>
      <trkpt lat="41.842846" lon="22.990034">
        <ele>1186.6</ele>
        <time>2026-05-06T07:04:53.000Z</time>
      </trkpt>
      <trkpt lat="41.842847" lon="22.990022">
        <ele>1186.6</ele>
        <time>2026-05-06T07:04:54.000Z</time>
      </trkpt>
      <trkpt lat="41.842847" lon="22.99001">
        <ele>1186.6</ele>
        <time>2026-05-06T07:04:55.000Z</time>
      </trkpt>
      <trkpt lat="41.842847" lon="22.989998">
        <ele>1186.6</ele>
        <time>2026-05-06T07:04:56.000Z</time>
      </trkpt>
      <trkpt lat="41.842846" lon="22.989989">
        <ele>1186.6</ele>
        <time>2026-05-06T07:04:57.000Z</time>
      </trkpt>
      <trkpt lat="41.842846" lon="22.989982">
        <ele>1187.3</ele>
        <time>2026-05-06T07:04:58.000Z</time>
      </trkpt>
      <trkpt lat="41.842845" lon="22.989976">
        <ele>1187.3</ele>
        <time>2026-05-06T07:04:59.000Z</time>
      </trkpt>
      <trkpt lat="41.842845" lon="22.989972">
        <ele>1187.3</ele>
        <time>2026-05-06T07:05:00.000Z</time>
      </trkpt>
      <trkpt lat="41.842845" lon="22.98997">
        <ele>1187.3</ele>
        <time>2026-05-06T07:05:01.000Z</time>
      </trkpt>
      <trkpt lat="41.842845" lon="22.989968">
        <ele>1187.3</ele>
        <time>2026-05-06T07:05:02.000Z</time>
      </trkpt>
      <trkpt lat="41.842844" lon="22.989966">
        <ele>1187.4</ele>
        <time>2026-05-06T07:05:03.000Z</time>
      </trkpt>
      <trkpt lat="41.842843" lon="22.989966">
        <ele>1187.4</ele>
        <time>2026-05-06T07:05:04.000Z</time>
      </trkpt>
      <trkpt lat="41.842843" lon="22.989966">
        <ele>1187.4</ele>
        <time>2026-05-06T07:05:05.000Z</time>
      </trkpt>
      <trkpt lat="41.842841" lon="22.989966">
        <ele>1187.4</ele>
        <time>2026-05-06T07:05:06.000Z</time>
      </trkpt>
      <trkpt lat="41.842842" lon="22.989966">
        <ele>1187.4</ele>
        <time>2026-05-06T07:05:07.000Z</time>
      </trkpt>
      <trkpt lat="41.842845" lon="22.989964">
        <ele>1187.6</ele>
        <time>2026-05-06T07:05:08.000Z</time>
      </trkpt>
      <trkpt lat="41.842848" lon="22.98996">
        <ele>1187.6</ele>
        <time>2026-05-06T07:05:09.000Z</time>
      </trkpt>
      <trkpt lat="41.842851" lon="22.989952">
        <ele>1187.6</ele>
        <time>2026-05-06T07:05:10.000Z</time>
      </trkpt>
      <trkpt lat="41.842855" lon="22.989943">
        <ele>1187.6</ele>
        <time>2026-05-06T07:05:11.000Z</time>
      </trkpt>
      <trkpt lat="41.842857" lon="22.989933">
        <ele>1187.6</ele>
        <time>2026-05-06T07:05:12.000Z</time>
      </trkpt>
      <trkpt lat="41.842858" lon="22.989923">
        <ele>1187.7</ele>
        <time>2026-05-06T07:05:13.000Z</time>
      </trkpt>
      <trkpt lat="41.842858" lon="22.989915">
        <ele>1187.7</ele>
        <time>2026-05-06T07:05:14.000Z</time>
      </trkpt>
      <trkpt lat="41.842857" lon="22.989911">
        <ele>1187.7</ele>
        <time>2026-05-06T07:05:15.000Z</time>
      </trkpt>
      <trkpt lat="41.842857" lon="22.989908">
        <ele>1187.7</ele>
        <time>2026-05-06T07:05:16.000Z</time>
      </trkpt>
      <trkpt lat="41.842857" lon="22.989908">
        <ele>1187.7</ele>
        <time>2026-05-06T07:05:17.000Z</time>
      </trkpt>
      <trkpt lat="41.842856" lon="22.989908">
        <ele>1187.8</ele>
        <time>2026-05-06T07:05:18.000Z</time>
      </trkpt>
      <trkpt lat="41.842856" lon="22.989909">
        <ele>1187.8</ele>
        <time>2026-05-06T07:05:19.000Z</time>
      </trkpt>
      <trkpt lat="41.842857" lon="22.989909">
        <ele>1187.8</ele>
        <time>2026-05-06T07:05:20.000Z</time>
      </trkpt>
      <trkpt lat="41.842857" lon="22.989909">
        <ele>1187.8</ele>
        <time>2026-05-06T07:05:21.000Z</time>
      </trkpt>
      <trkpt lat="41.842858" lon="22.989909">
        <ele>1187.8</ele>
        <time>2026-05-06T07:05:22.000Z</time>
      </trkpt>
      <trkpt lat="41.842859" lon="22.98991">
        <ele>1187.8</ele>
        <time>2026-05-06T07:05:23.000Z</time>
      </trkpt>
      <trkpt lat="41.842861" lon="22.989912">
        <ele>1187.8</ele>
        <time>2026-05-06T07:05:24.000Z</time>
      </trkpt>
      <trkpt lat="41.842862" lon="22.989913">
        <ele>1187.8</ele>
        <time>2026-05-06T07:05:25.000Z</time>
      </trkpt>
      <trkpt lat="41.842864" lon="22.989914">
        <ele>1187.8</ele>
        <time>2026-05-06T07:05:26.000Z</time>
      </trkpt>
      <trkpt lat="41.842865" lon="22.989915">
        <ele>1187.8</ele>
        <time>2026-05-06T07:05:27.000Z</time>
      </trkpt>
      <trkpt lat="41.842866" lon="22.989913">
        <ele>1187.9</ele>
        <time>2026-05-06T07:05:28.000Z</time>
      </trkpt>
      <trkpt lat="41.842866" lon="22.989913">
        <ele>1187.9</ele>
        <time>2026-05-06T07:05:29.000Z</time>
      </trkpt>
      <trkpt lat="41.842866" lon="22.989912">
        <ele>1187.9</ele>
        <time>2026-05-06T07:05:30.000Z</time>
      </trkpt>
      <trkpt lat="41.842866" lon="22.989911">
        <ele>1187.9</ele>
        <time>2026-05-06T07:05:31.000Z</time>
      </trkpt>
      <trkpt lat="41.842867" lon="22.98991">
        <ele>1187.9</ele>
        <time>2026-05-06T07:05:32.000Z</time>
      </trkpt>
      <trkpt lat="41.842867" lon="22.98991">
        <ele>1187.9</ele>
        <time>2026-05-06T07:05:33.000Z</time>
      </trkpt>
      <trkpt lat="41.842867" lon="22.98991">
        <ele>1187.9</ele>
        <time>2026-05-06T07:05:34.000Z</time>
      </trkpt>
      <trkpt lat="41.842867" lon="22.98991">
        <ele>1187.9</ele>
        <time>2026-05-06T07:05:35.000Z</time>
      </trkpt>
      <trkpt lat="41.842867" lon="22.98991">
        <ele>1187.9</ele>
        <time>2026-05-06T07:05:36.000Z</time>
      </trkpt>
      <trkpt lat="41.842866" lon="22.989911">
        <ele>1187.9</ele>
        <time>2026-05-06T07:05:37.000Z</time>
      </trkpt>
      <trkpt lat="41.842866" lon="22.989912">
        <ele>1187.7</ele>
        <time>2026-05-06T07:05:38.000Z</time>
      </trkpt>
      <trkpt lat="41.842867" lon="22.989912">
        <ele>1187.7</ele>
        <time>2026-05-06T07:05:39.000Z</time>
      </trkpt>
      <trkpt lat="41.842868" lon="22.989913">
        <ele>1187.7</ele>
        <time>2026-05-06T07:05:40.000Z</time>
      </trkpt>
      <trkpt lat="41.842868" lon="22.989912">
        <ele>1187.7</ele>
        <time>2026-05-06T07:05:41.000Z</time>
      </trkpt>
      <trkpt lat="41.842869" lon="22.989911">
        <ele>1187.7</ele>
        <time>2026-05-06T07:05:42.000Z</time>
      </trkpt>
      <trkpt lat="41.842869" lon="22.989911">
        <ele>1187.5</ele>
        <time>2026-05-06T07:05:43.000Z</time>
      </trkpt>
      <trkpt lat="41.842869" lon="22.989912">
        <ele>1187.5</ele>
        <time>2026-05-06T07:05:44.000Z</time>
      </trkpt>
      <trkpt lat="41.842868" lon="22.989914">
        <ele>1187.5</ele>
        <time>2026-05-06T07:05:45.000Z</time>
      </trkpt>
      <trkpt lat="41.842867" lon="22.989918">
        <ele>1187.5</ele>
        <time>2026-05-06T07:05:46.000Z</time>
      </trkpt>
      <trkpt lat="41.842865" lon="22.989922">
        <ele>1187.5</ele>
        <time>2026-05-06T07:05:47.000Z</time>
      </trkpt>
      <trkpt lat="41.842863" lon="22.989925">
        <ele>1187.6</ele>
        <time>2026-05-06T07:05:48.000Z</time>
      </trkpt>
      <trkpt lat="41.842862" lon="22.989927">
        <ele>1187.6</ele>
        <time>2026-05-06T07:05:49.000Z</time>
      </trkpt>
      <trkpt lat="41.842861" lon="22.989928">
        <ele>1187.6</ele>
        <time>2026-05-06T07:05:50.000Z</time>
      </trkpt>
      <trkpt lat="41.84286" lon="22.989929">
        <ele>1187.6</ele>
        <time>2026-05-06T07:05:51.000Z</time>
      </trkpt>
      <trkpt lat="41.84286" lon="22.989929">
        <ele>1187.6</ele>
        <time>2026-05-06T07:05:52.000Z</time>
      </trkpt>
      <trkpt lat="41.842861" lon="22.989929">
        <ele>1187.7</ele>
        <time>2026-05-06T07:05:53.000Z</time>
      </trkpt>
      <trkpt lat="41.842861" lon="22.98993">
        <ele>1187.7</ele>
        <time>2026-05-06T07:05:54.000Z</time>
      </trkpt>
      <trkpt lat="41.842861" lon="22.98993">
        <ele>1187.7</ele>
        <time>2026-05-06T07:05:55.000Z</time>
      </trkpt>
      <trkpt lat="41.842861" lon="22.98993">
        <ele>1187.7</ele>
        <time>2026-05-06T07:05:56.000Z</time>
      </trkpt>
      <trkpt lat="41.842861" lon="22.98993">
        <ele>1187.7</ele>
        <time>2026-05-06T07:05:57.000Z</time>
      </trkpt>
      <trkpt lat="41.842861" lon="22.98993">
        <ele>1187.6</ele>
        <time>2026-05-06T07:05:58.000Z</time>
      </trkpt>
      <trkpt lat="41.842861" lon="22.98993">
        <ele>1187.6</ele>
        <time>2026-05-06T07:05:59.000Z</time>
      </trkpt>
      <trkpt lat="41.842861" lon="22.98993">
        <ele>1187.6</ele>
        <time>2026-05-06T07:06:00.000Z</time>
      </trkpt>
      <trkpt lat="41.842861" lon="22.98993">
        <ele>1187.6</ele>
        <time>2026-05-06T07:06:01.000Z</time>
      </trkpt>
      <trkpt lat="41.842861" lon="22.98993">
        <ele>1187.6</ele>
        <time>2026-05-06T07:06:02.000Z</time>
      </trkpt>
      <trkpt lat="41.842861" lon="22.98993">
        <ele>1187.3</ele>
        <time>2026-05-06T07:06:03.000Z</time>
      </trkpt>
      <trkpt lat="41.84286" lon="22.98993">
        <ele>1187.3</ele>
        <time>2026-05-06T07:06:04.000Z</time>
      </trkpt>
      <trkpt lat="41.84286" lon="22.98993">
        <ele>1187.3</ele>
        <time>2026-05-06T07:06:05.000Z</time>
      </trkpt>
      <trkpt lat="41.842859" lon="22.98993">
        <ele>1187.3</ele>
        <time>2026-05-06T07:06:06.000Z</time>
      </trkpt>
      <trkpt lat="41.842859" lon="22.989929">
        <ele>1187.3</ele>
        <time>2026-05-06T07:06:07.000Z</time>
      </trkpt>
      <trkpt lat="41.842858" lon="22.989929">
        <ele>1187</ele>
        <time>2026-05-06T07:06:08.000Z</time>
      </trkpt>
      <trkpt lat="41.842858" lon="22.989929">
        <ele>1187</ele>
        <time>2026-05-06T07:06:09.000Z</time>
      </trkpt>
      <trkpt lat="41.842858" lon="22.989929">
        <ele>1187</ele>
        <time>2026-05-06T07:06:10.000Z</time>
      </trkpt>
      <trkpt lat="41.842858" lon="22.989929">
        <ele>1187</ele>
        <time>2026-05-06T07:06:11.000Z</time>
      </trkpt>
      <trkpt lat="41.842858" lon="22.989929">
        <ele>1187</ele>
        <time>2026-05-06T07:06:12.000Z</time>
      </trkpt>
      <trkpt lat="41.842858" lon="22.989929">
        <ele>1187.1</ele>
        <time>2026-05-06T07:06:13.000Z</time>
      </trkpt>
      <trkpt lat="41.842858" lon="22.989929">
        <ele>1187.1</ele>
        <time>2026-05-06T07:06:14.000Z</time>
      </trkpt>
      <trkpt lat="41.842858" lon="22.989929">
        <ele>1187.1</ele>
        <time>2026-05-06T07:06:15.000Z</time>
      </trkpt>
      <trkpt lat="41.842858" lon="22.989929">
        <ele>1187.1</ele>
        <time>2026-05-06T07:06:16.000Z</time>
      </trkpt>
      <trkpt lat="41.842858" lon="22.989929">
        <ele>1187.1</ele>
        <time>2026-05-06T07:06:17.000Z</time>
      </trkpt>
      <trkpt lat="41.842858" lon="22.989929">
        <ele>1187.2</ele>
        <time>2026-05-06T07:06:18.000Z</time>
      </trkpt>
      <trkpt lat="41.842858" lon="22.989929">
        <ele>1187.2</ele>
        <time>2026-05-06T07:06:19.000Z</time>
      </trkpt>
      <trkpt lat="41.842858" lon="22.989929">
        <ele>1187.2</ele>
        <time>2026-05-06T07:06:20.000Z</time>
      </trkpt>
      <trkpt lat="41.842858" lon="22.989929">
        <ele>1187.2</ele>
        <time>2026-05-06T07:06:21.000Z</time>
      </trkpt>
      <trkpt lat="41.842858" lon="22.989929">
        <ele>1187.2</ele>
        <time>2026-05-06T07:06:22.000Z</time>
      </trkpt>
      <trkpt lat="41.842858" lon="22.989929">
        <ele>1187.5</ele>
        <time>2026-05-06T07:06:23.000Z</time>
      </trkpt>
      <trkpt lat="41.842858" lon="22.989929">
        <ele>1187.5</ele>
        <time>2026-05-06T07:06:24.000Z</time>
      </trkpt>
      <trkpt lat="41.842858" lon="22.989929">
        <ele>1187.5</ele>
        <time>2026-05-06T07:06:25.000Z</time>
      </trkpt>
      <trkpt lat="41.842858" lon="22.989929">
        <ele>1187.5</ele>
        <time>2026-05-06T07:06:26.000Z</time>
      </trkpt>
      <trkpt lat="41.842858" lon="22.989929">
        <ele>1187.5</ele>
        <time>2026-05-06T07:06:27.000Z</time>
      </trkpt>
      <trkpt lat="41.842858" lon="22.989929">
        <ele>1187.5</ele>
        <time>2026-05-06T07:06:28.000Z</time>
      </trkpt>
      <trkpt lat="41.842858" lon="22.989929">
        <ele>1187.5</ele>
        <time>2026-05-06T07:06:29.000Z</time>
      </trkpt>
      <trkpt lat="41.842858" lon="22.989929">
        <ele>1187.5</ele>
        <time>2026-05-06T07:06:30.000Z</time>
      </trkpt>
      <trkpt lat="41.842858" lon="22.989929">
        <ele>1187.5</ele>
        <time>2026-05-06T07:06:31.000Z</time>
      </trkpt>
      <trkpt lat="41.842858" lon="22.989929">
        <ele>1187.5</ele>
        <time>2026-05-06T07:06:32.000Z</time>
      </trkpt>
      <trkpt lat="41.842858" lon="22.989929">
        <ele>1187.5</ele>
        <time>2026-05-06T07:06:33.000Z</time>
      </trkpt>
      <trkpt lat="41.842858" lon="22.989928">
        <ele>1187.5</ele>
        <time>2026-05-06T07:06:34.000Z</time>
      </trkpt>
      <trkpt lat="41.842858" lon="22.989928">
        <ele>1187.5</ele>
        <time>2026-05-06T07:06:35.000Z</time>
      </trkpt>
      <trkpt lat="41.842858" lon="22.989928">
        <ele>1187.5</ele>
        <time>2026-05-06T07:06:36.000Z</time>
      </trkpt>
      <trkpt lat="41.842858" lon="22.989928">
        <ele>1187.5</ele>
        <time>2026-05-06T07:06:37.000Z</time>
      </trkpt>
      <trkpt lat="41.842858" lon="22.989928">
        <ele>1187.5</ele>
        <time>2026-05-06T07:06:38.000Z</time>
      </trkpt>
      <trkpt lat="41.842858" lon="22.989928">
        <ele>1187.5</ele>
        <time>2026-05-06T07:06:39.000Z</time>
      </trkpt>
      <trkpt lat="41.842858" lon="22.989928">
        <ele>1187.5</ele>
        <time>2026-05-06T07:06:40.000Z</time>
      </trkpt>
      <trkpt lat="41.842858" lon="22.989928">
        <ele>1187.5</ele>
        <time>2026-05-06T07:06:41.000Z</time>
      </trkpt>
      <trkpt lat="41.842859" lon="22.989926">
        <ele>1187.5</ele>
        <time>2026-05-06T07:06:42.000Z</time>
      </trkpt>
      <trkpt lat="41.84286" lon="22.989922">
        <ele>1187.6</ele>
        <time>2026-05-06T07:06:43.000Z</time>
      </trkpt>
      <trkpt lat="41.84286" lon="22.989919">
        <ele>1187.6</ele>
        <time>2026-05-06T07:06:44.000Z</time>
      </trkpt>
      <trkpt lat="41.84286" lon="22.989915">
        <ele>1187.6</ele>
        <time>2026-05-06T07:06:45.000Z</time>
      </trkpt>
      <trkpt lat="41.84286" lon="22.989913">
        <ele>1187.6</ele>
        <time>2026-05-06T07:06:46.000Z</time>
      </trkpt>
      <trkpt lat="41.842859" lon="22.989912">
        <ele>1187.6</ele>
        <time>2026-05-06T07:06:47.000Z</time>
      </trkpt>
      <trkpt lat="41.842859" lon="22.989912">
        <ele>1187.7</ele>
        <time>2026-05-06T07:06:48.000Z</time>
      </trkpt>
      <trkpt lat="41.842859" lon="22.989912">
        <ele>1187.7</ele>
        <time>2026-05-06T07:06:49.000Z</time>
      </trkpt>
      <trkpt lat="41.842859" lon="22.989912">
        <ele>1187.7</ele>
        <time>2026-05-06T07:06:50.000Z</time>
      </trkpt>
      <trkpt lat="41.84286" lon="22.989912">
        <ele>1187.7</ele>
        <time>2026-05-06T07:06:51.000Z</time>
      </trkpt>
      <trkpt lat="41.84286" lon="22.989912">
        <ele>1187.7</ele>
        <time>2026-05-06T07:06:52.000Z</time>
      </trkpt>
      <trkpt lat="41.84286" lon="22.989912">
        <ele>1187.6</ele>
        <time>2026-05-06T07:06:53.000Z</time>
      </trkpt>
      <trkpt lat="41.84286" lon="22.989912">
        <ele>1187.6</ele>
        <time>2026-05-06T07:06:54.000Z</time>
      </trkpt>
      <trkpt lat="41.84286" lon="22.989912">
        <ele>1187.6</ele>
        <time>2026-05-06T07:06:55.000Z</time>
      </trkpt>
      <trkpt lat="41.84286" lon="22.989912">
        <ele>1187.6</ele>
        <time>2026-05-06T07:06:56.000Z</time>
      </trkpt>
      <trkpt lat="41.84286" lon="22.989912">
        <ele>1187.6</ele>
        <time>2026-05-06T07:06:57.000Z</time>
      </trkpt>
      <trkpt lat="41.84286" lon="22.989912">
        <ele>1187.7</ele>
        <time>2026-05-06T07:06:58.000Z</time>
      </trkpt>
      <trkpt lat="41.84286" lon="22.989912">
        <ele>1187.7</ele>
        <time>2026-05-06T07:06:59.000Z</time>
      </trkpt>
      <trkpt lat="41.84286" lon="22.989913">
        <ele>1187.7</ele>
        <time>2026-05-06T07:07:00.000Z</time>
      </trkpt>
      <trkpt lat="41.842861" lon="22.989913">
        <ele>1187.7</ele>
        <time>2026-05-06T07:07:01.000Z</time>
      </trkpt>
      <trkpt lat="41.842862" lon="22.989914">
        <ele>1187.7</ele>
        <time>2026-05-06T07:07:02.000Z</time>
      </trkpt>
      <trkpt lat="41.842865" lon="22.989917">
        <ele>1187.7</ele>
        <time>2026-05-06T07:07:03.000Z</time>
      </trkpt>
      <trkpt lat="41.842868" lon="22.98992">
        <ele>1187.7</ele>
        <time>2026-05-06T07:07:04.000Z</time>
      </trkpt>
      <trkpt lat="41.842874" lon="22.989922">
        <ele>1187.7</ele>
        <time>2026-05-06T07:07:05.000Z</time>
      </trkpt>
      <trkpt lat="41.84288" lon="22.989924">
        <ele>1187.7</ele>
        <time>2026-05-06T07:07:06.000Z</time>
      </trkpt>
      <trkpt lat="41.842887" lon="22.989923">
        <ele>1187.7</ele>
        <time>2026-05-06T07:07:07.000Z</time>
      </trkpt>
      <trkpt lat="41.842894" lon="22.989917">
        <ele>1187.7</ele>
        <time>2026-05-06T07:07:08.000Z</time>
      </trkpt>
      <trkpt lat="41.8429" lon="22.989909">
        <ele>1187.7</ele>
        <time>2026-05-06T07:07:09.000Z</time>
      </trkpt>
      <trkpt lat="41.842904" lon="22.989901">
        <ele>1187.7</ele>
        <time>2026-05-06T07:07:10.000Z</time>
      </trkpt>
      <trkpt lat="41.842908" lon="22.98989">
        <ele>1187.7</ele>
        <time>2026-05-06T07:07:11.000Z</time>
      </trkpt>
      <trkpt lat="41.84291" lon="22.989881">
        <ele>1187.7</ele>
        <time>2026-05-06T07:07:12.000Z</time>
      </trkpt>
      <trkpt lat="41.842911" lon="22.989872">
        <ele>1187.4</ele>
        <time>2026-05-06T07:07:13.000Z</time>
      </trkpt>
      <trkpt lat="41.842911" lon="22.989864">
        <ele>1187.4</ele>
        <time>2026-05-06T07:07:14.000Z</time>
      </trkpt>
      <trkpt lat="41.842911" lon="22.989858">
        <ele>1187.4</ele>
        <time>2026-05-06T07:07:15.000Z</time>
      </trkpt>
      <trkpt lat="41.842911" lon="22.989852">
        <ele>1187.4</ele>
        <time>2026-05-06T07:07:16.000Z</time>
      </trkpt>
      <trkpt lat="41.842911" lon="22.989847">
        <ele>1187.4</ele>
        <time>2026-05-06T07:07:17.000Z</time>
      </trkpt>
      <trkpt lat="41.842913" lon="22.989842">
        <ele>1187.2</ele>
        <time>2026-05-06T07:07:18.000Z</time>
      </trkpt>
      <trkpt lat="41.842915" lon="22.989837">
        <ele>1187.2</ele>
        <time>2026-05-06T07:07:19.000Z</time>
      </trkpt>
      <trkpt lat="41.842917" lon="22.989832">
        <ele>1187.2</ele>
        <time>2026-05-06T07:07:20.000Z</time>
      </trkpt>
      <trkpt lat="41.84292" lon="22.989828">
        <ele>1187.2</ele>
        <time>2026-05-06T07:07:21.000Z</time>
      </trkpt>
      <trkpt lat="41.842922" lon="22.989827">
        <ele>1187.2</ele>
        <time>2026-05-06T07:07:22.000Z</time>
      </trkpt>
      <trkpt lat="41.842923" lon="22.989827">
        <ele>1186.6</ele>
        <time>2026-05-06T07:07:23.000Z</time>
      </trkpt>
      <trkpt lat="41.842923" lon="22.989828">
        <ele>1186.6</ele>
        <time>2026-05-06T07:07:24.000Z</time>
      </trkpt>
      <trkpt lat="41.842924" lon="22.98983">
        <ele>1186.6</ele>
        <time>2026-05-06T07:07:25.000Z</time>
      </trkpt>
      <trkpt lat="41.842924" lon="22.989831">
        <ele>1186.6</ele>
        <time>2026-05-06T07:07:26.000Z</time>
      </trkpt>
      <trkpt lat="41.842924" lon="22.989832">
        <ele>1186.6</ele>
        <time>2026-05-06T07:07:27.000Z</time>
      </trkpt>
      <trkpt lat="41.842925" lon="22.989831">
        <ele>1186.1</ele>
        <time>2026-05-06T07:07:28.000Z</time>
      </trkpt>
      <trkpt lat="41.842927" lon="22.989831">
        <ele>1186.1</ele>
        <time>2026-05-06T07:07:29.000Z</time>
      </trkpt>
      <trkpt lat="41.84293" lon="22.989831">
        <ele>1186.1</ele>
        <time>2026-05-06T07:07:30.000Z</time>
      </trkpt>
      <trkpt lat="41.842935" lon="22.98983">
        <ele>1186.1</ele>
        <time>2026-05-06T07:07:31.000Z</time>
      </trkpt>
      <trkpt lat="41.842939" lon="22.989831">
        <ele>1186.1</ele>
        <time>2026-05-06T07:07:32.000Z</time>
      </trkpt>
      <trkpt lat="41.842942" lon="22.989832">
        <ele>1185.9</ele>
        <time>2026-05-06T07:07:33.000Z</time>
      </trkpt>
      <trkpt lat="41.842944" lon="22.989832">
        <ele>1185.9</ele>
        <time>2026-05-06T07:07:34.000Z</time>
      </trkpt>
      <trkpt lat="41.842944" lon="22.989832">
        <ele>1185.9</ele>
        <time>2026-05-06T07:07:35.000Z</time>
      </trkpt>
      <trkpt lat="41.842944" lon="22.989832">
        <ele>1185.9</ele>
        <time>2026-05-06T07:07:36.000Z</time>
      </trkpt>
      <trkpt lat="41.842945" lon="22.989833">
        <ele>1185.9</ele>
        <time>2026-05-06T07:07:37.000Z</time>
      </trkpt>
      <trkpt lat="41.842945" lon="22.989834">
        <ele>1185.7</ele>
        <time>2026-05-06T07:07:38.000Z</time>
      </trkpt>
      <trkpt lat="41.842946" lon="22.989834">
        <ele>1185.7</ele>
        <time>2026-05-06T07:07:39.000Z</time>
      </trkpt>
      <trkpt lat="41.842947" lon="22.989836">
        <ele>1185.7</ele>
        <time>2026-05-06T07:07:40.000Z</time>
      </trkpt>
      <trkpt lat="41.842948" lon="22.989839">
        <ele>1185.7</ele>
        <time>2026-05-06T07:07:41.000Z</time>
      </trkpt>
      <trkpt lat="41.842948" lon="22.989842">
        <ele>1185.7</ele>
        <time>2026-05-06T07:07:42.000Z</time>
      </trkpt>
      <trkpt lat="41.84295" lon="22.989846">
        <ele>1185.6</ele>
        <time>2026-05-06T07:07:43.000Z</time>
      </trkpt>
      <trkpt lat="41.842953" lon="22.989854">
        <ele>1185.6</ele>
        <time>2026-05-06T07:07:44.000Z</time>
      </trkpt>
      <trkpt lat="41.842955" lon="22.989861">
        <ele>1185.6</ele>
        <time>2026-05-06T07:07:45.000Z</time>
      </trkpt>
      <trkpt lat="41.842958" lon="22.989867">
        <ele>1185.6</ele>
        <time>2026-05-06T07:07:46.000Z</time>
      </trkpt>
      <trkpt lat="41.842963" lon="22.989872">
        <ele>1185.6</ele>
        <time>2026-05-06T07:07:47.000Z</time>
      </trkpt>
      <trkpt lat="41.842968" lon="22.989876">
        <ele>1185.5</ele>
        <time>2026-05-06T07:07:48.000Z</time>
      </trkpt>
      <trkpt lat="41.842975" lon="22.989879">
        <ele>1185.5</ele>
        <time>2026-05-06T07:07:49.000Z</time>
      </trkpt>
      <trkpt lat="41.842983" lon="22.989883">
        <ele>1185.5</ele>
        <time>2026-05-06T07:07:50.000Z</time>
      </trkpt>
      <trkpt lat="41.84299" lon="22.989889">
        <ele>1185.5</ele>
        <time>2026-05-06T07:07:51.000Z</time>
      </trkpt>
      <trkpt lat="41.842996" lon="22.989894">
        <ele>1185.5</ele>
        <time>2026-05-06T07:07:52.000Z</time>
      </trkpt>
      <trkpt lat="41.843" lon="22.989898">
        <ele>1185.3</ele>
        <time>2026-05-06T07:07:53.000Z</time>
      </trkpt>
      <trkpt lat="41.843002" lon="22.989901">
        <ele>1185.3</ele>
        <time>2026-05-06T07:07:54.000Z</time>
      </trkpt>
      <trkpt lat="41.843003" lon="22.989902">
        <ele>1185.3</ele>
        <time>2026-05-06T07:07:55.000Z</time>
      </trkpt>
      <trkpt lat="41.843004" lon="22.989902">
        <ele>1185.3</ele>
        <time>2026-05-06T07:07:56.000Z</time>
      </trkpt>
      <trkpt lat="41.843004" lon="22.989902">
        <ele>1185.3</ele>
        <time>2026-05-06T07:07:57.000Z</time>
      </trkpt>
      <trkpt lat="41.843005" lon="22.989903">
        <ele>1184.8</ele>
        <time>2026-05-06T07:07:58.000Z</time>
      </trkpt>
      <trkpt lat="41.843005" lon="22.989904">
        <ele>1184.8</ele>
        <time>2026-05-06T07:07:59.000Z</time>
      </trkpt>
      <trkpt lat="41.843005" lon="22.989903">
        <ele>1184.8</ele>
        <time>2026-05-06T07:08:00.000Z</time>
      </trkpt>
      <trkpt lat="41.843006" lon="22.989903">
        <ele>1184.8</ele>
        <time>2026-05-06T07:08:01.000Z</time>
      </trkpt>
      <trkpt lat="41.843006" lon="22.989903">
        <ele>1184.8</ele>
        <time>2026-05-06T07:08:02.000Z</time>
      </trkpt>
      <trkpt lat="41.843006" lon="22.989903">
        <ele>1184.5</ele>
        <time>2026-05-06T07:08:03.000Z</time>
      </trkpt>
      <trkpt lat="41.843007" lon="22.989905">
        <ele>1184.5</ele>
        <time>2026-05-06T07:08:04.000Z</time>
      </trkpt>
      <trkpt lat="41.843008" lon="22.989908">
        <ele>1184.5</ele>
        <time>2026-05-06T07:08:05.000Z</time>
      </trkpt>
      <trkpt lat="41.84301" lon="22.989913">
        <ele>1184.5</ele>
        <time>2026-05-06T07:08:06.000Z</time>
      </trkpt>
      <trkpt lat="41.843011" lon="22.989919">
        <ele>1184.5</ele>
        <time>2026-05-06T07:08:07.000Z</time>
      </trkpt>
      <trkpt lat="41.843014" lon="22.989926">
        <ele>1183.8</ele>
        <time>2026-05-06T07:08:08.000Z</time>
      </trkpt>
      <trkpt lat="41.843015" lon="22.989933">
        <ele>1183.8</ele>
        <time>2026-05-06T07:08:09.000Z</time>
      </trkpt>
      <trkpt lat="41.843017" lon="22.98994">
        <ele>1183.8</ele>
        <time>2026-05-06T07:08:10.000Z</time>
      </trkpt>
      <trkpt lat="41.843018" lon="22.989946">
        <ele>1183.8</ele>
        <time>2026-05-06T07:08:11.000Z</time>
      </trkpt>
      <trkpt lat="41.843019" lon="22.989951">
        <ele>1183.8</ele>
        <time>2026-05-06T07:08:12.000Z</time>
      </trkpt>
      <trkpt lat="41.843019" lon="22.989955">
        <ele>1183.2</ele>
        <time>2026-05-06T07:08:13.000Z</time>
      </trkpt>
      <trkpt lat="41.843019" lon="22.989955">
        <ele>1183.2</ele>
        <time>2026-05-06T07:08:14.000Z</time>
      </trkpt>
      <trkpt lat="41.843019" lon="22.989955">
        <ele>1183.2</ele>
        <time>2026-05-06T07:08:15.000Z</time>
      </trkpt>
      <trkpt lat="41.843019" lon="22.989954">
        <ele>1183.2</ele>
        <time>2026-05-06T07:08:16.000Z</time>
      </trkpt>
      <trkpt lat="41.843018" lon="22.989953">
        <ele>1183.2</ele>
        <time>2026-05-06T07:08:17.000Z</time>
      </trkpt>
      <trkpt lat="41.843018" lon="22.989953">
        <ele>1182.9</ele>
        <time>2026-05-06T07:08:18.000Z</time>
      </trkpt>
      <trkpt lat="41.843017" lon="22.989956">
        <ele>1182.9</ele>
        <time>2026-05-06T07:08:19.000Z</time>
      </trkpt>
      <trkpt lat="41.843017" lon="22.989959">
        <ele>1182.9</ele>
        <time>2026-05-06T07:08:20.000Z</time>
      </trkpt>
      <trkpt lat="41.843016" lon="22.989965">
        <ele>1182.9</ele>
        <time>2026-05-06T07:08:21.000Z</time>
      </trkpt>
      <trkpt lat="41.843016" lon="22.98997">
        <ele>1182.9</ele>
        <time>2026-05-06T07:08:22.000Z</time>
      </trkpt>
      <trkpt lat="41.843016" lon="22.989976">
        <ele>1182.4</ele>
        <time>2026-05-06T07:08:23.000Z</time>
      </trkpt>
      <trkpt lat="41.843017" lon="22.989981">
        <ele>1182.4</ele>
        <time>2026-05-06T07:08:24.000Z</time>
      </trkpt>
      <trkpt lat="41.843017" lon="22.989986">
        <ele>1182.4</ele>
        <time>2026-05-06T07:08:25.000Z</time>
      </trkpt>
      <trkpt lat="41.843017" lon="22.98999">
        <ele>1182.4</ele>
        <time>2026-05-06T07:08:26.000Z</time>
      </trkpt>
      <trkpt lat="41.843017" lon="22.989993">
        <ele>1182.4</ele>
        <time>2026-05-06T07:08:27.000Z</time>
      </trkpt>
      <trkpt lat="41.843017" lon="22.989996">
        <ele>1182.1</ele>
        <time>2026-05-06T07:08:28.000Z</time>
      </trkpt>
      <trkpt lat="41.843018" lon="22.989998">
        <ele>1182.1</ele>
        <time>2026-05-06T07:08:29.000Z</time>
      </trkpt>
      <trkpt lat="41.843018" lon="22.989999">
        <ele>1182.1</ele>
        <time>2026-05-06T07:08:30.000Z</time>
      </trkpt>
      <trkpt lat="41.843019" lon="22.989999">
        <ele>1182.1</ele>
        <time>2026-05-06T07:08:31.000Z</time>
      </trkpt>
      <trkpt lat="41.843019" lon="22.99">
        <ele>1182.1</ele>
        <time>2026-05-06T07:08:32.000Z</time>
      </trkpt>
      <trkpt lat="41.84302" lon="22.990001">
        <ele>1182</ele>
        <time>2026-05-06T07:08:33.000Z</time>
      </trkpt>
      <trkpt lat="41.84302" lon="22.990002">
        <ele>1182</ele>
        <time>2026-05-06T07:08:34.000Z</time>
      </trkpt>
      <trkpt lat="41.84302" lon="22.990002">
        <ele>1182</ele>
        <time>2026-05-06T07:08:35.000Z</time>
      </trkpt>
      <trkpt lat="41.84302" lon="22.990003">
        <ele>1182</ele>
        <time>2026-05-06T07:08:36.000Z</time>
      </trkpt>
      <trkpt lat="41.843021" lon="22.990004">
        <ele>1182</ele>
        <time>2026-05-06T07:08:37.000Z</time>
      </trkpt>
      <trkpt lat="41.843022" lon="22.990008">
        <ele>1182</ele>
        <time>2026-05-06T07:08:38.000Z</time>
      </trkpt>
      <trkpt lat="41.843025" lon="22.990016">
        <ele>1182</ele>
        <time>2026-05-06T07:08:39.000Z</time>
      </trkpt>
      <trkpt lat="41.843028" lon="22.990027">
        <ele>1182</ele>
        <time>2026-05-06T07:08:40.000Z</time>
      </trkpt>
      <trkpt lat="41.843032" lon="22.99004">
        <ele>1182</ele>
        <time>2026-05-06T07:08:41.000Z</time>
      </trkpt>
      <trkpt lat="41.843036" lon="22.990055">
        <ele>1182</ele>
        <time>2026-05-06T07:08:42.000Z</time>
      </trkpt>
      <trkpt lat="41.843037" lon="22.990071">
        <ele>1181.9</ele>
        <time>2026-05-06T07:08:43.000Z</time>
      </trkpt>
      <trkpt lat="41.843039" lon="22.990086">
        <ele>1181.9</ele>
        <time>2026-05-06T07:08:44.000Z</time>
      </trkpt>
      <trkpt lat="41.84304" lon="22.990098">
        <ele>1181.9</ele>
        <time>2026-05-06T07:08:45.000Z</time>
      </trkpt>
      <trkpt lat="41.843042" lon="22.990106">
        <ele>1181.9</ele>
        <time>2026-05-06T07:08:46.000Z</time>
      </trkpt>
      <trkpt lat="41.843042" lon="22.990112">
        <ele>1181.9</ele>
        <time>2026-05-06T07:08:47.000Z</time>
      </trkpt>
      <trkpt lat="41.843042" lon="22.990114">
        <ele>1181.7</ele>
        <time>2026-05-06T07:08:48.000Z</time>
      </trkpt>
      <trkpt lat="41.843043" lon="22.990115">
        <ele>1181.7</ele>
        <time>2026-05-06T07:08:49.000Z</time>
      </trkpt>
      <trkpt lat="41.843042" lon="22.990115">
        <ele>1181.7</ele>
        <time>2026-05-06T07:08:50.000Z</time>
      </trkpt>
      <trkpt lat="41.843041" lon="22.990115">
        <ele>1181.7</ele>
        <time>2026-05-06T07:08:51.000Z</time>
      </trkpt>
      <trkpt lat="41.84304" lon="22.990115">
        <ele>1181.7</ele>
        <time>2026-05-06T07:08:52.000Z</time>
      </trkpt>
      <trkpt lat="41.84304" lon="22.990115">
        <ele>1181.2</ele>
        <time>2026-05-06T07:08:53.000Z</time>
      </trkpt>
      <trkpt lat="41.843039" lon="22.990115">
        <ele>1181.2</ele>
        <time>2026-05-06T07:08:54.000Z</time>
      </trkpt>
      <trkpt lat="41.843039" lon="22.990115">
        <ele>1181.2</ele>
        <time>2026-05-06T07:08:55.000Z</time>
      </trkpt>
      <trkpt lat="41.843038" lon="22.990115">
        <ele>1181.2</ele>
        <time>2026-05-06T07:08:56.000Z</time>
      </trkpt>
      <trkpt lat="41.843038" lon="22.990116">
        <ele>1181.2</ele>
        <time>2026-05-06T07:08:57.000Z</time>
      </trkpt>
      <trkpt lat="41.843038" lon="22.990117">
        <ele>1180.6</ele>
        <time>2026-05-06T07:08:58.000Z</time>
      </trkpt>
      <trkpt lat="41.843037" lon="22.990119">
        <ele>1180.6</ele>
        <time>2026-05-06T07:08:59.000Z</time>
      </trkpt>
      <trkpt lat="41.843037" lon="22.990119">
        <ele>1180.6</ele>
        <time>2026-05-06T07:09:00.000Z</time>
      </trkpt>
      <trkpt lat="41.843038" lon="22.99012">
        <ele>1180.6</ele>
        <time>2026-05-06T07:09:01.000Z</time>
      </trkpt>
      <trkpt lat="41.843038" lon="22.990121">
        <ele>1180.6</ele>
        <time>2026-05-06T07:09:02.000Z</time>
      </trkpt>
      <trkpt lat="41.843038" lon="22.990121">
        <ele>1180.5</ele>
        <time>2026-05-06T07:09:03.000Z</time>
      </trkpt>
      <trkpt lat="41.843037" lon="22.990121">
        <ele>1180.5</ele>
        <time>2026-05-06T07:09:04.000Z</time>
      </trkpt>
      <trkpt lat="41.843037" lon="22.990121">
        <ele>1180.5</ele>
        <time>2026-05-06T07:09:05.000Z</time>
      </trkpt>
      <trkpt lat="41.843037" lon="22.990121">
        <ele>1180.5</ele>
        <time>2026-05-06T07:09:06.000Z</time>
      </trkpt>
      <trkpt lat="41.843036" lon="22.990121">
        <ele>1180.5</ele>
        <time>2026-05-06T07:09:07.000Z</time>
      </trkpt>
      <trkpt lat="41.843037" lon="22.990121">
        <ele>1180.4</ele>
        <time>2026-05-06T07:09:08.000Z</time>
      </trkpt>
      <trkpt lat="41.843037" lon="22.990121">
        <ele>1180.4</ele>
        <time>2026-05-06T07:09:09.000Z</time>
      </trkpt>
      <trkpt lat="41.843037" lon="22.990121">
        <ele>1180.4</ele>
        <time>2026-05-06T07:09:10.000Z</time>
      </trkpt>
      <trkpt lat="41.843037" lon="22.990121">
        <ele>1180.4</ele>
        <time>2026-05-06T07:09:11.000Z</time>
      </trkpt>
      <trkpt lat="41.843038" lon="22.990121">
        <ele>1180.4</ele>
        <time>2026-05-06T07:09:12.000Z</time>
      </trkpt>
      <trkpt lat="41.843038" lon="22.990121">
        <ele>1180.5</ele>
        <time>2026-05-06T07:09:13.000Z</time>
      </trkpt>
      <trkpt lat="41.843038" lon="22.990121">
        <ele>1180.5</ele>
        <time>2026-05-06T07:09:14.000Z</time>
      </trkpt>
      <trkpt lat="41.843038" lon="22.990121">
        <ele>1180.5</ele>
        <time>2026-05-06T07:09:15.000Z</time>
      </trkpt>
      <trkpt lat="41.843038" lon="22.99012">
        <ele>1180.5</ele>
        <time>2026-05-06T07:09:16.000Z</time>
      </trkpt>
      <trkpt lat="41.843039" lon="22.99012">
        <ele>1180.5</ele>
        <time>2026-05-06T07:09:17.000Z</time>
      </trkpt>
      <trkpt lat="41.843039" lon="22.99012">
        <ele>1180.6</ele>
        <time>2026-05-06T07:09:18.000Z</time>
      </trkpt>
      <trkpt lat="41.84304" lon="22.99012">
        <ele>1180.6</ele>
        <time>2026-05-06T07:09:19.000Z</time>
      </trkpt>
      <trkpt lat="41.843039" lon="22.990117">
        <ele>1180.6</ele>
        <time>2026-05-06T07:09:20.000Z</time>
      </trkpt>
      <trkpt lat="41.843037" lon="22.990111">
        <ele>1180.6</ele>
        <time>2026-05-06T07:09:21.000Z</time>
      </trkpt>
      <trkpt lat="41.843036" lon="22.990102">
        <ele>1180.6</ele>
        <time>2026-05-06T07:09:22.000Z</time>
      </trkpt>
      <trkpt lat="41.843034" lon="22.990089">
        <ele>1180.6</ele>
        <time>2026-05-06T07:09:23.000Z</time>
      </trkpt>
      <trkpt lat="41.843032" lon="22.990073">
        <ele>1180.6</ele>
        <time>2026-05-06T07:09:24.000Z</time>
      </trkpt>
      <trkpt lat="41.843031" lon="22.990058">
        <ele>1180.6</ele>
        <time>2026-05-06T07:09:25.000Z</time>
      </trkpt>
      <trkpt lat="41.843031" lon="22.990043">
        <ele>1180.6</ele>
        <time>2026-05-06T07:09:26.000Z</time>
      </trkpt>
      <trkpt lat="41.843031" lon="22.990029">
        <ele>1180.6</ele>
        <time>2026-05-06T07:09:27.000Z</time>
      </trkpt>
      <trkpt lat="41.843031" lon="22.990015">
        <ele>1180.7</ele>
        <time>2026-05-06T07:09:28.000Z</time>
      </trkpt>
      <trkpt lat="41.843031" lon="22.990003">
        <ele>1180.7</ele>
        <time>2026-05-06T07:09:29.000Z</time>
      </trkpt>
      <trkpt lat="41.843031" lon="22.98999">
        <ele>1180.7</ele>
        <time>2026-05-06T07:09:30.000Z</time>
      </trkpt>
      <trkpt lat="41.843031" lon="22.989976">
        <ele>1180.7</ele>
        <time>2026-05-06T07:09:31.000Z</time>
      </trkpt>
      <trkpt lat="41.843032" lon="22.989961">
        <ele>1180.7</ele>
        <time>2026-05-06T07:09:32.000Z</time>
      </trkpt>
      <trkpt lat="41.843034" lon="22.989945">
        <ele>1180.8</ele>
        <time>2026-05-06T07:09:33.000Z</time>
      </trkpt>
      <trkpt lat="41.843038" lon="22.989929">
        <ele>1180.8</ele>
        <time>2026-05-06T07:09:34.000Z</time>
      </trkpt>
      <trkpt lat="41.843042" lon="22.989913">
        <ele>1180.8</ele>
        <time>2026-05-06T07:09:35.000Z</time>
      </trkpt>
      <trkpt lat="41.843048" lon="22.989899">
        <ele>1180.8</ele>
        <time>2026-05-06T07:09:36.000Z</time>
      </trkpt>
      <trkpt lat="41.843056" lon="22.989885">
        <ele>1180.8</ele>
        <time>2026-05-06T07:09:37.000Z</time>
      </trkpt>
      <trkpt lat="41.843065" lon="22.989874">
        <ele>1181.2</ele>
        <time>2026-05-06T07:09:38.000Z</time>
      </trkpt>
      <trkpt lat="41.843074" lon="22.989862">
        <ele>1181.2</ele>
        <time>2026-05-06T07:09:39.000Z</time>
      </trkpt>
      <trkpt lat="41.843083" lon="22.989852">
        <ele>1181.2</ele>
        <time>2026-05-06T07:09:40.000Z</time>
      </trkpt>
      <trkpt lat="41.843091" lon="22.989844">
        <ele>1181.2</ele>
        <time>2026-05-06T07:09:41.000Z</time>
      </trkpt>
      <trkpt lat="41.843098" lon="22.989837">
        <ele>1181.2</ele>
        <time>2026-05-06T07:09:42.000Z</time>
      </trkpt>
      <trkpt lat="41.843105" lon="22.98983">
        <ele>1181.4</ele>
        <time>2026-05-06T07:09:43.000Z</time>
      </trkpt>
      <trkpt lat="41.843111" lon="22.989823">
        <ele>1181.4</ele>
        <time>2026-05-06T07:09:44.000Z</time>
      </trkpt>
      <trkpt lat="41.843118" lon="22.989817">
        <ele>1181.4</ele>
        <time>2026-05-06T07:09:45.000Z</time>
      </trkpt>
      <trkpt lat="41.843125" lon="22.989811">
        <ele>1181.4</ele>
        <time>2026-05-06T07:09:46.000Z</time>
      </trkpt>
      <trkpt lat="41.843133" lon="22.989804">
        <ele>1181.4</ele>
        <time>2026-05-06T07:09:47.000Z</time>
      </trkpt>
      <trkpt lat="41.843141" lon="22.989798">
        <ele>1181.2</ele>
        <time>2026-05-06T07:09:48.000Z</time>
      </trkpt>
      <trkpt lat="41.84315" lon="22.989792">
        <ele>1181.2</ele>
        <time>2026-05-06T07:09:49.000Z</time>
      </trkpt>
      <trkpt lat="41.843159" lon="22.989786">
        <ele>1181.2</ele>
        <time>2026-05-06T07:09:50.000Z</time>
      </trkpt>
      <trkpt lat="41.843167" lon="22.989779">
        <ele>1181.2</ele>
        <time>2026-05-06T07:09:51.000Z</time>
      </trkpt>
      <trkpt lat="41.843175" lon="22.989771">
        <ele>1181.2</ele>
        <time>2026-05-06T07:09:52.000Z</time>
      </trkpt>
      <trkpt lat="41.843183" lon="22.989762">
        <ele>1180</ele>
        <time>2026-05-06T07:09:53.000Z</time>
      </trkpt>
      <trkpt lat="41.843192" lon="22.989752">
        <ele>1180</ele>
        <time>2026-05-06T07:09:54.000Z</time>
      </trkpt>
      <trkpt lat="41.8432" lon="22.989742">
        <ele>1180</ele>
        <time>2026-05-06T07:09:55.000Z</time>
      </trkpt>
      <trkpt lat="41.843208" lon="22.989731">
        <ele>1180</ele>
        <time>2026-05-06T07:09:56.000Z</time>
      </trkpt>
      <trkpt lat="41.843215" lon="22.989719">
        <ele>1180</ele>
        <time>2026-05-06T07:09:57.000Z</time>
      </trkpt>
      <trkpt lat="41.843223" lon="22.989708">
        <ele>1178.5</ele>
        <time>2026-05-06T07:09:58.000Z</time>
      </trkpt>
      <trkpt lat="41.84323" lon="22.989698">
        <ele>1178.5</ele>
        <time>2026-05-06T07:09:59.000Z</time>
      </trkpt>
      <trkpt lat="41.843238" lon="22.989688">
        <ele>1178.5</ele>
        <time>2026-05-06T07:10:00.000Z</time>
      </trkpt>
      <trkpt lat="41.843246" lon="22.989679">
        <ele>1178.5</ele>
        <time>2026-05-06T07:10:01.000Z</time>
      </trkpt>
      <trkpt lat="41.843254" lon="22.98967">
        <ele>1178.5</ele>
        <time>2026-05-06T07:10:02.000Z</time>
      </trkpt>
      <trkpt lat="41.843261" lon="22.989661">
        <ele>1177.8</ele>
        <time>2026-05-06T07:10:03.000Z</time>
      </trkpt>
      <trkpt lat="41.843268" lon="22.989652">
        <ele>1177.8</ele>
        <time>2026-05-06T07:10:04.000Z</time>
      </trkpt>
      <trkpt lat="41.843275" lon="22.989644">
        <ele>1177.8</ele>
        <time>2026-05-06T07:10:05.000Z</time>
      </trkpt>
      <trkpt lat="41.843281" lon="22.989635">
        <ele>1177.8</ele>
        <time>2026-05-06T07:10:06.000Z</time>
      </trkpt>
      <trkpt lat="41.843288" lon="22.989627">
        <ele>1177.8</ele>
        <time>2026-05-06T07:10:07.000Z</time>
      </trkpt>
      <trkpt lat="41.843294" lon="22.98962">
        <ele>1176.5</ele>
        <time>2026-05-06T07:10:08.000Z</time>
      </trkpt>
      <trkpt lat="41.843297" lon="22.989615">
        <ele>1176.5</ele>
        <time>2026-05-06T07:10:09.000Z</time>
      </trkpt>
      <trkpt lat="41.843299" lon="22.98961">
        <ele>1176.5</ele>
        <time>2026-05-06T07:10:10.000Z</time>
      </trkpt>
      <trkpt lat="41.843301" lon="22.989604">
        <ele>1176.5</ele>
        <time>2026-05-06T07:10:11.000Z</time>
      </trkpt>
      <trkpt lat="41.843301" lon="22.989601">
        <ele>1176.5</ele>
        <time>2026-05-06T07:10:12.000Z</time>
      </trkpt>
      <trkpt lat="41.843301" lon="22.989599">
        <ele>1175.3</ele>
        <time>2026-05-06T07:10:13.000Z</time>
      </trkpt>
      <trkpt lat="41.843304" lon="22.989595">
        <ele>1175.3</ele>
        <time>2026-05-06T07:10:14.000Z</time>
      </trkpt>
      <trkpt lat="41.843308" lon="22.989591">
        <ele>1175.3</ele>
        <time>2026-05-06T07:10:15.000Z</time>
      </trkpt>
      <trkpt lat="41.843313" lon="22.989587">
        <ele>1175.3</ele>
        <time>2026-05-06T07:10:16.000Z</time>
      </trkpt>
      <trkpt lat="41.843319" lon="22.989582">
        <ele>1175.3</ele>
        <time>2026-05-06T07:10:17.000Z</time>
      </trkpt>
      <trkpt lat="41.843326" lon="22.989578">
        <ele>1174.7</ele>
        <time>2026-05-06T07:10:18.000Z</time>
      </trkpt>
      <trkpt lat="41.843333" lon="22.989575">
        <ele>1174.7</ele>
        <time>2026-05-06T07:10:19.000Z</time>
      </trkpt>
      <trkpt lat="41.843338" lon="22.989572">
        <ele>1174.7</ele>
        <time>2026-05-06T07:10:20.000Z</time>
      </trkpt>
      <trkpt lat="41.843342" lon="22.98957">
        <ele>1174.7</ele>
        <time>2026-05-06T07:10:21.000Z</time>
      </trkpt>
      <trkpt lat="41.843345" lon="22.989569">
        <ele>1174.7</ele>
        <time>2026-05-06T07:10:22.000Z</time>
      </trkpt>
      <trkpt lat="41.843349" lon="22.989566">
        <ele>1173.3</ele>
        <time>2026-05-06T07:10:23.000Z</time>
      </trkpt>
      <trkpt lat="41.843353" lon="22.989561">
        <ele>1173.3</ele>
        <time>2026-05-06T07:10:24.000Z</time>
      </trkpt>
      <trkpt lat="41.843358" lon="22.989551">
        <ele>1173.3</ele>
        <time>2026-05-06T07:10:25.000Z</time>
      </trkpt>
      <trkpt lat="41.843364" lon="22.989537">
        <ele>1173.3</ele>
        <time>2026-05-06T07:10:26.000Z</time>
      </trkpt>
      <trkpt lat="41.843372" lon="22.989519">
        <ele>1173.3</ele>
        <time>2026-05-06T07:10:27.000Z</time>
      </trkpt>
      <trkpt lat="41.843377" lon="22.989498">
        <ele>1172.4</ele>
        <time>2026-05-06T07:10:28.000Z</time>
      </trkpt>
      <trkpt lat="41.843384" lon="22.989477">
        <ele>1172.4</ele>
        <time>2026-05-06T07:10:29.000Z</time>
      </trkpt>
      <trkpt lat="41.843392" lon="22.989459">
        <ele>1172.4</ele>
        <time>2026-05-06T07:10:30.000Z</time>
      </trkpt>
      <trkpt lat="41.8434" lon="22.989442">
        <ele>1172.4</ele>
        <time>2026-05-06T07:10:31.000Z</time>
      </trkpt>
      <trkpt lat="41.84341" lon="22.989428">
        <ele>1172.4</ele>
        <time>2026-05-06T07:10:32.000Z</time>
      </trkpt>
      <trkpt lat="41.843419" lon="22.989415">
        <ele>1172.1</ele>
        <time>2026-05-06T07:10:33.000Z</time>
      </trkpt>
      <trkpt lat="41.843429" lon="22.989404">
        <ele>1172.1</ele>
        <time>2026-05-06T07:10:34.000Z</time>
      </trkpt>
      <trkpt lat="41.843439" lon="22.989395">
        <ele>1172.1</ele>
        <time>2026-05-06T07:10:35.000Z</time>
      </trkpt>
      <trkpt lat="41.84345" lon="22.989386">
        <ele>1172.1</ele>
        <time>2026-05-06T07:10:36.000Z</time>
      </trkpt>
      <trkpt lat="41.843461" lon="22.989377">
        <ele>1172.1</ele>
        <time>2026-05-06T07:10:37.000Z</time>
      </trkpt>
      <trkpt lat="41.843471" lon="22.989368">
        <ele>1172.1</ele>
        <time>2026-05-06T07:10:38.000Z</time>
      </trkpt>
      <trkpt lat="41.843479" lon="22.989356">
        <ele>1172.1</ele>
        <time>2026-05-06T07:10:39.000Z</time>
      </trkpt>
      <trkpt lat="41.843486" lon="22.989344">
        <ele>1172.1</ele>
        <time>2026-05-06T07:10:40.000Z</time>
      </trkpt>
      <trkpt lat="41.84349" lon="22.989332">
        <ele>1172.1</ele>
        <time>2026-05-06T07:10:41.000Z</time>
      </trkpt>
      <trkpt lat="41.843495" lon="22.989322">
        <ele>1172.1</ele>
        <time>2026-05-06T07:10:42.000Z</time>
      </trkpt>
      <trkpt lat="41.8435" lon="22.989311">
        <ele>1172.4</ele>
        <time>2026-05-06T07:10:43.000Z</time>
      </trkpt>
      <trkpt lat="41.843505" lon="22.9893">
        <ele>1172.4</ele>
        <time>2026-05-06T07:10:44.000Z</time>
      </trkpt>
      <trkpt lat="41.843511" lon="22.989288">
        <ele>1172.4</ele>
        <time>2026-05-06T07:10:45.000Z</time>
      </trkpt>
      <trkpt lat="41.843517" lon="22.989277">
        <ele>1172.4</ele>
        <time>2026-05-06T07:10:46.000Z</time>
      </trkpt>
      <trkpt lat="41.843522" lon="22.989267">
        <ele>1172.4</ele>
        <time>2026-05-06T07:10:47.000Z</time>
      </trkpt>
      <trkpt lat="41.843529" lon="22.989258">
        <ele>1172.6</ele>
        <time>2026-05-06T07:10:48.000Z</time>
      </trkpt>
      <trkpt lat="41.843536" lon="22.989253">
        <ele>1172.6</ele>
        <time>2026-05-06T07:10:49.000Z</time>
      </trkpt>
      <trkpt lat="41.843544" lon="22.989248">
        <ele>1172.6</ele>
        <time>2026-05-06T07:10:50.000Z</time>
      </trkpt>
      <trkpt lat="41.843551" lon="22.989243">
        <ele>1172.6</ele>
        <time>2026-05-06T07:10:51.000Z</time>
      </trkpt>
      <trkpt lat="41.843558" lon="22.989238">
        <ele>1172.6</ele>
        <time>2026-05-06T07:10:52.000Z</time>
      </trkpt>
      <trkpt lat="41.843564" lon="22.989232">
        <ele>1173.4</ele>
        <time>2026-05-06T07:10:53.000Z</time>
      </trkpt>
      <trkpt lat="41.843569" lon="22.989226">
        <ele>1173.4</ele>
        <time>2026-05-06T07:10:54.000Z</time>
      </trkpt>
      <trkpt lat="41.843576" lon="22.989219">
        <ele>1173.4</ele>
        <time>2026-05-06T07:10:55.000Z</time>
      </trkpt>
      <trkpt lat="41.843583" lon="22.989212">
        <ele>1173.4</ele>
        <time>2026-05-06T07:10:56.000Z</time>
      </trkpt>
      <trkpt lat="41.843589" lon="22.989204">
        <ele>1173.4</ele>
        <time>2026-05-06T07:10:57.000Z</time>
      </trkpt>
      <trkpt lat="41.843596" lon="22.989196">
        <ele>1174.6</ele>
        <time>2026-05-06T07:10:58.000Z</time>
      </trkpt>
      <trkpt lat="41.843603" lon="22.989191">
        <ele>1174.6</ele>
        <time>2026-05-06T07:10:59.000Z</time>
      </trkpt>
      <trkpt lat="41.84361" lon="22.989186">
        <ele>1174.6</ele>
        <time>2026-05-06T07:11:00.000Z</time>
      </trkpt>
      <trkpt lat="41.843617" lon="22.989183">
        <ele>1174.6</ele>
        <time>2026-05-06T07:11:01.000Z</time>
      </trkpt>
      <trkpt lat="41.843622" lon="22.989182">
        <ele>1174.6</ele>
        <time>2026-05-06T07:11:02.000Z</time>
      </trkpt>
      <trkpt lat="41.843629" lon="22.989181">
        <ele>1175.3</ele>
        <time>2026-05-06T07:11:03.000Z</time>
      </trkpt>
      <trkpt lat="41.843635" lon="22.989179">
        <ele>1175.3</ele>
        <time>2026-05-06T07:11:04.000Z</time>
      </trkpt>
      <trkpt lat="41.843639" lon="22.989177">
        <ele>1175.3</ele>
        <time>2026-05-06T07:11:05.000Z</time>
      </trkpt>
      <trkpt lat="41.843643" lon="22.989176">
        <ele>1175.3</ele>
        <time>2026-05-06T07:11:06.000Z</time>
      </trkpt>
      <trkpt lat="41.843647" lon="22.989175">
        <ele>1175.3</ele>
        <time>2026-05-06T07:11:07.000Z</time>
      </trkpt>
      <trkpt lat="41.843652" lon="22.989173">
        <ele>1176.4</ele>
        <time>2026-05-06T07:11:08.000Z</time>
      </trkpt>
      <trkpt lat="41.843657" lon="22.98917">
        <ele>1176.4</ele>
        <time>2026-05-06T07:11:09.000Z</time>
      </trkpt>
      <trkpt lat="41.843664" lon="22.989168">
        <ele>1176.4</ele>
        <time>2026-05-06T07:11:10.000Z</time>
      </trkpt>
      <trkpt lat="41.843672" lon="22.989167">
        <ele>1176.4</ele>
        <time>2026-05-06T07:11:11.000Z</time>
      </trkpt>
      <trkpt lat="41.843681" lon="22.989168">
        <ele>1176.4</ele>
        <time>2026-05-06T07:11:12.000Z</time>
      </trkpt>
      <trkpt lat="41.84369" lon="22.989169">
        <ele>1177</ele>
        <time>2026-05-06T07:11:13.000Z</time>
      </trkpt>
      <trkpt lat="41.843698" lon="22.989173">
        <ele>1177</ele>
        <time>2026-05-06T07:11:14.000Z</time>
      </trkpt>
      <trkpt lat="41.843706" lon="22.989178">
        <ele>1177</ele>
        <time>2026-05-06T07:11:15.000Z</time>
      </trkpt>
      <trkpt lat="41.843714" lon="22.989182">
        <ele>1177</ele>
        <time>2026-05-06T07:11:16.000Z</time>
      </trkpt>
      <trkpt lat="41.84372" lon="22.989185">
        <ele>1177</ele>
        <time>2026-05-06T07:11:17.000Z</time>
      </trkpt>
      <trkpt lat="41.843728" lon="22.989188">
        <ele>1177.1</ele>
        <time>2026-05-06T07:11:18.000Z</time>
      </trkpt>
      <trkpt lat="41.843737" lon="22.989191">
        <ele>1177.1</ele>
        <time>2026-05-06T07:11:19.000Z</time>
      </trkpt>
      <trkpt lat="41.843745" lon="22.989194">
        <ele>1177.1</ele>
        <time>2026-05-06T07:11:20.000Z</time>
      </trkpt>
      <trkpt lat="41.843752" lon="22.989196">
        <ele>1177.1</ele>
        <time>2026-05-06T07:11:21.000Z</time>
      </trkpt>
      <trkpt lat="41.843759" lon="22.989198">
        <ele>1177.1</ele>
        <time>2026-05-06T07:11:22.000Z</time>
      </trkpt>
      <trkpt lat="41.843764" lon="22.9892">
        <ele>1176.7</ele>
        <time>2026-05-06T07:11:23.000Z</time>
      </trkpt>
      <trkpt lat="41.843767" lon="22.989201">
        <ele>1176.7</ele>
        <time>2026-05-06T07:11:24.000Z</time>
      </trkpt>
      <trkpt lat="41.84377" lon="22.989203">
        <ele>1176.7</ele>
        <time>2026-05-06T07:11:25.000Z</time>
      </trkpt>
      <trkpt lat="41.843775" lon="22.989203">
        <ele>1176.7</ele>
        <time>2026-05-06T07:11:26.000Z</time>
      </trkpt>
      <trkpt lat="41.843781" lon="22.989203">
        <ele>1176.7</ele>
        <time>2026-05-06T07:11:27.000Z</time>
      </trkpt>
      <trkpt lat="41.843789" lon="22.9892">
        <ele>1175.5</ele>
        <time>2026-05-06T07:11:28.000Z</time>
      </trkpt>
      <trkpt lat="41.843797" lon="22.989196">
        <ele>1175.5</ele>
        <time>2026-05-06T07:11:29.000Z</time>
      </trkpt>
      <trkpt lat="41.843807" lon="22.989191">
        <ele>1175.5</ele>
        <time>2026-05-06T07:11:30.000Z</time>
      </trkpt>
      <trkpt lat="41.843819" lon="22.989187">
        <ele>1175.5</ele>
        <time>2026-05-06T07:11:31.000Z</time>
      </trkpt>
      <trkpt lat="41.843834" lon="22.989183">
        <ele>1175.5</ele>
        <time>2026-05-06T07:11:32.000Z</time>
      </trkpt>
      <trkpt lat="41.84385" lon="22.989178">
        <ele>1174.6</ele>
        <time>2026-05-06T07:11:33.000Z</time>
      </trkpt>
      <trkpt lat="41.843868" lon="22.989172">
        <ele>1174.6</ele>
        <time>2026-05-06T07:11:34.000Z</time>
      </trkpt>
      <trkpt lat="41.843888" lon="22.989166">
        <ele>1174.6</ele>
        <time>2026-05-06T07:11:35.000Z</time>
      </trkpt>
      <trkpt lat="41.843905" lon="22.98916">
        <ele>1174.6</ele>
        <time>2026-05-06T07:11:36.000Z</time>
      </trkpt>
      <trkpt lat="41.843921" lon="22.989155">
        <ele>1174.6</ele>
        <time>2026-05-06T07:11:37.000Z</time>
      </trkpt>
      <trkpt lat="41.843936" lon="22.989152">
        <ele>1172.9</ele>
        <time>2026-05-06T07:11:38.000Z</time>
      </trkpt>
      <trkpt lat="41.84395" lon="22.989148">
        <ele>1172.9</ele>
        <time>2026-05-06T07:11:39.000Z</time>
      </trkpt>
      <trkpt lat="41.843961" lon="22.989144">
        <ele>1172.9</ele>
        <time>2026-05-06T07:11:40.000Z</time>
      </trkpt>
      <trkpt lat="41.84397" lon="22.989138">
        <ele>1172.9</ele>
        <time>2026-05-06T07:11:41.000Z</time>
      </trkpt>
      <trkpt lat="41.843976" lon="22.989129">
        <ele>1172.9</ele>
        <time>2026-05-06T07:11:42.000Z</time>
      </trkpt>
      <trkpt lat="41.84398" lon="22.989116">
        <ele>1172.1</ele>
        <time>2026-05-06T07:11:43.000Z</time>
      </trkpt>
      <trkpt lat="41.843986" lon="22.989099">
        <ele>1172.1</ele>
        <time>2026-05-06T07:11:44.000Z</time>
      </trkpt>
      <trkpt lat="41.843992" lon="22.989082">
        <ele>1172.1</ele>
        <time>2026-05-06T07:11:45.000Z</time>
      </trkpt>
      <trkpt lat="41.843999" lon="22.989063">
        <ele>1172.1</ele>
        <time>2026-05-06T07:11:46.000Z</time>
      </trkpt>
      <trkpt lat="41.844009" lon="22.989045">
        <ele>1172.1</ele>
        <time>2026-05-06T07:11:47.000Z</time>
      </trkpt>
      <trkpt lat="41.844019" lon="22.989032">
        <ele>1172.2</ele>
        <time>2026-05-06T07:11:48.000Z</time>
      </trkpt>
      <trkpt lat="41.844031" lon="22.98902">
        <ele>1172.2</ele>
        <time>2026-05-06T07:11:49.000Z</time>
      </trkpt>
      <trkpt lat="41.844044" lon="22.989009">
        <ele>1172.2</ele>
        <time>2026-05-06T07:11:50.000Z</time>
      </trkpt>
      <trkpt lat="41.844058" lon="22.988998">
        <ele>1172.2</ele>
        <time>2026-05-06T07:11:51.000Z</time>
      </trkpt>
      <trkpt lat="41.844071" lon="22.988986">
        <ele>1172.2</ele>
        <time>2026-05-06T07:11:52.000Z</time>
      </trkpt>
      <trkpt lat="41.844085" lon="22.988972">
        <ele>1173.5</ele>
        <time>2026-05-06T07:11:53.000Z</time>
      </trkpt>
      <trkpt lat="41.844095" lon="22.988958">
        <ele>1173.5</ele>
        <time>2026-05-06T07:11:54.000Z</time>
      </trkpt>
      <trkpt lat="41.844105" lon="22.988944">
        <ele>1173.5</ele>
        <time>2026-05-06T07:11:55.000Z</time>
      </trkpt>
      <trkpt lat="41.844114" lon="22.988931">
        <ele>1173.5</ele>
        <time>2026-05-06T07:11:56.000Z</time>
      </trkpt>
      <trkpt lat="41.844124" lon="22.988918">
        <ele>1173.5</ele>
        <time>2026-05-06T07:11:57.000Z</time>
      </trkpt>
      <trkpt lat="41.844134" lon="22.988905">
        <ele>1176</ele>
        <time>2026-05-06T07:11:58.000Z</time>
      </trkpt>
      <trkpt lat="41.844144" lon="22.988895">
        <ele>1176</ele>
        <time>2026-05-06T07:11:59.000Z</time>
      </trkpt>
      <trkpt lat="41.844153" lon="22.988887">
        <ele>1176</ele>
        <time>2026-05-06T07:12:00.000Z</time>
      </trkpt>
      <trkpt lat="41.844161" lon="22.988879">
        <ele>1176</ele>
        <time>2026-05-06T07:12:01.000Z</time>
      </trkpt>
      <trkpt lat="41.844168" lon="22.988873">
        <ele>1176</ele>
        <time>2026-05-06T07:12:02.000Z</time>
      </trkpt>
      <trkpt lat="41.844174" lon="22.988868">
        <ele>1177.6</ele>
        <time>2026-05-06T07:12:03.000Z</time>
      </trkpt>
      <trkpt lat="41.844178" lon="22.988864">
        <ele>1177.6</ele>
        <time>2026-05-06T07:12:04.000Z</time>
      </trkpt>
      <trkpt lat="41.844182" lon="22.988859">
        <ele>1177.6</ele>
        <time>2026-05-06T07:12:05.000Z</time>
      </trkpt>
      <trkpt lat="41.844184" lon="22.988857">
        <ele>1177.6</ele>
        <time>2026-05-06T07:12:06.000Z</time>
      </trkpt>
      <trkpt lat="41.844188" lon="22.988858">
        <ele>1177.6</ele>
        <time>2026-05-06T07:12:07.000Z</time>
      </trkpt>
      <trkpt lat="41.844191" lon="22.988861">
        <ele>1180.7</ele>
        <time>2026-05-06T07:12:08.000Z</time>
      </trkpt>
      <trkpt lat="41.844195" lon="22.988866">
        <ele>1180.7</ele>
        <time>2026-05-06T07:12:09.000Z</time>
      </trkpt>
      <trkpt lat="41.844198" lon="22.988871">
        <ele>1180.7</ele>
        <time>2026-05-06T07:12:10.000Z</time>
      </trkpt>
      <trkpt lat="41.8442" lon="22.988875">
        <ele>1180.7</ele>
        <time>2026-05-06T07:12:11.000Z</time>
      </trkpt>
      <trkpt lat="41.844201" lon="22.988877">
        <ele>1180.7</ele>
        <time>2026-05-06T07:12:12.000Z</time>
      </trkpt>
      <trkpt lat="41.8442" lon="22.988877">
        <ele>1183</ele>
        <time>2026-05-06T07:12:13.000Z</time>
      </trkpt>
      <trkpt lat="41.8442" lon="22.988875">
        <ele>1183</ele>
        <time>2026-05-06T07:12:14.000Z</time>
      </trkpt>
      <trkpt lat="41.8442" lon="22.988873">
        <ele>1183</ele>
        <time>2026-05-06T07:12:15.000Z</time>
      </trkpt>
      <trkpt lat="41.8442" lon="22.988871">
        <ele>1183</ele>
        <time>2026-05-06T07:12:16.000Z</time>
      </trkpt>
      <trkpt lat="41.8442" lon="22.988869">
        <ele>1183</ele>
        <time>2026-05-06T07:12:17.000Z</time>
      </trkpt>
      <trkpt lat="41.8442" lon="22.988868">
        <ele>1183.7</ele>
        <time>2026-05-06T07:12:18.000Z</time>
      </trkpt>
      <trkpt lat="41.8442" lon="22.988867">
        <ele>1183.7</ele>
        <time>2026-05-06T07:12:19.000Z</time>
      </trkpt>
      <trkpt lat="41.844201" lon="22.988867">
        <ele>1183.7</ele>
        <time>2026-05-06T07:12:20.000Z</time>
      </trkpt>
      <trkpt lat="41.844203" lon="22.988868">
        <ele>1183.7</ele>
        <time>2026-05-06T07:12:21.000Z</time>
      </trkpt>
      <trkpt lat="41.844206" lon="22.988867">
        <ele>1183.7</ele>
        <time>2026-05-06T07:12:22.000Z</time>
      </trkpt>
      <trkpt lat="41.84421" lon="22.988867">
        <ele>1184</ele>
        <time>2026-05-06T07:12:23.000Z</time>
      </trkpt>
      <trkpt lat="41.844213" lon="22.988866">
        <ele>1184</ele>
        <time>2026-05-06T07:12:24.000Z</time>
      </trkpt>
      <trkpt lat="41.844216" lon="22.988865">
        <ele>1184</ele>
        <time>2026-05-06T07:12:25.000Z</time>
      </trkpt>
      <trkpt lat="41.844217" lon="22.988864">
        <ele>1184</ele>
        <time>2026-05-06T07:12:26.000Z</time>
      </trkpt>
      <trkpt lat="41.844218" lon="22.988864">
        <ele>1184</ele>
        <time>2026-05-06T07:12:27.000Z</time>
      </trkpt>
      <trkpt lat="41.844219" lon="22.988864">
        <ele>1184</ele>
        <time>2026-05-06T07:12:28.000Z</time>
      </trkpt>
      <trkpt lat="41.844221" lon="22.988864">
        <ele>1184</ele>
        <time>2026-05-06T07:12:29.000Z</time>
      </trkpt>
      <trkpt lat="41.844222" lon="22.988865">
        <ele>1184</ele>
        <time>2026-05-06T07:12:30.000Z</time>
      </trkpt>
      <trkpt lat="41.844224" lon="22.988865">
        <ele>1184</ele>
        <time>2026-05-06T07:12:31.000Z</time>
      </trkpt>
      <trkpt lat="41.844225" lon="22.988866">
        <ele>1184</ele>
        <time>2026-05-06T07:12:32.000Z</time>
      </trkpt>
      <trkpt lat="41.844227" lon="22.988866">
        <ele>1184.1</ele>
        <time>2026-05-06T07:12:33.000Z</time>
      </trkpt>
      <trkpt lat="41.844228" lon="22.988867">
        <ele>1184.1</ele>
        <time>2026-05-06T07:12:34.000Z</time>
      </trkpt>
      <trkpt lat="41.844229" lon="22.988867">
        <ele>1184.1</ele>
        <time>2026-05-06T07:12:35.000Z</time>
      </trkpt>
      <trkpt lat="41.844229" lon="22.988868">
        <ele>1184.1</ele>
        <time>2026-05-06T07:12:36.000Z</time>
      </trkpt>
      <trkpt lat="41.844229" lon="22.988868">
        <ele>1184.1</ele>
        <time>2026-05-06T07:12:37.000Z</time>
      </trkpt>
      <trkpt lat="41.84423" lon="22.988868">
        <ele>1184.5</ele>
        <time>2026-05-06T07:12:38.000Z</time>
      </trkpt>
      <trkpt lat="41.844231" lon="22.988868">
        <ele>1184.5</ele>
        <time>2026-05-06T07:12:39.000Z</time>
      </trkpt>
      <trkpt lat="41.844234" lon="22.988865">
        <ele>1184.5</ele>
        <time>2026-05-06T07:12:40.000Z</time>
      </trkpt>
      <trkpt lat="41.844238" lon="22.988861">
        <ele>1184.5</ele>
        <time>2026-05-06T07:12:41.000Z</time>
      </trkpt>
      <trkpt lat="41.844243" lon="22.988856">
        <ele>1184.5</ele>
        <time>2026-05-06T07:12:42.000Z</time>
      </trkpt>
      <trkpt lat="41.844246" lon="22.988852">
        <ele>1185.2</ele>
        <time>2026-05-06T07:12:43.000Z</time>
      </trkpt>
      <trkpt lat="41.844249" lon="22.988849">
        <ele>1185.2</ele>
        <time>2026-05-06T07:12:44.000Z</time>
      </trkpt>
      <trkpt lat="41.84425" lon="22.988848">
        <ele>1185.2</ele>
        <time>2026-05-06T07:12:45.000Z</time>
      </trkpt>
      <trkpt lat="41.844251" lon="22.988847">
        <ele>1185.2</ele>
        <time>2026-05-06T07:12:46.000Z</time>
      </trkpt>
      <trkpt lat="41.84425" lon="22.988847">
        <ele>1185.2</ele>
        <time>2026-05-06T07:12:47.000Z</time>
      </trkpt>
      <trkpt lat="41.844251" lon="22.988846">
        <ele>1185.6</ele>
        <time>2026-05-06T07:12:48.000Z</time>
      </trkpt>
      <trkpt lat="41.844255" lon="22.988844">
        <ele>1185.6</ele>
        <time>2026-05-06T07:12:49.000Z</time>
      </trkpt>
      <trkpt lat="41.84426" lon="22.988841">
        <ele>1185.6</ele>
        <time>2026-05-06T07:12:50.000Z</time>
      </trkpt>
      <trkpt lat="41.844268" lon="22.988837">
        <ele>1185.6</ele>
        <time>2026-05-06T07:12:51.000Z</time>
      </trkpt>
      <trkpt lat="41.844276" lon="22.988833">
        <ele>1185.6</ele>
        <time>2026-05-06T07:12:52.000Z</time>
      </trkpt>
      <trkpt lat="41.844284" lon="22.98883">
        <ele>1186.3</ele>
        <time>2026-05-06T07:12:53.000Z</time>
      </trkpt>
      <trkpt lat="41.844291" lon="22.988826">
        <ele>1186.3</ele>
        <time>2026-05-06T07:12:54.000Z</time>
      </trkpt>
      <trkpt lat="41.844296" lon="22.988823">
        <ele>1186.3</ele>
        <time>2026-05-06T07:12:55.000Z</time>
      </trkpt>
      <trkpt lat="41.844299" lon="22.98882">
        <ele>1186.3</ele>
        <time>2026-05-06T07:12:56.000Z</time>
      </trkpt>
      <trkpt lat="41.844301" lon="22.988818">
        <ele>1186.3</ele>
        <time>2026-05-06T07:12:57.000Z</time>
      </trkpt>
      <trkpt lat="41.844302" lon="22.988816">
        <ele>1187.1</ele>
        <time>2026-05-06T07:12:58.000Z</time>
      </trkpt>
      <trkpt lat="41.844303" lon="22.988815">
        <ele>1187.1</ele>
        <time>2026-05-06T07:12:59.000Z</time>
      </trkpt>
      <trkpt lat="41.844303" lon="22.988815">
        <ele>1187.1</ele>
        <time>2026-05-06T07:13:00.000Z</time>
      </trkpt>
      <trkpt lat="41.844304" lon="22.988814">
        <ele>1187.1</ele>
        <time>2026-05-06T07:13:01.000Z</time>
      </trkpt>
      <trkpt lat="41.844305" lon="22.988814">
        <ele>1187.1</ele>
        <time>2026-05-06T07:13:02.000Z</time>
      </trkpt>
      <trkpt lat="41.844305" lon="22.988814">
        <ele>1187.5</ele>
        <time>2026-05-06T07:13:03.000Z</time>
      </trkpt>
      <trkpt lat="41.844305" lon="22.988813">
        <ele>1187.5</ele>
        <time>2026-05-06T07:13:04.000Z</time>
      </trkpt>
      <trkpt lat="41.844304" lon="22.988814">
        <ele>1187.5</ele>
        <time>2026-05-06T07:13:05.000Z</time>
      </trkpt>
      <trkpt lat="41.844304" lon="22.988814">
        <ele>1187.5</ele>
        <time>2026-05-06T07:13:06.000Z</time>
      </trkpt>
      <trkpt lat="41.844304" lon="22.988813">
        <ele>1187.5</ele>
        <time>2026-05-06T07:13:07.000Z</time>
      </trkpt>
      <trkpt lat="41.844304" lon="22.988813">
        <ele>1188</ele>
        <time>2026-05-06T07:13:08.000Z</time>
      </trkpt>
      <trkpt lat="41.844304" lon="22.988812">
        <ele>1188</ele>
        <time>2026-05-06T07:13:09.000Z</time>
      </trkpt>
      <trkpt lat="41.844304" lon="22.988811">
        <ele>1188</ele>
        <time>2026-05-06T07:13:10.000Z</time>
      </trkpt>
      <trkpt lat="41.844304" lon="22.988811">
        <ele>1188</ele>
        <time>2026-05-06T07:13:11.000Z</time>
      </trkpt>
      <trkpt lat="41.844304" lon="22.98881">
        <ele>1188</ele>
        <time>2026-05-06T07:13:12.000Z</time>
      </trkpt>
      <trkpt lat="41.844304" lon="22.98881">
        <ele>1188.2</ele>
        <time>2026-05-06T07:13:13.000Z</time>
      </trkpt>
      <trkpt lat="41.844304" lon="22.98881">
        <ele>1188.2</ele>
        <time>2026-05-06T07:13:14.000Z</time>
      </trkpt>
      <trkpt lat="41.844304" lon="22.988809">
        <ele>1188.2</ele>
        <time>2026-05-06T07:13:15.000Z</time>
      </trkpt>
      <trkpt lat="41.844303" lon="22.988809">
        <ele>1188.2</ele>
        <time>2026-05-06T07:13:16.000Z</time>
      </trkpt>
      <trkpt lat="41.844303" lon="22.988809">
        <ele>1188.2</ele>
        <time>2026-05-06T07:13:17.000Z</time>
      </trkpt>
      <trkpt lat="41.844303" lon="22.98881">
        <ele>1188.2</ele>
        <time>2026-05-06T07:13:18.000Z</time>
      </trkpt>
      <trkpt lat="41.844303" lon="22.98881">
        <ele>1188.2</ele>
        <time>2026-05-06T07:13:19.000Z</time>
      </trkpt>
      <trkpt lat="41.844304" lon="22.98881">
        <ele>1188.2</ele>
        <time>2026-05-06T07:13:20.000Z</time>
      </trkpt>
      <trkpt lat="41.844304" lon="22.988811">
        <ele>1188.2</ele>
        <time>2026-05-06T07:13:21.000Z</time>
      </trkpt>
      <trkpt lat="41.844304" lon="22.988811">
        <ele>1188.2</ele>
        <time>2026-05-06T07:13:22.000Z</time>
      </trkpt>
      <trkpt lat="41.844304" lon="22.988812">
        <ele>1188</ele>
        <time>2026-05-06T07:13:23.000Z</time>
      </trkpt>
      <trkpt lat="41.844304" lon="22.988812">
        <ele>1188</ele>
        <time>2026-05-06T07:13:24.000Z</time>
      </trkpt>
      <trkpt lat="41.844305" lon="22.988813">
        <ele>1188</ele>
        <time>2026-05-06T07:13:25.000Z</time>
      </trkpt>
      <trkpt lat="41.844305" lon="22.988813">
        <ele>1188</ele>
        <time>2026-05-06T07:13:26.000Z</time>
      </trkpt>
      <trkpt lat="41.844305" lon="22.988813">
        <ele>1188</ele>
        <time>2026-05-06T07:13:27.000Z</time>
      </trkpt>
      <trkpt lat="41.844305" lon="22.988813">
        <ele>1187.8</ele>
        <time>2026-05-06T07:13:28.000Z</time>
      </trkpt>
      <trkpt lat="41.844305" lon="22.988813">
        <ele>1187.8</ele>
        <time>2026-05-06T07:13:29.000Z</time>
      </trkpt>
      <trkpt lat="41.844305" lon="22.988813">
        <ele>1187.8</ele>
        <time>2026-05-06T07:13:30.000Z</time>
      </trkpt>
      <trkpt lat="41.844305" lon="22.988813">
        <ele>1187.8</ele>
        <time>2026-05-06T07:13:31.000Z</time>
      </trkpt>
      <trkpt lat="41.844305" lon="22.988813">
        <ele>1187.8</ele>
        <time>2026-05-06T07:13:32.000Z</time>
      </trkpt>
      <trkpt lat="41.844305" lon="22.988813">
        <ele>1187.7</ele>
        <time>2026-05-06T07:13:33.000Z</time>
      </trkpt>
      <trkpt lat="41.844305" lon="22.988813">
        <ele>1187.7</ele>
        <time>2026-05-06T07:13:34.000Z</time>
      </trkpt>
      <trkpt lat="41.844305" lon="22.988813">
        <ele>1187.7</ele>
        <time>2026-05-06T07:13:35.000Z</time>
      </trkpt>
      <trkpt lat="41.844305" lon="22.988812">
        <ele>1187.7</ele>
        <time>2026-05-06T07:13:36.000Z</time>
      </trkpt>
      <trkpt lat="41.844305" lon="22.988812">
        <ele>1187.7</ele>
        <time>2026-05-06T07:13:37.000Z</time>
      </trkpt>
      <trkpt lat="41.844305" lon="22.988812">
        <ele>1187.7</ele>
        <time>2026-05-06T07:13:38.000Z</time>
      </trkpt>
      <trkpt lat="41.844305" lon="22.988812">
        <ele>1187.7</ele>
        <time>2026-05-06T07:13:39.000Z</time>
      </trkpt>
      <trkpt lat="41.844305" lon="22.988812">
        <ele>1187.7</ele>
        <time>2026-05-06T07:13:40.000Z</time>
      </trkpt>
      <trkpt lat="41.844305" lon="22.988812">
        <ele>1187.7</ele>
        <time>2026-05-06T07:13:41.000Z</time>
      </trkpt>
      <trkpt lat="41.844305" lon="22.988812">
        <ele>1187.7</ele>
        <time>2026-05-06T07:13:42.000Z</time>
      </trkpt>
      <trkpt lat="41.844305" lon="22.988812">
        <ele>1187.6</ele>
        <time>2026-05-06T07:13:43.000Z</time>
      </trkpt>
      <trkpt lat="41.844305" lon="22.988812">
        <ele>1187.6</ele>
        <time>2026-05-06T07:13:44.000Z</time>
      </trkpt>
      <trkpt lat="41.844305" lon="22.988812">
        <ele>1187.6</ele>
        <time>2026-05-06T07:13:45.000Z</time>
      </trkpt>
      <trkpt lat="41.844305" lon="22.988812">
        <ele>1187.6</ele>
        <time>2026-05-06T07:13:46.000Z</time>
      </trkpt>
      <trkpt lat="41.844305" lon="22.988812">
        <ele>1187.6</ele>
        <time>2026-05-06T07:13:47.000Z</time>
      </trkpt>
      <trkpt lat="41.844305" lon="22.988812">
        <ele>1187.6</ele>
        <time>2026-05-06T07:13:48.000Z</time>
      </trkpt>
      <trkpt lat="41.844305" lon="22.988812">
        <ele>1187.6</ele>
        <time>2026-05-06T07:13:49.000Z</time>
      </trkpt>
      <trkpt lat="41.844305" lon="22.988811">
        <ele>1187.6</ele>
        <time>2026-05-06T07:13:50.000Z</time>
      </trkpt>
      <trkpt lat="41.844305" lon="22.988811">
        <ele>1187.6</ele>
        <time>2026-05-06T07:13:51.000Z</time>
      </trkpt>
      <trkpt lat="41.844305" lon="22.98881">
        <ele>1187.6</ele>
        <time>2026-05-06T07:13:52.000Z</time>
      </trkpt>
      <trkpt lat="41.844305" lon="22.98881">
        <ele>1187.6</ele>
        <time>2026-05-06T07:13:53.000Z</time>
      </trkpt>
      <trkpt lat="41.844305" lon="22.98881">
        <ele>1187.6</ele>
        <time>2026-05-06T07:13:54.000Z</time>
      </trkpt>
      <trkpt lat="41.844305" lon="22.98881">
        <ele>1187.6</ele>
        <time>2026-05-06T07:13:55.000Z</time>
      </trkpt>
      <trkpt lat="41.844305" lon="22.988808">
        <ele>1187.6</ele>
        <time>2026-05-06T07:13:56.000Z</time>
      </trkpt>
      <trkpt lat="41.844306" lon="22.988803">
        <ele>1187.6</ele>
        <time>2026-05-06T07:13:57.000Z</time>
      </trkpt>
      <trkpt lat="41.844309" lon="22.988796">
        <ele>1187.7</ele>
        <time>2026-05-06T07:13:58.000Z</time>
      </trkpt>
      <trkpt lat="41.844315" lon="22.988788">
        <ele>1187.7</ele>
        <time>2026-05-06T07:13:59.000Z</time>
      </trkpt>
      <trkpt lat="41.844322" lon="22.988777">
        <ele>1187.7</ele>
        <time>2026-05-06T07:14:00.000Z</time>
      </trkpt>
      <trkpt lat="41.844329" lon="22.988767">
        <ele>1187.7</ele>
        <time>2026-05-06T07:14:01.000Z</time>
      </trkpt>
      <trkpt lat="41.844335" lon="22.98876">
        <ele>1187.7</ele>
        <time>2026-05-06T07:14:02.000Z</time>
      </trkpt>
      <trkpt lat="41.84434" lon="22.988757">
        <ele>1187.7</ele>
        <time>2026-05-06T07:14:03.000Z</time>
      </trkpt>
      <trkpt lat="41.844342" lon="22.988755">
        <ele>1187.7</ele>
        <time>2026-05-06T07:14:04.000Z</time>
      </trkpt>
      <trkpt lat="41.844342" lon="22.988754">
        <ele>1187.7</ele>
        <time>2026-05-06T07:14:05.000Z</time>
      </trkpt>
      <trkpt lat="41.844342" lon="22.988753">
        <ele>1187.7</ele>
        <time>2026-05-06T07:14:06.000Z</time>
      </trkpt>
      <trkpt lat="41.844341" lon="22.98875">
        <ele>1187.7</ele>
        <time>2026-05-06T07:14:07.000Z</time>
      </trkpt>
      <trkpt lat="41.84434" lon="22.988744">
        <ele>1187.4</ele>
        <time>2026-05-06T07:14:08.000Z</time>
      </trkpt>
      <trkpt lat="41.844338" lon="22.988737">
        <ele>1187.4</ele>
        <time>2026-05-06T07:14:09.000Z</time>
      </trkpt>
      <trkpt lat="41.844338" lon="22.988729">
        <ele>1187.4</ele>
        <time>2026-05-06T07:14:10.000Z</time>
      </trkpt>
      <trkpt lat="41.844338" lon="22.988722">
        <ele>1187.4</ele>
        <time>2026-05-06T07:14:11.000Z</time>
      </trkpt>
      <trkpt lat="41.844338" lon="22.988717">
        <ele>1187.4</ele>
        <time>2026-05-06T07:14:12.000Z</time>
      </trkpt>
      <trkpt lat="41.844338" lon="22.988715">
        <ele>1186.9</ele>
        <time>2026-05-06T07:14:13.000Z</time>
      </trkpt>
      <trkpt lat="41.844338" lon="22.988714">
        <ele>1186.9</ele>
        <time>2026-05-06T07:14:14.000Z</time>
      </trkpt>
      <trkpt lat="41.844338" lon="22.988715">
        <ele>1186.9</ele>
        <time>2026-05-06T07:14:15.000Z</time>
      </trkpt>
      <trkpt lat="41.844338" lon="22.988716">
        <ele>1186.9</ele>
        <time>2026-05-06T07:14:16.000Z</time>
      </trkpt>
      <trkpt lat="41.844339" lon="22.988716">
        <ele>1186.9</ele>
        <time>2026-05-06T07:14:17.000Z</time>
      </trkpt>
      <trkpt lat="41.844343" lon="22.988716">
        <ele>1186.5</ele>
        <time>2026-05-06T07:14:18.000Z</time>
      </trkpt>
      <trkpt lat="41.84435" lon="22.988718">
        <ele>1186.5</ele>
        <time>2026-05-06T07:14:19.000Z</time>
      </trkpt>
      <trkpt lat="41.844359" lon="22.988721">
        <ele>1186.5</ele>
        <time>2026-05-06T07:14:20.000Z</time>
      </trkpt>
      <trkpt lat="41.844369" lon="22.988725">
        <ele>1186.5</ele>
        <time>2026-05-06T07:14:21.000Z</time>
      </trkpt>
      <trkpt lat="41.84438" lon="22.98873">
        <ele>1186.5</ele>
        <time>2026-05-06T07:14:22.000Z</time>
      </trkpt>
      <trkpt lat="41.844389" lon="22.988733">
        <ele>1185.8</ele>
        <time>2026-05-06T07:14:23.000Z</time>
      </trkpt>
      <trkpt lat="41.844398" lon="22.988734">
        <ele>1185.8</ele>
        <time>2026-05-06T07:14:24.000Z</time>
      </trkpt>
      <trkpt lat="41.844406" lon="22.988733">
        <ele>1185.8</ele>
        <time>2026-05-06T07:14:25.000Z</time>
      </trkpt>
      <trkpt lat="41.844414" lon="22.988732">
        <ele>1185.8</ele>
        <time>2026-05-06T07:14:26.000Z</time>
      </trkpt>
      <trkpt lat="41.844421" lon="22.98873">
        <ele>1185.8</ele>
        <time>2026-05-06T07:14:27.000Z</time>
      </trkpt>
      <trkpt lat="41.844429" lon="22.988727">
        <ele>1185.1</ele>
        <time>2026-05-06T07:14:28.000Z</time>
      </trkpt>
      <trkpt lat="41.844437" lon="22.988725">
        <ele>1185.1</ele>
        <time>2026-05-06T07:14:29.000Z</time>
      </trkpt>
      <trkpt lat="41.844446" lon="22.988723">
        <ele>1185.1</ele>
        <time>2026-05-06T07:14:30.000Z</time>
      </trkpt>
      <trkpt lat="41.844455" lon="22.988721">
        <ele>1185.1</ele>
        <time>2026-05-06T07:14:31.000Z</time>
      </trkpt>
      <trkpt lat="41.844465" lon="22.98872">
        <ele>1185.1</ele>
        <time>2026-05-06T07:14:32.000Z</time>
      </trkpt>
      <trkpt lat="41.844475" lon="22.98872">
        <ele>1184.7</ele>
        <time>2026-05-06T07:14:33.000Z</time>
      </trkpt>
      <trkpt lat="41.844483" lon="22.98872">
        <ele>1184.7</ele>
        <time>2026-05-06T07:14:34.000Z</time>
      </trkpt>
      <trkpt lat="41.844491" lon="22.988719">
        <ele>1184.7</ele>
        <time>2026-05-06T07:14:35.000Z</time>
      </trkpt>
      <trkpt lat="41.844497" lon="22.988719">
        <ele>1184.7</ele>
        <time>2026-05-06T07:14:36.000Z</time>
      </trkpt>
      <trkpt lat="41.844504" lon="22.988718">
        <ele>1184.7</ele>
        <time>2026-05-06T07:14:37.000Z</time>
      </trkpt>
      <trkpt lat="41.844513" lon="22.988716">
        <ele>1183.4</ele>
        <time>2026-05-06T07:14:38.000Z</time>
      </trkpt>
      <trkpt lat="41.844523" lon="22.988715">
        <ele>1183.4</ele>
        <time>2026-05-06T07:14:39.000Z</time>
      </trkpt>
      <trkpt lat="41.844535" lon="22.988714">
        <ele>1183.4</ele>
        <time>2026-05-06T07:14:40.000Z</time>
      </trkpt>
      <trkpt lat="41.844547" lon="22.988714">
        <ele>1183.4</ele>
        <time>2026-05-06T07:14:41.000Z</time>
      </trkpt>
      <trkpt lat="41.84456" lon="22.988715">
        <ele>1183.4</ele>
        <time>2026-05-06T07:14:42.000Z</time>
      </trkpt>
      <trkpt lat="41.844573" lon="22.988716">
        <ele>1181.5</ele>
        <time>2026-05-06T07:14:43.000Z</time>
      </trkpt>
      <trkpt lat="41.844585" lon="22.988719">
        <ele>1181.5</ele>
        <time>2026-05-06T07:14:44.000Z</time>
      </trkpt>
      <trkpt lat="41.844598" lon="22.988722">
        <ele>1181.5</ele>
        <time>2026-05-06T07:14:45.000Z</time>
      </trkpt>
      <trkpt lat="41.844611" lon="22.988727">
        <ele>1181.5</ele>
        <time>2026-05-06T07:14:46.000Z</time>
      </trkpt>
      <trkpt lat="41.844621" lon="22.988731">
        <ele>1181.5</ele>
        <time>2026-05-06T07:14:47.000Z</time>
      </trkpt>
      <trkpt lat="41.844632" lon="22.988734">
        <ele>1180.5</ele>
        <time>2026-05-06T07:14:48.000Z</time>
      </trkpt>
      <trkpt lat="41.844641" lon="22.988735">
        <ele>1180.5</ele>
        <time>2026-05-06T07:14:49.000Z</time>
      </trkpt>
      <trkpt lat="41.844649" lon="22.988735">
        <ele>1180.5</ele>
        <time>2026-05-06T07:14:50.000Z</time>
      </trkpt>
      <trkpt lat="41.844658" lon="22.988733">
        <ele>1180.5</ele>
        <time>2026-05-06T07:14:51.000Z</time>
      </trkpt>
      <trkpt lat="41.844666" lon="22.988731">
        <ele>1180.5</ele>
        <time>2026-05-06T07:14:52.000Z</time>
      </trkpt>
      <trkpt lat="41.844673" lon="22.988729">
        <ele>1178.6</ele>
        <time>2026-05-06T07:14:53.000Z</time>
      </trkpt>
      <trkpt lat="41.84468" lon="22.988724">
        <ele>1178.6</ele>
        <time>2026-05-06T07:14:54.000Z</time>
      </trkpt>
      <trkpt lat="41.844688" lon="22.988718">
        <ele>1178.6</ele>
        <time>2026-05-06T07:14:55.000Z</time>
      </trkpt>
      <trkpt lat="41.844696" lon="22.98871">
        <ele>1178.6</ele>
        <time>2026-05-06T07:14:56.000Z</time>
      </trkpt>
      <trkpt lat="41.844706" lon="22.988702">
        <ele>1178.6</ele>
        <time>2026-05-06T07:14:57.000Z</time>
      </trkpt>
      <trkpt lat="41.844717" lon="22.988694">
        <ele>1176.8</ele>
        <time>2026-05-06T07:14:58.000Z</time>
      </trkpt>
      <trkpt lat="41.844728" lon="22.988685">
        <ele>1176.8</ele>
        <time>2026-05-06T07:14:59.000Z</time>
      </trkpt>
      <trkpt lat="41.844736" lon="22.988675">
        <ele>1176.8</ele>
        <time>2026-05-06T07:15:00.000Z</time>
      </trkpt>
      <trkpt lat="41.844743" lon="22.988663">
        <ele>1176.8</ele>
        <time>2026-05-06T07:15:01.000Z</time>
      </trkpt>
      <trkpt lat="41.844747" lon="22.98865">
        <ele>1176.8</ele>
        <time>2026-05-06T07:15:02.000Z</time>
      </trkpt>
      <trkpt lat="41.844749" lon="22.988635">
        <ele>1176</ele>
        <time>2026-05-06T07:15:03.000Z</time>
      </trkpt>
      <trkpt lat="41.84475" lon="22.988619">
        <ele>1176</ele>
        <time>2026-05-06T07:15:04.000Z</time>
      </trkpt>
      <trkpt lat="41.84475" lon="22.988603">
        <ele>1176</ele>
        <time>2026-05-06T07:15:05.000Z</time>
      </trkpt>
      <trkpt lat="41.844749" lon="22.988586">
        <ele>1176</ele>
        <time>2026-05-06T07:15:06.000Z</time>
      </trkpt>
      <trkpt lat="41.844749" lon="22.988568">
        <ele>1176</ele>
        <time>2026-05-06T07:15:07.000Z</time>
      </trkpt>
      <trkpt lat="41.844747" lon="22.98855">
        <ele>1174.6</ele>
        <time>2026-05-06T07:15:08.000Z</time>
      </trkpt>
      <trkpt lat="41.844746" lon="22.988531">
        <ele>1174.6</ele>
        <time>2026-05-06T07:15:09.000Z</time>
      </trkpt>
      <trkpt lat="41.844746" lon="22.988513">
        <ele>1174.6</ele>
        <time>2026-05-06T07:15:10.000Z</time>
      </trkpt>
      <trkpt lat="41.844746" lon="22.988497">
        <ele>1174.6</ele>
        <time>2026-05-06T07:15:11.000Z</time>
      </trkpt>
      <trkpt lat="41.844747" lon="22.988481">
        <ele>1174.6</ele>
        <time>2026-05-06T07:15:12.000Z</time>
      </trkpt>
      <trkpt lat="41.84475" lon="22.988466">
        <ele>1173.6</ele>
        <time>2026-05-06T07:15:13.000Z</time>
      </trkpt>
      <trkpt lat="41.844753" lon="22.988451">
        <ele>1173.6</ele>
        <time>2026-05-06T07:15:14.000Z</time>
      </trkpt>
      <trkpt lat="41.844755" lon="22.988436">
        <ele>1173.6</ele>
        <time>2026-05-06T07:15:15.000Z</time>
      </trkpt>
      <trkpt lat="41.844756" lon="22.988422">
        <ele>1173.6</ele>
        <time>2026-05-06T07:15:16.000Z</time>
      </trkpt>
      <trkpt lat="41.844755" lon="22.988409">
        <ele>1173.6</ele>
        <time>2026-05-06T07:15:17.000Z</time>
      </trkpt>
      <trkpt lat="41.844753" lon="22.9884">
        <ele>1173.4</ele>
        <time>2026-05-06T07:15:18.000Z</time>
      </trkpt>
      <trkpt lat="41.844752" lon="22.988394">
        <ele>1173.4</ele>
        <time>2026-05-06T07:15:19.000Z</time>
      </trkpt>
      <trkpt lat="41.844751" lon="22.988392">
        <ele>1173.4</ele>
        <time>2026-05-06T07:15:20.000Z</time>
      </trkpt>
      <trkpt lat="41.84475" lon="22.988392">
        <ele>1173.4</ele>
        <time>2026-05-06T07:15:21.000Z</time>
      </trkpt>
      <trkpt lat="41.844748" lon="22.988394">
        <ele>1173.4</ele>
        <time>2026-05-06T07:15:22.000Z</time>
      </trkpt>
      <trkpt lat="41.844746" lon="22.988395">
        <ele>1173.3</ele>
        <time>2026-05-06T07:15:23.000Z</time>
      </trkpt>
      <trkpt lat="41.844744" lon="22.988396">
        <ele>1173.3</ele>
        <time>2026-05-06T07:15:24.000Z</time>
      </trkpt>
      <trkpt lat="41.844742" lon="22.988398">
        <ele>1173.3</ele>
        <time>2026-05-06T07:15:25.000Z</time>
      </trkpt>
      <trkpt lat="41.84474" lon="22.988398">
        <ele>1173.3</ele>
        <time>2026-05-06T07:15:26.000Z</time>
      </trkpt>
      <trkpt lat="41.844739" lon="22.988397">
        <ele>1173.3</ele>
        <time>2026-05-06T07:15:27.000Z</time>
      </trkpt>
      <trkpt lat="41.844737" lon="22.988396">
        <ele>1173.4</ele>
        <time>2026-05-06T07:15:28.000Z</time>
      </trkpt>
      <trkpt lat="41.844734" lon="22.988395">
        <ele>1173.4</ele>
        <time>2026-05-06T07:15:29.000Z</time>
      </trkpt>
      <trkpt lat="41.844732" lon="22.988394">
        <ele>1173.4</ele>
        <time>2026-05-06T07:15:30.000Z</time>
      </trkpt>
      <trkpt lat="41.84473" lon="22.988392">
        <ele>1173.4</ele>
        <time>2026-05-06T07:15:31.000Z</time>
      </trkpt>
      <trkpt lat="41.844729" lon="22.98839">
        <ele>1173.4</ele>
        <time>2026-05-06T07:15:32.000Z</time>
      </trkpt>
      <trkpt lat="41.844729" lon="22.988388">
        <ele>1173.5</ele>
        <time>2026-05-06T07:15:33.000Z</time>
      </trkpt>
      <trkpt lat="41.84473" lon="22.988383">
        <ele>1173.5</ele>
        <time>2026-05-06T07:15:34.000Z</time>
      </trkpt>
      <trkpt lat="41.844732" lon="22.988378">
        <ele>1173.5</ele>
        <time>2026-05-06T07:15:35.000Z</time>
      </trkpt>
      <trkpt lat="41.844737" lon="22.988374">
        <ele>1173.5</ele>
        <time>2026-05-06T07:15:36.000Z</time>
      </trkpt>
      <trkpt lat="41.844742" lon="22.988368">
        <ele>1173.5</ele>
        <time>2026-05-06T07:15:37.000Z</time>
      </trkpt>
      <trkpt lat="41.844747" lon="22.988362">
        <ele>1173.5</ele>
        <time>2026-05-06T07:15:38.000Z</time>
      </trkpt>
      <trkpt lat="41.844752" lon="22.988353">
        <ele>1173.5</ele>
        <time>2026-05-06T07:15:39.000Z</time>
      </trkpt>
      <trkpt lat="41.844755" lon="22.988343">
        <ele>1173.5</ele>
        <time>2026-05-06T07:15:40.000Z</time>
      </trkpt>
      <trkpt lat="41.844757" lon="22.98833">
        <ele>1173.5</ele>
        <time>2026-05-06T07:15:41.000Z</time>
      </trkpt>
      <trkpt lat="41.844757" lon="22.988317">
        <ele>1173.5</ele>
        <time>2026-05-06T07:15:42.000Z</time>
      </trkpt>
      <trkpt lat="41.844757" lon="22.988304">
        <ele>1173.3</ele>
        <time>2026-05-06T07:15:43.000Z</time>
      </trkpt>
      <trkpt lat="41.844756" lon="22.988293">
        <ele>1173.3</ele>
        <time>2026-05-06T07:15:44.000Z</time>
      </trkpt>
      <trkpt lat="41.844755" lon="22.988284">
        <ele>1173.3</ele>
        <time>2026-05-06T07:15:45.000Z</time>
      </trkpt>
      <trkpt lat="41.844755" lon="22.988278">
        <ele>1173.3</ele>
        <time>2026-05-06T07:15:46.000Z</time>
      </trkpt>
      <trkpt lat="41.844755" lon="22.988273">
        <ele>1173.3</ele>
        <time>2026-05-06T07:15:47.000Z</time>
      </trkpt>
      <trkpt lat="41.844756" lon="22.988271">
        <ele>1173.1</ele>
        <time>2026-05-06T07:15:48.000Z</time>
      </trkpt>
      <trkpt lat="41.844756" lon="22.98827">
        <ele>1173.1</ele>
        <time>2026-05-06T07:15:49.000Z</time>
      </trkpt>
      <trkpt lat="41.844757" lon="22.988269">
        <ele>1173.1</ele>
        <time>2026-05-06T07:15:50.000Z</time>
      </trkpt>
      <trkpt lat="41.844758" lon="22.988268">
        <ele>1173.1</ele>
        <time>2026-05-06T07:15:51.000Z</time>
      </trkpt>
      <trkpt lat="41.84476" lon="22.988265">
        <ele>1173.1</ele>
        <time>2026-05-06T07:15:52.000Z</time>
      </trkpt>
      <trkpt lat="41.844763" lon="22.98826">
        <ele>1172.6</ele>
        <time>2026-05-06T07:15:53.000Z</time>
      </trkpt>
      <trkpt lat="41.844766" lon="22.988252">
        <ele>1172.6</ele>
        <time>2026-05-06T07:15:54.000Z</time>
      </trkpt>
      <trkpt lat="41.844769" lon="22.988243">
        <ele>1172.6</ele>
        <time>2026-05-06T07:15:55.000Z</time>
      </trkpt>
      <trkpt lat="41.844774" lon="22.98823">
        <ele>1172.6</ele>
        <time>2026-05-06T07:15:56.000Z</time>
      </trkpt>
      <trkpt lat="41.844778" lon="22.988216">
        <ele>1172.6</ele>
        <time>2026-05-06T07:15:57.000Z</time>
      </trkpt>
      <trkpt lat="41.844784" lon="22.988201">
        <ele>1172.1</ele>
        <time>2026-05-06T07:15:58.000Z</time>
      </trkpt>
      <trkpt lat="41.844789" lon="22.988187">
        <ele>1172.1</ele>
        <time>2026-05-06T07:15:59.000Z</time>
      </trkpt>
      <trkpt lat="41.844794" lon="22.988175">
        <ele>1172.1</ele>
        <time>2026-05-06T07:16:00.000Z</time>
      </trkpt>
      <trkpt lat="41.844797" lon="22.988167">
        <ele>1172.1</ele>
        <time>2026-05-06T07:16:01.000Z</time>
      </trkpt>
      <trkpt lat="41.844799" lon="22.988163">
        <ele>1172.1</ele>
        <time>2026-05-06T07:16:02.000Z</time>
      </trkpt>
      <trkpt lat="41.8448" lon="22.988161">
        <ele>1171.9</ele>
        <time>2026-05-06T07:16:03.000Z</time>
      </trkpt>
      <trkpt lat="41.844799" lon="22.988161">
        <ele>1171.9</ele>
        <time>2026-05-06T07:16:04.000Z</time>
      </trkpt>
      <trkpt lat="41.844799" lon="22.98816">
        <ele>1171.9</ele>
        <time>2026-05-06T07:16:05.000Z</time>
      </trkpt>
      <trkpt lat="41.844799" lon="22.98816">
        <ele>1171.9</ele>
        <time>2026-05-06T07:16:06.000Z</time>
      </trkpt>
      <trkpt lat="41.844798" lon="22.98816">
        <ele>1171.9</ele>
        <time>2026-05-06T07:16:07.000Z</time>
      </trkpt>
      <trkpt lat="41.844798" lon="22.98816">
        <ele>1171.5</ele>
        <time>2026-05-06T07:16:08.000Z</time>
      </trkpt>
      <trkpt lat="41.844798" lon="22.988159">
        <ele>1171.5</ele>
        <time>2026-05-06T07:16:09.000Z</time>
      </trkpt>
      <trkpt lat="41.844798" lon="22.988159">
        <ele>1171.5</ele>
        <time>2026-05-06T07:16:10.000Z</time>
      </trkpt>
      <trkpt lat="41.844798" lon="22.988159">
        <ele>1171.5</ele>
        <time>2026-05-06T07:16:11.000Z</time>
      </trkpt>
      <trkpt lat="41.844798" lon="22.988159">
        <ele>1171.5</ele>
        <time>2026-05-06T07:16:12.000Z</time>
      </trkpt>
      <trkpt lat="41.844798" lon="22.988159">
        <ele>1171</ele>
        <time>2026-05-06T07:16:13.000Z</time>
      </trkpt>
      <trkpt lat="41.844798" lon="22.988159">
        <ele>1171</ele>
        <time>2026-05-06T07:16:14.000Z</time>
      </trkpt>
      <trkpt lat="41.844798" lon="22.988159">
        <ele>1171</ele>
        <time>2026-05-06T07:16:15.000Z</time>
      </trkpt>
      <trkpt lat="41.844798" lon="22.988159">
        <ele>1171</ele>
        <time>2026-05-06T07:16:16.000Z</time>
      </trkpt>
      <trkpt lat="41.844798" lon="22.988159">
        <ele>1171</ele>
        <time>2026-05-06T07:16:17.000Z</time>
      </trkpt>
      <trkpt lat="41.844798" lon="22.988159">
        <ele>1170.8</ele>
        <time>2026-05-06T07:16:18.000Z</time>
      </trkpt>
      <trkpt lat="41.844798" lon="22.988159">
        <ele>1170.8</ele>
        <time>2026-05-06T07:16:19.000Z</time>
      </trkpt>
      <trkpt lat="41.844798" lon="22.988159">
        <ele>1170.8</ele>
        <time>2026-05-06T07:16:20.000Z</time>
      </trkpt>
      <trkpt lat="41.844798" lon="22.988159">
        <ele>1170.8</ele>
        <time>2026-05-06T07:16:21.000Z</time>
      </trkpt>
      <trkpt lat="41.844798" lon="22.988159">
        <ele>1170.8</ele>
        <time>2026-05-06T07:16:22.000Z</time>
      </trkpt>
      <trkpt lat="41.844798" lon="22.988159">
        <ele>1170.6</ele>
        <time>2026-05-06T07:16:23.000Z</time>
      </trkpt>
      <trkpt lat="41.844798" lon="22.988159">
        <ele>1170.6</ele>
        <time>2026-05-06T07:16:24.000Z</time>
      </trkpt>
      <trkpt lat="41.844798" lon="22.988159">
        <ele>1170.6</ele>
        <time>2026-05-06T07:16:25.000Z</time>
      </trkpt>
      <trkpt lat="41.844798" lon="22.988159">
        <ele>1170.6</ele>
        <time>2026-05-06T07:16:26.000Z</time>
      </trkpt>
      <trkpt lat="41.844798" lon="22.988159">
        <ele>1170.6</ele>
        <time>2026-05-06T07:16:27.000Z</time>
      </trkpt>
      <trkpt lat="41.844799" lon="22.988157">
        <ele>1170.4</ele>
        <time>2026-05-06T07:16:28.000Z</time>
      </trkpt>
      <trkpt lat="41.844802" lon="22.988155">
        <ele>1170.4</ele>
        <time>2026-05-06T07:16:29.000Z</time>
      </trkpt>
      <trkpt lat="41.844809" lon="22.98815">
        <ele>1170.4</ele>
        <time>2026-05-06T07:16:30.000Z</time>
      </trkpt>
      <trkpt lat="41.844817" lon="22.988146">
        <ele>1170.4</ele>
        <time>2026-05-06T07:16:31.000Z</time>
      </trkpt>
      <trkpt lat="41.844829" lon="22.988141">
        <ele>1170.4</ele>
        <time>2026-05-06T07:16:32.000Z</time>
      </trkpt>
      <trkpt lat="41.844842" lon="22.988135">
        <ele>1170.3</ele>
        <time>2026-05-06T07:16:33.000Z</time>
      </trkpt>
      <trkpt lat="41.844853" lon="22.988128">
        <ele>1170.3</ele>
        <time>2026-05-06T07:16:34.000Z</time>
      </trkpt>
      <trkpt lat="41.844863" lon="22.988117">
        <ele>1170.3</ele>
        <time>2026-05-06T07:16:35.000Z</time>
      </trkpt>
      <trkpt lat="41.844871" lon="22.988104">
        <ele>1170.3</ele>
        <time>2026-05-06T07:16:36.000Z</time>
      </trkpt>
      <trkpt lat="41.844876" lon="22.988087">
        <ele>1170.3</ele>
        <time>2026-05-06T07:16:37.000Z</time>
      </trkpt>
      <trkpt lat="41.84488" lon="22.988069">
        <ele>1170</ele>
        <time>2026-05-06T07:16:38.000Z</time>
      </trkpt>
      <trkpt lat="41.84488" lon="22.988049">
        <ele>1170</ele>
        <time>2026-05-06T07:16:39.000Z</time>
      </trkpt>
      <trkpt lat="41.844878" lon="22.98803">
        <ele>1170</ele>
        <time>2026-05-06T07:16:40.000Z</time>
      </trkpt>
      <trkpt lat="41.844874" lon="22.98801">
        <ele>1170</ele>
        <time>2026-05-06T07:16:41.000Z</time>
      </trkpt>
      <trkpt lat="41.844867" lon="22.987992">
        <ele>1170</ele>
        <time>2026-05-06T07:16:42.000Z</time>
      </trkpt>
      <trkpt lat="41.844857" lon="22.987978">
        <ele>1168.9</ele>
        <time>2026-05-06T07:16:43.000Z</time>
      </trkpt>
      <trkpt lat="41.844848" lon="22.987967">
        <ele>1168.9</ele>
        <time>2026-05-06T07:16:44.000Z</time>
      </trkpt>
      <trkpt lat="41.844839" lon="22.987958">
        <ele>1168.9</ele>
        <time>2026-05-06T07:16:45.000Z</time>
      </trkpt>
      <trkpt lat="41.844829" lon="22.987951">
        <ele>1168.9</ele>
        <time>2026-05-06T07:16:46.000Z</time>
      </trkpt>
      <trkpt lat="41.844821" lon="22.987945">
        <ele>1168.9</ele>
        <time>2026-05-06T07:16:47.000Z</time>
      </trkpt>
      <trkpt lat="41.844815" lon="22.987937">
        <ele>1168</ele>
        <time>2026-05-06T07:16:48.000Z</time>
      </trkpt>
      <trkpt lat="41.844809" lon="22.987928">
        <ele>1168</ele>
        <time>2026-05-06T07:16:49.000Z</time>
      </trkpt>
      <trkpt lat="41.844806" lon="22.987917">
        <ele>1168</ele>
        <time>2026-05-06T07:16:50.000Z</time>
      </trkpt>
      <trkpt lat="41.844805" lon="22.987904">
        <ele>1168</ele>
        <time>2026-05-06T07:16:51.000Z</time>
      </trkpt>
      <trkpt lat="41.844806" lon="22.987887">
        <ele>1168</ele>
        <time>2026-05-06T07:16:52.000Z</time>
      </trkpt>
      <trkpt lat="41.844806" lon="22.98787">
        <ele>1166.7</ele>
        <time>2026-05-06T07:16:53.000Z</time>
      </trkpt>
      <trkpt lat="41.844807" lon="22.987852">
        <ele>1166.7</ele>
        <time>2026-05-06T07:16:54.000Z</time>
      </trkpt>
      <trkpt lat="41.844809" lon="22.987835">
        <ele>1166.7</ele>
        <time>2026-05-06T07:16:55.000Z</time>
      </trkpt>
      <trkpt lat="41.844812" lon="22.98782">
        <ele>1166.7</ele>
        <time>2026-05-06T07:16:56.000Z</time>
      </trkpt>
      <trkpt lat="41.844817" lon="22.987806">
        <ele>1166.7</ele>
        <time>2026-05-06T07:16:57.000Z</time>
      </trkpt>
      <trkpt lat="41.844824" lon="22.987794">
        <ele>1166.7</ele>
        <time>2026-05-06T07:16:58.000Z</time>
      </trkpt>
      <trkpt lat="41.844831" lon="22.987783">
        <ele>1166.7</ele>
        <time>2026-05-06T07:16:59.000Z</time>
      </trkpt>
      <trkpt lat="41.844839" lon="22.987771">
        <ele>1166.7</ele>
        <time>2026-05-06T07:17:00.000Z</time>
      </trkpt>
      <trkpt lat="41.844846" lon="22.987759">
        <ele>1166.7</ele>
        <time>2026-05-06T07:17:01.000Z</time>
      </trkpt>
      <trkpt lat="41.844853" lon="22.987749">
        <ele>1166.7</ele>
        <time>2026-05-06T07:17:02.000Z</time>
      </trkpt>
      <trkpt lat="41.844861" lon="22.987739">
        <ele>1167</ele>
        <time>2026-05-06T07:17:03.000Z</time>
      </trkpt>
      <trkpt lat="41.844869" lon="22.987729">
        <ele>1167</ele>
        <time>2026-05-06T07:17:04.000Z</time>
      </trkpt>
      <trkpt lat="41.844878" lon="22.987722">
        <ele>1167</ele>
        <time>2026-05-06T07:17:05.000Z</time>
      </trkpt>
      <trkpt lat="41.844887" lon="22.987716">
        <ele>1167</ele>
        <time>2026-05-06T07:17:06.000Z</time>
      </trkpt>
      <trkpt lat="41.844895" lon="22.987711">
        <ele>1167</ele>
        <time>2026-05-06T07:17:07.000Z</time>
      </trkpt>
      <trkpt lat="41.844903" lon="22.987705">
        <ele>1167.1</ele>
        <time>2026-05-06T07:17:08.000Z</time>
      </trkpt>
      <trkpt lat="41.844911" lon="22.987699">
        <ele>1167.1</ele>
        <time>2026-05-06T07:17:09.000Z</time>
      </trkpt>
      <trkpt lat="41.844919" lon="22.987691">
        <ele>1167.1</ele>
        <time>2026-05-06T07:17:10.000Z</time>
      </trkpt>
      <trkpt lat="41.844925" lon="22.987682">
        <ele>1167.1</ele>
        <time>2026-05-06T07:17:11.000Z</time>
      </trkpt>
      <trkpt lat="41.844933" lon="22.987671">
        <ele>1167.1</ele>
        <time>2026-05-06T07:17:12.000Z</time>
      </trkpt>
      <trkpt lat="41.844939" lon="22.98766">
        <ele>1165.8</ele>
        <time>2026-05-06T07:17:13.000Z</time>
      </trkpt>
      <trkpt lat="41.844946" lon="22.987647">
        <ele>1165.8</ele>
        <time>2026-05-06T07:17:14.000Z</time>
      </trkpt>
      <trkpt lat="41.844952" lon="22.987634">
        <ele>1165.8</ele>
        <time>2026-05-06T07:17:15.000Z</time>
      </trkpt>
      <trkpt lat="41.844956" lon="22.987622">
        <ele>1165.8</ele>
        <time>2026-05-06T07:17:16.000Z</time>
      </trkpt>
      <trkpt lat="41.844959" lon="22.987609">
        <ele>1165.8</ele>
        <time>2026-05-06T07:17:17.000Z</time>
      </trkpt>
      <trkpt lat="41.844962" lon="22.987597">
        <ele>1164.7</ele>
        <time>2026-05-06T07:17:18.000Z</time>
      </trkpt>
      <trkpt lat="41.844965" lon="22.987587">
        <ele>1164.7</ele>
        <time>2026-05-06T07:17:19.000Z</time>
      </trkpt>
      <trkpt lat="41.84497" lon="22.98758">
        <ele>1164.7</ele>
        <time>2026-05-06T07:17:20.000Z</time>
      </trkpt>
      <trkpt lat="41.844977" lon="22.987575">
        <ele>1164.7</ele>
        <time>2026-05-06T07:17:21.000Z</time>
      </trkpt>
      <trkpt lat="41.844985" lon="22.987574">
        <ele>1164.7</ele>
        <time>2026-05-06T07:17:22.000Z</time>
      </trkpt>
      <trkpt lat="41.844994" lon="22.987574">
        <ele>1162.4</ele>
        <time>2026-05-06T07:17:23.000Z</time>
      </trkpt>
      <trkpt lat="41.845003" lon="22.987577">
        <ele>1162.4</ele>
        <time>2026-05-06T07:17:24.000Z</time>
      </trkpt>
      <trkpt lat="41.845013" lon="22.987581">
        <ele>1162.4</ele>
        <time>2026-05-06T07:17:25.000Z</time>
      </trkpt>
      <trkpt lat="41.845021" lon="22.987588">
        <ele>1162.4</ele>
        <time>2026-05-06T07:17:26.000Z</time>
      </trkpt>
      <trkpt lat="41.845029" lon="22.987597">
        <ele>1162.4</ele>
        <time>2026-05-06T07:17:27.000Z</time>
      </trkpt>
      <trkpt lat="41.845037" lon="22.987607">
        <ele>1160.5</ele>
        <time>2026-05-06T07:17:28.000Z</time>
      </trkpt>
      <trkpt lat="41.845045" lon="22.987618">
        <ele>1160.5</ele>
        <time>2026-05-06T07:17:29.000Z</time>
      </trkpt>
      <trkpt lat="41.845052" lon="22.98763">
        <ele>1160.5</ele>
        <time>2026-05-06T07:17:30.000Z</time>
      </trkpt>
      <trkpt lat="41.84506" lon="22.987639">
        <ele>1160.5</ele>
        <time>2026-05-06T07:17:31.000Z</time>
      </trkpt>
      <trkpt lat="41.845068" lon="22.987645">
        <ele>1160.5</ele>
        <time>2026-05-06T07:17:32.000Z</time>
      </trkpt>
      <trkpt lat="41.845075" lon="22.98765">
        <ele>1159.6</ele>
        <time>2026-05-06T07:17:33.000Z</time>
      </trkpt>
      <trkpt lat="41.845081" lon="22.987654">
        <ele>1159.6</ele>
        <time>2026-05-06T07:17:34.000Z</time>
      </trkpt>
      <trkpt lat="41.845086" lon="22.987655">
        <ele>1159.6</ele>
        <time>2026-05-06T07:17:35.000Z</time>
      </trkpt>
      <trkpt lat="41.84509" lon="22.987657">
        <ele>1159.6</ele>
        <time>2026-05-06T07:17:36.000Z</time>
      </trkpt>
      <trkpt lat="41.845097" lon="22.987657">
        <ele>1159.6</ele>
        <time>2026-05-06T07:17:37.000Z</time>
      </trkpt>
      <trkpt lat="41.845104" lon="22.987655">
        <ele>1157.8</ele>
        <time>2026-05-06T07:17:38.000Z</time>
      </trkpt>
      <trkpt lat="41.845113" lon="22.987651">
        <ele>1157.8</ele>
        <time>2026-05-06T07:17:39.000Z</time>
      </trkpt>
      <trkpt lat="41.845124" lon="22.987645">
        <ele>1157.8</ele>
        <time>2026-05-06T07:17:40.000Z</time>
      </trkpt>
      <trkpt lat="41.845134" lon="22.987637">
        <ele>1157.8</ele>
        <time>2026-05-06T07:17:41.000Z</time>
      </trkpt>
      <trkpt lat="41.845141" lon="22.98763">
        <ele>1157.8</ele>
        <time>2026-05-06T07:17:42.000Z</time>
      </trkpt>
      <trkpt lat="41.845146" lon="22.987624">
        <ele>1156</ele>
        <time>2026-05-06T07:17:43.000Z</time>
      </trkpt>
      <trkpt lat="41.845148" lon="22.98762">
        <ele>1156</ele>
        <time>2026-05-06T07:17:44.000Z</time>
      </trkpt>
      <trkpt lat="41.84515" lon="22.987617">
        <ele>1156</ele>
        <time>2026-05-06T07:17:45.000Z</time>
      </trkpt>
      <trkpt lat="41.84515" lon="22.987616">
        <ele>1156</ele>
        <time>2026-05-06T07:17:46.000Z</time>
      </trkpt>
      <trkpt lat="41.84515" lon="22.987615">
        <ele>1156</ele>
        <time>2026-05-06T07:17:47.000Z</time>
      </trkpt>
      <trkpt lat="41.845151" lon="22.987612">
        <ele>1155.1</ele>
        <time>2026-05-06T07:17:48.000Z</time>
      </trkpt>
      <trkpt lat="41.845153" lon="22.987606">
        <ele>1155.1</ele>
        <time>2026-05-06T07:17:49.000Z</time>
      </trkpt>
      <trkpt lat="41.845154" lon="22.987598">
        <ele>1155.1</ele>
        <time>2026-05-06T07:17:50.000Z</time>
      </trkpt>
      <trkpt lat="41.845156" lon="22.987587">
        <ele>1155.1</ele>
        <time>2026-05-06T07:17:51.000Z</time>
      </trkpt>
      <trkpt lat="41.845158" lon="22.987575">
        <ele>1155.1</ele>
        <time>2026-05-06T07:17:52.000Z</time>
      </trkpt>
      <trkpt lat="41.845161" lon="22.987563">
        <ele>1153.5</ele>
        <time>2026-05-06T07:17:53.000Z</time>
      </trkpt>
      <trkpt lat="41.845164" lon="22.987552">
        <ele>1153.5</ele>
        <time>2026-05-06T07:17:54.000Z</time>
      </trkpt>
      <trkpt lat="41.845166" lon="22.987544">
        <ele>1153.5</ele>
        <time>2026-05-06T07:17:55.000Z</time>
      </trkpt>
      <trkpt lat="41.845169" lon="22.987538">
        <ele>1153.5</ele>
        <time>2026-05-06T07:17:56.000Z</time>
      </trkpt>
      <trkpt lat="41.845172" lon="22.987534">
        <ele>1153.5</ele>
        <time>2026-05-06T07:17:57.000Z</time>
      </trkpt>
      <trkpt lat="41.845173" lon="22.987531">
        <ele>1152.4</ele>
        <time>2026-05-06T07:17:58.000Z</time>
      </trkpt>
      <trkpt lat="41.845173" lon="22.98753">
        <ele>1152.4</ele>
        <time>2026-05-06T07:17:59.000Z</time>
      </trkpt>
      <trkpt lat="41.845173" lon="22.98753">
        <ele>1152.4</ele>
        <time>2026-05-06T07:18:00.000Z</time>
      </trkpt>
      <trkpt lat="41.845173" lon="22.98753">
        <ele>1152.4</ele>
        <time>2026-05-06T07:18:01.000Z</time>
      </trkpt>
      <trkpt lat="41.845173" lon="22.98753">
        <ele>1152.4</ele>
        <time>2026-05-06T07:18:02.000Z</time>
      </trkpt>
      <trkpt lat="41.845173" lon="22.98753">
        <ele>1151.9</ele>
        <time>2026-05-06T07:18:03.000Z</time>
      </trkpt>
      <trkpt lat="41.845172" lon="22.98753">
        <ele>1151.9</ele>
        <time>2026-05-06T07:18:04.000Z</time>
      </trkpt>
      <trkpt lat="41.845172" lon="22.98753">
        <ele>1151.9</ele>
        <time>2026-05-06T07:18:05.000Z</time>
      </trkpt>
      <trkpt lat="41.845172" lon="22.98753">
        <ele>1151.9</ele>
        <time>2026-05-06T07:18:06.000Z</time>
      </trkpt>
      <trkpt lat="41.845172" lon="22.98753">
        <ele>1151.9</ele>
        <time>2026-05-06T07:18:07.000Z</time>
      </trkpt>
      <trkpt lat="41.845172" lon="22.98753">
        <ele>1151.3</ele>
        <time>2026-05-06T07:18:08.000Z</time>
      </trkpt>
      <trkpt lat="41.845172" lon="22.98753">
        <ele>1151.3</ele>
        <time>2026-05-06T07:18:09.000Z</time>
      </trkpt>
      <trkpt lat="41.845172" lon="22.98753">
        <ele>1151.3</ele>
        <time>2026-05-06T07:18:10.000Z</time>
      </trkpt>
      <trkpt lat="41.845172" lon="22.98753">
        <ele>1151.3</ele>
        <time>2026-05-06T07:18:11.000Z</time>
      </trkpt>
      <trkpt lat="41.845172" lon="22.987529">
        <ele>1151.3</ele>
        <time>2026-05-06T07:18:12.000Z</time>
      </trkpt>
      <trkpt lat="41.845171" lon="22.987524">
        <ele>1150.8</ele>
        <time>2026-05-06T07:18:13.000Z</time>
      </trkpt>
      <trkpt lat="41.84517" lon="22.987516">
        <ele>1150.8</ele>
        <time>2026-05-06T07:18:14.000Z</time>
      </trkpt>
      <trkpt lat="41.845169" lon="22.987504">
        <ele>1150.8</ele>
        <time>2026-05-06T07:18:15.000Z</time>
      </trkpt>
      <trkpt lat="41.845167" lon="22.98749">
        <ele>1150.8</ele>
        <time>2026-05-06T07:18:16.000Z</time>
      </trkpt>
      <trkpt lat="41.845165" lon="22.987474">
        <ele>1150.8</ele>
        <time>2026-05-06T07:18:17.000Z</time>
      </trkpt>
      <trkpt lat="41.845163" lon="22.987457">
        <ele>1150.7</ele>
        <time>2026-05-06T07:18:18.000Z</time>
      </trkpt>
      <trkpt lat="41.845163" lon="22.987439">
        <ele>1150.7</ele>
        <time>2026-05-06T07:18:19.000Z</time>
      </trkpt>
      <trkpt lat="41.845163" lon="22.987421">
        <ele>1150.7</ele>
        <time>2026-05-06T07:18:20.000Z</time>
      </trkpt>
      <trkpt lat="41.845164" lon="22.9874">
        <ele>1150.7</ele>
        <time>2026-05-06T07:18:21.000Z</time>
      </trkpt>
      <trkpt lat="41.845167" lon="22.987379">
        <ele>1150.7</ele>
        <time>2026-05-06T07:18:22.000Z</time>
      </trkpt>
      <trkpt lat="41.845171" lon="22.987358">
        <ele>1150.4</ele>
        <time>2026-05-06T07:18:23.000Z</time>
      </trkpt>
      <trkpt lat="41.845175" lon="22.987338">
        <ele>1150.4</ele>
        <time>2026-05-06T07:18:24.000Z</time>
      </trkpt>
      <trkpt lat="41.84518" lon="22.98732">
        <ele>1150.4</ele>
        <time>2026-05-06T07:18:25.000Z</time>
      </trkpt>
      <trkpt lat="41.845185" lon="22.987303">
        <ele>1150.4</ele>
        <time>2026-05-06T07:18:26.000Z</time>
      </trkpt>
      <trkpt lat="41.845189" lon="22.987287">
        <ele>1150.4</ele>
        <time>2026-05-06T07:18:27.000Z</time>
      </trkpt>
      <trkpt lat="41.845191" lon="22.987271">
        <ele>1149.8</ele>
        <time>2026-05-06T07:18:28.000Z</time>
      </trkpt>
      <trkpt lat="41.845192" lon="22.987254">
        <ele>1149.8</ele>
        <time>2026-05-06T07:18:29.000Z</time>
      </trkpt>
      <trkpt lat="41.845191" lon="22.987235">
        <ele>1149.8</ele>
        <time>2026-05-06T07:18:30.000Z</time>
      </trkpt>
      <trkpt lat="41.845189" lon="22.987217">
        <ele>1149.8</ele>
        <time>2026-05-06T07:18:31.000Z</time>
      </trkpt>
      <trkpt lat="41.845187" lon="22.9872">
        <ele>1149.8</ele>
        <time>2026-05-06T07:18:32.000Z</time>
      </trkpt>
      <trkpt lat="41.845187" lon="22.987182">
        <ele>1149.3</ele>
        <time>2026-05-06T07:18:33.000Z</time>
      </trkpt>
      <trkpt lat="41.845186" lon="22.987165">
        <ele>1149.3</ele>
        <time>2026-05-06T07:18:34.000Z</time>
      </trkpt>
      <trkpt lat="41.845185" lon="22.987148">
        <ele>1149.3</ele>
        <time>2026-05-06T07:18:35.000Z</time>
      </trkpt>
      <trkpt lat="41.845184" lon="22.987132">
        <ele>1149.3</ele>
        <time>2026-05-06T07:18:36.000Z</time>
      </trkpt>
      <trkpt lat="41.845181" lon="22.987115">
        <ele>1149.3</ele>
        <time>2026-05-06T07:18:37.000Z</time>
      </trkpt>
      <trkpt lat="41.845177" lon="22.987101">
        <ele>1148.1</ele>
        <time>2026-05-06T07:18:38.000Z</time>
      </trkpt>
      <trkpt lat="41.845171" lon="22.987088">
        <ele>1148.1</ele>
        <time>2026-05-06T07:18:39.000Z</time>
      </trkpt>
      <trkpt lat="41.845164" lon="22.987078">
        <ele>1148.1</ele>
        <time>2026-05-06T07:18:40.000Z</time>
      </trkpt>
      <trkpt lat="41.845156" lon="22.987068">
        <ele>1148.1</ele>
        <time>2026-05-06T07:18:41.000Z</time>
      </trkpt>
      <trkpt lat="41.845148" lon="22.98706">
        <ele>1148.1</ele>
        <time>2026-05-06T07:18:42.000Z</time>
      </trkpt>
      <trkpt lat="41.84514" lon="22.987053">
        <ele>1147.2</ele>
        <time>2026-05-06T07:18:43.000Z</time>
      </trkpt>
      <trkpt lat="41.845131" lon="22.987045">
        <ele>1147.2</ele>
        <time>2026-05-06T07:18:44.000Z</time>
      </trkpt>
      <trkpt lat="41.845122" lon="22.987035">
        <ele>1147.2</ele>
        <time>2026-05-06T07:18:45.000Z</time>
      </trkpt>
      <trkpt lat="41.845115" lon="22.987025">
        <ele>1147.2</ele>
        <time>2026-05-06T07:18:46.000Z</time>
      </trkpt>
      <trkpt lat="41.845109" lon="22.987016">
        <ele>1147.2</ele>
        <time>2026-05-06T07:18:47.000Z</time>
      </trkpt>
      <trkpt lat="41.845105" lon="22.987009">
        <ele>1147.1</ele>
        <time>2026-05-06T07:18:48.000Z</time>
      </trkpt>
      <trkpt lat="41.845103" lon="22.987004">
        <ele>1147.1</ele>
        <time>2026-05-06T07:18:49.000Z</time>
      </trkpt>
      <trkpt lat="41.845102" lon="22.987001">
        <ele>1147.1</ele>
        <time>2026-05-06T07:18:50.000Z</time>
      </trkpt>
      <trkpt lat="41.845103" lon="22.986997">
        <ele>1147.1</ele>
        <time>2026-05-06T07:18:51.000Z</time>
      </trkpt>
      <trkpt lat="41.845103" lon="22.986991">
        <ele>1147.1</ele>
        <time>2026-05-06T07:18:52.000Z</time>
      </trkpt>
      <trkpt lat="41.845104" lon="22.986982">
        <ele>1147.6</ele>
        <time>2026-05-06T07:18:53.000Z</time>
      </trkpt>
      <trkpt lat="41.845107" lon="22.98697">
        <ele>1147.6</ele>
        <time>2026-05-06T07:18:54.000Z</time>
      </trkpt>
      <trkpt lat="41.845111" lon="22.986956">
        <ele>1147.6</ele>
        <time>2026-05-06T07:18:55.000Z</time>
      </trkpt>
      <trkpt lat="41.845116" lon="22.986942">
        <ele>1147.6</ele>
        <time>2026-05-06T07:18:56.000Z</time>
      </trkpt>
      <trkpt lat="41.845122" lon="22.986928">
        <ele>1147.6</ele>
        <time>2026-05-06T07:18:57.000Z</time>
      </trkpt>
      <trkpt lat="41.845127" lon="22.986915">
        <ele>1148.3</ele>
        <time>2026-05-06T07:18:58.000Z</time>
      </trkpt>
      <trkpt lat="41.84513" lon="22.986904">
        <ele>1148.3</ele>
        <time>2026-05-06T07:18:59.000Z</time>
      </trkpt>
      <trkpt lat="41.845132" lon="22.986893">
        <ele>1148.3</ele>
        <time>2026-05-06T07:19:00.000Z</time>
      </trkpt>
      <trkpt lat="41.845131" lon="22.986884">
        <ele>1148.3</ele>
        <time>2026-05-06T07:19:01.000Z</time>
      </trkpt>
      <trkpt lat="41.845129" lon="22.986876">
        <ele>1148.3</ele>
        <time>2026-05-06T07:19:02.000Z</time>
      </trkpt>
      <trkpt lat="41.845127" lon="22.986868">
        <ele>1148.5</ele>
        <time>2026-05-06T07:19:03.000Z</time>
      </trkpt>
      <trkpt lat="41.845125" lon="22.986858">
        <ele>1148.5</ele>
        <time>2026-05-06T07:19:04.000Z</time>
      </trkpt>
      <trkpt lat="41.845124" lon="22.986849">
        <ele>1148.5</ele>
        <time>2026-05-06T07:19:05.000Z</time>
      </trkpt>
      <trkpt lat="41.845124" lon="22.986838">
        <ele>1148.5</ele>
        <time>2026-05-06T07:19:06.000Z</time>
      </trkpt>
      <trkpt lat="41.845125" lon="22.986827">
        <ele>1148.5</ele>
        <time>2026-05-06T07:19:07.000Z</time>
      </trkpt>
      <trkpt lat="41.845127" lon="22.986815">
        <ele>1148.7</ele>
        <time>2026-05-06T07:19:08.000Z</time>
      </trkpt>
      <trkpt lat="41.845127" lon="22.986804">
        <ele>1148.7</ele>
        <time>2026-05-06T07:19:09.000Z</time>
      </trkpt>
      <trkpt lat="41.845128" lon="22.986791">
        <ele>1148.7</ele>
        <time>2026-05-06T07:19:10.000Z</time>
      </trkpt>
      <trkpt lat="41.845129" lon="22.986779">
        <ele>1148.7</ele>
        <time>2026-05-06T07:19:11.000Z</time>
      </trkpt>
      <trkpt lat="41.845129" lon="22.986769">
        <ele>1148.7</ele>
        <time>2026-05-06T07:19:12.000Z</time>
      </trkpt>
      <trkpt lat="41.845129" lon="22.986761">
        <ele>1148.9</ele>
        <time>2026-05-06T07:19:13.000Z</time>
      </trkpt>
      <trkpt lat="41.845129" lon="22.986755">
        <ele>1148.9</ele>
        <time>2026-05-06T07:19:14.000Z</time>
      </trkpt>
      <trkpt lat="41.845129" lon="22.986749">
        <ele>1148.9</ele>
        <time>2026-05-06T07:19:15.000Z</time>
      </trkpt>
      <trkpt lat="41.845129" lon="22.986742">
        <ele>1148.9</ele>
        <time>2026-05-06T07:19:16.000Z</time>
      </trkpt>
      <trkpt lat="41.845131" lon="22.986733">
        <ele>1148.9</ele>
        <time>2026-05-06T07:19:17.000Z</time>
      </trkpt>
      <trkpt lat="41.845133" lon="22.98672">
        <ele>1149.1</ele>
        <time>2026-05-06T07:19:18.000Z</time>
      </trkpt>
      <trkpt lat="41.845136" lon="22.986704">
        <ele>1149.1</ele>
        <time>2026-05-06T07:19:19.000Z</time>
      </trkpt>
      <trkpt lat="41.845138" lon="22.986687">
        <ele>1149.1</ele>
        <time>2026-05-06T07:19:20.000Z</time>
      </trkpt>
      <trkpt lat="41.845139" lon="22.986671">
        <ele>1149.1</ele>
        <time>2026-05-06T07:19:21.000Z</time>
      </trkpt>
      <trkpt lat="41.84514" lon="22.986656">
        <ele>1149.1</ele>
        <time>2026-05-06T07:19:22.000Z</time>
      </trkpt>
      <trkpt lat="41.845141" lon="22.986642">
        <ele>1149.5</ele>
        <time>2026-05-06T07:19:23.000Z</time>
      </trkpt>
      <trkpt lat="41.845141" lon="22.98663">
        <ele>1149.5</ele>
        <time>2026-05-06T07:19:24.000Z</time>
      </trkpt>
      <trkpt lat="41.845142" lon="22.986619">
        <ele>1149.5</ele>
        <time>2026-05-06T07:19:25.000Z</time>
      </trkpt>
      <trkpt lat="41.845145" lon="22.986608">
        <ele>1149.5</ele>
        <time>2026-05-06T07:19:26.000Z</time>
      </trkpt>
      <trkpt lat="41.845147" lon="22.986597">
        <ele>1149.5</ele>
        <time>2026-05-06T07:19:27.000Z</time>
      </trkpt>
      <trkpt lat="41.845149" lon="22.986584">
        <ele>1149.6</ele>
        <time>2026-05-06T07:19:28.000Z</time>
      </trkpt>
      <trkpt lat="41.84515" lon="22.986571">
        <ele>1149.6</ele>
        <time>2026-05-06T07:19:29.000Z</time>
      </trkpt>
      <trkpt lat="41.845152" lon="22.986559">
        <ele>1149.6</ele>
        <time>2026-05-06T07:19:30.000Z</time>
      </trkpt>
      <trkpt lat="41.845152" lon="22.98655">
        <ele>1149.6</ele>
        <time>2026-05-06T07:19:31.000Z</time>
      </trkpt>
      <trkpt lat="41.845153" lon="22.986545">
        <ele>1149.6</ele>
        <time>2026-05-06T07:19:32.000Z</time>
      </trkpt>
      <trkpt lat="41.845153" lon="22.986542">
        <ele>1149.5</ele>
        <time>2026-05-06T07:19:33.000Z</time>
      </trkpt>
      <trkpt lat="41.845152" lon="22.986543">
        <ele>1149.5</ele>
        <time>2026-05-06T07:19:34.000Z</time>
      </trkpt>
      <trkpt lat="41.845152" lon="22.986544">
        <ele>1149.5</ele>
        <time>2026-05-06T07:19:35.000Z</time>
      </trkpt>
      <trkpt lat="41.845151" lon="22.986545">
        <ele>1149.5</ele>
        <time>2026-05-06T07:19:36.000Z</time>
      </trkpt>
      <trkpt lat="41.845151" lon="22.986545">
        <ele>1149.5</ele>
        <time>2026-05-06T07:19:37.000Z</time>
      </trkpt>
      <trkpt lat="41.845151" lon="22.986545">
        <ele>1149.1</ele>
        <time>2026-05-06T07:19:38.000Z</time>
      </trkpt>
      <trkpt lat="41.845151" lon="22.986546">
        <ele>1149.1</ele>
        <time>2026-05-06T07:19:39.000Z</time>
      </trkpt>
      <trkpt lat="41.845151" lon="22.986546">
        <ele>1149.1</ele>
        <time>2026-05-06T07:19:40.000Z</time>
      </trkpt>
      <trkpt lat="41.845151" lon="22.986547">
        <ele>1149.1</ele>
        <time>2026-05-06T07:19:41.000Z</time>
      </trkpt>
      <trkpt lat="41.845151" lon="22.986548">
        <ele>1149.1</ele>
        <time>2026-05-06T07:19:42.000Z</time>
      </trkpt>
      <trkpt lat="41.845152" lon="22.986548">
        <ele>1148.7</ele>
        <time>2026-05-06T07:19:43.000Z</time>
      </trkpt>
      <trkpt lat="41.845152" lon="22.986549">
        <ele>1148.7</ele>
        <time>2026-05-06T07:19:44.000Z</time>
      </trkpt>
      <trkpt lat="41.845152" lon="22.98655">
        <ele>1148.7</ele>
        <time>2026-05-06T07:19:45.000Z</time>
      </trkpt>
      <trkpt lat="41.845152" lon="22.98655">
        <ele>1148.7</ele>
        <time>2026-05-06T07:19:46.000Z</time>
      </trkpt>
      <trkpt lat="41.845153" lon="22.986551">
        <ele>1148.7</ele>
        <time>2026-05-06T07:19:47.000Z</time>
      </trkpt>
      <trkpt lat="41.845153" lon="22.986552">
        <ele>1148.5</ele>
        <time>2026-05-06T07:19:48.000Z</time>
      </trkpt>
      <trkpt lat="41.845153" lon="22.986552">
        <ele>1148.5</ele>
        <time>2026-05-06T07:19:49.000Z</time>
      </trkpt>
      <trkpt lat="41.845153" lon="22.986552">
        <ele>1148.5</ele>
        <time>2026-05-06T07:19:50.000Z</time>
      </trkpt>
      <trkpt lat="41.845153" lon="22.986551">
        <ele>1148.5</ele>
        <time>2026-05-06T07:19:51.000Z</time>
      </trkpt>
      <trkpt lat="41.845153" lon="22.98655">
        <ele>1148.5</ele>
        <time>2026-05-06T07:19:52.000Z</time>
      </trkpt>
      <trkpt lat="41.845153" lon="22.986549">
        <ele>1148.4</ele>
        <time>2026-05-06T07:19:53.000Z</time>
      </trkpt>
      <trkpt lat="41.845153" lon="22.986548">
        <ele>1148.4</ele>
        <time>2026-05-06T07:19:54.000Z</time>
      </trkpt>
      <trkpt lat="41.845155" lon="22.986547">
        <ele>1148.4</ele>
        <time>2026-05-06T07:19:55.000Z</time>
      </trkpt>
      <trkpt lat="41.845158" lon="22.986546">
        <ele>1148.4</ele>
        <time>2026-05-06T07:19:56.000Z</time>
      </trkpt>
      <trkpt lat="41.845163" lon="22.986543">
        <ele>1148.4</ele>
        <time>2026-05-06T07:19:57.000Z</time>
      </trkpt>
      <trkpt lat="41.845167" lon="22.986542">
        <ele>1148.3</ele>
        <time>2026-05-06T07:19:58.000Z</time>
      </trkpt>
      <trkpt lat="41.845172" lon="22.98654">
        <ele>1148.3</ele>
        <time>2026-05-06T07:19:59.000Z</time>
      </trkpt>
      <trkpt lat="41.845175" lon="22.986539">
        <ele>1148.3</ele>
        <time>2026-05-06T07:20:00.000Z</time>
      </trkpt>
      <trkpt lat="41.845177" lon="22.986538">
        <ele>1148.3</ele>
        <time>2026-05-06T07:20:01.000Z</time>
      </trkpt>
      <trkpt lat="41.845176" lon="22.986539">
        <ele>1148.3</ele>
        <time>2026-05-06T07:20:02.000Z</time>
      </trkpt>
      <trkpt lat="41.845176" lon="22.986539">
        <ele>1148.2</ele>
        <time>2026-05-06T07:20:03.000Z</time>
      </trkpt>
      <trkpt lat="41.845176" lon="22.986539">
        <ele>1148.2</ele>
        <time>2026-05-06T07:20:04.000Z</time>
      </trkpt>
      <trkpt lat="41.845176" lon="22.98654">
        <ele>1148.2</ele>
        <time>2026-05-06T07:20:05.000Z</time>
      </trkpt>
      <trkpt lat="41.845176" lon="22.98654">
        <ele>1148.2</ele>
        <time>2026-05-06T07:20:06.000Z</time>
      </trkpt>
      <trkpt lat="41.845176" lon="22.98654">
        <ele>1148.2</ele>
        <time>2026-05-06T07:20:07.000Z</time>
      </trkpt>
      <trkpt lat="41.845176" lon="22.986537">
        <ele>1147.8</ele>
        <time>2026-05-06T07:20:08.000Z</time>
      </trkpt>
      <trkpt lat="41.845176" lon="22.98653">
        <ele>1147.8</ele>
        <time>2026-05-06T07:20:09.000Z</time>
      </trkpt>
      <trkpt lat="41.845174" lon="22.986519">
        <ele>1147.8</ele>
        <time>2026-05-06T07:20:10.000Z</time>
      </trkpt>
      <trkpt lat="41.845173" lon="22.986505">
        <ele>1147.8</ele>
        <time>2026-05-06T07:20:11.000Z</time>
      </trkpt>
      <trkpt lat="41.84517" lon="22.986489">
        <ele>1147.8</ele>
        <time>2026-05-06T07:20:12.000Z</time>
      </trkpt>
      <trkpt lat="41.845167" lon="22.986472">
        <ele>1147.3</ele>
        <time>2026-05-06T07:20:13.000Z</time>
      </trkpt>
      <trkpt lat="41.845166" lon="22.986457">
        <ele>1147.3</ele>
        <time>2026-05-06T07:20:14.000Z</time>
      </trkpt>
      <trkpt lat="41.845167" lon="22.986444">
        <ele>1147.3</ele>
        <time>2026-05-06T07:20:15.000Z</time>
      </trkpt>
      <trkpt lat="41.845169" lon="22.986433">
        <ele>1147.3</ele>
        <time>2026-05-06T07:20:16.000Z</time>
      </trkpt>
      <trkpt lat="41.845171" lon="22.986424">
        <ele>1147.3</ele>
        <time>2026-05-06T07:20:17.000Z</time>
      </trkpt>
      <trkpt lat="41.845173" lon="22.986415">
        <ele>1147.2</ele>
        <time>2026-05-06T07:20:18.000Z</time>
      </trkpt>
      <trkpt lat="41.845175" lon="22.986407">
        <ele>1147.2</ele>
        <time>2026-05-06T07:20:19.000Z</time>
      </trkpt>
      <trkpt lat="41.845176" lon="22.986396">
        <ele>1147.2</ele>
        <time>2026-05-06T07:20:20.000Z</time>
      </trkpt>
      <trkpt lat="41.845176" lon="22.986386">
        <ele>1147.2</ele>
        <time>2026-05-06T07:20:21.000Z</time>
      </trkpt>
      <trkpt lat="41.845177" lon="22.986374">
        <ele>1147.2</ele>
        <time>2026-05-06T07:20:22.000Z</time>
      </trkpt>
      <trkpt lat="41.845179" lon="22.986361">
        <ele>1147</ele>
        <time>2026-05-06T07:20:23.000Z</time>
      </trkpt>
      <trkpt lat="41.84518" lon="22.98635">
        <ele>1147</ele>
        <time>2026-05-06T07:20:24.000Z</time>
      </trkpt>
      <trkpt lat="41.845181" lon="22.986339">
        <ele>1147</ele>
        <time>2026-05-06T07:20:25.000Z</time>
      </trkpt>
      <trkpt lat="41.845183" lon="22.986327">
        <ele>1147</ele>
        <time>2026-05-06T07:20:26.000Z</time>
      </trkpt>
      <trkpt lat="41.845185" lon="22.986315">
        <ele>1147</ele>
        <time>2026-05-06T07:20:27.000Z</time>
      </trkpt>
      <trkpt lat="41.845188" lon="22.986303">
        <ele>1147.1</ele>
        <time>2026-05-06T07:20:28.000Z</time>
      </trkpt>
      <trkpt lat="41.84519" lon="22.986295">
        <ele>1147.1</ele>
        <time>2026-05-06T07:20:29.000Z</time>
      </trkpt>
      <trkpt lat="41.84519" lon="22.986289">
        <ele>1147.1</ele>
        <time>2026-05-06T07:20:30.000Z</time>
      </trkpt>
      <trkpt lat="41.845191" lon="22.986285">
        <ele>1147.1</ele>
        <time>2026-05-06T07:20:31.000Z</time>
      </trkpt>
      <trkpt lat="41.845191" lon="22.986284">
        <ele>1147.1</ele>
        <time>2026-05-06T07:20:32.000Z</time>
      </trkpt>
      <trkpt lat="41.845191" lon="22.986283">
        <ele>1147.2</ele>
        <time>2026-05-06T07:20:33.000Z</time>
      </trkpt>
      <trkpt lat="41.84519" lon="22.98628">
        <ele>1147.2</ele>
        <time>2026-05-06T07:20:34.000Z</time>
      </trkpt>
      <trkpt lat="41.84519" lon="22.986276">
        <ele>1147.2</ele>
        <time>2026-05-06T07:20:35.000Z</time>
      </trkpt>
      <trkpt lat="41.845189" lon="22.986272">
        <ele>1147.2</ele>
        <time>2026-05-06T07:20:36.000Z</time>
      </trkpt>
      <trkpt lat="41.845188" lon="22.986267">
        <ele>1147.2</ele>
        <time>2026-05-06T07:20:37.000Z</time>
      </trkpt>
      <trkpt lat="41.845188" lon="22.986259">
        <ele>1147.3</ele>
        <time>2026-05-06T07:20:38.000Z</time>
      </trkpt>
      <trkpt lat="41.845187" lon="22.986251">
        <ele>1147.3</ele>
        <time>2026-05-06T07:20:39.000Z</time>
      </trkpt>
      <trkpt lat="41.845186" lon="22.98624">
        <ele>1147.3</ele>
        <time>2026-05-06T07:20:40.000Z</time>
      </trkpt>
      <trkpt lat="41.845186" lon="22.986225">
        <ele>1147.3</ele>
        <time>2026-05-06T07:20:41.000Z</time>
      </trkpt>
      <trkpt lat="41.845186" lon="22.986208">
        <ele>1147.3</ele>
        <time>2026-05-06T07:20:42.000Z</time>
      </trkpt>
      <trkpt lat="41.845186" lon="22.986189">
        <ele>1147.1</ele>
        <time>2026-05-06T07:20:43.000Z</time>
      </trkpt>
      <trkpt lat="41.845186" lon="22.986172">
        <ele>1147.1</ele>
        <time>2026-05-06T07:20:44.000Z</time>
      </trkpt>
      <trkpt lat="41.845185" lon="22.986158">
        <ele>1147.1</ele>
        <time>2026-05-06T07:20:45.000Z</time>
      </trkpt>
      <trkpt lat="41.845183" lon="22.986147">
        <ele>1147.1</ele>
        <time>2026-05-06T07:20:46.000Z</time>
      </trkpt>
      <trkpt lat="41.845178" lon="22.98614">
        <ele>1147.1</ele>
        <time>2026-05-06T07:20:47.000Z</time>
      </trkpt>
      <trkpt lat="41.845172" lon="22.986135">
        <ele>1147</ele>
        <time>2026-05-06T07:20:48.000Z</time>
      </trkpt>
      <trkpt lat="41.845166" lon="22.986132">
        <ele>1147</ele>
        <time>2026-05-06T07:20:49.000Z</time>
      </trkpt>
      <trkpt lat="41.84516" lon="22.986129">
        <ele>1147</ele>
        <time>2026-05-06T07:20:50.000Z</time>
      </trkpt>
      <trkpt lat="41.845157" lon="22.986128">
        <ele>1147</ele>
        <time>2026-05-06T07:20:51.000Z</time>
      </trkpt>
      <trkpt lat="41.845156" lon="22.986126">
        <ele>1147</ele>
        <time>2026-05-06T07:20:52.000Z</time>
      </trkpt>
      <trkpt lat="41.845157" lon="22.986125">
        <ele>1146.9</ele>
        <time>2026-05-06T07:20:53.000Z</time>
      </trkpt>
      <trkpt lat="41.845158" lon="22.986125">
        <ele>1146.9</ele>
        <time>2026-05-06T07:20:54.000Z</time>
      </trkpt>
      <trkpt lat="41.845159" lon="22.986125">
        <ele>1146.9</ele>
        <time>2026-05-06T07:20:55.000Z</time>
      </trkpt>
      <trkpt lat="41.845159" lon="22.986125">
        <ele>1146.9</ele>
        <time>2026-05-06T07:20:56.000Z</time>
      </trkpt>
      <trkpt lat="41.845159" lon="22.986125">
        <ele>1146.9</ele>
        <time>2026-05-06T07:20:57.000Z</time>
      </trkpt>
      <trkpt lat="41.845159" lon="22.986126">
        <ele>1147.2</ele>
        <time>2026-05-06T07:20:58.000Z</time>
      </trkpt>
      <trkpt lat="41.845158" lon="22.986126">
        <ele>1147.2</ele>
        <time>2026-05-06T07:20:59.000Z</time>
      </trkpt>
      <trkpt lat="41.845155" lon="22.986126">
        <ele>1147.2</ele>
        <time>2026-05-06T07:21:00.000Z</time>
      </trkpt>
      <trkpt lat="41.84515" lon="22.986127">
        <ele>1147.2</ele>
        <time>2026-05-06T07:21:01.000Z</time>
      </trkpt>
      <trkpt lat="41.845144" lon="22.986126">
        <ele>1147.2</ele>
        <time>2026-05-06T07:21:02.000Z</time>
      </trkpt>
      <trkpt lat="41.845136" lon="22.986126">
        <ele>1147.5</ele>
        <time>2026-05-06T07:21:03.000Z</time>
      </trkpt>
      <trkpt lat="41.845129" lon="22.986125">
        <ele>1147.5</ele>
        <time>2026-05-06T07:21:04.000Z</time>
      </trkpt>
      <trkpt lat="41.845121" lon="22.986122">
        <ele>1147.5</ele>
        <time>2026-05-06T07:21:05.000Z</time>
      </trkpt>
      <trkpt lat="41.845116" lon="22.986122">
        <ele>1147.5</ele>
        <time>2026-05-06T07:21:06.000Z</time>
      </trkpt>
      <trkpt lat="41.845111" lon="22.986123">
        <ele>1147.5</ele>
        <time>2026-05-06T07:21:07.000Z</time>
      </trkpt>
      <trkpt lat="41.845104" lon="22.986122">
        <ele>1148.1</ele>
        <time>2026-05-06T07:21:08.000Z</time>
      </trkpt>
      <trkpt lat="41.845097" lon="22.986122">
        <ele>1148.1</ele>
        <time>2026-05-06T07:21:09.000Z</time>
      </trkpt>
      <trkpt lat="41.84509" lon="22.986123">
        <ele>1148.1</ele>
        <time>2026-05-06T07:21:10.000Z</time>
      </trkpt>
      <trkpt lat="41.84508" lon="22.986123">
        <ele>1148.1</ele>
        <time>2026-05-06T07:21:11.000Z</time>
      </trkpt>
      <trkpt lat="41.845073" lon="22.986122">
        <ele>1148.1</ele>
        <time>2026-05-06T07:21:12.000Z</time>
      </trkpt>
      <trkpt lat="41.845067" lon="22.986124">
        <ele>1149.1</ele>
        <time>2026-05-06T07:21:13.000Z</time>
      </trkpt>
      <trkpt lat="41.845062" lon="22.986126">
        <ele>1149.1</ele>
        <time>2026-05-06T07:21:14.000Z</time>
      </trkpt>
      <trkpt lat="41.845059" lon="22.986129">
        <ele>1149.1</ele>
        <time>2026-05-06T07:21:15.000Z</time>
      </trkpt>
      <trkpt lat="41.845057" lon="22.986132">
        <ele>1149.1</ele>
        <time>2026-05-06T07:21:16.000Z</time>
      </trkpt>
      <trkpt lat="41.845054" lon="22.986133">
        <ele>1149.1</ele>
        <time>2026-05-06T07:21:17.000Z</time>
      </trkpt>
      <trkpt lat="41.845053" lon="22.986133">
        <ele>1149.8</ele>
        <time>2026-05-06T07:21:18.000Z</time>
      </trkpt>
      <trkpt lat="41.845051" lon="22.986132">
        <ele>1149.8</ele>
        <time>2026-05-06T07:21:19.000Z</time>
      </trkpt>
      <trkpt lat="41.845051" lon="22.986132">
        <ele>1149.8</ele>
        <time>2026-05-06T07:21:20.000Z</time>
      </trkpt>
      <trkpt lat="41.84505" lon="22.98613">
        <ele>1149.8</ele>
        <time>2026-05-06T07:21:21.000Z</time>
      </trkpt>
      <trkpt lat="41.84505" lon="22.986129">
        <ele>1149.8</ele>
        <time>2026-05-06T07:21:22.000Z</time>
      </trkpt>
      <trkpt lat="41.84505" lon="22.986129">
        <ele>1151.9</ele>
        <time>2026-05-06T07:21:23.000Z</time>
      </trkpt>
      <trkpt lat="41.84505" lon="22.986129">
        <ele>1151.9</ele>
        <time>2026-05-06T07:21:24.000Z</time>
      </trkpt>
      <trkpt lat="41.84505" lon="22.986129">
        <ele>1151.9</ele>
        <time>2026-05-06T07:21:25.000Z</time>
      </trkpt>
      <trkpt lat="41.845049" lon="22.986129">
        <ele>1151.9</ele>
        <time>2026-05-06T07:21:26.000Z</time>
      </trkpt>
      <trkpt lat="41.845049" lon="22.986129">
        <ele>1151.9</ele>
        <time>2026-05-06T07:21:27.000Z</time>
      </trkpt>
      <trkpt lat="41.845048" lon="22.986128">
        <ele>1153.5</ele>
        <time>2026-05-06T07:21:28.000Z</time>
      </trkpt>
      <trkpt lat="41.845047" lon="22.986126">
        <ele>1153.5</ele>
        <time>2026-05-06T07:21:29.000Z</time>
      </trkpt>
      <trkpt lat="41.845045" lon="22.986122">
        <ele>1153.5</ele>
        <time>2026-05-06T07:21:30.000Z</time>
      </trkpt>
      <trkpt lat="41.845042" lon="22.986117">
        <ele>1153.5</ele>
        <time>2026-05-06T07:21:31.000Z</time>
      </trkpt>
      <trkpt lat="41.845038" lon="22.986111">
        <ele>1153.5</ele>
        <time>2026-05-06T07:21:32.000Z</time>
      </trkpt>
      <trkpt lat="41.845034" lon="22.986106">
        <ele>1153.9</ele>
        <time>2026-05-06T07:21:33.000Z</time>
      </trkpt>
      <trkpt lat="41.845029" lon="22.986101">
        <ele>1153.9</ele>
        <time>2026-05-06T07:21:34.000Z</time>
      </trkpt>
      <trkpt lat="41.845024" lon="22.986097">
        <ele>1153.9</ele>
        <time>2026-05-06T07:21:35.000Z</time>
      </trkpt>
      <trkpt lat="41.84502" lon="22.986093">
        <ele>1153.9</ele>
        <time>2026-05-06T07:21:36.000Z</time>
      </trkpt>
      <trkpt lat="41.845016" lon="22.986087">
        <ele>1153.9</ele>
        <time>2026-05-06T07:21:37.000Z</time>
      </trkpt>
      <trkpt lat="41.845012" lon="22.986081">
        <ele>1154.3</ele>
        <time>2026-05-06T07:21:38.000Z</time>
      </trkpt>
      <trkpt lat="41.84501" lon="22.986073">
        <ele>1154.3</ele>
        <time>2026-05-06T07:21:39.000Z</time>
      </trkpt>
      <trkpt lat="41.845007" lon="22.986065">
        <ele>1154.3</ele>
        <time>2026-05-06T07:21:40.000Z</time>
      </trkpt>
      <trkpt lat="41.845005" lon="22.986058">
        <ele>1154.3</ele>
        <time>2026-05-06T07:21:41.000Z</time>
      </trkpt>
      <trkpt lat="41.845003" lon="22.986053">
        <ele>1154.3</ele>
        <time>2026-05-06T07:21:42.000Z</time>
      </trkpt>
      <trkpt lat="41.845001" lon="22.98605">
        <ele>1155.1</ele>
        <time>2026-05-06T07:21:43.000Z</time>
      </trkpt>
      <trkpt lat="41.844999" lon="22.986048">
        <ele>1155.1</ele>
        <time>2026-05-06T07:21:44.000Z</time>
      </trkpt>
      <trkpt lat="41.844998" lon="22.986047">
        <ele>1155.1</ele>
        <time>2026-05-06T07:21:45.000Z</time>
      </trkpt>
      <trkpt lat="41.844996" lon="22.986046">
        <ele>1155.1</ele>
        <time>2026-05-06T07:21:46.000Z</time>
      </trkpt>
      <trkpt lat="41.844993" lon="22.986042">
        <ele>1155.1</ele>
        <time>2026-05-06T07:21:47.000Z</time>
      </trkpt>
      <trkpt lat="41.84499" lon="22.986038">
        <ele>1155.7</ele>
        <time>2026-05-06T07:21:48.000Z</time>
      </trkpt>
      <trkpt lat="41.844986" lon="22.986033">
        <ele>1155.7</ele>
        <time>2026-05-06T07:21:49.000Z</time>
      </trkpt>
      <trkpt lat="41.84498" lon="22.986028">
        <ele>1155.7</ele>
        <time>2026-05-06T07:21:50.000Z</time>
      </trkpt>
      <trkpt lat="41.844974" lon="22.986025">
        <ele>1155.7</ele>
        <time>2026-05-06T07:21:51.000Z</time>
      </trkpt>
      <trkpt lat="41.844968" lon="22.986021">
        <ele>1155.7</ele>
        <time>2026-05-06T07:21:52.000Z</time>
      </trkpt>
      <trkpt lat="41.844961" lon="22.986017">
        <ele>1157</ele>
        <time>2026-05-06T07:21:53.000Z</time>
      </trkpt>
      <trkpt lat="41.844955" lon="22.986011">
        <ele>1157</ele>
        <time>2026-05-06T07:21:54.000Z</time>
      </trkpt>
      <trkpt lat="41.844949" lon="22.986004">
        <ele>1157</ele>
        <time>2026-05-06T07:21:55.000Z</time>
      </trkpt>
      <trkpt lat="41.844945" lon="22.985997">
        <ele>1157</ele>
        <time>2026-05-06T07:21:56.000Z</time>
      </trkpt>
      <trkpt lat="41.844941" lon="22.985992">
        <ele>1157</ele>
        <time>2026-05-06T07:21:57.000Z</time>
      </trkpt>
      <trkpt lat="41.844936" lon="22.985988">
        <ele>1158</ele>
        <time>2026-05-06T07:21:58.000Z</time>
      </trkpt>
      <trkpt lat="41.84493" lon="22.985986">
        <ele>1158</ele>
        <time>2026-05-06T07:21:59.000Z</time>
      </trkpt>
      <trkpt lat="41.844925" lon="22.985985">
        <ele>1158</ele>
        <time>2026-05-06T07:22:00.000Z</time>
      </trkpt>
      <trkpt lat="41.844917" lon="22.985986">
        <ele>1158</ele>
        <time>2026-05-06T07:22:01.000Z</time>
      </trkpt>
      <trkpt lat="41.844909" lon="22.985989">
        <ele>1158</ele>
        <time>2026-05-06T07:22:02.000Z</time>
      </trkpt>
      <trkpt lat="41.844902" lon="22.985993">
        <ele>1158.4</ele>
        <time>2026-05-06T07:22:03.000Z</time>
      </trkpt>
      <trkpt lat="41.844894" lon="22.985997">
        <ele>1158.4</ele>
        <time>2026-05-06T07:22:04.000Z</time>
      </trkpt>
      <trkpt lat="41.844886" lon="22.985999">
        <ele>1158.4</ele>
        <time>2026-05-06T07:22:05.000Z</time>
      </trkpt>
      <trkpt lat="41.844879" lon="22.985997">
        <ele>1158.4</ele>
        <time>2026-05-06T07:22:06.000Z</time>
      </trkpt>
      <trkpt lat="41.844872" lon="22.985994">
        <ele>1158.4</ele>
        <time>2026-05-06T07:22:07.000Z</time>
      </trkpt>
      <trkpt lat="41.844866" lon="22.98599">
        <ele>1159.6</ele>
        <time>2026-05-06T07:22:08.000Z</time>
      </trkpt>
      <trkpt lat="41.84486" lon="22.985984">
        <ele>1159.6</ele>
        <time>2026-05-06T07:22:09.000Z</time>
      </trkpt>
      <trkpt lat="41.844854" lon="22.98598">
        <ele>1159.6</ele>
        <time>2026-05-06T07:22:10.000Z</time>
      </trkpt>
      <trkpt lat="41.844848" lon="22.985978">
        <ele>1159.6</ele>
        <time>2026-05-06T07:22:11.000Z</time>
      </trkpt>
      <trkpt lat="41.844841" lon="22.985975">
        <ele>1159.6</ele>
        <time>2026-05-06T07:22:12.000Z</time>
      </trkpt>
      <trkpt lat="41.844834" lon="22.985974">
        <ele>1161.2</ele>
        <time>2026-05-06T07:22:13.000Z</time>
      </trkpt>
      <trkpt lat="41.844827" lon="22.985973">
        <ele>1161.2</ele>
        <time>2026-05-06T07:22:14.000Z</time>
      </trkpt>
      <trkpt lat="41.844821" lon="22.985972">
        <ele>1161.2</ele>
        <time>2026-05-06T07:22:15.000Z</time>
      </trkpt>
      <trkpt lat="41.844816" lon="22.985971">
        <ele>1161.2</ele>
        <time>2026-05-06T07:22:16.000Z</time>
      </trkpt>
      <trkpt lat="41.844812" lon="22.985969">
        <ele>1161.2</ele>
        <time>2026-05-06T07:22:17.000Z</time>
      </trkpt>
      <trkpt lat="41.844811" lon="22.985968">
        <ele>1161.9</ele>
        <time>2026-05-06T07:22:18.000Z</time>
      </trkpt>
      <trkpt lat="41.844811" lon="22.985965">
        <ele>1161.9</ele>
        <time>2026-05-06T07:22:19.000Z</time>
      </trkpt>
      <trkpt lat="41.844811" lon="22.985963">
        <ele>1161.9</ele>
        <time>2026-05-06T07:22:20.000Z</time>
      </trkpt>
      <trkpt lat="41.844812" lon="22.985962">
        <ele>1161.9</ele>
        <time>2026-05-06T07:22:21.000Z</time>
      </trkpt>
      <trkpt lat="41.844812" lon="22.985961">
        <ele>1161.9</ele>
        <time>2026-05-06T07:22:22.000Z</time>
      </trkpt>
      <trkpt lat="41.844813" lon="22.98596">
        <ele>1162.8</ele>
        <time>2026-05-06T07:22:23.000Z</time>
      </trkpt>
      <trkpt lat="41.844813" lon="22.985961">
        <ele>1162.8</ele>
        <time>2026-05-06T07:22:24.000Z</time>
      </trkpt>
      <trkpt lat="41.844812" lon="22.985961">
        <ele>1162.8</ele>
        <time>2026-05-06T07:22:25.000Z</time>
      </trkpt>
      <trkpt lat="41.844812" lon="22.985957">
        <ele>1162.8</ele>
        <time>2026-05-06T07:22:26.000Z</time>
      </trkpt>
      <trkpt lat="41.844813" lon="22.985954">
        <ele>1162.8</ele>
        <time>2026-05-06T07:22:27.000Z</time>
      </trkpt>
      <trkpt lat="41.844816" lon="22.98595">
        <ele>1163.1</ele>
        <time>2026-05-06T07:22:28.000Z</time>
      </trkpt>
      <trkpt lat="41.844821" lon="22.985944">
        <ele>1163.1</ele>
        <time>2026-05-06T07:22:29.000Z</time>
      </trkpt>
      <trkpt lat="41.844827" lon="22.985937">
        <ele>1163.1</ele>
        <time>2026-05-06T07:22:30.000Z</time>
      </trkpt>
      <trkpt lat="41.844832" lon="22.985933">
        <ele>1163.1</ele>
        <time>2026-05-06T07:22:31.000Z</time>
      </trkpt>
      <trkpt lat="41.844837" lon="22.985929">
        <ele>1163.1</ele>
        <time>2026-05-06T07:22:32.000Z</time>
      </trkpt>
      <trkpt lat="41.84484" lon="22.985926">
        <ele>1163.1</ele>
        <time>2026-05-06T07:22:33.000Z</time>
      </trkpt>
      <trkpt lat="41.844842" lon="22.985925">
        <ele>1163.1</ele>
        <time>2026-05-06T07:22:34.000Z</time>
      </trkpt>
      <trkpt lat="41.844843" lon="22.985926">
        <ele>1163.1</ele>
        <time>2026-05-06T07:22:35.000Z</time>
      </trkpt>
      <trkpt lat="41.844844" lon="22.985926">
        <ele>1163.1</ele>
        <time>2026-05-06T07:22:36.000Z</time>
      </trkpt>
      <trkpt lat="41.844844" lon="22.985927">
        <ele>1163.1</ele>
        <time>2026-05-06T07:22:37.000Z</time>
      </trkpt>
      <trkpt lat="41.844844" lon="22.985927">
        <ele>1163.1</ele>
        <time>2026-05-06T07:22:38.000Z</time>
      </trkpt>
      <trkpt lat="41.844843" lon="22.985928">
        <ele>1163.1</ele>
        <time>2026-05-06T07:22:39.000Z</time>
      </trkpt>
      <trkpt lat="41.844842" lon="22.98593">
        <ele>1163.1</ele>
        <time>2026-05-06T07:22:40.000Z</time>
      </trkpt>
      <trkpt lat="41.844839" lon="22.985934">
        <ele>1163.1</ele>
        <time>2026-05-06T07:22:41.000Z</time>
      </trkpt>
      <trkpt lat="41.844835" lon="22.985939">
        <ele>1163.1</ele>
        <time>2026-05-06T07:22:42.000Z</time>
      </trkpt>
      <trkpt lat="41.844832" lon="22.985942">
        <ele>1163</ele>
        <time>2026-05-06T07:22:43.000Z</time>
      </trkpt>
      <trkpt lat="41.844828" lon="22.985943">
        <ele>1163</ele>
        <time>2026-05-06T07:22:44.000Z</time>
      </trkpt>
      <trkpt lat="41.844826" lon="22.985942">
        <ele>1163</ele>
        <time>2026-05-06T07:22:45.000Z</time>
      </trkpt>
      <trkpt lat="41.844824" lon="22.985939">
        <ele>1163</ele>
        <time>2026-05-06T07:22:46.000Z</time>
      </trkpt>
      <trkpt lat="41.844823" lon="22.985936">
        <ele>1163</ele>
        <time>2026-05-06T07:22:47.000Z</time>
      </trkpt>
      <trkpt lat="41.844821" lon="22.985933">
        <ele>1163</ele>
        <time>2026-05-06T07:22:48.000Z</time>
      </trkpt>
      <trkpt lat="41.84482" lon="22.985933">
        <ele>1163</ele>
        <time>2026-05-06T07:22:49.000Z</time>
      </trkpt>
      <trkpt lat="41.844819" lon="22.985933">
        <ele>1163</ele>
        <time>2026-05-06T07:22:50.000Z</time>
      </trkpt>
      <trkpt lat="41.844819" lon="22.985934">
        <ele>1163</ele>
        <time>2026-05-06T07:22:51.000Z</time>
      </trkpt>
      <trkpt lat="41.84482" lon="22.985934">
        <ele>1163</ele>
        <time>2026-05-06T07:22:52.000Z</time>
      </trkpt>
      <trkpt lat="41.844823" lon="22.985935">
        <ele>1162.9</ele>
        <time>2026-05-06T07:22:53.000Z</time>
      </trkpt>
      <trkpt lat="41.844826" lon="22.985937">
        <ele>1162.9</ele>
        <time>2026-05-06T07:22:54.000Z</time>
      </trkpt>
      <trkpt lat="41.84483" lon="22.985943">
        <ele>1162.9</ele>
        <time>2026-05-06T07:22:55.000Z</time>
      </trkpt>
      <trkpt lat="41.844836" lon="22.985949">
        <ele>1162.9</ele>
        <time>2026-05-06T07:22:56.000Z</time>
      </trkpt>
      <trkpt lat="41.844842" lon="22.985952">
        <ele>1162.9</ele>
        <time>2026-05-06T07:22:57.000Z</time>
      </trkpt>
      <trkpt lat="41.844848" lon="22.985955">
        <ele>1163.2</ele>
        <time>2026-05-06T07:22:58.000Z</time>
      </trkpt>
      <trkpt lat="41.844852" lon="22.985957">
        <ele>1163.2</ele>
        <time>2026-05-06T07:22:59.000Z</time>
      </trkpt>
      <trkpt lat="41.844856" lon="22.985954">
        <ele>1163.2</ele>
        <time>2026-05-06T07:23:00.000Z</time>
      </trkpt>
      <trkpt lat="41.844859" lon="22.985952">
        <ele>1163.2</ele>
        <time>2026-05-06T07:23:01.000Z</time>
      </trkpt>
      <trkpt lat="41.844861" lon="22.985952">
        <ele>1163.2</ele>
        <time>2026-05-06T07:23:02.000Z</time>
      </trkpt>
      <trkpt lat="41.84486" lon="22.985952">
        <ele>1163.4</ele>
        <time>2026-05-06T07:23:03.000Z</time>
      </trkpt>
      <trkpt lat="41.844859" lon="22.985952">
        <ele>1163.4</ele>
        <time>2026-05-06T07:23:04.000Z</time>
      </trkpt>
      <trkpt lat="41.844859" lon="22.985953">
        <ele>1163.4</ele>
        <time>2026-05-06T07:23:05.000Z</time>
      </trkpt>
      <trkpt lat="41.844857" lon="22.985953">
        <ele>1163.4</ele>
        <time>2026-05-06T07:23:06.000Z</time>
      </trkpt>
      <trkpt lat="41.844856" lon="22.985953">
        <ele>1163.4</ele>
        <time>2026-05-06T07:23:07.000Z</time>
      </trkpt>
      <trkpt lat="41.844856" lon="22.985952">
        <ele>1163.5</ele>
        <time>2026-05-06T07:23:08.000Z</time>
      </trkpt>
      <trkpt lat="41.844857" lon="22.985953">
        <ele>1163.5</ele>
        <time>2026-05-06T07:23:09.000Z</time>
      </trkpt>
      <trkpt lat="41.844858" lon="22.985954">
        <ele>1163.5</ele>
        <time>2026-05-06T07:23:10.000Z</time>
      </trkpt>
      <trkpt lat="41.844859" lon="22.985955">
        <ele>1163.5</ele>
        <time>2026-05-06T07:23:11.000Z</time>
      </trkpt>
      <trkpt lat="41.844859" lon="22.985957">
        <ele>1163.5</ele>
        <time>2026-05-06T07:23:12.000Z</time>
      </trkpt>
      <trkpt lat="41.844859" lon="22.985958">
        <ele>1163.4</ele>
        <time>2026-05-06T07:23:13.000Z</time>
      </trkpt>
      <trkpt lat="41.844858" lon="22.985958">
        <ele>1163.4</ele>
        <time>2026-05-06T07:23:14.000Z</time>
      </trkpt>
      <trkpt lat="41.844856" lon="22.985958">
        <ele>1163.4</ele>
        <time>2026-05-06T07:23:15.000Z</time>
      </trkpt>
      <trkpt lat="41.844855" lon="22.985958">
        <ele>1163.4</ele>
        <time>2026-05-06T07:23:16.000Z</time>
      </trkpt>
      <trkpt lat="41.844853" lon="22.985959">
        <ele>1163.4</ele>
        <time>2026-05-06T07:23:17.000Z</time>
      </trkpt>
      <trkpt lat="41.844852" lon="22.985959">
        <ele>1163.3</ele>
        <time>2026-05-06T07:23:18.000Z</time>
      </trkpt>
      <trkpt lat="41.844852" lon="22.985961">
        <ele>1163.3</ele>
        <time>2026-05-06T07:23:19.000Z</time>
      </trkpt>
      <trkpt lat="41.844851" lon="22.985962">
        <ele>1163.3</ele>
        <time>2026-05-06T07:23:20.000Z</time>
      </trkpt>
      <trkpt lat="41.844851" lon="22.985964">
        <ele>1163.3</ele>
        <time>2026-05-06T07:23:21.000Z</time>
      </trkpt>
      <trkpt lat="41.84485" lon="22.985966">
        <ele>1163.3</ele>
        <time>2026-05-06T07:23:22.000Z</time>
      </trkpt>
      <trkpt lat="41.84485" lon="22.985967">
        <ele>1163.2</ele>
        <time>2026-05-06T07:23:23.000Z</time>
      </trkpt>
      <trkpt lat="41.84485" lon="22.985969">
        <ele>1163.2</ele>
        <time>2026-05-06T07:23:24.000Z</time>
      </trkpt>
      <trkpt lat="41.84485" lon="22.98597">
        <ele>1163.2</ele>
        <time>2026-05-06T07:23:25.000Z</time>
      </trkpt>
      <trkpt lat="41.844851" lon="22.985971">
        <ele>1163.2</ele>
        <time>2026-05-06T07:23:26.000Z</time>
      </trkpt>
      <trkpt lat="41.844851" lon="22.985972">
        <ele>1163.2</ele>
        <time>2026-05-06T07:23:27.000Z</time>
      </trkpt>
      <trkpt lat="41.844852" lon="22.985972">
        <ele>1163.1</ele>
        <time>2026-05-06T07:23:28.000Z</time>
      </trkpt>
      <trkpt lat="41.844852" lon="22.985973">
        <ele>1163.1</ele>
        <time>2026-05-06T07:23:29.000Z</time>
      </trkpt>
      <trkpt lat="41.844852" lon="22.985973">
        <ele>1163.1</ele>
        <time>2026-05-06T07:23:30.000Z</time>
      </trkpt>
      <trkpt lat="41.844853" lon="22.985973">
        <ele>1163.1</ele>
        <time>2026-05-06T07:23:31.000Z</time>
      </trkpt>
      <trkpt lat="41.844853" lon="22.985973">
        <ele>1163.1</ele>
        <time>2026-05-06T07:23:32.000Z</time>
      </trkpt>
      <trkpt lat="41.844853" lon="22.985973">
        <ele>1163.1</ele>
        <time>2026-05-06T07:23:33.000Z</time>
      </trkpt>
      <trkpt lat="41.844853" lon="22.985973">
        <ele>1163.1</ele>
        <time>2026-05-06T07:23:34.000Z</time>
      </trkpt>
      <trkpt lat="41.844853" lon="22.985973">
        <ele>1163.1</ele>
        <time>2026-05-06T07:23:35.000Z</time>
      </trkpt>
      <trkpt lat="41.844853" lon="22.985972">
        <ele>1163.1</ele>
        <time>2026-05-06T07:23:36.000Z</time>
      </trkpt>
      <trkpt lat="41.844853" lon="22.985971">
        <ele>1163.1</ele>
        <time>2026-05-06T07:23:37.000Z</time>
      </trkpt>
      <trkpt lat="41.844853" lon="22.98597">
        <ele>1163.2</ele>
        <time>2026-05-06T07:23:38.000Z</time>
      </trkpt>
      <trkpt lat="41.844854" lon="22.985968">
        <ele>1163.2</ele>
        <time>2026-05-06T07:23:39.000Z</time>
      </trkpt>
      <trkpt lat="41.844854" lon="22.985967">
        <ele>1163.2</ele>
        <time>2026-05-06T07:23:40.000Z</time>
      </trkpt>
      <trkpt lat="41.844854" lon="22.985966">
        <ele>1163.2</ele>
        <time>2026-05-06T07:23:41.000Z</time>
      </trkpt>
      <trkpt lat="41.844854" lon="22.985966">
        <ele>1163.2</ele>
        <time>2026-05-06T07:23:42.000Z</time>
      </trkpt>
      <trkpt lat="41.844854" lon="22.985966">
        <ele>1163.3</ele>
        <time>2026-05-06T07:23:43.000Z</time>
      </trkpt>
      <trkpt lat="41.844854" lon="22.985966">
        <ele>1163.3</ele>
        <time>2026-05-06T07:23:44.000Z</time>
      </trkpt>
      <trkpt lat="41.844854" lon="22.985966">
        <ele>1163.3</ele>
        <time>2026-05-06T07:23:45.000Z</time>
      </trkpt>
      <trkpt lat="41.844854" lon="22.985967">
        <ele>1163.3</ele>
        <time>2026-05-06T07:23:46.000Z</time>
      </trkpt>
      <trkpt lat="41.844854" lon="22.985967">
        <ele>1163.3</ele>
        <time>2026-05-06T07:23:47.000Z</time>
      </trkpt>
      <trkpt lat="41.844854" lon="22.985966">
        <ele>1163.4</ele>
        <time>2026-05-06T07:23:48.000Z</time>
      </trkpt>
      <trkpt lat="41.844854" lon="22.985966">
        <ele>1163.4</ele>
        <time>2026-05-06T07:23:49.000Z</time>
      </trkpt>
      <trkpt lat="41.844854" lon="22.985966">
        <ele>1163.4</ele>
        <time>2026-05-06T07:23:50.000Z</time>
      </trkpt>
      <trkpt lat="41.844854" lon="22.985966">
        <ele>1163.4</ele>
        <time>2026-05-06T07:23:51.000Z</time>
      </trkpt>
      <trkpt lat="41.844854" lon="22.985966">
        <ele>1163.4</ele>
        <time>2026-05-06T07:23:52.000Z</time>
      </trkpt>
      <trkpt lat="41.844854" lon="22.985966">
        <ele>1163.5</ele>
        <time>2026-05-06T07:23:53.000Z</time>
      </trkpt>
      <trkpt lat="41.844854" lon="22.985966">
        <ele>1163.5</ele>
        <time>2026-05-06T07:23:54.000Z</time>
      </trkpt>
      <trkpt lat="41.844854" lon="22.985966">
        <ele>1163.5</ele>
        <time>2026-05-06T07:23:55.000Z</time>
      </trkpt>
      <trkpt lat="41.844854" lon="22.985966">
        <ele>1163.5</ele>
        <time>2026-05-06T07:23:56.000Z</time>
      </trkpt>
      <trkpt lat="41.844854" lon="22.985966">
        <ele>1163.5</ele>
        <time>2026-05-06T07:23:57.000Z</time>
      </trkpt>
      <trkpt lat="41.844855" lon="22.985966">
        <ele>1163.6</ele>
        <time>2026-05-06T07:23:58.000Z</time>
      </trkpt>
      <trkpt lat="41.844855" lon="22.985966">
        <ele>1163.6</ele>
        <time>2026-05-06T07:23:59.000Z</time>
      </trkpt>
      <trkpt lat="41.844855" lon="22.985966">
        <ele>1163.6</ele>
        <time>2026-05-06T07:24:00.000Z</time>
      </trkpt>
      <trkpt lat="41.844855" lon="22.985965">
        <ele>1163.6</ele>
        <time>2026-05-06T07:24:01.000Z</time>
      </trkpt>
      <trkpt lat="41.844855" lon="22.985964">
        <ele>1163.6</ele>
        <time>2026-05-06T07:24:02.000Z</time>
      </trkpt>
      <trkpt lat="41.844855" lon="22.985964">
        <ele>1163.6</ele>
        <time>2026-05-06T07:24:03.000Z</time>
      </trkpt>
      <trkpt lat="41.844854" lon="22.985962">
        <ele>1163.6</ele>
        <time>2026-05-06T07:24:04.000Z</time>
      </trkpt>
      <trkpt lat="41.844855" lon="22.985961">
        <ele>1163.6</ele>
        <time>2026-05-06T07:24:05.000Z</time>
      </trkpt>
      <trkpt lat="41.844855" lon="22.98596">
        <ele>1163.6</ele>
        <time>2026-05-06T07:24:06.000Z</time>
      </trkpt>
      <trkpt lat="41.844854" lon="22.985958">
        <ele>1163.6</ele>
        <time>2026-05-06T07:24:07.000Z</time>
      </trkpt>
      <trkpt lat="41.844854" lon="22.985957">
        <ele>1163.6</ele>
        <time>2026-05-06T07:24:08.000Z</time>
      </trkpt>
      <trkpt lat="41.844854" lon="22.985958">
        <ele>1163.6</ele>
        <time>2026-05-06T07:24:09.000Z</time>
      </trkpt>
      <trkpt lat="41.844853" lon="22.985958">
        <ele>1163.6</ele>
        <time>2026-05-06T07:24:10.000Z</time>
      </trkpt>
      <trkpt lat="41.844853" lon="22.985958">
        <ele>1163.6</ele>
        <time>2026-05-06T07:24:11.000Z</time>
      </trkpt>
      <trkpt lat="41.844852" lon="22.985958">
        <ele>1163.6</ele>
        <time>2026-05-06T07:24:12.000Z</time>
      </trkpt>
      <trkpt lat="41.844852" lon="22.985958">
        <ele>1163.7</ele>
        <time>2026-05-06T07:24:13.000Z</time>
      </trkpt>
      <trkpt lat="41.844852" lon="22.985958">
        <ele>1163.7</ele>
        <time>2026-05-06T07:24:14.000Z</time>
      </trkpt>
      <trkpt lat="41.844852" lon="22.985958">
        <ele>1163.7</ele>
        <time>2026-05-06T07:24:15.000Z</time>
      </trkpt>
      <trkpt lat="41.844852" lon="22.985958">
        <ele>1163.7</ele>
        <time>2026-05-06T07:24:16.000Z</time>
      </trkpt>
      <trkpt lat="41.844853" lon="22.985958">
        <ele>1163.7</ele>
        <time>2026-05-06T07:24:17.000Z</time>
      </trkpt>
      <trkpt lat="41.844853" lon="22.985958">
        <ele>1163.8</ele>
        <time>2026-05-06T07:24:18.000Z</time>
      </trkpt>
      <trkpt lat="41.844853" lon="22.985958">
        <ele>1163.8</ele>
        <time>2026-05-06T07:24:19.000Z</time>
      </trkpt>
      <trkpt lat="41.844853" lon="22.985958">
        <ele>1163.8</ele>
        <time>2026-05-06T07:24:20.000Z</time>
      </trkpt>
      <trkpt lat="41.844853" lon="22.985958">
        <ele>1163.8</ele>
        <time>2026-05-06T07:24:21.000Z</time>
      </trkpt>
      <trkpt lat="41.844853" lon="22.985958">
        <ele>1163.8</ele>
        <time>2026-05-06T07:24:22.000Z</time>
      </trkpt>
      <trkpt lat="41.844853" lon="22.985958">
        <ele>1163.9</ele>
        <time>2026-05-06T07:24:23.000Z</time>
      </trkpt>
      <trkpt lat="41.844853" lon="22.985958">
        <ele>1163.9</ele>
        <time>2026-05-06T07:24:24.000Z</time>
      </trkpt>
      <trkpt lat="41.844853" lon="22.985958">
        <ele>1163.9</ele>
        <time>2026-05-06T07:24:25.000Z</time>
      </trkpt>
      <trkpt lat="41.844853" lon="22.985958">
        <ele>1163.9</ele>
        <time>2026-05-06T07:24:26.000Z</time>
      </trkpt>
      <trkpt lat="41.844853" lon="22.985956">
        <ele>1163.9</ele>
        <time>2026-05-06T07:24:27.000Z</time>
      </trkpt>
      <trkpt lat="41.844853" lon="22.985955">
        <ele>1163.9</ele>
        <time>2026-05-06T07:24:28.000Z</time>
      </trkpt>
      <trkpt lat="41.844853" lon="22.985954">
        <ele>1163.9</ele>
        <time>2026-05-06T07:24:29.000Z</time>
      </trkpt>
      <trkpt lat="41.844852" lon="22.985953">
        <ele>1163.9</ele>
        <time>2026-05-06T07:24:30.000Z</time>
      </trkpt>
      <trkpt lat="41.844852" lon="22.985952">
        <ele>1163.9</ele>
        <time>2026-05-06T07:24:31.000Z</time>
      </trkpt>
      <trkpt lat="41.844851" lon="22.985952">
        <ele>1163.9</ele>
        <time>2026-05-06T07:24:32.000Z</time>
      </trkpt>
      <trkpt lat="41.84485" lon="22.985953">
        <ele>1163.9</ele>
        <time>2026-05-06T07:24:33.000Z</time>
      </trkpt>
      <trkpt lat="41.84485" lon="22.985953">
        <ele>1163.9</ele>
        <time>2026-05-06T07:24:34.000Z</time>
      </trkpt>
      <trkpt lat="41.844849" lon="22.985952">
        <ele>1163.9</ele>
        <time>2026-05-06T07:24:35.000Z</time>
      </trkpt>
      <trkpt lat="41.844849" lon="22.98595">
        <ele>1163.9</ele>
        <time>2026-05-06T07:24:36.000Z</time>
      </trkpt>
      <trkpt lat="41.844847" lon="22.985948">
        <ele>1163.9</ele>
        <time>2026-05-06T07:24:37.000Z</time>
      </trkpt>
      <trkpt lat="41.844843" lon="22.985945">
        <ele>1163.9</ele>
        <time>2026-05-06T07:24:38.000Z</time>
      </trkpt>
      <trkpt lat="41.84484" lon="22.985942">
        <ele>1163.9</ele>
        <time>2026-05-06T07:24:39.000Z</time>
      </trkpt>
      <trkpt lat="41.844839" lon="22.98594">
        <ele>1163.9</ele>
        <time>2026-05-06T07:24:40.000Z</time>
      </trkpt>
      <trkpt lat="41.84484" lon="22.985939">
        <ele>1163.9</ele>
        <time>2026-05-06T07:24:41.000Z</time>
      </trkpt>
      <trkpt lat="41.844844" lon="22.985939">
        <ele>1163.9</ele>
        <time>2026-05-06T07:24:42.000Z</time>
      </trkpt>
      <trkpt lat="41.844849" lon="22.985942">
        <ele>1163.8</ele>
        <time>2026-05-06T07:24:43.000Z</time>
      </trkpt>
      <trkpt lat="41.844853" lon="22.985947">
        <ele>1163.8</ele>
        <time>2026-05-06T07:24:44.000Z</time>
      </trkpt>
      <trkpt lat="41.844857" lon="22.985954">
        <ele>1163.8</ele>
        <time>2026-05-06T07:24:45.000Z</time>
      </trkpt>
      <trkpt lat="41.844861" lon="22.985962">
        <ele>1163.8</ele>
        <time>2026-05-06T07:24:46.000Z</time>
      </trkpt>
      <trkpt lat="41.844862" lon="22.985969">
        <ele>1163.8</ele>
        <time>2026-05-06T07:24:47.000Z</time>
      </trkpt>
      <trkpt lat="41.844862" lon="22.985973">
        <ele>1163.8</ele>
        <time>2026-05-06T07:24:48.000Z</time>
      </trkpt>
      <trkpt lat="41.844862" lon="22.985975">
        <ele>1163.8</ele>
        <time>2026-05-06T07:24:49.000Z</time>
      </trkpt>
      <trkpt lat="41.84486" lon="22.985975">
        <ele>1163.8</ele>
        <time>2026-05-06T07:24:50.000Z</time>
      </trkpt>
      <trkpt lat="41.844857" lon="22.985974">
        <ele>1163.8</ele>
        <time>2026-05-06T07:24:51.000Z</time>
      </trkpt>
      <trkpt lat="41.844856" lon="22.985973">
        <ele>1163.8</ele>
        <time>2026-05-06T07:24:52.000Z</time>
      </trkpt>
      <trkpt lat="41.844856" lon="22.985973">
        <ele>1163.7</ele>
        <time>2026-05-06T07:24:53.000Z</time>
      </trkpt>
      <trkpt lat="41.844856" lon="22.985973">
        <ele>1163.7</ele>
        <time>2026-05-06T07:24:54.000Z</time>
      </trkpt>
      <trkpt lat="41.844856" lon="22.985973">
        <ele>1163.7</ele>
        <time>2026-05-06T07:24:55.000Z</time>
      </trkpt>
      <trkpt lat="41.844856" lon="22.985973">
        <ele>1163.7</ele>
        <time>2026-05-06T07:24:56.000Z</time>
      </trkpt>
      <trkpt lat="41.844857" lon="22.985973">
        <ele>1163.7</ele>
        <time>2026-05-06T07:24:57.000Z</time>
      </trkpt>
      <trkpt lat="41.844857" lon="22.985974">
        <ele>1163.6</ele>
        <time>2026-05-06T07:24:58.000Z</time>
      </trkpt>
      <trkpt lat="41.844857" lon="22.985974">
        <ele>1163.6</ele>
        <time>2026-05-06T07:24:59.000Z</time>
      </trkpt>
      <trkpt lat="41.844857" lon="22.985974">
        <ele>1163.6</ele>
        <time>2026-05-06T07:25:00.000Z</time>
      </trkpt>
      <trkpt lat="41.844857" lon="22.985974">
        <ele>1163.6</ele>
        <time>2026-05-06T07:25:01.000Z</time>
      </trkpt>
      <trkpt lat="41.844857" lon="22.985974">
        <ele>1163.6</ele>
        <time>2026-05-06T07:25:02.000Z</time>
      </trkpt>
      <trkpt lat="41.844857" lon="22.985974">
        <ele>1163.5</ele>
        <time>2026-05-06T07:25:03.000Z</time>
      </trkpt>
      <trkpt lat="41.844857" lon="22.985974">
        <ele>1163.5</ele>
        <time>2026-05-06T07:25:04.000Z</time>
      </trkpt>
      <trkpt lat="41.844857" lon="22.985973">
        <ele>1163.5</ele>
        <time>2026-05-06T07:25:05.000Z</time>
      </trkpt>
      <trkpt lat="41.844854" lon="22.985972">
        <ele>1163.5</ele>
        <time>2026-05-06T07:25:06.000Z</time>
      </trkpt>
      <trkpt lat="41.844849" lon="22.985969">
        <ele>1163.5</ele>
        <time>2026-05-06T07:25:07.000Z</time>
      </trkpt>
      <trkpt lat="41.844844" lon="22.985965">
        <ele>1163.3</ele>
        <time>2026-05-06T07:25:08.000Z</time>
      </trkpt>
      <trkpt lat="41.844839" lon="22.98596">
        <ele>1163.3</ele>
        <time>2026-05-06T07:25:09.000Z</time>
      </trkpt>
      <trkpt lat="41.844834" lon="22.985955">
        <ele>1163.3</ele>
        <time>2026-05-06T07:25:10.000Z</time>
      </trkpt>
      <trkpt lat="41.844832" lon="22.985951">
        <ele>1163.3</ele>
        <time>2026-05-06T07:25:11.000Z</time>
      </trkpt>
      <trkpt lat="41.84483" lon="22.985949">
        <ele>1163.3</ele>
        <time>2026-05-06T07:25:12.000Z</time>
      </trkpt>
      <trkpt lat="41.84483" lon="22.985948">
        <ele>1163.2</ele>
        <time>2026-05-06T07:25:13.000Z</time>
      </trkpt>
      <trkpt lat="41.844829" lon="22.985947">
        <ele>1163.2</ele>
        <time>2026-05-06T07:25:14.000Z</time>
      </trkpt>
      <trkpt lat="41.844828" lon="22.985947">
        <ele>1163.2</ele>
        <time>2026-05-06T07:25:15.000Z</time>
      </trkpt>
      <trkpt lat="41.844828" lon="22.985948">
        <ele>1163.2</ele>
        <time>2026-05-06T07:25:16.000Z</time>
      </trkpt>
      <trkpt lat="41.844827" lon="22.985949">
        <ele>1163.2</ele>
        <time>2026-05-06T07:25:17.000Z</time>
      </trkpt>
      <trkpt lat="41.844826" lon="22.985949">
        <ele>1163.2</ele>
        <time>2026-05-06T07:25:18.000Z</time>
      </trkpt>
      <trkpt lat="41.844826" lon="22.98595">
        <ele>1163.2</ele>
        <time>2026-05-06T07:25:19.000Z</time>
      </trkpt>
      <trkpt lat="41.844825" lon="22.98595">
        <ele>1163.2</ele>
        <time>2026-05-06T07:25:20.000Z</time>
      </trkpt>
      <trkpt lat="41.844824" lon="22.98595">
        <ele>1163.2</ele>
        <time>2026-05-06T07:25:21.000Z</time>
      </trkpt>
      <trkpt lat="41.844823" lon="22.98595">
        <ele>1163.2</ele>
        <time>2026-05-06T07:25:22.000Z</time>
      </trkpt>
      <trkpt lat="41.844822" lon="22.98595">
        <ele>1163.1</ele>
        <time>2026-05-06T07:25:23.000Z</time>
      </trkpt>
      <trkpt lat="41.844821" lon="22.985949">
        <ele>1163.1</ele>
        <time>2026-05-06T07:25:24.000Z</time>
      </trkpt>
      <trkpt lat="41.84482" lon="22.985949">
        <ele>1163.1</ele>
        <time>2026-05-06T07:25:25.000Z</time>
      </trkpt>
      <trkpt lat="41.84482" lon="22.985949">
        <ele>1163.1</ele>
        <time>2026-05-06T07:25:26.000Z</time>
      </trkpt>
      <trkpt lat="41.84482" lon="22.985949">
        <ele>1163.1</ele>
        <time>2026-05-06T07:25:27.000Z</time>
      </trkpt>
      <trkpt lat="41.84482" lon="22.985949">
        <ele>1163.1</ele>
        <time>2026-05-06T07:25:28.000Z</time>
      </trkpt>
      <trkpt lat="41.84482" lon="22.985949">
        <ele>1163.1</ele>
        <time>2026-05-06T07:25:29.000Z</time>
      </trkpt>
      <trkpt lat="41.84482" lon="22.985949">
        <ele>1163.1</ele>
        <time>2026-05-06T07:25:30.000Z</time>
      </trkpt>
      <trkpt lat="41.84482" lon="22.985949">
        <ele>1163.1</ele>
        <time>2026-05-06T07:25:31.000Z</time>
      </trkpt>
      <trkpt lat="41.84482" lon="22.985949">
        <ele>1163.1</ele>
        <time>2026-05-06T07:25:32.000Z</time>
      </trkpt>
      <trkpt lat="41.84482" lon="22.985949">
        <ele>1163</ele>
        <time>2026-05-06T07:25:33.000Z</time>
      </trkpt>
      <trkpt lat="41.84482" lon="22.985949">
        <ele>1163</ele>
        <time>2026-05-06T07:25:34.000Z</time>
      </trkpt>
      <trkpt lat="41.84482" lon="22.985949">
        <ele>1163</ele>
        <time>2026-05-06T07:25:35.000Z</time>
      </trkpt>
      <trkpt lat="41.84482" lon="22.985949">
        <ele>1163</ele>
        <time>2026-05-06T07:25:36.000Z</time>
      </trkpt>
      <trkpt lat="41.84482" lon="22.985948">
        <ele>1163</ele>
        <time>2026-05-06T07:25:37.000Z</time>
      </trkpt>
      <trkpt lat="41.84482" lon="22.985948">
        <ele>1163.2</ele>
        <time>2026-05-06T07:25:38.000Z</time>
      </trkpt>
      <trkpt lat="41.84482" lon="22.985947">
        <ele>1163.2</ele>
        <time>2026-05-06T07:25:39.000Z</time>
      </trkpt>
      <trkpt lat="41.844821" lon="22.985947">
        <ele>1163.2</ele>
        <time>2026-05-06T07:25:40.000Z</time>
      </trkpt>
      <trkpt lat="41.844821" lon="22.985948">
        <ele>1163.2</ele>
        <time>2026-05-06T07:25:41.000Z</time>
      </trkpt>
      <trkpt lat="41.844822" lon="22.985949">
        <ele>1163.2</ele>
        <time>2026-05-06T07:25:42.000Z</time>
      </trkpt>
      <trkpt lat="41.844823" lon="22.98595">
        <ele>1163.2</ele>
        <time>2026-05-06T07:25:43.000Z</time>
      </trkpt>
      <trkpt lat="41.844823" lon="22.985951">
        <ele>1163.2</ele>
        <time>2026-05-06T07:25:44.000Z</time>
      </trkpt>
      <trkpt lat="41.844823" lon="22.985951">
        <ele>1163.2</ele>
        <time>2026-05-06T07:25:45.000Z</time>
      </trkpt>
      <trkpt lat="41.844824" lon="22.98595">
        <ele>1163.2</ele>
        <time>2026-05-06T07:25:46.000Z</time>
      </trkpt>
      <trkpt lat="41.844824" lon="22.985949">
        <ele>1163.2</ele>
        <time>2026-05-06T07:25:47.000Z</time>
      </trkpt>
      <trkpt lat="41.844824" lon="22.985949">
        <ele>1163.1</ele>
        <time>2026-05-06T07:25:48.000Z</time>
      </trkpt>
      <trkpt lat="41.844824" lon="22.985948">
        <ele>1163.1</ele>
        <time>2026-05-06T07:25:49.000Z</time>
      </trkpt>
      <trkpt lat="41.844824" lon="22.985948">
        <ele>1163.1</ele>
        <time>2026-05-06T07:25:50.000Z</time>
      </trkpt>
      <trkpt lat="41.844824" lon="22.985947">
        <ele>1163.1</ele>
        <time>2026-05-06T07:25:51.000Z</time>
      </trkpt>
      <trkpt lat="41.844823" lon="22.985947">
        <ele>1163.1</ele>
        <time>2026-05-06T07:25:52.000Z</time>
      </trkpt>
      <trkpt lat="41.844823" lon="22.985947">
        <ele>1162.8</ele>
        <time>2026-05-06T07:25:53.000Z</time>
      </trkpt>
      <trkpt lat="41.844823" lon="22.985947">
        <ele>1162.8</ele>
        <time>2026-05-06T07:25:54.000Z</time>
      </trkpt>
      <trkpt lat="41.844823" lon="22.985947">
        <ele>1162.8</ele>
        <time>2026-05-06T07:25:55.000Z</time>
      </trkpt>
      <trkpt lat="41.844823" lon="22.985947">
        <ele>1162.8</ele>
        <time>2026-05-06T07:25:56.000Z</time>
      </trkpt>
      <trkpt lat="41.844824" lon="22.985946">
        <ele>1162.8</ele>
        <time>2026-05-06T07:25:57.000Z</time>
      </trkpt>
      <trkpt lat="41.844824" lon="22.985945">
        <ele>1162.6</ele>
        <time>2026-05-06T07:25:58.000Z</time>
      </trkpt>
      <trkpt lat="41.844824" lon="22.985945">
        <ele>1162.6</ele>
        <time>2026-05-06T07:25:59.000Z</time>
      </trkpt>
      <trkpt lat="41.844824" lon="22.985944">
        <ele>1162.6</ele>
        <time>2026-05-06T07:26:00.000Z</time>
      </trkpt>
      <trkpt lat="41.844824" lon="22.985944">
        <ele>1162.6</ele>
        <time>2026-05-06T07:26:01.000Z</time>
      </trkpt>
      <trkpt lat="41.844824" lon="22.985944">
        <ele>1162.6</ele>
        <time>2026-05-06T07:26:02.000Z</time>
      </trkpt>
      <trkpt lat="41.844824" lon="22.985944">
        <ele>1162.6</ele>
        <time>2026-05-06T07:26:03.000Z</time>
      </trkpt>
      <trkpt lat="41.844823" lon="22.985945">
        <ele>1162.6</ele>
        <time>2026-05-06T07:26:04.000Z</time>
      </trkpt>
      <trkpt lat="41.844823" lon="22.985945">
        <ele>1162.6</ele>
        <time>2026-05-06T07:26:05.000Z</time>
      </trkpt>
      <trkpt lat="41.844823" lon="22.985945">
        <ele>1162.6</ele>
        <time>2026-05-06T07:26:06.000Z</time>
      </trkpt>
      <trkpt lat="41.844823" lon="22.985945">
        <ele>1162.6</ele>
        <time>2026-05-06T07:26:07.000Z</time>
      </trkpt>
      <trkpt lat="41.844823" lon="22.985945">
        <ele>1162.5</ele>
        <time>2026-05-06T07:26:08.000Z</time>
      </trkpt>
      <trkpt lat="41.844823" lon="22.985945">
        <ele>1162.5</ele>
        <time>2026-05-06T07:26:09.000Z</time>
      </trkpt>
      <trkpt lat="41.844823" lon="22.985945">
        <ele>1162.5</ele>
        <time>2026-05-06T07:26:10.000Z</time>
      </trkpt>
      <trkpt lat="41.844823" lon="22.985945">
        <ele>1162.5</ele>
        <time>2026-05-06T07:26:11.000Z</time>
      </trkpt>
      <trkpt lat="41.844823" lon="22.985945">
        <ele>1162.5</ele>
        <time>2026-05-06T07:26:12.000Z</time>
      </trkpt>
      <trkpt lat="41.844823" lon="22.985946">
        <ele>1162.4</ele>
        <time>2026-05-06T07:26:13.000Z</time>
      </trkpt>
      <trkpt lat="41.844823" lon="22.985946">
        <ele>1162.4</ele>
        <time>2026-05-06T07:26:14.000Z</time>
      </trkpt>
      <trkpt lat="41.844823" lon="22.985947">
        <ele>1162.4</ele>
        <time>2026-05-06T07:26:15.000Z</time>
      </trkpt>
      <trkpt lat="41.844823" lon="22.985947">
        <ele>1162.4</ele>
        <time>2026-05-06T07:26:16.000Z</time>
      </trkpt>
      <trkpt lat="41.844823" lon="22.985947">
        <ele>1162.4</ele>
        <time>2026-05-06T07:26:17.000Z</time>
      </trkpt>
      <trkpt lat="41.844823" lon="22.985947">
        <ele>1162.3</ele>
        <time>2026-05-06T07:26:18.000Z</time>
      </trkpt>
      <trkpt lat="41.844823" lon="22.985947">
        <ele>1162.3</ele>
        <time>2026-05-06T07:26:19.000Z</time>
      </trkpt>
      <trkpt lat="41.844823" lon="22.985947">
        <ele>1162.3</ele>
        <time>2026-05-06T07:26:20.000Z</time>
      </trkpt>
      <trkpt lat="41.844823" lon="22.985947">
        <ele>1162.3</ele>
        <time>2026-05-06T07:26:21.000Z</time>
      </trkpt>
      <trkpt lat="41.844823" lon="22.985948">
        <ele>1162.3</ele>
        <time>2026-05-06T07:26:22.000Z</time>
      </trkpt>
      <trkpt lat="41.844822" lon="22.985948">
        <ele>1162.5</ele>
        <time>2026-05-06T07:26:23.000Z</time>
      </trkpt>
      <trkpt lat="41.844822" lon="22.985948">
        <ele>1162.5</ele>
        <time>2026-05-06T07:26:24.000Z</time>
      </trkpt>
      <trkpt lat="41.844821" lon="22.985949">
        <ele>1162.5</ele>
        <time>2026-05-06T07:26:25.000Z</time>
      </trkpt>
      <trkpt lat="41.844821" lon="22.98595">
        <ele>1162.5</ele>
        <time>2026-05-06T07:26:26.000Z</time>
      </trkpt>
      <trkpt lat="41.84482" lon="22.98595">
        <ele>1162.5</ele>
        <time>2026-05-06T07:26:27.000Z</time>
      </trkpt>
      <trkpt lat="41.84482" lon="22.98595">
        <ele>1162.7</ele>
        <time>2026-05-06T07:26:28.000Z</time>
      </trkpt>
      <trkpt lat="41.844819" lon="22.985951">
        <ele>1162.7</ele>
        <time>2026-05-06T07:26:29.000Z</time>
      </trkpt>
      <trkpt lat="41.844819" lon="22.985951">
        <ele>1162.7</ele>
        <time>2026-05-06T07:26:30.000Z</time>
      </trkpt>
      <trkpt lat="41.844819" lon="22.985951">
        <ele>1162.7</ele>
        <time>2026-05-06T07:26:31.000Z</time>
      </trkpt>
      <trkpt lat="41.844819" lon="22.985951">
        <ele>1162.7</ele>
        <time>2026-05-06T07:26:32.000Z</time>
      </trkpt>
      <trkpt lat="41.844819" lon="22.985951">
        <ele>1162.8</ele>
        <time>2026-05-06T07:26:33.000Z</time>
      </trkpt>
      <trkpt lat="41.844819" lon="22.985951">
        <ele>1162.8</ele>
        <time>2026-05-06T07:26:34.000Z</time>
      </trkpt>
      <trkpt lat="41.844819" lon="22.985951">
        <ele>1162.8</ele>
        <time>2026-05-06T07:26:35.000Z</time>
      </trkpt>
      <trkpt lat="41.844819" lon="22.985951">
        <ele>1162.8</ele>
        <time>2026-05-06T07:26:36.000Z</time>
      </trkpt>
      <trkpt lat="41.844819" lon="22.985951">
        <ele>1162.8</ele>
        <time>2026-05-06T07:26:37.000Z</time>
      </trkpt>
      <trkpt lat="41.844819" lon="22.985951">
        <ele>1162.8</ele>
        <time>2026-05-06T07:26:38.000Z</time>
      </trkpt>
      <trkpt lat="41.844819" lon="22.985951">
        <ele>1162.8</ele>
        <time>2026-05-06T07:26:39.000Z</time>
      </trkpt>
      <trkpt lat="41.844819" lon="22.985951">
        <ele>1162.8</ele>
        <time>2026-05-06T07:26:40.000Z</time>
      </trkpt>
      <trkpt lat="41.844819" lon="22.985951">
        <ele>1162.8</ele>
        <time>2026-05-06T07:26:41.000Z</time>
      </trkpt>
      <trkpt lat="41.844819" lon="22.985951">
        <ele>1162.8</ele>
        <time>2026-05-06T07:26:42.000Z</time>
      </trkpt>
      <trkpt lat="41.844819" lon="22.985951">
        <ele>1162.7</ele>
        <time>2026-05-06T07:26:43.000Z</time>
      </trkpt>
      <trkpt lat="41.844819" lon="22.985951">
        <ele>1162.7</ele>
        <time>2026-05-06T07:26:44.000Z</time>
      </trkpt>
      <trkpt lat="41.844819" lon="22.985951">
        <ele>1162.7</ele>
        <time>2026-05-06T07:26:45.000Z</time>
      </trkpt>
      <trkpt lat="41.844819" lon="22.985952">
        <ele>1162.7</ele>
        <time>2026-05-06T07:26:46.000Z</time>
      </trkpt>
      <trkpt lat="41.844819" lon="22.985952">
        <ele>1162.7</ele>
        <time>2026-05-06T07:26:47.000Z</time>
      </trkpt>
      <trkpt lat="41.844819" lon="22.985952">
        <ele>1162.7</ele>
        <time>2026-05-06T07:26:48.000Z</time>
      </trkpt>
      <trkpt lat="41.844819" lon="22.985952">
        <ele>1162.7</ele>
        <time>2026-05-06T07:26:49.000Z</time>
      </trkpt>
      <trkpt lat="41.84482" lon="22.985952">
        <ele>1162.7</ele>
        <time>2026-05-06T07:26:50.000Z</time>
      </trkpt>
      <trkpt lat="41.844823" lon="22.985952">
        <ele>1162.7</ele>
        <time>2026-05-06T07:26:51.000Z</time>
      </trkpt>
      <trkpt lat="41.844827" lon="22.985954">
        <ele>1162.7</ele>
        <time>2026-05-06T07:26:52.000Z</time>
      </trkpt>
      <trkpt lat="41.844833" lon="22.985954">
        <ele>1162.7</ele>
        <time>2026-05-06T07:26:53.000Z</time>
      </trkpt>
      <trkpt lat="41.844839" lon="22.985957">
        <ele>1162.7</ele>
        <time>2026-05-06T07:26:54.000Z</time>
      </trkpt>
      <trkpt lat="41.844845" lon="22.985961">
        <ele>1162.7</ele>
        <time>2026-05-06T07:26:55.000Z</time>
      </trkpt>
      <trkpt lat="41.844848" lon="22.985966">
        <ele>1162.7</ele>
        <time>2026-05-06T07:26:56.000Z</time>
      </trkpt>
      <trkpt lat="41.844851" lon="22.985971">
        <ele>1162.7</ele>
        <time>2026-05-06T07:26:57.000Z</time>
      </trkpt>
      <trkpt lat="41.844853" lon="22.985975">
        <ele>1162.8</ele>
        <time>2026-05-06T07:26:58.000Z</time>
      </trkpt>
      <trkpt lat="41.844855" lon="22.985979">
        <ele>1162.8</ele>
        <time>2026-05-06T07:26:59.000Z</time>
      </trkpt>
      <trkpt lat="41.844857" lon="22.98598">
        <ele>1162.8</ele>
        <time>2026-05-06T07:27:00.000Z</time>
      </trkpt>
      <trkpt lat="41.844859" lon="22.985982">
        <ele>1162.8</ele>
        <time>2026-05-06T07:27:01.000Z</time>
      </trkpt>
      <trkpt lat="41.844859" lon="22.985983">
        <ele>1162.8</ele>
        <time>2026-05-06T07:27:02.000Z</time>
      </trkpt>
      <trkpt lat="41.84486" lon="22.985984">
        <ele>1163</ele>
        <time>2026-05-06T07:27:03.000Z</time>
      </trkpt>
      <trkpt lat="41.844861" lon="22.985984">
        <ele>1163</ele>
        <time>2026-05-06T07:27:04.000Z</time>
      </trkpt>
      <trkpt lat="41.844861" lon="22.985984">
        <ele>1163</ele>
        <time>2026-05-06T07:27:05.000Z</time>
      </trkpt>
      <trkpt lat="41.844862" lon="22.985984">
        <ele>1163</ele>
        <time>2026-05-06T07:27:06.000Z</time>
      </trkpt>
      <trkpt lat="41.844862" lon="22.985985">
        <ele>1163</ele>
        <time>2026-05-06T07:27:07.000Z</time>
      </trkpt>
      <trkpt lat="41.844862" lon="22.985985">
        <ele>1163.4</ele>
        <time>2026-05-06T07:27:08.000Z</time>
      </trkpt>
      <trkpt lat="41.844862" lon="22.985985">
        <ele>1163.4</ele>
        <time>2026-05-06T07:27:09.000Z</time>
      </trkpt>
      <trkpt lat="41.844862" lon="22.985985">
        <ele>1163.4</ele>
        <time>2026-05-06T07:27:10.000Z</time>
      </trkpt>
      <trkpt lat="41.844863" lon="22.985985">
        <ele>1163.4</ele>
        <time>2026-05-06T07:27:11.000Z</time>
      </trkpt>
      <trkpt lat="41.844864" lon="22.985984">
        <ele>1163.4</ele>
        <time>2026-05-06T07:27:12.000Z</time>
      </trkpt>
      <trkpt lat="41.844865" lon="22.985984">
        <ele>1163.7</ele>
        <time>2026-05-06T07:27:13.000Z</time>
      </trkpt>
      <trkpt lat="41.844866" lon="22.985983">
        <ele>1163.7</ele>
        <time>2026-05-06T07:27:14.000Z</time>
      </trkpt>
      <trkpt lat="41.844866" lon="22.985983">
        <ele>1163.7</ele>
        <time>2026-05-06T07:27:15.000Z</time>
      </trkpt>
      <trkpt lat="41.844866" lon="22.985983">
        <ele>1163.7</ele>
        <time>2026-05-06T07:27:16.000Z</time>
      </trkpt>
      <trkpt lat="41.844865" lon="22.985983">
        <ele>1163.7</ele>
        <time>2026-05-06T07:27:17.000Z</time>
      </trkpt>
      <trkpt lat="41.844865" lon="22.985984">
        <ele>1163.7</ele>
        <time>2026-05-06T07:27:18.000Z</time>
      </trkpt>
      <trkpt lat="41.844865" lon="22.985984">
        <ele>1163.7</ele>
        <time>2026-05-06T07:27:19.000Z</time>
      </trkpt>
      <trkpt lat="41.844864" lon="22.985985">
        <ele>1163.7</ele>
        <time>2026-05-06T07:27:20.000Z</time>
      </trkpt>
      <trkpt lat="41.844864" lon="22.985985">
        <ele>1163.7</ele>
        <time>2026-05-06T07:27:21.000Z</time>
      </trkpt>
      <trkpt lat="41.844864" lon="22.985985">
        <ele>1163.7</ele>
        <time>2026-05-06T07:27:22.000Z</time>
      </trkpt>
      <trkpt lat="41.844864" lon="22.985985">
        <ele>1163.5</ele>
        <time>2026-05-06T07:27:23.000Z</time>
      </trkpt>
      <trkpt lat="41.844864" lon="22.985985">
        <ele>1163.5</ele>
        <time>2026-05-06T07:27:24.000Z</time>
      </trkpt>
      <trkpt lat="41.844864" lon="22.985986">
        <ele>1163.5</ele>
        <time>2026-05-06T07:27:25.000Z</time>
      </trkpt>
      <trkpt lat="41.844864" lon="22.985986">
        <ele>1163.5</ele>
        <time>2026-05-06T07:27:26.000Z</time>
      </trkpt>
      <trkpt lat="41.844864" lon="22.985986">
        <ele>1163.5</ele>
        <time>2026-05-06T07:27:27.000Z</time>
      </trkpt>
      <trkpt lat="41.844864" lon="22.985986">
        <ele>1163.1</ele>
        <time>2026-05-06T07:27:28.000Z</time>
      </trkpt>
      <trkpt lat="41.844864" lon="22.985986">
        <ele>1163.1</ele>
        <time>2026-05-06T07:27:29.000Z</time>
      </trkpt>
      <trkpt lat="41.844864" lon="22.985987">
        <ele>1163.1</ele>
        <time>2026-05-06T07:27:30.000Z</time>
      </trkpt>
      <trkpt lat="41.844864" lon="22.985987">
        <ele>1163.1</ele>
        <time>2026-05-06T07:27:31.000Z</time>
      </trkpt>
      <trkpt lat="41.844865" lon="22.985987">
        <ele>1163.1</ele>
        <time>2026-05-06T07:27:32.000Z</time>
      </trkpt>
      <trkpt lat="41.844865" lon="22.985988">
        <ele>1163</ele>
        <time>2026-05-06T07:27:33.000Z</time>
      </trkpt>
      <trkpt lat="41.844865" lon="22.985988">
        <ele>1163</ele>
        <time>2026-05-06T07:27:34.000Z</time>
      </trkpt>
      <trkpt lat="41.844865" lon="22.985988">
        <ele>1163</ele>
        <time>2026-05-06T07:27:35.000Z</time>
      </trkpt>
      <trkpt lat="41.844865" lon="22.985988">
        <ele>1163</ele>
        <time>2026-05-06T07:27:36.000Z</time>
      </trkpt>
      <trkpt lat="41.844864" lon="22.985988">
        <ele>1163</ele>
        <time>2026-05-06T07:27:37.000Z</time>
      </trkpt>
      <trkpt lat="41.844864" lon="22.985988">
        <ele>1163.2</ele>
        <time>2026-05-06T07:27:38.000Z</time>
      </trkpt>
      <trkpt lat="41.844864" lon="22.985987">
        <ele>1163.2</ele>
        <time>2026-05-06T07:27:39.000Z</time>
      </trkpt>
      <trkpt lat="41.844865" lon="22.985985">
        <ele>1163.2</ele>
        <time>2026-05-06T07:27:40.000Z</time>
      </trkpt>
      <trkpt lat="41.844866" lon="22.985983">
        <ele>1163.2</ele>
        <time>2026-05-06T07:27:41.000Z</time>
      </trkpt>
      <trkpt lat="41.844867" lon="22.985981">
        <ele>1163.2</ele>
        <time>2026-05-06T07:27:42.000Z</time>
      </trkpt>
      <trkpt lat="41.844867" lon="22.98598">
        <ele>1163.6</ele>
        <time>2026-05-06T07:27:43.000Z</time>
      </trkpt>
      <trkpt lat="41.844868" lon="22.98598">
        <ele>1163.6</ele>
        <time>2026-05-06T07:27:44.000Z</time>
      </trkpt>
      <trkpt lat="41.844866" lon="22.98598">
        <ele>1163.6</ele>
        <time>2026-05-06T07:27:45.000Z</time>
      </trkpt>
      <trkpt lat="41.844865" lon="22.98598">
        <ele>1163.6</ele>
        <time>2026-05-06T07:27:46.000Z</time>
      </trkpt>
      <trkpt lat="41.844863" lon="22.98598">
        <ele>1163.6</ele>
        <time>2026-05-06T07:27:47.000Z</time>
      </trkpt>
      <trkpt lat="41.844862" lon="22.98598">
        <ele>1163.8</ele>
        <time>2026-05-06T07:27:48.000Z</time>
      </trkpt>
      <trkpt lat="41.844861" lon="22.98598">
        <ele>1163.8</ele>
        <time>2026-05-06T07:27:49.000Z</time>
      </trkpt>
      <trkpt lat="41.844861" lon="22.98598">
        <ele>1163.8</ele>
        <time>2026-05-06T07:27:50.000Z</time>
      </trkpt>
      <trkpt lat="41.844861" lon="22.98598">
        <ele>1163.8</ele>
        <time>2026-05-06T07:27:51.000Z</time>
      </trkpt>
      <trkpt lat="41.844862" lon="22.98598">
        <ele>1163.8</ele>
        <time>2026-05-06T07:27:52.000Z</time>
      </trkpt>
      <trkpt lat="41.844862" lon="22.98598">
        <ele>1163.6</ele>
        <time>2026-05-06T07:27:53.000Z</time>
      </trkpt>
      <trkpt lat="41.844862" lon="22.98598">
        <ele>1163.6</ele>
        <time>2026-05-06T07:27:54.000Z</time>
      </trkpt>
      <trkpt lat="41.844862" lon="22.98598">
        <ele>1163.6</ele>
        <time>2026-05-06T07:27:55.000Z</time>
      </trkpt>
      <trkpt lat="41.844862" lon="22.98598">
        <ele>1163.6</ele>
        <time>2026-05-06T07:27:56.000Z</time>
      </trkpt>
      <trkpt lat="41.844862" lon="22.98598">
        <ele>1163.6</ele>
        <time>2026-05-06T07:27:57.000Z</time>
      </trkpt>
      <trkpt lat="41.844862" lon="22.98598">
        <ele>1163.2</ele>
        <time>2026-05-06T07:27:58.000Z</time>
      </trkpt>
      <trkpt lat="41.844862" lon="22.98598">
        <ele>1163.2</ele>
        <time>2026-05-06T07:27:59.000Z</time>
      </trkpt>
      <trkpt lat="41.844862" lon="22.98598">
        <ele>1163.2</ele>
        <time>2026-05-06T07:28:00.000Z</time>
      </trkpt>
      <trkpt lat="41.844862" lon="22.98598">
        <ele>1163.2</ele>
        <time>2026-05-06T07:28:01.000Z</time>
      </trkpt>
      <trkpt lat="41.844862" lon="22.985981">
        <ele>1163.2</ele>
        <time>2026-05-06T07:28:02.000Z</time>
      </trkpt>
      <trkpt lat="41.844863" lon="22.985981">
        <ele>1163</ele>
        <time>2026-05-06T07:28:03.000Z</time>
      </trkpt>
      <trkpt lat="41.844864" lon="22.985981">
        <ele>1163</ele>
        <time>2026-05-06T07:28:04.000Z</time>
      </trkpt>
      <trkpt lat="41.844865" lon="22.985981">
        <ele>1163</ele>
        <time>2026-05-06T07:28:05.000Z</time>
      </trkpt>
      <trkpt lat="41.844866" lon="22.98598">
        <ele>1163</ele>
        <time>2026-05-06T07:28:06.000Z</time>
      </trkpt>
      <trkpt lat="41.844867" lon="22.98598">
        <ele>1163</ele>
        <time>2026-05-06T07:28:07.000Z</time>
      </trkpt>
      <trkpt lat="41.844867" lon="22.985979">
        <ele>1162.9</ele>
        <time>2026-05-06T07:28:08.000Z</time>
      </trkpt>
      <trkpt lat="41.844868" lon="22.985979">
        <ele>1162.9</ele>
        <time>2026-05-06T07:28:09.000Z</time>
      </trkpt>
      <trkpt lat="41.844868" lon="22.985978">
        <ele>1162.9</ele>
        <time>2026-05-06T07:28:10.000Z</time>
      </trkpt>
      <trkpt lat="41.844868" lon="22.985978">
        <ele>1162.9</ele>
        <time>2026-05-06T07:28:11.000Z</time>
      </trkpt>
      <trkpt lat="41.844868" lon="22.985978">
        <ele>1162.9</ele>
        <time>2026-05-06T07:28:12.000Z</time>
      </trkpt>
      <trkpt lat="41.844868" lon="22.985978">
        <ele>1163.3</ele>
        <time>2026-05-06T07:28:13.000Z</time>
      </trkpt>
      <trkpt lat="41.844868" lon="22.985978">
        <ele>1163.3</ele>
        <time>2026-05-06T07:28:14.000Z</time>
      </trkpt>
      <trkpt lat="41.844868" lon="22.985978">
        <ele>1163.3</ele>
        <time>2026-05-06T07:28:15.000Z</time>
      </trkpt>
      <trkpt lat="41.844868" lon="22.985978">
        <ele>1163.3</ele>
        <time>2026-05-06T07:28:16.000Z</time>
      </trkpt>
      <trkpt lat="41.844867" lon="22.985979">
        <ele>1163.3</ele>
        <time>2026-05-06T07:28:17.000Z</time>
      </trkpt>
      <trkpt lat="41.844867" lon="22.985979">
        <ele>1163.6</ele>
        <time>2026-05-06T07:28:18.000Z</time>
      </trkpt>
      <trkpt lat="41.844867" lon="22.985979">
        <ele>1163.6</ele>
        <time>2026-05-06T07:28:19.000Z</time>
      </trkpt>
      <trkpt lat="41.844867" lon="22.985979">
        <ele>1163.6</ele>
        <time>2026-05-06T07:28:20.000Z</time>
      </trkpt>
      <trkpt lat="41.844867" lon="22.985979">
        <ele>1163.6</ele>
        <time>2026-05-06T07:28:21.000Z</time>
      </trkpt>
      <trkpt lat="41.844867" lon="22.985979">
        <ele>1163.6</ele>
        <time>2026-05-06T07:28:22.000Z</time>
      </trkpt>
      <trkpt lat="41.844867" lon="22.985979">
        <ele>1164</ele>
        <time>2026-05-06T07:28:23.000Z</time>
      </trkpt>
      <trkpt lat="41.844867" lon="22.985979">
        <ele>1164</ele>
        <time>2026-05-06T07:28:24.000Z</time>
      </trkpt>
      <trkpt lat="41.844867" lon="22.985979">
        <ele>1164</ele>
        <time>2026-05-06T07:28:25.000Z</time>
      </trkpt>
      <trkpt lat="41.844867" lon="22.985979">
        <ele>1164</ele>
        <time>2026-05-06T07:28:26.000Z</time>
      </trkpt>
      <trkpt lat="41.844867" lon="22.985979">
        <ele>1164</ele>
        <time>2026-05-06T07:28:27.000Z</time>
      </trkpt>
      <trkpt lat="41.844867" lon="22.985979">
        <ele>1163.9</ele>
        <time>2026-05-06T07:28:28.000Z</time>
      </trkpt>
      <trkpt lat="41.844868" lon="22.985978">
        <ele>1163.9</ele>
        <time>2026-05-06T07:28:29.000Z</time>
      </trkpt>
      <trkpt lat="41.844868" lon="22.985978">
        <ele>1163.9</ele>
        <time>2026-05-06T07:28:30.000Z</time>
      </trkpt>
      <trkpt lat="41.844868" lon="22.985978">
        <ele>1163.9</ele>
        <time>2026-05-06T07:28:31.000Z</time>
      </trkpt>
      <trkpt lat="41.844868" lon="22.985978">
        <ele>1163.9</ele>
        <time>2026-05-06T07:28:32.000Z</time>
      </trkpt>
      <trkpt lat="41.844868" lon="22.985979">
        <ele>1163.8</ele>
        <time>2026-05-06T07:28:33.000Z</time>
      </trkpt>
      <trkpt lat="41.844868" lon="22.985979">
        <ele>1163.8</ele>
        <time>2026-05-06T07:28:34.000Z</time>
      </trkpt>
      <trkpt lat="41.844868" lon="22.98598">
        <ele>1163.8</ele>
        <time>2026-05-06T07:28:35.000Z</time>
      </trkpt>
      <trkpt lat="41.844868" lon="22.98598">
        <ele>1163.8</ele>
        <time>2026-05-06T07:28:36.000Z</time>
      </trkpt>
      <trkpt lat="41.844868" lon="22.98598">
        <ele>1163.8</ele>
        <time>2026-05-06T07:28:37.000Z</time>
      </trkpt>
      <trkpt lat="41.844868" lon="22.98598">
        <ele>1163.6</ele>
        <time>2026-05-06T07:28:38.000Z</time>
      </trkpt>
      <trkpt lat="41.844868" lon="22.98598">
        <ele>1163.6</ele>
        <time>2026-05-06T07:28:39.000Z</time>
      </trkpt>
      <trkpt lat="41.844867" lon="22.985979">
        <ele>1163.6</ele>
        <time>2026-05-06T07:28:40.000Z</time>
      </trkpt>
      <trkpt lat="41.844867" lon="22.985979">
        <ele>1163.6</ele>
        <time>2026-05-06T07:28:41.000Z</time>
      </trkpt>
      <trkpt lat="41.844867" lon="22.985979">
        <ele>1163.6</ele>
        <time>2026-05-06T07:28:42.000Z</time>
      </trkpt>
      <trkpt lat="41.844867" lon="22.985979">
        <ele>1163.6</ele>
        <time>2026-05-06T07:28:43.000Z</time>
      </trkpt>
      <trkpt lat="41.844867" lon="22.985978">
        <ele>1163.6</ele>
        <time>2026-05-06T07:28:44.000Z</time>
      </trkpt>
      <trkpt lat="41.844867" lon="22.985978">
        <ele>1163.6</ele>
        <time>2026-05-06T07:28:45.000Z</time>
      </trkpt>
      <trkpt lat="41.844866" lon="22.985977">
        <ele>1163.6</ele>
        <time>2026-05-06T07:28:46.000Z</time>
      </trkpt>
      <trkpt lat="41.844865" lon="22.985978">
        <ele>1163.6</ele>
        <time>2026-05-06T07:28:47.000Z</time>
      </trkpt>
      <trkpt lat="41.844864" lon="22.985978">
        <ele>1163.6</ele>
        <time>2026-05-06T07:28:48.000Z</time>
      </trkpt>
      <trkpt lat="41.844862" lon="22.985978">
        <ele>1163.6</ele>
        <time>2026-05-06T07:28:49.000Z</time>
      </trkpt>
      <trkpt lat="41.84486" lon="22.98598">
        <ele>1163.6</ele>
        <time>2026-05-06T07:28:50.000Z</time>
      </trkpt>
      <trkpt lat="41.844858" lon="22.985981">
        <ele>1163.6</ele>
        <time>2026-05-06T07:28:51.000Z</time>
      </trkpt>
      <trkpt lat="41.844858" lon="22.985982">
        <ele>1163.6</ele>
        <time>2026-05-06T07:28:52.000Z</time>
      </trkpt>
      <trkpt lat="41.844857" lon="22.985983">
        <ele>1163.7</ele>
        <time>2026-05-06T07:28:53.000Z</time>
      </trkpt>
      <trkpt lat="41.844858" lon="22.985983">
        <ele>1163.7</ele>
        <time>2026-05-06T07:28:54.000Z</time>
      </trkpt>
      <trkpt lat="41.844859" lon="22.985983">
        <ele>1163.7</ele>
        <time>2026-05-06T07:28:55.000Z</time>
      </trkpt>
      <trkpt lat="41.84486" lon="22.985983">
        <ele>1163.7</ele>
        <time>2026-05-06T07:28:56.000Z</time>
      </trkpt>
      <trkpt lat="41.84486" lon="22.985983">
        <ele>1163.7</ele>
        <time>2026-05-06T07:28:57.000Z</time>
      </trkpt>
      <trkpt lat="41.844861" lon="22.985983">
        <ele>1163.8</ele>
        <time>2026-05-06T07:28:58.000Z</time>
      </trkpt>
      <trkpt lat="41.844861" lon="22.985983">
        <ele>1163.8</ele>
        <time>2026-05-06T07:28:59.000Z</time>
      </trkpt>
      <trkpt lat="41.844861" lon="22.985983">
        <ele>1163.8</ele>
        <time>2026-05-06T07:29:00.000Z</time>
      </trkpt>
      <trkpt lat="41.844861" lon="22.985983">
        <ele>1163.8</ele>
        <time>2026-05-06T07:29:01.000Z</time>
      </trkpt>
      <trkpt lat="41.844861" lon="22.985983">
        <ele>1163.8</ele>
        <time>2026-05-06T07:29:02.000Z</time>
      </trkpt>
      <trkpt lat="41.844861" lon="22.985983">
        <ele>1163.8</ele>
        <time>2026-05-06T07:29:03.000Z</time>
      </trkpt>
      <trkpt lat="41.844861" lon="22.985983">
        <ele>1163.8</ele>
        <time>2026-05-06T07:29:04.000Z</time>
      </trkpt>
      <trkpt lat="41.84486" lon="22.985984">
        <ele>1163.8</ele>
        <time>2026-05-06T07:29:05.000Z</time>
      </trkpt>
      <trkpt lat="41.84486" lon="22.985984">
        <ele>1163.8</ele>
        <time>2026-05-06T07:29:06.000Z</time>
      </trkpt>
      <trkpt lat="41.84486" lon="22.985984">
        <ele>1163.8</ele>
        <time>2026-05-06T07:29:07.000Z</time>
      </trkpt>
      <trkpt lat="41.844859" lon="22.985985">
        <ele>1163.8</ele>
        <time>2026-05-06T07:29:08.000Z</time>
      </trkpt>
      <trkpt lat="41.844859" lon="22.985985">
        <ele>1163.8</ele>
        <time>2026-05-06T07:29:09.000Z</time>
      </trkpt>
      <trkpt lat="41.844859" lon="22.985984">
        <ele>1163.8</ele>
        <time>2026-05-06T07:29:10.000Z</time>
      </trkpt>
      <trkpt lat="41.844859" lon="22.985984">
        <ele>1163.8</ele>
        <time>2026-05-06T07:29:11.000Z</time>
      </trkpt>
      <trkpt lat="41.844858" lon="22.985984">
        <ele>1163.8</ele>
        <time>2026-05-06T07:29:12.000Z</time>
      </trkpt>
      <trkpt lat="41.844858" lon="22.985983">
        <ele>1163.8</ele>
        <time>2026-05-06T07:29:13.000Z</time>
      </trkpt>
      <trkpt lat="41.844858" lon="22.985983">
        <ele>1163.8</ele>
        <time>2026-05-06T07:29:14.000Z</time>
      </trkpt>
      <trkpt lat="41.844859" lon="22.985983">
        <ele>1163.8</ele>
        <time>2026-05-06T07:29:15.000Z</time>
      </trkpt>
      <trkpt lat="41.844859" lon="22.985983">
        <ele>1163.8</ele>
        <time>2026-05-06T07:29:16.000Z</time>
      </trkpt>
      <trkpt lat="41.844859" lon="22.985983">
        <ele>1163.8</ele>
        <time>2026-05-06T07:29:17.000Z</time>
      </trkpt>
      <trkpt lat="41.84486" lon="22.985983">
        <ele>1163.9</ele>
        <time>2026-05-06T07:29:18.000Z</time>
      </trkpt>
      <trkpt lat="41.84486" lon="22.985983">
        <ele>1163.9</ele>
        <time>2026-05-06T07:29:19.000Z</time>
      </trkpt>
      <trkpt lat="41.844861" lon="22.985984">
        <ele>1163.9</ele>
        <time>2026-05-06T07:29:20.000Z</time>
      </trkpt>
      <trkpt lat="41.844861" lon="22.985984">
        <ele>1163.9</ele>
        <time>2026-05-06T07:29:21.000Z</time>
      </trkpt>
      <trkpt lat="41.844862" lon="22.985985">
        <ele>1163.9</ele>
        <time>2026-05-06T07:29:22.000Z</time>
      </trkpt>
      <trkpt lat="41.844862" lon="22.985985">
        <ele>1164</ele>
        <time>2026-05-06T07:29:23.000Z</time>
      </trkpt>
      <trkpt lat="41.844863" lon="22.985985">
        <ele>1164</ele>
        <time>2026-05-06T07:29:24.000Z</time>
      </trkpt>
      <trkpt lat="41.844863" lon="22.985984">
        <ele>1164</ele>
        <time>2026-05-06T07:29:25.000Z</time>
      </trkpt>
      <trkpt lat="41.844863" lon="22.985984">
        <ele>1164</ele>
        <time>2026-05-06T07:29:26.000Z</time>
      </trkpt>
      <trkpt lat="41.844863" lon="22.985983">
        <ele>1164</ele>
        <time>2026-05-06T07:29:27.000Z</time>
      </trkpt>
      <trkpt lat="41.844864" lon="22.985982">
        <ele>1164.1</ele>
        <time>2026-05-06T07:29:28.000Z</time>
      </trkpt>
      <trkpt lat="41.844864" lon="22.985982">
        <ele>1164.1</ele>
        <time>2026-05-06T07:29:29.000Z</time>
      </trkpt>
      <trkpt lat="41.844864" lon="22.985981">
        <ele>1164.1</ele>
        <time>2026-05-06T07:29:30.000Z</time>
      </trkpt>
      <trkpt lat="41.844864" lon="22.98598">
        <ele>1164.1</ele>
        <time>2026-05-06T07:29:31.000Z</time>
      </trkpt>
      <trkpt lat="41.844865" lon="22.985978">
        <ele>1164.1</ele>
        <time>2026-05-06T07:29:32.000Z</time>
      </trkpt>
      <trkpt lat="41.844865" lon="22.985978">
        <ele>1164.1</ele>
        <time>2026-05-06T07:29:33.000Z</time>
      </trkpt>
      <trkpt lat="41.844865" lon="22.985977">
        <ele>1164.1</ele>
        <time>2026-05-06T07:29:34.000Z</time>
      </trkpt>
      <trkpt lat="41.844865" lon="22.985976">
        <ele>1164.1</ele>
        <time>2026-05-06T07:29:35.000Z</time>
      </trkpt>
      <trkpt lat="41.844866" lon="22.985975">
        <ele>1164.1</ele>
        <time>2026-05-06T07:29:36.000Z</time>
      </trkpt>
      <trkpt lat="41.844866" lon="22.985975">
        <ele>1164.1</ele>
        <time>2026-05-06T07:29:37.000Z</time>
      </trkpt>
      <trkpt lat="41.844866" lon="22.985974">
        <ele>1164</ele>
        <time>2026-05-06T07:29:38.000Z</time>
      </trkpt>
      <trkpt lat="41.844866" lon="22.985974">
        <ele>1164</ele>
        <time>2026-05-06T07:29:39.000Z</time>
      </trkpt>
      <trkpt lat="41.844865" lon="22.985973">
        <ele>1164</ele>
        <time>2026-05-06T07:29:40.000Z</time>
      </trkpt>
      <trkpt lat="41.844865" lon="22.985974">
        <ele>1164</ele>
        <time>2026-05-06T07:29:41.000Z</time>
      </trkpt>
      <trkpt lat="41.844864" lon="22.985974">
        <ele>1164</ele>
        <time>2026-05-06T07:29:42.000Z</time>
      </trkpt>
      <trkpt lat="41.844864" lon="22.985974">
        <ele>1163.9</ele>
        <time>2026-05-06T07:29:43.000Z</time>
      </trkpt>
      <trkpt lat="41.844863" lon="22.985974">
        <ele>1163.9</ele>
        <time>2026-05-06T07:29:44.000Z</time>
      </trkpt>
      <trkpt lat="41.844863" lon="22.985973">
        <ele>1163.9</ele>
        <time>2026-05-06T07:29:45.000Z</time>
      </trkpt>
      <trkpt lat="41.844863" lon="22.985974">
        <ele>1163.9</ele>
        <time>2026-05-06T07:29:46.000Z</time>
      </trkpt>
      <trkpt lat="41.844863" lon="22.985974">
        <ele>1163.9</ele>
        <time>2026-05-06T07:29:47.000Z</time>
      </trkpt>
      <trkpt lat="41.844863" lon="22.985975">
        <ele>1163.9</ele>
        <time>2026-05-06T07:29:48.000Z</time>
      </trkpt>
      <trkpt lat="41.844863" lon="22.985975">
        <ele>1163.9</ele>
        <time>2026-05-06T07:29:49.000Z</time>
      </trkpt>
      <trkpt lat="41.844863" lon="22.985975">
        <ele>1163.9</ele>
        <time>2026-05-06T07:29:50.000Z</time>
      </trkpt>
      <trkpt lat="41.844863" lon="22.985976">
        <ele>1163.9</ele>
        <time>2026-05-06T07:29:51.000Z</time>
      </trkpt>
      <trkpt lat="41.844863" lon="22.985976">
        <ele>1163.9</ele>
        <time>2026-05-06T07:29:52.000Z</time>
      </trkpt>
      <trkpt lat="41.844862" lon="22.985977">
        <ele>1163.9</ele>
        <time>2026-05-06T07:29:53.000Z</time>
      </trkpt>
      <trkpt lat="41.844861" lon="22.98598">
        <ele>1163.9</ele>
        <time>2026-05-06T07:29:54.000Z</time>
      </trkpt>
      <trkpt lat="41.84486" lon="22.985984">
        <ele>1163.9</ele>
        <time>2026-05-06T07:29:55.000Z</time>
      </trkpt>
      <trkpt lat="41.844859" lon="22.985987">
        <ele>1163.9</ele>
        <time>2026-05-06T07:29:56.000Z</time>
      </trkpt>
      <trkpt lat="41.844857" lon="22.985991">
        <ele>1163.9</ele>
        <time>2026-05-06T07:29:57.000Z</time>
      </trkpt>
      <trkpt lat="41.844856" lon="22.985993">
        <ele>1164.1</ele>
        <time>2026-05-06T07:29:58.000Z</time>
      </trkpt>
      <trkpt lat="41.844855" lon="22.985995">
        <ele>1164.1</ele>
        <time>2026-05-06T07:29:59.000Z</time>
      </trkpt>
      <trkpt lat="41.844853" lon="22.985996">
        <ele>1164.1</ele>
        <time>2026-05-06T07:30:00.000Z</time>
      </trkpt>
      <trkpt lat="41.844851" lon="22.985997">
        <ele>1164.1</ele>
        <time>2026-05-06T07:30:01.000Z</time>
      </trkpt>
      <trkpt lat="41.844848" lon="22.985999">
        <ele>1164.1</ele>
        <time>2026-05-06T07:30:02.000Z</time>
      </trkpt>
      <trkpt lat="41.844845" lon="22.986001">
        <ele>1164.1</ele>
        <time>2026-05-06T07:30:03.000Z</time>
      </trkpt>
      <trkpt lat="41.844842" lon="22.986002">
        <ele>1164.1</ele>
        <time>2026-05-06T07:30:04.000Z</time>
      </trkpt>
      <trkpt lat="41.844838" lon="22.986002">
        <ele>1164.1</ele>
        <time>2026-05-06T07:30:05.000Z</time>
      </trkpt>
      <trkpt lat="41.844835" lon="22.986002">
        <ele>1164.1</ele>
        <time>2026-05-06T07:30:06.000Z</time>
      </trkpt>
      <trkpt lat="41.844831" lon="22.986">
        <ele>1164.1</ele>
        <time>2026-05-06T07:30:07.000Z</time>
      </trkpt>
      <trkpt lat="41.844826" lon="22.985997">
        <ele>1163.9</ele>
        <time>2026-05-06T07:30:08.000Z</time>
      </trkpt>
      <trkpt lat="41.844821" lon="22.985993">
        <ele>1163.9</ele>
        <time>2026-05-06T07:30:09.000Z</time>
      </trkpt>
      <trkpt lat="41.844816" lon="22.985987">
        <ele>1163.9</ele>
        <time>2026-05-06T07:30:10.000Z</time>
      </trkpt>
      <trkpt lat="41.844813" lon="22.98598">
        <ele>1163.9</ele>
        <time>2026-05-06T07:30:11.000Z</time>
      </trkpt>
      <trkpt lat="41.84481" lon="22.985974">
        <ele>1163.9</ele>
        <time>2026-05-06T07:30:12.000Z</time>
      </trkpt>
      <trkpt lat="41.844809" lon="22.98597">
        <ele>1163.5</ele>
        <time>2026-05-06T07:30:13.000Z</time>
      </trkpt>
      <trkpt lat="41.844809" lon="22.985968">
        <ele>1163.5</ele>
        <time>2026-05-06T07:30:14.000Z</time>
      </trkpt>
      <trkpt lat="41.844809" lon="22.985968">
        <ele>1163.5</ele>
        <time>2026-05-06T07:30:15.000Z</time>
      </trkpt>
      <trkpt lat="41.844809" lon="22.98597">
        <ele>1163.5</ele>
        <time>2026-05-06T07:30:16.000Z</time>
      </trkpt>
      <trkpt lat="41.84481" lon="22.985971">
        <ele>1163.5</ele>
        <time>2026-05-06T07:30:17.000Z</time>
      </trkpt>
      <trkpt lat="41.84481" lon="22.985971">
        <ele>1163.4</ele>
        <time>2026-05-06T07:30:18.000Z</time>
      </trkpt>
      <trkpt lat="41.844809" lon="22.985971">
        <ele>1163.4</ele>
        <time>2026-05-06T07:30:19.000Z</time>
      </trkpt>
      <trkpt lat="41.844809" lon="22.985971">
        <ele>1163.4</ele>
        <time>2026-05-06T07:30:20.000Z</time>
      </trkpt>
      <trkpt lat="41.844808" lon="22.985971">
        <ele>1163.4</ele>
        <time>2026-05-06T07:30:21.000Z</time>
      </trkpt>
      <trkpt lat="41.844809" lon="22.985971">
        <ele>1163.4</ele>
        <time>2026-05-06T07:30:22.000Z</time>
      </trkpt>
      <trkpt lat="41.84481" lon="22.98597">
        <ele>1163.5</ele>
        <time>2026-05-06T07:30:23.000Z</time>
      </trkpt>
      <trkpt lat="41.844812" lon="22.985968">
        <ele>1163.5</ele>
        <time>2026-05-06T07:30:24.000Z</time>
      </trkpt>
      <trkpt lat="41.844815" lon="22.985967">
        <ele>1163.5</ele>
        <time>2026-05-06T07:30:25.000Z</time>
      </trkpt>
      <trkpt lat="41.844821" lon="22.985966">
        <ele>1163.5</ele>
        <time>2026-05-06T07:30:26.000Z</time>
      </trkpt>
      <trkpt lat="41.844827" lon="22.985966">
        <ele>1163.5</ele>
        <time>2026-05-06T07:30:27.000Z</time>
      </trkpt>
      <trkpt lat="41.844834" lon="22.985966">
        <ele>1163.6</ele>
        <time>2026-05-06T07:30:28.000Z</time>
      </trkpt>
      <trkpt lat="41.844842" lon="22.985969">
        <ele>1163.6</ele>
        <time>2026-05-06T07:30:29.000Z</time>
      </trkpt>
      <trkpt lat="41.844847" lon="22.985972">
        <ele>1163.6</ele>
        <time>2026-05-06T07:30:30.000Z</time>
      </trkpt>
      <trkpt lat="41.84485" lon="22.985972">
        <ele>1163.6</ele>
        <time>2026-05-06T07:30:31.000Z</time>
      </trkpt>
      <trkpt lat="41.844852" lon="22.985973">
        <ele>1163.6</ele>
        <time>2026-05-06T07:30:32.000Z</time>
      </trkpt>
      <trkpt lat="41.844852" lon="22.985973">
        <ele>1163.6</ele>
        <time>2026-05-06T07:30:33.000Z</time>
      </trkpt>
      <trkpt lat="41.844853" lon="22.985971">
        <ele>1163.6</ele>
        <time>2026-05-06T07:30:34.000Z</time>
      </trkpt>
      <trkpt lat="41.844853" lon="22.985968">
        <ele>1163.6</ele>
        <time>2026-05-06T07:30:35.000Z</time>
      </trkpt>
      <trkpt lat="41.844854" lon="22.985968">
        <ele>1163.6</ele>
        <time>2026-05-06T07:30:36.000Z</time>
      </trkpt>
      <trkpt lat="41.844853" lon="22.985967">
        <ele>1163.6</ele>
        <time>2026-05-06T07:30:37.000Z</time>
      </trkpt>
      <trkpt lat="41.844853" lon="22.985966">
        <ele>1163.6</ele>
        <time>2026-05-06T07:30:38.000Z</time>
      </trkpt>
      <trkpt lat="41.844852" lon="22.985965">
        <ele>1163.6</ele>
        <time>2026-05-06T07:30:39.000Z</time>
      </trkpt>
      <trkpt lat="41.844852" lon="22.985965">
        <ele>1163.6</ele>
        <time>2026-05-06T07:30:40.000Z</time>
      </trkpt>
      <trkpt lat="41.844853" lon="22.985965">
        <ele>1163.6</ele>
        <time>2026-05-06T07:30:41.000Z</time>
      </trkpt>
      <trkpt lat="41.844853" lon="22.985964">
        <ele>1163.6</ele>
        <time>2026-05-06T07:30:42.000Z</time>
      </trkpt>
      <trkpt lat="41.844853" lon="22.985964">
        <ele>1163.7</ele>
        <time>2026-05-06T07:30:43.000Z</time>
      </trkpt>
      <trkpt lat="41.844854" lon="22.985963">
        <ele>1163.7</ele>
        <time>2026-05-06T07:30:44.000Z</time>
      </trkpt>
      <trkpt lat="41.844854" lon="22.985963">
        <ele>1163.7</ele>
        <time>2026-05-06T07:30:45.000Z</time>
      </trkpt>
      <trkpt lat="41.844853" lon="22.985962">
        <ele>1163.7</ele>
        <time>2026-05-06T07:30:46.000Z</time>
      </trkpt>
      <trkpt lat="41.844853" lon="22.985963">
        <ele>1163.7</ele>
        <time>2026-05-06T07:30:47.000Z</time>
      </trkpt>
      <trkpt lat="41.844852" lon="22.985963">
        <ele>1163.8</ele>
        <time>2026-05-06T07:30:48.000Z</time>
      </trkpt>
      <trkpt lat="41.844852" lon="22.985963">
        <ele>1163.8</ele>
        <time>2026-05-06T07:30:49.000Z</time>
      </trkpt>
      <trkpt lat="41.844852" lon="22.985963">
        <ele>1163.8</ele>
        <time>2026-05-06T07:30:50.000Z</time>
      </trkpt>
      <trkpt lat="41.844852" lon="22.985963">
        <ele>1163.8</ele>
        <time>2026-05-06T07:30:51.000Z</time>
      </trkpt>
      <trkpt lat="41.844853" lon="22.985962">
        <ele>1163.8</ele>
        <time>2026-05-06T07:30:52.000Z</time>
      </trkpt>
      <trkpt lat="41.844854" lon="22.98596">
        <ele>1164</ele>
        <time>2026-05-06T07:30:53.000Z</time>
      </trkpt>
      <trkpt lat="41.844855" lon="22.985959">
        <ele>1164</ele>
        <time>2026-05-06T07:30:54.000Z</time>
      </trkpt>
      <trkpt lat="41.844855" lon="22.985958">
        <ele>1164</ele>
        <time>2026-05-06T07:30:55.000Z</time>
      </trkpt>
      <trkpt lat="41.844856" lon="22.985957">
        <ele>1164</ele>
        <time>2026-05-06T07:30:56.000Z</time>
      </trkpt>
      <trkpt lat="41.844856" lon="22.985956">
        <ele>1164</ele>
        <time>2026-05-06T07:30:57.000Z</time>
      </trkpt>
      <trkpt lat="41.844856" lon="22.985956">
        <ele>1164</ele>
        <time>2026-05-06T07:30:58.000Z</time>
      </trkpt>
      <trkpt lat="41.844856" lon="22.985955">
        <ele>1164</ele>
        <time>2026-05-06T07:30:59.000Z</time>
      </trkpt>
      <trkpt lat="41.844855" lon="22.985954">
        <ele>1164</ele>
        <time>2026-05-06T07:31:00.000Z</time>
      </trkpt>
      <trkpt lat="41.844855" lon="22.985953">
        <ele>1164</ele>
        <time>2026-05-06T07:31:01.000Z</time>
      </trkpt>
      <trkpt lat="41.844856" lon="22.985954">
        <ele>1164</ele>
        <time>2026-05-06T07:31:02.000Z</time>
      </trkpt>
      <trkpt lat="41.844857" lon="22.985957">
        <ele>1164</ele>
        <time>2026-05-06T07:31:03.000Z</time>
      </trkpt>
      <trkpt lat="41.84486" lon="22.985961">
        <ele>1164</ele>
        <time>2026-05-06T07:31:04.000Z</time>
      </trkpt>
      <trkpt lat="41.844863" lon="22.985966">
        <ele>1164</ele>
        <time>2026-05-06T07:31:05.000Z</time>
      </trkpt>
      <trkpt lat="41.844867" lon="22.985973">
        <ele>1164</ele>
        <time>2026-05-06T07:31:06.000Z</time>
      </trkpt>
      <trkpt lat="41.844872" lon="22.985981">
        <ele>1164</ele>
        <time>2026-05-06T07:31:07.000Z</time>
      </trkpt>
      <trkpt lat="41.844876" lon="22.985988">
        <ele>1163.9</ele>
        <time>2026-05-06T07:31:08.000Z</time>
      </trkpt>
      <trkpt lat="41.844879" lon="22.985994">
        <ele>1163.9</ele>
        <time>2026-05-06T07:31:09.000Z</time>
      </trkpt>
      <trkpt lat="41.844881" lon="22.985999">
        <ele>1163.9</ele>
        <time>2026-05-06T07:31:10.000Z</time>
      </trkpt>
      <trkpt lat="41.844883" lon="22.986003">
        <ele>1163.9</ele>
        <time>2026-05-06T07:31:11.000Z</time>
      </trkpt>
      <trkpt lat="41.844884" lon="22.986004">
        <ele>1163.9</ele>
        <time>2026-05-06T07:31:12.000Z</time>
      </trkpt>
      <trkpt lat="41.844884" lon="22.986005">
        <ele>1163.7</ele>
        <time>2026-05-06T07:31:13.000Z</time>
      </trkpt>
      <trkpt lat="41.844885" lon="22.986005">
        <ele>1163.7</ele>
        <time>2026-05-06T07:31:14.000Z</time>
      </trkpt>
      <trkpt lat="41.844885" lon="22.986006">
        <ele>1163.7</ele>
        <time>2026-05-06T07:31:15.000Z</time>
      </trkpt>
      <trkpt lat="41.844888" lon="22.986006">
        <ele>1163.7</ele>
        <time>2026-05-06T07:31:16.000Z</time>
      </trkpt>
      <trkpt lat="41.844892" lon="22.986006">
        <ele>1163.7</ele>
        <time>2026-05-06T07:31:17.000Z</time>
      </trkpt>
      <trkpt lat="41.844898" lon="22.986009">
        <ele>1163.7</ele>
        <time>2026-05-06T07:31:18.000Z</time>
      </trkpt>
      <trkpt lat="41.844905" lon="22.986013">
        <ele>1163.7</ele>
        <time>2026-05-06T07:31:19.000Z</time>
      </trkpt>
      <trkpt lat="41.844914" lon="22.986019">
        <ele>1163.7</ele>
        <time>2026-05-06T07:31:20.000Z</time>
      </trkpt>
      <trkpt lat="41.844921" lon="22.986026">
        <ele>1163.7</ele>
        <time>2026-05-06T07:31:21.000Z</time>
      </trkpt>
      <trkpt lat="41.844929" lon="22.986032">
        <ele>1163.7</ele>
        <time>2026-05-06T07:31:22.000Z</time>
      </trkpt>
      <trkpt lat="41.844937" lon="22.986036">
        <ele>1163.5</ele>
        <time>2026-05-06T07:31:23.000Z</time>
      </trkpt>
      <trkpt lat="41.844945" lon="22.986038">
        <ele>1163.5</ele>
        <time>2026-05-06T07:31:24.000Z</time>
      </trkpt>
      <trkpt lat="41.844955" lon="22.986038">
        <ele>1163.5</ele>
        <time>2026-05-06T07:31:25.000Z</time>
      </trkpt>
      <trkpt lat="41.844965" lon="22.986037">
        <ele>1163.5</ele>
        <time>2026-05-06T07:31:26.000Z</time>
      </trkpt>
      <trkpt lat="41.844975" lon="22.986035">
        <ele>1163.5</ele>
        <time>2026-05-06T07:31:27.000Z</time>
      </trkpt>
      <trkpt lat="41.844985" lon="22.986035">
        <ele>1162.9</ele>
        <time>2026-05-06T07:31:28.000Z</time>
      </trkpt>
      <trkpt lat="41.844994" lon="22.986037">
        <ele>1162.9</ele>
        <time>2026-05-06T07:31:29.000Z</time>
      </trkpt>
      <trkpt lat="41.845004" lon="22.986042">
        <ele>1162.9</ele>
        <time>2026-05-06T07:31:30.000Z</time>
      </trkpt>
      <trkpt lat="41.845013" lon="22.986051">
        <ele>1162.9</ele>
        <time>2026-05-06T07:31:31.000Z</time>
      </trkpt>
      <trkpt lat="41.845021" lon="22.986061">
        <ele>1162.9</ele>
        <time>2026-05-06T07:31:32.000Z</time>
      </trkpt>
      <trkpt lat="41.845027" lon="22.986072">
        <ele>1162.2</ele>
        <time>2026-05-06T07:31:33.000Z</time>
      </trkpt>
      <trkpt lat="41.845031" lon="22.98608">
        <ele>1162.2</ele>
        <time>2026-05-06T07:31:34.000Z</time>
      </trkpt>
      <trkpt lat="41.845034" lon="22.986088">
        <ele>1162.2</ele>
        <time>2026-05-06T07:31:35.000Z</time>
      </trkpt>
      <trkpt lat="41.845037" lon="22.986093">
        <ele>1162.2</ele>
        <time>2026-05-06T07:31:36.000Z</time>
      </trkpt>
      <trkpt lat="41.845038" lon="22.986097">
        <ele>1162.2</ele>
        <time>2026-05-06T07:31:37.000Z</time>
      </trkpt>
      <trkpt lat="41.845038" lon="22.9861">
        <ele>1160.1</ele>
        <time>2026-05-06T07:31:38.000Z</time>
      </trkpt>
      <trkpt lat="41.845039" lon="22.986102">
        <ele>1160.1</ele>
        <time>2026-05-06T07:31:39.000Z</time>
      </trkpt>
      <trkpt lat="41.84504" lon="22.986104">
        <ele>1160.1</ele>
        <time>2026-05-06T07:31:40.000Z</time>
      </trkpt>
      <trkpt lat="41.845041" lon="22.986105">
        <ele>1160.1</ele>
        <time>2026-05-06T07:31:41.000Z</time>
      </trkpt>
      <trkpt lat="41.845042" lon="22.986107">
        <ele>1160.1</ele>
        <time>2026-05-06T07:31:42.000Z</time>
      </trkpt>
      <trkpt lat="41.845044" lon="22.986108">
        <ele>1157.8</ele>
        <time>2026-05-06T07:31:43.000Z</time>
      </trkpt>
      <trkpt lat="41.845045" lon="22.986109">
        <ele>1157.8</ele>
        <time>2026-05-06T07:31:44.000Z</time>
      </trkpt>
      <trkpt lat="41.845045" lon="22.986109">
        <ele>1157.8</ele>
        <time>2026-05-06T07:31:45.000Z</time>
      </trkpt>
      <trkpt lat="41.845045" lon="22.986109">
        <ele>1157.8</ele>
        <time>2026-05-06T07:31:46.000Z</time>
      </trkpt>
      <trkpt lat="41.845045" lon="22.986109">
        <ele>1157.8</ele>
        <time>2026-05-06T07:31:47.000Z</time>
      </trkpt>
      <trkpt lat="41.845046" lon="22.98611">
        <ele>1156.9</ele>
        <time>2026-05-06T07:31:48.000Z</time>
      </trkpt>
      <trkpt lat="41.845046" lon="22.986111">
        <ele>1156.9</ele>
        <time>2026-05-06T07:31:49.000Z</time>
      </trkpt>
      <trkpt lat="41.845047" lon="22.986111">
        <ele>1156.9</ele>
        <time>2026-05-06T07:31:50.000Z</time>
      </trkpt>
      <trkpt lat="41.845047" lon="22.986112">
        <ele>1156.9</ele>
        <time>2026-05-06T07:31:51.000Z</time>
      </trkpt>
      <trkpt lat="41.845047" lon="22.986113">
        <ele>1156.9</ele>
        <time>2026-05-06T07:31:52.000Z</time>
      </trkpt>
      <trkpt lat="41.845048" lon="22.986113">
        <ele>1155.8</ele>
        <time>2026-05-06T07:31:53.000Z</time>
      </trkpt>
      <trkpt lat="41.845048" lon="22.986115">
        <ele>1155.8</ele>
        <time>2026-05-06T07:31:54.000Z</time>
      </trkpt>
      <trkpt lat="41.845049" lon="22.986117">
        <ele>1155.8</ele>
        <time>2026-05-06T07:31:55.000Z</time>
      </trkpt>
      <trkpt lat="41.84505" lon="22.98612">
        <ele>1155.8</ele>
        <time>2026-05-06T07:31:56.000Z</time>
      </trkpt>
      <trkpt lat="41.84505" lon="22.986122">
        <ele>1155.8</ele>
        <time>2026-05-06T07:31:57.000Z</time>
      </trkpt>
      <trkpt lat="41.84505" lon="22.986124">
        <ele>1155.5</ele>
        <time>2026-05-06T07:31:58.000Z</time>
      </trkpt>
      <trkpt lat="41.84505" lon="22.986126">
        <ele>1155.5</ele>
        <time>2026-05-06T07:31:59.000Z</time>
      </trkpt>
      <trkpt lat="41.84505" lon="22.986127">
        <ele>1155.5</ele>
        <time>2026-05-06T07:32:00.000Z</time>
      </trkpt>
      <trkpt lat="41.845051" lon="22.986128">
        <ele>1155.5</ele>
        <time>2026-05-06T07:32:01.000Z</time>
      </trkpt>
      <trkpt lat="41.845051" lon="22.986128">
        <ele>1155.5</ele>
        <time>2026-05-06T07:32:02.000Z</time>
      </trkpt>
      <trkpt lat="41.845052" lon="22.986128">
        <ele>1155.4</ele>
        <time>2026-05-06T07:32:03.000Z</time>
      </trkpt>
      <trkpt lat="41.845053" lon="22.986128">
        <ele>1155.4</ele>
        <time>2026-05-06T07:32:04.000Z</time>
      </trkpt>
      <trkpt lat="41.845055" lon="22.986127">
        <ele>1155.4</ele>
        <time>2026-05-06T07:32:05.000Z</time>
      </trkpt>
      <trkpt lat="41.845057" lon="22.986126">
        <ele>1155.4</ele>
        <time>2026-05-06T07:32:06.000Z</time>
      </trkpt>
      <trkpt lat="41.845059" lon="22.986126">
        <ele>1155.4</ele>
        <time>2026-05-06T07:32:07.000Z</time>
      </trkpt>
      <trkpt lat="41.845061" lon="22.986125">
        <ele>1155.4</ele>
        <time>2026-05-06T07:32:08.000Z</time>
      </trkpt>
      <trkpt lat="41.845063" lon="22.986124">
        <ele>1155.4</ele>
        <time>2026-05-06T07:32:09.000Z</time>
      </trkpt>
      <trkpt lat="41.845064" lon="22.986122">
        <ele>1155.4</ele>
        <time>2026-05-06T07:32:10.000Z</time>
      </trkpt>
      <trkpt lat="41.845065" lon="22.98612">
        <ele>1155.4</ele>
        <time>2026-05-06T07:32:11.000Z</time>
      </trkpt>
      <trkpt lat="41.845066" lon="22.986118">
        <ele>1155.4</ele>
        <time>2026-05-06T07:32:12.000Z</time>
      </trkpt>
      <trkpt lat="41.845068" lon="22.986116">
        <ele>1155.2</ele>
        <time>2026-05-06T07:32:13.000Z</time>
      </trkpt>
      <trkpt lat="41.845071" lon="22.986115">
        <ele>1155.2</ele>
        <time>2026-05-06T07:32:14.000Z</time>
      </trkpt>
      <trkpt lat="41.845076" lon="22.986115">
        <ele>1155.2</ele>
        <time>2026-05-06T07:32:15.000Z</time>
      </trkpt>
      <trkpt lat="41.84508" lon="22.986114">
        <ele>1155.2</ele>
        <time>2026-05-06T07:32:16.000Z</time>
      </trkpt>
      <trkpt lat="41.845085" lon="22.986114">
        <ele>1155.2</ele>
        <time>2026-05-06T07:32:17.000Z</time>
      </trkpt>
      <trkpt lat="41.845091" lon="22.986115">
        <ele>1155</ele>
        <time>2026-05-06T07:32:18.000Z</time>
      </trkpt>
      <trkpt lat="41.845096" lon="22.986116">
        <ele>1155</ele>
        <time>2026-05-06T07:32:19.000Z</time>
      </trkpt>
      <trkpt lat="41.8451" lon="22.986118">
        <ele>1155</ele>
        <time>2026-05-06T07:32:20.000Z</time>
      </trkpt>
      <trkpt lat="41.845104" lon="22.986121">
        <ele>1155</ele>
        <time>2026-05-06T07:32:21.000Z</time>
      </trkpt>
      <trkpt lat="41.845109" lon="22.986121">
        <ele>1155</ele>
        <time>2026-05-06T07:32:22.000Z</time>
      </trkpt>
      <trkpt lat="41.845112" lon="22.986122">
        <ele>1154.5</ele>
        <time>2026-05-06T07:32:23.000Z</time>
      </trkpt>
      <trkpt lat="41.845116" lon="22.986123">
        <ele>1154.5</ele>
        <time>2026-05-06T07:32:24.000Z</time>
      </trkpt>
      <trkpt lat="41.845121" lon="22.986122">
        <ele>1154.5</ele>
        <time>2026-05-06T07:32:25.000Z</time>
      </trkpt>
      <trkpt lat="41.845126" lon="22.986121">
        <ele>1154.5</ele>
        <time>2026-05-06T07:32:26.000Z</time>
      </trkpt>
      <trkpt lat="41.845131" lon="22.986123">
        <ele>1154.5</ele>
        <time>2026-05-06T07:32:27.000Z</time>
      </trkpt>
      <trkpt lat="41.845136" lon="22.986123">
        <ele>1153.4</ele>
        <time>2026-05-06T07:32:28.000Z</time>
      </trkpt>
      <trkpt lat="41.84514" lon="22.986123">
        <ele>1153.4</ele>
        <time>2026-05-06T07:32:29.000Z</time>
      </trkpt>
      <trkpt lat="41.845146" lon="22.986122">
        <ele>1153.4</ele>
        <time>2026-05-06T07:32:30.000Z</time>
      </trkpt>
      <trkpt lat="41.845151" lon="22.986121">
        <ele>1153.4</ele>
        <time>2026-05-06T07:32:31.000Z</time>
      </trkpt>
      <trkpt lat="41.845157" lon="22.98612">
        <ele>1153.4</ele>
        <time>2026-05-06T07:32:32.000Z</time>
      </trkpt>
      <trkpt lat="41.845162" lon="22.98612">
        <ele>1152.7</ele>
        <time>2026-05-06T07:32:33.000Z</time>
      </trkpt>
      <trkpt lat="41.845167" lon="22.986121">
        <ele>1152.7</ele>
        <time>2026-05-06T07:32:34.000Z</time>
      </trkpt>
      <trkpt lat="41.845171" lon="22.986124">
        <ele>1152.7</ele>
        <time>2026-05-06T07:32:35.000Z</time>
      </trkpt>
      <trkpt lat="41.845173" lon="22.986126">
        <ele>1152.7</ele>
        <time>2026-05-06T07:32:36.000Z</time>
      </trkpt>
      <trkpt lat="41.845176" lon="22.986127">
        <ele>1152.7</ele>
        <time>2026-05-06T07:32:37.000Z</time>
      </trkpt>
      <trkpt lat="41.845178" lon="22.986128">
        <ele>1151.2</ele>
        <time>2026-05-06T07:32:38.000Z</time>
      </trkpt>
      <trkpt lat="41.845182" lon="22.98613">
        <ele>1151.2</ele>
        <time>2026-05-06T07:32:39.000Z</time>
      </trkpt>
      <trkpt lat="41.845186" lon="22.986134">
        <ele>1151.2</ele>
        <time>2026-05-06T07:32:40.000Z</time>
      </trkpt>
      <trkpt lat="41.845189" lon="22.986143">
        <ele>1151.2</ele>
        <time>2026-05-06T07:32:41.000Z</time>
      </trkpt>
      <trkpt lat="41.845191" lon="22.986154">
        <ele>1151.2</ele>
        <time>2026-05-06T07:32:42.000Z</time>
      </trkpt>
      <trkpt lat="41.845193" lon="22.986166">
        <ele>1149.7</ele>
        <time>2026-05-06T07:32:43.000Z</time>
      </trkpt>
      <trkpt lat="41.845194" lon="22.986178">
        <ele>1149.7</ele>
        <time>2026-05-06T07:32:44.000Z</time>
      </trkpt>
      <trkpt lat="41.845194" lon="22.986189">
        <ele>1149.7</ele>
        <time>2026-05-06T07:32:45.000Z</time>
      </trkpt>
      <trkpt lat="41.845194" lon="22.9862">
        <ele>1149.7</ele>
        <time>2026-05-06T07:32:46.000Z</time>
      </trkpt>
      <trkpt lat="41.845194" lon="22.986209">
        <ele>1149.7</ele>
        <time>2026-05-06T07:32:47.000Z</time>
      </trkpt>
      <trkpt lat="41.845194" lon="22.986221">
        <ele>1149</ele>
        <time>2026-05-06T07:32:48.000Z</time>
      </trkpt>
      <trkpt lat="41.845193" lon="22.986233">
        <ele>1149</ele>
        <time>2026-05-06T07:32:49.000Z</time>
      </trkpt>
      <trkpt lat="41.845193" lon="22.986246">
        <ele>1149</ele>
        <time>2026-05-06T07:32:50.000Z</time>
      </trkpt>
      <trkpt lat="41.845192" lon="22.986259">
        <ele>1149</ele>
        <time>2026-05-06T07:32:51.000Z</time>
      </trkpt>
      <trkpt lat="41.84519" lon="22.986273">
        <ele>1149</ele>
        <time>2026-05-06T07:32:52.000Z</time>
      </trkpt>
      <trkpt lat="41.845188" lon="22.986285">
        <ele>1147.8</ele>
        <time>2026-05-06T07:32:53.000Z</time>
      </trkpt>
      <trkpt lat="41.845186" lon="22.986295">
        <ele>1147.8</ele>
        <time>2026-05-06T07:32:54.000Z</time>
      </trkpt>
      <trkpt lat="41.845185" lon="22.986301">
        <ele>1147.8</ele>
        <time>2026-05-06T07:32:55.000Z</time>
      </trkpt>
      <trkpt lat="41.845183" lon="22.986305">
        <ele>1147.8</ele>
        <time>2026-05-06T07:32:56.000Z</time>
      </trkpt>
      <trkpt lat="41.845183" lon="22.986307">
        <ele>1147.8</ele>
        <time>2026-05-06T07:32:57.000Z</time>
      </trkpt>
      <trkpt lat="41.845183" lon="22.986307">
        <ele>1147.2</ele>
        <time>2026-05-06T07:32:58.000Z</time>
      </trkpt>
      <trkpt lat="41.845183" lon="22.986307">
        <ele>1147.2</ele>
        <time>2026-05-06T07:32:59.000Z</time>
      </trkpt>
      <trkpt lat="41.845183" lon="22.986307">
        <ele>1147.2</ele>
        <time>2026-05-06T07:33:00.000Z</time>
      </trkpt>
      <trkpt lat="41.845183" lon="22.986309">
        <ele>1147.2</ele>
        <time>2026-05-06T07:33:01.000Z</time>
      </trkpt>
      <trkpt lat="41.845182" lon="22.986311">
        <ele>1147.2</ele>
        <time>2026-05-06T07:33:02.000Z</time>
      </trkpt>
      <trkpt lat="41.845181" lon="22.986315">
        <ele>1147.2</ele>
        <time>2026-05-06T07:33:03.000Z</time>
      </trkpt>
      <trkpt lat="41.84518" lon="22.986322">
        <ele>1147.2</ele>
        <time>2026-05-06T07:33:04.000Z</time>
      </trkpt>
      <trkpt lat="41.845179" lon="22.986329">
        <ele>1147.2</ele>
        <time>2026-05-06T07:33:05.000Z</time>
      </trkpt>
      <trkpt lat="41.845177" lon="22.986337">
        <ele>1147.2</ele>
        <time>2026-05-06T07:33:06.000Z</time>
      </trkpt>
      <trkpt lat="41.845177" lon="22.986346">
        <ele>1147.2</ele>
        <time>2026-05-06T07:33:07.000Z</time>
      </trkpt>
      <trkpt lat="41.845176" lon="22.986353">
        <ele>1147.5</ele>
        <time>2026-05-06T07:33:08.000Z</time>
      </trkpt>
      <trkpt lat="41.845176" lon="22.986361">
        <ele>1147.5</ele>
        <time>2026-05-06T07:33:09.000Z</time>
      </trkpt>
      <trkpt lat="41.845176" lon="22.986369">
        <ele>1147.5</ele>
        <time>2026-05-06T07:33:10.000Z</time>
      </trkpt>
      <trkpt lat="41.845176" lon="22.986376">
        <ele>1147.5</ele>
        <time>2026-05-06T07:33:11.000Z</time>
      </trkpt>
      <trkpt lat="41.845176" lon="22.986384">
        <ele>1147.5</ele>
        <time>2026-05-06T07:33:12.000Z</time>
      </trkpt>
      <trkpt lat="41.845178" lon="22.986393">
        <ele>1147.9</ele>
        <time>2026-05-06T07:33:13.000Z</time>
      </trkpt>
      <trkpt lat="41.845179" lon="22.986402">
        <ele>1147.9</ele>
        <time>2026-05-06T07:33:14.000Z</time>
      </trkpt>
      <trkpt lat="41.84518" lon="22.98641">
        <ele>1147.9</ele>
        <time>2026-05-06T07:33:15.000Z</time>
      </trkpt>
      <trkpt lat="41.845181" lon="22.986415">
        <ele>1147.9</ele>
        <time>2026-05-06T07:33:16.000Z</time>
      </trkpt>
      <trkpt lat="41.845181" lon="22.986419">
        <ele>1147.9</ele>
        <time>2026-05-06T07:33:17.000Z</time>
      </trkpt>
      <trkpt lat="41.845178" lon="22.986421">
        <ele>1148.1</ele>
        <time>2026-05-06T07:33:18.000Z</time>
      </trkpt>
      <trkpt lat="41.845176" lon="22.986419">
        <ele>1148.1</ele>
        <time>2026-05-06T07:33:19.000Z</time>
      </trkpt>
      <trkpt lat="41.845174" lon="22.986418">
        <ele>1148.1</ele>
        <time>2026-05-06T07:33:20.000Z</time>
      </trkpt>
      <trkpt lat="41.845172" lon="22.986418">
        <ele>1148.1</ele>
        <time>2026-05-06T07:33:21.000Z</time>
      </trkpt>
      <trkpt lat="41.84517" lon="22.986418">
        <ele>1148.1</ele>
        <time>2026-05-06T07:33:22.000Z</time>
      </trkpt>
      <trkpt lat="41.84517" lon="22.986418">
        <ele>1148.1</ele>
        <time>2026-05-06T07:33:23.000Z</time>
      </trkpt>
      <trkpt lat="41.845171" lon="22.986419">
        <ele>1148.1</ele>
        <time>2026-05-06T07:33:24.000Z</time>
      </trkpt>
      <trkpt lat="41.845171" lon="22.986419">
        <ele>1148.1</ele>
        <time>2026-05-06T07:33:25.000Z</time>
      </trkpt>
      <trkpt lat="41.845172" lon="22.986419">
        <ele>1148.1</ele>
        <time>2026-05-06T07:33:26.000Z</time>
      </trkpt>
      <trkpt lat="41.845172" lon="22.986419">
        <ele>1148.1</ele>
        <time>2026-05-06T07:33:27.000Z</time>
      </trkpt>
      <trkpt lat="41.845172" lon="22.986418">
        <ele>1147.6</ele>
        <time>2026-05-06T07:33:28.000Z</time>
      </trkpt>
      <trkpt lat="41.845172" lon="22.986418">
        <ele>1147.6</ele>
        <time>2026-05-06T07:33:29.000Z</time>
      </trkpt>
      <trkpt lat="41.845172" lon="22.986418">
        <ele>1147.6</ele>
        <time>2026-05-06T07:33:30.000Z</time>
      </trkpt>
      <trkpt lat="41.845172" lon="22.986418">
        <ele>1147.6</ele>
        <time>2026-05-06T07:33:31.000Z</time>
      </trkpt>
      <trkpt lat="41.845172" lon="22.986418">
        <ele>1147.6</ele>
        <time>2026-05-06T07:33:32.000Z</time>
      </trkpt>
      <trkpt lat="41.845172" lon="22.986418">
        <ele>1147.4</ele>
        <time>2026-05-06T07:33:33.000Z</time>
      </trkpt>
      <trkpt lat="41.845172" lon="22.986418">
        <ele>1147.4</ele>
        <time>2026-05-06T07:33:34.000Z</time>
      </trkpt>
      <trkpt lat="41.845172" lon="22.986418">
        <ele>1147.4</ele>
        <time>2026-05-06T07:33:35.000Z</time>
      </trkpt>
      <trkpt lat="41.845172" lon="22.986418">
        <ele>1147.4</ele>
        <time>2026-05-06T07:33:36.000Z</time>
      </trkpt>
      <trkpt lat="41.845172" lon="22.986418">
        <ele>1147.4</ele>
        <time>2026-05-06T07:33:37.000Z</time>
      </trkpt>
      <trkpt lat="41.845172" lon="22.986418">
        <ele>1147.2</ele>
        <time>2026-05-06T07:33:38.000Z</time>
      </trkpt>
      <trkpt lat="41.845172" lon="22.986418">
        <ele>1147.2</ele>
        <time>2026-05-06T07:33:39.000Z</time>
      </trkpt>
      <trkpt lat="41.845172" lon="22.986418">
        <ele>1147.2</ele>
        <time>2026-05-06T07:33:40.000Z</time>
      </trkpt>
      <trkpt lat="41.845172" lon="22.986418">
        <ele>1147.2</ele>
        <time>2026-05-06T07:33:41.000Z</time>
      </trkpt>
      <trkpt lat="41.845172" lon="22.986418">
        <ele>1147.2</ele>
        <time>2026-05-06T07:33:42.000Z</time>
      </trkpt>
      <trkpt lat="41.845172" lon="22.986418">
        <ele>1147.2</ele>
        <time>2026-05-06T07:33:43.000Z</time>
      </trkpt>
      <trkpt lat="41.845172" lon="22.986418">
        <ele>1147.2</ele>
        <time>2026-05-06T07:33:44.000Z</time>
      </trkpt>
      <trkpt lat="41.845173" lon="22.98642">
        <ele>1147.2</ele>
        <time>2026-05-06T07:33:45.000Z</time>
      </trkpt>
      <trkpt lat="41.845174" lon="22.986422">
        <ele>1147.2</ele>
        <time>2026-05-06T07:33:46.000Z</time>
      </trkpt>
      <trkpt lat="41.845174" lon="22.986427">
        <ele>1147.2</ele>
        <time>2026-05-06T07:33:47.000Z</time>
      </trkpt>
      <trkpt lat="41.845175" lon="22.986436">
        <ele>1147.3</ele>
        <time>2026-05-06T07:33:48.000Z</time>
      </trkpt>
      <trkpt lat="41.845176" lon="22.98645">
        <ele>1147.3</ele>
        <time>2026-05-06T07:33:49.000Z</time>
      </trkpt>
      <trkpt lat="41.845177" lon="22.986466">
        <ele>1147.3</ele>
        <time>2026-05-06T07:33:50.000Z</time>
      </trkpt>
      <trkpt lat="41.845179" lon="22.986485">
        <ele>1147.3</ele>
        <time>2026-05-06T07:33:51.000Z</time>
      </trkpt>
      <trkpt lat="41.845181" lon="22.986507">
        <ele>1147.3</ele>
        <time>2026-05-06T07:33:52.000Z</time>
      </trkpt>
      <trkpt lat="41.845184" lon="22.986529">
        <ele>1147.5</ele>
        <time>2026-05-06T07:33:53.000Z</time>
      </trkpt>
      <trkpt lat="41.845186" lon="22.98655">
        <ele>1147.5</ele>
        <time>2026-05-06T07:33:54.000Z</time>
      </trkpt>
      <trkpt lat="41.845187" lon="22.98657">
        <ele>1147.5</ele>
        <time>2026-05-06T07:33:55.000Z</time>
      </trkpt>
      <trkpt lat="41.845187" lon="22.986589">
        <ele>1147.5</ele>
        <time>2026-05-06T07:33:56.000Z</time>
      </trkpt>
      <trkpt lat="41.845188" lon="22.986607">
        <ele>1147.5</ele>
        <time>2026-05-06T07:33:57.000Z</time>
      </trkpt>
      <trkpt lat="41.845188" lon="22.986624">
        <ele>1147.5</ele>
        <time>2026-05-06T07:33:58.000Z</time>
      </trkpt>
      <trkpt lat="41.845189" lon="22.98664">
        <ele>1147.5</ele>
        <time>2026-05-06T07:33:59.000Z</time>
      </trkpt>
      <trkpt lat="41.84519" lon="22.986657">
        <ele>1147.5</ele>
        <time>2026-05-06T07:34:00.000Z</time>
      </trkpt>
      <trkpt lat="41.845192" lon="22.986675">
        <ele>1147.5</ele>
        <time>2026-05-06T07:34:01.000Z</time>
      </trkpt>
      <trkpt lat="41.845192" lon="22.986693">
        <ele>1147.5</ele>
        <time>2026-05-06T07:34:02.000Z</time>
      </trkpt>
      <trkpt lat="41.845191" lon="22.986711">
        <ele>1147.3</ele>
        <time>2026-05-06T07:34:03.000Z</time>
      </trkpt>
      <trkpt lat="41.84519" lon="22.986729">
        <ele>1147.3</ele>
        <time>2026-05-06T07:34:04.000Z</time>
      </trkpt>
      <trkpt lat="41.845189" lon="22.986748">
        <ele>1147.3</ele>
        <time>2026-05-06T07:34:05.000Z</time>
      </trkpt>
      <trkpt lat="41.845186" lon="22.986767">
        <ele>1147.3</ele>
        <time>2026-05-06T07:34:06.000Z</time>
      </trkpt>
      <trkpt lat="41.845184" lon="22.986784">
        <ele>1147.3</ele>
        <time>2026-05-06T07:34:07.000Z</time>
      </trkpt>
      <trkpt lat="41.845182" lon="22.986801">
        <ele>1147.1</ele>
        <time>2026-05-06T07:34:08.000Z</time>
      </trkpt>
      <trkpt lat="41.845178" lon="22.986816">
        <ele>1147.1</ele>
        <time>2026-05-06T07:34:09.000Z</time>
      </trkpt>
      <trkpt lat="41.845175" lon="22.986832">
        <ele>1147.1</ele>
        <time>2026-05-06T07:34:10.000Z</time>
      </trkpt>
      <trkpt lat="41.84517" lon="22.986848">
        <ele>1147.1</ele>
        <time>2026-05-06T07:34:11.000Z</time>
      </trkpt>
      <trkpt lat="41.845164" lon="22.986864">
        <ele>1147.1</ele>
        <time>2026-05-06T07:34:12.000Z</time>
      </trkpt>
      <trkpt lat="41.845159" lon="22.98688">
        <ele>1147.3</ele>
        <time>2026-05-06T07:34:13.000Z</time>
      </trkpt>
      <trkpt lat="41.845154" lon="22.986894">
        <ele>1147.3</ele>
        <time>2026-05-06T07:34:14.000Z</time>
      </trkpt>
      <trkpt lat="41.845147" lon="22.986906">
        <ele>1147.3</ele>
        <time>2026-05-06T07:34:15.000Z</time>
      </trkpt>
      <trkpt lat="41.84514" lon="22.986916">
        <ele>1147.3</ele>
        <time>2026-05-06T07:34:16.000Z</time>
      </trkpt>
      <trkpt lat="41.845133" lon="22.986922">
        <ele>1147.3</ele>
        <time>2026-05-06T07:34:17.000Z</time>
      </trkpt>
      <trkpt lat="41.845126" lon="22.986928">
        <ele>1147.5</ele>
        <time>2026-05-06T07:34:18.000Z</time>
      </trkpt>
      <trkpt lat="41.845119" lon="22.986932">
        <ele>1147.5</ele>
        <time>2026-05-06T07:34:19.000Z</time>
      </trkpt>
      <trkpt lat="41.845114" lon="22.986937">
        <ele>1147.5</ele>
        <time>2026-05-06T07:34:20.000Z</time>
      </trkpt>
      <trkpt lat="41.84511" lon="22.986943">
        <ele>1147.5</ele>
        <time>2026-05-06T07:34:21.000Z</time>
      </trkpt>
      <trkpt lat="41.845106" lon="22.986949">
        <ele>1147.5</ele>
        <time>2026-05-06T07:34:22.000Z</time>
      </trkpt>
      <trkpt lat="41.845104" lon="22.986955">
        <ele>1148</ele>
        <time>2026-05-06T07:34:23.000Z</time>
      </trkpt>
      <trkpt lat="41.845102" lon="22.986959">
        <ele>1148</ele>
        <time>2026-05-06T07:34:24.000Z</time>
      </trkpt>
      <trkpt lat="41.8451" lon="22.986961">
        <ele>1148</ele>
        <time>2026-05-06T07:34:25.000Z</time>
      </trkpt>
      <trkpt lat="41.8451" lon="22.986961">
        <ele>1148</ele>
        <time>2026-05-06T07:34:26.000Z</time>
      </trkpt>
      <trkpt lat="41.8451" lon="22.986961">
        <ele>1148</ele>
        <time>2026-05-06T07:34:27.000Z</time>
      </trkpt>
      <trkpt lat="41.845101" lon="22.986961">
        <ele>1148.3</ele>
        <time>2026-05-06T07:34:28.000Z</time>
      </trkpt>
      <trkpt lat="41.845101" lon="22.986962">
        <ele>1148.3</ele>
        <time>2026-05-06T07:34:29.000Z</time>
      </trkpt>
      <trkpt lat="41.845101" lon="22.986962">
        <ele>1148.3</ele>
        <time>2026-05-06T07:34:30.000Z</time>
      </trkpt>
      <trkpt lat="41.845101" lon="22.986962">
        <ele>1148.3</ele>
        <time>2026-05-06T07:34:31.000Z</time>
      </trkpt>
      <trkpt lat="41.845101" lon="22.986962">
        <ele>1148.3</ele>
        <time>2026-05-06T07:34:32.000Z</time>
      </trkpt>
      <trkpt lat="41.845101" lon="22.986962">
        <ele>1148.4</ele>
        <time>2026-05-06T07:34:33.000Z</time>
      </trkpt>
      <trkpt lat="41.845101" lon="22.986962">
        <ele>1148.4</ele>
        <time>2026-05-06T07:34:34.000Z</time>
      </trkpt>
      <trkpt lat="41.845101" lon="22.986963">
        <ele>1148.4</ele>
        <time>2026-05-06T07:34:35.000Z</time>
      </trkpt>
      <trkpt lat="41.8451" lon="22.986963">
        <ele>1148.4</ele>
        <time>2026-05-06T07:34:36.000Z</time>
      </trkpt>
      <trkpt lat="41.8451" lon="22.986963">
        <ele>1148.4</ele>
        <time>2026-05-06T07:34:37.000Z</time>
      </trkpt>
      <trkpt lat="41.8451" lon="22.986963">
        <ele>1148.5</ele>
        <time>2026-05-06T07:34:38.000Z</time>
      </trkpt>
      <trkpt lat="41.8451" lon="22.986963">
        <ele>1148.5</ele>
        <time>2026-05-06T07:34:39.000Z</time>
      </trkpt>
      <trkpt lat="41.8451" lon="22.986963">
        <ele>1148.5</ele>
        <time>2026-05-06T07:34:40.000Z</time>
      </trkpt>
      <trkpt lat="41.845101" lon="22.986965">
        <ele>1148.5</ele>
        <time>2026-05-06T07:34:41.000Z</time>
      </trkpt>
      <trkpt lat="41.845103" lon="22.986967">
        <ele>1148.5</ele>
        <time>2026-05-06T07:34:42.000Z</time>
      </trkpt>
      <trkpt lat="41.845107" lon="22.986973">
        <ele>1148.6</ele>
        <time>2026-05-06T07:34:43.000Z</time>
      </trkpt>
      <trkpt lat="41.845111" lon="22.986981">
        <ele>1148.6</ele>
        <time>2026-05-06T07:34:44.000Z</time>
      </trkpt>
      <trkpt lat="41.845116" lon="22.986993">
        <ele>1148.6</ele>
        <time>2026-05-06T07:34:45.000Z</time>
      </trkpt>
      <trkpt lat="41.84512" lon="22.987006">
        <ele>1148.6</ele>
        <time>2026-05-06T07:34:46.000Z</time>
      </trkpt>
      <trkpt lat="41.845123" lon="22.987022">
        <ele>1148.6</ele>
        <time>2026-05-06T07:34:47.000Z</time>
      </trkpt>
      <trkpt lat="41.845125" lon="22.987039">
        <ele>1148.6</ele>
        <time>2026-05-06T07:34:48.000Z</time>
      </trkpt>
      <trkpt lat="41.845125" lon="22.987056">
        <ele>1148.6</ele>
        <time>2026-05-06T07:34:49.000Z</time>
      </trkpt>
      <trkpt lat="41.845125" lon="22.987075">
        <ele>1148.6</ele>
        <time>2026-05-06T07:34:50.000Z</time>
      </trkpt>
      <trkpt lat="41.845126" lon="22.987094">
        <ele>1148.6</ele>
        <time>2026-05-06T07:34:51.000Z</time>
      </trkpt>
      <trkpt lat="41.845129" lon="22.98711">
        <ele>1148.6</ele>
        <time>2026-05-06T07:34:52.000Z</time>
      </trkpt>
      <trkpt lat="41.845132" lon="22.987127">
        <ele>1148.3</ele>
        <time>2026-05-06T07:34:53.000Z</time>
      </trkpt>
      <trkpt lat="41.845135" lon="22.987143">
        <ele>1148.3</ele>
        <time>2026-05-06T07:34:54.000Z</time>
      </trkpt>
      <trkpt lat="41.845141" lon="22.987157">
        <ele>1148.3</ele>
        <time>2026-05-06T07:34:55.000Z</time>
      </trkpt>
      <trkpt lat="41.845148" lon="22.98717">
        <ele>1148.3</ele>
        <time>2026-05-06T07:34:56.000Z</time>
      </trkpt>
      <trkpt lat="41.845156" lon="22.987184">
        <ele>1148.3</ele>
        <time>2026-05-06T07:34:57.000Z</time>
      </trkpt>
      <trkpt lat="41.845165" lon="22.987197">
        <ele>1147.9</ele>
        <time>2026-05-06T07:34:58.000Z</time>
      </trkpt>
      <trkpt lat="41.845173" lon="22.98721">
        <ele>1147.9</ele>
        <time>2026-05-06T07:34:59.000Z</time>
      </trkpt>
      <trkpt lat="41.84518" lon="22.987222">
        <ele>1147.9</ele>
        <time>2026-05-06T07:35:00.000Z</time>
      </trkpt>
      <trkpt lat="41.845184" lon="22.987232">
        <ele>1147.9</ele>
        <time>2026-05-06T07:35:01.000Z</time>
      </trkpt>
      <trkpt lat="41.845184" lon="22.987241">
        <ele>1147.9</ele>
        <time>2026-05-06T07:35:02.000Z</time>
      </trkpt>
      <trkpt lat="41.845183" lon="22.987247">
        <ele>1147.6</ele>
        <time>2026-05-06T07:35:03.000Z</time>
      </trkpt>
      <trkpt lat="41.845182" lon="22.987251">
        <ele>1147.6</ele>
        <time>2026-05-06T07:35:04.000Z</time>
      </trkpt>
      <trkpt lat="41.84518" lon="22.987254">
        <ele>1147.6</ele>
        <time>2026-05-06T07:35:05.000Z</time>
      </trkpt>
      <trkpt lat="41.845179" lon="22.987256">
        <ele>1147.6</ele>
        <time>2026-05-06T07:35:06.000Z</time>
      </trkpt>
      <trkpt lat="41.845179" lon="22.987258">
        <ele>1147.6</ele>
        <time>2026-05-06T07:35:07.000Z</time>
      </trkpt>
      <trkpt lat="41.845179" lon="22.98726">
        <ele>1146.9</ele>
        <time>2026-05-06T07:35:08.000Z</time>
      </trkpt>
      <trkpt lat="41.845179" lon="22.98726">
        <ele>1146.9</ele>
        <time>2026-05-06T07:35:09.000Z</time>
      </trkpt>
      <trkpt lat="41.845178" lon="22.98726">
        <ele>1146.9</ele>
        <time>2026-05-06T07:35:10.000Z</time>
      </trkpt>
      <trkpt lat="41.845178" lon="22.98726">
        <ele>1146.9</ele>
        <time>2026-05-06T07:35:11.000Z</time>
      </trkpt>
      <trkpt lat="41.845179" lon="22.98726">
        <ele>1146.9</ele>
        <time>2026-05-06T07:35:12.000Z</time>
      </trkpt>
      <trkpt lat="41.845179" lon="22.98726">
        <ele>1146.4</ele>
        <time>2026-05-06T07:35:13.000Z</time>
      </trkpt>
      <trkpt lat="41.84518" lon="22.98726">
        <ele>1146.4</ele>
        <time>2026-05-06T07:35:14.000Z</time>
      </trkpt>
      <trkpt lat="41.845181" lon="22.987261">
        <ele>1146.4</ele>
        <time>2026-05-06T07:35:15.000Z</time>
      </trkpt>
      <trkpt lat="41.845181" lon="22.987264">
        <ele>1146.4</ele>
        <time>2026-05-06T07:35:16.000Z</time>
      </trkpt>
      <trkpt lat="41.845181" lon="22.98727">
        <ele>1146.4</ele>
        <time>2026-05-06T07:35:17.000Z</time>
      </trkpt>
      <trkpt lat="41.84518" lon="22.987278">
        <ele>1146.3</ele>
        <time>2026-05-06T07:35:18.000Z</time>
      </trkpt>
      <trkpt lat="41.845177" lon="22.987288">
        <ele>1146.3</ele>
        <time>2026-05-06T07:35:19.000Z</time>
      </trkpt>
      <trkpt lat="41.845173" lon="22.9873">
        <ele>1146.3</ele>
        <time>2026-05-06T07:35:20.000Z</time>
      </trkpt>
      <trkpt lat="41.845168" lon="22.987313">
        <ele>1146.3</ele>
        <time>2026-05-06T07:35:21.000Z</time>
      </trkpt>
      <trkpt lat="41.845163" lon="22.987327">
        <ele>1146.3</ele>
        <time>2026-05-06T07:35:22.000Z</time>
      </trkpt>
      <trkpt lat="41.845159" lon="22.987341">
        <ele>1146.3</ele>
        <time>2026-05-06T07:35:23.000Z</time>
      </trkpt>
      <trkpt lat="41.845156" lon="22.987356">
        <ele>1146.3</ele>
        <time>2026-05-06T07:35:24.000Z</time>
      </trkpt>
      <trkpt lat="41.845154" lon="22.987372">
        <ele>1146.3</ele>
        <time>2026-05-06T07:35:25.000Z</time>
      </trkpt>
      <trkpt lat="41.845151" lon="22.987388">
        <ele>1146.3</ele>
        <time>2026-05-06T07:35:26.000Z</time>
      </trkpt>
      <trkpt lat="41.84515" lon="22.987403">
        <ele>1146.3</ele>
        <time>2026-05-06T07:35:27.000Z</time>
      </trkpt>
      <trkpt lat="41.845148" lon="22.987418">
        <ele>1146.6</ele>
        <time>2026-05-06T07:35:28.000Z</time>
      </trkpt>
      <trkpt lat="41.845148" lon="22.987433">
        <ele>1146.6</ele>
        <time>2026-05-06T07:35:29.000Z</time>
      </trkpt>
      <trkpt lat="41.845148" lon="22.987447">
        <ele>1146.6</ele>
        <time>2026-05-06T07:35:30.000Z</time>
      </trkpt>
      <trkpt lat="41.845149" lon="22.987461">
        <ele>1146.6</ele>
        <time>2026-05-06T07:35:31.000Z</time>
      </trkpt>
      <trkpt lat="41.84515" lon="22.987476">
        <ele>1146.6</ele>
        <time>2026-05-06T07:35:32.000Z</time>
      </trkpt>
      <trkpt lat="41.845151" lon="22.987492">
        <ele>1147</ele>
        <time>2026-05-06T07:35:33.000Z</time>
      </trkpt>
      <trkpt lat="41.845152" lon="22.987507">
        <ele>1147</ele>
        <time>2026-05-06T07:35:34.000Z</time>
      </trkpt>
      <trkpt lat="41.845151" lon="22.987522">
        <ele>1147</ele>
        <time>2026-05-06T07:35:35.000Z</time>
      </trkpt>
      <trkpt lat="41.845148" lon="22.987536">
        <ele>1147</ele>
        <time>2026-05-06T07:35:36.000Z</time>
      </trkpt>
      <trkpt lat="41.845145" lon="22.987548">
        <ele>1147</ele>
        <time>2026-05-06T07:35:37.000Z</time>
      </trkpt>
      <trkpt lat="41.84514" lon="22.98756">
        <ele>1148.2</ele>
        <time>2026-05-06T07:35:38.000Z</time>
      </trkpt>
      <trkpt lat="41.845134" lon="22.987571">
        <ele>1148.2</ele>
        <time>2026-05-06T07:35:39.000Z</time>
      </trkpt>
      <trkpt lat="41.845127" lon="22.987582">
        <ele>1148.2</ele>
        <time>2026-05-06T07:35:40.000Z</time>
      </trkpt>
      <trkpt lat="41.845121" lon="22.987591">
        <ele>1148.2</ele>
        <time>2026-05-06T07:35:41.000Z</time>
      </trkpt>
      <trkpt lat="41.845115" lon="22.9876">
        <ele>1148.2</ele>
        <time>2026-05-06T07:35:42.000Z</time>
      </trkpt>
      <trkpt lat="41.845109" lon="22.987609">
        <ele>1149.3</ele>
        <time>2026-05-06T07:35:43.000Z</time>
      </trkpt>
      <trkpt lat="41.845104" lon="22.987618">
        <ele>1149.3</ele>
        <time>2026-05-06T07:35:44.000Z</time>
      </trkpt>
      <trkpt lat="41.845098" lon="22.987627">
        <ele>1149.3</ele>
        <time>2026-05-06T07:35:45.000Z</time>
      </trkpt>
      <trkpt lat="41.845092" lon="22.987634">
        <ele>1149.3</ele>
        <time>2026-05-06T07:35:46.000Z</time>
      </trkpt>
      <trkpt lat="41.845084" lon="22.987639">
        <ele>1149.3</ele>
        <time>2026-05-06T07:35:47.000Z</time>
      </trkpt>
      <trkpt lat="41.845076" lon="22.987643">
        <ele>1149.9</ele>
        <time>2026-05-06T07:35:48.000Z</time>
      </trkpt>
      <trkpt lat="41.845068" lon="22.987643">
        <ele>1149.9</ele>
        <time>2026-05-06T07:35:49.000Z</time>
      </trkpt>
      <trkpt lat="41.845061" lon="22.987642">
        <ele>1149.9</ele>
        <time>2026-05-06T07:35:50.000Z</time>
      </trkpt>
      <trkpt lat="41.845054" lon="22.987639">
        <ele>1149.9</ele>
        <time>2026-05-06T07:35:51.000Z</time>
      </trkpt>
      <trkpt lat="41.845048" lon="22.987635">
        <ele>1149.9</ele>
        <time>2026-05-06T07:35:52.000Z</time>
      </trkpt>
      <trkpt lat="41.84504" lon="22.987629">
        <ele>1151.2</ele>
        <time>2026-05-06T07:35:53.000Z</time>
      </trkpt>
      <trkpt lat="41.845033" lon="22.987623">
        <ele>1151.2</ele>
        <time>2026-05-06T07:35:54.000Z</time>
      </trkpt>
      <trkpt lat="41.845025" lon="22.987618">
        <ele>1151.2</ele>
        <time>2026-05-06T07:35:55.000Z</time>
      </trkpt>
      <trkpt lat="41.845017" lon="22.987612">
        <ele>1151.2</ele>
        <time>2026-05-06T07:35:56.000Z</time>
      </trkpt>
      <trkpt lat="41.845009" lon="22.987607">
        <ele>1151.2</ele>
        <time>2026-05-06T07:35:57.000Z</time>
      </trkpt>
      <trkpt lat="41.845001" lon="22.987602">
        <ele>1153.1</ele>
        <time>2026-05-06T07:35:58.000Z</time>
      </trkpt>
      <trkpt lat="41.844995" lon="22.987598">
        <ele>1153.1</ele>
        <time>2026-05-06T07:35:59.000Z</time>
      </trkpt>
      <trkpt lat="41.844988" lon="22.987593">
        <ele>1153.1</ele>
        <time>2026-05-06T07:36:00.000Z</time>
      </trkpt>
      <trkpt lat="41.844981" lon="22.987588">
        <ele>1153.1</ele>
        <time>2026-05-06T07:36:01.000Z</time>
      </trkpt>
      <trkpt lat="41.844975" lon="22.987586">
        <ele>1153.1</ele>
        <time>2026-05-06T07:36:02.000Z</time>
      </trkpt>
      <trkpt lat="41.844971" lon="22.987586">
        <ele>1154</ele>
        <time>2026-05-06T07:36:03.000Z</time>
      </trkpt>
      <trkpt lat="41.844966" lon="22.987588">
        <ele>1154</ele>
        <time>2026-05-06T07:36:04.000Z</time>
      </trkpt>
      <trkpt lat="41.844961" lon="22.987593">
        <ele>1154</ele>
        <time>2026-05-06T07:36:05.000Z</time>
      </trkpt>
      <trkpt lat="41.844957" lon="22.9876">
        <ele>1154</ele>
        <time>2026-05-06T07:36:06.000Z</time>
      </trkpt>
      <trkpt lat="41.844953" lon="22.987608">
        <ele>1154</ele>
        <time>2026-05-06T07:36:07.000Z</time>
      </trkpt>
      <trkpt lat="41.844947" lon="22.987616">
        <ele>1155.7</ele>
        <time>2026-05-06T07:36:08.000Z</time>
      </trkpt>
      <trkpt lat="41.844941" lon="22.987625">
        <ele>1155.7</ele>
        <time>2026-05-06T07:36:09.000Z</time>
      </trkpt>
      <trkpt lat="41.844936" lon="22.987634">
        <ele>1155.7</ele>
        <time>2026-05-06T07:36:10.000Z</time>
      </trkpt>
      <trkpt lat="41.844931" lon="22.987643">
        <ele>1155.7</ele>
        <time>2026-05-06T07:36:11.000Z</time>
      </trkpt>
      <trkpt lat="41.844926" lon="22.987653">
        <ele>1155.7</ele>
        <time>2026-05-06T07:36:12.000Z</time>
      </trkpt>
      <trkpt lat="41.844921" lon="22.987663">
        <ele>1157.3</ele>
        <time>2026-05-06T07:36:13.000Z</time>
      </trkpt>
      <trkpt lat="41.844917" lon="22.987672">
        <ele>1157.3</ele>
        <time>2026-05-06T07:36:14.000Z</time>
      </trkpt>
      <trkpt lat="41.844911" lon="22.987681">
        <ele>1157.3</ele>
        <time>2026-05-06T07:36:15.000Z</time>
      </trkpt>
      <trkpt lat="41.844905" lon="22.987691">
        <ele>1157.3</ele>
        <time>2026-05-06T07:36:16.000Z</time>
      </trkpt>
      <trkpt lat="41.8449" lon="22.987699">
        <ele>1157.3</ele>
        <time>2026-05-06T07:36:17.000Z</time>
      </trkpt>
      <trkpt lat="41.844894" lon="22.987709">
        <ele>1158.2</ele>
        <time>2026-05-06T07:36:18.000Z</time>
      </trkpt>
      <trkpt lat="41.844888" lon="22.98772">
        <ele>1158.2</ele>
        <time>2026-05-06T07:36:19.000Z</time>
      </trkpt>
      <trkpt lat="41.844884" lon="22.98773">
        <ele>1158.2</ele>
        <time>2026-05-06T07:36:20.000Z</time>
      </trkpt>
      <trkpt lat="41.844881" lon="22.987741">
        <ele>1158.2</ele>
        <time>2026-05-06T07:36:21.000Z</time>
      </trkpt>
      <trkpt lat="41.844878" lon="22.987755">
        <ele>1158.2</ele>
        <time>2026-05-06T07:36:22.000Z</time>
      </trkpt>
      <trkpt lat="41.844874" lon="22.987768">
        <ele>1160.1</ele>
        <time>2026-05-06T07:36:23.000Z</time>
      </trkpt>
      <trkpt lat="41.844872" lon="22.987781">
        <ele>1160.1</ele>
        <time>2026-05-06T07:36:24.000Z</time>
      </trkpt>
      <trkpt lat="41.84487" lon="22.987794">
        <ele>1160.1</ele>
        <time>2026-05-06T07:36:25.000Z</time>
      </trkpt>
      <trkpt lat="41.844868" lon="22.987807">
        <ele>1160.1</ele>
        <time>2026-05-06T07:36:26.000Z</time>
      </trkpt>
      <trkpt lat="41.844866" lon="22.987822">
        <ele>1160.1</ele>
        <time>2026-05-06T07:36:27.000Z</time>
      </trkpt>
      <trkpt lat="41.844864" lon="22.987835">
        <ele>1161.9</ele>
        <time>2026-05-06T07:36:28.000Z</time>
      </trkpt>
      <trkpt lat="41.844861" lon="22.987848">
        <ele>1161.9</ele>
        <time>2026-05-06T07:36:29.000Z</time>
      </trkpt>
      <trkpt lat="41.844858" lon="22.987862">
        <ele>1161.9</ele>
        <time>2026-05-06T07:36:30.000Z</time>
      </trkpt>
      <trkpt lat="41.844854" lon="22.987877">
        <ele>1161.9</ele>
        <time>2026-05-06T07:36:31.000Z</time>
      </trkpt>
      <trkpt lat="41.844849" lon="22.987888">
        <ele>1161.9</ele>
        <time>2026-05-06T07:36:32.000Z</time>
      </trkpt>
      <trkpt lat="41.844844" lon="22.9879">
        <ele>1162.6</ele>
        <time>2026-05-06T07:36:33.000Z</time>
      </trkpt>
      <trkpt lat="41.844841" lon="22.987913">
        <ele>1162.6</ele>
        <time>2026-05-06T07:36:34.000Z</time>
      </trkpt>
      <trkpt lat="41.844839" lon="22.987927">
        <ele>1162.6</ele>
        <time>2026-05-06T07:36:35.000Z</time>
      </trkpt>
      <trkpt lat="41.844838" lon="22.98794">
        <ele>1162.6</ele>
        <time>2026-05-06T07:36:36.000Z</time>
      </trkpt>
      <trkpt lat="41.84484" lon="22.987953">
        <ele>1162.6</ele>
        <time>2026-05-06T07:36:37.000Z</time>
      </trkpt>
      <trkpt lat="41.844844" lon="22.987968">
        <ele>1163.9</ele>
        <time>2026-05-06T07:36:38.000Z</time>
      </trkpt>
      <trkpt lat="41.844849" lon="22.987983">
        <ele>1163.9</ele>
        <time>2026-05-06T07:36:39.000Z</time>
      </trkpt>
      <trkpt lat="41.844855" lon="22.987997">
        <ele>1163.9</ele>
        <time>2026-05-06T07:36:40.000Z</time>
      </trkpt>
      <trkpt lat="41.844861" lon="22.988013">
        <ele>1163.9</ele>
        <time>2026-05-06T07:36:41.000Z</time>
      </trkpt>
      <trkpt lat="41.844866" lon="22.988027">
        <ele>1163.9</ele>
        <time>2026-05-06T07:36:42.000Z</time>
      </trkpt>
      <trkpt lat="41.84487" lon="22.988037">
        <ele>1164.9</ele>
        <time>2026-05-06T07:36:43.000Z</time>
      </trkpt>
      <trkpt lat="41.844873" lon="22.988044">
        <ele>1164.9</ele>
        <time>2026-05-06T07:36:44.000Z</time>
      </trkpt>
      <trkpt lat="41.844875" lon="22.988048">
        <ele>1164.9</ele>
        <time>2026-05-06T07:36:45.000Z</time>
      </trkpt>
      <trkpt lat="41.844875" lon="22.98805">
        <ele>1164.9</ele>
        <time>2026-05-06T07:36:46.000Z</time>
      </trkpt>
      <trkpt lat="41.844875" lon="22.988052">
        <ele>1164.9</ele>
        <time>2026-05-06T07:36:47.000Z</time>
      </trkpt>
      <trkpt lat="41.844873" lon="22.988058">
        <ele>1165.3</ele>
        <time>2026-05-06T07:36:48.000Z</time>
      </trkpt>
      <trkpt lat="41.844871" lon="22.988068">
        <ele>1165.3</ele>
        <time>2026-05-06T07:36:49.000Z</time>
      </trkpt>
      <trkpt lat="41.844866" lon="22.98808">
        <ele>1165.3</ele>
        <time>2026-05-06T07:36:50.000Z</time>
      </trkpt>
      <trkpt lat="41.844862" lon="22.988092">
        <ele>1165.3</ele>
        <time>2026-05-06T07:36:51.000Z</time>
      </trkpt>
      <trkpt lat="41.844858" lon="22.988103">
        <ele>1165.3</ele>
        <time>2026-05-06T07:36:52.000Z</time>
      </trkpt>
      <trkpt lat="41.844851" lon="22.988115">
        <ele>1165.7</ele>
        <time>2026-05-06T07:36:53.000Z</time>
      </trkpt>
      <trkpt lat="41.844843" lon="22.988124">
        <ele>1165.7</ele>
        <time>2026-05-06T07:36:54.000Z</time>
      </trkpt>
      <trkpt lat="41.844836" lon="22.988133">
        <ele>1165.7</ele>
        <time>2026-05-06T07:36:55.000Z</time>
      </trkpt>
      <trkpt lat="41.844828" lon="22.988142">
        <ele>1165.7</ele>
        <time>2026-05-06T07:36:56.000Z</time>
      </trkpt>
      <trkpt lat="41.844819" lon="22.988152">
        <ele>1165.7</ele>
        <time>2026-05-06T07:36:57.000Z</time>
      </trkpt>
      <trkpt lat="41.844811" lon="22.988161">
        <ele>1166.1</ele>
        <time>2026-05-06T07:36:58.000Z</time>
      </trkpt>
      <trkpt lat="41.844806" lon="22.98817">
        <ele>1166.1</ele>
        <time>2026-05-06T07:36:59.000Z</time>
      </trkpt>
      <trkpt lat="41.844801" lon="22.98818">
        <ele>1166.1</ele>
        <time>2026-05-06T07:37:00.000Z</time>
      </trkpt>
      <trkpt lat="41.844797" lon="22.988191">
        <ele>1166.1</ele>
        <time>2026-05-06T07:37:01.000Z</time>
      </trkpt>
      <trkpt lat="41.844794" lon="22.988204">
        <ele>1166.1</ele>
        <time>2026-05-06T07:37:02.000Z</time>
      </trkpt>
      <trkpt lat="41.844792" lon="22.988216">
        <ele>1166.6</ele>
        <time>2026-05-06T07:37:03.000Z</time>
      </trkpt>
      <trkpt lat="41.844789" lon="22.988229">
        <ele>1166.6</ele>
        <time>2026-05-06T07:37:04.000Z</time>
      </trkpt>
      <trkpt lat="41.844786" lon="22.988243">
        <ele>1166.6</ele>
        <time>2026-05-06T07:37:05.000Z</time>
      </trkpt>
      <trkpt lat="41.844784" lon="22.988254">
        <ele>1166.6</ele>
        <time>2026-05-06T07:37:06.000Z</time>
      </trkpt>
      <trkpt lat="41.844781" lon="22.988265">
        <ele>1166.6</ele>
        <time>2026-05-06T07:37:07.000Z</time>
      </trkpt>
      <trkpt lat="41.844778" lon="22.988277">
        <ele>1168.1</ele>
        <time>2026-05-06T07:37:08.000Z</time>
      </trkpt>
      <trkpt lat="41.844776" lon="22.988289">
        <ele>1168.1</ele>
        <time>2026-05-06T07:37:09.000Z</time>
      </trkpt>
      <trkpt lat="41.844775" lon="22.988299">
        <ele>1168.1</ele>
        <time>2026-05-06T07:37:10.000Z</time>
      </trkpt>
      <trkpt lat="41.844774" lon="22.988311">
        <ele>1168.1</ele>
        <time>2026-05-06T07:37:11.000Z</time>
      </trkpt>
      <trkpt lat="41.844771" lon="22.988323">
        <ele>1168.1</ele>
        <time>2026-05-06T07:37:12.000Z</time>
      </trkpt>
      <trkpt lat="41.84477" lon="22.988333">
        <ele>1169.6</ele>
        <time>2026-05-06T07:37:13.000Z</time>
      </trkpt>
      <trkpt lat="41.844767" lon="22.988344">
        <ele>1169.6</ele>
        <time>2026-05-06T07:37:14.000Z</time>
      </trkpt>
      <trkpt lat="41.844764" lon="22.988356">
        <ele>1169.6</ele>
        <time>2026-05-06T07:37:15.000Z</time>
      </trkpt>
      <trkpt lat="41.844762" lon="22.988367">
        <ele>1169.6</ele>
        <time>2026-05-06T07:37:16.000Z</time>
      </trkpt>
      <trkpt lat="41.844759" lon="22.988378">
        <ele>1169.6</ele>
        <time>2026-05-06T07:37:17.000Z</time>
      </trkpt>
      <trkpt lat="41.844756" lon="22.988389">
        <ele>1170.2</ele>
        <time>2026-05-06T07:37:18.000Z</time>
      </trkpt>
      <trkpt lat="41.844753" lon="22.988397">
        <ele>1170.2</ele>
        <time>2026-05-06T07:37:19.000Z</time>
      </trkpt>
      <trkpt lat="41.844752" lon="22.988404">
        <ele>1170.2</ele>
        <time>2026-05-06T07:37:20.000Z</time>
      </trkpt>
      <trkpt lat="41.844751" lon="22.98841">
        <ele>1170.2</ele>
        <time>2026-05-06T07:37:21.000Z</time>
      </trkpt>
      <trkpt lat="41.844751" lon="22.988416">
        <ele>1170.2</ele>
        <time>2026-05-06T07:37:22.000Z</time>
      </trkpt>
      <trkpt lat="41.844752" lon="22.988424">
        <ele>1171.1</ele>
        <time>2026-05-06T07:37:23.000Z</time>
      </trkpt>
      <trkpt lat="41.844751" lon="22.988435">
        <ele>1171.1</ele>
        <time>2026-05-06T07:37:24.000Z</time>
      </trkpt>
      <trkpt lat="41.844751" lon="22.988447">
        <ele>1171.1</ele>
        <time>2026-05-06T07:37:25.000Z</time>
      </trkpt>
      <trkpt lat="41.844749" lon="22.988461">
        <ele>1171.1</ele>
        <time>2026-05-06T07:37:26.000Z</time>
      </trkpt>
      <trkpt lat="41.844747" lon="22.988476">
        <ele>1171.1</ele>
        <time>2026-05-06T07:37:27.000Z</time>
      </trkpt>
      <trkpt lat="41.844746" lon="22.98849">
        <ele>1171.9</ele>
        <time>2026-05-06T07:37:28.000Z</time>
      </trkpt>
      <trkpt lat="41.844744" lon="22.988504">
        <ele>1171.9</ele>
        <time>2026-05-06T07:37:29.000Z</time>
      </trkpt>
      <trkpt lat="41.844743" lon="22.988519">
        <ele>1171.9</ele>
        <time>2026-05-06T07:37:30.000Z</time>
      </trkpt>
      <trkpt lat="41.844742" lon="22.988533">
        <ele>1171.9</ele>
        <time>2026-05-06T07:37:31.000Z</time>
      </trkpt>
      <trkpt lat="41.844743" lon="22.988547">
        <ele>1171.9</ele>
        <time>2026-05-06T07:37:32.000Z</time>
      </trkpt>
      <trkpt lat="41.844744" lon="22.988562">
        <ele>1172.2</ele>
        <time>2026-05-06T07:37:33.000Z</time>
      </trkpt>
      <trkpt lat="41.844747" lon="22.988579">
        <ele>1172.2</ele>
        <time>2026-05-06T07:37:34.000Z</time>
      </trkpt>
      <trkpt lat="41.844748" lon="22.988597">
        <ele>1172.2</ele>
        <time>2026-05-06T07:37:35.000Z</time>
      </trkpt>
      <trkpt lat="41.844749" lon="22.988615">
        <ele>1172.2</ele>
        <time>2026-05-06T07:37:36.000Z</time>
      </trkpt>
      <trkpt lat="41.844747" lon="22.988633">
        <ele>1172.2</ele>
        <time>2026-05-06T07:37:37.000Z</time>
      </trkpt>
      <trkpt lat="41.844742" lon="22.988648">
        <ele>1172.7</ele>
        <time>2026-05-06T07:37:38.000Z</time>
      </trkpt>
      <trkpt lat="41.844735" lon="22.988661">
        <ele>1172.7</ele>
        <time>2026-05-06T07:37:39.000Z</time>
      </trkpt>
      <trkpt lat="41.844727" lon="22.988671">
        <ele>1172.7</ele>
        <time>2026-05-06T07:37:40.000Z</time>
      </trkpt>
      <trkpt lat="41.844717" lon="22.988679">
        <ele>1172.7</ele>
        <time>2026-05-06T07:37:41.000Z</time>
      </trkpt>
      <trkpt lat="41.844706" lon="22.988687">
        <ele>1172.7</ele>
        <time>2026-05-06T07:37:42.000Z</time>
      </trkpt>
      <trkpt lat="41.844696" lon="22.988694">
        <ele>1172.8</ele>
        <time>2026-05-06T07:37:43.000Z</time>
      </trkpt>
      <trkpt lat="41.844686" lon="22.988699">
        <ele>1172.8</ele>
        <time>2026-05-06T07:37:44.000Z</time>
      </trkpt>
      <trkpt lat="41.844677" lon="22.988705">
        <ele>1172.8</ele>
        <time>2026-05-06T07:37:45.000Z</time>
      </trkpt>
      <trkpt lat="41.84467" lon="22.988711">
        <ele>1172.8</ele>
        <time>2026-05-06T07:37:46.000Z</time>
      </trkpt>
      <trkpt lat="41.844663" lon="22.988717">
        <ele>1172.8</ele>
        <time>2026-05-06T07:37:47.000Z</time>
      </trkpt>
      <trkpt lat="41.844656" lon="22.988723">
        <ele>1172.8</ele>
        <time>2026-05-06T07:37:48.000Z</time>
      </trkpt>
      <trkpt lat="41.844651" lon="22.98873">
        <ele>1172.8</ele>
        <time>2026-05-06T07:37:49.000Z</time>
      </trkpt>
      <trkpt lat="41.844644" lon="22.988735">
        <ele>1172.8</ele>
        <time>2026-05-06T07:37:50.000Z</time>
      </trkpt>
      <trkpt lat="41.844637" lon="22.988738">
        <ele>1172.8</ele>
        <time>2026-05-06T07:37:51.000Z</time>
      </trkpt>
      <trkpt lat="41.844629" lon="22.988739">
        <ele>1172.8</ele>
        <time>2026-05-06T07:37:52.000Z</time>
      </trkpt>
      <trkpt lat="41.844621" lon="22.988739">
        <ele>1173.2</ele>
        <time>2026-05-06T07:37:53.000Z</time>
      </trkpt>
      <trkpt lat="41.844613" lon="22.988739">
        <ele>1173.2</ele>
        <time>2026-05-06T07:37:54.000Z</time>
      </trkpt>
      <trkpt lat="41.844604" lon="22.988739">
        <ele>1173.2</ele>
        <time>2026-05-06T07:37:55.000Z</time>
      </trkpt>
      <trkpt lat="41.844596" lon="22.988742">
        <ele>1173.2</ele>
        <time>2026-05-06T07:37:56.000Z</time>
      </trkpt>
      <trkpt lat="41.844589" lon="22.988745">
        <ele>1173.2</ele>
        <time>2026-05-06T07:37:57.000Z</time>
      </trkpt>
      <trkpt lat="41.844582" lon="22.988749">
        <ele>1174.3</ele>
        <time>2026-05-06T07:37:58.000Z</time>
      </trkpt>
      <trkpt lat="41.844575" lon="22.988752">
        <ele>1174.3</ele>
        <time>2026-05-06T07:37:59.000Z</time>
      </trkpt>
      <trkpt lat="41.844568" lon="22.988756">
        <ele>1174.3</ele>
        <time>2026-05-06T07:38:00.000Z</time>
      </trkpt>
      <trkpt lat="41.84456" lon="22.988758">
        <ele>1174.3</ele>
        <time>2026-05-06T07:38:01.000Z</time>
      </trkpt>
      <trkpt lat="41.844551" lon="22.988759">
        <ele>1174.3</ele>
        <time>2026-05-06T07:38:02.000Z</time>
      </trkpt>
      <trkpt lat="41.844542" lon="22.98876">
        <ele>1175</ele>
        <time>2026-05-06T07:38:03.000Z</time>
      </trkpt>
      <trkpt lat="41.844535" lon="22.988761">
        <ele>1175</ele>
        <time>2026-05-06T07:38:04.000Z</time>
      </trkpt>
      <trkpt lat="41.844526" lon="22.988761">
        <ele>1175</ele>
        <time>2026-05-06T07:38:05.000Z</time>
      </trkpt>
      <trkpt lat="41.844519" lon="22.98876">
        <ele>1175</ele>
        <time>2026-05-06T07:38:06.000Z</time>
      </trkpt>
      <trkpt lat="41.844514" lon="22.988761">
        <ele>1175</ele>
        <time>2026-05-06T07:38:07.000Z</time>
      </trkpt>
      <trkpt lat="41.844508" lon="22.988762">
        <ele>1176.5</ele>
        <time>2026-05-06T07:38:08.000Z</time>
      </trkpt>
      <trkpt lat="41.844503" lon="22.988765">
        <ele>1176.5</ele>
        <time>2026-05-06T07:38:09.000Z</time>
      </trkpt>
      <trkpt lat="41.844499" lon="22.988769">
        <ele>1176.5</ele>
        <time>2026-05-06T07:38:10.000Z</time>
      </trkpt>
      <trkpt lat="41.844495" lon="22.988776">
        <ele>1176.5</ele>
        <time>2026-05-06T07:38:11.000Z</time>
      </trkpt>
      <trkpt lat="41.84449" lon="22.988783">
        <ele>1176.5</ele>
        <time>2026-05-06T07:38:12.000Z</time>
      </trkpt>
      <trkpt lat="41.844485" lon="22.988791">
        <ele>1178.2</ele>
        <time>2026-05-06T07:38:13.000Z</time>
      </trkpt>
      <trkpt lat="41.844479" lon="22.988798">
        <ele>1178.2</ele>
        <time>2026-05-06T07:38:14.000Z</time>
      </trkpt>
      <trkpt lat="41.844475" lon="22.988804">
        <ele>1178.2</ele>
        <time>2026-05-06T07:38:15.000Z</time>
      </trkpt>
      <trkpt lat="41.844471" lon="22.988808">
        <ele>1178.2</ele>
        <time>2026-05-06T07:38:16.000Z</time>
      </trkpt>
      <trkpt lat="41.844465" lon="22.988809">
        <ele>1178.2</ele>
        <time>2026-05-06T07:38:17.000Z</time>
      </trkpt>
      <trkpt lat="41.84446" lon="22.988807">
        <ele>1179.1</ele>
        <time>2026-05-06T07:38:18.000Z</time>
      </trkpt>
      <trkpt lat="41.844454" lon="22.988804">
        <ele>1179.1</ele>
        <time>2026-05-06T07:38:19.000Z</time>
      </trkpt>
      <trkpt lat="41.844445" lon="22.9888">
        <ele>1179.1</ele>
        <time>2026-05-06T07:38:20.000Z</time>
      </trkpt>
      <trkpt lat="41.844435" lon="22.988795">
        <ele>1179.1</ele>
        <time>2026-05-06T07:38:21.000Z</time>
      </trkpt>
      <trkpt lat="41.844425" lon="22.988789">
        <ele>1179.1</ele>
        <time>2026-05-06T07:38:22.000Z</time>
      </trkpt>
      <trkpt lat="41.844414" lon="22.988783">
        <ele>1180.7</ele>
        <time>2026-05-06T07:38:23.000Z</time>
      </trkpt>
      <trkpt lat="41.844405" lon="22.988778">
        <ele>1180.7</ele>
        <time>2026-05-06T07:38:24.000Z</time>
      </trkpt>
      <trkpt lat="41.844397" lon="22.988775">
        <ele>1180.7</ele>
        <time>2026-05-06T07:38:25.000Z</time>
      </trkpt>
      <trkpt lat="41.844391" lon="22.988775">
        <ele>1180.7</ele>
        <time>2026-05-06T07:38:26.000Z</time>
      </trkpt>
      <trkpt lat="41.844386" lon="22.988775">
        <ele>1180.7</ele>
        <time>2026-05-06T07:38:27.000Z</time>
      </trkpt>
      <trkpt lat="41.844381" lon="22.988776">
        <ele>1182</ele>
        <time>2026-05-06T07:38:28.000Z</time>
      </trkpt>
      <trkpt lat="41.844375" lon="22.988775">
        <ele>1182</ele>
        <time>2026-05-06T07:38:29.000Z</time>
      </trkpt>
      <trkpt lat="41.84437" lon="22.988773">
        <ele>1182</ele>
        <time>2026-05-06T07:38:30.000Z</time>
      </trkpt>
      <trkpt lat="41.844363" lon="22.988769">
        <ele>1182</ele>
        <time>2026-05-06T07:38:31.000Z</time>
      </trkpt>
      <trkpt lat="41.844355" lon="22.988766">
        <ele>1182</ele>
        <time>2026-05-06T07:38:32.000Z</time>
      </trkpt>
      <trkpt lat="41.844347" lon="22.988764">
        <ele>1182.6</ele>
        <time>2026-05-06T07:38:33.000Z</time>
      </trkpt>
      <trkpt lat="41.844338" lon="22.988763">
        <ele>1182.6</ele>
        <time>2026-05-06T07:38:34.000Z</time>
      </trkpt>
      <trkpt lat="41.844329" lon="22.988765">
        <ele>1182.6</ele>
        <time>2026-05-06T07:38:35.000Z</time>
      </trkpt>
      <trkpt lat="41.844322" lon="22.988769">
        <ele>1182.6</ele>
        <time>2026-05-06T07:38:36.000Z</time>
      </trkpt>
      <trkpt lat="41.844315" lon="22.988774">
        <ele>1182.6</ele>
        <time>2026-05-06T07:38:37.000Z</time>
      </trkpt>
      <trkpt lat="41.844308" lon="22.988782">
        <ele>1184</ele>
        <time>2026-05-06T07:38:38.000Z</time>
      </trkpt>
      <trkpt lat="41.844302" lon="22.98879">
        <ele>1184</ele>
        <time>2026-05-06T07:38:39.000Z</time>
      </trkpt>
      <trkpt lat="41.844297" lon="22.9888">
        <ele>1184</ele>
        <time>2026-05-06T07:38:40.000Z</time>
      </trkpt>
      <trkpt lat="41.844291" lon="22.98881">
        <ele>1184</ele>
        <time>2026-05-06T07:38:41.000Z</time>
      </trkpt>
      <trkpt lat="41.844286" lon="22.988821">
        <ele>1184</ele>
        <time>2026-05-06T07:38:42.000Z</time>
      </trkpt>
      <trkpt lat="41.84428" lon="22.988829">
        <ele>1185.5</ele>
        <time>2026-05-06T07:38:43.000Z</time>
      </trkpt>
      <trkpt lat="41.844275" lon="22.988835">
        <ele>1185.5</ele>
        <time>2026-05-06T07:38:44.000Z</time>
      </trkpt>
      <trkpt lat="41.844268" lon="22.988839">
        <ele>1185.5</ele>
        <time>2026-05-06T07:38:45.000Z</time>
      </trkpt>
      <trkpt lat="41.844263" lon="22.98884">
        <ele>1185.5</ele>
        <time>2026-05-06T07:38:46.000Z</time>
      </trkpt>
      <trkpt lat="41.844258" lon="22.98884">
        <ele>1185.5</ele>
        <time>2026-05-06T07:38:47.000Z</time>
      </trkpt>
      <trkpt lat="41.844255" lon="22.988839">
        <ele>1186.1</ele>
        <time>2026-05-06T07:38:48.000Z</time>
      </trkpt>
      <trkpt lat="41.844253" lon="22.988839">
        <ele>1186.1</ele>
        <time>2026-05-06T07:38:49.000Z</time>
      </trkpt>
      <trkpt lat="41.844252" lon="22.988839">
        <ele>1186.1</ele>
        <time>2026-05-06T07:38:50.000Z</time>
      </trkpt>
      <trkpt lat="41.844252" lon="22.98884">
        <ele>1186.1</ele>
        <time>2026-05-06T07:38:51.000Z</time>
      </trkpt>
      <trkpt lat="41.84425" lon="22.988843">
        <ele>1186.1</ele>
        <time>2026-05-06T07:38:52.000Z</time>
      </trkpt>
      <trkpt lat="41.844247" lon="22.988848">
        <ele>1187.2</ele>
        <time>2026-05-06T07:38:53.000Z</time>
      </trkpt>
      <trkpt lat="41.844244" lon="22.988854">
        <ele>1187.2</ele>
        <time>2026-05-06T07:38:54.000Z</time>
      </trkpt>
      <trkpt lat="41.84424" lon="22.988859">
        <ele>1187.2</ele>
        <time>2026-05-06T07:38:55.000Z</time>
      </trkpt>
      <trkpt lat="41.844236" lon="22.988864">
        <ele>1187.2</ele>
        <time>2026-05-06T07:38:56.000Z</time>
      </trkpt>
      <trkpt lat="41.844232" lon="22.988868">
        <ele>1187.2</ele>
        <time>2026-05-06T07:38:57.000Z</time>
      </trkpt>
      <trkpt lat="41.84423" lon="22.988868">
        <ele>1187.5</ele>
        <time>2026-05-06T07:38:58.000Z</time>
      </trkpt>
      <trkpt lat="41.844228" lon="22.988869">
        <ele>1187.5</ele>
        <time>2026-05-06T07:38:59.000Z</time>
      </trkpt>
      <trkpt lat="41.844226" lon="22.988869">
        <ele>1187.5</ele>
        <time>2026-05-06T07:39:00.000Z</time>
      </trkpt>
      <trkpt lat="41.844225" lon="22.98887">
        <ele>1187.5</ele>
        <time>2026-05-06T07:39:01.000Z</time>
      </trkpt>
      <trkpt lat="41.844223" lon="22.988871">
        <ele>1187.5</ele>
        <time>2026-05-06T07:39:02.000Z</time>
      </trkpt>
      <trkpt lat="41.84422" lon="22.988872">
        <ele>1187.3</ele>
        <time>2026-05-06T07:39:03.000Z</time>
      </trkpt>
      <trkpt lat="41.844216" lon="22.988872">
        <ele>1187.3</ele>
        <time>2026-05-06T07:39:04.000Z</time>
      </trkpt>
      <trkpt lat="41.844213" lon="22.988871">
        <ele>1187.3</ele>
        <time>2026-05-06T07:39:05.000Z</time>
      </trkpt>
      <trkpt lat="41.84421" lon="22.98887">
        <ele>1187.3</ele>
        <time>2026-05-06T07:39:06.000Z</time>
      </trkpt>
      <trkpt lat="41.844207" lon="22.988868">
        <ele>1187.3</ele>
        <time>2026-05-06T07:39:07.000Z</time>
      </trkpt>
      <trkpt lat="41.844205" lon="22.988867">
        <ele>1186.5</ele>
        <time>2026-05-06T07:39:08.000Z</time>
      </trkpt>
      <trkpt lat="41.844202" lon="22.988867">
        <ele>1186.5</ele>
        <time>2026-05-06T07:39:09.000Z</time>
      </trkpt>
      <trkpt lat="41.844198" lon="22.988867">
        <ele>1186.5</ele>
        <time>2026-05-06T07:39:10.000Z</time>
      </trkpt>
      <trkpt lat="41.844191" lon="22.988866">
        <ele>1186.5</ele>
        <time>2026-05-06T07:39:11.000Z</time>
      </trkpt>
      <trkpt lat="41.844184" lon="22.988866">
        <ele>1186.5</ele>
        <time>2026-05-06T07:39:12.000Z</time>
      </trkpt>
      <trkpt lat="41.844174" lon="22.988868">
        <ele>1185.5</ele>
        <time>2026-05-06T07:39:13.000Z</time>
      </trkpt>
      <trkpt lat="41.844163" lon="22.988871">
        <ele>1185.5</ele>
        <time>2026-05-06T07:39:14.000Z</time>
      </trkpt>
      <trkpt lat="41.844151" lon="22.988876">
        <ele>1185.5</ele>
        <time>2026-05-06T07:39:15.000Z</time>
      </trkpt>
      <trkpt lat="41.84414" lon="22.988884">
        <ele>1185.5</ele>
        <time>2026-05-06T07:39:16.000Z</time>
      </trkpt>
      <trkpt lat="41.844129" lon="22.988894">
        <ele>1185.5</ele>
        <time>2026-05-06T07:39:17.000Z</time>
      </trkpt>
      <trkpt lat="41.844118" lon="22.988906">
        <ele>1184.9</ele>
        <time>2026-05-06T07:39:18.000Z</time>
      </trkpt>
      <trkpt lat="41.844108" lon="22.988916">
        <ele>1184.9</ele>
        <time>2026-05-06T07:39:19.000Z</time>
      </trkpt>
      <trkpt lat="41.8441" lon="22.988927">
        <ele>1184.9</ele>
        <time>2026-05-06T07:39:20.000Z</time>
      </trkpt>
      <trkpt lat="41.844091" lon="22.988938">
        <ele>1184.9</ele>
        <time>2026-05-06T07:39:21.000Z</time>
      </trkpt>
      <trkpt lat="41.844083" lon="22.988951">
        <ele>1184.9</ele>
        <time>2026-05-06T07:39:22.000Z</time>
      </trkpt>
      <trkpt lat="41.844074" lon="22.988963">
        <ele>1183.5</ele>
        <time>2026-05-06T07:39:23.000Z</time>
      </trkpt>
      <trkpt lat="41.844066" lon="22.988976">
        <ele>1183.5</ele>
        <time>2026-05-06T07:39:24.000Z</time>
      </trkpt>
      <trkpt lat="41.844055" lon="22.98899">
        <ele>1183.5</ele>
        <time>2026-05-06T07:39:25.000Z</time>
      </trkpt>
      <trkpt lat="41.844045" lon="22.989002">
        <ele>1183.5</ele>
        <time>2026-05-06T07:39:26.000Z</time>
      </trkpt>
      <trkpt lat="41.844034" lon="22.989013">
        <ele>1183.5</ele>
        <time>2026-05-06T07:39:27.000Z</time>
      </trkpt>
      <trkpt lat="41.844024" lon="22.989023">
        <ele>1181.5</ele>
        <time>2026-05-06T07:39:28.000Z</time>
      </trkpt>
      <trkpt lat="41.844015" lon="22.989034">
        <ele>1181.5</ele>
        <time>2026-05-06T07:39:29.000Z</time>
      </trkpt>
      <trkpt lat="41.844007" lon="22.989046">
        <ele>1181.5</ele>
        <time>2026-05-06T07:39:30.000Z</time>
      </trkpt>
      <trkpt lat="41.844001" lon="22.989059">
        <ele>1181.5</ele>
        <time>2026-05-06T07:39:31.000Z</time>
      </trkpt>
      <trkpt lat="41.843998" lon="22.989072">
        <ele>1181.5</ele>
        <time>2026-05-06T07:39:32.000Z</time>
      </trkpt>
      <trkpt lat="41.843997" lon="22.989085">
        <ele>1180.4</ele>
        <time>2026-05-06T07:39:33.000Z</time>
      </trkpt>
      <trkpt lat="41.843997" lon="22.989096">
        <ele>1180.4</ele>
        <time>2026-05-06T07:39:34.000Z</time>
      </trkpt>
      <trkpt lat="41.843997" lon="22.989106">
        <ele>1180.4</ele>
        <time>2026-05-06T07:39:35.000Z</time>
      </trkpt>
      <trkpt lat="41.843995" lon="22.989115">
        <ele>1180.4</ele>
        <time>2026-05-06T07:39:36.000Z</time>
      </trkpt>
      <trkpt lat="41.843992" lon="22.989125">
        <ele>1180.4</ele>
        <time>2026-05-06T07:39:37.000Z</time>
      </trkpt>
      <trkpt lat="41.843986" lon="22.989133">
        <ele>1177.9</ele>
        <time>2026-05-06T07:39:38.000Z</time>
      </trkpt>
      <trkpt lat="41.843976" lon="22.989139">
        <ele>1177.9</ele>
        <time>2026-05-06T07:39:39.000Z</time>
      </trkpt>
      <trkpt lat="41.843965" lon="22.989143">
        <ele>1177.9</ele>
        <time>2026-05-06T07:39:40.000Z</time>
      </trkpt>
      <trkpt lat="41.843952" lon="22.989147">
        <ele>1177.9</ele>
        <time>2026-05-06T07:39:41.000Z</time>
      </trkpt>
      <trkpt lat="41.843939" lon="22.98915">
        <ele>1177.9</ele>
        <time>2026-05-06T07:39:42.000Z</time>
      </trkpt>
      <trkpt lat="41.843926" lon="22.989154">
        <ele>1175.6</ele>
        <time>2026-05-06T07:39:43.000Z</time>
      </trkpt>
      <trkpt lat="41.843914" lon="22.989159">
        <ele>1175.6</ele>
        <time>2026-05-06T07:39:44.000Z</time>
      </trkpt>
      <trkpt lat="41.8439" lon="22.989165">
        <ele>1175.6</ele>
        <time>2026-05-06T07:39:45.000Z</time>
      </trkpt>
      <trkpt lat="41.843884" lon="22.98917">
        <ele>1175.6</ele>
        <time>2026-05-06T07:39:46.000Z</time>
      </trkpt>
      <trkpt lat="41.843866" lon="22.989176">
        <ele>1175.6</ele>
        <time>2026-05-06T07:39:47.000Z</time>
      </trkpt>
      <trkpt lat="41.843848" lon="22.989181">
        <ele>1174.5</ele>
        <time>2026-05-06T07:39:48.000Z</time>
      </trkpt>
      <trkpt lat="41.843828" lon="22.989187">
        <ele>1174.5</ele>
        <time>2026-05-06T07:39:49.000Z</time>
      </trkpt>
      <trkpt lat="41.84381" lon="22.989192">
        <ele>1174.5</ele>
        <time>2026-05-06T07:39:50.000Z</time>
      </trkpt>
      <trkpt lat="41.843794" lon="22.989196">
        <ele>1174.5</ele>
        <time>2026-05-06T07:39:51.000Z</time>
      </trkpt>
      <trkpt lat="41.843782" lon="22.989198">
        <ele>1174.5</ele>
        <time>2026-05-06T07:39:52.000Z</time>
      </trkpt>
      <trkpt lat="41.843771" lon="22.989198">
        <ele>1172.9</ele>
        <time>2026-05-06T07:39:53.000Z</time>
      </trkpt>
      <trkpt lat="41.843762" lon="22.989196">
        <ele>1172.9</ele>
        <time>2026-05-06T07:39:54.000Z</time>
      </trkpt>
      <trkpt lat="41.843755" lon="22.989192">
        <ele>1172.9</ele>
        <time>2026-05-06T07:39:55.000Z</time>
      </trkpt>
      <trkpt lat="41.843748" lon="22.989189">
        <ele>1172.9</ele>
        <time>2026-05-06T07:39:56.000Z</time>
      </trkpt>
      <trkpt lat="41.843739" lon="22.989186">
        <ele>1172.9</ele>
        <time>2026-05-06T07:39:57.000Z</time>
      </trkpt>
      <trkpt lat="41.843729" lon="22.989185">
        <ele>1172.2</ele>
        <time>2026-05-06T07:39:58.000Z</time>
      </trkpt>
      <trkpt lat="41.843717" lon="22.989183">
        <ele>1172.2</ele>
        <time>2026-05-06T07:39:59.000Z</time>
      </trkpt>
      <trkpt lat="41.843704" lon="22.989183">
        <ele>1172.2</ele>
        <time>2026-05-06T07:40:00.000Z</time>
      </trkpt>
      <trkpt lat="41.843692" lon="22.989183">
        <ele>1172.2</ele>
        <time>2026-05-06T07:40:01.000Z</time>
      </trkpt>
      <trkpt lat="41.843679" lon="22.989186">
        <ele>1172.2</ele>
        <time>2026-05-06T07:40:02.000Z</time>
      </trkpt>
      <trkpt lat="41.843666" lon="22.989188">
        <ele>1172.3</ele>
        <time>2026-05-06T07:40:03.000Z</time>
      </trkpt>
      <trkpt lat="41.843654" lon="22.989191">
        <ele>1172.3</ele>
        <time>2026-05-06T07:40:04.000Z</time>
      </trkpt>
      <trkpt lat="41.843642" lon="22.989194">
        <ele>1172.3</ele>
        <time>2026-05-06T07:40:05.000Z</time>
      </trkpt>
      <trkpt lat="41.843631" lon="22.989197">
        <ele>1172.3</ele>
        <time>2026-05-06T07:40:06.000Z</time>
      </trkpt>
      <trkpt lat="41.843621" lon="22.9892">
        <ele>1172.3</ele>
        <time>2026-05-06T07:40:07.000Z</time>
      </trkpt>
      <trkpt lat="41.843612" lon="22.989205">
        <ele>1173.3</ele>
        <time>2026-05-06T07:40:08.000Z</time>
      </trkpt>
      <trkpt lat="41.843603" lon="22.989209">
        <ele>1173.3</ele>
        <time>2026-05-06T07:40:09.000Z</time>
      </trkpt>
      <trkpt lat="41.843594" lon="22.989214">
        <ele>1173.3</ele>
        <time>2026-05-06T07:40:10.000Z</time>
      </trkpt>
      <trkpt lat="41.843585" lon="22.989218">
        <ele>1173.3</ele>
        <time>2026-05-06T07:40:11.000Z</time>
      </trkpt>
      <trkpt lat="41.843575" lon="22.989222">
        <ele>1173.3</ele>
        <time>2026-05-06T07:40:12.000Z</time>
      </trkpt>
      <trkpt lat="41.843567" lon="22.989225">
        <ele>1174.5</ele>
        <time>2026-05-06T07:40:13.000Z</time>
      </trkpt>
      <trkpt lat="41.843559" lon="22.989228">
        <ele>1174.5</ele>
        <time>2026-05-06T07:40:14.000Z</time>
      </trkpt>
      <trkpt lat="41.843553" lon="22.989231">
        <ele>1174.5</ele>
        <time>2026-05-06T07:40:15.000Z</time>
      </trkpt>
      <trkpt lat="41.843547" lon="22.989233">
        <ele>1174.5</ele>
        <time>2026-05-06T07:40:16.000Z</time>
      </trkpt>
      <trkpt lat="41.843541" lon="22.989235">
        <ele>1174.5</ele>
        <time>2026-05-06T07:40:17.000Z</time>
      </trkpt>
      <trkpt lat="41.843535" lon="22.989238">
        <ele>1174.9</ele>
        <time>2026-05-06T07:40:18.000Z</time>
      </trkpt>
      <trkpt lat="41.843528" lon="22.989242">
        <ele>1174.9</ele>
        <time>2026-05-06T07:40:19.000Z</time>
      </trkpt>
      <trkpt lat="41.843521" lon="22.989245">
        <ele>1174.9</ele>
        <time>2026-05-06T07:40:20.000Z</time>
      </trkpt>
      <trkpt lat="41.843515" lon="22.989249">
        <ele>1174.9</ele>
        <time>2026-05-06T07:40:21.000Z</time>
      </trkpt>
      <trkpt lat="41.843512" lon="22.989252">
        <ele>1174.9</ele>
        <time>2026-05-06T07:40:22.000Z</time>
      </trkpt>
      <trkpt lat="41.843511" lon="22.989257">
        <ele>1175.2</ele>
        <time>2026-05-06T07:40:23.000Z</time>
      </trkpt>
      <trkpt lat="41.843511" lon="22.989263">
        <ele>1175.2</ele>
        <time>2026-05-06T07:40:24.000Z</time>
      </trkpt>
      <trkpt lat="41.843511" lon="22.989271">
        <ele>1175.2</ele>
        <time>2026-05-06T07:40:25.000Z</time>
      </trkpt>
      <trkpt lat="41.843509" lon="22.98928">
        <ele>1175.2</ele>
        <time>2026-05-06T07:40:26.000Z</time>
      </trkpt>
      <trkpt lat="41.843504" lon="22.989289">
        <ele>1175.2</ele>
        <time>2026-05-06T07:40:27.000Z</time>
      </trkpt>
      <trkpt lat="41.843498" lon="22.989296">
        <ele>1175.2</ele>
        <time>2026-05-06T07:40:28.000Z</time>
      </trkpt>
      <trkpt lat="41.843493" lon="22.989301">
        <ele>1175.2</ele>
        <time>2026-05-06T07:40:29.000Z</time>
      </trkpt>
      <trkpt lat="41.843489" lon="22.989306">
        <ele>1175.2</ele>
        <time>2026-05-06T07:40:30.000Z</time>
      </trkpt>
      <trkpt lat="41.843487" lon="22.989312">
        <ele>1175.2</ele>
        <time>2026-05-06T07:40:31.000Z</time>
      </trkpt>
      <trkpt lat="41.843486" lon="22.98932">
        <ele>1175.2</ele>
        <time>2026-05-06T07:40:32.000Z</time>
      </trkpt>
      <trkpt lat="41.843486" lon="22.989328">
        <ele>1175</ele>
        <time>2026-05-06T07:40:33.000Z</time>
      </trkpt>
      <trkpt lat="41.843485" lon="22.989336">
        <ele>1175</ele>
        <time>2026-05-06T07:40:34.000Z</time>
      </trkpt>
      <trkpt lat="41.84348" lon="22.989344">
        <ele>1175</ele>
        <time>2026-05-06T07:40:35.000Z</time>
      </trkpt>
      <trkpt lat="41.843473" lon="22.989352">
        <ele>1175</ele>
        <time>2026-05-06T07:40:36.000Z</time>
      </trkpt>
      <trkpt lat="41.843463" lon="22.989358">
        <ele>1175</ele>
        <time>2026-05-06T07:40:37.000Z</time>
      </trkpt>
      <trkpt lat="41.843453" lon="22.989364">
        <ele>1174.3</ele>
        <time>2026-05-06T07:40:38.000Z</time>
      </trkpt>
      <trkpt lat="41.843441" lon="22.98937">
        <ele>1174.3</ele>
        <time>2026-05-06T07:40:39.000Z</time>
      </trkpt>
      <trkpt lat="41.843431" lon="22.989376">
        <ele>1174.3</ele>
        <time>2026-05-06T07:40:40.000Z</time>
      </trkpt>
      <trkpt lat="41.843421" lon="22.989382">
        <ele>1174.3</ele>
        <time>2026-05-06T07:40:41.000Z</time>
      </trkpt>
      <trkpt lat="41.843412" lon="22.989389">
        <ele>1174.3</ele>
        <time>2026-05-06T07:40:42.000Z</time>
      </trkpt>
      <trkpt lat="41.843402" lon="22.989397">
        <ele>1173.2</ele>
        <time>2026-05-06T07:40:43.000Z</time>
      </trkpt>
      <trkpt lat="41.843393" lon="22.989407">
        <ele>1173.2</ele>
        <time>2026-05-06T07:40:44.000Z</time>
      </trkpt>
      <trkpt lat="41.843386" lon="22.989419">
        <ele>1173.2</ele>
        <time>2026-05-06T07:40:45.000Z</time>
      </trkpt>
      <trkpt lat="41.84338" lon="22.989432">
        <ele>1173.2</ele>
        <time>2026-05-06T07:40:46.000Z</time>
      </trkpt>
      <trkpt lat="41.843374" lon="22.989446">
        <ele>1173.2</ele>
        <time>2026-05-06T07:40:47.000Z</time>
      </trkpt>
      <trkpt lat="41.84337" lon="22.989462">
        <ele>1172.7</ele>
        <time>2026-05-06T07:40:48.000Z</time>
      </trkpt>
      <trkpt lat="41.843368" lon="22.989478">
        <ele>1172.7</ele>
        <time>2026-05-06T07:40:49.000Z</time>
      </trkpt>
      <trkpt lat="41.843367" lon="22.989494">
        <ele>1172.7</ele>
        <time>2026-05-06T07:40:50.000Z</time>
      </trkpt>
      <trkpt lat="41.843366" lon="22.989509">
        <ele>1172.7</ele>
        <time>2026-05-06T07:40:51.000Z</time>
      </trkpt>
      <trkpt lat="41.843368" lon="22.989523">
        <ele>1172.7</ele>
        <time>2026-05-06T07:40:52.000Z</time>
      </trkpt>
      <trkpt lat="41.84337" lon="22.989536">
        <ele>1172.3</ele>
        <time>2026-05-06T07:40:53.000Z</time>
      </trkpt>
      <trkpt lat="41.843373" lon="22.989546">
        <ele>1172.3</ele>
        <time>2026-05-06T07:40:54.000Z</time>
      </trkpt>
      <trkpt lat="41.843376" lon="22.989555">
        <ele>1172.3</ele>
        <time>2026-05-06T07:40:55.000Z</time>
      </trkpt>
      <trkpt lat="41.843378" lon="22.989566">
        <ele>1172.3</ele>
        <time>2026-05-06T07:40:56.000Z</time>
      </trkpt>
      <trkpt lat="41.843379" lon="22.989578">
        <ele>1172.3</ele>
        <time>2026-05-06T07:40:57.000Z</time>
      </trkpt>
      <trkpt lat="41.843379" lon="22.989591">
        <ele>1172</ele>
        <time>2026-05-06T07:40:58.000Z</time>
      </trkpt>
      <trkpt lat="41.843377" lon="22.989605">
        <ele>1172</ele>
        <time>2026-05-06T07:40:59.000Z</time>
      </trkpt>
      <trkpt lat="41.843375" lon="22.989619">
        <ele>1172</ele>
        <time>2026-05-06T07:41:00.000Z</time>
      </trkpt>
      <trkpt lat="41.843374" lon="22.98963">
        <ele>1172</ele>
        <time>2026-05-06T07:41:01.000Z</time>
      </trkpt>
      <trkpt lat="41.843373" lon="22.989642">
        <ele>1172</ele>
        <time>2026-05-06T07:41:02.000Z</time>
      </trkpt>
      <trkpt lat="41.843371" lon="22.989654">
        <ele>1171.6</ele>
        <time>2026-05-06T07:41:03.000Z</time>
      </trkpt>
      <trkpt lat="41.843367" lon="22.989666">
        <ele>1171.6</ele>
        <time>2026-05-06T07:41:04.000Z</time>
      </trkpt>
      <trkpt lat="41.843362" lon="22.98968">
        <ele>1171.6</ele>
        <time>2026-05-06T07:41:05.000Z</time>
      </trkpt>
      <trkpt lat="41.843356" lon="22.989694">
        <ele>1171.6</ele>
        <time>2026-05-06T07:41:06.000Z</time>
      </trkpt>
      <trkpt lat="41.843348" lon="22.989708">
        <ele>1171.6</ele>
        <time>2026-05-06T07:41:07.000Z</time>
      </trkpt>
      <trkpt lat="41.84334" lon="22.989723">
        <ele>1170.4</ele>
        <time>2026-05-06T07:41:08.000Z</time>
      </trkpt>
      <trkpt lat="41.843334" lon="22.989738">
        <ele>1170.4</ele>
        <time>2026-05-06T07:41:09.000Z</time>
      </trkpt>
      <trkpt lat="41.843327" lon="22.989756">
        <ele>1170.4</ele>
        <time>2026-05-06T07:41:10.000Z</time>
      </trkpt>
      <trkpt lat="41.843321" lon="22.989774">
        <ele>1170.4</ele>
        <time>2026-05-06T07:41:11.000Z</time>
      </trkpt>
      <trkpt lat="41.843315" lon="22.989793">
        <ele>1170.4</ele>
        <time>2026-05-06T07:41:12.000Z</time>
      </trkpt>
      <trkpt lat="41.843309" lon="22.989814">
        <ele>1169.4</ele>
        <time>2026-05-06T07:41:13.000Z</time>
      </trkpt>
      <trkpt lat="41.843301" lon="22.989835">
        <ele>1169.4</ele>
        <time>2026-05-06T07:41:14.000Z</time>
      </trkpt>
      <trkpt lat="41.843294" lon="22.989853">
        <ele>1169.4</ele>
        <time>2026-05-06T07:41:15.000Z</time>
      </trkpt>
      <trkpt lat="41.843285" lon="22.98987">
        <ele>1169.4</ele>
        <time>2026-05-06T07:41:16.000Z</time>
      </trkpt>
      <trkpt lat="41.843276" lon="22.989885">
        <ele>1169.4</ele>
        <time>2026-05-06T07:41:17.000Z</time>
      </trkpt>
      <trkpt lat="41.843268" lon="22.9899">
        <ele>1169.2</ele>
        <time>2026-05-06T07:41:18.000Z</time>
      </trkpt>
      <trkpt lat="41.843259" lon="22.989913">
        <ele>1169.2</ele>
        <time>2026-05-06T07:41:19.000Z</time>
      </trkpt>
      <trkpt lat="41.84325" lon="22.989926">
        <ele>1169.2</ele>
        <time>2026-05-06T07:41:20.000Z</time>
      </trkpt>
      <trkpt lat="41.843241" lon="22.989938">
        <ele>1169.2</ele>
        <time>2026-05-06T07:41:21.000Z</time>
      </trkpt>
      <trkpt lat="41.843232" lon="22.989949">
        <ele>1169.2</ele>
        <time>2026-05-06T07:41:22.000Z</time>
      </trkpt>
      <trkpt lat="41.843223" lon="22.989958">
        <ele>1168.7</ele>
        <time>2026-05-06T07:41:23.000Z</time>
      </trkpt>
      <trkpt lat="41.843216" lon="22.989968">
        <ele>1168.7</ele>
        <time>2026-05-06T07:41:24.000Z</time>
      </trkpt>
      <trkpt lat="41.84321" lon="22.989979">
        <ele>1168.7</ele>
        <time>2026-05-06T07:41:25.000Z</time>
      </trkpt>
      <trkpt lat="41.843204" lon="22.98999">
        <ele>1168.7</ele>
        <time>2026-05-06T07:41:26.000Z</time>
      </trkpt>
      <trkpt lat="41.8432" lon="22.990002">
        <ele>1168.7</ele>
        <time>2026-05-06T07:41:27.000Z</time>
      </trkpt>
      <trkpt lat="41.843196" lon="22.990015">
        <ele>1168.7</ele>
        <time>2026-05-06T07:41:28.000Z</time>
      </trkpt>
      <trkpt lat="41.843191" lon="22.990028">
        <ele>1168.7</ele>
        <time>2026-05-06T07:41:29.000Z</time>
      </trkpt>
      <trkpt lat="41.843186" lon="22.990039">
        <ele>1168.7</ele>
        <time>2026-05-06T07:41:30.000Z</time>
      </trkpt>
      <trkpt lat="41.843181" lon="22.990049">
        <ele>1168.7</ele>
        <time>2026-05-06T07:41:31.000Z</time>
      </trkpt>
      <trkpt lat="41.843175" lon="22.990058">
        <ele>1168.7</ele>
        <time>2026-05-06T07:41:32.000Z</time>
      </trkpt>
      <trkpt lat="41.843169" lon="22.990066">
        <ele>1169.1</ele>
        <time>2026-05-06T07:41:33.000Z</time>
      </trkpt>
      <trkpt lat="41.843163" lon="22.990072">
        <ele>1169.1</ele>
        <time>2026-05-06T07:41:34.000Z</time>
      </trkpt>
      <trkpt lat="41.843158" lon="22.990077">
        <ele>1169.1</ele>
        <time>2026-05-06T07:41:35.000Z</time>
      </trkpt>
      <trkpt lat="41.843151" lon="22.990085">
        <ele>1169.1</ele>
        <time>2026-05-06T07:41:36.000Z</time>
      </trkpt>
      <trkpt lat="41.843145" lon="22.990095">
        <ele>1169.1</ele>
        <time>2026-05-06T07:41:37.000Z</time>
      </trkpt>
      <trkpt lat="41.843139" lon="22.990106">
        <ele>1170.6</ele>
        <time>2026-05-06T07:41:38.000Z</time>
      </trkpt>
      <trkpt lat="41.843131" lon="22.990118">
        <ele>1170.6</ele>
        <time>2026-05-06T07:41:39.000Z</time>
      </trkpt>
      <trkpt lat="41.843124" lon="22.99013">
        <ele>1170.6</ele>
        <time>2026-05-06T07:41:40.000Z</time>
      </trkpt>
      <trkpt lat="41.843119" lon="22.990139">
        <ele>1170.6</ele>
        <time>2026-05-06T07:41:41.000Z</time>
      </trkpt>
      <trkpt lat="41.843114" lon="22.990148">
        <ele>1170.6</ele>
        <time>2026-05-06T07:41:42.000Z</time>
      </trkpt>
      <trkpt lat="41.843107" lon="22.990156">
        <ele>1172.5</ele>
        <time>2026-05-06T07:41:43.000Z</time>
      </trkpt>
      <trkpt lat="41.843103" lon="22.990165">
        <ele>1172.5</ele>
        <time>2026-05-06T07:41:44.000Z</time>
      </trkpt>
      <trkpt lat="41.843097" lon="22.990172">
        <ele>1172.5</ele>
        <time>2026-05-06T07:41:45.000Z</time>
      </trkpt>
      <trkpt lat="41.843092" lon="22.99018">
        <ele>1172.5</ele>
        <time>2026-05-06T07:41:46.000Z</time>
      </trkpt>
      <trkpt lat="41.843087" lon="22.990186">
        <ele>1172.5</ele>
        <time>2026-05-06T07:41:47.000Z</time>
      </trkpt>
      <trkpt lat="41.843082" lon="22.990192">
        <ele>1173.4</ele>
        <time>2026-05-06T07:41:48.000Z</time>
      </trkpt>
      <trkpt lat="41.843078" lon="22.990198">
        <ele>1173.4</ele>
        <time>2026-05-06T07:41:49.000Z</time>
      </trkpt>
      <trkpt lat="41.843075" lon="22.990204">
        <ele>1173.4</ele>
        <time>2026-05-06T07:41:50.000Z</time>
      </trkpt>
      <trkpt lat="41.843072" lon="22.990209">
        <ele>1173.4</ele>
        <time>2026-05-06T07:41:51.000Z</time>
      </trkpt>
      <trkpt lat="41.843069" lon="22.990214">
        <ele>1173.4</ele>
        <time>2026-05-06T07:41:52.000Z</time>
      </trkpt>
      <trkpt lat="41.843067" lon="22.990216">
        <ele>1175.2</ele>
        <time>2026-05-06T07:41:53.000Z</time>
      </trkpt>
      <trkpt lat="41.843062" lon="22.990217">
        <ele>1175.2</ele>
        <time>2026-05-06T07:41:54.000Z</time>
      </trkpt>
      <trkpt lat="41.843056" lon="22.990216">
        <ele>1175.2</ele>
        <time>2026-05-06T07:41:55.000Z</time>
      </trkpt>
      <trkpt lat="41.84305" lon="22.990212">
        <ele>1175.2</ele>
        <time>2026-05-06T07:41:56.000Z</time>
      </trkpt>
      <trkpt lat="41.843043" lon="22.990206">
        <ele>1175.2</ele>
        <time>2026-05-06T07:41:57.000Z</time>
      </trkpt>
      <trkpt lat="41.843036" lon="22.990198">
        <ele>1176.6</ele>
        <time>2026-05-06T07:41:58.000Z</time>
      </trkpt>
      <trkpt lat="41.843029" lon="22.990189">
        <ele>1176.6</ele>
        <time>2026-05-06T07:41:59.000Z</time>
      </trkpt>
      <trkpt lat="41.843023" lon="22.990179">
        <ele>1176.6</ele>
        <time>2026-05-06T07:42:00.000Z</time>
      </trkpt>
      <trkpt lat="41.843016" lon="22.990169">
        <ele>1176.6</ele>
        <time>2026-05-06T07:42:01.000Z</time>
      </trkpt>
      <trkpt lat="41.843009" lon="22.990162">
        <ele>1176.6</ele>
        <time>2026-05-06T07:42:02.000Z</time>
      </trkpt>
      <trkpt lat="41.843004" lon="22.990156">
        <ele>1177.2</ele>
        <time>2026-05-06T07:42:03.000Z</time>
      </trkpt>
      <trkpt lat="41.842998" lon="22.990153">
        <ele>1177.2</ele>
        <time>2026-05-06T07:42:04.000Z</time>
      </trkpt>
      <trkpt lat="41.842992" lon="22.990154">
        <ele>1177.2</ele>
        <time>2026-05-06T07:42:05.000Z</time>
      </trkpt>
      <trkpt lat="41.842987" lon="22.99016">
        <ele>1177.2</ele>
        <time>2026-05-06T07:42:06.000Z</time>
      </trkpt>
      <trkpt lat="41.842982" lon="22.990168">
        <ele>1177.2</ele>
        <time>2026-05-06T07:42:07.000Z</time>
      </trkpt>
      <trkpt lat="41.842977" lon="22.990179">
        <ele>1177.8</ele>
        <time>2026-05-06T07:42:08.000Z</time>
      </trkpt>
      <trkpt lat="41.842972" lon="22.990191">
        <ele>1177.8</ele>
        <time>2026-05-06T07:42:09.000Z</time>
      </trkpt>
      <trkpt lat="41.842967" lon="22.990205">
        <ele>1177.8</ele>
        <time>2026-05-06T07:42:10.000Z</time>
      </trkpt>
      <trkpt lat="41.842962" lon="22.990219">
        <ele>1177.8</ele>
        <time>2026-05-06T07:42:11.000Z</time>
      </trkpt>
      <trkpt lat="41.842957" lon="22.990233">
        <ele>1177.8</ele>
        <time>2026-05-06T07:42:12.000Z</time>
      </trkpt>
      <trkpt lat="41.842951" lon="22.990249">
        <ele>1178.7</ele>
        <time>2026-05-06T07:42:13.000Z</time>
      </trkpt>
      <trkpt lat="41.842945" lon="22.990266">
        <ele>1178.7</ele>
        <time>2026-05-06T07:42:14.000Z</time>
      </trkpt>
      <trkpt lat="41.84294" lon="22.990282">
        <ele>1178.7</ele>
        <time>2026-05-06T07:42:15.000Z</time>
      </trkpt>
      <trkpt lat="41.842934" lon="22.990297">
        <ele>1178.7</ele>
        <time>2026-05-06T07:42:16.000Z</time>
      </trkpt>
      <trkpt lat="41.84293" lon="22.990312">
        <ele>1178.7</ele>
        <time>2026-05-06T07:42:17.000Z</time>
      </trkpt>
      <trkpt lat="41.842925" lon="22.990326">
        <ele>1179.3</ele>
        <time>2026-05-06T07:42:18.000Z</time>
      </trkpt>
      <trkpt lat="41.84292" lon="22.990339">
        <ele>1179.3</ele>
        <time>2026-05-06T07:42:19.000Z</time>
      </trkpt>
      <trkpt lat="41.842914" lon="22.990352">
        <ele>1179.3</ele>
        <time>2026-05-06T07:42:20.000Z</time>
      </trkpt>
      <trkpt lat="41.842909" lon="22.990364">
        <ele>1179.3</ele>
        <time>2026-05-06T07:42:21.000Z</time>
      </trkpt>
      <trkpt lat="41.842906" lon="22.990378">
        <ele>1179.3</ele>
        <time>2026-05-06T07:42:22.000Z</time>
      </trkpt>
      <trkpt lat="41.842904" lon="22.990393">
        <ele>1180.3</ele>
        <time>2026-05-06T07:42:23.000Z</time>
      </trkpt>
      <trkpt lat="41.842904" lon="22.99041">
        <ele>1180.3</ele>
        <time>2026-05-06T07:42:24.000Z</time>
      </trkpt>
      <trkpt lat="41.842908" lon="22.990427">
        <ele>1180.3</ele>
        <time>2026-05-06T07:42:25.000Z</time>
      </trkpt>
      <trkpt lat="41.842911" lon="22.990443">
        <ele>1180.3</ele>
        <time>2026-05-06T07:42:26.000Z</time>
      </trkpt>
      <trkpt lat="41.842914" lon="22.990457">
        <ele>1180.3</ele>
        <time>2026-05-06T07:42:27.000Z</time>
      </trkpt>
      <trkpt lat="41.842919" lon="22.990473">
        <ele>1180.6</ele>
        <time>2026-05-06T07:42:28.000Z</time>
      </trkpt>
      <trkpt lat="41.842922" lon="22.990489">
        <ele>1180.6</ele>
        <time>2026-05-06T07:42:29.000Z</time>
      </trkpt>
      <trkpt lat="41.842925" lon="22.990506">
        <ele>1180.6</ele>
        <time>2026-05-06T07:42:30.000Z</time>
      </trkpt>
      <trkpt lat="41.842926" lon="22.990526">
        <ele>1180.6</ele>
        <time>2026-05-06T07:42:31.000Z</time>
      </trkpt>
      <trkpt lat="41.842926" lon="22.990546">
        <ele>1180.6</ele>
        <time>2026-05-06T07:42:32.000Z</time>
      </trkpt>
      <trkpt lat="41.842923" lon="22.990565">
        <ele>1180.3</ele>
        <time>2026-05-06T07:42:33.000Z</time>
      </trkpt>
      <trkpt lat="41.842918" lon="22.990582">
        <ele>1180.3</ele>
        <time>2026-05-06T07:42:34.000Z</time>
      </trkpt>
      <trkpt lat="41.842912" lon="22.9906">
        <ele>1180.3</ele>
        <time>2026-05-06T07:42:35.000Z</time>
      </trkpt>
      <trkpt lat="41.842905" lon="22.990616">
        <ele>1180.3</ele>
        <time>2026-05-06T07:42:36.000Z</time>
      </trkpt>
      <trkpt lat="41.842898" lon="22.990632">
        <ele>1180.3</ele>
        <time>2026-05-06T07:42:37.000Z</time>
      </trkpt>
      <trkpt lat="41.842891" lon="22.990644">
        <ele>1178.9</ele>
        <time>2026-05-06T07:42:38.000Z</time>
      </trkpt>
      <trkpt lat="41.842887" lon="22.990653">
        <ele>1178.9</ele>
        <time>2026-05-06T07:42:39.000Z</time>
      </trkpt>
      <trkpt lat="41.842885" lon="22.99066">
        <ele>1178.9</ele>
        <time>2026-05-06T07:42:40.000Z</time>
      </trkpt>
      <trkpt lat="41.842883" lon="22.990667">
        <ele>1178.9</ele>
        <time>2026-05-06T07:42:41.000Z</time>
      </trkpt>
      <trkpt lat="41.84288" lon="22.990672">
        <ele>1178.9</ele>
        <time>2026-05-06T07:42:42.000Z</time>
      </trkpt>
      <trkpt lat="41.842875" lon="22.990677">
        <ele>1176.7</ele>
        <time>2026-05-06T07:42:43.000Z</time>
      </trkpt>
      <trkpt lat="41.842866" lon="22.990683">
        <ele>1176.7</ele>
        <time>2026-05-06T07:42:44.000Z</time>
      </trkpt>
      <trkpt lat="41.842856" lon="22.990687">
        <ele>1176.7</ele>
        <time>2026-05-06T07:42:45.000Z</time>
      </trkpt>
      <trkpt lat="41.842845" lon="22.990689">
        <ele>1176.7</ele>
        <time>2026-05-06T07:42:46.000Z</time>
      </trkpt>
      <trkpt lat="41.842835" lon="22.990689">
        <ele>1176.7</ele>
        <time>2026-05-06T07:42:47.000Z</time>
      </trkpt>
      <trkpt lat="41.842828" lon="22.990686">
        <ele>1175.6</ele>
        <time>2026-05-06T07:42:48.000Z</time>
      </trkpt>
      <trkpt lat="41.842823" lon="22.990684">
        <ele>1175.6</ele>
        <time>2026-05-06T07:42:49.000Z</time>
      </trkpt>
      <trkpt lat="41.842818" lon="22.990682">
        <ele>1175.6</ele>
        <time>2026-05-06T07:42:50.000Z</time>
      </trkpt>
      <trkpt lat="41.842816" lon="22.990681">
        <ele>1175.6</ele>
        <time>2026-05-06T07:42:51.000Z</time>
      </trkpt>
      <trkpt lat="41.842815" lon="22.990682">
        <ele>1175.6</ele>
        <time>2026-05-06T07:42:52.000Z</time>
      </trkpt>
      <trkpt lat="41.842814" lon="22.990684">
        <ele>1173.7</ele>
        <time>2026-05-06T07:42:53.000Z</time>
      </trkpt>
      <trkpt lat="41.842813" lon="22.990686">
        <ele>1173.7</ele>
        <time>2026-05-06T07:42:54.000Z</time>
      </trkpt>
      <trkpt lat="41.842814" lon="22.99069">
        <ele>1173.7</ele>
        <time>2026-05-06T07:42:55.000Z</time>
      </trkpt>
      <trkpt lat="41.842813" lon="22.990695">
        <ele>1173.7</ele>
        <time>2026-05-06T07:42:56.000Z</time>
      </trkpt>
      <trkpt lat="41.842813" lon="22.990701">
        <ele>1173.7</ele>
        <time>2026-05-06T07:42:57.000Z</time>
      </trkpt>
      <trkpt lat="41.842811" lon="22.990707">
        <ele>1172.8</ele>
        <time>2026-05-06T07:42:58.000Z</time>
      </trkpt>
      <trkpt lat="41.842808" lon="22.990714">
        <ele>1172.8</ele>
        <time>2026-05-06T07:42:59.000Z</time>
      </trkpt>
      <trkpt lat="41.842803" lon="22.990717">
        <ele>1172.8</ele>
        <time>2026-05-06T07:43:00.000Z</time>
      </trkpt>
      <trkpt lat="41.842799" lon="22.990719">
        <ele>1172.8</ele>
        <time>2026-05-06T07:43:01.000Z</time>
      </trkpt>
      <trkpt lat="41.842794" lon="22.990719">
        <ele>1172.8</ele>
        <time>2026-05-06T07:43:02.000Z</time>
      </trkpt>
      <trkpt lat="41.84279" lon="22.990719">
        <ele>1172.5</ele>
        <time>2026-05-06T07:43:03.000Z</time>
      </trkpt>
      <trkpt lat="41.842787" lon="22.990719">
        <ele>1172.5</ele>
        <time>2026-05-06T07:43:04.000Z</time>
      </trkpt>
      <trkpt lat="41.842785" lon="22.99072">
        <ele>1172.5</ele>
        <time>2026-05-06T07:43:05.000Z</time>
      </trkpt>
      <trkpt lat="41.842783" lon="22.990723">
        <ele>1172.5</ele>
        <time>2026-05-06T07:43:06.000Z</time>
      </trkpt>
      <trkpt lat="41.84278" lon="22.990725">
        <ele>1172.5</ele>
        <time>2026-05-06T07:43:07.000Z</time>
      </trkpt>
      <trkpt lat="41.842779" lon="22.990726">
        <ele>1172</ele>
        <time>2026-05-06T07:43:08.000Z</time>
      </trkpt>
      <trkpt lat="41.842777" lon="22.990726">
        <ele>1172</ele>
        <time>2026-05-06T07:43:09.000Z</time>
      </trkpt>
      <trkpt lat="41.842776" lon="22.990727">
        <ele>1172</ele>
        <time>2026-05-06T07:43:10.000Z</time>
      </trkpt>
      <trkpt lat="41.842775" lon="22.990726">
        <ele>1172</ele>
        <time>2026-05-06T07:43:11.000Z</time>
      </trkpt>
      <trkpt lat="41.842774" lon="22.990726">
        <ele>1172</ele>
        <time>2026-05-06T07:43:12.000Z</time>
      </trkpt>
      <trkpt lat="41.842773" lon="22.990726">
        <ele>1171</ele>
        <time>2026-05-06T07:43:13.000Z</time>
      </trkpt>
      <trkpt lat="41.842771" lon="22.990724">
        <ele>1171</ele>
        <time>2026-05-06T07:43:14.000Z</time>
      </trkpt>
      <trkpt lat="41.842767" lon="22.990722">
        <ele>1171</ele>
        <time>2026-05-06T07:43:15.000Z</time>
      </trkpt>
      <trkpt lat="41.842761" lon="22.990721">
        <ele>1171</ele>
        <time>2026-05-06T07:43:16.000Z</time>
      </trkpt>
      <trkpt lat="41.842754" lon="22.990721">
        <ele>1171</ele>
        <time>2026-05-06T07:43:17.000Z</time>
      </trkpt>
      <trkpt lat="41.842745" lon="22.99072">
        <ele>1170.4</ele>
        <time>2026-05-06T07:43:18.000Z</time>
      </trkpt>
      <trkpt lat="41.842736" lon="22.990718">
        <ele>1170.4</ele>
        <time>2026-05-06T07:43:19.000Z</time>
      </trkpt>
      <trkpt lat="41.842726" lon="22.990717">
        <ele>1170.4</ele>
        <time>2026-05-06T07:43:20.000Z</time>
      </trkpt>
      <trkpt lat="41.842716" lon="22.990714">
        <ele>1170.4</ele>
        <time>2026-05-06T07:43:21.000Z</time>
      </trkpt>
      <trkpt lat="41.842706" lon="22.990711">
        <ele>1170.4</ele>
        <time>2026-05-06T07:43:22.000Z</time>
      </trkpt>
      <trkpt lat="41.842695" lon="22.990709">
        <ele>1169.3</ele>
        <time>2026-05-06T07:43:23.000Z</time>
      </trkpt>
      <trkpt lat="41.842684" lon="22.990706">
        <ele>1169.3</ele>
        <time>2026-05-06T07:43:24.000Z</time>
      </trkpt>
      <trkpt lat="41.842672" lon="22.9907">
        <ele>1169.3</ele>
        <time>2026-05-06T07:43:25.000Z</time>
      </trkpt>
      <trkpt lat="41.842661" lon="22.990691">
        <ele>1169.3</ele>
        <time>2026-05-06T07:43:26.000Z</time>
      </trkpt>
      <trkpt lat="41.84265" lon="22.990678">
        <ele>1169.3</ele>
        <time>2026-05-06T07:43:27.000Z</time>
      </trkpt>
      <trkpt lat="41.842641" lon="22.990661">
        <ele>1168.4</ele>
        <time>2026-05-06T07:43:28.000Z</time>
      </trkpt>
      <trkpt lat="41.842635" lon="22.990642">
        <ele>1168.4</ele>
        <time>2026-05-06T07:43:29.000Z</time>
      </trkpt>
      <trkpt lat="41.84263" lon="22.990623">
        <ele>1168.4</ele>
        <time>2026-05-06T07:43:30.000Z</time>
      </trkpt>
      <trkpt lat="41.842625" lon="22.990603">
        <ele>1168.4</ele>
        <time>2026-05-06T07:43:31.000Z</time>
      </trkpt>
      <trkpt lat="41.84262" lon="22.990584">
        <ele>1168.4</ele>
        <time>2026-05-06T07:43:32.000Z</time>
      </trkpt>
      <trkpt lat="41.842614" lon="22.990564">
        <ele>1168</ele>
        <time>2026-05-06T07:43:33.000Z</time>
      </trkpt>
      <trkpt lat="41.842609" lon="22.990544">
        <ele>1168</ele>
        <time>2026-05-06T07:43:34.000Z</time>
      </trkpt>
      <trkpt lat="41.842604" lon="22.990524">
        <ele>1168</ele>
        <time>2026-05-06T07:43:35.000Z</time>
      </trkpt>
      <trkpt lat="41.842599" lon="22.990504">
        <ele>1168</ele>
        <time>2026-05-06T07:43:36.000Z</time>
      </trkpt>
      <trkpt lat="41.842595" lon="22.990485">
        <ele>1168</ele>
        <time>2026-05-06T07:43:37.000Z</time>
      </trkpt>
      <trkpt lat="41.84259" lon="22.990466">
        <ele>1167.2</ele>
        <time>2026-05-06T07:43:38.000Z</time>
      </trkpt>
      <trkpt lat="41.842587" lon="22.990449">
        <ele>1167.2</ele>
        <time>2026-05-06T07:43:39.000Z</time>
      </trkpt>
      <trkpt lat="41.842583" lon="22.990435">
        <ele>1167.2</ele>
        <time>2026-05-06T07:43:40.000Z</time>
      </trkpt>
      <trkpt lat="41.842579" lon="22.990425">
        <ele>1167.2</ele>
        <time>2026-05-06T07:43:41.000Z</time>
      </trkpt>
      <trkpt lat="41.842573" lon="22.990417">
        <ele>1167.2</ele>
        <time>2026-05-06T07:43:42.000Z</time>
      </trkpt>
      <trkpt lat="41.842565" lon="22.990413">
        <ele>1166.6</ele>
        <time>2026-05-06T07:43:43.000Z</time>
      </trkpt>
      <trkpt lat="41.842557" lon="22.990412">
        <ele>1166.6</ele>
        <time>2026-05-06T07:43:44.000Z</time>
      </trkpt>
      <trkpt lat="41.842551" lon="22.990413">
        <ele>1166.6</ele>
        <time>2026-05-06T07:43:45.000Z</time>
      </trkpt>
      <trkpt lat="41.842546" lon="22.990414">
        <ele>1166.6</ele>
        <time>2026-05-06T07:43:46.000Z</time>
      </trkpt>
      <trkpt lat="41.842545" lon="22.990415">
        <ele>1166.6</ele>
        <time>2026-05-06T07:43:47.000Z</time>
      </trkpt>
      <trkpt lat="41.842546" lon="22.990417">
        <ele>1166.4</ele>
        <time>2026-05-06T07:43:48.000Z</time>
      </trkpt>
      <trkpt lat="41.842548" lon="22.990418">
        <ele>1166.4</ele>
        <time>2026-05-06T07:43:49.000Z</time>
      </trkpt>
      <trkpt lat="41.842549" lon="22.990418">
        <ele>1166.4</ele>
        <time>2026-05-06T07:43:50.000Z</time>
      </trkpt>
      <trkpt lat="41.84255" lon="22.990418">
        <ele>1166.4</ele>
        <time>2026-05-06T07:43:51.000Z</time>
      </trkpt>
      <trkpt lat="41.84255" lon="22.990418">
        <ele>1166.4</ele>
        <time>2026-05-06T07:43:52.000Z</time>
      </trkpt>
      <trkpt lat="41.842551" lon="22.990418">
        <ele>1165.5</ele>
        <time>2026-05-06T07:43:53.000Z</time>
      </trkpt>
      <trkpt lat="41.842551" lon="22.990418">
        <ele>1165.5</ele>
        <time>2026-05-06T07:43:54.000Z</time>
      </trkpt>
      <trkpt lat="41.842551" lon="22.990418">
        <ele>1165.5</ele>
        <time>2026-05-06T07:43:55.000Z</time>
      </trkpt>
      <trkpt lat="41.842551" lon="22.990418">
        <ele>1165.5</ele>
        <time>2026-05-06T07:43:56.000Z</time>
      </trkpt>
      <trkpt lat="41.842552" lon="22.990418">
        <ele>1165.5</ele>
        <time>2026-05-06T07:43:57.000Z</time>
      </trkpt>
      <trkpt lat="41.842552" lon="22.990418">
        <ele>1164.4</ele>
        <time>2026-05-06T07:43:58.000Z</time>
      </trkpt>
      <trkpt lat="41.842552" lon="22.990419">
        <ele>1164.4</ele>
        <time>2026-05-06T07:43:59.000Z</time>
      </trkpt>
      <trkpt lat="41.842552" lon="22.990419">
        <ele>1164.4</ele>
        <time>2026-05-06T07:44:00.000Z</time>
      </trkpt>
      <trkpt lat="41.842553" lon="22.99042">
        <ele>1164.4</ele>
        <time>2026-05-06T07:44:01.000Z</time>
      </trkpt>
      <trkpt lat="41.842553" lon="22.990421">
        <ele>1164.4</ele>
        <time>2026-05-06T07:44:02.000Z</time>
      </trkpt>
      <trkpt lat="41.842554" lon="22.990422">
        <ele>1164.1</ele>
        <time>2026-05-06T07:44:03.000Z</time>
      </trkpt>
      <trkpt lat="41.842555" lon="22.990421">
        <ele>1164.1</ele>
        <time>2026-05-06T07:44:04.000Z</time>
      </trkpt>
      <trkpt lat="41.842555" lon="22.990422">
        <ele>1164.1</ele>
        <time>2026-05-06T07:44:05.000Z</time>
      </trkpt>
      <trkpt lat="41.842556" lon="22.990422">
        <ele>1164.1</ele>
        <time>2026-05-06T07:44:06.000Z</time>
      </trkpt>
      <trkpt lat="41.842556" lon="22.990422">
        <ele>1164.1</ele>
        <time>2026-05-06T07:44:07.000Z</time>
      </trkpt>
      <trkpt lat="41.842556" lon="22.990422">
        <ele>1163.9</ele>
        <time>2026-05-06T07:44:08.000Z</time>
      </trkpt>
      <trkpt lat="41.842556" lon="22.990422">
        <ele>1163.9</ele>
        <time>2026-05-06T07:44:09.000Z</time>
      </trkpt>
      <trkpt lat="41.842555" lon="22.990423">
        <ele>1163.9</ele>
        <time>2026-05-06T07:44:10.000Z</time>
      </trkpt>
      <trkpt lat="41.842555" lon="22.990423">
        <ele>1163.9</ele>
        <time>2026-05-06T07:44:11.000Z</time>
      </trkpt>
      <trkpt lat="41.842555" lon="22.990423">
        <ele>1163.9</ele>
        <time>2026-05-06T07:44:12.000Z</time>
      </trkpt>
      <trkpt lat="41.842555" lon="22.990423">
        <ele>1163.9</ele>
        <time>2026-05-06T07:44:13.000Z</time>
      </trkpt>
      <trkpt lat="41.842555" lon="22.990423">
        <ele>1163.9</ele>
        <time>2026-05-06T07:44:14.000Z</time>
      </trkpt>
      <trkpt lat="41.842553" lon="22.990425">
        <ele>1163.9</ele>
        <time>2026-05-06T07:44:15.000Z</time>
      </trkpt>
      <trkpt lat="41.84255" lon="22.990428">
        <ele>1163.9</ele>
        <time>2026-05-06T07:44:16.000Z</time>
      </trkpt>
      <trkpt lat="41.842548" lon="22.990429">
        <ele>1163.9</ele>
        <time>2026-05-06T07:44:17.000Z</time>
      </trkpt>
      <trkpt lat="41.842545" lon="22.99043">
        <ele>1163.9</ele>
        <time>2026-05-06T07:44:18.000Z</time>
      </trkpt>
      <trkpt lat="41.842542" lon="22.990431">
        <ele>1163.9</ele>
        <time>2026-05-06T07:44:19.000Z</time>
      </trkpt>
      <trkpt lat="41.842542" lon="22.990429">
        <ele>1163.9</ele>
        <time>2026-05-06T07:44:20.000Z</time>
      </trkpt>
      <trkpt lat="41.842543" lon="22.990428">
        <ele>1163.9</ele>
        <time>2026-05-06T07:44:21.000Z</time>
      </trkpt>
      <trkpt lat="41.842544" lon="22.990429">
        <ele>1163.9</ele>
        <time>2026-05-06T07:44:22.000Z</time>
      </trkpt>
      <trkpt lat="41.842544" lon="22.990429">
        <ele>1163.9</ele>
        <time>2026-05-06T07:44:23.000Z</time>
      </trkpt>
      <trkpt lat="41.842544" lon="22.99043">
        <ele>1163.9</ele>
        <time>2026-05-06T07:44:24.000Z</time>
      </trkpt>
      <trkpt lat="41.842544" lon="22.99043">
        <ele>1163.9</ele>
        <time>2026-05-06T07:44:25.000Z</time>
      </trkpt>
      <trkpt lat="41.842543" lon="22.99043">
        <ele>1163.9</ele>
        <time>2026-05-06T07:44:26.000Z</time>
      </trkpt>
      <trkpt lat="41.842543" lon="22.990431">
        <ele>1163.9</ele>
        <time>2026-05-06T07:44:27.000Z</time>
      </trkpt>
      <trkpt lat="41.842543" lon="22.990431">
        <ele>1164</ele>
        <time>2026-05-06T07:44:28.000Z</time>
      </trkpt>
      <trkpt lat="41.842543" lon="22.99043">
        <ele>1164</ele>
        <time>2026-05-06T07:44:29.000Z</time>
      </trkpt>
      <trkpt lat="41.842543" lon="22.99043">
        <ele>1164</ele>
        <time>2026-05-06T07:44:30.000Z</time>
      </trkpt>
      <trkpt lat="41.842543" lon="22.99043">
        <ele>1164</ele>
        <time>2026-05-06T07:44:31.000Z</time>
      </trkpt>
      <trkpt lat="41.842543" lon="22.99043">
        <ele>1164</ele>
        <time>2026-05-06T07:44:32.000Z</time>
      </trkpt>
      <trkpt lat="41.842542" lon="22.99043">
        <ele>1164.1</ele>
        <time>2026-05-06T07:44:33.000Z</time>
      </trkpt>
      <trkpt lat="41.842542" lon="22.99043">
        <ele>1164.1</ele>
        <time>2026-05-06T07:44:34.000Z</time>
      </trkpt>
      <trkpt lat="41.842542" lon="22.99043">
        <ele>1164.1</ele>
        <time>2026-05-06T07:44:35.000Z</time>
      </trkpt>
      <trkpt lat="41.842542" lon="22.99043">
        <ele>1164.1</ele>
        <time>2026-05-06T07:44:36.000Z</time>
      </trkpt>
      <trkpt lat="41.842542" lon="22.99043">
        <ele>1164.1</ele>
        <time>2026-05-06T07:44:37.000Z</time>
      </trkpt>
      <trkpt lat="41.842542" lon="22.99043">
        <ele>1164.1</ele>
        <time>2026-05-06T07:44:38.000Z</time>
      </trkpt>
      <trkpt lat="41.842542" lon="22.99043">
        <ele>1164.1</ele>
        <time>2026-05-06T07:44:39.000Z</time>
      </trkpt>
      <trkpt lat="41.842542" lon="22.99043">
        <ele>1164.1</ele>
        <time>2026-05-06T07:44:40.000Z</time>
      </trkpt>
      <trkpt lat="41.842542" lon="22.99043">
        <ele>1164.1</ele>
        <time>2026-05-06T07:44:41.000Z</time>
      </trkpt>
      <trkpt lat="41.842542" lon="22.990428">
        <ele>1164.1</ele>
        <time>2026-05-06T07:44:42.000Z</time>
      </trkpt>
      <trkpt lat="41.842542" lon="22.990427">
        <ele>1164.1</ele>
        <time>2026-05-06T07:44:43.000Z</time>
      </trkpt>
      <trkpt lat="41.842542" lon="22.990425">
        <ele>1164.1</ele>
        <time>2026-05-06T07:44:44.000Z</time>
      </trkpt>
      <trkpt lat="41.842542" lon="22.990424">
        <ele>1164.1</ele>
        <time>2026-05-06T07:44:45.000Z</time>
      </trkpt>
      <trkpt lat="41.842542" lon="22.990423">
        <ele>1164.1</ele>
        <time>2026-05-06T07:44:46.000Z</time>
      </trkpt>
      <trkpt lat="41.842543" lon="22.990423">
        <ele>1164.1</ele>
        <time>2026-05-06T07:44:47.000Z</time>
      </trkpt>
      <trkpt lat="41.842543" lon="22.990423">
        <ele>1164.2</ele>
        <time>2026-05-06T07:44:48.000Z</time>
      </trkpt>
      <trkpt lat="41.842543" lon="22.990423">
        <ele>1164.2</ele>
        <time>2026-05-06T07:44:49.000Z</time>
      </trkpt>
      <trkpt lat="41.842543" lon="22.990423">
        <ele>1164.2</ele>
        <time>2026-05-06T07:44:50.000Z</time>
      </trkpt>
      <trkpt lat="41.842543" lon="22.990422">
        <ele>1164.2</ele>
        <time>2026-05-06T07:44:51.000Z</time>
      </trkpt>
      <trkpt lat="41.842543" lon="22.990421">
        <ele>1164.2</ele>
        <time>2026-05-06T07:44:52.000Z</time>
      </trkpt>
      <trkpt lat="41.842543" lon="22.990421">
        <ele>1164.4</ele>
        <time>2026-05-06T07:44:53.000Z</time>
      </trkpt>
      <trkpt lat="41.842543" lon="22.99042">
        <ele>1164.4</ele>
        <time>2026-05-06T07:44:54.000Z</time>
      </trkpt>
      <trkpt lat="41.842543" lon="22.99042">
        <ele>1164.4</ele>
        <time>2026-05-06T07:44:55.000Z</time>
      </trkpt>
      <trkpt lat="41.842543" lon="22.99042">
        <ele>1164.4</ele>
        <time>2026-05-06T07:44:56.000Z</time>
      </trkpt>
      <trkpt lat="41.842543" lon="22.99042">
        <ele>1164.4</ele>
        <time>2026-05-06T07:44:57.000Z</time>
      </trkpt>
      <trkpt lat="41.842543" lon="22.99042">
        <ele>1164.5</ele>
        <time>2026-05-06T07:44:58.000Z</time>
      </trkpt>
      <trkpt lat="41.842543" lon="22.99042">
        <ele>1164.5</ele>
        <time>2026-05-06T07:44:59.000Z</time>
      </trkpt>
      <trkpt lat="41.842543" lon="22.99042">
        <ele>1164.5</ele>
        <time>2026-05-06T07:45:00.000Z</time>
      </trkpt>
      <trkpt lat="41.842543" lon="22.99042">
        <ele>1164.5</ele>
        <time>2026-05-06T07:45:01.000Z</time>
      </trkpt>
      <trkpt lat="41.842543" lon="22.99042">
        <ele>1164.5</ele>
        <time>2026-05-06T07:45:02.000Z</time>
      </trkpt>
      <trkpt lat="41.842543" lon="22.99042">
        <ele>1164.5</ele>
        <time>2026-05-06T07:45:03.000Z</time>
      </trkpt>
      <trkpt lat="41.842543" lon="22.99042">
        <ele>1164.5</ele>
        <time>2026-05-06T07:45:04.000Z</time>
      </trkpt>
      <trkpt lat="41.842542" lon="22.990419">
        <ele>1164.5</ele>
        <time>2026-05-06T07:45:05.000Z</time>
      </trkpt>
      <trkpt lat="41.842544" lon="22.990418">
        <ele>1164.5</ele>
        <time>2026-05-06T07:45:06.000Z</time>
      </trkpt>
      <trkpt lat="41.842545" lon="22.990416">
        <ele>1164.5</ele>
        <time>2026-05-06T07:45:07.000Z</time>
      </trkpt>
      <trkpt lat="41.842546" lon="22.990413">
        <ele>1164.5</ele>
        <time>2026-05-06T07:45:08.000Z</time>
      </trkpt>
      <trkpt lat="41.842548" lon="22.99041">
        <ele>1164.5</ele>
        <time>2026-05-06T07:45:09.000Z</time>
      </trkpt>
      <trkpt lat="41.84255" lon="22.990408">
        <ele>1164.5</ele>
        <time>2026-05-06T07:45:10.000Z</time>
      </trkpt>
      <trkpt lat="41.84255" lon="22.990407">
        <ele>1164.5</ele>
        <time>2026-05-06T07:45:11.000Z</time>
      </trkpt>
      <trkpt lat="41.842549" lon="22.990408">
        <ele>1164.5</ele>
        <time>2026-05-06T07:45:12.000Z</time>
      </trkpt>
      <trkpt lat="41.842548" lon="22.990408">
        <ele>1164.4</ele>
        <time>2026-05-06T07:45:13.000Z</time>
      </trkpt>
      <trkpt lat="41.842547" lon="22.990405">
        <ele>1164.4</ele>
        <time>2026-05-06T07:45:14.000Z</time>
      </trkpt>
      <trkpt lat="41.842546" lon="22.990402">
        <ele>1164.4</ele>
        <time>2026-05-06T07:45:15.000Z</time>
      </trkpt>
      <trkpt lat="41.842546" lon="22.990399">
        <ele>1164.4</ele>
        <time>2026-05-06T07:45:16.000Z</time>
      </trkpt>
      <trkpt lat="41.842546" lon="22.990394">
        <ele>1164.4</ele>
        <time>2026-05-06T07:45:17.000Z</time>
      </trkpt>
      <trkpt lat="41.842546" lon="22.990394">
        <ele>1164.4</ele>
        <time>2026-05-06T07:45:18.000Z</time>
      </trkpt>
      <trkpt lat="41.842546" lon="22.990395">
        <ele>1164.4</ele>
        <time>2026-05-06T07:45:19.000Z</time>
      </trkpt>
      <trkpt lat="41.842545" lon="22.990395">
        <ele>1164.4</ele>
        <time>2026-05-06T07:45:20.000Z</time>
      </trkpt>
      <trkpt lat="41.842544" lon="22.990395">
        <ele>1164.4</ele>
        <time>2026-05-06T07:45:21.000Z</time>
      </trkpt>
      <trkpt lat="41.842543" lon="22.990394">
        <ele>1164.4</ele>
        <time>2026-05-06T07:45:22.000Z</time>
      </trkpt>
      <trkpt lat="41.842544" lon="22.990389">
        <ele>1164.4</ele>
        <time>2026-05-06T07:45:23.000Z</time>
      </trkpt>
      <trkpt lat="41.842545" lon="22.990382">
        <ele>1164.4</ele>
        <time>2026-05-06T07:45:24.000Z</time>
      </trkpt>
      <trkpt lat="41.842546" lon="22.990374">
        <ele>1164.4</ele>
        <time>2026-05-06T07:45:25.000Z</time>
      </trkpt>
      <trkpt lat="41.842547" lon="22.990367">
        <ele>1164.4</ele>
        <time>2026-05-06T07:45:26.000Z</time>
      </trkpt>
      <trkpt lat="41.842548" lon="22.990361">
        <ele>1164.4</ele>
        <time>2026-05-06T07:45:27.000Z</time>
      </trkpt>
      <trkpt lat="41.842548" lon="22.990357">
        <ele>1164.3</ele>
        <time>2026-05-06T07:45:28.000Z</time>
      </trkpt>
      <trkpt lat="41.842547" lon="22.990355">
        <ele>1164.3</ele>
        <time>2026-05-06T07:45:29.000Z</time>
      </trkpt>
      <trkpt lat="41.842547" lon="22.990354">
        <ele>1164.3</ele>
        <time>2026-05-06T07:45:30.000Z</time>
      </trkpt>
      <trkpt lat="41.842546" lon="22.990353">
        <ele>1164.3</ele>
        <time>2026-05-06T07:45:31.000Z</time>
      </trkpt>
      <trkpt lat="41.842546" lon="22.990353">
        <ele>1164.3</ele>
        <time>2026-05-06T07:45:32.000Z</time>
      </trkpt>
      <trkpt lat="41.842545" lon="22.990353">
        <ele>1164.1</ele>
        <time>2026-05-06T07:45:33.000Z</time>
      </trkpt>
      <trkpt lat="41.842545" lon="22.990352">
        <ele>1164.1</ele>
        <time>2026-05-06T07:45:34.000Z</time>
      </trkpt>
      <trkpt lat="41.842545" lon="22.990352">
        <ele>1164.1</ele>
        <time>2026-05-06T07:45:35.000Z</time>
      </trkpt>
      <trkpt lat="41.842545" lon="22.990352">
        <ele>1164.1</ele>
        <time>2026-05-06T07:45:36.000Z</time>
      </trkpt>
      <trkpt lat="41.842545" lon="22.990352">
        <ele>1164.1</ele>
        <time>2026-05-06T07:45:37.000Z</time>
      </trkpt>
      <trkpt lat="41.842545" lon="22.990352">
        <ele>1163.9</ele>
        <time>2026-05-06T07:45:38.000Z</time>
      </trkpt>
      <trkpt lat="41.842544" lon="22.990352">
        <ele>1163.9</ele>
        <time>2026-05-06T07:45:39.000Z</time>
      </trkpt>
      <trkpt lat="41.842544" lon="22.990353">
        <ele>1163.9</ele>
        <time>2026-05-06T07:45:40.000Z</time>
      </trkpt>
      <trkpt lat="41.842543" lon="22.990355">
        <ele>1163.9</ele>
        <time>2026-05-06T07:45:41.000Z</time>
      </trkpt>
      <trkpt lat="41.842541" lon="22.990356">
        <ele>1163.9</ele>
        <time>2026-05-06T07:45:42.000Z</time>
      </trkpt>
      <trkpt lat="41.84254" lon="22.990358">
        <ele>1163.7</ele>
        <time>2026-05-06T07:45:43.000Z</time>
      </trkpt>
      <trkpt lat="41.842538" lon="22.990359">
        <ele>1163.7</ele>
        <time>2026-05-06T07:45:44.000Z</time>
      </trkpt>
      <trkpt lat="41.842537" lon="22.99036">
        <ele>1163.7</ele>
        <time>2026-05-06T07:45:45.000Z</time>
      </trkpt>
      <trkpt lat="41.842537" lon="22.990359">
        <ele>1163.7</ele>
        <time>2026-05-06T07:45:46.000Z</time>
      </trkpt>
      <trkpt lat="41.842536" lon="22.990359">
        <ele>1163.7</ele>
        <time>2026-05-06T07:45:47.000Z</time>
      </trkpt>
      <trkpt lat="41.842536" lon="22.990358">
        <ele>1163.6</ele>
        <time>2026-05-06T07:45:48.000Z</time>
      </trkpt>
      <trkpt lat="41.842537" lon="22.990358">
        <ele>1163.6</ele>
        <time>2026-05-06T07:45:49.000Z</time>
      </trkpt>
      <trkpt lat="41.842535" lon="22.990358">
        <ele>1163.6</ele>
        <time>2026-05-06T07:45:50.000Z</time>
      </trkpt>
      <trkpt lat="41.842533" lon="22.990357">
        <ele>1163.6</ele>
        <time>2026-05-06T07:45:51.000Z</time>
      </trkpt>
      <trkpt lat="41.842528" lon="22.990357">
        <ele>1163.6</ele>
        <time>2026-05-06T07:45:52.000Z</time>
      </trkpt>
      <trkpt lat="41.842524" lon="22.990356">
        <ele>1163.5</ele>
        <time>2026-05-06T07:45:53.000Z</time>
      </trkpt>
      <trkpt lat="41.84252" lon="22.990356">
        <ele>1163.5</ele>
        <time>2026-05-06T07:45:54.000Z</time>
      </trkpt>
      <trkpt lat="41.842517" lon="22.990355">
        <ele>1163.5</ele>
        <time>2026-05-06T07:45:55.000Z</time>
      </trkpt>
      <trkpt lat="41.842516" lon="22.990354">
        <ele>1163.5</ele>
        <time>2026-05-06T07:45:56.000Z</time>
      </trkpt>
      <trkpt lat="41.842516" lon="22.990353">
        <ele>1163.5</ele>
        <time>2026-05-06T07:45:57.000Z</time>
      </trkpt>
      <trkpt lat="41.842517" lon="22.990352">
        <ele>1163.2</ele>
        <time>2026-05-06T07:45:58.000Z</time>
      </trkpt>
      <trkpt lat="41.842517" lon="22.990351">
        <ele>1163.2</ele>
        <time>2026-05-06T07:45:59.000Z</time>
      </trkpt>
      <trkpt lat="41.842518" lon="22.990351">
        <ele>1163.2</ele>
        <time>2026-05-06T07:46:00.000Z</time>
      </trkpt>
      <trkpt lat="41.842518" lon="22.990352">
        <ele>1163.2</ele>
        <time>2026-05-06T07:46:01.000Z</time>
      </trkpt>
      <trkpt lat="41.842519" lon="22.990353">
        <ele>1163.2</ele>
        <time>2026-05-06T07:46:02.000Z</time>
      </trkpt>
      <trkpt lat="41.842519" lon="22.990354">
        <ele>1163</ele>
        <time>2026-05-06T07:46:03.000Z</time>
      </trkpt>
      <trkpt lat="41.84252" lon="22.990355">
        <ele>1163</ele>
        <time>2026-05-06T07:46:04.000Z</time>
      </trkpt>
      <trkpt lat="41.84252" lon="22.990355">
        <ele>1163</ele>
        <time>2026-05-06T07:46:05.000Z</time>
      </trkpt>
      <trkpt lat="41.84252" lon="22.990356">
        <ele>1163</ele>
        <time>2026-05-06T07:46:06.000Z</time>
      </trkpt>
      <trkpt lat="41.842517" lon="22.990355">
        <ele>1163</ele>
        <time>2026-05-06T07:46:07.000Z</time>
      </trkpt>
      <trkpt lat="41.842513" lon="22.990354">
        <ele>1162.5</ele>
        <time>2026-05-06T07:46:08.000Z</time>
      </trkpt>
      <trkpt lat="41.842507" lon="22.990353">
        <ele>1162.5</ele>
        <time>2026-05-06T07:46:09.000Z</time>
      </trkpt>
      <trkpt lat="41.842499" lon="22.990353">
        <ele>1162.5</ele>
        <time>2026-05-06T07:46:10.000Z</time>
      </trkpt>
      <trkpt lat="41.842493" lon="22.990358">
        <ele>1162.5</ele>
        <time>2026-05-06T07:46:11.000Z</time>
      </trkpt>
      <trkpt lat="41.842488" lon="22.990364">
        <ele>1162.5</ele>
        <time>2026-05-06T07:46:12.000Z</time>
      </trkpt>
      <trkpt lat="41.842484" lon="22.990372">
        <ele>1162.2</ele>
        <time>2026-05-06T07:46:13.000Z</time>
      </trkpt>
      <trkpt lat="41.842482" lon="22.990379">
        <ele>1162.2</ele>
        <time>2026-05-06T07:46:14.000Z</time>
      </trkpt>
      <trkpt lat="41.84248" lon="22.990383">
        <ele>1162.2</ele>
        <time>2026-05-06T07:46:15.000Z</time>
      </trkpt>
      <trkpt lat="41.842479" lon="22.990381">
        <ele>1162.2</ele>
        <time>2026-05-06T07:46:16.000Z</time>
      </trkpt>
      <trkpt lat="41.84248" lon="22.990376">
        <ele>1162.2</ele>
        <time>2026-05-06T07:46:17.000Z</time>
      </trkpt>
      <trkpt lat="41.842481" lon="22.990367">
        <ele>1161.9</ele>
        <time>2026-05-06T07:46:18.000Z</time>
      </trkpt>
      <trkpt lat="41.842482" lon="22.99036">
        <ele>1161.9</ele>
        <time>2026-05-06T07:46:19.000Z</time>
      </trkpt>
      <trkpt lat="41.842483" lon="22.990354">
        <ele>1161.9</ele>
        <time>2026-05-06T07:46:20.000Z</time>
      </trkpt>
      <trkpt lat="41.842484" lon="22.990349">
        <ele>1161.9</ele>
        <time>2026-05-06T07:46:21.000Z</time>
      </trkpt>
      <trkpt lat="41.842483" lon="22.990347">
        <ele>1161.9</ele>
        <time>2026-05-06T07:46:22.000Z</time>
      </trkpt>
      <trkpt lat="41.842481" lon="22.990347">
        <ele>1161.2</ele>
        <time>2026-05-06T07:46:23.000Z</time>
      </trkpt>
      <trkpt lat="41.84248" lon="22.990346">
        <ele>1161.2</ele>
        <time>2026-05-06T07:46:24.000Z</time>
      </trkpt>
      <trkpt lat="41.842479" lon="22.990345">
        <ele>1161.2</ele>
        <time>2026-05-06T07:46:25.000Z</time>
      </trkpt>
      <trkpt lat="41.842478" lon="22.990345">
        <ele>1161.2</ele>
        <time>2026-05-06T07:46:26.000Z</time>
      </trkpt>
      <trkpt lat="41.84248" lon="22.990344">
        <ele>1161.2</ele>
        <time>2026-05-06T07:46:27.000Z</time>
      </trkpt>
      <trkpt lat="41.842482" lon="22.990343">
        <ele>1160.3</ele>
        <time>2026-05-06T07:46:28.000Z</time>
      </trkpt>
      <trkpt lat="41.842485" lon="22.990346">
        <ele>1160.3</ele>
        <time>2026-05-06T07:46:29.000Z</time>
      </trkpt>
      <trkpt lat="41.842487" lon="22.990349">
        <ele>1160.3</ele>
        <time>2026-05-06T07:46:30.000Z</time>
      </trkpt>
      <trkpt lat="41.842488" lon="22.990355">
        <ele>1160.3</ele>
        <time>2026-05-06T07:46:31.000Z</time>
      </trkpt>
      <trkpt lat="41.842488" lon="22.990362">
        <ele>1160.3</ele>
        <time>2026-05-06T07:46:32.000Z</time>
      </trkpt>
      <trkpt lat="41.842486" lon="22.990371">
        <ele>1160.1</ele>
        <time>2026-05-06T07:46:33.000Z</time>
      </trkpt>
      <trkpt lat="41.842483" lon="22.990381">
        <ele>1160.1</ele>
        <time>2026-05-06T07:46:34.000Z</time>
      </trkpt>
      <trkpt lat="41.84248" lon="22.990389">
        <ele>1160.1</ele>
        <time>2026-05-06T07:46:35.000Z</time>
      </trkpt>
      <trkpt lat="41.842477" lon="22.990396">
        <ele>1160.1</ele>
        <time>2026-05-06T07:46:36.000Z</time>
      </trkpt>
      <trkpt lat="41.842475" lon="22.990403">
        <ele>1160.1</ele>
        <time>2026-05-06T07:46:37.000Z</time>
      </trkpt>
      <trkpt lat="41.842473" lon="22.990407">
        <ele>1159.9</ele>
        <time>2026-05-06T07:46:38.000Z</time>
      </trkpt>
      <trkpt lat="41.842471" lon="22.99041">
        <ele>1159.9</ele>
        <time>2026-05-06T07:46:39.000Z</time>
      </trkpt>
      <trkpt lat="41.842469" lon="22.990414">
        <ele>1159.9</ele>
        <time>2026-05-06T07:46:40.000Z</time>
      </trkpt>
      <trkpt lat="41.842467" lon="22.990418">
        <ele>1159.9</ele>
        <time>2026-05-06T07:46:41.000Z</time>
      </trkpt>
      <trkpt lat="41.842465" lon="22.990421">
        <ele>1159.9</ele>
        <time>2026-05-06T07:46:42.000Z</time>
      </trkpt>
      <trkpt lat="41.842462" lon="22.990425">
        <ele>1160</ele>
        <time>2026-05-06T07:46:43.000Z</time>
      </trkpt>
      <trkpt lat="41.842461" lon="22.990428">
        <ele>1160</ele>
        <time>2026-05-06T07:46:44.000Z</time>
      </trkpt>
      <trkpt lat="41.842459" lon="22.990431">
        <ele>1160</ele>
        <time>2026-05-06T07:46:45.000Z</time>
      </trkpt>
      <trkpt lat="41.842457" lon="22.990434">
        <ele>1160</ele>
        <time>2026-05-06T07:46:46.000Z</time>
      </trkpt>
      <trkpt lat="41.842454" lon="22.990436">
        <ele>1160</ele>
        <time>2026-05-06T07:46:47.000Z</time>
      </trkpt>
      <trkpt lat="41.842453" lon="22.990437">
        <ele>1160.2</ele>
        <time>2026-05-06T07:46:48.000Z</time>
      </trkpt>
      <trkpt lat="41.842451" lon="22.990437">
        <ele>1160.2</ele>
        <time>2026-05-06T07:46:49.000Z</time>
      </trkpt>
      <trkpt lat="41.842448" lon="22.990438">
        <ele>1160.2</ele>
        <time>2026-05-06T07:46:50.000Z</time>
      </trkpt>
      <trkpt lat="41.842444" lon="22.990442">
        <ele>1160.2</ele>
        <time>2026-05-06T07:46:51.000Z</time>
      </trkpt>
      <trkpt lat="41.842439" lon="22.990449">
        <ele>1160.2</ele>
        <time>2026-05-06T07:46:52.000Z</time>
      </trkpt>
      <trkpt lat="41.842434" lon="22.990459">
        <ele>1160.4</ele>
        <time>2026-05-06T07:46:53.000Z</time>
      </trkpt>
      <trkpt lat="41.842428" lon="22.990472">
        <ele>1160.4</ele>
        <time>2026-05-06T07:46:54.000Z</time>
      </trkpt>
      <trkpt lat="41.842423" lon="22.990484">
        <ele>1160.4</ele>
        <time>2026-05-06T07:46:55.000Z</time>
      </trkpt>
      <trkpt lat="41.842418" lon="22.990495">
        <ele>1160.4</ele>
        <time>2026-05-06T07:46:56.000Z</time>
      </trkpt>
      <trkpt lat="41.842413" lon="22.990507">
        <ele>1160.4</ele>
        <time>2026-05-06T07:46:57.000Z</time>
      </trkpt>
      <trkpt lat="41.842407" lon="22.990518">
        <ele>1160.4</ele>
        <time>2026-05-06T07:46:58.000Z</time>
      </trkpt>
      <trkpt lat="41.842401" lon="22.990529">
        <ele>1160.4</ele>
        <time>2026-05-06T07:46:59.000Z</time>
      </trkpt>
      <trkpt lat="41.842395" lon="22.990538">
        <ele>1160.4</ele>
        <time>2026-05-06T07:47:00.000Z</time>
      </trkpt>
      <trkpt lat="41.842389" lon="22.990545">
        <ele>1160.4</ele>
        <time>2026-05-06T07:47:01.000Z</time>
      </trkpt>
      <trkpt lat="41.842383" lon="22.990552">
        <ele>1160.4</ele>
        <time>2026-05-06T07:47:02.000Z</time>
      </trkpt>
      <trkpt lat="41.842377" lon="22.990557">
        <ele>1160.2</ele>
        <time>2026-05-06T07:47:03.000Z</time>
      </trkpt>
      <trkpt lat="41.842372" lon="22.990563">
        <ele>1160.2</ele>
        <time>2026-05-06T07:47:04.000Z</time>
      </trkpt>
      <trkpt lat="41.842363" lon="22.99057">
        <ele>1160.2</ele>
        <time>2026-05-06T07:47:05.000Z</time>
      </trkpt>
      <trkpt lat="41.842354" lon="22.990577">
        <ele>1160.2</ele>
        <time>2026-05-06T07:47:06.000Z</time>
      </trkpt>
      <trkpt lat="41.842343" lon="22.990583">
        <ele>1160.2</ele>
        <time>2026-05-06T07:47:07.000Z</time>
      </trkpt>
      <trkpt lat="41.84233" lon="22.990587">
        <ele>1159.9</ele>
        <time>2026-05-06T07:47:08.000Z</time>
      </trkpt>
      <trkpt lat="41.842314" lon="22.99059">
        <ele>1159.9</ele>
        <time>2026-05-06T07:47:09.000Z</time>
      </trkpt>
      <trkpt lat="41.842298" lon="22.990592">
        <ele>1159.9</ele>
        <time>2026-05-06T07:47:10.000Z</time>
      </trkpt>
      <trkpt lat="41.842284" lon="22.990596">
        <ele>1159.9</ele>
        <time>2026-05-06T07:47:11.000Z</time>
      </trkpt>
      <trkpt lat="41.84227" lon="22.990601">
        <ele>1159.9</ele>
        <time>2026-05-06T07:47:12.000Z</time>
      </trkpt>
      <trkpt lat="41.842257" lon="22.990609">
        <ele>1159.5</ele>
        <time>2026-05-06T07:47:13.000Z</time>
      </trkpt>
      <trkpt lat="41.842246" lon="22.990618">
        <ele>1159.5</ele>
        <time>2026-05-06T07:47:14.000Z</time>
      </trkpt>
      <trkpt lat="41.842235" lon="22.990628">
        <ele>1159.5</ele>
        <time>2026-05-06T07:47:15.000Z</time>
      </trkpt>
      <trkpt lat="41.842224" lon="22.990639">
        <ele>1159.5</ele>
        <time>2026-05-06T07:47:16.000Z</time>
      </trkpt>
      <trkpt lat="41.842213" lon="22.990649">
        <ele>1159.5</ele>
        <time>2026-05-06T07:47:17.000Z</time>
      </trkpt>
      <trkpt lat="41.842202" lon="22.99066">
        <ele>1159.2</ele>
        <time>2026-05-06T07:47:18.000Z</time>
      </trkpt>
      <trkpt lat="41.84219" lon="22.990672">
        <ele>1159.2</ele>
        <time>2026-05-06T07:47:19.000Z</time>
      </trkpt>
      <trkpt lat="41.842179" lon="22.990683">
        <ele>1159.2</ele>
        <time>2026-05-06T07:47:20.000Z</time>
      </trkpt>
      <trkpt lat="41.842169" lon="22.990694">
        <ele>1159.2</ele>
        <time>2026-05-06T07:47:21.000Z</time>
      </trkpt>
      <trkpt lat="41.842158" lon="22.990704">
        <ele>1159.2</ele>
        <time>2026-05-06T07:47:22.000Z</time>
      </trkpt>
      <trkpt lat="41.842148" lon="22.990715">
        <ele>1158.4</ele>
        <time>2026-05-06T07:47:23.000Z</time>
      </trkpt>
      <trkpt lat="41.842136" lon="22.990725">
        <ele>1158.4</ele>
        <time>2026-05-06T07:47:24.000Z</time>
      </trkpt>
      <trkpt lat="41.842124" lon="22.990734">
        <ele>1158.4</ele>
        <time>2026-05-06T07:47:25.000Z</time>
      </trkpt>
      <trkpt lat="41.84211" lon="22.990744">
        <ele>1158.4</ele>
        <time>2026-05-06T07:47:26.000Z</time>
      </trkpt>
      <trkpt lat="41.842096" lon="22.990751">
        <ele>1158.4</ele>
        <time>2026-05-06T07:47:27.000Z</time>
      </trkpt>
      <trkpt lat="41.842083" lon="22.990756">
        <ele>1157.8</ele>
        <time>2026-05-06T07:47:28.000Z</time>
      </trkpt>
      <trkpt lat="41.84207" lon="22.990759">
        <ele>1157.8</ele>
        <time>2026-05-06T07:47:29.000Z</time>
      </trkpt>
      <trkpt lat="41.842058" lon="22.990761">
        <ele>1157.8</ele>
        <time>2026-05-06T07:47:30.000Z</time>
      </trkpt>
      <trkpt lat="41.842046" lon="22.99076">
        <ele>1157.8</ele>
        <time>2026-05-06T07:47:31.000Z</time>
      </trkpt>
      <trkpt lat="41.842035" lon="22.990759">
        <ele>1157.8</ele>
        <time>2026-05-06T07:47:32.000Z</time>
      </trkpt>
      <trkpt lat="41.842025" lon="22.990758">
        <ele>1157.5</ele>
        <time>2026-05-06T07:47:33.000Z</time>
      </trkpt>
      <trkpt lat="41.842016" lon="22.990756">
        <ele>1157.5</ele>
        <time>2026-05-06T07:47:34.000Z</time>
      </trkpt>
      <trkpt lat="41.842006" lon="22.990755">
        <ele>1157.5</ele>
        <time>2026-05-06T07:47:35.000Z</time>
      </trkpt>
      <trkpt lat="41.841997" lon="22.990754">
        <ele>1157.5</ele>
        <time>2026-05-06T07:47:36.000Z</time>
      </trkpt>
      <trkpt lat="41.841988" lon="22.990754">
        <ele>1157.5</ele>
        <time>2026-05-06T07:47:37.000Z</time>
      </trkpt>
      <trkpt lat="41.841978" lon="22.990753">
        <ele>1156.8</ele>
        <time>2026-05-06T07:47:38.000Z</time>
      </trkpt>
      <trkpt lat="41.841967" lon="22.990753">
        <ele>1156.8</ele>
        <time>2026-05-06T07:47:39.000Z</time>
      </trkpt>
      <trkpt lat="41.841957" lon="22.990752">
        <ele>1156.8</ele>
        <time>2026-05-06T07:47:40.000Z</time>
      </trkpt>
      <trkpt lat="41.841947" lon="22.990752">
        <ele>1156.8</ele>
        <time>2026-05-06T07:47:41.000Z</time>
      </trkpt>
      <trkpt lat="41.841936" lon="22.990752">
        <ele>1156.8</ele>
        <time>2026-05-06T07:47:42.000Z</time>
      </trkpt>
      <trkpt lat="41.841925" lon="22.990753">
        <ele>1155.5</ele>
        <time>2026-05-06T07:47:43.000Z</time>
      </trkpt>
      <trkpt lat="41.841915" lon="22.990753">
        <ele>1155.5</ele>
        <time>2026-05-06T07:47:44.000Z</time>
      </trkpt>
      <trkpt lat="41.841905" lon="22.990753">
        <ele>1155.5</ele>
        <time>2026-05-06T07:47:45.000Z</time>
      </trkpt>
      <trkpt lat="41.841895" lon="22.990752">
        <ele>1155.5</ele>
        <time>2026-05-06T07:47:46.000Z</time>
      </trkpt>
      <trkpt lat="41.841886" lon="22.990752">
        <ele>1155.5</ele>
        <time>2026-05-06T07:47:47.000Z</time>
      </trkpt>
      <trkpt lat="41.841878" lon="22.990754">
        <ele>1154.7</ele>
        <time>2026-05-06T07:47:48.000Z</time>
      </trkpt>
      <trkpt lat="41.841869" lon="22.990757">
        <ele>1154.7</ele>
        <time>2026-05-06T07:47:49.000Z</time>
      </trkpt>
      <trkpt lat="41.84186" lon="22.990763">
        <ele>1154.7</ele>
        <time>2026-05-06T07:47:50.000Z</time>
      </trkpt>
      <trkpt lat="41.841851" lon="22.990769">
        <ele>1154.7</ele>
        <time>2026-05-06T07:47:51.000Z</time>
      </trkpt>
      <trkpt lat="41.841841" lon="22.990777">
        <ele>1154.7</ele>
        <time>2026-05-06T07:47:52.000Z</time>
      </trkpt>
      <trkpt lat="41.84183" lon="22.990783">
        <ele>1153</ele>
        <time>2026-05-06T07:47:53.000Z</time>
      </trkpt>
      <trkpt lat="41.841819" lon="22.990789">
        <ele>1153</ele>
        <time>2026-05-06T07:47:54.000Z</time>
      </trkpt>
      <trkpt lat="41.841807" lon="22.990795">
        <ele>1153</ele>
        <time>2026-05-06T07:47:55.000Z</time>
      </trkpt>
      <trkpt lat="41.841796" lon="22.990801">
        <ele>1153</ele>
        <time>2026-05-06T07:47:56.000Z</time>
      </trkpt>
      <trkpt lat="41.841784" lon="22.990807">
        <ele>1153</ele>
        <time>2026-05-06T07:47:57.000Z</time>
      </trkpt>
      <trkpt lat="41.841773" lon="22.990815">
        <ele>1150.9</ele>
        <time>2026-05-06T07:47:58.000Z</time>
      </trkpt>
      <trkpt lat="41.841762" lon="22.990823">
        <ele>1150.9</ele>
        <time>2026-05-06T07:47:59.000Z</time>
      </trkpt>
      <trkpt lat="41.841753" lon="22.990832">
        <ele>1150.9</ele>
        <time>2026-05-06T07:48:00.000Z</time>
      </trkpt>
      <trkpt lat="41.841744" lon="22.990842">
        <ele>1150.9</ele>
        <time>2026-05-06T07:48:01.000Z</time>
      </trkpt>
      <trkpt lat="41.841736" lon="22.990852">
        <ele>1150.9</ele>
        <time>2026-05-06T07:48:02.000Z</time>
      </trkpt>
      <trkpt lat="41.841726" lon="22.990859">
        <ele>1149.8</ele>
        <time>2026-05-06T07:48:03.000Z</time>
      </trkpt>
      <trkpt lat="41.841716" lon="22.990865">
        <ele>1149.8</ele>
        <time>2026-05-06T07:48:04.000Z</time>
      </trkpt>
      <trkpt lat="41.841704" lon="22.99087">
        <ele>1149.8</ele>
        <time>2026-05-06T07:48:05.000Z</time>
      </trkpt>
      <trkpt lat="41.841692" lon="22.990873">
        <ele>1149.8</ele>
        <time>2026-05-06T07:48:06.000Z</time>
      </trkpt>
      <trkpt lat="41.84168" lon="22.990876">
        <ele>1149.8</ele>
        <time>2026-05-06T07:48:07.000Z</time>
      </trkpt>
      <trkpt lat="41.841669" lon="22.990879">
        <ele>1147.9</ele>
        <time>2026-05-06T07:48:08.000Z</time>
      </trkpt>
      <trkpt lat="41.841657" lon="22.990881">
        <ele>1147.9</ele>
        <time>2026-05-06T07:48:09.000Z</time>
      </trkpt>
      <trkpt lat="41.841645" lon="22.990883">
        <ele>1147.9</ele>
        <time>2026-05-06T07:48:10.000Z</time>
      </trkpt>
      <trkpt lat="41.841633" lon="22.990884">
        <ele>1147.9</ele>
        <time>2026-05-06T07:48:11.000Z</time>
      </trkpt>
      <trkpt lat="41.841619" lon="22.990885">
        <ele>1147.9</ele>
        <time>2026-05-06T07:48:12.000Z</time>
      </trkpt>
      <trkpt lat="41.841605" lon="22.990886">
        <ele>1146.8</ele>
        <time>2026-05-06T07:48:13.000Z</time>
      </trkpt>
      <trkpt lat="41.841592" lon="22.990888">
        <ele>1146.8</ele>
        <time>2026-05-06T07:48:14.000Z</time>
      </trkpt>
      <trkpt lat="41.841579" lon="22.990891">
        <ele>1146.8</ele>
        <time>2026-05-06T07:48:15.000Z</time>
      </trkpt>
      <trkpt lat="41.841566" lon="22.990894">
        <ele>1146.8</ele>
        <time>2026-05-06T07:48:16.000Z</time>
      </trkpt>
      <trkpt lat="41.841554" lon="22.990899">
        <ele>1146.8</ele>
        <time>2026-05-06T07:48:17.000Z</time>
      </trkpt>
      <trkpt lat="41.841539" lon="22.990903">
        <ele>1146.6</ele>
        <time>2026-05-06T07:48:18.000Z</time>
      </trkpt>
      <trkpt lat="41.841525" lon="22.990906">
        <ele>1146.6</ele>
        <time>2026-05-06T07:48:19.000Z</time>
      </trkpt>
      <trkpt lat="41.841512" lon="22.990908">
        <ele>1146.6</ele>
        <time>2026-05-06T07:48:20.000Z</time>
      </trkpt>
      <trkpt lat="41.841498" lon="22.99091">
        <ele>1146.6</ele>
        <time>2026-05-06T07:48:21.000Z</time>
      </trkpt>
      <trkpt lat="41.841484" lon="22.990911">
        <ele>1146.6</ele>
        <time>2026-05-06T07:48:22.000Z</time>
      </trkpt>
      <trkpt lat="41.841472" lon="22.99091">
        <ele>1146.7</ele>
        <time>2026-05-06T07:48:23.000Z</time>
      </trkpt>
      <trkpt lat="41.841458" lon="22.990907">
        <ele>1146.7</ele>
        <time>2026-05-06T07:48:24.000Z</time>
      </trkpt>
      <trkpt lat="41.841444" lon="22.990904">
        <ele>1146.7</ele>
        <time>2026-05-06T07:48:25.000Z</time>
      </trkpt>
      <trkpt lat="41.84143" lon="22.9909">
        <ele>1146.7</ele>
        <time>2026-05-06T07:48:26.000Z</time>
      </trkpt>
      <trkpt lat="41.841415" lon="22.990896">
        <ele>1146.7</ele>
        <time>2026-05-06T07:48:27.000Z</time>
      </trkpt>
      <trkpt lat="41.8414" lon="22.990891">
        <ele>1147.4</ele>
        <time>2026-05-06T07:48:28.000Z</time>
      </trkpt>
      <trkpt lat="41.841386" lon="22.990888">
        <ele>1147.4</ele>
        <time>2026-05-06T07:48:29.000Z</time>
      </trkpt>
      <trkpt lat="41.841372" lon="22.990884">
        <ele>1147.4</ele>
        <time>2026-05-06T07:48:30.000Z</time>
      </trkpt>
      <trkpt lat="41.841357" lon="22.99088">
        <ele>1147.4</ele>
        <time>2026-05-06T07:48:31.000Z</time>
      </trkpt>
      <trkpt lat="41.841343" lon="22.990875">
        <ele>1147.4</ele>
        <time>2026-05-06T07:48:32.000Z</time>
      </trkpt>
      <trkpt lat="41.841328" lon="22.990869">
        <ele>1147.8</ele>
        <time>2026-05-06T07:48:33.000Z</time>
      </trkpt>
      <trkpt lat="41.841314" lon="22.990862">
        <ele>1147.8</ele>
        <time>2026-05-06T07:48:34.000Z</time>
      </trkpt>
      <trkpt lat="41.8413" lon="22.990854">
        <ele>1147.8</ele>
        <time>2026-05-06T07:48:35.000Z</time>
      </trkpt>
      <trkpt lat="41.841287" lon="22.990846">
        <ele>1147.8</ele>
        <time>2026-05-06T07:48:36.000Z</time>
      </trkpt>
      <trkpt lat="41.841273" lon="22.990837">
        <ele>1147.8</ele>
        <time>2026-05-06T07:48:37.000Z</time>
      </trkpt>
      <trkpt lat="41.841259" lon="22.990828">
        <ele>1148.3</ele>
        <time>2026-05-06T07:48:38.000Z</time>
      </trkpt>
      <trkpt lat="41.841245" lon="22.99082">
        <ele>1148.3</ele>
        <time>2026-05-06T07:48:39.000Z</time>
      </trkpt>
      <trkpt lat="41.84123" lon="22.990811">
        <ele>1148.3</ele>
        <time>2026-05-06T07:48:40.000Z</time>
      </trkpt>
      <trkpt lat="41.841214" lon="22.990802">
        <ele>1148.3</ele>
        <time>2026-05-06T07:48:41.000Z</time>
      </trkpt>
      <trkpt lat="41.8412" lon="22.990793">
        <ele>1148.3</ele>
        <time>2026-05-06T07:48:42.000Z</time>
      </trkpt>
      <trkpt lat="41.841185" lon="22.990784">
        <ele>1148.5</ele>
        <time>2026-05-06T07:48:43.000Z</time>
      </trkpt>
      <trkpt lat="41.84117" lon="22.990774">
        <ele>1148.5</ele>
        <time>2026-05-06T07:48:44.000Z</time>
      </trkpt>
      <trkpt lat="41.841156" lon="22.990765">
        <ele>1148.5</ele>
        <time>2026-05-06T07:48:45.000Z</time>
      </trkpt>
      <trkpt lat="41.841141" lon="22.990757">
        <ele>1148.5</ele>
        <time>2026-05-06T07:48:46.000Z</time>
      </trkpt>
      <trkpt lat="41.841127" lon="22.990749">
        <ele>1148.5</ele>
        <time>2026-05-06T07:48:47.000Z</time>
      </trkpt>
      <trkpt lat="41.841112" lon="22.990742">
        <ele>1148.4</ele>
        <time>2026-05-06T07:48:48.000Z</time>
      </trkpt>
      <trkpt lat="41.841097" lon="22.990735">
        <ele>1148.4</ele>
        <time>2026-05-06T07:48:49.000Z</time>
      </trkpt>
      <trkpt lat="41.841082" lon="22.990731">
        <ele>1148.4</ele>
        <time>2026-05-06T07:48:50.000Z</time>
      </trkpt>
      <trkpt lat="41.841068" lon="22.990728">
        <ele>1148.4</ele>
        <time>2026-05-06T07:48:51.000Z</time>
      </trkpt>
      <trkpt lat="41.841053" lon="22.990725">
        <ele>1148.4</ele>
        <time>2026-05-06T07:48:52.000Z</time>
      </trkpt>
      <trkpt lat="41.841038" lon="22.990723">
        <ele>1148.4</ele>
        <time>2026-05-06T07:48:53.000Z</time>
      </trkpt>
      <trkpt lat="41.841023" lon="22.990721">
        <ele>1148.4</ele>
        <time>2026-05-06T07:48:54.000Z</time>
      </trkpt>
      <trkpt lat="41.841008" lon="22.990718">
        <ele>1148.4</ele>
        <time>2026-05-06T07:48:55.000Z</time>
      </trkpt>
      <trkpt lat="41.840993" lon="22.990714">
        <ele>1148.4</ele>
        <time>2026-05-06T07:48:56.000Z</time>
      </trkpt>
      <trkpt lat="41.840979" lon="22.990709">
        <ele>1148.4</ele>
        <time>2026-05-06T07:48:57.000Z</time>
      </trkpt>
      <trkpt lat="41.840965" lon="22.990705">
        <ele>1148.6</ele>
        <time>2026-05-06T07:48:58.000Z</time>
      </trkpt>
      <trkpt lat="41.840951" lon="22.9907">
        <ele>1148.6</ele>
        <time>2026-05-06T07:48:59.000Z</time>
      </trkpt>
      <trkpt lat="41.840939" lon="22.990696">
        <ele>1148.6</ele>
        <time>2026-05-06T07:49:00.000Z</time>
      </trkpt>
      <trkpt lat="41.84093" lon="22.990693">
        <ele>1148.6</ele>
        <time>2026-05-06T07:49:01.000Z</time>
      </trkpt>
      <trkpt lat="41.840924" lon="22.990691">
        <ele>1148.6</ele>
        <time>2026-05-06T07:49:02.000Z</time>
      </trkpt>
      <trkpt lat="41.84092" lon="22.99069">
        <ele>1148.7</ele>
        <time>2026-05-06T07:49:03.000Z</time>
      </trkpt>
      <trkpt lat="41.840919" lon="22.99069">
        <ele>1148.7</ele>
        <time>2026-05-06T07:49:04.000Z</time>
      </trkpt>
      <trkpt lat="41.840919" lon="22.99069">
        <ele>1148.7</ele>
        <time>2026-05-06T07:49:05.000Z</time>
      </trkpt>
      <trkpt lat="41.84092" lon="22.990691">
        <ele>1148.7</ele>
        <time>2026-05-06T07:49:06.000Z</time>
      </trkpt>
      <trkpt lat="41.840919" lon="22.990691">
        <ele>1148.7</ele>
        <time>2026-05-06T07:49:07.000Z</time>
      </trkpt>
      <trkpt lat="41.840918" lon="22.99069">
        <ele>1149.1</ele>
        <time>2026-05-06T07:49:08.000Z</time>
      </trkpt>
      <trkpt lat="41.840918" lon="22.99069">
        <ele>1149.1</ele>
        <time>2026-05-06T07:49:09.000Z</time>
      </trkpt>
      <trkpt lat="41.840918" lon="22.99069">
        <ele>1149.1</ele>
        <time>2026-05-06T07:49:10.000Z</time>
      </trkpt>
      <trkpt lat="41.840917" lon="22.990689">
        <ele>1149.1</ele>
        <time>2026-05-06T07:49:11.000Z</time>
      </trkpt>
      <trkpt lat="41.840917" lon="22.99069">
        <ele>1149.1</ele>
        <time>2026-05-06T07:49:12.000Z</time>
      </trkpt>
      <trkpt lat="41.840917" lon="22.990691">
        <ele>1149.5</ele>
        <time>2026-05-06T07:49:13.000Z</time>
      </trkpt>
      <trkpt lat="41.840916" lon="22.990692">
        <ele>1149.5</ele>
        <time>2026-05-06T07:49:14.000Z</time>
      </trkpt>
      <trkpt lat="41.840915" lon="22.990693">
        <ele>1149.5</ele>
        <time>2026-05-06T07:49:15.000Z</time>
      </trkpt>
      <trkpt lat="41.840915" lon="22.990693">
        <ele>1149.5</ele>
        <time>2026-05-06T07:49:16.000Z</time>
      </trkpt>
      <trkpt lat="41.840913" lon="22.990693">
        <ele>1149.5</ele>
        <time>2026-05-06T07:49:17.000Z</time>
      </trkpt>
      <trkpt lat="41.840912" lon="22.990692">
        <ele>1149.7</ele>
        <time>2026-05-06T07:49:18.000Z</time>
      </trkpt>
      <trkpt lat="41.840911" lon="22.990692">
        <ele>1149.7</ele>
        <time>2026-05-06T07:49:19.000Z</time>
      </trkpt>
      <trkpt lat="41.84091" lon="22.990692">
        <ele>1149.7</ele>
        <time>2026-05-06T07:49:20.000Z</time>
      </trkpt>
      <trkpt lat="41.840909" lon="22.990693">
        <ele>1149.7</ele>
        <time>2026-05-06T07:49:21.000Z</time>
      </trkpt>
      <trkpt lat="41.840908" lon="22.990693">
        <ele>1149.7</ele>
        <time>2026-05-06T07:49:22.000Z</time>
      </trkpt>
      <trkpt lat="41.840908" lon="22.990693">
        <ele>1149.8</ele>
        <time>2026-05-06T07:49:23.000Z</time>
      </trkpt>
      <trkpt lat="41.840908" lon="22.990694">
        <ele>1149.8</ele>
        <time>2026-05-06T07:49:24.000Z</time>
      </trkpt>
      <trkpt lat="41.840908" lon="22.990694">
        <ele>1149.8</ele>
        <time>2026-05-06T07:49:25.000Z</time>
      </trkpt>
      <trkpt lat="41.840907" lon="22.990693">
        <ele>1149.8</ele>
        <time>2026-05-06T07:49:26.000Z</time>
      </trkpt>
      <trkpt lat="41.840905" lon="22.990692">
        <ele>1149.8</ele>
        <time>2026-05-06T07:49:27.000Z</time>
      </trkpt>
      <trkpt lat="41.840902" lon="22.990691">
        <ele>1149.8</ele>
        <time>2026-05-06T07:49:28.000Z</time>
      </trkpt>
      <trkpt lat="41.840899" lon="22.990689">
        <ele>1149.8</ele>
        <time>2026-05-06T07:49:29.000Z</time>
      </trkpt>
      <trkpt lat="41.840896" lon="22.990688">
        <ele>1149.8</ele>
        <time>2026-05-06T07:49:30.000Z</time>
      </trkpt>
      <trkpt lat="41.840895" lon="22.990688">
        <ele>1149.8</ele>
        <time>2026-05-06T07:49:31.000Z</time>
      </trkpt>
      <trkpt lat="41.840893" lon="22.990684">
        <ele>1149.8</ele>
        <time>2026-05-06T07:49:32.000Z</time>
      </trkpt>
      <trkpt lat="41.840892" lon="22.990682">
        <ele>1149.8</ele>
        <time>2026-05-06T07:49:33.000Z</time>
      </trkpt>
      <trkpt lat="41.840891" lon="22.99068">
        <ele>1149.8</ele>
        <time>2026-05-06T07:49:34.000Z</time>
      </trkpt>
      <trkpt lat="41.84089" lon="22.990679">
        <ele>1149.8</ele>
        <time>2026-05-06T07:49:35.000Z</time>
      </trkpt>
      <trkpt lat="41.84089" lon="22.990678">
        <ele>1149.8</ele>
        <time>2026-05-06T07:49:36.000Z</time>
      </trkpt>
      <trkpt lat="41.840889" lon="22.990679">
        <ele>1149.8</ele>
        <time>2026-05-06T07:49:37.000Z</time>
      </trkpt>
      <trkpt lat="41.840889" lon="22.990679">
        <ele>1149.6</ele>
        <time>2026-05-06T07:49:38.000Z</time>
      </trkpt>
      <trkpt lat="41.840889" lon="22.990679">
        <ele>1149.6</ele>
        <time>2026-05-06T07:49:39.000Z</time>
      </trkpt>
      <trkpt lat="41.840889" lon="22.990679">
        <ele>1149.6</ele>
        <time>2026-05-06T07:49:40.000Z</time>
      </trkpt>
      <trkpt lat="41.840889" lon="22.990679">
        <ele>1149.6</ele>
        <time>2026-05-06T07:49:41.000Z</time>
      </trkpt>
      <trkpt lat="41.840889" lon="22.99068">
        <ele>1149.6</ele>
        <time>2026-05-06T07:49:42.000Z</time>
      </trkpt>
      <trkpt lat="41.840889" lon="22.990681">
        <ele>1149.5</ele>
        <time>2026-05-06T07:49:43.000Z</time>
      </trkpt>
      <trkpt lat="41.840889" lon="22.990681">
        <ele>1149.5</ele>
        <time>2026-05-06T07:49:44.000Z</time>
      </trkpt>
      <trkpt lat="41.840889" lon="22.990681">
        <ele>1149.5</ele>
        <time>2026-05-06T07:49:45.000Z</time>
      </trkpt>
      <trkpt lat="41.840889" lon="22.990681">
        <ele>1149.5</ele>
        <time>2026-05-06T07:49:46.000Z</time>
      </trkpt>
      <trkpt lat="41.840889" lon="22.990681">
        <ele>1149.5</ele>
        <time>2026-05-06T07:49:47.000Z</time>
      </trkpt>
      <trkpt lat="41.840889" lon="22.990681">
        <ele>1149.4</ele>
        <time>2026-05-06T07:49:48.000Z</time>
      </trkpt>
      <trkpt lat="41.840889" lon="22.990681">
        <ele>1149.4</ele>
        <time>2026-05-06T07:49:49.000Z</time>
      </trkpt>
      <trkpt lat="41.840889" lon="22.99068">
        <ele>1149.4</ele>
        <time>2026-05-06T07:49:50.000Z</time>
      </trkpt>
      <trkpt lat="41.840889" lon="22.990679">
        <ele>1149.4</ele>
        <time>2026-05-06T07:49:51.000Z</time>
      </trkpt>
      <trkpt lat="41.840889" lon="22.990679">
        <ele>1149.4</ele>
        <time>2026-05-06T07:49:52.000Z</time>
      </trkpt>
      <trkpt lat="41.840889" lon="22.990678">
        <ele>1149.3</ele>
        <time>2026-05-06T07:49:53.000Z</time>
      </trkpt>
      <trkpt lat="41.840889" lon="22.990678">
        <ele>1149.3</ele>
        <time>2026-05-06T07:49:54.000Z</time>
      </trkpt>
      <trkpt lat="41.840889" lon="22.990678">
        <ele>1149.3</ele>
        <time>2026-05-06T07:49:55.000Z</time>
      </trkpt>
      <trkpt lat="41.840889" lon="22.990678">
        <ele>1149.3</ele>
        <time>2026-05-06T07:49:56.000Z</time>
      </trkpt>
      <trkpt lat="41.840889" lon="22.990679">
        <ele>1149.3</ele>
        <time>2026-05-06T07:49:57.000Z</time>
      </trkpt>
      <trkpt lat="41.840889" lon="22.990679">
        <ele>1149.2</ele>
        <time>2026-05-06T07:49:58.000Z</time>
      </trkpt>
      <trkpt lat="41.840888" lon="22.990679">
        <ele>1149.2</ele>
        <time>2026-05-06T07:49:59.000Z</time>
      </trkpt>
      <trkpt lat="41.840888" lon="22.99068">
        <ele>1149.2</ele>
        <time>2026-05-06T07:50:00.000Z</time>
      </trkpt>
      <trkpt lat="41.840888" lon="22.990679">
        <ele>1149.2</ele>
        <time>2026-05-06T07:50:01.000Z</time>
      </trkpt>
      <trkpt lat="41.840888" lon="22.990679">
        <ele>1149.2</ele>
        <time>2026-05-06T07:50:02.000Z</time>
      </trkpt>
      <trkpt lat="41.840888" lon="22.990679">
        <ele>1149.2</ele>
        <time>2026-05-06T07:50:03.000Z</time>
      </trkpt>
      <trkpt lat="41.840888" lon="22.990679">
        <ele>1149.2</ele>
        <time>2026-05-06T07:50:04.000Z</time>
      </trkpt>
      <trkpt lat="41.840888" lon="22.990679">
        <ele>1149.2</ele>
        <time>2026-05-06T07:50:05.000Z</time>
      </trkpt>
      <trkpt lat="41.840888" lon="22.990679">
        <ele>1149.2</ele>
        <time>2026-05-06T07:50:06.000Z</time>
      </trkpt>
      <trkpt lat="41.840888" lon="22.990679">
        <ele>1149.2</ele>
        <time>2026-05-06T07:50:07.000Z</time>
      </trkpt>
      <trkpt lat="41.840888" lon="22.990679">
        <ele>1149.2</ele>
        <time>2026-05-06T07:50:08.000Z</time>
      </trkpt>
      <trkpt lat="41.840888" lon="22.990679">
        <ele>1149.2</ele>
        <time>2026-05-06T07:50:09.000Z</time>
      </trkpt>
      <trkpt lat="41.840888" lon="22.990679">
        <ele>1149.2</ele>
        <time>2026-05-06T07:50:10.000Z</time>
      </trkpt>
      <trkpt lat="41.840888" lon="22.990679">
        <ele>1149.2</ele>
        <time>2026-05-06T07:50:11.000Z</time>
      </trkpt>
      <trkpt lat="41.840888" lon="22.990679">
        <ele>1149.2</ele>
        <time>2026-05-06T07:50:12.000Z</time>
      </trkpt>
      <trkpt lat="41.840888" lon="22.990679">
        <ele>1149.2</ele>
        <time>2026-05-06T07:50:13.000Z</time>
      </trkpt>
      <trkpt lat="41.840888" lon="22.990679">
        <ele>1149.2</ele>
        <time>2026-05-06T07:50:14.000Z</time>
      </trkpt>
      <trkpt lat="41.840888" lon="22.990679">
        <ele>1149.2</ele>
        <time>2026-05-06T07:50:15.000Z</time>
      </trkpt>
      <trkpt lat="41.840888" lon="22.990679">
        <ele>1149.2</ele>
        <time>2026-05-06T07:50:16.000Z</time>
      </trkpt>
      <trkpt lat="41.840888" lon="22.990679">
        <ele>1149.2</ele>
        <time>2026-05-06T07:50:17.000Z</time>
      </trkpt>
      <trkpt lat="41.840888" lon="22.990679">
        <ele>1149.1</ele>
        <time>2026-05-06T07:50:18.000Z</time>
      </trkpt>
      <trkpt lat="41.840888" lon="22.990679">
        <ele>1149.1</ele>
        <time>2026-05-06T07:50:19.000Z</time>
      </trkpt>
      <trkpt lat="41.840889" lon="22.99068">
        <ele>1149.1</ele>
        <time>2026-05-06T07:50:20.000Z</time>
      </trkpt>
      <trkpt lat="41.840889" lon="22.99068">
        <ele>1149.1</ele>
        <time>2026-05-06T07:50:21.000Z</time>
      </trkpt>
      <trkpt lat="41.840889" lon="22.990681">
        <ele>1149.1</ele>
        <time>2026-05-06T07:50:22.000Z</time>
      </trkpt>
      <trkpt lat="41.84089" lon="22.990681">
        <ele>1149</ele>
        <time>2026-05-06T07:50:23.000Z</time>
      </trkpt>
      <trkpt lat="41.84089" lon="22.990682">
        <ele>1149</ele>
        <time>2026-05-06T07:50:24.000Z</time>
      </trkpt>
      <trkpt lat="41.84089" lon="22.990682">
        <ele>1149</ele>
        <time>2026-05-06T07:50:25.000Z</time>
      </trkpt>
      <trkpt lat="41.84089" lon="22.990682">
        <ele>1149</ele>
        <time>2026-05-06T07:50:26.000Z</time>
      </trkpt>
      <trkpt lat="41.840891" lon="22.990683">
        <ele>1149</ele>
        <time>2026-05-06T07:50:27.000Z</time>
      </trkpt>
      <trkpt lat="41.84089" lon="22.990683">
        <ele>1148.9</ele>
        <time>2026-05-06T07:50:28.000Z</time>
      </trkpt>
      <trkpt lat="41.840891" lon="22.990683">
        <ele>1148.9</ele>
        <time>2026-05-06T07:50:29.000Z</time>
      </trkpt>
      <trkpt lat="41.840891" lon="22.990683">
        <ele>1148.9</ele>
        <time>2026-05-06T07:50:30.000Z</time>
      </trkpt>
      <trkpt lat="41.840891" lon="22.990683">
        <ele>1148.9</ele>
        <time>2026-05-06T07:50:31.000Z</time>
      </trkpt>
      <trkpt lat="41.840894" lon="22.990684">
        <ele>1148.9</ele>
        <time>2026-05-06T07:50:32.000Z</time>
      </trkpt>
      <trkpt lat="41.840901" lon="22.990687">
        <ele>1148.8</ele>
        <time>2026-05-06T07:50:33.000Z</time>
      </trkpt>
      <trkpt lat="41.840907" lon="22.990687">
        <ele>1148.8</ele>
        <time>2026-05-06T07:50:34.000Z</time>
      </trkpt>
      <trkpt lat="41.840927" lon="22.9907">
        <ele>1148.8</ele>
        <time>2026-05-06T07:50:35.000Z</time>
      </trkpt>
      <trkpt lat="41.840891" lon="22.990671">
        <ele>1148.9</ele>
        <time>2026-05-06T07:58:25.000Z</time>
      </trkpt>
      <trkpt lat="41.84089" lon="22.990676">
        <ele>1148.9</ele>
        <time>2026-05-06T07:58:26.000Z</time>
      </trkpt>
      <trkpt lat="41.840881" lon="22.990677">
        <ele>1148.8</ele>
        <time>2026-05-06T07:58:27.000Z</time>
      </trkpt>
      <trkpt lat="41.840873" lon="22.990679">
        <ele>1148.8</ele>
        <time>2026-05-06T07:58:28.000Z</time>
      </trkpt>
      <trkpt lat="41.840862" lon="22.990681">
        <ele>1149</ele>
        <time>2026-05-06T07:58:29.000Z</time>
      </trkpt>
      <trkpt lat="41.84085" lon="22.990682">
        <ele>1149.3</ele>
        <time>2026-05-06T07:58:30.000Z</time>
      </trkpt>
      <trkpt lat="41.840838" lon="22.990681">
        <ele>1149.5</ele>
        <time>2026-05-06T07:58:31.000Z</time>
      </trkpt>
      <trkpt lat="41.840824" lon="22.99068">
        <ele>1150.2</ele>
        <time>2026-05-06T07:58:32.000Z</time>
      </trkpt>
      <trkpt lat="41.840811" lon="22.990679">
        <ele>1151.2</ele>
        <time>2026-05-06T07:58:33.000Z</time>
      </trkpt>
      <trkpt lat="41.840798" lon="22.990676">
        <ele>1151.9</ele>
        <time>2026-05-06T07:58:34.000Z</time>
      </trkpt>
      <trkpt lat="41.840786" lon="22.990673">
        <ele>1153.3</ele>
        <time>2026-05-06T07:58:35.000Z</time>
      </trkpt>
      <trkpt lat="41.840774" lon="22.990671">
        <ele>1154.7</ele>
        <time>2026-05-06T07:58:36.000Z</time>
      </trkpt>
      <trkpt lat="41.840762" lon="22.99067">
        <ele>1155.4</ele>
        <time>2026-05-06T07:58:37.000Z</time>
      </trkpt>
      <trkpt lat="41.84075" lon="22.990668">
        <ele>1156.4</ele>
        <time>2026-05-06T07:58:38.000Z</time>
      </trkpt>
      <trkpt lat="41.840738" lon="22.990667">
        <ele>1157.5</ele>
        <time>2026-05-06T07:58:39.000Z</time>
      </trkpt>
      <trkpt lat="41.840726" lon="22.990665">
        <ele>1158</ele>
        <time>2026-05-06T07:58:40.000Z</time>
      </trkpt>
      <trkpt lat="41.840714" lon="22.990664">
        <ele>1159.3</ele>
        <time>2026-05-06T07:58:41.000Z</time>
      </trkpt>
      <trkpt lat="41.840701" lon="22.990663">
        <ele>1160.8</ele>
        <time>2026-05-06T07:58:42.000Z</time>
      </trkpt>
      <trkpt lat="41.840688" lon="22.99066">
        <ele>1161.6</ele>
        <time>2026-05-06T07:58:43.000Z</time>
      </trkpt>
      <trkpt lat="41.840676" lon="22.990657">
        <ele>1163.4</ele>
        <time>2026-05-06T07:58:44.000Z</time>
      </trkpt>
      <trkpt lat="41.840664" lon="22.990654">
        <ele>1164.7</ele>
        <time>2026-05-06T07:58:45.000Z</time>
      </trkpt>
      <trkpt lat="41.840651" lon="22.990651">
        <ele>1165.2</ele>
        <time>2026-05-06T07:58:46.000Z</time>
      </trkpt>
      <trkpt lat="41.840639" lon="22.990647">
        <ele>1165.8</ele>
        <time>2026-05-06T07:58:47.000Z</time>
      </trkpt>
      <trkpt lat="41.840626" lon="22.990643">
        <ele>1165.9</ele>
        <time>2026-05-06T07:58:48.000Z</time>
      </trkpt>
      <trkpt lat="41.840613" lon="22.990639">
        <ele>1165.6</ele>
        <time>2026-05-06T07:58:49.000Z</time>
      </trkpt>
      <trkpt lat="41.840599" lon="22.990632">
        <ele>1164.1</ele>
        <time>2026-05-06T07:58:50.000Z</time>
      </trkpt>
      <trkpt lat="41.840583" lon="22.990623">
        <ele>1161.7</ele>
        <time>2026-05-06T07:58:51.000Z</time>
      </trkpt>
      <trkpt lat="41.840566" lon="22.990612">
        <ele>1160.5</ele>
        <time>2026-05-06T07:58:52.000Z</time>
      </trkpt>
      <trkpt lat="41.840549" lon="22.990601">
        <ele>1158.5</ele>
        <time>2026-05-06T07:58:53.000Z</time>
      </trkpt>
      <trkpt lat="41.840532" lon="22.990589">
        <ele>1156.9</ele>
        <time>2026-05-06T07:58:54.000Z</time>
      </trkpt>
      <trkpt lat="41.840516" lon="22.990577">
        <ele>1156.3</ele>
        <time>2026-05-06T07:58:55.000Z</time>
      </trkpt>
      <trkpt lat="41.840502" lon="22.990567">
        <ele>1155.1</ele>
        <time>2026-05-06T07:58:56.000Z</time>
      </trkpt>
      <trkpt lat="41.840489" lon="22.990558">
        <ele>1154.1</ele>
        <time>2026-05-06T07:58:57.000Z</time>
      </trkpt>
      <trkpt lat="41.840476" lon="22.990548">
        <ele>1153.7</ele>
        <time>2026-05-06T07:58:58.000Z</time>
      </trkpt>
      <trkpt lat="41.840465" lon="22.99054">
        <ele>1153.1</ele>
        <time>2026-05-06T07:58:59.000Z</time>
      </trkpt>
      <trkpt lat="41.840453" lon="22.990533">
        <ele>1152.7</ele>
        <time>2026-05-06T07:59:00.000Z</time>
      </trkpt>
      <trkpt lat="41.840441" lon="22.990526">
        <ele>1152.6</ele>
        <time>2026-05-06T07:59:01.000Z</time>
      </trkpt>
      <trkpt lat="41.840428" lon="22.990518">
        <ele>1152.6</ele>
        <time>2026-05-06T07:59:02.000Z</time>
      </trkpt>
      <trkpt lat="41.840417" lon="22.990511">
        <ele>1152.8</ele>
        <time>2026-05-06T07:59:03.000Z</time>
      </trkpt>
      <trkpt lat="41.840405" lon="22.990503">
        <ele>1152.9</ele>
        <time>2026-05-06T07:59:04.000Z</time>
      </trkpt>
      <trkpt lat="41.840394" lon="22.990496">
        <ele>1153</ele>
        <time>2026-05-06T07:59:05.000Z</time>
      </trkpt>
      <trkpt lat="41.840382" lon="22.990488">
        <ele>1153.1</ele>
        <time>2026-05-06T07:59:06.000Z</time>
      </trkpt>
      <trkpt lat="41.840371" lon="22.990482">
        <ele>1153.1</ele>
        <time>2026-05-06T07:59:07.000Z</time>
      </trkpt>
      <trkpt lat="41.840358" lon="22.990477">
        <ele>1153.5</ele>
        <time>2026-05-06T07:59:08.000Z</time>
      </trkpt>
      <trkpt lat="41.840344" lon="22.990472">
        <ele>1154.3</ele>
        <time>2026-05-06T07:59:09.000Z</time>
      </trkpt>
      <trkpt lat="41.84033" lon="22.990467">
        <ele>1154.9</ele>
        <time>2026-05-06T07:59:10.000Z</time>
      </trkpt>
      <trkpt lat="41.840316" lon="22.990462">
        <ele>1156.1</ele>
        <time>2026-05-06T07:59:11.000Z</time>
      </trkpt>
      <trkpt lat="41.840302" lon="22.990456">
        <ele>1156.1</ele>
        <time>2026-05-06T07:59:12.000Z</time>
      </trkpt>
      <trkpt lat="41.840287" lon="22.990451">
        <ele>1156.1</ele>
        <time>2026-05-06T07:59:13.000Z</time>
      </trkpt>
      <trkpt lat="41.840272" lon="22.990446">
        <ele>1156.1</ele>
        <time>2026-05-06T07:59:14.000Z</time>
      </trkpt>
      <trkpt lat="41.840258" lon="22.990442">
        <ele>1156.1</ele>
        <time>2026-05-06T07:59:15.000Z</time>
      </trkpt>
      <trkpt lat="41.840244" lon="22.990438">
        <ele>1156.1</ele>
        <time>2026-05-06T07:59:16.000Z</time>
      </trkpt>
      <trkpt lat="41.84023" lon="22.990435">
        <ele>1156.1</ele>
        <time>2026-05-06T07:59:17.000Z</time>
      </trkpt>
      <trkpt lat="41.840215" lon="22.990431">
        <ele>1156.1</ele>
        <time>2026-05-06T07:59:18.000Z</time>
      </trkpt>
      <trkpt lat="41.840201" lon="22.990427">
        <ele>1156.1</ele>
        <time>2026-05-06T07:59:19.000Z</time>
      </trkpt>
      <trkpt lat="41.840187" lon="22.990423">
        <ele>1156.1</ele>
        <time>2026-05-06T07:59:20.000Z</time>
      </trkpt>
      <trkpt lat="41.840172" lon="22.990418">
        <ele>1156.1</ele>
        <time>2026-05-06T07:59:21.000Z</time>
      </trkpt>
      <trkpt lat="41.840158" lon="22.990413">
        <ele>1156.1</ele>
        <time>2026-05-06T07:59:22.000Z</time>
      </trkpt>
      <trkpt lat="41.840144" lon="22.990407">
        <ele>1156.1</ele>
        <time>2026-05-06T07:59:23.000Z</time>
      </trkpt>
      <trkpt lat="41.84013" lon="22.990401">
        <ele>1156.1</ele>
        <time>2026-05-06T07:59:24.000Z</time>
      </trkpt>
      <trkpt lat="41.840115" lon="22.990394">
        <ele>1156.1</ele>
        <time>2026-05-06T07:59:25.000Z</time>
      </trkpt>
      <trkpt lat="41.840101" lon="22.990386">
        <ele>1156.1</ele>
        <time>2026-05-06T07:59:26.000Z</time>
      </trkpt>
      <trkpt lat="41.840086" lon="22.990376">
        <ele>1156.1</ele>
        <time>2026-05-06T07:59:27.000Z</time>
      </trkpt>
      <trkpt lat="41.840072" lon="22.990365">
        <ele>1156.1</ele>
        <time>2026-05-06T07:59:28.000Z</time>
      </trkpt>
      <trkpt lat="41.840058" lon="22.990354">
        <ele>1156.1</ele>
        <time>2026-05-06T07:59:29.000Z</time>
      </trkpt>
      <trkpt lat="41.840045" lon="22.990342">
        <ele>1156.1</ele>
        <time>2026-05-06T07:59:30.000Z</time>
      </trkpt>
      <trkpt lat="41.840033" lon="22.99033">
        <ele>1156.1</ele>
        <time>2026-05-06T07:59:31.000Z</time>
      </trkpt>
      <trkpt lat="41.840021" lon="22.990318">
        <ele>1156.1</ele>
        <time>2026-05-06T07:59:32.000Z</time>
      </trkpt>
      <trkpt lat="41.84001" lon="22.990307">
        <ele>1156.1</ele>
        <time>2026-05-06T07:59:33.000Z</time>
      </trkpt>
      <trkpt lat="41.84" lon="22.990297">
        <ele>1156.1</ele>
        <time>2026-05-06T07:59:34.000Z</time>
      </trkpt>
      <trkpt lat="41.839991" lon="22.990285">
        <ele>1156.1</ele>
        <time>2026-05-06T07:59:35.000Z</time>
      </trkpt>
      <trkpt lat="41.83998" lon="22.990272">
        <ele>1156.1</ele>
        <time>2026-05-06T07:59:36.000Z</time>
      </trkpt>
      <trkpt lat="41.83997" lon="22.990257">
        <ele>1156.1</ele>
        <time>2026-05-06T07:59:37.000Z</time>
      </trkpt>
      <trkpt lat="41.839959" lon="22.990241">
        <ele>1156.1</ele>
        <time>2026-05-06T07:59:38.000Z</time>
      </trkpt>
      <trkpt lat="41.839948" lon="22.990222">
        <ele>1156.1</ele>
        <time>2026-05-06T07:59:39.000Z</time>
      </trkpt>
      <trkpt lat="41.839936" lon="22.990202">
        <ele>1156.1</ele>
        <time>2026-05-06T07:59:40.000Z</time>
      </trkpt>
      <trkpt lat="41.839923" lon="22.990182">
        <ele>1156.1</ele>
        <time>2026-05-06T07:59:41.000Z</time>
      </trkpt>
      <trkpt lat="41.83991" lon="22.990161">
        <ele>1156.1</ele>
        <time>2026-05-06T07:59:42.000Z</time>
      </trkpt>
      <trkpt lat="41.839895" lon="22.990141">
        <ele>1156.1</ele>
        <time>2026-05-06T07:59:43.000Z</time>
      </trkpt>
      <trkpt lat="41.839878" lon="22.990122">
        <ele>1156.1</ele>
        <time>2026-05-06T07:59:44.000Z</time>
      </trkpt>
      <trkpt lat="41.839861" lon="22.990104">
        <ele>1156.1</ele>
        <time>2026-05-06T07:59:45.000Z</time>
      </trkpt>
      <trkpt lat="41.839842" lon="22.990087">
        <ele>1156.1</ele>
        <time>2026-05-06T07:59:46.000Z</time>
      </trkpt>
      <trkpt lat="41.839824" lon="22.990071">
        <ele>1156.1</ele>
        <time>2026-05-06T07:59:47.000Z</time>
      </trkpt>
      <trkpt lat="41.839805" lon="22.990055">
        <ele>1156.1</ele>
        <time>2026-05-06T07:59:48.000Z</time>
      </trkpt>
      <trkpt lat="41.839786" lon="22.990038">
        <ele>1156.1</ele>
        <time>2026-05-06T07:59:49.000Z</time>
      </trkpt>
      <trkpt lat="41.839766" lon="22.990022">
        <ele>1156.1</ele>
        <time>2026-05-06T07:59:50.000Z</time>
      </trkpt>
      <trkpt lat="41.839746" lon="22.990006">
        <ele>1156.1</ele>
        <time>2026-05-06T07:59:51.000Z</time>
      </trkpt>
      <trkpt lat="41.839725" lon="22.98999">
        <ele>1156.1</ele>
        <time>2026-05-06T07:59:52.000Z</time>
      </trkpt>
      <trkpt lat="41.839704" lon="22.989976">
        <ele>1156.1</ele>
        <time>2026-05-06T07:59:53.000Z</time>
      </trkpt>
      <trkpt lat="41.839681" lon="22.989963">
        <ele>1156.1</ele>
        <time>2026-05-06T07:59:54.000Z</time>
      </trkpt>
      <trkpt lat="41.839659" lon="22.98995">
        <ele>1156.1</ele>
        <time>2026-05-06T07:59:55.000Z</time>
      </trkpt>
      <trkpt lat="41.839635" lon="22.989937">
        <ele>1156.1</ele>
        <time>2026-05-06T07:59:56.000Z</time>
      </trkpt>
      <trkpt lat="41.839611" lon="22.989924">
        <ele>1156.1</ele>
        <time>2026-05-06T07:59:57.000Z</time>
      </trkpt>
      <trkpt lat="41.839586" lon="22.98991">
        <ele>1156.1</ele>
        <time>2026-05-06T07:59:58.000Z</time>
      </trkpt>
      <trkpt lat="41.83956" lon="22.989895">
        <ele>1156.1</ele>
        <time>2026-05-06T07:59:59.000Z</time>
      </trkpt>
      <trkpt lat="41.839533" lon="22.989881">
        <ele>1156.1</ele>
        <time>2026-05-06T08:00:00.000Z</time>
      </trkpt>
      <trkpt lat="41.839507" lon="22.989867">
        <ele>1156.1</ele>
        <time>2026-05-06T08:00:01.000Z</time>
      </trkpt>
      <trkpt lat="41.839481" lon="22.989852">
        <ele>1156.1</ele>
        <time>2026-05-06T08:00:02.000Z</time>
      </trkpt>
      <trkpt lat="41.839456" lon="22.989838">
        <ele>1156.1</ele>
        <time>2026-05-06T08:00:03.000Z</time>
      </trkpt>
      <trkpt lat="41.839431" lon="22.989825">
        <ele>1156.1</ele>
        <time>2026-05-06T08:00:04.000Z</time>
      </trkpt>
      <trkpt lat="41.839406" lon="22.989813">
        <ele>1156.1</ele>
        <time>2026-05-06T08:00:05.000Z</time>
      </trkpt>
      <trkpt lat="41.839381" lon="22.989801">
        <ele>1156.1</ele>
        <time>2026-05-06T08:00:06.000Z</time>
      </trkpt>
      <trkpt lat="41.839357" lon="22.989789">
        <ele>1156.1</ele>
        <time>2026-05-06T08:00:07.000Z</time>
      </trkpt>
      <trkpt lat="41.839333" lon="22.989778">
        <ele>1156.1</ele>
        <time>2026-05-06T08:00:08.000Z</time>
      </trkpt>
      <trkpt lat="41.83931" lon="22.989765">
        <ele>1156.1</ele>
        <time>2026-05-06T08:00:09.000Z</time>
      </trkpt>
      <trkpt lat="41.839288" lon="22.989751">
        <ele>1156.1</ele>
        <time>2026-05-06T08:00:10.000Z</time>
      </trkpt>
      <trkpt lat="41.839266" lon="22.989737">
        <ele>1156.1</ele>
        <time>2026-05-06T08:00:11.000Z</time>
      </trkpt>
      <trkpt lat="41.839244" lon="22.989723">
        <ele>1156.1</ele>
        <time>2026-05-06T08:00:12.000Z</time>
      </trkpt>
      <trkpt lat="41.839222" lon="22.989707">
        <ele>1156.1</ele>
        <time>2026-05-06T08:00:13.000Z</time>
      </trkpt>
      <trkpt lat="41.8392" lon="22.98969">
        <ele>1156.1</ele>
        <time>2026-05-06T08:00:14.000Z</time>
      </trkpt>
      <trkpt lat="41.839178" lon="22.989672">
        <ele>1156.1</ele>
        <time>2026-05-06T08:00:15.000Z</time>
      </trkpt>
      <trkpt lat="41.839155" lon="22.989654">
        <ele>1156.1</ele>
        <time>2026-05-06T08:00:16.000Z</time>
      </trkpt>
      <trkpt lat="41.839131" lon="22.989635">
        <ele>1156.1</ele>
        <time>2026-05-06T08:00:17.000Z</time>
      </trkpt>
      <trkpt lat="41.839107" lon="22.989615">
        <ele>1156.1</ele>
        <time>2026-05-06T08:00:18.000Z</time>
      </trkpt>
      <trkpt lat="41.839082" lon="22.989596">
        <ele>1156.1</ele>
        <time>2026-05-06T08:00:19.000Z</time>
      </trkpt>
      <trkpt lat="41.839057" lon="22.989577">
        <ele>1156.1</ele>
        <time>2026-05-06T08:00:20.000Z</time>
      </trkpt>
      <trkpt lat="41.839033" lon="22.989558">
        <ele>1156.1</ele>
        <time>2026-05-06T08:00:21.000Z</time>
      </trkpt>
      <trkpt lat="41.839009" lon="22.989539">
        <ele>1156.1</ele>
        <time>2026-05-06T08:00:22.000Z</time>
      </trkpt>
      <trkpt lat="41.838986" lon="22.989518">
        <ele>1156.1</ele>
        <time>2026-05-06T08:00:23.000Z</time>
      </trkpt>
      <trkpt lat="41.838965" lon="22.989495">
        <ele>1156.1</ele>
        <time>2026-05-06T08:00:24.000Z</time>
      </trkpt>
      <trkpt lat="41.838945" lon="22.989472">
        <ele>1156.1</ele>
        <time>2026-05-06T08:00:25.000Z</time>
      </trkpt>
      <trkpt lat="41.838926" lon="22.989447">
        <ele>1156.1</ele>
        <time>2026-05-06T08:00:26.000Z</time>
      </trkpt>
      <trkpt lat="41.838908" lon="22.989423">
        <ele>1156.1</ele>
        <time>2026-05-06T08:00:27.000Z</time>
      </trkpt>
      <trkpt lat="41.838889" lon="22.989401">
        <ele>1156.1</ele>
        <time>2026-05-06T08:00:28.000Z</time>
      </trkpt>
      <trkpt lat="41.83887" lon="22.989381">
        <ele>1156.1</ele>
        <time>2026-05-06T08:00:29.000Z</time>
      </trkpt>
      <trkpt lat="41.83885" lon="22.989365">
        <ele>1156.1</ele>
        <time>2026-05-06T08:00:30.000Z</time>
      </trkpt>
      <trkpt lat="41.838828" lon="22.989351">
        <ele>1156.1</ele>
        <time>2026-05-06T08:00:31.000Z</time>
      </trkpt>
      <trkpt lat="41.838806" lon="22.989339">
        <ele>1156.1</ele>
        <time>2026-05-06T08:00:32.000Z</time>
      </trkpt>
      <trkpt lat="41.838782" lon="22.989326">
        <ele>1156.1</ele>
        <time>2026-05-06T08:00:33.000Z</time>
      </trkpt>
      <trkpt lat="41.838757" lon="22.989312">
        <ele>1156.1</ele>
        <time>2026-05-06T08:00:34.000Z</time>
      </trkpt>
      <trkpt lat="41.838732" lon="22.989296">
        <ele>1156.1</ele>
        <time>2026-05-06T08:00:35.000Z</time>
      </trkpt>
      <trkpt lat="41.838707" lon="22.989282">
        <ele>1156.1</ele>
        <time>2026-05-06T08:00:36.000Z</time>
      </trkpt>
      <trkpt lat="41.838682" lon="22.989268">
        <ele>1156.1</ele>
        <time>2026-05-06T08:00:37.000Z</time>
      </trkpt>
      <trkpt lat="41.838656" lon="22.989258">
        <ele>1156.1</ele>
        <time>2026-05-06T08:00:38.000Z</time>
      </trkpt>
      <trkpt lat="41.83863" lon="22.989251">
        <ele>1156.1</ele>
        <time>2026-05-06T08:00:39.000Z</time>
      </trkpt>
      <trkpt lat="41.838603" lon="22.989245">
        <ele>1156.1</ele>
        <time>2026-05-06T08:00:40.000Z</time>
      </trkpt>
      <trkpt lat="41.838574" lon="22.989241">
        <ele>1156.1</ele>
        <time>2026-05-06T08:00:41.000Z</time>
      </trkpt>
      <trkpt lat="41.838546" lon="22.989237">
        <ele>1156.1</ele>
        <time>2026-05-06T08:00:42.000Z</time>
      </trkpt>
      <trkpt lat="41.838517" lon="22.989235">
        <ele>1156.1</ele>
        <time>2026-05-06T08:00:43.000Z</time>
      </trkpt>
      <trkpt lat="41.838487" lon="22.989233">
        <ele>1156.1</ele>
        <time>2026-05-06T08:00:44.000Z</time>
      </trkpt>
      <trkpt lat="41.838459" lon="22.989231">
        <ele>1156.1</ele>
        <time>2026-05-06T08:00:45.000Z</time>
      </trkpt>
      <trkpt lat="41.83843" lon="22.98923">
        <ele>1156.1</ele>
        <time>2026-05-06T08:00:46.000Z</time>
      </trkpt>
      <trkpt lat="41.838403" lon="22.989227">
        <ele>1156.1</ele>
        <time>2026-05-06T08:00:47.000Z</time>
      </trkpt>
      <trkpt lat="41.838375" lon="22.989224">
        <ele>1156.1</ele>
        <time>2026-05-06T08:00:48.000Z</time>
      </trkpt>
      <trkpt lat="41.838348" lon="22.98922">
        <ele>1156.1</ele>
        <time>2026-05-06T08:00:49.000Z</time>
      </trkpt>
      <trkpt lat="41.83832" lon="22.989217">
        <ele>1156.1</ele>
        <time>2026-05-06T08:00:50.000Z</time>
      </trkpt>
      <trkpt lat="41.838291" lon="22.989214">
        <ele>1156.1</ele>
        <time>2026-05-06T08:00:51.000Z</time>
      </trkpt>
      <trkpt lat="41.838263" lon="22.98921">
        <ele>1156.1</ele>
        <time>2026-05-06T08:00:52.000Z</time>
      </trkpt>
      <trkpt lat="41.838235" lon="22.989207">
        <ele>1156.1</ele>
        <time>2026-05-06T08:00:53.000Z</time>
      </trkpt>
      <trkpt lat="41.838206" lon="22.989204">
        <ele>1156.1</ele>
        <time>2026-05-06T08:00:54.000Z</time>
      </trkpt>
      <trkpt lat="41.838177" lon="22.989198">
        <ele>1156.1</ele>
        <time>2026-05-06T08:00:55.000Z</time>
      </trkpt>
      <trkpt lat="41.838149" lon="22.989193">
        <ele>1156.1</ele>
        <time>2026-05-06T08:00:56.000Z</time>
      </trkpt>
      <trkpt lat="41.838119" lon="22.989186">
        <ele>1156.1</ele>
        <time>2026-05-06T08:00:57.000Z</time>
      </trkpt>
      <trkpt lat="41.83809" lon="22.98918">
        <ele>1156.1</ele>
        <time>2026-05-06T08:00:58.000Z</time>
      </trkpt>
      <trkpt lat="41.838062" lon="22.989175">
        <ele>1156.1</ele>
        <time>2026-05-06T08:00:59.000Z</time>
      </trkpt>
      <trkpt lat="41.838033" lon="22.989171">
        <ele>1156.1</ele>
        <time>2026-05-06T08:01:00.000Z</time>
      </trkpt>
      <trkpt lat="41.838005" lon="22.989168">
        <ele>1156.1</ele>
        <time>2026-05-06T08:01:01.000Z</time>
      </trkpt>
      <trkpt lat="41.837976" lon="22.989166">
        <ele>1156.1</ele>
        <time>2026-05-06T08:01:02.000Z</time>
      </trkpt>
      <trkpt lat="41.837947" lon="22.989165">
        <ele>1156.1</ele>
        <time>2026-05-06T08:01:03.000Z</time>
      </trkpt>
      <trkpt lat="41.837917" lon="22.989165">
        <ele>1156.1</ele>
        <time>2026-05-06T08:01:04.000Z</time>
      </trkpt>
      <trkpt lat="41.837887" lon="22.989163">
        <ele>1156.1</ele>
        <time>2026-05-06T08:01:05.000Z</time>
      </trkpt>
      <trkpt lat="41.837857" lon="22.989161">
        <ele>1156.1</ele>
        <time>2026-05-06T08:01:06.000Z</time>
      </trkpt>
      <trkpt lat="41.837827" lon="22.989158">
        <ele>1156.1</ele>
        <time>2026-05-06T08:01:07.000Z</time>
      </trkpt>
      <trkpt lat="41.837797" lon="22.989154">
        <ele>1156.1</ele>
        <time>2026-05-06T08:01:08.000Z</time>
      </trkpt>
      <trkpt lat="41.837768" lon="22.989148">
        <ele>1156.1</ele>
        <time>2026-05-06T08:01:09.000Z</time>
      </trkpt>
      <trkpt lat="41.837738" lon="22.989144">
        <ele>1156.1</ele>
        <time>2026-05-06T08:01:10.000Z</time>
      </trkpt>
      <trkpt lat="41.837708" lon="22.989138">
        <ele>1156.1</ele>
        <time>2026-05-06T08:01:11.000Z</time>
      </trkpt>
      <trkpt lat="41.837679" lon="22.989132">
        <ele>1156.1</ele>
        <time>2026-05-06T08:01:12.000Z</time>
      </trkpt>
      <trkpt lat="41.837649" lon="22.989126">
        <ele>1156.1</ele>
        <time>2026-05-06T08:01:13.000Z</time>
      </trkpt>
      <trkpt lat="41.83762" lon="22.989121">
        <ele>1156.1</ele>
        <time>2026-05-06T08:01:14.000Z</time>
      </trkpt>
      <trkpt lat="41.837591" lon="22.989115">
        <ele>1156.1</ele>
        <time>2026-05-06T08:01:15.000Z</time>
      </trkpt>
      <trkpt lat="41.837561" lon="22.989109">
        <ele>1156.1</ele>
        <time>2026-05-06T08:01:16.000Z</time>
      </trkpt>
      <trkpt lat="41.837532" lon="22.989106">
        <ele>1156.1</ele>
        <time>2026-05-06T08:01:17.000Z</time>
      </trkpt>
      <trkpt lat="41.837503" lon="22.989101">
        <ele>1156.1</ele>
        <time>2026-05-06T08:01:18.000Z</time>
      </trkpt>
      <trkpt lat="41.837474" lon="22.989097">
        <ele>1156.1</ele>
        <time>2026-05-06T08:01:19.000Z</time>
      </trkpt>
      <trkpt lat="41.837448" lon="22.989094">
        <ele>1156.1</ele>
        <time>2026-05-06T08:01:20.000Z</time>
      </trkpt>
      <trkpt lat="41.837425" lon="22.989092">
        <ele>1156.1</ele>
        <time>2026-05-06T08:01:21.000Z</time>
      </trkpt>
      <trkpt lat="41.837406" lon="22.989089">
        <ele>1156.1</ele>
        <time>2026-05-06T08:01:22.000Z</time>
      </trkpt>
      <trkpt lat="41.837389" lon="22.989086">
        <ele>1156.1</ele>
        <time>2026-05-06T08:01:23.000Z</time>
      </trkpt>
      <trkpt lat="41.837374" lon="22.989086">
        <ele>1156.1</ele>
        <time>2026-05-06T08:01:24.000Z</time>
      </trkpt>
      <trkpt lat="41.83736" lon="22.989085">
        <ele>1156.1</ele>
        <time>2026-05-06T08:01:25.000Z</time>
      </trkpt>
      <trkpt lat="41.837345" lon="22.989085">
        <ele>1156.1</ele>
        <time>2026-05-06T08:01:26.000Z</time>
      </trkpt>
      <trkpt lat="41.837331" lon="22.989086">
        <ele>1156.1</ele>
        <time>2026-05-06T08:01:27.000Z</time>
      </trkpt>
      <trkpt lat="41.837316" lon="22.989087">
        <ele>1156.1</ele>
        <time>2026-05-06T08:01:28.000Z</time>
      </trkpt>
      <trkpt lat="41.837301" lon="22.989089">
        <ele>1156.1</ele>
        <time>2026-05-06T08:01:29.000Z</time>
      </trkpt>
      <trkpt lat="41.837286" lon="22.989092">
        <ele>1156.1</ele>
        <time>2026-05-06T08:01:30.000Z</time>
      </trkpt>
      <trkpt lat="41.837271" lon="22.989096">
        <ele>1156.1</ele>
        <time>2026-05-06T08:01:31.000Z</time>
      </trkpt>
      <trkpt lat="41.837255" lon="22.989101">
        <ele>1156.1</ele>
        <time>2026-05-06T08:01:32.000Z</time>
      </trkpt>
      <trkpt lat="41.83724" lon="22.989106">
        <ele>1156.1</ele>
        <time>2026-05-06T08:01:33.000Z</time>
      </trkpt>
      <trkpt lat="41.837224" lon="22.989113">
        <ele>1156.1</ele>
        <time>2026-05-06T08:01:34.000Z</time>
      </trkpt>
      <trkpt lat="41.837209" lon="22.98912">
        <ele>1156.1</ele>
        <time>2026-05-06T08:01:35.000Z</time>
      </trkpt>
      <trkpt lat="41.837193" lon="22.989126">
        <ele>1156.1</ele>
        <time>2026-05-06T08:01:36.000Z</time>
      </trkpt>
      <trkpt lat="41.837178" lon="22.989131">
        <ele>1156.1</ele>
        <time>2026-05-06T08:01:37.000Z</time>
      </trkpt>
      <trkpt lat="41.837162" lon="22.989136">
        <ele>1156.1</ele>
        <time>2026-05-06T08:01:38.000Z</time>
      </trkpt>
      <trkpt lat="41.837145" lon="22.989139">
        <ele>1156.1</ele>
        <time>2026-05-06T08:01:39.000Z</time>
      </trkpt>
      <trkpt lat="41.837128" lon="22.98914">
        <ele>1156.1</ele>
        <time>2026-05-06T08:01:40.000Z</time>
      </trkpt>
      <trkpt lat="41.837112" lon="22.989141">
        <ele>1156.1</ele>
        <time>2026-05-06T08:01:41.000Z</time>
      </trkpt>
      <trkpt lat="41.837095" lon="22.98914">
        <ele>1156.1</ele>
        <time>2026-05-06T08:01:42.000Z</time>
      </trkpt>
      <trkpt lat="41.83708" lon="22.98914">
        <ele>1156.1</ele>
        <time>2026-05-06T08:01:43.000Z</time>
      </trkpt>
      <trkpt lat="41.837064" lon="22.989141">
        <ele>1156.1</ele>
        <time>2026-05-06T08:01:44.000Z</time>
      </trkpt>
      <trkpt lat="41.837048" lon="22.989142">
        <ele>1156.1</ele>
        <time>2026-05-06T08:01:45.000Z</time>
      </trkpt>
      <trkpt lat="41.837033" lon="22.989143">
        <ele>1156.1</ele>
        <time>2026-05-06T08:01:46.000Z</time>
      </trkpt>
      <trkpt lat="41.837017" lon="22.989143">
        <ele>1156.1</ele>
        <time>2026-05-06T08:01:47.000Z</time>
      </trkpt>
      <trkpt lat="41.837001" lon="22.989144">
        <ele>1156.1</ele>
        <time>2026-05-06T08:01:48.000Z</time>
      </trkpt>
      <trkpt lat="41.836986" lon="22.989143">
        <ele>1156.1</ele>
        <time>2026-05-06T08:01:49.000Z</time>
      </trkpt>
      <trkpt lat="41.83697" lon="22.989142">
        <ele>1156.1</ele>
        <time>2026-05-06T08:01:50.000Z</time>
      </trkpt>
      <trkpt lat="41.836955" lon="22.989141">
        <ele>1156.1</ele>
        <time>2026-05-06T08:01:51.000Z</time>
      </trkpt>
      <trkpt lat="41.836939" lon="22.989141">
        <ele>1156.1</ele>
        <time>2026-05-06T08:01:52.000Z</time>
      </trkpt>
      <trkpt lat="41.836922" lon="22.989141">
        <ele>1156.1</ele>
        <time>2026-05-06T08:01:53.000Z</time>
      </trkpt>
      <trkpt lat="41.836905" lon="22.989141">
        <ele>1156.1</ele>
        <time>2026-05-06T08:01:54.000Z</time>
      </trkpt>
      <trkpt lat="41.836888" lon="22.989141">
        <ele>1156.1</ele>
        <time>2026-05-06T08:01:55.000Z</time>
      </trkpt>
      <trkpt lat="41.836871" lon="22.989142">
        <ele>1156.1</ele>
        <time>2026-05-06T08:01:56.000Z</time>
      </trkpt>
      <trkpt lat="41.836854" lon="22.989144">
        <ele>1156.1</ele>
        <time>2026-05-06T08:01:57.000Z</time>
      </trkpt>
      <trkpt lat="41.836837" lon="22.989145">
        <ele>1156.1</ele>
        <time>2026-05-06T08:01:58.000Z</time>
      </trkpt>
      <trkpt lat="41.83682" lon="22.989146">
        <ele>1156.1</ele>
        <time>2026-05-06T08:01:59.000Z</time>
      </trkpt>
      <trkpt lat="41.836803" lon="22.989148">
        <ele>1156.1</ele>
        <time>2026-05-06T08:02:00.000Z</time>
      </trkpt>
      <trkpt lat="41.836787" lon="22.989149">
        <ele>1156.1</ele>
        <time>2026-05-06T08:02:01.000Z</time>
      </trkpt>
      <trkpt lat="41.836771" lon="22.989151">
        <ele>1156.1</ele>
        <time>2026-05-06T08:02:02.000Z</time>
      </trkpt>
      <trkpt lat="41.836755" lon="22.989154">
        <ele>1156.1</ele>
        <time>2026-05-06T08:02:03.000Z</time>
      </trkpt>
      <trkpt lat="41.836738" lon="22.989158">
        <ele>1156.1</ele>
        <time>2026-05-06T08:02:04.000Z</time>
      </trkpt>
      <trkpt lat="41.836722" lon="22.989162">
        <ele>1156.1</ele>
        <time>2026-05-06T08:02:05.000Z</time>
      </trkpt>
      <trkpt lat="41.836706" lon="22.989167">
        <ele>1156.1</ele>
        <time>2026-05-06T08:02:06.000Z</time>
      </trkpt>
      <trkpt lat="41.836689" lon="22.989171">
        <ele>1156.1</ele>
        <time>2026-05-06T08:02:07.000Z</time>
      </trkpt>
      <trkpt lat="41.836674" lon="22.989175">
        <ele>1156.1</ele>
        <time>2026-05-06T08:02:08.000Z</time>
      </trkpt>
      <trkpt lat="41.836658" lon="22.98918">
        <ele>1156.1</ele>
        <time>2026-05-06T08:02:09.000Z</time>
      </trkpt>
      <trkpt lat="41.836643" lon="22.989183">
        <ele>1156.1</ele>
        <time>2026-05-06T08:02:10.000Z</time>
      </trkpt>
      <trkpt lat="41.836629" lon="22.989187">
        <ele>1156.1</ele>
        <time>2026-05-06T08:02:11.000Z</time>
      </trkpt>
      <trkpt lat="41.836614" lon="22.98919">
        <ele>1156.1</ele>
        <time>2026-05-06T08:02:12.000Z</time>
      </trkpt>
      <trkpt lat="41.836599" lon="22.989194">
        <ele>1156.1</ele>
        <time>2026-05-06T08:02:13.000Z</time>
      </trkpt>
      <trkpt lat="41.836584" lon="22.989198">
        <ele>1156.1</ele>
        <time>2026-05-06T08:02:14.000Z</time>
      </trkpt>
      <trkpt lat="41.836568" lon="22.989203">
        <ele>1156.1</ele>
        <time>2026-05-06T08:02:15.000Z</time>
      </trkpt>
      <trkpt lat="41.836553" lon="22.989209">
        <ele>1156.1</ele>
        <time>2026-05-06T08:02:16.000Z</time>
      </trkpt>
      <trkpt lat="41.836538" lon="22.989216">
        <ele>1156.1</ele>
        <time>2026-05-06T08:02:17.000Z</time>
      </trkpt>
      <trkpt lat="41.836523" lon="22.989224">
        <ele>1156.1</ele>
        <time>2026-05-06T08:02:18.000Z</time>
      </trkpt>
      <trkpt lat="41.836508" lon="22.989232">
        <ele>1156.1</ele>
        <time>2026-05-06T08:02:19.000Z</time>
      </trkpt>
      <trkpt lat="41.836494" lon="22.989239">
        <ele>1156.1</ele>
        <time>2026-05-06T08:02:20.000Z</time>
      </trkpt>
      <trkpt lat="41.836479" lon="22.989247">
        <ele>1156.1</ele>
        <time>2026-05-06T08:02:21.000Z</time>
      </trkpt>
      <trkpt lat="41.836464" lon="22.989254">
        <ele>1156.9</ele>
        <time>2026-05-06T08:02:22.000Z</time>
      </trkpt>
      <trkpt lat="41.836448" lon="22.989262">
        <ele>1156.9</ele>
        <time>2026-05-06T08:02:23.000Z</time>
      </trkpt>
      <trkpt lat="41.836433" lon="22.989271">
        <ele>1156.9</ele>
        <time>2026-05-06T08:02:24.000Z</time>
      </trkpt>
      <trkpt lat="41.836418" lon="22.989279">
        <ele>1156.9</ele>
        <time>2026-05-06T08:02:25.000Z</time>
      </trkpt>
      <trkpt lat="41.836402" lon="22.989287">
        <ele>1156.9</ele>
        <time>2026-05-06T08:02:26.000Z</time>
      </trkpt>
      <trkpt lat="41.836387" lon="22.989293">
        <ele>1157.2</ele>
        <time>2026-05-06T08:02:27.000Z</time>
      </trkpt>
      <trkpt lat="41.836372" lon="22.9893">
        <ele>1157.2</ele>
        <time>2026-05-06T08:02:28.000Z</time>
      </trkpt>
      <trkpt lat="41.836358" lon="22.989307">
        <ele>1157.2</ele>
        <time>2026-05-06T08:02:29.000Z</time>
      </trkpt>
      <trkpt lat="41.836343" lon="22.989314">
        <ele>1157.2</ele>
        <time>2026-05-06T08:02:30.000Z</time>
      </trkpt>
      <trkpt lat="41.836329" lon="22.989321">
        <ele>1157.2</ele>
        <time>2026-05-06T08:02:31.000Z</time>
      </trkpt>
      <trkpt lat="41.836314" lon="22.989329">
        <ele>1157.5</ele>
        <time>2026-05-06T08:02:32.000Z</time>
      </trkpt>
      <trkpt lat="41.836299" lon="22.989336">
        <ele>1157.5</ele>
        <time>2026-05-06T08:02:33.000Z</time>
      </trkpt>
      <trkpt lat="41.836284" lon="22.989341">
        <ele>1157.5</ele>
        <time>2026-05-06T08:02:34.000Z</time>
      </trkpt>
      <trkpt lat="41.836268" lon="22.989347">
        <ele>1157.5</ele>
        <time>2026-05-06T08:02:35.000Z</time>
      </trkpt>
      <trkpt lat="41.836253" lon="22.989353">
        <ele>1157.5</ele>
        <time>2026-05-06T08:02:36.000Z</time>
      </trkpt>
      <trkpt lat="41.836237" lon="22.989357">
        <ele>1157.6</ele>
        <time>2026-05-06T08:02:37.000Z</time>
      </trkpt>
      <trkpt lat="41.836223" lon="22.989361">
        <ele>1157.6</ele>
        <time>2026-05-06T08:02:38.000Z</time>
      </trkpt>
      <trkpt lat="41.836208" lon="22.989366">
        <ele>1157.6</ele>
        <time>2026-05-06T08:02:39.000Z</time>
      </trkpt>
      <trkpt lat="41.836195" lon="22.989371">
        <ele>1157.6</ele>
        <time>2026-05-06T08:02:40.000Z</time>
      </trkpt>
      <trkpt lat="41.836181" lon="22.989376">
        <ele>1157.6</ele>
        <time>2026-05-06T08:02:41.000Z</time>
      </trkpt>
      <trkpt lat="41.836167" lon="22.98938">
        <ele>1157.5</ele>
        <time>2026-05-06T08:02:42.000Z</time>
      </trkpt>
      <trkpt lat="41.836152" lon="22.989383">
        <ele>1157.5</ele>
        <time>2026-05-06T08:02:43.000Z</time>
      </trkpt>
      <trkpt lat="41.836137" lon="22.989386">
        <ele>1157.5</ele>
        <time>2026-05-06T08:02:44.000Z</time>
      </trkpt>
      <trkpt lat="41.836123" lon="22.989389">
        <ele>1157.5</ele>
        <time>2026-05-06T08:02:45.000Z</time>
      </trkpt>
      <trkpt lat="41.836108" lon="22.989392">
        <ele>1157.5</ele>
        <time>2026-05-06T08:02:46.000Z</time>
      </trkpt>
      <trkpt lat="41.836093" lon="22.989397">
        <ele>1157.2</ele>
        <time>2026-05-06T08:02:47.000Z</time>
      </trkpt>
      <trkpt lat="41.836079" lon="22.989402">
        <ele>1157.2</ele>
        <time>2026-05-06T08:02:48.000Z</time>
      </trkpt>
      <trkpt lat="41.836065" lon="22.989407">
        <ele>1157.2</ele>
        <time>2026-05-06T08:02:49.000Z</time>
      </trkpt>
      <trkpt lat="41.836051" lon="22.989412">
        <ele>1157.2</ele>
        <time>2026-05-06T08:02:50.000Z</time>
      </trkpt>
      <trkpt lat="41.836036" lon="22.989416">
        <ele>1157.2</ele>
        <time>2026-05-06T08:02:51.000Z</time>
      </trkpt>
      <trkpt lat="41.836022" lon="22.989421">
        <ele>1156.9</ele>
        <time>2026-05-06T08:02:52.000Z</time>
      </trkpt>
      <trkpt lat="41.836008" lon="22.989426">
        <ele>1156.9</ele>
        <time>2026-05-06T08:02:53.000Z</time>
      </trkpt>
      <trkpt lat="41.835994" lon="22.989432">
        <ele>1156.9</ele>
        <time>2026-05-06T08:02:54.000Z</time>
      </trkpt>
      <trkpt lat="41.83598" lon="22.989439">
        <ele>1156.9</ele>
        <time>2026-05-06T08:02:55.000Z</time>
      </trkpt>
      <trkpt lat="41.835966" lon="22.989444">
        <ele>1156.9</ele>
        <time>2026-05-06T08:02:56.000Z</time>
      </trkpt>
      <trkpt lat="41.835951" lon="22.989449">
        <ele>1156.7</ele>
        <time>2026-05-06T08:02:57.000Z</time>
      </trkpt>
      <trkpt lat="41.835936" lon="22.989453">
        <ele>1156.7</ele>
        <time>2026-05-06T08:02:58.000Z</time>
      </trkpt>
      <trkpt lat="41.835921" lon="22.989456">
        <ele>1156.7</ele>
        <time>2026-05-06T08:02:59.000Z</time>
      </trkpt>
      <trkpt lat="41.835907" lon="22.989458">
        <ele>1156.7</ele>
        <time>2026-05-06T08:03:00.000Z</time>
      </trkpt>
      <trkpt lat="41.835894" lon="22.98946">
        <ele>1156.7</ele>
        <time>2026-05-06T08:03:01.000Z</time>
      </trkpt>
      <trkpt lat="41.83588" lon="22.989462">
        <ele>1156.7</ele>
        <time>2026-05-06T08:03:02.000Z</time>
      </trkpt>
      <trkpt lat="41.835868" lon="22.989464">
        <ele>1156.7</ele>
        <time>2026-05-06T08:03:03.000Z</time>
      </trkpt>
      <trkpt lat="41.835855" lon="22.989465">
        <ele>1156.7</ele>
        <time>2026-05-06T08:03:04.000Z</time>
      </trkpt>
      <trkpt lat="41.835841" lon="22.989466">
        <ele>1156.7</ele>
        <time>2026-05-06T08:03:05.000Z</time>
      </trkpt>
      <trkpt lat="41.835828" lon="22.989465">
        <ele>1156.7</ele>
        <time>2026-05-06T08:03:06.000Z</time>
      </trkpt>
      <trkpt lat="41.835814" lon="22.989465">
        <ele>1157.3</ele>
        <time>2026-05-06T08:03:07.000Z</time>
      </trkpt>
      <trkpt lat="41.835799" lon="22.989466">
        <ele>1157.3</ele>
        <time>2026-05-06T08:03:08.000Z</time>
      </trkpt>
      <trkpt lat="41.835782" lon="22.989468">
        <ele>1157.3</ele>
        <time>2026-05-06T08:03:09.000Z</time>
      </trkpt>
      <trkpt lat="41.835762" lon="22.989473">
        <ele>1157.3</ele>
        <time>2026-05-06T08:03:10.000Z</time>
      </trkpt>
      <trkpt lat="41.83574" lon="22.989478">
        <ele>1157.3</ele>
        <time>2026-05-06T08:03:11.000Z</time>
      </trkpt>
      <trkpt lat="41.835714" lon="22.989482">
        <ele>1157.7</ele>
        <time>2026-05-06T08:03:12.000Z</time>
      </trkpt>
      <trkpt lat="41.835686" lon="22.989486">
        <ele>1157.7</ele>
        <time>2026-05-06T08:03:13.000Z</time>
      </trkpt>
      <trkpt lat="41.835659" lon="22.98949">
        <ele>1157.7</ele>
        <time>2026-05-06T08:03:14.000Z</time>
      </trkpt>
      <trkpt lat="41.835632" lon="22.989492">
        <ele>1157.7</ele>
        <time>2026-05-06T08:03:15.000Z</time>
      </trkpt>
      <trkpt lat="41.835606" lon="22.989493">
        <ele>1157.7</ele>
        <time>2026-05-06T08:03:16.000Z</time>
      </trkpt>
      <trkpt lat="41.835579" lon="22.989495">
        <ele>1158.6</ele>
        <time>2026-05-06T08:03:17.000Z</time>
      </trkpt>
      <trkpt lat="41.835552" lon="22.989495">
        <ele>1158.6</ele>
        <time>2026-05-06T08:03:18.000Z</time>
      </trkpt>
      <trkpt lat="41.835524" lon="22.989494">
        <ele>1158.6</ele>
        <time>2026-05-06T08:03:19.000Z</time>
      </trkpt>
      <trkpt lat="41.835497" lon="22.989491">
        <ele>1158.6</ele>
        <time>2026-05-06T08:03:20.000Z</time>
      </trkpt>
      <trkpt lat="41.83547" lon="22.989486">
        <ele>1158.6</ele>
        <time>2026-05-06T08:03:21.000Z</time>
      </trkpt>
      <trkpt lat="41.835444" lon="22.989479">
        <ele>1159.2</ele>
        <time>2026-05-06T08:03:22.000Z</time>
      </trkpt>
      <trkpt lat="41.83542" lon="22.989472">
        <ele>1159.2</ele>
        <time>2026-05-06T08:03:23.000Z</time>
      </trkpt>
      <trkpt lat="41.835396" lon="22.989464">
        <ele>1159.2</ele>
        <time>2026-05-06T08:03:24.000Z</time>
      </trkpt>
      <trkpt lat="41.835374" lon="22.989454">
        <ele>1159.2</ele>
        <time>2026-05-06T08:03:25.000Z</time>
      </trkpt>
      <trkpt lat="41.835353" lon="22.989446">
        <ele>1159.2</ele>
        <time>2026-05-06T08:03:26.000Z</time>
      </trkpt>
      <trkpt lat="41.835332" lon="22.989439">
        <ele>1159.5</ele>
        <time>2026-05-06T08:03:27.000Z</time>
      </trkpt>
      <trkpt lat="41.835312" lon="22.989434">
        <ele>1159.5</ele>
        <time>2026-05-06T08:03:28.000Z</time>
      </trkpt>
      <trkpt lat="41.835292" lon="22.98943">
        <ele>1159.5</ele>
        <time>2026-05-06T08:03:29.000Z</time>
      </trkpt>
      <trkpt lat="41.835273" lon="22.989428">
        <ele>1159.5</ele>
        <time>2026-05-06T08:03:30.000Z</time>
      </trkpt>
      <trkpt lat="41.835257" lon="22.989426">
        <ele>1159.5</ele>
        <time>2026-05-06T08:03:31.000Z</time>
      </trkpt>
      <trkpt lat="41.835244" lon="22.989425">
        <ele>1160.4</ele>
        <time>2026-05-06T08:03:32.000Z</time>
      </trkpt>
      <trkpt lat="41.835233" lon="22.989425">
        <ele>1160.4</ele>
        <time>2026-05-06T08:03:33.000Z</time>
      </trkpt>
      <trkpt lat="41.835224" lon="22.989426">
        <ele>1160.4</ele>
        <time>2026-05-06T08:03:34.000Z</time>
      </trkpt>
      <trkpt lat="41.835214" lon="22.989426">
        <ele>1160.4</ele>
        <time>2026-05-06T08:03:35.000Z</time>
      </trkpt>
      <trkpt lat="41.835203" lon="22.989426">
        <ele>1160.4</ele>
        <time>2026-05-06T08:03:36.000Z</time>
      </trkpt>
      <trkpt lat="41.835189" lon="22.989426">
        <ele>1162</ele>
        <time>2026-05-06T08:03:37.000Z</time>
      </trkpt>
      <trkpt lat="41.835175" lon="22.989423">
        <ele>1162</ele>
        <time>2026-05-06T08:03:38.000Z</time>
      </trkpt>
      <trkpt lat="41.835162" lon="22.989419">
        <ele>1162</ele>
        <time>2026-05-06T08:03:39.000Z</time>
      </trkpt>
      <trkpt lat="41.835148" lon="22.989416">
        <ele>1162</ele>
        <time>2026-05-06T08:03:40.000Z</time>
      </trkpt>
      <trkpt lat="41.835132" lon="22.989411">
        <ele>1162</ele>
        <time>2026-05-06T08:03:41.000Z</time>
      </trkpt>
      <trkpt lat="41.835118" lon="22.989407">
        <ele>1162.8</ele>
        <time>2026-05-06T08:03:42.000Z</time>
      </trkpt>
      <trkpt lat="41.835104" lon="22.989402">
        <ele>1162.8</ele>
        <time>2026-05-06T08:03:43.000Z</time>
      </trkpt>
      <trkpt lat="41.83509" lon="22.989397">
        <ele>1162.8</ele>
        <time>2026-05-06T08:03:44.000Z</time>
      </trkpt>
      <trkpt lat="41.835078" lon="22.989392">
        <ele>1162.8</ele>
        <time>2026-05-06T08:03:45.000Z</time>
      </trkpt>
      <trkpt lat="41.835067" lon="22.989388">
        <ele>1162.8</ele>
        <time>2026-05-06T08:03:46.000Z</time>
      </trkpt>
      <trkpt lat="41.835056" lon="22.989384">
        <ele>1164.4</ele>
        <time>2026-05-06T08:03:47.000Z</time>
      </trkpt>
      <trkpt lat="41.835045" lon="22.989381">
        <ele>1164.4</ele>
        <time>2026-05-06T08:03:48.000Z</time>
      </trkpt>
      <trkpt lat="41.835034" lon="22.989379">
        <ele>1164.4</ele>
        <time>2026-05-06T08:03:49.000Z</time>
      </trkpt>
      <trkpt lat="41.835022" lon="22.989378">
        <ele>1164.4</ele>
        <time>2026-05-06T08:03:50.000Z</time>
      </trkpt>
      <trkpt lat="41.835009" lon="22.989376">
        <ele>1164.4</ele>
        <time>2026-05-06T08:03:51.000Z</time>
      </trkpt>
      <trkpt lat="41.834995" lon="22.989375">
        <ele>1165.8</ele>
        <time>2026-05-06T08:03:52.000Z</time>
      </trkpt>
      <trkpt lat="41.834982" lon="22.989375">
        <ele>1165.8</ele>
        <time>2026-05-06T08:03:53.000Z</time>
      </trkpt>
      <trkpt lat="41.834969" lon="22.989376">
        <ele>1165.8</ele>
        <time>2026-05-06T08:03:54.000Z</time>
      </trkpt>
      <trkpt lat="41.834956" lon="22.989374">
        <ele>1165.8</ele>
        <time>2026-05-06T08:03:55.000Z</time>
      </trkpt>
      <trkpt lat="41.834944" lon="22.989373">
        <ele>1165.8</ele>
        <time>2026-05-06T08:03:56.000Z</time>
      </trkpt>
      <trkpt lat="41.834933" lon="22.989371">
        <ele>1166.5</ele>
        <time>2026-05-06T08:03:57.000Z</time>
      </trkpt>
      <trkpt lat="41.834921" lon="22.989367">
        <ele>1166.5</ele>
        <time>2026-05-06T08:03:58.000Z</time>
      </trkpt>
      <trkpt lat="41.83491" lon="22.989364">
        <ele>1166.5</ele>
        <time>2026-05-06T08:03:59.000Z</time>
      </trkpt>
      <trkpt lat="41.834898" lon="22.989362">
        <ele>1166.5</ele>
        <time>2026-05-06T08:04:00.000Z</time>
      </trkpt>
      <trkpt lat="41.834886" lon="22.989362">
        <ele>1166.5</ele>
        <time>2026-05-06T08:04:01.000Z</time>
      </trkpt>
      <trkpt lat="41.834874" lon="22.989362">
        <ele>1168</ele>
        <time>2026-05-06T08:04:02.000Z</time>
      </trkpt>
      <trkpt lat="41.834861" lon="22.989362">
        <ele>1168</ele>
        <time>2026-05-06T08:04:03.000Z</time>
      </trkpt>
      <trkpt lat="41.834847" lon="22.989363">
        <ele>1168</ele>
        <time>2026-05-06T08:04:04.000Z</time>
      </trkpt>
      <trkpt lat="41.834832" lon="22.989363">
        <ele>1168</ele>
        <time>2026-05-06T08:04:05.000Z</time>
      </trkpt>
      <trkpt lat="41.834818" lon="22.989363">
        <ele>1168</ele>
        <time>2026-05-06T08:04:06.000Z</time>
      </trkpt>
      <trkpt lat="41.834804" lon="22.989361">
        <ele>1169.1</ele>
        <time>2026-05-06T08:04:07.000Z</time>
      </trkpt>
      <trkpt lat="41.83479" lon="22.989359">
        <ele>1169.1</ele>
        <time>2026-05-06T08:04:08.000Z</time>
      </trkpt>
      <trkpt lat="41.834776" lon="22.989357">
        <ele>1169.1</ele>
        <time>2026-05-06T08:04:09.000Z</time>
      </trkpt>
      <trkpt lat="41.834764" lon="22.989356">
        <ele>1169.1</ele>
        <time>2026-05-06T08:04:10.000Z</time>
      </trkpt>
      <trkpt lat="41.834752" lon="22.989355">
        <ele>1169.1</ele>
        <time>2026-05-06T08:04:11.000Z</time>
      </trkpt>
      <trkpt lat="41.834739" lon="22.989355">
        <ele>1169.5</ele>
        <time>2026-05-06T08:04:12.000Z</time>
      </trkpt>
      <trkpt lat="41.834726" lon="22.989355">
        <ele>1169.5</ele>
        <time>2026-05-06T08:04:13.000Z</time>
      </trkpt>
      <trkpt lat="41.834713" lon="22.989355">
        <ele>1169.5</ele>
        <time>2026-05-06T08:04:14.000Z</time>
      </trkpt>
      <trkpt lat="41.834699" lon="22.989354">
        <ele>1169.5</ele>
        <time>2026-05-06T08:04:15.000Z</time>
      </trkpt>
      <trkpt lat="41.834685" lon="22.989353">
        <ele>1169.5</ele>
        <time>2026-05-06T08:04:16.000Z</time>
      </trkpt>
      <trkpt lat="41.834671" lon="22.989353">
        <ele>1170.4</ele>
        <time>2026-05-06T08:04:17.000Z</time>
      </trkpt>
      <trkpt lat="41.834657" lon="22.989353">
        <ele>1170.4</ele>
        <time>2026-05-06T08:04:18.000Z</time>
      </trkpt>
      <trkpt lat="41.834641" lon="22.989353">
        <ele>1170.4</ele>
        <time>2026-05-06T08:04:19.000Z</time>
      </trkpt>
      <trkpt lat="41.834625" lon="22.989353">
        <ele>1170.4</ele>
        <time>2026-05-06T08:04:20.000Z</time>
      </trkpt>
      <trkpt lat="41.834609" lon="22.989352">
        <ele>1170.4</ele>
        <time>2026-05-06T08:04:21.000Z</time>
      </trkpt>
      <trkpt lat="41.834592" lon="22.989352">
        <ele>1171.4</ele>
        <time>2026-05-06T08:04:22.000Z</time>
      </trkpt>
      <trkpt lat="41.834576" lon="22.989352">
        <ele>1171.4</ele>
        <time>2026-05-06T08:04:23.000Z</time>
      </trkpt>
      <trkpt lat="41.834561" lon="22.989352">
        <ele>1171.4</ele>
        <time>2026-05-06T08:04:24.000Z</time>
      </trkpt>
      <trkpt lat="41.834545" lon="22.989354">
        <ele>1171.4</ele>
        <time>2026-05-06T08:04:25.000Z</time>
      </trkpt>
      <trkpt lat="41.83453" lon="22.989355">
        <ele>1171.4</ele>
        <time>2026-05-06T08:04:26.000Z</time>
      </trkpt>
      <trkpt lat="41.834516" lon="22.989357">
        <ele>1172</ele>
        <time>2026-05-06T08:04:27.000Z</time>
      </trkpt>
      <trkpt lat="41.834501" lon="22.98936">
        <ele>1172</ele>
        <time>2026-05-06T08:04:28.000Z</time>
      </trkpt>
      <trkpt lat="41.834486" lon="22.989363">
        <ele>1172</ele>
        <time>2026-05-06T08:04:29.000Z</time>
      </trkpt>
      <trkpt lat="41.834472" lon="22.989366">
        <ele>1172</ele>
        <time>2026-05-06T08:04:30.000Z</time>
      </trkpt>
      <trkpt lat="41.834457" lon="22.98937">
        <ele>1172</ele>
        <time>2026-05-06T08:04:31.000Z</time>
      </trkpt>
      <trkpt lat="41.834442" lon="22.989375">
        <ele>1172.9</ele>
        <time>2026-05-06T08:04:32.000Z</time>
      </trkpt>
      <trkpt lat="41.834427" lon="22.989381">
        <ele>1172.9</ele>
        <time>2026-05-06T08:04:33.000Z</time>
      </trkpt>
      <trkpt lat="41.834412" lon="22.989387">
        <ele>1172.9</ele>
        <time>2026-05-06T08:04:34.000Z</time>
      </trkpt>
      <trkpt lat="41.834397" lon="22.989393">
        <ele>1172.9</ele>
        <time>2026-05-06T08:04:35.000Z</time>
      </trkpt>
      <trkpt lat="41.834383" lon="22.9894">
        <ele>1172.9</ele>
        <time>2026-05-06T08:04:36.000Z</time>
      </trkpt>
      <trkpt lat="41.834368" lon="22.989407">
        <ele>1173.5</ele>
        <time>2026-05-06T08:04:37.000Z</time>
      </trkpt>
      <trkpt lat="41.834353" lon="22.989415">
        <ele>1173.5</ele>
        <time>2026-05-06T08:04:38.000Z</time>
      </trkpt>
      <trkpt lat="41.834338" lon="22.989423">
        <ele>1173.5</ele>
        <time>2026-05-06T08:04:39.000Z</time>
      </trkpt>
      <trkpt lat="41.834323" lon="22.989432">
        <ele>1173.5</ele>
        <time>2026-05-06T08:04:40.000Z</time>
      </trkpt>
      <trkpt lat="41.834309" lon="22.98944">
        <ele>1173.5</ele>
        <time>2026-05-06T08:04:41.000Z</time>
      </trkpt>
      <trkpt lat="41.834295" lon="22.989447">
        <ele>1173.6</ele>
        <time>2026-05-06T08:04:42.000Z</time>
      </trkpt>
      <trkpt lat="41.83428" lon="22.989454">
        <ele>1173.6</ele>
        <time>2026-05-06T08:04:43.000Z</time>
      </trkpt>
      <trkpt lat="41.834265" lon="22.989463">
        <ele>1173.6</ele>
        <time>2026-05-06T08:04:44.000Z</time>
      </trkpt>
      <trkpt lat="41.83425" lon="22.989471">
        <ele>1173.6</ele>
        <time>2026-05-06T08:04:45.000Z</time>
      </trkpt>
      <trkpt lat="41.834234" lon="22.989481">
        <ele>1173.6</ele>
        <time>2026-05-06T08:04:46.000Z</time>
      </trkpt>
      <trkpt lat="41.834218" lon="22.98949">
        <ele>1173.7</ele>
        <time>2026-05-06T08:04:47.000Z</time>
      </trkpt>
      <trkpt lat="41.834201" lon="22.9895">
        <ele>1173.7</ele>
        <time>2026-05-06T08:04:48.000Z</time>
      </trkpt>
      <trkpt lat="41.834183" lon="22.989511">
        <ele>1173.7</ele>
        <time>2026-05-06T08:04:49.000Z</time>
      </trkpt>
      <trkpt lat="41.834166" lon="22.989522">
        <ele>1173.7</ele>
        <time>2026-05-06T08:04:50.000Z</time>
      </trkpt>
      <trkpt lat="41.834149" lon="22.989533">
        <ele>1173.7</ele>
        <time>2026-05-06T08:04:51.000Z</time>
      </trkpt>
      <trkpt lat="41.834134" lon="22.989543">
        <ele>1173.5</ele>
        <time>2026-05-06T08:04:52.000Z</time>
      </trkpt>
      <trkpt lat="41.834119" lon="22.989554">
        <ele>1173.5</ele>
        <time>2026-05-06T08:04:53.000Z</time>
      </trkpt>
      <trkpt lat="41.834105" lon="22.989564">
        <ele>1173.5</ele>
        <time>2026-05-06T08:04:54.000Z</time>
      </trkpt>
      <trkpt lat="41.83409" lon="22.989575">
        <ele>1173.5</ele>
        <time>2026-05-06T08:04:55.000Z</time>
      </trkpt>
      <trkpt lat="41.834075" lon="22.989587">
        <ele>1173.5</ele>
        <time>2026-05-06T08:04:56.000Z</time>
      </trkpt>
      <trkpt lat="41.83406" lon="22.989599">
        <ele>1173.2</ele>
        <time>2026-05-06T08:04:57.000Z</time>
      </trkpt>
      <trkpt lat="41.834045" lon="22.989612">
        <ele>1173.2</ele>
        <time>2026-05-06T08:04:58.000Z</time>
      </trkpt>
      <trkpt lat="41.83403" lon="22.989626">
        <ele>1173.2</ele>
        <time>2026-05-06T08:04:59.000Z</time>
      </trkpt>
      <trkpt lat="41.834017" lon="22.989642">
        <ele>1173.2</ele>
        <time>2026-05-06T08:05:00.000Z</time>
      </trkpt>
      <trkpt lat="41.834004" lon="22.989657">
        <ele>1173.2</ele>
        <time>2026-05-06T08:05:01.000Z</time>
      </trkpt>
      <trkpt lat="41.833991" lon="22.989672">
        <ele>1172</ele>
        <time>2026-05-06T08:05:02.000Z</time>
      </trkpt>
      <trkpt lat="41.833977" lon="22.989686">
        <ele>1172</ele>
        <time>2026-05-06T08:05:03.000Z</time>
      </trkpt>
      <trkpt lat="41.833964" lon="22.9897">
        <ele>1172</ele>
        <time>2026-05-06T08:05:04.000Z</time>
      </trkpt>
      <trkpt lat="41.83395" lon="22.989713">
        <ele>1172</ele>
        <time>2026-05-06T08:05:05.000Z</time>
      </trkpt>
      <trkpt lat="41.833936" lon="22.989725">
        <ele>1172</ele>
        <time>2026-05-06T08:05:06.000Z</time>
      </trkpt>
      <trkpt lat="41.833923" lon="22.989737">
        <ele>1170.6</ele>
        <time>2026-05-06T08:05:07.000Z</time>
      </trkpt>
      <trkpt lat="41.83391" lon="22.989748">
        <ele>1170.6</ele>
        <time>2026-05-06T08:05:08.000Z</time>
      </trkpt>
      <trkpt lat="41.833896" lon="22.989758">
        <ele>1170.6</ele>
        <time>2026-05-06T08:05:09.000Z</time>
      </trkpt>
      <trkpt lat="41.833882" lon="22.989766">
        <ele>1170.6</ele>
        <time>2026-05-06T08:05:10.000Z</time>
      </trkpt>
      <trkpt lat="41.833868" lon="22.989773">
        <ele>1170.6</ele>
        <time>2026-05-06T08:05:11.000Z</time>
      </trkpt>
      <trkpt lat="41.833852" lon="22.989781">
        <ele>1170.1</ele>
        <time>2026-05-06T08:05:12.000Z</time>
      </trkpt>
      <trkpt lat="41.833837" lon="22.989788">
        <ele>1170.1</ele>
        <time>2026-05-06T08:05:13.000Z</time>
      </trkpt>
      <trkpt lat="41.833821" lon="22.989796">
        <ele>1170.1</ele>
        <time>2026-05-06T08:05:14.000Z</time>
      </trkpt>
      <trkpt lat="41.833805" lon="22.989804">
        <ele>1170.1</ele>
        <time>2026-05-06T08:05:15.000Z</time>
      </trkpt>
      <trkpt lat="41.83379" lon="22.989812">
        <ele>1170.1</ele>
        <time>2026-05-06T08:05:16.000Z</time>
      </trkpt>
      <trkpt lat="41.833774" lon="22.98982">
        <ele>1169.3</ele>
        <time>2026-05-06T08:05:17.000Z</time>
      </trkpt>
      <trkpt lat="41.833758" lon="22.989828">
        <ele>1169.3</ele>
        <time>2026-05-06T08:05:18.000Z</time>
      </trkpt>
      <trkpt lat="41.833743" lon="22.989835">
        <ele>1169.3</ele>
        <time>2026-05-06T08:05:19.000Z</time>
      </trkpt>
      <trkpt lat="41.833727" lon="22.989843">
        <ele>1169.3</ele>
        <time>2026-05-06T08:05:20.000Z</time>
      </trkpt>
      <trkpt lat="41.833712" lon="22.98985">
        <ele>1169.3</ele>
        <time>2026-05-06T08:05:21.000Z</time>
      </trkpt>
      <trkpt lat="41.833697" lon="22.989859">
        <ele>1168.9</ele>
        <time>2026-05-06T08:05:22.000Z</time>
      </trkpt>
      <trkpt lat="41.833682" lon="22.989869">
        <ele>1168.9</ele>
        <time>2026-05-06T08:05:23.000Z</time>
      </trkpt>
      <trkpt lat="41.833667" lon="22.989878">
        <ele>1168.9</ele>
        <time>2026-05-06T08:05:24.000Z</time>
      </trkpt>
      <trkpt lat="41.833652" lon="22.989888">
        <ele>1168.9</ele>
        <time>2026-05-06T08:05:25.000Z</time>
      </trkpt>
      <trkpt lat="41.833636" lon="22.989897">
        <ele>1168.9</ele>
        <time>2026-05-06T08:05:26.000Z</time>
      </trkpt>
      <trkpt lat="41.833622" lon="22.989906">
        <ele>1168.8</ele>
        <time>2026-05-06T08:05:27.000Z</time>
      </trkpt>
      <trkpt lat="41.833608" lon="22.989914">
        <ele>1168.8</ele>
        <time>2026-05-06T08:05:28.000Z</time>
      </trkpt>
      <trkpt lat="41.833594" lon="22.989922">
        <ele>1168.8</ele>
        <time>2026-05-06T08:05:29.000Z</time>
      </trkpt>
      <trkpt lat="41.833581" lon="22.98993">
        <ele>1168.8</ele>
        <time>2026-05-06T08:05:30.000Z</time>
      </trkpt>
      <trkpt lat="41.833569" lon="22.989938">
        <ele>1168.8</ele>
        <time>2026-05-06T08:05:31.000Z</time>
      </trkpt>
      <trkpt lat="41.833557" lon="22.989944">
        <ele>1168.8</ele>
        <time>2026-05-06T08:05:32.000Z</time>
      </trkpt>
      <trkpt lat="41.833545" lon="22.98995">
        <ele>1168.8</ele>
        <time>2026-05-06T08:05:33.000Z</time>
      </trkpt>
      <trkpt lat="41.833532" lon="22.989956">
        <ele>1168.8</ele>
        <time>2026-05-06T08:05:34.000Z</time>
      </trkpt>
      <trkpt lat="41.83352" lon="22.989961">
        <ele>1168.8</ele>
        <time>2026-05-06T08:05:35.000Z</time>
      </trkpt>
      <trkpt lat="41.833507" lon="22.989965">
        <ele>1168.8</ele>
        <time>2026-05-06T08:05:36.000Z</time>
      </trkpt>
      <trkpt lat="41.833495" lon="22.989971">
        <ele>1169</ele>
        <time>2026-05-06T08:05:37.000Z</time>
      </trkpt>
      <trkpt lat="41.833483" lon="22.989976">
        <ele>1169</ele>
        <time>2026-05-06T08:05:38.000Z</time>
      </trkpt>
      <trkpt lat="41.833471" lon="22.989982">
        <ele>1169</ele>
        <time>2026-05-06T08:05:39.000Z</time>
      </trkpt>
      <trkpt lat="41.83346" lon="22.989988">
        <ele>1169</ele>
        <time>2026-05-06T08:05:40.000Z</time>
      </trkpt>
      <trkpt lat="41.833449" lon="22.989994">
        <ele>1169</ele>
        <time>2026-05-06T08:05:41.000Z</time>
      </trkpt>
      <trkpt lat="41.833437" lon="22.989999">
        <ele>1169.1</ele>
        <time>2026-05-06T08:05:42.000Z</time>
      </trkpt>
      <trkpt lat="41.833427" lon="22.990003">
        <ele>1169.1</ele>
        <time>2026-05-06T08:05:43.000Z</time>
      </trkpt>
      <trkpt lat="41.833415" lon="22.990007">
        <ele>1169.1</ele>
        <time>2026-05-06T08:05:44.000Z</time>
      </trkpt>
      <trkpt lat="41.833404" lon="22.990011">
        <ele>1169.1</ele>
        <time>2026-05-06T08:05:45.000Z</time>
      </trkpt>
      <trkpt lat="41.833393" lon="22.990014">
        <ele>1169.1</ele>
        <time>2026-05-06T08:05:46.000Z</time>
      </trkpt>
      <trkpt lat="41.833381" lon="22.990018">
        <ele>1169.4</ele>
        <time>2026-05-06T08:05:47.000Z</time>
      </trkpt>
      <trkpt lat="41.833369" lon="22.990021">
        <ele>1169.4</ele>
        <time>2026-05-06T08:05:48.000Z</time>
      </trkpt>
      <trkpt lat="41.833357" lon="22.990024">
        <ele>1169.4</ele>
        <time>2026-05-06T08:05:49.000Z</time>
      </trkpt>
      <trkpt lat="41.833345" lon="22.990027">
        <ele>1169.4</ele>
        <time>2026-05-06T08:05:50.000Z</time>
      </trkpt>
      <trkpt lat="41.833332" lon="22.990029">
        <ele>1169.4</ele>
        <time>2026-05-06T08:05:51.000Z</time>
      </trkpt>
      <trkpt lat="41.83332" lon="22.99003">
        <ele>1169.9</ele>
        <time>2026-05-06T08:05:52.000Z</time>
      </trkpt>
      <trkpt lat="41.833307" lon="22.990033">
        <ele>1169.9</ele>
        <time>2026-05-06T08:05:53.000Z</time>
      </trkpt>
      <trkpt lat="41.833295" lon="22.990035">
        <ele>1169.9</ele>
        <time>2026-05-06T08:05:54.000Z</time>
      </trkpt>
      <trkpt lat="41.833282" lon="22.990037">
        <ele>1169.9</ele>
        <time>2026-05-06T08:05:55.000Z</time>
      </trkpt>
      <trkpt lat="41.83327" lon="22.990039">
        <ele>1169.9</ele>
        <time>2026-05-06T08:05:56.000Z</time>
      </trkpt>
      <trkpt lat="41.833257" lon="22.990041">
        <ele>1170.3</ele>
        <time>2026-05-06T08:05:57.000Z</time>
      </trkpt>
      <trkpt lat="41.833244" lon="22.99004">
        <ele>1170.3</ele>
        <time>2026-05-06T08:05:58.000Z</time>
      </trkpt>
      <trkpt lat="41.833231" lon="22.990038">
        <ele>1170.3</ele>
        <time>2026-05-06T08:05:59.000Z</time>
      </trkpt>
      <trkpt lat="41.833217" lon="22.990035">
        <ele>1170.3</ele>
        <time>2026-05-06T08:06:00.000Z</time>
      </trkpt>
      <trkpt lat="41.833204" lon="22.99003">
        <ele>1170.3</ele>
        <time>2026-05-06T08:06:01.000Z</time>
      </trkpt>
      <trkpt lat="41.83319" lon="22.990024">
        <ele>1171.2</ele>
        <time>2026-05-06T08:06:02.000Z</time>
      </trkpt>
      <trkpt lat="41.833177" lon="22.990017">
        <ele>1171.2</ele>
        <time>2026-05-06T08:06:03.000Z</time>
      </trkpt>
      <trkpt lat="41.833165" lon="22.99001">
        <ele>1171.2</ele>
        <time>2026-05-06T08:06:04.000Z</time>
      </trkpt>
      <trkpt lat="41.833153" lon="22.990003">
        <ele>1171.2</ele>
        <time>2026-05-06T08:06:05.000Z</time>
      </trkpt>
      <trkpt lat="41.833141" lon="22.989996">
        <ele>1171.2</ele>
        <time>2026-05-06T08:06:06.000Z</time>
      </trkpt>
      <trkpt lat="41.833129" lon="22.989988">
        <ele>1172.1</ele>
        <time>2026-05-06T08:06:07.000Z</time>
      </trkpt>
      <trkpt lat="41.833117" lon="22.98998">
        <ele>1172.1</ele>
        <time>2026-05-06T08:06:08.000Z</time>
      </trkpt>
      <trkpt lat="41.833104" lon="22.989973">
        <ele>1172.1</ele>
        <time>2026-05-06T08:06:09.000Z</time>
      </trkpt>
      <trkpt lat="41.83309" lon="22.989966">
        <ele>1172.1</ele>
        <time>2026-05-06T08:06:10.000Z</time>
      </trkpt>
      <trkpt lat="41.833076" lon="22.989957">
        <ele>1172.1</ele>
        <time>2026-05-06T08:06:11.000Z</time>
      </trkpt>
      <trkpt lat="41.833062" lon="22.989948">
        <ele>1172.6</ele>
        <time>2026-05-06T08:06:12.000Z</time>
      </trkpt>
      <trkpt lat="41.833048" lon="22.989939">
        <ele>1172.6</ele>
        <time>2026-05-06T08:06:13.000Z</time>
      </trkpt>
      <trkpt lat="41.833034" lon="22.989928">
        <ele>1172.6</ele>
        <time>2026-05-06T08:06:14.000Z</time>
      </trkpt>
      <trkpt lat="41.83302" lon="22.989915">
        <ele>1172.6</ele>
        <time>2026-05-06T08:06:15.000Z</time>
      </trkpt>
      <trkpt lat="41.833008" lon="22.989903">
        <ele>1172.6</ele>
        <time>2026-05-06T08:06:16.000Z</time>
      </trkpt>
      <trkpt lat="41.832995" lon="22.98989">
        <ele>1173.4</ele>
        <time>2026-05-06T08:06:17.000Z</time>
      </trkpt>
      <trkpt lat="41.832982" lon="22.989878">
        <ele>1173.4</ele>
        <time>2026-05-06T08:06:18.000Z</time>
      </trkpt>
      <trkpt lat="41.832968" lon="22.989865">
        <ele>1173.4</ele>
        <time>2026-05-06T08:06:19.000Z</time>
      </trkpt>
      <trkpt lat="41.832955" lon="22.989853">
        <ele>1173.4</ele>
        <time>2026-05-06T08:06:20.000Z</time>
      </trkpt>
      <trkpt lat="41.832941" lon="22.98984">
        <ele>1173.4</ele>
        <time>2026-05-06T08:06:21.000Z</time>
      </trkpt>
      <trkpt lat="41.832928" lon="22.989827">
        <ele>1173.9</ele>
        <time>2026-05-06T08:06:22.000Z</time>
      </trkpt>
      <trkpt lat="41.832914" lon="22.989815">
        <ele>1173.9</ele>
        <time>2026-05-06T08:06:23.000Z</time>
      </trkpt>
      <trkpt lat="41.832901" lon="22.989803">
        <ele>1173.9</ele>
        <time>2026-05-06T08:06:24.000Z</time>
      </trkpt>
      <trkpt lat="41.832887" lon="22.989792">
        <ele>1173.9</ele>
        <time>2026-05-06T08:06:25.000Z</time>
      </trkpt>
      <trkpt lat="41.832874" lon="22.989783">
        <ele>1173.9</ele>
        <time>2026-05-06T08:06:26.000Z</time>
      </trkpt>
      <trkpt lat="41.832861" lon="22.989775">
        <ele>1173.9</ele>
        <time>2026-05-06T08:06:27.000Z</time>
      </trkpt>
      <trkpt lat="41.832846" lon="22.989767">
        <ele>1173.9</ele>
        <time>2026-05-06T08:06:28.000Z</time>
      </trkpt>
      <trkpt lat="41.832832" lon="22.989761">
        <ele>1173.9</ele>
        <time>2026-05-06T08:06:29.000Z</time>
      </trkpt>
      <trkpt lat="41.832817" lon="22.989757">
        <ele>1173.9</ele>
        <time>2026-05-06T08:06:30.000Z</time>
      </trkpt>
      <trkpt lat="41.832802" lon="22.989754">
        <ele>1173.9</ele>
        <time>2026-05-06T08:06:31.000Z</time>
      </trkpt>
      <trkpt lat="41.832787" lon="22.989752">
        <ele>1173.8</ele>
        <time>2026-05-06T08:06:32.000Z</time>
      </trkpt>
      <trkpt lat="41.832772" lon="22.989751">
        <ele>1173.8</ele>
        <time>2026-05-06T08:06:33.000Z</time>
      </trkpt>
      <trkpt lat="41.832757" lon="22.989752">
        <ele>1173.8</ele>
        <time>2026-05-06T08:06:34.000Z</time>
      </trkpt>
      <trkpt lat="41.832741" lon="22.989752">
        <ele>1173.8</ele>
        <time>2026-05-06T08:06:35.000Z</time>
      </trkpt>
      <trkpt lat="41.832725" lon="22.989753">
        <ele>1173.8</ele>
        <time>2026-05-06T08:06:36.000Z</time>
      </trkpt>
      <trkpt lat="41.832709" lon="22.989753">
        <ele>1173.9</ele>
        <time>2026-05-06T08:06:37.000Z</time>
      </trkpt>
      <trkpt lat="41.832693" lon="22.989753">
        <ele>1173.9</ele>
        <time>2026-05-06T08:06:38.000Z</time>
      </trkpt>
      <trkpt lat="41.832676" lon="22.989753">
        <ele>1173.9</ele>
        <time>2026-05-06T08:06:39.000Z</time>
      </trkpt>
      <trkpt lat="41.832659" lon="22.989753">
        <ele>1173.9</ele>
        <time>2026-05-06T08:06:40.000Z</time>
      </trkpt>
      <trkpt lat="41.832642" lon="22.989752">
        <ele>1173.9</ele>
        <time>2026-05-06T08:06:41.000Z</time>
      </trkpt>
      <trkpt lat="41.832626" lon="22.989751">
        <ele>1174</ele>
        <time>2026-05-06T08:06:42.000Z</time>
      </trkpt>
      <trkpt lat="41.832609" lon="22.989749">
        <ele>1174</ele>
        <time>2026-05-06T08:06:43.000Z</time>
      </trkpt>
      <trkpt lat="41.832593" lon="22.989747">
        <ele>1174</ele>
        <time>2026-05-06T08:06:44.000Z</time>
      </trkpt>
      <trkpt lat="41.832577" lon="22.989744">
        <ele>1174</ele>
        <time>2026-05-06T08:06:45.000Z</time>
      </trkpt>
      <trkpt lat="41.832561" lon="22.989741">
        <ele>1174</ele>
        <time>2026-05-06T08:06:46.000Z</time>
      </trkpt>
      <trkpt lat="41.832546" lon="22.989739">
        <ele>1174.3</ele>
        <time>2026-05-06T08:06:47.000Z</time>
      </trkpt>
      <trkpt lat="41.83253" lon="22.989736">
        <ele>1174.3</ele>
        <time>2026-05-06T08:06:48.000Z</time>
      </trkpt>
      <trkpt lat="41.832515" lon="22.989735">
        <ele>1174.3</ele>
        <time>2026-05-06T08:06:49.000Z</time>
      </trkpt>
      <trkpt lat="41.8325" lon="22.989733">
        <ele>1174.3</ele>
        <time>2026-05-06T08:06:50.000Z</time>
      </trkpt>
      <trkpt lat="41.832484" lon="22.989732">
        <ele>1174.3</ele>
        <time>2026-05-06T08:06:51.000Z</time>
      </trkpt>
      <trkpt lat="41.832469" lon="22.989731">
        <ele>1174.5</ele>
        <time>2026-05-06T08:06:52.000Z</time>
      </trkpt>
      <trkpt lat="41.832454" lon="22.989729">
        <ele>1174.5</ele>
        <time>2026-05-06T08:06:53.000Z</time>
      </trkpt>
      <trkpt lat="41.832439" lon="22.989727">
        <ele>1174.5</ele>
        <time>2026-05-06T08:06:54.000Z</time>
      </trkpt>
      <trkpt lat="41.832424" lon="22.989724">
        <ele>1174.5</ele>
        <time>2026-05-06T08:06:55.000Z</time>
      </trkpt>
      <trkpt lat="41.832409" lon="22.989722">
        <ele>1174.5</ele>
        <time>2026-05-06T08:06:56.000Z</time>
      </trkpt>
      <trkpt lat="41.832393" lon="22.989719">
        <ele>1174.5</ele>
        <time>2026-05-06T08:06:57.000Z</time>
      </trkpt>
      <trkpt lat="41.832378" lon="22.989716">
        <ele>1174.5</ele>
        <time>2026-05-06T08:06:58.000Z</time>
      </trkpt>
      <trkpt lat="41.832362" lon="22.989712">
        <ele>1174.5</ele>
        <time>2026-05-06T08:06:59.000Z</time>
      </trkpt>
      <trkpt lat="41.832346" lon="22.989707">
        <ele>1174.5</ele>
        <time>2026-05-06T08:07:00.000Z</time>
      </trkpt>
      <trkpt lat="41.832331" lon="22.989702">
        <ele>1174.5</ele>
        <time>2026-05-06T08:07:01.000Z</time>
      </trkpt>
      <trkpt lat="41.832315" lon="22.989697">
        <ele>1174.6</ele>
        <time>2026-05-06T08:07:02.000Z</time>
      </trkpt>
      <trkpt lat="41.832299" lon="22.989692">
        <ele>1174.6</ele>
        <time>2026-05-06T08:07:03.000Z</time>
      </trkpt>
      <trkpt lat="41.832283" lon="22.989686">
        <ele>1174.6</ele>
        <time>2026-05-06T08:07:04.000Z</time>
      </trkpt>
      <trkpt lat="41.832268" lon="22.989679">
        <ele>1174.6</ele>
        <time>2026-05-06T08:07:05.000Z</time>
      </trkpt>
      <trkpt lat="41.832254" lon="22.989671">
        <ele>1174.6</ele>
        <time>2026-05-06T08:07:06.000Z</time>
      </trkpt>
      <trkpt lat="41.832241" lon="22.989662">
        <ele>1174.8</ele>
        <time>2026-05-06T08:07:07.000Z</time>
      </trkpt>
      <trkpt lat="41.832229" lon="22.989652">
        <ele>1174.8</ele>
        <time>2026-05-06T08:07:08.000Z</time>
      </trkpt>
      <trkpt lat="41.832217" lon="22.989643">
        <ele>1174.8</ele>
        <time>2026-05-06T08:07:09.000Z</time>
      </trkpt>
      <trkpt lat="41.832206" lon="22.989634">
        <ele>1174.8</ele>
        <time>2026-05-06T08:07:10.000Z</time>
      </trkpt>
      <trkpt lat="41.832194" lon="22.989626">
        <ele>1174.8</ele>
        <time>2026-05-06T08:07:11.000Z</time>
      </trkpt>
      <trkpt lat="41.832182" lon="22.989618">
        <ele>1175</ele>
        <time>2026-05-06T08:07:12.000Z</time>
      </trkpt>
      <trkpt lat="41.83217" lon="22.98961">
        <ele>1175</ele>
        <time>2026-05-06T08:07:13.000Z</time>
      </trkpt>
      <trkpt lat="41.832158" lon="22.989601">
        <ele>1175</ele>
        <time>2026-05-06T08:07:14.000Z</time>
      </trkpt>
      <trkpt lat="41.832145" lon="22.989592">
        <ele>1175</ele>
        <time>2026-05-06T08:07:15.000Z</time>
      </trkpt>
      <trkpt lat="41.832131" lon="22.989584">
        <ele>1175</ele>
        <time>2026-05-06T08:07:16.000Z</time>
      </trkpt>
      <trkpt lat="41.832118" lon="22.989575">
        <ele>1175.7</ele>
        <time>2026-05-06T08:07:17.000Z</time>
      </trkpt>
      <trkpt lat="41.832104" lon="22.989568">
        <ele>1175.7</ele>
        <time>2026-05-06T08:07:18.000Z</time>
      </trkpt>
      <trkpt lat="41.832089" lon="22.989561">
        <ele>1175.7</ele>
        <time>2026-05-06T08:07:19.000Z</time>
      </trkpt>
      <trkpt lat="41.832075" lon="22.989554">
        <ele>1175.7</ele>
        <time>2026-05-06T08:07:20.000Z</time>
      </trkpt>
      <trkpt lat="41.832061" lon="22.989546">
        <ele>1175.7</ele>
        <time>2026-05-06T08:07:21.000Z</time>
      </trkpt>
      <trkpt lat="41.832047" lon="22.989538">
        <ele>1176.5</ele>
        <time>2026-05-06T08:07:22.000Z</time>
      </trkpt>
      <trkpt lat="41.832033" lon="22.98953">
        <ele>1176.5</ele>
        <time>2026-05-06T08:07:23.000Z</time>
      </trkpt>
      <trkpt lat="41.83202" lon="22.989523">
        <ele>1176.5</ele>
        <time>2026-05-06T08:07:24.000Z</time>
      </trkpt>
      <trkpt lat="41.832006" lon="22.989517">
        <ele>1176.5</ele>
        <time>2026-05-06T08:07:25.000Z</time>
      </trkpt>
      <trkpt lat="41.831992" lon="22.989512">
        <ele>1176.5</ele>
        <time>2026-05-06T08:07:26.000Z</time>
      </trkpt>
      <trkpt lat="41.831979" lon="22.989509">
        <ele>1177</ele>
        <time>2026-05-06T08:07:27.000Z</time>
      </trkpt>
      <trkpt lat="41.831965" lon="22.989507">
        <ele>1177</ele>
        <time>2026-05-06T08:07:28.000Z</time>
      </trkpt>
      <trkpt lat="41.831951" lon="22.989505">
        <ele>1177</ele>
        <time>2026-05-06T08:07:29.000Z</time>
      </trkpt>
      <trkpt lat="41.831937" lon="22.989504">
        <ele>1177</ele>
        <time>2026-05-06T08:07:30.000Z</time>
      </trkpt>
      <trkpt lat="41.831922" lon="22.989503">
        <ele>1177</ele>
        <time>2026-05-06T08:07:31.000Z</time>
      </trkpt>
      <trkpt lat="41.831906" lon="22.989502">
        <ele>1177.7</ele>
        <time>2026-05-06T08:07:32.000Z</time>
      </trkpt>
      <trkpt lat="41.83189" lon="22.989499">
        <ele>1177.7</ele>
        <time>2026-05-06T08:07:33.000Z</time>
      </trkpt>
      <trkpt lat="41.831873" lon="22.989495">
        <ele>1177.7</ele>
        <time>2026-05-06T08:07:34.000Z</time>
      </trkpt>
      <trkpt lat="41.831857" lon="22.98949">
        <ele>1177.7</ele>
        <time>2026-05-06T08:07:35.000Z</time>
      </trkpt>
      <trkpt lat="41.83184" lon="22.989485">
        <ele>1177.7</ele>
        <time>2026-05-06T08:07:36.000Z</time>
      </trkpt>
      <trkpt lat="41.831824" lon="22.989479">
        <ele>1178.2</ele>
        <time>2026-05-06T08:07:37.000Z</time>
      </trkpt>
      <trkpt lat="41.831807" lon="22.989472">
        <ele>1178.2</ele>
        <time>2026-05-06T08:07:38.000Z</time>
      </trkpt>
      <trkpt lat="41.831791" lon="22.989466">
        <ele>1178.2</ele>
        <time>2026-05-06T08:07:39.000Z</time>
      </trkpt>
      <trkpt lat="41.831775" lon="22.98946">
        <ele>1178.2</ele>
        <time>2026-05-06T08:07:40.000Z</time>
      </trkpt>
      <trkpt lat="41.83176" lon="22.989453">
        <ele>1178.2</ele>
        <time>2026-05-06T08:07:41.000Z</time>
      </trkpt>
      <trkpt lat="41.831744" lon="22.989446">
        <ele>1178.5</ele>
        <time>2026-05-06T08:07:42.000Z</time>
      </trkpt>
      <trkpt lat="41.831729" lon="22.989439">
        <ele>1178.5</ele>
        <time>2026-05-06T08:07:43.000Z</time>
      </trkpt>
      <trkpt lat="41.831713" lon="22.989432">
        <ele>1178.5</ele>
        <time>2026-05-06T08:07:44.000Z</time>
      </trkpt>
      <trkpt lat="41.831698" lon="22.989425">
        <ele>1178.5</ele>
        <time>2026-05-06T08:07:45.000Z</time>
      </trkpt>
      <trkpt lat="41.831683" lon="22.989418">
        <ele>1178.5</ele>
        <time>2026-05-06T08:07:46.000Z</time>
      </trkpt>
      <trkpt lat="41.831668" lon="22.98941">
        <ele>1178.9</ele>
        <time>2026-05-06T08:07:47.000Z</time>
      </trkpt>
      <trkpt lat="41.831653" lon="22.989402">
        <ele>1178.9</ele>
        <time>2026-05-06T08:07:48.000Z</time>
      </trkpt>
      <trkpt lat="41.83164" lon="22.989394">
        <ele>1178.9</ele>
        <time>2026-05-06T08:07:49.000Z</time>
      </trkpt>
      <trkpt lat="41.831626" lon="22.989388">
        <ele>1178.9</ele>
        <time>2026-05-06T08:07:50.000Z</time>
      </trkpt>
      <trkpt lat="41.831612" lon="22.989381">
        <ele>1178.9</ele>
        <time>2026-05-06T08:07:51.000Z</time>
      </trkpt>
      <trkpt lat="41.831598" lon="22.989374">
        <ele>1179.4</ele>
        <time>2026-05-06T08:07:52.000Z</time>
      </trkpt>
      <trkpt lat="41.831584" lon="22.989368">
        <ele>1179.4</ele>
        <time>2026-05-06T08:07:53.000Z</time>
      </trkpt>
      <trkpt lat="41.83157" lon="22.98936">
        <ele>1179.4</ele>
        <time>2026-05-06T08:07:54.000Z</time>
      </trkpt>
      <trkpt lat="41.831556" lon="22.989353">
        <ele>1179.4</ele>
        <time>2026-05-06T08:07:55.000Z</time>
      </trkpt>
      <trkpt lat="41.831542" lon="22.989346">
        <ele>1179.4</ele>
        <time>2026-05-06T08:07:56.000Z</time>
      </trkpt>
      <trkpt lat="41.831528" lon="22.989339">
        <ele>1179.6</ele>
        <time>2026-05-06T08:07:57.000Z</time>
      </trkpt>
      <trkpt lat="41.831513" lon="22.989332">
        <ele>1179.6</ele>
        <time>2026-05-06T08:07:58.000Z</time>
      </trkpt>
      <trkpt lat="41.831499" lon="22.989326">
        <ele>1179.6</ele>
        <time>2026-05-06T08:07:59.000Z</time>
      </trkpt>
      <trkpt lat="41.831483" lon="22.989321">
        <ele>1179.6</ele>
        <time>2026-05-06T08:08:00.000Z</time>
      </trkpt>
      <trkpt lat="41.831468" lon="22.989317">
        <ele>1179.6</ele>
        <time>2026-05-06T08:08:01.000Z</time>
      </trkpt>
      <trkpt lat="41.831451" lon="22.989315">
        <ele>1180</ele>
        <time>2026-05-06T08:08:02.000Z</time>
      </trkpt>
      <trkpt lat="41.831435" lon="22.989313">
        <ele>1180</ele>
        <time>2026-05-06T08:08:03.000Z</time>
      </trkpt>
      <trkpt lat="41.831419" lon="22.98931">
        <ele>1180</ele>
        <time>2026-05-06T08:08:04.000Z</time>
      </trkpt>
      <trkpt lat="41.831403" lon="22.989307">
        <ele>1180</ele>
        <time>2026-05-06T08:08:05.000Z</time>
      </trkpt>
      <trkpt lat="41.831387" lon="22.989303">
        <ele>1180</ele>
        <time>2026-05-06T08:08:06.000Z</time>
      </trkpt>
      <trkpt lat="41.831371" lon="22.989299">
        <ele>1180.4</ele>
        <time>2026-05-06T08:08:07.000Z</time>
      </trkpt>
      <trkpt lat="41.831355" lon="22.989295">
        <ele>1180.4</ele>
        <time>2026-05-06T08:08:08.000Z</time>
      </trkpt>
      <trkpt lat="41.831339" lon="22.989291">
        <ele>1180.4</ele>
        <time>2026-05-06T08:08:09.000Z</time>
      </trkpt>
      <trkpt lat="41.831323" lon="22.989287">
        <ele>1180.4</ele>
        <time>2026-05-06T08:08:10.000Z</time>
      </trkpt>
      <trkpt lat="41.831307" lon="22.989283">
        <ele>1180.4</ele>
        <time>2026-05-06T08:08:11.000Z</time>
      </trkpt>
      <trkpt lat="41.831291" lon="22.98928">
        <ele>1180.6</ele>
        <time>2026-05-06T08:08:12.000Z</time>
      </trkpt>
      <trkpt lat="41.831275" lon="22.989277">
        <ele>1180.6</ele>
        <time>2026-05-06T08:08:13.000Z</time>
      </trkpt>
      <trkpt lat="41.831259" lon="22.989273">
        <ele>1180.6</ele>
        <time>2026-05-06T08:08:14.000Z</time>
      </trkpt>
      <trkpt lat="41.831243" lon="22.98927">
        <ele>1180.6</ele>
        <time>2026-05-06T08:08:15.000Z</time>
      </trkpt>
      <trkpt lat="41.831227" lon="22.989267">
        <ele>1180.6</ele>
        <time>2026-05-06T08:08:16.000Z</time>
      </trkpt>
      <trkpt lat="41.831211" lon="22.989265">
        <ele>1180.8</ele>
        <time>2026-05-06T08:08:17.000Z</time>
      </trkpt>
      <trkpt lat="41.831194" lon="22.989263">
        <ele>1180.8</ele>
        <time>2026-05-06T08:08:18.000Z</time>
      </trkpt>
      <trkpt lat="41.831178" lon="22.989262">
        <ele>1180.8</ele>
        <time>2026-05-06T08:08:19.000Z</time>
      </trkpt>
      <trkpt lat="41.831161" lon="22.989262">
        <ele>1180.8</ele>
        <time>2026-05-06T08:08:20.000Z</time>
      </trkpt>
      <trkpt lat="41.831145" lon="22.989262">
        <ele>1180.8</ele>
        <time>2026-05-06T08:08:21.000Z</time>
      </trkpt>
      <trkpt lat="41.831129" lon="22.989263">
        <ele>1181</ele>
        <time>2026-05-06T08:08:22.000Z</time>
      </trkpt>
      <trkpt lat="41.831113" lon="22.989263">
        <ele>1181</ele>
        <time>2026-05-06T08:08:23.000Z</time>
      </trkpt>
      <trkpt lat="41.831097" lon="22.989263">
        <ele>1181</ele>
        <time>2026-05-06T08:08:24.000Z</time>
      </trkpt>
      <trkpt lat="41.83108" lon="22.989263">
        <ele>1181</ele>
        <time>2026-05-06T08:08:25.000Z</time>
      </trkpt>
      <trkpt lat="41.831063" lon="22.989263">
        <ele>1181</ele>
        <time>2026-05-06T08:08:26.000Z</time>
      </trkpt>
      <trkpt lat="41.831046" lon="22.989263">
        <ele>1181.2</ele>
        <time>2026-05-06T08:08:27.000Z</time>
      </trkpt>
      <trkpt lat="41.831029" lon="22.989263">
        <ele>1181.2</ele>
        <time>2026-05-06T08:08:28.000Z</time>
      </trkpt>
      <trkpt lat="41.831012" lon="22.989263">
        <ele>1181.2</ele>
        <time>2026-05-06T08:08:29.000Z</time>
      </trkpt>
      <trkpt lat="41.830996" lon="22.989262">
        <ele>1181.2</ele>
        <time>2026-05-06T08:08:30.000Z</time>
      </trkpt>
      <trkpt lat="41.83098" lon="22.989262">
        <ele>1181.2</ele>
        <time>2026-05-06T08:08:31.000Z</time>
      </trkpt>
      <trkpt lat="41.830963" lon="22.989262">
        <ele>1181.4</ele>
        <time>2026-05-06T08:08:32.000Z</time>
      </trkpt>
      <trkpt lat="41.830946" lon="22.989263">
        <ele>1181.4</ele>
        <time>2026-05-06T08:08:33.000Z</time>
      </trkpt>
      <trkpt lat="41.830929" lon="22.989264">
        <ele>1181.4</ele>
        <time>2026-05-06T08:08:34.000Z</time>
      </trkpt>
      <trkpt lat="41.830912" lon="22.989267">
        <ele>1181.4</ele>
        <time>2026-05-06T08:08:35.000Z</time>
      </trkpt>
      <trkpt lat="41.830895" lon="22.989269">
        <ele>1181.4</ele>
        <time>2026-05-06T08:08:36.000Z</time>
      </trkpt>
      <trkpt lat="41.830878" lon="22.989272">
        <ele>1181.3</ele>
        <time>2026-05-06T08:08:37.000Z</time>
      </trkpt>
      <trkpt lat="41.830862" lon="22.989274">
        <ele>1181.3</ele>
        <time>2026-05-06T08:08:38.000Z</time>
      </trkpt>
      <trkpt lat="41.830847" lon="22.989278">
        <ele>1181.3</ele>
        <time>2026-05-06T08:08:39.000Z</time>
      </trkpt>
      <trkpt lat="41.830832" lon="22.989282">
        <ele>1181.3</ele>
        <time>2026-05-06T08:08:40.000Z</time>
      </trkpt>
      <trkpt lat="41.830817" lon="22.989287">
        <ele>1181.3</ele>
        <time>2026-05-06T08:08:41.000Z</time>
      </trkpt>
      <trkpt lat="41.830801" lon="22.989292">
        <ele>1181.2</ele>
        <time>2026-05-06T08:08:42.000Z</time>
      </trkpt>
      <trkpt lat="41.830785" lon="22.989298">
        <ele>1181.2</ele>
        <time>2026-05-06T08:08:43.000Z</time>
      </trkpt>
      <trkpt lat="41.830769" lon="22.989303">
        <ele>1181.2</ele>
        <time>2026-05-06T08:08:44.000Z</time>
      </trkpt>
      <trkpt lat="41.830754" lon="22.989306">
        <ele>1181.2</ele>
        <time>2026-05-06T08:08:45.000Z</time>
      </trkpt>
      <trkpt lat="41.830738" lon="22.989309">
        <ele>1181.2</ele>
        <time>2026-05-06T08:08:46.000Z</time>
      </trkpt>
      <trkpt lat="41.830723" lon="22.98931">
        <ele>1180.8</ele>
        <time>2026-05-06T08:08:47.000Z</time>
      </trkpt>
      <trkpt lat="41.830708" lon="22.989309">
        <ele>1180.8</ele>
        <time>2026-05-06T08:08:48.000Z</time>
      </trkpt>
      <trkpt lat="41.830692" lon="22.989307">
        <ele>1180.8</ele>
        <time>2026-05-06T08:08:49.000Z</time>
      </trkpt>
      <trkpt lat="41.830677" lon="22.989306">
        <ele>1180.8</ele>
        <time>2026-05-06T08:08:50.000Z</time>
      </trkpt>
      <trkpt lat="41.830661" lon="22.989306">
        <ele>1180.8</ele>
        <time>2026-05-06T08:08:51.000Z</time>
      </trkpt>
      <trkpt lat="41.830645" lon="22.989306">
        <ele>1180.7</ele>
        <time>2026-05-06T08:08:52.000Z</time>
      </trkpt>
      <trkpt lat="41.830629" lon="22.989308">
        <ele>1180.7</ele>
        <time>2026-05-06T08:08:53.000Z</time>
      </trkpt>
      <trkpt lat="41.830613" lon="22.98931">
        <ele>1180.7</ele>
        <time>2026-05-06T08:08:54.000Z</time>
      </trkpt>
      <trkpt lat="41.830597" lon="22.989313">
        <ele>1180.7</ele>
        <time>2026-05-06T08:08:55.000Z</time>
      </trkpt>
      <trkpt lat="41.830581" lon="22.989316">
        <ele>1180.7</ele>
        <time>2026-05-06T08:08:56.000Z</time>
      </trkpt>
      <trkpt lat="41.830566" lon="22.98932">
        <ele>1180.8</ele>
        <time>2026-05-06T08:08:57.000Z</time>
      </trkpt>
      <trkpt lat="41.830551" lon="22.989324">
        <ele>1180.8</ele>
        <time>2026-05-06T08:08:58.000Z</time>
      </trkpt>
      <trkpt lat="41.830537" lon="22.989329">
        <ele>1180.8</ele>
        <time>2026-05-06T08:08:59.000Z</time>
      </trkpt>
      <trkpt lat="41.830523" lon="22.989334">
        <ele>1180.8</ele>
        <time>2026-05-06T08:09:00.000Z</time>
      </trkpt>
      <trkpt lat="41.830509" lon="22.98934">
        <ele>1180.8</ele>
        <time>2026-05-06T08:09:01.000Z</time>
      </trkpt>
      <trkpt lat="41.830495" lon="22.989347">
        <ele>1181</ele>
        <time>2026-05-06T08:09:02.000Z</time>
      </trkpt>
      <trkpt lat="41.830479" lon="22.989353">
        <ele>1181</ele>
        <time>2026-05-06T08:09:03.000Z</time>
      </trkpt>
      <trkpt lat="41.830464" lon="22.98936">
        <ele>1181</ele>
        <time>2026-05-06T08:09:04.000Z</time>
      </trkpt>
      <trkpt lat="41.830449" lon="22.989367">
        <ele>1181</ele>
        <time>2026-05-06T08:09:05.000Z</time>
      </trkpt>
      <trkpt lat="41.830434" lon="22.989374">
        <ele>1181</ele>
        <time>2026-05-06T08:09:06.000Z</time>
      </trkpt>
      <trkpt lat="41.83042" lon="22.989383">
        <ele>1181.3</ele>
        <time>2026-05-06T08:09:07.000Z</time>
      </trkpt>
      <trkpt lat="41.830406" lon="22.989392">
        <ele>1181.3</ele>
        <time>2026-05-06T08:09:08.000Z</time>
      </trkpt>
      <trkpt lat="41.830392" lon="22.989401">
        <ele>1181.3</ele>
        <time>2026-05-06T08:09:09.000Z</time>
      </trkpt>
      <trkpt lat="41.830378" lon="22.98941">
        <ele>1181.3</ele>
        <time>2026-05-06T08:09:10.000Z</time>
      </trkpt>
      <trkpt lat="41.830364" lon="22.989418">
        <ele>1181.3</ele>
        <time>2026-05-06T08:09:11.000Z</time>
      </trkpt>
      <trkpt lat="41.83035" lon="22.989426">
        <ele>1181.5</ele>
        <time>2026-05-06T08:09:12.000Z</time>
      </trkpt>
      <trkpt lat="41.830336" lon="22.989433">
        <ele>1181.5</ele>
        <time>2026-05-06T08:09:13.000Z</time>
      </trkpt>
      <trkpt lat="41.830322" lon="22.989439">
        <ele>1181.5</ele>
        <time>2026-05-06T08:09:14.000Z</time>
      </trkpt>
      <trkpt lat="41.830308" lon="22.989446">
        <ele>1181.5</ele>
        <time>2026-05-06T08:09:15.000Z</time>
      </trkpt>
      <trkpt lat="41.830294" lon="22.989451">
        <ele>1181.5</ele>
        <time>2026-05-06T08:09:16.000Z</time>
      </trkpt>
      <trkpt lat="41.830279" lon="22.989455">
        <ele>1182.1</ele>
        <time>2026-05-06T08:09:17.000Z</time>
      </trkpt>
      <trkpt lat="41.830265" lon="22.989456">
        <ele>1182.1</ele>
        <time>2026-05-06T08:09:18.000Z</time>
      </trkpt>
      <trkpt lat="41.830251" lon="22.989456">
        <ele>1182.1</ele>
        <time>2026-05-06T08:09:19.000Z</time>
      </trkpt>
      <trkpt lat="41.830237" lon="22.989454">
        <ele>1182.1</ele>
        <time>2026-05-06T08:09:20.000Z</time>
      </trkpt>
      <trkpt lat="41.830223" lon="22.989451">
        <ele>1182.1</ele>
        <time>2026-05-06T08:09:21.000Z</time>
      </trkpt>
      <trkpt lat="41.83021" lon="22.989448">
        <ele>1182.9</ele>
        <time>2026-05-06T08:09:22.000Z</time>
      </trkpt>
      <trkpt lat="41.830197" lon="22.989445">
        <ele>1182.9</ele>
        <time>2026-05-06T08:09:23.000Z</time>
      </trkpt>
      <trkpt lat="41.830185" lon="22.989442">
        <ele>1182.9</ele>
        <time>2026-05-06T08:09:24.000Z</time>
      </trkpt>
      <trkpt lat="41.830174" lon="22.98944">
        <ele>1182.9</ele>
        <time>2026-05-06T08:09:25.000Z</time>
      </trkpt>
      <trkpt lat="41.830163" lon="22.989437">
        <ele>1182.9</ele>
        <time>2026-05-06T08:09:26.000Z</time>
      </trkpt>
      <trkpt lat="41.830152" lon="22.989433">
        <ele>1183.5</ele>
        <time>2026-05-06T08:09:27.000Z</time>
      </trkpt>
      <trkpt lat="41.83014" lon="22.989429">
        <ele>1183.5</ele>
        <time>2026-05-06T08:09:28.000Z</time>
      </trkpt>
      <trkpt lat="41.830128" lon="22.989425">
        <ele>1183.5</ele>
        <time>2026-05-06T08:09:29.000Z</time>
      </trkpt>
      <trkpt lat="41.830116" lon="22.989421">
        <ele>1183.5</ele>
        <time>2026-05-06T08:09:30.000Z</time>
      </trkpt>
      <trkpt lat="41.830105" lon="22.989418">
        <ele>1183.5</ele>
        <time>2026-05-06T08:09:31.000Z</time>
      </trkpt>
      <trkpt lat="41.830093" lon="22.989415">
        <ele>1184.8</ele>
        <time>2026-05-06T08:09:32.000Z</time>
      </trkpt>
      <trkpt lat="41.830082" lon="22.989413">
        <ele>1184.8</ele>
        <time>2026-05-06T08:09:33.000Z</time>
      </trkpt>
      <trkpt lat="41.830069" lon="22.98941">
        <ele>1184.8</ele>
        <time>2026-05-06T08:09:34.000Z</time>
      </trkpt>
      <trkpt lat="41.830056" lon="22.989406">
        <ele>1184.8</ele>
        <time>2026-05-06T08:09:35.000Z</time>
      </trkpt>
      <trkpt lat="41.830041" lon="22.989401">
        <ele>1184.8</ele>
        <time>2026-05-06T08:09:36.000Z</time>
      </trkpt>
      <trkpt lat="41.830027" lon="22.989396">
        <ele>1186.3</ele>
        <time>2026-05-06T08:09:37.000Z</time>
      </trkpt>
      <trkpt lat="41.830012" lon="22.98939">
        <ele>1186.3</ele>
        <time>2026-05-06T08:09:38.000Z</time>
      </trkpt>
      <trkpt lat="41.829997" lon="22.989383">
        <ele>1186.3</ele>
        <time>2026-05-06T08:09:39.000Z</time>
      </trkpt>
      <trkpt lat="41.829983" lon="22.989378">
        <ele>1186.3</ele>
        <time>2026-05-06T08:09:40.000Z</time>
      </trkpt>
      <trkpt lat="41.829969" lon="22.989372">
        <ele>1186.3</ele>
        <time>2026-05-06T08:09:41.000Z</time>
      </trkpt>
      <trkpt lat="41.829955" lon="22.989366">
        <ele>1187</ele>
        <time>2026-05-06T08:09:42.000Z</time>
      </trkpt>
      <trkpt lat="41.829942" lon="22.989359">
        <ele>1187</ele>
        <time>2026-05-06T08:09:43.000Z</time>
      </trkpt>
      <trkpt lat="41.829929" lon="22.989353">
        <ele>1187</ele>
        <time>2026-05-06T08:09:44.000Z</time>
      </trkpt>
      <trkpt lat="41.829917" lon="22.989346">
        <ele>1187</ele>
        <time>2026-05-06T08:09:45.000Z</time>
      </trkpt>
      <trkpt lat="41.829904" lon="22.98934">
        <ele>1187</ele>
        <time>2026-05-06T08:09:46.000Z</time>
      </trkpt>
      <trkpt lat="41.829892" lon="22.989334">
        <ele>1188.3</ele>
        <time>2026-05-06T08:09:47.000Z</time>
      </trkpt>
      <trkpt lat="41.82988" lon="22.98933">
        <ele>1188.3</ele>
        <time>2026-05-06T08:09:48.000Z</time>
      </trkpt>
      <trkpt lat="41.829867" lon="22.989325">
        <ele>1188.3</ele>
        <time>2026-05-06T08:09:49.000Z</time>
      </trkpt>
      <trkpt lat="41.829854" lon="22.98932">
        <ele>1188.3</ele>
        <time>2026-05-06T08:09:50.000Z</time>
      </trkpt>
      <trkpt lat="41.829841" lon="22.989315">
        <ele>1188.3</ele>
        <time>2026-05-06T08:09:51.000Z</time>
      </trkpt>
      <trkpt lat="41.829826" lon="22.989309">
        <ele>1189.3</ele>
        <time>2026-05-06T08:09:52.000Z</time>
      </trkpt>
      <trkpt lat="41.829811" lon="22.989303">
        <ele>1189.3</ele>
        <time>2026-05-06T08:09:53.000Z</time>
      </trkpt>
      <trkpt lat="41.829795" lon="22.989296">
        <ele>1189.3</ele>
        <time>2026-05-06T08:09:54.000Z</time>
      </trkpt>
      <trkpt lat="41.82978" lon="22.98929">
        <ele>1189.3</ele>
        <time>2026-05-06T08:09:55.000Z</time>
      </trkpt>
      <trkpt lat="41.829765" lon="22.989284">
        <ele>1189.3</ele>
        <time>2026-05-06T08:09:56.000Z</time>
      </trkpt>
      <trkpt lat="41.82975" lon="22.989279">
        <ele>1189.8</ele>
        <time>2026-05-06T08:09:57.000Z</time>
      </trkpt>
      <trkpt lat="41.829736" lon="22.989275">
        <ele>1189.8</ele>
        <time>2026-05-06T08:09:58.000Z</time>
      </trkpt>
      <trkpt lat="41.829722" lon="22.989272">
        <ele>1189.8</ele>
        <time>2026-05-06T08:09:59.000Z</time>
      </trkpt>
      <trkpt lat="41.829709" lon="22.989269">
        <ele>1189.8</ele>
        <time>2026-05-06T08:10:00.000Z</time>
      </trkpt>
      <trkpt lat="41.829695" lon="22.989266">
        <ele>1189.8</ele>
        <time>2026-05-06T08:10:01.000Z</time>
      </trkpt>
      <trkpt lat="41.829681" lon="22.989262">
        <ele>1190.5</ele>
        <time>2026-05-06T08:10:02.000Z</time>
      </trkpt>
      <trkpt lat="41.829668" lon="22.989259">
        <ele>1190.5</ele>
        <time>2026-05-06T08:10:03.000Z</time>
      </trkpt>
      <trkpt lat="41.829654" lon="22.989256">
        <ele>1190.5</ele>
        <time>2026-05-06T08:10:04.000Z</time>
      </trkpt>
      <trkpt lat="41.82964" lon="22.989254">
        <ele>1190.5</ele>
        <time>2026-05-06T08:10:05.000Z</time>
      </trkpt>
      <trkpt lat="41.829626" lon="22.98925">
        <ele>1190.5</ele>
        <time>2026-05-06T08:10:06.000Z</time>
      </trkpt>
      <trkpt lat="41.829612" lon="22.989246">
        <ele>1191.3</ele>
        <time>2026-05-06T08:10:07.000Z</time>
      </trkpt>
      <trkpt lat="41.829597" lon="22.989242">
        <ele>1191.3</ele>
        <time>2026-05-06T08:10:08.000Z</time>
      </trkpt>
      <trkpt lat="41.829583" lon="22.989236">
        <ele>1191.3</ele>
        <time>2026-05-06T08:10:09.000Z</time>
      </trkpt>
      <trkpt lat="41.829568" lon="22.98923">
        <ele>1191.3</ele>
        <time>2026-05-06T08:10:10.000Z</time>
      </trkpt>
      <trkpt lat="41.829553" lon="22.989224">
        <ele>1191.3</ele>
        <time>2026-05-06T08:10:11.000Z</time>
      </trkpt>
      <trkpt lat="41.829538" lon="22.989218">
        <ele>1191.6</ele>
        <time>2026-05-06T08:10:12.000Z</time>
      </trkpt>
      <trkpt lat="41.829522" lon="22.989211">
        <ele>1191.6</ele>
        <time>2026-05-06T08:10:13.000Z</time>
      </trkpt>
      <trkpt lat="41.829507" lon="22.989205">
        <ele>1191.6</ele>
        <time>2026-05-06T08:10:14.000Z</time>
      </trkpt>
      <trkpt lat="41.829491" lon="22.989198">
        <ele>1191.6</ele>
        <time>2026-05-06T08:10:15.000Z</time>
      </trkpt>
      <trkpt lat="41.829476" lon="22.989191">
        <ele>1191.6</ele>
        <time>2026-05-06T08:10:16.000Z</time>
      </trkpt>
      <trkpt lat="41.829461" lon="22.989185">
        <ele>1192.3</ele>
        <time>2026-05-06T08:10:17.000Z</time>
      </trkpt>
      <trkpt lat="41.829445" lon="22.989179">
        <ele>1192.3</ele>
        <time>2026-05-06T08:10:18.000Z</time>
      </trkpt>
      <trkpt lat="41.82943" lon="22.989174">
        <ele>1192.3</ele>
        <time>2026-05-06T08:10:19.000Z</time>
      </trkpt>
      <trkpt lat="41.829415" lon="22.98917">
        <ele>1192.3</ele>
        <time>2026-05-06T08:10:20.000Z</time>
      </trkpt>
      <trkpt lat="41.829401" lon="22.989164">
        <ele>1192.3</ele>
        <time>2026-05-06T08:10:21.000Z</time>
      </trkpt>
      <trkpt lat="41.829387" lon="22.989159">
        <ele>1192.8</ele>
        <time>2026-05-06T08:10:22.000Z</time>
      </trkpt>
      <trkpt lat="41.829374" lon="22.989154">
        <ele>1192.8</ele>
        <time>2026-05-06T08:10:23.000Z</time>
      </trkpt>
      <trkpt lat="41.829362" lon="22.989148">
        <ele>1192.8</ele>
        <time>2026-05-06T08:10:24.000Z</time>
      </trkpt>
      <trkpt lat="41.82935" lon="22.989141">
        <ele>1192.8</ele>
        <time>2026-05-06T08:10:25.000Z</time>
      </trkpt>
      <trkpt lat="41.82934" lon="22.989135">
        <ele>1192.8</ele>
        <time>2026-05-06T08:10:26.000Z</time>
      </trkpt>
      <trkpt lat="41.829332" lon="22.98913">
        <ele>1193</ele>
        <time>2026-05-06T08:10:27.000Z</time>
      </trkpt>
      <trkpt lat="41.829326" lon="22.989126">
        <ele>1193</ele>
        <time>2026-05-06T08:10:28.000Z</time>
      </trkpt>
      <trkpt lat="41.829323" lon="22.989123">
        <ele>1193</ele>
        <time>2026-05-06T08:10:29.000Z</time>
      </trkpt>
      <trkpt lat="41.829322" lon="22.989123">
        <ele>1193</ele>
        <time>2026-05-06T08:10:30.000Z</time>
      </trkpt>
      <trkpt lat="41.829323" lon="22.989124">
        <ele>1193</ele>
        <time>2026-05-06T08:10:31.000Z</time>
      </trkpt>
      <trkpt lat="41.829323" lon="22.989125">
        <ele>1193.4</ele>
        <time>2026-05-06T08:10:32.000Z</time>
      </trkpt>
      <trkpt lat="41.829324" lon="22.989126">
        <ele>1193.4</ele>
        <time>2026-05-06T08:10:33.000Z</time>
      </trkpt>
      <trkpt lat="41.829324" lon="22.989126">
        <ele>1193.4</ele>
        <time>2026-05-06T08:10:34.000Z</time>
      </trkpt>
      <trkpt lat="41.829324" lon="22.989126">
        <ele>1193.4</ele>
        <time>2026-05-06T08:10:35.000Z</time>
      </trkpt>
      <trkpt lat="41.829323" lon="22.989125">
        <ele>1193.4</ele>
        <time>2026-05-06T08:10:36.000Z</time>
      </trkpt>
      <trkpt lat="41.829321" lon="22.989126">
        <ele>1193.7</ele>
        <time>2026-05-06T08:10:37.000Z</time>
      </trkpt>
      <trkpt lat="41.829318" lon="22.989126">
        <ele>1193.7</ele>
        <time>2026-05-06T08:10:38.000Z</time>
      </trkpt>
      <trkpt lat="41.829316" lon="22.989127">
        <ele>1193.7</ele>
        <time>2026-05-06T08:10:39.000Z</time>
      </trkpt>
      <trkpt lat="41.829314" lon="22.989127">
        <ele>1193.7</ele>
        <time>2026-05-06T08:10:40.000Z</time>
      </trkpt>
      <trkpt lat="41.829312" lon="22.989126">
        <ele>1193.7</ele>
        <time>2026-05-06T08:10:41.000Z</time>
      </trkpt>
      <trkpt lat="41.829312" lon="22.989123">
        <ele>1193.7</ele>
        <time>2026-05-06T08:10:42.000Z</time>
      </trkpt>
      <trkpt lat="41.829313" lon="22.989121">
        <ele>1193.7</ele>
        <time>2026-05-06T08:10:43.000Z</time>
      </trkpt>
      <trkpt lat="41.829313" lon="22.989119">
        <ele>1193.7</ele>
        <time>2026-05-06T08:10:44.000Z</time>
      </trkpt>
      <trkpt lat="41.829313" lon="22.989117">
        <ele>1193.7</ele>
        <time>2026-05-06T08:10:45.000Z</time>
      </trkpt>
      <trkpt lat="41.829311" lon="22.989116">
        <ele>1193.7</ele>
        <time>2026-05-06T08:10:46.000Z</time>
      </trkpt>
      <trkpt lat="41.829307" lon="22.989115">
        <ele>1193.7</ele>
        <time>2026-05-06T08:10:47.000Z</time>
      </trkpt>
      <trkpt lat="41.8293" lon="22.989113">
        <ele>1193.7</ele>
        <time>2026-05-06T08:10:48.000Z</time>
      </trkpt>
      <trkpt lat="41.829292" lon="22.989111">
        <ele>1193.7</ele>
        <time>2026-05-06T08:10:49.000Z</time>
      </trkpt>
      <trkpt lat="41.829282" lon="22.989109">
        <ele>1193.7</ele>
        <time>2026-05-06T08:10:50.000Z</time>
      </trkpt>
      <trkpt lat="41.82927" lon="22.989107">
        <ele>1193.7</ele>
        <time>2026-05-06T08:10:51.000Z</time>
      </trkpt>
      <trkpt lat="41.829258" lon="22.989104">
        <ele>1193.7</ele>
        <time>2026-05-06T08:10:52.000Z</time>
      </trkpt>
      <trkpt lat="41.829246" lon="22.989101">
        <ele>1193.7</ele>
        <time>2026-05-06T08:10:53.000Z</time>
      </trkpt>
      <trkpt lat="41.829231" lon="22.989097">
        <ele>1193.7</ele>
        <time>2026-05-06T08:10:54.000Z</time>
      </trkpt>
      <trkpt lat="41.829217" lon="22.989093">
        <ele>1193.7</ele>
        <time>2026-05-06T08:10:55.000Z</time>
      </trkpt>
      <trkpt lat="41.829202" lon="22.989089">
        <ele>1193.7</ele>
        <time>2026-05-06T08:10:56.000Z</time>
      </trkpt>
      <trkpt lat="41.829186" lon="22.989087">
        <ele>1193.8</ele>
        <time>2026-05-06T08:10:57.000Z</time>
      </trkpt>
      <trkpt lat="41.82917" lon="22.989084">
        <ele>1193.8</ele>
        <time>2026-05-06T08:10:58.000Z</time>
      </trkpt>
      <trkpt lat="41.829155" lon="22.989082">
        <ele>1193.8</ele>
        <time>2026-05-06T08:10:59.000Z</time>
      </trkpt>
      <trkpt lat="41.82914" lon="22.989079">
        <ele>1193.8</ele>
        <time>2026-05-06T08:11:00.000Z</time>
      </trkpt>
      <trkpt lat="41.829125" lon="22.989077">
        <ele>1193.8</ele>
        <time>2026-05-06T08:11:01.000Z</time>
      </trkpt>
      <trkpt lat="41.829109" lon="22.989074">
        <ele>1193.9</ele>
        <time>2026-05-06T08:11:02.000Z</time>
      </trkpt>
      <trkpt lat="41.829094" lon="22.989071">
        <ele>1193.9</ele>
        <time>2026-05-06T08:11:03.000Z</time>
      </trkpt>
      <trkpt lat="41.829078" lon="22.989067">
        <ele>1193.9</ele>
        <time>2026-05-06T08:11:04.000Z</time>
      </trkpt>
      <trkpt lat="41.829063" lon="22.989064">
        <ele>1193.9</ele>
        <time>2026-05-06T08:11:05.000Z</time>
      </trkpt>
      <trkpt lat="41.829047" lon="22.98906">
        <ele>1193.9</ele>
        <time>2026-05-06T08:11:06.000Z</time>
      </trkpt>
      <trkpt lat="41.829032" lon="22.989056">
        <ele>1193.8</ele>
        <time>2026-05-06T08:11:07.000Z</time>
      </trkpt>
      <trkpt lat="41.829019" lon="22.98905">
        <ele>1193.8</ele>
        <time>2026-05-06T08:11:08.000Z</time>
      </trkpt>
      <trkpt lat="41.829005" lon="22.989046">
        <ele>1193.8</ele>
        <time>2026-05-06T08:11:09.000Z</time>
      </trkpt>
      <trkpt lat="41.828992" lon="22.989041">
        <ele>1193.8</ele>
        <time>2026-05-06T08:11:10.000Z</time>
      </trkpt>
      <trkpt lat="41.828977" lon="22.989036">
        <ele>1193.8</ele>
        <time>2026-05-06T08:11:11.000Z</time>
      </trkpt>
      <trkpt lat="41.828963" lon="22.989033">
        <ele>1193.7</ele>
        <time>2026-05-06T08:11:12.000Z</time>
      </trkpt>
      <trkpt lat="41.828948" lon="22.989029">
        <ele>1193.7</ele>
        <time>2026-05-06T08:11:13.000Z</time>
      </trkpt>
      <trkpt lat="41.828933" lon="22.989025">
        <ele>1193.7</ele>
        <time>2026-05-06T08:11:14.000Z</time>
      </trkpt>
      <trkpt lat="41.828917" lon="22.989021">
        <ele>1193.7</ele>
        <time>2026-05-06T08:11:15.000Z</time>
      </trkpt>
      <trkpt lat="41.828902" lon="22.989015">
        <ele>1193.7</ele>
        <time>2026-05-06T08:11:16.000Z</time>
      </trkpt>
      <trkpt lat="41.828888" lon="22.989009">
        <ele>1193.4</ele>
        <time>2026-05-06T08:11:17.000Z</time>
      </trkpt>
      <trkpt lat="41.828874" lon="22.989004">
        <ele>1193.4</ele>
        <time>2026-05-06T08:11:18.000Z</time>
      </trkpt>
      <trkpt lat="41.82886" lon="22.988999">
        <ele>1193.4</ele>
        <time>2026-05-06T08:11:19.000Z</time>
      </trkpt>
      <trkpt lat="41.828846" lon="22.988995">
        <ele>1193.4</ele>
        <time>2026-05-06T08:11:20.000Z</time>
      </trkpt>
      <trkpt lat="41.828833" lon="22.988991">
        <ele>1193.4</ele>
        <time>2026-05-06T08:11:21.000Z</time>
      </trkpt>
      <trkpt lat="41.828818" lon="22.988987">
        <ele>1193.1</ele>
        <time>2026-05-06T08:11:22.000Z</time>
      </trkpt>
      <trkpt lat="41.828803" lon="22.988983">
        <ele>1193.1</ele>
        <time>2026-05-06T08:11:23.000Z</time>
      </trkpt>
      <trkpt lat="41.828787" lon="22.988979">
        <ele>1193.1</ele>
        <time>2026-05-06T08:11:24.000Z</time>
      </trkpt>
      <trkpt lat="41.828772" lon="22.988973">
        <ele>1193.1</ele>
        <time>2026-05-06T08:11:25.000Z</time>
      </trkpt>
      <trkpt lat="41.828758" lon="22.988967">
        <ele>1193.1</ele>
        <time>2026-05-06T08:11:26.000Z</time>
      </trkpt>
      <trkpt lat="41.828743" lon="22.988959">
        <ele>1192.9</ele>
        <time>2026-05-06T08:11:27.000Z</time>
      </trkpt>
      <trkpt lat="41.82873" lon="22.988951">
        <ele>1192.9</ele>
        <time>2026-05-06T08:11:28.000Z</time>
      </trkpt>
      <trkpt lat="41.828717" lon="22.988942">
        <ele>1192.9</ele>
        <time>2026-05-06T08:11:29.000Z</time>
      </trkpt>
      <trkpt lat="41.828703" lon="22.988933">
        <ele>1192.9</ele>
        <time>2026-05-06T08:11:30.000Z</time>
      </trkpt>
      <trkpt lat="41.828689" lon="22.988924">
        <ele>1192.9</ele>
        <time>2026-05-06T08:11:31.000Z</time>
      </trkpt>
      <trkpt lat="41.828675" lon="22.988917">
        <ele>1192.4</ele>
        <time>2026-05-06T08:11:32.000Z</time>
      </trkpt>
      <trkpt lat="41.82866" lon="22.988908">
        <ele>1192.4</ele>
        <time>2026-05-06T08:11:33.000Z</time>
      </trkpt>
      <trkpt lat="41.828646" lon="22.9889">
        <ele>1192.4</ele>
        <time>2026-05-06T08:11:34.000Z</time>
      </trkpt>
      <trkpt lat="41.828632" lon="22.988891">
        <ele>1192.4</ele>
        <time>2026-05-06T08:11:35.000Z</time>
      </trkpt>
      <trkpt lat="41.828618" lon="22.98888">
        <ele>1192.4</ele>
        <time>2026-05-06T08:11:36.000Z</time>
      </trkpt>
      <trkpt lat="41.828606" lon="22.98887">
        <ele>1191.8</ele>
        <time>2026-05-06T08:11:37.000Z</time>
      </trkpt>
      <trkpt lat="41.828593" lon="22.988861">
        <ele>1191.8</ele>
        <time>2026-05-06T08:11:38.000Z</time>
      </trkpt>
      <trkpt lat="41.828579" lon="22.988852">
        <ele>1191.8</ele>
        <time>2026-05-06T08:11:39.000Z</time>
      </trkpt>
      <trkpt lat="41.828566" lon="22.988843">
        <ele>1191.8</ele>
        <time>2026-05-06T08:11:40.000Z</time>
      </trkpt>
      <trkpt lat="41.828552" lon="22.988836">
        <ele>1191.8</ele>
        <time>2026-05-06T08:11:41.000Z</time>
      </trkpt>
      <trkpt lat="41.82854" lon="22.988829">
        <ele>1191.5</ele>
        <time>2026-05-06T08:11:42.000Z</time>
      </trkpt>
      <trkpt lat="41.828528" lon="22.988821">
        <ele>1191.5</ele>
        <time>2026-05-06T08:11:43.000Z</time>
      </trkpt>
      <trkpt lat="41.828517" lon="22.988814">
        <ele>1191.5</ele>
        <time>2026-05-06T08:11:44.000Z</time>
      </trkpt>
      <trkpt lat="41.828507" lon="22.988808">
        <ele>1191.5</ele>
        <time>2026-05-06T08:11:45.000Z</time>
      </trkpt>
      <trkpt lat="41.828496" lon="22.988802">
        <ele>1191.5</ele>
        <time>2026-05-06T08:11:46.000Z</time>
      </trkpt>
      <trkpt lat="41.828485" lon="22.988798">
        <ele>1190.8</ele>
        <time>2026-05-06T08:11:47.000Z</time>
      </trkpt>
      <trkpt lat="41.828473" lon="22.988795">
        <ele>1190.8</ele>
        <time>2026-05-06T08:11:48.000Z</time>
      </trkpt>
      <trkpt lat="41.828461" lon="22.988793">
        <ele>1190.8</ele>
        <time>2026-05-06T08:11:49.000Z</time>
      </trkpt>
      <trkpt lat="41.82845" lon="22.988789">
        <ele>1190.8</ele>
        <time>2026-05-06T08:11:50.000Z</time>
      </trkpt>
      <trkpt lat="41.828438" lon="22.988785">
        <ele>1190.8</ele>
        <time>2026-05-06T08:11:51.000Z</time>
      </trkpt>
      <trkpt lat="41.828426" lon="22.98878">
        <ele>1189.9</ele>
        <time>2026-05-06T08:11:52.000Z</time>
      </trkpt>
      <trkpt lat="41.828413" lon="22.988773">
        <ele>1189.9</ele>
        <time>2026-05-06T08:11:53.000Z</time>
      </trkpt>
      <trkpt lat="41.828401" lon="22.988767">
        <ele>1189.9</ele>
        <time>2026-05-06T08:11:54.000Z</time>
      </trkpt>
      <trkpt lat="41.828389" lon="22.988762">
        <ele>1189.9</ele>
        <time>2026-05-06T08:11:55.000Z</time>
      </trkpt>
      <trkpt lat="41.828377" lon="22.988758">
        <ele>1189.9</ele>
        <time>2026-05-06T08:11:56.000Z</time>
      </trkpt>
      <trkpt lat="41.828365" lon="22.988754">
        <ele>1189.4</ele>
        <time>2026-05-06T08:11:57.000Z</time>
      </trkpt>
      <trkpt lat="41.828354" lon="22.988752">
        <ele>1189.4</ele>
        <time>2026-05-06T08:11:58.000Z</time>
      </trkpt>
      <trkpt lat="41.828343" lon="22.988748">
        <ele>1189.4</ele>
        <time>2026-05-06T08:11:59.000Z</time>
      </trkpt>
      <trkpt lat="41.828333" lon="22.988745">
        <ele>1189.4</ele>
        <time>2026-05-06T08:12:00.000Z</time>
      </trkpt>
      <trkpt lat="41.828322" lon="22.988742">
        <ele>1189.4</ele>
        <time>2026-05-06T08:12:01.000Z</time>
      </trkpt>
      <trkpt lat="41.82831" lon="22.988739">
        <ele>1188.5</ele>
        <time>2026-05-06T08:12:02.000Z</time>
      </trkpt>
      <trkpt lat="41.828298" lon="22.988736">
        <ele>1188.5</ele>
        <time>2026-05-06T08:12:03.000Z</time>
      </trkpt>
      <trkpt lat="41.828285" lon="22.988733">
        <ele>1188.5</ele>
        <time>2026-05-06T08:12:04.000Z</time>
      </trkpt>
      <trkpt lat="41.828271" lon="22.98873">
        <ele>1188.5</ele>
        <time>2026-05-06T08:12:05.000Z</time>
      </trkpt>
      <trkpt lat="41.828257" lon="22.988728">
        <ele>1188.5</ele>
        <time>2026-05-06T08:12:06.000Z</time>
      </trkpt>
      <trkpt lat="41.828242" lon="22.988726">
        <ele>1187.8</ele>
        <time>2026-05-06T08:12:07.000Z</time>
      </trkpt>
      <trkpt lat="41.828227" lon="22.988724">
        <ele>1187.8</ele>
        <time>2026-05-06T08:12:08.000Z</time>
      </trkpt>
      <trkpt lat="41.828212" lon="22.988722">
        <ele>1187.8</ele>
        <time>2026-05-06T08:12:09.000Z</time>
      </trkpt>
      <trkpt lat="41.828197" lon="22.98872">
        <ele>1187.8</ele>
        <time>2026-05-06T08:12:10.000Z</time>
      </trkpt>
      <trkpt lat="41.828181" lon="22.988719">
        <ele>1187.8</ele>
        <time>2026-05-06T08:12:11.000Z</time>
      </trkpt>
      <trkpt lat="41.828166" lon="22.988718">
        <ele>1187.5</ele>
        <time>2026-05-06T08:12:12.000Z</time>
      </trkpt>
      <trkpt lat="41.828151" lon="22.988717">
        <ele>1187.5</ele>
        <time>2026-05-06T08:12:13.000Z</time>
      </trkpt>
      <trkpt lat="41.828135" lon="22.988717">
        <ele>1187.5</ele>
        <time>2026-05-06T08:12:14.000Z</time>
      </trkpt>
      <trkpt lat="41.82812" lon="22.988718">
        <ele>1187.5</ele>
        <time>2026-05-06T08:12:15.000Z</time>
      </trkpt>
      <trkpt lat="41.828106" lon="22.988719">
        <ele>1187.5</ele>
        <time>2026-05-06T08:12:16.000Z</time>
      </trkpt>
      <trkpt lat="41.828091" lon="22.988719">
        <ele>1187.1</ele>
        <time>2026-05-06T08:12:17.000Z</time>
      </trkpt>
      <trkpt lat="41.828076" lon="22.988721">
        <ele>1187.1</ele>
        <time>2026-05-06T08:12:18.000Z</time>
      </trkpt>
      <trkpt lat="41.828062" lon="22.988722">
        <ele>1187.1</ele>
        <time>2026-05-06T08:12:19.000Z</time>
      </trkpt>
      <trkpt lat="41.828047" lon="22.988722">
        <ele>1187.1</ele>
        <time>2026-05-06T08:12:20.000Z</time>
      </trkpt>
      <trkpt lat="41.828032" lon="22.988721">
        <ele>1187.1</ele>
        <time>2026-05-06T08:12:21.000Z</time>
      </trkpt>
      <trkpt lat="41.828017" lon="22.98872">
        <ele>1186.6</ele>
        <time>2026-05-06T08:12:22.000Z</time>
      </trkpt>
      <trkpt lat="41.828001" lon="22.98872">
        <ele>1186.6</ele>
        <time>2026-05-06T08:12:23.000Z</time>
      </trkpt>
      <trkpt lat="41.827986" lon="22.98872">
        <ele>1186.6</ele>
        <time>2026-05-06T08:12:24.000Z</time>
      </trkpt>
      <trkpt lat="41.827971" lon="22.988721">
        <ele>1186.6</ele>
        <time>2026-05-06T08:12:25.000Z</time>
      </trkpt>
      <trkpt lat="41.827955" lon="22.988724">
        <ele>1186.6</ele>
        <time>2026-05-06T08:12:26.000Z</time>
      </trkpt>
      <trkpt lat="41.82794" lon="22.988727">
        <ele>1186.4</ele>
        <time>2026-05-06T08:12:27.000Z</time>
      </trkpt>
      <trkpt lat="41.827925" lon="22.98873">
        <ele>1186.4</ele>
        <time>2026-05-06T08:12:28.000Z</time>
      </trkpt>
      <trkpt lat="41.82791" lon="22.988733">
        <ele>1186.4</ele>
        <time>2026-05-06T08:12:29.000Z</time>
      </trkpt>
      <trkpt lat="41.827895" lon="22.988736">
        <ele>1186.4</ele>
        <time>2026-05-06T08:12:30.000Z</time>
      </trkpt>
      <trkpt lat="41.82788" lon="22.988737">
        <ele>1186.4</ele>
        <time>2026-05-06T08:12:31.000Z</time>
      </trkpt>
      <trkpt lat="41.827865" lon="22.988738">
        <ele>1186</ele>
        <time>2026-05-06T08:12:32.000Z</time>
      </trkpt>
      <trkpt lat="41.827851" lon="22.98874">
        <ele>1186</ele>
        <time>2026-05-06T08:12:33.000Z</time>
      </trkpt>
      <trkpt lat="41.827837" lon="22.988741">
        <ele>1186</ele>
        <time>2026-05-06T08:12:34.000Z</time>
      </trkpt>
      <trkpt lat="41.827823" lon="22.988743">
        <ele>1186</ele>
        <time>2026-05-06T08:12:35.000Z</time>
      </trkpt>
      <trkpt lat="41.827809" lon="22.988745">
        <ele>1186</ele>
        <time>2026-05-06T08:12:36.000Z</time>
      </trkpt>
      <trkpt lat="41.827794" lon="22.988746">
        <ele>1185.6</ele>
        <time>2026-05-06T08:12:37.000Z</time>
      </trkpt>
      <trkpt lat="41.827779" lon="22.988748">
        <ele>1185.6</ele>
        <time>2026-05-06T08:12:38.000Z</time>
      </trkpt>
      <trkpt lat="41.827763" lon="22.98875">
        <ele>1185.6</ele>
        <time>2026-05-06T08:12:39.000Z</time>
      </trkpt>
      <trkpt lat="41.827749" lon="22.988753">
        <ele>1185.6</ele>
        <time>2026-05-06T08:12:40.000Z</time>
      </trkpt>
      <trkpt lat="41.827736" lon="22.988759">
        <ele>1185.6</ele>
        <time>2026-05-06T08:12:41.000Z</time>
      </trkpt>
      <trkpt lat="41.827723" lon="22.988767">
        <ele>1185.3</ele>
        <time>2026-05-06T08:12:42.000Z</time>
      </trkpt>
      <trkpt lat="41.82771" lon="22.988775">
        <ele>1185.3</ele>
        <time>2026-05-06T08:12:43.000Z</time>
      </trkpt>
      <trkpt lat="41.827698" lon="22.988784">
        <ele>1185.3</ele>
        <time>2026-05-06T08:12:44.000Z</time>
      </trkpt>
      <trkpt lat="41.827685" lon="22.988792">
        <ele>1185.3</ele>
        <time>2026-05-06T08:12:45.000Z</time>
      </trkpt>
      <trkpt lat="41.827671" lon="22.9888">
        <ele>1185.3</ele>
        <time>2026-05-06T08:12:46.000Z</time>
      </trkpt>
      <trkpt lat="41.827658" lon="22.988807">
        <ele>1184.5</ele>
        <time>2026-05-06T08:12:47.000Z</time>
      </trkpt>
      <trkpt lat="41.827644" lon="22.988813">
        <ele>1184.5</ele>
        <time>2026-05-06T08:12:48.000Z</time>
      </trkpt>
      <trkpt lat="41.827631" lon="22.988822">
        <ele>1184.5</ele>
        <time>2026-05-06T08:12:49.000Z</time>
      </trkpt>
      <trkpt lat="41.827617" lon="22.988829">
        <ele>1184.5</ele>
        <time>2026-05-06T08:12:50.000Z</time>
      </trkpt>
      <trkpt lat="41.827605" lon="22.988835">
        <ele>1184.5</ele>
        <time>2026-05-06T08:12:51.000Z</time>
      </trkpt>
      <trkpt lat="41.827592" lon="22.988839">
        <ele>1183.3</ele>
        <time>2026-05-06T08:12:52.000Z</time>
      </trkpt>
      <trkpt lat="41.827579" lon="22.988843">
        <ele>1183.3</ele>
        <time>2026-05-06T08:12:53.000Z</time>
      </trkpt>
      <trkpt lat="41.827567" lon="22.988847">
        <ele>1183.3</ele>
        <time>2026-05-06T08:12:54.000Z</time>
      </trkpt>
      <trkpt lat="41.827555" lon="22.988851">
        <ele>1183.3</ele>
        <time>2026-05-06T08:12:55.000Z</time>
      </trkpt>
      <trkpt lat="41.827542" lon="22.988856">
        <ele>1183.3</ele>
        <time>2026-05-06T08:12:56.000Z</time>
      </trkpt>
      <trkpt lat="41.827529" lon="22.988862">
        <ele>1182.7</ele>
        <time>2026-05-06T08:12:57.000Z</time>
      </trkpt>
      <trkpt lat="41.827516" lon="22.988868">
        <ele>1182.7</ele>
        <time>2026-05-06T08:12:58.000Z</time>
      </trkpt>
      <trkpt lat="41.827504" lon="22.988875">
        <ele>1182.7</ele>
        <time>2026-05-06T08:12:59.000Z</time>
      </trkpt>
      <trkpt lat="41.827494" lon="22.98888">
        <ele>1182.7</ele>
        <time>2026-05-06T08:13:00.000Z</time>
      </trkpt>
      <trkpt lat="41.827487" lon="22.988885">
        <ele>1182.7</ele>
        <time>2026-05-06T08:13:01.000Z</time>
      </trkpt>
      <trkpt lat="41.827482" lon="22.988889">
        <ele>1181.7</ele>
        <time>2026-05-06T08:13:02.000Z</time>
      </trkpt>
      <trkpt lat="41.82748" lon="22.988891">
        <ele>1181.7</ele>
        <time>2026-05-06T08:13:03.000Z</time>
      </trkpt>
      <trkpt lat="41.827479" lon="22.988891">
        <ele>1181.7</ele>
        <time>2026-05-06T08:13:04.000Z</time>
      </trkpt>
      <trkpt lat="41.827479" lon="22.988891">
        <ele>1181.7</ele>
        <time>2026-05-06T08:13:05.000Z</time>
      </trkpt>
      <trkpt lat="41.827479" lon="22.98889">
        <ele>1181.7</ele>
        <time>2026-05-06T08:13:06.000Z</time>
      </trkpt>
      <trkpt lat="41.827479" lon="22.98889">
        <ele>1180.9</ele>
        <time>2026-05-06T08:13:07.000Z</time>
      </trkpt>
      <trkpt lat="41.827479" lon="22.98889">
        <ele>1180.9</ele>
        <time>2026-05-06T08:13:08.000Z</time>
      </trkpt>
      <trkpt lat="41.827479" lon="22.98889">
        <ele>1180.9</ele>
        <time>2026-05-06T08:13:09.000Z</time>
      </trkpt>
      <trkpt lat="41.827479" lon="22.98889">
        <ele>1180.9</ele>
        <time>2026-05-06T08:13:10.000Z</time>
      </trkpt>
      <trkpt lat="41.827479" lon="22.98889">
        <ele>1180.9</ele>
        <time>2026-05-06T08:13:11.000Z</time>
      </trkpt>
      <trkpt lat="41.827479" lon="22.98889">
        <ele>1180.6</ele>
        <time>2026-05-06T08:13:12.000Z</time>
      </trkpt>
      <trkpt lat="41.827479" lon="22.98889">
        <ele>1180.6</ele>
        <time>2026-05-06T08:13:13.000Z</time>
      </trkpt>
      <trkpt lat="41.827479" lon="22.98889">
        <ele>1180.6</ele>
        <time>2026-05-06T08:13:14.000Z</time>
      </trkpt>
      <trkpt lat="41.827479" lon="22.98889">
        <ele>1180.6</ele>
        <time>2026-05-06T08:13:15.000Z</time>
      </trkpt>
      <trkpt lat="41.827479" lon="22.98889">
        <ele>1180.6</ele>
        <time>2026-05-06T08:13:16.000Z</time>
      </trkpt>
      <trkpt lat="41.827479" lon="22.98889">
        <ele>1180.3</ele>
        <time>2026-05-06T08:13:17.000Z</time>
      </trkpt>
      <trkpt lat="41.827479" lon="22.98889">
        <ele>1180.3</ele>
        <time>2026-05-06T08:13:18.000Z</time>
      </trkpt>
      <trkpt lat="41.827479" lon="22.988889">
        <ele>1180.3</ele>
        <time>2026-05-06T08:13:19.000Z</time>
      </trkpt>
      <trkpt lat="41.827478" lon="22.988889">
        <ele>1180.3</ele>
        <time>2026-05-06T08:13:20.000Z</time>
      </trkpt>
      <trkpt lat="41.827478" lon="22.988889">
        <ele>1180.3</ele>
        <time>2026-05-06T08:13:21.000Z</time>
      </trkpt>
      <trkpt lat="41.827478" lon="22.988889">
        <ele>1180.2</ele>
        <time>2026-05-06T08:13:22.000Z</time>
      </trkpt>
      <trkpt lat="41.827478" lon="22.98889">
        <ele>1180.2</ele>
        <time>2026-05-06T08:13:23.000Z</time>
      </trkpt>
      <trkpt lat="41.827478" lon="22.98889">
        <ele>1180.2</ele>
        <time>2026-05-06T08:13:24.000Z</time>
      </trkpt>
      <trkpt lat="41.827478" lon="22.98889">
        <ele>1180.2</ele>
        <time>2026-05-06T08:13:25.000Z</time>
      </trkpt>
      <trkpt lat="41.827478" lon="22.988891">
        <ele>1180.2</ele>
        <time>2026-05-06T08:13:26.000Z</time>
      </trkpt>
      <trkpt lat="41.827478" lon="22.988891">
        <ele>1180.2</ele>
        <time>2026-05-06T08:13:27.000Z</time>
      </trkpt>
      <trkpt lat="41.827478" lon="22.988891">
        <ele>1180.2</ele>
        <time>2026-05-06T08:13:28.000Z</time>
      </trkpt>
      <trkpt lat="41.827478" lon="22.988891">
        <ele>1180.2</ele>
        <time>2026-05-06T08:13:29.000Z</time>
      </trkpt>
      <trkpt lat="41.827478" lon="22.988891">
        <ele>1180.2</ele>
        <time>2026-05-06T08:13:30.000Z</time>
      </trkpt>
      <trkpt lat="41.827478" lon="22.988891">
        <ele>1180.2</ele>
        <time>2026-05-06T08:13:31.000Z</time>
      </trkpt>
      <trkpt lat="41.827478" lon="22.988891">
        <ele>1180.1</ele>
        <time>2026-05-06T08:13:32.000Z</time>
      </trkpt>
      <trkpt lat="41.827478" lon="22.988891">
        <ele>1180.1</ele>
        <time>2026-05-06T08:13:33.000Z</time>
      </trkpt>
      <trkpt lat="41.827478" lon="22.988891">
        <ele>1180.1</ele>
        <time>2026-05-06T08:13:34.000Z</time>
      </trkpt>
      <trkpt lat="41.827478" lon="22.988891">
        <ele>1180.1</ele>
        <time>2026-05-06T08:13:35.000Z</time>
      </trkpt>
      <trkpt lat="41.827478" lon="22.988891">
        <ele>1180.1</ele>
        <time>2026-05-06T08:13:36.000Z</time>
      </trkpt>
      <trkpt lat="41.827477" lon="22.988891">
        <ele>1180.3</ele>
        <time>2026-05-06T08:13:37.000Z</time>
      </trkpt>
      <trkpt lat="41.827476" lon="22.988893">
        <ele>1180.3</ele>
        <time>2026-05-06T08:13:38.000Z</time>
      </trkpt>
      <trkpt lat="41.827474" lon="22.988894">
        <ele>1180.3</ele>
        <time>2026-05-06T08:13:39.000Z</time>
      </trkpt>
      <trkpt lat="41.827473" lon="22.988895">
        <ele>1180.3</ele>
        <time>2026-05-06T08:13:40.000Z</time>
      </trkpt>
      <trkpt lat="41.827471" lon="22.988896">
        <ele>1180.3</ele>
        <time>2026-05-06T08:13:41.000Z</time>
      </trkpt>
      <trkpt lat="41.827471" lon="22.988897">
        <ele>1180.4</ele>
        <time>2026-05-06T08:13:42.000Z</time>
      </trkpt>
      <trkpt lat="41.82747" lon="22.988896">
        <ele>1180.4</ele>
        <time>2026-05-06T08:13:43.000Z</time>
      </trkpt>
      <trkpt lat="41.82747" lon="22.988896">
        <ele>1180.4</ele>
        <time>2026-05-06T08:13:44.000Z</time>
      </trkpt>
      <trkpt lat="41.827468" lon="22.988897">
        <ele>1180.4</ele>
        <time>2026-05-06T08:13:45.000Z</time>
      </trkpt>
      <trkpt lat="41.827464" lon="22.9889">
        <ele>1180.4</ele>
        <time>2026-05-06T08:13:46.000Z</time>
      </trkpt>
      <trkpt lat="41.827459" lon="22.988904">
        <ele>1180.5</ele>
        <time>2026-05-06T08:13:47.000Z</time>
      </trkpt>
      <trkpt lat="41.827451" lon="22.98891">
        <ele>1180.5</ele>
        <time>2026-05-06T08:13:48.000Z</time>
      </trkpt>
      <trkpt lat="41.827441" lon="22.988916">
        <ele>1180.5</ele>
        <time>2026-05-06T08:13:49.000Z</time>
      </trkpt>
      <trkpt lat="41.82743" lon="22.988922">
        <ele>1180.5</ele>
        <time>2026-05-06T08:13:50.000Z</time>
      </trkpt>
      <trkpt lat="41.827418" lon="22.988926">
        <ele>1180.5</ele>
        <time>2026-05-06T08:13:51.000Z</time>
      </trkpt>
      <trkpt lat="41.827404" lon="22.98893">
        <ele>1180.4</ele>
        <time>2026-05-06T08:13:52.000Z</time>
      </trkpt>
      <trkpt lat="41.827391" lon="22.988934">
        <ele>1180.4</ele>
        <time>2026-05-06T08:13:53.000Z</time>
      </trkpt>
      <trkpt lat="41.827377" lon="22.988938">
        <ele>1180.4</ele>
        <time>2026-05-06T08:13:54.000Z</time>
      </trkpt>
      <trkpt lat="41.827362" lon="22.988942">
        <ele>1180.4</ele>
        <time>2026-05-06T08:13:55.000Z</time>
      </trkpt>
      <trkpt lat="41.827348" lon="22.988948">
        <ele>1180.4</ele>
        <time>2026-05-06T08:13:56.000Z</time>
      </trkpt>
      <trkpt lat="41.827333" lon="22.988953">
        <ele>1180.2</ele>
        <time>2026-05-06T08:13:57.000Z</time>
      </trkpt>
      <trkpt lat="41.827318" lon="22.988959">
        <ele>1180.2</ele>
        <time>2026-05-06T08:13:58.000Z</time>
      </trkpt>
      <trkpt lat="41.827302" lon="22.988964">
        <ele>1180.2</ele>
        <time>2026-05-06T08:13:59.000Z</time>
      </trkpt>
      <trkpt lat="41.827286" lon="22.988969">
        <ele>1180.2</ele>
        <time>2026-05-06T08:14:00.000Z</time>
      </trkpt>
      <trkpt lat="41.827272" lon="22.988974">
        <ele>1180.2</ele>
        <time>2026-05-06T08:14:01.000Z</time>
      </trkpt>
      <trkpt lat="41.827257" lon="22.988978">
        <ele>1179.7</ele>
        <time>2026-05-06T08:14:02.000Z</time>
      </trkpt>
      <trkpt lat="41.827242" lon="22.988982">
        <ele>1179.7</ele>
        <time>2026-05-06T08:14:03.000Z</time>
      </trkpt>
      <trkpt lat="41.827227" lon="22.988986">
        <ele>1179.7</ele>
        <time>2026-05-06T08:14:04.000Z</time>
      </trkpt>
      <trkpt lat="41.827212" lon="22.988989">
        <ele>1179.7</ele>
        <time>2026-05-06T08:14:05.000Z</time>
      </trkpt>
      <trkpt lat="41.827197" lon="22.988993">
        <ele>1179.7</ele>
        <time>2026-05-06T08:14:06.000Z</time>
      </trkpt>
      <trkpt lat="41.827182" lon="22.988997">
        <ele>1178.7</ele>
        <time>2026-05-06T08:14:07.000Z</time>
      </trkpt>
      <trkpt lat="41.827167" lon="22.989002">
        <ele>1178.7</ele>
        <time>2026-05-06T08:14:08.000Z</time>
      </trkpt>
      <trkpt lat="41.827152" lon="22.989006">
        <ele>1178.7</ele>
        <time>2026-05-06T08:14:09.000Z</time>
      </trkpt>
      <trkpt lat="41.827137" lon="22.989009">
        <ele>1178.7</ele>
        <time>2026-05-06T08:14:10.000Z</time>
      </trkpt>
      <trkpt lat="41.827123" lon="22.989012">
        <ele>1178.7</ele>
        <time>2026-05-06T08:14:11.000Z</time>
      </trkpt>
      <trkpt lat="41.827108" lon="22.989015">
        <ele>1178.2</ele>
        <time>2026-05-06T08:14:12.000Z</time>
      </trkpt>
      <trkpt lat="41.827094" lon="22.989017">
        <ele>1178.2</ele>
        <time>2026-05-06T08:14:13.000Z</time>
      </trkpt>
      <trkpt lat="41.82708" lon="22.989021">
        <ele>1178.2</ele>
        <time>2026-05-06T08:14:14.000Z</time>
      </trkpt>
      <trkpt lat="41.827065" lon="22.989025">
        <ele>1178.2</ele>
        <time>2026-05-06T08:14:15.000Z</time>
      </trkpt>
      <trkpt lat="41.827051" lon="22.98903">
        <ele>1178.2</ele>
        <time>2026-05-06T08:14:16.000Z</time>
      </trkpt>
      <trkpt lat="41.827035" lon="22.989035">
        <ele>1177.3</ele>
        <time>2026-05-06T08:14:17.000Z</time>
      </trkpt>
      <trkpt lat="41.827019" lon="22.98904">
        <ele>1177.3</ele>
        <time>2026-05-06T08:14:18.000Z</time>
      </trkpt>
      <trkpt lat="41.827003" lon="22.989044">
        <ele>1177.3</ele>
        <time>2026-05-06T08:14:19.000Z</time>
      </trkpt>
      <trkpt lat="41.826986" lon="22.989047">
        <ele>1177.3</ele>
        <time>2026-05-06T08:14:20.000Z</time>
      </trkpt>
      <trkpt lat="41.826969" lon="22.989049">
        <ele>1177.3</ele>
        <time>2026-05-06T08:14:21.000Z</time>
      </trkpt>
      <trkpt lat="41.826952" lon="22.989051">
        <ele>1176.6</ele>
        <time>2026-05-06T08:14:22.000Z</time>
      </trkpt>
      <trkpt lat="41.826936" lon="22.989053">
        <ele>1176.6</ele>
        <time>2026-05-06T08:14:23.000Z</time>
      </trkpt>
      <trkpt lat="41.826921" lon="22.989055">
        <ele>1176.6</ele>
        <time>2026-05-06T08:14:24.000Z</time>
      </trkpt>
      <trkpt lat="41.826906" lon="22.989057">
        <ele>1176.6</ele>
        <time>2026-05-06T08:14:25.000Z</time>
      </trkpt>
      <trkpt lat="41.826891" lon="22.989059">
        <ele>1176.6</ele>
        <time>2026-05-06T08:14:26.000Z</time>
      </trkpt>
      <trkpt lat="41.826876" lon="22.989062">
        <ele>1176.3</ele>
        <time>2026-05-06T08:14:27.000Z</time>
      </trkpt>
      <trkpt lat="41.826862" lon="22.989066">
        <ele>1176.3</ele>
        <time>2026-05-06T08:14:28.000Z</time>
      </trkpt>
      <trkpt lat="41.826847" lon="22.98907">
        <ele>1176.3</ele>
        <time>2026-05-06T08:14:29.000Z</time>
      </trkpt>
      <trkpt lat="41.826831" lon="22.989074">
        <ele>1176.3</ele>
        <time>2026-05-06T08:14:30.000Z</time>
      </trkpt>
      <trkpt lat="41.826816" lon="22.989077">
        <ele>1176.3</ele>
        <time>2026-05-06T08:14:31.000Z</time>
      </trkpt>
      <trkpt lat="41.8268" lon="22.98908">
        <ele>1175.5</ele>
        <time>2026-05-06T08:14:32.000Z</time>
      </trkpt>
      <trkpt lat="41.826784" lon="22.989082">
        <ele>1175.5</ele>
        <time>2026-05-06T08:14:33.000Z</time>
      </trkpt>
      <trkpt lat="41.826769" lon="22.989084">
        <ele>1175.5</ele>
        <time>2026-05-06T08:14:34.000Z</time>
      </trkpt>
      <trkpt lat="41.826754" lon="22.989088">
        <ele>1175.5</ele>
        <time>2026-05-06T08:14:35.000Z</time>
      </trkpt>
      <trkpt lat="41.82674" lon="22.989091">
        <ele>1175.5</ele>
        <time>2026-05-06T08:14:36.000Z</time>
      </trkpt>
      <trkpt lat="41.826727" lon="22.989095">
        <ele>1174.6</ele>
        <time>2026-05-06T08:14:37.000Z</time>
      </trkpt>
      <trkpt lat="41.826714" lon="22.989099">
        <ele>1174.6</ele>
        <time>2026-05-06T08:14:38.000Z</time>
      </trkpt>
      <trkpt lat="41.826701" lon="22.989104">
        <ele>1174.6</ele>
        <time>2026-05-06T08:14:39.000Z</time>
      </trkpt>
      <trkpt lat="41.826687" lon="22.989107">
        <ele>1174.6</ele>
        <time>2026-05-06T08:14:40.000Z</time>
      </trkpt>
      <trkpt lat="41.826673" lon="22.98911">
        <ele>1174.6</ele>
        <time>2026-05-06T08:14:41.000Z</time>
      </trkpt>
      <trkpt lat="41.826658" lon="22.989113">
        <ele>1174.2</ele>
        <time>2026-05-06T08:14:42.000Z</time>
      </trkpt>
      <trkpt lat="41.826643" lon="22.989116">
        <ele>1174.2</ele>
        <time>2026-05-06T08:14:43.000Z</time>
      </trkpt>
      <trkpt lat="41.826628" lon="22.989119">
        <ele>1174.2</ele>
        <time>2026-05-06T08:14:44.000Z</time>
      </trkpt>
      <trkpt lat="41.826615" lon="22.989123">
        <ele>1174.2</ele>
        <time>2026-05-06T08:14:45.000Z</time>
      </trkpt>
      <trkpt lat="41.826602" lon="22.989127">
        <ele>1174.2</ele>
        <time>2026-05-06T08:14:46.000Z</time>
      </trkpt>
      <trkpt lat="41.826588" lon="22.98913">
        <ele>1173.4</ele>
        <time>2026-05-06T08:14:47.000Z</time>
      </trkpt>
      <trkpt lat="41.826575" lon="22.989132">
        <ele>1173.4</ele>
        <time>2026-05-06T08:14:48.000Z</time>
      </trkpt>
      <trkpt lat="41.82656" lon="22.989132">
        <ele>1173.4</ele>
        <time>2026-05-06T08:14:49.000Z</time>
      </trkpt>
      <trkpt lat="41.826545" lon="22.989133">
        <ele>1173.4</ele>
        <time>2026-05-06T08:14:50.000Z</time>
      </trkpt>
      <trkpt lat="41.826529" lon="22.989133">
        <ele>1173.4</ele>
        <time>2026-05-06T08:14:51.000Z</time>
      </trkpt>
      <trkpt lat="41.826512" lon="22.989133">
        <ele>1172.5</ele>
        <time>2026-05-06T08:14:52.000Z</time>
      </trkpt>
      <trkpt lat="41.826495" lon="22.989132">
        <ele>1172.5</ele>
        <time>2026-05-06T08:14:53.000Z</time>
      </trkpt>
      <trkpt lat="41.826479" lon="22.989131">
        <ele>1172.5</ele>
        <time>2026-05-06T08:14:54.000Z</time>
      </trkpt>
      <trkpt lat="41.826462" lon="22.989131">
        <ele>1172.5</ele>
        <time>2026-05-06T08:14:55.000Z</time>
      </trkpt>
      <trkpt lat="41.826446" lon="22.989131">
        <ele>1172.5</ele>
        <time>2026-05-06T08:14:56.000Z</time>
      </trkpt>
      <trkpt lat="41.826431" lon="22.989132">
        <ele>1171.9</ele>
        <time>2026-05-06T08:14:57.000Z</time>
      </trkpt>
      <trkpt lat="41.826416" lon="22.989135">
        <ele>1171.9</ele>
        <time>2026-05-06T08:14:58.000Z</time>
      </trkpt>
      <trkpt lat="41.826401" lon="22.989138">
        <ele>1171.9</ele>
        <time>2026-05-06T08:14:59.000Z</time>
      </trkpt>
      <trkpt lat="41.826388" lon="22.989143">
        <ele>1171.9</ele>
        <time>2026-05-06T08:15:00.000Z</time>
      </trkpt>
      <trkpt lat="41.826374" lon="22.989148">
        <ele>1171.9</ele>
        <time>2026-05-06T08:15:01.000Z</time>
      </trkpt>
      <trkpt lat="41.82636" lon="22.989155">
        <ele>1170.7</ele>
        <time>2026-05-06T08:15:02.000Z</time>
      </trkpt>
      <trkpt lat="41.826346" lon="22.989163">
        <ele>1170.7</ele>
        <time>2026-05-06T08:15:03.000Z</time>
      </trkpt>
      <trkpt lat="41.826332" lon="22.989171">
        <ele>1170.7</ele>
        <time>2026-05-06T08:15:04.000Z</time>
      </trkpt>
      <trkpt lat="41.826318" lon="22.98918">
        <ele>1170.7</ele>
        <time>2026-05-06T08:15:05.000Z</time>
      </trkpt>
      <trkpt lat="41.826303" lon="22.989188">
        <ele>1170.7</ele>
        <time>2026-05-06T08:15:06.000Z</time>
      </trkpt>
      <trkpt lat="41.826288" lon="22.989194">
        <ele>1169.4</ele>
        <time>2026-05-06T08:15:07.000Z</time>
      </trkpt>
      <trkpt lat="41.826273" lon="22.989198">
        <ele>1169.4</ele>
        <time>2026-05-06T08:15:08.000Z</time>
      </trkpt>
      <trkpt lat="41.826258" lon="22.989201">
        <ele>1169.4</ele>
        <time>2026-05-06T08:15:09.000Z</time>
      </trkpt>
      <trkpt lat="41.826243" lon="22.989203">
        <ele>1169.4</ele>
        <time>2026-05-06T08:15:10.000Z</time>
      </trkpt>
      <trkpt lat="41.826229" lon="22.989205">
        <ele>1169.4</ele>
        <time>2026-05-06T08:15:11.000Z</time>
      </trkpt>
      <trkpt lat="41.826215" lon="22.989208">
        <ele>1168.8</ele>
        <time>2026-05-06T08:15:12.000Z</time>
      </trkpt>
      <trkpt lat="41.826202" lon="22.989212">
        <ele>1168.8</ele>
        <time>2026-05-06T08:15:13.000Z</time>
      </trkpt>
      <trkpt lat="41.826188" lon="22.989217">
        <ele>1168.8</ele>
        <time>2026-05-06T08:15:14.000Z</time>
      </trkpt>
      <trkpt lat="41.826174" lon="22.989222">
        <ele>1168.8</ele>
        <time>2026-05-06T08:15:15.000Z</time>
      </trkpt>
      <trkpt lat="41.82616" lon="22.989228">
        <ele>1168.8</ele>
        <time>2026-05-06T08:15:16.000Z</time>
      </trkpt>
      <trkpt lat="41.826146" lon="22.989233">
        <ele>1167.7</ele>
        <time>2026-05-06T08:15:17.000Z</time>
      </trkpt>
      <trkpt lat="41.826133" lon="22.98924">
        <ele>1167.7</ele>
        <time>2026-05-06T08:15:18.000Z</time>
      </trkpt>
      <trkpt lat="41.826122" lon="22.989248">
        <ele>1167.7</ele>
        <time>2026-05-06T08:15:19.000Z</time>
      </trkpt>
      <trkpt lat="41.826111" lon="22.989258">
        <ele>1167.7</ele>
        <time>2026-05-06T08:15:20.000Z</time>
      </trkpt>
      <trkpt lat="41.8261" lon="22.989268">
        <ele>1167.7</ele>
        <time>2026-05-06T08:15:21.000Z</time>
      </trkpt>
      <trkpt lat="41.826088" lon="22.989278">
        <ele>1166.7</ele>
        <time>2026-05-06T08:15:22.000Z</time>
      </trkpt>
      <trkpt lat="41.826075" lon="22.989286">
        <ele>1166.7</ele>
        <time>2026-05-06T08:15:23.000Z</time>
      </trkpt>
      <trkpt lat="41.826061" lon="22.989292">
        <ele>1166.7</ele>
        <time>2026-05-06T08:15:24.000Z</time>
      </trkpt>
      <trkpt lat="41.826048" lon="22.989293">
        <ele>1166.7</ele>
        <time>2026-05-06T08:15:25.000Z</time>
      </trkpt>
      <trkpt lat="41.826034" lon="22.989294">
        <ele>1166.7</ele>
        <time>2026-05-06T08:15:26.000Z</time>
      </trkpt>
      <trkpt lat="41.826021" lon="22.989294">
        <ele>1166.4</ele>
        <time>2026-05-06T08:15:27.000Z</time>
      </trkpt>
      <trkpt lat="41.826008" lon="22.989294">
        <ele>1166.4</ele>
        <time>2026-05-06T08:15:28.000Z</time>
      </trkpt>
      <trkpt lat="41.825994" lon="22.989295">
        <ele>1166.4</ele>
        <time>2026-05-06T08:15:29.000Z</time>
      </trkpt>
      <trkpt lat="41.825979" lon="22.989296">
        <ele>1166.4</ele>
        <time>2026-05-06T08:15:30.000Z</time>
      </trkpt>
      <trkpt lat="41.825963" lon="22.989297">
        <ele>1166.4</ele>
        <time>2026-05-06T08:15:31.000Z</time>
      </trkpt>
      <trkpt lat="41.825947" lon="22.989297">
        <ele>1165.9</ele>
        <time>2026-05-06T08:15:32.000Z</time>
      </trkpt>
      <trkpt lat="41.825932" lon="22.989295">
        <ele>1165.9</ele>
        <time>2026-05-06T08:15:33.000Z</time>
      </trkpt>
      <trkpt lat="41.825916" lon="22.989294">
        <ele>1165.9</ele>
        <time>2026-05-06T08:15:34.000Z</time>
      </trkpt>
      <trkpt lat="41.825901" lon="22.989293">
        <ele>1165.9</ele>
        <time>2026-05-06T08:15:35.000Z</time>
      </trkpt>
      <trkpt lat="41.825887" lon="22.989293">
        <ele>1165.9</ele>
        <time>2026-05-06T08:15:36.000Z</time>
      </trkpt>
      <trkpt lat="41.825872" lon="22.989294">
        <ele>1165.7</ele>
        <time>2026-05-06T08:15:37.000Z</time>
      </trkpt>
      <trkpt lat="41.825856" lon="22.989295">
        <ele>1165.7</ele>
        <time>2026-05-06T08:15:38.000Z</time>
      </trkpt>
      <trkpt lat="41.825841" lon="22.989295">
        <ele>1165.7</ele>
        <time>2026-05-06T08:15:39.000Z</time>
      </trkpt>
      <trkpt lat="41.825825" lon="22.989294">
        <ele>1165.7</ele>
        <time>2026-05-06T08:15:40.000Z</time>
      </trkpt>
      <trkpt lat="41.82581" lon="22.989293">
        <ele>1165.7</ele>
        <time>2026-05-06T08:15:41.000Z</time>
      </trkpt>
      <trkpt lat="41.825794" lon="22.989291">
        <ele>1165.8</ele>
        <time>2026-05-06T08:15:42.000Z</time>
      </trkpt>
      <trkpt lat="41.825778" lon="22.989289">
        <ele>1165.8</ele>
        <time>2026-05-06T08:15:43.000Z</time>
      </trkpt>
      <trkpt lat="41.825763" lon="22.989288">
        <ele>1165.8</ele>
        <time>2026-05-06T08:15:44.000Z</time>
      </trkpt>
      <trkpt lat="41.825748" lon="22.989285">
        <ele>1165.8</ele>
        <time>2026-05-06T08:15:45.000Z</time>
      </trkpt>
      <trkpt lat="41.825733" lon="22.989281">
        <ele>1165.8</ele>
        <time>2026-05-06T08:15:46.000Z</time>
      </trkpt>
      <trkpt lat="41.82572" lon="22.989275">
        <ele>1166</ele>
        <time>2026-05-06T08:15:47.000Z</time>
      </trkpt>
      <trkpt lat="41.825706" lon="22.989269">
        <ele>1166</ele>
        <time>2026-05-06T08:15:48.000Z</time>
      </trkpt>
      <trkpt lat="41.825692" lon="22.989262">
        <ele>1166</ele>
        <time>2026-05-06T08:15:49.000Z</time>
      </trkpt>
      <trkpt lat="41.825678" lon="22.989257">
        <ele>1166</ele>
        <time>2026-05-06T08:15:50.000Z</time>
      </trkpt>
      <trkpt lat="41.825665" lon="22.989252">
        <ele>1166</ele>
        <time>2026-05-06T08:15:51.000Z</time>
      </trkpt>
      <trkpt lat="41.825651" lon="22.989247">
        <ele>1166.2</ele>
        <time>2026-05-06T08:15:52.000Z</time>
      </trkpt>
      <trkpt lat="41.825638" lon="22.989243">
        <ele>1166.2</ele>
        <time>2026-05-06T08:15:53.000Z</time>
      </trkpt>
      <trkpt lat="41.825624" lon="22.989237">
        <ele>1166.2</ele>
        <time>2026-05-06T08:15:54.000Z</time>
      </trkpt>
      <trkpt lat="41.82561" lon="22.98923">
        <ele>1166.2</ele>
        <time>2026-05-06T08:15:55.000Z</time>
      </trkpt>
      <trkpt lat="41.825597" lon="22.989224">
        <ele>1166.2</ele>
        <time>2026-05-06T08:15:56.000Z</time>
      </trkpt>
      <trkpt lat="41.825583" lon="22.989218">
        <ele>1166.3</ele>
        <time>2026-05-06T08:15:57.000Z</time>
      </trkpt>
      <trkpt lat="41.82557" lon="22.989213">
        <ele>1166.3</ele>
        <time>2026-05-06T08:15:58.000Z</time>
      </trkpt>
      <trkpt lat="41.825557" lon="22.98921">
        <ele>1166.3</ele>
        <time>2026-05-06T08:15:59.000Z</time>
      </trkpt>
      <trkpt lat="41.825544" lon="22.989206">
        <ele>1166.3</ele>
        <time>2026-05-06T08:16:00.000Z</time>
      </trkpt>
      <trkpt lat="41.825532" lon="22.989202">
        <ele>1166.3</ele>
        <time>2026-05-06T08:16:01.000Z</time>
      </trkpt>
      <trkpt lat="41.825519" lon="22.989199">
        <ele>1166.5</ele>
        <time>2026-05-06T08:16:02.000Z</time>
      </trkpt>
      <trkpt lat="41.825507" lon="22.989197">
        <ele>1166.5</ele>
        <time>2026-05-06T08:16:03.000Z</time>
      </trkpt>
      <trkpt lat="41.825495" lon="22.989196">
        <ele>1166.5</ele>
        <time>2026-05-06T08:16:04.000Z</time>
      </trkpt>
      <trkpt lat="41.825483" lon="22.989197">
        <ele>1166.5</ele>
        <time>2026-05-06T08:16:05.000Z</time>
      </trkpt>
      <trkpt lat="41.825471" lon="22.989199">
        <ele>1166.5</ele>
        <time>2026-05-06T08:16:06.000Z</time>
      </trkpt>
      <trkpt lat="41.82546" lon="22.989201">
        <ele>1166.8</ele>
        <time>2026-05-06T08:16:07.000Z</time>
      </trkpt>
      <trkpt lat="41.825448" lon="22.989204">
        <ele>1166.8</ele>
        <time>2026-05-06T08:16:08.000Z</time>
      </trkpt>
      <trkpt lat="41.825436" lon="22.989207">
        <ele>1166.8</ele>
        <time>2026-05-06T08:16:09.000Z</time>
      </trkpt>
      <trkpt lat="41.825423" lon="22.989211">
        <ele>1166.8</ele>
        <time>2026-05-06T08:16:10.000Z</time>
      </trkpt>
      <trkpt lat="41.82541" lon="22.989215">
        <ele>1166.8</ele>
        <time>2026-05-06T08:16:11.000Z</time>
      </trkpt>
      <trkpt lat="41.825396" lon="22.989218">
        <ele>1167.2</ele>
        <time>2026-05-06T08:16:12.000Z</time>
      </trkpt>
      <trkpt lat="41.825382" lon="22.989223">
        <ele>1167.2</ele>
        <time>2026-05-06T08:16:13.000Z</time>
      </trkpt>
      <trkpt lat="41.825368" lon="22.989227">
        <ele>1167.2</ele>
        <time>2026-05-06T08:16:14.000Z</time>
      </trkpt>
      <trkpt lat="41.825354" lon="22.989232">
        <ele>1167.2</ele>
        <time>2026-05-06T08:16:15.000Z</time>
      </trkpt>
      <trkpt lat="41.825341" lon="22.989238">
        <ele>1167.2</ele>
        <time>2026-05-06T08:16:16.000Z</time>
      </trkpt>
      <trkpt lat="41.825327" lon="22.989243">
        <ele>1168.2</ele>
        <time>2026-05-06T08:16:17.000Z</time>
      </trkpt>
      <trkpt lat="41.825314" lon="22.989249">
        <ele>1168.2</ele>
        <time>2026-05-06T08:16:18.000Z</time>
      </trkpt>
      <trkpt lat="41.8253" lon="22.989255">
        <ele>1168.2</ele>
        <time>2026-05-06T08:16:19.000Z</time>
      </trkpt>
      <trkpt lat="41.825286" lon="22.989261">
        <ele>1168.2</ele>
        <time>2026-05-06T08:16:20.000Z</time>
      </trkpt>
      <trkpt lat="41.825273" lon="22.989269">
        <ele>1168.2</ele>
        <time>2026-05-06T08:16:21.000Z</time>
      </trkpt>
      <trkpt lat="41.82526" lon="22.989278">
        <ele>1169.3</ele>
        <time>2026-05-06T08:16:22.000Z</time>
      </trkpt>
      <trkpt lat="41.825247" lon="22.989288">
        <ele>1169.3</ele>
        <time>2026-05-06T08:16:23.000Z</time>
      </trkpt>
      <trkpt lat="41.825235" lon="22.9893">
        <ele>1169.3</ele>
        <time>2026-05-06T08:16:24.000Z</time>
      </trkpt>
      <trkpt lat="41.825223" lon="22.989311">
        <ele>1169.3</ele>
        <time>2026-05-06T08:16:25.000Z</time>
      </trkpt>
      <trkpt lat="41.825211" lon="22.989322">
        <ele>1169.3</ele>
        <time>2026-05-06T08:16:26.000Z</time>
      </trkpt>
      <trkpt lat="41.825198" lon="22.989335">
        <ele>1169.8</ele>
        <time>2026-05-06T08:16:27.000Z</time>
      </trkpt>
      <trkpt lat="41.825186" lon="22.989348">
        <ele>1169.8</ele>
        <time>2026-05-06T08:16:28.000Z</time>
      </trkpt>
      <trkpt lat="41.825174" lon="22.98936">
        <ele>1169.8</ele>
        <time>2026-05-06T08:16:29.000Z</time>
      </trkpt>
      <trkpt lat="41.825163" lon="22.989372">
        <ele>1169.8</ele>
        <time>2026-05-06T08:16:30.000Z</time>
      </trkpt>
      <trkpt lat="41.82515" lon="22.989383">
        <ele>1169.8</ele>
        <time>2026-05-06T08:16:31.000Z</time>
      </trkpt>
      <trkpt lat="41.825138" lon="22.989393">
        <ele>1170.4</ele>
        <time>2026-05-06T08:16:32.000Z</time>
      </trkpt>
      <trkpt lat="41.825124" lon="22.989402">
        <ele>1170.4</ele>
        <time>2026-05-06T08:16:33.000Z</time>
      </trkpt>
      <trkpt lat="41.82511" lon="22.989409">
        <ele>1170.4</ele>
        <time>2026-05-06T08:16:34.000Z</time>
      </trkpt>
      <trkpt lat="41.825097" lon="22.989416">
        <ele>1170.4</ele>
        <time>2026-05-06T08:16:35.000Z</time>
      </trkpt>
      <trkpt lat="41.825085" lon="22.989423">
        <ele>1170.4</ele>
        <time>2026-05-06T08:16:36.000Z</time>
      </trkpt>
      <trkpt lat="41.825073" lon="22.989429">
        <ele>1170.8</ele>
        <time>2026-05-06T08:16:37.000Z</time>
      </trkpt>
      <trkpt lat="41.82506" lon="22.989435">
        <ele>1170.8</ele>
        <time>2026-05-06T08:16:38.000Z</time>
      </trkpt>
      <trkpt lat="41.825048" lon="22.989442">
        <ele>1170.8</ele>
        <time>2026-05-06T08:16:39.000Z</time>
      </trkpt>
      <trkpt lat="41.825034" lon="22.989449">
        <ele>1170.8</ele>
        <time>2026-05-06T08:16:40.000Z</time>
      </trkpt>
      <trkpt lat="41.82502" lon="22.989457">
        <ele>1170.8</ele>
        <time>2026-05-06T08:16:41.000Z</time>
      </trkpt>
      <trkpt lat="41.825005" lon="22.989465">
        <ele>1171</ele>
        <time>2026-05-06T08:16:42.000Z</time>
      </trkpt>
      <trkpt lat="41.82499" lon="22.989472">
        <ele>1171</ele>
        <time>2026-05-06T08:16:43.000Z</time>
      </trkpt>
      <trkpt lat="41.824975" lon="22.989479">
        <ele>1171</ele>
        <time>2026-05-06T08:16:44.000Z</time>
      </trkpt>
      <trkpt lat="41.824962" lon="22.989484">
        <ele>1171</ele>
        <time>2026-05-06T08:16:45.000Z</time>
      </trkpt>
      <trkpt lat="41.824947" lon="22.98949">
        <ele>1171</ele>
        <time>2026-05-06T08:16:46.000Z</time>
      </trkpt>
      <trkpt lat="41.824933" lon="22.989496">
        <ele>1171.3</ele>
        <time>2026-05-06T08:16:47.000Z</time>
      </trkpt>
      <trkpt lat="41.82492" lon="22.989502">
        <ele>1171.3</ele>
        <time>2026-05-06T08:16:48.000Z</time>
      </trkpt>
      <trkpt lat="41.824906" lon="22.989509">
        <ele>1171.3</ele>
        <time>2026-05-06T08:16:49.000Z</time>
      </trkpt>
      <trkpt lat="41.824893" lon="22.989515">
        <ele>1171.3</ele>
        <time>2026-05-06T08:16:50.000Z</time>
      </trkpt>
      <trkpt lat="41.82488" lon="22.989521">
        <ele>1171.3</ele>
        <time>2026-05-06T08:16:51.000Z</time>
      </trkpt>
      <trkpt lat="41.824867" lon="22.989526">
        <ele>1171.5</ele>
        <time>2026-05-06T08:16:52.000Z</time>
      </trkpt>
      <trkpt lat="41.824854" lon="22.989531">
        <ele>1171.5</ele>
        <time>2026-05-06T08:16:53.000Z</time>
      </trkpt>
      <trkpt lat="41.824841" lon="22.989536">
        <ele>1171.5</ele>
        <time>2026-05-06T08:16:54.000Z</time>
      </trkpt>
      <trkpt lat="41.824827" lon="22.989541">
        <ele>1171.5</ele>
        <time>2026-05-06T08:16:55.000Z</time>
      </trkpt>
      <trkpt lat="41.824813" lon="22.989548">
        <ele>1171.5</ele>
        <time>2026-05-06T08:16:56.000Z</time>
      </trkpt>
      <trkpt lat="41.8248" lon="22.989554">
        <ele>1171.7</ele>
        <time>2026-05-06T08:16:57.000Z</time>
      </trkpt>
      <trkpt lat="41.824787" lon="22.989561">
        <ele>1171.7</ele>
        <time>2026-05-06T08:16:58.000Z</time>
      </trkpt>
      <trkpt lat="41.824773" lon="22.989567">
        <ele>1171.7</ele>
        <time>2026-05-06T08:16:59.000Z</time>
      </trkpt>
      <trkpt lat="41.824759" lon="22.989574">
        <ele>1171.7</ele>
        <time>2026-05-06T08:17:00.000Z</time>
      </trkpt>
      <trkpt lat="41.824745" lon="22.989581">
        <ele>1171.7</ele>
        <time>2026-05-06T08:17:01.000Z</time>
      </trkpt>
      <trkpt lat="41.824731" lon="22.989587">
        <ele>1172.2</ele>
        <time>2026-05-06T08:17:02.000Z</time>
      </trkpt>
      <trkpt lat="41.824718" lon="22.989595">
        <ele>1172.2</ele>
        <time>2026-05-06T08:17:03.000Z</time>
      </trkpt>
      <trkpt lat="41.824704" lon="22.989603">
        <ele>1172.2</ele>
        <time>2026-05-06T08:17:04.000Z</time>
      </trkpt>
      <trkpt lat="41.82469" lon="22.989611">
        <ele>1172.2</ele>
        <time>2026-05-06T08:17:05.000Z</time>
      </trkpt>
      <trkpt lat="41.824677" lon="22.989619">
        <ele>1172.2</ele>
        <time>2026-05-06T08:17:06.000Z</time>
      </trkpt>
      <trkpt lat="41.824663" lon="22.989627">
        <ele>1172.9</ele>
        <time>2026-05-06T08:17:07.000Z</time>
      </trkpt>
      <trkpt lat="41.82465" lon="22.989636">
        <ele>1172.9</ele>
        <time>2026-05-06T08:17:08.000Z</time>
      </trkpt>
      <trkpt lat="41.824637" lon="22.989646">
        <ele>1172.9</ele>
        <time>2026-05-06T08:17:09.000Z</time>
      </trkpt>
      <trkpt lat="41.824626" lon="22.989657">
        <ele>1172.9</ele>
        <time>2026-05-06T08:17:10.000Z</time>
      </trkpt>
      <trkpt lat="41.824615" lon="22.989671">
        <ele>1172.9</ele>
        <time>2026-05-06T08:17:11.000Z</time>
      </trkpt>
      <trkpt lat="41.824604" lon="22.989685">
        <ele>1173.4</ele>
        <time>2026-05-06T08:17:12.000Z</time>
      </trkpt>
      <trkpt lat="41.824593" lon="22.989698">
        <ele>1173.4</ele>
        <time>2026-05-06T08:17:13.000Z</time>
      </trkpt>
      <trkpt lat="41.82458" lon="22.98971">
        <ele>1173.4</ele>
        <time>2026-05-06T08:17:14.000Z</time>
      </trkpt>
      <trkpt lat="41.824567" lon="22.98972">
        <ele>1173.4</ele>
        <time>2026-05-06T08:17:15.000Z</time>
      </trkpt>
      <trkpt lat="41.824553" lon="22.989729">
        <ele>1173.4</ele>
        <time>2026-05-06T08:17:16.000Z</time>
      </trkpt>
      <trkpt lat="41.824539" lon="22.989736">
        <ele>1174</ele>
        <time>2026-05-06T08:17:17.000Z</time>
      </trkpt>
      <trkpt lat="41.824525" lon="22.989744">
        <ele>1174</ele>
        <time>2026-05-06T08:17:18.000Z</time>
      </trkpt>
      <trkpt lat="41.824512" lon="22.989752">
        <ele>1174</ele>
        <time>2026-05-06T08:17:19.000Z</time>
      </trkpt>
      <trkpt lat="41.824498" lon="22.989761">
        <ele>1174</ele>
        <time>2026-05-06T08:17:20.000Z</time>
      </trkpt>
      <trkpt lat="41.824485" lon="22.989768">
        <ele>1174</ele>
        <time>2026-05-06T08:17:21.000Z</time>
      </trkpt>
      <trkpt lat="41.824473" lon="22.989776">
        <ele>1174.5</ele>
        <time>2026-05-06T08:17:22.000Z</time>
      </trkpt>
      <trkpt lat="41.824465" lon="22.989782">
        <ele>1174.5</ele>
        <time>2026-05-06T08:17:23.000Z</time>
      </trkpt>
      <trkpt lat="41.82446" lon="22.989788">
        <ele>1174.5</ele>
        <time>2026-05-06T08:17:24.000Z</time>
      </trkpt>
      <trkpt lat="41.824458" lon="22.98979">
        <ele>1174.5</ele>
        <time>2026-05-06T08:17:25.000Z</time>
      </trkpt>
      <trkpt lat="41.824459" lon="22.989792">
        <ele>1174.5</ele>
        <time>2026-05-06T08:17:26.000Z</time>
      </trkpt>
      <trkpt lat="41.824461" lon="22.989793">
        <ele>1174.8</ele>
        <time>2026-05-06T08:17:27.000Z</time>
      </trkpt>
      <trkpt lat="41.824461" lon="22.989793">
        <ele>1174.8</ele>
        <time>2026-05-06T08:17:28.000Z</time>
      </trkpt>
      <trkpt lat="41.824461" lon="22.989793">
        <ele>1174.8</ele>
        <time>2026-05-06T08:17:29.000Z</time>
      </trkpt>
      <trkpt lat="41.824461" lon="22.989794">
        <ele>1174.8</ele>
        <time>2026-05-06T08:17:30.000Z</time>
      </trkpt>
      <trkpt lat="41.82446" lon="22.989794">
        <ele>1174.8</ele>
        <time>2026-05-06T08:17:31.000Z</time>
      </trkpt>
      <trkpt lat="41.824459" lon="22.989795">
        <ele>1175.4</ele>
        <time>2026-05-06T08:17:32.000Z</time>
      </trkpt>
      <trkpt lat="41.824458" lon="22.989796">
        <ele>1175.4</ele>
        <time>2026-05-06T08:17:33.000Z</time>
      </trkpt>
      <trkpt lat="41.824457" lon="22.989798">
        <ele>1175.4</ele>
        <time>2026-05-06T08:17:34.000Z</time>
      </trkpt>
      <trkpt lat="41.824453" lon="22.989803">
        <ele>1175.4</ele>
        <time>2026-05-06T08:17:35.000Z</time>
      </trkpt>
      <trkpt lat="41.824446" lon="22.989807">
        <ele>1175.4</ele>
        <time>2026-05-06T08:17:36.000Z</time>
      </trkpt>
      <trkpt lat="41.824436" lon="22.989814">
        <ele>1175.8</ele>
        <time>2026-05-06T08:17:37.000Z</time>
      </trkpt>
      <trkpt lat="41.824425" lon="22.989821">
        <ele>1175.8</ele>
        <time>2026-05-06T08:17:38.000Z</time>
      </trkpt>
      <trkpt lat="41.824413" lon="22.989828">
        <ele>1175.8</ele>
        <time>2026-05-06T08:17:39.000Z</time>
      </trkpt>
      <trkpt lat="41.824401" lon="22.989835">
        <ele>1175.8</ele>
        <time>2026-05-06T08:17:40.000Z</time>
      </trkpt>
      <trkpt lat="41.824388" lon="22.989843">
        <ele>1175.8</ele>
        <time>2026-05-06T08:17:41.000Z</time>
      </trkpt>
      <trkpt lat="41.824376" lon="22.98985">
        <ele>1175.9</ele>
        <time>2026-05-06T08:17:42.000Z</time>
      </trkpt>
      <trkpt lat="41.824362" lon="22.989855">
        <ele>1175.9</ele>
        <time>2026-05-06T08:17:43.000Z</time>
      </trkpt>
      <trkpt lat="41.824348" lon="22.989859">
        <ele>1175.9</ele>
        <time>2026-05-06T08:17:44.000Z</time>
      </trkpt>
      <trkpt lat="41.824333" lon="22.989861">
        <ele>1175.9</ele>
        <time>2026-05-06T08:17:45.000Z</time>
      </trkpt>
      <trkpt lat="41.824317" lon="22.989861">
        <ele>1175.9</ele>
        <time>2026-05-06T08:17:46.000Z</time>
      </trkpt>
      <trkpt lat="41.824303" lon="22.98986">
        <ele>1176.1</ele>
        <time>2026-05-06T08:17:47.000Z</time>
      </trkpt>
      <trkpt lat="41.824288" lon="22.989859">
        <ele>1176.1</ele>
        <time>2026-05-06T08:17:48.000Z</time>
      </trkpt>
      <trkpt lat="41.824273" lon="22.989857">
        <ele>1176.1</ele>
        <time>2026-05-06T08:17:49.000Z</time>
      </trkpt>
      <trkpt lat="41.824259" lon="22.989855">
        <ele>1176.1</ele>
        <time>2026-05-06T08:17:50.000Z</time>
      </trkpt>
      <trkpt lat="41.824245" lon="22.989852">
        <ele>1176.1</ele>
        <time>2026-05-06T08:17:51.000Z</time>
      </trkpt>
      <trkpt lat="41.824231" lon="22.989848">
        <ele>1176.5</ele>
        <time>2026-05-06T08:17:52.000Z</time>
      </trkpt>
      <trkpt lat="41.824218" lon="22.989843">
        <ele>1176.5</ele>
        <time>2026-05-06T08:17:53.000Z</time>
      </trkpt>
      <trkpt lat="41.824206" lon="22.989836">
        <ele>1176.5</ele>
        <time>2026-05-06T08:17:54.000Z</time>
      </trkpt>
      <trkpt lat="41.824195" lon="22.989829">
        <ele>1176.5</ele>
        <time>2026-05-06T08:17:55.000Z</time>
      </trkpt>
      <trkpt lat="41.824185" lon="22.98982">
        <ele>1176.5</ele>
        <time>2026-05-06T08:17:56.000Z</time>
      </trkpt>
      <trkpt lat="41.824173" lon="22.989812">
        <ele>1176.7</ele>
        <time>2026-05-06T08:17:57.000Z</time>
      </trkpt>
      <trkpt lat="41.824162" lon="22.989803">
        <ele>1176.7</ele>
        <time>2026-05-06T08:17:58.000Z</time>
      </trkpt>
      <trkpt lat="41.824151" lon="22.989796">
        <ele>1176.7</ele>
        <time>2026-05-06T08:17:59.000Z</time>
      </trkpt>
      <trkpt lat="41.824139" lon="22.989788">
        <ele>1176.7</ele>
        <time>2026-05-06T08:18:00.000Z</time>
      </trkpt>
      <trkpt lat="41.824125" lon="22.989782">
        <ele>1176.7</ele>
        <time>2026-05-06T08:18:01.000Z</time>
      </trkpt>
      <trkpt lat="41.824111" lon="22.989777">
        <ele>1177.2</ele>
        <time>2026-05-06T08:18:02.000Z</time>
      </trkpt>
      <trkpt lat="41.824097" lon="22.989771">
        <ele>1177.2</ele>
        <time>2026-05-06T08:18:03.000Z</time>
      </trkpt>
      <trkpt lat="41.824083" lon="22.989767">
        <ele>1177.2</ele>
        <time>2026-05-06T08:18:04.000Z</time>
      </trkpt>
      <trkpt lat="41.824069" lon="22.989763">
        <ele>1177.2</ele>
        <time>2026-05-06T08:18:05.000Z</time>
      </trkpt>
      <trkpt lat="41.824057" lon="22.98976">
        <ele>1177.2</ele>
        <time>2026-05-06T08:18:06.000Z</time>
      </trkpt>
      <trkpt lat="41.824045" lon="22.989758">
        <ele>1177.6</ele>
        <time>2026-05-06T08:18:07.000Z</time>
      </trkpt>
      <trkpt lat="41.824032" lon="22.989757">
        <ele>1177.6</ele>
        <time>2026-05-06T08:18:08.000Z</time>
      </trkpt>
      <trkpt lat="41.82402" lon="22.989754">
        <ele>1177.6</ele>
        <time>2026-05-06T08:18:09.000Z</time>
      </trkpt>
      <trkpt lat="41.824007" lon="22.989752">
        <ele>1177.6</ele>
        <time>2026-05-06T08:18:10.000Z</time>
      </trkpt>
      <trkpt lat="41.823993" lon="22.989749">
        <ele>1177.6</ele>
        <time>2026-05-06T08:18:11.000Z</time>
      </trkpt>
      <trkpt lat="41.823978" lon="22.989745">
        <ele>1177.9</ele>
        <time>2026-05-06T08:18:12.000Z</time>
      </trkpt>
      <trkpt lat="41.823964" lon="22.989742">
        <ele>1177.9</ele>
        <time>2026-05-06T08:18:13.000Z</time>
      </trkpt>
      <trkpt lat="41.82395" lon="22.989739">
        <ele>1177.9</ele>
        <time>2026-05-06T08:18:14.000Z</time>
      </trkpt>
      <trkpt lat="41.823937" lon="22.989737">
        <ele>1177.9</ele>
        <time>2026-05-06T08:18:15.000Z</time>
      </trkpt>
      <trkpt lat="41.823923" lon="22.989737">
        <ele>1177.9</ele>
        <time>2026-05-06T08:18:16.000Z</time>
      </trkpt>
      <trkpt lat="41.82391" lon="22.989738">
        <ele>1178.6</ele>
        <time>2026-05-06T08:18:17.000Z</time>
      </trkpt>
      <trkpt lat="41.823896" lon="22.989741">
        <ele>1178.6</ele>
        <time>2026-05-06T08:18:18.000Z</time>
      </trkpt>
      <trkpt lat="41.823882" lon="22.989745">
        <ele>1178.6</ele>
        <time>2026-05-06T08:18:19.000Z</time>
      </trkpt>
      <trkpt lat="41.82387" lon="22.989749">
        <ele>1178.6</ele>
        <time>2026-05-06T08:18:20.000Z</time>
      </trkpt>
      <trkpt lat="41.823859" lon="22.989755">
        <ele>1178.6</ele>
        <time>2026-05-06T08:18:21.000Z</time>
      </trkpt>
      <trkpt lat="41.823848" lon="22.989761">
        <ele>1179.6</ele>
        <time>2026-05-06T08:18:22.000Z</time>
      </trkpt>
      <trkpt lat="41.823839" lon="22.989769">
        <ele>1179.6</ele>
        <time>2026-05-06T08:18:23.000Z</time>
      </trkpt>
      <trkpt lat="41.823829" lon="22.989777">
        <ele>1179.6</ele>
        <time>2026-05-06T08:18:24.000Z</time>
      </trkpt>
      <trkpt lat="41.823819" lon="22.989785">
        <ele>1179.6</ele>
        <time>2026-05-06T08:18:25.000Z</time>
      </trkpt>
      <trkpt lat="41.823809" lon="22.989795">
        <ele>1179.6</ele>
        <time>2026-05-06T08:18:26.000Z</time>
      </trkpt>
      <trkpt lat="41.823798" lon="22.989806">
        <ele>1180.2</ele>
        <time>2026-05-06T08:18:27.000Z</time>
      </trkpt>
      <trkpt lat="41.823787" lon="22.989818">
        <ele>1180.2</ele>
        <time>2026-05-06T08:18:28.000Z</time>
      </trkpt>
      <trkpt lat="41.823776" lon="22.98983">
        <ele>1180.2</ele>
        <time>2026-05-06T08:18:29.000Z</time>
      </trkpt>
      <trkpt lat="41.823764" lon="22.989841">
        <ele>1180.2</ele>
        <time>2026-05-06T08:18:30.000Z</time>
      </trkpt>
      <trkpt lat="41.823751" lon="22.98985">
        <ele>1180.2</ele>
        <time>2026-05-06T08:18:31.000Z</time>
      </trkpt>
      <trkpt lat="41.823739" lon="22.98986">
        <ele>1181.5</ele>
        <time>2026-05-06T08:18:32.000Z</time>
      </trkpt>
      <trkpt lat="41.823727" lon="22.989868">
        <ele>1181.5</ele>
        <time>2026-05-06T08:18:33.000Z</time>
      </trkpt>
      <trkpt lat="41.823716" lon="22.989877">
        <ele>1181.5</ele>
        <time>2026-05-06T08:18:34.000Z</time>
      </trkpt>
      <trkpt lat="41.823705" lon="22.989886">
        <ele>1181.5</ele>
        <time>2026-05-06T08:18:35.000Z</time>
      </trkpt>
      <trkpt lat="41.823693" lon="22.989897">
        <ele>1181.5</ele>
        <time>2026-05-06T08:18:36.000Z</time>
      </trkpt>
      <trkpt lat="41.823682" lon="22.989908">
        <ele>1183</ele>
        <time>2026-05-06T08:18:37.000Z</time>
      </trkpt>
      <trkpt lat="41.823671" lon="22.98992">
        <ele>1183</ele>
        <time>2026-05-06T08:18:38.000Z</time>
      </trkpt>
      <trkpt lat="41.82366" lon="22.989931">
        <ele>1183</ele>
        <time>2026-05-06T08:18:39.000Z</time>
      </trkpt>
      <trkpt lat="41.82365" lon="22.989942">
        <ele>1183</ele>
        <time>2026-05-06T08:18:40.000Z</time>
      </trkpt>
      <trkpt lat="41.82364" lon="22.989952">
        <ele>1183</ele>
        <time>2026-05-06T08:18:41.000Z</time>
      </trkpt>
      <trkpt lat="41.823631" lon="22.989961">
        <ele>1183.8</ele>
        <time>2026-05-06T08:18:42.000Z</time>
      </trkpt>
      <trkpt lat="41.82362" lon="22.989969">
        <ele>1183.8</ele>
        <time>2026-05-06T08:18:43.000Z</time>
      </trkpt>
      <trkpt lat="41.823609" lon="22.989975">
        <ele>1183.8</ele>
        <time>2026-05-06T08:18:44.000Z</time>
      </trkpt>
      <trkpt lat="41.823598" lon="22.98998">
        <ele>1183.8</ele>
        <time>2026-05-06T08:18:45.000Z</time>
      </trkpt>
      <trkpt lat="41.823585" lon="22.989983">
        <ele>1183.8</ele>
        <time>2026-05-06T08:18:46.000Z</time>
      </trkpt>
      <trkpt lat="41.823571" lon="22.989986">
        <ele>1185.1</ele>
        <time>2026-05-06T08:18:47.000Z</time>
      </trkpt>
      <trkpt lat="41.823557" lon="22.989988">
        <ele>1185.1</ele>
        <time>2026-05-06T08:18:48.000Z</time>
      </trkpt>
      <trkpt lat="41.823543" lon="22.989991">
        <ele>1185.1</ele>
        <time>2026-05-06T08:18:49.000Z</time>
      </trkpt>
      <trkpt lat="41.823529" lon="22.989993">
        <ele>1185.1</ele>
        <time>2026-05-06T08:18:50.000Z</time>
      </trkpt>
      <trkpt lat="41.823517" lon="22.989995">
        <ele>1185.1</ele>
        <time>2026-05-06T08:18:51.000Z</time>
      </trkpt>
      <trkpt lat="41.823505" lon="22.989997">
        <ele>1186.3</ele>
        <time>2026-05-06T08:18:52.000Z</time>
      </trkpt>
      <trkpt lat="41.823493" lon="22.989998">
        <ele>1186.3</ele>
        <time>2026-05-06T08:18:53.000Z</time>
      </trkpt>
      <trkpt lat="41.823482" lon="22.989999">
        <ele>1186.3</ele>
        <time>2026-05-06T08:18:54.000Z</time>
      </trkpt>
      <trkpt lat="41.82347" lon="22.99">
        <ele>1186.3</ele>
        <time>2026-05-06T08:18:55.000Z</time>
      </trkpt>
      <trkpt lat="41.823459" lon="22.990003">
        <ele>1186.3</ele>
        <time>2026-05-06T08:18:56.000Z</time>
      </trkpt>
      <trkpt lat="41.823447" lon="22.990005">
        <ele>1186.8</ele>
        <time>2026-05-06T08:18:57.000Z</time>
      </trkpt>
      <trkpt lat="41.823436" lon="22.990006">
        <ele>1186.8</ele>
        <time>2026-05-06T08:18:58.000Z</time>
      </trkpt>
      <trkpt lat="41.823425" lon="22.990008">
        <ele>1186.8</ele>
        <time>2026-05-06T08:18:59.000Z</time>
      </trkpt>
      <trkpt lat="41.823413" lon="22.99001">
        <ele>1186.8</ele>
        <time>2026-05-06T08:19:00.000Z</time>
      </trkpt>
      <trkpt lat="41.823399" lon="22.990011">
        <ele>1186.8</ele>
        <time>2026-05-06T08:19:01.000Z</time>
      </trkpt>
      <trkpt lat="41.823385" lon="22.990012">
        <ele>1187.7</ele>
        <time>2026-05-06T08:19:02.000Z</time>
      </trkpt>
      <trkpt lat="41.823371" lon="22.990013">
        <ele>1187.7</ele>
        <time>2026-05-06T08:19:03.000Z</time>
      </trkpt>
      <trkpt lat="41.823358" lon="22.990015">
        <ele>1187.7</ele>
        <time>2026-05-06T08:19:04.000Z</time>
      </trkpt>
      <trkpt lat="41.823344" lon="22.990016">
        <ele>1187.7</ele>
        <time>2026-05-06T08:19:05.000Z</time>
      </trkpt>
      <trkpt lat="41.823332" lon="22.990019">
        <ele>1187.7</ele>
        <time>2026-05-06T08:19:06.000Z</time>
      </trkpt>
      <trkpt lat="41.823319" lon="22.990023">
        <ele>1188.6</ele>
        <time>2026-05-06T08:19:07.000Z</time>
      </trkpt>
      <trkpt lat="41.823306" lon="22.990026">
        <ele>1188.6</ele>
        <time>2026-05-06T08:19:08.000Z</time>
      </trkpt>
      <trkpt lat="41.823293" lon="22.990029">
        <ele>1188.6</ele>
        <time>2026-05-06T08:19:09.000Z</time>
      </trkpt>
      <trkpt lat="41.823279" lon="22.990031">
        <ele>1188.6</ele>
        <time>2026-05-06T08:19:10.000Z</time>
      </trkpt>
      <trkpt lat="41.823265" lon="22.990034">
        <ele>1188.6</ele>
        <time>2026-05-06T08:19:11.000Z</time>
      </trkpt>
      <trkpt lat="41.82325" lon="22.990035">
        <ele>1189.1</ele>
        <time>2026-05-06T08:19:12.000Z</time>
      </trkpt>
      <trkpt lat="41.823236" lon="22.990037">
        <ele>1189.1</ele>
        <time>2026-05-06T08:19:13.000Z</time>
      </trkpt>
      <trkpt lat="41.823223" lon="22.990039">
        <ele>1189.1</ele>
        <time>2026-05-06T08:19:14.000Z</time>
      </trkpt>
      <trkpt lat="41.82321" lon="22.990041">
        <ele>1189.1</ele>
        <time>2026-05-06T08:19:15.000Z</time>
      </trkpt>
      <trkpt lat="41.823197" lon="22.990043">
        <ele>1189.1</ele>
        <time>2026-05-06T08:19:16.000Z</time>
      </trkpt>
      <trkpt lat="41.823184" lon="22.990044">
        <ele>1190.1</ele>
        <time>2026-05-06T08:19:17.000Z</time>
      </trkpt>
      <trkpt lat="41.823171" lon="22.990045">
        <ele>1190.1</ele>
        <time>2026-05-06T08:19:18.000Z</time>
      </trkpt>
      <trkpt lat="41.823157" lon="22.990044">
        <ele>1190.1</ele>
        <time>2026-05-06T08:19:19.000Z</time>
      </trkpt>
      <trkpt lat="41.823144" lon="22.990044">
        <ele>1190.1</ele>
        <time>2026-05-06T08:19:20.000Z</time>
      </trkpt>
      <trkpt lat="41.823132" lon="22.990043">
        <ele>1190.1</ele>
        <time>2026-05-06T08:19:21.000Z</time>
      </trkpt>
      <trkpt lat="41.82312" lon="22.990042">
        <ele>1190.9</ele>
        <time>2026-05-06T08:19:22.000Z</time>
      </trkpt>
      <trkpt lat="41.823108" lon="22.990039">
        <ele>1190.9</ele>
        <time>2026-05-06T08:19:23.000Z</time>
      </trkpt>
      <trkpt lat="41.823095" lon="22.990036">
        <ele>1190.9</ele>
        <time>2026-05-06T08:19:24.000Z</time>
      </trkpt>
      <trkpt lat="41.823082" lon="22.990032">
        <ele>1190.9</ele>
        <time>2026-05-06T08:19:25.000Z</time>
      </trkpt>
      <trkpt lat="41.823068" lon="22.990026">
        <ele>1190.9</ele>
        <time>2026-05-06T08:19:26.000Z</time>
      </trkpt>
      <trkpt lat="41.823055" lon="22.990018">
        <ele>1191.2</ele>
        <time>2026-05-06T08:19:27.000Z</time>
      </trkpt>
      <trkpt lat="41.823043" lon="22.990011">
        <ele>1191.2</ele>
        <time>2026-05-06T08:19:28.000Z</time>
      </trkpt>
      <trkpt lat="41.823032" lon="22.990003">
        <ele>1191.2</ele>
        <time>2026-05-06T08:19:29.000Z</time>
      </trkpt>
      <trkpt lat="41.823022" lon="22.989997">
        <ele>1191.2</ele>
        <time>2026-05-06T08:19:30.000Z</time>
      </trkpt>
      <trkpt lat="41.823012" lon="22.989992">
        <ele>1191.2</ele>
        <time>2026-05-06T08:19:31.000Z</time>
      </trkpt>
      <trkpt lat="41.823001" lon="22.989988">
        <ele>1191.8</ele>
        <time>2026-05-06T08:19:32.000Z</time>
      </trkpt>
      <trkpt lat="41.82299" lon="22.989984">
        <ele>1191.8</ele>
        <time>2026-05-06T08:19:33.000Z</time>
      </trkpt>
      <trkpt lat="41.822981" lon="22.989979">
        <ele>1191.8</ele>
        <time>2026-05-06T08:19:34.000Z</time>
      </trkpt>
      <trkpt lat="41.822974" lon="22.989974">
        <ele>1191.8</ele>
        <time>2026-05-06T08:19:35.000Z</time>
      </trkpt>
      <trkpt lat="41.82297" lon="22.989971">
        <ele>1191.8</ele>
        <time>2026-05-06T08:19:36.000Z</time>
      </trkpt>
      <trkpt lat="41.822967" lon="22.98997">
        <ele>1192.3</ele>
        <time>2026-05-06T08:19:37.000Z</time>
      </trkpt>
      <trkpt lat="41.822967" lon="22.989969">
        <ele>1192.3</ele>
        <time>2026-05-06T08:19:38.000Z</time>
      </trkpt>
      <trkpt lat="41.822967" lon="22.989969">
        <ele>1192.3</ele>
        <time>2026-05-06T08:19:39.000Z</time>
      </trkpt>
      <trkpt lat="41.822966" lon="22.98997">
        <ele>1192.3</ele>
        <time>2026-05-06T08:19:40.000Z</time>
      </trkpt>
      <trkpt lat="41.822965" lon="22.989969">
        <ele>1192.3</ele>
        <time>2026-05-06T08:19:41.000Z</time>
      </trkpt>
      <trkpt lat="41.822965" lon="22.989969">
        <ele>1192.5</ele>
        <time>2026-05-06T08:19:42.000Z</time>
      </trkpt>
      <trkpt lat="41.822965" lon="22.989969">
        <ele>1192.5</ele>
        <time>2026-05-06T08:19:43.000Z</time>
      </trkpt>
      <trkpt lat="41.822965" lon="22.98997">
        <ele>1192.5</ele>
        <time>2026-05-06T08:19:44.000Z</time>
      </trkpt>
      <trkpt lat="41.822965" lon="22.989972">
        <ele>1192.5</ele>
        <time>2026-05-06T08:19:45.000Z</time>
      </trkpt>
      <trkpt lat="41.822966" lon="22.989974">
        <ele>1192.5</ele>
        <time>2026-05-06T08:19:46.000Z</time>
      </trkpt>
      <trkpt lat="41.822966" lon="22.989976">
        <ele>1192.9</ele>
        <time>2026-05-06T08:19:47.000Z</time>
      </trkpt>
      <trkpt lat="41.822966" lon="22.989978">
        <ele>1192.9</ele>
        <time>2026-05-06T08:19:48.000Z</time>
      </trkpt>
      <trkpt lat="41.822966" lon="22.98998">
        <ele>1192.9</ele>
        <time>2026-05-06T08:19:49.000Z</time>
      </trkpt>
      <trkpt lat="41.822966" lon="22.989981">
        <ele>1192.9</ele>
        <time>2026-05-06T08:19:50.000Z</time>
      </trkpt>
      <trkpt lat="41.822966" lon="22.989981">
        <ele>1192.9</ele>
        <time>2026-05-06T08:19:51.000Z</time>
      </trkpt>
      <trkpt lat="41.822967" lon="22.98998">
        <ele>1193.2</ele>
        <time>2026-05-06T08:19:52.000Z</time>
      </trkpt>
      <trkpt lat="41.822966" lon="22.989979">
        <ele>1193.2</ele>
        <time>2026-05-06T08:19:53.000Z</time>
      </trkpt>
      <trkpt lat="41.822965" lon="22.989977">
        <ele>1193.2</ele>
        <time>2026-05-06T08:19:54.000Z</time>
      </trkpt>
      <trkpt lat="41.822963" lon="22.989973">
        <ele>1193.2</ele>
        <time>2026-05-06T08:19:55.000Z</time>
      </trkpt>
      <trkpt lat="41.822961" lon="22.989968">
        <ele>1193.2</ele>
        <time>2026-05-06T08:19:56.000Z</time>
      </trkpt>
      <trkpt lat="41.822958" lon="22.98996">
        <ele>1193.2</ele>
        <time>2026-05-06T08:19:57.000Z</time>
      </trkpt>
      <trkpt lat="41.822955" lon="22.989951">
        <ele>1193.2</ele>
        <time>2026-05-06T08:19:58.000Z</time>
      </trkpt>
      <trkpt lat="41.822954" lon="22.989944">
        <ele>1193.2</ele>
        <time>2026-05-06T08:19:59.000Z</time>
      </trkpt>
      <trkpt lat="41.822953" lon="22.989939">
        <ele>1193.2</ele>
        <time>2026-05-06T08:20:00.000Z</time>
      </trkpt>
      <trkpt lat="41.822954" lon="22.989936">
        <ele>1193.2</ele>
        <time>2026-05-06T08:20:01.000Z</time>
      </trkpt>
      <trkpt lat="41.822954" lon="22.989936">
        <ele>1193.2</ele>
        <time>2026-05-06T08:20:02.000Z</time>
      </trkpt>
      <trkpt lat="41.822956" lon="22.989937">
        <ele>1193.2</ele>
        <time>2026-05-06T08:20:03.000Z</time>
      </trkpt>
      <trkpt lat="41.822957" lon="22.989939">
        <ele>1193.2</ele>
        <time>2026-05-06T08:20:04.000Z</time>
      </trkpt>
      <trkpt lat="41.822957" lon="22.98994">
        <ele>1193.2</ele>
        <time>2026-05-06T08:20:05.000Z</time>
      </trkpt>
      <trkpt lat="41.822956" lon="22.989941">
        <ele>1193.2</ele>
        <time>2026-05-06T08:20:06.000Z</time>
      </trkpt>
      <trkpt lat="41.822956" lon="22.98994">
        <ele>1193.2</ele>
        <time>2026-05-06T08:20:07.000Z</time>
      </trkpt>
      <trkpt lat="41.822954" lon="22.989939">
        <ele>1193.2</ele>
        <time>2026-05-06T08:20:08.000Z</time>
      </trkpt>
      <trkpt lat="41.822953" lon="22.989938">
        <ele>1193.2</ele>
        <time>2026-05-06T08:20:09.000Z</time>
      </trkpt>
      <trkpt lat="41.822953" lon="22.989937">
        <ele>1193.2</ele>
        <time>2026-05-06T08:20:10.000Z</time>
      </trkpt>
      <trkpt lat="41.822954" lon="22.989936">
        <ele>1193.2</ele>
        <time>2026-05-06T08:20:11.000Z</time>
      </trkpt>
      <trkpt lat="41.822954" lon="22.989936">
        <ele>1193.1</ele>
        <time>2026-05-06T08:20:12.000Z</time>
      </trkpt>
      <trkpt lat="41.822955" lon="22.989936">
        <ele>1193.1</ele>
        <time>2026-05-06T08:20:13.000Z</time>
      </trkpt>
      <trkpt lat="41.822955" lon="22.989936">
        <ele>1193.1</ele>
        <time>2026-05-06T08:20:14.000Z</time>
      </trkpt>
      <trkpt lat="41.822955" lon="22.989936">
        <ele>1193.1</ele>
        <time>2026-05-06T08:20:15.000Z</time>
      </trkpt>
      <trkpt lat="41.822955" lon="22.989936">
        <ele>1193.1</ele>
        <time>2026-05-06T08:20:16.000Z</time>
      </trkpt>
      <trkpt lat="41.822953" lon="22.989933">
        <ele>1193.2</ele>
        <time>2026-05-06T08:20:17.000Z</time>
      </trkpt>
      <trkpt lat="41.822951" lon="22.989929">
        <ele>1193.2</ele>
        <time>2026-05-06T08:20:18.000Z</time>
      </trkpt>
      <trkpt lat="41.822948" lon="22.989922">
        <ele>1193.2</ele>
        <time>2026-05-06T08:20:19.000Z</time>
      </trkpt>
      <trkpt lat="41.822946" lon="22.989914">
        <ele>1193.2</ele>
        <time>2026-05-06T08:20:20.000Z</time>
      </trkpt>
      <trkpt lat="41.822944" lon="22.989907">
        <ele>1193.2</ele>
        <time>2026-05-06T08:20:21.000Z</time>
      </trkpt>
      <trkpt lat="41.822943" lon="22.989903">
        <ele>1193.1</ele>
        <time>2026-05-06T08:20:22.000Z</time>
      </trkpt>
      <trkpt lat="41.822943" lon="22.9899">
        <ele>1193.1</ele>
        <time>2026-05-06T08:20:23.000Z</time>
      </trkpt>
      <trkpt lat="41.822943" lon="22.9899">
        <ele>1193.1</ele>
        <time>2026-05-06T08:20:24.000Z</time>
      </trkpt>
      <trkpt lat="41.822942" lon="22.9899">
        <ele>1193.1</ele>
        <time>2026-05-06T08:20:25.000Z</time>
      </trkpt>
      <trkpt lat="41.822942" lon="22.9899">
        <ele>1193.1</ele>
        <time>2026-05-06T08:20:26.000Z</time>
      </trkpt>
      <trkpt lat="41.822942" lon="22.989899">
        <ele>1193.1</ele>
        <time>2026-05-06T08:20:27.000Z</time>
      </trkpt>
      <trkpt lat="41.822942" lon="22.989899">
        <ele>1193.1</ele>
        <time>2026-05-06T08:20:28.000Z</time>
      </trkpt>
      <trkpt lat="41.822942" lon="22.989899">
        <ele>1193.1</ele>
        <time>2026-05-06T08:20:29.000Z</time>
      </trkpt>
      <trkpt lat="41.822942" lon="22.989899">
        <ele>1193.1</ele>
        <time>2026-05-06T08:20:30.000Z</time>
      </trkpt>
      <trkpt lat="41.822942" lon="22.989899">
        <ele>1193.1</ele>
        <time>2026-05-06T08:20:31.000Z</time>
      </trkpt>
      <trkpt lat="41.822942" lon="22.989899">
        <ele>1193.2</ele>
        <time>2026-05-06T08:20:32.000Z</time>
      </trkpt>
      <trkpt lat="41.822942" lon="22.989899">
        <ele>1193.2</ele>
        <time>2026-05-06T08:20:33.000Z</time>
      </trkpt>
      <trkpt lat="41.822942" lon="22.989899">
        <ele>1193.2</ele>
        <time>2026-05-06T08:20:34.000Z</time>
      </trkpt>
      <trkpt lat="41.822941" lon="22.989899">
        <ele>1193.2</ele>
        <time>2026-05-06T08:20:35.000Z</time>
      </trkpt>
      <trkpt lat="41.822941" lon="22.989899">
        <ele>1193.2</ele>
        <time>2026-05-06T08:20:36.000Z</time>
      </trkpt>
      <trkpt lat="41.822941" lon="22.989899">
        <ele>1193.4</ele>
        <time>2026-05-06T08:20:37.000Z</time>
      </trkpt>
      <trkpt lat="41.82294" lon="22.989899">
        <ele>1193.4</ele>
        <time>2026-05-06T08:20:38.000Z</time>
      </trkpt>
      <trkpt lat="41.82294" lon="22.989899">
        <ele>1193.4</ele>
        <time>2026-05-06T08:20:39.000Z</time>
      </trkpt>
      <trkpt lat="41.82294" lon="22.989899">
        <ele>1193.4</ele>
        <time>2026-05-06T08:20:40.000Z</time>
      </trkpt>
      <trkpt lat="41.822939" lon="22.9899">
        <ele>1193.4</ele>
        <time>2026-05-06T08:20:41.000Z</time>
      </trkpt>
      <trkpt lat="41.822937" lon="22.989904">
        <ele>1193.4</ele>
        <time>2026-05-06T08:20:42.000Z</time>
      </trkpt>
      <trkpt lat="41.822935" lon="22.989911">
        <ele>1193.4</ele>
        <time>2026-05-06T08:20:43.000Z</time>
      </trkpt>
      <trkpt lat="41.822931" lon="22.98992">
        <ele>1193.4</ele>
        <time>2026-05-06T08:20:44.000Z</time>
      </trkpt>
      <trkpt lat="41.822927" lon="22.989928">
        <ele>1193.4</ele>
        <time>2026-05-06T08:20:45.000Z</time>
      </trkpt>
      <trkpt lat="41.822923" lon="22.989935">
        <ele>1193.4</ele>
        <time>2026-05-06T08:20:46.000Z</time>
      </trkpt>
      <trkpt lat="41.822921" lon="22.989938">
        <ele>1193.4</ele>
        <time>2026-05-06T08:20:47.000Z</time>
      </trkpt>
      <trkpt lat="41.822919" lon="22.989939">
        <ele>1193.4</ele>
        <time>2026-05-06T08:20:48.000Z</time>
      </trkpt>
      <trkpt lat="41.822918" lon="22.989939">
        <ele>1193.4</ele>
        <time>2026-05-06T08:20:49.000Z</time>
      </trkpt>
      <trkpt lat="41.822916" lon="22.989941">
        <ele>1193.4</ele>
        <time>2026-05-06T08:20:50.000Z</time>
      </trkpt>
      <trkpt lat="41.822915" lon="22.989942">
        <ele>1193.4</ele>
        <time>2026-05-06T08:20:51.000Z</time>
      </trkpt>
      <trkpt lat="41.822914" lon="22.989944">
        <ele>1193.3</ele>
        <time>2026-05-06T08:20:52.000Z</time>
      </trkpt>
      <trkpt lat="41.822913" lon="22.989945">
        <ele>1193.3</ele>
        <time>2026-05-06T08:20:53.000Z</time>
      </trkpt>
      <trkpt lat="41.822913" lon="22.989947">
        <ele>1193.3</ele>
        <time>2026-05-06T08:20:54.000Z</time>
      </trkpt>
      <trkpt lat="41.822913" lon="22.989948">
        <ele>1193.3</ele>
        <time>2026-05-06T08:20:55.000Z</time>
      </trkpt>
      <trkpt lat="41.822913" lon="22.989948">
        <ele>1193.3</ele>
        <time>2026-05-06T08:20:56.000Z</time>
      </trkpt>
      <trkpt lat="41.822914" lon="22.989947">
        <ele>1193.3</ele>
        <time>2026-05-06T08:20:57.000Z</time>
      </trkpt>
      <trkpt lat="41.822915" lon="22.989944">
        <ele>1193.3</ele>
        <time>2026-05-06T08:20:58.000Z</time>
      </trkpt>
      <trkpt lat="41.822917" lon="22.989939">
        <ele>1193.3</ele>
        <time>2026-05-06T08:20:59.000Z</time>
      </trkpt>
      <trkpt lat="41.82292" lon="22.989932">
        <ele>1193.3</ele>
        <time>2026-05-06T08:21:00.000Z</time>
      </trkpt>
      <trkpt lat="41.822925" lon="22.989921">
        <ele>1193.3</ele>
        <time>2026-05-06T08:21:01.000Z</time>
      </trkpt>
      <trkpt lat="41.822929" lon="22.98991">
        <ele>1193.2</ele>
        <time>2026-05-06T08:21:02.000Z</time>
      </trkpt>
      <trkpt lat="41.822931" lon="22.989897">
        <ele>1193.2</ele>
        <time>2026-05-06T08:21:03.000Z</time>
      </trkpt>
      <trkpt lat="41.822933" lon="22.989882">
        <ele>1193.2</ele>
        <time>2026-05-06T08:21:04.000Z</time>
      </trkpt>
      <trkpt lat="41.822935" lon="22.989868">
        <ele>1193.2</ele>
        <time>2026-05-06T08:21:05.000Z</time>
      </trkpt>
      <trkpt lat="41.822937" lon="22.989853">
        <ele>1193.2</ele>
        <time>2026-05-06T08:21:06.000Z</time>
      </trkpt>
      <trkpt lat="41.822941" lon="22.989839">
        <ele>1193.2</ele>
        <time>2026-05-06T08:21:07.000Z</time>
      </trkpt>
      <trkpt lat="41.822945" lon="22.989826">
        <ele>1193.2</ele>
        <time>2026-05-06T08:21:08.000Z</time>
      </trkpt>
      <trkpt lat="41.82295" lon="22.989813">
        <ele>1193.2</ele>
        <time>2026-05-06T08:21:09.000Z</time>
      </trkpt>
      <trkpt lat="41.822955" lon="22.9898">
        <ele>1193.2</ele>
        <time>2026-05-06T08:21:10.000Z</time>
      </trkpt>
      <trkpt lat="41.822958" lon="22.98979">
        <ele>1193.2</ele>
        <time>2026-05-06T08:21:11.000Z</time>
      </trkpt>
      <trkpt lat="41.822958" lon="22.989781">
        <ele>1193.2</ele>
        <time>2026-05-06T08:21:12.000Z</time>
      </trkpt>
      <trkpt lat="41.822958" lon="22.989775">
        <ele>1193.2</ele>
        <time>2026-05-06T08:21:13.000Z</time>
      </trkpt>
      <trkpt lat="41.822957" lon="22.989772">
        <ele>1193.2</ele>
        <time>2026-05-06T08:21:14.000Z</time>
      </trkpt>
      <trkpt lat="41.822956" lon="22.98977">
        <ele>1193.2</ele>
        <time>2026-05-06T08:21:15.000Z</time>
      </trkpt>
      <trkpt lat="41.822956" lon="22.98977">
        <ele>1193.2</ele>
        <time>2026-05-06T08:21:16.000Z</time>
      </trkpt>
      <trkpt lat="41.822955" lon="22.989769">
        <ele>1193.1</ele>
        <time>2026-05-06T08:21:17.000Z</time>
      </trkpt>
      <trkpt lat="41.822953" lon="22.989768">
        <ele>1193.1</ele>
        <time>2026-05-06T08:21:18.000Z</time>
      </trkpt>
      <trkpt lat="41.82295" lon="22.989764">
        <ele>1193.1</ele>
        <time>2026-05-06T08:21:19.000Z</time>
      </trkpt>
      <trkpt lat="41.822944" lon="22.989757">
        <ele>1193.1</ele>
        <time>2026-05-06T08:21:20.000Z</time>
      </trkpt>
      <trkpt lat="41.822936" lon="22.989748">
        <ele>1193.1</ele>
        <time>2026-05-06T08:21:21.000Z</time>
      </trkpt>
      <trkpt lat="41.822928" lon="22.989736">
        <ele>1193</ele>
        <time>2026-05-06T08:21:22.000Z</time>
      </trkpt>
      <trkpt lat="41.82292" lon="22.989723">
        <ele>1193</ele>
        <time>2026-05-06T08:21:23.000Z</time>
      </trkpt>
      <trkpt lat="41.822912" lon="22.989711">
        <ele>1193</ele>
        <time>2026-05-06T08:21:24.000Z</time>
      </trkpt>
      <trkpt lat="41.822904" lon="22.989699">
        <ele>1193</ele>
        <time>2026-05-06T08:21:25.000Z</time>
      </trkpt>
      <trkpt lat="41.822896" lon="22.989688">
        <ele>1193</ele>
        <time>2026-05-06T08:21:26.000Z</time>
      </trkpt>
      <trkpt lat="41.822887" lon="22.989676">
        <ele>1193</ele>
        <time>2026-05-06T08:21:27.000Z</time>
      </trkpt>
      <trkpt lat="41.822878" lon="22.989664">
        <ele>1193</ele>
        <time>2026-05-06T08:21:28.000Z</time>
      </trkpt>
      <trkpt lat="41.822868" lon="22.98965">
        <ele>1193</ele>
        <time>2026-05-06T08:21:29.000Z</time>
      </trkpt>
      <trkpt lat="41.822858" lon="22.989637">
        <ele>1193</ele>
        <time>2026-05-06T08:21:30.000Z</time>
      </trkpt>
      <trkpt lat="41.82285" lon="22.989625">
        <ele>1193</ele>
        <time>2026-05-06T08:21:31.000Z</time>
      </trkpt>
      <trkpt lat="41.822842" lon="22.989615">
        <ele>1192.9</ele>
        <time>2026-05-06T08:21:32.000Z</time>
      </trkpt>
      <trkpt lat="41.822834" lon="22.989607">
        <ele>1192.9</ele>
        <time>2026-05-06T08:21:33.000Z</time>
      </trkpt>
      <trkpt lat="41.822827" lon="22.989601">
        <ele>1192.9</ele>
        <time>2026-05-06T08:21:34.000Z</time>
      </trkpt>
      <trkpt lat="41.822819" lon="22.989597">
        <ele>1192.9</ele>
        <time>2026-05-06T08:21:35.000Z</time>
      </trkpt>
      <trkpt lat="41.822809" lon="22.989594">
        <ele>1192.9</ele>
        <time>2026-05-06T08:21:36.000Z</time>
      </trkpt>
      <trkpt lat="41.822799" lon="22.989592">
        <ele>1192.5</ele>
        <time>2026-05-06T08:21:37.000Z</time>
      </trkpt>
      <trkpt lat="41.822789" lon="22.989591">
        <ele>1192.5</ele>
        <time>2026-05-06T08:21:38.000Z</time>
      </trkpt>
      <trkpt lat="41.822777" lon="22.989589">
        <ele>1192.5</ele>
        <time>2026-05-06T08:21:39.000Z</time>
      </trkpt>
      <trkpt lat="41.822766" lon="22.989588">
        <ele>1192.5</ele>
        <time>2026-05-06T08:21:40.000Z</time>
      </trkpt>
      <trkpt lat="41.822754" lon="22.989586">
        <ele>1192.5</ele>
        <time>2026-05-06T08:21:41.000Z</time>
      </trkpt>
      <trkpt lat="41.822742" lon="22.989584">
        <ele>1192.4</ele>
        <time>2026-05-06T08:21:42.000Z</time>
      </trkpt>
      <trkpt lat="41.822731" lon="22.989582">
        <ele>1192.4</ele>
        <time>2026-05-06T08:21:43.000Z</time>
      </trkpt>
      <trkpt lat="41.82272" lon="22.989579">
        <ele>1192.4</ele>
        <time>2026-05-06T08:21:44.000Z</time>
      </trkpt>
      <trkpt lat="41.82271" lon="22.989575">
        <ele>1192.4</ele>
        <time>2026-05-06T08:21:45.000Z</time>
      </trkpt>
      <trkpt lat="41.8227" lon="22.989572">
        <ele>1192.4</ele>
        <time>2026-05-06T08:21:46.000Z</time>
      </trkpt>
      <trkpt lat="41.822691" lon="22.989568">
        <ele>1192.3</ele>
        <time>2026-05-06T08:21:47.000Z</time>
      </trkpt>
      <trkpt lat="41.822683" lon="22.989565">
        <ele>1192.3</ele>
        <time>2026-05-06T08:21:48.000Z</time>
      </trkpt>
      <trkpt lat="41.822676" lon="22.989562">
        <ele>1192.3</ele>
        <time>2026-05-06T08:21:49.000Z</time>
      </trkpt>
      <trkpt lat="41.822668" lon="22.989558">
        <ele>1192.3</ele>
        <time>2026-05-06T08:21:50.000Z</time>
      </trkpt>
      <trkpt lat="41.82266" lon="22.989554">
        <ele>1192.3</ele>
        <time>2026-05-06T08:21:51.000Z</time>
      </trkpt>
      <trkpt lat="41.822651" lon="22.98955">
        <ele>1192.4</ele>
        <time>2026-05-06T08:21:52.000Z</time>
      </trkpt>
      <trkpt lat="41.822642" lon="22.989545">
        <ele>1192.4</ele>
        <time>2026-05-06T08:21:53.000Z</time>
      </trkpt>
      <trkpt lat="41.822633" lon="22.989541">
        <ele>1192.4</ele>
        <time>2026-05-06T08:21:54.000Z</time>
      </trkpt>
      <trkpt lat="41.822625" lon="22.989536">
        <ele>1192.4</ele>
        <time>2026-05-06T08:21:55.000Z</time>
      </trkpt>
      <trkpt lat="41.822621" lon="22.989533">
        <ele>1192.4</ele>
        <time>2026-05-06T08:21:56.000Z</time>
      </trkpt>
      <trkpt lat="41.822618" lon="22.989531">
        <ele>1192.6</ele>
        <time>2026-05-06T08:21:57.000Z</time>
      </trkpt>
      <trkpt lat="41.822616" lon="22.989529">
        <ele>1192.6</ele>
        <time>2026-05-06T08:21:58.000Z</time>
      </trkpt>
      <trkpt lat="41.822616" lon="22.989529">
        <ele>1192.6</ele>
        <time>2026-05-06T08:21:59.000Z</time>
      </trkpt>
      <trkpt lat="41.822614" lon="22.989529">
        <ele>1192.6</ele>
        <time>2026-05-06T08:22:00.000Z</time>
      </trkpt>
      <trkpt lat="41.82261" lon="22.989531">
        <ele>1192.6</ele>
        <time>2026-05-06T08:22:01.000Z</time>
      </trkpt>
      <trkpt lat="41.822604" lon="22.989531">
        <ele>1192.8</ele>
        <time>2026-05-06T08:22:02.000Z</time>
      </trkpt>
      <trkpt lat="41.822596" lon="22.989531">
        <ele>1192.8</ele>
        <time>2026-05-06T08:22:03.000Z</time>
      </trkpt>
      <trkpt lat="41.822589" lon="22.98953">
        <ele>1192.8</ele>
        <time>2026-05-06T08:22:04.000Z</time>
      </trkpt>
      <trkpt lat="41.822582" lon="22.989529">
        <ele>1192.8</ele>
        <time>2026-05-06T08:22:05.000Z</time>
      </trkpt>
      <trkpt lat="41.822577" lon="22.989526">
        <ele>1192.8</ele>
        <time>2026-05-06T08:22:06.000Z</time>
      </trkpt>
      <trkpt lat="41.822575" lon="22.989525">
        <ele>1193</ele>
        <time>2026-05-06T08:22:07.000Z</time>
      </trkpt>
      <trkpt lat="41.822574" lon="22.989524">
        <ele>1193</ele>
        <time>2026-05-06T08:22:08.000Z</time>
      </trkpt>
      <trkpt lat="41.822574" lon="22.989524">
        <ele>1193</ele>
        <time>2026-05-06T08:22:09.000Z</time>
      </trkpt>
      <trkpt lat="41.822574" lon="22.989523">
        <ele>1193</ele>
        <time>2026-05-06T08:22:10.000Z</time>
      </trkpt>
      <trkpt lat="41.822574" lon="22.989523">
        <ele>1193</ele>
        <time>2026-05-06T08:22:11.000Z</time>
      </trkpt>
      <trkpt lat="41.822575" lon="22.989523">
        <ele>1193.1</ele>
        <time>2026-05-06T08:22:12.000Z</time>
      </trkpt>
      <trkpt lat="41.822575" lon="22.989523">
        <ele>1193.1</ele>
        <time>2026-05-06T08:22:13.000Z</time>
      </trkpt>
      <trkpt lat="41.822575" lon="22.989523">
        <ele>1193.1</ele>
        <time>2026-05-06T08:22:14.000Z</time>
      </trkpt>
      <trkpt lat="41.822575" lon="22.989523">
        <ele>1193.1</ele>
        <time>2026-05-06T08:22:15.000Z</time>
      </trkpt>
      <trkpt lat="41.822575" lon="22.989523">
        <ele>1193.1</ele>
        <time>2026-05-06T08:22:16.000Z</time>
      </trkpt>
      <trkpt lat="41.822575" lon="22.989523">
        <ele>1193.2</ele>
        <time>2026-05-06T08:22:17.000Z</time>
      </trkpt>
      <trkpt lat="41.822572" lon="22.989523">
        <ele>1193.2</ele>
        <time>2026-05-06T08:22:18.000Z</time>
      </trkpt>
      <trkpt lat="41.822568" lon="22.989523">
        <ele>1193.2</ele>
        <time>2026-05-06T08:22:19.000Z</time>
      </trkpt>
      <trkpt lat="41.822561" lon="22.989524">
        <ele>1193.2</ele>
        <time>2026-05-06T08:22:20.000Z</time>
      </trkpt>
      <trkpt lat="41.822551" lon="22.989524">
        <ele>1193.2</ele>
        <time>2026-05-06T08:22:21.000Z</time>
      </trkpt>
      <trkpt lat="41.82254" lon="22.989524">
        <ele>1193.2</ele>
        <time>2026-05-06T08:22:22.000Z</time>
      </trkpt>
      <trkpt lat="41.822528" lon="22.989524">
        <ele>1193.2</ele>
        <time>2026-05-06T08:22:23.000Z</time>
      </trkpt>
      <trkpt lat="41.822516" lon="22.989523">
        <ele>1193.2</ele>
        <time>2026-05-06T08:22:24.000Z</time>
      </trkpt>
      <trkpt lat="41.822504" lon="22.989522">
        <ele>1193.2</ele>
        <time>2026-05-06T08:22:25.000Z</time>
      </trkpt>
      <trkpt lat="41.822491" lon="22.989521">
        <ele>1193.2</ele>
        <time>2026-05-06T08:22:26.000Z</time>
      </trkpt>
      <trkpt lat="41.822478" lon="22.989519">
        <ele>1193.2</ele>
        <time>2026-05-06T08:22:27.000Z</time>
      </trkpt>
      <trkpt lat="41.822464" lon="22.989517">
        <ele>1193.2</ele>
        <time>2026-05-06T08:22:28.000Z</time>
      </trkpt>
      <trkpt lat="41.822449" lon="22.989514">
        <ele>1193.2</ele>
        <time>2026-05-06T08:22:29.000Z</time>
      </trkpt>
      <trkpt lat="41.822435" lon="22.989512">
        <ele>1193.2</ele>
        <time>2026-05-06T08:22:30.000Z</time>
      </trkpt>
      <trkpt lat="41.822422" lon="22.989512">
        <ele>1193.2</ele>
        <time>2026-05-06T08:22:31.000Z</time>
      </trkpt>
      <trkpt lat="41.822408" lon="22.989512">
        <ele>1193.2</ele>
        <time>2026-05-06T08:22:32.000Z</time>
      </trkpt>
      <trkpt lat="41.822395" lon="22.989513">
        <ele>1193.2</ele>
        <time>2026-05-06T08:22:33.000Z</time>
      </trkpt>
      <trkpt lat="41.822382" lon="22.989516">
        <ele>1193.2</ele>
        <time>2026-05-06T08:22:34.000Z</time>
      </trkpt>
      <trkpt lat="41.822369" lon="22.98952">
        <ele>1193.2</ele>
        <time>2026-05-06T08:22:35.000Z</time>
      </trkpt>
      <trkpt lat="41.822355" lon="22.989524">
        <ele>1193.2</ele>
        <time>2026-05-06T08:22:36.000Z</time>
      </trkpt>
      <trkpt lat="41.82234" lon="22.989528">
        <ele>1193.5</ele>
        <time>2026-05-06T08:22:37.000Z</time>
      </trkpt>
      <trkpt lat="41.822324" lon="22.989533">
        <ele>1193.5</ele>
        <time>2026-05-06T08:22:38.000Z</time>
      </trkpt>
      <trkpt lat="41.822308" lon="22.989536">
        <ele>1193.5</ele>
        <time>2026-05-06T08:22:39.000Z</time>
      </trkpt>
      <trkpt lat="41.822292" lon="22.989538">
        <ele>1193.5</ele>
        <time>2026-05-06T08:22:40.000Z</time>
      </trkpt>
      <trkpt lat="41.822277" lon="22.989539">
        <ele>1193.5</ele>
        <time>2026-05-06T08:22:41.000Z</time>
      </trkpt>
      <trkpt lat="41.822263" lon="22.989541">
        <ele>1193.7</ele>
        <time>2026-05-06T08:22:42.000Z</time>
      </trkpt>
      <trkpt lat="41.82225" lon="22.989544">
        <ele>1193.7</ele>
        <time>2026-05-06T08:22:43.000Z</time>
      </trkpt>
      <trkpt lat="41.822237" lon="22.989548">
        <ele>1193.7</ele>
        <time>2026-05-06T08:22:44.000Z</time>
      </trkpt>
      <trkpt lat="41.822225" lon="22.989554">
        <ele>1193.7</ele>
        <time>2026-05-06T08:22:45.000Z</time>
      </trkpt>
      <trkpt lat="41.822212" lon="22.989561">
        <ele>1193.7</ele>
        <time>2026-05-06T08:22:46.000Z</time>
      </trkpt>
      <trkpt lat="41.822201" lon="22.989568">
        <ele>1194.3</ele>
        <time>2026-05-06T08:22:47.000Z</time>
      </trkpt>
      <trkpt lat="41.82219" lon="22.989575">
        <ele>1194.3</ele>
        <time>2026-05-06T08:22:48.000Z</time>
      </trkpt>
      <trkpt lat="41.822179" lon="22.989581">
        <ele>1194.3</ele>
        <time>2026-05-06T08:22:49.000Z</time>
      </trkpt>
      <trkpt lat="41.822169" lon="22.989586">
        <ele>1194.3</ele>
        <time>2026-05-06T08:22:50.000Z</time>
      </trkpt>
      <trkpt lat="41.822158" lon="22.98959">
        <ele>1194.3</ele>
        <time>2026-05-06T08:22:51.000Z</time>
      </trkpt>
      <trkpt lat="41.822146" lon="22.989592">
        <ele>1195.1</ele>
        <time>2026-05-06T08:22:52.000Z</time>
      </trkpt>
      <trkpt lat="41.822135" lon="22.989593">
        <ele>1195.1</ele>
        <time>2026-05-06T08:22:53.000Z</time>
      </trkpt>
      <trkpt lat="41.822124" lon="22.989594">
        <ele>1195.1</ele>
        <time>2026-05-06T08:22:54.000Z</time>
      </trkpt>
      <trkpt lat="41.822113" lon="22.989595">
        <ele>1195.1</ele>
        <time>2026-05-06T08:22:55.000Z</time>
      </trkpt>
      <trkpt lat="41.822102" lon="22.989594">
        <ele>1195.1</ele>
        <time>2026-05-06T08:22:56.000Z</time>
      </trkpt>
      <trkpt lat="41.822091" lon="22.989594">
        <ele>1195.5</ele>
        <time>2026-05-06T08:22:57.000Z</time>
      </trkpt>
      <trkpt lat="41.822079" lon="22.989594">
        <ele>1195.5</ele>
        <time>2026-05-06T08:22:58.000Z</time>
      </trkpt>
      <trkpt lat="41.822067" lon="22.989593">
        <ele>1195.5</ele>
        <time>2026-05-06T08:22:59.000Z</time>
      </trkpt>
      <trkpt lat="41.822054" lon="22.989593">
        <ele>1195.5</ele>
        <time>2026-05-06T08:23:00.000Z</time>
      </trkpt>
      <trkpt lat="41.82204" lon="22.989594">
        <ele>1195.5</ele>
        <time>2026-05-06T08:23:01.000Z</time>
      </trkpt>
      <trkpt lat="41.822027" lon="22.989594">
        <ele>1196.4</ele>
        <time>2026-05-06T08:23:02.000Z</time>
      </trkpt>
      <trkpt lat="41.822012" lon="22.989595">
        <ele>1196.4</ele>
        <time>2026-05-06T08:23:03.000Z</time>
      </trkpt>
      <trkpt lat="41.821998" lon="22.989595">
        <ele>1196.4</ele>
        <time>2026-05-06T08:23:04.000Z</time>
      </trkpt>
      <trkpt lat="41.821984" lon="22.989594">
        <ele>1196.4</ele>
        <time>2026-05-06T08:23:05.000Z</time>
      </trkpt>
      <trkpt lat="41.821971" lon="22.989593">
        <ele>1196.4</ele>
        <time>2026-05-06T08:23:06.000Z</time>
      </trkpt>
      <trkpt lat="41.821958" lon="22.989592">
        <ele>1197.2</ele>
        <time>2026-05-06T08:23:07.000Z</time>
      </trkpt>
      <trkpt lat="41.821945" lon="22.989589">
        <ele>1197.2</ele>
        <time>2026-05-06T08:23:08.000Z</time>
      </trkpt>
      <trkpt lat="41.821934" lon="22.989586">
        <ele>1197.2</ele>
        <time>2026-05-06T08:23:09.000Z</time>
      </trkpt>
      <trkpt lat="41.821923" lon="22.989584">
        <ele>1197.2</ele>
        <time>2026-05-06T08:23:10.000Z</time>
      </trkpt>
      <trkpt lat="41.821909" lon="22.989581">
        <ele>1197.2</ele>
        <time>2026-05-06T08:23:11.000Z</time>
      </trkpt>
      <trkpt lat="41.821896" lon="22.989577">
        <ele>1197.6</ele>
        <time>2026-05-06T08:23:12.000Z</time>
      </trkpt>
      <trkpt lat="41.821884" lon="22.989573">
        <ele>1197.6</ele>
        <time>2026-05-06T08:23:13.000Z</time>
      </trkpt>
      <trkpt lat="41.821869" lon="22.989569">
        <ele>1197.6</ele>
        <time>2026-05-06T08:23:14.000Z</time>
      </trkpt>
      <trkpt lat="41.821854" lon="22.989564">
        <ele>1197.6</ele>
        <time>2026-05-06T08:23:15.000Z</time>
      </trkpt>
      <trkpt lat="41.82184" lon="22.989559">
        <ele>1197.6</ele>
        <time>2026-05-06T08:23:16.000Z</time>
      </trkpt>
      <trkpt lat="41.821825" lon="22.989554">
        <ele>1198.3</ele>
        <time>2026-05-06T08:23:17.000Z</time>
      </trkpt>
      <trkpt lat="41.821811" lon="22.989549">
        <ele>1198.3</ele>
        <time>2026-05-06T08:23:18.000Z</time>
      </trkpt>
      <trkpt lat="41.821797" lon="22.989543">
        <ele>1198.3</ele>
        <time>2026-05-06T08:23:19.000Z</time>
      </trkpt>
      <trkpt lat="41.821784" lon="22.989537">
        <ele>1198.3</ele>
        <time>2026-05-06T08:23:20.000Z</time>
      </trkpt>
      <trkpt lat="41.821772" lon="22.989529">
        <ele>1198.3</ele>
        <time>2026-05-06T08:23:21.000Z</time>
      </trkpt>
      <trkpt lat="41.821759" lon="22.989523">
        <ele>1198.9</ele>
        <time>2026-05-06T08:23:22.000Z</time>
      </trkpt>
      <trkpt lat="41.821747" lon="22.989516">
        <ele>1198.9</ele>
        <time>2026-05-06T08:23:23.000Z</time>
      </trkpt>
      <trkpt lat="41.821734" lon="22.98951">
        <ele>1198.9</ele>
        <time>2026-05-06T08:23:24.000Z</time>
      </trkpt>
      <trkpt lat="41.821721" lon="22.989505">
        <ele>1198.9</ele>
        <time>2026-05-06T08:23:25.000Z</time>
      </trkpt>
      <trkpt lat="41.821707" lon="22.9895">
        <ele>1198.9</ele>
        <time>2026-05-06T08:23:26.000Z</time>
      </trkpt>
      <trkpt lat="41.821694" lon="22.989495">
        <ele>1199.2</ele>
        <time>2026-05-06T08:23:27.000Z</time>
      </trkpt>
      <trkpt lat="41.821682" lon="22.989492">
        <ele>1199.2</ele>
        <time>2026-05-06T08:23:28.000Z</time>
      </trkpt>
      <trkpt lat="41.82167" lon="22.989488">
        <ele>1199.2</ele>
        <time>2026-05-06T08:23:29.000Z</time>
      </trkpt>
      <trkpt lat="41.821659" lon="22.989484">
        <ele>1199.2</ele>
        <time>2026-05-06T08:23:30.000Z</time>
      </trkpt>
      <trkpt lat="41.821648" lon="22.989482">
        <ele>1199.2</ele>
        <time>2026-05-06T08:23:31.000Z</time>
      </trkpt>
      <trkpt lat="41.821637" lon="22.989481">
        <ele>1200</ele>
        <time>2026-05-06T08:23:32.000Z</time>
      </trkpt>
      <trkpt lat="41.821624" lon="22.989479">
        <ele>1200</ele>
        <time>2026-05-06T08:23:33.000Z</time>
      </trkpt>
      <trkpt lat="41.82161" lon="22.989477">
        <ele>1200</ele>
        <time>2026-05-06T08:23:34.000Z</time>
      </trkpt>
      <trkpt lat="41.821596" lon="22.989474">
        <ele>1200</ele>
        <time>2026-05-06T08:23:35.000Z</time>
      </trkpt>
      <trkpt lat="41.821583" lon="22.989472">
        <ele>1200</ele>
        <time>2026-05-06T08:23:36.000Z</time>
      </trkpt>
      <trkpt lat="41.821569" lon="22.989468">
        <ele>1200.7</ele>
        <time>2026-05-06T08:23:37.000Z</time>
      </trkpt>
      <trkpt lat="41.821556" lon="22.989464">
        <ele>1200.7</ele>
        <time>2026-05-06T08:23:38.000Z</time>
      </trkpt>
      <trkpt lat="41.821542" lon="22.989458">
        <ele>1200.7</ele>
        <time>2026-05-06T08:23:39.000Z</time>
      </trkpt>
      <trkpt lat="41.821529" lon="22.989453">
        <ele>1200.7</ele>
        <time>2026-05-06T08:23:40.000Z</time>
      </trkpt>
      <trkpt lat="41.821515" lon="22.989446">
        <ele>1200.7</ele>
        <time>2026-05-06T08:23:41.000Z</time>
      </trkpt>
      <trkpt lat="41.8215" lon="22.98944">
        <ele>1201.1</ele>
        <time>2026-05-06T08:23:42.000Z</time>
      </trkpt>
      <trkpt lat="41.821485" lon="22.989435">
        <ele>1201.1</ele>
        <time>2026-05-06T08:23:43.000Z</time>
      </trkpt>
      <trkpt lat="41.82147" lon="22.989432">
        <ele>1201.1</ele>
        <time>2026-05-06T08:23:44.000Z</time>
      </trkpt>
      <trkpt lat="41.821455" lon="22.98943">
        <ele>1201.1</ele>
        <time>2026-05-06T08:23:45.000Z</time>
      </trkpt>
      <trkpt lat="41.821439" lon="22.989429">
        <ele>1201.1</ele>
        <time>2026-05-06T08:23:46.000Z</time>
      </trkpt>
      <trkpt lat="41.821424" lon="22.989429">
        <ele>1201.8</ele>
        <time>2026-05-06T08:23:47.000Z</time>
      </trkpt>
      <trkpt lat="41.821409" lon="22.989431">
        <ele>1201.8</ele>
        <time>2026-05-06T08:23:48.000Z</time>
      </trkpt>
      <trkpt lat="41.821395" lon="22.989432">
        <ele>1201.8</ele>
        <time>2026-05-06T08:23:49.000Z</time>
      </trkpt>
      <trkpt lat="41.821379" lon="22.989434">
        <ele>1201.8</ele>
        <time>2026-05-06T08:23:50.000Z</time>
      </trkpt>
      <trkpt lat="41.821363" lon="22.989436">
        <ele>1201.8</ele>
        <time>2026-05-06T08:23:51.000Z</time>
      </trkpt>
      <trkpt lat="41.821347" lon="22.989438">
        <ele>1202.7</ele>
        <time>2026-05-06T08:23:52.000Z</time>
      </trkpt>
      <trkpt lat="41.82133" lon="22.989439">
        <ele>1202.7</ele>
        <time>2026-05-06T08:23:53.000Z</time>
      </trkpt>
      <trkpt lat="41.821314" lon="22.98944">
        <ele>1202.7</ele>
        <time>2026-05-06T08:23:54.000Z</time>
      </trkpt>
      <trkpt lat="41.821298" lon="22.989441">
        <ele>1202.7</ele>
        <time>2026-05-06T08:23:55.000Z</time>
      </trkpt>
      <trkpt lat="41.821283" lon="22.989443">
        <ele>1202.7</ele>
        <time>2026-05-06T08:23:56.000Z</time>
      </trkpt>
      <trkpt lat="41.821269" lon="22.989445">
        <ele>1203.1</ele>
        <time>2026-05-06T08:23:57.000Z</time>
      </trkpt>
      <trkpt lat="41.821255" lon="22.989447">
        <ele>1203.1</ele>
        <time>2026-05-06T08:23:58.000Z</time>
      </trkpt>
      <trkpt lat="41.821242" lon="22.98945">
        <ele>1203.1</ele>
        <time>2026-05-06T08:23:59.000Z</time>
      </trkpt>
      <trkpt lat="41.821228" lon="22.989452">
        <ele>1203.1</ele>
        <time>2026-05-06T08:24:00.000Z</time>
      </trkpt>
      <trkpt lat="41.821213" lon="22.989453">
        <ele>1203.1</ele>
        <time>2026-05-06T08:24:01.000Z</time>
      </trkpt>
      <trkpt lat="41.821198" lon="22.989454">
        <ele>1203.9</ele>
        <time>2026-05-06T08:24:02.000Z</time>
      </trkpt>
      <trkpt lat="41.821183" lon="22.989455">
        <ele>1203.9</ele>
        <time>2026-05-06T08:24:03.000Z</time>
      </trkpt>
      <trkpt lat="41.821167" lon="22.989457">
        <ele>1203.9</ele>
        <time>2026-05-06T08:24:04.000Z</time>
      </trkpt>
      <trkpt lat="41.821153" lon="22.989461">
        <ele>1203.9</ele>
        <time>2026-05-06T08:24:05.000Z</time>
      </trkpt>
      <trkpt lat="41.821138" lon="22.989466">
        <ele>1203.9</ele>
        <time>2026-05-06T08:24:06.000Z</time>
      </trkpt>
      <trkpt lat="41.821124" lon="22.989473">
        <ele>1204.6</ele>
        <time>2026-05-06T08:24:07.000Z</time>
      </trkpt>
      <trkpt lat="41.821111" lon="22.98948">
        <ele>1204.6</ele>
        <time>2026-05-06T08:24:08.000Z</time>
      </trkpt>
      <trkpt lat="41.821097" lon="22.989488">
        <ele>1204.6</ele>
        <time>2026-05-06T08:24:09.000Z</time>
      </trkpt>
      <trkpt lat="41.821083" lon="22.989496">
        <ele>1204.6</ele>
        <time>2026-05-06T08:24:10.000Z</time>
      </trkpt>
      <trkpt lat="41.821069" lon="22.989503">
        <ele>1204.6</ele>
        <time>2026-05-06T08:24:11.000Z</time>
      </trkpt>
      <trkpt lat="41.821054" lon="22.989509">
        <ele>1205</ele>
        <time>2026-05-06T08:24:12.000Z</time>
      </trkpt>
      <trkpt lat="41.821038" lon="22.989516">
        <ele>1205</ele>
        <time>2026-05-06T08:24:13.000Z</time>
      </trkpt>
      <trkpt lat="41.821023" lon="22.989522">
        <ele>1205</ele>
        <time>2026-05-06T08:24:14.000Z</time>
      </trkpt>
      <trkpt lat="41.821009" lon="22.989527">
        <ele>1205</ele>
        <time>2026-05-06T08:24:15.000Z</time>
      </trkpt>
      <trkpt lat="41.820995" lon="22.989533">
        <ele>1205</ele>
        <time>2026-05-06T08:24:16.000Z</time>
      </trkpt>
      <trkpt lat="41.820981" lon="22.989537">
        <ele>1205.7</ele>
        <time>2026-05-06T08:24:17.000Z</time>
      </trkpt>
      <trkpt lat="41.820968" lon="22.989542">
        <ele>1205.7</ele>
        <time>2026-05-06T08:24:18.000Z</time>
      </trkpt>
      <trkpt lat="41.820954" lon="22.989546">
        <ele>1205.7</ele>
        <time>2026-05-06T08:24:19.000Z</time>
      </trkpt>
      <trkpt lat="41.82094" lon="22.989551">
        <ele>1205.7</ele>
        <time>2026-05-06T08:24:20.000Z</time>
      </trkpt>
      <trkpt lat="41.820926" lon="22.989556">
        <ele>1205.7</ele>
        <time>2026-05-06T08:24:21.000Z</time>
      </trkpt>
      <trkpt lat="41.820911" lon="22.989561">
        <ele>1206.4</ele>
        <time>2026-05-06T08:24:22.000Z</time>
      </trkpt>
      <trkpt lat="41.820896" lon="22.989566">
        <ele>1206.4</ele>
        <time>2026-05-06T08:24:23.000Z</time>
      </trkpt>
      <trkpt lat="41.820881" lon="22.989571">
        <ele>1206.4</ele>
        <time>2026-05-06T08:24:24.000Z</time>
      </trkpt>
      <trkpt lat="41.820866" lon="22.989576">
        <ele>1206.4</ele>
        <time>2026-05-06T08:24:25.000Z</time>
      </trkpt>
      <trkpt lat="41.820852" lon="22.989582">
        <ele>1206.4</ele>
        <time>2026-05-06T08:24:26.000Z</time>
      </trkpt>
      <trkpt lat="41.820837" lon="22.989587">
        <ele>1206.7</ele>
        <time>2026-05-06T08:24:27.000Z</time>
      </trkpt>
      <trkpt lat="41.820822" lon="22.989591">
        <ele>1206.7</ele>
        <time>2026-05-06T08:24:28.000Z</time>
      </trkpt>
      <trkpt lat="41.820806" lon="22.989595">
        <ele>1206.7</ele>
        <time>2026-05-06T08:24:29.000Z</time>
      </trkpt>
      <trkpt lat="41.82079" lon="22.989599">
        <ele>1206.7</ele>
        <time>2026-05-06T08:24:30.000Z</time>
      </trkpt>
      <trkpt lat="41.820774" lon="22.989601">
        <ele>1206.7</ele>
        <time>2026-05-06T08:24:31.000Z</time>
      </trkpt>
      <trkpt lat="41.820758" lon="22.989604">
        <ele>1207.3</ele>
        <time>2026-05-06T08:24:32.000Z</time>
      </trkpt>
      <trkpt lat="41.820743" lon="22.989606">
        <ele>1207.3</ele>
        <time>2026-05-06T08:24:33.000Z</time>
      </trkpt>
      <trkpt lat="41.820728" lon="22.989607">
        <ele>1207.3</ele>
        <time>2026-05-06T08:24:34.000Z</time>
      </trkpt>
      <trkpt lat="41.820713" lon="22.989608">
        <ele>1207.3</ele>
        <time>2026-05-06T08:24:35.000Z</time>
      </trkpt>
      <trkpt lat="41.8207" lon="22.98961">
        <ele>1207.3</ele>
        <time>2026-05-06T08:24:36.000Z</time>
      </trkpt>
      <trkpt lat="41.820687" lon="22.989612">
        <ele>1207.9</ele>
        <time>2026-05-06T08:24:37.000Z</time>
      </trkpt>
      <trkpt lat="41.820674" lon="22.989615">
        <ele>1207.9</ele>
        <time>2026-05-06T08:24:38.000Z</time>
      </trkpt>
      <trkpt lat="41.820661" lon="22.989619">
        <ele>1207.9</ele>
        <time>2026-05-06T08:24:39.000Z</time>
      </trkpt>
      <trkpt lat="41.820647" lon="22.989623">
        <ele>1207.9</ele>
        <time>2026-05-06T08:24:40.000Z</time>
      </trkpt>
      <trkpt lat="41.820633" lon="22.989626">
        <ele>1207.9</ele>
        <time>2026-05-06T08:24:41.000Z</time>
      </trkpt>
      <trkpt lat="41.82062" lon="22.98963">
        <ele>1208.1</ele>
        <time>2026-05-06T08:24:42.000Z</time>
      </trkpt>
      <trkpt lat="41.820605" lon="22.989633">
        <ele>1208.1</ele>
        <time>2026-05-06T08:24:43.000Z</time>
      </trkpt>
      <trkpt lat="41.820591" lon="22.989637">
        <ele>1208.1</ele>
        <time>2026-05-06T08:24:44.000Z</time>
      </trkpt>
      <trkpt lat="41.820577" lon="22.989642">
        <ele>1208.1</ele>
        <time>2026-05-06T08:24:45.000Z</time>
      </trkpt>
      <trkpt lat="41.820563" lon="22.989647">
        <ele>1208.1</ele>
        <time>2026-05-06T08:24:46.000Z</time>
      </trkpt>
      <trkpt lat="41.820548" lon="22.989652">
        <ele>1208.6</ele>
        <time>2026-05-06T08:24:47.000Z</time>
      </trkpt>
      <trkpt lat="41.820532" lon="22.989655">
        <ele>1208.6</ele>
        <time>2026-05-06T08:24:48.000Z</time>
      </trkpt>
      <trkpt lat="41.820517" lon="22.989658">
        <ele>1208.6</ele>
        <time>2026-05-06T08:24:49.000Z</time>
      </trkpt>
      <trkpt lat="41.820501" lon="22.989662">
        <ele>1208.6</ele>
        <time>2026-05-06T08:24:50.000Z</time>
      </trkpt>
      <trkpt lat="41.820485" lon="22.989666">
        <ele>1208.6</ele>
        <time>2026-05-06T08:24:51.000Z</time>
      </trkpt>
      <trkpt lat="41.82047" lon="22.989671">
        <ele>1209.2</ele>
        <time>2026-05-06T08:24:52.000Z</time>
      </trkpt>
      <trkpt lat="41.820456" lon="22.989679">
        <ele>1209.2</ele>
        <time>2026-05-06T08:24:53.000Z</time>
      </trkpt>
      <trkpt lat="41.820441" lon="22.989687">
        <ele>1209.2</ele>
        <time>2026-05-06T08:24:54.000Z</time>
      </trkpt>
      <trkpt lat="41.820428" lon="22.989695">
        <ele>1209.2</ele>
        <time>2026-05-06T08:24:55.000Z</time>
      </trkpt>
      <trkpt lat="41.820415" lon="22.989704">
        <ele>1209.2</ele>
        <time>2026-05-06T08:24:56.000Z</time>
      </trkpt>
      <trkpt lat="41.820403" lon="22.989712">
        <ele>1209.4</ele>
        <time>2026-05-06T08:24:57.000Z</time>
      </trkpt>
      <trkpt lat="41.82039" lon="22.989721">
        <ele>1209.4</ele>
        <time>2026-05-06T08:24:58.000Z</time>
      </trkpt>
      <trkpt lat="41.820377" lon="22.989727">
        <ele>1209.4</ele>
        <time>2026-05-06T08:24:59.000Z</time>
      </trkpt>
      <trkpt lat="41.820364" lon="22.989732">
        <ele>1209.4</ele>
        <time>2026-05-06T08:25:00.000Z</time>
      </trkpt>
      <trkpt lat="41.82035" lon="22.989734">
        <ele>1209.4</ele>
        <time>2026-05-06T08:25:01.000Z</time>
      </trkpt>
      <trkpt lat="41.820335" lon="22.989734">
        <ele>1209.8</ele>
        <time>2026-05-06T08:25:02.000Z</time>
      </trkpt>
      <trkpt lat="41.820319" lon="22.989731">
        <ele>1209.8</ele>
        <time>2026-05-06T08:25:03.000Z</time>
      </trkpt>
      <trkpt lat="41.820302" lon="22.989726">
        <ele>1209.8</ele>
        <time>2026-05-06T08:25:04.000Z</time>
      </trkpt>
      <trkpt lat="41.820286" lon="22.98972">
        <ele>1209.8</ele>
        <time>2026-05-06T08:25:05.000Z</time>
      </trkpt>
      <trkpt lat="41.820269" lon="22.989714">
        <ele>1209.8</ele>
        <time>2026-05-06T08:25:06.000Z</time>
      </trkpt>
      <trkpt lat="41.820254" lon="22.989708">
        <ele>1210.1</ele>
        <time>2026-05-06T08:25:07.000Z</time>
      </trkpt>
      <trkpt lat="41.820239" lon="22.989701">
        <ele>1210.1</ele>
        <time>2026-05-06T08:25:08.000Z</time>
      </trkpt>
      <trkpt lat="41.820226" lon="22.989694">
        <ele>1210.1</ele>
        <time>2026-05-06T08:25:09.000Z</time>
      </trkpt>
      <trkpt lat="41.820215" lon="22.989685">
        <ele>1210.1</ele>
        <time>2026-05-06T08:25:10.000Z</time>
      </trkpt>
      <trkpt lat="41.820205" lon="22.989675">
        <ele>1210.1</ele>
        <time>2026-05-06T08:25:11.000Z</time>
      </trkpt>
      <trkpt lat="41.820196" lon="22.989662">
        <ele>1210.3</ele>
        <time>2026-05-06T08:25:12.000Z</time>
      </trkpt>
      <trkpt lat="41.820188" lon="22.989648">
        <ele>1210.3</ele>
        <time>2026-05-06T08:25:13.000Z</time>
      </trkpt>
      <trkpt lat="41.820179" lon="22.989634">
        <ele>1210.3</ele>
        <time>2026-05-06T08:25:14.000Z</time>
      </trkpt>
      <trkpt lat="41.82017" lon="22.989619">
        <ele>1210.3</ele>
        <time>2026-05-06T08:25:15.000Z</time>
      </trkpt>
      <trkpt lat="41.820159" lon="22.989605">
        <ele>1210.3</ele>
        <time>2026-05-06T08:25:16.000Z</time>
      </trkpt>
      <trkpt lat="41.82015" lon="22.989592">
        <ele>1210.8</ele>
        <time>2026-05-06T08:25:17.000Z</time>
      </trkpt>
      <trkpt lat="41.82014" lon="22.98958">
        <ele>1210.8</ele>
        <time>2026-05-06T08:25:18.000Z</time>
      </trkpt>
      <trkpt lat="41.820127" lon="22.989572">
        <ele>1210.8</ele>
        <time>2026-05-06T08:25:19.000Z</time>
      </trkpt>
      <trkpt lat="41.820114" lon="22.989565">
        <ele>1210.8</ele>
        <time>2026-05-06T08:25:20.000Z</time>
      </trkpt>
      <trkpt lat="41.820102" lon="22.989558">
        <ele>1210.8</ele>
        <time>2026-05-06T08:25:21.000Z</time>
      </trkpt>
      <trkpt lat="41.820092" lon="22.989552">
        <ele>1211.4</ele>
        <time>2026-05-06T08:25:22.000Z</time>
      </trkpt>
      <trkpt lat="41.820078" lon="22.989547">
        <ele>1211.4</ele>
        <time>2026-05-06T08:25:23.000Z</time>
      </trkpt>
      <trkpt lat="41.820068" lon="22.98954">
        <ele>1211.4</ele>
        <time>2026-05-06T08:25:24.000Z</time>
      </trkpt>
      <trkpt lat="41.820059" lon="22.989531">
        <ele>1211.4</ele>
        <time>2026-05-06T08:25:25.000Z</time>
      </trkpt>
      <trkpt lat="41.820047" lon="22.989522">
        <ele>1211.4</ele>
        <time>2026-05-06T08:25:26.000Z</time>
      </trkpt>
      <trkpt lat="41.820033" lon="22.989513">
        <ele>1211.7</ele>
        <time>2026-05-06T08:25:27.000Z</time>
      </trkpt>
      <trkpt lat="41.820024" lon="22.9895">
        <ele>1211.7</ele>
        <time>2026-05-06T08:25:28.000Z</time>
      </trkpt>
      <trkpt lat="41.820013" lon="22.989488">
        <ele>1211.7</ele>
        <time>2026-05-06T08:25:29.000Z</time>
      </trkpt>
      <trkpt lat="41.820005" lon="22.989478">
        <ele>1211.7</ele>
        <time>2026-05-06T08:25:30.000Z</time>
      </trkpt>
      <trkpt lat="41.82" lon="22.989467">
        <ele>1211.7</ele>
        <time>2026-05-06T08:25:31.000Z</time>
      </trkpt>
      <trkpt lat="41.819996" lon="22.989456">
        <ele>1212.2</ele>
        <time>2026-05-06T08:25:32.000Z</time>
      </trkpt>
      <trkpt lat="41.81999" lon="22.989447">
        <ele>1212.2</ele>
        <time>2026-05-06T08:25:33.000Z</time>
      </trkpt>
      <trkpt lat="41.819986" lon="22.989438">
        <ele>1212.2</ele>
        <time>2026-05-06T08:25:34.000Z</time>
      </trkpt>
      <trkpt lat="41.81998" lon="22.989428">
        <ele>1212.2</ele>
        <time>2026-05-06T08:25:35.000Z</time>
      </trkpt>
      <trkpt lat="41.819973" lon="22.989419">
        <ele>1212.2</ele>
        <time>2026-05-06T08:25:36.000Z</time>
      </trkpt>
      <trkpt lat="41.819967" lon="22.989408">
        <ele>1212.7</ele>
        <time>2026-05-06T08:25:37.000Z</time>
      </trkpt>
      <trkpt lat="41.81996" lon="22.989395">
        <ele>1212.7</ele>
        <time>2026-05-06T08:25:38.000Z</time>
      </trkpt>
      <trkpt lat="41.819955" lon="22.989381">
        <ele>1212.7</ele>
        <time>2026-05-06T08:25:39.000Z</time>
      </trkpt>
      <trkpt lat="41.819954" lon="22.989366">
        <ele>1212.7</ele>
        <time>2026-05-06T08:25:40.000Z</time>
      </trkpt>
      <trkpt lat="41.819955" lon="22.989348">
        <ele>1212.7</ele>
        <time>2026-05-06T08:25:41.000Z</time>
      </trkpt>
      <trkpt lat="41.819956" lon="22.989329">
        <ele>1213</ele>
        <time>2026-05-06T08:25:42.000Z</time>
      </trkpt>
      <trkpt lat="41.81996" lon="22.989311">
        <ele>1213</ele>
        <time>2026-05-06T08:25:43.000Z</time>
      </trkpt>
      <trkpt lat="41.819961" lon="22.989294">
        <ele>1213</ele>
        <time>2026-05-06T08:25:44.000Z</time>
      </trkpt>
      <trkpt lat="41.819959" lon="22.989277">
        <ele>1213</ele>
        <time>2026-05-06T08:25:45.000Z</time>
      </trkpt>
      <trkpt lat="41.819958" lon="22.989262">
        <ele>1213</ele>
        <time>2026-05-06T08:25:46.000Z</time>
      </trkpt>
      <trkpt lat="41.819956" lon="22.98925">
        <ele>1213.5</ele>
        <time>2026-05-06T08:25:47.000Z</time>
      </trkpt>
      <trkpt lat="41.819954" lon="22.989238">
        <ele>1213.5</ele>
        <time>2026-05-06T08:25:48.000Z</time>
      </trkpt>
      <trkpt lat="41.819953" lon="22.989225">
        <ele>1213.5</ele>
        <time>2026-05-06T08:25:49.000Z</time>
      </trkpt>
      <trkpt lat="41.819953" lon="22.989213">
        <ele>1213.5</ele>
        <time>2026-05-06T08:25:50.000Z</time>
      </trkpt>
      <trkpt lat="41.819954" lon="22.989201">
        <ele>1213.5</ele>
        <time>2026-05-06T08:25:51.000Z</time>
      </trkpt>
      <trkpt lat="41.819952" lon="22.989188">
        <ele>1213.9</ele>
        <time>2026-05-06T08:25:52.000Z</time>
      </trkpt>
      <trkpt lat="41.819951" lon="22.989176">
        <ele>1213.9</ele>
        <time>2026-05-06T08:25:53.000Z</time>
      </trkpt>
      <trkpt lat="41.819953" lon="22.989165">
        <ele>1213.9</ele>
        <time>2026-05-06T08:25:54.000Z</time>
      </trkpt>
      <trkpt lat="41.819956" lon="22.989153">
        <ele>1213.9</ele>
        <time>2026-05-06T08:25:55.000Z</time>
      </trkpt>
      <trkpt lat="41.819956" lon="22.989141">
        <ele>1213.9</ele>
        <time>2026-05-06T08:25:56.000Z</time>
      </trkpt>
      <trkpt lat="41.819958" lon="22.989128">
        <ele>1214.2</ele>
        <time>2026-05-06T08:25:57.000Z</time>
      </trkpt>
      <trkpt lat="41.819959" lon="22.989113">
        <ele>1214.2</ele>
        <time>2026-05-06T08:25:58.000Z</time>
      </trkpt>
      <trkpt lat="41.819959" lon="22.989097">
        <ele>1214.2</ele>
        <time>2026-05-06T08:25:59.000Z</time>
      </trkpt>
      <trkpt lat="41.819958" lon="22.989081">
        <ele>1214.2</ele>
        <time>2026-05-06T08:26:00.000Z</time>
      </trkpt>
      <trkpt lat="41.819956" lon="22.989066">
        <ele>1214.2</ele>
        <time>2026-05-06T08:26:01.000Z</time>
      </trkpt>
      <trkpt lat="41.819956" lon="22.98905">
        <ele>1214.7</ele>
        <time>2026-05-06T08:26:02.000Z</time>
      </trkpt>
      <trkpt lat="41.819956" lon="22.989034">
        <ele>1214.7</ele>
        <time>2026-05-06T08:26:03.000Z</time>
      </trkpt>
      <trkpt lat="41.819955" lon="22.989015">
        <ele>1214.7</ele>
        <time>2026-05-06T08:26:04.000Z</time>
      </trkpt>
      <trkpt lat="41.819954" lon="22.988996">
        <ele>1214.7</ele>
        <time>2026-05-06T08:26:05.000Z</time>
      </trkpt>
      <trkpt lat="41.819954" lon="22.988975">
        <ele>1214.7</ele>
        <time>2026-05-06T08:26:06.000Z</time>
      </trkpt>
      <trkpt lat="41.819952" lon="22.988955">
        <ele>1215.3</ele>
        <time>2026-05-06T08:26:07.000Z</time>
      </trkpt>
      <trkpt lat="41.819948" lon="22.988935">
        <ele>1215.3</ele>
        <time>2026-05-06T08:26:08.000Z</time>
      </trkpt>
      <trkpt lat="41.819947" lon="22.988917">
        <ele>1215.3</ele>
        <time>2026-05-06T08:26:09.000Z</time>
      </trkpt>
      <trkpt lat="41.819945" lon="22.988898">
        <ele>1215.3</ele>
        <time>2026-05-06T08:26:10.000Z</time>
      </trkpt>
      <trkpt lat="41.819943" lon="22.98888">
        <ele>1215.3</ele>
        <time>2026-05-06T08:26:11.000Z</time>
      </trkpt>
      <trkpt lat="41.819941" lon="22.988859">
        <ele>1215.6</ele>
        <time>2026-05-06T08:26:12.000Z</time>
      </trkpt>
      <trkpt lat="41.819939" lon="22.988839">
        <ele>1215.6</ele>
        <time>2026-05-06T08:26:13.000Z</time>
      </trkpt>
      <trkpt lat="41.819937" lon="22.988818">
        <ele>1215.6</ele>
        <time>2026-05-06T08:26:14.000Z</time>
      </trkpt>
      <trkpt lat="41.819936" lon="22.988799">
        <ele>1215.6</ele>
        <time>2026-05-06T08:26:15.000Z</time>
      </trkpt>
      <trkpt lat="41.819935" lon="22.988781">
        <ele>1215.6</ele>
        <time>2026-05-06T08:26:16.000Z</time>
      </trkpt>
      <trkpt lat="41.819934" lon="22.988765">
        <ele>1216.3</ele>
        <time>2026-05-06T08:26:17.000Z</time>
      </trkpt>
      <trkpt lat="41.819934" lon="22.988749">
        <ele>1216.3</ele>
        <time>2026-05-06T08:26:18.000Z</time>
      </trkpt>
      <trkpt lat="41.819934" lon="22.988734">
        <ele>1216.3</ele>
        <time>2026-05-06T08:26:19.000Z</time>
      </trkpt>
      <trkpt lat="41.819932" lon="22.988723">
        <ele>1216.3</ele>
        <time>2026-05-06T08:26:20.000Z</time>
      </trkpt>
      <trkpt lat="41.819932" lon="22.988713">
        <ele>1216.3</ele>
        <time>2026-05-06T08:26:21.000Z</time>
      </trkpt>
      <trkpt lat="41.819933" lon="22.988703">
        <ele>1217</ele>
        <time>2026-05-06T08:26:22.000Z</time>
      </trkpt>
      <trkpt lat="41.819936" lon="22.988693">
        <ele>1217</ele>
        <time>2026-05-06T08:26:23.000Z</time>
      </trkpt>
      <trkpt lat="41.819936" lon="22.988683">
        <ele>1217</ele>
        <time>2026-05-06T08:26:24.000Z</time>
      </trkpt>
      <trkpt lat="41.819937" lon="22.988669">
        <ele>1217</ele>
        <time>2026-05-06T08:26:25.000Z</time>
      </trkpt>
      <trkpt lat="41.819937" lon="22.988653">
        <ele>1217</ele>
        <time>2026-05-06T08:26:26.000Z</time>
      </trkpt>
      <trkpt lat="41.819936" lon="22.988635">
        <ele>1217.3</ele>
        <time>2026-05-06T08:26:27.000Z</time>
      </trkpt>
      <trkpt lat="41.819934" lon="22.988618">
        <ele>1217.3</ele>
        <time>2026-05-06T08:26:28.000Z</time>
      </trkpt>
      <trkpt lat="41.819934" lon="22.9886">
        <ele>1217.3</ele>
        <time>2026-05-06T08:26:29.000Z</time>
      </trkpt>
      <trkpt lat="41.819934" lon="22.988583">
        <ele>1217.3</ele>
        <time>2026-05-06T08:26:30.000Z</time>
      </trkpt>
      <trkpt lat="41.819934" lon="22.988567">
        <ele>1217.3</ele>
        <time>2026-05-06T08:26:31.000Z</time>
      </trkpt>
      <trkpt lat="41.819932" lon="22.988552">
        <ele>1217.8</ele>
        <time>2026-05-06T08:26:32.000Z</time>
      </trkpt>
      <trkpt lat="41.819929" lon="22.988538">
        <ele>1217.8</ele>
        <time>2026-05-06T08:26:33.000Z</time>
      </trkpt>
      <trkpt lat="41.819925" lon="22.988525">
        <ele>1217.8</ele>
        <time>2026-05-06T08:26:34.000Z</time>
      </trkpt>
      <trkpt lat="41.819922" lon="22.988514">
        <ele>1217.8</ele>
        <time>2026-05-06T08:26:35.000Z</time>
      </trkpt>
      <trkpt lat="41.819915" lon="22.988504">
        <ele>1217.8</ele>
        <time>2026-05-06T08:26:36.000Z</time>
      </trkpt>
      <trkpt lat="41.819908" lon="22.988498">
        <ele>1218.3</ele>
        <time>2026-05-06T08:26:37.000Z</time>
      </trkpt>
      <trkpt lat="41.819899" lon="22.988493">
        <ele>1218.3</ele>
        <time>2026-05-06T08:26:38.000Z</time>
      </trkpt>
      <trkpt lat="41.81989" lon="22.98849">
        <ele>1218.3</ele>
        <time>2026-05-06T08:26:39.000Z</time>
      </trkpt>
      <trkpt lat="41.81988" lon="22.988485">
        <ele>1218.3</ele>
        <time>2026-05-06T08:26:40.000Z</time>
      </trkpt>
      <trkpt lat="41.819877" lon="22.988483">
        <ele>1218.3</ele>
        <time>2026-05-06T08:26:41.000Z</time>
      </trkpt>
      <trkpt lat="41.819873" lon="22.988474">
        <ele>1218.6</ele>
        <time>2026-05-06T08:26:42.000Z</time>
      </trkpt>
      <trkpt lat="41.819871" lon="22.988464">
        <ele>1218.6</ele>
        <time>2026-05-06T08:26:43.000Z</time>
      </trkpt>
      <trkpt lat="41.819868" lon="22.98845">
        <ele>1218.6</ele>
        <time>2026-05-06T08:26:44.000Z</time>
      </trkpt>
      <trkpt lat="41.819864" lon="22.988434">
        <ele>1218.6</ele>
        <time>2026-05-06T08:26:45.000Z</time>
      </trkpt>
      <trkpt lat="41.819854" lon="22.988415">
        <ele>1218.6</ele>
        <time>2026-05-06T08:26:46.000Z</time>
      </trkpt>
      <trkpt lat="41.819844" lon="22.988397">
        <ele>1219</ele>
        <time>2026-05-06T08:26:47.000Z</time>
      </trkpt>
      <trkpt lat="41.819836" lon="22.988381">
        <ele>1219</ele>
        <time>2026-05-06T08:26:48.000Z</time>
      </trkpt>
      <trkpt lat="41.819829" lon="22.988366">
        <ele>1219</ele>
        <time>2026-05-06T08:26:49.000Z</time>
      </trkpt>
      <trkpt lat="41.819824" lon="22.988352">
        <ele>1219</ele>
        <time>2026-05-06T08:26:50.000Z</time>
      </trkpt>
      <trkpt lat="41.819823" lon="22.988341">
        <ele>1219</ele>
        <time>2026-05-06T08:26:51.000Z</time>
      </trkpt>
      <trkpt lat="41.819822" lon="22.98833">
        <ele>1219</ele>
        <time>2026-05-06T08:26:52.000Z</time>
      </trkpt>
      <trkpt lat="41.819821" lon="22.988323">
        <ele>1219</ele>
        <time>2026-05-06T08:26:53.000Z</time>
      </trkpt>
      <trkpt lat="41.819821" lon="22.988319">
        <ele>1219</ele>
        <time>2026-05-06T08:26:54.000Z</time>
      </trkpt>
      <trkpt lat="41.81982" lon="22.988317">
        <ele>1219</ele>
        <time>2026-05-06T08:26:55.000Z</time>
      </trkpt>
      <trkpt lat="41.819819" lon="22.988316">
        <ele>1219</ele>
        <time>2026-05-06T08:26:56.000Z</time>
      </trkpt>
      <trkpt lat="41.81982" lon="22.988317">
        <ele>1219</ele>
        <time>2026-05-06T08:26:57.000Z</time>
      </trkpt>
      <trkpt lat="41.81982" lon="22.988317">
        <ele>1219</ele>
        <time>2026-05-06T08:26:58.000Z</time>
      </trkpt>
      <trkpt lat="41.81982" lon="22.988317">
        <ele>1219</ele>
        <time>2026-05-06T08:26:59.000Z</time>
      </trkpt>
      <trkpt lat="41.819821" lon="22.988318">
        <ele>1219</ele>
        <time>2026-05-06T08:27:00.000Z</time>
      </trkpt>
      <trkpt lat="41.819821" lon="22.988319">
        <ele>1219</ele>
        <time>2026-05-06T08:27:01.000Z</time>
      </trkpt>
      <trkpt lat="41.81982" lon="22.988319">
        <ele>1219</ele>
        <time>2026-05-06T08:27:02.000Z</time>
      </trkpt>
      <trkpt lat="41.81982" lon="22.988321">
        <ele>1219</ele>
        <time>2026-05-06T08:27:03.000Z</time>
      </trkpt>
      <trkpt lat="41.81982" lon="22.988321">
        <ele>1219</ele>
        <time>2026-05-06T08:27:04.000Z</time>
      </trkpt>
      <trkpt lat="41.819822" lon="22.988323">
        <ele>1219</ele>
        <time>2026-05-06T08:27:05.000Z</time>
      </trkpt>
      <trkpt lat="41.819823" lon="22.988324">
        <ele>1219</ele>
        <time>2026-05-06T08:27:06.000Z</time>
      </trkpt>
      <trkpt lat="41.819826" lon="22.988327">
        <ele>1219.1</ele>
        <time>2026-05-06T08:27:07.000Z</time>
      </trkpt>
      <trkpt lat="41.819828" lon="22.988329">
        <ele>1219.1</ele>
        <time>2026-05-06T08:27:08.000Z</time>
      </trkpt>
      <trkpt lat="41.819831" lon="22.988331">
        <ele>1219.1</ele>
        <time>2026-05-06T08:27:09.000Z</time>
      </trkpt>
      <trkpt lat="41.819831" lon="22.98833">
        <ele>1219.1</ele>
        <time>2026-05-06T08:27:10.000Z</time>
      </trkpt>
      <trkpt lat="41.819832" lon="22.988329">
        <ele>1219.1</ele>
        <time>2026-05-06T08:27:11.000Z</time>
      </trkpt>
      <trkpt lat="41.819832" lon="22.988326">
        <ele>1219.1</ele>
        <time>2026-05-06T08:27:12.000Z</time>
      </trkpt>
      <trkpt lat="41.819831" lon="22.988323">
        <ele>1219.1</ele>
        <time>2026-05-06T08:27:13.000Z</time>
      </trkpt>
      <trkpt lat="41.819831" lon="22.98832">
        <ele>1219.1</ele>
        <time>2026-05-06T08:27:14.000Z</time>
      </trkpt>
      <trkpt lat="41.81983" lon="22.988318">
        <ele>1219.1</ele>
        <time>2026-05-06T08:27:15.000Z</time>
      </trkpt>
      <trkpt lat="41.819828" lon="22.988316">
        <ele>1219.1</ele>
        <time>2026-05-06T08:27:16.000Z</time>
      </trkpt>
      <trkpt lat="41.819828" lon="22.988316">
        <ele>1219.4</ele>
        <time>2026-05-06T08:27:17.000Z</time>
      </trkpt>
      <trkpt lat="41.819828" lon="22.988317">
        <ele>1219.4</ele>
        <time>2026-05-06T08:27:18.000Z</time>
      </trkpt>
      <trkpt lat="41.819829" lon="22.988318">
        <ele>1219.4</ele>
        <time>2026-05-06T08:27:19.000Z</time>
      </trkpt>
      <trkpt lat="41.819831" lon="22.988319">
        <ele>1219.4</ele>
        <time>2026-05-06T08:27:20.000Z</time>
      </trkpt>
      <trkpt lat="41.819832" lon="22.98832">
        <ele>1219.4</ele>
        <time>2026-05-06T08:27:21.000Z</time>
      </trkpt>
      <trkpt lat="41.819832" lon="22.988321">
        <ele>1219.5</ele>
        <time>2026-05-06T08:27:22.000Z</time>
      </trkpt>
      <trkpt lat="41.819832" lon="22.988321">
        <ele>1219.5</ele>
        <time>2026-05-06T08:27:23.000Z</time>
      </trkpt>
      <trkpt lat="41.819832" lon="22.988321">
        <ele>1219.5</ele>
        <time>2026-05-06T08:27:24.000Z</time>
      </trkpt>
      <trkpt lat="41.819832" lon="22.98832">
        <ele>1219.5</ele>
        <time>2026-05-06T08:27:25.000Z</time>
      </trkpt>
      <trkpt lat="41.819832" lon="22.98832">
        <ele>1219.5</ele>
        <time>2026-05-06T08:27:26.000Z</time>
      </trkpt>
      <trkpt lat="41.81983" lon="22.988319">
        <ele>1219.3</ele>
        <time>2026-05-06T08:27:27.000Z</time>
      </trkpt>
      <trkpt lat="41.819829" lon="22.98832">
        <ele>1219.3</ele>
        <time>2026-05-06T08:27:28.000Z</time>
      </trkpt>
      <trkpt lat="41.819828" lon="22.98832">
        <ele>1219.3</ele>
        <time>2026-05-06T08:27:29.000Z</time>
      </trkpt>
      <trkpt lat="41.819826" lon="22.988321">
        <ele>1219.3</ele>
        <time>2026-05-06T08:27:30.000Z</time>
      </trkpt>
      <trkpt lat="41.819825" lon="22.988322">
        <ele>1219.3</ele>
        <time>2026-05-06T08:27:31.000Z</time>
      </trkpt>
      <trkpt lat="41.819826" lon="22.988324">
        <ele>1219</ele>
        <time>2026-05-06T08:27:32.000Z</time>
      </trkpt>
      <trkpt lat="41.819826" lon="22.988325">
        <ele>1219</ele>
        <time>2026-05-06T08:27:33.000Z</time>
      </trkpt>
      <trkpt lat="41.819827" lon="22.988325">
        <ele>1219</ele>
        <time>2026-05-06T08:27:34.000Z</time>
      </trkpt>
      <trkpt lat="41.819827" lon="22.988326">
        <ele>1219</ele>
        <time>2026-05-06T08:27:35.000Z</time>
      </trkpt>
      <trkpt lat="41.819828" lon="22.988325">
        <ele>1219</ele>
        <time>2026-05-06T08:27:36.000Z</time>
      </trkpt>
      <trkpt lat="41.819831" lon="22.988325">
        <ele>1218.9</ele>
        <time>2026-05-06T08:27:37.000Z</time>
      </trkpt>
      <trkpt lat="41.819833" lon="22.988324">
        <ele>1218.9</ele>
        <time>2026-05-06T08:27:38.000Z</time>
      </trkpt>
      <trkpt lat="41.819835" lon="22.988322">
        <ele>1218.9</ele>
        <time>2026-05-06T08:27:39.000Z</time>
      </trkpt>
      <trkpt lat="41.819837" lon="22.988321">
        <ele>1218.9</ele>
        <time>2026-05-06T08:27:40.000Z</time>
      </trkpt>
      <trkpt lat="41.819837" lon="22.988319">
        <ele>1218.9</ele>
        <time>2026-05-06T08:27:41.000Z</time>
      </trkpt>
      <trkpt lat="41.819837" lon="22.988318">
        <ele>1218.9</ele>
        <time>2026-05-06T08:27:42.000Z</time>
      </trkpt>
      <trkpt lat="41.819837" lon="22.988318">
        <ele>1218.9</ele>
        <time>2026-05-06T08:27:43.000Z</time>
      </trkpt>
      <trkpt lat="41.819837" lon="22.988319">
        <ele>1218.9</ele>
        <time>2026-05-06T08:27:44.000Z</time>
      </trkpt>
      <trkpt lat="41.819837" lon="22.98832">
        <ele>1218.9</ele>
        <time>2026-05-06T08:27:45.000Z</time>
      </trkpt>
      <trkpt lat="41.819838" lon="22.98832">
        <ele>1218.9</ele>
        <time>2026-05-06T08:27:46.000Z</time>
      </trkpt>
      <trkpt lat="41.819839" lon="22.988321">
        <ele>1219</ele>
        <time>2026-05-06T08:27:47.000Z</time>
      </trkpt>
      <trkpt lat="41.81984" lon="22.98832">
        <ele>1219</ele>
        <time>2026-05-06T08:27:48.000Z</time>
      </trkpt>
      <trkpt lat="41.819842" lon="22.98832">
        <ele>1219</ele>
        <time>2026-05-06T08:27:49.000Z</time>
      </trkpt>
      <trkpt lat="41.819843" lon="22.98832">
        <ele>1219</ele>
        <time>2026-05-06T08:27:50.000Z</time>
      </trkpt>
      <trkpt lat="41.819843" lon="22.98832">
        <ele>1219</ele>
        <time>2026-05-06T08:27:51.000Z</time>
      </trkpt>
      <trkpt lat="41.819843" lon="22.988319">
        <ele>1219</ele>
        <time>2026-05-06T08:27:52.000Z</time>
      </trkpt>
      <trkpt lat="41.819843" lon="22.988318">
        <ele>1219</ele>
        <time>2026-05-06T08:27:53.000Z</time>
      </trkpt>
      <trkpt lat="41.819845" lon="22.988317">
        <ele>1219</ele>
        <time>2026-05-06T08:27:54.000Z</time>
      </trkpt>
      <trkpt lat="41.819847" lon="22.988317">
        <ele>1219</ele>
        <time>2026-05-06T08:27:55.000Z</time>
      </trkpt>
      <trkpt lat="41.819849" lon="22.988318">
        <ele>1219</ele>
        <time>2026-05-06T08:27:56.000Z</time>
      </trkpt>
      <trkpt lat="41.819849" lon="22.988321">
        <ele>1219</ele>
        <time>2026-05-06T08:27:57.000Z</time>
      </trkpt>
      <trkpt lat="41.819848" lon="22.988324">
        <ele>1219</ele>
        <time>2026-05-06T08:27:58.000Z</time>
      </trkpt>
      <trkpt lat="41.819845" lon="22.988327">
        <ele>1219</ele>
        <time>2026-05-06T08:27:59.000Z</time>
      </trkpt>
      <trkpt lat="41.819842" lon="22.988328">
        <ele>1219</ele>
        <time>2026-05-06T08:28:00.000Z</time>
      </trkpt>
      <trkpt lat="41.819841" lon="22.988329">
        <ele>1219</ele>
        <time>2026-05-06T08:28:01.000Z</time>
      </trkpt>
      <trkpt lat="41.819841" lon="22.988329">
        <ele>1218.9</ele>
        <time>2026-05-06T08:28:02.000Z</time>
      </trkpt>
      <trkpt lat="41.819842" lon="22.988329">
        <ele>1218.9</ele>
        <time>2026-05-06T08:28:03.000Z</time>
      </trkpt>
      <trkpt lat="41.819843" lon="22.988329">
        <ele>1218.9</ele>
        <time>2026-05-06T08:28:04.000Z</time>
      </trkpt>
      <trkpt lat="41.819844" lon="22.98833">
        <ele>1218.9</ele>
        <time>2026-05-06T08:28:05.000Z</time>
      </trkpt>
      <trkpt lat="41.819845" lon="22.98833">
        <ele>1218.9</ele>
        <time>2026-05-06T08:28:06.000Z</time>
      </trkpt>
      <trkpt lat="41.819845" lon="22.988328">
        <ele>1218.6</ele>
        <time>2026-05-06T08:28:07.000Z</time>
      </trkpt>
      <trkpt lat="41.819844" lon="22.988322">
        <ele>1218.6</ele>
        <time>2026-05-06T08:28:08.000Z</time>
      </trkpt>
      <trkpt lat="41.819844" lon="22.988314">
        <ele>1218.6</ele>
        <time>2026-05-06T08:28:09.000Z</time>
      </trkpt>
      <trkpt lat="41.819844" lon="22.988304">
        <ele>1218.6</ele>
        <time>2026-05-06T08:28:10.000Z</time>
      </trkpt>
      <trkpt lat="41.819843" lon="22.988289">
        <ele>1218.6</ele>
        <time>2026-05-06T08:28:11.000Z</time>
      </trkpt>
      <trkpt lat="41.819842" lon="22.988274">
        <ele>1218.4</ele>
        <time>2026-05-06T08:28:12.000Z</time>
      </trkpt>
      <trkpt lat="41.819842" lon="22.988257">
        <ele>1218.4</ele>
        <time>2026-05-06T08:28:13.000Z</time>
      </trkpt>
      <trkpt lat="41.819841" lon="22.988239">
        <ele>1218.4</ele>
        <time>2026-05-06T08:28:14.000Z</time>
      </trkpt>
      <trkpt lat="41.819841" lon="22.988221">
        <ele>1218.4</ele>
        <time>2026-05-06T08:28:15.000Z</time>
      </trkpt>
      <trkpt lat="41.819841" lon="22.988204">
        <ele>1218.4</ele>
        <time>2026-05-06T08:28:16.000Z</time>
      </trkpt>
      <trkpt lat="41.819843" lon="22.988186">
        <ele>1218.6</ele>
        <time>2026-05-06T08:28:17.000Z</time>
      </trkpt>
      <trkpt lat="41.819843" lon="22.98817">
        <ele>1218.6</ele>
        <time>2026-05-06T08:28:18.000Z</time>
      </trkpt>
      <trkpt lat="41.819843" lon="22.988154">
        <ele>1218.6</ele>
        <time>2026-05-06T08:28:19.000Z</time>
      </trkpt>
      <trkpt lat="41.819844" lon="22.988139">
        <ele>1218.6</ele>
        <time>2026-05-06T08:28:20.000Z</time>
      </trkpt>
      <trkpt lat="41.819842" lon="22.988125">
        <ele>1218.6</ele>
        <time>2026-05-06T08:28:21.000Z</time>
      </trkpt>
      <trkpt lat="41.819841" lon="22.988111">
        <ele>1219.2</ele>
        <time>2026-05-06T08:28:22.000Z</time>
      </trkpt>
      <trkpt lat="41.81984" lon="22.988098">
        <ele>1219.2</ele>
        <time>2026-05-06T08:28:23.000Z</time>
      </trkpt>
      <trkpt lat="41.819841" lon="22.988084">
        <ele>1219.2</ele>
        <time>2026-05-06T08:28:24.000Z</time>
      </trkpt>
      <trkpt lat="41.819842" lon="22.988071">
        <ele>1219.2</ele>
        <time>2026-05-06T08:28:25.000Z</time>
      </trkpt>
      <trkpt lat="41.819847" lon="22.988058">
        <ele>1219.2</ele>
        <time>2026-05-06T08:28:26.000Z</time>
      </trkpt>
      <trkpt lat="41.819849" lon="22.988044">
        <ele>1219.6</ele>
        <time>2026-05-06T08:28:27.000Z</time>
      </trkpt>
      <trkpt lat="41.819852" lon="22.988031">
        <ele>1219.6</ele>
        <time>2026-05-06T08:28:28.000Z</time>
      </trkpt>
      <trkpt lat="41.819853" lon="22.988017">
        <ele>1219.6</ele>
        <time>2026-05-06T08:28:29.000Z</time>
      </trkpt>
      <trkpt lat="41.819854" lon="22.988003">
        <ele>1219.6</ele>
        <time>2026-05-06T08:28:30.000Z</time>
      </trkpt>
      <trkpt lat="41.819853" lon="22.987988">
        <ele>1219.6</ele>
        <time>2026-05-06T08:28:31.000Z</time>
      </trkpt>
      <trkpt lat="41.819854" lon="22.987975">
        <ele>1220.1</ele>
        <time>2026-05-06T08:28:32.000Z</time>
      </trkpt>
      <trkpt lat="41.819853" lon="22.98796">
        <ele>1220.1</ele>
        <time>2026-05-06T08:28:33.000Z</time>
      </trkpt>
      <trkpt lat="41.819851" lon="22.987945">
        <ele>1220.1</ele>
        <time>2026-05-06T08:28:34.000Z</time>
      </trkpt>
      <trkpt lat="41.819849" lon="22.98793">
        <ele>1220.1</ele>
        <time>2026-05-06T08:28:35.000Z</time>
      </trkpt>
      <trkpt lat="41.819847" lon="22.987915">
        <ele>1220.1</ele>
        <time>2026-05-06T08:28:36.000Z</time>
      </trkpt>
      <trkpt lat="41.819845" lon="22.987899">
        <ele>1220.6</ele>
        <time>2026-05-06T08:28:37.000Z</time>
      </trkpt>
      <trkpt lat="41.819844" lon="22.987885">
        <ele>1220.6</ele>
        <time>2026-05-06T08:28:38.000Z</time>
      </trkpt>
      <trkpt lat="41.819845" lon="22.987872">
        <ele>1220.6</ele>
        <time>2026-05-06T08:28:39.000Z</time>
      </trkpt>
      <trkpt lat="41.819847" lon="22.987859">
        <ele>1220.6</ele>
        <time>2026-05-06T08:28:40.000Z</time>
      </trkpt>
      <trkpt lat="41.819846" lon="22.987847">
        <ele>1220.6</ele>
        <time>2026-05-06T08:28:41.000Z</time>
      </trkpt>
      <trkpt lat="41.819846" lon="22.987835">
        <ele>1220.7</ele>
        <time>2026-05-06T08:28:42.000Z</time>
      </trkpt>
      <trkpt lat="41.819848" lon="22.987823">
        <ele>1220.7</ele>
        <time>2026-05-06T08:28:43.000Z</time>
      </trkpt>
      <trkpt lat="41.81985" lon="22.987811">
        <ele>1220.7</ele>
        <time>2026-05-06T08:28:44.000Z</time>
      </trkpt>
      <trkpt lat="41.819851" lon="22.987797">
        <ele>1220.7</ele>
        <time>2026-05-06T08:28:45.000Z</time>
      </trkpt>
      <trkpt lat="41.819854" lon="22.987783">
        <ele>1220.7</ele>
        <time>2026-05-06T08:28:46.000Z</time>
      </trkpt>
      <trkpt lat="41.819859" lon="22.987767">
        <ele>1221.1</ele>
        <time>2026-05-06T08:28:47.000Z</time>
      </trkpt>
      <trkpt lat="41.819861" lon="22.987751">
        <ele>1221.1</ele>
        <time>2026-05-06T08:28:48.000Z</time>
      </trkpt>
      <trkpt lat="41.819863" lon="22.987735">
        <ele>1221.1</ele>
        <time>2026-05-06T08:28:49.000Z</time>
      </trkpt>
      <trkpt lat="41.819865" lon="22.987719">
        <ele>1221.1</ele>
        <time>2026-05-06T08:28:50.000Z</time>
      </trkpt>
      <trkpt lat="41.819866" lon="22.987701">
        <ele>1221.1</ele>
        <time>2026-05-06T08:28:51.000Z</time>
      </trkpt>
      <trkpt lat="41.819866" lon="22.987684">
        <ele>1221.6</ele>
        <time>2026-05-06T08:28:52.000Z</time>
      </trkpt>
      <trkpt lat="41.819867" lon="22.987665">
        <ele>1221.6</ele>
        <time>2026-05-06T08:28:53.000Z</time>
      </trkpt>
      <trkpt lat="41.819871" lon="22.987645">
        <ele>1221.6</ele>
        <time>2026-05-06T08:28:54.000Z</time>
      </trkpt>
      <trkpt lat="41.819874" lon="22.987625">
        <ele>1221.6</ele>
        <time>2026-05-06T08:28:55.000Z</time>
      </trkpt>
      <trkpt lat="41.819878" lon="22.987605">
        <ele>1221.6</ele>
        <time>2026-05-06T08:28:56.000Z</time>
      </trkpt>
      <trkpt lat="41.819883" lon="22.987585">
        <ele>1221.9</ele>
        <time>2026-05-06T08:28:57.000Z</time>
      </trkpt>
      <trkpt lat="41.819888" lon="22.987566">
        <ele>1221.9</ele>
        <time>2026-05-06T08:28:58.000Z</time>
      </trkpt>
      <trkpt lat="41.819892" lon="22.987547">
        <ele>1221.9</ele>
        <time>2026-05-06T08:28:59.000Z</time>
      </trkpt>
      <trkpt lat="41.819895" lon="22.987529">
        <ele>1221.9</ele>
        <time>2026-05-06T08:29:00.000Z</time>
      </trkpt>
      <trkpt lat="41.819899" lon="22.98751">
        <ele>1221.9</ele>
        <time>2026-05-06T08:29:01.000Z</time>
      </trkpt>
      <trkpt lat="41.819904" lon="22.987493">
        <ele>1222.4</ele>
        <time>2026-05-06T08:29:02.000Z</time>
      </trkpt>
      <trkpt lat="41.819909" lon="22.987475">
        <ele>1222.4</ele>
        <time>2026-05-06T08:29:03.000Z</time>
      </trkpt>
      <trkpt lat="41.819915" lon="22.987459">
        <ele>1222.4</ele>
        <time>2026-05-06T08:29:04.000Z</time>
      </trkpt>
      <trkpt lat="41.819923" lon="22.987443">
        <ele>1222.4</ele>
        <time>2026-05-06T08:29:05.000Z</time>
      </trkpt>
      <trkpt lat="41.819931" lon="22.987427">
        <ele>1222.4</ele>
        <time>2026-05-06T08:29:06.000Z</time>
      </trkpt>
      <trkpt lat="41.819937" lon="22.987411">
        <ele>1222.9</ele>
        <time>2026-05-06T08:29:07.000Z</time>
      </trkpt>
      <trkpt lat="41.819941" lon="22.987396">
        <ele>1222.9</ele>
        <time>2026-05-06T08:29:08.000Z</time>
      </trkpt>
      <trkpt lat="41.819944" lon="22.987381">
        <ele>1222.9</ele>
        <time>2026-05-06T08:29:09.000Z</time>
      </trkpt>
      <trkpt lat="41.819947" lon="22.987365">
        <ele>1222.9</ele>
        <time>2026-05-06T08:29:10.000Z</time>
      </trkpt>
      <trkpt lat="41.81995" lon="22.987349">
        <ele>1222.9</ele>
        <time>2026-05-06T08:29:11.000Z</time>
      </trkpt>
      <trkpt lat="41.819954" lon="22.987333">
        <ele>1223.2</ele>
        <time>2026-05-06T08:29:12.000Z</time>
      </trkpt>
      <trkpt lat="41.819957" lon="22.987316">
        <ele>1223.2</ele>
        <time>2026-05-06T08:29:13.000Z</time>
      </trkpt>
      <trkpt lat="41.81996" lon="22.987299">
        <ele>1223.2</ele>
        <time>2026-05-06T08:29:14.000Z</time>
      </trkpt>
      <trkpt lat="41.819962" lon="22.987283">
        <ele>1223.2</ele>
        <time>2026-05-06T08:29:15.000Z</time>
      </trkpt>
      <trkpt lat="41.81996" lon="22.987265">
        <ele>1223.2</ele>
        <time>2026-05-06T08:29:16.000Z</time>
      </trkpt>
      <trkpt lat="41.819958" lon="22.987248">
        <ele>1223.8</ele>
        <time>2026-05-06T08:29:17.000Z</time>
      </trkpt>
      <trkpt lat="41.819959" lon="22.98723">
        <ele>1223.8</ele>
        <time>2026-05-06T08:29:18.000Z</time>
      </trkpt>
      <trkpt lat="41.81996" lon="22.987211">
        <ele>1223.8</ele>
        <time>2026-05-06T08:29:19.000Z</time>
      </trkpt>
      <trkpt lat="41.81996" lon="22.987192">
        <ele>1223.8</ele>
        <time>2026-05-06T08:29:20.000Z</time>
      </trkpt>
      <trkpt lat="41.819965" lon="22.987176">
        <ele>1223.8</ele>
        <time>2026-05-06T08:29:21.000Z</time>
      </trkpt>
      <trkpt lat="41.81997" lon="22.987157">
        <ele>1224.4</ele>
        <time>2026-05-06T08:29:22.000Z</time>
      </trkpt>
      <trkpt lat="41.819974" lon="22.987137">
        <ele>1224.4</ele>
        <time>2026-05-06T08:29:23.000Z</time>
      </trkpt>
      <trkpt lat="41.819978" lon="22.987115">
        <ele>1224.4</ele>
        <time>2026-05-06T08:29:24.000Z</time>
      </trkpt>
      <trkpt lat="41.819983" lon="22.987094">
        <ele>1224.4</ele>
        <time>2026-05-06T08:29:25.000Z</time>
      </trkpt>
      <trkpt lat="41.819986" lon="22.987071">
        <ele>1224.4</ele>
        <time>2026-05-06T08:29:26.000Z</time>
      </trkpt>
      <trkpt lat="41.819988" lon="22.987049">
        <ele>1224.7</ele>
        <time>2026-05-06T08:29:27.000Z</time>
      </trkpt>
      <trkpt lat="41.81999" lon="22.987029">
        <ele>1224.7</ele>
        <time>2026-05-06T08:29:28.000Z</time>
      </trkpt>
      <trkpt lat="41.819992" lon="22.987009">
        <ele>1224.7</ele>
        <time>2026-05-06T08:29:29.000Z</time>
      </trkpt>
      <trkpt lat="41.819992" lon="22.986991">
        <ele>1224.7</ele>
        <time>2026-05-06T08:29:30.000Z</time>
      </trkpt>
      <trkpt lat="41.819993" lon="22.986973">
        <ele>1224.7</ele>
        <time>2026-05-06T08:29:31.000Z</time>
      </trkpt>
      <trkpt lat="41.819993" lon="22.986955">
        <ele>1225.4</ele>
        <time>2026-05-06T08:29:32.000Z</time>
      </trkpt>
      <trkpt lat="41.819993" lon="22.986936">
        <ele>1225.4</ele>
        <time>2026-05-06T08:29:33.000Z</time>
      </trkpt>
      <trkpt lat="41.819992" lon="22.986916">
        <ele>1225.4</ele>
        <time>2026-05-06T08:29:34.000Z</time>
      </trkpt>
      <trkpt lat="41.81999" lon="22.986894">
        <ele>1225.4</ele>
        <time>2026-05-06T08:29:35.000Z</time>
      </trkpt>
      <trkpt lat="41.819987" lon="22.986872">
        <ele>1225.4</ele>
        <time>2026-05-06T08:29:36.000Z</time>
      </trkpt>
      <trkpt lat="41.819984" lon="22.986849">
        <ele>1226</ele>
        <time>2026-05-06T08:29:37.000Z</time>
      </trkpt>
      <trkpt lat="41.81998" lon="22.986827">
        <ele>1226</ele>
        <time>2026-05-06T08:29:38.000Z</time>
      </trkpt>
      <trkpt lat="41.819976" lon="22.986804">
        <ele>1226</ele>
        <time>2026-05-06T08:29:39.000Z</time>
      </trkpt>
      <trkpt lat="41.819974" lon="22.986781">
        <ele>1226</ele>
        <time>2026-05-06T08:29:40.000Z</time>
      </trkpt>
      <trkpt lat="41.81997" lon="22.98676">
        <ele>1226</ele>
        <time>2026-05-06T08:29:41.000Z</time>
      </trkpt>
      <trkpt lat="41.819965" lon="22.986739">
        <ele>1226.2</ele>
        <time>2026-05-06T08:29:42.000Z</time>
      </trkpt>
      <trkpt lat="41.819958" lon="22.98672">
        <ele>1226.2</ele>
        <time>2026-05-06T08:29:43.000Z</time>
      </trkpt>
      <trkpt lat="41.81995" lon="22.986701">
        <ele>1226.2</ele>
        <time>2026-05-06T08:29:44.000Z</time>
      </trkpt>
      <trkpt lat="41.819939" lon="22.986685">
        <ele>1226.2</ele>
        <time>2026-05-06T08:29:45.000Z</time>
      </trkpt>
      <trkpt lat="41.819929" lon="22.986668">
        <ele>1226.2</ele>
        <time>2026-05-06T08:29:46.000Z</time>
      </trkpt>
      <trkpt lat="41.81992" lon="22.986651">
        <ele>1226.7</ele>
        <time>2026-05-06T08:29:47.000Z</time>
      </trkpt>
      <trkpt lat="41.81991" lon="22.986636">
        <ele>1226.7</ele>
        <time>2026-05-06T08:29:48.000Z</time>
      </trkpt>
      <trkpt lat="41.8199" lon="22.986623">
        <ele>1226.7</ele>
        <time>2026-05-06T08:29:49.000Z</time>
      </trkpt>
      <trkpt lat="41.819889" lon="22.986608">
        <ele>1226.7</ele>
        <time>2026-05-06T08:29:50.000Z</time>
      </trkpt>
      <trkpt lat="41.819878" lon="22.986595">
        <ele>1226.7</ele>
        <time>2026-05-06T08:29:51.000Z</time>
      </trkpt>
      <trkpt lat="41.819866" lon="22.986582">
        <ele>1227.1</ele>
        <time>2026-05-06T08:29:52.000Z</time>
      </trkpt>
      <trkpt lat="41.819855" lon="22.986569">
        <ele>1227.1</ele>
        <time>2026-05-06T08:29:53.000Z</time>
      </trkpt>
      <trkpt lat="41.819844" lon="22.986555">
        <ele>1227.1</ele>
        <time>2026-05-06T08:29:54.000Z</time>
      </trkpt>
      <trkpt lat="41.819833" lon="22.986543">
        <ele>1227.1</ele>
        <time>2026-05-06T08:29:55.000Z</time>
      </trkpt>
      <trkpt lat="41.819823" lon="22.986532">
        <ele>1227.1</ele>
        <time>2026-05-06T08:29:56.000Z</time>
      </trkpt>
      <trkpt lat="41.819812" lon="22.986523">
        <ele>1227.3</ele>
        <time>2026-05-06T08:29:57.000Z</time>
      </trkpt>
      <trkpt lat="41.8198" lon="22.986516">
        <ele>1227.3</ele>
        <time>2026-05-06T08:29:58.000Z</time>
      </trkpt>
      <trkpt lat="41.819788" lon="22.986509">
        <ele>1227.3</ele>
        <time>2026-05-06T08:29:59.000Z</time>
      </trkpt>
      <trkpt lat="41.819775" lon="22.986503">
        <ele>1227.3</ele>
        <time>2026-05-06T08:30:00.000Z</time>
      </trkpt>
      <trkpt lat="41.819763" lon="22.986496">
        <ele>1227.3</ele>
        <time>2026-05-06T08:30:01.000Z</time>
      </trkpt>
      <trkpt lat="41.819751" lon="22.986489">
        <ele>1227.7</ele>
        <time>2026-05-06T08:30:02.000Z</time>
      </trkpt>
      <trkpt lat="41.819738" lon="22.986481">
        <ele>1227.7</ele>
        <time>2026-05-06T08:30:03.000Z</time>
      </trkpt>
      <trkpt lat="41.819726" lon="22.986473">
        <ele>1227.7</ele>
        <time>2026-05-06T08:30:04.000Z</time>
      </trkpt>
      <trkpt lat="41.819714" lon="22.986466">
        <ele>1227.7</ele>
        <time>2026-05-06T08:30:05.000Z</time>
      </trkpt>
      <trkpt lat="41.819702" lon="22.98646">
        <ele>1227.7</ele>
        <time>2026-05-06T08:30:06.000Z</time>
      </trkpt>
      <trkpt lat="41.81969" lon="22.986455">
        <ele>1228</ele>
        <time>2026-05-06T08:30:07.000Z</time>
      </trkpt>
      <trkpt lat="41.819678" lon="22.98645">
        <ele>1228</ele>
        <time>2026-05-06T08:30:08.000Z</time>
      </trkpt>
      <trkpt lat="41.819668" lon="22.986446">
        <ele>1228</ele>
        <time>2026-05-06T08:30:09.000Z</time>
      </trkpt>
      <trkpt lat="41.81966" lon="22.986442">
        <ele>1228</ele>
        <time>2026-05-06T08:30:10.000Z</time>
      </trkpt>
      <trkpt lat="41.819652" lon="22.986436">
        <ele>1228</ele>
        <time>2026-05-06T08:30:11.000Z</time>
      </trkpt>
      <trkpt lat="41.819644" lon="22.98643">
        <ele>1228.2</ele>
        <time>2026-05-06T08:30:12.000Z</time>
      </trkpt>
      <trkpt lat="41.819638" lon="22.986423">
        <ele>1228.2</ele>
        <time>2026-05-06T08:30:13.000Z</time>
      </trkpt>
      <trkpt lat="41.819633" lon="22.986414">
        <ele>1228.2</ele>
        <time>2026-05-06T08:30:14.000Z</time>
      </trkpt>
      <trkpt lat="41.819627" lon="22.986404">
        <ele>1228.2</ele>
        <time>2026-05-06T08:30:15.000Z</time>
      </trkpt>
      <trkpt lat="41.819622" lon="22.986394">
        <ele>1228.2</ele>
        <time>2026-05-06T08:30:16.000Z</time>
      </trkpt>
      <trkpt lat="41.819618" lon="22.986384">
        <ele>1228.8</ele>
        <time>2026-05-06T08:30:17.000Z</time>
      </trkpt>
      <trkpt lat="41.819612" lon="22.986373">
        <ele>1228.8</ele>
        <time>2026-05-06T08:30:18.000Z</time>
      </trkpt>
      <trkpt lat="41.819604" lon="22.986364">
        <ele>1228.8</ele>
        <time>2026-05-06T08:30:19.000Z</time>
      </trkpt>
      <trkpt lat="41.819596" lon="22.986356">
        <ele>1228.8</ele>
        <time>2026-05-06T08:30:20.000Z</time>
      </trkpt>
      <trkpt lat="41.819589" lon="22.986348">
        <ele>1228.8</ele>
        <time>2026-05-06T08:30:21.000Z</time>
      </trkpt>
      <trkpt lat="41.819582" lon="22.98634">
        <ele>1229.5</ele>
        <time>2026-05-06T08:30:22.000Z</time>
      </trkpt>
      <trkpt lat="41.819575" lon="22.986332">
        <ele>1229.5</ele>
        <time>2026-05-06T08:30:23.000Z</time>
      </trkpt>
      <trkpt lat="41.819568" lon="22.986323">
        <ele>1229.5</ele>
        <time>2026-05-06T08:30:24.000Z</time>
      </trkpt>
      <trkpt lat="41.819561" lon="22.986313">
        <ele>1229.5</ele>
        <time>2026-05-06T08:30:25.000Z</time>
      </trkpt>
      <trkpt lat="41.819553" lon="22.986302">
        <ele>1229.5</ele>
        <time>2026-05-06T08:30:26.000Z</time>
      </trkpt>
      <trkpt lat="41.819545" lon="22.98629">
        <ele>1229.8</ele>
        <time>2026-05-06T08:30:27.000Z</time>
      </trkpt>
      <trkpt lat="41.819537" lon="22.986279">
        <ele>1229.8</ele>
        <time>2026-05-06T08:30:28.000Z</time>
      </trkpt>
      <trkpt lat="41.819528" lon="22.986268">
        <ele>1229.8</ele>
        <time>2026-05-06T08:30:29.000Z</time>
      </trkpt>
      <trkpt lat="41.81952" lon="22.986258">
        <ele>1229.8</ele>
        <time>2026-05-06T08:30:30.000Z</time>
      </trkpt>
      <trkpt lat="41.81951" lon="22.98625">
        <ele>1229.8</ele>
        <time>2026-05-06T08:30:31.000Z</time>
      </trkpt>
      <trkpt lat="41.8195" lon="22.986241">
        <ele>1230.4</ele>
        <time>2026-05-06T08:30:32.000Z</time>
      </trkpt>
      <trkpt lat="41.81949" lon="22.986232">
        <ele>1230.4</ele>
        <time>2026-05-06T08:30:33.000Z</time>
      </trkpt>
      <trkpt lat="41.819481" lon="22.986224">
        <ele>1230.4</ele>
        <time>2026-05-06T08:30:34.000Z</time>
      </trkpt>
      <trkpt lat="41.819471" lon="22.986214">
        <ele>1230.4</ele>
        <time>2026-05-06T08:30:35.000Z</time>
      </trkpt>
      <trkpt lat="41.819462" lon="22.986204">
        <ele>1230.4</ele>
        <time>2026-05-06T08:30:36.000Z</time>
      </trkpt>
      <trkpt lat="41.819456" lon="22.986194">
        <ele>1230.9</ele>
        <time>2026-05-06T08:30:37.000Z</time>
      </trkpt>
      <trkpt lat="41.81945" lon="22.986183">
        <ele>1230.9</ele>
        <time>2026-05-06T08:30:38.000Z</time>
      </trkpt>
      <trkpt lat="41.819444" lon="22.986173">
        <ele>1230.9</ele>
        <time>2026-05-06T08:30:39.000Z</time>
      </trkpt>
      <trkpt lat="41.81944" lon="22.986164">
        <ele>1230.9</ele>
        <time>2026-05-06T08:30:40.000Z</time>
      </trkpt>
      <trkpt lat="41.819434" lon="22.986154">
        <ele>1230.9</ele>
        <time>2026-05-06T08:30:41.000Z</time>
      </trkpt>
      <trkpt lat="41.819426" lon="22.986144">
        <ele>1231.3</ele>
        <time>2026-05-06T08:30:42.000Z</time>
      </trkpt>
      <trkpt lat="41.819419" lon="22.986134">
        <ele>1231.3</ele>
        <time>2026-05-06T08:30:43.000Z</time>
      </trkpt>
      <trkpt lat="41.81941" lon="22.986123">
        <ele>1231.3</ele>
        <time>2026-05-06T08:30:44.000Z</time>
      </trkpt>
      <trkpt lat="41.8194" lon="22.986112">
        <ele>1231.3</ele>
        <time>2026-05-06T08:30:45.000Z</time>
      </trkpt>
      <trkpt lat="41.819392" lon="22.986101">
        <ele>1231.3</ele>
        <time>2026-05-06T08:30:46.000Z</time>
      </trkpt>
      <trkpt lat="41.819381" lon="22.986091">
        <ele>1232.1</ele>
        <time>2026-05-06T08:30:47.000Z</time>
      </trkpt>
      <trkpt lat="41.819368" lon="22.986081">
        <ele>1232.1</ele>
        <time>2026-05-06T08:30:48.000Z</time>
      </trkpt>
      <trkpt lat="41.819356" lon="22.98607">
        <ele>1232.1</ele>
        <time>2026-05-06T08:30:49.000Z</time>
      </trkpt>
      <trkpt lat="41.819344" lon="22.986059">
        <ele>1232.1</ele>
        <time>2026-05-06T08:30:50.000Z</time>
      </trkpt>
      <trkpt lat="41.819331" lon="22.986048">
        <ele>1232.1</ele>
        <time>2026-05-06T08:30:51.000Z</time>
      </trkpt>
      <trkpt lat="41.819318" lon="22.986035">
        <ele>1233</ele>
        <time>2026-05-06T08:30:52.000Z</time>
      </trkpt>
      <trkpt lat="41.819305" lon="22.986023">
        <ele>1233</ele>
        <time>2026-05-06T08:30:53.000Z</time>
      </trkpt>
      <trkpt lat="41.819291" lon="22.986011">
        <ele>1233</ele>
        <time>2026-05-06T08:30:54.000Z</time>
      </trkpt>
      <trkpt lat="41.819279" lon="22.985999">
        <ele>1233</ele>
        <time>2026-05-06T08:30:55.000Z</time>
      </trkpt>
      <trkpt lat="41.819269" lon="22.985985">
        <ele>1233</ele>
        <time>2026-05-06T08:30:56.000Z</time>
      </trkpt>
      <trkpt lat="41.819261" lon="22.985973">
        <ele>1233.3</ele>
        <time>2026-05-06T08:30:57.000Z</time>
      </trkpt>
      <trkpt lat="41.819252" lon="22.98596">
        <ele>1233.3</ele>
        <time>2026-05-06T08:30:58.000Z</time>
      </trkpt>
      <trkpt lat="41.819247" lon="22.985945">
        <ele>1233.3</ele>
        <time>2026-05-06T08:30:59.000Z</time>
      </trkpt>
      <trkpt lat="41.819245" lon="22.98593">
        <ele>1233.3</ele>
        <time>2026-05-06T08:31:00.000Z</time>
      </trkpt>
      <trkpt lat="41.819245" lon="22.985915">
        <ele>1233.3</ele>
        <time>2026-05-06T08:31:01.000Z</time>
      </trkpt>
      <trkpt lat="41.819244" lon="22.985898">
        <ele>1234.1</ele>
        <time>2026-05-06T08:31:02.000Z</time>
      </trkpt>
      <trkpt lat="41.819245" lon="22.985882">
        <ele>1234.1</ele>
        <time>2026-05-06T08:31:03.000Z</time>
      </trkpt>
      <trkpt lat="41.819248" lon="22.985868">
        <ele>1234.1</ele>
        <time>2026-05-06T08:31:04.000Z</time>
      </trkpt>
      <trkpt lat="41.819248" lon="22.985856">
        <ele>1234.1</ele>
        <time>2026-05-06T08:31:05.000Z</time>
      </trkpt>
      <trkpt lat="41.819245" lon="22.985846">
        <ele>1234.1</ele>
        <time>2026-05-06T08:31:06.000Z</time>
      </trkpt>
      <trkpt lat="41.819242" lon="22.985837">
        <ele>1234.8</ele>
        <time>2026-05-06T08:31:07.000Z</time>
      </trkpt>
      <trkpt lat="41.819237" lon="22.985828">
        <ele>1234.8</ele>
        <time>2026-05-06T08:31:08.000Z</time>
      </trkpt>
      <trkpt lat="41.819229" lon="22.98582">
        <ele>1234.8</ele>
        <time>2026-05-06T08:31:09.000Z</time>
      </trkpt>
      <trkpt lat="41.819221" lon="22.985811">
        <ele>1234.8</ele>
        <time>2026-05-06T08:31:10.000Z</time>
      </trkpt>
      <trkpt lat="41.819213" lon="22.985802">
        <ele>1234.8</ele>
        <time>2026-05-06T08:31:11.000Z</time>
      </trkpt>
      <trkpt lat="41.819203" lon="22.985793">
        <ele>1235.1</ele>
        <time>2026-05-06T08:31:12.000Z</time>
      </trkpt>
      <trkpt lat="41.819192" lon="22.985784">
        <ele>1235.1</ele>
        <time>2026-05-06T08:31:13.000Z</time>
      </trkpt>
      <trkpt lat="41.819182" lon="22.985773">
        <ele>1235.1</ele>
        <time>2026-05-06T08:31:14.000Z</time>
      </trkpt>
      <trkpt lat="41.819171" lon="22.985763">
        <ele>1235.1</ele>
        <time>2026-05-06T08:31:15.000Z</time>
      </trkpt>
      <trkpt lat="41.819161" lon="22.985752">
        <ele>1235.1</ele>
        <time>2026-05-06T08:31:16.000Z</time>
      </trkpt>
      <trkpt lat="41.819154" lon="22.985739">
        <ele>1235.4</ele>
        <time>2026-05-06T08:31:17.000Z</time>
      </trkpt>
      <trkpt lat="41.81915" lon="22.985727">
        <ele>1235.4</ele>
        <time>2026-05-06T08:31:18.000Z</time>
      </trkpt>
      <trkpt lat="41.819148" lon="22.985714">
        <ele>1235.4</ele>
        <time>2026-05-06T08:31:19.000Z</time>
      </trkpt>
      <trkpt lat="41.819151" lon="22.9857">
        <ele>1235.4</ele>
        <time>2026-05-06T08:31:20.000Z</time>
      </trkpt>
      <trkpt lat="41.819152" lon="22.985688">
        <ele>1235.4</ele>
        <time>2026-05-06T08:31:21.000Z</time>
      </trkpt>
      <trkpt lat="41.819151" lon="22.985677">
        <ele>1235.5</ele>
        <time>2026-05-06T08:31:22.000Z</time>
      </trkpt>
      <trkpt lat="41.819148" lon="22.985666">
        <ele>1235.5</ele>
        <time>2026-05-06T08:31:23.000Z</time>
      </trkpt>
      <trkpt lat="41.819142" lon="22.985655">
        <ele>1235.5</ele>
        <time>2026-05-06T08:31:24.000Z</time>
      </trkpt>
      <trkpt lat="41.819135" lon="22.985645">
        <ele>1235.5</ele>
        <time>2026-05-06T08:31:25.000Z</time>
      </trkpt>
      <trkpt lat="41.819129" lon="22.985635">
        <ele>1235.5</ele>
        <time>2026-05-06T08:31:26.000Z</time>
      </trkpt>
      <trkpt lat="41.819126" lon="22.985623">
        <ele>1235.7</ele>
        <time>2026-05-06T08:31:27.000Z</time>
      </trkpt>
      <trkpt lat="41.819125" lon="22.985612">
        <ele>1246.0897504443901</ele>
        <time>2026-05-06T08:31:27.776Z</time>
      </trkpt>
      <trkpt lat="41.81916631165615" lon="22.985586647248766">
        <ele>1244.0585577172794</ele>
        <time>2026-05-06T08:31:32.046Z</time>
      </trkpt>
      <trkpt lat="41.819232762779706" lon="22.98554554734008">
        <ele>1240.7358308862351</ele>
        <time>2026-05-06T08:31:38.925Z</time>
      </trkpt>
      <trkpt lat="41.819265988315266" lon="22.98549608812624">
        <ele>1239.8466035814486</ele>
        <time>2026-05-06T08:31:43.590Z</time>
      </trkpt>
      <trkpt lat="41.81931894147755" lon="22.985435483175223">
        <ele>1237.6508100881288</ele>
        <time>2026-05-06T08:31:50.133Z</time>
      </trkpt>
      <trkpt lat="41.819360473338435" lon="22.98536303587713">
        <ele>1236.479459353163</ele>
        <time>2026-05-06T08:31:56.536Z</time>
      </trkpt>
      <trkpt lat="41.819391622216244" lon="22.985335868140368">
        <ele>1234.8605657558044</ele>
        <time>2026-05-06T08:32:00.028Z</time>
      </trkpt>
      <trkpt lat="41.81950059077525" lon="22.985112786350356">
        <ele>1232.7371971697246</ele>
        <time>2026-05-06T08:32:18.716Z</time>
      </trkpt>
      <trkpt lat="41.81952874653521" lon="22.985108063807672">
        <ele>1230.9890014667917</ele>
        <time>2026-05-06T08:32:21.383Z</time>
      </trkpt>
      <trkpt lat="41.81957684592942" lon="22.984892401019493">
        <ele>1235.1519278202422</ele>
        <time>2026-05-06T08:32:37.155Z</time>
      </trkpt>
      <trkpt lat="41.81959092379461" lon="22.98485619485774">
        <ele>1235.5453116739009</ele>
        <time>2026-05-06T08:32:40.016Z</time>
      </trkpt>
      <trkpt lat="41.81962494528844" lon="22.984667293145463">
        <ele>1240.0298523617257</ele>
        <time>2026-05-06T08:32:53.632Z</time>
      </trkpt>
      <trkpt lat="41.81964488891404" lon="22.984421720920466">
        <ele>1245.7829493308334</ele>
        <time>2026-05-06T08:33:10.939Z</time>
      </trkpt>
      <trkpt lat="41.819651927839146" lon="22.984352456959186">
        <ele>1246.7733959758652</ele>
        <time>2026-05-06T08:33:15.836Z</time>
      </trkpt>
      <trkpt lat="41.81966600568782" lon="22.98432097334117">
        <ele>1246.2601478250156</ele>
        <time>2026-05-06T08:33:18.408Z</time>
      </trkpt>
      <trkpt lat="41.819681256686664" lon="22.98435875368341">
        <ele>1244.2661954742427</ele>
        <time>2026-05-06T08:33:21.418Z</time>
      </trkpt>
      <trkpt lat="41.81970002714175" lon="22.984360327863953">
        <ele>1242.8323034646107</ele>
        <time>2026-05-06T08:33:23.186Z</time>
      </trkpt>
      <trkpt lat="41.81970941236722" lon="22.984324121702258">
        <ele>1242.8549094776733</ele>
        <time>2026-05-06T08:33:25.871Z</time>
      </trkpt>
      <trkpt lat="41.81975985793122" lon="22.984221799941338">
        <ele>1240.8688445630837</ele>
        <time>2026-05-06T08:33:34.466Z</time>
      </trkpt>
      <trkpt lat="41.81977510890775" lon="22.98417300033222">
        <ele>1240.5451642561493</ele>
        <time>2026-05-06T08:33:38.173Z</time>
      </trkpt>
      <trkpt lat="41.819806784000974" lon="22.98410845891462">
        <ele>1239.2791565454797</ele>
        <time>2026-05-06T08:33:43.587Z</time>
      </trkpt>
      <trkpt lat="41.81984432483196" lon="22.98402187896218">
        <ele>1237.8190920087538</ele>
        <time>2026-05-06T08:33:50.605Z</time>
      </trkpt>
      <trkpt lat="41.81986778784059" lon="22.983955763362985">
        <ele>1236.8040549952789</ele>
        <time>2026-05-06T08:33:55.735Z</time>
      </trkpt>
      <trkpt lat="41.81991002123411" lon="22.983861312506832">
        <ele>1234.5229537972127</ele>
        <time>2026-05-06T08:34:03.452Z</time>
      </trkpt>
      <trkpt lat="41.819899422256924" lon="22.98381967511878">
        <ele>1235.3642425212552</ele>
        <time>2026-05-06T08:34:06.534Z</time>
      </trkpt>
      <trkpt lat="41.819917019499" lon="22.98360086396798">
        <ele>1234.084953704291</ele>
        <time>2026-05-06T08:34:21.953Z</time>
      </trkpt>
      <trkpt lat="41.81993109728862" lon="22.98350798729345">
        <ele>1232.9001550328921</ele>
        <time>2026-05-06T08:34:28.593Z</time>
      </trkpt>
      <trkpt lat="41.819921712095635" lon="22.98339622044614">
        <ele>1232.9904724180703</ele>
        <time>2026-05-06T08:34:36.473Z</time>
      </trkpt>
      <trkpt lat="41.819914673200174" lon="22.983234079810302">
        <ele>1233.3421122155435</ele>
        <time>2026-05-06T08:34:47.852Z</time>
      </trkpt>
      <trkpt lat="41.81996389769907" lon="22.982715511708392">
        <ele>1229.5261559200478</ele>
        <time>2026-05-06T08:35:24.477Z</time>
      </trkpt>
      <trkpt lat="41.81996507084719" lon="22.98252975835723">
        <ele>1228.6567917202874</ele>
        <time>2026-05-06T08:35:37.491Z</time>
      </trkpt>
      <trkpt lat="41.819981494923496" lon="22.982351875911803">
        <ele>1226.7810618512526</ele>
        <time>2026-05-06T08:35:50.049Z</time>
      </trkpt>
      <trkpt lat="41.819999092143036" lon="22.982169270922725">
        <ele>1224.7482940367413</ele>
        <time>2026-05-06T08:36:02.949Z</time>
      </trkpt>
      <trkpt lat="41.81996325478656" lon="22.98184501187626">
        <ele>1223.5487318871005</ele>
        <time>2026-05-06T08:36:25.915Z</time>
      </trkpt>
      <trkpt lat="41.81997146682545" lon="22.98167027779195">
        <ele>1220.6364646153447</ele>
        <time>2026-05-06T08:36:38.181Z</time>
      </trkpt>
      <trkpt lat="41.819939377505165" lon="22.981456688945855">
        <ele>1217.4943854230085</ele>
        <time>2026-05-06T08:36:53.446Z</time>
      </trkpt>
      <trkpt lat="41.819911221925736" lon="22.981319735203755">
        <ele>1215.1051796368197</ele>
        <time>2026-05-06T08:37:03.399Z</time>
      </trkpt>
      <trkpt lat="41.81986898853302" lon="22.98122213598657">
        <ele>1213.3436799830213</ele>
        <time>2026-05-06T08:37:11.306Z</time>
      </trkpt>
      <trkpt lat="41.81980446524062" lon="22.98114972366315">
        <ele>1212.160151755805</ele>
        <time>2026-05-06T08:37:19.213Z</time>
      </trkpt>
      <trkpt lat="41.819578624800016" lon="22.980931383345393">
        <ele>1208.2663468831342</ele>
        <time>2026-05-06T08:37:45.381Z</time>
      </trkpt>
      <trkpt lat="41.81950471596099" lon="22.980899899726325">
        <ele>1208.4236550921528</ele>
        <time>2026-05-06T08:37:52.671Z</time>
      </trkpt>
      <trkpt lat="41.81941320966092" lon="22.980855822659805">
        <ele>1208.2286216915747</ele>
        <time>2026-05-06T08:38:01.811Z</time>
      </trkpt>
      <trkpt lat="41.819321703230116" lon="22.98079600378486">
        <ele>1206.963815510897</ele>
        <time>2026-05-06T08:38:11.380Z</time>
      </trkpt>
      <trkpt lat="41.819224275376" lon="22.98077836425108">
        <ele>1207.578780664405</ele>
        <time>2026-05-06T08:38:20.622Z</time>
      </trkpt>
      <trkpt lat="41.81905786142818" lon="22.980767344987385">
        <ele>1210.1707711161125</ele>
        <time>2026-05-06T08:38:36.286Z</time>
      </trkpt>
      <trkpt lat="41.81897691298883" lon="22.980757899901022">
        <ele>1211.9069570998645</ele>
        <time>2026-05-06T08:38:43.924Z</time>
      </trkpt>
      <trkpt lat="41.81877667462655" lon="22.980584913003213">
        <ele>1209.9218410846483</ele>
        <time>2026-05-06T08:39:06.313Z</time>
      </trkpt>
      <trkpt lat="41.81862237036657" lon="22.980360549025335">
        <ele>1206.26017099601</ele>
        <time>2026-05-06T08:39:27.703Z</time>
      </trkpt>
      <trkpt lat="41.818500360256365" lon="22.980223595284315">
        <ele>1205.6238615751668</ele>
        <time>2026-05-06T08:39:42.657Z</time>
      </trkpt>
      <trkpt lat="41.81840181345865" lon="22.980144886236673">
        <ele>1205.3056662929237</ele>
        <time>2026-05-06T08:39:53.438Z</time>
      </trkpt>
      <trkpt lat="41.81825188186795" lon="22.980037036973442">
        <ele>1203.7719601608371</ele>
        <time>2026-05-06T08:40:09.431Z</time>
      </trkpt>
      <trkpt lat="41.81808177057076" lon="22.98000397917383">
        <ele>1204.7456343773192</ele>
        <time>2026-05-06T08:40:25.590Z</time>
      </trkpt>
      <trkpt lat="41.817963278985815" lon="22.980016572621224">
        <ele>1208.1968819642507</ele>
        <time>2026-05-06T08:40:36.764Z</time>
      </trkpt>
      <trkpt lat="41.817931602979996" lon="22.979948882841512">
        <ele>1205.8876858843353</ele>
        <time>2026-05-06T08:40:42.364Z</time>
      </trkpt>
      <trkpt lat="41.81787411685565" lon="22.979862302892684">
        <ele>1203.8119240140466</ele>
        <time>2026-05-06T08:40:50.488Z</time>
      </trkpt>
      <trkpt lat="41.81774741256348" lon="22.979676549541438">
        <ele>1200.6409929218858</ele>
        <time>2026-05-06T08:41:08.131Z</time>
      </trkpt>
      <trkpt lat="41.8176899262742" lon="22.979528576533568">
        <ele>1196.6395598538438</ele>
        <time>2026-05-06T08:41:19.822Z</time>
      </trkpt>
      <trkpt lat="41.817586685462004" lon="22.97938060352564">
        <ele>1194.7096484201286</ele>
        <time>2026-05-06T08:41:34.023Z</time>
      </trkpt>
      <trkpt lat="41.817353533169296" lon="22.97915129199788">
        <ele>1195.1874611743772</ele>
        <time>2026-05-06T08:42:01.200Z</time>
      </trkpt>
      <trkpt lat="41.81726554338897" lon="22.979124530922462">
        <ele>1198.436110549122</ele>
        <time>2026-05-06T08:42:09.682Z</time>
      </trkpt>
      <trkpt lat="41.81721040306519" lon="22.97903637678951">
        <ele>1196.3528318870021</ele>
        <time>2026-05-06T08:42:17.745Z</time>
      </trkpt>
      <trkpt lat="41.81712358628923" lon="22.97894664847601">
        <ele>1195.8340594547344</ele>
        <time>2026-05-06T08:42:28.047Z</time>
      </trkpt>
      <trkpt lat="41.817060935840715" lon="22.978874865324514">
        <ele>1195.2063400077877</ele>
        <time>2026-05-06T08:42:35.792Z</time>
      </trkpt>
      <trkpt lat="41.816895514198364" lon="22.978648183268916">
        <ele>1192.9038122216248</ele>
        <time>2026-05-06T08:42:58.020Z</time>
      </trkpt>
      <trkpt lat="41.81675208918699" lon="22.97851398356343">
        <ele>1193.2745980094705</ele>
        <time>2026-05-06T08:43:14.458Z</time>
      </trkpt>
      <trkpt lat="41.81664891457331" lon="22.978430191638893">
        <ele>1193.06907188348</ele>
        <time>2026-05-06T08:43:25.796Z</time>
      </trkpt>
      <trkpt lat="41.8165926005087" lon="22.978367224400756">
        <ele>1191.9093847477325</ele>
        <time>2026-05-06T08:43:32.687Z</time>
      </trkpt>
      <trkpt lat="41.81652690070331" lon="22.978316850611094">
        <ele>1191.2290037364075</ele>
        <time>2026-05-06T08:43:39.800Z</time>
      </trkpt>
      <trkpt lat="41.81646472046887" lon="22.978249160831382">
        <ele>1189.545828600117</ele>
        <time>2026-05-06T08:43:47.327Z</time>
      </trkpt>
      <trkpt lat="41.8163673437536" lon="22.978195638678557">
        <ele>1188.8394811368566</ele>
        <time>2026-05-06T08:43:57.219Z</time>
      </trkpt>
      <trkpt lat="41.8163215883784" lon="22.9781562841558">
        <ele>1187.6087785604916</ele>
        <time>2026-05-06T08:44:02.328Z</time>
      </trkpt>
      <trkpt lat="41.81627583297052" lon="22.978083871832325">
        <ele>1184.7963797305301</ele>
        <time>2026-05-06T08:44:08.979Z</time>
      </trkpt>
      <trkpt lat="41.81610633808046" lon="22.978063407484427">
        <ele>1182.9433798584018</ele>
        <time>2026-05-06T08:44:24.978Z</time>
      </trkpt>
      <trkpt lat="41.81601066050217" lon="22.97810888518535">
        <ele>1183.5238718162295</ele>
        <time>2026-05-06T08:44:34.520Z</time>
      </trkpt>
      <trkpt lat="41.815909763427754" lon="22.978173426604002">
        <ele>1184.845717542154</ele>
        <time>2026-05-06T08:44:45.028Z</time>
      </trkpt>
      <trkpt lat="41.81580534652153" lon="22.978222226213177">
        <ele>1185.6355265699335</ele>
        <time>2026-05-06T08:44:55.422Z</time>
      </trkpt>
      <trkpt lat="41.815700929445086" lon="22.978272600002782">
        <ele>1187.0801022120293</ele>
        <time>2026-05-06T08:45:05.853Z</time>
      </trkpt>
      <trkpt lat="41.81559768542655" lon="22.978302509440283">
        <ele>1187.9276477752778</ele>
        <time>2026-05-06T08:45:15.782Z</time>
      </trkpt>
      <trkpt lat="41.81557656731127" lon="22.978384366850094">
        <ele>1193.0894714128306</ele>
        <time>2026-05-06T08:45:21.851Z</time>
      </trkpt>
      <trkpt lat="41.815503329981055" lon="22.978416976423176">
        <ele>1195.030900190003</ele>
        <time>2026-05-06T08:45:29.105Z</time>
      </trkpt>
      <trkpt lat="41.81538131392858" lon="22.9784579051275">
        <ele>1198.461278153011</ele>
        <time>2026-05-06T08:45:40.929Z</time>
      </trkpt>
      <trkpt lat="41.815306227011234" lon="22.978490962927083">
        <ele>1201.8800436092602</ele>
        <time>2026-05-06T08:45:48.358Z</time>
      </trkpt>
      <trkpt lat="41.81514784025447" lon="22.978346138288373">
        <ele>1197.2579348730235</ele>
        <time>2026-05-06T08:46:06.377Z</time>
      </trkpt>
      <trkpt lat="41.815098564295596" lon="22.978246964888513">
        <ele>1192.4218362902925</ele>
        <time>2026-05-06T08:46:14.728Z</time>
      </trkpt>
      <trkpt lat="41.814989453108325" lon="22.978157236575015">
        <ele>1190.1497514616358</ele>
        <time>2026-05-06T08:46:26.759Z</time>
      </trkpt>
      <trkpt lat="41.81492492489966" lon="22.978047043909385">
        <ele>1184.7923018760976</ele>
        <time>2026-05-06T08:46:36.578Z</time>
      </trkpt>
      <trkpt lat="41.81483693178271" lon="22.97794314796792">
        <ele>1179.6939981926375</ele>
        <time>2026-05-06T08:46:47.597Z</time>
      </trkpt>
      <trkpt lat="41.81474307232469" lon="22.977958889777454">
        <ele>1181.0352087892784</ele>
        <time>2026-05-06T08:46:56.489Z</time>
      </trkpt>
      <trkpt lat="41.81455769948769" lon="22.977955741418583">
        <ele>1179.1725588029035</ele>
        <time>2026-05-06T08:47:13.917Z</time>
      </trkpt>
      <trkpt lat="41.81437467261986" lon="22.97795731559893">
        <ele>1176.36793388296</ele>
        <time>2026-05-06T08:47:31.124Z</time>
      </trkpt>
      <trkpt lat="41.814301931026904" lon="22.977979354132685">
        <ele>1177.0152914259588</ele>
        <time>2026-05-06T08:47:38.134Z</time>
      </trkpt>
      <trkpt lat="41.814163660969285" lon="22.978009749425553">
        <ele>1177.849194894706</ele>
        <time>2026-05-06T08:47:51.306Z</time>
      </trkpt>
      <trkpt lat="41.814066280755384" lon="22.978022342872976">
        <ele>1178.1472124060801</ele>
        <time>2026-05-06T08:48:00.503Z</time>
      </trkpt>
      <trkpt lat="41.81398297949059" lon="22.978028639596147">
        <ele>1178.1309349934222</ele>
        <time>2026-05-06T08:48:08.346Z</time>
      </trkpt>
      <trkpt lat="41.81391023745357" lon="22.97804438140568">
        <ele>1178.7317639620978</ele>
        <time>2026-05-06T08:48:15.273Z</time>
      </trkpt>
      <trkpt lat="41.81364860008463" lon="22.978056974851057">
        <ele>1175.4701959775339</ele>
        <time>2026-05-06T08:48:39.886Z</time>
      </trkpt>
      <trkpt lat="41.813531273563655" lon="22.97807586502165">
        <ele>1174.3833509870196</ele>
        <time>2026-05-06T08:48:50.995Z</time>
      </trkpt>
      <trkpt lat="41.81347847655954" lon="22.978112071183347">
        <ele>1176.0087498181128</ele>
        <time>2026-05-06T08:48:56.569Z</time>
      </trkpt>
      <trkpt lat="41.813343550684124" lon="22.978164019154605">
        <ele>1177.1023434584968</ele>
        <time>2026-05-06T08:49:09.765Z</time>
      </trkpt>
      <trkpt lat="41.81317929271262" lon="22.97819235441048">
        <ele>1176.704543929734</ele>
        <time>2026-05-06T08:49:25.334Z</time>
      </trkpt>
      <trkpt lat="41.81291999891229" lon="22.978167167516688">
        <ele>1170.325940091443</ele>
        <time>2026-05-06T08:49:49.774Z</time>
      </trkpt>
      <trkpt lat="41.81280384433677" lon="22.978162444974004">
        <ele>1166.8566343320279</ele>
        <time>2026-05-06T08:50:00.699Z</time>
      </trkpt>
      <trkpt lat="41.81263345282537" lon="22.978241863014404">
        <ele>1166.6487679328268</ele>
        <time>2026-05-06T08:50:17.657Z</time>
      </trkpt>
      <trkpt lat="41.81250087173967" lon="22.97833631387053">
        <ele>1167.8172670301683</ele>
        <time>2026-05-06T08:50:31.769Z</time>
      </trkpt>
      <trkpt lat="41.812308452685386" lon="22.97841502291712">
        <ele>1164.9387185416656</ele>
        <time>2026-05-06T08:50:50.680Z</time>
      </trkpt>
      <trkpt lat="41.81218643054655" lon="22.978454377440954">
        <ele>1162.8412730767718</ele>
        <time>2026-05-06T08:51:02.478Z</time>
      </trkpt>
      <trkpt lat="41.81190249351451" lon="22.9784638225278">
        <ele>1154.288809766822</ele>
        <time>2026-05-06T08:51:29.179Z</time>
      </trkpt>
      <trkpt lat="41.81178633709385" lon="22.978460674165717">
        <ele>1150.8552820827372</ele>
        <time>2026-05-06T08:51:40.101Z</time>
      </trkpt>
      <trkpt lat="41.811396800887394" lon="22.978539383219214">
        <ele>1142.5395101823146</ele>
        <time>2026-05-06T08:52:17.135Z</time>
      </trkpt>
      <trkpt lat="41.811309976230206" lon="22.9786196664474">
        <ele>1142.229673681952</ele>
        <time>2026-05-06T08:52:27.048Z</time>
      </trkpt>
      <trkpt lat="41.81122784468971" lon="22.978662169332296">
        <ele>1140.1529027501542</ele>
        <time>2026-05-06T08:52:35.323Z</time>
      </trkpt>
      <trkpt lat="41.81120203189843" lon="22.97871254312301">
        <ele>1140.5114430645258</ele>
        <time>2026-05-06T08:52:39.606Z</time>
      </trkpt>
      <trkpt lat="41.811128113391646" lon="22.978784955445377">
        <ele>1139.1782123202545</ele>
        <time>2026-05-06T08:52:48.210Z</time>
      </trkpt>
      <trkpt lat="41.811088220829134" lon="22.978824309969184">
        <ele>1138.4985301507645</ele>
        <time>2026-05-06T08:52:52.865Z</time>
      </trkpt>
      <trkpt lat="41.811043634994945" lon="22.97889672229263">
        <ele>1138.6589977482163</ele>
        <time>2026-05-06T08:52:59.446Z</time>
      </trkpt>
      <trkpt lat="41.81099435587777" lon="22.97896598625391">
        <ele>1138.8921324282694</ele>
        <time>2026-05-06T08:53:06.155Z</time>
      </trkpt>
      <trkpt lat="41.81075281290677" lon="22.978961618733308">
        <ele>1131.7549875160196</ele>
        <time>2026-05-06T08:53:28.865Z</time>
      </trkpt>
      <trkpt lat="41.81050116723472" lon="22.979027372298276">
        <ele>1128.297481297516</ele>
        <time>2026-05-06T08:53:52.967Z</time>
      </trkpt>
      <trkpt lat="41.81041551468738" lon="22.979027372298276">
        <ele>1125.8806077634947</ele>
        <time>2026-05-06T08:54:01.019Z</time>
      </trkpt>
      <trkpt lat="41.810315782124604" lon="22.979139139144507">
        <ele>1127.5024178166746</ele>
        <time>2026-05-06T08:54:13.235Z</time>
      </trkpt>
      <trkpt lat="41.81024186259589" lon="22.9791517325919">
        <ele>1125.3186197523046</ele>
        <time>2026-05-06T08:54:20.240Z</time>
      </trkpt>
      <trkpt lat="41.8101902362076" lon="22.97920368056316">
        <ele>1125.4379714001411</ele>
        <time>2026-05-06T08:54:26.306Z</time>
      </trkpt>
      <trkpt lat="41.81002127682558" lon="22.979354801936665">
        <ele>1124.102144957732</ele>
        <time>2026-05-06T08:54:45.396Z</time>
      </trkpt>
      <trkpt lat="41.80990746365916" lon="22.979474439688687">
        <ele>1123.937078222633</ele>
        <time>2026-05-06T08:54:58.988Z</time>
      </trkpt>
      <trkpt lat="41.809771356926035" lon="22.97959722580174">
        <ele>1123.0466586278362</ele>
        <time>2026-05-06T08:55:14.407Z</time>
      </trkpt>
      <trkpt lat="41.80965754331558" lon="22.979683805753126">
        <ele>1121.4207586442658</ele>
        <time>2026-05-06T08:55:26.707Z</time>
      </trkpt>
      <trkpt lat="41.80942686313128" lon="22.979882193865848">
        <ele>1119.3857347353842</ele>
        <time>2026-05-06T08:55:52.466Z</time>
      </trkpt>
      <trkpt lat="41.80928606200064" lon="22.979953032008723">
        <ele>1119.231922105096</ele>
        <time>2026-05-06T08:56:06.603Z</time>
      </trkpt>
      <trkpt lat="41.80918750102583" lon="22.979970347998773">
        <ele>1119.5346534149503</ele>
        <time>2026-05-06T08:56:15.948Z</time>
      </trkpt>
      <trkpt lat="41.80883197624544" lon="22.979990812350735">
        <ele>1124.6279393322768</ele>
        <time>2026-05-06T08:56:49.402Z</time>
      </trkpt>
      <trkpt lat="41.80863015932164" lon="22.979946735284273">
        <ele>1125.6565008065982</ele>
        <time>2026-05-06T08:57:08.625Z</time>
      </trkpt>
      <trkpt lat="41.80830636069723" lon="22.979869614873024">
        <ele>1127.8491924670793</ele>
        <time>2026-05-06T08:57:39.542Z</time>
      </trkpt>
      <trkpt lat="41.80821601176052" lon="22.979764144749936">
        <ele>1125.0224951803477</ele>
        <time>2026-05-06T08:57:50.801Z</time>
      </trkpt>
      <trkpt lat="41.808165557104616" lon="22.97966339717061">
        <ele>1122.2379697412075</ele>
        <time>2026-05-06T08:57:59.306Z</time>
      </trkpt>
      <trkpt lat="41.80808694163056" lon="22.979641358636854">
        <ele>1124.0179485775295</ele>
        <time>2026-05-06T08:58:06.856Z</time>
      </trkpt>
      <trkpt lat="41.808015366264044" lon="22.97958783648511">
        <ele>1124.6981423631585</ele>
        <time>2026-05-06T08:58:14.559Z</time>
      </trkpt>
      <trkpt lat="41.80793049919441" lon="22.9793296971948">
        <ele>1121.4339847391684</ele>
        <time>2026-05-06T08:58:34.329Z</time>
      </trkpt>
      <trkpt lat="41.80788121768316" lon="22.978995970835655">
        <ele>1120.9276472869046</ele>
        <time>2026-05-06T08:58:58.169Z</time>
      </trkpt>
      <trkpt lat="41.80781363666131" lon="22.978600232041373">
        <ele>1124.2001475662926</ele>
        <time>2026-05-06T08:59:26.619Z</time>
      </trkpt>
      <trkpt lat="41.807804249692595" lon="22.978486891014597">
        <ele>1127.1836802914045</ele>
        <time>2026-05-06T08:59:34.610Z</time>
      </trkpt>
      <trkpt lat="41.80767283198574" lon="22.97835623399675">
        <ele>1133.175192704196</ele>
        <time>2026-05-06T08:59:49.987Z</time>
      </trkpt>
      <trkpt lat="41.80751911986104" lon="22.97814371957017">
        <ele>1143.9969616996268</ele>
        <time>2026-05-06T09:00:10.737Z</time>
      </trkpt>
      <trkpt lat="41.807400608734724" lon="22.97817362900767">
        <ele>1143.6113310278395</ele>
        <time>2026-05-06T09:00:22.073Z</time>
      </trkpt>
      <trkpt lat="41.80724337581211" lon="22.978257060596945">
        <ele>1141.4635351364277</ele>
        <time>2026-05-06T09:00:37.969Z</time>
      </trkpt>
      <trkpt lat="41.80705680788964" lon="22.978359382357837">
        <ele>1138.2436473181833</ele>
        <time>2026-05-06T09:00:56.917Z</time>
      </trkpt>
      <trkpt lat="41.80693829590811" lon="22.97841290450961">
        <ele>1137.3860632700596</ele>
        <time>2026-05-06T09:01:08.672Z</time>
      </trkpt>
      <trkpt lat="41.80685733215165" lon="22.978515226270503">
        <ele>1136.5801338679441</ele>
        <time>2026-05-06T09:01:19.129Z</time>
      </trkpt>
      <trkpt lat="41.80677519490234" lon="22.978553006612742">
        <ele>1138.1539198574474</ele>
        <time>2026-05-06T09:01:27.292Z</time>
      </trkpt>
      <trkpt lat="41.80662135743978" lon="22.978805514191436">
        <ele>1138.1696712774096</ele>
        <time>2026-05-06T09:01:50.145Z</time>
      </trkpt>
      <trkpt lat="41.806518098786114" lon="22.978972377371036">
        <ele>1138.2592662256252</ele>
        <time>2026-05-06T09:02:05.342Z</time>
      </trkpt>
      <trkpt lat="41.80645825562712" lon="22.978991267542654">
        <ele>1138.1085312801083</ele>
        <time>2026-05-06T09:02:11.121Z</time>
      </trkpt>
      <trkpt lat="41.8061684261981" lon="22.979151833998543">
        <ele>1137.797072949076</ele>
        <time>2026-05-06T09:02:40.600Z</time>
      </trkpt>
      <trkpt lat="41.805903338764296" lon="22.97939898041406">
        <ele>1139.6263950805949</ele>
        <time>2026-05-06T09:03:10.948Z</time>
      </trkpt>
      <trkpt lat="41.80573202126013" lon="22.97960834647853">
        <ele>1141.5619445159573</ele>
        <time>2026-05-06T09:03:32.734Z</time>
      </trkpt>
      <trkpt lat="41.8056381484605" lon="22.979663442810818">
        <ele>1143.9351867750295</ele>
        <time>2026-05-06T09:03:42.366Z</time>
      </trkpt>
      <trkpt lat="41.80539312356777" lon="22.9798602494688">
        <ele>1147.5834596115515</ele>
        <time>2026-05-06T09:04:09.214Z</time>
      </trkpt>
      <trkpt lat="41.80530511735674" lon="22.97991534580109">
        <ele>1148.54424246665</ele>
        <time>2026-05-06T09:04:18.344Z</time>
      </trkpt>
      <trkpt lat="41.805230018627526" lon="22.979905900715835">
        <ele>1149.9632309002604</ele>
        <time>2026-05-06T09:04:25.435Z</time>
      </trkpt>
      <trkpt lat="41.80502932759455" lon="22.979783979473012">
        <ele>1159.6934680463512</ele>
        <time>2026-05-06T09:04:46.146Z</time>
      </trkpt>
      <trkpt lat="41.804868568578314" lon="22.979880004510733">
        <ele>1159.4008565550248</ele>
        <time>2026-05-06T09:05:02.689Z</time>
      </trkpt>
      <trkpt lat="41.80482515184076" lon="22.980015384071237">
        <ele>1155.4010436399506</ele>
        <time>2026-05-06T09:05:13.016Z</time>
      </trkpt>
      <trkpt lat="41.80481341758215" lon="22.980149189450174">
        <ele>1152.3071174989943</ele>
        <time>2026-05-06T09:05:22.457Z</time>
      </trkpt>
      <trkpt lat="41.80476530709967" lon="22.98021845341151">
        <ele>1152.0679641850647</ele>
        <time>2026-05-06T09:05:29.091Z</time>
      </trkpt>
      <trkpt lat="41.80453883531689" lon="22.980509676888175">
        <ele>1153.4770338404885</ele>
        <time>2026-05-06T09:05:58.583Z</time>
      </trkpt>
      <trkpt lat="41.80443322644163" lon="22.98067496588618">
        <ele>1153.3248223952855</ele>
        <time>2026-05-06T09:06:13.839Z</time>
      </trkpt>
      <trkpt lat="41.804322923652364" lon="22.980804048723513">
        <ele>1154.3964488295828</ele>
        <time>2026-05-06T09:06:27.599Z</time>
      </trkpt>
      <trkpt lat="41.80427129249415" lon="22.98091109302706">
        <ele>1154.9600361941118</ele>
        <time>2026-05-06T09:06:36.534Z</time>
      </trkpt>
      <trkpt lat="41.80419384567847" lon="22.981052769310708">
        <ele>1157.2593193900761</ele>
        <time>2026-05-06T09:06:48.846Z</time>
      </trkpt>
      <trkpt lat="41.804144561292844" lon="22.981122033272044">
        <ele>1159.1633234708756</ele>
        <time>2026-05-06T09:06:55.556Z</time>
      </trkpt>
      <trkpt lat="41.804064767445226" lon="22.981255838652004">
        <ele>1163.1456676530156</ele>
        <time>2026-05-06T09:07:07.564Z</time>
      </trkpt>
      <trkpt lat="41.80393985449362" lon="22.981433955249486">
        <ele>1170.9738755441033</ele>
        <time>2026-05-06T09:07:24.702Z</time>
      </trkpt>
      <trkpt lat="41.80383541807467" lon="22.981570908990506">
        <ele>1178.4819885461034</ele>
        <time>2026-05-06T09:07:38.432Z</time>
      </trkpt>
      <trkpt lat="41.803716900133026" lon="22.981635450411204">
        <ele>1184.40171999084</ele>
        <time>2026-05-06T09:07:50.457Z</time>
      </trkpt>
      <trkpt lat="41.80367700295537" lon="22.9817015660104">
        <ele>1186.3636502109196</ele>
        <time>2026-05-06T09:07:56.418Z</time>
      </trkpt>
      <trkpt lat="41.803679" lon="22.981702">
        <ele>1182.4</ele>
        <time>2026-05-06T10:00:33.000Z</time>
      </trkpt>
      <trkpt lat="41.803673" lon="22.981701">
        <ele>1182.4</ele>
        <time>2026-05-06T10:00:34.000Z</time>
      </trkpt>
      <trkpt lat="41.803667" lon="22.9817">
        <ele>1182.4</ele>
        <time>2026-05-06T10:00:35.000Z</time>
      </trkpt>
      <trkpt lat="41.803661" lon="22.9817">
        <ele>1182.4</ele>
        <time>2026-05-06T10:00:36.000Z</time>
      </trkpt>
      <trkpt lat="41.803655" lon="22.981701">
        <ele>1183</ele>
        <time>2026-05-06T10:00:37.000Z</time>
      </trkpt>
      <trkpt lat="41.803649" lon="22.981701">
        <ele>1183</ele>
        <time>2026-05-06T10:00:38.000Z</time>
      </trkpt>
      <trkpt lat="41.803644" lon="22.981701">
        <ele>1183</ele>
        <time>2026-05-06T10:00:39.000Z</time>
      </trkpt>
      <trkpt lat="41.803639" lon="22.981701">
        <ele>1183</ele>
        <time>2026-05-06T10:00:40.000Z</time>
      </trkpt>
      <trkpt lat="41.803633" lon="22.981702">
        <ele>1183</ele>
        <time>2026-05-06T10:00:41.000Z</time>
      </trkpt>
      <trkpt lat="41.803628" lon="22.981702">
        <ele>1183.2</ele>
        <time>2026-05-06T10:00:42.000Z</time>
      </trkpt>
      <trkpt lat="41.803624" lon="22.981702">
        <ele>1183.2</ele>
        <time>2026-05-06T10:00:43.000Z</time>
      </trkpt>
      <trkpt lat="41.803618" lon="22.981703">
        <ele>1183.2</ele>
        <time>2026-05-06T10:00:44.000Z</time>
      </trkpt>
      <trkpt lat="41.803612" lon="22.981704">
        <ele>1183.2</ele>
        <time>2026-05-06T10:00:45.000Z</time>
      </trkpt>
      <trkpt lat="41.803606" lon="22.981704">
        <ele>1183.2</ele>
        <time>2026-05-06T10:00:46.000Z</time>
      </trkpt>
      <trkpt lat="41.803598" lon="22.981702">
        <ele>1183.4</ele>
        <time>2026-05-06T10:00:47.000Z</time>
      </trkpt>
      <trkpt lat="41.80359" lon="22.981701">
        <ele>1183.4</ele>
        <time>2026-05-06T10:00:48.000Z</time>
      </trkpt>
      <trkpt lat="41.803583" lon="22.981698">
        <ele>1183.4</ele>
        <time>2026-05-06T10:00:49.000Z</time>
      </trkpt>
      <trkpt lat="41.803575" lon="22.981695">
        <ele>1183.4</ele>
        <time>2026-05-06T10:00:50.000Z</time>
      </trkpt>
      <trkpt lat="41.803565" lon="22.981692">
        <ele>1183.4</ele>
        <time>2026-05-06T10:00:51.000Z</time>
      </trkpt>
      <trkpt lat="41.803555" lon="22.981688">
        <ele>1183.5</ele>
        <time>2026-05-06T10:00:52.000Z</time>
      </trkpt>
      <trkpt lat="41.803544" lon="22.981687">
        <ele>1183.5</ele>
        <time>2026-05-06T10:00:53.000Z</time>
      </trkpt>
      <trkpt lat="41.803533" lon="22.981685">
        <ele>1183.5</ele>
        <time>2026-05-06T10:00:54.000Z</time>
      </trkpt>
      <trkpt lat="41.803522" lon="22.981682">
        <ele>1183.5</ele>
        <time>2026-05-06T10:00:55.000Z</time>
      </trkpt>
      <trkpt lat="41.80351" lon="22.981681">
        <ele>1183.5</ele>
        <time>2026-05-06T10:00:56.000Z</time>
      </trkpt>
      <trkpt lat="41.803499" lon="22.981681">
        <ele>1183.6</ele>
        <time>2026-05-06T10:00:57.000Z</time>
      </trkpt>
      <trkpt lat="41.803489" lon="22.98168">
        <ele>1183.6</ele>
        <time>2026-05-06T10:00:58.000Z</time>
      </trkpt>
      <trkpt lat="41.803478" lon="22.98168">
        <ele>1183.6</ele>
        <time>2026-05-06T10:00:59.000Z</time>
      </trkpt>
      <trkpt lat="41.803466" lon="22.981681">
        <ele>1183.6</ele>
        <time>2026-05-06T10:01:00.000Z</time>
      </trkpt>
      <trkpt lat="41.803455" lon="22.981682">
        <ele>1183.6</ele>
        <time>2026-05-06T10:01:01.000Z</time>
      </trkpt>
      <trkpt lat="41.803443" lon="22.981682">
        <ele>1184.1</ele>
        <time>2026-05-06T10:01:02.000Z</time>
      </trkpt>
      <trkpt lat="41.803431" lon="22.981682">
        <ele>1184.1</ele>
        <time>2026-05-06T10:01:03.000Z</time>
      </trkpt>
      <trkpt lat="41.803418" lon="22.981681">
        <ele>1184.1</ele>
        <time>2026-05-06T10:01:04.000Z</time>
      </trkpt>
      <trkpt lat="41.803407" lon="22.981681">
        <ele>1184.1</ele>
        <time>2026-05-06T10:01:05.000Z</time>
      </trkpt>
      <trkpt lat="41.803396" lon="22.98168">
        <ele>1184.1</ele>
        <time>2026-05-06T10:01:06.000Z</time>
      </trkpt>
      <trkpt lat="41.803385" lon="22.98168">
        <ele>1184.6</ele>
        <time>2026-05-06T10:01:07.000Z</time>
      </trkpt>
      <trkpt lat="41.803375" lon="22.98168">
        <ele>1184.6</ele>
        <time>2026-05-06T10:01:08.000Z</time>
      </trkpt>
      <trkpt lat="41.803364" lon="22.981681">
        <ele>1184.6</ele>
        <time>2026-05-06T10:01:09.000Z</time>
      </trkpt>
      <trkpt lat="41.803354" lon="22.98168">
        <ele>1184.6</ele>
        <time>2026-05-06T10:01:10.000Z</time>
      </trkpt>
      <trkpt lat="41.803343" lon="22.98168">
        <ele>1184.6</ele>
        <time>2026-05-06T10:01:11.000Z</time>
      </trkpt>
      <trkpt lat="41.803333" lon="22.981681">
        <ele>1184.9</ele>
        <time>2026-05-06T10:01:12.000Z</time>
      </trkpt>
      <trkpt lat="41.803323" lon="22.981683">
        <ele>1184.9</ele>
        <time>2026-05-06T10:01:13.000Z</time>
      </trkpt>
      <trkpt lat="41.803313" lon="22.981684">
        <ele>1184.9</ele>
        <time>2026-05-06T10:01:14.000Z</time>
      </trkpt>
      <trkpt lat="41.803303" lon="22.981685">
        <ele>1184.9</ele>
        <time>2026-05-06T10:01:15.000Z</time>
      </trkpt>
      <trkpt lat="41.803293" lon="22.981686">
        <ele>1184.9</ele>
        <time>2026-05-06T10:01:16.000Z</time>
      </trkpt>
      <trkpt lat="41.803283" lon="22.981688">
        <ele>1185.4</ele>
        <time>2026-05-06T10:01:17.000Z</time>
      </trkpt>
      <trkpt lat="41.803273" lon="22.98169">
        <ele>1185.4</ele>
        <time>2026-05-06T10:01:18.000Z</time>
      </trkpt>
      <trkpt lat="41.803265" lon="22.981693">
        <ele>1185.4</ele>
        <time>2026-05-06T10:01:19.000Z</time>
      </trkpt>
      <trkpt lat="41.803256" lon="22.981698">
        <ele>1185.4</ele>
        <time>2026-05-06T10:01:20.000Z</time>
      </trkpt>
      <trkpt lat="41.803247" lon="22.981703">
        <ele>1185.4</ele>
        <time>2026-05-06T10:01:21.000Z</time>
      </trkpt>
      <trkpt lat="41.803239" lon="22.981711">
        <ele>1185.8</ele>
        <time>2026-05-06T10:01:22.000Z</time>
      </trkpt>
      <trkpt lat="41.80323" lon="22.98172">
        <ele>1185.8</ele>
        <time>2026-05-06T10:01:23.000Z</time>
      </trkpt>
      <trkpt lat="41.80322" lon="22.981728">
        <ele>1185.8</ele>
        <time>2026-05-06T10:01:24.000Z</time>
      </trkpt>
      <trkpt lat="41.803209" lon="22.981737">
        <ele>1185.8</ele>
        <time>2026-05-06T10:01:25.000Z</time>
      </trkpt>
      <trkpt lat="41.803199" lon="22.981748">
        <ele>1185.8</ele>
        <time>2026-05-06T10:01:26.000Z</time>
      </trkpt>
      <trkpt lat="41.803189" lon="22.981758">
        <ele>1186</ele>
        <time>2026-05-06T10:01:27.000Z</time>
      </trkpt>
      <trkpt lat="41.803179" lon="22.98177">
        <ele>1186</ele>
        <time>2026-05-06T10:01:28.000Z</time>
      </trkpt>
      <trkpt lat="41.803171" lon="22.981782">
        <ele>1186</ele>
        <time>2026-05-06T10:01:29.000Z</time>
      </trkpt>
      <trkpt lat="41.803163" lon="22.981795">
        <ele>1186</ele>
        <time>2026-05-06T10:01:30.000Z</time>
      </trkpt>
      <trkpt lat="41.803155" lon="22.981808">
        <ele>1186</ele>
        <time>2026-05-06T10:01:31.000Z</time>
      </trkpt>
      <trkpt lat="41.803147" lon="22.981821">
        <ele>1186.4</ele>
        <time>2026-05-06T10:01:32.000Z</time>
      </trkpt>
      <trkpt lat="41.803139" lon="22.981834">
        <ele>1186.4</ele>
        <time>2026-05-06T10:01:33.000Z</time>
      </trkpt>
      <trkpt lat="41.803131" lon="22.981846">
        <ele>1186.4</ele>
        <time>2026-05-06T10:01:34.000Z</time>
      </trkpt>
      <trkpt lat="41.803122" lon="22.981857">
        <ele>1186.4</ele>
        <time>2026-05-06T10:01:35.000Z</time>
      </trkpt>
      <trkpt lat="41.803115" lon="22.981867">
        <ele>1186.4</ele>
        <time>2026-05-06T10:01:36.000Z</time>
      </trkpt>
      <trkpt lat="41.803108" lon="22.981877">
        <ele>1187.1</ele>
        <time>2026-05-06T10:01:37.000Z</time>
      </trkpt>
      <trkpt lat="41.803102" lon="22.981887">
        <ele>1187.1</ele>
        <time>2026-05-06T10:01:38.000Z</time>
      </trkpt>
      <trkpt lat="41.803096" lon="22.981897">
        <ele>1187.1</ele>
        <time>2026-05-06T10:01:39.000Z</time>
      </trkpt>
      <trkpt lat="41.803091" lon="22.981907">
        <ele>1187.1</ele>
        <time>2026-05-06T10:01:40.000Z</time>
      </trkpt>
      <trkpt lat="41.803086" lon="22.981917">
        <ele>1187.1</ele>
        <time>2026-05-06T10:01:41.000Z</time>
      </trkpt>
      <trkpt lat="41.803079" lon="22.981928">
        <ele>1187.4</ele>
        <time>2026-05-06T10:01:42.000Z</time>
      </trkpt>
      <trkpt lat="41.803071" lon="22.981941">
        <ele>1187.4</ele>
        <time>2026-05-06T10:01:43.000Z</time>
      </trkpt>
      <trkpt lat="41.803062" lon="22.981953">
        <ele>1187.4</ele>
        <time>2026-05-06T10:01:44.000Z</time>
      </trkpt>
      <trkpt lat="41.803053" lon="22.981966">
        <ele>1187.4</ele>
        <time>2026-05-06T10:01:45.000Z</time>
      </trkpt>
      <trkpt lat="41.803043" lon="22.981979">
        <ele>1187.4</ele>
        <time>2026-05-06T10:01:46.000Z</time>
      </trkpt>
      <trkpt lat="41.803032" lon="22.98199">
        <ele>1187.9</ele>
        <time>2026-05-06T10:01:47.000Z</time>
      </trkpt>
      <trkpt lat="41.803022" lon="22.981999">
        <ele>1187.9</ele>
        <time>2026-05-06T10:01:48.000Z</time>
      </trkpt>
      <trkpt lat="41.803011" lon="22.982007">
        <ele>1187.9</ele>
        <time>2026-05-06T10:01:49.000Z</time>
      </trkpt>
      <trkpt lat="41.803" lon="22.982014">
        <ele>1187.9</ele>
        <time>2026-05-06T10:01:50.000Z</time>
      </trkpt>
      <trkpt lat="41.80299" lon="22.98202">
        <ele>1187.9</ele>
        <time>2026-05-06T10:01:51.000Z</time>
      </trkpt>
      <trkpt lat="41.80298" lon="22.982025">
        <ele>1188.3</ele>
        <time>2026-05-06T10:01:52.000Z</time>
      </trkpt>
      <trkpt lat="41.80297" lon="22.982031">
        <ele>1188.3</ele>
        <time>2026-05-06T10:01:53.000Z</time>
      </trkpt>
      <trkpt lat="41.802961" lon="22.982037">
        <ele>1188.3</ele>
        <time>2026-05-06T10:01:54.000Z</time>
      </trkpt>
      <trkpt lat="41.802952" lon="22.982043">
        <ele>1188.3</ele>
        <time>2026-05-06T10:01:55.000Z</time>
      </trkpt>
      <trkpt lat="41.802942" lon="22.982049">
        <ele>1188.3</ele>
        <time>2026-05-06T10:01:56.000Z</time>
      </trkpt>
      <trkpt lat="41.802933" lon="22.982056">
        <ele>1188.5</ele>
        <time>2026-05-06T10:01:57.000Z</time>
      </trkpt>
      <trkpt lat="41.802923" lon="22.982061">
        <ele>1188.5</ele>
        <time>2026-05-06T10:01:58.000Z</time>
      </trkpt>
      <trkpt lat="41.802913" lon="22.982066">
        <ele>1188.5</ele>
        <time>2026-05-06T10:01:59.000Z</time>
      </trkpt>
      <trkpt lat="41.802902" lon="22.98207">
        <ele>1188.5</ele>
        <time>2026-05-06T10:02:00.000Z</time>
      </trkpt>
      <trkpt lat="41.802891" lon="22.982075">
        <ele>1188.5</ele>
        <time>2026-05-06T10:02:01.000Z</time>
      </trkpt>
      <trkpt lat="41.802881" lon="22.98208">
        <ele>1189.1</ele>
        <time>2026-05-06T10:02:02.000Z</time>
      </trkpt>
      <trkpt lat="41.80287" lon="22.982086">
        <ele>1189.1</ele>
        <time>2026-05-06T10:02:03.000Z</time>
      </trkpt>
      <trkpt lat="41.80286" lon="22.982092">
        <ele>1189.1</ele>
        <time>2026-05-06T10:02:04.000Z</time>
      </trkpt>
      <trkpt lat="41.802849" lon="22.982098">
        <ele>1189.1</ele>
        <time>2026-05-06T10:02:05.000Z</time>
      </trkpt>
      <trkpt lat="41.802839" lon="22.982103">
        <ele>1189.1</ele>
        <time>2026-05-06T10:02:06.000Z</time>
      </trkpt>
      <trkpt lat="41.802828" lon="22.982108">
        <ele>1189.8</ele>
        <time>2026-05-06T10:02:07.000Z</time>
      </trkpt>
      <trkpt lat="41.802818" lon="22.982112">
        <ele>1189.8</ele>
        <time>2026-05-06T10:02:08.000Z</time>
      </trkpt>
      <trkpt lat="41.802808" lon="22.982115">
        <ele>1189.8</ele>
        <time>2026-05-06T10:02:09.000Z</time>
      </trkpt>
      <trkpt lat="41.802798" lon="22.982118">
        <ele>1189.8</ele>
        <time>2026-05-06T10:02:10.000Z</time>
      </trkpt>
      <trkpt lat="41.802787" lon="22.982123">
        <ele>1189.8</ele>
        <time>2026-05-06T10:02:11.000Z</time>
      </trkpt>
      <trkpt lat="41.802777" lon="22.982127">
        <ele>1190.2</ele>
        <time>2026-05-06T10:02:12.000Z</time>
      </trkpt>
      <trkpt lat="41.802766" lon="22.982132">
        <ele>1190.2</ele>
        <time>2026-05-06T10:02:13.000Z</time>
      </trkpt>
      <trkpt lat="41.802755" lon="22.982138">
        <ele>1190.2</ele>
        <time>2026-05-06T10:02:14.000Z</time>
      </trkpt>
      <trkpt lat="41.802745" lon="22.982144">
        <ele>1190.2</ele>
        <time>2026-05-06T10:02:15.000Z</time>
      </trkpt>
      <trkpt lat="41.802734" lon="22.982151">
        <ele>1190.2</ele>
        <time>2026-05-06T10:02:16.000Z</time>
      </trkpt>
      <trkpt lat="41.802723" lon="22.982158">
        <ele>1191</ele>
        <time>2026-05-06T10:02:17.000Z</time>
      </trkpt>
      <trkpt lat="41.802713" lon="22.982164">
        <ele>1191</ele>
        <time>2026-05-06T10:02:18.000Z</time>
      </trkpt>
      <trkpt lat="41.802703" lon="22.982167">
        <ele>1191</ele>
        <time>2026-05-06T10:02:19.000Z</time>
      </trkpt>
      <trkpt lat="41.802692" lon="22.98217">
        <ele>1191</ele>
        <time>2026-05-06T10:02:20.000Z</time>
      </trkpt>
      <trkpt lat="41.802683" lon="22.982171">
        <ele>1191</ele>
        <time>2026-05-06T10:02:21.000Z</time>
      </trkpt>
      <trkpt lat="41.802672" lon="22.982172">
        <ele>1191.6</ele>
        <time>2026-05-06T10:02:22.000Z</time>
      </trkpt>
      <trkpt lat="41.802661" lon="22.982174">
        <ele>1191.6</ele>
        <time>2026-05-06T10:02:23.000Z</time>
      </trkpt>
      <trkpt lat="41.802651" lon="22.982177">
        <ele>1191.6</ele>
        <time>2026-05-06T10:02:24.000Z</time>
      </trkpt>
      <trkpt lat="41.802641" lon="22.982179">
        <ele>1191.6</ele>
        <time>2026-05-06T10:02:25.000Z</time>
      </trkpt>
      <trkpt lat="41.802633" lon="22.982183">
        <ele>1191.6</ele>
        <time>2026-05-06T10:02:26.000Z</time>
      </trkpt>
      <trkpt lat="41.802624" lon="22.982188">
        <ele>1191.9</ele>
        <time>2026-05-06T10:02:27.000Z</time>
      </trkpt>
      <trkpt lat="41.802616" lon="22.982194">
        <ele>1191.9</ele>
        <time>2026-05-06T10:02:28.000Z</time>
      </trkpt>
      <trkpt lat="41.802608" lon="22.982201">
        <ele>1191.9</ele>
        <time>2026-05-06T10:02:29.000Z</time>
      </trkpt>
      <trkpt lat="41.802601" lon="22.982208">
        <ele>1191.9</ele>
        <time>2026-05-06T10:02:30.000Z</time>
      </trkpt>
      <trkpt lat="41.802593" lon="22.982216">
        <ele>1191.9</ele>
        <time>2026-05-06T10:02:31.000Z</time>
      </trkpt>
      <trkpt lat="41.802585" lon="22.982223">
        <ele>1192.2</ele>
        <time>2026-05-06T10:02:32.000Z</time>
      </trkpt>
      <trkpt lat="41.802577" lon="22.98223">
        <ele>1192.2</ele>
        <time>2026-05-06T10:02:33.000Z</time>
      </trkpt>
      <trkpt lat="41.802568" lon="22.982237">
        <ele>1192.2</ele>
        <time>2026-05-06T10:02:34.000Z</time>
      </trkpt>
      <trkpt lat="41.802559" lon="22.982243">
        <ele>1192.2</ele>
        <time>2026-05-06T10:02:35.000Z</time>
      </trkpt>
      <trkpt lat="41.802549" lon="22.982249">
        <ele>1192.2</ele>
        <time>2026-05-06T10:02:36.000Z</time>
      </trkpt>
      <trkpt lat="41.80254" lon="22.982254">
        <ele>1192.6</ele>
        <time>2026-05-06T10:02:37.000Z</time>
      </trkpt>
      <trkpt lat="41.80253" lon="22.982259">
        <ele>1192.6</ele>
        <time>2026-05-06T10:02:38.000Z</time>
      </trkpt>
      <trkpt lat="41.80252" lon="22.982263">
        <ele>1192.6</ele>
        <time>2026-05-06T10:02:39.000Z</time>
      </trkpt>
      <trkpt lat="41.802511" lon="22.982266">
        <ele>1192.6</ele>
        <time>2026-05-06T10:02:40.000Z</time>
      </trkpt>
      <trkpt lat="41.802501" lon="22.982272">
        <ele>1192.6</ele>
        <time>2026-05-06T10:02:41.000Z</time>
      </trkpt>
      <trkpt lat="41.802491" lon="22.982281">
        <ele>1192.7</ele>
        <time>2026-05-06T10:02:42.000Z</time>
      </trkpt>
      <trkpt lat="41.802482" lon="22.982292">
        <ele>1192.7</ele>
        <time>2026-05-06T10:02:43.000Z</time>
      </trkpt>
      <trkpt lat="41.802472" lon="22.982303">
        <ele>1192.7</ele>
        <time>2026-05-06T10:02:44.000Z</time>
      </trkpt>
      <trkpt lat="41.802461" lon="22.982314">
        <ele>1192.7</ele>
        <time>2026-05-06T10:02:45.000Z</time>
      </trkpt>
      <trkpt lat="41.802453" lon="22.982322">
        <ele>1192.7</ele>
        <time>2026-05-06T10:02:46.000Z</time>
      </trkpt>
      <trkpt lat="41.802446" lon="22.982328">
        <ele>1193.2</ele>
        <time>2026-05-06T10:02:47.000Z</time>
      </trkpt>
      <trkpt lat="41.80244" lon="22.98233">
        <ele>1193.2</ele>
        <time>2026-05-06T10:02:48.000Z</time>
      </trkpt>
      <trkpt lat="41.802437" lon="22.982331">
        <ele>1193.2</ele>
        <time>2026-05-06T10:02:49.000Z</time>
      </trkpt>
      <trkpt lat="41.802435" lon="22.982333">
        <ele>1193.2</ele>
        <time>2026-05-06T10:02:50.000Z</time>
      </trkpt>
      <trkpt lat="41.802434" lon="22.982335">
        <ele>1193.2</ele>
        <time>2026-05-06T10:02:51.000Z</time>
      </trkpt>
      <trkpt lat="41.802432" lon="22.982336">
        <ele>1193.7</ele>
        <time>2026-05-06T10:02:52.000Z</time>
      </trkpt>
      <trkpt lat="41.80243" lon="22.982339">
        <ele>1193.7</ele>
        <time>2026-05-06T10:02:53.000Z</time>
      </trkpt>
      <trkpt lat="41.802427" lon="22.982341">
        <ele>1193.7</ele>
        <time>2026-05-06T10:02:54.000Z</time>
      </trkpt>
      <trkpt lat="41.802425" lon="22.982342">
        <ele>1193.7</ele>
        <time>2026-05-06T10:02:55.000Z</time>
      </trkpt>
      <trkpt lat="41.802421" lon="22.982343">
        <ele>1193.7</ele>
        <time>2026-05-06T10:02:56.000Z</time>
      </trkpt>
      <trkpt lat="41.802419" lon="22.982344">
        <ele>1193.9</ele>
        <time>2026-05-06T10:02:57.000Z</time>
      </trkpt>
      <trkpt lat="41.802416" lon="22.982343">
        <ele>1193.9</ele>
        <time>2026-05-06T10:02:58.000Z</time>
      </trkpt>
      <trkpt lat="41.802414" lon="22.982341">
        <ele>1193.9</ele>
        <time>2026-05-06T10:02:59.000Z</time>
      </trkpt>
      <trkpt lat="41.802411" lon="22.982339">
        <ele>1193.9</ele>
        <time>2026-05-06T10:03:00.000Z</time>
      </trkpt>
      <trkpt lat="41.802409" lon="22.982337">
        <ele>1193.9</ele>
        <time>2026-05-06T10:03:01.000Z</time>
      </trkpt>
      <trkpt lat="41.802406" lon="22.982336">
        <ele>1194.2</ele>
        <time>2026-05-06T10:03:02.000Z</time>
      </trkpt>
      <trkpt lat="41.802405" lon="22.982335">
        <ele>1194.2</ele>
        <time>2026-05-06T10:03:03.000Z</time>
      </trkpt>
      <trkpt lat="41.802402" lon="22.982335">
        <ele>1194.2</ele>
        <time>2026-05-06T10:03:04.000Z</time>
      </trkpt>
      <trkpt lat="41.802401" lon="22.982335">
        <ele>1194.2</ele>
        <time>2026-05-06T10:03:05.000Z</time>
      </trkpt>
      <trkpt lat="41.802401" lon="22.982335">
        <ele>1194.2</ele>
        <time>2026-05-06T10:03:06.000Z</time>
      </trkpt>
      <trkpt lat="41.802401" lon="22.982334">
        <ele>1194.3</ele>
        <time>2026-05-06T10:03:07.000Z</time>
      </trkpt>
      <trkpt lat="41.802402" lon="22.982333">
        <ele>1194.3</ele>
        <time>2026-05-06T10:03:08.000Z</time>
      </trkpt>
      <trkpt lat="41.802401" lon="22.982332">
        <ele>1194.3</ele>
        <time>2026-05-06T10:03:09.000Z</time>
      </trkpt>
      <trkpt lat="41.802401" lon="22.98233">
        <ele>1194.3</ele>
        <time>2026-05-06T10:03:10.000Z</time>
      </trkpt>
      <trkpt lat="41.802401" lon="22.982329">
        <ele>1194.3</ele>
        <time>2026-05-06T10:03:11.000Z</time>
      </trkpt>
      <trkpt lat="41.8024" lon="22.982327">
        <ele>1194.2</ele>
        <time>2026-05-06T10:03:12.000Z</time>
      </trkpt>
      <trkpt lat="41.8024" lon="22.982324">
        <ele>1194.2</ele>
        <time>2026-05-06T10:03:13.000Z</time>
      </trkpt>
      <trkpt lat="41.8024" lon="22.982322">
        <ele>1194.2</ele>
        <time>2026-05-06T10:03:14.000Z</time>
      </trkpt>
      <trkpt lat="41.802401" lon="22.982321">
        <ele>1194.2</ele>
        <time>2026-05-06T10:03:15.000Z</time>
      </trkpt>
      <trkpt lat="41.802401" lon="22.982319">
        <ele>1194.2</ele>
        <time>2026-05-06T10:03:16.000Z</time>
      </trkpt>
      <trkpt lat="41.802401" lon="22.982318">
        <ele>1193.9</ele>
        <time>2026-05-06T10:03:17.000Z</time>
      </trkpt>
      <trkpt lat="41.802402" lon="22.982317">
        <ele>1193.9</ele>
        <time>2026-05-06T10:03:18.000Z</time>
      </trkpt>
      <trkpt lat="41.802402" lon="22.982317">
        <ele>1193.9</ele>
        <time>2026-05-06T10:03:19.000Z</time>
      </trkpt>
      <trkpt lat="41.802402" lon="22.982316">
        <ele>1193.9</ele>
        <time>2026-05-06T10:03:20.000Z</time>
      </trkpt>
      <trkpt lat="41.802402" lon="22.982317">
        <ele>1193.9</ele>
        <time>2026-05-06T10:03:21.000Z</time>
      </trkpt>
      <trkpt lat="41.802403" lon="22.982317">
        <ele>1193.7</ele>
        <time>2026-05-06T10:03:22.000Z</time>
      </trkpt>
      <trkpt lat="41.802403" lon="22.982318">
        <ele>1193.7</ele>
        <time>2026-05-06T10:03:23.000Z</time>
      </trkpt>
      <trkpt lat="41.802404" lon="22.982319">
        <ele>1193.7</ele>
        <time>2026-05-06T10:03:24.000Z</time>
      </trkpt>
      <trkpt lat="41.802404" lon="22.98232">
        <ele>1193.7</ele>
        <time>2026-05-06T10:03:25.000Z</time>
      </trkpt>
      <trkpt lat="41.802405" lon="22.98232">
        <ele>1193.7</ele>
        <time>2026-05-06T10:03:26.000Z</time>
      </trkpt>
      <trkpt lat="41.802405" lon="22.98232">
        <ele>1193.7</ele>
        <time>2026-05-06T10:03:27.000Z</time>
      </trkpt>
      <trkpt lat="41.802405" lon="22.98232">
        <ele>1193.7</ele>
        <time>2026-05-06T10:03:28.000Z</time>
      </trkpt>
      <trkpt lat="41.802405" lon="22.98232">
        <ele>1193.7</ele>
        <time>2026-05-06T10:03:29.000Z</time>
      </trkpt>
      <trkpt lat="41.802405" lon="22.98232">
        <ele>1193.7</ele>
        <time>2026-05-06T10:03:30.000Z</time>
      </trkpt>
      <trkpt lat="41.802406" lon="22.982321">
        <ele>1193.7</ele>
        <time>2026-05-06T10:03:31.000Z</time>
      </trkpt>
      <trkpt lat="41.802406" lon="22.982321">
        <ele>1193.8</ele>
        <time>2026-05-06T10:03:32.000Z</time>
      </trkpt>
      <trkpt lat="41.802406" lon="22.982321">
        <ele>1193.8</ele>
        <time>2026-05-06T10:03:33.000Z</time>
      </trkpt>
      <trkpt lat="41.802405" lon="22.98232">
        <ele>1193.8</ele>
        <time>2026-05-06T10:03:34.000Z</time>
      </trkpt>
      <trkpt lat="41.802405" lon="22.98232">
        <ele>1193.8</ele>
        <time>2026-05-06T10:03:35.000Z</time>
      </trkpt>
      <trkpt lat="41.802404" lon="22.98232">
        <ele>1193.8</ele>
        <time>2026-05-06T10:03:36.000Z</time>
      </trkpt>
      <trkpt lat="41.802405" lon="22.982319">
        <ele>1193.9</ele>
        <time>2026-05-06T10:03:37.000Z</time>
      </trkpt>
      <trkpt lat="41.802405" lon="22.982319">
        <ele>1193.9</ele>
        <time>2026-05-06T10:03:38.000Z</time>
      </trkpt>
      <trkpt lat="41.802406" lon="22.98232">
        <ele>1193.9</ele>
        <time>2026-05-06T10:03:39.000Z</time>
      </trkpt>
      <trkpt lat="41.802407" lon="22.98232">
        <ele>1193.9</ele>
        <time>2026-05-06T10:03:40.000Z</time>
      </trkpt>
      <trkpt lat="41.802408" lon="22.98232">
        <ele>1193.9</ele>
        <time>2026-05-06T10:03:41.000Z</time>
      </trkpt>
      <trkpt lat="41.802408" lon="22.98232">
        <ele>1193.8</ele>
        <time>2026-05-06T10:03:42.000Z</time>
      </trkpt>
      <trkpt lat="41.802408" lon="22.982319">
        <ele>1193.8</ele>
        <time>2026-05-06T10:03:43.000Z</time>
      </trkpt>
      <trkpt lat="41.802408" lon="22.982319">
        <ele>1193.8</ele>
        <time>2026-05-06T10:03:44.000Z</time>
      </trkpt>
      <trkpt lat="41.802408" lon="22.982318">
        <ele>1193.8</ele>
        <time>2026-05-06T10:03:45.000Z</time>
      </trkpt>
      <trkpt lat="41.802408" lon="22.982318">
        <ele>1193.8</ele>
        <time>2026-05-06T10:03:46.000Z</time>
      </trkpt>
      <trkpt lat="41.802408" lon="22.982318">
        <ele>1193.6</ele>
        <time>2026-05-06T10:03:47.000Z</time>
      </trkpt>
      <trkpt lat="41.802409" lon="22.982318">
        <ele>1193.6</ele>
        <time>2026-05-06T10:03:48.000Z</time>
      </trkpt>
      <trkpt lat="41.802409" lon="22.982318">
        <ele>1193.6</ele>
        <time>2026-05-06T10:03:49.000Z</time>
      </trkpt>
      <trkpt lat="41.802409" lon="22.982317">
        <ele>1193.6</ele>
        <time>2026-05-06T10:03:50.000Z</time>
      </trkpt>
      <trkpt lat="41.80241" lon="22.982317">
        <ele>1193.6</ele>
        <time>2026-05-06T10:03:51.000Z</time>
      </trkpt>
      <trkpt lat="41.80241" lon="22.982318">
        <ele>1193.5</ele>
        <time>2026-05-06T10:03:52.000Z</time>
      </trkpt>
      <trkpt lat="41.80241" lon="22.982317">
        <ele>1193.5</ele>
        <time>2026-05-06T10:03:53.000Z</time>
      </trkpt>
      <trkpt lat="41.80241" lon="22.982317">
        <ele>1193.5</ele>
        <time>2026-05-06T10:03:54.000Z</time>
      </trkpt>
      <trkpt lat="41.802412" lon="22.982316">
        <ele>1193.5</ele>
        <time>2026-05-06T10:03:55.000Z</time>
      </trkpt>
      <trkpt lat="41.802413" lon="22.982315">
        <ele>1193.5</ele>
        <time>2026-05-06T10:03:56.000Z</time>
      </trkpt>
      <trkpt lat="41.802415" lon="22.982314">
        <ele>1193.5</ele>
        <time>2026-05-06T10:03:57.000Z</time>
      </trkpt>
      <trkpt lat="41.802418" lon="22.982313">
        <ele>1193.5</ele>
        <time>2026-05-06T10:03:58.000Z</time>
      </trkpt>
      <trkpt lat="41.802419" lon="22.982313">
        <ele>1193.5</ele>
        <time>2026-05-06T10:03:59.000Z</time>
      </trkpt>
      <trkpt lat="41.80242" lon="22.982313">
        <ele>1193.5</ele>
        <time>2026-05-06T10:04:00.000Z</time>
      </trkpt>
      <trkpt lat="41.802421" lon="22.982312">
        <ele>1193.5</ele>
        <time>2026-05-06T10:04:01.000Z</time>
      </trkpt>
      <trkpt lat="41.802421" lon="22.982311">
        <ele>1193.5</ele>
        <time>2026-05-06T10:04:02.000Z</time>
      </trkpt>
      <trkpt lat="41.802421" lon="22.982311">
        <ele>1193.5</ele>
        <time>2026-05-06T10:04:03.000Z</time>
      </trkpt>
      <trkpt lat="41.80242" lon="22.982311">
        <ele>1193.5</ele>
        <time>2026-05-06T10:04:04.000Z</time>
      </trkpt>
      <trkpt lat="41.80242" lon="22.982313">
        <ele>1193.5</ele>
        <time>2026-05-06T10:04:05.000Z</time>
      </trkpt>
      <trkpt lat="41.80242" lon="22.982315">
        <ele>1193.5</ele>
        <time>2026-05-06T10:04:06.000Z</time>
      </trkpt>
      <trkpt lat="41.802419" lon="22.982316">
        <ele>1193.4</ele>
        <time>2026-05-06T10:04:07.000Z</time>
      </trkpt>
      <trkpt lat="41.802418" lon="22.982318">
        <ele>1193.4</ele>
        <time>2026-05-06T10:04:08.000Z</time>
      </trkpt>
      <trkpt lat="41.802418" lon="22.982318">
        <ele>1193.4</ele>
        <time>2026-05-06T10:04:09.000Z</time>
      </trkpt>
      <trkpt lat="41.802417" lon="22.982319">
        <ele>1193.4</ele>
        <time>2026-05-06T10:04:10.000Z</time>
      </trkpt>
      <trkpt lat="41.802417" lon="22.982319">
        <ele>1193.4</ele>
        <time>2026-05-06T10:04:11.000Z</time>
      </trkpt>
      <trkpt lat="41.802415" lon="22.982319">
        <ele>1193.3</ele>
        <time>2026-05-06T10:04:12.000Z</time>
      </trkpt>
      <trkpt lat="41.802415" lon="22.98232">
        <ele>1193.3</ele>
        <time>2026-05-06T10:04:13.000Z</time>
      </trkpt>
      <trkpt lat="41.802414" lon="22.98232">
        <ele>1193.3</ele>
        <time>2026-05-06T10:04:14.000Z</time>
      </trkpt>
      <trkpt lat="41.802412" lon="22.982321">
        <ele>1193.3</ele>
        <time>2026-05-06T10:04:15.000Z</time>
      </trkpt>
      <trkpt lat="41.80241" lon="22.982321">
        <ele>1193.3</ele>
        <time>2026-05-06T10:04:16.000Z</time>
      </trkpt>
      <trkpt lat="41.802409" lon="22.982322">
        <ele>1193.3</ele>
        <time>2026-05-06T10:04:17.000Z</time>
      </trkpt>
      <trkpt lat="41.802408" lon="22.982322">
        <ele>1193.3</ele>
        <time>2026-05-06T10:04:18.000Z</time>
      </trkpt>
      <trkpt lat="41.80241" lon="22.982322">
        <ele>1193.3</ele>
        <time>2026-05-06T10:04:19.000Z</time>
      </trkpt>
      <trkpt lat="41.802413" lon="22.982322">
        <ele>1193.3</ele>
        <time>2026-05-06T10:04:20.000Z</time>
      </trkpt>
      <trkpt lat="41.802415" lon="22.982322">
        <ele>1193.3</ele>
        <time>2026-05-06T10:04:21.000Z</time>
      </trkpt>
      <trkpt lat="41.802418" lon="22.982322">
        <ele>1193.2</ele>
        <time>2026-05-06T10:04:22.000Z</time>
      </trkpt>
      <trkpt lat="41.802421" lon="22.982321">
        <ele>1193.2</ele>
        <time>2026-05-06T10:04:23.000Z</time>
      </trkpt>
      <trkpt lat="41.802424" lon="22.982321">
        <ele>1193.2</ele>
        <time>2026-05-06T10:04:24.000Z</time>
      </trkpt>
      <trkpt lat="41.802426" lon="22.98232">
        <ele>1193.2</ele>
        <time>2026-05-06T10:04:25.000Z</time>
      </trkpt>
      <trkpt lat="41.802428" lon="22.982319">
        <ele>1193.2</ele>
        <time>2026-05-06T10:04:26.000Z</time>
      </trkpt>
      <trkpt lat="41.802429" lon="22.982318">
        <ele>1193.3</ele>
        <time>2026-05-06T10:04:27.000Z</time>
      </trkpt>
      <trkpt lat="41.80243" lon="22.982317">
        <ele>1193.3</ele>
        <time>2026-05-06T10:04:28.000Z</time>
      </trkpt>
      <trkpt lat="41.80243" lon="22.982316">
        <ele>1193.3</ele>
        <time>2026-05-06T10:04:29.000Z</time>
      </trkpt>
      <trkpt lat="41.802431" lon="22.982315">
        <ele>1193.3</ele>
        <time>2026-05-06T10:04:30.000Z</time>
      </trkpt>
      <trkpt lat="41.802431" lon="22.982314">
        <ele>1193.3</ele>
        <time>2026-05-06T10:04:31.000Z</time>
      </trkpt>
      <trkpt lat="41.802431" lon="22.982314">
        <ele>1193.4</ele>
        <time>2026-05-06T10:04:32.000Z</time>
      </trkpt>
      <trkpt lat="41.80243" lon="22.982313">
        <ele>1193.4</ele>
        <time>2026-05-06T10:04:33.000Z</time>
      </trkpt>
      <trkpt lat="41.80243" lon="22.982313">
        <ele>1193.4</ele>
        <time>2026-05-06T10:04:34.000Z</time>
      </trkpt>
      <trkpt lat="41.80243" lon="22.982312">
        <ele>1193.4</ele>
        <time>2026-05-06T10:04:35.000Z</time>
      </trkpt>
      <trkpt lat="41.802431" lon="22.982312">
        <ele>1193.4</ele>
        <time>2026-05-06T10:04:36.000Z</time>
      </trkpt>
      <trkpt lat="41.802431" lon="22.982311">
        <ele>1193.4</ele>
        <time>2026-05-06T10:04:37.000Z</time>
      </trkpt>
      <trkpt lat="41.802431" lon="22.98231">
        <ele>1193.4</ele>
        <time>2026-05-06T10:04:38.000Z</time>
      </trkpt>
      <trkpt lat="41.802432" lon="22.982309">
        <ele>1193.4</ele>
        <time>2026-05-06T10:04:39.000Z</time>
      </trkpt>
      <trkpt lat="41.802432" lon="22.982308">
        <ele>1193.4</ele>
        <time>2026-05-06T10:04:40.000Z</time>
      </trkpt>
      <trkpt lat="41.802432" lon="22.982308">
        <ele>1193.4</ele>
        <time>2026-05-06T10:04:41.000Z</time>
      </trkpt>
      <trkpt lat="41.802432" lon="22.982307">
        <ele>1193.4</ele>
        <time>2026-05-06T10:04:42.000Z</time>
      </trkpt>
      <trkpt lat="41.802432" lon="22.982307">
        <ele>1193.4</ele>
        <time>2026-05-06T10:04:43.000Z</time>
      </trkpt>
      <trkpt lat="41.802431" lon="22.982307">
        <ele>1193.4</ele>
        <time>2026-05-06T10:04:44.000Z</time>
      </trkpt>
      <trkpt lat="41.802431" lon="22.982307">
        <ele>1193.4</ele>
        <time>2026-05-06T10:04:45.000Z</time>
      </trkpt>
      <trkpt lat="41.80243" lon="22.982307">
        <ele>1193.4</ele>
        <time>2026-05-06T10:04:46.000Z</time>
      </trkpt>
      <trkpt lat="41.802429" lon="22.982307">
        <ele>1193.4</ele>
        <time>2026-05-06T10:04:47.000Z</time>
      </trkpt>
      <trkpt lat="41.802428" lon="22.982306">
        <ele>1193.4</ele>
        <time>2026-05-06T10:04:48.000Z</time>
      </trkpt>
      <trkpt lat="41.802428" lon="22.982306">
        <ele>1193.4</ele>
        <time>2026-05-06T10:04:49.000Z</time>
      </trkpt>
      <trkpt lat="41.802428" lon="22.982306">
        <ele>1193.4</ele>
        <time>2026-05-06T10:04:50.000Z</time>
      </trkpt>
      <trkpt lat="41.802428" lon="22.982306">
        <ele>1193.4</ele>
        <time>2026-05-06T10:04:51.000Z</time>
      </trkpt>
      <trkpt lat="41.802428" lon="22.982306">
        <ele>1193.5</ele>
        <time>2026-05-06T10:04:52.000Z</time>
      </trkpt>
      <trkpt lat="41.802428" lon="22.982307">
        <ele>1193.5</ele>
        <time>2026-05-06T10:04:53.000Z</time>
      </trkpt>
      <trkpt lat="41.802427" lon="22.982308">
        <ele>1193.5</ele>
        <time>2026-05-06T10:04:54.000Z</time>
      </trkpt>
      <trkpt lat="41.802426" lon="22.982309">
        <ele>1193.5</ele>
        <time>2026-05-06T10:04:55.000Z</time>
      </trkpt>
      <trkpt lat="41.802426" lon="22.98231">
        <ele>1193.5</ele>
        <time>2026-05-06T10:04:56.000Z</time>
      </trkpt>
      <trkpt lat="41.802425" lon="22.982311">
        <ele>1193.5</ele>
        <time>2026-05-06T10:04:57.000Z</time>
      </trkpt>
      <trkpt lat="41.802425" lon="22.982311">
        <ele>1193.5</ele>
        <time>2026-05-06T10:04:58.000Z</time>
      </trkpt>
      <trkpt lat="41.802425" lon="22.982311">
        <ele>1193.5</ele>
        <time>2026-05-06T10:04:59.000Z</time>
      </trkpt>
      <trkpt lat="41.802425" lon="22.982311">
        <ele>1193.5</ele>
        <time>2026-05-06T10:05:00.000Z</time>
      </trkpt>
      <trkpt lat="41.802424" lon="22.982311">
        <ele>1193.5</ele>
        <time>2026-05-06T10:05:01.000Z</time>
      </trkpt>
      <trkpt lat="41.802424" lon="22.982311">
        <ele>1193.6</ele>
        <time>2026-05-06T10:05:02.000Z</time>
      </trkpt>
      <trkpt lat="41.802424" lon="22.982311">
        <ele>1193.6</ele>
        <time>2026-05-06T10:05:03.000Z</time>
      </trkpt>
      <trkpt lat="41.802424" lon="22.982311">
        <ele>1193.6</ele>
        <time>2026-05-06T10:05:04.000Z</time>
      </trkpt>
      <trkpt lat="41.802424" lon="22.982311">
        <ele>1193.6</ele>
        <time>2026-05-06T10:05:05.000Z</time>
      </trkpt>
      <trkpt lat="41.802423" lon="22.982311">
        <ele>1193.6</ele>
        <time>2026-05-06T10:05:06.000Z</time>
      </trkpt>
      <trkpt lat="41.802422" lon="22.982311">
        <ele>1193.8</ele>
        <time>2026-05-06T10:05:07.000Z</time>
      </trkpt>
      <trkpt lat="41.80242" lon="22.982312">
        <ele>1193.8</ele>
        <time>2026-05-06T10:05:08.000Z</time>
      </trkpt>
      <trkpt lat="41.802419" lon="22.982312">
        <ele>1193.8</ele>
        <time>2026-05-06T10:05:09.000Z</time>
      </trkpt>
      <trkpt lat="41.802418" lon="22.982313">
        <ele>1193.8</ele>
        <time>2026-05-06T10:05:10.000Z</time>
      </trkpt>
      <trkpt lat="41.802418" lon="22.982313">
        <ele>1193.8</ele>
        <time>2026-05-06T10:05:11.000Z</time>
      </trkpt>
      <trkpt lat="41.802418" lon="22.982313">
        <ele>1193.8</ele>
        <time>2026-05-06T10:05:12.000Z</time>
      </trkpt>
      <trkpt lat="41.802419" lon="22.982313">
        <ele>1193.8</ele>
        <time>2026-05-06T10:05:13.000Z</time>
      </trkpt>
      <trkpt lat="41.802419" lon="22.982312">
        <ele>1193.8</ele>
        <time>2026-05-06T10:05:14.000Z</time>
      </trkpt>
      <trkpt lat="41.802419" lon="22.982312">
        <ele>1193.8</ele>
        <time>2026-05-06T10:05:15.000Z</time>
      </trkpt>
      <trkpt lat="41.802419" lon="22.982311">
        <ele>1193.8</ele>
        <time>2026-05-06T10:05:16.000Z</time>
      </trkpt>
      <trkpt lat="41.80242" lon="22.982312">
        <ele>1193.9</ele>
        <time>2026-05-06T10:05:17.000Z</time>
      </trkpt>
      <trkpt lat="41.80242" lon="22.982312">
        <ele>1193.9</ele>
        <time>2026-05-06T10:05:18.000Z</time>
      </trkpt>
      <trkpt lat="41.802421" lon="22.982313">
        <ele>1193.9</ele>
        <time>2026-05-06T10:05:19.000Z</time>
      </trkpt>
      <trkpt lat="41.802421" lon="22.982313">
        <ele>1193.9</ele>
        <time>2026-05-06T10:05:20.000Z</time>
      </trkpt>
      <trkpt lat="41.802422" lon="22.982313">
        <ele>1193.9</ele>
        <time>2026-05-06T10:05:21.000Z</time>
      </trkpt>
      <trkpt lat="41.802423" lon="22.982312">
        <ele>1193.8</ele>
        <time>2026-05-06T10:05:22.000Z</time>
      </trkpt>
      <trkpt lat="41.802424" lon="22.982311">
        <ele>1193.8</ele>
        <time>2026-05-06T10:05:23.000Z</time>
      </trkpt>
      <trkpt lat="41.802425" lon="22.982311">
        <ele>1193.8</ele>
        <time>2026-05-06T10:05:24.000Z</time>
      </trkpt>
      <trkpt lat="41.802426" lon="22.98231">
        <ele>1193.8</ele>
        <time>2026-05-06T10:05:25.000Z</time>
      </trkpt>
      <trkpt lat="41.802427" lon="22.98231">
        <ele>1193.8</ele>
        <time>2026-05-06T10:05:26.000Z</time>
      </trkpt>
      <trkpt lat="41.802427" lon="22.98231">
        <ele>1193.8</ele>
        <time>2026-05-06T10:05:27.000Z</time>
      </trkpt>
      <trkpt lat="41.802427" lon="22.98231">
        <ele>1193.8</ele>
        <time>2026-05-06T10:05:28.000Z</time>
      </trkpt>
      <trkpt lat="41.802427" lon="22.98231">
        <ele>1193.8</ele>
        <time>2026-05-06T10:05:29.000Z</time>
      </trkpt>
      <trkpt lat="41.802428" lon="22.982309">
        <ele>1193.8</ele>
        <time>2026-05-06T10:05:30.000Z</time>
      </trkpt>
      <trkpt lat="41.802428" lon="22.982309">
        <ele>1193.8</ele>
        <time>2026-05-06T10:05:31.000Z</time>
      </trkpt>
      <trkpt lat="41.802429" lon="22.982309">
        <ele>1193.8</ele>
        <time>2026-05-06T10:05:32.000Z</time>
      </trkpt>
      <trkpt lat="41.802429" lon="22.982309">
        <ele>1193.8</ele>
        <time>2026-05-06T10:05:33.000Z</time>
      </trkpt>
      <trkpt lat="41.802429" lon="22.982309">
        <ele>1193.8</ele>
        <time>2026-05-06T10:05:34.000Z</time>
      </trkpt>
      <trkpt lat="41.802429" lon="22.982309">
        <ele>1193.8</ele>
        <time>2026-05-06T10:05:35.000Z</time>
      </trkpt>
      <trkpt lat="41.802429" lon="22.982309">
        <ele>1193.8</ele>
        <time>2026-05-06T10:05:36.000Z</time>
      </trkpt>
      <trkpt lat="41.802429" lon="22.982309">
        <ele>1194</ele>
        <time>2026-05-06T10:05:37.000Z</time>
      </trkpt>
      <trkpt lat="41.802429" lon="22.982309">
        <ele>1194</ele>
        <time>2026-05-06T10:05:38.000Z</time>
      </trkpt>
      <trkpt lat="41.802429" lon="22.982309">
        <ele>1194</ele>
        <time>2026-05-06T10:05:39.000Z</time>
      </trkpt>
      <trkpt lat="41.802429" lon="22.982309">
        <ele>1194</ele>
        <time>2026-05-06T10:05:40.000Z</time>
      </trkpt>
      <trkpt lat="41.802429" lon="22.982309">
        <ele>1194</ele>
        <time>2026-05-06T10:05:41.000Z</time>
      </trkpt>
      <trkpt lat="41.802429" lon="22.982309">
        <ele>1194</ele>
        <time>2026-05-06T10:05:42.000Z</time>
      </trkpt>
      <trkpt lat="41.80243" lon="22.982309">
        <ele>1194</ele>
        <time>2026-05-06T10:05:43.000Z</time>
      </trkpt>
      <trkpt lat="41.80243" lon="22.982308">
        <ele>1194</ele>
        <time>2026-05-06T10:05:44.000Z</time>
      </trkpt>
      <trkpt lat="41.80243" lon="22.982308">
        <ele>1194</ele>
        <time>2026-05-06T10:05:45.000Z</time>
      </trkpt>
      <trkpt lat="41.802429" lon="22.982307">
        <ele>1194</ele>
        <time>2026-05-06T10:05:46.000Z</time>
      </trkpt>
      <trkpt lat="41.802429" lon="22.982307">
        <ele>1194</ele>
        <time>2026-05-06T10:05:47.000Z</time>
      </trkpt>
      <trkpt lat="41.802428" lon="22.982307">
        <ele>1194</ele>
        <time>2026-05-06T10:05:48.000Z</time>
      </trkpt>
      <trkpt lat="41.802428" lon="22.982307">
        <ele>1194</ele>
        <time>2026-05-06T10:05:49.000Z</time>
      </trkpt>
      <trkpt lat="41.802427" lon="22.982307">
        <ele>1194</ele>
        <time>2026-05-06T10:05:50.000Z</time>
      </trkpt>
      <trkpt lat="41.802426" lon="22.982308">
        <ele>1194</ele>
        <time>2026-05-06T10:05:51.000Z</time>
      </trkpt>
      <trkpt lat="41.802425" lon="22.982309">
        <ele>1194</ele>
        <time>2026-05-06T10:05:52.000Z</time>
      </trkpt>
      <trkpt lat="41.802424" lon="22.982309">
        <ele>1194</ele>
        <time>2026-05-06T10:05:53.000Z</time>
      </trkpt>
      <trkpt lat="41.802423" lon="22.98231">
        <ele>1194</ele>
        <time>2026-05-06T10:05:54.000Z</time>
      </trkpt>
      <trkpt lat="41.802422" lon="22.982311">
        <ele>1194</ele>
        <time>2026-05-06T10:05:55.000Z</time>
      </trkpt>
      <trkpt lat="41.802421" lon="22.982312">
        <ele>1194</ele>
        <time>2026-05-06T10:05:56.000Z</time>
      </trkpt>
      <trkpt lat="41.802421" lon="22.982313">
        <ele>1194</ele>
        <time>2026-05-06T10:05:57.000Z</time>
      </trkpt>
      <trkpt lat="41.80242" lon="22.982314">
        <ele>1194</ele>
        <time>2026-05-06T10:05:58.000Z</time>
      </trkpt>
      <trkpt lat="41.80242" lon="22.982315">
        <ele>1194</ele>
        <time>2026-05-06T10:05:59.000Z</time>
      </trkpt>
      <trkpt lat="41.80242" lon="22.982316">
        <ele>1194</ele>
        <time>2026-05-06T10:06:00.000Z</time>
      </trkpt>
      <trkpt lat="41.80242" lon="22.982317">
        <ele>1194</ele>
        <time>2026-05-06T10:06:01.000Z</time>
      </trkpt>
      <trkpt lat="41.80242" lon="22.982318">
        <ele>1194</ele>
        <time>2026-05-06T10:06:02.000Z</time>
      </trkpt>
      <trkpt lat="41.802419" lon="22.982319">
        <ele>1194</ele>
        <time>2026-05-06T10:06:03.000Z</time>
      </trkpt>
      <trkpt lat="41.802418" lon="22.98232">
        <ele>1194</ele>
        <time>2026-05-06T10:06:04.000Z</time>
      </trkpt>
      <trkpt lat="41.802416" lon="22.982321">
        <ele>1194</ele>
        <time>2026-05-06T10:06:05.000Z</time>
      </trkpt>
      <trkpt lat="41.802414" lon="22.982321">
        <ele>1194</ele>
        <time>2026-05-06T10:06:06.000Z</time>
      </trkpt>
      <trkpt lat="41.802413" lon="22.982322">
        <ele>1194.1</ele>
        <time>2026-05-06T10:06:07.000Z</time>
      </trkpt>
      <trkpt lat="41.802411" lon="22.982322">
        <ele>1194.1</ele>
        <time>2026-05-06T10:06:08.000Z</time>
      </trkpt>
      <trkpt lat="41.802409" lon="22.982322">
        <ele>1194.1</ele>
        <time>2026-05-06T10:06:09.000Z</time>
      </trkpt>
      <trkpt lat="41.802408" lon="22.982323">
        <ele>1194.1</ele>
        <time>2026-05-06T10:06:10.000Z</time>
      </trkpt>
      <trkpt lat="41.802407" lon="22.982325">
        <ele>1194.1</ele>
        <time>2026-05-06T10:06:11.000Z</time>
      </trkpt>
      <trkpt lat="41.802407" lon="22.982325">
        <ele>1194</ele>
        <time>2026-05-06T10:06:12.000Z</time>
      </trkpt>
      <trkpt lat="41.802407" lon="22.982326">
        <ele>1194</ele>
        <time>2026-05-06T10:06:13.000Z</time>
      </trkpt>
      <trkpt lat="41.802407" lon="22.982326">
        <ele>1194</ele>
        <time>2026-05-06T10:06:14.000Z</time>
      </trkpt>
      <trkpt lat="41.802407" lon="22.982327">
        <ele>1194</ele>
        <time>2026-05-06T10:06:15.000Z</time>
      </trkpt>
      <trkpt lat="41.802407" lon="22.982327">
        <ele>1194</ele>
        <time>2026-05-06T10:06:16.000Z</time>
      </trkpt>
      <trkpt lat="41.802407" lon="22.982327">
        <ele>1194.1</ele>
        <time>2026-05-06T10:06:17.000Z</time>
      </trkpt>
      <trkpt lat="41.802407" lon="22.982327">
        <ele>1194.1</ele>
        <time>2026-05-06T10:06:18.000Z</time>
      </trkpt>
      <trkpt lat="41.802407" lon="22.982327">
        <ele>1194.1</ele>
        <time>2026-05-06T10:06:19.000Z</time>
      </trkpt>
      <trkpt lat="41.802406" lon="22.982327">
        <ele>1194.1</ele>
        <time>2026-05-06T10:06:20.000Z</time>
      </trkpt>
      <trkpt lat="41.802406" lon="22.982327">
        <ele>1194.1</ele>
        <time>2026-05-06T10:06:21.000Z</time>
      </trkpt>
      <trkpt lat="41.802406" lon="22.982327">
        <ele>1194.2</ele>
        <time>2026-05-06T10:06:22.000Z</time>
      </trkpt>
      <trkpt lat="41.802406" lon="22.982327">
        <ele>1194.2</ele>
        <time>2026-05-06T10:06:23.000Z</time>
      </trkpt>
      <trkpt lat="41.802406" lon="22.982327">
        <ele>1194.2</ele>
        <time>2026-05-06T10:06:24.000Z</time>
      </trkpt>
      <trkpt lat="41.802405" lon="22.982326">
        <ele>1194.2</ele>
        <time>2026-05-06T10:06:25.000Z</time>
      </trkpt>
      <trkpt lat="41.802404" lon="22.982326">
        <ele>1194.2</ele>
        <time>2026-05-06T10:06:26.000Z</time>
      </trkpt>
      <trkpt lat="41.802402" lon="22.982325">
        <ele>1194.2</ele>
        <time>2026-05-06T10:06:27.000Z</time>
      </trkpt>
      <trkpt lat="41.802401" lon="22.982324">
        <ele>1194.2</ele>
        <time>2026-05-06T10:06:28.000Z</time>
      </trkpt>
      <trkpt lat="41.8024" lon="22.982322">
        <ele>1194.2</ele>
        <time>2026-05-06T10:06:29.000Z</time>
      </trkpt>
      <trkpt lat="41.802399" lon="22.982321">
        <ele>1194.2</ele>
        <time>2026-05-06T10:06:30.000Z</time>
      </trkpt>
      <trkpt lat="41.802399" lon="22.982319">
        <ele>1194.2</ele>
        <time>2026-05-06T10:06:31.000Z</time>
      </trkpt>
      <trkpt lat="41.802399" lon="22.982317">
        <ele>1194.1</ele>
        <time>2026-05-06T10:06:32.000Z</time>
      </trkpt>
      <trkpt lat="41.802399" lon="22.982317">
        <ele>1194.1</ele>
        <time>2026-05-06T10:06:33.000Z</time>
      </trkpt>
      <trkpt lat="41.802398" lon="22.982319">
        <ele>1194.1</ele>
        <time>2026-05-06T10:06:34.000Z</time>
      </trkpt>
      <trkpt lat="41.802397" lon="22.98232">
        <ele>1194.1</ele>
        <time>2026-05-06T10:06:35.000Z</time>
      </trkpt>
      <trkpt lat="41.802394" lon="22.982326">
        <ele>1194.1</ele>
        <time>2026-05-06T10:06:36.000Z</time>
      </trkpt>
      <trkpt lat="41.802391" lon="22.982334">
        <ele>1194.1</ele>
        <time>2026-05-06T10:06:37.000Z</time>
      </trkpt>
      <trkpt lat="41.802388" lon="22.982342">
        <ele>1194.1</ele>
        <time>2026-05-06T10:06:38.000Z</time>
      </trkpt>
      <trkpt lat="41.802386" lon="22.982351">
        <ele>1194.1</ele>
        <time>2026-05-06T10:06:39.000Z</time>
      </trkpt>
      <trkpt lat="41.802385" lon="22.982361">
        <ele>1194.1</ele>
        <time>2026-05-06T10:06:40.000Z</time>
      </trkpt>
      <trkpt lat="41.802384" lon="22.982369">
        <ele>1194.1</ele>
        <time>2026-05-06T10:06:41.000Z</time>
      </trkpt>
      <trkpt lat="41.802381" lon="22.982379">
        <ele>1194.3</ele>
        <time>2026-05-06T10:06:42.000Z</time>
      </trkpt>
      <trkpt lat="41.802378" lon="22.98239">
        <ele>1194.3</ele>
        <time>2026-05-06T10:06:43.000Z</time>
      </trkpt>
      <trkpt lat="41.802374" lon="22.982401">
        <ele>1194.3</ele>
        <time>2026-05-06T10:06:44.000Z</time>
      </trkpt>
      <trkpt lat="41.802368" lon="22.982413">
        <ele>1194.3</ele>
        <time>2026-05-06T10:06:45.000Z</time>
      </trkpt>
      <trkpt lat="41.802362" lon="22.982424">
        <ele>1194.3</ele>
        <time>2026-05-06T10:06:46.000Z</time>
      </trkpt>
      <trkpt lat="41.802356" lon="22.982432">
        <ele>1194.7</ele>
        <time>2026-05-06T10:06:47.000Z</time>
      </trkpt>
      <trkpt lat="41.802352" lon="22.982438">
        <ele>1194.7</ele>
        <time>2026-05-06T10:06:48.000Z</time>
      </trkpt>
      <trkpt lat="41.802348" lon="22.982442">
        <ele>1194.7</ele>
        <time>2026-05-06T10:06:49.000Z</time>
      </trkpt>
      <trkpt lat="41.802344" lon="22.982443">
        <ele>1194.7</ele>
        <time>2026-05-06T10:06:50.000Z</time>
      </trkpt>
      <trkpt lat="41.802341" lon="22.982444">
        <ele>1194.7</ele>
        <time>2026-05-06T10:06:51.000Z</time>
      </trkpt>
      <trkpt lat="41.802339" lon="22.982443">
        <ele>1195.2</ele>
        <time>2026-05-06T10:06:52.000Z</time>
      </trkpt>
      <trkpt lat="41.802337" lon="22.982442">
        <ele>1195.2</ele>
        <time>2026-05-06T10:06:53.000Z</time>
      </trkpt>
      <trkpt lat="41.802335" lon="22.982441">
        <ele>1195.2</ele>
        <time>2026-05-06T10:06:54.000Z</time>
      </trkpt>
      <trkpt lat="41.802334" lon="22.982441">
        <ele>1195.2</ele>
        <time>2026-05-06T10:06:55.000Z</time>
      </trkpt>
      <trkpt lat="41.802332" lon="22.982441">
        <ele>1195.2</ele>
        <time>2026-05-06T10:06:56.000Z</time>
      </trkpt>
      <trkpt lat="41.80233" lon="22.982444">
        <ele>1195.4</ele>
        <time>2026-05-06T10:06:57.000Z</time>
      </trkpt>
      <trkpt lat="41.802326" lon="22.982446">
        <ele>1195.4</ele>
        <time>2026-05-06T10:06:58.000Z</time>
      </trkpt>
      <trkpt lat="41.802321" lon="22.982449">
        <ele>1195.4</ele>
        <time>2026-05-06T10:06:59.000Z</time>
      </trkpt>
      <trkpt lat="41.802316" lon="22.982454">
        <ele>1195.4</ele>
        <time>2026-05-06T10:07:00.000Z</time>
      </trkpt>
      <trkpt lat="41.802311" lon="22.982458">
        <ele>1195.4</ele>
        <time>2026-05-06T10:07:01.000Z</time>
      </trkpt>
      <trkpt lat="41.802307" lon="22.982459">
        <ele>1195.8</ele>
        <time>2026-05-06T10:07:02.000Z</time>
      </trkpt>
      <trkpt lat="41.802306" lon="22.98246">
        <ele>1195.8</ele>
        <time>2026-05-06T10:07:03.000Z</time>
      </trkpt>
      <trkpt lat="41.802307" lon="22.98246">
        <ele>1195.8</ele>
        <time>2026-05-06T10:07:04.000Z</time>
      </trkpt>
      <trkpt lat="41.80231" lon="22.98246">
        <ele>1195.8</ele>
        <time>2026-05-06T10:07:05.000Z</time>
      </trkpt>
      <trkpt lat="41.802313" lon="22.982459">
        <ele>1195.8</ele>
        <time>2026-05-06T10:07:06.000Z</time>
      </trkpt>
      <trkpt lat="41.802316" lon="22.982461">
        <ele>1196.2</ele>
        <time>2026-05-06T10:07:07.000Z</time>
      </trkpt>
      <trkpt lat="41.802317" lon="22.982464">
        <ele>1196.2</ele>
        <time>2026-05-06T10:07:08.000Z</time>
      </trkpt>
      <trkpt lat="41.802317" lon="22.982466">
        <ele>1196.2</ele>
        <time>2026-05-06T10:07:09.000Z</time>
      </trkpt>
      <trkpt lat="41.802314" lon="22.98247">
        <ele>1196.2</ele>
        <time>2026-05-06T10:07:10.000Z</time>
      </trkpt>
      <trkpt lat="41.802309" lon="22.982472">
        <ele>1196.2</ele>
        <time>2026-05-06T10:07:11.000Z</time>
      </trkpt>
      <trkpt lat="41.802303" lon="22.982476">
        <ele>1196.4</ele>
        <time>2026-05-06T10:07:12.000Z</time>
      </trkpt>
      <trkpt lat="41.802297" lon="22.982481">
        <ele>1196.4</ele>
        <time>2026-05-06T10:07:13.000Z</time>
      </trkpt>
      <trkpt lat="41.80229" lon="22.982488">
        <ele>1196.4</ele>
        <time>2026-05-06T10:07:14.000Z</time>
      </trkpt>
      <trkpt lat="41.802283" lon="22.982495">
        <ele>1196.4</ele>
        <time>2026-05-06T10:07:15.000Z</time>
      </trkpt>
      <trkpt lat="41.802275" lon="22.982504">
        <ele>1196.4</ele>
        <time>2026-05-06T10:07:16.000Z</time>
      </trkpt>
      <trkpt lat="41.80227" lon="22.982514">
        <ele>1196.7</ele>
        <time>2026-05-06T10:07:17.000Z</time>
      </trkpt>
      <trkpt lat="41.80226" lon="22.982538">
        <ele>1196.7</ele>
        <time>2026-05-06T10:07:19.000Z</time>
      </trkpt>
      <trkpt lat="41.802251" lon="22.982554">
        <ele>1196.7</ele>
        <time>2026-05-06T10:07:20.000Z</time>
      </trkpt>
      <trkpt lat="41.802244" lon="22.982572">
        <ele>1196.7</ele>
        <time>2026-05-06T10:07:21.000Z</time>
      </trkpt>
      <trkpt lat="41.802233" lon="22.982589">
        <ele>1196.9</ele>
        <time>2026-05-06T10:07:22.000Z</time>
      </trkpt>
      <trkpt lat="41.802223" lon="22.982603">
        <ele>1196.9</ele>
        <time>2026-05-06T10:07:23.000Z</time>
      </trkpt>
      <trkpt lat="41.80221" lon="22.982617">
        <ele>1196.9</ele>
        <time>2026-05-06T10:07:24.000Z</time>
      </trkpt>
      <trkpt lat="41.802197" lon="22.982629">
        <ele>1196.9</ele>
        <time>2026-05-06T10:07:25.000Z</time>
      </trkpt>
      <trkpt lat="41.802184" lon="22.982639">
        <ele>1196.9</ele>
        <time>2026-05-06T10:07:26.000Z</time>
      </trkpt>
      <trkpt lat="41.802173" lon="22.982647">
        <ele>1197.4</ele>
        <time>2026-05-06T10:07:27.000Z</time>
      </trkpt>
      <trkpt lat="41.802161" lon="22.982655">
        <ele>1197.4</ele>
        <time>2026-05-06T10:07:28.000Z</time>
      </trkpt>
      <trkpt lat="41.802151" lon="22.982661">
        <ele>1197.4</ele>
        <time>2026-05-06T10:07:29.000Z</time>
      </trkpt>
      <trkpt lat="41.802141" lon="22.982667">
        <ele>1197.4</ele>
        <time>2026-05-06T10:07:30.000Z</time>
      </trkpt>
      <trkpt lat="41.802131" lon="22.982673">
        <ele>1197.4</ele>
        <time>2026-05-06T10:07:31.000Z</time>
      </trkpt>
      <trkpt lat="41.802122" lon="22.98268">
        <ele>1197.7</ele>
        <time>2026-05-06T10:07:32.000Z</time>
      </trkpt>
      <trkpt lat="41.802113" lon="22.982687">
        <ele>1197.7</ele>
        <time>2026-05-06T10:07:33.000Z</time>
      </trkpt>
      <trkpt lat="41.802104" lon="22.982695">
        <ele>1197.7</ele>
        <time>2026-05-06T10:07:34.000Z</time>
      </trkpt>
      <trkpt lat="41.802096" lon="22.982702">
        <ele>1197.7</ele>
        <time>2026-05-06T10:07:35.000Z</time>
      </trkpt>
      <trkpt lat="41.802086" lon="22.98271">
        <ele>1197.7</ele>
        <time>2026-05-06T10:07:36.000Z</time>
      </trkpt>
      <trkpt lat="41.802077" lon="22.982716">
        <ele>1198.3</ele>
        <time>2026-05-06T10:07:37.000Z</time>
      </trkpt>
      <trkpt lat="41.802067" lon="22.982723">
        <ele>1198.3</ele>
        <time>2026-05-06T10:07:38.000Z</time>
      </trkpt>
      <trkpt lat="41.802056" lon="22.982731">
        <ele>1198.3</ele>
        <time>2026-05-06T10:07:39.000Z</time>
      </trkpt>
      <trkpt lat="41.802045" lon="22.982739">
        <ele>1198.3</ele>
        <time>2026-05-06T10:07:40.000Z</time>
      </trkpt>
      <trkpt lat="41.802034" lon="22.982745">
        <ele>1198.3</ele>
        <time>2026-05-06T10:07:41.000Z</time>
      </trkpt>
      <trkpt lat="41.802024" lon="22.982752">
        <ele>1198.7</ele>
        <time>2026-05-06T10:07:42.000Z</time>
      </trkpt>
      <trkpt lat="41.802013" lon="22.982757">
        <ele>1198.7</ele>
        <time>2026-05-06T10:07:43.000Z</time>
      </trkpt>
      <trkpt lat="41.802002" lon="22.98276">
        <ele>1198.7</ele>
        <time>2026-05-06T10:07:44.000Z</time>
      </trkpt>
      <trkpt lat="41.80199" lon="22.982764">
        <ele>1198.7</ele>
        <time>2026-05-06T10:07:45.000Z</time>
      </trkpt>
      <trkpt lat="41.801978" lon="22.982767">
        <ele>1198.7</ele>
        <time>2026-05-06T10:07:46.000Z</time>
      </trkpt>
      <trkpt lat="41.801966" lon="22.982771">
        <ele>1198.9</ele>
        <time>2026-05-06T10:07:47.000Z</time>
      </trkpt>
      <trkpt lat="41.801954" lon="22.982775">
        <ele>1198.9</ele>
        <time>2026-05-06T10:07:48.000Z</time>
      </trkpt>
      <trkpt lat="41.801942" lon="22.98278">
        <ele>1198.9</ele>
        <time>2026-05-06T10:07:49.000Z</time>
      </trkpt>
      <trkpt lat="41.801929" lon="22.982786">
        <ele>1198.9</ele>
        <time>2026-05-06T10:07:50.000Z</time>
      </trkpt>
      <trkpt lat="41.801915" lon="22.982792">
        <ele>1198.9</ele>
        <time>2026-05-06T10:07:51.000Z</time>
      </trkpt>
      <trkpt lat="41.801901" lon="22.982797">
        <ele>1199.4</ele>
        <time>2026-05-06T10:07:52.000Z</time>
      </trkpt>
      <trkpt lat="41.801886" lon="22.982803">
        <ele>1199.4</ele>
        <time>2026-05-06T10:07:53.000Z</time>
      </trkpt>
      <trkpt lat="41.801871" lon="22.982809">
        <ele>1199.4</ele>
        <time>2026-05-06T10:07:54.000Z</time>
      </trkpt>
      <trkpt lat="41.801856" lon="22.982816">
        <ele>1199.4</ele>
        <time>2026-05-06T10:07:55.000Z</time>
      </trkpt>
      <trkpt lat="41.80184" lon="22.982821">
        <ele>1199.4</ele>
        <time>2026-05-06T10:07:56.000Z</time>
      </trkpt>
      <trkpt lat="41.801825" lon="22.982827">
        <ele>1199.9</ele>
        <time>2026-05-06T10:07:57.000Z</time>
      </trkpt>
      <trkpt lat="41.801811" lon="22.982831">
        <ele>1199.9</ele>
        <time>2026-05-06T10:07:58.000Z</time>
      </trkpt>
      <trkpt lat="41.801799" lon="22.982836">
        <ele>1199.9</ele>
        <time>2026-05-06T10:07:59.000Z</time>
      </trkpt>
      <trkpt lat="41.801787" lon="22.98284">
        <ele>1199.9</ele>
        <time>2026-05-06T10:08:00.000Z</time>
      </trkpt>
      <trkpt lat="41.801776" lon="22.982843">
        <ele>1199.9</ele>
        <time>2026-05-06T10:08:01.000Z</time>
      </trkpt>
      <trkpt lat="41.801765" lon="22.982844">
        <ele>1200.2</ele>
        <time>2026-05-06T10:08:02.000Z</time>
      </trkpt>
      <trkpt lat="41.801752" lon="22.982846">
        <ele>1200.2</ele>
        <time>2026-05-06T10:08:03.000Z</time>
      </trkpt>
      <trkpt lat="41.801739" lon="22.982847">
        <ele>1200.2</ele>
        <time>2026-05-06T10:08:04.000Z</time>
      </trkpt>
      <trkpt lat="41.801725" lon="22.982847">
        <ele>1200.2</ele>
        <time>2026-05-06T10:08:05.000Z</time>
      </trkpt>
      <trkpt lat="41.801712" lon="22.982847">
        <ele>1200.2</ele>
        <time>2026-05-06T10:08:06.000Z</time>
      </trkpt>
      <trkpt lat="41.801699" lon="22.982847">
        <ele>1200.7</ele>
        <time>2026-05-06T10:08:07.000Z</time>
      </trkpt>
      <trkpt lat="41.801687" lon="22.982847">
        <ele>1200.7</ele>
        <time>2026-05-06T10:08:08.000Z</time>
      </trkpt>
      <trkpt lat="41.801674" lon="22.982848">
        <ele>1200.7</ele>
        <time>2026-05-06T10:08:09.000Z</time>
      </trkpt>
      <trkpt lat="41.801661" lon="22.982849">
        <ele>1200.7</ele>
        <time>2026-05-06T10:08:10.000Z</time>
      </trkpt>
      <trkpt lat="41.801648" lon="22.98285">
        <ele>1200.7</ele>
        <time>2026-05-06T10:08:11.000Z</time>
      </trkpt>
      <trkpt lat="41.801634" lon="22.982851">
        <ele>1201.4</ele>
        <time>2026-05-06T10:08:12.000Z</time>
      </trkpt>
      <trkpt lat="41.801619" lon="22.982852">
        <ele>1201.4</ele>
        <time>2026-05-06T10:08:13.000Z</time>
      </trkpt>
      <trkpt lat="41.801605" lon="22.982853">
        <ele>1201.4</ele>
        <time>2026-05-06T10:08:14.000Z</time>
      </trkpt>
      <trkpt lat="41.80159" lon="22.982853">
        <ele>1201.4</ele>
        <time>2026-05-06T10:08:15.000Z</time>
      </trkpt>
      <trkpt lat="41.801576" lon="22.982854">
        <ele>1201.4</ele>
        <time>2026-05-06T10:08:16.000Z</time>
      </trkpt>
      <trkpt lat="41.801562" lon="22.982854">
        <ele>1201.7</ele>
        <time>2026-05-06T10:08:17.000Z</time>
      </trkpt>
      <trkpt lat="41.801549" lon="22.982853">
        <ele>1201.7</ele>
        <time>2026-05-06T10:08:18.000Z</time>
      </trkpt>
      <trkpt lat="41.801534" lon="22.982853">
        <ele>1201.7</ele>
        <time>2026-05-06T10:08:19.000Z</time>
      </trkpt>
      <trkpt lat="41.801519" lon="22.982852">
        <ele>1201.7</ele>
        <time>2026-05-06T10:08:20.000Z</time>
      </trkpt>
      <trkpt lat="41.801504" lon="22.982851">
        <ele>1201.7</ele>
        <time>2026-05-06T10:08:21.000Z</time>
      </trkpt>
      <trkpt lat="41.80149" lon="22.98285">
        <ele>1202.3</ele>
        <time>2026-05-06T10:08:22.000Z</time>
      </trkpt>
      <trkpt lat="41.801475" lon="22.98285">
        <ele>1202.3</ele>
        <time>2026-05-06T10:08:23.000Z</time>
      </trkpt>
      <trkpt lat="41.801461" lon="22.982849">
        <ele>1202.3</ele>
        <time>2026-05-06T10:08:24.000Z</time>
      </trkpt>
      <trkpt lat="41.801447" lon="22.98285">
        <ele>1202.3</ele>
        <time>2026-05-06T10:08:25.000Z</time>
      </trkpt>
      <trkpt lat="41.801434" lon="22.982851">
        <ele>1202.3</ele>
        <time>2026-05-06T10:08:26.000Z</time>
      </trkpt>
      <trkpt lat="41.80142" lon="22.982854">
        <ele>1202.9</ele>
        <time>2026-05-06T10:08:27.000Z</time>
      </trkpt>
      <trkpt lat="41.801408" lon="22.982856">
        <ele>1202.9</ele>
        <time>2026-05-06T10:08:28.000Z</time>
      </trkpt>
      <trkpt lat="41.801396" lon="22.982858">
        <ele>1202.9</ele>
        <time>2026-05-06T10:08:29.000Z</time>
      </trkpt>
      <trkpt lat="41.801384" lon="22.982859">
        <ele>1202.9</ele>
        <time>2026-05-06T10:08:30.000Z</time>
      </trkpt>
      <trkpt lat="41.801371" lon="22.98286">
        <ele>1202.9</ele>
        <time>2026-05-06T10:08:31.000Z</time>
      </trkpt>
      <trkpt lat="41.801358" lon="22.982861">
        <ele>1203.2</ele>
        <time>2026-05-06T10:08:32.000Z</time>
      </trkpt>
      <trkpt lat="41.801345" lon="22.982862">
        <ele>1203.2</ele>
        <time>2026-05-06T10:08:33.000Z</time>
      </trkpt>
      <trkpt lat="41.80133" lon="22.982863">
        <ele>1203.2</ele>
        <time>2026-05-06T10:08:34.000Z</time>
      </trkpt>
      <trkpt lat="41.801316" lon="22.982864">
        <ele>1203.2</ele>
        <time>2026-05-06T10:08:35.000Z</time>
      </trkpt>
      <trkpt lat="41.801302" lon="22.982864">
        <ele>1203.2</ele>
        <time>2026-05-06T10:08:36.000Z</time>
      </trkpt>
      <trkpt lat="41.801289" lon="22.982866">
        <ele>1203.7</ele>
        <time>2026-05-06T10:08:37.000Z</time>
      </trkpt>
      <trkpt lat="41.801277" lon="22.982867">
        <ele>1203.7</ele>
        <time>2026-05-06T10:08:38.000Z</time>
      </trkpt>
      <trkpt lat="41.801266" lon="22.982868">
        <ele>1203.7</ele>
        <time>2026-05-06T10:08:39.000Z</time>
      </trkpt>
      <trkpt lat="41.801255" lon="22.982871">
        <ele>1203.7</ele>
        <time>2026-05-06T10:08:40.000Z</time>
      </trkpt>
      <trkpt lat="41.801244" lon="22.982875">
        <ele>1203.7</ele>
        <time>2026-05-06T10:08:41.000Z</time>
      </trkpt>
      <trkpt lat="41.801232" lon="22.982879">
        <ele>1204.1</ele>
        <time>2026-05-06T10:08:42.000Z</time>
      </trkpt>
      <trkpt lat="41.801219" lon="22.982884">
        <ele>1204.1</ele>
        <time>2026-05-06T10:08:43.000Z</time>
      </trkpt>
      <trkpt lat="41.801206" lon="22.982891">
        <ele>1204.1</ele>
        <time>2026-05-06T10:08:44.000Z</time>
      </trkpt>
      <trkpt lat="41.801193" lon="22.982898">
        <ele>1204.1</ele>
        <time>2026-05-06T10:08:45.000Z</time>
      </trkpt>
      <trkpt lat="41.801181" lon="22.982906">
        <ele>1204.1</ele>
        <time>2026-05-06T10:08:46.000Z</time>
      </trkpt>
      <trkpt lat="41.80117" lon="22.982915">
        <ele>1204.3</ele>
        <time>2026-05-06T10:08:47.000Z</time>
      </trkpt>
      <trkpt lat="41.80116" lon="22.982924">
        <ele>1204.3</ele>
        <time>2026-05-06T10:08:48.000Z</time>
      </trkpt>
      <trkpt lat="41.801148" lon="22.982934">
        <ele>1204.3</ele>
        <time>2026-05-06T10:08:49.000Z</time>
      </trkpt>
      <trkpt lat="41.801138" lon="22.982946">
        <ele>1204.3</ele>
        <time>2026-05-06T10:08:50.000Z</time>
      </trkpt>
      <trkpt lat="41.801128" lon="22.98296">
        <ele>1204.3</ele>
        <time>2026-05-06T10:08:51.000Z</time>
      </trkpt>
      <trkpt lat="41.801117" lon="22.982974">
        <ele>1204.9</ele>
        <time>2026-05-06T10:08:52.000Z</time>
      </trkpt>
      <trkpt lat="41.801106" lon="22.98299">
        <ele>1204.9</ele>
        <time>2026-05-06T10:08:53.000Z</time>
      </trkpt>
      <trkpt lat="41.801095" lon="22.983005">
        <ele>1204.9</ele>
        <time>2026-05-06T10:08:54.000Z</time>
      </trkpt>
      <trkpt lat="41.801085" lon="22.983019">
        <ele>1204.9</ele>
        <time>2026-05-06T10:08:55.000Z</time>
      </trkpt>
      <trkpt lat="41.801075" lon="22.98303">
        <ele>1204.9</ele>
        <time>2026-05-06T10:08:56.000Z</time>
      </trkpt>
      <trkpt lat="41.801065" lon="22.983041">
        <ele>1205.4</ele>
        <time>2026-05-06T10:08:57.000Z</time>
      </trkpt>
      <trkpt lat="41.801055" lon="22.983052">
        <ele>1205.4</ele>
        <time>2026-05-06T10:08:58.000Z</time>
      </trkpt>
      <trkpt lat="41.801046" lon="22.983064">
        <ele>1205.4</ele>
        <time>2026-05-06T10:08:59.000Z</time>
      </trkpt>
      <trkpt lat="41.801037" lon="22.983077">
        <ele>1205.4</ele>
        <time>2026-05-06T10:09:00.000Z</time>
      </trkpt>
      <trkpt lat="41.801028" lon="22.983091">
        <ele>1205.4</ele>
        <time>2026-05-06T10:09:01.000Z</time>
      </trkpt>
      <trkpt lat="41.801019" lon="22.983105">
        <ele>1205.6</ele>
        <time>2026-05-06T10:09:02.000Z</time>
      </trkpt>
      <trkpt lat="41.801011" lon="22.98312">
        <ele>1205.6</ele>
        <time>2026-05-06T10:09:03.000Z</time>
      </trkpt>
      <trkpt lat="41.801003" lon="22.983135">
        <ele>1205.6</ele>
        <time>2026-05-06T10:09:04.000Z</time>
      </trkpt>
      <trkpt lat="41.800995" lon="22.983148">
        <ele>1205.6</ele>
        <time>2026-05-06T10:09:05.000Z</time>
      </trkpt>
      <trkpt lat="41.800986" lon="22.983161">
        <ele>1205.6</ele>
        <time>2026-05-06T10:09:06.000Z</time>
      </trkpt>
      <trkpt lat="41.800976" lon="22.983174">
        <ele>1205.9</ele>
        <time>2026-05-06T10:09:07.000Z</time>
      </trkpt>
      <trkpt lat="41.800966" lon="22.983187">
        <ele>1205.9</ele>
        <time>2026-05-06T10:09:08.000Z</time>
      </trkpt>
      <trkpt lat="41.800956" lon="22.9832">
        <ele>1205.9</ele>
        <time>2026-05-06T10:09:09.000Z</time>
      </trkpt>
      <trkpt lat="41.800946" lon="22.983214">
        <ele>1205.9</ele>
        <time>2026-05-06T10:09:10.000Z</time>
      </trkpt>
      <trkpt lat="41.800937" lon="22.983227">
        <ele>1205.9</ele>
        <time>2026-05-06T10:09:11.000Z</time>
      </trkpt>
      <trkpt lat="41.800929" lon="22.983241">
        <ele>1206.1</ele>
        <time>2026-05-06T10:09:12.000Z</time>
      </trkpt>
      <trkpt lat="41.800922" lon="22.983256">
        <ele>1206.1</ele>
        <time>2026-05-06T10:09:13.000Z</time>
      </trkpt>
      <trkpt lat="41.800916" lon="22.983272">
        <ele>1206.1</ele>
        <time>2026-05-06T10:09:14.000Z</time>
      </trkpt>
      <trkpt lat="41.800911" lon="22.983289">
        <ele>1206.1</ele>
        <time>2026-05-06T10:09:15.000Z</time>
      </trkpt>
      <trkpt lat="41.800906" lon="22.983307">
        <ele>1206.1</ele>
        <time>2026-05-06T10:09:16.000Z</time>
      </trkpt>
      <trkpt lat="41.8009" lon="22.983324">
        <ele>1206.3</ele>
        <time>2026-05-06T10:09:17.000Z</time>
      </trkpt>
      <trkpt lat="41.800895" lon="22.983342">
        <ele>1206.3</ele>
        <time>2026-05-06T10:09:18.000Z</time>
      </trkpt>
      <trkpt lat="41.80089" lon="22.98336">
        <ele>1206.3</ele>
        <time>2026-05-06T10:09:19.000Z</time>
      </trkpt>
      <trkpt lat="41.800884" lon="22.983376">
        <ele>1206.3</ele>
        <time>2026-05-06T10:09:20.000Z</time>
      </trkpt>
      <trkpt lat="41.800878" lon="22.983393">
        <ele>1206.3</ele>
        <time>2026-05-06T10:09:21.000Z</time>
      </trkpt>
      <trkpt lat="41.800872" lon="22.98341">
        <ele>1206.7</ele>
        <time>2026-05-06T10:09:22.000Z</time>
      </trkpt>
      <trkpt lat="41.800866" lon="22.983426">
        <ele>1206.7</ele>
        <time>2026-05-06T10:09:23.000Z</time>
      </trkpt>
      <trkpt lat="41.800858" lon="22.983443">
        <ele>1206.7</ele>
        <time>2026-05-06T10:09:24.000Z</time>
      </trkpt>
      <trkpt lat="41.800851" lon="22.983459">
        <ele>1206.7</ele>
        <time>2026-05-06T10:09:25.000Z</time>
      </trkpt>
      <trkpt lat="41.800845" lon="22.983474">
        <ele>1206.7</ele>
        <time>2026-05-06T10:09:26.000Z</time>
      </trkpt>
      <trkpt lat="41.800838" lon="22.98349">
        <ele>1207.2</ele>
        <time>2026-05-06T10:09:27.000Z</time>
      </trkpt>
      <trkpt lat="41.800831" lon="22.983507">
        <ele>1207.2</ele>
        <time>2026-05-06T10:09:28.000Z</time>
      </trkpt>
      <trkpt lat="41.800825" lon="22.983525">
        <ele>1207.2</ele>
        <time>2026-05-06T10:09:29.000Z</time>
      </trkpt>
      <trkpt lat="41.800819" lon="22.983543">
        <ele>1207.2</ele>
        <time>2026-05-06T10:09:30.000Z</time>
      </trkpt>
      <trkpt lat="41.800813" lon="22.983562">
        <ele>1207.2</ele>
        <time>2026-05-06T10:09:31.000Z</time>
      </trkpt>
      <trkpt lat="41.800808" lon="22.983582">
        <ele>1207.4</ele>
        <time>2026-05-06T10:09:32.000Z</time>
      </trkpt>
      <trkpt lat="41.800802" lon="22.983601">
        <ele>1207.4</ele>
        <time>2026-05-06T10:09:33.000Z</time>
      </trkpt>
      <trkpt lat="41.800797" lon="22.98362">
        <ele>1207.4</ele>
        <time>2026-05-06T10:09:34.000Z</time>
      </trkpt>
      <trkpt lat="41.800791" lon="22.98364">
        <ele>1207.4</ele>
        <time>2026-05-06T10:09:35.000Z</time>
      </trkpt>
      <trkpt lat="41.800784" lon="22.983659">
        <ele>1207.4</ele>
        <time>2026-05-06T10:09:36.000Z</time>
      </trkpt>
      <trkpt lat="41.800777" lon="22.983676">
        <ele>1207.9</ele>
        <time>2026-05-06T10:09:37.000Z</time>
      </trkpt>
      <trkpt lat="41.80077" lon="22.983694">
        <ele>1207.9</ele>
        <time>2026-05-06T10:09:38.000Z</time>
      </trkpt>
      <trkpt lat="41.800761" lon="22.983711">
        <ele>1207.9</ele>
        <time>2026-05-06T10:09:39.000Z</time>
      </trkpt>
      <trkpt lat="41.800752" lon="22.983728">
        <ele>1207.9</ele>
        <time>2026-05-06T10:09:40.000Z</time>
      </trkpt>
      <trkpt lat="41.800744" lon="22.983743">
        <ele>1207.9</ele>
        <time>2026-05-06T10:09:41.000Z</time>
      </trkpt>
      <trkpt lat="41.800735" lon="22.983759">
        <ele>1208.8</ele>
        <time>2026-05-06T10:09:42.000Z</time>
      </trkpt>
      <trkpt lat="41.800726" lon="22.983773">
        <ele>1208.8</ele>
        <time>2026-05-06T10:09:43.000Z</time>
      </trkpt>
      <trkpt lat="41.800716" lon="22.983787">
        <ele>1208.8</ele>
        <time>2026-05-06T10:09:44.000Z</time>
      </trkpt>
      <trkpt lat="41.800704" lon="22.983799">
        <ele>1208.8</ele>
        <time>2026-05-06T10:09:45.000Z</time>
      </trkpt>
      <trkpt lat="41.800694" lon="22.983809">
        <ele>1208.8</ele>
        <time>2026-05-06T10:09:46.000Z</time>
      </trkpt>
      <trkpt lat="41.800683" lon="22.98382">
        <ele>1209.2</ele>
        <time>2026-05-06T10:09:47.000Z</time>
      </trkpt>
      <trkpt lat="41.800671" lon="22.98383">
        <ele>1209.2</ele>
        <time>2026-05-06T10:09:48.000Z</time>
      </trkpt>
      <trkpt lat="41.800661" lon="22.983839">
        <ele>1209.2</ele>
        <time>2026-05-06T10:09:49.000Z</time>
      </trkpt>
      <trkpt lat="41.800651" lon="22.983848">
        <ele>1209.2</ele>
        <time>2026-05-06T10:09:50.000Z</time>
      </trkpt>
      <trkpt lat="41.800641" lon="22.983857">
        <ele>1209.2</ele>
        <time>2026-05-06T10:09:51.000Z</time>
      </trkpt>
      <trkpt lat="41.800631" lon="22.983866">
        <ele>1209.9</ele>
        <time>2026-05-06T10:09:52.000Z</time>
      </trkpt>
      <trkpt lat="41.800621" lon="22.983874">
        <ele>1209.9</ele>
        <time>2026-05-06T10:09:53.000Z</time>
      </trkpt>
      <trkpt lat="41.800611" lon="22.983883">
        <ele>1209.9</ele>
        <time>2026-05-06T10:09:54.000Z</time>
      </trkpt>
      <trkpt lat="41.8006" lon="22.983892">
        <ele>1209.9</ele>
        <time>2026-05-06T10:09:55.000Z</time>
      </trkpt>
      <trkpt lat="41.800589" lon="22.983901">
        <ele>1209.9</ele>
        <time>2026-05-06T10:09:56.000Z</time>
      </trkpt>
      <trkpt lat="41.800577" lon="22.983911">
        <ele>1210.2</ele>
        <time>2026-05-06T10:09:57.000Z</time>
      </trkpt>
      <trkpt lat="41.800564" lon="22.983923">
        <ele>1210.2</ele>
        <time>2026-05-06T10:09:58.000Z</time>
      </trkpt>
      <trkpt lat="41.800551" lon="22.983934">
        <ele>1210.2</ele>
        <time>2026-05-06T10:09:59.000Z</time>
      </trkpt>
      <trkpt lat="41.800539" lon="22.983945">
        <ele>1210.2</ele>
        <time>2026-05-06T10:10:00.000Z</time>
      </trkpt>
      <trkpt lat="41.800527" lon="22.983956">
        <ele>1210.2</ele>
        <time>2026-05-06T10:10:01.000Z</time>
      </trkpt>
      <trkpt lat="41.800515" lon="22.983967">
        <ele>1210.3</ele>
        <time>2026-05-06T10:10:02.000Z</time>
      </trkpt>
      <trkpt lat="41.800505" lon="22.983978">
        <ele>1210.3</ele>
        <time>2026-05-06T10:10:03.000Z</time>
      </trkpt>
      <trkpt lat="41.800494" lon="22.983989">
        <ele>1210.3</ele>
        <time>2026-05-06T10:10:04.000Z</time>
      </trkpt>
      <trkpt lat="41.800484" lon="22.984002">
        <ele>1210.3</ele>
        <time>2026-05-06T10:10:05.000Z</time>
      </trkpt>
      <trkpt lat="41.800474" lon="22.984015">
        <ele>1210.3</ele>
        <time>2026-05-06T10:10:06.000Z</time>
      </trkpt>
      <trkpt lat="41.800462" lon="22.984029">
        <ele>1210.5</ele>
        <time>2026-05-06T10:10:07.000Z</time>
      </trkpt>
      <trkpt lat="41.80045" lon="22.984042">
        <ele>1210.5</ele>
        <time>2026-05-06T10:10:08.000Z</time>
      </trkpt>
      <trkpt lat="41.800437" lon="22.984055">
        <ele>1210.5</ele>
        <time>2026-05-06T10:10:09.000Z</time>
      </trkpt>
      <trkpt lat="41.800425" lon="22.984068">
        <ele>1210.5</ele>
        <time>2026-05-06T10:10:10.000Z</time>
      </trkpt>
      <trkpt lat="41.800414" lon="22.984079">
        <ele>1210.5</ele>
        <time>2026-05-06T10:10:11.000Z</time>
      </trkpt>
      <trkpt lat="41.800405" lon="22.984091">
        <ele>1211</ele>
        <time>2026-05-06T10:10:12.000Z</time>
      </trkpt>
      <trkpt lat="41.800396" lon="22.984103">
        <ele>1211</ele>
        <time>2026-05-06T10:10:13.000Z</time>
      </trkpt>
      <trkpt lat="41.800387" lon="22.984115">
        <ele>1211</ele>
        <time>2026-05-06T10:10:14.000Z</time>
      </trkpt>
      <trkpt lat="41.800377" lon="22.984128">
        <ele>1211</ele>
        <time>2026-05-06T10:10:15.000Z</time>
      </trkpt>
      <trkpt lat="41.800367" lon="22.98414">
        <ele>1211</ele>
        <time>2026-05-06T10:10:16.000Z</time>
      </trkpt>
      <trkpt lat="41.800357" lon="22.984153">
        <ele>1211.2</ele>
        <time>2026-05-06T10:10:17.000Z</time>
      </trkpt>
      <trkpt lat="41.800348" lon="22.984166">
        <ele>1211.2</ele>
        <time>2026-05-06T10:10:18.000Z</time>
      </trkpt>
      <trkpt lat="41.800338" lon="22.98418">
        <ele>1211.2</ele>
        <time>2026-05-06T10:10:19.000Z</time>
      </trkpt>
      <trkpt lat="41.800329" lon="22.984193">
        <ele>1211.2</ele>
        <time>2026-05-06T10:10:20.000Z</time>
      </trkpt>
      <trkpt lat="41.800321" lon="22.984206">
        <ele>1211.2</ele>
        <time>2026-05-06T10:10:21.000Z</time>
      </trkpt>
      <trkpt lat="41.800312" lon="22.984219">
        <ele>1212</ele>
        <time>2026-05-06T10:10:22.000Z</time>
      </trkpt>
      <trkpt lat="41.800303" lon="22.984232">
        <ele>1212</ele>
        <time>2026-05-06T10:10:23.000Z</time>
      </trkpt>
      <trkpt lat="41.800294" lon="22.984245">
        <ele>1212</ele>
        <time>2026-05-06T10:10:24.000Z</time>
      </trkpt>
      <trkpt lat="41.800285" lon="22.984258">
        <ele>1212</ele>
        <time>2026-05-06T10:10:25.000Z</time>
      </trkpt>
      <trkpt lat="41.800276" lon="22.984272">
        <ele>1212</ele>
        <time>2026-05-06T10:10:26.000Z</time>
      </trkpt>
      <trkpt lat="41.800267" lon="22.984287">
        <ele>1213</ele>
        <time>2026-05-06T10:10:27.000Z</time>
      </trkpt>
      <trkpt lat="41.800258" lon="22.9843">
        <ele>1213</ele>
        <time>2026-05-06T10:10:28.000Z</time>
      </trkpt>
      <trkpt lat="41.800251" lon="22.984312">
        <ele>1213</ele>
        <time>2026-05-06T10:10:29.000Z</time>
      </trkpt>
      <trkpt lat="41.800242" lon="22.984325">
        <ele>1213</ele>
        <time>2026-05-06T10:10:30.000Z</time>
      </trkpt>
      <trkpt lat="41.800233" lon="22.984338">
        <ele>1213</ele>
        <time>2026-05-06T10:10:31.000Z</time>
      </trkpt>
      <trkpt lat="41.800224" lon="22.98435">
        <ele>1213.5</ele>
        <time>2026-05-06T10:10:32.000Z</time>
      </trkpt>
      <trkpt lat="41.800214" lon="22.984363">
        <ele>1213.5</ele>
        <time>2026-05-06T10:10:33.000Z</time>
      </trkpt>
      <trkpt lat="41.800203" lon="22.984375">
        <ele>1213.5</ele>
        <time>2026-05-06T10:10:34.000Z</time>
      </trkpt>
      <trkpt lat="41.800192" lon="22.984386">
        <ele>1213.5</ele>
        <time>2026-05-06T10:10:35.000Z</time>
      </trkpt>
      <trkpt lat="41.800182" lon="22.984394">
        <ele>1213.5</ele>
        <time>2026-05-06T10:10:36.000Z</time>
      </trkpt>
      <trkpt lat="41.800172" lon="22.984402">
        <ele>1214.6</ele>
        <time>2026-05-06T10:10:37.000Z</time>
      </trkpt>
      <trkpt lat="41.800162" lon="22.984409">
        <ele>1214.6</ele>
        <time>2026-05-06T10:10:38.000Z</time>
      </trkpt>
      <trkpt lat="41.800151" lon="22.984415">
        <ele>1214.6</ele>
        <time>2026-05-06T10:10:39.000Z</time>
      </trkpt>
      <trkpt lat="41.800139" lon="22.984422">
        <ele>1214.6</ele>
        <time>2026-05-06T10:10:40.000Z</time>
      </trkpt>
      <trkpt lat="41.800127" lon="22.984429">
        <ele>1214.6</ele>
        <time>2026-05-06T10:10:41.000Z</time>
      </trkpt>
      <trkpt lat="41.800114" lon="22.984435">
        <ele>1215.6</ele>
        <time>2026-05-06T10:10:42.000Z</time>
      </trkpt>
      <trkpt lat="41.800102" lon="22.98444">
        <ele>1215.6</ele>
        <time>2026-05-06T10:10:43.000Z</time>
      </trkpt>
      <trkpt lat="41.800091" lon="22.984444">
        <ele>1215.6</ele>
        <time>2026-05-06T10:10:44.000Z</time>
      </trkpt>
      <trkpt lat="41.800082" lon="22.984447">
        <ele>1215.6</ele>
        <time>2026-05-06T10:10:45.000Z</time>
      </trkpt>
      <trkpt lat="41.800075" lon="22.984449">
        <ele>1215.6</ele>
        <time>2026-05-06T10:10:46.000Z</time>
      </trkpt>
      <trkpt lat="41.800068" lon="22.98445">
        <ele>1215.9</ele>
        <time>2026-05-06T10:10:47.000Z</time>
      </trkpt>
      <trkpt lat="41.800062" lon="22.984452">
        <ele>1215.9</ele>
        <time>2026-05-06T10:10:48.000Z</time>
      </trkpt>
      <trkpt lat="41.800054" lon="22.984455">
        <ele>1215.9</ele>
        <time>2026-05-06T10:10:49.000Z</time>
      </trkpt>
      <trkpt lat="41.800044" lon="22.98446">
        <ele>1215.9</ele>
        <time>2026-05-06T10:10:50.000Z</time>
      </trkpt>
      <trkpt lat="41.800033" lon="22.984467">
        <ele>1215.9</ele>
        <time>2026-05-06T10:10:51.000Z</time>
      </trkpt>
      <trkpt lat="41.80002" lon="22.984475">
        <ele>1216.3</ele>
        <time>2026-05-06T10:10:52.000Z</time>
      </trkpt>
      <trkpt lat="41.800008" lon="22.984483">
        <ele>1216.3</ele>
        <time>2026-05-06T10:10:53.000Z</time>
      </trkpt>
      <trkpt lat="41.799998" lon="22.984488">
        <ele>1216.3</ele>
        <time>2026-05-06T10:10:54.000Z</time>
      </trkpt>
      <trkpt lat="41.79999" lon="22.984491">
        <ele>1216.3</ele>
        <time>2026-05-06T10:10:55.000Z</time>
      </trkpt>
      <trkpt lat="41.799985" lon="22.984492">
        <ele>1216.3</ele>
        <time>2026-05-06T10:10:56.000Z</time>
      </trkpt>
      <trkpt lat="41.799982" lon="22.984493">
        <ele>1216.5</ele>
        <time>2026-05-06T10:10:57.000Z</time>
      </trkpt>
      <trkpt lat="41.799981" lon="22.984494">
        <ele>1216.5</ele>
        <time>2026-05-06T10:10:58.000Z</time>
      </trkpt>
      <trkpt lat="41.799982" lon="22.984496">
        <ele>1216.5</ele>
        <time>2026-05-06T10:10:59.000Z</time>
      </trkpt>
      <trkpt lat="41.799982" lon="22.9845">
        <ele>1216.5</ele>
        <time>2026-05-06T10:11:00.000Z</time>
      </trkpt>
      <trkpt lat="41.799981" lon="22.984504">
        <ele>1216.5</ele>
        <time>2026-05-06T10:11:01.000Z</time>
      </trkpt>
      <trkpt lat="41.799979" lon="22.984509">
        <ele>1216.7</ele>
        <time>2026-05-06T10:11:02.000Z</time>
      </trkpt>
      <trkpt lat="41.799977" lon="22.984515">
        <ele>1216.7</ele>
        <time>2026-05-06T10:11:03.000Z</time>
      </trkpt>
      <trkpt lat="41.799973" lon="22.984521">
        <ele>1216.7</ele>
        <time>2026-05-06T10:11:04.000Z</time>
      </trkpt>
      <trkpt lat="41.799967" lon="22.984526">
        <ele>1216.7</ele>
        <time>2026-05-06T10:11:05.000Z</time>
      </trkpt>
      <trkpt lat="41.799959" lon="22.984532">
        <ele>1216.7</ele>
        <time>2026-05-06T10:11:06.000Z</time>
      </trkpt>
      <trkpt lat="41.799949" lon="22.984538">
        <ele>1217</ele>
        <time>2026-05-06T10:11:07.000Z</time>
      </trkpt>
      <trkpt lat="41.799938" lon="22.984543">
        <ele>1217</ele>
        <time>2026-05-06T10:11:08.000Z</time>
      </trkpt>
      <trkpt lat="41.799925" lon="22.984548">
        <ele>1217</ele>
        <time>2026-05-06T10:11:09.000Z</time>
      </trkpt>
      <trkpt lat="41.799909" lon="22.984554">
        <ele>1217</ele>
        <time>2026-05-06T10:11:10.000Z</time>
      </trkpt>
      <trkpt lat="41.799894" lon="22.98456">
        <ele>1217</ele>
        <time>2026-05-06T10:11:11.000Z</time>
      </trkpt>
      <trkpt lat="41.799879" lon="22.984567">
        <ele>1217.2</ele>
        <time>2026-05-06T10:11:12.000Z</time>
      </trkpt>
      <trkpt lat="41.799864" lon="22.984573">
        <ele>1217.2</ele>
        <time>2026-05-06T10:11:13.000Z</time>
      </trkpt>
      <trkpt lat="41.799849" lon="22.984579">
        <ele>1217.2</ele>
        <time>2026-05-06T10:11:14.000Z</time>
      </trkpt>
      <trkpt lat="41.799836" lon="22.984584">
        <ele>1217.2</ele>
        <time>2026-05-06T10:11:15.000Z</time>
      </trkpt>
      <trkpt lat="41.799823" lon="22.984588">
        <ele>1217.2</ele>
        <time>2026-05-06T10:11:16.000Z</time>
      </trkpt>
      <trkpt lat="41.799811" lon="22.984592">
        <ele>1217.3</ele>
        <time>2026-05-06T10:11:17.000Z</time>
      </trkpt>
      <trkpt lat="41.799798" lon="22.984597">
        <ele>1217.3</ele>
        <time>2026-05-06T10:11:18.000Z</time>
      </trkpt>
      <trkpt lat="41.799784" lon="22.984602">
        <ele>1217.3</ele>
        <time>2026-05-06T10:11:19.000Z</time>
      </trkpt>
      <trkpt lat="41.799771" lon="22.984608">
        <ele>1217.3</ele>
        <time>2026-05-06T10:11:20.000Z</time>
      </trkpt>
      <trkpt lat="41.799757" lon="22.984615">
        <ele>1217.3</ele>
        <time>2026-05-06T10:11:21.000Z</time>
      </trkpt>
      <trkpt lat="41.799744" lon="22.984623">
        <ele>1217.8</ele>
        <time>2026-05-06T10:11:22.000Z</time>
      </trkpt>
      <trkpt lat="41.799731" lon="22.98463">
        <ele>1217.8</ele>
        <time>2026-05-06T10:11:23.000Z</time>
      </trkpt>
      <trkpt lat="41.799719" lon="22.984639">
        <ele>1217.8</ele>
        <time>2026-05-06T10:11:24.000Z</time>
      </trkpt>
      <trkpt lat="41.799707" lon="22.984647">
        <ele>1217.8</ele>
        <time>2026-05-06T10:11:25.000Z</time>
      </trkpt>
      <trkpt lat="41.799695" lon="22.984655">
        <ele>1217.8</ele>
        <time>2026-05-06T10:11:26.000Z</time>
      </trkpt>
      <trkpt lat="41.799684" lon="22.984662">
        <ele>1218.5</ele>
        <time>2026-05-06T10:11:27.000Z</time>
      </trkpt>
      <trkpt lat="41.799672" lon="22.98467">
        <ele>1218.5</ele>
        <time>2026-05-06T10:11:28.000Z</time>
      </trkpt>
      <trkpt lat="41.79966" lon="22.984679">
        <ele>1218.5</ele>
        <time>2026-05-06T10:11:29.000Z</time>
      </trkpt>
      <trkpt lat="41.799647" lon="22.984688">
        <ele>1218.5</ele>
        <time>2026-05-06T10:11:30.000Z</time>
      </trkpt>
      <trkpt lat="41.799634" lon="22.984697">
        <ele>1218.5</ele>
        <time>2026-05-06T10:11:31.000Z</time>
      </trkpt>
      <trkpt lat="41.799621" lon="22.984706">
        <ele>1218.9</ele>
        <time>2026-05-06T10:11:32.000Z</time>
      </trkpt>
      <trkpt lat="41.799608" lon="22.984716">
        <ele>1218.9</ele>
        <time>2026-05-06T10:11:33.000Z</time>
      </trkpt>
      <trkpt lat="41.799595" lon="22.984724">
        <ele>1218.9</ele>
        <time>2026-05-06T10:11:34.000Z</time>
      </trkpt>
      <trkpt lat="41.799583" lon="22.984731">
        <ele>1218.9</ele>
        <time>2026-05-06T10:11:35.000Z</time>
      </trkpt>
      <trkpt lat="41.799571" lon="22.984739">
        <ele>1218.9</ele>
        <time>2026-05-06T10:11:36.000Z</time>
      </trkpt>
      <trkpt lat="41.799561" lon="22.984746">
        <ele>1219.5</ele>
        <time>2026-05-06T10:11:37.000Z</time>
      </trkpt>
      <trkpt lat="41.79955" lon="22.984754">
        <ele>1219.5</ele>
        <time>2026-05-06T10:11:38.000Z</time>
      </trkpt>
      <trkpt lat="41.799539" lon="22.984761">
        <ele>1219.5</ele>
        <time>2026-05-06T10:11:39.000Z</time>
      </trkpt>
      <trkpt lat="41.799528" lon="22.984769">
        <ele>1219.5</ele>
        <time>2026-05-06T10:11:40.000Z</time>
      </trkpt>
      <trkpt lat="41.799518" lon="22.984776">
        <ele>1219.5</ele>
        <time>2026-05-06T10:11:41.000Z</time>
      </trkpt>
      <trkpt lat="41.799506" lon="22.984783">
        <ele>1220.1</ele>
        <time>2026-05-06T10:11:42.000Z</time>
      </trkpt>
      <trkpt lat="41.799495" lon="22.984791">
        <ele>1220.1</ele>
        <time>2026-05-06T10:11:43.000Z</time>
      </trkpt>
      <trkpt lat="41.799485" lon="22.984799">
        <ele>1220.1</ele>
        <time>2026-05-06T10:11:44.000Z</time>
      </trkpt>
      <trkpt lat="41.799474" lon="22.984808">
        <ele>1220.1</ele>
        <time>2026-05-06T10:11:45.000Z</time>
      </trkpt>
      <trkpt lat="41.799463" lon="22.984817">
        <ele>1220.1</ele>
        <time>2026-05-06T10:11:46.000Z</time>
      </trkpt>
      <trkpt lat="41.799452" lon="22.984825">
        <ele>1220.3</ele>
        <time>2026-05-06T10:11:47.000Z</time>
      </trkpt>
      <trkpt lat="41.79944" lon="22.984834">
        <ele>1220.3</ele>
        <time>2026-05-06T10:11:48.000Z</time>
      </trkpt>
      <trkpt lat="41.799428" lon="22.984844">
        <ele>1220.3</ele>
        <time>2026-05-06T10:11:49.000Z</time>
      </trkpt>
      <trkpt lat="41.799415" lon="22.984854">
        <ele>1220.3</ele>
        <time>2026-05-06T10:11:50.000Z</time>
      </trkpt>
      <trkpt lat="41.799403" lon="22.984866">
        <ele>1220.3</ele>
        <time>2026-05-06T10:11:51.000Z</time>
      </trkpt>
      <trkpt lat="41.79939" lon="22.984878">
        <ele>1221</ele>
        <time>2026-05-06T10:11:52.000Z</time>
      </trkpt>
      <trkpt lat="41.799377" lon="22.984891">
        <ele>1221</ele>
        <time>2026-05-06T10:11:53.000Z</time>
      </trkpt>
      <trkpt lat="41.799365" lon="22.984902">
        <ele>1221</ele>
        <time>2026-05-06T10:11:54.000Z</time>
      </trkpt>
      <trkpt lat="41.799353" lon="22.984913">
        <ele>1221</ele>
        <time>2026-05-06T10:11:55.000Z</time>
      </trkpt>
      <trkpt lat="41.79934" lon="22.984925">
        <ele>1221</ele>
        <time>2026-05-06T10:11:56.000Z</time>
      </trkpt>
      <trkpt lat="41.799329" lon="22.984937">
        <ele>1221.8</ele>
        <time>2026-05-06T10:11:57.000Z</time>
      </trkpt>
      <trkpt lat="41.799317" lon="22.984948">
        <ele>1221.8</ele>
        <time>2026-05-06T10:11:58.000Z</time>
      </trkpt>
      <trkpt lat="41.799306" lon="22.984959">
        <ele>1221.8</ele>
        <time>2026-05-06T10:11:59.000Z</time>
      </trkpt>
      <trkpt lat="41.799293" lon="22.98497">
        <ele>1221.8</ele>
        <time>2026-05-06T10:12:00.000Z</time>
      </trkpt>
      <trkpt lat="41.79928" lon="22.984979">
        <ele>1221.8</ele>
        <time>2026-05-06T10:12:01.000Z</time>
      </trkpt>
      <trkpt lat="41.799267" lon="22.984989">
        <ele>1222.3</ele>
        <time>2026-05-06T10:12:02.000Z</time>
      </trkpt>
      <trkpt lat="41.799254" lon="22.984999">
        <ele>1222.3</ele>
        <time>2026-05-06T10:12:03.000Z</time>
      </trkpt>
      <trkpt lat="41.799242" lon="22.985007">
        <ele>1222.3</ele>
        <time>2026-05-06T10:12:04.000Z</time>
      </trkpt>
      <trkpt lat="41.799231" lon="22.985015">
        <ele>1222.3</ele>
        <time>2026-05-06T10:12:05.000Z</time>
      </trkpt>
      <trkpt lat="41.79922" lon="22.985023">
        <ele>1222.3</ele>
        <time>2026-05-06T10:12:06.000Z</time>
      </trkpt>
      <trkpt lat="41.799208" lon="22.98503">
        <ele>1223.2</ele>
        <time>2026-05-06T10:12:07.000Z</time>
      </trkpt>
      <trkpt lat="41.799197" lon="22.985037">
        <ele>1223.2</ele>
        <time>2026-05-06T10:12:08.000Z</time>
      </trkpt>
      <trkpt lat="41.799185" lon="22.985044">
        <ele>1223.2</ele>
        <time>2026-05-06T10:12:09.000Z</time>
      </trkpt>
      <trkpt lat="41.799173" lon="22.985053">
        <ele>1223.2</ele>
        <time>2026-05-06T10:12:10.000Z</time>
      </trkpt>
      <trkpt lat="41.79916" lon="22.985061">
        <ele>1223.2</ele>
        <time>2026-05-06T10:12:11.000Z</time>
      </trkpt>
      <trkpt lat="41.799146" lon="22.985069">
        <ele>1224</ele>
        <time>2026-05-06T10:12:12.000Z</time>
      </trkpt>
      <trkpt lat="41.799134" lon="22.985079">
        <ele>1224</ele>
        <time>2026-05-06T10:12:13.000Z</time>
      </trkpt>
      <trkpt lat="41.79912" lon="22.98509">
        <ele>1224</ele>
        <time>2026-05-06T10:12:14.000Z</time>
      </trkpt>
      <trkpt lat="41.799106" lon="22.985101">
        <ele>1224</ele>
        <time>2026-05-06T10:12:15.000Z</time>
      </trkpt>
      <trkpt lat="41.799093" lon="22.985113">
        <ele>1224</ele>
        <time>2026-05-06T10:12:16.000Z</time>
      </trkpt>
      <trkpt lat="41.79908" lon="22.985124">
        <ele>1224.5</ele>
        <time>2026-05-06T10:12:17.000Z</time>
      </trkpt>
      <trkpt lat="41.799067" lon="22.985134">
        <ele>1224.5</ele>
        <time>2026-05-06T10:12:18.000Z</time>
      </trkpt>
      <trkpt lat="41.799054" lon="22.985144">
        <ele>1224.5</ele>
        <time>2026-05-06T10:12:19.000Z</time>
      </trkpt>
      <trkpt lat="41.799042" lon="22.985154">
        <ele>1224.5</ele>
        <time>2026-05-06T10:12:20.000Z</time>
      </trkpt>
      <trkpt lat="41.799029" lon="22.985164">
        <ele>1224.5</ele>
        <time>2026-05-06T10:12:21.000Z</time>
      </trkpt>
      <trkpt lat="41.799016" lon="22.985176">
        <ele>1225.4</ele>
        <time>2026-05-06T10:12:22.000Z</time>
      </trkpt>
      <trkpt lat="41.799002" lon="22.985187">
        <ele>1225.4</ele>
        <time>2026-05-06T10:12:23.000Z</time>
      </trkpt>
      <trkpt lat="41.798989" lon="22.985198">
        <ele>1225.4</ele>
        <time>2026-05-06T10:12:24.000Z</time>
      </trkpt>
      <trkpt lat="41.798976" lon="22.985209">
        <ele>1225.4</ele>
        <time>2026-05-06T10:12:25.000Z</time>
      </trkpt>
      <trkpt lat="41.798964" lon="22.985221">
        <ele>1225.4</ele>
        <time>2026-05-06T10:12:26.000Z</time>
      </trkpt>
      <trkpt lat="41.798952" lon="22.985232">
        <ele>1226.2</ele>
        <time>2026-05-06T10:12:27.000Z</time>
      </trkpt>
      <trkpt lat="41.79894" lon="22.985244">
        <ele>1226.2</ele>
        <time>2026-05-06T10:12:28.000Z</time>
      </trkpt>
      <trkpt lat="41.798929" lon="22.985254">
        <ele>1226.2</ele>
        <time>2026-05-06T10:12:29.000Z</time>
      </trkpt>
      <trkpt lat="41.798917" lon="22.985265">
        <ele>1226.2</ele>
        <time>2026-05-06T10:12:30.000Z</time>
      </trkpt>
      <trkpt lat="41.798907" lon="22.985276">
        <ele>1226.2</ele>
        <time>2026-05-06T10:12:31.000Z</time>
      </trkpt>
      <trkpt lat="41.798896" lon="22.985287">
        <ele>1226.6</ele>
        <time>2026-05-06T10:12:32.000Z</time>
      </trkpt>
      <trkpt lat="41.798886" lon="22.985298">
        <ele>1226.6</ele>
        <time>2026-05-06T10:12:33.000Z</time>
      </trkpt>
      <trkpt lat="41.798876" lon="22.985311">
        <ele>1226.6</ele>
        <time>2026-05-06T10:12:34.000Z</time>
      </trkpt>
      <trkpt lat="41.798866" lon="22.985323">
        <ele>1226.6</ele>
        <time>2026-05-06T10:12:35.000Z</time>
      </trkpt>
      <trkpt lat="41.798856" lon="22.985335">
        <ele>1226.6</ele>
        <time>2026-05-06T10:12:36.000Z</time>
      </trkpt>
      <trkpt lat="41.798847" lon="22.985347">
        <ele>1227.5</ele>
        <time>2026-05-06T10:12:37.000Z</time>
      </trkpt>
      <trkpt lat="41.798838" lon="22.985359">
        <ele>1227.5</ele>
        <time>2026-05-06T10:12:38.000Z</time>
      </trkpt>
      <trkpt lat="41.798831" lon="22.985369">
        <ele>1227.5</ele>
        <time>2026-05-06T10:12:39.000Z</time>
      </trkpt>
      <trkpt lat="41.798822" lon="22.98538">
        <ele>1227.5</ele>
        <time>2026-05-06T10:12:40.000Z</time>
      </trkpt>
      <trkpt lat="41.798812" lon="22.985392">
        <ele>1227.5</ele>
        <time>2026-05-06T10:12:41.000Z</time>
      </trkpt>
      <trkpt lat="41.798802" lon="22.985404">
        <ele>1228.4</ele>
        <time>2026-05-06T10:12:42.000Z</time>
      </trkpt>
      <trkpt lat="41.798792" lon="22.985415">
        <ele>1228.4</ele>
        <time>2026-05-06T10:12:43.000Z</time>
      </trkpt>
      <trkpt lat="41.798781" lon="22.985424">
        <ele>1228.4</ele>
        <time>2026-05-06T10:12:44.000Z</time>
      </trkpt>
      <trkpt lat="41.798773" lon="22.985431">
        <ele>1228.4</ele>
        <time>2026-05-06T10:12:45.000Z</time>
      </trkpt>
      <trkpt lat="41.798768" lon="22.985436">
        <ele>1228.4</ele>
        <time>2026-05-06T10:12:46.000Z</time>
      </trkpt>
      <trkpt lat="41.798764" lon="22.98544">
        <ele>1228.7</ele>
        <time>2026-05-06T10:12:47.000Z</time>
      </trkpt>
      <trkpt lat="41.79876" lon="22.985444">
        <ele>1228.7</ele>
        <time>2026-05-06T10:12:48.000Z</time>
      </trkpt>
      <trkpt lat="41.798757" lon="22.98545">
        <ele>1228.7</ele>
        <time>2026-05-06T10:12:49.000Z</time>
      </trkpt>
      <trkpt lat="41.798752" lon="22.985458">
        <ele>1228.7</ele>
        <time>2026-05-06T10:12:50.000Z</time>
      </trkpt>
      <trkpt lat="41.798746" lon="22.985469">
        <ele>1228.7</ele>
        <time>2026-05-06T10:12:51.000Z</time>
      </trkpt>
      <trkpt lat="41.798738" lon="22.985481">
        <ele>1229.3</ele>
        <time>2026-05-06T10:12:52.000Z</time>
      </trkpt>
      <trkpt lat="41.79873" lon="22.985493">
        <ele>1229.3</ele>
        <time>2026-05-06T10:12:53.000Z</time>
      </trkpt>
      <trkpt lat="41.79872" lon="22.985507">
        <ele>1229.3</ele>
        <time>2026-05-06T10:12:54.000Z</time>
      </trkpt>
      <trkpt lat="41.79871" lon="22.985521">
        <ele>1229.3</ele>
        <time>2026-05-06T10:12:55.000Z</time>
      </trkpt>
      <trkpt lat="41.7987" lon="22.985534">
        <ele>1229.3</ele>
        <time>2026-05-06T10:12:56.000Z</time>
      </trkpt>
      <trkpt lat="41.79869" lon="22.985546">
        <ele>1229.7</ele>
        <time>2026-05-06T10:12:57.000Z</time>
      </trkpt>
      <trkpt lat="41.79868" lon="22.985559">
        <ele>1229.7</ele>
        <time>2026-05-06T10:12:58.000Z</time>
      </trkpt>
      <trkpt lat="41.79867" lon="22.985571">
        <ele>1229.7</ele>
        <time>2026-05-06T10:12:59.000Z</time>
      </trkpt>
      <trkpt lat="41.79866" lon="22.985585">
        <ele>1229.7</ele>
        <time>2026-05-06T10:13:00.000Z</time>
      </trkpt>
      <trkpt lat="41.798649" lon="22.985598">
        <ele>1229.7</ele>
        <time>2026-05-06T10:13:01.000Z</time>
      </trkpt>
      <trkpt lat="41.798638" lon="22.985612">
        <ele>1230</ele>
        <time>2026-05-06T10:13:02.000Z</time>
      </trkpt>
      <trkpt lat="41.798627" lon="22.985626">
        <ele>1230</ele>
        <time>2026-05-06T10:13:03.000Z</time>
      </trkpt>
      <trkpt lat="41.798617" lon="22.98564">
        <ele>1230</ele>
        <time>2026-05-06T10:13:04.000Z</time>
      </trkpt>
      <trkpt lat="41.798608" lon="22.985654">
        <ele>1230</ele>
        <time>2026-05-06T10:13:05.000Z</time>
      </trkpt>
      <trkpt lat="41.798598" lon="22.985668">
        <ele>1230</ele>
        <time>2026-05-06T10:13:06.000Z</time>
      </trkpt>
      <trkpt lat="41.798588" lon="22.985682">
        <ele>1230.7</ele>
        <time>2026-05-06T10:13:07.000Z</time>
      </trkpt>
      <trkpt lat="41.798578" lon="22.985696">
        <ele>1230.7</ele>
        <time>2026-05-06T10:13:08.000Z</time>
      </trkpt>
      <trkpt lat="41.798567" lon="22.985711">
        <ele>1230.7</ele>
        <time>2026-05-06T10:13:09.000Z</time>
      </trkpt>
      <trkpt lat="41.798558" lon="22.985724">
        <ele>1230.7</ele>
        <time>2026-05-06T10:13:10.000Z</time>
      </trkpt>
      <trkpt lat="41.798548" lon="22.985738">
        <ele>1230.7</ele>
        <time>2026-05-06T10:13:11.000Z</time>
      </trkpt>
      <trkpt lat="41.798538" lon="22.985751">
        <ele>1231.4</ele>
        <time>2026-05-06T10:13:12.000Z</time>
      </trkpt>
      <trkpt lat="41.798527" lon="22.985764">
        <ele>1231.4</ele>
        <time>2026-05-06T10:13:13.000Z</time>
      </trkpt>
      <trkpt lat="41.798516" lon="22.985777">
        <ele>1231.4</ele>
        <time>2026-05-06T10:13:14.000Z</time>
      </trkpt>
      <trkpt lat="41.798506" lon="22.985791">
        <ele>1231.4</ele>
        <time>2026-05-06T10:13:15.000Z</time>
      </trkpt>
      <trkpt lat="41.798495" lon="22.985805">
        <ele>1231.4</ele>
        <time>2026-05-06T10:13:16.000Z</time>
      </trkpt>
      <trkpt lat="41.798485" lon="22.98582">
        <ele>1231.8</ele>
        <time>2026-05-06T10:13:17.000Z</time>
      </trkpt>
      <trkpt lat="41.798476" lon="22.985837">
        <ele>1231.8</ele>
        <time>2026-05-06T10:13:18.000Z</time>
      </trkpt>
      <trkpt lat="41.798469" lon="22.985855">
        <ele>1231.8</ele>
        <time>2026-05-06T10:13:19.000Z</time>
      </trkpt>
      <trkpt lat="41.798462" lon="22.985873">
        <ele>1231.8</ele>
        <time>2026-05-06T10:13:20.000Z</time>
      </trkpt>
      <trkpt lat="41.798457" lon="22.985892">
        <ele>1231.8</ele>
        <time>2026-05-06T10:13:21.000Z</time>
      </trkpt>
      <trkpt lat="41.798452" lon="22.985911">
        <ele>1232.4</ele>
        <time>2026-05-06T10:13:22.000Z</time>
      </trkpt>
      <trkpt lat="41.798448" lon="22.985929">
        <ele>1232.4</ele>
        <time>2026-05-06T10:13:23.000Z</time>
      </trkpt>
      <trkpt lat="41.798443" lon="22.985947">
        <ele>1232.4</ele>
        <time>2026-05-06T10:13:24.000Z</time>
      </trkpt>
      <trkpt lat="41.798439" lon="22.985964">
        <ele>1232.4</ele>
        <time>2026-05-06T10:13:25.000Z</time>
      </trkpt>
      <trkpt lat="41.798435" lon="22.985981">
        <ele>1232.4</ele>
        <time>2026-05-06T10:13:26.000Z</time>
      </trkpt>
      <trkpt lat="41.79843" lon="22.985998">
        <ele>1233.2</ele>
        <time>2026-05-06T10:13:27.000Z</time>
      </trkpt>
      <trkpt lat="41.798424" lon="22.986015">
        <ele>1233.2</ele>
        <time>2026-05-06T10:13:28.000Z</time>
      </trkpt>
      <trkpt lat="41.798417" lon="22.986032">
        <ele>1233.2</ele>
        <time>2026-05-06T10:13:29.000Z</time>
      </trkpt>
      <trkpt lat="41.79841" lon="22.986048">
        <ele>1233.2</ele>
        <time>2026-05-06T10:13:30.000Z</time>
      </trkpt>
      <trkpt lat="41.798401" lon="22.986064">
        <ele>1233.2</ele>
        <time>2026-05-06T10:13:31.000Z</time>
      </trkpt>
      <trkpt lat="41.798393" lon="22.986082">
        <ele>1233.5</ele>
        <time>2026-05-06T10:13:32.000Z</time>
      </trkpt>
      <trkpt lat="41.798384" lon="22.986099">
        <ele>1233.5</ele>
        <time>2026-05-06T10:13:33.000Z</time>
      </trkpt>
      <trkpt lat="41.798375" lon="22.986117">
        <ele>1233.5</ele>
        <time>2026-05-06T10:13:34.000Z</time>
      </trkpt>
      <trkpt lat="41.798367" lon="22.986134">
        <ele>1233.5</ele>
        <time>2026-05-06T10:13:35.000Z</time>
      </trkpt>
      <trkpt lat="41.798358" lon="22.98615">
        <ele>1233.5</ele>
        <time>2026-05-06T10:13:36.000Z</time>
      </trkpt>
      <trkpt lat="41.79835" lon="22.986166">
        <ele>1233.5</ele>
        <time>2026-05-06T10:13:37.000Z</time>
      </trkpt>
      <trkpt lat="41.798342" lon="22.986181">
        <ele>1234</ele>
        <time>2026-05-06T10:13:38.000Z</time>
      </trkpt>
      <trkpt lat="41.798333" lon="22.986194">
        <ele>1234</ele>
        <time>2026-05-06T10:13:39.000Z</time>
      </trkpt>
      <trkpt lat="41.798324" lon="22.986207">
        <ele>1234</ele>
        <time>2026-05-06T10:13:40.000Z</time>
      </trkpt>
      <trkpt lat="41.798315" lon="22.986221">
        <ele>1234</ele>
        <time>2026-05-06T10:13:41.000Z</time>
      </trkpt>
      <trkpt lat="41.798305" lon="22.986235">
        <ele>1234</ele>
        <time>2026-05-06T10:13:42.000Z</time>
      </trkpt>
      <trkpt lat="41.798295" lon="22.986251">
        <ele>1234.5</ele>
        <time>2026-05-06T10:13:43.000Z</time>
      </trkpt>
      <trkpt lat="41.798286" lon="22.986266">
        <ele>1234.5</ele>
        <time>2026-05-06T10:13:44.000Z</time>
      </trkpt>
      <trkpt lat="41.798276" lon="22.986281">
        <ele>1234.5</ele>
        <time>2026-05-06T10:13:45.000Z</time>
      </trkpt>
      <trkpt lat="41.798266" lon="22.986294">
        <ele>1234.5</ele>
        <time>2026-05-06T10:13:46.000Z</time>
      </trkpt>
      <trkpt lat="41.798257" lon="22.986307">
        <ele>1234.5</ele>
        <time>2026-05-06T10:13:47.000Z</time>
      </trkpt>
      <trkpt lat="41.798248" lon="22.986319">
        <ele>1234.8</ele>
        <time>2026-05-06T10:13:48.000Z</time>
      </trkpt>
      <trkpt lat="41.798238" lon="22.986331">
        <ele>1234.8</ele>
        <time>2026-05-06T10:13:49.000Z</time>
      </trkpt>
      <trkpt lat="41.798227" lon="22.986342">
        <ele>1234.8</ele>
        <time>2026-05-06T10:13:50.000Z</time>
      </trkpt>
      <trkpt lat="41.798215" lon="22.986353">
        <ele>1234.8</ele>
        <time>2026-05-06T10:13:51.000Z</time>
      </trkpt>
      <trkpt lat="41.798202" lon="22.986364">
        <ele>1234.8</ele>
        <time>2026-05-06T10:13:52.000Z</time>
      </trkpt>
      <trkpt lat="41.79819" lon="22.986374">
        <ele>1235.5</ele>
        <time>2026-05-06T10:13:53.000Z</time>
      </trkpt>
      <trkpt lat="41.798177" lon="22.986385">
        <ele>1235.5</ele>
        <time>2026-05-06T10:13:54.000Z</time>
      </trkpt>
      <trkpt lat="41.798164" lon="22.986397">
        <ele>1235.5</ele>
        <time>2026-05-06T10:13:55.000Z</time>
      </trkpt>
      <trkpt lat="41.798152" lon="22.986408">
        <ele>1235.5</ele>
        <time>2026-05-06T10:13:56.000Z</time>
      </trkpt>
      <trkpt lat="41.798139" lon="22.986418">
        <ele>1235.5</ele>
        <time>2026-05-06T10:13:57.000Z</time>
      </trkpt>
      <trkpt lat="41.798126" lon="22.986426">
        <ele>1236.2</ele>
        <time>2026-05-06T10:13:58.000Z</time>
      </trkpt>
      <trkpt lat="41.798113" lon="22.986434">
        <ele>1236.2</ele>
        <time>2026-05-06T10:13:59.000Z</time>
      </trkpt>
      <trkpt lat="41.798099" lon="22.98644">
        <ele>1236.2</ele>
        <time>2026-05-06T10:14:00.000Z</time>
      </trkpt>
      <trkpt lat="41.798085" lon="22.986448">
        <ele>1236.2</ele>
        <time>2026-05-06T10:14:01.000Z</time>
      </trkpt>
      <trkpt lat="41.798072" lon="22.986456">
        <ele>1236.2</ele>
        <time>2026-05-06T10:14:02.000Z</time>
      </trkpt>
      <trkpt lat="41.798058" lon="22.986465">
        <ele>1236.5</ele>
        <time>2026-05-06T10:14:03.000Z</time>
      </trkpt>
      <trkpt lat="41.798045" lon="22.986474">
        <ele>1236.5</ele>
        <time>2026-05-06T10:14:04.000Z</time>
      </trkpt>
      <trkpt lat="41.798031" lon="22.986484">
        <ele>1236.5</ele>
        <time>2026-05-06T10:14:05.000Z</time>
      </trkpt>
      <trkpt lat="41.798017" lon="22.986493">
        <ele>1236.5</ele>
        <time>2026-05-06T10:14:06.000Z</time>
      </trkpt>
      <trkpt lat="41.798004" lon="22.986502">
        <ele>1236.5</ele>
        <time>2026-05-06T10:14:07.000Z</time>
      </trkpt>
      <trkpt lat="41.79799" lon="22.98651">
        <ele>1236.8</ele>
        <time>2026-05-06T10:14:08.000Z</time>
      </trkpt>
      <trkpt lat="41.797976" lon="22.986517">
        <ele>1236.8</ele>
        <time>2026-05-06T10:14:09.000Z</time>
      </trkpt>
      <trkpt lat="41.797962" lon="22.986524">
        <ele>1236.8</ele>
        <time>2026-05-06T10:14:10.000Z</time>
      </trkpt>
      <trkpt lat="41.797948" lon="22.986531">
        <ele>1236.8</ele>
        <time>2026-05-06T10:14:11.000Z</time>
      </trkpt>
      <trkpt lat="41.797933" lon="22.986538">
        <ele>1236.8</ele>
        <time>2026-05-06T10:14:12.000Z</time>
      </trkpt>
      <trkpt lat="41.797919" lon="22.986545">
        <ele>1237</ele>
        <time>2026-05-06T10:14:13.000Z</time>
      </trkpt>
      <trkpt lat="41.797905" lon="22.986553">
        <ele>1237</ele>
        <time>2026-05-06T10:14:14.000Z</time>
      </trkpt>
      <trkpt lat="41.797891" lon="22.986562">
        <ele>1237</ele>
        <time>2026-05-06T10:14:15.000Z</time>
      </trkpt>
      <trkpt lat="41.797877" lon="22.98657">
        <ele>1237</ele>
        <time>2026-05-06T10:14:16.000Z</time>
      </trkpt>
      <trkpt lat="41.797863" lon="22.986578">
        <ele>1237</ele>
        <time>2026-05-06T10:14:17.000Z</time>
      </trkpt>
      <trkpt lat="41.797849" lon="22.986587">
        <ele>1237</ele>
        <time>2026-05-06T10:14:18.000Z</time>
      </trkpt>
      <trkpt lat="41.797834" lon="22.986595">
        <ele>1237</ele>
        <time>2026-05-06T10:14:19.000Z</time>
      </trkpt>
      <trkpt lat="41.797819" lon="22.986602">
        <ele>1237</ele>
        <time>2026-05-06T10:14:20.000Z</time>
      </trkpt>
      <trkpt lat="41.797805" lon="22.986609">
        <ele>1237</ele>
        <time>2026-05-06T10:14:21.000Z</time>
      </trkpt>
      <trkpt lat="41.79779" lon="22.986614">
        <ele>1237</ele>
        <time>2026-05-06T10:14:22.000Z</time>
      </trkpt>
      <trkpt lat="41.797775" lon="22.986619">
        <ele>1237.3</ele>
        <time>2026-05-06T10:14:23.000Z</time>
      </trkpt>
      <trkpt lat="41.79776" lon="22.986621">
        <ele>1237.3</ele>
        <time>2026-05-06T10:14:24.000Z</time>
      </trkpt>
      <trkpt lat="41.797745" lon="22.986623">
        <ele>1237.3</ele>
        <time>2026-05-06T10:14:25.000Z</time>
      </trkpt>
      <trkpt lat="41.797731" lon="22.986624">
        <ele>1237.3</ele>
        <time>2026-05-06T10:14:26.000Z</time>
      </trkpt>
      <trkpt lat="41.797717" lon="22.986625">
        <ele>1237.3</ele>
        <time>2026-05-06T10:14:27.000Z</time>
      </trkpt>
      <trkpt lat="41.797702" lon="22.986626">
        <ele>1237.6</ele>
        <time>2026-05-06T10:14:28.000Z</time>
      </trkpt>
      <trkpt lat="41.797688" lon="22.986627">
        <ele>1237.6</ele>
        <time>2026-05-06T10:14:29.000Z</time>
      </trkpt>
      <trkpt lat="41.797673" lon="22.986628">
        <ele>1237.6</ele>
        <time>2026-05-06T10:14:30.000Z</time>
      </trkpt>
      <trkpt lat="41.797659" lon="22.986629">
        <ele>1237.6</ele>
        <time>2026-05-06T10:14:31.000Z</time>
      </trkpt>
      <trkpt lat="41.797645" lon="22.986628">
        <ele>1237.6</ele>
        <time>2026-05-06T10:14:32.000Z</time>
      </trkpt>
      <trkpt lat="41.797631" lon="22.986627">
        <ele>1237.8</ele>
        <time>2026-05-06T10:14:33.000Z</time>
      </trkpt>
      <trkpt lat="41.797618" lon="22.986625">
        <ele>1237.8</ele>
        <time>2026-05-06T10:14:34.000Z</time>
      </trkpt>
      <trkpt lat="41.797604" lon="22.986622">
        <ele>1237.8</ele>
        <time>2026-05-06T10:14:35.000Z</time>
      </trkpt>
      <trkpt lat="41.797589" lon="22.986619">
        <ele>1237.8</ele>
        <time>2026-05-06T10:14:36.000Z</time>
      </trkpt>
      <trkpt lat="41.797574" lon="22.986616">
        <ele>1237.8</ele>
        <time>2026-05-06T10:14:37.000Z</time>
      </trkpt>
      <trkpt lat="41.797559" lon="22.986613">
        <ele>1238.3</ele>
        <time>2026-05-06T10:14:38.000Z</time>
      </trkpt>
      <trkpt lat="41.797542" lon="22.986608">
        <ele>1238.3</ele>
        <time>2026-05-06T10:14:39.000Z</time>
      </trkpt>
      <trkpt lat="41.797527" lon="22.986603">
        <ele>1238.3</ele>
        <time>2026-05-06T10:14:40.000Z</time>
      </trkpt>
      <trkpt lat="41.79751" lon="22.986596">
        <ele>1238.3</ele>
        <time>2026-05-06T10:14:41.000Z</time>
      </trkpt>
      <trkpt lat="41.797495" lon="22.98659">
        <ele>1238.3</ele>
        <time>2026-05-06T10:14:42.000Z</time>
      </trkpt>
      <trkpt lat="41.797479" lon="22.986583">
        <ele>1238.8</ele>
        <time>2026-05-06T10:14:43.000Z</time>
      </trkpt>
      <trkpt lat="41.797463" lon="22.986576">
        <ele>1238.8</ele>
        <time>2026-05-06T10:14:44.000Z</time>
      </trkpt>
      <trkpt lat="41.797448" lon="22.986568">
        <ele>1238.8</ele>
        <time>2026-05-06T10:14:45.000Z</time>
      </trkpt>
      <trkpt lat="41.797434" lon="22.986561">
        <ele>1238.8</ele>
        <time>2026-05-06T10:14:46.000Z</time>
      </trkpt>
      <trkpt lat="41.79742" lon="22.986552">
        <ele>1238.8</ele>
        <time>2026-05-06T10:14:47.000Z</time>
      </trkpt>
      <trkpt lat="41.797407" lon="22.986543">
        <ele>1239</ele>
        <time>2026-05-06T10:14:48.000Z</time>
      </trkpt>
      <trkpt lat="41.797394" lon="22.986534">
        <ele>1239</ele>
        <time>2026-05-06T10:14:49.000Z</time>
      </trkpt>
      <trkpt lat="41.797382" lon="22.986524">
        <ele>1239</ele>
        <time>2026-05-06T10:14:50.000Z</time>
      </trkpt>
      <trkpt lat="41.797369" lon="22.986514">
        <ele>1239</ele>
        <time>2026-05-06T10:14:51.000Z</time>
      </trkpt>
      <trkpt lat="41.797357" lon="22.986505">
        <ele>1239</ele>
        <time>2026-05-06T10:14:52.000Z</time>
      </trkpt>
      <trkpt lat="41.797345" lon="22.986495">
        <ele>1239.4</ele>
        <time>2026-05-06T10:14:53.000Z</time>
      </trkpt>
      <trkpt lat="41.797333" lon="22.986485">
        <ele>1239.4</ele>
        <time>2026-05-06T10:14:54.000Z</time>
      </trkpt>
      <trkpt lat="41.797323" lon="22.986473">
        <ele>1239.4</ele>
        <time>2026-05-06T10:14:55.000Z</time>
      </trkpt>
      <trkpt lat="41.797315" lon="22.98646">
        <ele>1239.4</ele>
        <time>2026-05-06T10:14:56.000Z</time>
      </trkpt>
      <trkpt lat="41.797306" lon="22.986448">
        <ele>1239.4</ele>
        <time>2026-05-06T10:14:57.000Z</time>
      </trkpt>
      <trkpt lat="41.797299" lon="22.986436">
        <ele>1239.9</ele>
        <time>2026-05-06T10:14:58.000Z</time>
      </trkpt>
      <trkpt lat="41.797292" lon="22.986425">
        <ele>1239.9</ele>
        <time>2026-05-06T10:14:59.000Z</time>
      </trkpt>
      <trkpt lat="41.797283" lon="22.986415">
        <ele>1239.9</ele>
        <time>2026-05-06T10:15:00.000Z</time>
      </trkpt>
      <trkpt lat="41.797273" lon="22.986406">
        <ele>1239.9</ele>
        <time>2026-05-06T10:15:01.000Z</time>
      </trkpt>
      <trkpt lat="41.797262" lon="22.986397">
        <ele>1239.9</ele>
        <time>2026-05-06T10:15:02.000Z</time>
      </trkpt>
      <trkpt lat="41.797252" lon="22.986389">
        <ele>1240.2</ele>
        <time>2026-05-06T10:15:03.000Z</time>
      </trkpt>
      <trkpt lat="41.797242" lon="22.986381">
        <ele>1240.2</ele>
        <time>2026-05-06T10:15:04.000Z</time>
      </trkpt>
      <trkpt lat="41.797233" lon="22.986375">
        <ele>1240.2</ele>
        <time>2026-05-06T10:15:05.000Z</time>
      </trkpt>
      <trkpt lat="41.797226" lon="22.986369">
        <ele>1240.2</ele>
        <time>2026-05-06T10:15:06.000Z</time>
      </trkpt>
      <trkpt lat="41.79722" lon="22.986363">
        <ele>1240.2</ele>
        <time>2026-05-06T10:15:07.000Z</time>
      </trkpt>
      <trkpt lat="41.797212" lon="22.986356">
        <ele>1241</ele>
        <time>2026-05-06T10:15:08.000Z</time>
      </trkpt>
      <trkpt lat="41.797202" lon="22.986349">
        <ele>1241</ele>
        <time>2026-05-06T10:15:09.000Z</time>
      </trkpt>
      <trkpt lat="41.797191" lon="22.98634">
        <ele>1241</ele>
        <time>2026-05-06T10:15:10.000Z</time>
      </trkpt>
      <trkpt lat="41.797182" lon="22.986332">
        <ele>1241</ele>
        <time>2026-05-06T10:15:11.000Z</time>
      </trkpt>
      <trkpt lat="41.797174" lon="22.986327">
        <ele>1241</ele>
        <time>2026-05-06T10:15:12.000Z</time>
      </trkpt>
      <trkpt lat="41.797168" lon="22.986325">
        <ele>1242.1</ele>
        <time>2026-05-06T10:15:13.000Z</time>
      </trkpt>
      <trkpt lat="41.797166" lon="22.986325">
        <ele>1242.1</ele>
        <time>2026-05-06T10:15:14.000Z</time>
      </trkpt>
      <trkpt lat="41.797166" lon="22.986327">
        <ele>1242.1</ele>
        <time>2026-05-06T10:15:15.000Z</time>
      </trkpt>
      <trkpt lat="41.797165" lon="22.986329">
        <ele>1242.1</ele>
        <time>2026-05-06T10:15:16.000Z</time>
      </trkpt>
      <trkpt lat="41.797165" lon="22.98633">
        <ele>1242.1</ele>
        <time>2026-05-06T10:15:17.000Z</time>
      </trkpt>
      <trkpt lat="41.797163" lon="22.986326">
        <ele>1242.5</ele>
        <time>2026-05-06T10:15:18.000Z</time>
      </trkpt>
      <trkpt lat="41.797158" lon="22.98632">
        <ele>1242.5</ele>
        <time>2026-05-06T10:15:19.000Z</time>
      </trkpt>
      <trkpt lat="41.797152" lon="22.986313">
        <ele>1242.5</ele>
        <time>2026-05-06T10:15:20.000Z</time>
      </trkpt>
      <trkpt lat="41.797144" lon="22.986301">
        <ele>1242.5</ele>
        <time>2026-05-06T10:15:21.000Z</time>
      </trkpt>
      <trkpt lat="41.797136" lon="22.986291">
        <ele>1242.5</ele>
        <time>2026-05-06T10:15:22.000Z</time>
      </trkpt>
      <trkpt lat="41.797129" lon="22.986283">
        <ele>1242.9</ele>
        <time>2026-05-06T10:15:23.000Z</time>
      </trkpt>
      <trkpt lat="41.797124" lon="22.986277">
        <ele>1242.9</ele>
        <time>2026-05-06T10:15:24.000Z</time>
      </trkpt>
      <trkpt lat="41.797121" lon="22.986271">
        <ele>1242.9</ele>
        <time>2026-05-06T10:15:25.000Z</time>
      </trkpt>
      <trkpt lat="41.79712" lon="22.986268">
        <ele>1242.9</ele>
        <time>2026-05-06T10:15:26.000Z</time>
      </trkpt>
      <trkpt lat="41.79712" lon="22.986264">
        <ele>1242.9</ele>
        <time>2026-05-06T10:15:27.000Z</time>
      </trkpt>
      <trkpt lat="41.79712" lon="22.986261">
        <ele>1243</ele>
        <time>2026-05-06T10:15:28.000Z</time>
      </trkpt>
      <trkpt lat="41.79712" lon="22.986258">
        <ele>1243</ele>
        <time>2026-05-06T10:15:29.000Z</time>
      </trkpt>
      <trkpt lat="41.797122" lon="22.986256">
        <ele>1243</ele>
        <time>2026-05-06T10:15:30.000Z</time>
      </trkpt>
      <trkpt lat="41.797124" lon="22.986254">
        <ele>1243</ele>
        <time>2026-05-06T10:15:31.000Z</time>
      </trkpt>
      <trkpt lat="41.797126" lon="22.986253">
        <ele>1243</ele>
        <time>2026-05-06T10:15:32.000Z</time>
      </trkpt>
      <trkpt lat="41.797127" lon="22.986253">
        <ele>1243.1</ele>
        <time>2026-05-06T10:15:33.000Z</time>
      </trkpt>
      <trkpt lat="41.797128" lon="22.986253">
        <ele>1243.1</ele>
        <time>2026-05-06T10:15:34.000Z</time>
      </trkpt>
      <trkpt lat="41.797128" lon="22.986254">
        <ele>1243.1</ele>
        <time>2026-05-06T10:15:35.000Z</time>
      </trkpt>
      <trkpt lat="41.797128" lon="22.986255">
        <ele>1243.1</ele>
        <time>2026-05-06T10:15:36.000Z</time>
      </trkpt>
      <trkpt lat="41.797127" lon="22.986256">
        <ele>1243.1</ele>
        <time>2026-05-06T10:15:37.000Z</time>
      </trkpt>
      <trkpt lat="41.797126" lon="22.986256">
        <ele>1243.5</ele>
        <time>2026-05-06T10:15:38.000Z</time>
      </trkpt>
      <trkpt lat="41.797126" lon="22.986256">
        <ele>1243.5</ele>
        <time>2026-05-06T10:15:39.000Z</time>
      </trkpt>
      <trkpt lat="41.797126" lon="22.986256">
        <ele>1243.5</ele>
        <time>2026-05-06T10:15:40.000Z</time>
      </trkpt>
      <trkpt lat="41.797126" lon="22.986256">
        <ele>1243.5</ele>
        <time>2026-05-06T10:15:41.000Z</time>
      </trkpt>
      <trkpt lat="41.797126" lon="22.986255">
        <ele>1243.5</ele>
        <time>2026-05-06T10:15:42.000Z</time>
      </trkpt>
      <trkpt lat="41.797125" lon="22.986254">
        <ele>1243.8</ele>
        <time>2026-05-06T10:15:43.000Z</time>
      </trkpt>
      <trkpt lat="41.797125" lon="22.986254">
        <ele>1243.8</ele>
        <time>2026-05-06T10:15:44.000Z</time>
      </trkpt>
      <trkpt lat="41.797124" lon="22.986253">
        <ele>1243.8</ele>
        <time>2026-05-06T10:15:45.000Z</time>
      </trkpt>
      <trkpt lat="41.797124" lon="22.986252">
        <ele>1243.8</ele>
        <time>2026-05-06T10:15:46.000Z</time>
      </trkpt>
      <trkpt lat="41.797124" lon="22.986252">
        <ele>1243.8</ele>
        <time>2026-05-06T10:15:47.000Z</time>
      </trkpt>
      <trkpt lat="41.797125" lon="22.986249">
        <ele>1243.9</ele>
        <time>2026-05-06T10:15:48.000Z</time>
      </trkpt>
      <trkpt lat="41.797127" lon="22.986247">
        <ele>1243.9</ele>
        <time>2026-05-06T10:15:49.000Z</time>
      </trkpt>
      <trkpt lat="41.797128" lon="22.986245">
        <ele>1243.9</ele>
        <time>2026-05-06T10:15:50.000Z</time>
      </trkpt>
      <trkpt lat="41.797128" lon="22.986243">
        <ele>1243.9</ele>
        <time>2026-05-06T10:15:51.000Z</time>
      </trkpt>
      <trkpt lat="41.797129" lon="22.986241">
        <ele>1243.9</ele>
        <time>2026-05-06T10:15:52.000Z</time>
      </trkpt>
      <trkpt lat="41.797129" lon="22.986241">
        <ele>1243.9</ele>
        <time>2026-05-06T10:15:53.000Z</time>
      </trkpt>
      <trkpt lat="41.797128" lon="22.98624">
        <ele>1243.9</ele>
        <time>2026-05-06T10:15:54.000Z</time>
      </trkpt>
      <trkpt lat="41.797127" lon="22.986241">
        <ele>1243.9</ele>
        <time>2026-05-06T10:15:55.000Z</time>
      </trkpt>
      <trkpt lat="41.797128" lon="22.986241">
        <ele>1243.9</ele>
        <time>2026-05-06T10:15:56.000Z</time>
      </trkpt>
      <trkpt lat="41.797129" lon="22.98624">
        <ele>1243.9</ele>
        <time>2026-05-06T10:15:57.000Z</time>
      </trkpt>
      <trkpt lat="41.79713" lon="22.986239">
        <ele>1244.1</ele>
        <time>2026-05-06T10:15:58.000Z</time>
      </trkpt>
      <trkpt lat="41.797131" lon="22.986237">
        <ele>1244.1</ele>
        <time>2026-05-06T10:15:59.000Z</time>
      </trkpt>
      <trkpt lat="41.797132" lon="22.986235">
        <ele>1244.1</ele>
        <time>2026-05-06T10:16:00.000Z</time>
      </trkpt>
      <trkpt lat="41.797133" lon="22.986234">
        <ele>1244.1</ele>
        <time>2026-05-06T10:16:01.000Z</time>
      </trkpt>
      <trkpt lat="41.797133" lon="22.986233">
        <ele>1244.1</ele>
        <time>2026-05-06T10:16:02.000Z</time>
      </trkpt>
      <trkpt lat="41.797133" lon="22.986232">
        <ele>1244.2</ele>
        <time>2026-05-06T10:16:03.000Z</time>
      </trkpt>
      <trkpt lat="41.797134" lon="22.986233">
        <ele>1244.2</ele>
        <time>2026-05-06T10:16:04.000Z</time>
      </trkpt>
      <trkpt lat="41.797134" lon="22.986232">
        <ele>1244.2</ele>
        <time>2026-05-06T10:16:05.000Z</time>
      </trkpt>
      <trkpt lat="41.797135" lon="22.986231">
        <ele>1244.2</ele>
        <time>2026-05-06T10:16:06.000Z</time>
      </trkpt>
      <trkpt lat="41.797135" lon="22.986229">
        <ele>1244.2</ele>
        <time>2026-05-06T10:16:07.000Z</time>
      </trkpt>
      <trkpt lat="41.797135" lon="22.986226">
        <ele>1244.5</ele>
        <time>2026-05-06T10:16:08.000Z</time>
      </trkpt>
      <trkpt lat="41.797136" lon="22.986222">
        <ele>1244.5</ele>
        <time>2026-05-06T10:16:09.000Z</time>
      </trkpt>
      <trkpt lat="41.797136" lon="22.98622">
        <ele>1244.5</ele>
        <time>2026-05-06T10:16:10.000Z</time>
      </trkpt>
      <trkpt lat="41.797136" lon="22.986217">
        <ele>1244.5</ele>
        <time>2026-05-06T10:16:11.000Z</time>
      </trkpt>
      <trkpt lat="41.797138" lon="22.986215">
        <ele>1244.5</ele>
        <time>2026-05-06T10:16:12.000Z</time>
      </trkpt>
      <trkpt lat="41.797138" lon="22.986213">
        <ele>1244.6</ele>
        <time>2026-05-06T10:16:13.000Z</time>
      </trkpt>
      <trkpt lat="41.797138" lon="22.98621">
        <ele>1244.6</ele>
        <time>2026-05-06T10:16:14.000Z</time>
      </trkpt>
      <trkpt lat="41.797138" lon="22.986207">
        <ele>1244.6</ele>
        <time>2026-05-06T10:16:15.000Z</time>
      </trkpt>
      <trkpt lat="41.797137" lon="22.986205">
        <ele>1244.6</ele>
        <time>2026-05-06T10:16:16.000Z</time>
      </trkpt>
      <trkpt lat="41.797137" lon="22.986202">
        <ele>1244.6</ele>
        <time>2026-05-06T10:16:17.000Z</time>
      </trkpt>
      <trkpt lat="41.797137" lon="22.986201">
        <ele>1244.7</ele>
        <time>2026-05-06T10:16:18.000Z</time>
      </trkpt>
      <trkpt lat="41.797136" lon="22.986201">
        <ele>1244.7</ele>
        <time>2026-05-06T10:16:19.000Z</time>
      </trkpt>
      <trkpt lat="41.797137" lon="22.986201">
        <ele>1244.7</ele>
        <time>2026-05-06T10:16:20.000Z</time>
      </trkpt>
      <trkpt lat="41.797136" lon="22.986199">
        <ele>1244.7</ele>
        <time>2026-05-06T10:16:21.000Z</time>
      </trkpt>
      <trkpt lat="41.797135" lon="22.986198">
        <ele>1244.7</ele>
        <time>2026-05-06T10:16:22.000Z</time>
      </trkpt>
      <trkpt lat="41.797133" lon="22.986195">
        <ele>1244.8</ele>
        <time>2026-05-06T10:16:23.000Z</time>
      </trkpt>
      <trkpt lat="41.797131" lon="22.986188">
        <ele>1244.8</ele>
        <time>2026-05-06T10:16:24.000Z</time>
      </trkpt>
      <trkpt lat="41.797127" lon="22.986179">
        <ele>1244.8</ele>
        <time>2026-05-06T10:16:25.000Z</time>
      </trkpt>
      <trkpt lat="41.797125" lon="22.986169">
        <ele>1244.8</ele>
        <time>2026-05-06T10:16:26.000Z</time>
      </trkpt>
      <trkpt lat="41.797122" lon="22.986158">
        <ele>1244.8</ele>
        <time>2026-05-06T10:16:27.000Z</time>
      </trkpt>
      <trkpt lat="41.79712" lon="22.986146">
        <ele>1245</ele>
        <time>2026-05-06T10:16:28.000Z</time>
      </trkpt>
      <trkpt lat="41.797118" lon="22.986134">
        <ele>1245</ele>
        <time>2026-05-06T10:16:29.000Z</time>
      </trkpt>
      <trkpt lat="41.797116" lon="22.986124">
        <ele>1245</ele>
        <time>2026-05-06T10:16:30.000Z</time>
      </trkpt>
      <trkpt lat="41.797114" lon="22.986113">
        <ele>1245</ele>
        <time>2026-05-06T10:16:31.000Z</time>
      </trkpt>
      <trkpt lat="41.797113" lon="22.986102">
        <ele>1245</ele>
        <time>2026-05-06T10:16:32.000Z</time>
      </trkpt>
      <trkpt lat="41.797111" lon="22.986091">
        <ele>1245.3</ele>
        <time>2026-05-06T10:16:33.000Z</time>
      </trkpt>
      <trkpt lat="41.79711" lon="22.986082">
        <ele>1245.3</ele>
        <time>2026-05-06T10:16:34.000Z</time>
      </trkpt>
      <trkpt lat="41.797109" lon="22.98607">
        <ele>1245.3</ele>
        <time>2026-05-06T10:16:35.000Z</time>
      </trkpt>
      <trkpt lat="41.797109" lon="22.986059">
        <ele>1245.3</ele>
        <time>2026-05-06T10:16:36.000Z</time>
      </trkpt>
      <trkpt lat="41.797108" lon="22.986049">
        <ele>1245.3</ele>
        <time>2026-05-06T10:16:37.000Z</time>
      </trkpt>
      <trkpt lat="41.797108" lon="22.986039">
        <ele>1246.1</ele>
        <time>2026-05-06T10:16:38.000Z</time>
      </trkpt>
      <trkpt lat="41.797108" lon="22.986027">
        <ele>1246.1</ele>
        <time>2026-05-06T10:16:39.000Z</time>
      </trkpt>
      <trkpt lat="41.797108" lon="22.986019">
        <ele>1246.1</ele>
        <time>2026-05-06T10:16:40.000Z</time>
      </trkpt>
      <trkpt lat="41.797107" lon="22.986009">
        <ele>1246.1</ele>
        <time>2026-05-06T10:16:41.000Z</time>
      </trkpt>
      <trkpt lat="41.797107" lon="22.985997">
        <ele>1246.1</ele>
        <time>2026-05-06T10:16:42.000Z</time>
      </trkpt>
      <trkpt lat="41.797106" lon="22.985985">
        <ele>1247.4</ele>
        <time>2026-05-06T10:16:43.000Z</time>
      </trkpt>
      <trkpt lat="41.797105" lon="22.985973">
        <ele>1247.4</ele>
        <time>2026-05-06T10:16:44.000Z</time>
      </trkpt>
      <trkpt lat="41.797106" lon="22.985961">
        <ele>1247.4</ele>
        <time>2026-05-06T10:16:45.000Z</time>
      </trkpt>
      <trkpt lat="41.797108" lon="22.985949">
        <ele>1247.4</ele>
        <time>2026-05-06T10:16:46.000Z</time>
      </trkpt>
      <trkpt lat="41.797109" lon="22.985941">
        <ele>1247.4</ele>
        <time>2026-05-06T10:16:47.000Z</time>
      </trkpt>
      <trkpt lat="41.797111" lon="22.985932">
        <ele>1248.1</ele>
        <time>2026-05-06T10:16:48.000Z</time>
      </trkpt>
      <trkpt lat="41.797113" lon="22.985925">
        <ele>1248.1</ele>
        <time>2026-05-06T10:16:49.000Z</time>
      </trkpt>
      <trkpt lat="41.797113" lon="22.985918">
        <ele>1248.1</ele>
        <time>2026-05-06T10:16:50.000Z</time>
      </trkpt>
      <trkpt lat="41.797113" lon="22.985911">
        <ele>1248.1</ele>
        <time>2026-05-06T10:16:51.000Z</time>
      </trkpt>
      <trkpt lat="41.797114" lon="22.985903">
        <ele>1248.1</ele>
        <time>2026-05-06T10:16:52.000Z</time>
      </trkpt>
      <trkpt lat="41.797115" lon="22.985895">
        <ele>1249.6</ele>
        <time>2026-05-06T10:16:53.000Z</time>
      </trkpt>
      <trkpt lat="41.797118" lon="22.985888">
        <ele>1249.6</ele>
        <time>2026-05-06T10:16:54.000Z</time>
      </trkpt>
      <trkpt lat="41.79712" lon="22.985881">
        <ele>1249.6</ele>
        <time>2026-05-06T10:16:55.000Z</time>
      </trkpt>
      <trkpt lat="41.797122" lon="22.985874">
        <ele>1249.6</ele>
        <time>2026-05-06T10:16:56.000Z</time>
      </trkpt>
      <trkpt lat="41.797123" lon="22.985868">
        <ele>1249.6</ele>
        <time>2026-05-06T10:16:57.000Z</time>
      </trkpt>
      <trkpt lat="41.797124" lon="22.985862">
        <ele>1251.2</ele>
        <time>2026-05-06T10:16:58.000Z</time>
      </trkpt>
      <trkpt lat="41.797126" lon="22.985855">
        <ele>1251.2</ele>
        <time>2026-05-06T10:16:59.000Z</time>
      </trkpt>
      <trkpt lat="41.797128" lon="22.985849">
        <ele>1251.2</ele>
        <time>2026-05-06T10:17:00.000Z</time>
      </trkpt>
      <trkpt lat="41.797133" lon="22.985843">
        <ele>1251.2</ele>
        <time>2026-05-06T10:17:01.000Z</time>
      </trkpt>
      <trkpt lat="41.797138" lon="22.985836">
        <ele>1251.2</ele>
        <time>2026-05-06T10:17:02.000Z</time>
      </trkpt>
      <trkpt lat="41.797142" lon="22.985829">
        <ele>1252</ele>
        <time>2026-05-06T10:17:03.000Z</time>
      </trkpt>
      <trkpt lat="41.797146" lon="22.985821">
        <ele>1252</ele>
        <time>2026-05-06T10:17:04.000Z</time>
      </trkpt>
      <trkpt lat="41.797149" lon="22.985813">
        <ele>1252</ele>
        <time>2026-05-06T10:17:05.000Z</time>
      </trkpt>
      <trkpt lat="41.79715" lon="22.985803">
        <ele>1252</ele>
        <time>2026-05-06T10:17:06.000Z</time>
      </trkpt>
      <trkpt lat="41.797153" lon="22.985792">
        <ele>1252</ele>
        <time>2026-05-06T10:17:07.000Z</time>
      </trkpt>
      <trkpt lat="41.797156" lon="22.985782">
        <ele>1253.5</ele>
        <time>2026-05-06T10:17:08.000Z</time>
      </trkpt>
      <trkpt lat="41.79716" lon="22.985771">
        <ele>1253.5</ele>
        <time>2026-05-06T10:17:09.000Z</time>
      </trkpt>
      <trkpt lat="41.797166" lon="22.98576">
        <ele>1253.5</ele>
        <time>2026-05-06T10:17:10.000Z</time>
      </trkpt>
      <trkpt lat="41.797174" lon="22.985751">
        <ele>1253.5</ele>
        <time>2026-05-06T10:17:11.000Z</time>
      </trkpt>
      <trkpt lat="41.797182" lon="22.985742">
        <ele>1253.5</ele>
        <time>2026-05-06T10:17:12.000Z</time>
      </trkpt>
      <trkpt lat="41.797189" lon="22.985734">
        <ele>1254.7</ele>
        <time>2026-05-06T10:17:13.000Z</time>
      </trkpt>
      <trkpt lat="41.797195" lon="22.985726">
        <ele>1254.7</ele>
        <time>2026-05-06T10:17:14.000Z</time>
      </trkpt>
      <trkpt lat="41.797201" lon="22.985717">
        <ele>1254.7</ele>
        <time>2026-05-06T10:17:15.000Z</time>
      </trkpt>
      <trkpt lat="41.797206" lon="22.985708">
        <ele>1254.7</ele>
        <time>2026-05-06T10:17:16.000Z</time>
      </trkpt>
      <trkpt lat="41.797211" lon="22.985697">
        <ele>1254.7</ele>
        <time>2026-05-06T10:17:17.000Z</time>
      </trkpt>
      <trkpt lat="41.797216" lon="22.985686">
        <ele>1255.3</ele>
        <time>2026-05-06T10:17:18.000Z</time>
      </trkpt>
      <trkpt lat="41.797221" lon="22.985675">
        <ele>1255.3</ele>
        <time>2026-05-06T10:17:19.000Z</time>
      </trkpt>
      <trkpt lat="41.797226" lon="22.985663">
        <ele>1255.3</ele>
        <time>2026-05-06T10:17:20.000Z</time>
      </trkpt>
      <trkpt lat="41.797231" lon="22.985651">
        <ele>1255.3</ele>
        <time>2026-05-06T10:17:21.000Z</time>
      </trkpt>
      <trkpt lat="41.797237" lon="22.98564">
        <ele>1255.3</ele>
        <time>2026-05-06T10:17:22.000Z</time>
      </trkpt>
      <trkpt lat="41.797244" lon="22.985629">
        <ele>1256.4</ele>
        <time>2026-05-06T10:17:23.000Z</time>
      </trkpt>
      <trkpt lat="41.797249" lon="22.985619">
        <ele>1256.4</ele>
        <time>2026-05-06T10:17:24.000Z</time>
      </trkpt>
      <trkpt lat="41.797255" lon="22.985607">
        <ele>1256.4</ele>
        <time>2026-05-06T10:17:25.000Z</time>
      </trkpt>
      <trkpt lat="41.797259" lon="22.985595">
        <ele>1256.4</ele>
        <time>2026-05-06T10:17:26.000Z</time>
      </trkpt>
      <trkpt lat="41.797263" lon="22.985582">
        <ele>1256.4</ele>
        <time>2026-05-06T10:17:27.000Z</time>
      </trkpt>
      <trkpt lat="41.797266" lon="22.985568">
        <ele>1257.6</ele>
        <time>2026-05-06T10:17:28.000Z</time>
      </trkpt>
      <trkpt lat="41.797269" lon="22.985554">
        <ele>1257.6</ele>
        <time>2026-05-06T10:17:29.000Z</time>
      </trkpt>
      <trkpt lat="41.797273" lon="22.98554">
        <ele>1257.6</ele>
        <time>2026-05-06T10:17:30.000Z</time>
      </trkpt>
      <trkpt lat="41.797277" lon="22.985526">
        <ele>1257.6</ele>
        <time>2026-05-06T10:17:31.000Z</time>
      </trkpt>
      <trkpt lat="41.797281" lon="22.985511">
        <ele>1257.6</ele>
        <time>2026-05-06T10:17:32.000Z</time>
      </trkpt>
      <trkpt lat="41.797284" lon="22.985498">
        <ele>1258.2</ele>
        <time>2026-05-06T10:17:33.000Z</time>
      </trkpt>
      <trkpt lat="41.797286" lon="22.985483">
        <ele>1258.2</ele>
        <time>2026-05-06T10:17:34.000Z</time>
      </trkpt>
      <trkpt lat="41.797287" lon="22.985471">
        <ele>1258.2</ele>
        <time>2026-05-06T10:17:35.000Z</time>
      </trkpt>
      <trkpt lat="41.797287" lon="22.985458">
        <ele>1258.2</ele>
        <time>2026-05-06T10:17:36.000Z</time>
      </trkpt>
      <trkpt lat="41.797285" lon="22.985445">
        <ele>1258.2</ele>
        <time>2026-05-06T10:17:37.000Z</time>
      </trkpt>
      <trkpt lat="41.797283" lon="22.985432">
        <ele>1259.2</ele>
        <time>2026-05-06T10:17:38.000Z</time>
      </trkpt>
      <trkpt lat="41.797281" lon="22.98542">
        <ele>1259.2</ele>
        <time>2026-05-06T10:17:39.000Z</time>
      </trkpt>
      <trkpt lat="41.797279" lon="22.985409">
        <ele>1259.2</ele>
        <time>2026-05-06T10:17:40.000Z</time>
      </trkpt>
      <trkpt lat="41.797278" lon="22.985401">
        <ele>1259.2</ele>
        <time>2026-05-06T10:17:41.000Z</time>
      </trkpt>
      <trkpt lat="41.797277" lon="22.985394">
        <ele>1259.2</ele>
        <time>2026-05-06T10:17:42.000Z</time>
      </trkpt>
      <trkpt lat="41.797277" lon="22.98539">
        <ele>1259.7</ele>
        <time>2026-05-06T10:17:43.000Z</time>
      </trkpt>
      <trkpt lat="41.797278" lon="22.985387">
        <ele>1259.7</ele>
        <time>2026-05-06T10:17:44.000Z</time>
      </trkpt>
      <trkpt lat="41.797279" lon="22.985385">
        <ele>1259.7</ele>
        <time>2026-05-06T10:17:45.000Z</time>
      </trkpt>
      <trkpt lat="41.797279" lon="22.985383">
        <ele>1259.7</ele>
        <time>2026-05-06T10:17:46.000Z</time>
      </trkpt>
      <trkpt lat="41.79728" lon="22.985382">
        <ele>1259.7</ele>
        <time>2026-05-06T10:17:47.000Z</time>
      </trkpt>
      <trkpt lat="41.797281" lon="22.985382">
        <ele>1259.9</ele>
        <time>2026-05-06T10:17:48.000Z</time>
      </trkpt>
      <trkpt lat="41.797281" lon="22.985381">
        <ele>1259.9</ele>
        <time>2026-05-06T10:17:49.000Z</time>
      </trkpt>
      <trkpt lat="41.79728" lon="22.985382">
        <ele>1259.9</ele>
        <time>2026-05-06T10:17:50.000Z</time>
      </trkpt>
      <trkpt lat="41.797279" lon="22.985382">
        <ele>1259.9</ele>
        <time>2026-05-06T10:17:51.000Z</time>
      </trkpt>
      <trkpt lat="41.797278" lon="22.985382">
        <ele>1259.9</ele>
        <time>2026-05-06T10:17:52.000Z</time>
      </trkpt>
      <trkpt lat="41.797277" lon="22.985382">
        <ele>1260.1</ele>
        <time>2026-05-06T10:17:53.000Z</time>
      </trkpt>
      <trkpt lat="41.797275" lon="22.985383">
        <ele>1260.1</ele>
        <time>2026-05-06T10:17:54.000Z</time>
      </trkpt>
      <trkpt lat="41.797275" lon="22.985382">
        <ele>1260.1</ele>
        <time>2026-05-06T10:17:55.000Z</time>
      </trkpt>
      <trkpt lat="41.797275" lon="22.985382">
        <ele>1260.1</ele>
        <time>2026-05-06T10:17:56.000Z</time>
      </trkpt>
      <trkpt lat="41.797274" lon="22.985382">
        <ele>1260.1</ele>
        <time>2026-05-06T10:17:57.000Z</time>
      </trkpt>
      <trkpt lat="41.797274" lon="22.985382">
        <ele>1260.3</ele>
        <time>2026-05-06T10:17:58.000Z</time>
      </trkpt>
      <trkpt lat="41.797274" lon="22.985382">
        <ele>1260.3</ele>
        <time>2026-05-06T10:17:59.000Z</time>
      </trkpt>
      <trkpt lat="41.797274" lon="22.985382">
        <ele>1260.3</ele>
        <time>2026-05-06T10:18:00.000Z</time>
      </trkpt>
      <trkpt lat="41.797274" lon="22.98538">
        <ele>1260.3</ele>
        <time>2026-05-06T10:18:01.000Z</time>
      </trkpt>
      <trkpt lat="41.797274" lon="22.985376">
        <ele>1260.3</ele>
        <time>2026-05-06T10:18:02.000Z</time>
      </trkpt>
      <trkpt lat="41.797274" lon="22.985372">
        <ele>1260.4</ele>
        <time>2026-05-06T10:18:03.000Z</time>
      </trkpt>
      <trkpt lat="41.797274" lon="22.985367">
        <ele>1260.4</ele>
        <time>2026-05-06T10:18:04.000Z</time>
      </trkpt>
      <trkpt lat="41.797275" lon="22.98536">
        <ele>1260.4</ele>
        <time>2026-05-06T10:18:05.000Z</time>
      </trkpt>
      <trkpt lat="41.797275" lon="22.985354">
        <ele>1260.4</ele>
        <time>2026-05-06T10:18:06.000Z</time>
      </trkpt>
      <trkpt lat="41.797276" lon="22.985347">
        <ele>1260.4</ele>
        <time>2026-05-06T10:18:07.000Z</time>
      </trkpt>
      <trkpt lat="41.797277" lon="22.98534">
        <ele>1260.2</ele>
        <time>2026-05-06T10:18:08.000Z</time>
      </trkpt>
      <trkpt lat="41.797277" lon="22.985332">
        <ele>1260.2</ele>
        <time>2026-05-06T10:18:09.000Z</time>
      </trkpt>
      <trkpt lat="41.797276" lon="22.985322">
        <ele>1260.2</ele>
        <time>2026-05-06T10:18:10.000Z</time>
      </trkpt>
      <trkpt lat="41.797275" lon="22.98531">
        <ele>1260.2</ele>
        <time>2026-05-06T10:18:11.000Z</time>
      </trkpt>
      <trkpt lat="41.797273" lon="22.985299">
        <ele>1260.2</ele>
        <time>2026-05-06T10:18:12.000Z</time>
      </trkpt>
      <trkpt lat="41.797271" lon="22.985288">
        <ele>1260.1</ele>
        <time>2026-05-06T10:18:13.000Z</time>
      </trkpt>
      <trkpt lat="41.79727" lon="22.985276">
        <ele>1260.1</ele>
        <time>2026-05-06T10:18:14.000Z</time>
      </trkpt>
      <trkpt lat="41.797269" lon="22.985265">
        <ele>1260.1</ele>
        <time>2026-05-06T10:18:15.000Z</time>
      </trkpt>
      <trkpt lat="41.797268" lon="22.985255">
        <ele>1260.1</ele>
        <time>2026-05-06T10:18:16.000Z</time>
      </trkpt>
      <trkpt lat="41.797266" lon="22.985245">
        <ele>1260.1</ele>
        <time>2026-05-06T10:18:17.000Z</time>
      </trkpt>
      <trkpt lat="41.797265" lon="22.985234">
        <ele>1260.2</ele>
        <time>2026-05-06T10:18:18.000Z</time>
      </trkpt>
      <trkpt lat="41.797264" lon="22.985224">
        <ele>1260.2</ele>
        <time>2026-05-06T10:18:19.000Z</time>
      </trkpt>
      <trkpt lat="41.797263" lon="22.985215">
        <ele>1260.2</ele>
        <time>2026-05-06T10:18:20.000Z</time>
      </trkpt>
      <trkpt lat="41.797262" lon="22.985205">
        <ele>1260.2</ele>
        <time>2026-05-06T10:18:21.000Z</time>
      </trkpt>
      <trkpt lat="41.797262" lon="22.985194">
        <ele>1260.2</ele>
        <time>2026-05-06T10:18:22.000Z</time>
      </trkpt>
      <trkpt lat="41.797261" lon="22.985184">
        <ele>1260.8</ele>
        <time>2026-05-06T10:18:23.000Z</time>
      </trkpt>
      <trkpt lat="41.797259" lon="22.985174">
        <ele>1260.8</ele>
        <time>2026-05-06T10:18:24.000Z</time>
      </trkpt>
      <trkpt lat="41.797257" lon="22.985163">
        <ele>1260.8</ele>
        <time>2026-05-06T10:18:25.000Z</time>
      </trkpt>
      <trkpt lat="41.797255" lon="22.985153">
        <ele>1260.8</ele>
        <time>2026-05-06T10:18:26.000Z</time>
      </trkpt>
      <trkpt lat="41.797254" lon="22.985142">
        <ele>1260.8</ele>
        <time>2026-05-06T10:18:27.000Z</time>
      </trkpt>
      <trkpt lat="41.797253" lon="22.985131">
        <ele>1261.7</ele>
        <time>2026-05-06T10:18:28.000Z</time>
      </trkpt>
      <trkpt lat="41.797251" lon="22.985121">
        <ele>1261.7</ele>
        <time>2026-05-06T10:18:29.000Z</time>
      </trkpt>
      <trkpt lat="41.797251" lon="22.985111">
        <ele>1261.7</ele>
        <time>2026-05-06T10:18:30.000Z</time>
      </trkpt>
      <trkpt lat="41.797251" lon="22.9851">
        <ele>1261.7</ele>
        <time>2026-05-06T10:18:31.000Z</time>
      </trkpt>
      <trkpt lat="41.797252" lon="22.985091">
        <ele>1261.7</ele>
        <time>2026-05-06T10:18:32.000Z</time>
      </trkpt>
      <trkpt lat="41.797252" lon="22.985083">
        <ele>1262.1</ele>
        <time>2026-05-06T10:18:33.000Z</time>
      </trkpt>
      <trkpt lat="41.797252" lon="22.985078">
        <ele>1262.1</ele>
        <time>2026-05-06T10:18:34.000Z</time>
      </trkpt>
      <trkpt lat="41.797252" lon="22.985074">
        <ele>1262.1</ele>
        <time>2026-05-06T10:18:35.000Z</time>
      </trkpt>
      <trkpt lat="41.797251" lon="22.985073">
        <ele>1262.1</ele>
        <time>2026-05-06T10:18:36.000Z</time>
      </trkpt>
      <trkpt lat="41.79725" lon="22.985073">
        <ele>1262.1</ele>
        <time>2026-05-06T10:18:37.000Z</time>
      </trkpt>
      <trkpt lat="41.797248" lon="22.985073">
        <ele>1262.9</ele>
        <time>2026-05-06T10:18:38.000Z</time>
      </trkpt>
      <trkpt lat="41.797247" lon="22.985073">
        <ele>1262.9</ele>
        <time>2026-05-06T10:18:39.000Z</time>
      </trkpt>
      <trkpt lat="41.797245" lon="22.985073">
        <ele>1262.9</ele>
        <time>2026-05-06T10:18:40.000Z</time>
      </trkpt>
      <trkpt lat="41.797243" lon="22.985073">
        <ele>1262.9</ele>
        <time>2026-05-06T10:18:41.000Z</time>
      </trkpt>
      <trkpt lat="41.797243" lon="22.985072">
        <ele>1262.9</ele>
        <time>2026-05-06T10:18:42.000Z</time>
      </trkpt>
      <trkpt lat="41.797243" lon="22.985071">
        <ele>1263.7</ele>
        <time>2026-05-06T10:18:43.000Z</time>
      </trkpt>
      <trkpt lat="41.797243" lon="22.985069">
        <ele>1263.7</ele>
        <time>2026-05-06T10:18:44.000Z</time>
      </trkpt>
      <trkpt lat="41.797244" lon="22.985068">
        <ele>1263.7</ele>
        <time>2026-05-06T10:18:45.000Z</time>
      </trkpt>
      <trkpt lat="41.797245" lon="22.985067">
        <ele>1263.7</ele>
        <time>2026-05-06T10:18:46.000Z</time>
      </trkpt>
      <trkpt lat="41.797245" lon="22.985068">
        <ele>1263.7</ele>
        <time>2026-05-06T10:18:47.000Z</time>
      </trkpt>
      <trkpt lat="41.797246" lon="22.985069">
        <ele>1264</ele>
        <time>2026-05-06T10:18:48.000Z</time>
      </trkpt>
      <trkpt lat="41.797246" lon="22.985069">
        <ele>1264</ele>
        <time>2026-05-06T10:18:49.000Z</time>
      </trkpt>
      <trkpt lat="41.797246" lon="22.98507">
        <ele>1264</ele>
        <time>2026-05-06T10:18:50.000Z</time>
      </trkpt>
      <trkpt lat="41.797246" lon="22.985071">
        <ele>1264</ele>
        <time>2026-05-06T10:18:51.000Z</time>
      </trkpt>
      <trkpt lat="41.797246" lon="22.985071">
        <ele>1264</ele>
        <time>2026-05-06T10:18:52.000Z</time>
      </trkpt>
      <trkpt lat="41.797246" lon="22.985071">
        <ele>1264.2</ele>
        <time>2026-05-06T10:18:53.000Z</time>
      </trkpt>
      <trkpt lat="41.797246" lon="22.985071">
        <ele>1264.2</ele>
        <time>2026-05-06T10:18:54.000Z</time>
      </trkpt>
      <trkpt lat="41.797246" lon="22.985071">
        <ele>1264.2</ele>
        <time>2026-05-06T10:18:55.000Z</time>
      </trkpt>
      <trkpt lat="41.797246" lon="22.985071">
        <ele>1264.2</ele>
        <time>2026-05-06T10:18:56.000Z</time>
      </trkpt>
      <trkpt lat="41.797246" lon="22.985071">
        <ele>1264.2</ele>
        <time>2026-05-06T10:18:57.000Z</time>
      </trkpt>
      <trkpt lat="41.797246" lon="22.985071">
        <ele>1264.3</ele>
        <time>2026-05-06T10:18:58.000Z</time>
      </trkpt>
      <trkpt lat="41.797246" lon="22.985071">
        <ele>1264.3</ele>
        <time>2026-05-06T10:18:59.000Z</time>
      </trkpt>
      <trkpt lat="41.797246" lon="22.985071">
        <ele>1264.3</ele>
        <time>2026-05-06T10:19:00.000Z</time>
      </trkpt>
      <trkpt lat="41.797246" lon="22.985071">
        <ele>1264.3</ele>
        <time>2026-05-06T10:19:01.000Z</time>
      </trkpt>
      <trkpt lat="41.797246" lon="22.985071">
        <ele>1264.3</ele>
        <time>2026-05-06T10:19:02.000Z</time>
      </trkpt>
      <trkpt lat="41.797246" lon="22.985071">
        <ele>1264.4</ele>
        <time>2026-05-06T10:19:03.000Z</time>
      </trkpt>
      <trkpt lat="41.797246" lon="22.985071">
        <ele>1264.4</ele>
        <time>2026-05-06T10:19:04.000Z</time>
      </trkpt>
      <trkpt lat="41.797246" lon="22.985071">
        <ele>1264.4</ele>
        <time>2026-05-06T10:19:05.000Z</time>
      </trkpt>
      <trkpt lat="41.797247" lon="22.985072">
        <ele>1264.4</ele>
        <time>2026-05-06T10:19:06.000Z</time>
      </trkpt>
      <trkpt lat="41.797247" lon="22.985073">
        <ele>1264.4</ele>
        <time>2026-05-06T10:19:07.000Z</time>
      </trkpt>
      <trkpt lat="41.797248" lon="22.985074">
        <ele>1264.6</ele>
        <time>2026-05-06T10:19:08.000Z</time>
      </trkpt>
      <trkpt lat="41.797248" lon="22.985074">
        <ele>1264.6</ele>
        <time>2026-05-06T10:19:09.000Z</time>
      </trkpt>
      <trkpt lat="41.797249" lon="22.985075">
        <ele>1264.6</ele>
        <time>2026-05-06T10:19:10.000Z</time>
      </trkpt>
      <trkpt lat="41.797249" lon="22.985075">
        <ele>1264.6</ele>
        <time>2026-05-06T10:19:11.000Z</time>
      </trkpt>
      <trkpt lat="41.797249" lon="22.985075">
        <ele>1264.6</ele>
        <time>2026-05-06T10:19:12.000Z</time>
      </trkpt>
      <trkpt lat="41.797249" lon="22.985075">
        <ele>1264.7</ele>
        <time>2026-05-06T10:19:13.000Z</time>
      </trkpt>
      <trkpt lat="41.797249" lon="22.985075">
        <ele>1264.7</ele>
        <time>2026-05-06T10:19:14.000Z</time>
      </trkpt>
      <trkpt lat="41.797249" lon="22.985075">
        <ele>1264.7</ele>
        <time>2026-05-06T10:19:15.000Z</time>
      </trkpt>
      <trkpt lat="41.797249" lon="22.985075">
        <ele>1264.7</ele>
        <time>2026-05-06T10:19:16.000Z</time>
      </trkpt>
      <trkpt lat="41.79725" lon="22.985075">
        <ele>1264.7</ele>
        <time>2026-05-06T10:19:17.000Z</time>
      </trkpt>
      <trkpt lat="41.797251" lon="22.985074">
        <ele>1264.8</ele>
        <time>2026-05-06T10:19:18.000Z</time>
      </trkpt>
      <trkpt lat="41.797252" lon="22.985073">
        <ele>1264.8</ele>
        <time>2026-05-06T10:19:19.000Z</time>
      </trkpt>
      <trkpt lat="41.797253" lon="22.985071">
        <ele>1264.8</ele>
        <time>2026-05-06T10:19:20.000Z</time>
      </trkpt>
      <trkpt lat="41.797253" lon="22.98507">
        <ele>1264.8</ele>
        <time>2026-05-06T10:19:21.000Z</time>
      </trkpt>
      <trkpt lat="41.797254" lon="22.985069">
        <ele>1264.8</ele>
        <time>2026-05-06T10:19:22.000Z</time>
      </trkpt>
      <trkpt lat="41.797254" lon="22.985069">
        <ele>1264.6</ele>
        <time>2026-05-06T10:19:23.000Z</time>
      </trkpt>
      <trkpt lat="41.797254" lon="22.985069">
        <ele>1264.6</ele>
        <time>2026-05-06T10:19:24.000Z</time>
      </trkpt>
      <trkpt lat="41.797254" lon="22.985069">
        <ele>1264.6</ele>
        <time>2026-05-06T10:19:25.000Z</time>
      </trkpt>
      <trkpt lat="41.797253" lon="22.985069">
        <ele>1264.6</ele>
        <time>2026-05-06T10:19:26.000Z</time>
      </trkpt>
      <trkpt lat="41.797253" lon="22.985069">
        <ele>1264.6</ele>
        <time>2026-05-06T10:19:27.000Z</time>
      </trkpt>
      <trkpt lat="41.797253" lon="22.985069">
        <ele>1264.6</ele>
        <time>2026-05-06T10:19:28.000Z</time>
      </trkpt>
      <trkpt lat="41.797252" lon="22.985069">
        <ele>1264.6</ele>
        <time>2026-05-06T10:19:29.000Z</time>
      </trkpt>
      <trkpt lat="41.797252" lon="22.985069">
        <ele>1264.6</ele>
        <time>2026-05-06T10:19:30.000Z</time>
      </trkpt>
      <trkpt lat="41.797252" lon="22.985069">
        <ele>1264.6</ele>
        <time>2026-05-06T10:19:31.000Z</time>
      </trkpt>
      <trkpt lat="41.797252" lon="22.985069">
        <ele>1264.6</ele>
        <time>2026-05-06T10:19:32.000Z</time>
      </trkpt>
      <trkpt lat="41.797252" lon="22.985069">
        <ele>1264.7</ele>
        <time>2026-05-06T10:19:33.000Z</time>
      </trkpt>
      <trkpt lat="41.797252" lon="22.985069">
        <ele>1264.7</ele>
        <time>2026-05-06T10:19:34.000Z</time>
      </trkpt>
      <trkpt lat="41.797252" lon="22.985069">
        <ele>1264.7</ele>
        <time>2026-05-06T10:19:35.000Z</time>
      </trkpt>
      <trkpt lat="41.797252" lon="22.985069">
        <ele>1264.7</ele>
        <time>2026-05-06T10:19:36.000Z</time>
      </trkpt>
      <trkpt lat="41.797252" lon="22.985069">
        <ele>1264.7</ele>
        <time>2026-05-06T10:19:37.000Z</time>
      </trkpt>
      <trkpt lat="41.797252" lon="22.985069">
        <ele>1264.8</ele>
        <time>2026-05-06T10:19:38.000Z</time>
      </trkpt>
      <trkpt lat="41.797252" lon="22.985069">
        <ele>1264.8</ele>
        <time>2026-05-06T10:19:39.000Z</time>
      </trkpt>
      <trkpt lat="41.797252" lon="22.985069">
        <ele>1264.8</ele>
        <time>2026-05-06T10:19:40.000Z</time>
      </trkpt>
      <trkpt lat="41.797252" lon="22.985069">
        <ele>1264.8</ele>
        <time>2026-05-06T10:19:41.000Z</time>
      </trkpt>
      <trkpt lat="41.797252" lon="22.985069">
        <ele>1264.8</ele>
        <time>2026-05-06T10:19:42.000Z</time>
      </trkpt>
      <trkpt lat="41.797252" lon="22.985069">
        <ele>1265</ele>
        <time>2026-05-06T10:19:43.000Z</time>
      </trkpt>
      <trkpt lat="41.797252" lon="22.985069">
        <ele>1265</ele>
        <time>2026-05-06T10:19:44.000Z</time>
      </trkpt>
      <trkpt lat="41.797252" lon="22.985069">
        <ele>1265</ele>
        <time>2026-05-06T10:19:45.000Z</time>
      </trkpt>
      <trkpt lat="41.797251" lon="22.985069">
        <ele>1265</ele>
        <time>2026-05-06T10:19:46.000Z</time>
      </trkpt>
      <trkpt lat="41.797251" lon="22.985069">
        <ele>1265</ele>
        <time>2026-05-06T10:19:47.000Z</time>
      </trkpt>
      <trkpt lat="41.79725" lon="22.985069">
        <ele>1265</ele>
        <time>2026-05-06T10:19:48.000Z</time>
      </trkpt>
      <trkpt lat="41.797249" lon="22.985068">
        <ele>1265</ele>
        <time>2026-05-06T10:19:49.000Z</time>
      </trkpt>
      <trkpt lat="41.797249" lon="22.985068">
        <ele>1265</ele>
        <time>2026-05-06T10:19:50.000Z</time>
      </trkpt>
      <trkpt lat="41.797249" lon="22.985067">
        <ele>1265</ele>
        <time>2026-05-06T10:19:51.000Z</time>
      </trkpt>
      <trkpt lat="41.79725" lon="22.985067">
        <ele>1265</ele>
        <time>2026-05-06T10:19:52.000Z</time>
      </trkpt>
      <trkpt lat="41.79725" lon="22.985066">
        <ele>1265.1</ele>
        <time>2026-05-06T10:19:53.000Z</time>
      </trkpt>
      <trkpt lat="41.79725" lon="22.985066">
        <ele>1265.1</ele>
        <time>2026-05-06T10:19:54.000Z</time>
      </trkpt>
      <trkpt lat="41.79725" lon="22.985065">
        <ele>1265.1</ele>
        <time>2026-05-06T10:19:55.000Z</time>
      </trkpt>
      <trkpt lat="41.797249" lon="22.985065">
        <ele>1265.1</ele>
        <time>2026-05-06T10:19:56.000Z</time>
      </trkpt>
      <trkpt lat="41.797249" lon="22.985065">
        <ele>1265.1</ele>
        <time>2026-05-06T10:19:57.000Z</time>
      </trkpt>
      <trkpt lat="41.797249" lon="22.985065">
        <ele>1265.2</ele>
        <time>2026-05-06T10:19:58.000Z</time>
      </trkpt>
      <trkpt lat="41.797249" lon="22.985064">
        <ele>1265.2</ele>
        <time>2026-05-06T10:19:59.000Z</time>
      </trkpt>
      <trkpt lat="41.797249" lon="22.985064">
        <ele>1265.2</ele>
        <time>2026-05-06T10:20:00.000Z</time>
      </trkpt>
      <trkpt lat="41.797249" lon="22.985064">
        <ele>1265.2</ele>
        <time>2026-05-06T10:20:01.000Z</time>
      </trkpt>
      <trkpt lat="41.797249" lon="22.985064">
        <ele>1265.2</ele>
        <time>2026-05-06T10:20:02.000Z</time>
      </trkpt>
      <trkpt lat="41.797249" lon="22.985064">
        <ele>1265.3</ele>
        <time>2026-05-06T10:20:03.000Z</time>
      </trkpt>
      <trkpt lat="41.797249" lon="22.985064">
        <ele>1265.3</ele>
        <time>2026-05-06T10:20:04.000Z</time>
      </trkpt>
      <trkpt lat="41.797249" lon="22.985064">
        <ele>1265.3</ele>
        <time>2026-05-06T10:20:05.000Z</time>
      </trkpt>
      <trkpt lat="41.797247" lon="22.985065">
        <ele>1265.3</ele>
        <time>2026-05-06T10:20:06.000Z</time>
      </trkpt>
      <trkpt lat="41.797246" lon="22.985065">
        <ele>1265.3</ele>
        <time>2026-05-06T10:20:07.000Z</time>
      </trkpt>
      <trkpt lat="41.797245" lon="22.985065">
        <ele>1265.3</ele>
        <time>2026-05-06T10:20:08.000Z</time>
      </trkpt>
      <trkpt lat="41.797244" lon="22.985065">
        <ele>1265.3</ele>
        <time>2026-05-06T10:20:09.000Z</time>
      </trkpt>
      <trkpt lat="41.797242" lon="22.985066">
        <ele>1265.3</ele>
        <time>2026-05-06T10:20:10.000Z</time>
      </trkpt>
      <trkpt lat="41.797242" lon="22.985067">
        <ele>1265.3</ele>
        <time>2026-05-06T10:20:11.000Z</time>
      </trkpt>
      <trkpt lat="41.797241" lon="22.985068">
        <ele>1265.3</ele>
        <time>2026-05-06T10:20:12.000Z</time>
      </trkpt>
      <trkpt lat="41.797241" lon="22.985069">
        <ele>1265.3</ele>
        <time>2026-05-06T10:20:13.000Z</time>
      </trkpt>
      <trkpt lat="41.797242" lon="22.98507">
        <ele>1265.3</ele>
        <time>2026-05-06T10:20:14.000Z</time>
      </trkpt>
      <trkpt lat="41.797243" lon="22.98507">
        <ele>1265.3</ele>
        <time>2026-05-06T10:20:15.000Z</time>
      </trkpt>
      <trkpt lat="41.797244" lon="22.98507">
        <ele>1265.3</ele>
        <time>2026-05-06T10:20:16.000Z</time>
      </trkpt>
      <trkpt lat="41.797245" lon="22.98507">
        <ele>1265.3</ele>
        <time>2026-05-06T10:20:17.000Z</time>
      </trkpt>
      <trkpt lat="41.797245" lon="22.98507">
        <ele>1265.2</ele>
        <time>2026-05-06T10:20:18.000Z</time>
      </trkpt>
      <trkpt lat="41.797245" lon="22.98507">
        <ele>1265.2</ele>
        <time>2026-05-06T10:20:19.000Z</time>
      </trkpt>
      <trkpt lat="41.797245" lon="22.98507">
        <ele>1265.2</ele>
        <time>2026-05-06T10:20:20.000Z</time>
      </trkpt>
      <trkpt lat="41.797245" lon="22.985071">
        <ele>1265.2</ele>
        <time>2026-05-06T10:20:21.000Z</time>
      </trkpt>
      <trkpt lat="41.797245" lon="22.985072">
        <ele>1265.2</ele>
        <time>2026-05-06T10:20:22.000Z</time>
      </trkpt>
      <trkpt lat="41.797246" lon="22.985074">
        <ele>1265.1</ele>
        <time>2026-05-06T10:20:23.000Z</time>
      </trkpt>
      <trkpt lat="41.797248" lon="22.985079">
        <ele>1265.1</ele>
        <time>2026-05-06T10:20:24.000Z</time>
      </trkpt>
      <trkpt lat="41.797249" lon="22.985088">
        <ele>1265.1</ele>
        <time>2026-05-06T10:20:25.000Z</time>
      </trkpt>
      <trkpt lat="41.797252" lon="22.985098">
        <ele>1265.1</ele>
        <time>2026-05-06T10:20:26.000Z</time>
      </trkpt>
      <trkpt lat="41.797254" lon="22.98511">
        <ele>1265.1</ele>
        <time>2026-05-06T10:20:27.000Z</time>
      </trkpt>
      <trkpt lat="41.797256" lon="22.985125">
        <ele>1265.1</ele>
        <time>2026-05-06T10:20:28.000Z</time>
      </trkpt>
      <trkpt lat="41.797257" lon="22.985139">
        <ele>1265.1</ele>
        <time>2026-05-06T10:20:29.000Z</time>
      </trkpt>
      <trkpt lat="41.797259" lon="22.985154">
        <ele>1265.1</ele>
        <time>2026-05-06T10:20:30.000Z</time>
      </trkpt>
      <trkpt lat="41.79726" lon="22.985169">
        <ele>1265.1</ele>
        <time>2026-05-06T10:20:31.000Z</time>
      </trkpt>
      <trkpt lat="41.797262" lon="22.985186">
        <ele>1265.1</ele>
        <time>2026-05-06T10:20:32.000Z</time>
      </trkpt>
      <trkpt lat="41.797265" lon="22.985201">
        <ele>1265.1</ele>
        <time>2026-05-06T10:20:33.000Z</time>
      </trkpt>
      <trkpt lat="41.797267" lon="22.985216">
        <ele>1265.1</ele>
        <time>2026-05-06T10:20:34.000Z</time>
      </trkpt>
      <trkpt lat="41.79727" lon="22.985231">
        <ele>1265.1</ele>
        <time>2026-05-06T10:20:35.000Z</time>
      </trkpt>
      <trkpt lat="41.797272" lon="22.985246">
        <ele>1265.1</ele>
        <time>2026-05-06T10:20:36.000Z</time>
      </trkpt>
      <trkpt lat="41.797275" lon="22.98526">
        <ele>1265.1</ele>
        <time>2026-05-06T10:20:37.000Z</time>
      </trkpt>
      <trkpt lat="41.797277" lon="22.985275">
        <ele>1264.6</ele>
        <time>2026-05-06T10:20:38.000Z</time>
      </trkpt>
      <trkpt lat="41.797279" lon="22.98529">
        <ele>1264.6</ele>
        <time>2026-05-06T10:20:39.000Z</time>
      </trkpt>
      <trkpt lat="41.79728" lon="22.985307">
        <ele>1264.6</ele>
        <time>2026-05-06T10:20:40.000Z</time>
      </trkpt>
      <trkpt lat="41.797281" lon="22.985324">
        <ele>1264.6</ele>
        <time>2026-05-06T10:20:41.000Z</time>
      </trkpt>
      <trkpt lat="41.797281" lon="22.985341">
        <ele>1264.6</ele>
        <time>2026-05-06T10:20:42.000Z</time>
      </trkpt>
      <trkpt lat="41.797281" lon="22.985358">
        <ele>1263.5</ele>
        <time>2026-05-06T10:20:43.000Z</time>
      </trkpt>
      <trkpt lat="41.797282" lon="22.985373">
        <ele>1263.5</ele>
        <time>2026-05-06T10:20:44.000Z</time>
      </trkpt>
      <trkpt lat="41.797285" lon="22.98539">
        <ele>1263.5</ele>
        <time>2026-05-06T10:20:45.000Z</time>
      </trkpt>
      <trkpt lat="41.797288" lon="22.985407">
        <ele>1263.5</ele>
        <time>2026-05-06T10:20:46.000Z</time>
      </trkpt>
      <trkpt lat="41.79729" lon="22.985424">
        <ele>1263.5</ele>
        <time>2026-05-06T10:20:47.000Z</time>
      </trkpt>
      <trkpt lat="41.797292" lon="22.985441">
        <ele>1262.9</ele>
        <time>2026-05-06T10:20:48.000Z</time>
      </trkpt>
      <trkpt lat="41.797294" lon="22.985458">
        <ele>1262.9</ele>
        <time>2026-05-06T10:20:49.000Z</time>
      </trkpt>
      <trkpt lat="41.797294" lon="22.985475">
        <ele>1262.9</ele>
        <time>2026-05-06T10:20:50.000Z</time>
      </trkpt>
      <trkpt lat="41.797292" lon="22.985491">
        <ele>1262.9</ele>
        <time>2026-05-06T10:20:51.000Z</time>
      </trkpt>
      <trkpt lat="41.797288" lon="22.985508">
        <ele>1262.9</ele>
        <time>2026-05-06T10:20:52.000Z</time>
      </trkpt>
      <trkpt lat="41.797285" lon="22.985524">
        <ele>1261.6</ele>
        <time>2026-05-06T10:20:53.000Z</time>
      </trkpt>
      <trkpt lat="41.797281" lon="22.98554">
        <ele>1261.6</ele>
        <time>2026-05-06T10:20:54.000Z</time>
      </trkpt>
      <trkpt lat="41.797277" lon="22.985555">
        <ele>1261.6</ele>
        <time>2026-05-06T10:20:55.000Z</time>
      </trkpt>
      <trkpt lat="41.797274" lon="22.985571">
        <ele>1261.6</ele>
        <time>2026-05-06T10:20:56.000Z</time>
      </trkpt>
      <trkpt lat="41.797269" lon="22.985587">
        <ele>1261.6</ele>
        <time>2026-05-06T10:20:57.000Z</time>
      </trkpt>
      <trkpt lat="41.797265" lon="22.985605">
        <ele>1260.7</ele>
        <time>2026-05-06T10:20:58.000Z</time>
      </trkpt>
      <trkpt lat="41.79726" lon="22.985622">
        <ele>1260.7</ele>
        <time>2026-05-06T10:20:59.000Z</time>
      </trkpt>
      <trkpt lat="41.797254" lon="22.98564">
        <ele>1260.7</ele>
        <time>2026-05-06T10:21:00.000Z</time>
      </trkpt>
      <trkpt lat="41.797247" lon="22.985657">
        <ele>1260.7</ele>
        <time>2026-05-06T10:21:01.000Z</time>
      </trkpt>
      <trkpt lat="41.797241" lon="22.985673">
        <ele>1260.7</ele>
        <time>2026-05-06T10:21:02.000Z</time>
      </trkpt>
      <trkpt lat="41.797232" lon="22.985689">
        <ele>1260.4</ele>
        <time>2026-05-06T10:21:03.000Z</time>
      </trkpt>
      <trkpt lat="41.797224" lon="22.985705">
        <ele>1260.4</ele>
        <time>2026-05-06T10:21:04.000Z</time>
      </trkpt>
      <trkpt lat="41.797215" lon="22.98572">
        <ele>1260.4</ele>
        <time>2026-05-06T10:21:05.000Z</time>
      </trkpt>
      <trkpt lat="41.797207" lon="22.985734">
        <ele>1260.4</ele>
        <time>2026-05-06T10:21:06.000Z</time>
      </trkpt>
      <trkpt lat="41.797199" lon="22.985748">
        <ele>1260.4</ele>
        <time>2026-05-06T10:21:07.000Z</time>
      </trkpt>
      <trkpt lat="41.797193" lon="22.985762">
        <ele>1259.9</ele>
        <time>2026-05-06T10:21:08.000Z</time>
      </trkpt>
      <trkpt lat="41.797188" lon="22.985775">
        <ele>1259.9</ele>
        <time>2026-05-06T10:21:09.000Z</time>
      </trkpt>
      <trkpt lat="41.797183" lon="22.985789">
        <ele>1259.9</ele>
        <time>2026-05-06T10:21:10.000Z</time>
      </trkpt>
      <trkpt lat="41.797179" lon="22.985804">
        <ele>1259.9</ele>
        <time>2026-05-06T10:21:11.000Z</time>
      </trkpt>
      <trkpt lat="41.797175" lon="22.985817">
        <ele>1259.9</ele>
        <time>2026-05-06T10:21:12.000Z</time>
      </trkpt>
      <trkpt lat="41.797171" lon="22.98583">
        <ele>1258.9</ele>
        <time>2026-05-06T10:21:13.000Z</time>
      </trkpt>
      <trkpt lat="41.797166" lon="22.985841">
        <ele>1258.9</ele>
        <time>2026-05-06T10:21:14.000Z</time>
      </trkpt>
      <trkpt lat="41.797161" lon="22.985853">
        <ele>1258.9</ele>
        <time>2026-05-06T10:21:15.000Z</time>
      </trkpt>
      <trkpt lat="41.797157" lon="22.985865">
        <ele>1258.9</ele>
        <time>2026-05-06T10:21:16.000Z</time>
      </trkpt>
      <trkpt lat="41.797153" lon="22.985878">
        <ele>1258.9</ele>
        <time>2026-05-06T10:21:17.000Z</time>
      </trkpt>
      <trkpt lat="41.79715" lon="22.985892">
        <ele>1258.2</ele>
        <time>2026-05-06T10:21:18.000Z</time>
      </trkpt>
      <trkpt lat="41.797148" lon="22.985907">
        <ele>1258.2</ele>
        <time>2026-05-06T10:21:19.000Z</time>
      </trkpt>
      <trkpt lat="41.797147" lon="22.985921">
        <ele>1258.2</ele>
        <time>2026-05-06T10:21:20.000Z</time>
      </trkpt>
      <trkpt lat="41.797146" lon="22.985936">
        <ele>1258.2</ele>
        <time>2026-05-06T10:21:21.000Z</time>
      </trkpt>
      <trkpt lat="41.797144" lon="22.98595">
        <ele>1258.2</ele>
        <time>2026-05-06T10:21:22.000Z</time>
      </trkpt>
      <trkpt lat="41.797142" lon="22.985964">
        <ele>1256.5</ele>
        <time>2026-05-06T10:21:23.000Z</time>
      </trkpt>
      <trkpt lat="41.79714" lon="22.985978">
        <ele>1256.5</ele>
        <time>2026-05-06T10:21:24.000Z</time>
      </trkpt>
      <trkpt lat="41.797137" lon="22.98599">
        <ele>1256.5</ele>
        <time>2026-05-06T10:21:25.000Z</time>
      </trkpt>
      <trkpt lat="41.797134" lon="22.986002">
        <ele>1256.5</ele>
        <time>2026-05-06T10:21:26.000Z</time>
      </trkpt>
      <trkpt lat="41.797132" lon="22.986011">
        <ele>1256.5</ele>
        <time>2026-05-06T10:21:27.000Z</time>
      </trkpt>
      <trkpt lat="41.79713" lon="22.986021">
        <ele>1254.7</ele>
        <time>2026-05-06T10:21:28.000Z</time>
      </trkpt>
      <trkpt lat="41.797129" lon="22.986031">
        <ele>1254.7</ele>
        <time>2026-05-06T10:21:29.000Z</time>
      </trkpt>
      <trkpt lat="41.797129" lon="22.986043">
        <ele>1254.7</ele>
        <time>2026-05-06T10:21:30.000Z</time>
      </trkpt>
      <trkpt lat="41.797129" lon="22.986055">
        <ele>1254.7</ele>
        <time>2026-05-06T10:21:31.000Z</time>
      </trkpt>
      <trkpt lat="41.797127" lon="22.986068">
        <ele>1254.7</ele>
        <time>2026-05-06T10:21:32.000Z</time>
      </trkpt>
      <trkpt lat="41.797127" lon="22.986083">
        <ele>1253.7</ele>
        <time>2026-05-06T10:21:33.000Z</time>
      </trkpt>
      <trkpt lat="41.797127" lon="22.986097">
        <ele>1253.7</ele>
        <time>2026-05-06T10:21:34.000Z</time>
      </trkpt>
      <trkpt lat="41.797127" lon="22.986111">
        <ele>1253.7</ele>
        <time>2026-05-06T10:21:35.000Z</time>
      </trkpt>
      <trkpt lat="41.797127" lon="22.986125">
        <ele>1253.7</ele>
        <time>2026-05-06T10:21:36.000Z</time>
      </trkpt>
      <trkpt lat="41.797129" lon="22.98614">
        <ele>1253.7</ele>
        <time>2026-05-06T10:21:37.000Z</time>
      </trkpt>
      <trkpt lat="41.79713" lon="22.986154">
        <ele>1251.8</ele>
        <time>2026-05-06T10:21:38.000Z</time>
      </trkpt>
      <trkpt lat="41.797133" lon="22.986169">
        <ele>1251.8</ele>
        <time>2026-05-06T10:21:39.000Z</time>
      </trkpt>
      <trkpt lat="41.797137" lon="22.986183">
        <ele>1251.8</ele>
        <time>2026-05-06T10:21:40.000Z</time>
      </trkpt>
      <trkpt lat="41.797141" lon="22.986197">
        <ele>1251.8</ele>
        <time>2026-05-06T10:21:41.000Z</time>
      </trkpt>
      <trkpt lat="41.797145" lon="22.986211">
        <ele>1251.8</ele>
        <time>2026-05-06T10:21:42.000Z</time>
      </trkpt>
      <trkpt lat="41.79715" lon="22.986224">
        <ele>1249.9</ele>
        <time>2026-05-06T10:21:43.000Z</time>
      </trkpt>
      <trkpt lat="41.797154" lon="22.986236">
        <ele>1249.9</ele>
        <time>2026-05-06T10:21:44.000Z</time>
      </trkpt>
      <trkpt lat="41.797156" lon="22.986248">
        <ele>1249.9</ele>
        <time>2026-05-06T10:21:45.000Z</time>
      </trkpt>
      <trkpt lat="41.797159" lon="22.98626">
        <ele>1249.9</ele>
        <time>2026-05-06T10:21:46.000Z</time>
      </trkpt>
      <trkpt lat="41.797162" lon="22.98627">
        <ele>1249.9</ele>
        <time>2026-05-06T10:21:47.000Z</time>
      </trkpt>
      <trkpt lat="41.797166" lon="22.986282">
        <ele>1249</ele>
        <time>2026-05-06T10:21:48.000Z</time>
      </trkpt>
      <trkpt lat="41.79717" lon="22.986295">
        <ele>1249</ele>
        <time>2026-05-06T10:21:49.000Z</time>
      </trkpt>
      <trkpt lat="41.797177" lon="22.986308">
        <ele>1249</ele>
        <time>2026-05-06T10:21:50.000Z</time>
      </trkpt>
      <trkpt lat="41.797183" lon="22.986321">
        <ele>1249</ele>
        <time>2026-05-06T10:21:51.000Z</time>
      </trkpt>
      <trkpt lat="41.797191" lon="22.986334">
        <ele>1249</ele>
        <time>2026-05-06T10:21:52.000Z</time>
      </trkpt>
      <trkpt lat="41.797199" lon="22.986347">
        <ele>1247.1</ele>
        <time>2026-05-06T10:21:53.000Z</time>
      </trkpt>
      <trkpt lat="41.797209" lon="22.986359">
        <ele>1247.1</ele>
        <time>2026-05-06T10:21:54.000Z</time>
      </trkpt>
      <trkpt lat="41.79722" lon="22.986371">
        <ele>1247.1</ele>
        <time>2026-05-06T10:21:55.000Z</time>
      </trkpt>
      <trkpt lat="41.797231" lon="22.986385">
        <ele>1247.1</ele>
        <time>2026-05-06T10:21:56.000Z</time>
      </trkpt>
      <trkpt lat="41.797242" lon="22.986398">
        <ele>1247.1</ele>
        <time>2026-05-06T10:21:57.000Z</time>
      </trkpt>
      <trkpt lat="41.797255" lon="22.986411">
        <ele>1245.4</ele>
        <time>2026-05-06T10:21:58.000Z</time>
      </trkpt>
      <trkpt lat="41.797267" lon="22.986424">
        <ele>1245.4</ele>
        <time>2026-05-06T10:21:59.000Z</time>
      </trkpt>
      <trkpt lat="41.797279" lon="22.986436">
        <ele>1245.4</ele>
        <time>2026-05-06T10:22:00.000Z</time>
      </trkpt>
      <trkpt lat="41.797291" lon="22.986447">
        <ele>1245.4</ele>
        <time>2026-05-06T10:22:01.000Z</time>
      </trkpt>
      <trkpt lat="41.797303" lon="22.986458">
        <ele>1245.4</ele>
        <time>2026-05-06T10:22:02.000Z</time>
      </trkpt>
      <trkpt lat="41.797314" lon="22.98647">
        <ele>1244.7</ele>
        <time>2026-05-06T10:22:03.000Z</time>
      </trkpt>
      <trkpt lat="41.797324" lon="22.986481">
        <ele>1244.7</ele>
        <time>2026-05-06T10:22:04.000Z</time>
      </trkpt>
      <trkpt lat="41.797331" lon="22.986494">
        <ele>1244.7</ele>
        <time>2026-05-06T10:22:05.000Z</time>
      </trkpt>
      <trkpt lat="41.797338" lon="22.986507">
        <ele>1244.7</ele>
        <time>2026-05-06T10:22:06.000Z</time>
      </trkpt>
      <trkpt lat="41.797344" lon="22.986521">
        <ele>1244.7</ele>
        <time>2026-05-06T10:22:07.000Z</time>
      </trkpt>
      <trkpt lat="41.797346" lon="22.986536">
        <ele>1243.3</ele>
        <time>2026-05-06T10:22:08.000Z</time>
      </trkpt>
      <trkpt lat="41.797347" lon="22.986552">
        <ele>1243.3</ele>
        <time>2026-05-06T10:22:09.000Z</time>
      </trkpt>
      <trkpt lat="41.797347" lon="22.986566">
        <ele>1243.3</ele>
        <time>2026-05-06T10:22:10.000Z</time>
      </trkpt>
      <trkpt lat="41.797344" lon="22.986578">
        <ele>1243.3</ele>
        <time>2026-05-06T10:22:11.000Z</time>
      </trkpt>
      <trkpt lat="41.79734" lon="22.986587">
        <ele>1243.3</ele>
        <time>2026-05-06T10:22:12.000Z</time>
      </trkpt>
      <trkpt lat="41.797337" lon="22.986593">
        <ele>1242.2</ele>
        <time>2026-05-06T10:22:13.000Z</time>
      </trkpt>
      <trkpt lat="41.797335" lon="22.986596">
        <ele>1242.2</ele>
        <time>2026-05-06T10:22:14.000Z</time>
      </trkpt>
      <trkpt lat="41.797333" lon="22.986598">
        <ele>1242.2</ele>
        <time>2026-05-06T10:22:15.000Z</time>
      </trkpt>
      <trkpt lat="41.797332" lon="22.9866">
        <ele>1242.2</ele>
        <time>2026-05-06T10:22:16.000Z</time>
      </trkpt>
      <trkpt lat="41.797333" lon="22.986602">
        <ele>1242.2</ele>
        <time>2026-05-06T10:22:17.000Z</time>
      </trkpt>
      <trkpt lat="41.797333" lon="22.986603">
        <ele>1241.7</ele>
        <time>2026-05-06T10:22:18.000Z</time>
      </trkpt>
      <trkpt lat="41.797334" lon="22.986605">
        <ele>1241.7</ele>
        <time>2026-05-06T10:22:19.000Z</time>
      </trkpt>
      <trkpt lat="41.797334" lon="22.986607">
        <ele>1241.7</ele>
        <time>2026-05-06T10:22:20.000Z</time>
      </trkpt>
      <trkpt lat="41.797334" lon="22.986607">
        <ele>1241.7</ele>
        <time>2026-05-06T10:22:21.000Z</time>
      </trkpt>
      <trkpt lat="41.797335" lon="22.986607">
        <ele>1241.7</ele>
        <time>2026-05-06T10:22:22.000Z</time>
      </trkpt>
      <trkpt lat="41.797337" lon="22.986608">
        <ele>1241.4</ele>
        <time>2026-05-06T10:22:23.000Z</time>
      </trkpt>
      <trkpt lat="41.797341" lon="22.986611">
        <ele>1241.4</ele>
        <time>2026-05-06T10:22:24.000Z</time>
      </trkpt>
      <trkpt lat="41.797344" lon="22.986616">
        <ele>1241.4</ele>
        <time>2026-05-06T10:22:25.000Z</time>
      </trkpt>
      <trkpt lat="41.797347" lon="22.986624">
        <ele>1241.4</ele>
        <time>2026-05-06T10:22:26.000Z</time>
      </trkpt>
      <trkpt lat="41.797349" lon="22.986631">
        <ele>1241.4</ele>
        <time>2026-05-06T10:22:27.000Z</time>
      </trkpt>
      <trkpt lat="41.797349" lon="22.986638">
        <ele>1241.5</ele>
        <time>2026-05-06T10:22:28.000Z</time>
      </trkpt>
      <trkpt lat="41.79735" lon="22.986642">
        <ele>1241.5</ele>
        <time>2026-05-06T10:22:29.000Z</time>
      </trkpt>
      <trkpt lat="41.79735" lon="22.986644">
        <ele>1241.5</ele>
        <time>2026-05-06T10:22:30.000Z</time>
      </trkpt>
      <trkpt lat="41.797351" lon="22.986645">
        <ele>1241.5</ele>
        <time>2026-05-06T10:22:31.000Z</time>
      </trkpt>
      <trkpt lat="41.797351" lon="22.986645">
        <ele>1241.5</ele>
        <time>2026-05-06T10:22:32.000Z</time>
      </trkpt>
      <trkpt lat="41.797351" lon="22.986644">
        <ele>1241.5</ele>
        <time>2026-05-06T10:22:33.000Z</time>
      </trkpt>
      <trkpt lat="41.797351" lon="22.986644">
        <ele>1241.5</ele>
        <time>2026-05-06T10:22:34.000Z</time>
      </trkpt>
      <trkpt lat="41.79735" lon="22.986644">
        <ele>1241.5</ele>
        <time>2026-05-06T10:22:35.000Z</time>
      </trkpt>
      <trkpt lat="41.797349" lon="22.986644">
        <ele>1241.5</ele>
        <time>2026-05-06T10:22:36.000Z</time>
      </trkpt>
      <trkpt lat="41.797348" lon="22.986644">
        <ele>1241.5</ele>
        <time>2026-05-06T10:22:37.000Z</time>
      </trkpt>
      <trkpt lat="41.797347" lon="22.986644">
        <ele>1241.2</ele>
        <time>2026-05-06T10:22:38.000Z</time>
      </trkpt>
      <trkpt lat="41.797347" lon="22.986645">
        <ele>1241.2</ele>
        <time>2026-05-06T10:22:39.000Z</time>
      </trkpt>
      <trkpt lat="41.797347" lon="22.986645">
        <ele>1241.2</ele>
        <time>2026-05-06T10:22:40.000Z</time>
      </trkpt>
      <trkpt lat="41.797347" lon="22.986645">
        <ele>1241.2</ele>
        <time>2026-05-06T10:22:41.000Z</time>
      </trkpt>
      <trkpt lat="41.797347" lon="22.986645">
        <ele>1241.2</ele>
        <time>2026-05-06T10:22:42.000Z</time>
      </trkpt>
      <trkpt lat="41.797347" lon="22.986645">
        <ele>1240.8</ele>
        <time>2026-05-06T10:22:43.000Z</time>
      </trkpt>
      <trkpt lat="41.797347" lon="22.986645">
        <ele>1240.8</ele>
        <time>2026-05-06T10:22:44.000Z</time>
      </trkpt>
      <trkpt lat="41.797347" lon="22.986645">
        <ele>1240.8</ele>
        <time>2026-05-06T10:22:45.000Z</time>
      </trkpt>
      <trkpt lat="41.797347" lon="22.986645">
        <ele>1240.8</ele>
        <time>2026-05-06T10:22:46.000Z</time>
      </trkpt>
      <trkpt lat="41.797347" lon="22.986645">
        <ele>1240.8</ele>
        <time>2026-05-06T10:22:47.000Z</time>
      </trkpt>
      <trkpt lat="41.797347" lon="22.986645">
        <ele>1240.7</ele>
        <time>2026-05-06T10:22:48.000Z</time>
      </trkpt>
      <trkpt lat="41.797347" lon="22.986645">
        <ele>1240.7</ele>
        <time>2026-05-06T10:22:49.000Z</time>
      </trkpt>
      <trkpt lat="41.797347" lon="22.986645">
        <ele>1240.7</ele>
        <time>2026-05-06T10:22:50.000Z</time>
      </trkpt>
      <trkpt lat="41.797347" lon="22.986645">
        <ele>1240.7</ele>
        <time>2026-05-06T10:22:51.000Z</time>
      </trkpt>
      <trkpt lat="41.797347" lon="22.986645">
        <ele>1240.7</ele>
        <time>2026-05-06T10:22:52.000Z</time>
      </trkpt>
      <trkpt lat="41.797347" lon="22.986645">
        <ele>1240.5</ele>
        <time>2026-05-06T10:22:53.000Z</time>
      </trkpt>
      <trkpt lat="41.797347" lon="22.986645">
        <ele>1240.5</ele>
        <time>2026-05-06T10:22:54.000Z</time>
      </trkpt>
      <trkpt lat="41.797347" lon="22.986645">
        <ele>1240.5</ele>
        <time>2026-05-06T10:22:55.000Z</time>
      </trkpt>
      <trkpt lat="41.797347" lon="22.986645">
        <ele>1240.5</ele>
        <time>2026-05-06T10:22:56.000Z</time>
      </trkpt>
      <trkpt lat="41.797347" lon="22.986645">
        <ele>1240.5</ele>
        <time>2026-05-06T10:22:57.000Z</time>
      </trkpt>
      <trkpt lat="41.797347" lon="22.986645">
        <ele>1240.5</ele>
        <time>2026-05-06T10:22:58.000Z</time>
      </trkpt>
      <trkpt lat="41.797347" lon="22.986645">
        <ele>1240.5</ele>
        <time>2026-05-06T10:22:59.000Z</time>
      </trkpt>
      <trkpt lat="41.797347" lon="22.986645">
        <ele>1240.5</ele>
        <time>2026-05-06T10:23:00.000Z</time>
      </trkpt>
      <trkpt lat="41.797347" lon="22.986645">
        <ele>1240.5</ele>
        <time>2026-05-06T10:23:01.000Z</time>
      </trkpt>
      <trkpt lat="41.797347" lon="22.986645">
        <ele>1240.5</ele>
        <time>2026-05-06T10:23:02.000Z</time>
      </trkpt>
      <trkpt lat="41.797347" lon="22.986645">
        <ele>1240.5</ele>
        <time>2026-05-06T10:23:03.000Z</time>
      </trkpt>
      <trkpt lat="41.797346" lon="22.986645">
        <ele>1240.5</ele>
        <time>2026-05-06T10:23:04.000Z</time>
      </trkpt>
      <trkpt lat="41.797346" lon="22.986645">
        <ele>1240.5</ele>
        <time>2026-05-06T10:23:05.000Z</time>
      </trkpt>
      <trkpt lat="41.797346" lon="22.986645">
        <ele>1240.5</ele>
        <time>2026-05-06T10:23:06.000Z</time>
      </trkpt>
      <trkpt lat="41.797347" lon="22.986645">
        <ele>1240.5</ele>
        <time>2026-05-06T10:23:07.000Z</time>
      </trkpt>
      <trkpt lat="41.797347" lon="22.986645">
        <ele>1240.7</ele>
        <time>2026-05-06T10:23:08.000Z</time>
      </trkpt>
      <trkpt lat="41.797348" lon="22.986645">
        <ele>1240.7</ele>
        <time>2026-05-06T10:23:09.000Z</time>
      </trkpt>
      <trkpt lat="41.797348" lon="22.986645">
        <ele>1240.7</ele>
        <time>2026-05-06T10:23:10.000Z</time>
      </trkpt>
      <trkpt lat="41.797348" lon="22.986645">
        <ele>1240.7</ele>
        <time>2026-05-06T10:23:11.000Z</time>
      </trkpt>
      <trkpt lat="41.797348" lon="22.986645">
        <ele>1240.7</ele>
        <time>2026-05-06T10:23:12.000Z</time>
      </trkpt>
      <trkpt lat="41.797348" lon="22.986645">
        <ele>1240.9</ele>
        <time>2026-05-06T10:23:13.000Z</time>
      </trkpt>
      <trkpt lat="41.797348" lon="22.986645">
        <ele>1240.9</ele>
        <time>2026-05-06T10:23:14.000Z</time>
      </trkpt>
      <trkpt lat="41.797348" lon="22.986645">
        <ele>1240.9</ele>
        <time>2026-05-06T10:23:15.000Z</time>
      </trkpt>
      <trkpt lat="41.797349" lon="22.986645">
        <ele>1240.9</ele>
        <time>2026-05-06T10:23:16.000Z</time>
      </trkpt>
      <trkpt lat="41.797349" lon="22.986646">
        <ele>1240.9</ele>
        <time>2026-05-06T10:23:17.000Z</time>
      </trkpt>
      <trkpt lat="41.797349" lon="22.986646">
        <ele>1241</ele>
        <time>2026-05-06T10:23:18.000Z</time>
      </trkpt>
      <trkpt lat="41.797348" lon="22.986647">
        <ele>1241</ele>
        <time>2026-05-06T10:23:19.000Z</time>
      </trkpt>
      <trkpt lat="41.797348" lon="22.986647">
        <ele>1241</ele>
        <time>2026-05-06T10:23:20.000Z</time>
      </trkpt>
      <trkpt lat="41.797347" lon="22.986648">
        <ele>1241</ele>
        <time>2026-05-06T10:23:21.000Z</time>
      </trkpt>
      <trkpt lat="41.797346" lon="22.98665">
        <ele>1241</ele>
        <time>2026-05-06T10:23:22.000Z</time>
      </trkpt>
      <trkpt lat="41.797346" lon="22.986651">
        <ele>1241</ele>
        <time>2026-05-06T10:23:23.000Z</time>
      </trkpt>
      <trkpt lat="41.797346" lon="22.986652">
        <ele>1241</ele>
        <time>2026-05-06T10:23:24.000Z</time>
      </trkpt>
      <trkpt lat="41.797346" lon="22.986654">
        <ele>1241</ele>
        <time>2026-05-06T10:23:25.000Z</time>
      </trkpt>
      <trkpt lat="41.797347" lon="22.986657">
        <ele>1241</ele>
        <time>2026-05-06T10:23:26.000Z</time>
      </trkpt>
      <trkpt lat="41.797346" lon="22.986659">
        <ele>1241</ele>
        <time>2026-05-06T10:23:27.000Z</time>
      </trkpt>
      <trkpt lat="41.797345" lon="22.986662">
        <ele>1241</ele>
        <time>2026-05-06T10:23:28.000Z</time>
      </trkpt>
      <trkpt lat="41.797343" lon="22.986663">
        <ele>1241</ele>
        <time>2026-05-06T10:23:29.000Z</time>
      </trkpt>
      <trkpt lat="41.79734" lon="22.986663">
        <ele>1241</ele>
        <time>2026-05-06T10:23:30.000Z</time>
      </trkpt>
      <trkpt lat="41.797338" lon="22.986663">
        <ele>1241</ele>
        <time>2026-05-06T10:23:31.000Z</time>
      </trkpt>
      <trkpt lat="41.797335" lon="22.986662">
        <ele>1241</ele>
        <time>2026-05-06T10:23:32.000Z</time>
      </trkpt>
      <trkpt lat="41.797334" lon="22.98666">
        <ele>1241</ele>
        <time>2026-05-06T10:23:33.000Z</time>
      </trkpt>
      <trkpt lat="41.797332" lon="22.986659">
        <ele>1241</ele>
        <time>2026-05-06T10:23:34.000Z</time>
      </trkpt>
      <trkpt lat="41.79733" lon="22.98666">
        <ele>1241</ele>
        <time>2026-05-06T10:23:35.000Z</time>
      </trkpt>
      <trkpt lat="41.797328" lon="22.98666">
        <ele>1241</ele>
        <time>2026-05-06T10:23:36.000Z</time>
      </trkpt>
      <trkpt lat="41.797328" lon="22.986661">
        <ele>1241</ele>
        <time>2026-05-06T10:23:37.000Z</time>
      </trkpt>
      <trkpt lat="41.797327" lon="22.986664">
        <ele>1241.2</ele>
        <time>2026-05-06T10:23:38.000Z</time>
      </trkpt>
      <trkpt lat="41.797325" lon="22.986668">
        <ele>1241.2</ele>
        <time>2026-05-06T10:23:39.000Z</time>
      </trkpt>
      <trkpt lat="41.797322" lon="22.986674">
        <ele>1241.2</ele>
        <time>2026-05-06T10:23:40.000Z</time>
      </trkpt>
      <trkpt lat="41.797319" lon="22.986678">
        <ele>1241.2</ele>
        <time>2026-05-06T10:23:41.000Z</time>
      </trkpt>
      <trkpt lat="41.797315" lon="22.986681">
        <ele>1241.2</ele>
        <time>2026-05-06T10:23:42.000Z</time>
      </trkpt>
      <trkpt lat="41.797312" lon="22.986683">
        <ele>1241.4</ele>
        <time>2026-05-06T10:23:43.000Z</time>
      </trkpt>
      <trkpt lat="41.797311" lon="22.986683">
        <ele>1241.4</ele>
        <time>2026-05-06T10:23:44.000Z</time>
      </trkpt>
      <trkpt lat="41.797311" lon="22.986682">
        <ele>1241.4</ele>
        <time>2026-05-06T10:23:45.000Z</time>
      </trkpt>
      <trkpt lat="41.797312" lon="22.986681">
        <ele>1241.4</ele>
        <time>2026-05-06T10:23:46.000Z</time>
      </trkpt>
      <trkpt lat="41.797312" lon="22.986681">
        <ele>1241.4</ele>
        <time>2026-05-06T10:23:47.000Z</time>
      </trkpt>
      <trkpt lat="41.797312" lon="22.986681">
        <ele>1241.4</ele>
        <time>2026-05-06T10:23:48.000Z</time>
      </trkpt>
      <trkpt lat="41.797313" lon="22.986681">
        <ele>1241.4</ele>
        <time>2026-05-06T10:23:49.000Z</time>
      </trkpt>
      <trkpt lat="41.797313" lon="22.986681">
        <ele>1241.4</ele>
        <time>2026-05-06T10:23:50.000Z</time>
      </trkpt>
      <trkpt lat="41.797313" lon="22.986681">
        <ele>1241.4</ele>
        <time>2026-05-06T10:23:51.000Z</time>
      </trkpt>
      <trkpt lat="41.797313" lon="22.986681">
        <ele>1241.4</ele>
        <time>2026-05-06T10:23:52.000Z</time>
      </trkpt>
      <trkpt lat="41.797313" lon="22.986681">
        <ele>1241.4</ele>
        <time>2026-05-06T10:23:53.000Z</time>
      </trkpt>
      <trkpt lat="41.797314" lon="22.98668">
        <ele>1241.4</ele>
        <time>2026-05-06T10:23:54.000Z</time>
      </trkpt>
      <trkpt lat="41.797316" lon="22.986679">
        <ele>1241.4</ele>
        <time>2026-05-06T10:23:55.000Z</time>
      </trkpt>
      <trkpt lat="41.797318" lon="22.986677">
        <ele>1241.4</ele>
        <time>2026-05-06T10:23:56.000Z</time>
      </trkpt>
      <trkpt lat="41.79732" lon="22.986675">
        <ele>1241.4</ele>
        <time>2026-05-06T10:23:57.000Z</time>
      </trkpt>
      <trkpt lat="41.797322" lon="22.986672">
        <ele>1241.4</ele>
        <time>2026-05-06T10:23:58.000Z</time>
      </trkpt>
      <trkpt lat="41.797324" lon="22.98667">
        <ele>1241.4</ele>
        <time>2026-05-06T10:23:59.000Z</time>
      </trkpt>
      <trkpt lat="41.797324" lon="22.98667">
        <ele>1241.4</ele>
        <time>2026-05-06T10:24:00.000Z</time>
      </trkpt>
      <trkpt lat="41.797324" lon="22.986672">
        <ele>1241.4</ele>
        <time>2026-05-06T10:24:01.000Z</time>
      </trkpt>
      <trkpt lat="41.797325" lon="22.986674">
        <ele>1241.4</ele>
        <time>2026-05-06T10:24:02.000Z</time>
      </trkpt>
      <trkpt lat="41.797323" lon="22.986679">
        <ele>1241.3</ele>
        <time>2026-05-06T10:24:03.000Z</time>
      </trkpt>
      <trkpt lat="41.797319" lon="22.986683">
        <ele>1241.3</ele>
        <time>2026-05-06T10:24:04.000Z</time>
      </trkpt>
      <trkpt lat="41.797314" lon="22.986685">
        <ele>1241.3</ele>
        <time>2026-05-06T10:24:05.000Z</time>
      </trkpt>
      <trkpt lat="41.797309" lon="22.986686">
        <ele>1241.3</ele>
        <time>2026-05-06T10:24:06.000Z</time>
      </trkpt>
      <trkpt lat="41.797302" lon="22.986686">
        <ele>1241.3</ele>
        <time>2026-05-06T10:24:07.000Z</time>
      </trkpt>
      <trkpt lat="41.797298" lon="22.986682">
        <ele>1241.2</ele>
        <time>2026-05-06T10:24:08.000Z</time>
      </trkpt>
      <trkpt lat="41.797295" lon="22.98668">
        <ele>1241.2</ele>
        <time>2026-05-06T10:24:09.000Z</time>
      </trkpt>
      <trkpt lat="41.797291" lon="22.986677">
        <ele>1241.2</ele>
        <time>2026-05-06T10:24:10.000Z</time>
      </trkpt>
      <trkpt lat="41.797285" lon="22.986674">
        <ele>1241.2</ele>
        <time>2026-05-06T10:24:11.000Z</time>
      </trkpt>
      <trkpt lat="41.797279" lon="22.986672">
        <ele>1241.2</ele>
        <time>2026-05-06T10:24:12.000Z</time>
      </trkpt>
      <trkpt lat="41.79727" lon="22.986671">
        <ele>1241.3</ele>
        <time>2026-05-06T10:24:13.000Z</time>
      </trkpt>
      <trkpt lat="41.797262" lon="22.986669">
        <ele>1241.3</ele>
        <time>2026-05-06T10:24:14.000Z</time>
      </trkpt>
      <trkpt lat="41.797254" lon="22.986668">
        <ele>1241.3</ele>
        <time>2026-05-06T10:24:15.000Z</time>
      </trkpt>
      <trkpt lat="41.797247" lon="22.986668">
        <ele>1241.3</ele>
        <time>2026-05-06T10:24:16.000Z</time>
      </trkpt>
      <trkpt lat="41.797241" lon="22.986666">
        <ele>1241.3</ele>
        <time>2026-05-06T10:24:17.000Z</time>
      </trkpt>
      <trkpt lat="41.797236" lon="22.986664">
        <ele>1241.4</ele>
        <time>2026-05-06T10:24:18.000Z</time>
      </trkpt>
      <trkpt lat="41.79723" lon="22.986663">
        <ele>1241.4</ele>
        <time>2026-05-06T10:24:19.000Z</time>
      </trkpt>
      <trkpt lat="41.797224" lon="22.98666">
        <ele>1241.4</ele>
        <time>2026-05-06T10:24:20.000Z</time>
      </trkpt>
      <trkpt lat="41.797218" lon="22.986658">
        <ele>1241.4</ele>
        <time>2026-05-06T10:24:21.000Z</time>
      </trkpt>
      <trkpt lat="41.797211" lon="22.986655">
        <ele>1241.4</ele>
        <time>2026-05-06T10:24:22.000Z</time>
      </trkpt>
      <trkpt lat="41.797204" lon="22.986654">
        <ele>1242</ele>
        <time>2026-05-06T10:24:23.000Z</time>
      </trkpt>
      <trkpt lat="41.797196" lon="22.986653">
        <ele>1242</ele>
        <time>2026-05-06T10:24:24.000Z</time>
      </trkpt>
      <trkpt lat="41.797189" lon="22.986653">
        <ele>1242</ele>
        <time>2026-05-06T10:24:25.000Z</time>
      </trkpt>
      <trkpt lat="41.797183" lon="22.986653">
        <ele>1242</ele>
        <time>2026-05-06T10:24:26.000Z</time>
      </trkpt>
      <trkpt lat="41.797176" lon="22.986652">
        <ele>1242</ele>
        <time>2026-05-06T10:24:27.000Z</time>
      </trkpt>
      <trkpt lat="41.797169" lon="22.986652">
        <ele>1242.7</ele>
        <time>2026-05-06T10:24:28.000Z</time>
      </trkpt>
      <trkpt lat="41.797163" lon="22.986651">
        <ele>1242.7</ele>
        <time>2026-05-06T10:24:29.000Z</time>
      </trkpt>
      <trkpt lat="41.797157" lon="22.98665">
        <ele>1242.7</ele>
        <time>2026-05-06T10:24:30.000Z</time>
      </trkpt>
      <trkpt lat="41.797151" lon="22.986648">
        <ele>1242.7</ele>
        <time>2026-05-06T10:24:31.000Z</time>
      </trkpt>
      <trkpt lat="41.797144" lon="22.986648">
        <ele>1242.7</ele>
        <time>2026-05-06T10:24:32.000Z</time>
      </trkpt>
      <trkpt lat="41.797137" lon="22.986648">
        <ele>1243.1</ele>
        <time>2026-05-06T10:24:33.000Z</time>
      </trkpt>
      <trkpt lat="41.797131" lon="22.986648">
        <ele>1243.1</ele>
        <time>2026-05-06T10:24:34.000Z</time>
      </trkpt>
      <trkpt lat="41.797126" lon="22.986649">
        <ele>1243.1</ele>
        <time>2026-05-06T10:24:35.000Z</time>
      </trkpt>
      <trkpt lat="41.797123" lon="22.98665">
        <ele>1243.1</ele>
        <time>2026-05-06T10:24:36.000Z</time>
      </trkpt>
      <trkpt lat="41.79712" lon="22.986649">
        <ele>1243.1</ele>
        <time>2026-05-06T10:24:37.000Z</time>
      </trkpt>
      <trkpt lat="41.797118" lon="22.986648">
        <ele>1243.9</ele>
        <time>2026-05-06T10:24:38.000Z</time>
      </trkpt>
      <trkpt lat="41.797115" lon="22.986646">
        <ele>1243.9</ele>
        <time>2026-05-06T10:24:39.000Z</time>
      </trkpt>
      <trkpt lat="41.797112" lon="22.986643">
        <ele>1243.9</ele>
        <time>2026-05-06T10:24:40.000Z</time>
      </trkpt>
      <trkpt lat="41.797108" lon="22.98664">
        <ele>1243.9</ele>
        <time>2026-05-06T10:24:41.000Z</time>
      </trkpt>
      <trkpt lat="41.797104" lon="22.986637">
        <ele>1243.9</ele>
        <time>2026-05-06T10:24:42.000Z</time>
      </trkpt>
      <trkpt lat="41.797099" lon="22.986634">
        <ele>1244.6</ele>
        <time>2026-05-06T10:24:43.000Z</time>
      </trkpt>
      <trkpt lat="41.797094" lon="22.986632">
        <ele>1244.6</ele>
        <time>2026-05-06T10:24:44.000Z</time>
      </trkpt>
      <trkpt lat="41.797088" lon="22.98663">
        <ele>1244.6</ele>
        <time>2026-05-06T10:24:45.000Z</time>
      </trkpt>
      <trkpt lat="41.797081" lon="22.986629">
        <ele>1244.6</ele>
        <time>2026-05-06T10:24:46.000Z</time>
      </trkpt>
      <trkpt lat="41.797073" lon="22.986627">
        <ele>1244.6</ele>
        <time>2026-05-06T10:24:47.000Z</time>
      </trkpt>
      <trkpt lat="41.797064" lon="22.986624">
        <ele>1245</ele>
        <time>2026-05-06T10:24:48.000Z</time>
      </trkpt>
      <trkpt lat="41.797055" lon="22.986621">
        <ele>1245</ele>
        <time>2026-05-06T10:24:49.000Z</time>
      </trkpt>
      <trkpt lat="41.797047" lon="22.98662">
        <ele>1245</ele>
        <time>2026-05-06T10:24:50.000Z</time>
      </trkpt>
      <trkpt lat="41.797038" lon="22.986619">
        <ele>1245</ele>
        <time>2026-05-06T10:24:51.000Z</time>
      </trkpt>
      <trkpt lat="41.797031" lon="22.986617">
        <ele>1245</ele>
        <time>2026-05-06T10:24:52.000Z</time>
      </trkpt>
      <trkpt lat="41.797024" lon="22.986615">
        <ele>1245.5</ele>
        <time>2026-05-06T10:24:53.000Z</time>
      </trkpt>
      <trkpt lat="41.797019" lon="22.986612">
        <ele>1245.5</ele>
        <time>2026-05-06T10:24:54.000Z</time>
      </trkpt>
      <trkpt lat="41.797013" lon="22.986608">
        <ele>1245.5</ele>
        <time>2026-05-06T10:24:55.000Z</time>
      </trkpt>
      <trkpt lat="41.797008" lon="22.986605">
        <ele>1245.5</ele>
        <time>2026-05-06T10:24:56.000Z</time>
      </trkpt>
      <trkpt lat="41.797002" lon="22.986601">
        <ele>1245.5</ele>
        <time>2026-05-06T10:24:57.000Z</time>
      </trkpt>
      <trkpt lat="41.796996" lon="22.986599">
        <ele>1246.2</ele>
        <time>2026-05-06T10:24:58.000Z</time>
      </trkpt>
      <trkpt lat="41.796989" lon="22.986596">
        <ele>1246.2</ele>
        <time>2026-05-06T10:24:59.000Z</time>
      </trkpt>
      <trkpt lat="41.796983" lon="22.986593">
        <ele>1246.2</ele>
        <time>2026-05-06T10:25:00.000Z</time>
      </trkpt>
      <trkpt lat="41.796976" lon="22.986589">
        <ele>1246.2</ele>
        <time>2026-05-06T10:25:01.000Z</time>
      </trkpt>
      <trkpt lat="41.796969" lon="22.986586">
        <ele>1246.2</ele>
        <time>2026-05-06T10:25:02.000Z</time>
      </trkpt>
      <trkpt lat="41.796963" lon="22.986583">
        <ele>1246.6</ele>
        <time>2026-05-06T10:25:03.000Z</time>
      </trkpt>
      <trkpt lat="41.796956" lon="22.986581">
        <ele>1246.6</ele>
        <time>2026-05-06T10:25:04.000Z</time>
      </trkpt>
      <trkpt lat="41.79695" lon="22.986577">
        <ele>1246.6</ele>
        <time>2026-05-06T10:25:05.000Z</time>
      </trkpt>
      <trkpt lat="41.796943" lon="22.986574">
        <ele>1246.6</ele>
        <time>2026-05-06T10:25:06.000Z</time>
      </trkpt>
      <trkpt lat="41.796936" lon="22.98657">
        <ele>1246.6</ele>
        <time>2026-05-06T10:25:07.000Z</time>
      </trkpt>
      <trkpt lat="41.796929" lon="22.986568">
        <ele>1247.6</ele>
        <time>2026-05-06T10:25:08.000Z</time>
      </trkpt>
      <trkpt lat="41.796922" lon="22.986566">
        <ele>1247.6</ele>
        <time>2026-05-06T10:25:09.000Z</time>
      </trkpt>
      <trkpt lat="41.796915" lon="22.986567">
        <ele>1247.6</ele>
        <time>2026-05-06T10:25:10.000Z</time>
      </trkpt>
      <trkpt lat="41.79691" lon="22.986567">
        <ele>1247.6</ele>
        <time>2026-05-06T10:25:11.000Z</time>
      </trkpt>
      <trkpt lat="41.796906" lon="22.98657">
        <ele>1247.6</ele>
        <time>2026-05-06T10:25:12.000Z</time>
      </trkpt>
      <trkpt lat="41.796903" lon="22.98657">
        <ele>1248.8</ele>
        <time>2026-05-06T10:25:13.000Z</time>
      </trkpt>
      <trkpt lat="41.796899" lon="22.986571">
        <ele>1248.8</ele>
        <time>2026-05-06T10:25:14.000Z</time>
      </trkpt>
      <trkpt lat="41.796895" lon="22.98657">
        <ele>1248.8</ele>
        <time>2026-05-06T10:25:15.000Z</time>
      </trkpt>
      <trkpt lat="41.796889" lon="22.98657">
        <ele>1248.8</ele>
        <time>2026-05-06T10:25:16.000Z</time>
      </trkpt>
      <trkpt lat="41.796883" lon="22.986566">
        <ele>1248.8</ele>
        <time>2026-05-06T10:25:17.000Z</time>
      </trkpt>
      <trkpt lat="41.796875" lon="22.986563">
        <ele>1249.4</ele>
        <time>2026-05-06T10:25:18.000Z</time>
      </trkpt>
      <trkpt lat="41.796869" lon="22.98656">
        <ele>1249.4</ele>
        <time>2026-05-06T10:25:19.000Z</time>
      </trkpt>
      <trkpt lat="41.796861" lon="22.986555">
        <ele>1249.4</ele>
        <time>2026-05-06T10:25:20.000Z</time>
      </trkpt>
      <trkpt lat="41.796852" lon="22.986551">
        <ele>1249.4</ele>
        <time>2026-05-06T10:25:21.000Z</time>
      </trkpt>
      <trkpt lat="41.796843" lon="22.986548">
        <ele>1249.4</ele>
        <time>2026-05-06T10:25:22.000Z</time>
      </trkpt>
      <trkpt lat="41.796834" lon="22.986545">
        <ele>1250.1</ele>
        <time>2026-05-06T10:25:23.000Z</time>
      </trkpt>
      <trkpt lat="41.796825" lon="22.986542">
        <ele>1250.1</ele>
        <time>2026-05-06T10:25:24.000Z</time>
      </trkpt>
      <trkpt lat="41.796816" lon="22.986539">
        <ele>1250.1</ele>
        <time>2026-05-06T10:25:25.000Z</time>
      </trkpt>
      <trkpt lat="41.796808" lon="22.986536">
        <ele>1250.1</ele>
        <time>2026-05-06T10:25:26.000Z</time>
      </trkpt>
      <trkpt lat="41.796798" lon="22.986533">
        <ele>1250.1</ele>
        <time>2026-05-06T10:25:27.000Z</time>
      </trkpt>
      <trkpt lat="41.79679" lon="22.98653">
        <ele>1250.6</ele>
        <time>2026-05-06T10:25:28.000Z</time>
      </trkpt>
      <trkpt lat="41.796783" lon="22.986526">
        <ele>1250.6</ele>
        <time>2026-05-06T10:25:29.000Z</time>
      </trkpt>
      <trkpt lat="41.796778" lon="22.986523">
        <ele>1250.6</ele>
        <time>2026-05-06T10:25:30.000Z</time>
      </trkpt>
      <trkpt lat="41.796774" lon="22.986519">
        <ele>1250.6</ele>
        <time>2026-05-06T10:25:31.000Z</time>
      </trkpt>
      <trkpt lat="41.796774" lon="22.986516">
        <ele>1250.6</ele>
        <time>2026-05-06T10:25:32.000Z</time>
      </trkpt>
      <trkpt lat="41.796773" lon="22.986513">
        <ele>1250.9</ele>
        <time>2026-05-06T10:25:33.000Z</time>
      </trkpt>
      <trkpt lat="41.796773" lon="22.986511">
        <ele>1250.9</ele>
        <time>2026-05-06T10:25:34.000Z</time>
      </trkpt>
      <trkpt lat="41.796772" lon="22.986508">
        <ele>1250.9</ele>
        <time>2026-05-06T10:25:35.000Z</time>
      </trkpt>
      <trkpt lat="41.796772" lon="22.986508">
        <ele>1250.9</ele>
        <time>2026-05-06T10:25:36.000Z</time>
      </trkpt>
      <trkpt lat="41.796771" lon="22.986507">
        <ele>1250.9</ele>
        <time>2026-05-06T10:25:37.000Z</time>
      </trkpt>
      <trkpt lat="41.796772" lon="22.986506">
        <ele>1251.6</ele>
        <time>2026-05-06T10:25:38.000Z</time>
      </trkpt>
      <trkpt lat="41.796772" lon="22.986506">
        <ele>1251.6</ele>
        <time>2026-05-06T10:25:39.000Z</time>
      </trkpt>
      <trkpt lat="41.796773" lon="22.986506">
        <ele>1251.6</ele>
        <time>2026-05-06T10:25:40.000Z</time>
      </trkpt>
      <trkpt lat="41.796771" lon="22.986506">
        <ele>1251.6</ele>
        <time>2026-05-06T10:25:41.000Z</time>
      </trkpt>
      <trkpt lat="41.796768" lon="22.986504">
        <ele>1251.6</ele>
        <time>2026-05-06T10:25:42.000Z</time>
      </trkpt>
      <trkpt lat="41.796762" lon="22.986502">
        <ele>1252.1</ele>
        <time>2026-05-06T10:25:43.000Z</time>
      </trkpt>
      <trkpt lat="41.796755" lon="22.986501">
        <ele>1252.1</ele>
        <time>2026-05-06T10:25:44.000Z</time>
      </trkpt>
      <trkpt lat="41.796745" lon="22.986498">
        <ele>1252.1</ele>
        <time>2026-05-06T10:25:45.000Z</time>
      </trkpt>
      <trkpt lat="41.796735" lon="22.986495">
        <ele>1252.1</ele>
        <time>2026-05-06T10:25:46.000Z</time>
      </trkpt>
      <trkpt lat="41.796724" lon="22.986492">
        <ele>1252.1</ele>
        <time>2026-05-06T10:25:47.000Z</time>
      </trkpt>
      <trkpt lat="41.796712" lon="22.98649">
        <ele>1252.1</ele>
        <time>2026-05-06T10:25:48.000Z</time>
      </trkpt>
      <trkpt lat="41.796699" lon="22.986487">
        <ele>1252.1</ele>
        <time>2026-05-06T10:25:49.000Z</time>
      </trkpt>
      <trkpt lat="41.796686" lon="22.986485">
        <ele>1252.1</ele>
        <time>2026-05-06T10:25:50.000Z</time>
      </trkpt>
      <trkpt lat="41.796674" lon="22.986482">
        <ele>1252.1</ele>
        <time>2026-05-06T10:25:51.000Z</time>
      </trkpt>
      <trkpt lat="41.796662" lon="22.98648">
        <ele>1252.1</ele>
        <time>2026-05-06T10:25:52.000Z</time>
      </trkpt>
      <trkpt lat="41.796651" lon="22.986479">
        <ele>1252.3</ele>
        <time>2026-05-06T10:25:53.000Z</time>
      </trkpt>
      <trkpt lat="41.796641" lon="22.986477">
        <ele>1252.3</ele>
        <time>2026-05-06T10:25:54.000Z</time>
      </trkpt>
      <trkpt lat="41.796631" lon="22.986475">
        <ele>1252.3</ele>
        <time>2026-05-06T10:25:55.000Z</time>
      </trkpt>
      <trkpt lat="41.79662" lon="22.986474">
        <ele>1252.3</ele>
        <time>2026-05-06T10:25:56.000Z</time>
      </trkpt>
      <trkpt lat="41.796609" lon="22.986476">
        <ele>1252.3</ele>
        <time>2026-05-06T10:25:57.000Z</time>
      </trkpt>
      <trkpt lat="41.796597" lon="22.986477">
        <ele>1252.9</ele>
        <time>2026-05-06T10:25:58.000Z</time>
      </trkpt>
      <trkpt lat="41.796585" lon="22.98648">
        <ele>1252.9</ele>
        <time>2026-05-06T10:25:59.000Z</time>
      </trkpt>
      <trkpt lat="41.796573" lon="22.986481">
        <ele>1252.9</ele>
        <time>2026-05-06T10:26:00.000Z</time>
      </trkpt>
      <trkpt lat="41.796563" lon="22.986483">
        <ele>1252.9</ele>
        <time>2026-05-06T10:26:01.000Z</time>
      </trkpt>
      <trkpt lat="41.796553" lon="22.986482">
        <ele>1252.9</ele>
        <time>2026-05-06T10:26:02.000Z</time>
      </trkpt>
      <trkpt lat="41.796544" lon="22.98648">
        <ele>1253.3</ele>
        <time>2026-05-06T10:26:03.000Z</time>
      </trkpt>
      <trkpt lat="41.796536" lon="22.986477">
        <ele>1253.3</ele>
        <time>2026-05-06T10:26:04.000Z</time>
      </trkpt>
      <trkpt lat="41.796528" lon="22.986475">
        <ele>1253.3</ele>
        <time>2026-05-06T10:26:05.000Z</time>
      </trkpt>
      <trkpt lat="41.796519" lon="22.986472">
        <ele>1253.3</ele>
        <time>2026-05-06T10:26:06.000Z</time>
      </trkpt>
      <trkpt lat="41.796508" lon="22.986469">
        <ele>1253.3</ele>
        <time>2026-05-06T10:26:07.000Z</time>
      </trkpt>
      <trkpt lat="41.796496" lon="22.986468">
        <ele>1254.4</ele>
        <time>2026-05-06T10:26:08.000Z</time>
      </trkpt>
      <trkpt lat="41.796484" lon="22.986469">
        <ele>1254.4</ele>
        <time>2026-05-06T10:26:09.000Z</time>
      </trkpt>
      <trkpt lat="41.796472" lon="22.98647">
        <ele>1254.4</ele>
        <time>2026-05-06T10:26:10.000Z</time>
      </trkpt>
      <trkpt lat="41.796462" lon="22.986472">
        <ele>1254.4</ele>
        <time>2026-05-06T10:26:11.000Z</time>
      </trkpt>
      <trkpt lat="41.796451" lon="22.986473">
        <ele>1254.4</ele>
        <time>2026-05-06T10:26:12.000Z</time>
      </trkpt>
      <trkpt lat="41.796439" lon="22.986473">
        <ele>1255.2</ele>
        <time>2026-05-06T10:26:13.000Z</time>
      </trkpt>
      <trkpt lat="41.796427" lon="22.986472">
        <ele>1255.2</ele>
        <time>2026-05-06T10:26:14.000Z</time>
      </trkpt>
      <trkpt lat="41.796414" lon="22.986472">
        <ele>1255.2</ele>
        <time>2026-05-06T10:26:15.000Z</time>
      </trkpt>
      <trkpt lat="41.796401" lon="22.986471">
        <ele>1255.2</ele>
        <time>2026-05-06T10:26:16.000Z</time>
      </trkpt>
      <trkpt lat="41.796389" lon="22.986471">
        <ele>1255.2</ele>
        <time>2026-05-06T10:26:17.000Z</time>
      </trkpt>
      <trkpt lat="41.796376" lon="22.986473">
        <ele>1255.5</ele>
        <time>2026-05-06T10:26:18.000Z</time>
      </trkpt>
      <trkpt lat="41.796362" lon="22.986475">
        <ele>1255.5</ele>
        <time>2026-05-06T10:26:19.000Z</time>
      </trkpt>
      <trkpt lat="41.796348" lon="22.986476">
        <ele>1255.5</ele>
        <time>2026-05-06T10:26:20.000Z</time>
      </trkpt>
      <trkpt lat="41.796334" lon="22.986478">
        <ele>1255.5</ele>
        <time>2026-05-06T10:26:21.000Z</time>
      </trkpt>
      <trkpt lat="41.79632" lon="22.986479">
        <ele>1255.5</ele>
        <time>2026-05-06T10:26:22.000Z</time>
      </trkpt>
      <trkpt lat="41.796306" lon="22.986481">
        <ele>1255.8</ele>
        <time>2026-05-06T10:26:23.000Z</time>
      </trkpt>
      <trkpt lat="41.796293" lon="22.986483">
        <ele>1255.8</ele>
        <time>2026-05-06T10:26:24.000Z</time>
      </trkpt>
      <trkpt lat="41.796279" lon="22.986487">
        <ele>1255.8</ele>
        <time>2026-05-06T10:26:25.000Z</time>
      </trkpt>
      <trkpt lat="41.796266" lon="22.98649">
        <ele>1255.8</ele>
        <time>2026-05-06T10:26:26.000Z</time>
      </trkpt>
      <trkpt lat="41.796252" lon="22.986494">
        <ele>1255.8</ele>
        <time>2026-05-06T10:26:27.000Z</time>
      </trkpt>
      <trkpt lat="41.796238" lon="22.986496">
        <ele>1256.2</ele>
        <time>2026-05-06T10:26:28.000Z</time>
      </trkpt>
      <trkpt lat="41.796225" lon="22.986498">
        <ele>1256.2</ele>
        <time>2026-05-06T10:26:29.000Z</time>
      </trkpt>
      <trkpt lat="41.796212" lon="22.9865">
        <ele>1256.2</ele>
        <time>2026-05-06T10:26:30.000Z</time>
      </trkpt>
      <trkpt lat="41.796198" lon="22.986503">
        <ele>1256.2</ele>
        <time>2026-05-06T10:26:31.000Z</time>
      </trkpt>
      <trkpt lat="41.796185" lon="22.986506">
        <ele>1256.2</ele>
        <time>2026-05-06T10:26:32.000Z</time>
      </trkpt>
      <trkpt lat="41.796172" lon="22.986511">
        <ele>1256.5</ele>
        <time>2026-05-06T10:26:33.000Z</time>
      </trkpt>
      <trkpt lat="41.796159" lon="22.986518">
        <ele>1256.5</ele>
        <time>2026-05-06T10:26:34.000Z</time>
      </trkpt>
      <trkpt lat="41.796147" lon="22.986524">
        <ele>1256.5</ele>
        <time>2026-05-06T10:26:35.000Z</time>
      </trkpt>
      <trkpt lat="41.796134" lon="22.986531">
        <ele>1256.5</ele>
        <time>2026-05-06T10:26:36.000Z</time>
      </trkpt>
      <trkpt lat="41.796123" lon="22.986539">
        <ele>1256.5</ele>
        <time>2026-05-06T10:26:37.000Z</time>
      </trkpt>
      <trkpt lat="41.796112" lon="22.986545">
        <ele>1257.2</ele>
        <time>2026-05-06T10:26:38.000Z</time>
      </trkpt>
      <trkpt lat="41.796102" lon="22.986551">
        <ele>1257.2</ele>
        <time>2026-05-06T10:26:39.000Z</time>
      </trkpt>
      <trkpt lat="41.796093" lon="22.986558">
        <ele>1257.2</ele>
        <time>2026-05-06T10:26:40.000Z</time>
      </trkpt>
      <trkpt lat="41.796084" lon="22.986564">
        <ele>1257.2</ele>
        <time>2026-05-06T10:26:41.000Z</time>
      </trkpt>
      <trkpt lat="41.796075" lon="22.986571">
        <ele>1257.2</ele>
        <time>2026-05-06T10:26:42.000Z</time>
      </trkpt>
      <trkpt lat="41.796065" lon="22.986579">
        <ele>1257.9</ele>
        <time>2026-05-06T10:26:43.000Z</time>
      </trkpt>
      <trkpt lat="41.796055" lon="22.986586">
        <ele>1257.9</ele>
        <time>2026-05-06T10:26:44.000Z</time>
      </trkpt>
      <trkpt lat="41.796045" lon="22.986594">
        <ele>1257.9</ele>
        <time>2026-05-06T10:26:45.000Z</time>
      </trkpt>
      <trkpt lat="41.796034" lon="22.986602">
        <ele>1257.9</ele>
        <time>2026-05-06T10:26:46.000Z</time>
      </trkpt>
      <trkpt lat="41.796023" lon="22.986609">
        <ele>1257.9</ele>
        <time>2026-05-06T10:26:47.000Z</time>
      </trkpt>
      <trkpt lat="41.796011" lon="22.986615">
        <ele>1258.3</ele>
        <time>2026-05-06T10:26:48.000Z</time>
      </trkpt>
      <trkpt lat="41.795999" lon="22.986622">
        <ele>1258.3</ele>
        <time>2026-05-06T10:26:49.000Z</time>
      </trkpt>
      <trkpt lat="41.795987" lon="22.986627">
        <ele>1258.3</ele>
        <time>2026-05-06T10:26:50.000Z</time>
      </trkpt>
      <trkpt lat="41.795975" lon="22.986632">
        <ele>1258.3</ele>
        <time>2026-05-06T10:26:51.000Z</time>
      </trkpt>
      <trkpt lat="41.795963" lon="22.986636">
        <ele>1258.3</ele>
        <time>2026-05-06T10:26:52.000Z</time>
      </trkpt>
      <trkpt lat="41.79595" lon="22.986641">
        <ele>1259</ele>
        <time>2026-05-06T10:26:53.000Z</time>
      </trkpt>
      <trkpt lat="41.795937" lon="22.986645">
        <ele>1259</ele>
        <time>2026-05-06T10:26:54.000Z</time>
      </trkpt>
      <trkpt lat="41.795925" lon="22.986647">
        <ele>1259</ele>
        <time>2026-05-06T10:26:55.000Z</time>
      </trkpt>
      <trkpt lat="41.795915" lon="22.986649">
        <ele>1259</ele>
        <time>2026-05-06T10:26:56.000Z</time>
      </trkpt>
      <trkpt lat="41.795907" lon="22.98665">
        <ele>1259</ele>
        <time>2026-05-06T10:26:57.000Z</time>
      </trkpt>
      <trkpt lat="41.7959" lon="22.98665">
        <ele>1259.5</ele>
        <time>2026-05-06T10:26:58.000Z</time>
      </trkpt>
      <trkpt lat="41.795894" lon="22.98665">
        <ele>1259.5</ele>
        <time>2026-05-06T10:26:59.000Z</time>
      </trkpt>
      <trkpt lat="41.795886" lon="22.986649">
        <ele>1259.5</ele>
        <time>2026-05-06T10:27:00.000Z</time>
      </trkpt>
      <trkpt lat="41.795878" lon="22.986647">
        <ele>1259.5</ele>
        <time>2026-05-06T10:27:01.000Z</time>
      </trkpt>
      <trkpt lat="41.795868" lon="22.986646">
        <ele>1259.5</ele>
        <time>2026-05-06T10:27:02.000Z</time>
      </trkpt>
      <trkpt lat="41.795858" lon="22.986644">
        <ele>1259.6</ele>
        <time>2026-05-06T10:27:03.000Z</time>
      </trkpt>
      <trkpt lat="41.795848" lon="22.986642">
        <ele>1259.6</ele>
        <time>2026-05-06T10:27:04.000Z</time>
      </trkpt>
      <trkpt lat="41.795838" lon="22.98664">
        <ele>1259.6</ele>
        <time>2026-05-06T10:27:05.000Z</time>
      </trkpt>
      <trkpt lat="41.795829" lon="22.986639">
        <ele>1259.6</ele>
        <time>2026-05-06T10:27:06.000Z</time>
      </trkpt>
      <trkpt lat="41.795821" lon="22.986638">
        <ele>1259.6</ele>
        <time>2026-05-06T10:27:07.000Z</time>
      </trkpt>
      <trkpt lat="41.795815" lon="22.986636">
        <ele>1259.8</ele>
        <time>2026-05-06T10:27:08.000Z</time>
      </trkpt>
      <trkpt lat="41.79581" lon="22.986637">
        <ele>1259.8</ele>
        <time>2026-05-06T10:27:09.000Z</time>
      </trkpt>
      <trkpt lat="41.795805" lon="22.98664">
        <ele>1259.8</ele>
        <time>2026-05-06T10:27:10.000Z</time>
      </trkpt>
      <trkpt lat="41.7958" lon="22.986645">
        <ele>1259.8</ele>
        <time>2026-05-06T10:27:11.000Z</time>
      </trkpt>
      <trkpt lat="41.795795" lon="22.98665">
        <ele>1259.8</ele>
        <time>2026-05-06T10:27:12.000Z</time>
      </trkpt>
      <trkpt lat="41.795791" lon="22.986655">
        <ele>1260</ele>
        <time>2026-05-06T10:27:13.000Z</time>
      </trkpt>
      <trkpt lat="41.795789" lon="22.986659">
        <ele>1260</ele>
        <time>2026-05-06T10:27:14.000Z</time>
      </trkpt>
      <trkpt lat="41.795787" lon="22.98666">
        <ele>1260</ele>
        <time>2026-05-06T10:27:15.000Z</time>
      </trkpt>
      <trkpt lat="41.795784" lon="22.986658">
        <ele>1260</ele>
        <time>2026-05-06T10:27:16.000Z</time>
      </trkpt>
      <trkpt lat="41.795781" lon="22.986656">
        <ele>1260</ele>
        <time>2026-05-06T10:27:17.000Z</time>
      </trkpt>
      <trkpt lat="41.795777" lon="22.986655">
        <ele>1260</ele>
        <time>2026-05-06T10:27:18.000Z</time>
      </trkpt>
      <trkpt lat="41.795772" lon="22.986652">
        <ele>1260</ele>
        <time>2026-05-06T10:27:19.000Z</time>
      </trkpt>
      <trkpt lat="41.795766" lon="22.986651">
        <ele>1260</ele>
        <time>2026-05-06T10:27:20.000Z</time>
      </trkpt>
      <trkpt lat="41.79576" lon="22.986651">
        <ele>1260</ele>
        <time>2026-05-06T10:27:21.000Z</time>
      </trkpt>
      <trkpt lat="41.795755" lon="22.98665">
        <ele>1260</ele>
        <time>2026-05-06T10:27:22.000Z</time>
      </trkpt>
      <trkpt lat="41.795752" lon="22.986649">
        <ele>1260.1</ele>
        <time>2026-05-06T10:27:23.000Z</time>
      </trkpt>
      <trkpt lat="41.795749" lon="22.986649">
        <ele>1260.1</ele>
        <time>2026-05-06T10:27:24.000Z</time>
      </trkpt>
      <trkpt lat="41.795747" lon="22.986646">
        <ele>1260.1</ele>
        <time>2026-05-06T10:27:25.000Z</time>
      </trkpt>
      <trkpt lat="41.795746" lon="22.986644">
        <ele>1260.1</ele>
        <time>2026-05-06T10:27:26.000Z</time>
      </trkpt>
      <trkpt lat="41.795743" lon="22.986642">
        <ele>1260.1</ele>
        <time>2026-05-06T10:27:27.000Z</time>
      </trkpt>
      <trkpt lat="41.79574" lon="22.98664">
        <ele>1260</ele>
        <time>2026-05-06T10:27:28.000Z</time>
      </trkpt>
      <trkpt lat="41.795734" lon="22.986638">
        <ele>1260</ele>
        <time>2026-05-06T10:27:29.000Z</time>
      </trkpt>
      <trkpt lat="41.795726" lon="22.986637">
        <ele>1260</ele>
        <time>2026-05-06T10:27:30.000Z</time>
      </trkpt>
      <trkpt lat="41.795717" lon="22.986636">
        <ele>1260</ele>
        <time>2026-05-06T10:27:31.000Z</time>
      </trkpt>
      <trkpt lat="41.795707" lon="22.986635">
        <ele>1260</ele>
        <time>2026-05-06T10:27:32.000Z</time>
      </trkpt>
      <trkpt lat="41.795697" lon="22.986633">
        <ele>1260</ele>
        <time>2026-05-06T10:27:33.000Z</time>
      </trkpt>
      <trkpt lat="41.795688" lon="22.986632">
        <ele>1260</ele>
        <time>2026-05-06T10:27:34.000Z</time>
      </trkpt>
      <trkpt lat="41.795682" lon="22.986631">
        <ele>1260</ele>
        <time>2026-05-06T10:27:35.000Z</time>
      </trkpt>
      <trkpt lat="41.795677" lon="22.986631">
        <ele>1260</ele>
        <time>2026-05-06T10:27:36.000Z</time>
      </trkpt>
      <trkpt lat="41.795673" lon="22.98663">
        <ele>1260</ele>
        <time>2026-05-06T10:27:37.000Z</time>
      </trkpt>
      <trkpt lat="41.795669" lon="22.986629">
        <ele>1260.1</ele>
        <time>2026-05-06T10:27:38.000Z</time>
      </trkpt>
      <trkpt lat="41.795664" lon="22.986628">
        <ele>1260.1</ele>
        <time>2026-05-06T10:27:39.000Z</time>
      </trkpt>
      <trkpt lat="41.795658" lon="22.986627">
        <ele>1260.1</ele>
        <time>2026-05-06T10:27:40.000Z</time>
      </trkpt>
      <trkpt lat="41.795651" lon="22.986625">
        <ele>1260.1</ele>
        <time>2026-05-06T10:27:41.000Z</time>
      </trkpt>
      <trkpt lat="41.795644" lon="22.986625">
        <ele>1260.1</ele>
        <time>2026-05-06T10:27:42.000Z</time>
      </trkpt>
      <trkpt lat="41.795638" lon="22.986625">
        <ele>1260</ele>
        <time>2026-05-06T10:27:43.000Z</time>
      </trkpt>
      <trkpt lat="41.795631" lon="22.986626">
        <ele>1260</ele>
        <time>2026-05-06T10:27:44.000Z</time>
      </trkpt>
      <trkpt lat="41.795626" lon="22.986627">
        <ele>1260</ele>
        <time>2026-05-06T10:27:45.000Z</time>
      </trkpt>
      <trkpt lat="41.795621" lon="22.986629">
        <ele>1260</ele>
        <time>2026-05-06T10:27:46.000Z</time>
      </trkpt>
      <trkpt lat="41.795618" lon="22.98663">
        <ele>1260</ele>
        <time>2026-05-06T10:27:47.000Z</time>
      </trkpt>
      <trkpt lat="41.795615" lon="22.986633">
        <ele>1259.8</ele>
        <time>2026-05-06T10:27:48.000Z</time>
      </trkpt>
      <trkpt lat="41.795613" lon="22.986635">
        <ele>1259.8</ele>
        <time>2026-05-06T10:27:49.000Z</time>
      </trkpt>
      <trkpt lat="41.79561" lon="22.986639">
        <ele>1259.8</ele>
        <time>2026-05-06T10:27:50.000Z</time>
      </trkpt>
      <trkpt lat="41.795607" lon="22.986642">
        <ele>1259.8</ele>
        <time>2026-05-06T10:27:51.000Z</time>
      </trkpt>
      <trkpt lat="41.795604" lon="22.986643">
        <ele>1259.8</ele>
        <time>2026-05-06T10:27:52.000Z</time>
      </trkpt>
      <trkpt lat="41.795601" lon="22.986644">
        <ele>1259.6</ele>
        <time>2026-05-06T10:27:53.000Z</time>
      </trkpt>
      <trkpt lat="41.795597" lon="22.986644">
        <ele>1259.6</ele>
        <time>2026-05-06T10:27:54.000Z</time>
      </trkpt>
      <trkpt lat="41.795594" lon="22.986643">
        <ele>1259.6</ele>
        <time>2026-05-06T10:27:55.000Z</time>
      </trkpt>
      <trkpt lat="41.795592" lon="22.986642">
        <ele>1259.6</ele>
        <time>2026-05-06T10:27:56.000Z</time>
      </trkpt>
      <trkpt lat="41.79559" lon="22.986642">
        <ele>1259.6</ele>
        <time>2026-05-06T10:27:57.000Z</time>
      </trkpt>
      <trkpt lat="41.795588" lon="22.98664">
        <ele>1259.8</ele>
        <time>2026-05-06T10:27:58.000Z</time>
      </trkpt>
      <trkpt lat="41.795587" lon="22.986639">
        <ele>1259.8</ele>
        <time>2026-05-06T10:27:59.000Z</time>
      </trkpt>
      <trkpt lat="41.795586" lon="22.986637">
        <ele>1259.8</ele>
        <time>2026-05-06T10:28:00.000Z</time>
      </trkpt>
      <trkpt lat="41.795585" lon="22.986633">
        <ele>1259.8</ele>
        <time>2026-05-06T10:28:01.000Z</time>
      </trkpt>
      <trkpt lat="41.795584" lon="22.986627">
        <ele>1259.8</ele>
        <time>2026-05-06T10:28:02.000Z</time>
      </trkpt>
      <trkpt lat="41.795584" lon="22.986624">
        <ele>1260</ele>
        <time>2026-05-06T10:28:03.000Z</time>
      </trkpt>
      <trkpt lat="41.795582" lon="22.986619">
        <ele>1260</ele>
        <time>2026-05-06T10:28:04.000Z</time>
      </trkpt>
      <trkpt lat="41.79558" lon="22.986615">
        <ele>1260</ele>
        <time>2026-05-06T10:28:05.000Z</time>
      </trkpt>
      <trkpt lat="41.795578" lon="22.986612">
        <ele>1260</ele>
        <time>2026-05-06T10:28:06.000Z</time>
      </trkpt>
      <trkpt lat="41.795575" lon="22.98661">
        <ele>1260</ele>
        <time>2026-05-06T10:28:07.000Z</time>
      </trkpt>
      <trkpt lat="41.795569" lon="22.986608">
        <ele>1260.2</ele>
        <time>2026-05-06T10:28:08.000Z</time>
      </trkpt>
      <trkpt lat="41.795564" lon="22.986607">
        <ele>1260.2</ele>
        <time>2026-05-06T10:28:09.000Z</time>
      </trkpt>
      <trkpt lat="41.795558" lon="22.986607">
        <ele>1260.2</ele>
        <time>2026-05-06T10:28:10.000Z</time>
      </trkpt>
      <trkpt lat="41.795553" lon="22.986605">
        <ele>1260.2</ele>
        <time>2026-05-06T10:28:11.000Z</time>
      </trkpt>
      <trkpt lat="41.795548" lon="22.986605">
        <ele>1260.2</ele>
        <time>2026-05-06T10:28:12.000Z</time>
      </trkpt>
      <trkpt lat="41.795545" lon="22.986606">
        <ele>1259.8</ele>
        <time>2026-05-06T10:28:13.000Z</time>
      </trkpt>
      <trkpt lat="41.79554" lon="22.986608">
        <ele>1259.8</ele>
        <time>2026-05-06T10:28:14.000Z</time>
      </trkpt>
      <trkpt lat="41.795533" lon="22.986612">
        <ele>1259.8</ele>
        <time>2026-05-06T10:28:15.000Z</time>
      </trkpt>
      <trkpt lat="41.795526" lon="22.986617">
        <ele>1259.8</ele>
        <time>2026-05-06T10:28:16.000Z</time>
      </trkpt>
      <trkpt lat="41.795518" lon="22.986622">
        <ele>1259.8</ele>
        <time>2026-05-06T10:28:17.000Z</time>
      </trkpt>
      <trkpt lat="41.795511" lon="22.986625">
        <ele>1259.6</ele>
        <time>2026-05-06T10:28:18.000Z</time>
      </trkpt>
      <trkpt lat="41.795505" lon="22.986627">
        <ele>1259.6</ele>
        <time>2026-05-06T10:28:19.000Z</time>
      </trkpt>
      <trkpt lat="41.795499" lon="22.986627">
        <ele>1259.6</ele>
        <time>2026-05-06T10:28:20.000Z</time>
      </trkpt>
      <trkpt lat="41.795495" lon="22.986627">
        <ele>1259.6</ele>
        <time>2026-05-06T10:28:21.000Z</time>
      </trkpt>
      <trkpt lat="41.79549" lon="22.986628">
        <ele>1259.6</ele>
        <time>2026-05-06T10:28:22.000Z</time>
      </trkpt>
      <trkpt lat="41.795486" lon="22.986628">
        <ele>1259.5</ele>
        <time>2026-05-06T10:28:23.000Z</time>
      </trkpt>
      <trkpt lat="41.795483" lon="22.986627">
        <ele>1259.5</ele>
        <time>2026-05-06T10:28:24.000Z</time>
      </trkpt>
      <trkpt lat="41.795482" lon="22.986626">
        <ele>1259.5</ele>
        <time>2026-05-06T10:28:25.000Z</time>
      </trkpt>
      <trkpt lat="41.795479" lon="22.986627">
        <ele>1259.5</ele>
        <time>2026-05-06T10:28:26.000Z</time>
      </trkpt>
      <trkpt lat="41.795478" lon="22.986627">
        <ele>1259.5</ele>
        <time>2026-05-06T10:28:27.000Z</time>
      </trkpt>
      <trkpt lat="41.795476" lon="22.98663">
        <ele>1259.9</ele>
        <time>2026-05-06T10:28:28.000Z</time>
      </trkpt>
      <trkpt lat="41.795472" lon="22.986633">
        <ele>1259.9</ele>
        <time>2026-05-06T10:28:29.000Z</time>
      </trkpt>
      <trkpt lat="41.795469" lon="22.986638">
        <ele>1259.9</ele>
        <time>2026-05-06T10:28:30.000Z</time>
      </trkpt>
      <trkpt lat="41.795464" lon="22.986643">
        <ele>1259.9</ele>
        <time>2026-05-06T10:28:31.000Z</time>
      </trkpt>
      <trkpt lat="41.795459" lon="22.986648">
        <ele>1259.9</ele>
        <time>2026-05-06T10:28:32.000Z</time>
      </trkpt>
      <trkpt lat="41.795455" lon="22.986652">
        <ele>1260.2</ele>
        <time>2026-05-06T10:28:33.000Z</time>
      </trkpt>
      <trkpt lat="41.79545" lon="22.986656">
        <ele>1260.2</ele>
        <time>2026-05-06T10:28:34.000Z</time>
      </trkpt>
      <trkpt lat="41.795445" lon="22.986658">
        <ele>1260.2</ele>
        <time>2026-05-06T10:28:35.000Z</time>
      </trkpt>
      <trkpt lat="41.795441" lon="22.98666">
        <ele>1260.2</ele>
        <time>2026-05-06T10:28:36.000Z</time>
      </trkpt>
      <trkpt lat="41.795436" lon="22.986662">
        <ele>1260.2</ele>
        <time>2026-05-06T10:28:37.000Z</time>
      </trkpt>
      <trkpt lat="41.795431" lon="22.986663">
        <ele>1260.3</ele>
        <time>2026-05-06T10:28:38.000Z</time>
      </trkpt>
      <trkpt lat="41.795427" lon="22.986665">
        <ele>1260.3</ele>
        <time>2026-05-06T10:28:39.000Z</time>
      </trkpt>
      <trkpt lat="41.795425" lon="22.986667">
        <ele>1260.3</ele>
        <time>2026-05-06T10:28:40.000Z</time>
      </trkpt>
      <trkpt lat="41.795424" lon="22.986667">
        <ele>1260.3</ele>
        <time>2026-05-06T10:28:41.000Z</time>
      </trkpt>
      <trkpt lat="41.795423" lon="22.986665">
        <ele>1260.3</ele>
        <time>2026-05-06T10:28:42.000Z</time>
      </trkpt>
      <trkpt lat="41.795423" lon="22.986664">
        <ele>1259.9</ele>
        <time>2026-05-06T10:28:43.000Z</time>
      </trkpt>
      <trkpt lat="41.795422" lon="22.986664">
        <ele>1259.9</ele>
        <time>2026-05-06T10:28:44.000Z</time>
      </trkpt>
      <trkpt lat="41.795421" lon="22.986663">
        <ele>1259.9</ele>
        <time>2026-05-06T10:28:45.000Z</time>
      </trkpt>
      <trkpt lat="41.79542" lon="22.986663">
        <ele>1259.9</ele>
        <time>2026-05-06T10:28:46.000Z</time>
      </trkpt>
      <trkpt lat="41.795419" lon="22.986664">
        <ele>1259.9</ele>
        <time>2026-05-06T10:28:47.000Z</time>
      </trkpt>
      <trkpt lat="41.795418" lon="22.986665">
        <ele>1259.6</ele>
        <time>2026-05-06T10:28:48.000Z</time>
      </trkpt>
      <trkpt lat="41.795417" lon="22.986666">
        <ele>1259.6</ele>
        <time>2026-05-06T10:28:49.000Z</time>
      </trkpt>
      <trkpt lat="41.795416" lon="22.986666">
        <ele>1259.6</ele>
        <time>2026-05-06T10:28:50.000Z</time>
      </trkpt>
      <trkpt lat="41.795416" lon="22.986666">
        <ele>1259.6</ele>
        <time>2026-05-06T10:28:51.000Z</time>
      </trkpt>
      <trkpt lat="41.795416" lon="22.986666">
        <ele>1259.6</ele>
        <time>2026-05-06T10:28:52.000Z</time>
      </trkpt>
      <trkpt lat="41.795417" lon="22.986667">
        <ele>1259.2</ele>
        <time>2026-05-06T10:28:53.000Z</time>
      </trkpt>
      <trkpt lat="41.795415" lon="22.986671">
        <ele>1259.2</ele>
        <time>2026-05-06T10:28:54.000Z</time>
      </trkpt>
      <trkpt lat="41.795413" lon="22.986675">
        <ele>1259.2</ele>
        <time>2026-05-06T10:28:55.000Z</time>
      </trkpt>
      <trkpt lat="41.79541" lon="22.986682">
        <ele>1259.2</ele>
        <time>2026-05-06T10:28:56.000Z</time>
      </trkpt>
      <trkpt lat="41.795407" lon="22.986688">
        <ele>1259.2</ele>
        <time>2026-05-06T10:28:57.000Z</time>
      </trkpt>
      <trkpt lat="41.795404" lon="22.986692">
        <ele>1259.1</ele>
        <time>2026-05-06T10:28:58.000Z</time>
      </trkpt>
      <trkpt lat="41.795402" lon="22.986695">
        <ele>1259.1</ele>
        <time>2026-05-06T10:28:59.000Z</time>
      </trkpt>
      <trkpt lat="41.795401" lon="22.986697">
        <ele>1259.1</ele>
        <time>2026-05-06T10:29:00.000Z</time>
      </trkpt>
      <trkpt lat="41.7954" lon="22.986697">
        <ele>1259.1</ele>
        <time>2026-05-06T10:29:01.000Z</time>
      </trkpt>
      <trkpt lat="41.795399" lon="22.986698">
        <ele>1259.1</ele>
        <time>2026-05-06T10:29:02.000Z</time>
      </trkpt>
      <trkpt lat="41.795399" lon="22.986699">
        <ele>1259.1</ele>
        <time>2026-05-06T10:29:03.000Z</time>
      </trkpt>
      <trkpt lat="41.795398" lon="22.9867">
        <ele>1259.1</ele>
        <time>2026-05-06T10:29:04.000Z</time>
      </trkpt>
      <trkpt lat="41.795398" lon="22.986701">
        <ele>1259.1</ele>
        <time>2026-05-06T10:29:05.000Z</time>
      </trkpt>
      <trkpt lat="41.795398" lon="22.986701">
        <ele>1259.1</ele>
        <time>2026-05-06T10:29:06.000Z</time>
      </trkpt>
      <trkpt lat="41.795399" lon="22.986702">
        <ele>1259.1</ele>
        <time>2026-05-06T10:29:07.000Z</time>
      </trkpt>
      <trkpt lat="41.795398" lon="22.986701">
        <ele>1259.3</ele>
        <time>2026-05-06T10:29:08.000Z</time>
      </trkpt>
      <trkpt lat="41.795396" lon="22.986699">
        <ele>1259.3</ele>
        <time>2026-05-06T10:29:09.000Z</time>
      </trkpt>
      <trkpt lat="41.795395" lon="22.986696">
        <ele>1259.3</ele>
        <time>2026-05-06T10:29:10.000Z</time>
      </trkpt>
      <trkpt lat="41.795393" lon="22.986693">
        <ele>1259.3</ele>
        <time>2026-05-06T10:29:11.000Z</time>
      </trkpt>
      <trkpt lat="41.795391" lon="22.986689">
        <ele>1259.3</ele>
        <time>2026-05-06T10:29:12.000Z</time>
      </trkpt>
      <trkpt lat="41.795389" lon="22.986684">
        <ele>1259.6</ele>
        <time>2026-05-06T10:29:13.000Z</time>
      </trkpt>
      <trkpt lat="41.795385" lon="22.98668">
        <ele>1259.6</ele>
        <time>2026-05-06T10:29:14.000Z</time>
      </trkpt>
      <trkpt lat="41.795382" lon="22.986679">
        <ele>1259.6</ele>
        <time>2026-05-06T10:29:15.000Z</time>
      </trkpt>
      <trkpt lat="41.795378" lon="22.986677">
        <ele>1259.6</ele>
        <time>2026-05-06T10:29:16.000Z</time>
      </trkpt>
      <trkpt lat="41.795374" lon="22.986676">
        <ele>1259.6</ele>
        <time>2026-05-06T10:29:17.000Z</time>
      </trkpt>
      <trkpt lat="41.79537" lon="22.986676">
        <ele>1259.7</ele>
        <time>2026-05-06T10:29:18.000Z</time>
      </trkpt>
      <trkpt lat="41.795369" lon="22.986675">
        <ele>1259.7</ele>
        <time>2026-05-06T10:29:19.000Z</time>
      </trkpt>
      <trkpt lat="41.795368" lon="22.986673">
        <ele>1259.7</ele>
        <time>2026-05-06T10:29:20.000Z</time>
      </trkpt>
      <trkpt lat="41.795367" lon="22.986672">
        <ele>1259.7</ele>
        <time>2026-05-06T10:29:21.000Z</time>
      </trkpt>
      <trkpt lat="41.795367" lon="22.98667">
        <ele>1259.7</ele>
        <time>2026-05-06T10:29:22.000Z</time>
      </trkpt>
      <trkpt lat="41.795367" lon="22.986668">
        <ele>1259.3</ele>
        <time>2026-05-06T10:29:23.000Z</time>
      </trkpt>
      <trkpt lat="41.795367" lon="22.986667">
        <ele>1259.3</ele>
        <time>2026-05-06T10:29:24.000Z</time>
      </trkpt>
      <trkpt lat="41.795368" lon="22.986666">
        <ele>1259.3</ele>
        <time>2026-05-06T10:29:25.000Z</time>
      </trkpt>
      <trkpt lat="41.795368" lon="22.986665">
        <ele>1259.3</ele>
        <time>2026-05-06T10:29:26.000Z</time>
      </trkpt>
      <trkpt lat="41.795368" lon="22.986664">
        <ele>1259.3</ele>
        <time>2026-05-06T10:29:27.000Z</time>
      </trkpt>
      <trkpt lat="41.795368" lon="22.986665">
        <ele>1259</ele>
        <time>2026-05-06T10:29:28.000Z</time>
      </trkpt>
      <trkpt lat="41.795368" lon="22.986668">
        <ele>1259</ele>
        <time>2026-05-06T10:29:29.000Z</time>
      </trkpt>
      <trkpt lat="41.795367" lon="22.986673">
        <ele>1259</ele>
        <time>2026-05-06T10:29:30.000Z</time>
      </trkpt>
      <trkpt lat="41.795365" lon="22.986681">
        <ele>1259</ele>
        <time>2026-05-06T10:29:31.000Z</time>
      </trkpt>
      <trkpt lat="41.795362" lon="22.986688">
        <ele>1259</ele>
        <time>2026-05-06T10:29:32.000Z</time>
      </trkpt>
      <trkpt lat="41.795355" lon="22.986694">
        <ele>1258.8</ele>
        <time>2026-05-06T10:29:33.000Z</time>
      </trkpt>
      <trkpt lat="41.795349" lon="22.986695">
        <ele>1258.8</ele>
        <time>2026-05-06T10:29:34.000Z</time>
      </trkpt>
      <trkpt lat="41.795345" lon="22.986695">
        <ele>1258.8</ele>
        <time>2026-05-06T10:29:35.000Z</time>
      </trkpt>
      <trkpt lat="41.795342" lon="22.986693">
        <ele>1258.8</ele>
        <time>2026-05-06T10:29:36.000Z</time>
      </trkpt>
      <trkpt lat="41.795341" lon="22.986691">
        <ele>1258.8</ele>
        <time>2026-05-06T10:29:37.000Z</time>
      </trkpt>
      <trkpt lat="41.795343" lon="22.986693">
        <ele>1258.7</ele>
        <time>2026-05-06T10:29:38.000Z</time>
      </trkpt>
      <trkpt lat="41.795345" lon="22.986694">
        <ele>1258.7</ele>
        <time>2026-05-06T10:29:39.000Z</time>
      </trkpt>
      <trkpt lat="41.795345" lon="22.986696">
        <ele>1258.7</ele>
        <time>2026-05-06T10:29:40.000Z</time>
      </trkpt>
      <trkpt lat="41.795347" lon="22.986697">
        <ele>1258.7</ele>
        <time>2026-05-06T10:29:41.000Z</time>
      </trkpt>
      <trkpt lat="41.795347" lon="22.986697">
        <ele>1258.7</ele>
        <time>2026-05-06T10:29:42.000Z</time>
      </trkpt>
      <trkpt lat="41.795348" lon="22.986697">
        <ele>1258.7</ele>
        <time>2026-05-06T10:29:43.000Z</time>
      </trkpt>
      <trkpt lat="41.795349" lon="22.986697">
        <ele>1258.7</ele>
        <time>2026-05-06T10:29:44.000Z</time>
      </trkpt>
      <trkpt lat="41.79535" lon="22.986697">
        <ele>1258.7</ele>
        <time>2026-05-06T10:29:45.000Z</time>
      </trkpt>
      <trkpt lat="41.795349" lon="22.986696">
        <ele>1258.7</ele>
        <time>2026-05-06T10:29:46.000Z</time>
      </trkpt>
      <trkpt lat="41.795349" lon="22.986695">
        <ele>1258.7</ele>
        <time>2026-05-06T10:29:47.000Z</time>
      </trkpt>
      <trkpt lat="41.795347" lon="22.986693">
        <ele>1258.7</ele>
        <time>2026-05-06T10:29:48.000Z</time>
      </trkpt>
      <trkpt lat="41.795347" lon="22.98669">
        <ele>1258.7</ele>
        <time>2026-05-06T10:29:49.000Z</time>
      </trkpt>
      <trkpt lat="41.795347" lon="22.986688">
        <ele>1258.7</ele>
        <time>2026-05-06T10:29:50.000Z</time>
      </trkpt>
      <trkpt lat="41.795347" lon="22.986686">
        <ele>1258.7</ele>
        <time>2026-05-06T10:29:51.000Z</time>
      </trkpt>
      <trkpt lat="41.795348" lon="22.986686">
        <ele>1258.7</ele>
        <time>2026-05-06T10:29:52.000Z</time>
      </trkpt>
      <trkpt lat="41.795348" lon="22.986686">
        <ele>1258.8</ele>
        <time>2026-05-06T10:29:53.000Z</time>
      </trkpt>
      <trkpt lat="41.795348" lon="22.986686">
        <ele>1258.8</ele>
        <time>2026-05-06T10:29:54.000Z</time>
      </trkpt>
      <trkpt lat="41.795348" lon="22.986685">
        <ele>1258.8</ele>
        <time>2026-05-06T10:29:55.000Z</time>
      </trkpt>
      <trkpt lat="41.795348" lon="22.986684">
        <ele>1258.8</ele>
        <time>2026-05-06T10:29:56.000Z</time>
      </trkpt>
      <trkpt lat="41.795349" lon="22.986684">
        <ele>1258.8</ele>
        <time>2026-05-06T10:29:57.000Z</time>
      </trkpt>
      <trkpt lat="41.79535" lon="22.986685">
        <ele>1258.7</ele>
        <time>2026-05-06T10:29:58.000Z</time>
      </trkpt>
      <trkpt lat="41.795351" lon="22.986686">
        <ele>1258.7</ele>
        <time>2026-05-06T10:29:59.000Z</time>
      </trkpt>
      <trkpt lat="41.795352" lon="22.986687">
        <ele>1258.7</ele>
        <time>2026-05-06T10:30:00.000Z</time>
      </trkpt>
      <trkpt lat="41.795353" lon="22.98669">
        <ele>1258.7</ele>
        <time>2026-05-06T10:30:01.000Z</time>
      </trkpt>
      <trkpt lat="41.795354" lon="22.986693">
        <ele>1258.7</ele>
        <time>2026-05-06T10:30:02.000Z</time>
      </trkpt>
      <trkpt lat="41.795355" lon="22.986695">
        <ele>1258.6</ele>
        <time>2026-05-06T10:30:03.000Z</time>
      </trkpt>
      <trkpt lat="41.795356" lon="22.986697">
        <ele>1258.6</ele>
        <time>2026-05-06T10:30:04.000Z</time>
      </trkpt>
      <trkpt lat="41.795358" lon="22.986701">
        <ele>1258.6</ele>
        <time>2026-05-06T10:30:05.000Z</time>
      </trkpt>
      <trkpt lat="41.79536" lon="22.986704">
        <ele>1258.6</ele>
        <time>2026-05-06T10:30:06.000Z</time>
      </trkpt>
      <trkpt lat="41.795361" lon="22.986706">
        <ele>1258.6</ele>
        <time>2026-05-06T10:30:07.000Z</time>
      </trkpt>
      <trkpt lat="41.795362" lon="22.986708">
        <ele>1258.7</ele>
        <time>2026-05-06T10:30:08.000Z</time>
      </trkpt>
      <trkpt lat="41.795362" lon="22.986709">
        <ele>1258.7</ele>
        <time>2026-05-06T10:30:09.000Z</time>
      </trkpt>
      <trkpt lat="41.795362" lon="22.986709">
        <ele>1258.7</ele>
        <time>2026-05-06T10:30:10.000Z</time>
      </trkpt>
      <trkpt lat="41.795362" lon="22.98671">
        <ele>1258.7</ele>
        <time>2026-05-06T10:30:11.000Z</time>
      </trkpt>
      <trkpt lat="41.795362" lon="22.986711">
        <ele>1258.7</ele>
        <time>2026-05-06T10:30:12.000Z</time>
      </trkpt>
      <trkpt lat="41.795361" lon="22.986712">
        <ele>1258.9</ele>
        <time>2026-05-06T10:30:13.000Z</time>
      </trkpt>
      <trkpt lat="41.795361" lon="22.986712">
        <ele>1258.9</ele>
        <time>2026-05-06T10:30:14.000Z</time>
      </trkpt>
      <trkpt lat="41.79536" lon="22.986713">
        <ele>1258.9</ele>
        <time>2026-05-06T10:30:15.000Z</time>
      </trkpt>
      <trkpt lat="41.795358" lon="22.986711">
        <ele>1258.9</ele>
        <time>2026-05-06T10:30:16.000Z</time>
      </trkpt>
      <trkpt lat="41.795357" lon="22.986707">
        <ele>1258.9</ele>
        <time>2026-05-06T10:30:17.000Z</time>
      </trkpt>
      <trkpt lat="41.795356" lon="22.986702">
        <ele>1259</ele>
        <time>2026-05-06T10:30:18.000Z</time>
      </trkpt>
      <trkpt lat="41.795354" lon="22.986696">
        <ele>1259</ele>
        <time>2026-05-06T10:30:19.000Z</time>
      </trkpt>
      <trkpt lat="41.795352" lon="22.986689">
        <ele>1259</ele>
        <time>2026-05-06T10:30:20.000Z</time>
      </trkpt>
      <trkpt lat="41.795348" lon="22.986684">
        <ele>1259</ele>
        <time>2026-05-06T10:30:21.000Z</time>
      </trkpt>
      <trkpt lat="41.795343" lon="22.986679">
        <ele>1259</ele>
        <time>2026-05-06T10:30:22.000Z</time>
      </trkpt>
      <trkpt lat="41.795336" lon="22.986675">
        <ele>1259</ele>
        <time>2026-05-06T10:30:23.000Z</time>
      </trkpt>
      <trkpt lat="41.795327" lon="22.986671">
        <ele>1259</ele>
        <time>2026-05-06T10:30:24.000Z</time>
      </trkpt>
      <trkpt lat="41.795319" lon="22.986669">
        <ele>1259</ele>
        <time>2026-05-06T10:30:25.000Z</time>
      </trkpt>
      <trkpt lat="41.795311" lon="22.986666">
        <ele>1259</ele>
        <time>2026-05-06T10:30:26.000Z</time>
      </trkpt>
      <trkpt lat="41.795304" lon="22.986663">
        <ele>1259</ele>
        <time>2026-05-06T10:30:27.000Z</time>
      </trkpt>
      <trkpt lat="41.795298" lon="22.986661">
        <ele>1259.2</ele>
        <time>2026-05-06T10:30:28.000Z</time>
      </trkpt>
      <trkpt lat="41.795293" lon="22.986662">
        <ele>1259.2</ele>
        <time>2026-05-06T10:30:29.000Z</time>
      </trkpt>
      <trkpt lat="41.795289" lon="22.986663">
        <ele>1259.2</ele>
        <time>2026-05-06T10:30:30.000Z</time>
      </trkpt>
      <trkpt lat="41.795285" lon="22.986666">
        <ele>1259.2</ele>
        <time>2026-05-06T10:30:31.000Z</time>
      </trkpt>
      <trkpt lat="41.795281" lon="22.986673">
        <ele>1259.2</ele>
        <time>2026-05-06T10:30:32.000Z</time>
      </trkpt>
      <trkpt lat="41.795277" lon="22.986682">
        <ele>1259.5</ele>
        <time>2026-05-06T10:30:33.000Z</time>
      </trkpt>
      <trkpt lat="41.795273" lon="22.98669">
        <ele>1259.5</ele>
        <time>2026-05-06T10:30:34.000Z</time>
      </trkpt>
      <trkpt lat="41.795266" lon="22.986698">
        <ele>1259.5</ele>
        <time>2026-05-06T10:30:35.000Z</time>
      </trkpt>
      <trkpt lat="41.795259" lon="22.986705">
        <ele>1259.5</ele>
        <time>2026-05-06T10:30:36.000Z</time>
      </trkpt>
      <trkpt lat="41.795252" lon="22.986709">
        <ele>1259.5</ele>
        <time>2026-05-06T10:30:37.000Z</time>
      </trkpt>
      <trkpt lat="41.795247" lon="22.986711">
        <ele>1260.1</ele>
        <time>2026-05-06T10:30:38.000Z</time>
      </trkpt>
      <trkpt lat="41.795243" lon="22.986714">
        <ele>1260.1</ele>
        <time>2026-05-06T10:30:39.000Z</time>
      </trkpt>
      <trkpt lat="41.795241" lon="22.986715">
        <ele>1260.1</ele>
        <time>2026-05-06T10:30:40.000Z</time>
      </trkpt>
      <trkpt lat="41.79524" lon="22.986716">
        <ele>1260.1</ele>
        <time>2026-05-06T10:30:41.000Z</time>
      </trkpt>
      <trkpt lat="41.795241" lon="22.986717">
        <ele>1260.1</ele>
        <time>2026-05-06T10:30:42.000Z</time>
      </trkpt>
      <trkpt lat="41.795241" lon="22.986716">
        <ele>1261</ele>
        <time>2026-05-06T10:30:43.000Z</time>
      </trkpt>
      <trkpt lat="41.795242" lon="22.986715">
        <ele>1261</ele>
        <time>2026-05-06T10:30:44.000Z</time>
      </trkpt>
      <trkpt lat="41.795243" lon="22.986714">
        <ele>1261</ele>
        <time>2026-05-06T10:30:45.000Z</time>
      </trkpt>
      <trkpt lat="41.795245" lon="22.986712">
        <ele>1261</ele>
        <time>2026-05-06T10:30:46.000Z</time>
      </trkpt>
      <trkpt lat="41.795247" lon="22.986711">
        <ele>1261</ele>
        <time>2026-05-06T10:30:47.000Z</time>
      </trkpt>
      <trkpt lat="41.795249" lon="22.986709">
        <ele>1261.5</ele>
        <time>2026-05-06T10:30:48.000Z</time>
      </trkpt>
      <trkpt lat="41.79525" lon="22.986707">
        <ele>1261.5</ele>
        <time>2026-05-06T10:30:49.000Z</time>
      </trkpt>
      <trkpt lat="41.79525" lon="22.986705">
        <ele>1261.5</ele>
        <time>2026-05-06T10:30:50.000Z</time>
      </trkpt>
      <trkpt lat="41.795247" lon="22.986702">
        <ele>1261.5</ele>
        <time>2026-05-06T10:30:51.000Z</time>
      </trkpt>
      <trkpt lat="41.795243" lon="22.986698">
        <ele>1261.5</ele>
        <time>2026-05-06T10:30:52.000Z</time>
      </trkpt>
      <trkpt lat="41.79524" lon="22.986693">
        <ele>1262</ele>
        <time>2026-05-06T10:30:53.000Z</time>
      </trkpt>
      <trkpt lat="41.795238" lon="22.986688">
        <ele>1262</ele>
        <time>2026-05-06T10:30:54.000Z</time>
      </trkpt>
      <trkpt lat="41.795237" lon="22.986684">
        <ele>1262</ele>
        <time>2026-05-06T10:30:55.000Z</time>
      </trkpt>
      <trkpt lat="41.795237" lon="22.986681">
        <ele>1262</ele>
        <time>2026-05-06T10:30:56.000Z</time>
      </trkpt>
      <trkpt lat="41.795237" lon="22.986679">
        <ele>1262</ele>
        <time>2026-05-06T10:30:57.000Z</time>
      </trkpt>
      <trkpt lat="41.795237" lon="22.986678">
        <ele>1262.1</ele>
        <time>2026-05-06T10:30:58.000Z</time>
      </trkpt>
      <trkpt lat="41.795237" lon="22.986678">
        <ele>1262.1</ele>
        <time>2026-05-06T10:30:59.000Z</time>
      </trkpt>
      <trkpt lat="41.795235" lon="22.986676">
        <ele>1262.1</ele>
        <time>2026-05-06T10:31:00.000Z</time>
      </trkpt>
      <trkpt lat="41.795233" lon="22.986673">
        <ele>1262.1</ele>
        <time>2026-05-06T10:31:01.000Z</time>
      </trkpt>
      <trkpt lat="41.795231" lon="22.986671">
        <ele>1262.1</ele>
        <time>2026-05-06T10:31:02.000Z</time>
      </trkpt>
      <trkpt lat="41.795228" lon="22.98667">
        <ele>1262.1</ele>
        <time>2026-05-06T10:31:03.000Z</time>
      </trkpt>
      <trkpt lat="41.795226" lon="22.98667">
        <ele>1262.1</ele>
        <time>2026-05-06T10:31:04.000Z</time>
      </trkpt>
      <trkpt lat="41.795223" lon="22.98667">
        <ele>1262.1</ele>
        <time>2026-05-06T10:31:05.000Z</time>
      </trkpt>
      <trkpt lat="41.79522" lon="22.98667">
        <ele>1262.1</ele>
        <time>2026-05-06T10:31:06.000Z</time>
      </trkpt>
      <trkpt lat="41.795217" lon="22.98667">
        <ele>1262.1</ele>
        <time>2026-05-06T10:31:07.000Z</time>
      </trkpt>
      <trkpt lat="41.795213" lon="22.98667">
        <ele>1262.3</ele>
        <time>2026-05-06T10:31:08.000Z</time>
      </trkpt>
      <trkpt lat="41.79521" lon="22.986671">
        <ele>1262.3</ele>
        <time>2026-05-06T10:31:09.000Z</time>
      </trkpt>
      <trkpt lat="41.795208" lon="22.986671">
        <ele>1262.3</ele>
        <time>2026-05-06T10:31:10.000Z</time>
      </trkpt>
      <trkpt lat="41.795205" lon="22.986671">
        <ele>1262.3</ele>
        <time>2026-05-06T10:31:11.000Z</time>
      </trkpt>
      <trkpt lat="41.795203" lon="22.986672">
        <ele>1262.3</ele>
        <time>2026-05-06T10:31:12.000Z</time>
      </trkpt>
      <trkpt lat="41.795201" lon="22.986674">
        <ele>1262.3</ele>
        <time>2026-05-06T10:31:13.000Z</time>
      </trkpt>
      <trkpt lat="41.7952" lon="22.986675">
        <ele>1262.3</ele>
        <time>2026-05-06T10:31:14.000Z</time>
      </trkpt>
      <trkpt lat="41.795199" lon="22.986676">
        <ele>1262.3</ele>
        <time>2026-05-06T10:31:15.000Z</time>
      </trkpt>
      <trkpt lat="41.795198" lon="22.986677">
        <ele>1262.3</ele>
        <time>2026-05-06T10:31:16.000Z</time>
      </trkpt>
      <trkpt lat="41.795197" lon="22.986678">
        <ele>1262.3</ele>
        <time>2026-05-06T10:31:17.000Z</time>
      </trkpt>
      <trkpt lat="41.795196" lon="22.986678">
        <ele>1262.3</ele>
        <time>2026-05-06T10:31:18.000Z</time>
      </trkpt>
      <trkpt lat="41.795196" lon="22.986679">
        <ele>1262.3</ele>
        <time>2026-05-06T10:31:19.000Z</time>
      </trkpt>
      <trkpt lat="41.795195" lon="22.986679">
        <ele>1262.3</ele>
        <time>2026-05-06T10:31:20.000Z</time>
      </trkpt>
      <trkpt lat="41.795195" lon="22.986679">
        <ele>1262.3</ele>
        <time>2026-05-06T10:31:21.000Z</time>
      </trkpt>
      <trkpt lat="41.795195" lon="22.986679">
        <ele>1262.3</ele>
        <time>2026-05-06T10:31:22.000Z</time>
      </trkpt>
      <trkpt lat="41.795195" lon="22.986679">
        <ele>1262.5</ele>
        <time>2026-05-06T10:31:23.000Z</time>
      </trkpt>
      <trkpt lat="41.795195" lon="22.986679">
        <ele>1262.5</ele>
        <time>2026-05-06T10:31:24.000Z</time>
      </trkpt>
      <trkpt lat="41.795195" lon="22.986679">
        <ele>1262.5</ele>
        <time>2026-05-06T10:31:25.000Z</time>
      </trkpt>
      <trkpt lat="41.795194" lon="22.986678">
        <ele>1262.5</ele>
        <time>2026-05-06T10:31:26.000Z</time>
      </trkpt>
      <trkpt lat="41.795194" lon="22.986677">
        <ele>1262.5</ele>
        <time>2026-05-06T10:31:27.000Z</time>
      </trkpt>
      <trkpt lat="41.795193" lon="22.986676">
        <ele>1262.6</ele>
        <time>2026-05-06T10:31:28.000Z</time>
      </trkpt>
      <trkpt lat="41.795193" lon="22.986675">
        <ele>1262.6</ele>
        <time>2026-05-06T10:31:29.000Z</time>
      </trkpt>
      <trkpt lat="41.795192" lon="22.986674">
        <ele>1262.6</ele>
        <time>2026-05-06T10:31:30.000Z</time>
      </trkpt>
      <trkpt lat="41.795193" lon="22.986675">
        <ele>1262.6</ele>
        <time>2026-05-06T10:31:31.000Z</time>
      </trkpt>
      <trkpt lat="41.795193" lon="22.986675">
        <ele>1262.6</ele>
        <time>2026-05-06T10:31:32.000Z</time>
      </trkpt>
      <trkpt lat="41.795193" lon="22.986675">
        <ele>1262.6</ele>
        <time>2026-05-06T10:31:33.000Z</time>
      </trkpt>
      <trkpt lat="41.795193" lon="22.986676">
        <ele>1262.6</ele>
        <time>2026-05-06T10:31:34.000Z</time>
      </trkpt>
      <trkpt lat="41.795193" lon="22.986677">
        <ele>1262.6</ele>
        <time>2026-05-06T10:31:35.000Z</time>
      </trkpt>
      <trkpt lat="41.795194" lon="22.986677">
        <ele>1262.6</ele>
        <time>2026-05-06T10:31:36.000Z</time>
      </trkpt>
      <trkpt lat="41.795194" lon="22.986678">
        <ele>1262.6</ele>
        <time>2026-05-06T10:31:37.000Z</time>
      </trkpt>
      <trkpt lat="41.795194" lon="22.986678">
        <ele>1262.3</ele>
        <time>2026-05-06T10:31:38.000Z</time>
      </trkpt>
      <trkpt lat="41.795194" lon="22.986679">
        <ele>1262.3</ele>
        <time>2026-05-06T10:31:39.000Z</time>
      </trkpt>
      <trkpt lat="41.795194" lon="22.986679">
        <ele>1262.3</ele>
        <time>2026-05-06T10:31:40.000Z</time>
      </trkpt>
      <trkpt lat="41.795194" lon="22.98668">
        <ele>1262.3</ele>
        <time>2026-05-06T10:31:41.000Z</time>
      </trkpt>
      <trkpt lat="41.795194" lon="22.98668">
        <ele>1262.3</ele>
        <time>2026-05-06T10:31:42.000Z</time>
      </trkpt>
      <trkpt lat="41.795195" lon="22.986681">
        <ele>1262.1</ele>
        <time>2026-05-06T10:31:43.000Z</time>
      </trkpt>
      <trkpt lat="41.795195" lon="22.986684">
        <ele>1262.1</ele>
        <time>2026-05-06T10:31:44.000Z</time>
      </trkpt>
      <trkpt lat="41.795196" lon="22.986688">
        <ele>1262.1</ele>
        <time>2026-05-06T10:31:45.000Z</time>
      </trkpt>
      <trkpt lat="41.795196" lon="22.986695">
        <ele>1262.1</ele>
        <time>2026-05-06T10:31:46.000Z</time>
      </trkpt>
      <trkpt lat="41.795195" lon="22.986704">
        <ele>1262.1</ele>
        <time>2026-05-06T10:31:47.000Z</time>
      </trkpt>
      <trkpt lat="41.795195" lon="22.986713">
        <ele>1262.1</ele>
        <time>2026-05-06T10:31:48.000Z</time>
      </trkpt>
      <trkpt lat="41.795193" lon="22.986723">
        <ele>1262.1</ele>
        <time>2026-05-06T10:31:49.000Z</time>
      </trkpt>
      <trkpt lat="41.795191" lon="22.986731">
        <ele>1262.1</ele>
        <time>2026-05-06T10:31:50.000Z</time>
      </trkpt>
      <trkpt lat="41.795189" lon="22.986738">
        <ele>1262.1</ele>
        <time>2026-05-06T10:31:51.000Z</time>
      </trkpt>
      <trkpt lat="41.795188" lon="22.986741">
        <ele>1262.1</ele>
        <time>2026-05-06T10:31:52.000Z</time>
      </trkpt>
      <trkpt lat="41.795187" lon="22.986743">
        <ele>1262.5</ele>
        <time>2026-05-06T10:31:53.000Z</time>
      </trkpt>
      <trkpt lat="41.795188" lon="22.986742">
        <ele>1262.5</ele>
        <time>2026-05-06T10:31:54.000Z</time>
      </trkpt>
      <trkpt lat="41.795188" lon="22.986741">
        <ele>1262.5</ele>
        <time>2026-05-06T10:31:55.000Z</time>
      </trkpt>
      <trkpt lat="41.795189" lon="22.98674">
        <ele>1262.5</ele>
        <time>2026-05-06T10:31:56.000Z</time>
      </trkpt>
      <trkpt lat="41.795189" lon="22.98674">
        <ele>1262.5</ele>
        <time>2026-05-06T10:31:57.000Z</time>
      </trkpt>
      <trkpt lat="41.79519" lon="22.986739">
        <ele>1262.9</ele>
        <time>2026-05-06T10:31:58.000Z</time>
      </trkpt>
      <trkpt lat="41.79519" lon="22.986739">
        <ele>1262.9</ele>
        <time>2026-05-06T10:31:59.000Z</time>
      </trkpt>
      <trkpt lat="41.79519" lon="22.986738">
        <ele>1262.9</ele>
        <time>2026-05-06T10:32:00.000Z</time>
      </trkpt>
      <trkpt lat="41.795191" lon="22.986738">
        <ele>1262.9</ele>
        <time>2026-05-06T10:32:01.000Z</time>
      </trkpt>
      <trkpt lat="41.795191" lon="22.986737">
        <ele>1262.9</ele>
        <time>2026-05-06T10:32:02.000Z</time>
      </trkpt>
      <trkpt lat="41.795192" lon="22.986736">
        <ele>1263.1</ele>
        <time>2026-05-06T10:32:03.000Z</time>
      </trkpt>
      <trkpt lat="41.795193" lon="22.986736">
        <ele>1263.1</ele>
        <time>2026-05-06T10:32:04.000Z</time>
      </trkpt>
      <trkpt lat="41.795193" lon="22.986736">
        <ele>1263.1</ele>
        <time>2026-05-06T10:32:05.000Z</time>
      </trkpt>
      <trkpt lat="41.795193" lon="22.986736">
        <ele>1263.1</ele>
        <time>2026-05-06T10:32:06.000Z</time>
      </trkpt>
      <trkpt lat="41.795193" lon="22.986736">
        <ele>1263.1</ele>
        <time>2026-05-06T10:32:07.000Z</time>
      </trkpt>
      <trkpt lat="41.795193" lon="22.986736">
        <ele>1263.4</ele>
        <time>2026-05-06T10:32:08.000Z</time>
      </trkpt>
      <trkpt lat="41.795193" lon="22.986736">
        <ele>1263.4</ele>
        <time>2026-05-06T10:32:09.000Z</time>
      </trkpt>
      <trkpt lat="41.795194" lon="22.986735">
        <ele>1263.4</ele>
        <time>2026-05-06T10:32:10.000Z</time>
      </trkpt>
      <trkpt lat="41.795195" lon="22.986735">
        <ele>1263.4</ele>
        <time>2026-05-06T10:32:11.000Z</time>
      </trkpt>
      <trkpt lat="41.795196" lon="22.986735">
        <ele>1263.4</ele>
        <time>2026-05-06T10:32:12.000Z</time>
      </trkpt>
      <trkpt lat="41.795197" lon="22.986735">
        <ele>1263.5</ele>
        <time>2026-05-06T10:32:13.000Z</time>
      </trkpt>
      <trkpt lat="41.795198" lon="22.986734">
        <ele>1263.5</ele>
        <time>2026-05-06T10:32:14.000Z</time>
      </trkpt>
      <trkpt lat="41.795198" lon="22.986734">
        <ele>1263.5</ele>
        <time>2026-05-06T10:32:15.000Z</time>
      </trkpt>
      <trkpt lat="41.795198" lon="22.986734">
        <ele>1263.5</ele>
        <time>2026-05-06T10:32:16.000Z</time>
      </trkpt>
      <trkpt lat="41.795198" lon="22.986734">
        <ele>1263.5</ele>
        <time>2026-05-06T10:32:17.000Z</time>
      </trkpt>
      <trkpt lat="41.795198" lon="22.986734">
        <ele>1263.5</ele>
        <time>2026-05-06T10:32:18.000Z</time>
      </trkpt>
      <trkpt lat="41.795198" lon="22.986734">
        <ele>1263.5</ele>
        <time>2026-05-06T10:32:19.000Z</time>
      </trkpt>
      <trkpt lat="41.795198" lon="22.986734">
        <ele>1263.5</ele>
        <time>2026-05-06T10:32:20.000Z</time>
      </trkpt>
      <trkpt lat="41.795198" lon="22.986734">
        <ele>1263.5</ele>
        <time>2026-05-06T10:32:21.000Z</time>
      </trkpt>
      <trkpt lat="41.795198" lon="22.986734">
        <ele>1263.5</ele>
        <time>2026-05-06T10:32:22.000Z</time>
      </trkpt>
      <trkpt lat="41.795198" lon="22.986733">
        <ele>1263.6</ele>
        <time>2026-05-06T10:32:23.000Z</time>
      </trkpt>
      <trkpt lat="41.795199" lon="22.986733">
        <ele>1263.6</ele>
        <time>2026-05-06T10:32:24.000Z</time>
      </trkpt>
      <trkpt lat="41.795199" lon="22.986733">
        <ele>1263.6</ele>
        <time>2026-05-06T10:32:25.000Z</time>
      </trkpt>
      <trkpt lat="41.795199" lon="22.986732">
        <ele>1263.6</ele>
        <time>2026-05-06T10:32:26.000Z</time>
      </trkpt>
      <trkpt lat="41.795199" lon="22.986732">
        <ele>1263.6</ele>
        <time>2026-05-06T10:32:27.000Z</time>
      </trkpt>
      <trkpt lat="41.795199" lon="22.986732">
        <ele>1263.6</ele>
        <time>2026-05-06T10:32:28.000Z</time>
      </trkpt>
      <trkpt lat="41.795199" lon="22.986732">
        <ele>1263.6</ele>
        <time>2026-05-06T10:32:29.000Z</time>
      </trkpt>
      <trkpt lat="41.795199" lon="22.986732">
        <ele>1263.6</ele>
        <time>2026-05-06T10:32:30.000Z</time>
      </trkpt>
      <trkpt lat="41.795199" lon="22.986732">
        <ele>1263.6</ele>
        <time>2026-05-06T10:32:31.000Z</time>
      </trkpt>
      <trkpt lat="41.795199" lon="22.986732">
        <ele>1263.6</ele>
        <time>2026-05-06T10:32:32.000Z</time>
      </trkpt>
      <trkpt lat="41.795199" lon="22.986732">
        <ele>1263.6</ele>
        <time>2026-05-06T10:32:33.000Z</time>
      </trkpt>
      <trkpt lat="41.7952" lon="22.986731">
        <ele>1263.6</ele>
        <time>2026-05-06T10:32:34.000Z</time>
      </trkpt>
      <trkpt lat="41.795201" lon="22.986731">
        <ele>1263.6</ele>
        <time>2026-05-06T10:32:35.000Z</time>
      </trkpt>
      <trkpt lat="41.795201" lon="22.986731">
        <ele>1263.6</ele>
        <time>2026-05-06T10:32:36.000Z</time>
      </trkpt>
      <trkpt lat="41.795203" lon="22.98673">
        <ele>1263.6</ele>
        <time>2026-05-06T10:32:37.000Z</time>
      </trkpt>
      <trkpt lat="41.795203" lon="22.98673">
        <ele>1263.6</ele>
        <time>2026-05-06T10:32:38.000Z</time>
      </trkpt>
      <trkpt lat="41.795204" lon="22.986731">
        <ele>1263.6</ele>
        <time>2026-05-06T10:32:39.000Z</time>
      </trkpt>
      <trkpt lat="41.795206" lon="22.98673">
        <ele>1263.6</ele>
        <time>2026-05-06T10:32:40.000Z</time>
      </trkpt>
      <trkpt lat="41.795208" lon="22.98673">
        <ele>1263.6</ele>
        <time>2026-05-06T10:32:41.000Z</time>
      </trkpt>
      <trkpt lat="41.795209" lon="22.98673">
        <ele>1263.6</ele>
        <time>2026-05-06T10:32:42.000Z</time>
      </trkpt>
      <trkpt lat="41.79521" lon="22.986731">
        <ele>1263.6</ele>
        <time>2026-05-06T10:32:43.000Z</time>
      </trkpt>
      <trkpt lat="41.795209" lon="22.986731">
        <ele>1263.6</ele>
        <time>2026-05-06T10:32:44.000Z</time>
      </trkpt>
      <trkpt lat="41.795208" lon="22.986732">
        <ele>1263.6</ele>
        <time>2026-05-06T10:32:45.000Z</time>
      </trkpt>
      <trkpt lat="41.795207" lon="22.986733">
        <ele>1263.6</ele>
        <time>2026-05-06T10:32:46.000Z</time>
      </trkpt>
      <trkpt lat="41.795206" lon="22.986732">
        <ele>1263.6</ele>
        <time>2026-05-06T10:32:47.000Z</time>
      </trkpt>
      <trkpt lat="41.795205" lon="22.986732">
        <ele>1263.6</ele>
        <time>2026-05-06T10:32:48.000Z</time>
      </trkpt>
      <trkpt lat="41.795204" lon="22.986732">
        <ele>1263.6</ele>
        <time>2026-05-06T10:32:49.000Z</time>
      </trkpt>
      <trkpt lat="41.795204" lon="22.986732">
        <ele>1263.6</ele>
        <time>2026-05-06T10:32:50.000Z</time>
      </trkpt>
      <trkpt lat="41.795203" lon="22.986732">
        <ele>1263.6</ele>
        <time>2026-05-06T10:32:51.000Z</time>
      </trkpt>
      <trkpt lat="41.795203" lon="22.986732">
        <ele>1263.6</ele>
        <time>2026-05-06T10:32:52.000Z</time>
      </trkpt>
      <trkpt lat="41.795204" lon="22.986733">
        <ele>1263.5</ele>
        <time>2026-05-06T10:32:53.000Z</time>
      </trkpt>
      <trkpt lat="41.795204" lon="22.986732">
        <ele>1263.5</ele>
        <time>2026-05-06T10:32:54.000Z</time>
      </trkpt>
      <trkpt lat="41.795204" lon="22.986733">
        <ele>1263.5</ele>
        <time>2026-05-06T10:32:55.000Z</time>
      </trkpt>
      <trkpt lat="41.795204" lon="22.986733">
        <ele>1263.5</ele>
        <time>2026-05-06T10:32:56.000Z</time>
      </trkpt>
      <trkpt lat="41.795204" lon="22.986733">
        <ele>1263.5</ele>
        <time>2026-05-06T10:32:57.000Z</time>
      </trkpt>
      <trkpt lat="41.795203" lon="22.986733">
        <ele>1263.4</ele>
        <time>2026-05-06T10:32:58.000Z</time>
      </trkpt>
      <trkpt lat="41.795203" lon="22.986734">
        <ele>1263.4</ele>
        <time>2026-05-06T10:32:59.000Z</time>
      </trkpt>
      <trkpt lat="41.795203" lon="22.986734">
        <ele>1263.4</ele>
        <time>2026-05-06T10:33:00.000Z</time>
      </trkpt>
      <trkpt lat="41.795202" lon="22.986733">
        <ele>1263.4</ele>
        <time>2026-05-06T10:33:01.000Z</time>
      </trkpt>
      <trkpt lat="41.795201" lon="22.986732">
        <ele>1263.4</ele>
        <time>2026-05-06T10:33:02.000Z</time>
      </trkpt>
      <trkpt lat="41.7952" lon="22.986731">
        <ele>1263.4</ele>
        <time>2026-05-06T10:33:03.000Z</time>
      </trkpt>
      <trkpt lat="41.795199" lon="22.986731">
        <ele>1263.4</ele>
        <time>2026-05-06T10:33:04.000Z</time>
      </trkpt>
      <trkpt lat="41.795198" lon="22.98673">
        <ele>1263.4</ele>
        <time>2026-05-06T10:33:05.000Z</time>
      </trkpt>
      <trkpt lat="41.795198" lon="22.98673">
        <ele>1263.4</ele>
        <time>2026-05-06T10:33:06.000Z</time>
      </trkpt>
      <trkpt lat="41.795198" lon="22.986729">
        <ele>1263.4</ele>
        <time>2026-05-06T10:33:07.000Z</time>
      </trkpt>
      <trkpt lat="41.795197" lon="22.986728">
        <ele>1263.3</ele>
        <time>2026-05-06T10:33:08.000Z</time>
      </trkpt>
      <trkpt lat="41.795197" lon="22.986727">
        <ele>1263.3</ele>
        <time>2026-05-06T10:33:09.000Z</time>
      </trkpt>
      <trkpt lat="41.795197" lon="22.986725">
        <ele>1263.3</ele>
        <time>2026-05-06T10:33:10.000Z</time>
      </trkpt>
      <trkpt lat="41.795196" lon="22.986725">
        <ele>1263.3</ele>
        <time>2026-05-06T10:33:11.000Z</time>
      </trkpt>
      <trkpt lat="41.795196" lon="22.986725">
        <ele>1263.3</ele>
        <time>2026-05-06T10:33:12.000Z</time>
      </trkpt>
      <trkpt lat="41.795196" lon="22.986725">
        <ele>1263.2</ele>
        <time>2026-05-06T10:33:13.000Z</time>
      </trkpt>
      <trkpt lat="41.795196" lon="22.986726">
        <ele>1263.2</ele>
        <time>2026-05-06T10:33:14.000Z</time>
      </trkpt>
      <trkpt lat="41.795195" lon="22.986726">
        <ele>1263.2</ele>
        <time>2026-05-06T10:33:15.000Z</time>
      </trkpt>
      <trkpt lat="41.795194" lon="22.986725">
        <ele>1263.2</ele>
        <time>2026-05-06T10:33:16.000Z</time>
      </trkpt>
      <trkpt lat="41.795192" lon="22.986725">
        <ele>1263.2</ele>
        <time>2026-05-06T10:33:17.000Z</time>
      </trkpt>
      <trkpt lat="41.795189" lon="22.986726">
        <ele>1263.3</ele>
        <time>2026-05-06T10:33:18.000Z</time>
      </trkpt>
      <trkpt lat="41.795185" lon="22.986729">
        <ele>1263.3</ele>
        <time>2026-05-06T10:33:19.000Z</time>
      </trkpt>
      <trkpt lat="41.795181" lon="22.986734">
        <ele>1263.3</ele>
        <time>2026-05-06T10:33:20.000Z</time>
      </trkpt>
      <trkpt lat="41.795177" lon="22.986744">
        <ele>1263.3</ele>
        <time>2026-05-06T10:33:21.000Z</time>
      </trkpt>
      <trkpt lat="41.795174" lon="22.986755">
        <ele>1263.3</ele>
        <time>2026-05-06T10:33:22.000Z</time>
      </trkpt>
      <trkpt lat="41.79517" lon="22.986767">
        <ele>1263.3</ele>
        <time>2026-05-06T10:33:23.000Z</time>
      </trkpt>
      <trkpt lat="41.795166" lon="22.986778">
        <ele>1263.3</ele>
        <time>2026-05-06T10:33:24.000Z</time>
      </trkpt>
      <trkpt lat="41.795162" lon="22.986788">
        <ele>1263.3</ele>
        <time>2026-05-06T10:33:25.000Z</time>
      </trkpt>
      <trkpt lat="41.795158" lon="22.986797">
        <ele>1263.3</ele>
        <time>2026-05-06T10:33:26.000Z</time>
      </trkpt>
      <trkpt lat="41.795154" lon="22.986806">
        <ele>1263.3</ele>
        <time>2026-05-06T10:33:27.000Z</time>
      </trkpt>
      <trkpt lat="41.795149" lon="22.986815">
        <ele>1263.4</ele>
        <time>2026-05-06T10:33:28.000Z</time>
      </trkpt>
      <trkpt lat="41.795143" lon="22.986823">
        <ele>1263.4</ele>
        <time>2026-05-06T10:33:29.000Z</time>
      </trkpt>
      <trkpt lat="41.795136" lon="22.986832">
        <ele>1263.4</ele>
        <time>2026-05-06T10:33:30.000Z</time>
      </trkpt>
      <trkpt lat="41.79513" lon="22.986838">
        <ele>1263.4</ele>
        <time>2026-05-06T10:33:31.000Z</time>
      </trkpt>
      <trkpt lat="41.795125" lon="22.986842">
        <ele>1263.4</ele>
        <time>2026-05-06T10:33:32.000Z</time>
      </trkpt>
      <trkpt lat="41.795121" lon="22.986844">
        <ele>1263.6</ele>
        <time>2026-05-06T10:33:33.000Z</time>
      </trkpt>
      <trkpt lat="41.795117" lon="22.986845">
        <ele>1263.6</ele>
        <time>2026-05-06T10:33:34.000Z</time>
      </trkpt>
      <trkpt lat="41.795115" lon="22.986845">
        <ele>1263.6</ele>
        <time>2026-05-06T10:33:35.000Z</time>
      </trkpt>
      <trkpt lat="41.795113" lon="22.986844">
        <ele>1263.6</ele>
        <time>2026-05-06T10:33:36.000Z</time>
      </trkpt>
      <trkpt lat="41.795111" lon="22.986843">
        <ele>1263.6</ele>
        <time>2026-05-06T10:33:37.000Z</time>
      </trkpt>
      <trkpt lat="41.795109" lon="22.986843">
        <ele>1264.1</ele>
        <time>2026-05-06T10:33:38.000Z</time>
      </trkpt>
      <trkpt lat="41.795108" lon="22.986842">
        <ele>1264.1</ele>
        <time>2026-05-06T10:33:39.000Z</time>
      </trkpt>
      <trkpt lat="41.795108" lon="22.986842">
        <ele>1264.1</ele>
        <time>2026-05-06T10:33:40.000Z</time>
      </trkpt>
      <trkpt lat="41.795107" lon="22.986841">
        <ele>1264.1</ele>
        <time>2026-05-06T10:33:41.000Z</time>
      </trkpt>
      <trkpt lat="41.795107" lon="22.986841">
        <ele>1264.1</ele>
        <time>2026-05-06T10:33:42.000Z</time>
      </trkpt>
      <trkpt lat="41.795107" lon="22.98684">
        <ele>1264.7</ele>
        <time>2026-05-06T10:33:43.000Z</time>
      </trkpt>
      <trkpt lat="41.795107" lon="22.98684">
        <ele>1264.7</ele>
        <time>2026-05-06T10:33:44.000Z</time>
      </trkpt>
      <trkpt lat="41.795107" lon="22.98684">
        <ele>1264.7</ele>
        <time>2026-05-06T10:33:45.000Z</time>
      </trkpt>
      <trkpt lat="41.795107" lon="22.98684">
        <ele>1264.7</ele>
        <time>2026-05-06T10:33:46.000Z</time>
      </trkpt>
      <trkpt lat="41.795107" lon="22.98684">
        <ele>1264.7</ele>
        <time>2026-05-06T10:33:47.000Z</time>
      </trkpt>
      <trkpt lat="41.795107" lon="22.98684">
        <ele>1264.9</ele>
        <time>2026-05-06T10:33:48.000Z</time>
      </trkpt>
      <trkpt lat="41.795107" lon="22.98684">
        <ele>1264.9</ele>
        <time>2026-05-06T10:33:49.000Z</time>
      </trkpt>
      <trkpt lat="41.795107" lon="22.98684">
        <ele>1264.9</ele>
        <time>2026-05-06T10:33:50.000Z</time>
      </trkpt>
      <trkpt lat="41.795107" lon="22.98684">
        <ele>1264.9</ele>
        <time>2026-05-06T10:33:51.000Z</time>
      </trkpt>
      <trkpt lat="41.795106" lon="22.98684">
        <ele>1264.9</ele>
        <time>2026-05-06T10:33:52.000Z</time>
      </trkpt>
      <trkpt lat="41.795105" lon="22.98684">
        <ele>1265.3</ele>
        <time>2026-05-06T10:33:53.000Z</time>
      </trkpt>
      <trkpt lat="41.795103" lon="22.98684">
        <ele>1265.3</ele>
        <time>2026-05-06T10:33:54.000Z</time>
      </trkpt>
      <trkpt lat="41.795099" lon="22.986841">
        <ele>1265.3</ele>
        <time>2026-05-06T10:33:55.000Z</time>
      </trkpt>
      <trkpt lat="41.795093" lon="22.986843">
        <ele>1265.3</ele>
        <time>2026-05-06T10:33:56.000Z</time>
      </trkpt>
      <trkpt lat="41.795085" lon="22.986847">
        <ele>1265.3</ele>
        <time>2026-05-06T10:33:57.000Z</time>
      </trkpt>
      <trkpt lat="41.795075" lon="22.986853">
        <ele>1265.5</ele>
        <time>2026-05-06T10:33:58.000Z</time>
      </trkpt>
      <trkpt lat="41.795065" lon="22.986859">
        <ele>1265.5</ele>
        <time>2026-05-06T10:33:59.000Z</time>
      </trkpt>
      <trkpt lat="41.795055" lon="22.986867">
        <ele>1265.5</ele>
        <time>2026-05-06T10:34:00.000Z</time>
      </trkpt>
      <trkpt lat="41.795046" lon="22.986875">
        <ele>1265.5</ele>
        <time>2026-05-06T10:34:01.000Z</time>
      </trkpt>
      <trkpt lat="41.795037" lon="22.986886">
        <ele>1265.5</ele>
        <time>2026-05-06T10:34:02.000Z</time>
      </trkpt>
      <trkpt lat="41.79503" lon="22.986897">
        <ele>1265.5</ele>
        <time>2026-05-06T10:34:03.000Z</time>
      </trkpt>
      <trkpt lat="41.795024" lon="22.986909">
        <ele>1265.5</ele>
        <time>2026-05-06T10:34:04.000Z</time>
      </trkpt>
      <trkpt lat="41.795017" lon="22.986922">
        <ele>1265.5</ele>
        <time>2026-05-06T10:34:05.000Z</time>
      </trkpt>
      <trkpt lat="41.795011" lon="22.986936">
        <ele>1265.5</ele>
        <time>2026-05-06T10:34:06.000Z</time>
      </trkpt>
      <trkpt lat="41.795004" lon="22.986947">
        <ele>1265.5</ele>
        <time>2026-05-06T10:34:07.000Z</time>
      </trkpt>
      <trkpt lat="41.794997" lon="22.986958">
        <ele>1265.6</ele>
        <time>2026-05-06T10:34:08.000Z</time>
      </trkpt>
      <trkpt lat="41.794989" lon="22.986967">
        <ele>1265.6</ele>
        <time>2026-05-06T10:34:09.000Z</time>
      </trkpt>
      <trkpt lat="41.794981" lon="22.986976">
        <ele>1265.6</ele>
        <time>2026-05-06T10:34:10.000Z</time>
      </trkpt>
      <trkpt lat="41.794973" lon="22.986981">
        <ele>1265.6</ele>
        <time>2026-05-06T10:34:11.000Z</time>
      </trkpt>
      <trkpt lat="41.794965" lon="22.986987">
        <ele>1265.6</ele>
        <time>2026-05-06T10:34:12.000Z</time>
      </trkpt>
      <trkpt lat="41.794958" lon="22.986993">
        <ele>1266.1</ele>
        <time>2026-05-06T10:34:13.000Z</time>
      </trkpt>
      <trkpt lat="41.79495" lon="22.986998">
        <ele>1266.1</ele>
        <time>2026-05-06T10:34:14.000Z</time>
      </trkpt>
      <trkpt lat="41.794945" lon="22.987003">
        <ele>1266.1</ele>
        <time>2026-05-06T10:34:15.000Z</time>
      </trkpt>
      <trkpt lat="41.794939" lon="22.987008">
        <ele>1266.1</ele>
        <time>2026-05-06T10:34:16.000Z</time>
      </trkpt>
      <trkpt lat="41.794934" lon="22.987013">
        <ele>1266.1</ele>
        <time>2026-05-06T10:34:17.000Z</time>
      </trkpt>
      <trkpt lat="41.794927" lon="22.987016">
        <ele>1266.6</ele>
        <time>2026-05-06T10:34:18.000Z</time>
      </trkpt>
      <trkpt lat="41.794921" lon="22.987019">
        <ele>1266.6</ele>
        <time>2026-05-06T10:34:19.000Z</time>
      </trkpt>
      <trkpt lat="41.794913" lon="22.987022">
        <ele>1266.6</ele>
        <time>2026-05-06T10:34:20.000Z</time>
      </trkpt>
      <trkpt lat="41.794904" lon="22.987025">
        <ele>1266.6</ele>
        <time>2026-05-06T10:34:21.000Z</time>
      </trkpt>
      <trkpt lat="41.794896" lon="22.987028">
        <ele>1266.6</ele>
        <time>2026-05-06T10:34:22.000Z</time>
      </trkpt>
      <trkpt lat="41.794889" lon="22.987032">
        <ele>1267.8</ele>
        <time>2026-05-06T10:34:23.000Z</time>
      </trkpt>
      <trkpt lat="41.79488" lon="22.987035">
        <ele>1267.8</ele>
        <time>2026-05-06T10:34:24.000Z</time>
      </trkpt>
      <trkpt lat="41.794872" lon="22.987039">
        <ele>1267.8</ele>
        <time>2026-05-06T10:34:25.000Z</time>
      </trkpt>
      <trkpt lat="41.794863" lon="22.987043">
        <ele>1267.8</ele>
        <time>2026-05-06T10:34:26.000Z</time>
      </trkpt>
      <trkpt lat="41.794852" lon="22.987048">
        <ele>1267.8</ele>
        <time>2026-05-06T10:34:27.000Z</time>
      </trkpt>
      <trkpt lat="41.794839" lon="22.987053">
        <ele>1268.7</ele>
        <time>2026-05-06T10:34:28.000Z</time>
      </trkpt>
      <trkpt lat="41.794826" lon="22.987059">
        <ele>1268.7</ele>
        <time>2026-05-06T10:34:29.000Z</time>
      </trkpt>
      <trkpt lat="41.794812" lon="22.987064">
        <ele>1268.7</ele>
        <time>2026-05-06T10:34:30.000Z</time>
      </trkpt>
      <trkpt lat="41.794799" lon="22.987069">
        <ele>1268.7</ele>
        <time>2026-05-06T10:34:31.000Z</time>
      </trkpt>
      <trkpt lat="41.794786" lon="22.987073">
        <ele>1268.7</ele>
        <time>2026-05-06T10:34:32.000Z</time>
      </trkpt>
      <trkpt lat="41.794773" lon="22.987076">
        <ele>1268.9</ele>
        <time>2026-05-06T10:34:33.000Z</time>
      </trkpt>
      <trkpt lat="41.794761" lon="22.987079">
        <ele>1268.9</ele>
        <time>2026-05-06T10:34:34.000Z</time>
      </trkpt>
      <trkpt lat="41.794748" lon="22.987081">
        <ele>1268.9</ele>
        <time>2026-05-06T10:34:35.000Z</time>
      </trkpt>
      <trkpt lat="41.794736" lon="22.987081">
        <ele>1268.9</ele>
        <time>2026-05-06T10:34:36.000Z</time>
      </trkpt>
      <trkpt lat="41.794723" lon="22.987082">
        <ele>1268.9</ele>
        <time>2026-05-06T10:34:37.000Z</time>
      </trkpt>
      <trkpt lat="41.79471" lon="22.987084">
        <ele>1269.1</ele>
        <time>2026-05-06T10:34:38.000Z</time>
      </trkpt>
      <trkpt lat="41.794697" lon="22.987085">
        <ele>1269.1</ele>
        <time>2026-05-06T10:34:39.000Z</time>
      </trkpt>
      <trkpt lat="41.794684" lon="22.987086">
        <ele>1269.1</ele>
        <time>2026-05-06T10:34:40.000Z</time>
      </trkpt>
      <trkpt lat="41.794671" lon="22.987087">
        <ele>1269.1</ele>
        <time>2026-05-06T10:34:41.000Z</time>
      </trkpt>
      <trkpt lat="41.794659" lon="22.987086">
        <ele>1269.1</ele>
        <time>2026-05-06T10:34:42.000Z</time>
      </trkpt>
      <trkpt lat="41.794646" lon="22.987083">
        <ele>1269.2</ele>
        <time>2026-05-06T10:34:43.000Z</time>
      </trkpt>
      <trkpt lat="41.794635" lon="22.98708">
        <ele>1269.2</ele>
        <time>2026-05-06T10:34:44.000Z</time>
      </trkpt>
      <trkpt lat="41.794623" lon="22.987075">
        <ele>1269.2</ele>
        <time>2026-05-06T10:34:45.000Z</time>
      </trkpt>
      <trkpt lat="41.794612" lon="22.98707">
        <ele>1269.2</ele>
        <time>2026-05-06T10:34:46.000Z</time>
      </trkpt>
      <trkpt lat="41.7946" lon="22.987065">
        <ele>1269.2</ele>
        <time>2026-05-06T10:34:47.000Z</time>
      </trkpt>
      <trkpt lat="41.794588" lon="22.987059">
        <ele>1269.3</ele>
        <time>2026-05-06T10:34:48.000Z</time>
      </trkpt>
      <trkpt lat="41.794575" lon="22.987053">
        <ele>1269.3</ele>
        <time>2026-05-06T10:34:49.000Z</time>
      </trkpt>
      <trkpt lat="41.794562" lon="22.987048">
        <ele>1269.3</ele>
        <time>2026-05-06T10:34:50.000Z</time>
      </trkpt>
      <trkpt lat="41.794549" lon="22.987045">
        <ele>1269.3</ele>
        <time>2026-05-06T10:34:51.000Z</time>
      </trkpt>
      <trkpt lat="41.794537" lon="22.987043">
        <ele>1269.3</ele>
        <time>2026-05-06T10:34:52.000Z</time>
      </trkpt>
      <trkpt lat="41.794525" lon="22.987043">
        <ele>1269.9</ele>
        <time>2026-05-06T10:34:53.000Z</time>
      </trkpt>
      <trkpt lat="41.794512" lon="22.987042">
        <ele>1269.9</ele>
        <time>2026-05-06T10:34:54.000Z</time>
      </trkpt>
      <trkpt lat="41.794499" lon="22.987041">
        <ele>1269.9</ele>
        <time>2026-05-06T10:34:55.000Z</time>
      </trkpt>
      <trkpt lat="41.794486" lon="22.987039">
        <ele>1269.9</ele>
        <time>2026-05-06T10:34:56.000Z</time>
      </trkpt>
      <trkpt lat="41.794473" lon="22.987038">
        <ele>1269.9</ele>
        <time>2026-05-06T10:34:57.000Z</time>
      </trkpt>
      <trkpt lat="41.794461" lon="22.987037">
        <ele>1270.9</ele>
        <time>2026-05-06T10:34:58.000Z</time>
      </trkpt>
      <trkpt lat="41.794449" lon="22.987036">
        <ele>1270.9</ele>
        <time>2026-05-06T10:34:59.000Z</time>
      </trkpt>
      <trkpt lat="41.794437" lon="22.987037">
        <ele>1270.9</ele>
        <time>2026-05-06T10:35:00.000Z</time>
      </trkpt>
      <trkpt lat="41.794425" lon="22.987038">
        <ele>1270.9</ele>
        <time>2026-05-06T10:35:01.000Z</time>
      </trkpt>
      <trkpt lat="41.794412" lon="22.98704">
        <ele>1270.9</ele>
        <time>2026-05-06T10:35:02.000Z</time>
      </trkpt>
      <trkpt lat="41.794401" lon="22.987042">
        <ele>1271.5</ele>
        <time>2026-05-06T10:35:03.000Z</time>
      </trkpt>
      <trkpt lat="41.79439" lon="22.987045">
        <ele>1271.5</ele>
        <time>2026-05-06T10:35:04.000Z</time>
      </trkpt>
      <trkpt lat="41.79438" lon="22.987048">
        <ele>1271.5</ele>
        <time>2026-05-06T10:35:05.000Z</time>
      </trkpt>
      <trkpt lat="41.794371" lon="22.987051">
        <ele>1271.5</ele>
        <time>2026-05-06T10:35:06.000Z</time>
      </trkpt>
      <trkpt lat="41.794363" lon="22.987055">
        <ele>1271.5</ele>
        <time>2026-05-06T10:35:07.000Z</time>
      </trkpt>
      <trkpt lat="41.794354" lon="22.987058">
        <ele>1272.4</ele>
        <time>2026-05-06T10:35:08.000Z</time>
      </trkpt>
      <trkpt lat="41.794345" lon="22.987061">
        <ele>1272.4</ele>
        <time>2026-05-06T10:35:09.000Z</time>
      </trkpt>
      <trkpt lat="41.794336" lon="22.987064">
        <ele>1272.4</ele>
        <time>2026-05-06T10:35:10.000Z</time>
      </trkpt>
      <trkpt lat="41.794327" lon="22.987067">
        <ele>1272.4</ele>
        <time>2026-05-06T10:35:11.000Z</time>
      </trkpt>
      <trkpt lat="41.794316" lon="22.98707">
        <ele>1272.4</ele>
        <time>2026-05-06T10:35:12.000Z</time>
      </trkpt>
      <trkpt lat="41.794306" lon="22.987071">
        <ele>1273.3</ele>
        <time>2026-05-06T10:35:13.000Z</time>
      </trkpt>
      <trkpt lat="41.794295" lon="22.987072">
        <ele>1273.3</ele>
        <time>2026-05-06T10:35:14.000Z</time>
      </trkpt>
      <trkpt lat="41.794283" lon="22.987073">
        <ele>1273.3</ele>
        <time>2026-05-06T10:35:15.000Z</time>
      </trkpt>
      <trkpt lat="41.794271" lon="22.987073">
        <ele>1273.3</ele>
        <time>2026-05-06T10:35:16.000Z</time>
      </trkpt>
      <trkpt lat="41.794261" lon="22.987073">
        <ele>1273.3</ele>
        <time>2026-05-06T10:35:17.000Z</time>
      </trkpt>
      <trkpt lat="41.794253" lon="22.987075">
        <ele>1273.7</ele>
        <time>2026-05-06T10:35:18.000Z</time>
      </trkpt>
      <trkpt lat="41.794246" lon="22.987078">
        <ele>1273.7</ele>
        <time>2026-05-06T10:35:19.000Z</time>
      </trkpt>
      <trkpt lat="41.794241" lon="22.987082">
        <ele>1273.7</ele>
        <time>2026-05-06T10:35:20.000Z</time>
      </trkpt>
      <trkpt lat="41.794238" lon="22.987087">
        <ele>1273.7</ele>
        <time>2026-05-06T10:35:21.000Z</time>
      </trkpt>
      <trkpt lat="41.794233" lon="22.987094">
        <ele>1273.7</ele>
        <time>2026-05-06T10:35:22.000Z</time>
      </trkpt>
      <trkpt lat="41.794228" lon="22.987104">
        <ele>1274.5</ele>
        <time>2026-05-06T10:35:23.000Z</time>
      </trkpt>
      <trkpt lat="41.794222" lon="22.987112">
        <ele>1274.5</ele>
        <time>2026-05-06T10:35:24.000Z</time>
      </trkpt>
      <trkpt lat="41.794215" lon="22.98712">
        <ele>1274.5</ele>
        <time>2026-05-06T10:35:25.000Z</time>
      </trkpt>
      <trkpt lat="41.79421" lon="22.987125">
        <ele>1274.5</ele>
        <time>2026-05-06T10:35:26.000Z</time>
      </trkpt>
      <trkpt lat="41.794207" lon="22.987128">
        <ele>1274.5</ele>
        <time>2026-05-06T10:35:27.000Z</time>
      </trkpt>
      <trkpt lat="41.794206" lon="22.987128">
        <ele>1274.8</ele>
        <time>2026-05-06T10:35:28.000Z</time>
      </trkpt>
      <trkpt lat="41.794208" lon="22.987129">
        <ele>1274.8</ele>
        <time>2026-05-06T10:35:29.000Z</time>
      </trkpt>
      <trkpt lat="41.79421" lon="22.987129">
        <ele>1274.8</ele>
        <time>2026-05-06T10:35:30.000Z</time>
      </trkpt>
      <trkpt lat="41.79421" lon="22.98713">
        <ele>1274.8</ele>
        <time>2026-05-06T10:35:31.000Z</time>
      </trkpt>
      <trkpt lat="41.794211" lon="22.987129">
        <ele>1274.8</ele>
        <time>2026-05-06T10:35:32.000Z</time>
      </trkpt>
      <trkpt lat="41.794211" lon="22.987128">
        <ele>1274.8</ele>
        <time>2026-05-06T10:35:33.000Z</time>
      </trkpt>
      <trkpt lat="41.794211" lon="22.987127">
        <ele>1274.8</ele>
        <time>2026-05-06T10:35:34.000Z</time>
      </trkpt>
      <trkpt lat="41.794212" lon="22.987125">
        <ele>1274.8</ele>
        <time>2026-05-06T10:35:35.000Z</time>
      </trkpt>
      <trkpt lat="41.794211" lon="22.987124">
        <ele>1274.8</ele>
        <time>2026-05-06T10:35:36.000Z</time>
      </trkpt>
      <trkpt lat="41.794211" lon="22.987123">
        <ele>1274.8</ele>
        <time>2026-05-06T10:35:37.000Z</time>
      </trkpt>
      <trkpt lat="41.79421" lon="22.987124">
        <ele>1274.8</ele>
        <time>2026-05-06T10:35:38.000Z</time>
      </trkpt>
      <trkpt lat="41.794208" lon="22.987126">
        <ele>1274.8</ele>
        <time>2026-05-06T10:35:39.000Z</time>
      </trkpt>
      <trkpt lat="41.794205" lon="22.987127">
        <ele>1274.8</ele>
        <time>2026-05-06T10:35:40.000Z</time>
      </trkpt>
      <trkpt lat="41.794201" lon="22.987131">
        <ele>1274.8</ele>
        <time>2026-05-06T10:35:41.000Z</time>
      </trkpt>
      <trkpt lat="41.794196" lon="22.987134">
        <ele>1274.8</ele>
        <time>2026-05-06T10:35:42.000Z</time>
      </trkpt>
      <trkpt lat="41.794193" lon="22.987136">
        <ele>1274.9</ele>
        <time>2026-05-06T10:35:43.000Z</time>
      </trkpt>
      <trkpt lat="41.79419" lon="22.987139">
        <ele>1274.9</ele>
        <time>2026-05-06T10:35:44.000Z</time>
      </trkpt>
      <trkpt lat="41.79419" lon="22.987143">
        <ele>1274.9</ele>
        <time>2026-05-06T10:35:45.000Z</time>
      </trkpt>
      <trkpt lat="41.794191" lon="22.987143">
        <ele>1274.9</ele>
        <time>2026-05-06T10:35:46.000Z</time>
      </trkpt>
      <trkpt lat="41.794193" lon="22.987143">
        <ele>1274.9</ele>
        <time>2026-05-06T10:35:47.000Z</time>
      </trkpt>
      <trkpt lat="41.794195" lon="22.987142">
        <ele>1274.9</ele>
        <time>2026-05-06T10:35:48.000Z</time>
      </trkpt>
      <trkpt lat="41.794196" lon="22.987141">
        <ele>1274.9</ele>
        <time>2026-05-06T10:35:49.000Z</time>
      </trkpt>
      <trkpt lat="41.794198" lon="22.987138">
        <ele>1274.9</ele>
        <time>2026-05-06T10:35:50.000Z</time>
      </trkpt>
      <trkpt lat="41.794201" lon="22.987136">
        <ele>1274.9</ele>
        <time>2026-05-06T10:35:51.000Z</time>
      </trkpt>
      <trkpt lat="41.794205" lon="22.987133">
        <ele>1274.9</ele>
        <time>2026-05-06T10:35:52.000Z</time>
      </trkpt>
      <trkpt lat="41.794208" lon="22.98713">
        <ele>1274.9</ele>
        <time>2026-05-06T10:35:53.000Z</time>
      </trkpt>
      <trkpt lat="41.794211" lon="22.987126">
        <ele>1274.9</ele>
        <time>2026-05-06T10:35:54.000Z</time>
      </trkpt>
      <trkpt lat="41.794212" lon="22.987125">
        <ele>1274.9</ele>
        <time>2026-05-06T10:35:55.000Z</time>
      </trkpt>
      <trkpt lat="41.794212" lon="22.987126">
        <ele>1274.9</ele>
        <time>2026-05-06T10:35:56.000Z</time>
      </trkpt>
      <trkpt lat="41.794212" lon="22.987131">
        <ele>1274.9</ele>
        <time>2026-05-06T10:35:57.000Z</time>
      </trkpt>
      <trkpt lat="41.794211" lon="22.987138">
        <ele>1275.2</ele>
        <time>2026-05-06T10:35:58.000Z</time>
      </trkpt>
      <trkpt lat="41.79421" lon="22.987145">
        <ele>1275.2</ele>
        <time>2026-05-06T10:35:59.000Z</time>
      </trkpt>
      <trkpt lat="41.794209" lon="22.987151">
        <ele>1275.2</ele>
        <time>2026-05-06T10:36:00.000Z</time>
      </trkpt>
      <trkpt lat="41.794207" lon="22.987157">
        <ele>1275.2</ele>
        <time>2026-05-06T10:36:01.000Z</time>
      </trkpt>
      <trkpt lat="41.794204" lon="22.98716">
        <ele>1275.2</ele>
        <time>2026-05-06T10:36:02.000Z</time>
      </trkpt>
      <trkpt lat="41.794201" lon="22.987161">
        <ele>1275.2</ele>
        <time>2026-05-06T10:36:03.000Z</time>
      </trkpt>
      <trkpt lat="41.794198" lon="22.987162">
        <ele>1275.2</ele>
        <time>2026-05-06T10:36:04.000Z</time>
      </trkpt>
      <trkpt lat="41.794196" lon="22.987163">
        <ele>1275.2</ele>
        <time>2026-05-06T10:36:05.000Z</time>
      </trkpt>
      <trkpt lat="41.794195" lon="22.987162">
        <ele>1275.2</ele>
        <time>2026-05-06T10:36:06.000Z</time>
      </trkpt>
      <trkpt lat="41.794195" lon="22.98716">
        <ele>1275.2</ele>
        <time>2026-05-06T10:36:07.000Z</time>
      </trkpt>
      <trkpt lat="41.794195" lon="22.987159">
        <ele>1275.2</ele>
        <time>2026-05-06T10:36:08.000Z</time>
      </trkpt>
      <trkpt lat="41.794195" lon="22.987158">
        <ele>1275.2</ele>
        <time>2026-05-06T10:36:09.000Z</time>
      </trkpt>
      <trkpt lat="41.794197" lon="22.987155">
        <ele>1275.2</ele>
        <time>2026-05-06T10:36:10.000Z</time>
      </trkpt>
      <trkpt lat="41.794199" lon="22.987154">
        <ele>1275.2</ele>
        <time>2026-05-06T10:36:11.000Z</time>
      </trkpt>
      <trkpt lat="41.794201" lon="22.987154">
        <ele>1275.2</ele>
        <time>2026-05-06T10:36:12.000Z</time>
      </trkpt>
      <trkpt lat="41.794204" lon="22.987154">
        <ele>1275.1</ele>
        <time>2026-05-06T10:36:13.000Z</time>
      </trkpt>
      <trkpt lat="41.794207" lon="22.987155">
        <ele>1275.1</ele>
        <time>2026-05-06T10:36:14.000Z</time>
      </trkpt>
      <trkpt lat="41.794208" lon="22.987158">
        <ele>1275.1</ele>
        <time>2026-05-06T10:36:15.000Z</time>
      </trkpt>
      <trkpt lat="41.794208" lon="22.987158">
        <ele>1275.1</ele>
        <time>2026-05-06T10:36:16.000Z</time>
      </trkpt>
      <trkpt lat="41.794209" lon="22.987156">
        <ele>1275.1</ele>
        <time>2026-05-06T10:36:17.000Z</time>
      </trkpt>
      <trkpt lat="41.794211" lon="22.987153">
        <ele>1275</ele>
        <time>2026-05-06T10:36:18.000Z</time>
      </trkpt>
      <trkpt lat="41.794213" lon="22.987149">
        <ele>1275</ele>
        <time>2026-05-06T10:36:19.000Z</time>
      </trkpt>
      <trkpt lat="41.794216" lon="22.987146">
        <ele>1275</ele>
        <time>2026-05-06T10:36:20.000Z</time>
      </trkpt>
      <trkpt lat="41.794219" lon="22.987144">
        <ele>1275</ele>
        <time>2026-05-06T10:36:21.000Z</time>
      </trkpt>
      <trkpt lat="41.794222" lon="22.987143">
        <ele>1275</ele>
        <time>2026-05-06T10:36:22.000Z</time>
      </trkpt>
      <trkpt lat="41.794223" lon="22.987143">
        <ele>1274.8</ele>
        <time>2026-05-06T10:36:23.000Z</time>
      </trkpt>
      <trkpt lat="41.794224" lon="22.987143">
        <ele>1274.8</ele>
        <time>2026-05-06T10:36:24.000Z</time>
      </trkpt>
      <trkpt lat="41.794225" lon="22.987143">
        <ele>1274.8</ele>
        <time>2026-05-06T10:36:25.000Z</time>
      </trkpt>
      <trkpt lat="41.794226" lon="22.987142">
        <ele>1274.8</ele>
        <time>2026-05-06T10:36:26.000Z</time>
      </trkpt>
      <trkpt lat="41.794227" lon="22.987141">
        <ele>1274.8</ele>
        <time>2026-05-06T10:36:27.000Z</time>
      </trkpt>
      <trkpt lat="41.794229" lon="22.98714">
        <ele>1274.4</ele>
        <time>2026-05-06T10:36:28.000Z</time>
      </trkpt>
      <trkpt lat="41.79423" lon="22.987138">
        <ele>1274.4</ele>
        <time>2026-05-06T10:36:29.000Z</time>
      </trkpt>
      <trkpt lat="41.794231" lon="22.987135">
        <ele>1274.4</ele>
        <time>2026-05-06T10:36:30.000Z</time>
      </trkpt>
      <trkpt lat="41.794231" lon="22.987133">
        <ele>1274.4</ele>
        <time>2026-05-06T10:36:31.000Z</time>
      </trkpt>
      <trkpt lat="41.79423" lon="22.98713">
        <ele>1274.4</ele>
        <time>2026-05-06T10:36:32.000Z</time>
      </trkpt>
      <trkpt lat="41.794229" lon="22.987128">
        <ele>1274.2</ele>
        <time>2026-05-06T10:36:33.000Z</time>
      </trkpt>
      <trkpt lat="41.794228" lon="22.987126">
        <ele>1274.2</ele>
        <time>2026-05-06T10:36:34.000Z</time>
      </trkpt>
      <trkpt lat="41.794227" lon="22.987124">
        <ele>1274.2</ele>
        <time>2026-05-06T10:36:35.000Z</time>
      </trkpt>
      <trkpt lat="41.794225" lon="22.987122">
        <ele>1274.2</ele>
        <time>2026-05-06T10:36:36.000Z</time>
      </trkpt>
      <trkpt lat="41.794224" lon="22.98712">
        <ele>1274.2</ele>
        <time>2026-05-06T10:36:37.000Z</time>
      </trkpt>
      <trkpt lat="41.794223" lon="22.987118">
        <ele>1274.2</ele>
        <time>2026-05-06T10:36:38.000Z</time>
      </trkpt>
      <trkpt lat="41.794221" lon="22.987117">
        <ele>1274.2</ele>
        <time>2026-05-06T10:36:39.000Z</time>
      </trkpt>
      <trkpt lat="41.79422" lon="22.987117">
        <ele>1274.2</ele>
        <time>2026-05-06T10:36:40.000Z</time>
      </trkpt>
      <trkpt lat="41.794219" lon="22.987117">
        <ele>1274.2</ele>
        <time>2026-05-06T10:36:41.000Z</time>
      </trkpt>
      <trkpt lat="41.794218" lon="22.987118">
        <ele>1274.2</ele>
        <time>2026-05-06T10:36:42.000Z</time>
      </trkpt>
      <trkpt lat="41.794218" lon="22.987119">
        <ele>1274.4</ele>
        <time>2026-05-06T10:36:43.000Z</time>
      </trkpt>
      <trkpt lat="41.794217" lon="22.98712">
        <ele>1274.4</ele>
        <time>2026-05-06T10:36:44.000Z</time>
      </trkpt>
      <trkpt lat="41.794216" lon="22.987121">
        <ele>1274.4</ele>
        <time>2026-05-06T10:36:45.000Z</time>
      </trkpt>
      <trkpt lat="41.794215" lon="22.987122">
        <ele>1274.4</ele>
        <time>2026-05-06T10:36:46.000Z</time>
      </trkpt>
      <trkpt lat="41.794214" lon="22.987123">
        <ele>1274.4</ele>
        <time>2026-05-06T10:36:47.000Z</time>
      </trkpt>
      <trkpt lat="41.794214" lon="22.987123">
        <ele>1274.5</ele>
        <time>2026-05-06T10:36:48.000Z</time>
      </trkpt>
      <trkpt lat="41.794213" lon="22.987123">
        <ele>1274.5</ele>
        <time>2026-05-06T10:36:49.000Z</time>
      </trkpt>
      <trkpt lat="41.794213" lon="22.987122">
        <ele>1274.5</ele>
        <time>2026-05-06T10:36:50.000Z</time>
      </trkpt>
      <trkpt lat="41.794213" lon="22.987122">
        <ele>1274.5</ele>
        <time>2026-05-06T10:36:51.000Z</time>
      </trkpt>
      <trkpt lat="41.794213" lon="22.98712">
        <ele>1274.5</ele>
        <time>2026-05-06T10:36:52.000Z</time>
      </trkpt>
      <trkpt lat="41.794213" lon="22.987119">
        <ele>1274.4</ele>
        <time>2026-05-06T10:36:53.000Z</time>
      </trkpt>
      <trkpt lat="41.794213" lon="22.987119">
        <ele>1274.4</ele>
        <time>2026-05-06T10:36:54.000Z</time>
      </trkpt>
      <trkpt lat="41.794212" lon="22.987119">
        <ele>1274.4</ele>
        <time>2026-05-06T10:36:55.000Z</time>
      </trkpt>
      <trkpt lat="41.794212" lon="22.987119">
        <ele>1274.4</ele>
        <time>2026-05-06T10:36:56.000Z</time>
      </trkpt>
      <trkpt lat="41.794213" lon="22.987119">
        <ele>1274.4</ele>
        <time>2026-05-06T10:36:57.000Z</time>
      </trkpt>
      <trkpt lat="41.794213" lon="22.987119">
        <ele>1274.3</ele>
        <time>2026-05-06T10:36:58.000Z</time>
      </trkpt>
      <trkpt lat="41.794214" lon="22.98712">
        <ele>1274.3</ele>
        <time>2026-05-06T10:36:59.000Z</time>
      </trkpt>
      <trkpt lat="41.794214" lon="22.98712">
        <ele>1274.3</ele>
        <time>2026-05-06T10:37:00.000Z</time>
      </trkpt>
      <trkpt lat="41.794215" lon="22.98712">
        <ele>1274.3</ele>
        <time>2026-05-06T10:37:01.000Z</time>
      </trkpt>
      <trkpt lat="41.794215" lon="22.98712">
        <ele>1274.3</ele>
        <time>2026-05-06T10:37:02.000Z</time>
      </trkpt>
      <trkpt lat="41.794215" lon="22.98712">
        <ele>1274.3</ele>
        <time>2026-05-06T10:37:03.000Z</time>
      </trkpt>
      <trkpt lat="41.794216" lon="22.987121">
        <ele>1274.3</ele>
        <time>2026-05-06T10:37:04.000Z</time>
      </trkpt>
      <trkpt lat="41.794217" lon="22.987122">
        <ele>1274.3</ele>
        <time>2026-05-06T10:37:05.000Z</time>
      </trkpt>
      <trkpt lat="41.794218" lon="22.987122">
        <ele>1274.3</ele>
        <time>2026-05-06T10:37:06.000Z</time>
      </trkpt>
      <trkpt lat="41.794219" lon="22.987123">
        <ele>1274.3</ele>
        <time>2026-05-06T10:37:07.000Z</time>
      </trkpt>
      <trkpt lat="41.794219" lon="22.987123">
        <ele>1274.5</ele>
        <time>2026-05-06T10:37:08.000Z</time>
      </trkpt>
      <trkpt lat="41.794219" lon="22.987124">
        <ele>1274.5</ele>
        <time>2026-05-06T10:37:09.000Z</time>
      </trkpt>
      <trkpt lat="41.794219" lon="22.987124">
        <ele>1274.5</ele>
        <time>2026-05-06T10:37:10.000Z</time>
      </trkpt>
      <trkpt lat="41.794219" lon="22.987124">
        <ele>1274.5</ele>
        <time>2026-05-06T10:37:11.000Z</time>
      </trkpt>
      <trkpt lat="41.794218" lon="22.987125">
        <ele>1274.5</ele>
        <time>2026-05-06T10:37:12.000Z</time>
      </trkpt>
      <trkpt lat="41.794218" lon="22.987125">
        <ele>1274.5</ele>
        <time>2026-05-06T10:37:13.000Z</time>
      </trkpt>
      <trkpt lat="41.794218" lon="22.987125">
        <ele>1274.5</ele>
        <time>2026-05-06T10:37:14.000Z</time>
      </trkpt>
      <trkpt lat="41.794216" lon="22.987124">
        <ele>1274.5</ele>
        <time>2026-05-06T10:37:15.000Z</time>
      </trkpt>
      <trkpt lat="41.794213" lon="22.987124">
        <ele>1274.5</ele>
        <time>2026-05-06T10:37:16.000Z</time>
      </trkpt>
      <trkpt lat="41.794209" lon="22.987124">
        <ele>1274.5</ele>
        <time>2026-05-06T10:37:17.000Z</time>
      </trkpt>
      <trkpt lat="41.794203" lon="22.987124">
        <ele>1274.4</ele>
        <time>2026-05-06T10:37:18.000Z</time>
      </trkpt>
      <trkpt lat="41.794196" lon="22.987125">
        <ele>1274.4</ele>
        <time>2026-05-06T10:37:19.000Z</time>
      </trkpt>
      <trkpt lat="41.794189" lon="22.987127">
        <ele>1274.4</ele>
        <time>2026-05-06T10:37:20.000Z</time>
      </trkpt>
      <trkpt lat="41.794183" lon="22.987129">
        <ele>1274.4</ele>
        <time>2026-05-06T10:37:21.000Z</time>
      </trkpt>
      <trkpt lat="41.794177" lon="22.98713">
        <ele>1274.4</ele>
        <time>2026-05-06T10:37:22.000Z</time>
      </trkpt>
      <trkpt lat="41.794169" lon="22.987131">
        <ele>1274.3</ele>
        <time>2026-05-06T10:37:23.000Z</time>
      </trkpt>
      <trkpt lat="41.794163" lon="22.987131">
        <ele>1274.3</ele>
        <time>2026-05-06T10:37:24.000Z</time>
      </trkpt>
      <trkpt lat="41.794155" lon="22.98713">
        <ele>1274.3</ele>
        <time>2026-05-06T10:37:25.000Z</time>
      </trkpt>
      <trkpt lat="41.794147" lon="22.987128">
        <ele>1274.3</ele>
        <time>2026-05-06T10:37:26.000Z</time>
      </trkpt>
      <trkpt lat="41.794138" lon="22.987126">
        <ele>1274.3</ele>
        <time>2026-05-06T10:37:27.000Z</time>
      </trkpt>
      <trkpt lat="41.794129" lon="22.987122">
        <ele>1274.4</ele>
        <time>2026-05-06T10:37:28.000Z</time>
      </trkpt>
      <trkpt lat="41.79412" lon="22.987119">
        <ele>1274.4</ele>
        <time>2026-05-06T10:37:29.000Z</time>
      </trkpt>
      <trkpt lat="41.794112" lon="22.987115">
        <ele>1274.4</ele>
        <time>2026-05-06T10:37:30.000Z</time>
      </trkpt>
      <trkpt lat="41.794103" lon="22.987111">
        <ele>1274.4</ele>
        <time>2026-05-06T10:37:31.000Z</time>
      </trkpt>
      <trkpt lat="41.794096" lon="22.987106">
        <ele>1274.4</ele>
        <time>2026-05-06T10:37:32.000Z</time>
      </trkpt>
      <trkpt lat="41.794088" lon="22.987103">
        <ele>1274.5</ele>
        <time>2026-05-06T10:37:33.000Z</time>
      </trkpt>
      <trkpt lat="41.79408" lon="22.9871">
        <ele>1274.5</ele>
        <time>2026-05-06T10:37:34.000Z</time>
      </trkpt>
      <trkpt lat="41.794075" lon="22.987097">
        <ele>1274.5</ele>
        <time>2026-05-06T10:37:35.000Z</time>
      </trkpt>
      <trkpt lat="41.79407" lon="22.987095">
        <ele>1274.5</ele>
        <time>2026-05-06T10:37:36.000Z</time>
      </trkpt>
      <trkpt lat="41.794066" lon="22.987093">
        <ele>1274.5</ele>
        <time>2026-05-06T10:37:37.000Z</time>
      </trkpt>
      <trkpt lat="41.794063" lon="22.987089">
        <ele>1275.1</ele>
        <time>2026-05-06T10:37:38.000Z</time>
      </trkpt>
      <trkpt lat="41.79406" lon="22.987083">
        <ele>1275.1</ele>
        <time>2026-05-06T10:37:39.000Z</time>
      </trkpt>
      <trkpt lat="41.794056" lon="22.987077">
        <ele>1275.1</ele>
        <time>2026-05-06T10:37:40.000Z</time>
      </trkpt>
      <trkpt lat="41.794051" lon="22.987072">
        <ele>1275.1</ele>
        <time>2026-05-06T10:37:41.000Z</time>
      </trkpt>
      <trkpt lat="41.794048" lon="22.987067">
        <ele>1275.1</ele>
        <time>2026-05-06T10:37:42.000Z</time>
      </trkpt>
      <trkpt lat="41.794046" lon="22.987066">
        <ele>1275.5</ele>
        <time>2026-05-06T10:37:43.000Z</time>
      </trkpt>
      <trkpt lat="41.794044" lon="22.987066">
        <ele>1275.5</ele>
        <time>2026-05-06T10:37:44.000Z</time>
      </trkpt>
      <trkpt lat="41.794042" lon="22.987067">
        <ele>1275.5</ele>
        <time>2026-05-06T10:37:45.000Z</time>
      </trkpt>
      <trkpt lat="41.794041" lon="22.987068">
        <ele>1275.5</ele>
        <time>2026-05-06T10:37:46.000Z</time>
      </trkpt>
      <trkpt lat="41.794038" lon="22.987066">
        <ele>1275.5</ele>
        <time>2026-05-06T10:37:47.000Z</time>
      </trkpt>
      <trkpt lat="41.794034" lon="22.987065">
        <ele>1275.6</ele>
        <time>2026-05-06T10:37:48.000Z</time>
      </trkpt>
      <trkpt lat="41.794029" lon="22.987063">
        <ele>1275.6</ele>
        <time>2026-05-06T10:37:49.000Z</time>
      </trkpt>
      <trkpt lat="41.794022" lon="22.987058">
        <ele>1275.6</ele>
        <time>2026-05-06T10:37:50.000Z</time>
      </trkpt>
      <trkpt lat="41.794014" lon="22.987052">
        <ele>1275.6</ele>
        <time>2026-05-06T10:37:51.000Z</time>
      </trkpt>
      <trkpt lat="41.794007" lon="22.987045">
        <ele>1275.6</ele>
        <time>2026-05-06T10:37:52.000Z</time>
      </trkpt>
      <trkpt lat="41.794" lon="22.987036">
        <ele>1275.8</ele>
        <time>2026-05-06T10:37:53.000Z</time>
      </trkpt>
      <trkpt lat="41.793994" lon="22.987025">
        <ele>1275.8</ele>
        <time>2026-05-06T10:37:54.000Z</time>
      </trkpt>
      <trkpt lat="41.793989" lon="22.987015">
        <ele>1275.8</ele>
        <time>2026-05-06T10:37:55.000Z</time>
      </trkpt>
      <trkpt lat="41.793985" lon="22.987005">
        <ele>1275.8</ele>
        <time>2026-05-06T10:37:56.000Z</time>
      </trkpt>
      <trkpt lat="41.793982" lon="22.986995">
        <ele>1275.8</ele>
        <time>2026-05-06T10:37:57.000Z</time>
      </trkpt>
      <trkpt lat="41.79398" lon="22.986988">
        <ele>1276.1</ele>
        <time>2026-05-06T10:37:58.000Z</time>
      </trkpt>
      <trkpt lat="41.793979" lon="22.986985">
        <ele>1276.1</ele>
        <time>2026-05-06T10:37:59.000Z</time>
      </trkpt>
      <trkpt lat="41.793979" lon="22.986982">
        <ele>1276.1</ele>
        <time>2026-05-06T10:38:00.000Z</time>
      </trkpt>
      <trkpt lat="41.793982" lon="22.986979">
        <ele>1276.1</ele>
        <time>2026-05-06T10:38:01.000Z</time>
      </trkpt>
      <trkpt lat="41.793985" lon="22.986977">
        <ele>1276.1</ele>
        <time>2026-05-06T10:38:02.000Z</time>
      </trkpt>
      <trkpt lat="41.79399" lon="22.986972">
        <ele>1276.3</ele>
        <time>2026-05-06T10:38:03.000Z</time>
      </trkpt>
      <trkpt lat="41.793997" lon="22.986968">
        <ele>1276.3</ele>
        <time>2026-05-06T10:38:04.000Z</time>
      </trkpt>
      <trkpt lat="41.794003" lon="22.986965">
        <ele>1276.3</ele>
        <time>2026-05-06T10:38:05.000Z</time>
      </trkpt>
      <trkpt lat="41.794009" lon="22.986965">
        <ele>1276.3</ele>
        <time>2026-05-06T10:38:06.000Z</time>
      </trkpt>
      <trkpt lat="41.794015" lon="22.986966">
        <ele>1276.3</ele>
        <time>2026-05-06T10:38:07.000Z</time>
      </trkpt>
      <trkpt lat="41.79402" lon="22.986968">
        <ele>1277</ele>
        <time>2026-05-06T10:38:08.000Z</time>
      </trkpt>
      <trkpt lat="41.794024" lon="22.986969">
        <ele>1277</ele>
        <time>2026-05-06T10:38:09.000Z</time>
      </trkpt>
      <trkpt lat="41.794026" lon="22.98697">
        <ele>1277</ele>
        <time>2026-05-06T10:38:10.000Z</time>
      </trkpt>
      <trkpt lat="41.794027" lon="22.98697">
        <ele>1277</ele>
        <time>2026-05-06T10:38:11.000Z</time>
      </trkpt>
      <trkpt lat="41.794028" lon="22.98697">
        <ele>1277</ele>
        <time>2026-05-06T10:38:12.000Z</time>
      </trkpt>
      <trkpt lat="41.794027" lon="22.98697">
        <ele>1277.4</ele>
        <time>2026-05-06T10:38:13.000Z</time>
      </trkpt>
      <trkpt lat="41.794025" lon="22.986969">
        <ele>1277.4</ele>
        <time>2026-05-06T10:38:14.000Z</time>
      </trkpt>
      <trkpt lat="41.794024" lon="22.986968">
        <ele>1277.4</ele>
        <time>2026-05-06T10:38:15.000Z</time>
      </trkpt>
      <trkpt lat="41.794022" lon="22.986967">
        <ele>1277.4</ele>
        <time>2026-05-06T10:38:16.000Z</time>
      </trkpt>
      <trkpt lat="41.794021" lon="22.986967">
        <ele>1277.4</ele>
        <time>2026-05-06T10:38:17.000Z</time>
      </trkpt>
      <trkpt lat="41.794019" lon="22.986968">
        <ele>1277.3</ele>
        <time>2026-05-06T10:38:18.000Z</time>
      </trkpt>
      <trkpt lat="41.794018" lon="22.986969">
        <ele>1277.3</ele>
        <time>2026-05-06T10:38:19.000Z</time>
      </trkpt>
      <trkpt lat="41.794018" lon="22.986972">
        <ele>1277.3</ele>
        <time>2026-05-06T10:38:20.000Z</time>
      </trkpt>
      <trkpt lat="41.794017" lon="22.986977">
        <ele>1277.3</ele>
        <time>2026-05-06T10:38:21.000Z</time>
      </trkpt>
      <trkpt lat="41.794014" lon="22.986982">
        <ele>1277.3</ele>
        <time>2026-05-06T10:38:22.000Z</time>
      </trkpt>
      <trkpt lat="41.794011" lon="22.986988">
        <ele>1276.8</ele>
        <time>2026-05-06T10:38:23.000Z</time>
      </trkpt>
      <trkpt lat="41.794006" lon="22.986993">
        <ele>1276.8</ele>
        <time>2026-05-06T10:38:24.000Z</time>
      </trkpt>
      <trkpt lat="41.793998" lon="22.986997">
        <ele>1276.8</ele>
        <time>2026-05-06T10:38:25.000Z</time>
      </trkpt>
      <trkpt lat="41.793992" lon="22.986997">
        <ele>1276.8</ele>
        <time>2026-05-06T10:38:26.000Z</time>
      </trkpt>
      <trkpt lat="41.793988" lon="22.986995">
        <ele>1276.8</ele>
        <time>2026-05-06T10:38:27.000Z</time>
      </trkpt>
      <trkpt lat="41.793984" lon="22.986991">
        <ele>1276.6</ele>
        <time>2026-05-06T10:38:28.000Z</time>
      </trkpt>
      <trkpt lat="41.79398" lon="22.986986">
        <ele>1276.6</ele>
        <time>2026-05-06T10:38:29.000Z</time>
      </trkpt>
      <trkpt lat="41.793977" lon="22.986982">
        <ele>1276.6</ele>
        <time>2026-05-06T10:38:30.000Z</time>
      </trkpt>
      <trkpt lat="41.793974" lon="22.98698">
        <ele>1276.6</ele>
        <time>2026-05-06T10:38:31.000Z</time>
      </trkpt>
      <trkpt lat="41.793972" lon="22.986978">
        <ele>1276.6</ele>
        <time>2026-05-06T10:38:32.000Z</time>
      </trkpt>
      <trkpt lat="41.793971" lon="22.986977">
        <ele>1276.6</ele>
        <time>2026-05-06T10:38:33.000Z</time>
      </trkpt>
      <trkpt lat="41.793971" lon="22.986977">
        <ele>1276.6</ele>
        <time>2026-05-06T10:38:34.000Z</time>
      </trkpt>
      <trkpt lat="41.793972" lon="22.986977">
        <ele>1276.6</ele>
        <time>2026-05-06T10:38:35.000Z</time>
      </trkpt>
      <trkpt lat="41.793973" lon="22.986976">
        <ele>1276.6</ele>
        <time>2026-05-06T10:38:36.000Z</time>
      </trkpt>
      <trkpt lat="41.793974" lon="22.986975">
        <ele>1276.6</ele>
        <time>2026-05-06T10:38:37.000Z</time>
      </trkpt>
      <trkpt lat="41.793975" lon="22.986974">
        <ele>1277.1</ele>
        <time>2026-05-06T10:38:38.000Z</time>
      </trkpt>
      <trkpt lat="41.793975" lon="22.986973">
        <ele>1277.1</ele>
        <time>2026-05-06T10:38:39.000Z</time>
      </trkpt>
      <trkpt lat="41.793976" lon="22.986973">
        <ele>1277.1</ele>
        <time>2026-05-06T10:38:40.000Z</time>
      </trkpt>
      <trkpt lat="41.793976" lon="22.986973">
        <ele>1277.1</ele>
        <time>2026-05-06T10:38:41.000Z</time>
      </trkpt>
      <trkpt lat="41.793976" lon="22.986972">
        <ele>1277.1</ele>
        <time>2026-05-06T10:38:42.000Z</time>
      </trkpt>
      <trkpt lat="41.793977" lon="22.986971">
        <ele>1277.8</ele>
        <time>2026-05-06T10:38:43.000Z</time>
      </trkpt>
      <trkpt lat="41.793977" lon="22.986971">
        <ele>1277.8</ele>
        <time>2026-05-06T10:38:44.000Z</time>
      </trkpt>
      <trkpt lat="41.793977" lon="22.98697">
        <ele>1277.8</ele>
        <time>2026-05-06T10:38:45.000Z</time>
      </trkpt>
      <trkpt lat="41.793977" lon="22.986969">
        <ele>1277.8</ele>
        <time>2026-05-06T10:38:46.000Z</time>
      </trkpt>
      <trkpt lat="41.793977" lon="22.98697">
        <ele>1277.8</ele>
        <time>2026-05-06T10:38:47.000Z</time>
      </trkpt>
      <trkpt lat="41.793978" lon="22.98697">
        <ele>1278.1</ele>
        <time>2026-05-06T10:38:48.000Z</time>
      </trkpt>
      <trkpt lat="41.793979" lon="22.986971">
        <ele>1278.1</ele>
        <time>2026-05-06T10:38:49.000Z</time>
      </trkpt>
      <trkpt lat="41.79398" lon="22.986972">
        <ele>1278.1</ele>
        <time>2026-05-06T10:38:50.000Z</time>
      </trkpt>
      <trkpt lat="41.79398" lon="22.986972">
        <ele>1278.1</ele>
        <time>2026-05-06T10:38:51.000Z</time>
      </trkpt>
      <trkpt lat="41.79398" lon="22.986972">
        <ele>1278.1</ele>
        <time>2026-05-06T10:38:52.000Z</time>
      </trkpt>
      <trkpt lat="41.79398" lon="22.986972">
        <ele>1278.4</ele>
        <time>2026-05-06T10:38:53.000Z</time>
      </trkpt>
      <trkpt lat="41.793978" lon="22.98697">
        <ele>1278.4</ele>
        <time>2026-05-06T10:38:54.000Z</time>
      </trkpt>
      <trkpt lat="41.793975" lon="22.986966">
        <ele>1278.4</ele>
        <time>2026-05-06T10:38:55.000Z</time>
      </trkpt>
      <trkpt lat="41.793972" lon="22.986961">
        <ele>1278.4</ele>
        <time>2026-05-06T10:38:56.000Z</time>
      </trkpt>
      <trkpt lat="41.793968" lon="22.986954">
        <ele>1278.4</ele>
        <time>2026-05-06T10:38:57.000Z</time>
      </trkpt>
      <trkpt lat="41.793965" lon="22.986945">
        <ele>1278.3</ele>
        <time>2026-05-06T10:38:58.000Z</time>
      </trkpt>
      <trkpt lat="41.793963" lon="22.986938">
        <ele>1278.3</ele>
        <time>2026-05-06T10:38:59.000Z</time>
      </trkpt>
      <trkpt lat="41.793962" lon="22.986931">
        <ele>1278.3</ele>
        <time>2026-05-06T10:39:00.000Z</time>
      </trkpt>
      <trkpt lat="41.793961" lon="22.986926">
        <ele>1278.3</ele>
        <time>2026-05-06T10:39:01.000Z</time>
      </trkpt>
      <trkpt lat="41.79396" lon="22.986922">
        <ele>1278.3</ele>
        <time>2026-05-06T10:39:02.000Z</time>
      </trkpt>
      <trkpt lat="41.79396" lon="22.98692">
        <ele>1278.4</ele>
        <time>2026-05-06T10:39:03.000Z</time>
      </trkpt>
      <trkpt lat="41.79396" lon="22.986919">
        <ele>1278.4</ele>
        <time>2026-05-06T10:39:04.000Z</time>
      </trkpt>
      <trkpt lat="41.793962" lon="22.98692">
        <ele>1278.4</ele>
        <time>2026-05-06T10:39:05.000Z</time>
      </trkpt>
      <trkpt lat="41.793965" lon="22.986924">
        <ele>1278.4</ele>
        <time>2026-05-06T10:39:06.000Z</time>
      </trkpt>
      <trkpt lat="41.793968" lon="22.98693">
        <ele>1278.4</ele>
        <time>2026-05-06T10:39:07.000Z</time>
      </trkpt>
      <trkpt lat="41.793971" lon="22.986937">
        <ele>1278.7</ele>
        <time>2026-05-06T10:39:08.000Z</time>
      </trkpt>
      <trkpt lat="41.793975" lon="22.986946">
        <ele>1278.7</ele>
        <time>2026-05-06T10:39:09.000Z</time>
      </trkpt>
      <trkpt lat="41.793977" lon="22.986953">
        <ele>1278.7</ele>
        <time>2026-05-06T10:39:10.000Z</time>
      </trkpt>
      <trkpt lat="41.793979" lon="22.986957">
        <ele>1278.7</ele>
        <time>2026-05-06T10:39:11.000Z</time>
      </trkpt>
      <trkpt lat="41.793983" lon="22.98696">
        <ele>1278.7</ele>
        <time>2026-05-06T10:39:12.000Z</time>
      </trkpt>
      <trkpt lat="41.793987" lon="22.986962">
        <ele>1279.2</ele>
        <time>2026-05-06T10:39:13.000Z</time>
      </trkpt>
      <trkpt lat="41.79399" lon="22.986963">
        <ele>1279.2</ele>
        <time>2026-05-06T10:39:14.000Z</time>
      </trkpt>
      <trkpt lat="41.793993" lon="22.986963">
        <ele>1279.2</ele>
        <time>2026-05-06T10:39:15.000Z</time>
      </trkpt>
      <trkpt lat="41.793995" lon="22.986964">
        <ele>1279.2</ele>
        <time>2026-05-06T10:39:16.000Z</time>
      </trkpt>
      <trkpt lat="41.793996" lon="22.986965">
        <ele>1279.2</ele>
        <time>2026-05-06T10:39:17.000Z</time>
      </trkpt>
      <trkpt lat="41.793997" lon="22.986966">
        <ele>1279.3</ele>
        <time>2026-05-06T10:39:18.000Z</time>
      </trkpt>
      <trkpt lat="41.793998" lon="22.986966">
        <ele>1279.3</ele>
        <time>2026-05-06T10:39:19.000Z</time>
      </trkpt>
      <trkpt lat="41.793999" lon="22.986967">
        <ele>1279.3</ele>
        <time>2026-05-06T10:39:20.000Z</time>
      </trkpt>
      <trkpt lat="41.793999" lon="22.986967">
        <ele>1279.3</ele>
        <time>2026-05-06T10:39:21.000Z</time>
      </trkpt>
      <trkpt lat="41.794" lon="22.986967">
        <ele>1279.3</ele>
        <time>2026-05-06T10:39:22.000Z</time>
      </trkpt>
      <trkpt lat="41.794" lon="22.986966">
        <ele>1279.1</ele>
        <time>2026-05-06T10:39:23.000Z</time>
      </trkpt>
      <trkpt lat="41.794001" lon="22.986967">
        <ele>1279.1</ele>
        <time>2026-05-06T10:39:24.000Z</time>
      </trkpt>
      <trkpt lat="41.794004" lon="22.986968">
        <ele>1279.1</ele>
        <time>2026-05-06T10:39:25.000Z</time>
      </trkpt>
      <trkpt lat="41.794008" lon="22.98697">
        <ele>1279.1</ele>
        <time>2026-05-06T10:39:26.000Z</time>
      </trkpt>
      <trkpt lat="41.794011" lon="22.986972">
        <ele>1279.1</ele>
        <time>2026-05-06T10:39:27.000Z</time>
      </trkpt>
      <trkpt lat="41.794016" lon="22.986975">
        <ele>1278.7</ele>
        <time>2026-05-06T10:39:28.000Z</time>
      </trkpt>
      <trkpt lat="41.794019" lon="22.986977">
        <ele>1278.7</ele>
        <time>2026-05-06T10:39:29.000Z</time>
      </trkpt>
      <trkpt lat="41.794021" lon="22.986978">
        <ele>1278.7</ele>
        <time>2026-05-06T10:39:30.000Z</time>
      </trkpt>
      <trkpt lat="41.794023" lon="22.986978">
        <ele>1278.7</ele>
        <time>2026-05-06T10:39:31.000Z</time>
      </trkpt>
      <trkpt lat="41.794025" lon="22.986978">
        <ele>1278.7</ele>
        <time>2026-05-06T10:39:32.000Z</time>
      </trkpt>
      <trkpt lat="41.794026" lon="22.986975">
        <ele>1278.5</ele>
        <time>2026-05-06T10:39:33.000Z</time>
      </trkpt>
      <trkpt lat="41.794028" lon="22.986971">
        <ele>1278.5</ele>
        <time>2026-05-06T10:39:34.000Z</time>
      </trkpt>
      <trkpt lat="41.79403" lon="22.986967">
        <ele>1278.5</ele>
        <time>2026-05-06T10:39:35.000Z</time>
      </trkpt>
      <trkpt lat="41.79403" lon="22.986964">
        <ele>1278.5</ele>
        <time>2026-05-06T10:39:36.000Z</time>
      </trkpt>
      <trkpt lat="41.794029" lon="22.986962">
        <ele>1278.5</ele>
        <time>2026-05-06T10:39:37.000Z</time>
      </trkpt>
      <trkpt lat="41.794029" lon="22.98696">
        <ele>1278.1</ele>
        <time>2026-05-06T10:39:38.000Z</time>
      </trkpt>
      <trkpt lat="41.794027" lon="22.986959">
        <ele>1278.1</ele>
        <time>2026-05-06T10:39:39.000Z</time>
      </trkpt>
      <trkpt lat="41.794026" lon="22.986958">
        <ele>1278.1</ele>
        <time>2026-05-06T10:39:40.000Z</time>
      </trkpt>
      <trkpt lat="41.794025" lon="22.986957">
        <ele>1278.1</ele>
        <time>2026-05-06T10:39:41.000Z</time>
      </trkpt>
      <trkpt lat="41.794026" lon="22.986956">
        <ele>1278.1</ele>
        <time>2026-05-06T10:39:42.000Z</time>
      </trkpt>
      <trkpt lat="41.794027" lon="22.986954">
        <ele>1277.8</ele>
        <time>2026-05-06T10:39:43.000Z</time>
      </trkpt>
      <trkpt lat="41.79403" lon="22.986951">
        <ele>1277.8</ele>
        <time>2026-05-06T10:39:44.000Z</time>
      </trkpt>
      <trkpt lat="41.794034" lon="22.986947">
        <ele>1277.8</ele>
        <time>2026-05-06T10:39:45.000Z</time>
      </trkpt>
      <trkpt lat="41.794039" lon="22.986943">
        <ele>1277.8</ele>
        <time>2026-05-06T10:39:46.000Z</time>
      </trkpt>
      <trkpt lat="41.794044" lon="22.986936">
        <ele>1277.8</ele>
        <time>2026-05-06T10:39:47.000Z</time>
      </trkpt>
      <trkpt lat="41.794047" lon="22.986931">
        <ele>1277.7</ele>
        <time>2026-05-06T10:39:48.000Z</time>
      </trkpt>
      <trkpt lat="41.794049" lon="22.986927">
        <ele>1277.7</ele>
        <time>2026-05-06T10:39:49.000Z</time>
      </trkpt>
      <trkpt lat="41.794051" lon="22.986925">
        <ele>1277.7</ele>
        <time>2026-05-06T10:39:50.000Z</time>
      </trkpt>
      <trkpt lat="41.794051" lon="22.986923">
        <ele>1277.7</ele>
        <time>2026-05-06T10:39:51.000Z</time>
      </trkpt>
      <trkpt lat="41.794052" lon="22.986923">
        <ele>1277.7</ele>
        <time>2026-05-06T10:39:52.000Z</time>
      </trkpt>
      <trkpt lat="41.794053" lon="22.986923">
        <ele>1277.7</ele>
        <time>2026-05-06T10:39:53.000Z</time>
      </trkpt>
      <trkpt lat="41.794054" lon="22.986924">
        <ele>1277.7</ele>
        <time>2026-05-06T10:39:54.000Z</time>
      </trkpt>
      <trkpt lat="41.794055" lon="22.986924">
        <ele>1277.7</ele>
        <time>2026-05-06T10:39:55.000Z</time>
      </trkpt>
      <trkpt lat="41.794056" lon="22.986926">
        <ele>1277.7</ele>
        <time>2026-05-06T10:39:56.000Z</time>
      </trkpt>
      <trkpt lat="41.794058" lon="22.986928">
        <ele>1277.7</ele>
        <time>2026-05-06T10:39:57.000Z</time>
      </trkpt>
      <trkpt lat="41.79406" lon="22.986929">
        <ele>1277.8</ele>
        <time>2026-05-06T10:39:58.000Z</time>
      </trkpt>
      <trkpt lat="41.794062" lon="22.986931">
        <ele>1277.8</ele>
        <time>2026-05-06T10:39:59.000Z</time>
      </trkpt>
      <trkpt lat="41.794063" lon="22.986932">
        <ele>1277.8</ele>
        <time>2026-05-06T10:40:00.000Z</time>
      </trkpt>
      <trkpt lat="41.794063" lon="22.986932">
        <ele>1277.8</ele>
        <time>2026-05-06T10:40:01.000Z</time>
      </trkpt>
      <trkpt lat="41.794063" lon="22.986932">
        <ele>1277.8</ele>
        <time>2026-05-06T10:40:02.000Z</time>
      </trkpt>
      <trkpt lat="41.794063" lon="22.986932">
        <ele>1277.8</ele>
        <time>2026-05-06T10:40:03.000Z</time>
      </trkpt>
      <trkpt lat="41.794063" lon="22.986932">
        <ele>1277.8</ele>
        <time>2026-05-06T10:40:04.000Z</time>
      </trkpt>
      <trkpt lat="41.794064" lon="22.986932">
        <ele>1277.8</ele>
        <time>2026-05-06T10:40:05.000Z</time>
      </trkpt>
      <trkpt lat="41.794065" lon="22.986932">
        <ele>1277.8</ele>
        <time>2026-05-06T10:40:06.000Z</time>
      </trkpt>
      <trkpt lat="41.794066" lon="22.986932">
        <ele>1277.8</ele>
        <time>2026-05-06T10:40:07.000Z</time>
      </trkpt>
      <trkpt lat="41.794068" lon="22.986932">
        <ele>1277.7</ele>
        <time>2026-05-06T10:40:08.000Z</time>
      </trkpt>
      <trkpt lat="41.794068" lon="22.986933">
        <ele>1277.7</ele>
        <time>2026-05-06T10:40:09.000Z</time>
      </trkpt>
      <trkpt lat="41.794068" lon="22.986933">
        <ele>1277.7</ele>
        <time>2026-05-06T10:40:10.000Z</time>
      </trkpt>
      <trkpt lat="41.794069" lon="22.986934">
        <ele>1277.7</ele>
        <time>2026-05-06T10:40:11.000Z</time>
      </trkpt>
      <trkpt lat="41.794069" lon="22.986935">
        <ele>1277.7</ele>
        <time>2026-05-06T10:40:12.000Z</time>
      </trkpt>
      <trkpt lat="41.794068" lon="22.986937">
        <ele>1277.6</ele>
        <time>2026-05-06T10:40:13.000Z</time>
      </trkpt>
      <trkpt lat="41.794068" lon="22.986938">
        <ele>1277.6</ele>
        <time>2026-05-06T10:40:14.000Z</time>
      </trkpt>
      <trkpt lat="41.794068" lon="22.986939">
        <ele>1277.6</ele>
        <time>2026-05-06T10:40:15.000Z</time>
      </trkpt>
      <trkpt lat="41.794067" lon="22.986939">
        <ele>1277.6</ele>
        <time>2026-05-06T10:40:16.000Z</time>
      </trkpt>
      <trkpt lat="41.794068" lon="22.986941">
        <ele>1277.6</ele>
        <time>2026-05-06T10:40:17.000Z</time>
      </trkpt>
      <trkpt lat="41.794069" lon="22.986942">
        <ele>1277.6</ele>
        <time>2026-05-06T10:40:18.000Z</time>
      </trkpt>
      <trkpt lat="41.794069" lon="22.986943">
        <ele>1277.6</ele>
        <time>2026-05-06T10:40:19.000Z</time>
      </trkpt>
      <trkpt lat="41.79407" lon="22.986944">
        <ele>1277.6</ele>
        <time>2026-05-06T10:40:20.000Z</time>
      </trkpt>
      <trkpt lat="41.79407" lon="22.986945">
        <ele>1277.6</ele>
        <time>2026-05-06T10:40:21.000Z</time>
      </trkpt>
      <trkpt lat="41.79407" lon="22.986945">
        <ele>1277.6</ele>
        <time>2026-05-06T10:40:22.000Z</time>
      </trkpt>
      <trkpt lat="41.79407" lon="22.986945">
        <ele>1277.7</ele>
        <time>2026-05-06T10:40:23.000Z</time>
      </trkpt>
      <trkpt lat="41.79407" lon="22.986945">
        <ele>1277.7</ele>
        <time>2026-05-06T10:40:24.000Z</time>
      </trkpt>
      <trkpt lat="41.79407" lon="22.986945">
        <ele>1277.7</ele>
        <time>2026-05-06T10:40:25.000Z</time>
      </trkpt>
      <trkpt lat="41.79407" lon="22.986945">
        <ele>1277.7</ele>
        <time>2026-05-06T10:40:26.000Z</time>
      </trkpt>
      <trkpt lat="41.79407" lon="22.986945">
        <ele>1277.7</ele>
        <time>2026-05-06T10:40:27.000Z</time>
      </trkpt>
      <trkpt lat="41.79407" lon="22.986945">
        <ele>1277.6</ele>
        <time>2026-05-06T10:40:28.000Z</time>
      </trkpt>
      <trkpt lat="41.79407" lon="22.986945">
        <ele>1277.6</ele>
        <time>2026-05-06T10:40:29.000Z</time>
      </trkpt>
      <trkpt lat="41.79407" lon="22.986945">
        <ele>1277.6</ele>
        <time>2026-05-06T10:40:30.000Z</time>
      </trkpt>
      <trkpt lat="41.79407" lon="22.986945">
        <ele>1277.6</ele>
        <time>2026-05-06T10:40:31.000Z</time>
      </trkpt>
      <trkpt lat="41.79407" lon="22.986945">
        <ele>1277.6</ele>
        <time>2026-05-06T10:40:32.000Z</time>
      </trkpt>
      <trkpt lat="41.794071" lon="22.986944">
        <ele>1277.5</ele>
        <time>2026-05-06T10:40:33.000Z</time>
      </trkpt>
      <trkpt lat="41.794072" lon="22.986944">
        <ele>1277.5</ele>
        <time>2026-05-06T10:40:34.000Z</time>
      </trkpt>
      <trkpt lat="41.794073" lon="22.986944">
        <ele>1277.5</ele>
        <time>2026-05-06T10:40:35.000Z</time>
      </trkpt>
      <trkpt lat="41.794075" lon="22.986943">
        <ele>1277.5</ele>
        <time>2026-05-06T10:40:36.000Z</time>
      </trkpt>
      <trkpt lat="41.794077" lon="22.986943">
        <ele>1277.5</ele>
        <time>2026-05-06T10:40:37.000Z</time>
      </trkpt>
      <trkpt lat="41.794078" lon="22.986944">
        <ele>1277.3</ele>
        <time>2026-05-06T10:40:38.000Z</time>
      </trkpt>
      <trkpt lat="41.794079" lon="22.986944">
        <ele>1277.3</ele>
        <time>2026-05-06T10:40:39.000Z</time>
      </trkpt>
      <trkpt lat="41.79408" lon="22.986946">
        <ele>1277.3</ele>
        <time>2026-05-06T10:40:40.000Z</time>
      </trkpt>
      <trkpt lat="41.79408" lon="22.986948">
        <ele>1277.3</ele>
        <time>2026-05-06T10:40:41.000Z</time>
      </trkpt>
      <trkpt lat="41.79408" lon="22.986949">
        <ele>1277.3</ele>
        <time>2026-05-06T10:40:42.000Z</time>
      </trkpt>
      <trkpt lat="41.794081" lon="22.986951">
        <ele>1277.1</ele>
        <time>2026-05-06T10:40:43.000Z</time>
      </trkpt>
      <trkpt lat="41.794081" lon="22.986953">
        <ele>1277.1</ele>
        <time>2026-05-06T10:40:44.000Z</time>
      </trkpt>
      <trkpt lat="41.79408" lon="22.986953">
        <ele>1277.1</ele>
        <time>2026-05-06T10:40:45.000Z</time>
      </trkpt>
      <trkpt lat="41.79408" lon="22.986954">
        <ele>1277.1</ele>
        <time>2026-05-06T10:40:46.000Z</time>
      </trkpt>
      <trkpt lat="41.794079" lon="22.986954">
        <ele>1277.1</ele>
        <time>2026-05-06T10:40:47.000Z</time>
      </trkpt>
      <trkpt lat="41.794078" lon="22.986954">
        <ele>1277.1</ele>
        <time>2026-05-06T10:40:48.000Z</time>
      </trkpt>
      <trkpt lat="41.794076" lon="22.986954">
        <ele>1277.1</ele>
        <time>2026-05-06T10:40:49.000Z</time>
      </trkpt>
      <trkpt lat="41.794074" lon="22.986953">
        <ele>1277.1</ele>
        <time>2026-05-06T10:40:50.000Z</time>
      </trkpt>
      <trkpt lat="41.794073" lon="22.986954">
        <ele>1277.1</ele>
        <time>2026-05-06T10:40:51.000Z</time>
      </trkpt>
      <trkpt lat="41.794071" lon="22.986954">
        <ele>1277.1</ele>
        <time>2026-05-06T10:40:52.000Z</time>
      </trkpt>
      <trkpt lat="41.794069" lon="22.986955">
        <ele>1277.2</ele>
        <time>2026-05-06T10:40:53.000Z</time>
      </trkpt>
      <trkpt lat="41.794068" lon="22.986955">
        <ele>1277.2</ele>
        <time>2026-05-06T10:40:54.000Z</time>
      </trkpt>
      <trkpt lat="41.794067" lon="22.986956">
        <ele>1277.2</ele>
        <time>2026-05-06T10:40:55.000Z</time>
      </trkpt>
      <trkpt lat="41.794067" lon="22.986956">
        <ele>1277.2</ele>
        <time>2026-05-06T10:40:56.000Z</time>
      </trkpt>
      <trkpt lat="41.794067" lon="22.986956">
        <ele>1277.2</ele>
        <time>2026-05-06T10:40:57.000Z</time>
      </trkpt>
      <trkpt lat="41.794067" lon="22.986956">
        <ele>1277.3</ele>
        <time>2026-05-06T10:40:58.000Z</time>
      </trkpt>
      <trkpt lat="41.794067" lon="22.986957">
        <ele>1277.3</ele>
        <time>2026-05-06T10:40:59.000Z</time>
      </trkpt>
      <trkpt lat="41.794068" lon="22.986958">
        <ele>1277.3</ele>
        <time>2026-05-06T10:41:00.000Z</time>
      </trkpt>
      <trkpt lat="41.794069" lon="22.986959">
        <ele>1277.3</ele>
        <time>2026-05-06T10:41:01.000Z</time>
      </trkpt>
      <trkpt lat="41.794071" lon="22.98696">
        <ele>1277.3</ele>
        <time>2026-05-06T10:41:02.000Z</time>
      </trkpt>
      <trkpt lat="41.794071" lon="22.98696">
        <ele>1277.3</ele>
        <time>2026-05-06T10:41:03.000Z</time>
      </trkpt>
      <trkpt lat="41.794072" lon="22.986961">
        <ele>1277.3</ele>
        <time>2026-05-06T10:41:04.000Z</time>
      </trkpt>
      <trkpt lat="41.794073" lon="22.986961">
        <ele>1277.3</ele>
        <time>2026-05-06T10:41:05.000Z</time>
      </trkpt>
      <trkpt lat="41.794073" lon="22.986961">
        <ele>1277.3</ele>
        <time>2026-05-06T10:41:06.000Z</time>
      </trkpt>
      <trkpt lat="41.794073" lon="22.986962">
        <ele>1277.3</ele>
        <time>2026-05-06T10:41:07.000Z</time>
      </trkpt>
      <trkpt lat="41.794073" lon="22.986961">
        <ele>1277.3</ele>
        <time>2026-05-06T10:41:08.000Z</time>
      </trkpt>
      <trkpt lat="41.794074" lon="22.986961">
        <ele>1277.3</ele>
        <time>2026-05-06T10:41:09.000Z</time>
      </trkpt>
      <trkpt lat="41.794074" lon="22.986961">
        <ele>1277.3</ele>
        <time>2026-05-06T10:41:10.000Z</time>
      </trkpt>
      <trkpt lat="41.794075" lon="22.986961">
        <ele>1277.3</ele>
        <time>2026-05-06T10:41:11.000Z</time>
      </trkpt>
      <trkpt lat="41.794075" lon="22.98696">
        <ele>1277.3</ele>
        <time>2026-05-06T10:41:12.000Z</time>
      </trkpt>
      <trkpt lat="41.794075" lon="22.98696">
        <ele>1277.4</ele>
        <time>2026-05-06T10:41:13.000Z</time>
      </trkpt>
      <trkpt lat="41.794076" lon="22.98696">
        <ele>1277.4</ele>
        <time>2026-05-06T10:41:14.000Z</time>
      </trkpt>
      <trkpt lat="41.794076" lon="22.98696">
        <ele>1277.4</ele>
        <time>2026-05-06T10:41:15.000Z</time>
      </trkpt>
      <trkpt lat="41.794076" lon="22.98696">
        <ele>1277.4</ele>
        <time>2026-05-06T10:41:16.000Z</time>
      </trkpt>
      <trkpt lat="41.794076" lon="22.98696">
        <ele>1277.4</ele>
        <time>2026-05-06T10:41:17.000Z</time>
      </trkpt>
      <trkpt lat="41.794076" lon="22.98696">
        <ele>1277.5</ele>
        <time>2026-05-06T10:41:18.000Z</time>
      </trkpt>
      <trkpt lat="41.794076" lon="22.98696">
        <ele>1277.5</ele>
        <time>2026-05-06T10:41:19.000Z</time>
      </trkpt>
      <trkpt lat="41.794076" lon="22.986961">
        <ele>1277.5</ele>
        <time>2026-05-06T10:41:20.000Z</time>
      </trkpt>
      <trkpt lat="41.794075" lon="22.986961">
        <ele>1277.5</ele>
        <time>2026-05-06T10:41:21.000Z</time>
      </trkpt>
      <trkpt lat="41.794075" lon="22.986961">
        <ele>1277.5</ele>
        <time>2026-05-06T10:41:22.000Z</time>
      </trkpt>
      <trkpt lat="41.794075" lon="22.986961">
        <ele>1277.6</ele>
        <time>2026-05-06T10:41:23.000Z</time>
      </trkpt>
      <trkpt lat="41.794075" lon="22.986961">
        <ele>1277.6</ele>
        <time>2026-05-06T10:41:24.000Z</time>
      </trkpt>
      <trkpt lat="41.794076" lon="22.986961">
        <ele>1277.6</ele>
        <time>2026-05-06T10:41:25.000Z</time>
      </trkpt>
      <trkpt lat="41.794076" lon="22.986961">
        <ele>1277.6</ele>
        <time>2026-05-06T10:41:26.000Z</time>
      </trkpt>
      <trkpt lat="41.794076" lon="22.986961">
        <ele>1277.6</ele>
        <time>2026-05-06T10:41:27.000Z</time>
      </trkpt>
      <trkpt lat="41.794076" lon="22.986961">
        <ele>1277.7</ele>
        <time>2026-05-06T10:41:28.000Z</time>
      </trkpt>
      <trkpt lat="41.794076" lon="22.986961">
        <ele>1277.7</ele>
        <time>2026-05-06T10:41:29.000Z</time>
      </trkpt>
      <trkpt lat="41.794076" lon="22.986961">
        <ele>1277.7</ele>
        <time>2026-05-06T10:41:30.000Z</time>
      </trkpt>
      <trkpt lat="41.794075" lon="22.986962">
        <ele>1277.7</ele>
        <time>2026-05-06T10:41:31.000Z</time>
      </trkpt>
      <trkpt lat="41.794075" lon="22.986963">
        <ele>1277.7</ele>
        <time>2026-05-06T10:41:32.000Z</time>
      </trkpt>
      <trkpt lat="41.794074" lon="22.986964">
        <ele>1277.6</ele>
        <time>2026-05-06T10:41:33.000Z</time>
      </trkpt>
      <trkpt lat="41.794073" lon="22.986966">
        <ele>1277.6</ele>
        <time>2026-05-06T10:41:34.000Z</time>
      </trkpt>
      <trkpt lat="41.794073" lon="22.986968">
        <ele>1277.6</ele>
        <time>2026-05-06T10:41:35.000Z</time>
      </trkpt>
      <trkpt lat="41.794073" lon="22.98697">
        <ele>1277.6</ele>
        <time>2026-05-06T10:41:36.000Z</time>
      </trkpt>
      <trkpt lat="41.794073" lon="22.986972">
        <ele>1277.6</ele>
        <time>2026-05-06T10:41:37.000Z</time>
      </trkpt>
      <trkpt lat="41.794073" lon="22.986974">
        <ele>1277.5</ele>
        <time>2026-05-06T10:41:38.000Z</time>
      </trkpt>
      <trkpt lat="41.794073" lon="22.986975">
        <ele>1277.5</ele>
        <time>2026-05-06T10:41:39.000Z</time>
      </trkpt>
      <trkpt lat="41.794074" lon="22.986975">
        <ele>1277.5</ele>
        <time>2026-05-06T10:41:40.000Z</time>
      </trkpt>
      <trkpt lat="41.794074" lon="22.986975">
        <ele>1277.5</ele>
        <time>2026-05-06T10:41:41.000Z</time>
      </trkpt>
      <trkpt lat="41.794074" lon="22.986975">
        <ele>1277.5</ele>
        <time>2026-05-06T10:41:42.000Z</time>
      </trkpt>
      <trkpt lat="41.794074" lon="22.986974">
        <ele>1277.4</ele>
        <time>2026-05-06T10:41:43.000Z</time>
      </trkpt>
      <trkpt lat="41.794073" lon="22.986974">
        <ele>1277.4</ele>
        <time>2026-05-06T10:41:44.000Z</time>
      </trkpt>
      <trkpt lat="41.794073" lon="22.986973">
        <ele>1277.4</ele>
        <time>2026-05-06T10:41:45.000Z</time>
      </trkpt>
      <trkpt lat="41.794072" lon="22.986973">
        <ele>1277.4</ele>
        <time>2026-05-06T10:41:46.000Z</time>
      </trkpt>
      <trkpt lat="41.794071" lon="22.986971">
        <ele>1277.4</ele>
        <time>2026-05-06T10:41:47.000Z</time>
      </trkpt>
      <trkpt lat="41.79407" lon="22.986969">
        <ele>1277.5</ele>
        <time>2026-05-06T10:41:48.000Z</time>
      </trkpt>
      <trkpt lat="41.794068" lon="22.986966">
        <ele>1277.5</ele>
        <time>2026-05-06T10:41:49.000Z</time>
      </trkpt>
      <trkpt lat="41.794066" lon="22.986963">
        <ele>1277.5</ele>
        <time>2026-05-06T10:41:50.000Z</time>
      </trkpt>
      <trkpt lat="41.794065" lon="22.986961">
        <ele>1277.5</ele>
        <time>2026-05-06T10:41:51.000Z</time>
      </trkpt>
      <trkpt lat="41.794064" lon="22.98696">
        <ele>1277.5</ele>
        <time>2026-05-06T10:41:52.000Z</time>
      </trkpt>
      <trkpt lat="41.794064" lon="22.986959">
        <ele>1277.8</ele>
        <time>2026-05-06T10:41:53.000Z</time>
      </trkpt>
      <trkpt lat="41.794065" lon="22.986959">
        <ele>1277.8</ele>
        <time>2026-05-06T10:41:54.000Z</time>
      </trkpt>
      <trkpt lat="41.794065" lon="22.986959">
        <ele>1277.8</ele>
        <time>2026-05-06T10:41:55.000Z</time>
      </trkpt>
      <trkpt lat="41.794066" lon="22.986958">
        <ele>1277.8</ele>
        <time>2026-05-06T10:41:56.000Z</time>
      </trkpt>
      <trkpt lat="41.794067" lon="22.986957">
        <ele>1277.8</ele>
        <time>2026-05-06T10:41:57.000Z</time>
      </trkpt>
      <trkpt lat="41.794067" lon="22.986956">
        <ele>1278</ele>
        <time>2026-05-06T10:41:58.000Z</time>
      </trkpt>
      <trkpt lat="41.794067" lon="22.986955">
        <ele>1278</ele>
        <time>2026-05-06T10:41:59.000Z</time>
      </trkpt>
      <trkpt lat="41.794066" lon="22.986953">
        <ele>1278</ele>
        <time>2026-05-06T10:42:00.000Z</time>
      </trkpt>
      <trkpt lat="41.794065" lon="22.986951">
        <ele>1278</ele>
        <time>2026-05-06T10:42:01.000Z</time>
      </trkpt>
      <trkpt lat="41.794066" lon="22.986949">
        <ele>1278</ele>
        <time>2026-05-06T10:42:02.000Z</time>
      </trkpt>
      <trkpt lat="41.794068" lon="22.986947">
        <ele>1278.1</ele>
        <time>2026-05-06T10:42:03.000Z</time>
      </trkpt>
      <trkpt lat="41.79407" lon="22.986942">
        <ele>1278.1</ele>
        <time>2026-05-06T10:42:04.000Z</time>
      </trkpt>
      <trkpt lat="41.794073" lon="22.986939">
        <ele>1278.1</ele>
        <time>2026-05-06T10:42:05.000Z</time>
      </trkpt>
      <trkpt lat="41.794075" lon="22.986935">
        <ele>1278.1</ele>
        <time>2026-05-06T10:42:06.000Z</time>
      </trkpt>
      <trkpt lat="41.794076" lon="22.986933">
        <ele>1278.1</ele>
        <time>2026-05-06T10:42:07.000Z</time>
      </trkpt>
      <trkpt lat="41.794075" lon="22.98693">
        <ele>1278.1</ele>
        <time>2026-05-06T10:42:08.000Z</time>
      </trkpt>
      <trkpt lat="41.794076" lon="22.986927">
        <ele>1278.1</ele>
        <time>2026-05-06T10:42:09.000Z</time>
      </trkpt>
      <trkpt lat="41.794077" lon="22.986924">
        <ele>1278.1</ele>
        <time>2026-05-06T10:42:10.000Z</time>
      </trkpt>
      <trkpt lat="41.794078" lon="22.986919">
        <ele>1278.1</ele>
        <time>2026-05-06T10:42:11.000Z</time>
      </trkpt>
      <trkpt lat="41.794082" lon="22.986913">
        <ele>1278.1</ele>
        <time>2026-05-06T10:42:12.000Z</time>
      </trkpt>
      <trkpt lat="41.794085" lon="22.986905">
        <ele>1278.5</ele>
        <time>2026-05-06T10:42:13.000Z</time>
      </trkpt>
      <trkpt lat="41.79409" lon="22.986895">
        <ele>1278.5</ele>
        <time>2026-05-06T10:42:14.000Z</time>
      </trkpt>
      <trkpt lat="41.794095" lon="22.986887">
        <ele>1278.5</ele>
        <time>2026-05-06T10:42:15.000Z</time>
      </trkpt>
      <trkpt lat="41.7941" lon="22.986882">
        <ele>1278.5</ele>
        <time>2026-05-06T10:42:16.000Z</time>
      </trkpt>
      <trkpt lat="41.794105" lon="22.986877">
        <ele>1278.5</ele>
        <time>2026-05-06T10:42:17.000Z</time>
      </trkpt>
      <trkpt lat="41.79411" lon="22.986875">
        <ele>1278.9</ele>
        <time>2026-05-06T10:42:18.000Z</time>
      </trkpt>
      <trkpt lat="41.794114" lon="22.986873">
        <ele>1278.9</ele>
        <time>2026-05-06T10:42:19.000Z</time>
      </trkpt>
      <trkpt lat="41.794119" lon="22.986871">
        <ele>1278.9</ele>
        <time>2026-05-06T10:42:20.000Z</time>
      </trkpt>
      <trkpt lat="41.794122" lon="22.986869">
        <ele>1278.9</ele>
        <time>2026-05-06T10:42:21.000Z</time>
      </trkpt>
      <trkpt lat="41.794124" lon="22.986868">
        <ele>1278.9</ele>
        <time>2026-05-06T10:42:22.000Z</time>
      </trkpt>
      <trkpt lat="41.794126" lon="22.986868">
        <ele>1279.8</ele>
        <time>2026-05-06T10:42:23.000Z</time>
      </trkpt>
      <trkpt lat="41.794127" lon="22.986869">
        <ele>1279.8</ele>
        <time>2026-05-06T10:42:24.000Z</time>
      </trkpt>
      <trkpt lat="41.794126" lon="22.986869">
        <ele>1279.8</ele>
        <time>2026-05-06T10:42:25.000Z</time>
      </trkpt>
      <trkpt lat="41.794125" lon="22.986868">
        <ele>1279.8</ele>
        <time>2026-05-06T10:42:26.000Z</time>
      </trkpt>
      <trkpt lat="41.794125" lon="22.986866">
        <ele>1279.8</ele>
        <time>2026-05-06T10:42:27.000Z</time>
      </trkpt>
      <trkpt lat="41.794124" lon="22.986865">
        <ele>1281</ele>
        <time>2026-05-06T10:42:28.000Z</time>
      </trkpt>
      <trkpt lat="41.794123" lon="22.986864">
        <ele>1281</ele>
        <time>2026-05-06T10:42:29.000Z</time>
      </trkpt>
      <trkpt lat="41.794123" lon="22.986865">
        <ele>1281</ele>
        <time>2026-05-06T10:42:30.000Z</time>
      </trkpt>
      <trkpt lat="41.794123" lon="22.986866">
        <ele>1281</ele>
        <time>2026-05-06T10:42:31.000Z</time>
      </trkpt>
      <trkpt lat="41.794123" lon="22.986868">
        <ele>1281</ele>
        <time>2026-05-06T10:42:32.000Z</time>
      </trkpt>
      <trkpt lat="41.794123" lon="22.986869">
        <ele>1281.4</ele>
        <time>2026-05-06T10:42:33.000Z</time>
      </trkpt>
      <trkpt lat="41.794122" lon="22.986869">
        <ele>1281.4</ele>
        <time>2026-05-06T10:42:34.000Z</time>
      </trkpt>
      <trkpt lat="41.794122" lon="22.986869">
        <ele>1281.4</ele>
        <time>2026-05-06T10:42:35.000Z</time>
      </trkpt>
      <trkpt lat="41.794122" lon="22.986869">
        <ele>1281.4</ele>
        <time>2026-05-06T10:42:36.000Z</time>
      </trkpt>
      <trkpt lat="41.794122" lon="22.986869">
        <ele>1281.4</ele>
        <time>2026-05-06T10:42:37.000Z</time>
      </trkpt>
      <trkpt lat="41.794122" lon="22.986869">
        <ele>1282</ele>
        <time>2026-05-06T10:42:38.000Z</time>
      </trkpt>
      <trkpt lat="41.794122" lon="22.98687">
        <ele>1282</ele>
        <time>2026-05-06T10:42:39.000Z</time>
      </trkpt>
      <trkpt lat="41.794122" lon="22.986871">
        <ele>1282</ele>
        <time>2026-05-06T10:42:40.000Z</time>
      </trkpt>
      <trkpt lat="41.794121" lon="22.986872">
        <ele>1282</ele>
        <time>2026-05-06T10:42:41.000Z</time>
      </trkpt>
      <trkpt lat="41.794121" lon="22.986873">
        <ele>1282</ele>
        <time>2026-05-06T10:42:42.000Z</time>
      </trkpt>
      <trkpt lat="41.79412" lon="22.986874">
        <ele>1282.1</ele>
        <time>2026-05-06T10:42:43.000Z</time>
      </trkpt>
      <trkpt lat="41.79412" lon="22.986874">
        <ele>1282.1</ele>
        <time>2026-05-06T10:42:44.000Z</time>
      </trkpt>
      <trkpt lat="41.79412" lon="22.986874">
        <ele>1282.1</ele>
        <time>2026-05-06T10:42:45.000Z</time>
      </trkpt>
      <trkpt lat="41.79412" lon="22.986874">
        <ele>1282.1</ele>
        <time>2026-05-06T10:42:46.000Z</time>
      </trkpt>
      <trkpt lat="41.794122" lon="22.986875">
        <ele>1282.1</ele>
        <time>2026-05-06T10:42:47.000Z</time>
      </trkpt>
      <trkpt lat="41.794124" lon="22.986877">
        <ele>1282</ele>
        <time>2026-05-06T10:42:48.000Z</time>
      </trkpt>
      <trkpt lat="41.794127" lon="22.986878">
        <ele>1282</ele>
        <time>2026-05-06T10:42:49.000Z</time>
      </trkpt>
      <trkpt lat="41.794131" lon="22.986879">
        <ele>1282</ele>
        <time>2026-05-06T10:42:50.000Z</time>
      </trkpt>
      <trkpt lat="41.794137" lon="22.98688">
        <ele>1282</ele>
        <time>2026-05-06T10:42:51.000Z</time>
      </trkpt>
      <trkpt lat="41.794142" lon="22.98688">
        <ele>1282</ele>
        <time>2026-05-06T10:42:52.000Z</time>
      </trkpt>
      <trkpt lat="41.794146" lon="22.986878">
        <ele>1282</ele>
        <time>2026-05-06T10:42:53.000Z</time>
      </trkpt>
      <trkpt lat="41.79415" lon="22.986875">
        <ele>1282</ele>
        <time>2026-05-06T10:42:54.000Z</time>
      </trkpt>
      <trkpt lat="41.794153" lon="22.986872">
        <ele>1282</ele>
        <time>2026-05-06T10:42:55.000Z</time>
      </trkpt>
      <trkpt lat="41.794155" lon="22.986868">
        <ele>1282</ele>
        <time>2026-05-06T10:42:56.000Z</time>
      </trkpt>
      <trkpt lat="41.794157" lon="22.986866">
        <ele>1282</ele>
        <time>2026-05-06T10:42:57.000Z</time>
      </trkpt>
      <trkpt lat="41.794158" lon="22.986864">
        <ele>1282.1</ele>
        <time>2026-05-06T10:42:58.000Z</time>
      </trkpt>
      <trkpt lat="41.79416" lon="22.986863">
        <ele>1282.1</ele>
        <time>2026-05-06T10:42:59.000Z</time>
      </trkpt>
      <trkpt lat="41.794161" lon="22.986863">
        <ele>1282.1</ele>
        <time>2026-05-06T10:43:00.000Z</time>
      </trkpt>
      <trkpt lat="41.794163" lon="22.986862">
        <ele>1282.1</ele>
        <time>2026-05-06T10:43:01.000Z</time>
      </trkpt>
      <trkpt lat="41.794165" lon="22.986861">
        <ele>1282.1</ele>
        <time>2026-05-06T10:43:02.000Z</time>
      </trkpt>
      <trkpt lat="41.794167" lon="22.98686">
        <ele>1282.5</ele>
        <time>2026-05-06T10:43:03.000Z</time>
      </trkpt>
      <trkpt lat="41.794167" lon="22.98686">
        <ele>1282.5</ele>
        <time>2026-05-06T10:43:04.000Z</time>
      </trkpt>
      <trkpt lat="41.794167" lon="22.986859">
        <ele>1282.5</ele>
        <time>2026-05-06T10:43:05.000Z</time>
      </trkpt>
      <trkpt lat="41.794166" lon="22.986856">
        <ele>1282.5</ele>
        <time>2026-05-06T10:43:06.000Z</time>
      </trkpt>
      <trkpt lat="41.794164" lon="22.986853">
        <ele>1282.5</ele>
        <time>2026-05-06T10:43:07.000Z</time>
      </trkpt>
      <trkpt lat="41.794163" lon="22.986847">
        <ele>1283.7</ele>
        <time>2026-05-06T10:43:08.000Z</time>
      </trkpt>
      <trkpt lat="41.794163" lon="22.986841">
        <ele>1283.7</ele>
        <time>2026-05-06T10:43:09.000Z</time>
      </trkpt>
      <trkpt lat="41.794161" lon="22.986833">
        <ele>1283.7</ele>
        <time>2026-05-06T10:43:10.000Z</time>
      </trkpt>
      <trkpt lat="41.794161" lon="22.986826">
        <ele>1283.7</ele>
        <time>2026-05-06T10:43:11.000Z</time>
      </trkpt>
      <trkpt lat="41.794162" lon="22.986819">
        <ele>1283.7</ele>
        <time>2026-05-06T10:43:12.000Z</time>
      </trkpt>
      <trkpt lat="41.794162" lon="22.986815">
        <ele>1284.8</ele>
        <time>2026-05-06T10:43:13.000Z</time>
      </trkpt>
      <trkpt lat="41.794161" lon="22.986812">
        <ele>1284.8</ele>
        <time>2026-05-06T10:43:14.000Z</time>
      </trkpt>
      <trkpt lat="41.794162" lon="22.98681">
        <ele>1284.8</ele>
        <time>2026-05-06T10:43:15.000Z</time>
      </trkpt>
      <trkpt lat="41.794162" lon="22.98681">
        <ele>1284.8</ele>
        <time>2026-05-06T10:43:16.000Z</time>
      </trkpt>
      <trkpt lat="41.794161" lon="22.986811">
        <ele>1284.8</ele>
        <time>2026-05-06T10:43:17.000Z</time>
      </trkpt>
      <trkpt lat="41.794161" lon="22.986811">
        <ele>1285.1</ele>
        <time>2026-05-06T10:43:18.000Z</time>
      </trkpt>
      <trkpt lat="41.794161" lon="22.98681">
        <ele>1285.1</ele>
        <time>2026-05-06T10:43:19.000Z</time>
      </trkpt>
      <trkpt lat="41.794161" lon="22.986809">
        <ele>1285.1</ele>
        <time>2026-05-06T10:43:20.000Z</time>
      </trkpt>
      <trkpt lat="41.79416" lon="22.986806">
        <ele>1285.1</ele>
        <time>2026-05-06T10:43:21.000Z</time>
      </trkpt>
      <trkpt lat="41.79416" lon="22.986803">
        <ele>1285.1</ele>
        <time>2026-05-06T10:43:22.000Z</time>
      </trkpt>
      <trkpt lat="41.79416" lon="22.986798">
        <ele>1285.7</ele>
        <time>2026-05-06T10:43:23.000Z</time>
      </trkpt>
      <trkpt lat="41.794161" lon="22.986792">
        <ele>1285.7</ele>
        <time>2026-05-06T10:43:24.000Z</time>
      </trkpt>
      <trkpt lat="41.794162" lon="22.986788">
        <ele>1285.7</ele>
        <time>2026-05-06T10:43:25.000Z</time>
      </trkpt>
      <trkpt lat="41.794164" lon="22.986784">
        <ele>1285.7</ele>
        <time>2026-05-06T10:43:26.000Z</time>
      </trkpt>
      <trkpt lat="41.794168" lon="22.98678">
        <ele>1285.7</ele>
        <time>2026-05-06T10:43:27.000Z</time>
      </trkpt>
      <trkpt lat="41.794171" lon="22.986778">
        <ele>1286.3</ele>
        <time>2026-05-06T10:43:28.000Z</time>
      </trkpt>
      <trkpt lat="41.794174" lon="22.986776">
        <ele>1286.3</ele>
        <time>2026-05-06T10:43:29.000Z</time>
      </trkpt>
      <trkpt lat="41.794178" lon="22.986773">
        <ele>1286.3</ele>
        <time>2026-05-06T10:43:30.000Z</time>
      </trkpt>
      <trkpt lat="41.794182" lon="22.986769">
        <ele>1286.3</ele>
        <time>2026-05-06T10:43:31.000Z</time>
      </trkpt>
      <trkpt lat="41.794184" lon="22.986764">
        <ele>1286.3</ele>
        <time>2026-05-06T10:43:32.000Z</time>
      </trkpt>
      <trkpt lat="41.794185" lon="22.986757">
        <ele>1286.7</ele>
        <time>2026-05-06T10:43:33.000Z</time>
      </trkpt>
      <trkpt lat="41.794185" lon="22.98675">
        <ele>1286.7</ele>
        <time>2026-05-06T10:43:34.000Z</time>
      </trkpt>
      <trkpt lat="41.794185" lon="22.986743">
        <ele>1286.7</ele>
        <time>2026-05-06T10:43:35.000Z</time>
      </trkpt>
      <trkpt lat="41.794184" lon="22.986736">
        <ele>1286.7</ele>
        <time>2026-05-06T10:43:36.000Z</time>
      </trkpt>
      <trkpt lat="41.794184" lon="22.986729">
        <ele>1286.7</ele>
        <time>2026-05-06T10:43:37.000Z</time>
      </trkpt>
      <trkpt lat="41.794185" lon="22.986724">
        <ele>1287.3</ele>
        <time>2026-05-06T10:43:38.000Z</time>
      </trkpt>
      <trkpt lat="41.794186" lon="22.986719">
        <ele>1287.3</ele>
        <time>2026-05-06T10:43:39.000Z</time>
      </trkpt>
      <trkpt lat="41.794188" lon="22.986714">
        <ele>1287.3</ele>
        <time>2026-05-06T10:43:40.000Z</time>
      </trkpt>
      <trkpt lat="41.794191" lon="22.986711">
        <ele>1287.3</ele>
        <time>2026-05-06T10:43:41.000Z</time>
      </trkpt>
      <trkpt lat="41.794194" lon="22.986709">
        <ele>1287.3</ele>
        <time>2026-05-06T10:43:42.000Z</time>
      </trkpt>
      <trkpt lat="41.794197" lon="22.986708">
        <ele>1287.8</ele>
        <time>2026-05-06T10:43:43.000Z</time>
      </trkpt>
      <trkpt lat="41.7942" lon="22.986706">
        <ele>1287.8</ele>
        <time>2026-05-06T10:43:44.000Z</time>
      </trkpt>
      <trkpt lat="41.794201" lon="22.986706">
        <ele>1287.8</ele>
        <time>2026-05-06T10:43:45.000Z</time>
      </trkpt>
      <trkpt lat="41.794202" lon="22.986705">
        <ele>1287.8</ele>
        <time>2026-05-06T10:43:46.000Z</time>
      </trkpt>
      <trkpt lat="41.794204" lon="22.986705">
        <ele>1287.8</ele>
        <time>2026-05-06T10:43:47.000Z</time>
      </trkpt>
      <trkpt lat="41.794206" lon="22.986703">
        <ele>1288.1</ele>
        <time>2026-05-06T10:43:48.000Z</time>
      </trkpt>
      <trkpt lat="41.79421" lon="22.986701">
        <ele>1288.1</ele>
        <time>2026-05-06T10:43:49.000Z</time>
      </trkpt>
      <trkpt lat="41.794214" lon="22.986698">
        <ele>1288.1</ele>
        <time>2026-05-06T10:43:50.000Z</time>
      </trkpt>
      <trkpt lat="41.79422" lon="22.986696">
        <ele>1288.1</ele>
        <time>2026-05-06T10:43:51.000Z</time>
      </trkpt>
      <trkpt lat="41.794223" lon="22.986693">
        <ele>1288.1</ele>
        <time>2026-05-06T10:43:52.000Z</time>
      </trkpt>
      <trkpt lat="41.794226" lon="22.986691">
        <ele>1288.8</ele>
        <time>2026-05-06T10:43:53.000Z</time>
      </trkpt>
      <trkpt lat="41.794227" lon="22.986689">
        <ele>1288.8</ele>
        <time>2026-05-06T10:43:54.000Z</time>
      </trkpt>
      <trkpt lat="41.794229" lon="22.986685">
        <ele>1288.8</ele>
        <time>2026-05-06T10:43:55.000Z</time>
      </trkpt>
      <trkpt lat="41.794229" lon="22.986681">
        <ele>1288.8</ele>
        <time>2026-05-06T10:43:56.000Z</time>
      </trkpt>
      <trkpt lat="41.794229" lon="22.986676">
        <ele>1288.8</ele>
        <time>2026-05-06T10:43:57.000Z</time>
      </trkpt>
      <trkpt lat="41.794229" lon="22.98667">
        <ele>1289.8</ele>
        <time>2026-05-06T10:43:58.000Z</time>
      </trkpt>
      <trkpt lat="41.79423" lon="22.986666">
        <ele>1289.8</ele>
        <time>2026-05-06T10:43:59.000Z</time>
      </trkpt>
      <trkpt lat="41.794231" lon="22.986661">
        <ele>1289.8</ele>
        <time>2026-05-06T10:44:00.000Z</time>
      </trkpt>
      <trkpt lat="41.794233" lon="22.986657">
        <ele>1289.8</ele>
        <time>2026-05-06T10:44:01.000Z</time>
      </trkpt>
      <trkpt lat="41.794237" lon="22.986652">
        <ele>1289.8</ele>
        <time>2026-05-06T10:44:02.000Z</time>
      </trkpt>
      <trkpt lat="41.79424" lon="22.986648">
        <ele>1290.2</ele>
        <time>2026-05-06T10:44:03.000Z</time>
      </trkpt>
      <trkpt lat="41.794243" lon="22.986643">
        <ele>1290.2</ele>
        <time>2026-05-06T10:44:04.000Z</time>
      </trkpt>
      <trkpt lat="41.794246" lon="22.98664">
        <ele>1290.2</ele>
        <time>2026-05-06T10:44:05.000Z</time>
      </trkpt>
      <trkpt lat="41.794249" lon="22.986635">
        <ele>1290.2</ele>
        <time>2026-05-06T10:44:06.000Z</time>
      </trkpt>
      <trkpt lat="41.794252" lon="22.986633">
        <ele>1290.2</ele>
        <time>2026-05-06T10:44:07.000Z</time>
      </trkpt>
      <trkpt lat="41.794255" lon="22.98663">
        <ele>1291.1</ele>
        <time>2026-05-06T10:44:08.000Z</time>
      </trkpt>
      <trkpt lat="41.794257" lon="22.986629">
        <ele>1291.1</ele>
        <time>2026-05-06T10:44:09.000Z</time>
      </trkpt>
      <trkpt lat="41.79426" lon="22.986628">
        <ele>1291.1</ele>
        <time>2026-05-06T10:44:10.000Z</time>
      </trkpt>
      <trkpt lat="41.794261" lon="22.986628">
        <ele>1291.1</ele>
        <time>2026-05-06T10:44:11.000Z</time>
      </trkpt>
      <trkpt lat="41.794263" lon="22.986627">
        <ele>1291.1</ele>
        <time>2026-05-06T10:44:12.000Z</time>
      </trkpt>
      <trkpt lat="41.794265" lon="22.986626">
        <ele>1291.8</ele>
        <time>2026-05-06T10:44:13.000Z</time>
      </trkpt>
      <trkpt lat="41.794267" lon="22.986623">
        <ele>1291.8</ele>
        <time>2026-05-06T10:44:14.000Z</time>
      </trkpt>
      <trkpt lat="41.79427" lon="22.986619">
        <ele>1291.8</ele>
        <time>2026-05-06T10:44:15.000Z</time>
      </trkpt>
      <trkpt lat="41.794272" lon="22.986616">
        <ele>1291.8</ele>
        <time>2026-05-06T10:44:16.000Z</time>
      </trkpt>
      <trkpt lat="41.794276" lon="22.986614">
        <ele>1291.8</ele>
        <time>2026-05-06T10:44:17.000Z</time>
      </trkpt>
      <trkpt lat="41.794279" lon="22.98661">
        <ele>1292.1</ele>
        <time>2026-05-06T10:44:18.000Z</time>
      </trkpt>
      <trkpt lat="41.794282" lon="22.986609">
        <ele>1292.1</ele>
        <time>2026-05-06T10:44:19.000Z</time>
      </trkpt>
      <trkpt lat="41.794285" lon="22.986607">
        <ele>1292.1</ele>
        <time>2026-05-06T10:44:20.000Z</time>
      </trkpt>
      <trkpt lat="41.794289" lon="22.986604">
        <ele>1292.1</ele>
        <time>2026-05-06T10:44:21.000Z</time>
      </trkpt>
      <trkpt lat="41.794292" lon="22.9866">
        <ele>1292.1</ele>
        <time>2026-05-06T10:44:22.000Z</time>
      </trkpt>
      <trkpt lat="41.794295" lon="22.986595">
        <ele>1292.9</ele>
        <time>2026-05-06T10:44:23.000Z</time>
      </trkpt>
      <trkpt lat="41.794296" lon="22.986589">
        <ele>1292.9</ele>
        <time>2026-05-06T10:44:24.000Z</time>
      </trkpt>
      <trkpt lat="41.794299" lon="22.986582">
        <ele>1292.9</ele>
        <time>2026-05-06T10:44:25.000Z</time>
      </trkpt>
      <trkpt lat="41.794301" lon="22.986576">
        <ele>1292.9</ele>
        <time>2026-05-06T10:44:26.000Z</time>
      </trkpt>
      <trkpt lat="41.794304" lon="22.98657">
        <ele>1292.9</ele>
        <time>2026-05-06T10:44:27.000Z</time>
      </trkpt>
      <trkpt lat="41.794306" lon="22.986565">
        <ele>1293.8</ele>
        <time>2026-05-06T10:44:28.000Z</time>
      </trkpt>
      <trkpt lat="41.794311" lon="22.986561">
        <ele>1293.8</ele>
        <time>2026-05-06T10:44:29.000Z</time>
      </trkpt>
      <trkpt lat="41.794315" lon="22.986559">
        <ele>1293.8</ele>
        <time>2026-05-06T10:44:30.000Z</time>
      </trkpt>
      <trkpt lat="41.794321" lon="22.986556">
        <ele>1293.8</ele>
        <time>2026-05-06T10:44:31.000Z</time>
      </trkpt>
      <trkpt lat="41.794326" lon="22.986555">
        <ele>1293.8</ele>
        <time>2026-05-06T10:44:32.000Z</time>
      </trkpt>
      <trkpt lat="41.794332" lon="22.986554">
        <ele>1294.2</ele>
        <time>2026-05-06T10:44:33.000Z</time>
      </trkpt>
      <trkpt lat="41.794336" lon="22.986554">
        <ele>1294.2</ele>
        <time>2026-05-06T10:44:34.000Z</time>
      </trkpt>
      <trkpt lat="41.79434" lon="22.986553">
        <ele>1294.2</ele>
        <time>2026-05-06T10:44:35.000Z</time>
      </trkpt>
      <trkpt lat="41.794343" lon="22.986553">
        <ele>1294.2</ele>
        <time>2026-05-06T10:44:36.000Z</time>
      </trkpt>
      <trkpt lat="41.794346" lon="22.986551">
        <ele>1294.2</ele>
        <time>2026-05-06T10:44:37.000Z</time>
      </trkpt>
      <trkpt lat="41.794348" lon="22.986549">
        <ele>1295.1</ele>
        <time>2026-05-06T10:44:38.000Z</time>
      </trkpt>
      <trkpt lat="41.79435" lon="22.986544">
        <ele>1295.1</ele>
        <time>2026-05-06T10:44:39.000Z</time>
      </trkpt>
      <trkpt lat="41.794352" lon="22.986541">
        <ele>1295.1</ele>
        <time>2026-05-06T10:44:40.000Z</time>
      </trkpt>
      <trkpt lat="41.794354" lon="22.986536">
        <ele>1295.1</ele>
        <time>2026-05-06T10:44:41.000Z</time>
      </trkpt>
      <trkpt lat="41.794357" lon="22.986533">
        <ele>1295.1</ele>
        <time>2026-05-06T10:44:42.000Z</time>
      </trkpt>
      <trkpt lat="41.794361" lon="22.986529">
        <ele>1296.2</ele>
        <time>2026-05-06T10:44:43.000Z</time>
      </trkpt>
      <trkpt lat="41.794366" lon="22.986526">
        <ele>1296.2</ele>
        <time>2026-05-06T10:44:44.000Z</time>
      </trkpt>
      <trkpt lat="41.794371" lon="22.986522">
        <ele>1296.2</ele>
        <time>2026-05-06T10:44:45.000Z</time>
      </trkpt>
      <trkpt lat="41.794377" lon="22.986519">
        <ele>1296.2</ele>
        <time>2026-05-06T10:44:46.000Z</time>
      </trkpt>
      <trkpt lat="41.794382" lon="22.986516">
        <ele>1296.2</ele>
        <time>2026-05-06T10:44:47.000Z</time>
      </trkpt>
      <trkpt lat="41.794387" lon="22.986514">
        <ele>1296.7</ele>
        <time>2026-05-06T10:44:48.000Z</time>
      </trkpt>
      <trkpt lat="41.794392" lon="22.986513">
        <ele>1296.7</ele>
        <time>2026-05-06T10:44:49.000Z</time>
      </trkpt>
      <trkpt lat="41.794396" lon="22.986511">
        <ele>1296.7</ele>
        <time>2026-05-06T10:44:50.000Z</time>
      </trkpt>
      <trkpt lat="41.794399" lon="22.98651">
        <ele>1296.7</ele>
        <time>2026-05-06T10:44:51.000Z</time>
      </trkpt>
      <trkpt lat="41.794402" lon="22.986506">
        <ele>1296.7</ele>
        <time>2026-05-06T10:44:52.000Z</time>
      </trkpt>
      <trkpt lat="41.794404" lon="22.986504">
        <ele>1297.7</ele>
        <time>2026-05-06T10:44:53.000Z</time>
      </trkpt>
      <trkpt lat="41.794407" lon="22.986499">
        <ele>1297.7</ele>
        <time>2026-05-06T10:44:54.000Z</time>
      </trkpt>
      <trkpt lat="41.794408" lon="22.986495">
        <ele>1297.7</ele>
        <time>2026-05-06T10:44:55.000Z</time>
      </trkpt>
      <trkpt lat="41.79441" lon="22.98649">
        <ele>1297.7</ele>
        <time>2026-05-06T10:44:56.000Z</time>
      </trkpt>
      <trkpt lat="41.794412" lon="22.986486">
        <ele>1297.7</ele>
        <time>2026-05-06T10:44:57.000Z</time>
      </trkpt>
      <trkpt lat="41.794414" lon="22.986481">
        <ele>1298.7</ele>
        <time>2026-05-06T10:44:58.000Z</time>
      </trkpt>
      <trkpt lat="41.794416" lon="22.986477">
        <ele>1298.7</ele>
        <time>2026-05-06T10:44:59.000Z</time>
      </trkpt>
      <trkpt lat="41.794419" lon="22.986471">
        <ele>1298.7</ele>
        <time>2026-05-06T10:45:00.000Z</time>
      </trkpt>
      <trkpt lat="41.794422" lon="22.986466">
        <ele>1298.7</ele>
        <time>2026-05-06T10:45:01.000Z</time>
      </trkpt>
      <trkpt lat="41.794424" lon="22.98646">
        <ele>1298.7</ele>
        <time>2026-05-06T10:45:02.000Z</time>
      </trkpt>
      <trkpt lat="41.794425" lon="22.986456">
        <ele>1299.1</ele>
        <time>2026-05-06T10:45:03.000Z</time>
      </trkpt>
      <trkpt lat="41.794427" lon="22.986451">
        <ele>1299.1</ele>
        <time>2026-05-06T10:45:04.000Z</time>
      </trkpt>
      <trkpt lat="41.794427" lon="22.986446">
        <ele>1299.1</ele>
        <time>2026-05-06T10:45:05.000Z</time>
      </trkpt>
      <trkpt lat="41.794428" lon="22.986443">
        <ele>1299.1</ele>
        <time>2026-05-06T10:45:06.000Z</time>
      </trkpt>
      <trkpt lat="41.79443" lon="22.986441">
        <ele>1299.1</ele>
        <time>2026-05-06T10:45:07.000Z</time>
      </trkpt>
      <trkpt lat="41.794431" lon="22.98644">
        <ele>1300</ele>
        <time>2026-05-06T10:45:08.000Z</time>
      </trkpt>
      <trkpt lat="41.794433" lon="22.986439">
        <ele>1300</ele>
        <time>2026-05-06T10:45:09.000Z</time>
      </trkpt>
      <trkpt lat="41.794434" lon="22.986439">
        <ele>1300</ele>
        <time>2026-05-06T10:45:10.000Z</time>
      </trkpt>
      <trkpt lat="41.794434" lon="22.986437">
        <ele>1300</ele>
        <time>2026-05-06T10:45:11.000Z</time>
      </trkpt>
      <trkpt lat="41.794432" lon="22.986434">
        <ele>1300</ele>
        <time>2026-05-06T10:45:12.000Z</time>
      </trkpt>
      <trkpt lat="41.79443" lon="22.986429">
        <ele>1300.9</ele>
        <time>2026-05-06T10:45:13.000Z</time>
      </trkpt>
      <trkpt lat="41.794428" lon="22.986425">
        <ele>1300.9</ele>
        <time>2026-05-06T10:45:14.000Z</time>
      </trkpt>
      <trkpt lat="41.794427" lon="22.98642">
        <ele>1300.9</ele>
        <time>2026-05-06T10:45:15.000Z</time>
      </trkpt>
      <trkpt lat="41.794428" lon="22.986415">
        <ele>1300.9</ele>
        <time>2026-05-06T10:45:16.000Z</time>
      </trkpt>
      <trkpt lat="41.794431" lon="22.986411">
        <ele>1300.9</ele>
        <time>2026-05-06T10:45:17.000Z</time>
      </trkpt>
      <trkpt lat="41.794433" lon="22.986407">
        <ele>1301.4</ele>
        <time>2026-05-06T10:45:18.000Z</time>
      </trkpt>
      <trkpt lat="41.794436" lon="22.986404">
        <ele>1301.4</ele>
        <time>2026-05-06T10:45:19.000Z</time>
      </trkpt>
      <trkpt lat="41.794441" lon="22.986399">
        <ele>1301.4</ele>
        <time>2026-05-06T10:45:20.000Z</time>
      </trkpt>
      <trkpt lat="41.794444" lon="22.986395">
        <ele>1301.4</ele>
        <time>2026-05-06T10:45:21.000Z</time>
      </trkpt>
      <trkpt lat="41.794447" lon="22.98639">
        <ele>1301.4</ele>
        <time>2026-05-06T10:45:22.000Z</time>
      </trkpt>
      <trkpt lat="41.794451" lon="22.986385">
        <ele>1302.1</ele>
        <time>2026-05-06T10:45:23.000Z</time>
      </trkpt>
      <trkpt lat="41.794453" lon="22.986379">
        <ele>1302.1</ele>
        <time>2026-05-06T10:45:24.000Z</time>
      </trkpt>
      <trkpt lat="41.794455" lon="22.986375">
        <ele>1302.1</ele>
        <time>2026-05-06T10:45:25.000Z</time>
      </trkpt>
      <trkpt lat="41.794457" lon="22.986371">
        <ele>1302.1</ele>
        <time>2026-05-06T10:45:26.000Z</time>
      </trkpt>
      <trkpt lat="41.794461" lon="22.98637">
        <ele>1302.1</ele>
        <time>2026-05-06T10:45:27.000Z</time>
      </trkpt>
      <trkpt lat="41.794464" lon="22.98637">
        <ele>1302.8</ele>
        <time>2026-05-06T10:45:28.000Z</time>
      </trkpt>
      <trkpt lat="41.794468" lon="22.98637">
        <ele>1302.8</ele>
        <time>2026-05-06T10:45:29.000Z</time>
      </trkpt>
      <trkpt lat="41.794471" lon="22.986371">
        <ele>1302.8</ele>
        <time>2026-05-06T10:45:30.000Z</time>
      </trkpt>
      <trkpt lat="41.794474" lon="22.986371">
        <ele>1302.8</ele>
        <time>2026-05-06T10:45:31.000Z</time>
      </trkpt>
      <trkpt lat="41.794477" lon="22.986372">
        <ele>1302.8</ele>
        <time>2026-05-06T10:45:32.000Z</time>
      </trkpt>
      <trkpt lat="41.79448" lon="22.986371">
        <ele>1303.2</ele>
        <time>2026-05-06T10:45:33.000Z</time>
      </trkpt>
      <trkpt lat="41.794483" lon="22.98637">
        <ele>1303.2</ele>
        <time>2026-05-06T10:45:34.000Z</time>
      </trkpt>
      <trkpt lat="41.794487" lon="22.986368">
        <ele>1303.2</ele>
        <time>2026-05-06T10:45:35.000Z</time>
      </trkpt>
      <trkpt lat="41.794492" lon="22.986365">
        <ele>1303.2</ele>
        <time>2026-05-06T10:45:36.000Z</time>
      </trkpt>
      <trkpt lat="41.794495" lon="22.986363">
        <ele>1303.2</ele>
        <time>2026-05-06T10:45:37.000Z</time>
      </trkpt>
      <trkpt lat="41.794498" lon="22.986361">
        <ele>1304.1</ele>
        <time>2026-05-06T10:45:38.000Z</time>
      </trkpt>
      <trkpt lat="41.7945" lon="22.986358">
        <ele>1304.1</ele>
        <time>2026-05-06T10:45:39.000Z</time>
      </trkpt>
      <trkpt lat="41.794501" lon="22.986356">
        <ele>1304.1</ele>
        <time>2026-05-06T10:45:40.000Z</time>
      </trkpt>
      <trkpt lat="41.7945" lon="22.986354">
        <ele>1304.1</ele>
        <time>2026-05-06T10:45:41.000Z</time>
      </trkpt>
      <trkpt lat="41.7945" lon="22.986351">
        <ele>1304.1</ele>
        <time>2026-05-06T10:45:42.000Z</time>
      </trkpt>
      <trkpt lat="41.794499" lon="22.98635">
        <ele>1304.8</ele>
        <time>2026-05-06T10:45:43.000Z</time>
      </trkpt>
      <trkpt lat="41.794499" lon="22.986349">
        <ele>1304.8</ele>
        <time>2026-05-06T10:45:44.000Z</time>
      </trkpt>
      <trkpt lat="41.794499" lon="22.986347">
        <ele>1304.8</ele>
        <time>2026-05-06T10:45:45.000Z</time>
      </trkpt>
      <trkpt lat="41.794499" lon="22.986343">
        <ele>1304.8</ele>
        <time>2026-05-06T10:45:46.000Z</time>
      </trkpt>
      <trkpt lat="41.7945" lon="22.986338">
        <ele>1304.8</ele>
        <time>2026-05-06T10:45:47.000Z</time>
      </trkpt>
      <trkpt lat="41.794502" lon="22.986331">
        <ele>1305.2</ele>
        <time>2026-05-06T10:45:48.000Z</time>
      </trkpt>
      <trkpt lat="41.794504" lon="22.986324">
        <ele>1305.2</ele>
        <time>2026-05-06T10:45:49.000Z</time>
      </trkpt>
      <trkpt lat="41.794508" lon="22.986317">
        <ele>1305.2</ele>
        <time>2026-05-06T10:45:50.000Z</time>
      </trkpt>
      <trkpt lat="41.794512" lon="22.98631">
        <ele>1305.2</ele>
        <time>2026-05-06T10:45:51.000Z</time>
      </trkpt>
      <trkpt lat="41.794516" lon="22.986304">
        <ele>1305.2</ele>
        <time>2026-05-06T10:45:52.000Z</time>
      </trkpt>
      <trkpt lat="41.794518" lon="22.986297">
        <ele>1306</ele>
        <time>2026-05-06T10:45:53.000Z</time>
      </trkpt>
      <trkpt lat="41.79452" lon="22.986291">
        <ele>1306</ele>
        <time>2026-05-06T10:45:54.000Z</time>
      </trkpt>
      <trkpt lat="41.79452" lon="22.986285">
        <ele>1306</ele>
        <time>2026-05-06T10:45:55.000Z</time>
      </trkpt>
      <trkpt lat="41.794519" lon="22.986279">
        <ele>1306</ele>
        <time>2026-05-06T10:45:56.000Z</time>
      </trkpt>
      <trkpt lat="41.794519" lon="22.986275">
        <ele>1306</ele>
        <time>2026-05-06T10:45:57.000Z</time>
      </trkpt>
      <trkpt lat="41.794518" lon="22.986272">
        <ele>1307</ele>
        <time>2026-05-06T10:45:58.000Z</time>
      </trkpt>
      <trkpt lat="41.794518" lon="22.986271">
        <ele>1307</ele>
        <time>2026-05-06T10:45:59.000Z</time>
      </trkpt>
      <trkpt lat="41.794519" lon="22.986272">
        <ele>1307</ele>
        <time>2026-05-06T10:46:00.000Z</time>
      </trkpt>
      <trkpt lat="41.79452" lon="22.986273">
        <ele>1307</ele>
        <time>2026-05-06T10:46:01.000Z</time>
      </trkpt>
      <trkpt lat="41.794521" lon="22.986275">
        <ele>1307</ele>
        <time>2026-05-06T10:46:02.000Z</time>
      </trkpt>
      <trkpt lat="41.794523" lon="22.986278">
        <ele>1307.5</ele>
        <time>2026-05-06T10:46:03.000Z</time>
      </trkpt>
      <trkpt lat="41.794525" lon="22.986282">
        <ele>1307.5</ele>
        <time>2026-05-06T10:46:04.000Z</time>
      </trkpt>
      <trkpt lat="41.794526" lon="22.986286">
        <ele>1307.5</ele>
        <time>2026-05-06T10:46:05.000Z</time>
      </trkpt>
      <trkpt lat="41.794526" lon="22.98629">
        <ele>1307.5</ele>
        <time>2026-05-06T10:46:06.000Z</time>
      </trkpt>
      <trkpt lat="41.794526" lon="22.986292">
        <ele>1307.5</ele>
        <time>2026-05-06T10:46:07.000Z</time>
      </trkpt>
      <trkpt lat="41.794525" lon="22.986293">
        <ele>1308.3</ele>
        <time>2026-05-06T10:46:08.000Z</time>
      </trkpt>
      <trkpt lat="41.794523" lon="22.986291">
        <ele>1308.3</ele>
        <time>2026-05-06T10:46:09.000Z</time>
      </trkpt>
      <trkpt lat="41.794522" lon="22.986289">
        <ele>1308.3</ele>
        <time>2026-05-06T10:46:10.000Z</time>
      </trkpt>
      <trkpt lat="41.794521" lon="22.986285">
        <ele>1308.3</ele>
        <time>2026-05-06T10:46:11.000Z</time>
      </trkpt>
      <trkpt lat="41.79452" lon="22.986281">
        <ele>1308.3</ele>
        <time>2026-05-06T10:46:12.000Z</time>
      </trkpt>
      <trkpt lat="41.794518" lon="22.986277">
        <ele>1308.6</ele>
        <time>2026-05-06T10:46:13.000Z</time>
      </trkpt>
      <trkpt lat="41.794515" lon="22.986273">
        <ele>1308.6</ele>
        <time>2026-05-06T10:46:14.000Z</time>
      </trkpt>
      <trkpt lat="41.794512" lon="22.986269">
        <ele>1308.6</ele>
        <time>2026-05-06T10:46:15.000Z</time>
      </trkpt>
      <trkpt lat="41.794509" lon="22.986264">
        <ele>1308.6</ele>
        <time>2026-05-06T10:46:16.000Z</time>
      </trkpt>
      <trkpt lat="41.794506" lon="22.986257">
        <ele>1308.6</ele>
        <time>2026-05-06T10:46:17.000Z</time>
      </trkpt>
      <trkpt lat="41.794506" lon="22.986251">
        <ele>1308.6</ele>
        <time>2026-05-06T10:46:18.000Z</time>
      </trkpt>
      <trkpt lat="41.794506" lon="22.986246">
        <ele>1308.6</ele>
        <time>2026-05-06T10:46:19.000Z</time>
      </trkpt>
      <trkpt lat="41.794507" lon="22.98624">
        <ele>1308.6</ele>
        <time>2026-05-06T10:46:20.000Z</time>
      </trkpt>
      <trkpt lat="41.79451" lon="22.986235">
        <ele>1308.6</ele>
        <time>2026-05-06T10:46:21.000Z</time>
      </trkpt>
      <trkpt lat="41.794513" lon="22.98623">
        <ele>1308.6</ele>
        <time>2026-05-06T10:46:22.000Z</time>
      </trkpt>
      <trkpt lat="41.794516" lon="22.986227">
        <ele>1308.9</ele>
        <time>2026-05-06T10:46:23.000Z</time>
      </trkpt>
      <trkpt lat="41.79452" lon="22.986223">
        <ele>1308.9</ele>
        <time>2026-05-06T10:46:24.000Z</time>
      </trkpt>
      <trkpt lat="41.794523" lon="22.986219">
        <ele>1308.9</ele>
        <time>2026-05-06T10:46:25.000Z</time>
      </trkpt>
      <trkpt lat="41.794526" lon="22.986215">
        <ele>1308.9</ele>
        <time>2026-05-06T10:46:26.000Z</time>
      </trkpt>
      <trkpt lat="41.794528" lon="22.986211">
        <ele>1308.9</ele>
        <time>2026-05-06T10:46:27.000Z</time>
      </trkpt>
      <trkpt lat="41.79453" lon="22.986206">
        <ele>1309.5</ele>
        <time>2026-05-06T10:46:28.000Z</time>
      </trkpt>
      <trkpt lat="41.794531" lon="22.986201">
        <ele>1309.5</ele>
        <time>2026-05-06T10:46:29.000Z</time>
      </trkpt>
      <trkpt lat="41.794533" lon="22.986195">
        <ele>1309.5</ele>
        <time>2026-05-06T10:46:30.000Z</time>
      </trkpt>
      <trkpt lat="41.794536" lon="22.98619">
        <ele>1309.5</ele>
        <time>2026-05-06T10:46:31.000Z</time>
      </trkpt>
      <trkpt lat="41.794538" lon="22.986185">
        <ele>1309.5</ele>
        <time>2026-05-06T10:46:32.000Z</time>
      </trkpt>
      <trkpt lat="41.794541" lon="22.986182">
        <ele>1309.9</ele>
        <time>2026-05-06T10:46:33.000Z</time>
      </trkpt>
      <trkpt lat="41.794543" lon="22.986179">
        <ele>1309.9</ele>
        <time>2026-05-06T10:46:34.000Z</time>
      </trkpt>
      <trkpt lat="41.794546" lon="22.986176">
        <ele>1309.9</ele>
        <time>2026-05-06T10:46:35.000Z</time>
      </trkpt>
      <trkpt lat="41.794548" lon="22.986173">
        <ele>1309.9</ele>
        <time>2026-05-06T10:46:36.000Z</time>
      </trkpt>
      <trkpt lat="41.79455" lon="22.98617">
        <ele>1309.9</ele>
        <time>2026-05-06T10:46:37.000Z</time>
      </trkpt>
      <trkpt lat="41.794552" lon="22.986165">
        <ele>1310.8</ele>
        <time>2026-05-06T10:46:38.000Z</time>
      </trkpt>
      <trkpt lat="41.794554" lon="22.986161">
        <ele>1310.8</ele>
        <time>2026-05-06T10:46:39.000Z</time>
      </trkpt>
      <trkpt lat="41.794555" lon="22.986156">
        <ele>1310.8</ele>
        <time>2026-05-06T10:46:40.000Z</time>
      </trkpt>
      <trkpt lat="41.794556" lon="22.98615">
        <ele>1310.8</ele>
        <time>2026-05-06T10:46:41.000Z</time>
      </trkpt>
      <trkpt lat="41.794557" lon="22.986144">
        <ele>1310.8</ele>
        <time>2026-05-06T10:46:42.000Z</time>
      </trkpt>
      <trkpt lat="41.794558" lon="22.986139">
        <ele>1311.8</ele>
        <time>2026-05-06T10:46:43.000Z</time>
      </trkpt>
      <trkpt lat="41.79456" lon="22.986134">
        <ele>1311.8</ele>
        <time>2026-05-06T10:46:44.000Z</time>
      </trkpt>
      <trkpt lat="41.794563" lon="22.986128">
        <ele>1311.8</ele>
        <time>2026-05-06T10:46:45.000Z</time>
      </trkpt>
      <trkpt lat="41.794567" lon="22.986126">
        <ele>1311.8</ele>
        <time>2026-05-06T10:46:46.000Z</time>
      </trkpt>
      <trkpt lat="41.794572" lon="22.986123">
        <ele>1311.8</ele>
        <time>2026-05-06T10:46:47.000Z</time>
      </trkpt>
      <trkpt lat="41.794576" lon="22.986122">
        <ele>1312.3</ele>
        <time>2026-05-06T10:46:48.000Z</time>
      </trkpt>
      <trkpt lat="41.79458" lon="22.986119">
        <ele>1312.3</ele>
        <time>2026-05-06T10:46:49.000Z</time>
      </trkpt>
      <trkpt lat="41.794584" lon="22.986117">
        <ele>1312.3</ele>
        <time>2026-05-06T10:46:50.000Z</time>
      </trkpt>
      <trkpt lat="41.794587" lon="22.986113">
        <ele>1312.3</ele>
        <time>2026-05-06T10:46:51.000Z</time>
      </trkpt>
      <trkpt lat="41.79459" lon="22.986109">
        <ele>1312.3</ele>
        <time>2026-05-06T10:46:52.000Z</time>
      </trkpt>
      <trkpt lat="41.794593" lon="22.986104">
        <ele>1313.2</ele>
        <time>2026-05-06T10:46:53.000Z</time>
      </trkpt>
      <trkpt lat="41.794597" lon="22.9861">
        <ele>1313.2</ele>
        <time>2026-05-06T10:46:54.000Z</time>
      </trkpt>
      <trkpt lat="41.7946" lon="22.986097">
        <ele>1313.2</ele>
        <time>2026-05-06T10:46:55.000Z</time>
      </trkpt>
      <trkpt lat="41.794602" lon="22.986094">
        <ele>1313.2</ele>
        <time>2026-05-06T10:46:56.000Z</time>
      </trkpt>
      <trkpt lat="41.794603" lon="22.986091">
        <ele>1313.2</ele>
        <time>2026-05-06T10:46:57.000Z</time>
      </trkpt>
      <trkpt lat="41.794605" lon="22.986089">
        <ele>1314</ele>
        <time>2026-05-06T10:46:58.000Z</time>
      </trkpt>
      <trkpt lat="41.794606" lon="22.986087">
        <ele>1314</ele>
        <time>2026-05-06T10:46:59.000Z</time>
      </trkpt>
      <trkpt lat="41.794607" lon="22.986086">
        <ele>1314</ele>
        <time>2026-05-06T10:47:00.000Z</time>
      </trkpt>
      <trkpt lat="41.794608" lon="22.986085">
        <ele>1314</ele>
        <time>2026-05-06T10:47:01.000Z</time>
      </trkpt>
      <trkpt lat="41.794609" lon="22.986085">
        <ele>1314</ele>
        <time>2026-05-06T10:47:02.000Z</time>
      </trkpt>
      <trkpt lat="41.794611" lon="22.986084">
        <ele>1314.4</ele>
        <time>2026-05-06T10:47:03.000Z</time>
      </trkpt>
      <trkpt lat="41.794612" lon="22.986082">
        <ele>1314.4</ele>
        <time>2026-05-06T10:47:04.000Z</time>
      </trkpt>
      <trkpt lat="41.794613" lon="22.986078">
        <ele>1314.4</ele>
        <time>2026-05-06T10:47:05.000Z</time>
      </trkpt>
      <trkpt lat="41.794615" lon="22.986074">
        <ele>1314.4</ele>
        <time>2026-05-06T10:47:06.000Z</time>
      </trkpt>
      <trkpt lat="41.794616" lon="22.98607">
        <ele>1314.4</ele>
        <time>2026-05-06T10:47:07.000Z</time>
      </trkpt>
      <trkpt lat="41.794617" lon="22.986067">
        <ele>1315.2</ele>
        <time>2026-05-06T10:47:08.000Z</time>
      </trkpt>
      <trkpt lat="41.794618" lon="22.986063">
        <ele>1315.2</ele>
        <time>2026-05-06T10:47:09.000Z</time>
      </trkpt>
      <trkpt lat="41.794618" lon="22.986061">
        <ele>1315.2</ele>
        <time>2026-05-06T10:47:10.000Z</time>
      </trkpt>
      <trkpt lat="41.794618" lon="22.986058">
        <ele>1315.2</ele>
        <time>2026-05-06T10:47:11.000Z</time>
      </trkpt>
      <trkpt lat="41.794617" lon="22.986055">
        <ele>1315.2</ele>
        <time>2026-05-06T10:47:12.000Z</time>
      </trkpt>
      <trkpt lat="41.794613" lon="22.986051">
        <ele>1316</ele>
        <time>2026-05-06T10:47:13.000Z</time>
      </trkpt>
      <trkpt lat="41.794609" lon="22.986047">
        <ele>1316</ele>
        <time>2026-05-06T10:47:14.000Z</time>
      </trkpt>
      <trkpt lat="41.794605" lon="22.986041">
        <ele>1316</ele>
        <time>2026-05-06T10:47:15.000Z</time>
      </trkpt>
      <trkpt lat="41.794602" lon="22.986035">
        <ele>1316</ele>
        <time>2026-05-06T10:47:16.000Z</time>
      </trkpt>
      <trkpt lat="41.794601" lon="22.986027">
        <ele>1316</ele>
        <time>2026-05-06T10:47:17.000Z</time>
      </trkpt>
      <trkpt lat="41.794602" lon="22.986021">
        <ele>1316.4</ele>
        <time>2026-05-06T10:47:18.000Z</time>
      </trkpt>
      <trkpt lat="41.794604" lon="22.986014">
        <ele>1316.4</ele>
        <time>2026-05-06T10:47:19.000Z</time>
      </trkpt>
      <trkpt lat="41.794606" lon="22.986008">
        <ele>1316.4</ele>
        <time>2026-05-06T10:47:20.000Z</time>
      </trkpt>
      <trkpt lat="41.794609" lon="22.986002">
        <ele>1316.4</ele>
        <time>2026-05-06T10:47:21.000Z</time>
      </trkpt>
      <trkpt lat="41.794611" lon="22.985997">
        <ele>1316.4</ele>
        <time>2026-05-06T10:47:22.000Z</time>
      </trkpt>
      <trkpt lat="41.794613" lon="22.985991">
        <ele>1317.3</ele>
        <time>2026-05-06T10:47:23.000Z</time>
      </trkpt>
      <trkpt lat="41.794616" lon="22.985987">
        <ele>1317.3</ele>
        <time>2026-05-06T10:47:24.000Z</time>
      </trkpt>
      <trkpt lat="41.794617" lon="22.985982">
        <ele>1317.3</ele>
        <time>2026-05-06T10:47:25.000Z</time>
      </trkpt>
      <trkpt lat="41.794619" lon="22.985978">
        <ele>1317.3</ele>
        <time>2026-05-06T10:47:26.000Z</time>
      </trkpt>
      <trkpt lat="41.794622" lon="22.985973">
        <ele>1317.3</ele>
        <time>2026-05-06T10:47:27.000Z</time>
      </trkpt>
      <trkpt lat="41.794625" lon="22.98597">
        <ele>1318.4</ele>
        <time>2026-05-06T10:47:28.000Z</time>
      </trkpt>
      <trkpt lat="41.794626" lon="22.985968">
        <ele>1318.4</ele>
        <time>2026-05-06T10:47:29.000Z</time>
      </trkpt>
      <trkpt lat="41.794627" lon="22.985966">
        <ele>1318.4</ele>
        <time>2026-05-06T10:47:30.000Z</time>
      </trkpt>
      <trkpt lat="41.794627" lon="22.985965">
        <ele>1318.4</ele>
        <time>2026-05-06T10:47:31.000Z</time>
      </trkpt>
      <trkpt lat="41.794627" lon="22.985964">
        <ele>1318.4</ele>
        <time>2026-05-06T10:47:32.000Z</time>
      </trkpt>
      <trkpt lat="41.794627" lon="22.985965">
        <ele>1318.9</ele>
        <time>2026-05-06T10:47:33.000Z</time>
      </trkpt>
      <trkpt lat="41.794628" lon="22.985964">
        <ele>1318.9</ele>
        <time>2026-05-06T10:47:34.000Z</time>
      </trkpt>
      <trkpt lat="41.794628" lon="22.985963">
        <ele>1318.9</ele>
        <time>2026-05-06T10:47:35.000Z</time>
      </trkpt>
      <trkpt lat="41.794628" lon="22.985962">
        <ele>1318.9</ele>
        <time>2026-05-06T10:47:36.000Z</time>
      </trkpt>
      <trkpt lat="41.794629" lon="22.98596">
        <ele>1318.9</ele>
        <time>2026-05-06T10:47:37.000Z</time>
      </trkpt>
      <trkpt lat="41.79463" lon="22.985957">
        <ele>1319.8</ele>
        <time>2026-05-06T10:47:38.000Z</time>
      </trkpt>
      <trkpt lat="41.794631" lon="22.985953">
        <ele>1319.8</ele>
        <time>2026-05-06T10:47:39.000Z</time>
      </trkpt>
      <trkpt lat="41.794634" lon="22.98595">
        <ele>1319.8</ele>
        <time>2026-05-06T10:47:40.000Z</time>
      </trkpt>
      <trkpt lat="41.794637" lon="22.985945">
        <ele>1319.8</ele>
        <time>2026-05-06T10:47:41.000Z</time>
      </trkpt>
      <trkpt lat="41.794641" lon="22.985941">
        <ele>1319.8</ele>
        <time>2026-05-06T10:47:42.000Z</time>
      </trkpt>
      <trkpt lat="41.794644" lon="22.985936">
        <ele>1320.4</ele>
        <time>2026-05-06T10:47:43.000Z</time>
      </trkpt>
      <trkpt lat="41.794647" lon="22.985931">
        <ele>1320.4</ele>
        <time>2026-05-06T10:47:44.000Z</time>
      </trkpt>
      <trkpt lat="41.79465" lon="22.985926">
        <ele>1320.4</ele>
        <time>2026-05-06T10:47:45.000Z</time>
      </trkpt>
      <trkpt lat="41.794653" lon="22.985921">
        <ele>1320.4</ele>
        <time>2026-05-06T10:47:46.000Z</time>
      </trkpt>
      <trkpt lat="41.794656" lon="22.985917">
        <ele>1320.4</ele>
        <time>2026-05-06T10:47:47.000Z</time>
      </trkpt>
      <trkpt lat="41.794659" lon="22.985912">
        <ele>1320.6</ele>
        <time>2026-05-06T10:47:48.000Z</time>
      </trkpt>
      <trkpt lat="41.794661" lon="22.985908">
        <ele>1320.6</ele>
        <time>2026-05-06T10:47:49.000Z</time>
      </trkpt>
      <trkpt lat="41.794663" lon="22.985904">
        <ele>1320.6</ele>
        <time>2026-05-06T10:47:50.000Z</time>
      </trkpt>
      <trkpt lat="41.794665" lon="22.9859">
        <ele>1320.6</ele>
        <time>2026-05-06T10:47:51.000Z</time>
      </trkpt>
      <trkpt lat="41.794667" lon="22.985895">
        <ele>1320.6</ele>
        <time>2026-05-06T10:47:52.000Z</time>
      </trkpt>
      <trkpt lat="41.794668" lon="22.98589">
        <ele>1320.9</ele>
        <time>2026-05-06T10:47:53.000Z</time>
      </trkpt>
      <trkpt lat="41.794668" lon="22.985884">
        <ele>1320.9</ele>
        <time>2026-05-06T10:47:54.000Z</time>
      </trkpt>
      <trkpt lat="41.794668" lon="22.985878">
        <ele>1320.9</ele>
        <time>2026-05-06T10:47:55.000Z</time>
      </trkpt>
      <trkpt lat="41.794667" lon="22.985873">
        <ele>1320.9</ele>
        <time>2026-05-06T10:47:56.000Z</time>
      </trkpt>
      <trkpt lat="41.794666" lon="22.985869">
        <ele>1320.9</ele>
        <time>2026-05-06T10:47:57.000Z</time>
      </trkpt>
      <trkpt lat="41.794665" lon="22.985866">
        <ele>1321.5</ele>
        <time>2026-05-06T10:47:58.000Z</time>
      </trkpt>
      <trkpt lat="41.794665" lon="22.985864">
        <ele>1321.5</ele>
        <time>2026-05-06T10:47:59.000Z</time>
      </trkpt>
      <trkpt lat="41.794663" lon="22.985864">
        <ele>1321.5</ele>
        <time>2026-05-06T10:48:00.000Z</time>
      </trkpt>
      <trkpt lat="41.794662" lon="22.985864">
        <ele>1321.5</ele>
        <time>2026-05-06T10:48:01.000Z</time>
      </trkpt>
      <trkpt lat="41.794662" lon="22.985864">
        <ele>1321.5</ele>
        <time>2026-05-06T10:48:02.000Z</time>
      </trkpt>
      <trkpt lat="41.794661" lon="22.985866">
        <ele>1321.8</ele>
        <time>2026-05-06T10:48:03.000Z</time>
      </trkpt>
      <trkpt lat="41.79466" lon="22.985868">
        <ele>1321.8</ele>
        <time>2026-05-06T10:48:04.000Z</time>
      </trkpt>
      <trkpt lat="41.794661" lon="22.985869">
        <ele>1321.8</ele>
        <time>2026-05-06T10:48:05.000Z</time>
      </trkpt>
      <trkpt lat="41.794661" lon="22.98587">
        <ele>1321.8</ele>
        <time>2026-05-06T10:48:06.000Z</time>
      </trkpt>
      <trkpt lat="41.794661" lon="22.985872">
        <ele>1321.8</ele>
        <time>2026-05-06T10:48:07.000Z</time>
      </trkpt>
      <trkpt lat="41.794661" lon="22.985871">
        <ele>1322.5</ele>
        <time>2026-05-06T10:48:08.000Z</time>
      </trkpt>
      <trkpt lat="41.794662" lon="22.98587">
        <ele>1322.5</ele>
        <time>2026-05-06T10:48:09.000Z</time>
      </trkpt>
      <trkpt lat="41.794664" lon="22.985868">
        <ele>1322.5</ele>
        <time>2026-05-06T10:48:10.000Z</time>
      </trkpt>
      <trkpt lat="41.794666" lon="22.985866">
        <ele>1322.5</ele>
        <time>2026-05-06T10:48:11.000Z</time>
      </trkpt>
      <trkpt lat="41.794666" lon="22.985864">
        <ele>1322.5</ele>
        <time>2026-05-06T10:48:12.000Z</time>
      </trkpt>
      <trkpt lat="41.794667" lon="22.985862">
        <ele>1322.8</ele>
        <time>2026-05-06T10:48:13.000Z</time>
      </trkpt>
      <trkpt lat="41.794665" lon="22.985861">
        <ele>1322.8</ele>
        <time>2026-05-06T10:48:14.000Z</time>
      </trkpt>
      <trkpt lat="41.794663" lon="22.98586">
        <ele>1322.8</ele>
        <time>2026-05-06T10:48:15.000Z</time>
      </trkpt>
      <trkpt lat="41.794662" lon="22.985858">
        <ele>1322.8</ele>
        <time>2026-05-06T10:48:16.000Z</time>
      </trkpt>
      <trkpt lat="41.794662" lon="22.985857">
        <ele>1322.8</ele>
        <time>2026-05-06T10:48:17.000Z</time>
      </trkpt>
      <trkpt lat="41.79466" lon="22.985855">
        <ele>1322.9</ele>
        <time>2026-05-06T10:48:18.000Z</time>
      </trkpt>
      <trkpt lat="41.794659" lon="22.985853">
        <ele>1322.9</ele>
        <time>2026-05-06T10:48:19.000Z</time>
      </trkpt>
      <trkpt lat="41.794658" lon="22.98585">
        <ele>1322.9</ele>
        <time>2026-05-06T10:48:20.000Z</time>
      </trkpt>
      <trkpt lat="41.794658" lon="22.985846">
        <ele>1322.9</ele>
        <time>2026-05-06T10:48:21.000Z</time>
      </trkpt>
      <trkpt lat="41.794659" lon="22.98584">
        <ele>1322.9</ele>
        <time>2026-05-06T10:48:22.000Z</time>
      </trkpt>
      <trkpt lat="41.79466" lon="22.985834">
        <ele>1323.3</ele>
        <time>2026-05-06T10:48:23.000Z</time>
      </trkpt>
      <trkpt lat="41.794662" lon="22.985829">
        <ele>1323.3</ele>
        <time>2026-05-06T10:48:24.000Z</time>
      </trkpt>
      <trkpt lat="41.794664" lon="22.985824">
        <ele>1323.3</ele>
        <time>2026-05-06T10:48:25.000Z</time>
      </trkpt>
      <trkpt lat="41.794665" lon="22.98582">
        <ele>1323.3</ele>
        <time>2026-05-06T10:48:26.000Z</time>
      </trkpt>
      <trkpt lat="41.794666" lon="22.985817">
        <ele>1323.3</ele>
        <time>2026-05-06T10:48:27.000Z</time>
      </trkpt>
      <trkpt lat="41.794666" lon="22.985816">
        <ele>1324.2</ele>
        <time>2026-05-06T10:48:28.000Z</time>
      </trkpt>
      <trkpt lat="41.794666" lon="22.985815">
        <ele>1324.2</ele>
        <time>2026-05-06T10:48:29.000Z</time>
      </trkpt>
      <trkpt lat="41.794665" lon="22.985814">
        <ele>1324.2</ele>
        <time>2026-05-06T10:48:30.000Z</time>
      </trkpt>
      <trkpt lat="41.794664" lon="22.985812">
        <ele>1324.2</ele>
        <time>2026-05-06T10:48:31.000Z</time>
      </trkpt>
      <trkpt lat="41.794663" lon="22.985809">
        <ele>1324.2</ele>
        <time>2026-05-06T10:48:32.000Z</time>
      </trkpt>
      <trkpt lat="41.794661" lon="22.985804">
        <ele>1324.7</ele>
        <time>2026-05-06T10:48:33.000Z</time>
      </trkpt>
      <trkpt lat="41.79466" lon="22.985798">
        <ele>1324.7</ele>
        <time>2026-05-06T10:48:34.000Z</time>
      </trkpt>
      <trkpt lat="41.794658" lon="22.985791">
        <ele>1324.7</ele>
        <time>2026-05-06T10:48:35.000Z</time>
      </trkpt>
      <trkpt lat="41.794657" lon="22.985784">
        <ele>1324.7</ele>
        <time>2026-05-06T10:48:36.000Z</time>
      </trkpt>
      <trkpt lat="41.794655" lon="22.985778">
        <ele>1324.7</ele>
        <time>2026-05-06T10:48:37.000Z</time>
      </trkpt>
      <trkpt lat="41.794653" lon="22.985773">
        <ele>1325.6</ele>
        <time>2026-05-06T10:48:38.000Z</time>
      </trkpt>
      <trkpt lat="41.79465" lon="22.985768">
        <ele>1325.6</ele>
        <time>2026-05-06T10:48:39.000Z</time>
      </trkpt>
      <trkpt lat="41.794649" lon="22.985764">
        <ele>1325.6</ele>
        <time>2026-05-06T10:48:40.000Z</time>
      </trkpt>
      <trkpt lat="41.794647" lon="22.985761">
        <ele>1325.6</ele>
        <time>2026-05-06T10:48:41.000Z</time>
      </trkpt>
      <trkpt lat="41.794646" lon="22.98576">
        <ele>1325.6</ele>
        <time>2026-05-06T10:48:42.000Z</time>
      </trkpt>
      <trkpt lat="41.794644" lon="22.985759">
        <ele>1326.4</ele>
        <time>2026-05-06T10:48:43.000Z</time>
      </trkpt>
      <trkpt lat="41.794642" lon="22.985759">
        <ele>1326.4</ele>
        <time>2026-05-06T10:48:44.000Z</time>
      </trkpt>
      <trkpt lat="41.79464" lon="22.98576">
        <ele>1326.4</ele>
        <time>2026-05-06T10:48:45.000Z</time>
      </trkpt>
      <trkpt lat="41.794637" lon="22.985762">
        <ele>1326.4</ele>
        <time>2026-05-06T10:48:46.000Z</time>
      </trkpt>
      <trkpt lat="41.794635" lon="22.985763">
        <ele>1326.4</ele>
        <time>2026-05-06T10:48:47.000Z</time>
      </trkpt>
      <trkpt lat="41.794634" lon="22.985764">
        <ele>1326.7</ele>
        <time>2026-05-06T10:48:48.000Z</time>
      </trkpt>
      <trkpt lat="41.794634" lon="22.985764">
        <ele>1326.7</ele>
        <time>2026-05-06T10:48:49.000Z</time>
      </trkpt>
      <trkpt lat="41.794636" lon="22.985763">
        <ele>1326.7</ele>
        <time>2026-05-06T10:48:50.000Z</time>
      </trkpt>
      <trkpt lat="41.794639" lon="22.985761">
        <ele>1326.7</ele>
        <time>2026-05-06T10:48:51.000Z</time>
      </trkpt>
      <trkpt lat="41.794642" lon="22.98576">
        <ele>1326.7</ele>
        <time>2026-05-06T10:48:52.000Z</time>
      </trkpt>
      <trkpt lat="41.794645" lon="22.985758">
        <ele>1327.4</ele>
        <time>2026-05-06T10:48:53.000Z</time>
      </trkpt>
      <trkpt lat="41.794648" lon="22.985756">
        <ele>1327.4</ele>
        <time>2026-05-06T10:48:54.000Z</time>
      </trkpt>
      <trkpt lat="41.79465" lon="22.985755">
        <ele>1327.4</ele>
        <time>2026-05-06T10:48:55.000Z</time>
      </trkpt>
      <trkpt lat="41.794653" lon="22.985754">
        <ele>1327.4</ele>
        <time>2026-05-06T10:48:56.000Z</time>
      </trkpt>
      <trkpt lat="41.794655" lon="22.985754">
        <ele>1327.4</ele>
        <time>2026-05-06T10:48:57.000Z</time>
      </trkpt>
      <trkpt lat="41.794657" lon="22.985754">
        <ele>1327.8</ele>
        <time>2026-05-06T10:48:58.000Z</time>
      </trkpt>
      <trkpt lat="41.794659" lon="22.985754">
        <ele>1327.8</ele>
        <time>2026-05-06T10:48:59.000Z</time>
      </trkpt>
      <trkpt lat="41.79466" lon="22.985754">
        <ele>1327.8</ele>
        <time>2026-05-06T10:49:00.000Z</time>
      </trkpt>
      <trkpt lat="41.79466" lon="22.985755">
        <ele>1327.8</ele>
        <time>2026-05-06T10:49:01.000Z</time>
      </trkpt>
      <trkpt lat="41.79466" lon="22.985755">
        <ele>1327.8</ele>
        <time>2026-05-06T10:49:02.000Z</time>
      </trkpt>
      <trkpt lat="41.794661" lon="22.985756">
        <ele>1327.8</ele>
        <time>2026-05-06T10:49:03.000Z</time>
      </trkpt>
      <trkpt lat="41.794662" lon="22.985756">
        <ele>1327.8</ele>
        <time>2026-05-06T10:49:04.000Z</time>
      </trkpt>
      <trkpt lat="41.794665" lon="22.985755">
        <ele>1327.8</ele>
        <time>2026-05-06T10:49:05.000Z</time>
      </trkpt>
      <trkpt lat="41.794669" lon="22.985755">
        <ele>1327.8</ele>
        <time>2026-05-06T10:49:06.000Z</time>
      </trkpt>
      <trkpt lat="41.794672" lon="22.985755">
        <ele>1327.8</ele>
        <time>2026-05-06T10:49:07.000Z</time>
      </trkpt>
      <trkpt lat="41.794675" lon="22.985755">
        <ele>1327.8</ele>
        <time>2026-05-06T10:49:08.000Z</time>
      </trkpt>
      <trkpt lat="41.794677" lon="22.985755">
        <ele>1327.8</ele>
        <time>2026-05-06T10:49:09.000Z</time>
      </trkpt>
      <trkpt lat="41.794678" lon="22.985757">
        <ele>1327.8</ele>
        <time>2026-05-06T10:49:10.000Z</time>
      </trkpt>
      <trkpt lat="41.794679" lon="22.985758">
        <ele>1327.8</ele>
        <time>2026-05-06T10:49:11.000Z</time>
      </trkpt>
      <trkpt lat="41.794679" lon="22.985759">
        <ele>1327.8</ele>
        <time>2026-05-06T10:49:12.000Z</time>
      </trkpt>
      <trkpt lat="41.794679" lon="22.98576">
        <ele>1327.6</ele>
        <time>2026-05-06T10:49:13.000Z</time>
      </trkpt>
      <trkpt lat="41.794678" lon="22.985761">
        <ele>1327.6</ele>
        <time>2026-05-06T10:49:14.000Z</time>
      </trkpt>
      <trkpt lat="41.794676" lon="22.985761">
        <ele>1327.6</ele>
        <time>2026-05-06T10:49:15.000Z</time>
      </trkpt>
      <trkpt lat="41.794675" lon="22.985761">
        <ele>1327.6</ele>
        <time>2026-05-06T10:49:16.000Z</time>
      </trkpt>
      <trkpt lat="41.794673" lon="22.985761">
        <ele>1327.6</ele>
        <time>2026-05-06T10:49:17.000Z</time>
      </trkpt>
      <trkpt lat="41.79467" lon="22.985762">
        <ele>1327.5</ele>
        <time>2026-05-06T10:49:18.000Z</time>
      </trkpt>
      <trkpt lat="41.794668" lon="22.985762">
        <ele>1327.5</ele>
        <time>2026-05-06T10:49:19.000Z</time>
      </trkpt>
      <trkpt lat="41.794666" lon="22.985762">
        <ele>1327.5</ele>
        <time>2026-05-06T10:49:20.000Z</time>
      </trkpt>
      <trkpt lat="41.794664" lon="22.985763">
        <ele>1327.5</ele>
        <time>2026-05-06T10:49:21.000Z</time>
      </trkpt>
      <trkpt lat="41.794663" lon="22.985763">
        <ele>1327.5</ele>
        <time>2026-05-06T10:49:22.000Z</time>
      </trkpt>
      <trkpt lat="41.794663" lon="22.985763">
        <ele>1327.3</ele>
        <time>2026-05-06T10:49:23.000Z</time>
      </trkpt>
      <trkpt lat="41.794661" lon="22.985764">
        <ele>1327.3</ele>
        <time>2026-05-06T10:49:24.000Z</time>
      </trkpt>
      <trkpt lat="41.794659" lon="22.985767">
        <ele>1327.3</ele>
        <time>2026-05-06T10:49:25.000Z</time>
      </trkpt>
      <trkpt lat="41.794657" lon="22.98577">
        <ele>1327.3</ele>
        <time>2026-05-06T10:49:26.000Z</time>
      </trkpt>
      <trkpt lat="41.794654" lon="22.985773">
        <ele>1327.3</ele>
        <time>2026-05-06T10:49:27.000Z</time>
      </trkpt>
      <trkpt lat="41.794651" lon="22.985776">
        <ele>1327.2</ele>
        <time>2026-05-06T10:49:28.000Z</time>
      </trkpt>
      <trkpt lat="41.79465" lon="22.985779">
        <ele>1327.2</ele>
        <time>2026-05-06T10:49:29.000Z</time>
      </trkpt>
      <trkpt lat="41.79465" lon="22.985779">
        <ele>1327.2</ele>
        <time>2026-05-06T10:49:30.000Z</time>
      </trkpt>
      <trkpt lat="41.794649" lon="22.98578">
        <ele>1327.2</ele>
        <time>2026-05-06T10:49:31.000Z</time>
      </trkpt>
      <trkpt lat="41.794649" lon="22.98578">
        <ele>1327.2</ele>
        <time>2026-05-06T10:49:32.000Z</time>
      </trkpt>
      <trkpt lat="41.794648" lon="22.985779">
        <ele>1327.2</ele>
        <time>2026-05-06T10:49:33.000Z</time>
      </trkpt>
      <trkpt lat="41.794648" lon="22.985778">
        <ele>1327.2</ele>
        <time>2026-05-06T10:49:34.000Z</time>
      </trkpt>
      <trkpt lat="41.794647" lon="22.985777">
        <ele>1327.2</ele>
        <time>2026-05-06T10:49:35.000Z</time>
      </trkpt>
      <trkpt lat="41.794646" lon="22.985776">
        <ele>1327.2</ele>
        <time>2026-05-06T10:49:36.000Z</time>
      </trkpt>
      <trkpt lat="41.794646" lon="22.985776">
        <ele>1327.2</ele>
        <time>2026-05-06T10:49:37.000Z</time>
      </trkpt>
      <trkpt lat="41.794646" lon="22.985776">
        <ele>1327.2</ele>
        <time>2026-05-06T10:49:38.000Z</time>
      </trkpt>
      <trkpt lat="41.794645" lon="22.985776">
        <ele>1327.2</ele>
        <time>2026-05-06T10:49:39.000Z</time>
      </trkpt>
      <trkpt lat="41.794646" lon="22.985775">
        <ele>1327.2</ele>
        <time>2026-05-06T10:49:40.000Z</time>
      </trkpt>
      <trkpt lat="41.794646" lon="22.985775">
        <ele>1327.2</ele>
        <time>2026-05-06T10:49:41.000Z</time>
      </trkpt>
      <trkpt lat="41.794646" lon="22.985775">
        <ele>1327.2</ele>
        <time>2026-05-06T10:49:42.000Z</time>
      </trkpt>
      <trkpt lat="41.794646" lon="22.985775">
        <ele>1327.3</ele>
        <time>2026-05-06T10:49:43.000Z</time>
      </trkpt>
      <trkpt lat="41.794647" lon="22.985775">
        <ele>1327.3</ele>
        <time>2026-05-06T10:49:44.000Z</time>
      </trkpt>
      <trkpt lat="41.794647" lon="22.985774">
        <ele>1327.3</ele>
        <time>2026-05-06T10:49:45.000Z</time>
      </trkpt>
      <trkpt lat="41.794648" lon="22.985773">
        <ele>1327.3</ele>
        <time>2026-05-06T10:49:46.000Z</time>
      </trkpt>
      <trkpt lat="41.794649" lon="22.985771">
        <ele>1327.3</ele>
        <time>2026-05-06T10:49:47.000Z</time>
      </trkpt>
      <trkpt lat="41.794649" lon="22.985769">
        <ele>1327.4</ele>
        <time>2026-05-06T10:49:48.000Z</time>
      </trkpt>
      <trkpt lat="41.79465" lon="22.985768">
        <ele>1327.4</ele>
        <time>2026-05-06T10:49:49.000Z</time>
      </trkpt>
      <trkpt lat="41.79465" lon="22.985767">
        <ele>1327.4</ele>
        <time>2026-05-06T10:49:50.000Z</time>
      </trkpt>
      <trkpt lat="41.794651" lon="22.985767">
        <ele>1327.4</ele>
        <time>2026-05-06T10:49:51.000Z</time>
      </trkpt>
      <trkpt lat="41.794652" lon="22.985767">
        <ele>1327.4</ele>
        <time>2026-05-06T10:49:52.000Z</time>
      </trkpt>
      <trkpt lat="41.794652" lon="22.985767">
        <ele>1327.5</ele>
        <time>2026-05-06T10:49:53.000Z</time>
      </trkpt>
      <trkpt lat="41.794653" lon="22.985767">
        <ele>1327.5</ele>
        <time>2026-05-06T10:49:54.000Z</time>
      </trkpt>
      <trkpt lat="41.794653" lon="22.985767">
        <ele>1327.5</ele>
        <time>2026-05-06T10:49:55.000Z</time>
      </trkpt>
      <trkpt lat="41.794653" lon="22.985767">
        <ele>1327.5</ele>
        <time>2026-05-06T10:49:56.000Z</time>
      </trkpt>
      <trkpt lat="41.794653" lon="22.985767">
        <ele>1327.5</ele>
        <time>2026-05-06T10:49:57.000Z</time>
      </trkpt>
      <trkpt lat="41.794653" lon="22.985766">
        <ele>1327.4</ele>
        <time>2026-05-06T10:49:58.000Z</time>
      </trkpt>
      <trkpt lat="41.794653" lon="22.985766">
        <ele>1327.4</ele>
        <time>2026-05-06T10:49:59.000Z</time>
      </trkpt>
      <trkpt lat="41.794654" lon="22.985766">
        <ele>1327.4</ele>
        <time>2026-05-06T10:50:00.000Z</time>
      </trkpt>
      <trkpt lat="41.794654" lon="22.985767">
        <ele>1327.4</ele>
        <time>2026-05-06T10:50:01.000Z</time>
      </trkpt>
      <trkpt lat="41.794655" lon="22.985767">
        <ele>1327.4</ele>
        <time>2026-05-06T10:50:02.000Z</time>
      </trkpt>
      <trkpt lat="41.794656" lon="22.985768">
        <ele>1327.3</ele>
        <time>2026-05-06T10:50:03.000Z</time>
      </trkpt>
      <trkpt lat="41.794656" lon="22.985768">
        <ele>1327.3</ele>
        <time>2026-05-06T10:50:04.000Z</time>
      </trkpt>
      <trkpt lat="41.794657" lon="22.985766">
        <ele>1327.3</ele>
        <time>2026-05-06T10:50:05.000Z</time>
      </trkpt>
      <trkpt lat="41.794658" lon="22.985765">
        <ele>1327.3</ele>
        <time>2026-05-06T10:50:06.000Z</time>
      </trkpt>
      <trkpt lat="41.794659" lon="22.985763">
        <ele>1327.3</ele>
        <time>2026-05-06T10:50:07.000Z</time>
      </trkpt>
      <trkpt lat="41.79466" lon="22.985762">
        <ele>1327.1</ele>
        <time>2026-05-06T10:50:08.000Z</time>
      </trkpt>
      <trkpt lat="41.794662" lon="22.985762">
        <ele>1327.1</ele>
        <time>2026-05-06T10:50:09.000Z</time>
      </trkpt>
      <trkpt lat="41.794663" lon="22.985763">
        <ele>1327.1</ele>
        <time>2026-05-06T10:50:10.000Z</time>
      </trkpt>
      <trkpt lat="41.794666" lon="22.985763">
        <ele>1327.1</ele>
        <time>2026-05-06T10:50:11.000Z</time>
      </trkpt>
      <trkpt lat="41.794668" lon="22.985764">
        <ele>1327.1</ele>
        <time>2026-05-06T10:50:12.000Z</time>
      </trkpt>
      <trkpt lat="41.79467" lon="22.985763">
        <ele>1327.1</ele>
        <time>2026-05-06T10:50:13.000Z</time>
      </trkpt>
      <trkpt lat="41.794672" lon="22.985763">
        <ele>1327.1</ele>
        <time>2026-05-06T10:50:14.000Z</time>
      </trkpt>
      <trkpt lat="41.794673" lon="22.985764">
        <ele>1327.1</ele>
        <time>2026-05-06T10:50:15.000Z</time>
      </trkpt>
      <trkpt lat="41.794674" lon="22.985765">
        <ele>1327.1</ele>
        <time>2026-05-06T10:50:16.000Z</time>
      </trkpt>
      <trkpt lat="41.794674" lon="22.985766">
        <ele>1327.1</ele>
        <time>2026-05-06T10:50:17.000Z</time>
      </trkpt>
      <trkpt lat="41.794675" lon="22.985767">
        <ele>1327.1</ele>
        <time>2026-05-06T10:50:18.000Z</time>
      </trkpt>
      <trkpt lat="41.794676" lon="22.985768">
        <ele>1327.1</ele>
        <time>2026-05-06T10:50:19.000Z</time>
      </trkpt>
      <trkpt lat="41.794677" lon="22.985768">
        <ele>1327.1</ele>
        <time>2026-05-06T10:50:20.000Z</time>
      </trkpt>
      <trkpt lat="41.794676" lon="22.985769">
        <ele>1327.1</ele>
        <time>2026-05-06T10:50:21.000Z</time>
      </trkpt>
      <trkpt lat="41.794675" lon="22.985769">
        <ele>1327.1</ele>
        <time>2026-05-06T10:50:22.000Z</time>
      </trkpt>
      <trkpt lat="41.794672" lon="22.98577">
        <ele>1327.2</ele>
        <time>2026-05-06T10:50:23.000Z</time>
      </trkpt>
      <trkpt lat="41.794669" lon="22.985772">
        <ele>1327.2</ele>
        <time>2026-05-06T10:50:24.000Z</time>
      </trkpt>
      <trkpt lat="41.794666" lon="22.985774">
        <ele>1327.2</ele>
        <time>2026-05-06T10:50:25.000Z</time>
      </trkpt>
      <trkpt lat="41.794663" lon="22.985775">
        <ele>1327.2</ele>
        <time>2026-05-06T10:50:26.000Z</time>
      </trkpt>
      <trkpt lat="41.79466" lon="22.985776">
        <ele>1327.2</ele>
        <time>2026-05-06T10:50:27.000Z</time>
      </trkpt>
      <trkpt lat="41.794658" lon="22.985776">
        <ele>1327.2</ele>
        <time>2026-05-06T10:50:28.000Z</time>
      </trkpt>
      <trkpt lat="41.794656" lon="22.985775">
        <ele>1327.2</ele>
        <time>2026-05-06T10:50:29.000Z</time>
      </trkpt>
      <trkpt lat="41.794654" lon="22.985773">
        <ele>1327.2</ele>
        <time>2026-05-06T10:50:30.000Z</time>
      </trkpt>
      <trkpt lat="41.794654" lon="22.985772">
        <ele>1327.2</ele>
        <time>2026-05-06T10:50:31.000Z</time>
      </trkpt>
      <trkpt lat="41.794654" lon="22.985771">
        <ele>1327.2</ele>
        <time>2026-05-06T10:50:32.000Z</time>
      </trkpt>
      <trkpt lat="41.794654" lon="22.98577">
        <ele>1327.2</ele>
        <time>2026-05-06T10:50:33.000Z</time>
      </trkpt>
      <trkpt lat="41.794654" lon="22.98577">
        <ele>1327.2</ele>
        <time>2026-05-06T10:50:34.000Z</time>
      </trkpt>
      <trkpt lat="41.794654" lon="22.98577">
        <ele>1327.2</ele>
        <time>2026-05-06T10:50:35.000Z</time>
      </trkpt>
      <trkpt lat="41.794654" lon="22.98577">
        <ele>1327.2</ele>
        <time>2026-05-06T10:50:36.000Z</time>
      </trkpt>
      <trkpt lat="41.794654" lon="22.985769">
        <ele>1327.2</ele>
        <time>2026-05-06T10:50:37.000Z</time>
      </trkpt>
      <trkpt lat="41.794653" lon="22.985768">
        <ele>1327.3</ele>
        <time>2026-05-06T10:50:38.000Z</time>
      </trkpt>
      <trkpt lat="41.794653" lon="22.985766">
        <ele>1327.3</ele>
        <time>2026-05-06T10:50:39.000Z</time>
      </trkpt>
      <trkpt lat="41.794652" lon="22.985764">
        <ele>1327.3</ele>
        <time>2026-05-06T10:50:40.000Z</time>
      </trkpt>
      <trkpt lat="41.794652" lon="22.985761">
        <ele>1327.3</ele>
        <time>2026-05-06T10:50:41.000Z</time>
      </trkpt>
      <trkpt lat="41.794652" lon="22.985759">
        <ele>1327.3</ele>
        <time>2026-05-06T10:50:42.000Z</time>
      </trkpt>
      <trkpt lat="41.794651" lon="22.985757">
        <ele>1327.3</ele>
        <time>2026-05-06T10:50:43.000Z</time>
      </trkpt>
      <trkpt lat="41.794649" lon="22.985755">
        <ele>1327.3</ele>
        <time>2026-05-06T10:50:44.000Z</time>
      </trkpt>
      <trkpt lat="41.794647" lon="22.985753">
        <ele>1327.3</ele>
        <time>2026-05-06T10:50:45.000Z</time>
      </trkpt>
      <trkpt lat="41.794644" lon="22.985752">
        <ele>1327.3</ele>
        <time>2026-05-06T10:50:46.000Z</time>
      </trkpt>
      <trkpt lat="41.79464" lon="22.985749">
        <ele>1327.3</ele>
        <time>2026-05-06T10:50:47.000Z</time>
      </trkpt>
      <trkpt lat="41.794636" lon="22.985747">
        <ele>1327.5</ele>
        <time>2026-05-06T10:50:48.000Z</time>
      </trkpt>
      <trkpt lat="41.794633" lon="22.985743">
        <ele>1327.5</ele>
        <time>2026-05-06T10:50:49.000Z</time>
      </trkpt>
      <trkpt lat="41.794631" lon="22.985739">
        <ele>1327.5</ele>
        <time>2026-05-06T10:50:50.000Z</time>
      </trkpt>
      <trkpt lat="41.794631" lon="22.985734">
        <ele>1327.5</ele>
        <time>2026-05-06T10:50:51.000Z</time>
      </trkpt>
      <trkpt lat="41.794631" lon="22.98573">
        <ele>1327.5</ele>
        <time>2026-05-06T10:50:52.000Z</time>
      </trkpt>
      <trkpt lat="41.794632" lon="22.985726">
        <ele>1327.8</ele>
        <time>2026-05-06T10:50:53.000Z</time>
      </trkpt>
      <trkpt lat="41.794633" lon="22.985721">
        <ele>1327.8</ele>
        <time>2026-05-06T10:50:54.000Z</time>
      </trkpt>
      <trkpt lat="41.794633" lon="22.985716">
        <ele>1327.8</ele>
        <time>2026-05-06T10:50:55.000Z</time>
      </trkpt>
      <trkpt lat="41.794633" lon="22.985713">
        <ele>1327.8</ele>
        <time>2026-05-06T10:50:56.000Z</time>
      </trkpt>
      <trkpt lat="41.794633" lon="22.985709">
        <ele>1327.8</ele>
        <time>2026-05-06T10:50:57.000Z</time>
      </trkpt>
      <trkpt lat="41.794633" lon="22.985708">
        <ele>1328.5</ele>
        <time>2026-05-06T10:50:58.000Z</time>
      </trkpt>
      <trkpt lat="41.794633" lon="22.985708">
        <ele>1328.5</ele>
        <time>2026-05-06T10:50:59.000Z</time>
      </trkpt>
      <trkpt lat="41.794634" lon="22.985708">
        <ele>1328.5</ele>
        <time>2026-05-06T10:51:00.000Z</time>
      </trkpt>
      <trkpt lat="41.794634" lon="22.985708">
        <ele>1328.5</ele>
        <time>2026-05-06T10:51:01.000Z</time>
      </trkpt>
      <trkpt lat="41.794635" lon="22.985706">
        <ele>1328.5</ele>
        <time>2026-05-06T10:51:02.000Z</time>
      </trkpt>
      <trkpt lat="41.794636" lon="22.985703">
        <ele>1329</ele>
        <time>2026-05-06T10:51:03.000Z</time>
      </trkpt>
      <trkpt lat="41.794637" lon="22.985698">
        <ele>1329</ele>
        <time>2026-05-06T10:51:04.000Z</time>
      </trkpt>
      <trkpt lat="41.794638" lon="22.985693">
        <ele>1329</ele>
        <time>2026-05-06T10:51:05.000Z</time>
      </trkpt>
      <trkpt lat="41.794641" lon="22.985688">
        <ele>1329</ele>
        <time>2026-05-06T10:51:06.000Z</time>
      </trkpt>
      <trkpt lat="41.794642" lon="22.985684">
        <ele>1329</ele>
        <time>2026-05-06T10:51:07.000Z</time>
      </trkpt>
      <trkpt lat="41.794642" lon="22.985682">
        <ele>1330</ele>
        <time>2026-05-06T10:51:08.000Z</time>
      </trkpt>
      <trkpt lat="41.794643" lon="22.985682">
        <ele>1330</ele>
        <time>2026-05-06T10:51:09.000Z</time>
      </trkpt>
      <trkpt lat="41.794644" lon="22.985682">
        <ele>1330</ele>
        <time>2026-05-06T10:51:10.000Z</time>
      </trkpt>
      <trkpt lat="41.794644" lon="22.985682">
        <ele>1330</ele>
        <time>2026-05-06T10:51:11.000Z</time>
      </trkpt>
      <trkpt lat="41.794644" lon="22.98568">
        <ele>1330</ele>
        <time>2026-05-06T10:51:12.000Z</time>
      </trkpt>
      <trkpt lat="41.794644" lon="22.985679">
        <ele>1330.8</ele>
        <time>2026-05-06T10:51:13.000Z</time>
      </trkpt>
      <trkpt lat="41.794645" lon="22.985678">
        <ele>1330.8</ele>
        <time>2026-05-06T10:51:14.000Z</time>
      </trkpt>
      <trkpt lat="41.794645" lon="22.985676">
        <ele>1330.8</ele>
        <time>2026-05-06T10:51:15.000Z</time>
      </trkpt>
      <trkpt lat="41.794644" lon="22.985675">
        <ele>1330.8</ele>
        <time>2026-05-06T10:51:16.000Z</time>
      </trkpt>
      <trkpt lat="41.794644" lon="22.985675">
        <ele>1330.8</ele>
        <time>2026-05-06T10:51:17.000Z</time>
      </trkpt>
      <trkpt lat="41.794644" lon="22.985675">
        <ele>1331.1</ele>
        <time>2026-05-06T10:51:18.000Z</time>
      </trkpt>
      <trkpt lat="41.794644" lon="22.985674">
        <ele>1331.1</ele>
        <time>2026-05-06T10:51:19.000Z</time>
      </trkpt>
      <trkpt lat="41.794644" lon="22.985674">
        <ele>1331.1</ele>
        <time>2026-05-06T10:51:20.000Z</time>
      </trkpt>
      <trkpt lat="41.794644" lon="22.985674">
        <ele>1331.1</ele>
        <time>2026-05-06T10:51:21.000Z</time>
      </trkpt>
      <trkpt lat="41.794644" lon="22.985674">
        <ele>1331.1</ele>
        <time>2026-05-06T10:51:22.000Z</time>
      </trkpt>
      <trkpt lat="41.794644" lon="22.985674">
        <ele>1331.3</ele>
        <time>2026-05-06T10:51:23.000Z</time>
      </trkpt>
      <trkpt lat="41.794645" lon="22.985673">
        <ele>1331.3</ele>
        <time>2026-05-06T10:51:24.000Z</time>
      </trkpt>
      <trkpt lat="41.794644" lon="22.985673">
        <ele>1331.3</ele>
        <time>2026-05-06T10:51:25.000Z</time>
      </trkpt>
      <trkpt lat="41.794644" lon="22.985673">
        <ele>1331.3</ele>
        <time>2026-05-06T10:51:26.000Z</time>
      </trkpt>
      <trkpt lat="41.794644" lon="22.985673">
        <ele>1331.3</ele>
        <time>2026-05-06T10:51:27.000Z</time>
      </trkpt>
      <trkpt lat="41.794643" lon="22.985673">
        <ele>1331.4</ele>
        <time>2026-05-06T10:51:28.000Z</time>
      </trkpt>
      <trkpt lat="41.794643" lon="22.985674">
        <ele>1331.4</ele>
        <time>2026-05-06T10:51:29.000Z</time>
      </trkpt>
      <trkpt lat="41.794643" lon="22.985676">
        <ele>1331.4</ele>
        <time>2026-05-06T10:51:30.000Z</time>
      </trkpt>
      <trkpt lat="41.794643" lon="22.985677">
        <ele>1331.4</ele>
        <time>2026-05-06T10:51:31.000Z</time>
      </trkpt>
      <trkpt lat="41.794643" lon="22.985679">
        <ele>1331.4</ele>
        <time>2026-05-06T10:51:32.000Z</time>
      </trkpt>
      <trkpt lat="41.794643" lon="22.98568">
        <ele>1331.5</ele>
        <time>2026-05-06T10:51:33.000Z</time>
      </trkpt>
      <trkpt lat="41.794643" lon="22.985681">
        <ele>1331.5</ele>
        <time>2026-05-06T10:51:34.000Z</time>
      </trkpt>
      <trkpt lat="41.794642" lon="22.985681">
        <ele>1331.5</ele>
        <time>2026-05-06T10:51:35.000Z</time>
      </trkpt>
      <trkpt lat="41.794642" lon="22.985681">
        <ele>1331.5</ele>
        <time>2026-05-06T10:51:36.000Z</time>
      </trkpt>
      <trkpt lat="41.794642" lon="22.98568">
        <ele>1331.5</ele>
        <time>2026-05-06T10:51:37.000Z</time>
      </trkpt>
      <trkpt lat="41.794643" lon="22.985679">
        <ele>1331.7</ele>
        <time>2026-05-06T10:51:38.000Z</time>
      </trkpt>
      <trkpt lat="41.794643" lon="22.985678">
        <ele>1331.7</ele>
        <time>2026-05-06T10:51:39.000Z</time>
      </trkpt>
      <trkpt lat="41.794643" lon="22.985677">
        <ele>1331.7</ele>
        <time>2026-05-06T10:51:40.000Z</time>
      </trkpt>
      <trkpt lat="41.794643" lon="22.985677">
        <ele>1331.7</ele>
        <time>2026-05-06T10:51:41.000Z</time>
      </trkpt>
      <trkpt lat="41.794643" lon="22.985677">
        <ele>1331.7</ele>
        <time>2026-05-06T10:51:42.000Z</time>
      </trkpt>
      <trkpt lat="41.794642" lon="22.98568">
        <ele>1331.8</ele>
        <time>2026-05-06T10:51:43.000Z</time>
      </trkpt>
      <trkpt lat="41.794642" lon="22.985682">
        <ele>1331.8</ele>
        <time>2026-05-06T10:51:44.000Z</time>
      </trkpt>
      <trkpt lat="41.794642" lon="22.985684">
        <ele>1331.8</ele>
        <time>2026-05-06T10:51:45.000Z</time>
      </trkpt>
      <trkpt lat="41.794643" lon="22.985686">
        <ele>1331.8</ele>
        <time>2026-05-06T10:51:46.000Z</time>
      </trkpt>
      <trkpt lat="41.794643" lon="22.985687">
        <ele>1331.8</ele>
        <time>2026-05-06T10:51:47.000Z</time>
      </trkpt>
      <trkpt lat="41.794644" lon="22.985688">
        <ele>1331.8</ele>
        <time>2026-05-06T10:51:48.000Z</time>
      </trkpt>
      <trkpt lat="41.794644" lon="22.985689">
        <ele>1331.8</ele>
        <time>2026-05-06T10:51:49.000Z</time>
      </trkpt>
      <trkpt lat="41.794644" lon="22.98569">
        <ele>1331.8</ele>
        <time>2026-05-06T10:51:50.000Z</time>
      </trkpt>
      <trkpt lat="41.794644" lon="22.98569">
        <ele>1331.8</ele>
        <time>2026-05-06T10:51:51.000Z</time>
      </trkpt>
      <trkpt lat="41.794644" lon="22.98569">
        <ele>1331.8</ele>
        <time>2026-05-06T10:51:52.000Z</time>
      </trkpt>
      <trkpt lat="41.794644" lon="22.98569">
        <ele>1331.6</ele>
        <time>2026-05-06T10:51:53.000Z</time>
      </trkpt>
      <trkpt lat="41.794644" lon="22.98569">
        <ele>1331.6</ele>
        <time>2026-05-06T10:51:54.000Z</time>
      </trkpt>
      <trkpt lat="41.794643" lon="22.98569">
        <ele>1331.6</ele>
        <time>2026-05-06T10:51:55.000Z</time>
      </trkpt>
      <trkpt lat="41.794642" lon="22.98569">
        <ele>1331.6</ele>
        <time>2026-05-06T10:51:56.000Z</time>
      </trkpt>
      <trkpt lat="41.794642" lon="22.985691">
        <ele>1331.6</ele>
        <time>2026-05-06T10:51:57.000Z</time>
      </trkpt>
      <trkpt lat="41.794641" lon="22.985691">
        <ele>1331.4</ele>
        <time>2026-05-06T10:51:58.000Z</time>
      </trkpt>
      <trkpt lat="41.79464" lon="22.985692">
        <ele>1331.4</ele>
        <time>2026-05-06T10:51:59.000Z</time>
      </trkpt>
      <trkpt lat="41.79464" lon="22.985692">
        <ele>1331.4</ele>
        <time>2026-05-06T10:52:00.000Z</time>
      </trkpt>
      <trkpt lat="41.79464" lon="22.985692">
        <ele>1331.4</ele>
        <time>2026-05-06T10:52:01.000Z</time>
      </trkpt>
      <trkpt lat="41.79464" lon="22.985692">
        <ele>1331.4</ele>
        <time>2026-05-06T10:52:02.000Z</time>
      </trkpt>
      <trkpt lat="41.79464" lon="22.985692">
        <ele>1331.4</ele>
        <time>2026-05-06T10:52:03.000Z</time>
      </trkpt>
      <trkpt lat="41.79464" lon="22.985692">
        <ele>1331.4</ele>
        <time>2026-05-06T10:52:04.000Z</time>
      </trkpt>
      <trkpt lat="41.79464" lon="22.985692">
        <ele>1331.4</ele>
        <time>2026-05-06T10:52:05.000Z</time>
      </trkpt>
      <trkpt lat="41.79464" lon="22.985692">
        <ele>1331.4</ele>
        <time>2026-05-06T10:52:06.000Z</time>
      </trkpt>
      <trkpt lat="41.79464" lon="22.985692">
        <ele>1331.4</ele>
        <time>2026-05-06T10:52:07.000Z</time>
      </trkpt>
      <trkpt lat="41.79464" lon="22.985692">
        <ele>1331.3</ele>
        <time>2026-05-06T10:52:08.000Z</time>
      </trkpt>
      <trkpt lat="41.79464" lon="22.985692">
        <ele>1331.3</ele>
        <time>2026-05-06T10:52:09.000Z</time>
      </trkpt>
      <trkpt lat="41.79464" lon="22.985692">
        <ele>1331.3</ele>
        <time>2026-05-06T10:52:10.000Z</time>
      </trkpt>
      <trkpt lat="41.794641" lon="22.985692">
        <ele>1331.3</ele>
        <time>2026-05-06T10:52:11.000Z</time>
      </trkpt>
      <trkpt lat="41.794642" lon="22.985691">
        <ele>1331.3</ele>
        <time>2026-05-06T10:52:12.000Z</time>
      </trkpt>
      <trkpt lat="41.794644" lon="22.98569">
        <ele>1331.2</ele>
        <time>2026-05-06T10:52:13.000Z</time>
      </trkpt>
      <trkpt lat="41.794645" lon="22.985688">
        <ele>1331.2</ele>
        <time>2026-05-06T10:52:14.000Z</time>
      </trkpt>
      <trkpt lat="41.794646" lon="22.985687">
        <ele>1331.2</ele>
        <time>2026-05-06T10:52:15.000Z</time>
      </trkpt>
      <trkpt lat="41.794648" lon="22.985686">
        <ele>1331.2</ele>
        <time>2026-05-06T10:52:16.000Z</time>
      </trkpt>
      <trkpt lat="41.794648" lon="22.985686">
        <ele>1331.2</ele>
        <time>2026-05-06T10:52:17.000Z</time>
      </trkpt>
      <trkpt lat="41.794649" lon="22.985685">
        <ele>1331.2</ele>
        <time>2026-05-06T10:52:18.000Z</time>
      </trkpt>
      <trkpt lat="41.79465" lon="22.985686">
        <ele>1331.2</ele>
        <time>2026-05-06T10:52:19.000Z</time>
      </trkpt>
      <trkpt lat="41.794651" lon="22.985686">
        <ele>1331.2</ele>
        <time>2026-05-06T10:52:20.000Z</time>
      </trkpt>
      <trkpt lat="41.794651" lon="22.985688">
        <ele>1331.2</ele>
        <time>2026-05-06T10:52:21.000Z</time>
      </trkpt>
      <trkpt lat="41.794651" lon="22.985689">
        <ele>1331.2</ele>
        <time>2026-05-06T10:52:22.000Z</time>
      </trkpt>
      <trkpt lat="41.794651" lon="22.985691">
        <ele>1331.1</ele>
        <time>2026-05-06T10:52:23.000Z</time>
      </trkpt>
      <trkpt lat="41.794651" lon="22.985692">
        <ele>1331.1</ele>
        <time>2026-05-06T10:52:24.000Z</time>
      </trkpt>
      <trkpt lat="41.79465" lon="22.985693">
        <ele>1331.1</ele>
        <time>2026-05-06T10:52:25.000Z</time>
      </trkpt>
      <trkpt lat="41.79465" lon="22.985694">
        <ele>1331.1</ele>
        <time>2026-05-06T10:52:26.000Z</time>
      </trkpt>
      <trkpt lat="41.794649" lon="22.985693">
        <ele>1331.1</ele>
        <time>2026-05-06T10:52:27.000Z</time>
      </trkpt>
      <trkpt lat="41.794649" lon="22.985692">
        <ele>1331</ele>
        <time>2026-05-06T10:52:28.000Z</time>
      </trkpt>
      <trkpt lat="41.794649" lon="22.98569">
        <ele>1331</ele>
        <time>2026-05-06T10:52:29.000Z</time>
      </trkpt>
      <trkpt lat="41.794649" lon="22.985688">
        <ele>1331</ele>
        <time>2026-05-06T10:52:30.000Z</time>
      </trkpt>
      <trkpt lat="41.794649" lon="22.985686">
        <ele>1331</ele>
        <time>2026-05-06T10:52:31.000Z</time>
      </trkpt>
      <trkpt lat="41.79465" lon="22.985686">
        <ele>1331</ele>
        <time>2026-05-06T10:52:32.000Z</time>
      </trkpt>
      <trkpt lat="41.79465" lon="22.985686">
        <ele>1331</ele>
        <time>2026-05-06T10:52:33.000Z</time>
      </trkpt>
      <trkpt lat="41.79465" lon="22.985686">
        <ele>1331</ele>
        <time>2026-05-06T10:52:34.000Z</time>
      </trkpt>
      <trkpt lat="41.79465" lon="22.985687">
        <ele>1331</ele>
        <time>2026-05-06T10:52:35.000Z</time>
      </trkpt>
      <trkpt lat="41.79465" lon="22.985688">
        <ele>1331</ele>
        <time>2026-05-06T10:52:36.000Z</time>
      </trkpt>
      <trkpt lat="41.794649" lon="22.985688">
        <ele>1331</ele>
        <time>2026-05-06T10:52:37.000Z</time>
      </trkpt>
      <trkpt lat="41.794649" lon="22.985689">
        <ele>1331</ele>
        <time>2026-05-06T10:52:38.000Z</time>
      </trkpt>
      <trkpt lat="41.794649" lon="22.985689">
        <ele>1331</ele>
        <time>2026-05-06T10:52:39.000Z</time>
      </trkpt>
      <trkpt lat="41.794649" lon="22.98569">
        <ele>1331</ele>
        <time>2026-05-06T10:52:40.000Z</time>
      </trkpt>
      <trkpt lat="41.794649" lon="22.98569">
        <ele>1331</ele>
        <time>2026-05-06T10:52:41.000Z</time>
      </trkpt>
      <trkpt lat="41.794648" lon="22.98569">
        <ele>1331</ele>
        <time>2026-05-06T10:52:42.000Z</time>
      </trkpt>
      <trkpt lat="41.794646" lon="22.985689">
        <ele>1330.9</ele>
        <time>2026-05-06T10:52:43.000Z</time>
      </trkpt>
      <trkpt lat="41.794646" lon="22.985686">
        <ele>1330.9</ele>
        <time>2026-05-06T10:52:44.000Z</time>
      </trkpt>
      <trkpt lat="41.794647" lon="22.985682">
        <ele>1330.9</ele>
        <time>2026-05-06T10:52:45.000Z</time>
      </trkpt>
      <trkpt lat="41.794647" lon="22.985679">
        <ele>1330.9</ele>
        <time>2026-05-06T10:52:46.000Z</time>
      </trkpt>
      <trkpt lat="41.79465" lon="22.985677">
        <ele>1330.9</ele>
        <time>2026-05-06T10:52:47.000Z</time>
      </trkpt>
      <trkpt lat="41.794652" lon="22.985674">
        <ele>1330.9</ele>
        <time>2026-05-06T10:52:48.000Z</time>
      </trkpt>
      <trkpt lat="41.794653" lon="22.985674">
        <ele>1330.9</ele>
        <time>2026-05-06T10:52:49.000Z</time>
      </trkpt>
      <trkpt lat="41.794654" lon="22.985674">
        <ele>1330.9</ele>
        <time>2026-05-06T10:52:50.000Z</time>
      </trkpt>
      <trkpt lat="41.794656" lon="22.985673">
        <ele>1330.9</ele>
        <time>2026-05-06T10:52:51.000Z</time>
      </trkpt>
      <trkpt lat="41.794657" lon="22.985673">
        <ele>1330.9</ele>
        <time>2026-05-06T10:52:52.000Z</time>
      </trkpt>
      <trkpt lat="41.794657" lon="22.985674">
        <ele>1330.9</ele>
        <time>2026-05-06T10:52:53.000Z</time>
      </trkpt>
      <trkpt lat="41.794657" lon="22.985676">
        <ele>1330.9</ele>
        <time>2026-05-06T10:52:54.000Z</time>
      </trkpt>
      <trkpt lat="41.794657" lon="22.985678">
        <ele>1330.9</ele>
        <time>2026-05-06T10:52:55.000Z</time>
      </trkpt>
      <trkpt lat="41.794656" lon="22.98568">
        <ele>1330.9</ele>
        <time>2026-05-06T10:52:56.000Z</time>
      </trkpt>
      <trkpt lat="41.794655" lon="22.985682">
        <ele>1330.9</ele>
        <time>2026-05-06T10:52:57.000Z</time>
      </trkpt>
      <trkpt lat="41.794654" lon="22.985681">
        <ele>1330.9</ele>
        <time>2026-05-06T10:52:58.000Z</time>
      </trkpt>
      <trkpt lat="41.794653" lon="22.985679">
        <ele>1330.9</ele>
        <time>2026-05-06T10:52:59.000Z</time>
      </trkpt>
      <trkpt lat="41.794653" lon="22.985677">
        <ele>1330.9</ele>
        <time>2026-05-06T10:53:00.000Z</time>
      </trkpt>
      <trkpt lat="41.794652" lon="22.985674">
        <ele>1330.9</ele>
        <time>2026-05-06T10:53:01.000Z</time>
      </trkpt>
      <trkpt lat="41.794652" lon="22.985672">
        <ele>1330.9</ele>
        <time>2026-05-06T10:53:02.000Z</time>
      </trkpt>
      <trkpt lat="41.794651" lon="22.98567">
        <ele>1331</ele>
        <time>2026-05-06T10:53:03.000Z</time>
      </trkpt>
      <trkpt lat="41.79465" lon="22.98567">
        <ele>1331</ele>
        <time>2026-05-06T10:53:04.000Z</time>
      </trkpt>
      <trkpt lat="41.794649" lon="22.985671">
        <ele>1331</ele>
        <time>2026-05-06T10:53:05.000Z</time>
      </trkpt>
      <trkpt lat="41.794648" lon="22.985672">
        <ele>1331</ele>
        <time>2026-05-06T10:53:06.000Z</time>
      </trkpt>
      <trkpt lat="41.794647" lon="22.985672">
        <ele>1331</ele>
        <time>2026-05-06T10:53:07.000Z</time>
      </trkpt>
      <trkpt lat="41.794648" lon="22.985675">
        <ele>1331.1</ele>
        <time>2026-05-06T10:53:08.000Z</time>
      </trkpt>
      <trkpt lat="41.794649" lon="22.985677">
        <ele>1331.1</ele>
        <time>2026-05-06T10:53:09.000Z</time>
      </trkpt>
      <trkpt lat="41.79465" lon="22.985679">
        <ele>1331.1</ele>
        <time>2026-05-06T10:53:10.000Z</time>
      </trkpt>
      <trkpt lat="41.79465" lon="22.98568">
        <ele>1331.1</ele>
        <time>2026-05-06T10:53:11.000Z</time>
      </trkpt>
      <trkpt lat="41.794651" lon="22.985681">
        <ele>1331.1</ele>
        <time>2026-05-06T10:53:12.000Z</time>
      </trkpt>
      <trkpt lat="41.794651" lon="22.985681">
        <ele>1331.1</ele>
        <time>2026-05-06T10:53:13.000Z</time>
      </trkpt>
      <trkpt lat="41.794651" lon="22.985681">
        <ele>1331.1</ele>
        <time>2026-05-06T10:53:14.000Z</time>
      </trkpt>
      <trkpt lat="41.794651" lon="22.985681">
        <ele>1331.1</ele>
        <time>2026-05-06T10:53:15.000Z</time>
      </trkpt>
      <trkpt lat="41.794651" lon="22.985681">
        <ele>1331.1</ele>
        <time>2026-05-06T10:53:16.000Z</time>
      </trkpt>
      <trkpt lat="41.794651" lon="22.985681">
        <ele>1331.1</ele>
        <time>2026-05-06T10:53:17.000Z</time>
      </trkpt>
      <trkpt lat="41.794651" lon="22.985681">
        <ele>1331</ele>
        <time>2026-05-06T10:53:18.000Z</time>
      </trkpt>
      <trkpt lat="41.794651" lon="22.985681">
        <ele>1331</ele>
        <time>2026-05-06T10:53:19.000Z</time>
      </trkpt>
      <trkpt lat="41.794651" lon="22.985681">
        <ele>1331</ele>
        <time>2026-05-06T10:53:20.000Z</time>
      </trkpt>
      <trkpt lat="41.794651" lon="22.985681">
        <ele>1331</ele>
        <time>2026-05-06T10:53:21.000Z</time>
      </trkpt>
      <trkpt lat="41.794651" lon="22.985681">
        <ele>1331</ele>
        <time>2026-05-06T10:53:22.000Z</time>
      </trkpt>
      <trkpt lat="41.794651" lon="22.985681">
        <ele>1330.9</ele>
        <time>2026-05-06T10:53:23.000Z</time>
      </trkpt>
      <trkpt lat="41.794651" lon="22.985681">
        <ele>1330.9</ele>
        <time>2026-05-06T10:53:24.000Z</time>
      </trkpt>
      <trkpt lat="41.794651" lon="22.985681">
        <ele>1330.9</ele>
        <time>2026-05-06T10:53:25.000Z</time>
      </trkpt>
      <trkpt lat="41.794651" lon="22.985681">
        <ele>1330.9</ele>
        <time>2026-05-06T10:53:26.000Z</time>
      </trkpt>
      <trkpt lat="41.794651" lon="22.985681">
        <ele>1330.9</ele>
        <time>2026-05-06T10:53:27.000Z</time>
      </trkpt>
      <trkpt lat="41.794651" lon="22.985682">
        <ele>1331</ele>
        <time>2026-05-06T10:53:28.000Z</time>
      </trkpt>
      <trkpt lat="41.794651" lon="22.985682">
        <ele>1331</ele>
        <time>2026-05-06T10:53:29.000Z</time>
      </trkpt>
      <trkpt lat="41.794651" lon="22.985683">
        <ele>1331</ele>
        <time>2026-05-06T10:53:30.000Z</time>
      </trkpt>
      <trkpt lat="41.794651" lon="22.985684">
        <ele>1331</ele>
        <time>2026-05-06T10:53:31.000Z</time>
      </trkpt>
      <trkpt lat="41.794652" lon="22.985683">
        <ele>1331</ele>
        <time>2026-05-06T10:53:32.000Z</time>
      </trkpt>
      <trkpt lat="41.794652" lon="22.985682">
        <ele>1331.1</ele>
        <time>2026-05-06T10:53:33.000Z</time>
      </trkpt>
      <trkpt lat="41.794652" lon="22.985681">
        <ele>1331.1</ele>
        <time>2026-05-06T10:53:34.000Z</time>
      </trkpt>
      <trkpt lat="41.794652" lon="22.98568">
        <ele>1331.1</ele>
        <time>2026-05-06T10:53:35.000Z</time>
      </trkpt>
      <trkpt lat="41.794653" lon="22.985679">
        <ele>1331.1</ele>
        <time>2026-05-06T10:53:36.000Z</time>
      </trkpt>
      <trkpt lat="41.794653" lon="22.985679">
        <ele>1331.1</ele>
        <time>2026-05-06T10:53:37.000Z</time>
      </trkpt>
      <trkpt lat="41.794652" lon="22.985679">
        <ele>1331</ele>
        <time>2026-05-06T10:53:38.000Z</time>
      </trkpt>
      <trkpt lat="41.794651" lon="22.985678">
        <ele>1331</ele>
        <time>2026-05-06T10:53:39.000Z</time>
      </trkpt>
      <trkpt lat="41.79465" lon="22.985678">
        <ele>1331</ele>
        <time>2026-05-06T10:53:40.000Z</time>
      </trkpt>
      <trkpt lat="41.794649" lon="22.985678">
        <ele>1331</ele>
        <time>2026-05-06T10:53:41.000Z</time>
      </trkpt>
      <trkpt lat="41.794648" lon="22.985678">
        <ele>1331</ele>
        <time>2026-05-06T10:53:42.000Z</time>
      </trkpt>
      <trkpt lat="41.794647" lon="22.985677">
        <ele>1330.9</ele>
        <time>2026-05-06T10:53:43.000Z</time>
      </trkpt>
      <trkpt lat="41.794646" lon="22.985677">
        <ele>1330.9</ele>
        <time>2026-05-06T10:53:44.000Z</time>
      </trkpt>
      <trkpt lat="41.794646" lon="22.985677">
        <ele>1330.9</ele>
        <time>2026-05-06T10:53:45.000Z</time>
      </trkpt>
      <trkpt lat="41.794646" lon="22.985678">
        <ele>1330.9</ele>
        <time>2026-05-06T10:53:46.000Z</time>
      </trkpt>
      <trkpt lat="41.794647" lon="22.985678">
        <ele>1330.9</ele>
        <time>2026-05-06T10:53:47.000Z</time>
      </trkpt>
      <trkpt lat="41.794648" lon="22.98568">
        <ele>1330.8</ele>
        <time>2026-05-06T10:53:48.000Z</time>
      </trkpt>
      <trkpt lat="41.794648" lon="22.985682">
        <ele>1330.8</ele>
        <time>2026-05-06T10:53:49.000Z</time>
      </trkpt>
      <trkpt lat="41.794649" lon="22.985683">
        <ele>1330.8</ele>
        <time>2026-05-06T10:53:50.000Z</time>
      </trkpt>
      <trkpt lat="41.79465" lon="22.985684">
        <ele>1330.8</ele>
        <time>2026-05-06T10:53:51.000Z</time>
      </trkpt>
      <trkpt lat="41.794651" lon="22.985685">
        <ele>1330.8</ele>
        <time>2026-05-06T10:53:52.000Z</time>
      </trkpt>
      <trkpt lat="41.794651" lon="22.985686">
        <ele>1330.8</ele>
        <time>2026-05-06T10:53:53.000Z</time>
      </trkpt>
      <trkpt lat="41.794651" lon="22.985688">
        <ele>1330.8</ele>
        <time>2026-05-06T10:53:54.000Z</time>
      </trkpt>
      <trkpt lat="41.794652" lon="22.985689">
        <ele>1330.8</ele>
        <time>2026-05-06T10:53:55.000Z</time>
      </trkpt>
      <trkpt lat="41.794651" lon="22.985689">
        <ele>1330.8</ele>
        <time>2026-05-06T10:53:56.000Z</time>
      </trkpt>
      <trkpt lat="41.794651" lon="22.98569">
        <ele>1330.8</ele>
        <time>2026-05-06T10:53:57.000Z</time>
      </trkpt>
      <trkpt lat="41.794651" lon="22.98569">
        <ele>1330.8</ele>
        <time>2026-05-06T10:53:58.000Z</time>
      </trkpt>
      <trkpt lat="41.794651" lon="22.98569">
        <ele>1330.8</ele>
        <time>2026-05-06T10:53:59.000Z</time>
      </trkpt>
      <trkpt lat="41.794651" lon="22.98569">
        <ele>1330.8</ele>
        <time>2026-05-06T10:54:00.000Z</time>
      </trkpt>
      <trkpt lat="41.794651" lon="22.98569">
        <ele>1330.8</ele>
        <time>2026-05-06T10:54:01.000Z</time>
      </trkpt>
      <trkpt lat="41.794651" lon="22.98569">
        <ele>1330.8</ele>
        <time>2026-05-06T10:54:02.000Z</time>
      </trkpt>
      <trkpt lat="41.794651" lon="22.985689">
        <ele>1330.9</ele>
        <time>2026-05-06T10:54:03.000Z</time>
      </trkpt>
      <trkpt lat="41.794651" lon="22.985689">
        <ele>1330.9</ele>
        <time>2026-05-06T10:54:04.000Z</time>
      </trkpt>
      <trkpt lat="41.794651" lon="22.985689">
        <ele>1330.9</ele>
        <time>2026-05-06T10:54:05.000Z</time>
      </trkpt>
      <trkpt lat="41.794651" lon="22.985689">
        <ele>1330.9</ele>
        <time>2026-05-06T10:54:06.000Z</time>
      </trkpt>
      <trkpt lat="41.794651" lon="22.985689">
        <ele>1330.9</ele>
        <time>2026-05-06T10:54:07.000Z</time>
      </trkpt>
      <trkpt lat="41.794651" lon="22.985689">
        <ele>1330.9</ele>
        <time>2026-05-06T10:54:08.000Z</time>
      </trkpt>
      <trkpt lat="41.794651" lon="22.985689">
        <ele>1330.9</ele>
        <time>2026-05-06T10:54:09.000Z</time>
      </trkpt>
      <trkpt lat="41.794651" lon="22.985689">
        <ele>1330.9</ele>
        <time>2026-05-06T10:54:10.000Z</time>
      </trkpt>
      <trkpt lat="41.794651" lon="22.985688">
        <ele>1330.9</ele>
        <time>2026-05-06T10:54:11.000Z</time>
      </trkpt>
      <trkpt lat="41.794651" lon="22.985687">
        <ele>1330.9</ele>
        <time>2026-05-06T10:54:12.000Z</time>
      </trkpt>
      <trkpt lat="41.794651" lon="22.985686">
        <ele>1330.8</ele>
        <time>2026-05-06T10:54:13.000Z</time>
      </trkpt>
      <trkpt lat="41.794651" lon="22.985685">
        <ele>1330.8</ele>
        <time>2026-05-06T10:54:14.000Z</time>
      </trkpt>
      <trkpt lat="41.794651" lon="22.985684">
        <ele>1330.8</ele>
        <time>2026-05-06T10:54:15.000Z</time>
      </trkpt>
      <trkpt lat="41.794651" lon="22.985684">
        <ele>1330.8</ele>
        <time>2026-05-06T10:54:16.000Z</time>
      </trkpt>
      <trkpt lat="41.794651" lon="22.985684">
        <ele>1330.8</ele>
        <time>2026-05-06T10:54:17.000Z</time>
      </trkpt>
      <trkpt lat="41.794651" lon="22.985684">
        <ele>1330.8</ele>
        <time>2026-05-06T10:54:18.000Z</time>
      </trkpt>
      <trkpt lat="41.794651" lon="22.985684">
        <ele>1330.8</ele>
        <time>2026-05-06T10:54:19.000Z</time>
      </trkpt>
      <trkpt lat="41.794651" lon="22.985684">
        <ele>1330.8</ele>
        <time>2026-05-06T10:54:20.000Z</time>
      </trkpt>
      <trkpt lat="41.794651" lon="22.985684">
        <ele>1330.8</ele>
        <time>2026-05-06T10:54:21.000Z</time>
      </trkpt>
      <trkpt lat="41.794651" lon="22.985684">
        <ele>1330.8</ele>
        <time>2026-05-06T10:54:22.000Z</time>
      </trkpt>
      <trkpt lat="41.794651" lon="22.985684">
        <ele>1331</ele>
        <time>2026-05-06T10:54:23.000Z</time>
      </trkpt>
      <trkpt lat="41.794651" lon="22.985684">
        <ele>1331</ele>
        <time>2026-05-06T10:54:24.000Z</time>
      </trkpt>
      <trkpt lat="41.794651" lon="22.985684">
        <ele>1331</ele>
        <time>2026-05-06T10:54:25.000Z</time>
      </trkpt>
      <trkpt lat="41.794651" lon="22.985683">
        <ele>1331</ele>
        <time>2026-05-06T10:54:26.000Z</time>
      </trkpt>
      <trkpt lat="41.794651" lon="22.985683">
        <ele>1331</ele>
        <time>2026-05-06T10:54:27.000Z</time>
      </trkpt>
      <trkpt lat="41.79465" lon="22.985682">
        <ele>1331.2</ele>
        <time>2026-05-06T10:54:28.000Z</time>
      </trkpt>
      <trkpt lat="41.79465" lon="22.985682">
        <ele>1331.2</ele>
        <time>2026-05-06T10:54:29.000Z</time>
      </trkpt>
      <trkpt lat="41.79465" lon="22.985681">
        <ele>1331.2</ele>
        <time>2026-05-06T10:54:30.000Z</time>
      </trkpt>
      <trkpt lat="41.79465" lon="22.985681">
        <ele>1331.2</ele>
        <time>2026-05-06T10:54:31.000Z</time>
      </trkpt>
      <trkpt lat="41.79465" lon="22.985681">
        <ele>1331.2</ele>
        <time>2026-05-06T10:54:32.000Z</time>
      </trkpt>
      <trkpt lat="41.79465" lon="22.985681">
        <ele>1331.3</ele>
        <time>2026-05-06T10:54:33.000Z</time>
      </trkpt>
      <trkpt lat="41.79465" lon="22.985681">
        <ele>1331.3</ele>
        <time>2026-05-06T10:54:34.000Z</time>
      </trkpt>
      <trkpt lat="41.79465" lon="22.98568">
        <ele>1331.3</ele>
        <time>2026-05-06T10:54:35.000Z</time>
      </trkpt>
      <trkpt lat="41.79465" lon="22.98568">
        <ele>1331.3</ele>
        <time>2026-05-06T10:54:36.000Z</time>
      </trkpt>
      <trkpt lat="41.79465" lon="22.98568">
        <ele>1331.3</ele>
        <time>2026-05-06T10:54:37.000Z</time>
      </trkpt>
      <trkpt lat="41.794651" lon="22.98568">
        <ele>1331.3</ele>
        <time>2026-05-06T10:54:38.000Z</time>
      </trkpt>
      <trkpt lat="41.794651" lon="22.98568">
        <ele>1331.3</ele>
        <time>2026-05-06T10:54:39.000Z</time>
      </trkpt>
      <trkpt lat="41.794651" lon="22.98568">
        <ele>1331.3</ele>
        <time>2026-05-06T10:54:40.000Z</time>
      </trkpt>
      <trkpt lat="41.794651" lon="22.98568">
        <ele>1331.3</ele>
        <time>2026-05-06T10:54:41.000Z</time>
      </trkpt>
      <trkpt lat="41.794651" lon="22.98568">
        <ele>1331.3</ele>
        <time>2026-05-06T10:54:42.000Z</time>
      </trkpt>
      <trkpt lat="41.794651" lon="22.98568">
        <ele>1331.4</ele>
        <time>2026-05-06T10:54:43.000Z</time>
      </trkpt>
      <trkpt lat="41.794651" lon="22.98568">
        <ele>1331.4</ele>
        <time>2026-05-06T10:54:44.000Z</time>
      </trkpt>
      <trkpt lat="41.794651" lon="22.98568">
        <ele>1331.4</ele>
        <time>2026-05-06T10:54:45.000Z</time>
      </trkpt>
      <trkpt lat="41.794651" lon="22.98568">
        <ele>1331.4</ele>
        <time>2026-05-06T10:54:46.000Z</time>
      </trkpt>
      <trkpt lat="41.794652" lon="22.98568">
        <ele>1331.4</ele>
        <time>2026-05-06T10:54:47.000Z</time>
      </trkpt>
      <trkpt lat="41.794652" lon="22.98568">
        <ele>1331.4</ele>
        <time>2026-05-06T10:54:48.000Z</time>
      </trkpt>
      <trkpt lat="41.794652" lon="22.98568">
        <ele>1331.4</ele>
        <time>2026-05-06T10:54:49.000Z</time>
      </trkpt>
      <trkpt lat="41.794652" lon="22.98568">
        <ele>1331.4</ele>
        <time>2026-05-06T10:54:50.000Z</time>
      </trkpt>
      <trkpt lat="41.794652" lon="22.98568">
        <ele>1331.4</ele>
        <time>2026-05-06T10:54:51.000Z</time>
      </trkpt>
      <trkpt lat="41.794653" lon="22.98568">
        <ele>1331.4</ele>
        <time>2026-05-06T10:54:52.000Z</time>
      </trkpt>
      <trkpt lat="41.794653" lon="22.98568">
        <ele>1331.4</ele>
        <time>2026-05-06T10:54:53.000Z</time>
      </trkpt>
      <trkpt lat="41.794653" lon="22.985681">
        <ele>1331.4</ele>
        <time>2026-05-06T10:54:54.000Z</time>
      </trkpt>
      <trkpt lat="41.794653" lon="22.985681">
        <ele>1331.4</ele>
        <time>2026-05-06T10:54:55.000Z</time>
      </trkpt>
      <trkpt lat="41.794653" lon="22.985681">
        <ele>1331.4</ele>
        <time>2026-05-06T10:54:56.000Z</time>
      </trkpt>
      <trkpt lat="41.794653" lon="22.985681">
        <ele>1331.4</ele>
        <time>2026-05-06T10:54:57.000Z</time>
      </trkpt>
      <trkpt lat="41.794653" lon="22.985681">
        <ele>1331.3</ele>
        <time>2026-05-06T10:54:58.000Z</time>
      </trkpt>
      <trkpt lat="41.794653" lon="22.985681">
        <ele>1331.3</ele>
        <time>2026-05-06T10:54:59.000Z</time>
      </trkpt>
      <trkpt lat="41.794653" lon="22.985681">
        <ele>1331.3</ele>
        <time>2026-05-06T10:55:00.000Z</time>
      </trkpt>
      <trkpt lat="41.794653" lon="22.985681">
        <ele>1331.3</ele>
        <time>2026-05-06T10:55:01.000Z</time>
      </trkpt>
      <trkpt lat="41.794653" lon="22.985681">
        <ele>1331.3</ele>
        <time>2026-05-06T10:55:02.000Z</time>
      </trkpt>
      <trkpt lat="41.794653" lon="22.985681">
        <ele>1331.4</ele>
        <time>2026-05-06T10:55:03.000Z</time>
      </trkpt>
      <trkpt lat="41.794653" lon="22.985681">
        <ele>1331.4</ele>
        <time>2026-05-06T10:55:04.000Z</time>
      </trkpt>
      <trkpt lat="41.794653" lon="22.985681">
        <ele>1331.4</ele>
        <time>2026-05-06T10:55:05.000Z</time>
      </trkpt>
      <trkpt lat="41.794653" lon="22.985681">
        <ele>1331.4</ele>
        <time>2026-05-06T10:55:06.000Z</time>
      </trkpt>
      <trkpt lat="41.794653" lon="22.985681">
        <ele>1331.4</ele>
        <time>2026-05-06T10:55:07.000Z</time>
      </trkpt>
      <trkpt lat="41.794654" lon="22.985681">
        <ele>1331.4</ele>
        <time>2026-05-06T10:55:08.000Z</time>
      </trkpt>
      <trkpt lat="41.794654" lon="22.985681">
        <ele>1331.4</ele>
        <time>2026-05-06T10:55:09.000Z</time>
      </trkpt>
      <trkpt lat="41.794654" lon="22.985681">
        <ele>1331.4</ele>
        <time>2026-05-06T10:55:10.000Z</time>
      </trkpt>
      <trkpt lat="41.794654" lon="22.985681">
        <ele>1331.4</ele>
        <time>2026-05-06T10:55:11.000Z</time>
      </trkpt>
      <trkpt lat="41.794655" lon="22.985681">
        <ele>1331.4</ele>
        <time>2026-05-06T10:55:12.000Z</time>
      </trkpt>
      <trkpt lat="41.794655" lon="22.985681">
        <ele>1331.4</ele>
        <time>2026-05-06T10:55:13.000Z</time>
      </trkpt>
      <trkpt lat="41.794655" lon="22.985681">
        <ele>1331.4</ele>
        <time>2026-05-06T10:55:14.000Z</time>
      </trkpt>
      <trkpt lat="41.794655" lon="22.985681">
        <ele>1331.4</ele>
        <time>2026-05-06T10:55:15.000Z</time>
      </trkpt>
      <trkpt lat="41.794655" lon="22.985681">
        <ele>1331.4</ele>
        <time>2026-05-06T10:55:16.000Z</time>
      </trkpt>
      <trkpt lat="41.794655" lon="22.985681">
        <ele>1331.4</ele>
        <time>2026-05-06T10:55:17.000Z</time>
      </trkpt>
      <trkpt lat="41.794655" lon="22.985681">
        <ele>1331.4</ele>
        <time>2026-05-06T10:55:18.000Z</time>
      </trkpt>
      <trkpt lat="41.794655" lon="22.985681">
        <ele>1331.4</ele>
        <time>2026-05-06T10:55:19.000Z</time>
      </trkpt>
      <trkpt lat="41.794655" lon="22.985681">
        <ele>1331.4</ele>
        <time>2026-05-06T10:55:20.000Z</time>
      </trkpt>
      <trkpt lat="41.794655" lon="22.985681">
        <ele>1331.4</ele>
        <time>2026-05-06T10:55:21.000Z</time>
      </trkpt>
      <trkpt lat="41.794655" lon="22.985681">
        <ele>1331.4</ele>
        <time>2026-05-06T10:55:22.000Z</time>
      </trkpt>
      <trkpt lat="41.794655" lon="22.985681">
        <ele>1331.3</ele>
        <time>2026-05-06T10:55:23.000Z</time>
      </trkpt>
      <trkpt lat="41.794655" lon="22.985681">
        <ele>1331.3</ele>
        <time>2026-05-06T10:55:24.000Z</time>
      </trkpt>
      <trkpt lat="41.794655" lon="22.985681">
        <ele>1331.3</ele>
        <time>2026-05-06T10:55:25.000Z</time>
      </trkpt>
      <trkpt lat="41.794655" lon="22.985681">
        <ele>1331.3</ele>
        <time>2026-05-06T10:55:26.000Z</time>
      </trkpt>
      <trkpt lat="41.794655" lon="22.985681">
        <ele>1331.3</ele>
        <time>2026-05-06T10:55:27.000Z</time>
      </trkpt>
      <trkpt lat="41.794654" lon="22.985682">
        <ele>1331.4</ele>
        <time>2026-05-06T10:55:28.000Z</time>
      </trkpt>
      <trkpt lat="41.794654" lon="22.985682">
        <ele>1331.4</ele>
        <time>2026-05-06T10:55:29.000Z</time>
      </trkpt>
      <trkpt lat="41.794654" lon="22.985682">
        <ele>1331.4</ele>
        <time>2026-05-06T10:55:30.000Z</time>
      </trkpt>
      <trkpt lat="41.794654" lon="22.985683">
        <ele>1331.4</ele>
        <time>2026-05-06T10:55:31.000Z</time>
      </trkpt>
      <trkpt lat="41.794654" lon="22.985683">
        <ele>1331.4</ele>
        <time>2026-05-06T10:55:32.000Z</time>
      </trkpt>
      <trkpt lat="41.794654" lon="22.985683">
        <ele>1331.4</ele>
        <time>2026-05-06T10:55:33.000Z</time>
      </trkpt>
      <trkpt lat="41.794655" lon="22.985683">
        <ele>1331.4</ele>
        <time>2026-05-06T10:55:34.000Z</time>
      </trkpt>
      <trkpt lat="41.794655" lon="22.985683">
        <ele>1331.4</ele>
        <time>2026-05-06T10:55:35.000Z</time>
      </trkpt>
      <trkpt lat="41.794655" lon="22.985683">
        <ele>1331.4</ele>
        <time>2026-05-06T10:55:36.000Z</time>
      </trkpt>
      <trkpt lat="41.794656" lon="22.985684">
        <ele>1331.4</ele>
        <time>2026-05-06T10:55:37.000Z</time>
      </trkpt>
      <trkpt lat="41.794656" lon="22.985684">
        <ele>1331.4</ele>
        <time>2026-05-06T10:55:38.000Z</time>
      </trkpt>
      <trkpt lat="41.794656" lon="22.985684">
        <ele>1331.4</ele>
        <time>2026-05-06T10:55:39.000Z</time>
      </trkpt>
      <trkpt lat="41.794656" lon="22.985684">
        <ele>1331.4</ele>
        <time>2026-05-06T10:55:40.000Z</time>
      </trkpt>
      <trkpt lat="41.794656" lon="22.985684">
        <ele>1331.4</ele>
        <time>2026-05-06T10:55:41.000Z</time>
      </trkpt>
      <trkpt lat="41.794656" lon="22.985684">
        <ele>1331.4</ele>
        <time>2026-05-06T10:55:42.000Z</time>
      </trkpt>
      <trkpt lat="41.794656" lon="22.985684">
        <ele>1331.5</ele>
        <time>2026-05-06T10:55:43.000Z</time>
      </trkpt>
      <trkpt lat="41.794656" lon="22.985684">
        <ele>1331.5</ele>
        <time>2026-05-06T10:55:44.000Z</time>
      </trkpt>
      <trkpt lat="41.794656" lon="22.985684">
        <ele>1331.5</ele>
        <time>2026-05-06T10:55:45.000Z</time>
      </trkpt>
      <trkpt lat="41.794656" lon="22.985684">
        <ele>1331.5</ele>
        <time>2026-05-06T10:55:46.000Z</time>
      </trkpt>
      <trkpt lat="41.794656" lon="22.985684">
        <ele>1331.5</ele>
        <time>2026-05-06T10:55:47.000Z</time>
      </trkpt>
      <trkpt lat="41.794656" lon="22.985684">
        <ele>1331.5</ele>
        <time>2026-05-06T10:55:48.000Z</time>
      </trkpt>
      <trkpt lat="41.794656" lon="22.985684">
        <ele>1331.5</ele>
        <time>2026-05-06T10:55:49.000Z</time>
      </trkpt>
      <trkpt lat="41.794656" lon="22.985684">
        <ele>1331.5</ele>
        <time>2026-05-06T10:55:50.000Z</time>
      </trkpt>
      <trkpt lat="41.794656" lon="22.985684">
        <ele>1331.5</ele>
        <time>2026-05-06T10:55:51.000Z</time>
      </trkpt>
      <trkpt lat="41.794656" lon="22.985684">
        <ele>1331.5</ele>
        <time>2026-05-06T10:55:52.000Z</time>
      </trkpt>
      <trkpt lat="41.794656" lon="22.985684">
        <ele>1331.7</ele>
        <time>2026-05-06T10:55:53.000Z</time>
      </trkpt>
      <trkpt lat="41.794656" lon="22.985684">
        <ele>1331.7</ele>
        <time>2026-05-06T10:55:54.000Z</time>
      </trkpt>
      <trkpt lat="41.794656" lon="22.985684">
        <ele>1331.7</ele>
        <time>2026-05-06T10:55:55.000Z</time>
      </trkpt>
      <trkpt lat="41.794656" lon="22.985684">
        <ele>1331.7</ele>
        <time>2026-05-06T10:55:56.000Z</time>
      </trkpt>
      <trkpt lat="41.794656" lon="22.985684">
        <ele>1331.7</ele>
        <time>2026-05-06T10:55:57.000Z</time>
      </trkpt>
      <trkpt lat="41.794656" lon="22.985684">
        <ele>1331.8</ele>
        <time>2026-05-06T10:55:58.000Z</time>
      </trkpt>
      <trkpt lat="41.794656" lon="22.985684">
        <ele>1331.8</ele>
        <time>2026-05-06T10:55:59.000Z</time>
      </trkpt>
      <trkpt lat="41.794656" lon="22.985683">
        <ele>1331.8</ele>
        <time>2026-05-06T10:56:00.000Z</time>
      </trkpt>
      <trkpt lat="41.794656" lon="22.985683">
        <ele>1331.8</ele>
        <time>2026-05-06T10:56:01.000Z</time>
      </trkpt>
      <trkpt lat="41.794656" lon="22.985682">
        <ele>1331.8</ele>
        <time>2026-05-06T10:56:02.000Z</time>
      </trkpt>
      <trkpt lat="41.794657" lon="22.985681">
        <ele>1331.8</ele>
        <time>2026-05-06T10:56:03.000Z</time>
      </trkpt>
      <trkpt lat="41.794657" lon="22.985681">
        <ele>1331.8</ele>
        <time>2026-05-06T10:56:04.000Z</time>
      </trkpt>
      <trkpt lat="41.794657" lon="22.985681">
        <ele>1331.8</ele>
        <time>2026-05-06T10:56:05.000Z</time>
      </trkpt>
      <trkpt lat="41.794657" lon="22.985681">
        <ele>1331.8</ele>
        <time>2026-05-06T10:56:06.000Z</time>
      </trkpt>
      <trkpt lat="41.794657" lon="22.985681">
        <ele>1331.8</ele>
        <time>2026-05-06T10:56:07.000Z</time>
      </trkpt>
      <trkpt lat="41.794657" lon="22.985681">
        <ele>1331.7</ele>
        <time>2026-05-06T10:56:08.000Z</time>
      </trkpt>
      <trkpt lat="41.794657" lon="22.985681">
        <ele>1331.7</ele>
        <time>2026-05-06T10:56:09.000Z</time>
      </trkpt>
      <trkpt lat="41.794657" lon="22.985681">
        <ele>1331.7</ele>
        <time>2026-05-06T10:56:10.000Z</time>
      </trkpt>
      <trkpt lat="41.794657" lon="22.985681">
        <ele>1331.7</ele>
        <time>2026-05-06T10:56:11.000Z</time>
      </trkpt>
      <trkpt lat="41.794657" lon="22.985681">
        <ele>1331.7</ele>
        <time>2026-05-06T10:56:12.000Z</time>
      </trkpt>
      <trkpt lat="41.794657" lon="22.985681">
        <ele>1331.8</ele>
        <time>2026-05-06T10:56:13.000Z</time>
      </trkpt>
      <trkpt lat="41.794657" lon="22.985681">
        <ele>1331.8</ele>
        <time>2026-05-06T10:56:14.000Z</time>
      </trkpt>
      <trkpt lat="41.794657" lon="22.985681">
        <ele>1331.8</ele>
        <time>2026-05-06T10:56:15.000Z</time>
      </trkpt>
      <trkpt lat="41.794657" lon="22.985681">
        <ele>1331.8</ele>
        <time>2026-05-06T10:56:16.000Z</time>
      </trkpt>
      <trkpt lat="41.794657" lon="22.985681">
        <ele>1331.8</ele>
        <time>2026-05-06T10:56:17.000Z</time>
      </trkpt>
      <trkpt lat="41.794657" lon="22.985681">
        <ele>1331.9</ele>
        <time>2026-05-06T10:56:18.000Z</time>
      </trkpt>
      <trkpt lat="41.794657" lon="22.985681">
        <ele>1331.9</ele>
        <time>2026-05-06T10:56:19.000Z</time>
      </trkpt>
      <trkpt lat="41.794657" lon="22.985681">
        <ele>1331.9</ele>
        <time>2026-05-06T10:56:20.000Z</time>
      </trkpt>
      <trkpt lat="41.794657" lon="22.985681">
        <ele>1331.9</ele>
        <time>2026-05-06T10:56:21.000Z</time>
      </trkpt>
      <trkpt lat="41.794657" lon="22.985681">
        <ele>1331.9</ele>
        <time>2026-05-06T10:56:22.000Z</time>
      </trkpt>
      <trkpt lat="41.794657" lon="22.985681">
        <ele>1332.1</ele>
        <time>2026-05-06T10:56:23.000Z</time>
      </trkpt>
      <trkpt lat="41.794657" lon="22.985681">
        <ele>1332.1</ele>
        <time>2026-05-06T10:56:24.000Z</time>
      </trkpt>
      <trkpt lat="41.794657" lon="22.985681">
        <ele>1332.1</ele>
        <time>2026-05-06T10:56:25.000Z</time>
      </trkpt>
      <trkpt lat="41.794657" lon="22.985681">
        <ele>1332.1</ele>
        <time>2026-05-06T10:56:26.000Z</time>
      </trkpt>
      <trkpt lat="41.794657" lon="22.985681">
        <ele>1332.1</ele>
        <time>2026-05-06T10:56:27.000Z</time>
      </trkpt>
      <trkpt lat="41.794657" lon="22.985681">
        <ele>1332</ele>
        <time>2026-05-06T10:56:28.000Z</time>
      </trkpt>
      <trkpt lat="41.794657" lon="22.985681">
        <ele>1332</ele>
        <time>2026-05-06T10:56:29.000Z</time>
      </trkpt>
      <trkpt lat="41.794657" lon="22.985681">
        <ele>1332</ele>
        <time>2026-05-06T10:56:30.000Z</time>
      </trkpt>
      <trkpt lat="41.794657" lon="22.985681">
        <ele>1332</ele>
        <time>2026-05-06T10:56:31.000Z</time>
      </trkpt>
      <trkpt lat="41.794657" lon="22.985681">
        <ele>1332</ele>
        <time>2026-05-06T10:56:32.000Z</time>
      </trkpt>
      <trkpt lat="41.794657" lon="22.985681">
        <ele>1332</ele>
        <time>2026-05-06T10:56:33.000Z</time>
      </trkpt>
      <trkpt lat="41.794657" lon="22.985681">
        <ele>1332</ele>
        <time>2026-05-06T10:56:34.000Z</time>
      </trkpt>
      <trkpt lat="41.794657" lon="22.985681">
        <ele>1332</ele>
        <time>2026-05-06T10:56:35.000Z</time>
      </trkpt>
      <trkpt lat="41.794657" lon="22.985681">
        <ele>1332</ele>
        <time>2026-05-06T10:56:36.000Z</time>
      </trkpt>
      <trkpt lat="41.794657" lon="22.985681">
        <ele>1332</ele>
        <time>2026-05-06T10:56:37.000Z</time>
      </trkpt>
      <trkpt lat="41.794657" lon="22.985681">
        <ele>1332</ele>
        <time>2026-05-06T10:56:38.000Z</time>
      </trkpt>
      <trkpt lat="41.794657" lon="22.985681">
        <ele>1332</ele>
        <time>2026-05-06T10:56:39.000Z</time>
      </trkpt>
      <trkpt lat="41.794657" lon="22.985681">
        <ele>1332</ele>
        <time>2026-05-06T10:56:40.000Z</time>
      </trkpt>
      <trkpt lat="41.794657" lon="22.985681">
        <ele>1332</ele>
        <time>2026-05-06T10:56:41.000Z</time>
      </trkpt>
      <trkpt lat="41.794657" lon="22.985681">
        <ele>1332</ele>
        <time>2026-05-06T10:56:42.000Z</time>
      </trkpt>
      <trkpt lat="41.794657" lon="22.985681">
        <ele>1332.1</ele>
        <time>2026-05-06T10:56:43.000Z</time>
      </trkpt>
      <trkpt lat="41.794657" lon="22.985681">
        <ele>1332.1</ele>
        <time>2026-05-06T10:56:44.000Z</time>
      </trkpt>
      <trkpt lat="41.794657" lon="22.985681">
        <ele>1332.1</ele>
        <time>2026-05-06T10:56:45.000Z</time>
      </trkpt>
      <trkpt lat="41.794657" lon="22.985681">
        <ele>1332.1</ele>
        <time>2026-05-06T10:56:46.000Z</time>
      </trkpt>
      <trkpt lat="41.794657" lon="22.985681">
        <ele>1332.1</ele>
        <time>2026-05-06T10:56:47.000Z</time>
      </trkpt>
      <trkpt lat="41.794657" lon="22.985681">
        <ele>1332.1</ele>
        <time>2026-05-06T10:56:48.000Z</time>
      </trkpt>
      <trkpt lat="41.794657" lon="22.985681">
        <ele>1332.1</ele>
        <time>2026-05-06T10:56:49.000Z</time>
      </trkpt>
      <trkpt lat="41.794657" lon="22.985681">
        <ele>1332.1</ele>
        <time>2026-05-06T10:56:50.000Z</time>
      </trkpt>
      <trkpt lat="41.794657" lon="22.985681">
        <ele>1332.1</ele>
        <time>2026-05-06T10:56:51.000Z</time>
      </trkpt>
      <trkpt lat="41.794657" lon="22.985681">
        <ele>1332.1</ele>
        <time>2026-05-06T10:56:52.000Z</time>
      </trkpt>
      <trkpt lat="41.794657" lon="22.985681">
        <ele>1332.2</ele>
        <time>2026-05-06T10:56:53.000Z</time>
      </trkpt>
      <trkpt lat="41.794657" lon="22.985681">
        <ele>1332.2</ele>
        <time>2026-05-06T10:56:54.000Z</time>
      </trkpt>
      <trkpt lat="41.794657" lon="22.985681">
        <ele>1332.2</ele>
        <time>2026-05-06T10:56:55.000Z</time>
      </trkpt>
      <trkpt lat="41.794657" lon="22.985681">
        <ele>1332.2</ele>
        <time>2026-05-06T10:56:56.000Z</time>
      </trkpt>
      <trkpt lat="41.794657" lon="22.985681">
        <ele>1332.2</ele>
        <time>2026-05-06T10:56:57.000Z</time>
      </trkpt>
      <trkpt lat="41.794657" lon="22.985681">
        <ele>1332.2</ele>
        <time>2026-05-06T10:56:58.000Z</time>
      </trkpt>
      <trkpt lat="41.794657" lon="22.985681">
        <ele>1332.2</ele>
        <time>2026-05-06T10:56:59.000Z</time>
      </trkpt>
      <trkpt lat="41.794657" lon="22.985681">
        <ele>1332.2</ele>
        <time>2026-05-06T10:57:00.000Z</time>
      </trkpt>
      <trkpt lat="41.794657" lon="22.985681">
        <ele>1332.2</ele>
        <time>2026-05-06T10:57:01.000Z</time>
      </trkpt>
      <trkpt lat="41.794657" lon="22.985681">
        <ele>1332.2</ele>
        <time>2026-05-06T10:57:02.000Z</time>
      </trkpt>
      <trkpt lat="41.794657" lon="22.985681">
        <ele>1332.2</ele>
        <time>2026-05-06T10:57:03.000Z</time>
      </trkpt>
      <trkpt lat="41.794657" lon="22.985681">
        <ele>1332.2</ele>
        <time>2026-05-06T10:57:04.000Z</time>
      </trkpt>
      <trkpt lat="41.794657" lon="22.985681">
        <ele>1332.2</ele>
        <time>2026-05-06T10:57:05.000Z</time>
      </trkpt>
      <trkpt lat="41.794657" lon="22.985681">
        <ele>1332.2</ele>
        <time>2026-05-06T10:57:06.000Z</time>
      </trkpt>
      <trkpt lat="41.794657" lon="22.985681">
        <ele>1332.2</ele>
        <time>2026-05-06T10:57:07.000Z</time>
      </trkpt>
      <trkpt lat="41.794657" lon="22.985681">
        <ele>1332.1</ele>
        <time>2026-05-06T10:57:08.000Z</time>
      </trkpt>
      <trkpt lat="41.794657" lon="22.985681">
        <ele>1332.1</ele>
        <time>2026-05-06T10:57:09.000Z</time>
      </trkpt>
      <trkpt lat="41.794657" lon="22.985681">
        <ele>1332.1</ele>
        <time>2026-05-06T10:57:10.000Z</time>
      </trkpt>
      <trkpt lat="41.794657" lon="22.985681">
        <ele>1332.1</ele>
        <time>2026-05-06T10:57:11.000Z</time>
      </trkpt>
      <trkpt lat="41.794657" lon="22.985681">
        <ele>1332.1</ele>
        <time>2026-05-06T10:57:12.000Z</time>
      </trkpt>
      <trkpt lat="41.794657" lon="22.985681">
        <ele>1332.1</ele>
        <time>2026-05-06T10:57:13.000Z</time>
      </trkpt>
      <trkpt lat="41.794657" lon="22.985681">
        <ele>1332.1</ele>
        <time>2026-05-06T10:57:14.000Z</time>
      </trkpt>
      <trkpt lat="41.794657" lon="22.985681">
        <ele>1332.1</ele>
        <time>2026-05-06T10:57:15.000Z</time>
      </trkpt>
      <trkpt lat="41.794657" lon="22.98568">
        <ele>1332.1</ele>
        <time>2026-05-06T10:57:16.000Z</time>
      </trkpt>
      <trkpt lat="41.794658" lon="22.98568">
        <ele>1332.1</ele>
        <time>2026-05-06T10:57:17.000Z</time>
      </trkpt>
      <trkpt lat="41.794658" lon="22.98568">
        <ele>1332.2</ele>
        <time>2026-05-06T10:57:18.000Z</time>
      </trkpt>
      <trkpt lat="41.794658" lon="22.985679">
        <ele>1332.2</ele>
        <time>2026-05-06T10:57:19.000Z</time>
      </trkpt>
      <trkpt lat="41.794658" lon="22.985679">
        <ele>1332.2</ele>
        <time>2026-05-06T10:57:20.000Z</time>
      </trkpt>
      <trkpt lat="41.794658" lon="22.985679">
        <ele>1332.2</ele>
        <time>2026-05-06T10:57:21.000Z</time>
      </trkpt>
      <trkpt lat="41.794658" lon="22.985679">
        <ele>1332.2</ele>
        <time>2026-05-06T10:57:22.000Z</time>
      </trkpt>
      <trkpt lat="41.794658" lon="22.985679">
        <ele>1332.3</ele>
        <time>2026-05-06T10:57:23.000Z</time>
      </trkpt>
      <trkpt lat="41.794658" lon="22.985679">
        <ele>1332.3</ele>
        <time>2026-05-06T10:57:24.000Z</time>
      </trkpt>
      <trkpt lat="41.794658" lon="22.985679">
        <ele>1332.3</ele>
        <time>2026-05-06T10:57:25.000Z</time>
      </trkpt>
      <trkpt lat="41.794658" lon="22.985679">
        <ele>1332.3</ele>
        <time>2026-05-06T10:57:26.000Z</time>
      </trkpt>
      <trkpt lat="41.794658" lon="22.985679">
        <ele>1332.3</ele>
        <time>2026-05-06T10:57:27.000Z</time>
      </trkpt>
      <trkpt lat="41.794658" lon="22.985679">
        <ele>1332.4</ele>
        <time>2026-05-06T10:57:28.000Z</time>
      </trkpt>
      <trkpt lat="41.794658" lon="22.985681">
        <ele>1332.4</ele>
        <time>2026-05-06T10:57:29.000Z</time>
      </trkpt>
      <trkpt lat="41.794658" lon="22.985684">
        <ele>1332.4</ele>
        <time>2026-05-06T10:57:30.000Z</time>
      </trkpt>
      <trkpt lat="41.794657" lon="22.985686">
        <ele>1332.4</ele>
        <time>2026-05-06T10:57:31.000Z</time>
      </trkpt>
      <trkpt lat="41.794657" lon="22.985688">
        <ele>1332.4</ele>
        <time>2026-05-06T10:57:32.000Z</time>
      </trkpt>
      <trkpt lat="41.794656" lon="22.98569">
        <ele>1332.5</ele>
        <time>2026-05-06T10:57:33.000Z</time>
      </trkpt>
      <trkpt lat="41.794656" lon="22.98569">
        <ele>1332.5</ele>
        <time>2026-05-06T10:57:34.000Z</time>
      </trkpt>
      <trkpt lat="41.794656" lon="22.98569">
        <ele>1332.5</ele>
        <time>2026-05-06T10:57:35.000Z</time>
      </trkpt>
      <trkpt lat="41.794656" lon="22.98569">
        <ele>1332.5</ele>
        <time>2026-05-06T10:57:36.000Z</time>
      </trkpt>
      <trkpt lat="41.794656" lon="22.98569">
        <ele>1332.5</ele>
        <time>2026-05-06T10:57:37.000Z</time>
      </trkpt>
      <trkpt lat="41.794656" lon="22.98569">
        <ele>1332.6</ele>
        <time>2026-05-06T10:57:38.000Z</time>
      </trkpt>
      <trkpt lat="41.794656" lon="22.98569">
        <ele>1332.6</ele>
        <time>2026-05-06T10:57:39.000Z</time>
      </trkpt>
      <trkpt lat="41.794656" lon="22.98569">
        <ele>1332.6</ele>
        <time>2026-05-06T10:57:40.000Z</time>
      </trkpt>
      <trkpt lat="41.794656" lon="22.98569">
        <ele>1332.6</ele>
        <time>2026-05-06T10:57:41.000Z</time>
      </trkpt>
      <trkpt lat="41.794656" lon="22.98569">
        <ele>1332.6</ele>
        <time>2026-05-06T10:57:42.000Z</time>
      </trkpt>
      <trkpt lat="41.794656" lon="22.98569">
        <ele>1332.6</ele>
        <time>2026-05-06T10:57:43.000Z</time>
      </trkpt>
      <trkpt lat="41.794656" lon="22.98569">
        <ele>1332.6</ele>
        <time>2026-05-06T10:57:44.000Z</time>
      </trkpt>
      <trkpt lat="41.794656" lon="22.98569">
        <ele>1332.6</ele>
        <time>2026-05-06T10:57:45.000Z</time>
      </trkpt>
      <trkpt lat="41.794656" lon="22.98569">
        <ele>1332.6</ele>
        <time>2026-05-06T10:57:46.000Z</time>
      </trkpt>
      <trkpt lat="41.794656" lon="22.98569">
        <ele>1332.6</ele>
        <time>2026-05-06T10:57:47.000Z</time>
      </trkpt>
      <trkpt lat="41.794656" lon="22.98569">
        <ele>1332.6</ele>
        <time>2026-05-06T10:57:48.000Z</time>
      </trkpt>
      <trkpt lat="41.794656" lon="22.98569">
        <ele>1332.6</ele>
        <time>2026-05-06T10:57:49.000Z</time>
      </trkpt>
      <trkpt lat="41.794656" lon="22.98569">
        <ele>1332.6</ele>
        <time>2026-05-06T10:57:50.000Z</time>
      </trkpt>
      <trkpt lat="41.794656" lon="22.98569">
        <ele>1332.6</ele>
        <time>2026-05-06T10:57:51.000Z</time>
      </trkpt>
      <trkpt lat="41.794656" lon="22.98569">
        <ele>1332.6</ele>
        <time>2026-05-06T10:57:52.000Z</time>
      </trkpt>
      <trkpt lat="41.794656" lon="22.98569">
        <ele>1332.4</ele>
        <time>2026-05-06T10:57:53.000Z</time>
      </trkpt>
      <trkpt lat="41.794656" lon="22.98569">
        <ele>1332.4</ele>
        <time>2026-05-06T10:57:54.000Z</time>
      </trkpt>
      <trkpt lat="41.794656" lon="22.98569">
        <ele>1332.4</ele>
        <time>2026-05-06T10:57:55.000Z</time>
      </trkpt>
      <trkpt lat="41.794657" lon="22.98569">
        <ele>1332.4</ele>
        <time>2026-05-06T10:57:56.000Z</time>
      </trkpt>
      <trkpt lat="41.794657" lon="22.985689">
        <ele>1332.4</ele>
        <time>2026-05-06T10:57:57.000Z</time>
      </trkpt>
      <trkpt lat="41.794657" lon="22.985689">
        <ele>1332.3</ele>
        <time>2026-05-06T10:57:58.000Z</time>
      </trkpt>
      <trkpt lat="41.794657" lon="22.985689">
        <ele>1332.3</ele>
        <time>2026-05-06T10:57:59.000Z</time>
      </trkpt>
      <trkpt lat="41.794657" lon="22.985688">
        <ele>1332.3</ele>
        <time>2026-05-06T10:58:00.000Z</time>
      </trkpt>
      <trkpt lat="41.794657" lon="22.985688">
        <ele>1332.3</ele>
        <time>2026-05-06T10:58:01.000Z</time>
      </trkpt>
      <trkpt lat="41.794657" lon="22.985688">
        <ele>1332.3</ele>
        <time>2026-05-06T10:58:02.000Z</time>
      </trkpt>
      <trkpt lat="41.794658" lon="22.985688">
        <ele>1332.3</ele>
        <time>2026-05-06T10:58:03.000Z</time>
      </trkpt>
      <trkpt lat="41.794659" lon="22.985687">
        <ele>1332.3</ele>
        <time>2026-05-06T10:58:04.000Z</time>
      </trkpt>
      <trkpt lat="41.79466" lon="22.985687">
        <ele>1332.3</ele>
        <time>2026-05-06T10:58:05.000Z</time>
      </trkpt>
      <trkpt lat="41.79466" lon="22.985686">
        <ele>1332.3</ele>
        <time>2026-05-06T10:58:06.000Z</time>
      </trkpt>
      <trkpt lat="41.794661" lon="22.985686">
        <ele>1332.3</ele>
        <time>2026-05-06T10:58:07.000Z</time>
      </trkpt>
      <trkpt lat="41.794661" lon="22.985686">
        <ele>1332.4</ele>
        <time>2026-05-06T10:58:08.000Z</time>
      </trkpt>
      <trkpt lat="41.794661" lon="22.985686">
        <ele>1332.4</ele>
        <time>2026-05-06T10:58:09.000Z</time>
      </trkpt>
      <trkpt lat="41.794661" lon="22.985686">
        <ele>1332.4</ele>
        <time>2026-05-06T10:58:10.000Z</time>
      </trkpt>
      <trkpt lat="41.794661" lon="22.985686">
        <ele>1332.4</ele>
        <time>2026-05-06T10:58:11.000Z</time>
      </trkpt>
      <trkpt lat="41.794661" lon="22.985686">
        <ele>1332.4</ele>
        <time>2026-05-06T10:58:12.000Z</time>
      </trkpt>
      <trkpt lat="41.794661" lon="22.985686">
        <ele>1332.5</ele>
        <time>2026-05-06T10:58:13.000Z</time>
      </trkpt>
      <trkpt lat="41.794661" lon="22.985686">
        <ele>1332.5</ele>
        <time>2026-05-06T10:58:14.000Z</time>
      </trkpt>
      <trkpt lat="41.794661" lon="22.985686">
        <ele>1332.5</ele>
        <time>2026-05-06T10:58:15.000Z</time>
      </trkpt>
      <trkpt lat="41.794661" lon="22.985686">
        <ele>1332.5</ele>
        <time>2026-05-06T10:58:16.000Z</time>
      </trkpt>
      <trkpt lat="41.794661" lon="22.985686">
        <ele>1332.5</ele>
        <time>2026-05-06T10:58:17.000Z</time>
      </trkpt>
      <trkpt lat="41.794661" lon="22.985686">
        <ele>1332.6</ele>
        <time>2026-05-06T10:58:18.000Z</time>
      </trkpt>
      <trkpt lat="41.794661" lon="22.985686">
        <ele>1332.6</ele>
        <time>2026-05-06T10:58:19.000Z</time>
      </trkpt>
      <trkpt lat="41.794661" lon="22.985686">
        <ele>1332.6</ele>
        <time>2026-05-06T10:58:20.000Z</time>
      </trkpt>
      <trkpt lat="41.79466" lon="22.985686">
        <ele>1332.6</ele>
        <time>2026-05-06T10:58:21.000Z</time>
      </trkpt>
      <trkpt lat="41.79466" lon="22.985686">
        <ele>1332.6</ele>
        <time>2026-05-06T10:58:22.000Z</time>
      </trkpt>
      <trkpt lat="41.79466" lon="22.985687">
        <ele>1332.6</ele>
        <time>2026-05-06T10:58:23.000Z</time>
      </trkpt>
      <trkpt lat="41.79466" lon="22.985687">
        <ele>1332.6</ele>
        <time>2026-05-06T10:58:24.000Z</time>
      </trkpt>
      <trkpt lat="41.79466" lon="22.985686">
        <ele>1332.6</ele>
        <time>2026-05-06T10:58:25.000Z</time>
      </trkpt>
      <trkpt lat="41.79466" lon="22.985685">
        <ele>1332.6</ele>
        <time>2026-05-06T10:58:26.000Z</time>
      </trkpt>
      <trkpt lat="41.79466" lon="22.985684">
        <ele>1332.6</ele>
        <time>2026-05-06T10:58:27.000Z</time>
      </trkpt>
      <trkpt lat="41.794661" lon="22.985682">
        <ele>1332.5</ele>
        <time>2026-05-06T10:58:28.000Z</time>
      </trkpt>
      <trkpt lat="41.794661" lon="22.985682">
        <ele>1332.5</ele>
        <time>2026-05-06T10:58:29.000Z</time>
      </trkpt>
      <trkpt lat="41.794661" lon="22.985682">
        <ele>1332.5</ele>
        <time>2026-05-06T10:58:30.000Z</time>
      </trkpt>
      <trkpt lat="41.794661" lon="22.985683">
        <ele>1332.5</ele>
        <time>2026-05-06T10:58:31.000Z</time>
      </trkpt>
      <trkpt lat="41.794661" lon="22.985685">
        <ele>1332.5</ele>
        <time>2026-05-06T10:58:32.000Z</time>
      </trkpt>
      <trkpt lat="41.79466" lon="22.985686">
        <ele>1332.5</ele>
        <time>2026-05-06T10:58:33.000Z</time>
      </trkpt>
      <trkpt lat="41.79466" lon="22.985687">
        <ele>1332.5</ele>
        <time>2026-05-06T10:58:34.000Z</time>
      </trkpt>
      <trkpt lat="41.79466" lon="22.985686">
        <ele>1332.5</ele>
        <time>2026-05-06T10:58:35.000Z</time>
      </trkpt>
      <trkpt lat="41.794659" lon="22.985685">
        <ele>1332.5</ele>
        <time>2026-05-06T10:58:36.000Z</time>
      </trkpt>
      <trkpt lat="41.794659" lon="22.985683">
        <ele>1332.5</ele>
        <time>2026-05-06T10:58:37.000Z</time>
      </trkpt>
      <trkpt lat="41.794659" lon="22.985682">
        <ele>1332.5</ele>
        <time>2026-05-06T10:58:38.000Z</time>
      </trkpt>
      <trkpt lat="41.794659" lon="22.98568">
        <ele>1332.5</ele>
        <time>2026-05-06T10:58:39.000Z</time>
      </trkpt>
      <trkpt lat="41.794658" lon="22.98568">
        <ele>1332.5</ele>
        <time>2026-05-06T10:58:40.000Z</time>
      </trkpt>
      <trkpt lat="41.794658" lon="22.985679">
        <ele>1332.5</ele>
        <time>2026-05-06T10:58:41.000Z</time>
      </trkpt>
      <trkpt lat="41.794657" lon="22.985679">
        <ele>1332.5</ele>
        <time>2026-05-06T10:58:42.000Z</time>
      </trkpt>
      <trkpt lat="41.794657" lon="22.985678">
        <ele>1332.6</ele>
        <time>2026-05-06T10:58:43.000Z</time>
      </trkpt>
      <trkpt lat="41.794657" lon="22.985679">
        <ele>1332.6</ele>
        <time>2026-05-06T10:58:44.000Z</time>
      </trkpt>
      <trkpt lat="41.794656" lon="22.985679">
        <ele>1332.6</ele>
        <time>2026-05-06T10:58:45.000Z</time>
      </trkpt>
      <trkpt lat="41.794655" lon="22.985678">
        <ele>1332.6</ele>
        <time>2026-05-06T10:58:46.000Z</time>
      </trkpt>
      <trkpt lat="41.794654" lon="22.985677">
        <ele>1332.6</ele>
        <time>2026-05-06T10:58:47.000Z</time>
      </trkpt>
      <trkpt lat="41.794653" lon="22.985676">
        <ele>1332.7</ele>
        <time>2026-05-06T10:58:48.000Z</time>
      </trkpt>
      <trkpt lat="41.794652" lon="22.985675">
        <ele>1332.7</ele>
        <time>2026-05-06T10:58:49.000Z</time>
      </trkpt>
      <trkpt lat="41.794652" lon="22.985675">
        <ele>1332.7</ele>
        <time>2026-05-06T10:58:50.000Z</time>
      </trkpt>
      <trkpt lat="41.794652" lon="22.985674">
        <ele>1332.7</ele>
        <time>2026-05-06T10:58:51.000Z</time>
      </trkpt>
      <trkpt lat="41.794653" lon="22.985673">
        <ele>1332.7</ele>
        <time>2026-05-06T10:58:52.000Z</time>
      </trkpt>
      <trkpt lat="41.794653" lon="22.985673">
        <ele>1332.8</ele>
        <time>2026-05-06T10:58:53.000Z</time>
      </trkpt>
      <trkpt lat="41.794654" lon="22.985672">
        <ele>1332.8</ele>
        <time>2026-05-06T10:58:54.000Z</time>
      </trkpt>
      <trkpt lat="41.794655" lon="22.985672">
        <ele>1332.8</ele>
        <time>2026-05-06T10:58:55.000Z</time>
      </trkpt>
      <trkpt lat="41.794655" lon="22.985672">
        <ele>1332.8</ele>
        <time>2026-05-06T10:58:56.000Z</time>
      </trkpt>
      <trkpt lat="41.794655" lon="22.985672">
        <ele>1332.8</ele>
        <time>2026-05-06T10:58:57.000Z</time>
      </trkpt>
      <trkpt lat="41.794655" lon="22.985672">
        <ele>1332.9</ele>
        <time>2026-05-06T10:58:58.000Z</time>
      </trkpt>
      <trkpt lat="41.794655" lon="22.985672">
        <ele>1332.9</ele>
        <time>2026-05-06T10:58:59.000Z</time>
      </trkpt>
      <trkpt lat="41.794655" lon="22.985672">
        <ele>1332.9</ele>
        <time>2026-05-06T10:59:00.000Z</time>
      </trkpt>
      <trkpt lat="41.794655" lon="22.985672">
        <ele>1332.9</ele>
        <time>2026-05-06T10:59:01.000Z</time>
      </trkpt>
      <trkpt lat="41.794655" lon="22.985671">
        <ele>1332.9</ele>
        <time>2026-05-06T10:59:02.000Z</time>
      </trkpt>
      <trkpt lat="41.794654" lon="22.985671">
        <ele>1332.9</ele>
        <time>2026-05-06T10:59:03.000Z</time>
      </trkpt>
      <trkpt lat="41.794654" lon="22.985671">
        <ele>1332.9</ele>
        <time>2026-05-06T10:59:04.000Z</time>
      </trkpt>
      <trkpt lat="41.794654" lon="22.985671">
        <ele>1332.9</ele>
        <time>2026-05-06T10:59:05.000Z</time>
      </trkpt>
      <trkpt lat="41.794654" lon="22.985671">
        <ele>1332.9</ele>
        <time>2026-05-06T10:59:06.000Z</time>
      </trkpt>
      <trkpt lat="41.794654" lon="22.985671">
        <ele>1332.9</ele>
        <time>2026-05-06T10:59:07.000Z</time>
      </trkpt>
      <trkpt lat="41.794654" lon="22.985671">
        <ele>1332.9</ele>
        <time>2026-05-06T10:59:08.000Z</time>
      </trkpt>
      <trkpt lat="41.794654" lon="22.985672">
        <ele>1332.9</ele>
        <time>2026-05-06T10:59:09.000Z</time>
      </trkpt>
      <trkpt lat="41.794654" lon="22.985672">
        <ele>1332.9</ele>
        <time>2026-05-06T10:59:10.000Z</time>
      </trkpt>
      <trkpt lat="41.794654" lon="22.985673">
        <ele>1332.9</ele>
        <time>2026-05-06T10:59:11.000Z</time>
      </trkpt>
      <trkpt lat="41.794654" lon="22.985673">
        <ele>1332.9</ele>
        <time>2026-05-06T10:59:12.000Z</time>
      </trkpt>
      <trkpt lat="41.794654" lon="22.985673">
        <ele>1333</ele>
        <time>2026-05-06T10:59:13.000Z</time>
      </trkpt>
      <trkpt lat="41.794654" lon="22.985673">
        <ele>1333</ele>
        <time>2026-05-06T10:59:14.000Z</time>
      </trkpt>
      <trkpt lat="41.794654" lon="22.985674">
        <ele>1333</ele>
        <time>2026-05-06T10:59:15.000Z</time>
      </trkpt>
      <trkpt lat="41.794654" lon="22.985675">
        <ele>1333</ele>
        <time>2026-05-06T10:59:16.000Z</time>
      </trkpt>
      <trkpt lat="41.794654" lon="22.985677">
        <ele>1333</ele>
        <time>2026-05-06T10:59:17.000Z</time>
      </trkpt>
      <trkpt lat="41.794654" lon="22.985678">
        <ele>1333</ele>
        <time>2026-05-06T10:59:18.000Z</time>
      </trkpt>
      <trkpt lat="41.794654" lon="22.985679">
        <ele>1333</ele>
        <time>2026-05-06T10:59:19.000Z</time>
      </trkpt>
      <trkpt lat="41.794654" lon="22.985679">
        <ele>1333</ele>
        <time>2026-05-06T10:59:20.000Z</time>
      </trkpt>
      <trkpt lat="41.794653" lon="22.985678">
        <ele>1333</ele>
        <time>2026-05-06T10:59:21.000Z</time>
      </trkpt>
      <trkpt lat="41.794652" lon="22.985678">
        <ele>1333</ele>
        <time>2026-05-06T10:59:22.000Z</time>
      </trkpt>
      <trkpt lat="41.79465" lon="22.985677">
        <ele>1333.1</ele>
        <time>2026-05-06T10:59:23.000Z</time>
      </trkpt>
      <trkpt lat="41.794649" lon="22.985676">
        <ele>1333.1</ele>
        <time>2026-05-06T10:59:24.000Z</time>
      </trkpt>
      <trkpt lat="41.794647" lon="22.985676">
        <ele>1333.1</ele>
        <time>2026-05-06T10:59:25.000Z</time>
      </trkpt>
      <trkpt lat="41.794645" lon="22.985675">
        <ele>1333.1</ele>
        <time>2026-05-06T10:59:26.000Z</time>
      </trkpt>
      <trkpt lat="41.794643" lon="22.985674">
        <ele>1333.1</ele>
        <time>2026-05-06T10:59:27.000Z</time>
      </trkpt>
      <trkpt lat="41.794643" lon="22.985674">
        <ele>1333.1</ele>
        <time>2026-05-06T10:59:28.000Z</time>
      </trkpt>
      <trkpt lat="41.794642" lon="22.985673">
        <ele>1333.1</ele>
        <time>2026-05-06T10:59:29.000Z</time>
      </trkpt>
      <trkpt lat="41.794642" lon="22.985674">
        <ele>1333.1</ele>
        <time>2026-05-06T10:59:30.000Z</time>
      </trkpt>
      <trkpt lat="41.794642" lon="22.985674">
        <ele>1333.1</ele>
        <time>2026-05-06T10:59:31.000Z</time>
      </trkpt>
      <trkpt lat="41.794642" lon="22.985674">
        <ele>1333.1</ele>
        <time>2026-05-06T10:59:32.000Z</time>
      </trkpt>
      <trkpt lat="41.794642" lon="22.985674">
        <ele>1333.2</ele>
        <time>2026-05-06T10:59:33.000Z</time>
      </trkpt>
      <trkpt lat="41.794642" lon="22.985674">
        <ele>1333.2</ele>
        <time>2026-05-06T10:59:34.000Z</time>
      </trkpt>
      <trkpt lat="41.794642" lon="22.985674">
        <ele>1333.2</ele>
        <time>2026-05-06T10:59:35.000Z</time>
      </trkpt>
      <trkpt lat="41.794642" lon="22.985675">
        <ele>1333.2</ele>
        <time>2026-05-06T10:59:36.000Z</time>
      </trkpt>
      <trkpt lat="41.794642" lon="22.985675">
        <ele>1333.2</ele>
        <time>2026-05-06T10:59:37.000Z</time>
      </trkpt>
      <trkpt lat="41.794642" lon="22.985676">
        <ele>1333.2</ele>
        <time>2026-05-06T10:59:38.000Z</time>
      </trkpt>
      <trkpt lat="41.794642" lon="22.985676">
        <ele>1333.2</ele>
        <time>2026-05-06T10:59:39.000Z</time>
      </trkpt>
      <trkpt lat="41.794642" lon="22.985676">
        <ele>1333.2</ele>
        <time>2026-05-06T10:59:40.000Z</time>
      </trkpt>
      <trkpt lat="41.794642" lon="22.985675">
        <ele>1333.2</ele>
        <time>2026-05-06T10:59:41.000Z</time>
      </trkpt>
      <trkpt lat="41.794641" lon="22.985673">
        <ele>1333.2</ele>
        <time>2026-05-06T10:59:42.000Z</time>
      </trkpt>
      <trkpt lat="41.79464" lon="22.98567">
        <ele>1333.2</ele>
        <time>2026-05-06T10:59:43.000Z</time>
      </trkpt>
      <trkpt lat="41.794639" lon="22.985667">
        <ele>1333.2</ele>
        <time>2026-05-06T10:59:44.000Z</time>
      </trkpt>
      <trkpt lat="41.794637" lon="22.985664">
        <ele>1333.2</ele>
        <time>2026-05-06T10:59:45.000Z</time>
      </trkpt>
      <trkpt lat="41.794636" lon="22.98566">
        <ele>1333.2</ele>
        <time>2026-05-06T10:59:46.000Z</time>
      </trkpt>
      <trkpt lat="41.794636" lon="22.985656">
        <ele>1333.2</ele>
        <time>2026-05-06T10:59:47.000Z</time>
      </trkpt>
      <trkpt lat="41.794636" lon="22.985651">
        <ele>1333.2</ele>
        <time>2026-05-06T10:59:48.000Z</time>
      </trkpt>
      <trkpt lat="41.794637" lon="22.985646">
        <ele>1333.2</ele>
        <time>2026-05-06T10:59:49.000Z</time>
      </trkpt>
      <trkpt lat="41.794639" lon="22.98564">
        <ele>1333.2</ele>
        <time>2026-05-06T10:59:50.000Z</time>
      </trkpt>
      <trkpt lat="41.794642" lon="22.985634">
        <ele>1333.2</ele>
        <time>2026-05-06T10:59:51.000Z</time>
      </trkpt>
      <trkpt lat="41.794644" lon="22.985629">
        <ele>1333.2</ele>
        <time>2026-05-06T10:59:52.000Z</time>
      </trkpt>
      <trkpt lat="41.794647" lon="22.985625">
        <ele>1333.6</ele>
        <time>2026-05-06T10:59:53.000Z</time>
      </trkpt>
      <trkpt lat="41.79465" lon="22.985619">
        <ele>1333.6</ele>
        <time>2026-05-06T10:59:54.000Z</time>
      </trkpt>
      <trkpt lat="41.794652" lon="22.985614">
        <ele>1333.6</ele>
        <time>2026-05-06T10:59:55.000Z</time>
      </trkpt>
      <trkpt lat="41.794654" lon="22.985609">
        <ele>1333.6</ele>
        <time>2026-05-06T10:59:56.000Z</time>
      </trkpt>
      <trkpt lat="41.794656" lon="22.985604">
        <ele>1333.6</ele>
        <time>2026-05-06T10:59:57.000Z</time>
      </trkpt>
      <trkpt lat="41.794658" lon="22.9856">
        <ele>1334.6</ele>
        <time>2026-05-06T10:59:58.000Z</time>
      </trkpt>
      <trkpt lat="41.794658" lon="22.985597">
        <ele>1334.6</ele>
        <time>2026-05-06T10:59:59.000Z</time>
      </trkpt>
      <trkpt lat="41.794658" lon="22.985593">
        <ele>1334.6</ele>
        <time>2026-05-06T11:00:00.000Z</time>
      </trkpt>
      <trkpt lat="41.794658" lon="22.985588">
        <ele>1334.6</ele>
        <time>2026-05-06T11:00:01.000Z</time>
      </trkpt>
      <trkpt lat="41.794657" lon="22.985582">
        <ele>1334.6</ele>
        <time>2026-05-06T11:00:02.000Z</time>
      </trkpt>
      <trkpt lat="41.794656" lon="22.985576">
        <ele>1335.2</ele>
        <time>2026-05-06T11:00:03.000Z</time>
      </trkpt>
      <trkpt lat="41.794655" lon="22.98557">
        <ele>1335.2</ele>
        <time>2026-05-06T11:00:04.000Z</time>
      </trkpt>
      <trkpt lat="41.794653" lon="22.985564">
        <ele>1335.2</ele>
        <time>2026-05-06T11:00:05.000Z</time>
      </trkpt>
      <trkpt lat="41.794653" lon="22.985561">
        <ele>1335.2</ele>
        <time>2026-05-06T11:00:06.000Z</time>
      </trkpt>
      <trkpt lat="41.794653" lon="22.985559">
        <ele>1335.2</ele>
        <time>2026-05-06T11:00:07.000Z</time>
      </trkpt>
      <trkpt lat="41.794654" lon="22.985559">
        <ele>1336.4</ele>
        <time>2026-05-06T11:00:08.000Z</time>
      </trkpt>
      <trkpt lat="41.794655" lon="22.985558">
        <ele>1336.4</ele>
        <time>2026-05-06T11:00:09.000Z</time>
      </trkpt>
      <trkpt lat="41.794657" lon="22.985556">
        <ele>1336.4</ele>
        <time>2026-05-06T11:00:10.000Z</time>
      </trkpt>
      <trkpt lat="41.794659" lon="22.985552">
        <ele>1336.4</ele>
        <time>2026-05-06T11:00:11.000Z</time>
      </trkpt>
      <trkpt lat="41.79466" lon="22.985548">
        <ele>1336.4</ele>
        <time>2026-05-06T11:00:12.000Z</time>
      </trkpt>
      <trkpt lat="41.794659" lon="22.985541">
        <ele>1337.3</ele>
        <time>2026-05-06T11:00:13.000Z</time>
      </trkpt>
      <trkpt lat="41.794657" lon="22.985532">
        <ele>1337.3</ele>
        <time>2026-05-06T11:00:14.000Z</time>
      </trkpt>
      <trkpt lat="41.794655" lon="22.985524">
        <ele>1337.3</ele>
        <time>2026-05-06T11:00:15.000Z</time>
      </trkpt>
      <trkpt lat="41.794653" lon="22.985517">
        <ele>1337.3</ele>
        <time>2026-05-06T11:00:16.000Z</time>
      </trkpt>
      <trkpt lat="41.794652" lon="22.98551">
        <ele>1337.3</ele>
        <time>2026-05-06T11:00:17.000Z</time>
      </trkpt>
      <trkpt lat="41.794652" lon="22.985503">
        <ele>1337.6</ele>
        <time>2026-05-06T11:00:18.000Z</time>
      </trkpt>
      <trkpt lat="41.794654" lon="22.985499">
        <ele>1337.6</ele>
        <time>2026-05-06T11:00:19.000Z</time>
      </trkpt>
      <trkpt lat="41.794656" lon="22.985494">
        <ele>1337.6</ele>
        <time>2026-05-06T11:00:20.000Z</time>
      </trkpt>
      <trkpt lat="41.794659" lon="22.985487">
        <ele>1337.6</ele>
        <time>2026-05-06T11:00:21.000Z</time>
      </trkpt>
      <trkpt lat="41.794662" lon="22.98548">
        <ele>1337.6</ele>
        <time>2026-05-06T11:00:22.000Z</time>
      </trkpt>
      <trkpt lat="41.794664" lon="22.985472">
        <ele>1338.4</ele>
        <time>2026-05-06T11:00:23.000Z</time>
      </trkpt>
      <trkpt lat="41.794666" lon="22.985464">
        <ele>1338.4</ele>
        <time>2026-05-06T11:00:24.000Z</time>
      </trkpt>
      <trkpt lat="41.794667" lon="22.985456">
        <ele>1338.4</ele>
        <time>2026-05-06T11:00:25.000Z</time>
      </trkpt>
      <trkpt lat="41.794667" lon="22.985452">
        <ele>1338.4</ele>
        <time>2026-05-06T11:00:26.000Z</time>
      </trkpt>
      <trkpt lat="41.794669" lon="22.985447">
        <ele>1338.4</ele>
        <time>2026-05-06T11:00:27.000Z</time>
      </trkpt>
      <trkpt lat="41.794672" lon="22.985445">
        <ele>1339.5</ele>
        <time>2026-05-06T11:00:28.000Z</time>
      </trkpt>
      <trkpt lat="41.794676" lon="22.985443">
        <ele>1339.5</ele>
        <time>2026-05-06T11:00:29.000Z</time>
      </trkpt>
      <trkpt lat="41.79468" lon="22.985439">
        <ele>1339.5</ele>
        <time>2026-05-06T11:00:30.000Z</time>
      </trkpt>
      <trkpt lat="41.794684" lon="22.985436">
        <ele>1339.5</ele>
        <time>2026-05-06T11:00:31.000Z</time>
      </trkpt>
      <trkpt lat="41.794687" lon="22.985432">
        <ele>1339.5</ele>
        <time>2026-05-06T11:00:32.000Z</time>
      </trkpt>
      <trkpt lat="41.794691" lon="22.985427">
        <ele>1340.2</ele>
        <time>2026-05-06T11:00:33.000Z</time>
      </trkpt>
      <trkpt lat="41.794693" lon="22.985424">
        <ele>1340.2</ele>
        <time>2026-05-06T11:00:34.000Z</time>
      </trkpt>
      <trkpt lat="41.794696" lon="22.98542">
        <ele>1340.2</ele>
        <time>2026-05-06T11:00:35.000Z</time>
      </trkpt>
      <trkpt lat="41.794699" lon="22.985416">
        <ele>1340.2</ele>
        <time>2026-05-06T11:00:36.000Z</time>
      </trkpt>
      <trkpt lat="41.794702" lon="22.985411">
        <ele>1340.2</ele>
        <time>2026-05-06T11:00:37.000Z</time>
      </trkpt>
      <trkpt lat="41.794704" lon="22.985407">
        <ele>1341.3</ele>
        <time>2026-05-06T11:00:38.000Z</time>
      </trkpt>
      <trkpt lat="41.794706" lon="22.985403">
        <ele>1341.3</ele>
        <time>2026-05-06T11:00:39.000Z</time>
      </trkpt>
      <trkpt lat="41.794708" lon="22.9854">
        <ele>1341.3</ele>
        <time>2026-05-06T11:00:40.000Z</time>
      </trkpt>
      <trkpt lat="41.794708" lon="22.985398">
        <ele>1341.3</ele>
        <time>2026-05-06T11:00:41.000Z</time>
      </trkpt>
      <trkpt lat="41.794707" lon="22.985398">
        <ele>1341.3</ele>
        <time>2026-05-06T11:00:42.000Z</time>
      </trkpt>
      <trkpt lat="41.794705" lon="22.985399">
        <ele>1342.2</ele>
        <time>2026-05-06T11:00:43.000Z</time>
      </trkpt>
      <trkpt lat="41.794701" lon="22.985401">
        <ele>1342.2</ele>
        <time>2026-05-06T11:00:44.000Z</time>
      </trkpt>
      <trkpt lat="41.794696" lon="22.985402">
        <ele>1342.2</ele>
        <time>2026-05-06T11:00:45.000Z</time>
      </trkpt>
      <trkpt lat="41.794692" lon="22.985401">
        <ele>1342.2</ele>
        <time>2026-05-06T11:00:46.000Z</time>
      </trkpt>
      <trkpt lat="41.79469" lon="22.985399">
        <ele>1342.2</ele>
        <time>2026-05-06T11:00:47.000Z</time>
      </trkpt>
      <trkpt lat="41.794688" lon="22.985397">
        <ele>1342.5</ele>
        <time>2026-05-06T11:00:48.000Z</time>
      </trkpt>
      <trkpt lat="41.794687" lon="22.985395">
        <ele>1342.5</ele>
        <time>2026-05-06T11:00:49.000Z</time>
      </trkpt>
      <trkpt lat="41.794687" lon="22.985392">
        <ele>1342.5</ele>
        <time>2026-05-06T11:00:50.000Z</time>
      </trkpt>
      <trkpt lat="41.794686" lon="22.985391">
        <ele>1342.5</ele>
        <time>2026-05-06T11:00:51.000Z</time>
      </trkpt>
      <trkpt lat="41.794686" lon="22.985389">
        <ele>1342.5</ele>
        <time>2026-05-06T11:00:52.000Z</time>
      </trkpt>
      <trkpt lat="41.794687" lon="22.985384">
        <ele>1343.1</ele>
        <time>2026-05-06T11:00:53.000Z</time>
      </trkpt>
      <trkpt lat="41.79469" lon="22.985377">
        <ele>1343.1</ele>
        <time>2026-05-06T11:00:54.000Z</time>
      </trkpt>
      <trkpt lat="41.794692" lon="22.985371">
        <ele>1343.1</ele>
        <time>2026-05-06T11:00:55.000Z</time>
      </trkpt>
      <trkpt lat="41.794698" lon="22.985363">
        <ele>1343.1</ele>
        <time>2026-05-06T11:00:56.000Z</time>
      </trkpt>
      <trkpt lat="41.794705" lon="22.985355">
        <ele>1343.1</ele>
        <time>2026-05-06T11:00:57.000Z</time>
      </trkpt>
      <trkpt lat="41.794713" lon="22.985346">
        <ele>1343.7</ele>
        <time>2026-05-06T11:00:58.000Z</time>
      </trkpt>
      <trkpt lat="41.794722" lon="22.985338">
        <ele>1343.7</ele>
        <time>2026-05-06T11:00:59.000Z</time>
      </trkpt>
      <trkpt lat="41.79473" lon="22.98533">
        <ele>1343.7</ele>
        <time>2026-05-06T11:01:00.000Z</time>
      </trkpt>
      <trkpt lat="41.794738" lon="22.98532">
        <ele>1343.7</ele>
        <time>2026-05-06T11:01:01.000Z</time>
      </trkpt>
      <trkpt lat="41.794745" lon="22.98531">
        <ele>1343.7</ele>
        <time>2026-05-06T11:01:02.000Z</time>
      </trkpt>
      <trkpt lat="41.794751" lon="22.9853">
        <ele>1343.9</ele>
        <time>2026-05-06T11:01:03.000Z</time>
      </trkpt>
      <trkpt lat="41.794757" lon="22.98529">
        <ele>1343.9</ele>
        <time>2026-05-06T11:01:04.000Z</time>
      </trkpt>
      <trkpt lat="41.794763" lon="22.98528">
        <ele>1343.9</ele>
        <time>2026-05-06T11:01:05.000Z</time>
      </trkpt>
      <trkpt lat="41.794769" lon="22.98527">
        <ele>1343.9</ele>
        <time>2026-05-06T11:01:06.000Z</time>
      </trkpt>
      <trkpt lat="41.794775" lon="22.985262">
        <ele>1343.9</ele>
        <time>2026-05-06T11:01:07.000Z</time>
      </trkpt>
      <trkpt lat="41.794779" lon="22.985255">
        <ele>1344.3</ele>
        <time>2026-05-06T11:01:08.000Z</time>
      </trkpt>
      <trkpt lat="41.794784" lon="22.985248">
        <ele>1344.3</ele>
        <time>2026-05-06T11:01:09.000Z</time>
      </trkpt>
      <trkpt lat="41.794788" lon="22.985241">
        <ele>1344.3</ele>
        <time>2026-05-06T11:01:10.000Z</time>
      </trkpt>
      <trkpt lat="41.794791" lon="22.985235">
        <ele>1344.3</ele>
        <time>2026-05-06T11:01:11.000Z</time>
      </trkpt>
      <trkpt lat="41.794795" lon="22.985229">
        <ele>1344.3</ele>
        <time>2026-05-06T11:01:12.000Z</time>
      </trkpt>
      <trkpt lat="41.794799" lon="22.985223">
        <ele>1344.7</ele>
        <time>2026-05-06T11:01:13.000Z</time>
      </trkpt>
      <trkpt lat="41.794802" lon="22.985218">
        <ele>1344.7</ele>
        <time>2026-05-06T11:01:14.000Z</time>
      </trkpt>
      <trkpt lat="41.794805" lon="22.985213">
        <ele>1344.7</ele>
        <time>2026-05-06T11:01:15.000Z</time>
      </trkpt>
      <trkpt lat="41.794809" lon="22.985207">
        <ele>1344.7</ele>
        <time>2026-05-06T11:01:16.000Z</time>
      </trkpt>
      <trkpt lat="41.794813" lon="22.985201">
        <ele>1344.7</ele>
        <time>2026-05-06T11:01:17.000Z</time>
      </trkpt>
      <trkpt lat="41.794819" lon="22.985194">
        <ele>1345</ele>
        <time>2026-05-06T11:01:18.000Z</time>
      </trkpt>
      <trkpt lat="41.794825" lon="22.985188">
        <ele>1345</ele>
        <time>2026-05-06T11:01:19.000Z</time>
      </trkpt>
      <trkpt lat="41.794832" lon="22.985181">
        <ele>1345</ele>
        <time>2026-05-06T11:01:20.000Z</time>
      </trkpt>
      <trkpt lat="41.794837" lon="22.985176">
        <ele>1345</ele>
        <time>2026-05-06T11:01:21.000Z</time>
      </trkpt>
      <trkpt lat="41.794842" lon="22.98517">
        <ele>1345</ele>
        <time>2026-05-06T11:01:22.000Z</time>
      </trkpt>
      <trkpt lat="41.794846" lon="22.985163">
        <ele>1345.5</ele>
        <time>2026-05-06T11:01:23.000Z</time>
      </trkpt>
      <trkpt lat="41.79485" lon="22.985157">
        <ele>1345.5</ele>
        <time>2026-05-06T11:01:24.000Z</time>
      </trkpt>
      <trkpt lat="41.794854" lon="22.985152">
        <ele>1345.5</ele>
        <time>2026-05-06T11:01:25.000Z</time>
      </trkpt>
      <trkpt lat="41.794858" lon="22.985147">
        <ele>1345.5</ele>
        <time>2026-05-06T11:01:26.000Z</time>
      </trkpt>
      <trkpt lat="41.794861" lon="22.985144">
        <ele>1345.5</ele>
        <time>2026-05-06T11:01:27.000Z</time>
      </trkpt>
      <trkpt lat="41.794863" lon="22.985142">
        <ele>1345.9</ele>
        <time>2026-05-06T11:01:28.000Z</time>
      </trkpt>
      <trkpt lat="41.794863" lon="22.98514">
        <ele>1345.9</ele>
        <time>2026-05-06T11:01:29.000Z</time>
      </trkpt>
      <trkpt lat="41.794863" lon="22.985139">
        <ele>1345.9</ele>
        <time>2026-05-06T11:01:30.000Z</time>
      </trkpt>
      <trkpt lat="41.794863" lon="22.985137">
        <ele>1345.9</ele>
        <time>2026-05-06T11:01:31.000Z</time>
      </trkpt>
      <trkpt lat="41.794863" lon="22.985135">
        <ele>1345.9</ele>
        <time>2026-05-06T11:01:32.000Z</time>
      </trkpt>
      <trkpt lat="41.794863" lon="22.985133">
        <ele>1346</ele>
        <time>2026-05-06T11:01:33.000Z</time>
      </trkpt>
      <trkpt lat="41.794863" lon="22.985132">
        <ele>1346</ele>
        <time>2026-05-06T11:01:34.000Z</time>
      </trkpt>
      <trkpt lat="41.794863" lon="22.985131">
        <ele>1346</ele>
        <time>2026-05-06T11:01:35.000Z</time>
      </trkpt>
      <trkpt lat="41.794863" lon="22.985131">
        <ele>1346</ele>
        <time>2026-05-06T11:01:36.000Z</time>
      </trkpt>
      <trkpt lat="41.794863" lon="22.985131">
        <ele>1346</ele>
        <time>2026-05-06T11:01:37.000Z</time>
      </trkpt>
      <trkpt lat="41.794863" lon="22.985131">
        <ele>1346.2</ele>
        <time>2026-05-06T11:01:38.000Z</time>
      </trkpt>
      <trkpt lat="41.794864" lon="22.985131">
        <ele>1346.2</ele>
        <time>2026-05-06T11:01:39.000Z</time>
      </trkpt>
      <trkpt lat="41.794864" lon="22.985131">
        <ele>1346.2</ele>
        <time>2026-05-06T11:01:40.000Z</time>
      </trkpt>
      <trkpt lat="41.794864" lon="22.985131">
        <ele>1346.2</ele>
        <time>2026-05-06T11:01:41.000Z</time>
      </trkpt>
      <trkpt lat="41.794865" lon="22.985131">
        <ele>1346.2</ele>
        <time>2026-05-06T11:01:42.000Z</time>
      </trkpt>
      <trkpt lat="41.794865" lon="22.985131">
        <ele>1346.4</ele>
        <time>2026-05-06T11:01:43.000Z</time>
      </trkpt>
      <trkpt lat="41.794866" lon="22.98513">
        <ele>1346.4</ele>
        <time>2026-05-06T11:01:44.000Z</time>
      </trkpt>
      <trkpt lat="41.794867" lon="22.985129">
        <ele>1346.4</ele>
        <time>2026-05-06T11:01:45.000Z</time>
      </trkpt>
      <trkpt lat="41.79487" lon="22.985127">
        <ele>1346.4</ele>
        <time>2026-05-06T11:01:46.000Z</time>
      </trkpt>
      <trkpt lat="41.794873" lon="22.985124">
        <ele>1346.4</ele>
        <time>2026-05-06T11:01:47.000Z</time>
      </trkpt>
      <trkpt lat="41.794877" lon="22.985122">
        <ele>1346.6</ele>
        <time>2026-05-06T11:01:48.000Z</time>
      </trkpt>
      <trkpt lat="41.794881" lon="22.985119">
        <ele>1346.6</ele>
        <time>2026-05-06T11:01:49.000Z</time>
      </trkpt>
      <trkpt lat="41.794886" lon="22.985116">
        <ele>1346.6</ele>
        <time>2026-05-06T11:01:50.000Z</time>
      </trkpt>
      <trkpt lat="41.794891" lon="22.985113">
        <ele>1346.6</ele>
        <time>2026-05-06T11:01:51.000Z</time>
      </trkpt>
      <trkpt lat="41.794897" lon="22.985109">
        <ele>1346.6</ele>
        <time>2026-05-06T11:01:52.000Z</time>
      </trkpt>
      <trkpt lat="41.794904" lon="22.985104">
        <ele>1346.8</ele>
        <time>2026-05-06T11:01:53.000Z</time>
      </trkpt>
      <trkpt lat="41.794911" lon="22.985098">
        <ele>1346.8</ele>
        <time>2026-05-06T11:01:54.000Z</time>
      </trkpt>
      <trkpt lat="41.794917" lon="22.985091">
        <ele>1346.8</ele>
        <time>2026-05-06T11:01:55.000Z</time>
      </trkpt>
      <trkpt lat="41.794923" lon="22.985084">
        <ele>1346.8</ele>
        <time>2026-05-06T11:01:56.000Z</time>
      </trkpt>
      <trkpt lat="41.794928" lon="22.985077">
        <ele>1346.8</ele>
        <time>2026-05-06T11:01:57.000Z</time>
      </trkpt>
      <trkpt lat="41.794932" lon="22.98507">
        <ele>1346.9</ele>
        <time>2026-05-06T11:01:58.000Z</time>
      </trkpt>
      <trkpt lat="41.794935" lon="22.985066">
        <ele>1346.9</ele>
        <time>2026-05-06T11:01:59.000Z</time>
      </trkpt>
      <trkpt lat="41.794939" lon="22.985061">
        <ele>1346.9</ele>
        <time>2026-05-06T11:02:00.000Z</time>
      </trkpt>
      <trkpt lat="41.794942" lon="22.985055">
        <ele>1346.9</ele>
        <time>2026-05-06T11:02:01.000Z</time>
      </trkpt>
      <trkpt lat="41.794946" lon="22.985051">
        <ele>1346.9</ele>
        <time>2026-05-06T11:02:02.000Z</time>
      </trkpt>
      <trkpt lat="41.794951" lon="22.985047">
        <ele>1347</ele>
        <time>2026-05-06T11:02:03.000Z</time>
      </trkpt>
      <trkpt lat="41.794955" lon="22.985041">
        <ele>1347</ele>
        <time>2026-05-06T11:02:04.000Z</time>
      </trkpt>
      <trkpt lat="41.79496" lon="22.985035">
        <ele>1347</ele>
        <time>2026-05-06T11:02:05.000Z</time>
      </trkpt>
      <trkpt lat="41.794965" lon="22.985029">
        <ele>1347</ele>
        <time>2026-05-06T11:02:06.000Z</time>
      </trkpt>
      <trkpt lat="41.794968" lon="22.985022">
        <ele>1347</ele>
        <time>2026-05-06T11:02:07.000Z</time>
      </trkpt>
      <trkpt lat="41.794974" lon="22.985014">
        <ele>1347.3</ele>
        <time>2026-05-06T11:02:08.000Z</time>
      </trkpt>
      <trkpt lat="41.794982" lon="22.985006">
        <ele>1347.3</ele>
        <time>2026-05-06T11:02:09.000Z</time>
      </trkpt>
      <trkpt lat="41.79499" lon="22.984999">
        <ele>1347.3</ele>
        <time>2026-05-06T11:02:10.000Z</time>
      </trkpt>
      <trkpt lat="41.795001" lon="22.984991">
        <ele>1347.3</ele>
        <time>2026-05-06T11:02:11.000Z</time>
      </trkpt>
      <trkpt lat="41.795015" lon="22.984983">
        <ele>1347.3</ele>
        <time>2026-05-06T11:02:12.000Z</time>
      </trkpt>
      <trkpt lat="41.795029" lon="22.984976">
        <ele>1347.8</ele>
        <time>2026-05-06T11:02:13.000Z</time>
      </trkpt>
      <trkpt lat="41.795043" lon="22.984968">
        <ele>1347.8</ele>
        <time>2026-05-06T11:02:14.000Z</time>
      </trkpt>
      <trkpt lat="41.795057" lon="22.98496">
        <ele>1347.8</ele>
        <time>2026-05-06T11:02:15.000Z</time>
      </trkpt>
      <trkpt lat="41.795072" lon="22.984955">
        <ele>1347.8</ele>
        <time>2026-05-06T11:02:16.000Z</time>
      </trkpt>
      <trkpt lat="41.795087" lon="22.984949">
        <ele>1347.8</ele>
        <time>2026-05-06T11:02:17.000Z</time>
      </trkpt>
      <trkpt lat="41.795101" lon="22.984945">
        <ele>1348</ele>
        <time>2026-05-06T11:02:18.000Z</time>
      </trkpt>
      <trkpt lat="41.795114" lon="22.984941">
        <ele>1348</ele>
        <time>2026-05-06T11:02:19.000Z</time>
      </trkpt>
      <trkpt lat="41.795128" lon="22.984939">
        <ele>1348</ele>
        <time>2026-05-06T11:02:20.000Z</time>
      </trkpt>
      <trkpt lat="41.795141" lon="22.984936">
        <ele>1348</ele>
        <time>2026-05-06T11:02:21.000Z</time>
      </trkpt>
      <trkpt lat="41.795154" lon="22.984934">
        <ele>1348</ele>
        <time>2026-05-06T11:02:22.000Z</time>
      </trkpt>
      <trkpt lat="41.795167" lon="22.984933">
        <ele>1348.7</ele>
        <time>2026-05-06T11:02:23.000Z</time>
      </trkpt>
      <trkpt lat="41.795182" lon="22.984932">
        <ele>1348.7</ele>
        <time>2026-05-06T11:02:24.000Z</time>
      </trkpt>
      <trkpt lat="41.795198" lon="22.98493">
        <ele>1348.7</ele>
        <time>2026-05-06T11:02:25.000Z</time>
      </trkpt>
      <trkpt lat="41.795211" lon="22.984928">
        <ele>1348.7</ele>
        <time>2026-05-06T11:02:26.000Z</time>
      </trkpt>
      <trkpt lat="41.795224" lon="22.984924">
        <ele>1348.7</ele>
        <time>2026-05-06T11:02:27.000Z</time>
      </trkpt>
      <trkpt lat="41.795238" lon="22.98492">
        <ele>1349.7</ele>
        <time>2026-05-06T11:02:28.000Z</time>
      </trkpt>
      <trkpt lat="41.795252" lon="22.984916">
        <ele>1349.7</ele>
        <time>2026-05-06T11:02:29.000Z</time>
      </trkpt>
      <trkpt lat="41.795265" lon="22.984913">
        <ele>1349.7</ele>
        <time>2026-05-06T11:02:30.000Z</time>
      </trkpt>
      <trkpt lat="41.79528" lon="22.98491">
        <ele>1349.7</ele>
        <time>2026-05-06T11:02:31.000Z</time>
      </trkpt>
      <trkpt lat="41.795296" lon="22.984908">
        <ele>1349.7</ele>
        <time>2026-05-06T11:02:32.000Z</time>
      </trkpt>
      <trkpt lat="41.795312" lon="22.984906">
        <ele>1350.3</ele>
        <time>2026-05-06T11:02:33.000Z</time>
      </trkpt>
      <trkpt lat="41.795328" lon="22.984903">
        <ele>1350.3</ele>
        <time>2026-05-06T11:02:34.000Z</time>
      </trkpt>
      <trkpt lat="41.795343" lon="22.984898">
        <ele>1350.3</ele>
        <time>2026-05-06T11:02:35.000Z</time>
      </trkpt>
      <trkpt lat="41.795358" lon="22.984894">
        <ele>1350.3</ele>
        <time>2026-05-06T11:02:36.000Z</time>
      </trkpt>
      <trkpt lat="41.795372" lon="22.984891">
        <ele>1350.3</ele>
        <time>2026-05-06T11:02:37.000Z</time>
      </trkpt>
      <trkpt lat="41.795386" lon="22.984887">
        <ele>1351.2</ele>
        <time>2026-05-06T11:02:38.000Z</time>
      </trkpt>
      <trkpt lat="41.795401" lon="22.984883">
        <ele>1351.2</ele>
        <time>2026-05-06T11:02:39.000Z</time>
      </trkpt>
      <trkpt lat="41.795415" lon="22.984881">
        <ele>1351.2</ele>
        <time>2026-05-06T11:02:40.000Z</time>
      </trkpt>
      <trkpt lat="41.795431" lon="22.984879">
        <ele>1351.2</ele>
        <time>2026-05-06T11:02:41.000Z</time>
      </trkpt>
      <trkpt lat="41.795448" lon="22.984878">
        <ele>1351.2</ele>
        <time>2026-05-06T11:02:42.000Z</time>
      </trkpt>
      <trkpt lat="41.795464" lon="22.984876">
        <ele>1351.9</ele>
        <time>2026-05-06T11:02:43.000Z</time>
      </trkpt>
      <trkpt lat="41.795479" lon="22.984874">
        <ele>1351.9</ele>
        <time>2026-05-06T11:02:44.000Z</time>
      </trkpt>
      <trkpt lat="41.795495" lon="22.984873">
        <ele>1351.9</ele>
        <time>2026-05-06T11:02:45.000Z</time>
      </trkpt>
      <trkpt lat="41.79551" lon="22.984871">
        <ele>1351.9</ele>
        <time>2026-05-06T11:02:46.000Z</time>
      </trkpt>
      <trkpt lat="41.795524" lon="22.984867">
        <ele>1351.9</ele>
        <time>2026-05-06T11:02:47.000Z</time>
      </trkpt>
      <trkpt lat="41.795538" lon="22.984862">
        <ele>1352.2</ele>
        <time>2026-05-06T11:02:48.000Z</time>
      </trkpt>
      <trkpt lat="41.795551" lon="22.984858">
        <ele>1352.2</ele>
        <time>2026-05-06T11:02:49.000Z</time>
      </trkpt>
      <trkpt lat="41.795562" lon="22.98485">
        <ele>1352.2</ele>
        <time>2026-05-06T11:02:50.000Z</time>
      </trkpt>
      <trkpt lat="41.795574" lon="22.984842">
        <ele>1352.2</ele>
        <time>2026-05-06T11:02:51.000Z</time>
      </trkpt>
      <trkpt lat="41.795585" lon="22.984835">
        <ele>1352.2</ele>
        <time>2026-05-06T11:02:52.000Z</time>
      </trkpt>
      <trkpt lat="41.795596" lon="22.984828">
        <ele>1352.7</ele>
        <time>2026-05-06T11:02:53.000Z</time>
      </trkpt>
      <trkpt lat="41.795608" lon="22.98482">
        <ele>1352.7</ele>
        <time>2026-05-06T11:02:54.000Z</time>
      </trkpt>
      <trkpt lat="41.79562" lon="22.984812">
        <ele>1352.7</ele>
        <time>2026-05-06T11:02:55.000Z</time>
      </trkpt>
      <trkpt lat="41.795632" lon="22.984804">
        <ele>1352.7</ele>
        <time>2026-05-06T11:02:56.000Z</time>
      </trkpt>
      <trkpt lat="41.795644" lon="22.984795">
        <ele>1352.7</ele>
        <time>2026-05-06T11:02:57.000Z</time>
      </trkpt>
      <trkpt lat="41.795656" lon="22.984786">
        <ele>1352.9</ele>
        <time>2026-05-06T11:02:58.000Z</time>
      </trkpt>
      <trkpt lat="41.795668" lon="22.984777">
        <ele>1352.9</ele>
        <time>2026-05-06T11:02:59.000Z</time>
      </trkpt>
      <trkpt lat="41.795681" lon="22.984767">
        <ele>1352.9</ele>
        <time>2026-05-06T11:03:00.000Z</time>
      </trkpt>
      <trkpt lat="41.795694" lon="22.984757">
        <ele>1352.9</ele>
        <time>2026-05-06T11:03:01.000Z</time>
      </trkpt>
      <trkpt lat="41.795706" lon="22.984744">
        <ele>1352.9</ele>
        <time>2026-05-06T11:03:02.000Z</time>
      </trkpt>
      <trkpt lat="41.795718" lon="22.984732">
        <ele>1353</ele>
        <time>2026-05-06T11:03:03.000Z</time>
      </trkpt>
      <trkpt lat="41.795728" lon="22.984719">
        <ele>1353</ele>
        <time>2026-05-06T11:03:04.000Z</time>
      </trkpt>
      <trkpt lat="41.795737" lon="22.984708">
        <ele>1353</ele>
        <time>2026-05-06T11:03:05.000Z</time>
      </trkpt>
      <trkpt lat="41.795745" lon="22.984696">
        <ele>1353</ele>
        <time>2026-05-06T11:03:06.000Z</time>
      </trkpt>
      <trkpt lat="41.795754" lon="22.984685">
        <ele>1353</ele>
        <time>2026-05-06T11:03:07.000Z</time>
      </trkpt>
      <trkpt lat="41.795762" lon="22.984674">
        <ele>1353.2</ele>
        <time>2026-05-06T11:03:08.000Z</time>
      </trkpt>
      <trkpt lat="41.795771" lon="22.984662">
        <ele>1353.2</ele>
        <time>2026-05-06T11:03:09.000Z</time>
      </trkpt>
      <trkpt lat="41.795779" lon="22.984651">
        <ele>1353.2</ele>
        <time>2026-05-06T11:03:10.000Z</time>
      </trkpt>
      <trkpt lat="41.795787" lon="22.98464">
        <ele>1353.2</ele>
        <time>2026-05-06T11:03:11.000Z</time>
      </trkpt>
      <trkpt lat="41.795794" lon="22.984629">
        <ele>1353.2</ele>
        <time>2026-05-06T11:03:12.000Z</time>
      </trkpt>
      <trkpt lat="41.795801" lon="22.984617">
        <ele>1353.8</ele>
        <time>2026-05-06T11:03:13.000Z</time>
      </trkpt>
      <trkpt lat="41.795808" lon="22.984605">
        <ele>1353.8</ele>
        <time>2026-05-06T11:03:14.000Z</time>
      </trkpt>
      <trkpt lat="41.795816" lon="22.984593">
        <ele>1353.8</ele>
        <time>2026-05-06T11:03:15.000Z</time>
      </trkpt>
      <trkpt lat="41.795823" lon="22.98458">
        <ele>1353.8</ele>
        <time>2026-05-06T11:03:16.000Z</time>
      </trkpt>
      <trkpt lat="41.795831" lon="22.984567">
        <ele>1353.8</ele>
        <time>2026-05-06T11:03:17.000Z</time>
      </trkpt>
      <trkpt lat="41.795838" lon="22.984554">
        <ele>1354.3</ele>
        <time>2026-05-06T11:03:18.000Z</time>
      </trkpt>
      <trkpt lat="41.795844" lon="22.984544">
        <ele>1354.3</ele>
        <time>2026-05-06T11:03:19.000Z</time>
      </trkpt>
      <trkpt lat="41.79585" lon="22.984533">
        <ele>1354.3</ele>
        <time>2026-05-06T11:03:20.000Z</time>
      </trkpt>
      <trkpt lat="41.795855" lon="22.984523">
        <ele>1354.3</ele>
        <time>2026-05-06T11:03:21.000Z</time>
      </trkpt>
      <trkpt lat="41.795859" lon="22.984513">
        <ele>1354.3</ele>
        <time>2026-05-06T11:03:22.000Z</time>
      </trkpt>
      <trkpt lat="41.795864" lon="22.984503">
        <ele>1355.6</ele>
        <time>2026-05-06T11:03:23.000Z</time>
      </trkpt>
      <trkpt lat="41.795868" lon="22.984492">
        <ele>1355.6</ele>
        <time>2026-05-06T11:03:24.000Z</time>
      </trkpt>
      <trkpt lat="41.795871" lon="22.984481">
        <ele>1355.6</ele>
        <time>2026-05-06T11:03:25.000Z</time>
      </trkpt>
      <trkpt lat="41.795874" lon="22.98447">
        <ele>1355.6</ele>
        <time>2026-05-06T11:03:26.000Z</time>
      </trkpt>
      <trkpt lat="41.795877" lon="22.984459">
        <ele>1355.6</ele>
        <time>2026-05-06T11:03:27.000Z</time>
      </trkpt>
      <trkpt lat="41.79588" lon="22.984447">
        <ele>1357</ele>
        <time>2026-05-06T11:03:28.000Z</time>
      </trkpt>
      <trkpt lat="41.795884" lon="22.984433">
        <ele>1357</ele>
        <time>2026-05-06T11:03:29.000Z</time>
      </trkpt>
      <trkpt lat="41.795889" lon="22.98442">
        <ele>1357</ele>
        <time>2026-05-06T11:03:30.000Z</time>
      </trkpt>
      <trkpt lat="41.795893" lon="22.984406">
        <ele>1357</ele>
        <time>2026-05-06T11:03:31.000Z</time>
      </trkpt>
      <trkpt lat="41.795897" lon="22.984393">
        <ele>1357</ele>
        <time>2026-05-06T11:03:32.000Z</time>
      </trkpt>
      <trkpt lat="41.795902" lon="22.98438">
        <ele>1357.7</ele>
        <time>2026-05-06T11:03:33.000Z</time>
      </trkpt>
      <trkpt lat="41.795905" lon="22.984367">
        <ele>1357.7</ele>
        <time>2026-05-06T11:03:34.000Z</time>
      </trkpt>
      <trkpt lat="41.795907" lon="22.984357">
        <ele>1357.7</ele>
        <time>2026-05-06T11:03:35.000Z</time>
      </trkpt>
      <trkpt lat="41.795909" lon="22.984349">
        <ele>1357.7</ele>
        <time>2026-05-06T11:03:36.000Z</time>
      </trkpt>
      <trkpt lat="41.795911" lon="22.984342">
        <ele>1357.7</ele>
        <time>2026-05-06T11:03:37.000Z</time>
      </trkpt>
      <trkpt lat="41.795911" lon="22.984339">
        <ele>1359</ele>
        <time>2026-05-06T11:03:38.000Z</time>
      </trkpt>
      <trkpt lat="41.795912" lon="22.984338">
        <ele>1359</ele>
        <time>2026-05-06T11:03:39.000Z</time>
      </trkpt>
      <trkpt lat="41.795912" lon="22.984338">
        <ele>1359</ele>
        <time>2026-05-06T11:03:40.000Z</time>
      </trkpt>
      <trkpt lat="41.795913" lon="22.984337">
        <ele>1359</ele>
        <time>2026-05-06T11:03:41.000Z</time>
      </trkpt>
      <trkpt lat="41.795913" lon="22.984337">
        <ele>1359</ele>
        <time>2026-05-06T11:03:42.000Z</time>
      </trkpt>
      <trkpt lat="41.795913" lon="22.984337">
        <ele>1360.1</ele>
        <time>2026-05-06T11:03:43.000Z</time>
      </trkpt>
      <trkpt lat="41.795913" lon="22.984337">
        <ele>1360.1</ele>
        <time>2026-05-06T11:03:44.000Z</time>
      </trkpt>
      <trkpt lat="41.795913" lon="22.984337">
        <ele>1360.1</ele>
        <time>2026-05-06T11:03:45.000Z</time>
      </trkpt>
      <trkpt lat="41.795914" lon="22.984337">
        <ele>1360.1</ele>
        <time>2026-05-06T11:03:46.000Z</time>
      </trkpt>
      <trkpt lat="41.795914" lon="22.984337">
        <ele>1360.1</ele>
        <time>2026-05-06T11:03:47.000Z</time>
      </trkpt>
      <trkpt lat="41.795914" lon="22.984337">
        <ele>1360.5</ele>
        <time>2026-05-06T11:03:48.000Z</time>
      </trkpt>
      <trkpt lat="41.795914" lon="22.984337">
        <ele>1360.5</ele>
        <time>2026-05-06T11:03:49.000Z</time>
      </trkpt>
      <trkpt lat="41.795914" lon="22.984336">
        <ele>1360.5</ele>
        <time>2026-05-06T11:03:50.000Z</time>
      </trkpt>
      <trkpt lat="41.795912" lon="22.984332">
        <ele>1360.5</ele>
        <time>2026-05-06T11:03:51.000Z</time>
      </trkpt>
      <trkpt lat="41.79591" lon="22.984327">
        <ele>1360.5</ele>
        <time>2026-05-06T11:03:52.000Z</time>
      </trkpt>
      <trkpt lat="41.795908" lon="22.984319">
        <ele>1361</ele>
        <time>2026-05-06T11:03:53.000Z</time>
      </trkpt>
      <trkpt lat="41.795905" lon="22.984309">
        <ele>1361</ele>
        <time>2026-05-06T11:03:54.000Z</time>
      </trkpt>
      <trkpt lat="41.795903" lon="22.984299">
        <ele>1361</ele>
        <time>2026-05-06T11:03:55.000Z</time>
      </trkpt>
      <trkpt lat="41.795899" lon="22.984289">
        <ele>1361</ele>
        <time>2026-05-06T11:03:56.000Z</time>
      </trkpt>
      <trkpt lat="41.795897" lon="22.984277">
        <ele>1361</ele>
        <time>2026-05-06T11:03:57.000Z</time>
      </trkpt>
      <trkpt lat="41.795894" lon="22.984266">
        <ele>1361.1</ele>
        <time>2026-05-06T11:03:58.000Z</time>
      </trkpt>
      <trkpt lat="41.795891" lon="22.984255">
        <ele>1361.1</ele>
        <time>2026-05-06T11:03:59.000Z</time>
      </trkpt>
      <trkpt lat="41.795888" lon="22.984244">
        <ele>1361.1</ele>
        <time>2026-05-06T11:04:00.000Z</time>
      </trkpt>
      <trkpt lat="41.795885" lon="22.984233">
        <ele>1361.1</ele>
        <time>2026-05-06T11:04:01.000Z</time>
      </trkpt>
      <trkpt lat="41.795883" lon="22.984223">
        <ele>1361.1</ele>
        <time>2026-05-06T11:04:02.000Z</time>
      </trkpt>
      <trkpt lat="41.795881" lon="22.984214">
        <ele>1361.2</ele>
        <time>2026-05-06T11:04:03.000Z</time>
      </trkpt>
      <trkpt lat="41.795879" lon="22.984205">
        <ele>1361.2</ele>
        <time>2026-05-06T11:04:04.000Z</time>
      </trkpt>
      <trkpt lat="41.795877" lon="22.984195">
        <ele>1361.2</ele>
        <time>2026-05-06T11:04:05.000Z</time>
      </trkpt>
      <trkpt lat="41.795875" lon="22.984185">
        <ele>1361.2</ele>
        <time>2026-05-06T11:04:06.000Z</time>
      </trkpt>
      <trkpt lat="41.795874" lon="22.984175">
        <ele>1361.2</ele>
        <time>2026-05-06T11:04:07.000Z</time>
      </trkpt>
      <trkpt lat="41.795872" lon="22.984165">
        <ele>1361.8</ele>
        <time>2026-05-06T11:04:08.000Z</time>
      </trkpt>
      <trkpt lat="41.795871" lon="22.984154">
        <ele>1361.8</ele>
        <time>2026-05-06T11:04:09.000Z</time>
      </trkpt>
      <trkpt lat="41.795871" lon="22.984143">
        <ele>1361.8</ele>
        <time>2026-05-06T11:04:10.000Z</time>
      </trkpt>
      <trkpt lat="41.795871" lon="22.984132">
        <ele>1361.8</ele>
        <time>2026-05-06T11:04:11.000Z</time>
      </trkpt>
      <trkpt lat="41.795872" lon="22.984121">
        <ele>1361.8</ele>
        <time>2026-05-06T11:04:12.000Z</time>
      </trkpt>
      <trkpt lat="41.795874" lon="22.98411">
        <ele>1362.9</ele>
        <time>2026-05-06T11:04:13.000Z</time>
      </trkpt>
      <trkpt lat="41.795875" lon="22.984098">
        <ele>1362.9</ele>
        <time>2026-05-06T11:04:14.000Z</time>
      </trkpt>
      <trkpt lat="41.795876" lon="22.984085">
        <ele>1362.9</ele>
        <time>2026-05-06T11:04:15.000Z</time>
      </trkpt>
      <trkpt lat="41.795875" lon="22.984071">
        <ele>1362.9</ele>
        <time>2026-05-06T11:04:16.000Z</time>
      </trkpt>
      <trkpt lat="41.795874" lon="22.984056">
        <ele>1362.9</ele>
        <time>2026-05-06T11:04:17.000Z</time>
      </trkpt>
      <trkpt lat="41.795871" lon="22.984042">
        <ele>1363.5</ele>
        <time>2026-05-06T11:04:18.000Z</time>
      </trkpt>
      <trkpt lat="41.795869" lon="22.984028">
        <ele>1363.5</ele>
        <time>2026-05-06T11:04:19.000Z</time>
      </trkpt>
      <trkpt lat="41.795867" lon="22.984016">
        <ele>1363.5</ele>
        <time>2026-05-06T11:04:20.000Z</time>
      </trkpt>
      <trkpt lat="41.795865" lon="22.984004">
        <ele>1363.5</ele>
        <time>2026-05-06T11:04:21.000Z</time>
      </trkpt>
      <trkpt lat="41.795862" lon="22.983989">
        <ele>1363.5</ele>
        <time>2026-05-06T11:04:22.000Z</time>
      </trkpt>
      <trkpt lat="41.795858" lon="22.983975">
        <ele>1364.7</ele>
        <time>2026-05-06T11:04:23.000Z</time>
      </trkpt>
      <trkpt lat="41.795854" lon="22.98396">
        <ele>1364.7</ele>
        <time>2026-05-06T11:04:24.000Z</time>
      </trkpt>
      <trkpt lat="41.795849" lon="22.983944">
        <ele>1364.7</ele>
        <time>2026-05-06T11:04:25.000Z</time>
      </trkpt>
      <trkpt lat="41.795843" lon="22.983928">
        <ele>1364.7</ele>
        <time>2026-05-06T11:04:26.000Z</time>
      </trkpt>
      <trkpt lat="41.795836" lon="22.983915">
        <ele>1364.7</ele>
        <time>2026-05-06T11:04:27.000Z</time>
      </trkpt>
      <trkpt lat="41.795831" lon="22.983902">
        <ele>1365.9</ele>
        <time>2026-05-06T11:04:28.000Z</time>
      </trkpt>
      <trkpt lat="41.795827" lon="22.983889">
        <ele>1365.9</ele>
        <time>2026-05-06T11:04:29.000Z</time>
      </trkpt>
      <trkpt lat="41.795824" lon="22.983878">
        <ele>1365.9</ele>
        <time>2026-05-06T11:04:30.000Z</time>
      </trkpt>
      <trkpt lat="41.795822" lon="22.983865">
        <ele>1365.9</ele>
        <time>2026-05-06T11:04:31.000Z</time>
      </trkpt>
      <trkpt lat="41.795821" lon="22.983853">
        <ele>1365.9</ele>
        <time>2026-05-06T11:04:32.000Z</time>
      </trkpt>
      <trkpt lat="41.79582" lon="22.983841">
        <ele>1366.4</ele>
        <time>2026-05-06T11:04:33.000Z</time>
      </trkpt>
      <trkpt lat="41.795817" lon="22.983829">
        <ele>1366.4</ele>
        <time>2026-05-06T11:04:34.000Z</time>
      </trkpt>
      <trkpt lat="41.795813" lon="22.983817">
        <ele>1366.4</ele>
        <time>2026-05-06T11:04:35.000Z</time>
      </trkpt>
      <trkpt lat="41.795807" lon="22.983806">
        <ele>1366.4</ele>
        <time>2026-05-06T11:04:36.000Z</time>
      </trkpt>
      <trkpt lat="41.795801" lon="22.983796">
        <ele>1366.4</ele>
        <time>2026-05-06T11:04:37.000Z</time>
      </trkpt>
      <trkpt lat="41.795793" lon="22.983786">
        <ele>1367.4</ele>
        <time>2026-05-06T11:04:38.000Z</time>
      </trkpt>
      <trkpt lat="41.795787" lon="22.983777">
        <ele>1367.4</ele>
        <time>2026-05-06T11:04:39.000Z</time>
      </trkpt>
      <trkpt lat="41.795781" lon="22.983768">
        <ele>1367.4</ele>
        <time>2026-05-06T11:04:40.000Z</time>
      </trkpt>
      <trkpt lat="41.795775" lon="22.98376">
        <ele>1367.4</ele>
        <time>2026-05-06T11:04:41.000Z</time>
      </trkpt>
      <trkpt lat="41.79577" lon="22.983752">
        <ele>1367.4</ele>
        <time>2026-05-06T11:04:42.000Z</time>
      </trkpt>
      <trkpt lat="41.795765" lon="22.983745">
        <ele>1368.3</ele>
        <time>2026-05-06T11:04:43.000Z</time>
      </trkpt>
      <trkpt lat="41.79576" lon="22.983737">
        <ele>1368.3</ele>
        <time>2026-05-06T11:04:44.000Z</time>
      </trkpt>
      <trkpt lat="41.795756" lon="22.983729">
        <ele>1368.3</ele>
        <time>2026-05-06T11:04:45.000Z</time>
      </trkpt>
      <trkpt lat="41.795752" lon="22.983721">
        <ele>1368.3</ele>
        <time>2026-05-06T11:04:46.000Z</time>
      </trkpt>
      <trkpt lat="41.795748" lon="22.983714">
        <ele>1368.3</ele>
        <time>2026-05-06T11:04:47.000Z</time>
      </trkpt>
      <trkpt lat="41.795745" lon="22.983707">
        <ele>1368.7</ele>
        <time>2026-05-06T11:04:48.000Z</time>
      </trkpt>
      <trkpt lat="41.795741" lon="22.9837">
        <ele>1368.7</ele>
        <time>2026-05-06T11:04:49.000Z</time>
      </trkpt>
      <trkpt lat="41.795737" lon="22.983692">
        <ele>1368.7</ele>
        <time>2026-05-06T11:04:50.000Z</time>
      </trkpt>
      <trkpt lat="41.795732" lon="22.983685">
        <ele>1368.7</ele>
        <time>2026-05-06T11:04:51.000Z</time>
      </trkpt>
      <trkpt lat="41.795726" lon="22.983676">
        <ele>1368.7</ele>
        <time>2026-05-06T11:04:52.000Z</time>
      </trkpt>
      <trkpt lat="41.795719" lon="22.983668">
        <ele>1369.4</ele>
        <time>2026-05-06T11:04:53.000Z</time>
      </trkpt>
      <trkpt lat="41.795713" lon="22.98366">
        <ele>1369.4</ele>
        <time>2026-05-06T11:04:54.000Z</time>
      </trkpt>
      <trkpt lat="41.795707" lon="22.983653">
        <ele>1369.4</ele>
        <time>2026-05-06T11:04:55.000Z</time>
      </trkpt>
      <trkpt lat="41.795702" lon="22.983648">
        <ele>1369.4</ele>
        <time>2026-05-06T11:04:56.000Z</time>
      </trkpt>
      <trkpt lat="41.795699" lon="22.983645">
        <ele>1369.4</ele>
        <time>2026-05-06T11:04:57.000Z</time>
      </trkpt>
      <trkpt lat="41.795696" lon="22.983644">
        <ele>1369.9</ele>
        <time>2026-05-06T11:04:58.000Z</time>
      </trkpt>
      <trkpt lat="41.795693" lon="22.983643">
        <ele>1369.9</ele>
        <time>2026-05-06T11:04:59.000Z</time>
      </trkpt>
      <trkpt lat="41.795692" lon="22.983643">
        <ele>1369.9</ele>
        <time>2026-05-06T11:05:00.000Z</time>
      </trkpt>
      <trkpt lat="41.795691" lon="22.983643">
        <ele>1369.9</ele>
        <time>2026-05-06T11:05:01.000Z</time>
      </trkpt>
      <trkpt lat="41.795689" lon="22.983642">
        <ele>1369.9</ele>
        <time>2026-05-06T11:05:02.000Z</time>
      </trkpt>
      <trkpt lat="41.795689" lon="22.98364">
        <ele>1370.2</ele>
        <time>2026-05-06T11:05:03.000Z</time>
      </trkpt>
      <trkpt lat="41.795688" lon="22.983639">
        <ele>1370.2</ele>
        <time>2026-05-06T11:05:04.000Z</time>
      </trkpt>
      <trkpt lat="41.795688" lon="22.983638">
        <ele>1370.2</ele>
        <time>2026-05-06T11:05:05.000Z</time>
      </trkpt>
      <trkpt lat="41.795688" lon="22.983637">
        <ele>1370.2</ele>
        <time>2026-05-06T11:05:06.000Z</time>
      </trkpt>
      <trkpt lat="41.795687" lon="22.983635">
        <ele>1370.2</ele>
        <time>2026-05-06T11:05:07.000Z</time>
      </trkpt>
      <trkpt lat="41.795687" lon="22.983632">
        <ele>1370.9</ele>
        <time>2026-05-06T11:05:08.000Z</time>
      </trkpt>
      <trkpt lat="41.795685" lon="22.983627">
        <ele>1370.9</ele>
        <time>2026-05-06T11:05:09.000Z</time>
      </trkpt>
      <trkpt lat="41.795681" lon="22.983619">
        <ele>1370.9</ele>
        <time>2026-05-06T11:05:10.000Z</time>
      </trkpt>
      <trkpt lat="41.795675" lon="22.983609">
        <ele>1370.9</ele>
        <time>2026-05-06T11:05:11.000Z</time>
      </trkpt>
      <trkpt lat="41.795668" lon="22.9836">
        <ele>1370.9</ele>
        <time>2026-05-06T11:05:12.000Z</time>
      </trkpt>
      <trkpt lat="41.795659" lon="22.983592">
        <ele>1371.3</ele>
        <time>2026-05-06T11:05:13.000Z</time>
      </trkpt>
      <trkpt lat="41.79565" lon="22.983584">
        <ele>1371.3</ele>
        <time>2026-05-06T11:05:14.000Z</time>
      </trkpt>
      <trkpt lat="41.795642" lon="22.983577">
        <ele>1371.3</ele>
        <time>2026-05-06T11:05:15.000Z</time>
      </trkpt>
      <trkpt lat="41.795637" lon="22.983569">
        <ele>1371.3</ele>
        <time>2026-05-06T11:05:16.000Z</time>
      </trkpt>
      <trkpt lat="41.79563" lon="22.983561">
        <ele>1371.3</ele>
        <time>2026-05-06T11:05:17.000Z</time>
      </trkpt>
      <trkpt lat="41.795624" lon="22.98355">
        <ele>1371.4</ele>
        <time>2026-05-06T11:05:18.000Z</time>
      </trkpt>
      <trkpt lat="41.795618" lon="22.98354">
        <ele>1371.4</ele>
        <time>2026-05-06T11:05:19.000Z</time>
      </trkpt>
      <trkpt lat="41.795611" lon="22.983531">
        <ele>1371.4</ele>
        <time>2026-05-06T11:05:20.000Z</time>
      </trkpt>
      <trkpt lat="41.795603" lon="22.983522">
        <ele>1371.4</ele>
        <time>2026-05-06T11:05:21.000Z</time>
      </trkpt>
      <trkpt lat="41.795595" lon="22.983513">
        <ele>1371.4</ele>
        <time>2026-05-06T11:05:22.000Z</time>
      </trkpt>
      <trkpt lat="41.795587" lon="22.983506">
        <ele>1371.5</ele>
        <time>2026-05-06T11:05:23.000Z</time>
      </trkpt>
      <trkpt lat="41.79558" lon="22.983498">
        <ele>1371.5</ele>
        <time>2026-05-06T11:05:24.000Z</time>
      </trkpt>
      <trkpt lat="41.795573" lon="22.983489">
        <ele>1371.5</ele>
        <time>2026-05-06T11:05:25.000Z</time>
      </trkpt>
      <trkpt lat="41.795567" lon="22.983481">
        <ele>1371.5</ele>
        <time>2026-05-06T11:05:26.000Z</time>
      </trkpt>
      <trkpt lat="41.795562" lon="22.983475">
        <ele>1371.5</ele>
        <time>2026-05-06T11:05:27.000Z</time>
      </trkpt>
      <trkpt lat="41.795557" lon="22.983467">
        <ele>1371.8</ele>
        <time>2026-05-06T11:05:28.000Z</time>
      </trkpt>
      <trkpt lat="41.795551" lon="22.983461">
        <ele>1371.8</ele>
        <time>2026-05-06T11:05:29.000Z</time>
      </trkpt>
      <trkpt lat="41.795545" lon="22.983456">
        <ele>1371.8</ele>
        <time>2026-05-06T11:05:30.000Z</time>
      </trkpt>
      <trkpt lat="41.795541" lon="22.983452">
        <ele>1371.8</ele>
        <time>2026-05-06T11:05:31.000Z</time>
      </trkpt>
      <trkpt lat="41.795536" lon="22.983449">
        <ele>1371.8</ele>
        <time>2026-05-06T11:05:32.000Z</time>
      </trkpt>
      <trkpt lat="41.795531" lon="22.983448">
        <ele>1372.1</ele>
        <time>2026-05-06T11:05:33.000Z</time>
      </trkpt>
      <trkpt lat="41.795526" lon="22.983446">
        <ele>1372.1</ele>
        <time>2026-05-06T11:05:34.000Z</time>
      </trkpt>
      <trkpt lat="41.795522" lon="22.983444">
        <ele>1372.1</ele>
        <time>2026-05-06T11:05:35.000Z</time>
      </trkpt>
      <trkpt lat="41.795518" lon="22.983442">
        <ele>1372.1</ele>
        <time>2026-05-06T11:05:36.000Z</time>
      </trkpt>
      <trkpt lat="41.795515" lon="22.98344">
        <ele>1372.1</ele>
        <time>2026-05-06T11:05:37.000Z</time>
      </trkpt>
      <trkpt lat="41.795512" lon="22.983437">
        <ele>1373</ele>
        <time>2026-05-06T11:05:38.000Z</time>
      </trkpt>
      <trkpt lat="41.79551" lon="22.983434">
        <ele>1373</ele>
        <time>2026-05-06T11:05:39.000Z</time>
      </trkpt>
      <trkpt lat="41.795507" lon="22.983432">
        <ele>1373</ele>
        <time>2026-05-06T11:05:40.000Z</time>
      </trkpt>
      <trkpt lat="41.795502" lon="22.983428">
        <ele>1373</ele>
        <time>2026-05-06T11:05:41.000Z</time>
      </trkpt>
      <trkpt lat="41.795497" lon="22.983423">
        <ele>1373</ele>
        <time>2026-05-06T11:05:42.000Z</time>
      </trkpt>
      <trkpt lat="41.795491" lon="22.98342">
        <ele>1374</ele>
        <time>2026-05-06T11:05:43.000Z</time>
      </trkpt>
      <trkpt lat="41.795486" lon="22.983417">
        <ele>1374</ele>
        <time>2026-05-06T11:05:44.000Z</time>
      </trkpt>
      <trkpt lat="41.79548" lon="22.983413">
        <ele>1374</ele>
        <time>2026-05-06T11:05:45.000Z</time>
      </trkpt>
      <trkpt lat="41.795474" lon="22.983412">
        <ele>1374</ele>
        <time>2026-05-06T11:05:46.000Z</time>
      </trkpt>
      <trkpt lat="41.795469" lon="22.98341">
        <ele>1374</ele>
        <time>2026-05-06T11:05:47.000Z</time>
      </trkpt>
      <trkpt lat="41.795465" lon="22.983407">
        <ele>1374.5</ele>
        <time>2026-05-06T11:05:48.000Z</time>
      </trkpt>
      <trkpt lat="41.79546" lon="22.983405">
        <ele>1374.5</ele>
        <time>2026-05-06T11:05:49.000Z</time>
      </trkpt>
      <trkpt lat="41.795457" lon="22.983403">
        <ele>1374.5</ele>
        <time>2026-05-06T11:05:50.000Z</time>
      </trkpt>
      <trkpt lat="41.795454" lon="22.983401">
        <ele>1374.5</ele>
        <time>2026-05-06T11:05:51.000Z</time>
      </trkpt>
      <trkpt lat="41.795451" lon="22.983399">
        <ele>1374.5</ele>
        <time>2026-05-06T11:05:52.000Z</time>
      </trkpt>
      <trkpt lat="41.795448" lon="22.983399">
        <ele>1375.4</ele>
        <time>2026-05-06T11:05:53.000Z</time>
      </trkpt>
      <trkpt lat="41.795444" lon="22.983396">
        <ele>1375.4</ele>
        <time>2026-05-06T11:05:54.000Z</time>
      </trkpt>
      <trkpt lat="41.79544" lon="22.983393">
        <ele>1375.4</ele>
        <time>2026-05-06T11:05:55.000Z</time>
      </trkpt>
      <trkpt lat="41.795435" lon="22.983389">
        <ele>1375.4</ele>
        <time>2026-05-06T11:05:56.000Z</time>
      </trkpt>
      <trkpt lat="41.79543" lon="22.983384">
        <ele>1375.4</ele>
        <time>2026-05-06T11:05:57.000Z</time>
      </trkpt>
      <trkpt lat="41.795425" lon="22.983378">
        <ele>1376.4</ele>
        <time>2026-05-06T11:05:58.000Z</time>
      </trkpt>
      <trkpt lat="41.79542" lon="22.983372">
        <ele>1376.4</ele>
        <time>2026-05-06T11:05:59.000Z</time>
      </trkpt>
      <trkpt lat="41.795417" lon="22.983369">
        <ele>1376.4</ele>
        <time>2026-05-06T11:06:00.000Z</time>
      </trkpt>
      <trkpt lat="41.795414" lon="22.983367">
        <ele>1376.4</ele>
        <time>2026-05-06T11:06:01.000Z</time>
      </trkpt>
      <trkpt lat="41.795413" lon="22.983366">
        <ele>1376.4</ele>
        <time>2026-05-06T11:06:02.000Z</time>
      </trkpt>
      <trkpt lat="41.795412" lon="22.983366">
        <ele>1376.8</ele>
        <time>2026-05-06T11:06:03.000Z</time>
      </trkpt>
      <trkpt lat="41.795412" lon="22.983367">
        <ele>1376.8</ele>
        <time>2026-05-06T11:06:04.000Z</time>
      </trkpt>
      <trkpt lat="41.795412" lon="22.983368">
        <ele>1376.8</ele>
        <time>2026-05-06T11:06:05.000Z</time>
      </trkpt>
      <trkpt lat="41.795411" lon="22.983369">
        <ele>1376.8</ele>
        <time>2026-05-06T11:06:06.000Z</time>
      </trkpt>
      <trkpt lat="41.795411" lon="22.983369">
        <ele>1376.8</ele>
        <time>2026-05-06T11:06:07.000Z</time>
      </trkpt>
      <trkpt lat="41.795411" lon="22.983369">
        <ele>1377.6</ele>
        <time>2026-05-06T11:06:08.000Z</time>
      </trkpt>
      <trkpt lat="41.795411" lon="22.983369">
        <ele>1377.6</ele>
        <time>2026-05-06T11:06:09.000Z</time>
      </trkpt>
      <trkpt lat="41.79541" lon="22.98337">
        <ele>1377.6</ele>
        <time>2026-05-06T11:06:10.000Z</time>
      </trkpt>
      <trkpt lat="41.79541" lon="22.98337">
        <ele>1377.6</ele>
        <time>2026-05-06T11:06:11.000Z</time>
      </trkpt>
      <trkpt lat="41.795409" lon="22.983371">
        <ele>1377.6</ele>
        <time>2026-05-06T11:06:12.000Z</time>
      </trkpt>
      <trkpt lat="41.795409" lon="22.983371">
        <ele>1378.1</ele>
        <time>2026-05-06T11:06:13.000Z</time>
      </trkpt>
      <trkpt lat="41.795409" lon="22.983371">
        <ele>1378.1</ele>
        <time>2026-05-06T11:06:14.000Z</time>
      </trkpt>
      <trkpt lat="41.795409" lon="22.983371">
        <ele>1378.1</ele>
        <time>2026-05-06T11:06:15.000Z</time>
      </trkpt>
      <trkpt lat="41.795409" lon="22.983371">
        <ele>1378.1</ele>
        <time>2026-05-06T11:06:16.000Z</time>
      </trkpt>
      <trkpt lat="41.795409" lon="22.983371">
        <ele>1378.1</ele>
        <time>2026-05-06T11:06:17.000Z</time>
      </trkpt>
      <trkpt lat="41.795409" lon="22.983371">
        <ele>1378.3</ele>
        <time>2026-05-06T11:06:18.000Z</time>
      </trkpt>
      <trkpt lat="41.795409" lon="22.983371">
        <ele>1378.3</ele>
        <time>2026-05-06T11:06:19.000Z</time>
      </trkpt>
      <trkpt lat="41.795409" lon="22.983371">
        <ele>1378.3</ele>
        <time>2026-05-06T11:06:20.000Z</time>
      </trkpt>
      <trkpt lat="41.795409" lon="22.98337">
        <ele>1378.3</ele>
        <time>2026-05-06T11:06:21.000Z</time>
      </trkpt>
      <trkpt lat="41.795406" lon="22.983367">
        <ele>1378.3</ele>
        <time>2026-05-06T11:06:22.000Z</time>
      </trkpt>
      <trkpt lat="41.795403" lon="22.983364">
        <ele>1378.5</ele>
        <time>2026-05-06T11:06:23.000Z</time>
      </trkpt>
      <trkpt lat="41.795399" lon="22.98336">
        <ele>1378.5</ele>
        <time>2026-05-06T11:06:24.000Z</time>
      </trkpt>
      <trkpt lat="41.795393" lon="22.983354">
        <ele>1378.5</ele>
        <time>2026-05-06T11:06:25.000Z</time>
      </trkpt>
      <trkpt lat="41.795387" lon="22.983349">
        <ele>1378.5</ele>
        <time>2026-05-06T11:06:26.000Z</time>
      </trkpt>
      <trkpt lat="41.795382" lon="22.983344">
        <ele>1378.5</ele>
        <time>2026-05-06T11:06:27.000Z</time>
      </trkpt>
      <trkpt lat="41.795376" lon="22.98334">
        <ele>1378.6</ele>
        <time>2026-05-06T11:06:28.000Z</time>
      </trkpt>
      <trkpt lat="41.795369" lon="22.983335">
        <ele>1378.6</ele>
        <time>2026-05-06T11:06:29.000Z</time>
      </trkpt>
      <trkpt lat="41.795362" lon="22.983331">
        <ele>1378.6</ele>
        <time>2026-05-06T11:06:30.000Z</time>
      </trkpt>
      <trkpt lat="41.795355" lon="22.983325">
        <ele>1378.6</ele>
        <time>2026-05-06T11:06:31.000Z</time>
      </trkpt>
      <trkpt lat="41.795346" lon="22.98332">
        <ele>1378.6</ele>
        <time>2026-05-06T11:06:32.000Z</time>
      </trkpt>
      <trkpt lat="41.795339" lon="22.983315">
        <ele>1378.8</ele>
        <time>2026-05-06T11:06:33.000Z</time>
      </trkpt>
      <trkpt lat="41.795331" lon="22.983309">
        <ele>1378.8</ele>
        <time>2026-05-06T11:06:34.000Z</time>
      </trkpt>
      <trkpt lat="41.795324" lon="22.983303">
        <ele>1378.8</ele>
        <time>2026-05-06T11:06:35.000Z</time>
      </trkpt>
      <trkpt lat="41.795318" lon="22.983297">
        <ele>1378.8</ele>
        <time>2026-05-06T11:06:36.000Z</time>
      </trkpt>
      <trkpt lat="41.795311" lon="22.98329">
        <ele>1378.8</ele>
        <time>2026-05-06T11:06:37.000Z</time>
      </trkpt>
      <trkpt lat="41.795305" lon="22.983282">
        <ele>1379.5</ele>
        <time>2026-05-06T11:06:38.000Z</time>
      </trkpt>
      <trkpt lat="41.795298" lon="22.983274">
        <ele>1379.5</ele>
        <time>2026-05-06T11:06:39.000Z</time>
      </trkpt>
      <trkpt lat="41.795292" lon="22.983266">
        <ele>1379.5</ele>
        <time>2026-05-06T11:06:40.000Z</time>
      </trkpt>
      <trkpt lat="41.795287" lon="22.983259">
        <ele>1379.5</ele>
        <time>2026-05-06T11:06:41.000Z</time>
      </trkpt>
      <trkpt lat="41.795282" lon="22.983251">
        <ele>1379.5</ele>
        <time>2026-05-06T11:06:42.000Z</time>
      </trkpt>
      <trkpt lat="41.795279" lon="22.983244">
        <ele>1380.5</ele>
        <time>2026-05-06T11:06:43.000Z</time>
      </trkpt>
      <trkpt lat="41.795275" lon="22.983238">
        <ele>1380.5</ele>
        <time>2026-05-06T11:06:44.000Z</time>
      </trkpt>
      <trkpt lat="41.795271" lon="22.983231">
        <ele>1380.5</ele>
        <time>2026-05-06T11:06:45.000Z</time>
      </trkpt>
      <trkpt lat="41.795267" lon="22.983224">
        <ele>1380.5</ele>
        <time>2026-05-06T11:06:46.000Z</time>
      </trkpt>
      <trkpt lat="41.795261" lon="22.983218">
        <ele>1380.5</ele>
        <time>2026-05-06T11:06:47.000Z</time>
      </trkpt>
      <trkpt lat="41.795255" lon="22.983211">
        <ele>1381.1</ele>
        <time>2026-05-06T11:06:48.000Z</time>
      </trkpt>
      <trkpt lat="41.79525" lon="22.983204">
        <ele>1381.1</ele>
        <time>2026-05-06T11:06:49.000Z</time>
      </trkpt>
      <trkpt lat="41.795245" lon="22.983197">
        <ele>1381.1</ele>
        <time>2026-05-06T11:06:50.000Z</time>
      </trkpt>
      <trkpt lat="41.795241" lon="22.983189">
        <ele>1381.1</ele>
        <time>2026-05-06T11:06:51.000Z</time>
      </trkpt>
      <trkpt lat="41.795237" lon="22.983181">
        <ele>1381.1</ele>
        <time>2026-05-06T11:06:52.000Z</time>
      </trkpt>
      <trkpt lat="41.795234" lon="22.983172">
        <ele>1382.4</ele>
        <time>2026-05-06T11:06:53.000Z</time>
      </trkpt>
      <trkpt lat="41.795232" lon="22.983164">
        <ele>1382.4</ele>
        <time>2026-05-06T11:06:54.000Z</time>
      </trkpt>
      <trkpt lat="41.79523" lon="22.983157">
        <ele>1382.4</ele>
        <time>2026-05-06T11:06:55.000Z</time>
      </trkpt>
      <trkpt lat="41.795227" lon="22.983149">
        <ele>1382.4</ele>
        <time>2026-05-06T11:06:56.000Z</time>
      </trkpt>
      <trkpt lat="41.795224" lon="22.983142">
        <ele>1382.4</ele>
        <time>2026-05-06T11:06:57.000Z</time>
      </trkpt>
      <trkpt lat="41.795221" lon="22.983135">
        <ele>1383.5</ele>
        <time>2026-05-06T11:06:58.000Z</time>
      </trkpt>
      <trkpt lat="41.795216" lon="22.983128">
        <ele>1383.5</ele>
        <time>2026-05-06T11:06:59.000Z</time>
      </trkpt>
      <trkpt lat="41.795212" lon="22.983121">
        <ele>1383.5</ele>
        <time>2026-05-06T11:07:00.000Z</time>
      </trkpt>
      <trkpt lat="41.795208" lon="22.983113">
        <ele>1383.5</ele>
        <time>2026-05-06T11:07:01.000Z</time>
      </trkpt>
      <trkpt lat="41.795204" lon="22.983105">
        <ele>1383.5</ele>
        <time>2026-05-06T11:07:02.000Z</time>
      </trkpt>
      <trkpt lat="41.795201" lon="22.983098">
        <ele>1384</ele>
        <time>2026-05-06T11:07:03.000Z</time>
      </trkpt>
      <trkpt lat="41.795197" lon="22.98309">
        <ele>1384</ele>
        <time>2026-05-06T11:07:04.000Z</time>
      </trkpt>
      <trkpt lat="41.795192" lon="22.983083">
        <ele>1384</ele>
        <time>2026-05-06T11:07:05.000Z</time>
      </trkpt>
      <trkpt lat="41.795186" lon="22.983075">
        <ele>1384</ele>
        <time>2026-05-06T11:07:06.000Z</time>
      </trkpt>
      <trkpt lat="41.79518" lon="22.983067">
        <ele>1384</ele>
        <time>2026-05-06T11:07:07.000Z</time>
      </trkpt>
      <trkpt lat="41.795174" lon="22.983058">
        <ele>1384.9</ele>
        <time>2026-05-06T11:07:08.000Z</time>
      </trkpt>
      <trkpt lat="41.795168" lon="22.983049">
        <ele>1384.9</ele>
        <time>2026-05-06T11:07:09.000Z</time>
      </trkpt>
      <trkpt lat="41.795162" lon="22.983041">
        <ele>1384.9</ele>
        <time>2026-05-06T11:07:10.000Z</time>
      </trkpt>
      <trkpt lat="41.795155" lon="22.983032">
        <ele>1384.9</ele>
        <time>2026-05-06T11:07:11.000Z</time>
      </trkpt>
      <trkpt lat="41.795149" lon="22.983026">
        <ele>1384.9</ele>
        <time>2026-05-06T11:07:12.000Z</time>
      </trkpt>
      <trkpt lat="41.795143" lon="22.983021">
        <ele>1385.8</ele>
        <time>2026-05-06T11:07:13.000Z</time>
      </trkpt>
      <trkpt lat="41.795138" lon="22.983015">
        <ele>1385.8</ele>
        <time>2026-05-06T11:07:14.000Z</time>
      </trkpt>
      <trkpt lat="41.795135" lon="22.983008">
        <ele>1385.8</ele>
        <time>2026-05-06T11:07:15.000Z</time>
      </trkpt>
      <trkpt lat="41.795134" lon="22.983002">
        <ele>1385.8</ele>
        <time>2026-05-06T11:07:16.000Z</time>
      </trkpt>
      <trkpt lat="41.795133" lon="22.982995">
        <ele>1385.8</ele>
        <time>2026-05-06T11:07:17.000Z</time>
      </trkpt>
      <trkpt lat="41.795132" lon="22.982989">
        <ele>1386.3</ele>
        <time>2026-05-06T11:07:18.000Z</time>
      </trkpt>
      <trkpt lat="41.795131" lon="22.982982">
        <ele>1386.3</ele>
        <time>2026-05-06T11:07:19.000Z</time>
      </trkpt>
      <trkpt lat="41.795129" lon="22.982976">
        <ele>1386.3</ele>
        <time>2026-05-06T11:07:20.000Z</time>
      </trkpt>
      <trkpt lat="41.795126" lon="22.98297">
        <ele>1386.3</ele>
        <time>2026-05-06T11:07:21.000Z</time>
      </trkpt>
      <trkpt lat="41.795123" lon="22.982963">
        <ele>1386.3</ele>
        <time>2026-05-06T11:07:22.000Z</time>
      </trkpt>
      <trkpt lat="41.79512" lon="22.982957">
        <ele>1387.1</ele>
        <time>2026-05-06T11:07:23.000Z</time>
      </trkpt>
      <trkpt lat="41.795117" lon="22.98295">
        <ele>1387.1</ele>
        <time>2026-05-06T11:07:24.000Z</time>
      </trkpt>
      <trkpt lat="41.795113" lon="22.982944">
        <ele>1387.1</ele>
        <time>2026-05-06T11:07:25.000Z</time>
      </trkpt>
      <trkpt lat="41.795111" lon="22.982936">
        <ele>1387.1</ele>
        <time>2026-05-06T11:07:26.000Z</time>
      </trkpt>
      <trkpt lat="41.79511" lon="22.98293">
        <ele>1387.1</ele>
        <time>2026-05-06T11:07:27.000Z</time>
      </trkpt>
      <trkpt lat="41.795109" lon="22.982923">
        <ele>1388</ele>
        <time>2026-05-06T11:07:28.000Z</time>
      </trkpt>
      <trkpt lat="41.795109" lon="22.982918">
        <ele>1388</ele>
        <time>2026-05-06T11:07:29.000Z</time>
      </trkpt>
      <trkpt lat="41.795107" lon="22.982911">
        <ele>1388</ele>
        <time>2026-05-06T11:07:30.000Z</time>
      </trkpt>
      <trkpt lat="41.795105" lon="22.982905">
        <ele>1388</ele>
        <time>2026-05-06T11:07:31.000Z</time>
      </trkpt>
      <trkpt lat="41.795102" lon="22.982896">
        <ele>1388</ele>
        <time>2026-05-06T11:07:32.000Z</time>
      </trkpt>
      <trkpt lat="41.795098" lon="22.982887">
        <ele>1388.4</ele>
        <time>2026-05-06T11:07:33.000Z</time>
      </trkpt>
      <trkpt lat="41.795094" lon="22.982877">
        <ele>1388.4</ele>
        <time>2026-05-06T11:07:34.000Z</time>
      </trkpt>
      <trkpt lat="41.795091" lon="22.982867">
        <ele>1388.4</ele>
        <time>2026-05-06T11:07:35.000Z</time>
      </trkpt>
      <trkpt lat="41.795088" lon="22.982857">
        <ele>1388.4</ele>
        <time>2026-05-06T11:07:36.000Z</time>
      </trkpt>
      <trkpt lat="41.795085" lon="22.982847">
        <ele>1388.4</ele>
        <time>2026-05-06T11:07:37.000Z</time>
      </trkpt>
      <trkpt lat="41.795082" lon="22.982837">
        <ele>1389.2</ele>
        <time>2026-05-06T11:07:38.000Z</time>
      </trkpt>
      <trkpt lat="41.79508" lon="22.98283">
        <ele>1389.2</ele>
        <time>2026-05-06T11:07:39.000Z</time>
      </trkpt>
      <trkpt lat="41.795079" lon="22.982825">
        <ele>1389.2</ele>
        <time>2026-05-06T11:07:40.000Z</time>
      </trkpt>
      <trkpt lat="41.795078" lon="22.982821">
        <ele>1389.2</ele>
        <time>2026-05-06T11:07:41.000Z</time>
      </trkpt>
      <trkpt lat="41.795077" lon="22.982821">
        <ele>1389.2</ele>
        <time>2026-05-06T11:07:42.000Z</time>
      </trkpt>
      <trkpt lat="41.795076" lon="22.982822">
        <ele>1389.9</ele>
        <time>2026-05-06T11:07:43.000Z</time>
      </trkpt>
      <trkpt lat="41.795075" lon="22.982824">
        <ele>1389.9</ele>
        <time>2026-05-06T11:07:44.000Z</time>
      </trkpt>
      <trkpt lat="41.795074" lon="22.982825">
        <ele>1389.9</ele>
        <time>2026-05-06T11:07:45.000Z</time>
      </trkpt>
      <trkpt lat="41.795073" lon="22.982826">
        <ele>1389.9</ele>
        <time>2026-05-06T11:07:46.000Z</time>
      </trkpt>
      <trkpt lat="41.795072" lon="22.982826">
        <ele>1389.9</ele>
        <time>2026-05-06T11:07:47.000Z</time>
      </trkpt>
      <trkpt lat="41.795072" lon="22.982825">
        <ele>1390.2</ele>
        <time>2026-05-06T11:07:48.000Z</time>
      </trkpt>
      <trkpt lat="41.795071" lon="22.982825">
        <ele>1390.2</ele>
        <time>2026-05-06T11:07:49.000Z</time>
      </trkpt>
      <trkpt lat="41.79507" lon="22.982825">
        <ele>1390.2</ele>
        <time>2026-05-06T11:07:50.000Z</time>
      </trkpt>
      <trkpt lat="41.79507" lon="22.982824">
        <ele>1390.2</ele>
        <time>2026-05-06T11:07:51.000Z</time>
      </trkpt>
      <trkpt lat="41.795069" lon="22.982824">
        <ele>1390.2</ele>
        <time>2026-05-06T11:07:52.000Z</time>
      </trkpt>
      <trkpt lat="41.795069" lon="22.982824">
        <ele>1390.7</ele>
        <time>2026-05-06T11:07:53.000Z</time>
      </trkpt>
      <trkpt lat="41.795069" lon="22.982824">
        <ele>1390.7</ele>
        <time>2026-05-06T11:07:54.000Z</time>
      </trkpt>
      <trkpt lat="41.795069" lon="22.982824">
        <ele>1390.7</ele>
        <time>2026-05-06T11:07:55.000Z</time>
      </trkpt>
      <trkpt lat="41.795069" lon="22.982823">
        <ele>1390.7</ele>
        <time>2026-05-06T11:07:56.000Z</time>
      </trkpt>
      <trkpt lat="41.795069" lon="22.982822">
        <ele>1390.7</ele>
        <time>2026-05-06T11:07:57.000Z</time>
      </trkpt>
      <trkpt lat="41.795069" lon="22.98282">
        <ele>1390.9</ele>
        <time>2026-05-06T11:07:58.000Z</time>
      </trkpt>
      <trkpt lat="41.795069" lon="22.982819">
        <ele>1390.9</ele>
        <time>2026-05-06T11:07:59.000Z</time>
      </trkpt>
      <trkpt lat="41.795069" lon="22.982817">
        <ele>1390.9</ele>
        <time>2026-05-06T11:08:00.000Z</time>
      </trkpt>
      <trkpt lat="41.795069" lon="22.982816">
        <ele>1390.9</ele>
        <time>2026-05-06T11:08:01.000Z</time>
      </trkpt>
      <trkpt lat="41.795068" lon="22.982815">
        <ele>1390.9</ele>
        <time>2026-05-06T11:08:02.000Z</time>
      </trkpt>
      <trkpt lat="41.795067" lon="22.982814">
        <ele>1390.9</ele>
        <time>2026-05-06T11:08:03.000Z</time>
      </trkpt>
      <trkpt lat="41.795067" lon="22.982813">
        <ele>1390.9</ele>
        <time>2026-05-06T11:08:04.000Z</time>
      </trkpt>
      <trkpt lat="41.795066" lon="22.982813">
        <ele>1390.9</ele>
        <time>2026-05-06T11:08:05.000Z</time>
      </trkpt>
      <trkpt lat="41.795066" lon="22.982811">
        <ele>1390.9</ele>
        <time>2026-05-06T11:08:06.000Z</time>
      </trkpt>
      <trkpt lat="41.795066" lon="22.98281">
        <ele>1390.9</ele>
        <time>2026-05-06T11:08:07.000Z</time>
      </trkpt>
      <trkpt lat="41.795065" lon="22.982808">
        <ele>1390.9</ele>
        <time>2026-05-06T11:08:08.000Z</time>
      </trkpt>
      <trkpt lat="41.795065" lon="22.982806">
        <ele>1390.9</ele>
        <time>2026-05-06T11:08:09.000Z</time>
      </trkpt>
      <trkpt lat="41.795064" lon="22.982803">
        <ele>1390.9</ele>
        <time>2026-05-06T11:08:10.000Z</time>
      </trkpt>
      <trkpt lat="41.795063" lon="22.9828">
        <ele>1390.9</ele>
        <time>2026-05-06T11:08:11.000Z</time>
      </trkpt>
      <trkpt lat="41.795062" lon="22.982798">
        <ele>1390.9</ele>
        <time>2026-05-06T11:08:12.000Z</time>
      </trkpt>
      <trkpt lat="41.795061" lon="22.982794">
        <ele>1390.8</ele>
        <time>2026-05-06T11:08:13.000Z</time>
      </trkpt>
      <trkpt lat="41.79506" lon="22.982789">
        <ele>1390.8</ele>
        <time>2026-05-06T11:08:14.000Z</time>
      </trkpt>
      <trkpt lat="41.795059" lon="22.982783">
        <ele>1390.8</ele>
        <time>2026-05-06T11:08:15.000Z</time>
      </trkpt>
      <trkpt lat="41.795058" lon="22.982775">
        <ele>1390.8</ele>
        <time>2026-05-06T11:08:16.000Z</time>
      </trkpt>
      <trkpt lat="41.795056" lon="22.982765">
        <ele>1390.8</ele>
        <time>2026-05-06T11:08:17.000Z</time>
      </trkpt>
      <trkpt lat="41.795054" lon="22.982755">
        <ele>1390.8</ele>
        <time>2026-05-06T11:08:18.000Z</time>
      </trkpt>
      <trkpt lat="41.795052" lon="22.982744">
        <ele>1390.8</ele>
        <time>2026-05-06T11:08:19.000Z</time>
      </trkpt>
      <trkpt lat="41.79505" lon="22.982733">
        <ele>1390.8</ele>
        <time>2026-05-06T11:08:20.000Z</time>
      </trkpt>
      <trkpt lat="41.795048" lon="22.982723">
        <ele>1390.8</ele>
        <time>2026-05-06T11:08:21.000Z</time>
      </trkpt>
      <trkpt lat="41.795047" lon="22.982714">
        <ele>1390.8</ele>
        <time>2026-05-06T11:08:22.000Z</time>
      </trkpt>
      <trkpt lat="41.795044" lon="22.982704">
        <ele>1390.9</ele>
        <time>2026-05-06T11:08:23.000Z</time>
      </trkpt>
      <trkpt lat="41.795041" lon="22.982693">
        <ele>1390.9</ele>
        <time>2026-05-06T11:08:24.000Z</time>
      </trkpt>
      <trkpt lat="41.795038" lon="22.982684">
        <ele>1390.9</ele>
        <time>2026-05-06T11:08:25.000Z</time>
      </trkpt>
      <trkpt lat="41.795035" lon="22.982673">
        <ele>1390.9</ele>
        <time>2026-05-06T11:08:26.000Z</time>
      </trkpt>
      <trkpt lat="41.795032" lon="22.982661">
        <ele>1390.9</ele>
        <time>2026-05-06T11:08:27.000Z</time>
      </trkpt>
      <trkpt lat="41.79503" lon="22.982651">
        <ele>1391.3</ele>
        <time>2026-05-06T11:08:28.000Z</time>
      </trkpt>
      <trkpt lat="41.795029" lon="22.982641">
        <ele>1391.3</ele>
        <time>2026-05-06T11:08:29.000Z</time>
      </trkpt>
      <trkpt lat="41.795027" lon="22.98263">
        <ele>1391.3</ele>
        <time>2026-05-06T11:08:30.000Z</time>
      </trkpt>
      <trkpt lat="41.795026" lon="22.982621">
        <ele>1391.3</ele>
        <time>2026-05-06T11:08:31.000Z</time>
      </trkpt>
      <trkpt lat="41.795026" lon="22.982611">
        <ele>1391.3</ele>
        <time>2026-05-06T11:08:32.000Z</time>
      </trkpt>
      <trkpt lat="41.795026" lon="22.982602">
        <ele>1391.5</ele>
        <time>2026-05-06T11:08:33.000Z</time>
      </trkpt>
      <trkpt lat="41.795025" lon="22.982592">
        <ele>1391.5</ele>
        <time>2026-05-06T11:08:34.000Z</time>
      </trkpt>
      <trkpt lat="41.795025" lon="22.982581">
        <ele>1391.5</ele>
        <time>2026-05-06T11:08:35.000Z</time>
      </trkpt>
      <trkpt lat="41.795025" lon="22.98257">
        <ele>1391.5</ele>
        <time>2026-05-06T11:08:36.000Z</time>
      </trkpt>
      <trkpt lat="41.795023" lon="22.982561">
        <ele>1391.5</ele>
        <time>2026-05-06T11:08:37.000Z</time>
      </trkpt>
      <trkpt lat="41.795022" lon="22.982551">
        <ele>1392.1</ele>
        <time>2026-05-06T11:08:38.000Z</time>
      </trkpt>
      <trkpt lat="41.795021" lon="22.982542">
        <ele>1392.1</ele>
        <time>2026-05-06T11:08:39.000Z</time>
      </trkpt>
      <trkpt lat="41.795021" lon="22.982532">
        <ele>1392.1</ele>
        <time>2026-05-06T11:08:40.000Z</time>
      </trkpt>
      <trkpt lat="41.79502" lon="22.982524">
        <ele>1392.1</ele>
        <time>2026-05-06T11:08:41.000Z</time>
      </trkpt>
      <trkpt lat="41.795019" lon="22.982514">
        <ele>1392.1</ele>
        <time>2026-05-06T11:08:42.000Z</time>
      </trkpt>
      <trkpt lat="41.795019" lon="22.982505">
        <ele>1392.9</ele>
        <time>2026-05-06T11:08:43.000Z</time>
      </trkpt>
      <trkpt lat="41.795018" lon="22.982496">
        <ele>1392.9</ele>
        <time>2026-05-06T11:08:44.000Z</time>
      </trkpt>
      <trkpt lat="41.795018" lon="22.982487">
        <ele>1392.9</ele>
        <time>2026-05-06T11:08:45.000Z</time>
      </trkpt>
      <trkpt lat="41.795018" lon="22.982478">
        <ele>1392.9</ele>
        <time>2026-05-06T11:08:46.000Z</time>
      </trkpt>
      <trkpt lat="41.795019" lon="22.982471">
        <ele>1392.9</ele>
        <time>2026-05-06T11:08:47.000Z</time>
      </trkpt>
      <trkpt lat="41.795019" lon="22.982464">
        <ele>1393.3</ele>
        <time>2026-05-06T11:08:48.000Z</time>
      </trkpt>
      <trkpt lat="41.795019" lon="22.982455">
        <ele>1393.3</ele>
        <time>2026-05-06T11:08:49.000Z</time>
      </trkpt>
      <trkpt lat="41.795018" lon="22.982447">
        <ele>1393.3</ele>
        <time>2026-05-06T11:08:50.000Z</time>
      </trkpt>
      <trkpt lat="41.795018" lon="22.98244">
        <ele>1393.3</ele>
        <time>2026-05-06T11:08:51.000Z</time>
      </trkpt>
      <trkpt lat="41.795019" lon="22.98243">
        <ele>1393.3</ele>
        <time>2026-05-06T11:08:52.000Z</time>
      </trkpt>
      <trkpt lat="41.79502" lon="22.98242">
        <ele>1394.1</ele>
        <time>2026-05-06T11:08:53.000Z</time>
      </trkpt>
      <trkpt lat="41.795021" lon="22.982411">
        <ele>1394.1</ele>
        <time>2026-05-06T11:08:54.000Z</time>
      </trkpt>
      <trkpt lat="41.79502" lon="22.982401">
        <ele>1394.1</ele>
        <time>2026-05-06T11:08:55.000Z</time>
      </trkpt>
      <trkpt lat="41.795017" lon="22.982391">
        <ele>1394.1</ele>
        <time>2026-05-06T11:08:56.000Z</time>
      </trkpt>
      <trkpt lat="41.795014" lon="22.98238">
        <ele>1394.1</ele>
        <time>2026-05-06T11:08:57.000Z</time>
      </trkpt>
      <trkpt lat="41.795009" lon="22.982369">
        <ele>1395.1</ele>
        <time>2026-05-06T11:08:58.000Z</time>
      </trkpt>
      <trkpt lat="41.795005" lon="22.98236">
        <ele>1395.1</ele>
        <time>2026-05-06T11:08:59.000Z</time>
      </trkpt>
      <trkpt lat="41.795002" lon="22.982349">
        <ele>1395.1</ele>
        <time>2026-05-06T11:09:00.000Z</time>
      </trkpt>
      <trkpt lat="41.795001" lon="22.982338">
        <ele>1395.1</ele>
        <time>2026-05-06T11:09:01.000Z</time>
      </trkpt>
      <trkpt lat="41.795001" lon="22.982327">
        <ele>1395.1</ele>
        <time>2026-05-06T11:09:02.000Z</time>
      </trkpt>
      <trkpt lat="41.795002" lon="22.982317">
        <ele>1395.5</ele>
        <time>2026-05-06T11:09:03.000Z</time>
      </trkpt>
      <trkpt lat="41.795003" lon="22.982308">
        <ele>1395.5</ele>
        <time>2026-05-06T11:09:04.000Z</time>
      </trkpt>
      <trkpt lat="41.795003" lon="22.9823">
        <ele>1395.5</ele>
        <time>2026-05-06T11:09:05.000Z</time>
      </trkpt>
      <trkpt lat="41.795002" lon="22.982293">
        <ele>1395.5</ele>
        <time>2026-05-06T11:09:06.000Z</time>
      </trkpt>
      <trkpt lat="41.795002" lon="22.982286">
        <ele>1395.5</ele>
        <time>2026-05-06T11:09:07.000Z</time>
      </trkpt>
      <trkpt lat="41.795" lon="22.982279">
        <ele>1396.5</ele>
        <time>2026-05-06T11:09:08.000Z</time>
      </trkpt>
      <trkpt lat="41.794999" lon="22.98227">
        <ele>1396.5</ele>
        <time>2026-05-06T11:09:09.000Z</time>
      </trkpt>
      <trkpt lat="41.794999" lon="22.98226">
        <ele>1396.5</ele>
        <time>2026-05-06T11:09:10.000Z</time>
      </trkpt>
      <trkpt lat="41.794999" lon="22.98225">
        <ele>1396.5</ele>
        <time>2026-05-06T11:09:11.000Z</time>
      </trkpt>
      <trkpt lat="41.795" lon="22.98224">
        <ele>1396.5</ele>
        <time>2026-05-06T11:09:12.000Z</time>
      </trkpt>
      <trkpt lat="41.795002" lon="22.982231">
        <ele>1397.4</ele>
        <time>2026-05-06T11:09:13.000Z</time>
      </trkpt>
      <trkpt lat="41.795003" lon="22.982225">
        <ele>1397.4</ele>
        <time>2026-05-06T11:09:14.000Z</time>
      </trkpt>
      <trkpt lat="41.795003" lon="22.982222">
        <ele>1397.4</ele>
        <time>2026-05-06T11:09:15.000Z</time>
      </trkpt>
      <trkpt lat="41.795004" lon="22.982221">
        <ele>1397.4</ele>
        <time>2026-05-06T11:09:16.000Z</time>
      </trkpt>
      <trkpt lat="41.795003" lon="22.982221">
        <ele>1397.4</ele>
        <time>2026-05-06T11:09:17.000Z</time>
      </trkpt>
      <trkpt lat="41.795003" lon="22.982223">
        <ele>1397.8</ele>
        <time>2026-05-06T11:09:18.000Z</time>
      </trkpt>
      <trkpt lat="41.795004" lon="22.982224">
        <ele>1397.8</ele>
        <time>2026-05-06T11:09:19.000Z</time>
      </trkpt>
      <trkpt lat="41.795004" lon="22.982225">
        <ele>1397.8</ele>
        <time>2026-05-06T11:09:20.000Z</time>
      </trkpt>
      <trkpt lat="41.795002" lon="22.982227">
        <ele>1397.8</ele>
        <time>2026-05-06T11:09:21.000Z</time>
      </trkpt>
      <trkpt lat="41.795002" lon="22.982228">
        <ele>1397.8</ele>
        <time>2026-05-06T11:09:22.000Z</time>
      </trkpt>
      <trkpt lat="41.794999" lon="22.982228">
        <ele>1398.5</ele>
        <time>2026-05-06T11:09:23.000Z</time>
      </trkpt>
      <trkpt lat="41.794996" lon="22.982228">
        <ele>1398.5</ele>
        <time>2026-05-06T11:09:24.000Z</time>
      </trkpt>
      <trkpt lat="41.794995" lon="22.982226">
        <ele>1398.5</ele>
        <time>2026-05-06T11:09:25.000Z</time>
      </trkpt>
      <trkpt lat="41.794993" lon="22.982223">
        <ele>1398.5</ele>
        <time>2026-05-06T11:09:26.000Z</time>
      </trkpt>
      <trkpt lat="41.794992" lon="22.982218">
        <ele>1398.5</ele>
        <time>2026-05-06T11:09:27.000Z</time>
      </trkpt>
      <trkpt lat="41.794992" lon="22.982213">
        <ele>1399</ele>
        <time>2026-05-06T11:09:28.000Z</time>
      </trkpt>
      <trkpt lat="41.794992" lon="22.982206">
        <ele>1399</ele>
        <time>2026-05-06T11:09:29.000Z</time>
      </trkpt>
      <trkpt lat="41.794992" lon="22.982197">
        <ele>1399</ele>
        <time>2026-05-06T11:09:30.000Z</time>
      </trkpt>
      <trkpt lat="41.794993" lon="22.982188">
        <ele>1399</ele>
        <time>2026-05-06T11:09:31.000Z</time>
      </trkpt>
      <trkpt lat="41.794993" lon="22.98218">
        <ele>1399</ele>
        <time>2026-05-06T11:09:32.000Z</time>
      </trkpt>
      <trkpt lat="41.794993" lon="22.982169">
        <ele>1399.1</ele>
        <time>2026-05-06T11:09:33.000Z</time>
      </trkpt>
      <trkpt lat="41.794992" lon="22.982159">
        <ele>1399.1</ele>
        <time>2026-05-06T11:09:34.000Z</time>
      </trkpt>
      <trkpt lat="41.794992" lon="22.982149">
        <ele>1399.1</ele>
        <time>2026-05-06T11:09:35.000Z</time>
      </trkpt>
      <trkpt lat="41.794991" lon="22.982138">
        <ele>1399.1</ele>
        <time>2026-05-06T11:09:36.000Z</time>
      </trkpt>
      <trkpt lat="41.79499" lon="22.98213">
        <ele>1399.1</ele>
        <time>2026-05-06T11:09:37.000Z</time>
      </trkpt>
      <trkpt lat="41.794988" lon="22.982121">
        <ele>1399.3</ele>
        <time>2026-05-06T11:09:38.000Z</time>
      </trkpt>
      <trkpt lat="41.794988" lon="22.982111">
        <ele>1399.3</ele>
        <time>2026-05-06T11:09:39.000Z</time>
      </trkpt>
      <trkpt lat="41.794987" lon="22.982103">
        <ele>1399.3</ele>
        <time>2026-05-06T11:09:40.000Z</time>
      </trkpt>
      <trkpt lat="41.794988" lon="22.982094">
        <ele>1399.3</ele>
        <time>2026-05-06T11:09:41.000Z</time>
      </trkpt>
      <trkpt lat="41.794988" lon="22.982085">
        <ele>1399.3</ele>
        <time>2026-05-06T11:09:42.000Z</time>
      </trkpt>
      <trkpt lat="41.79499" lon="22.982078">
        <ele>1399.7</ele>
        <time>2026-05-06T11:09:43.000Z</time>
      </trkpt>
      <trkpt lat="41.794991" lon="22.982071">
        <ele>1399.7</ele>
        <time>2026-05-06T11:09:44.000Z</time>
      </trkpt>
      <trkpt lat="41.794991" lon="22.982063">
        <ele>1399.7</ele>
        <time>2026-05-06T11:09:45.000Z</time>
      </trkpt>
      <trkpt lat="41.794989" lon="22.982056">
        <ele>1399.7</ele>
        <time>2026-05-06T11:09:46.000Z</time>
      </trkpt>
      <trkpt lat="41.794986" lon="22.982046">
        <ele>1399.7</ele>
        <time>2026-05-06T11:09:47.000Z</time>
      </trkpt>
      <trkpt lat="41.794983" lon="22.982036">
        <ele>1399.9</ele>
        <time>2026-05-06T11:09:48.000Z</time>
      </trkpt>
      <trkpt lat="41.794979" lon="22.982027">
        <ele>1399.9</ele>
        <time>2026-05-06T11:09:49.000Z</time>
      </trkpt>
      <trkpt lat="41.794976" lon="22.982018">
        <ele>1399.9</ele>
        <time>2026-05-06T11:09:50.000Z</time>
      </trkpt>
      <trkpt lat="41.794976" lon="22.982007">
        <ele>1399.9</ele>
        <time>2026-05-06T11:09:51.000Z</time>
      </trkpt>
      <trkpt lat="41.794977" lon="22.981998">
        <ele>1399.9</ele>
        <time>2026-05-06T11:09:52.000Z</time>
      </trkpt>
      <trkpt lat="41.794978" lon="22.981989">
        <ele>1400.7</ele>
        <time>2026-05-06T11:09:53.000Z</time>
      </trkpt>
      <trkpt lat="41.794979" lon="22.981978">
        <ele>1400.7</ele>
        <time>2026-05-06T11:09:54.000Z</time>
      </trkpt>
      <trkpt lat="41.794979" lon="22.981967">
        <ele>1400.7</ele>
        <time>2026-05-06T11:09:55.000Z</time>
      </trkpt>
      <trkpt lat="41.79498" lon="22.981957">
        <ele>1400.7</ele>
        <time>2026-05-06T11:09:56.000Z</time>
      </trkpt>
      <trkpt lat="41.79498" lon="22.981945">
        <ele>1400.7</ele>
        <time>2026-05-06T11:09:57.000Z</time>
      </trkpt>
      <trkpt lat="41.794981" lon="22.981929">
        <ele>1401.5</ele>
        <time>2026-05-06T11:09:58.000Z</time>
      </trkpt>
      <trkpt lat="41.794982" lon="22.981916">
        <ele>1401.5</ele>
        <time>2026-05-06T11:09:59.000Z</time>
      </trkpt>
      <trkpt lat="41.794984" lon="22.981902">
        <ele>1401.5</ele>
        <time>2026-05-06T11:10:00.000Z</time>
      </trkpt>
      <trkpt lat="41.794986" lon="22.981889">
        <ele>1401.5</ele>
        <time>2026-05-06T11:10:01.000Z</time>
      </trkpt>
      <trkpt lat="41.794987" lon="22.981878">
        <ele>1401.5</ele>
        <time>2026-05-06T11:10:02.000Z</time>
      </trkpt>
      <trkpt lat="41.794986" lon="22.981869">
        <ele>1401.9</ele>
        <time>2026-05-06T11:10:03.000Z</time>
      </trkpt>
      <trkpt lat="41.794986" lon="22.98186">
        <ele>1401.9</ele>
        <time>2026-05-06T11:10:04.000Z</time>
      </trkpt>
      <trkpt lat="41.794984" lon="22.98185">
        <ele>1401.9</ele>
        <time>2026-05-06T11:10:05.000Z</time>
      </trkpt>
      <trkpt lat="41.794982" lon="22.98184">
        <ele>1401.9</ele>
        <time>2026-05-06T11:10:06.000Z</time>
      </trkpt>
      <trkpt lat="41.79498" lon="22.98183">
        <ele>1401.9</ele>
        <time>2026-05-06T11:10:07.000Z</time>
      </trkpt>
      <trkpt lat="41.794979" lon="22.981818">
        <ele>1402.9</ele>
        <time>2026-05-06T11:10:08.000Z</time>
      </trkpt>
      <trkpt lat="41.794978" lon="22.981807">
        <ele>1402.9</ele>
        <time>2026-05-06T11:10:09.000Z</time>
      </trkpt>
      <trkpt lat="41.794976" lon="22.981795">
        <ele>1402.9</ele>
        <time>2026-05-06T11:10:10.000Z</time>
      </trkpt>
      <trkpt lat="41.794974" lon="22.981782">
        <ele>1402.9</ele>
        <time>2026-05-06T11:10:11.000Z</time>
      </trkpt>
      <trkpt lat="41.794973" lon="22.981769">
        <ele>1402.9</ele>
        <time>2026-05-06T11:10:12.000Z</time>
      </trkpt>
      <trkpt lat="41.794972" lon="22.981757">
        <ele>1404</ele>
        <time>2026-05-06T11:10:13.000Z</time>
      </trkpt>
      <trkpt lat="41.794971" lon="22.981746">
        <ele>1404</ele>
        <time>2026-05-06T11:10:14.000Z</time>
      </trkpt>
      <trkpt lat="41.794971" lon="22.981737">
        <ele>1404</ele>
        <time>2026-05-06T11:10:15.000Z</time>
      </trkpt>
      <trkpt lat="41.794971" lon="22.981728">
        <ele>1404</ele>
        <time>2026-05-06T11:10:16.000Z</time>
      </trkpt>
      <trkpt lat="41.794971" lon="22.981719">
        <ele>1404</ele>
        <time>2026-05-06T11:10:17.000Z</time>
      </trkpt>
      <trkpt lat="41.79497" lon="22.98171">
        <ele>1404.7</ele>
        <time>2026-05-06T11:10:18.000Z</time>
      </trkpt>
      <trkpt lat="41.794971" lon="22.981701">
        <ele>1404.7</ele>
        <time>2026-05-06T11:10:19.000Z</time>
      </trkpt>
      <trkpt lat="41.79497" lon="22.98169">
        <ele>1404.7</ele>
        <time>2026-05-06T11:10:20.000Z</time>
      </trkpt>
      <trkpt lat="41.794969" lon="22.981682">
        <ele>1404.7</ele>
        <time>2026-05-06T11:10:21.000Z</time>
      </trkpt>
      <trkpt lat="41.794968" lon="22.981672">
        <ele>1404.7</ele>
        <time>2026-05-06T11:10:22.000Z</time>
      </trkpt>
      <trkpt lat="41.794965" lon="22.981663">
        <ele>1405.8</ele>
        <time>2026-05-06T11:10:23.000Z</time>
      </trkpt>
      <trkpt lat="41.79496" lon="22.981653">
        <ele>1405.8</ele>
        <time>2026-05-06T11:10:24.000Z</time>
      </trkpt>
      <trkpt lat="41.794954" lon="22.981643">
        <ele>1405.8</ele>
        <time>2026-05-06T11:10:25.000Z</time>
      </trkpt>
      <trkpt lat="41.794948" lon="22.981631">
        <ele>1405.8</ele>
        <time>2026-05-06T11:10:26.000Z</time>
      </trkpt>
      <trkpt lat="41.794943" lon="22.98162">
        <ele>1405.8</ele>
        <time>2026-05-06T11:10:27.000Z</time>
      </trkpt>
      <trkpt lat="41.79494" lon="22.981607">
        <ele>1406.7</ele>
        <time>2026-05-06T11:10:28.000Z</time>
      </trkpt>
      <trkpt lat="41.794939" lon="22.981593">
        <ele>1406.7</ele>
        <time>2026-05-06T11:10:29.000Z</time>
      </trkpt>
      <trkpt lat="41.794938" lon="22.981582">
        <ele>1406.7</ele>
        <time>2026-05-06T11:10:30.000Z</time>
      </trkpt>
      <trkpt lat="41.794938" lon="22.981571">
        <ele>1406.7</ele>
        <time>2026-05-06T11:10:31.000Z</time>
      </trkpt>
      <trkpt lat="41.794937" lon="22.981558">
        <ele>1406.7</ele>
        <time>2026-05-06T11:10:32.000Z</time>
      </trkpt>
      <trkpt lat="41.794936" lon="22.981547">
        <ele>1407.1</ele>
        <time>2026-05-06T11:10:33.000Z</time>
      </trkpt>
      <trkpt lat="41.794933" lon="22.981538">
        <ele>1407.1</ele>
        <time>2026-05-06T11:10:34.000Z</time>
      </trkpt>
      <trkpt lat="41.79493" lon="22.981527">
        <ele>1407.1</ele>
        <time>2026-05-06T11:10:35.000Z</time>
      </trkpt>
      <trkpt lat="41.794927" lon="22.981516">
        <ele>1407.1</ele>
        <time>2026-05-06T11:10:36.000Z</time>
      </trkpt>
      <trkpt lat="41.794923" lon="22.981504">
        <ele>1407.1</ele>
        <time>2026-05-06T11:10:37.000Z</time>
      </trkpt>
      <trkpt lat="41.794919" lon="22.981494">
        <ele>1407.6</ele>
        <time>2026-05-06T11:10:38.000Z</time>
      </trkpt>
      <trkpt lat="41.794918" lon="22.981481">
        <ele>1407.6</ele>
        <time>2026-05-06T11:10:39.000Z</time>
      </trkpt>
      <trkpt lat="41.794918" lon="22.981471">
        <ele>1407.6</ele>
        <time>2026-05-06T11:10:40.000Z</time>
      </trkpt>
      <trkpt lat="41.794918" lon="22.981463">
        <ele>1407.6</ele>
        <time>2026-05-06T11:10:41.000Z</time>
      </trkpt>
      <trkpt lat="41.794919" lon="22.981456">
        <ele>1407.6</ele>
        <time>2026-05-06T11:10:42.000Z</time>
      </trkpt>
      <trkpt lat="41.794919" lon="22.981449">
        <ele>1408.3</ele>
        <time>2026-05-06T11:10:43.000Z</time>
      </trkpt>
      <trkpt lat="41.794918" lon="22.981443">
        <ele>1408.3</ele>
        <time>2026-05-06T11:10:44.000Z</time>
      </trkpt>
      <trkpt lat="41.794917" lon="22.981433">
        <ele>1408.3</ele>
        <time>2026-05-06T11:10:45.000Z</time>
      </trkpt>
      <trkpt lat="41.794916" lon="22.981421">
        <ele>1408.3</ele>
        <time>2026-05-06T11:10:46.000Z</time>
      </trkpt>
      <trkpt lat="41.794915" lon="22.981408">
        <ele>1408.3</ele>
        <time>2026-05-06T11:10:47.000Z</time>
      </trkpt>
      <trkpt lat="41.794915" lon="22.981394">
        <ele>1408.7</ele>
        <time>2026-05-06T11:10:48.000Z</time>
      </trkpt>
      <trkpt lat="41.794914" lon="22.981381">
        <ele>1408.7</ele>
        <time>2026-05-06T11:10:49.000Z</time>
      </trkpt>
      <trkpt lat="41.794913" lon="22.981369">
        <ele>1408.7</ele>
        <time>2026-05-06T11:10:50.000Z</time>
      </trkpt>
      <trkpt lat="41.794912" lon="22.981356">
        <ele>1408.7</ele>
        <time>2026-05-06T11:10:51.000Z</time>
      </trkpt>
      <trkpt lat="41.794909" lon="22.981344">
        <ele>1408.7</ele>
        <time>2026-05-06T11:10:52.000Z</time>
      </trkpt>
      <trkpt lat="41.794906" lon="22.981335">
        <ele>1409.6</ele>
        <time>2026-05-06T11:10:53.000Z</time>
      </trkpt>
      <trkpt lat="41.794904" lon="22.981325">
        <ele>1409.6</ele>
        <time>2026-05-06T11:10:54.000Z</time>
      </trkpt>
      <trkpt lat="41.794901" lon="22.981313">
        <ele>1409.6</ele>
        <time>2026-05-06T11:10:55.000Z</time>
      </trkpt>
      <trkpt lat="41.794899" lon="22.981302">
        <ele>1409.6</ele>
        <time>2026-05-06T11:10:56.000Z</time>
      </trkpt>
      <trkpt lat="41.794896" lon="22.981292">
        <ele>1409.6</ele>
        <time>2026-05-06T11:10:57.000Z</time>
      </trkpt>
      <trkpt lat="41.794894" lon="22.981278">
        <ele>1410.4</ele>
        <time>2026-05-06T11:10:58.000Z</time>
      </trkpt>
      <trkpt lat="41.794892" lon="22.981264">
        <ele>1410.4</ele>
        <time>2026-05-06T11:10:59.000Z</time>
      </trkpt>
      <trkpt lat="41.794889" lon="22.981253">
        <ele>1410.4</ele>
        <time>2026-05-06T11:11:00.000Z</time>
      </trkpt>
      <trkpt lat="41.794888" lon="22.981241">
        <ele>1410.4</ele>
        <time>2026-05-06T11:11:01.000Z</time>
      </trkpt>
      <trkpt lat="41.794887" lon="22.981229">
        <ele>1410.4</ele>
        <time>2026-05-06T11:11:02.000Z</time>
      </trkpt>
      <trkpt lat="41.794886" lon="22.981217">
        <ele>1410.8</ele>
        <time>2026-05-06T11:11:03.000Z</time>
      </trkpt>
      <trkpt lat="41.794884" lon="22.981205">
        <ele>1410.8</ele>
        <time>2026-05-06T11:11:04.000Z</time>
      </trkpt>
      <trkpt lat="41.794884" lon="22.981193">
        <ele>1410.8</ele>
        <time>2026-05-06T11:11:05.000Z</time>
      </trkpt>
      <trkpt lat="41.794883" lon="22.98118">
        <ele>1410.8</ele>
        <time>2026-05-06T11:11:06.000Z</time>
      </trkpt>
      <trkpt lat="41.794882" lon="22.981166">
        <ele>1410.8</ele>
        <time>2026-05-06T11:11:07.000Z</time>
      </trkpt>
      <trkpt lat="41.794882" lon="22.981151">
        <ele>1411.5</ele>
        <time>2026-05-06T11:11:08.000Z</time>
      </trkpt>
      <trkpt lat="41.794881" lon="22.981137">
        <ele>1411.5</ele>
        <time>2026-05-06T11:11:09.000Z</time>
      </trkpt>
      <trkpt lat="41.79488" lon="22.981122">
        <ele>1411.5</ele>
        <time>2026-05-06T11:11:10.000Z</time>
      </trkpt>
      <trkpt lat="41.794877" lon="22.981107">
        <ele>1411.5</ele>
        <time>2026-05-06T11:11:11.000Z</time>
      </trkpt>
      <trkpt lat="41.794875" lon="22.981092">
        <ele>1411.5</ele>
        <time>2026-05-06T11:11:12.000Z</time>
      </trkpt>
      <trkpt lat="41.794871" lon="22.981077">
        <ele>1412.1</ele>
        <time>2026-05-06T11:11:13.000Z</time>
      </trkpt>
      <trkpt lat="41.794867" lon="22.981061">
        <ele>1412.1</ele>
        <time>2026-05-06T11:11:14.000Z</time>
      </trkpt>
      <trkpt lat="41.794863" lon="22.981046">
        <ele>1412.1</ele>
        <time>2026-05-06T11:11:15.000Z</time>
      </trkpt>
      <trkpt lat="41.794859" lon="22.981031">
        <ele>1412.1</ele>
        <time>2026-05-06T11:11:16.000Z</time>
      </trkpt>
      <trkpt lat="41.794857" lon="22.981015">
        <ele>1412.1</ele>
        <time>2026-05-06T11:11:17.000Z</time>
      </trkpt>
      <trkpt lat="41.794855" lon="22.981001">
        <ele>1412.4</ele>
        <time>2026-05-06T11:11:18.000Z</time>
      </trkpt>
      <trkpt lat="41.794853" lon="22.980987">
        <ele>1412.4</ele>
        <time>2026-05-06T11:11:19.000Z</time>
      </trkpt>
      <trkpt lat="41.794852" lon="22.980973">
        <ele>1412.4</ele>
        <time>2026-05-06T11:11:20.000Z</time>
      </trkpt>
      <trkpt lat="41.794852" lon="22.980959">
        <ele>1412.4</ele>
        <time>2026-05-06T11:11:21.000Z</time>
      </trkpt>
      <trkpt lat="41.794851" lon="22.980945">
        <ele>1412.4</ele>
        <time>2026-05-06T11:11:22.000Z</time>
      </trkpt>
      <trkpt lat="41.794851" lon="22.980931">
        <ele>1413</ele>
        <time>2026-05-06T11:11:23.000Z</time>
      </trkpt>
      <trkpt lat="41.794852" lon="22.980915">
        <ele>1413</ele>
        <time>2026-05-06T11:11:24.000Z</time>
      </trkpt>
      <trkpt lat="41.794852" lon="22.980899">
        <ele>1413</ele>
        <time>2026-05-06T11:11:25.000Z</time>
      </trkpt>
      <trkpt lat="41.794852" lon="22.980884">
        <ele>1413</ele>
        <time>2026-05-06T11:11:26.000Z</time>
      </trkpt>
      <trkpt lat="41.794852" lon="22.98087">
        <ele>1413</ele>
        <time>2026-05-06T11:11:27.000Z</time>
      </trkpt>
      <trkpt lat="41.794852" lon="22.980856">
        <ele>1413.5</ele>
        <time>2026-05-06T11:11:28.000Z</time>
      </trkpt>
      <trkpt lat="41.794851" lon="22.980843">
        <ele>1413.5</ele>
        <time>2026-05-06T11:11:29.000Z</time>
      </trkpt>
      <trkpt lat="41.794851" lon="22.98083">
        <ele>1413.5</ele>
        <time>2026-05-06T11:11:30.000Z</time>
      </trkpt>
      <trkpt lat="41.794852" lon="22.980816">
        <ele>1413.5</ele>
        <time>2026-05-06T11:11:31.000Z</time>
      </trkpt>
      <trkpt lat="41.794852" lon="22.980803">
        <ele>1413.5</ele>
        <time>2026-05-06T11:11:32.000Z</time>
      </trkpt>
      <trkpt lat="41.794852" lon="22.980787">
        <ele>1413.8</ele>
        <time>2026-05-06T11:11:33.000Z</time>
      </trkpt>
      <trkpt lat="41.794852" lon="22.980772">
        <ele>1413.8</ele>
        <time>2026-05-06T11:11:34.000Z</time>
      </trkpt>
      <trkpt lat="41.794851" lon="22.980756">
        <ele>1413.8</ele>
        <time>2026-05-06T11:11:35.000Z</time>
      </trkpt>
      <trkpt lat="41.794849" lon="22.980741">
        <ele>1413.8</ele>
        <time>2026-05-06T11:11:36.000Z</time>
      </trkpt>
      <trkpt lat="41.794846" lon="22.980728">
        <ele>1413.8</ele>
        <time>2026-05-06T11:11:37.000Z</time>
      </trkpt>
      <trkpt lat="41.794844" lon="22.980716">
        <ele>1414.2</ele>
        <time>2026-05-06T11:11:38.000Z</time>
      </trkpt>
      <trkpt lat="41.794841" lon="22.980705">
        <ele>1414.2</ele>
        <time>2026-05-06T11:11:39.000Z</time>
      </trkpt>
      <trkpt lat="41.79484" lon="22.980693">
        <ele>1414.2</ele>
        <time>2026-05-06T11:11:40.000Z</time>
      </trkpt>
      <trkpt lat="41.794839" lon="22.980681">
        <ele>1414.2</ele>
        <time>2026-05-06T11:11:41.000Z</time>
      </trkpt>
      <trkpt lat="41.794839" lon="22.980668">
        <ele>1414.2</ele>
        <time>2026-05-06T11:11:42.000Z</time>
      </trkpt>
      <trkpt lat="41.794838" lon="22.980656">
        <ele>1414.4</ele>
        <time>2026-05-06T11:11:43.000Z</time>
      </trkpt>
      <trkpt lat="41.794839" lon="22.980644">
        <ele>1414.4</ele>
        <time>2026-05-06T11:11:44.000Z</time>
      </trkpt>
      <trkpt lat="41.794839" lon="22.980632">
        <ele>1414.4</ele>
        <time>2026-05-06T11:11:45.000Z</time>
      </trkpt>
      <trkpt lat="41.794839" lon="22.980619">
        <ele>1414.4</ele>
        <time>2026-05-06T11:11:46.000Z</time>
      </trkpt>
      <trkpt lat="41.794839" lon="22.980604">
        <ele>1414.4</ele>
        <time>2026-05-06T11:11:47.000Z</time>
      </trkpt>
      <trkpt lat="41.794841" lon="22.980589">
        <ele>1414.4</ele>
        <time>2026-05-06T11:11:48.000Z</time>
      </trkpt>
      <trkpt lat="41.794843" lon="22.980574">
        <ele>1414.4</ele>
        <time>2026-05-06T11:11:49.000Z</time>
      </trkpt>
      <trkpt lat="41.794845" lon="22.98056">
        <ele>1414.4</ele>
        <time>2026-05-06T11:11:50.000Z</time>
      </trkpt>
      <trkpt lat="41.794847" lon="22.980546">
        <ele>1414.4</ele>
        <time>2026-05-06T11:11:51.000Z</time>
      </trkpt>
      <trkpt lat="41.794849" lon="22.980533">
        <ele>1414.4</ele>
        <time>2026-05-06T11:11:52.000Z</time>
      </trkpt>
      <trkpt lat="41.794849" lon="22.980519">
        <ele>1414.3</ele>
        <time>2026-05-06T11:11:53.000Z</time>
      </trkpt>
      <trkpt lat="41.794848" lon="22.980506">
        <ele>1414.3</ele>
        <time>2026-05-06T11:11:54.000Z</time>
      </trkpt>
      <trkpt lat="41.794845" lon="22.980492">
        <ele>1414.3</ele>
        <time>2026-05-06T11:11:55.000Z</time>
      </trkpt>
      <trkpt lat="41.794842" lon="22.980479">
        <ele>1414.3</ele>
        <time>2026-05-06T11:11:56.000Z</time>
      </trkpt>
      <trkpt lat="41.794838" lon="22.980465">
        <ele>1414.3</ele>
        <time>2026-05-06T11:11:57.000Z</time>
      </trkpt>
      <trkpt lat="41.794836" lon="22.980451">
        <ele>1414.2</ele>
        <time>2026-05-06T11:11:58.000Z</time>
      </trkpt>
      <trkpt lat="41.794834" lon="22.980436">
        <ele>1414.2</ele>
        <time>2026-05-06T11:11:59.000Z</time>
      </trkpt>
      <trkpt lat="41.794834" lon="22.98042">
        <ele>1414.2</ele>
        <time>2026-05-06T11:12:00.000Z</time>
      </trkpt>
      <trkpt lat="41.794834" lon="22.980403">
        <ele>1414.2</ele>
        <time>2026-05-06T11:12:01.000Z</time>
      </trkpt>
      <trkpt lat="41.794834" lon="22.980384">
        <ele>1414.2</ele>
        <time>2026-05-06T11:12:02.000Z</time>
      </trkpt>
      <trkpt lat="41.794834" lon="22.980366">
        <ele>1414.2</ele>
        <time>2026-05-06T11:12:03.000Z</time>
      </trkpt>
      <trkpt lat="41.794834" lon="22.980348">
        <ele>1414.2</ele>
        <time>2026-05-06T11:12:04.000Z</time>
      </trkpt>
      <trkpt lat="41.794835" lon="22.980331">
        <ele>1414.2</ele>
        <time>2026-05-06T11:12:05.000Z</time>
      </trkpt>
      <trkpt lat="41.794836" lon="22.980315">
        <ele>1414.2</ele>
        <time>2026-05-06T11:12:06.000Z</time>
      </trkpt>
      <trkpt lat="41.794835" lon="22.9803">
        <ele>1414.2</ele>
        <time>2026-05-06T11:12:07.000Z</time>
      </trkpt>
      <trkpt lat="41.794835" lon="22.980284">
        <ele>1413.8</ele>
        <time>2026-05-06T11:12:08.000Z</time>
      </trkpt>
      <trkpt lat="41.794834" lon="22.980269">
        <ele>1413.8</ele>
        <time>2026-05-06T11:12:09.000Z</time>
      </trkpt>
      <trkpt lat="41.794833" lon="22.980258">
        <ele>1413.8</ele>
        <time>2026-05-06T11:12:10.000Z</time>
      </trkpt>
      <trkpt lat="41.794831" lon="22.980251">
        <ele>1413.8</ele>
        <time>2026-05-06T11:12:11.000Z</time>
      </trkpt>
      <trkpt lat="41.79483" lon="22.980246">
        <ele>1413.8</ele>
        <time>2026-05-06T11:12:12.000Z</time>
      </trkpt>
      <trkpt lat="41.79483" lon="22.980245">
        <ele>1413.6</ele>
        <time>2026-05-06T11:12:13.000Z</time>
      </trkpt>
      <trkpt lat="41.794829" lon="22.980246">
        <ele>1413.6</ele>
        <time>2026-05-06T11:12:14.000Z</time>
      </trkpt>
      <trkpt lat="41.794829" lon="22.980247">
        <ele>1413.6</ele>
        <time>2026-05-06T11:12:15.000Z</time>
      </trkpt>
      <trkpt lat="41.794828" lon="22.980246">
        <ele>1413.6</ele>
        <time>2026-05-06T11:12:16.000Z</time>
      </trkpt>
      <trkpt lat="41.794826" lon="22.980243">
        <ele>1413.6</ele>
        <time>2026-05-06T11:12:17.000Z</time>
      </trkpt>
      <trkpt lat="41.794824" lon="22.980238">
        <ele>1413.6</ele>
        <time>2026-05-06T11:12:18.000Z</time>
      </trkpt>
      <trkpt lat="41.794822" lon="22.98023">
        <ele>1413.6</ele>
        <time>2026-05-06T11:12:19.000Z</time>
      </trkpt>
      <trkpt lat="41.79482" lon="22.98022">
        <ele>1413.6</ele>
        <time>2026-05-06T11:12:20.000Z</time>
      </trkpt>
      <trkpt lat="41.794821" lon="22.980209">
        <ele>1413.6</ele>
        <time>2026-05-06T11:12:21.000Z</time>
      </trkpt>
      <trkpt lat="41.794822" lon="22.980198">
        <ele>1413.6</ele>
        <time>2026-05-06T11:12:22.000Z</time>
      </trkpt>
      <trkpt lat="41.794822" lon="22.980186">
        <ele>1413.8</ele>
        <time>2026-05-06T11:12:23.000Z</time>
      </trkpt>
      <trkpt lat="41.794822" lon="22.980174">
        <ele>1413.8</ele>
        <time>2026-05-06T11:12:24.000Z</time>
      </trkpt>
      <trkpt lat="41.794821" lon="22.980163">
        <ele>1413.8</ele>
        <time>2026-05-06T11:12:25.000Z</time>
      </trkpt>
      <trkpt lat="41.794821" lon="22.980151">
        <ele>1413.8</ele>
        <time>2026-05-06T11:12:26.000Z</time>
      </trkpt>
      <trkpt lat="41.79482" lon="22.980139">
        <ele>1413.8</ele>
        <time>2026-05-06T11:12:27.000Z</time>
      </trkpt>
      <trkpt lat="41.794818" lon="22.980127">
        <ele>1414.2</ele>
        <time>2026-05-06T11:12:28.000Z</time>
      </trkpt>
      <trkpt lat="41.794818" lon="22.980115">
        <ele>1414.2</ele>
        <time>2026-05-06T11:12:29.000Z</time>
      </trkpt>
      <trkpt lat="41.794817" lon="22.980104">
        <ele>1414.2</ele>
        <time>2026-05-06T11:12:30.000Z</time>
      </trkpt>
      <trkpt lat="41.794814" lon="22.980091">
        <ele>1414.2</ele>
        <time>2026-05-06T11:12:31.000Z</time>
      </trkpt>
      <trkpt lat="41.794811" lon="22.980078">
        <ele>1414.2</ele>
        <time>2026-05-06T11:12:32.000Z</time>
      </trkpt>
      <trkpt lat="41.794808" lon="22.980065">
        <ele>1414.5</ele>
        <time>2026-05-06T11:12:33.000Z</time>
      </trkpt>
      <trkpt lat="41.794805" lon="22.980053">
        <ele>1414.5</ele>
        <time>2026-05-06T11:12:34.000Z</time>
      </trkpt>
      <trkpt lat="41.794802" lon="22.98004">
        <ele>1414.5</ele>
        <time>2026-05-06T11:12:35.000Z</time>
      </trkpt>
      <trkpt lat="41.7948" lon="22.980027">
        <ele>1414.5</ele>
        <time>2026-05-06T11:12:36.000Z</time>
      </trkpt>
      <trkpt lat="41.794799" lon="22.980015">
        <ele>1414.5</ele>
        <time>2026-05-06T11:12:37.000Z</time>
      </trkpt>
      <trkpt lat="41.794798" lon="22.980003">
        <ele>1415.1</ele>
        <time>2026-05-06T11:12:38.000Z</time>
      </trkpt>
      <trkpt lat="41.794796" lon="22.97999">
        <ele>1415.1</ele>
        <time>2026-05-06T11:12:39.000Z</time>
      </trkpt>
      <trkpt lat="41.794795" lon="22.979977">
        <ele>1415.1</ele>
        <time>2026-05-06T11:12:40.000Z</time>
      </trkpt>
      <trkpt lat="41.794793" lon="22.979965">
        <ele>1415.1</ele>
        <time>2026-05-06T11:12:41.000Z</time>
      </trkpt>
      <trkpt lat="41.79479" lon="22.979953">
        <ele>1415.1</ele>
        <time>2026-05-06T11:12:42.000Z</time>
      </trkpt>
      <trkpt lat="41.794788" lon="22.97994">
        <ele>1416</ele>
        <time>2026-05-06T11:12:43.000Z</time>
      </trkpt>
      <trkpt lat="41.794787" lon="22.979928">
        <ele>1416</ele>
        <time>2026-05-06T11:12:44.000Z</time>
      </trkpt>
      <trkpt lat="41.794785" lon="22.979918">
        <ele>1416</ele>
        <time>2026-05-06T11:12:45.000Z</time>
      </trkpt>
      <trkpt lat="41.794783" lon="22.979906">
        <ele>1416</ele>
        <time>2026-05-06T11:12:46.000Z</time>
      </trkpt>
      <trkpt lat="41.794781" lon="22.979894">
        <ele>1416</ele>
        <time>2026-05-06T11:12:47.000Z</time>
      </trkpt>
      <trkpt lat="41.794778" lon="22.979884">
        <ele>1416.5</ele>
        <time>2026-05-06T11:12:48.000Z</time>
      </trkpt>
      <trkpt lat="41.794775" lon="22.979872">
        <ele>1416.5</ele>
        <time>2026-05-06T11:12:49.000Z</time>
      </trkpt>
      <trkpt lat="41.794773" lon="22.979859">
        <ele>1416.5</ele>
        <time>2026-05-06T11:12:50.000Z</time>
      </trkpt>
      <trkpt lat="41.794772" lon="22.979848">
        <ele>1416.5</ele>
        <time>2026-05-06T11:12:51.000Z</time>
      </trkpt>
      <trkpt lat="41.794771" lon="22.979837">
        <ele>1416.5</ele>
        <time>2026-05-06T11:12:52.000Z</time>
      </trkpt>
      <trkpt lat="41.794772" lon="22.979827">
        <ele>1417.6</ele>
        <time>2026-05-06T11:12:53.000Z</time>
      </trkpt>
      <trkpt lat="41.794772" lon="22.979818">
        <ele>1417.6</ele>
        <time>2026-05-06T11:12:54.000Z</time>
      </trkpt>
      <trkpt lat="41.794772" lon="22.97981">
        <ele>1417.6</ele>
        <time>2026-05-06T11:12:55.000Z</time>
      </trkpt>
      <trkpt lat="41.794771" lon="22.979802">
        <ele>1417.6</ele>
        <time>2026-05-06T11:12:56.000Z</time>
      </trkpt>
      <trkpt lat="41.794771" lon="22.979793">
        <ele>1417.6</ele>
        <time>2026-05-06T11:12:57.000Z</time>
      </trkpt>
      <trkpt lat="41.794771" lon="22.979784">
        <ele>1418.9</ele>
        <time>2026-05-06T11:12:58.000Z</time>
      </trkpt>
      <trkpt lat="41.79477" lon="22.979774">
        <ele>1418.9</ele>
        <time>2026-05-06T11:12:59.000Z</time>
      </trkpt>
      <trkpt lat="41.794768" lon="22.979762">
        <ele>1418.9</ele>
        <time>2026-05-06T11:13:00.000Z</time>
      </trkpt>
      <trkpt lat="41.794766" lon="22.979748">
        <ele>1418.9</ele>
        <time>2026-05-06T11:13:01.000Z</time>
      </trkpt>
      <trkpt lat="41.794763" lon="22.979735">
        <ele>1418.9</ele>
        <time>2026-05-06T11:13:02.000Z</time>
      </trkpt>
      <trkpt lat="41.79476" lon="22.979721">
        <ele>1419.6</ele>
        <time>2026-05-06T11:13:03.000Z</time>
      </trkpt>
      <trkpt lat="41.794758" lon="22.979707">
        <ele>1419.6</ele>
        <time>2026-05-06T11:13:04.000Z</time>
      </trkpt>
      <trkpt lat="41.794756" lon="22.979695">
        <ele>1419.6</ele>
        <time>2026-05-06T11:13:05.000Z</time>
      </trkpt>
      <trkpt lat="41.794755" lon="22.979684">
        <ele>1419.6</ele>
        <time>2026-05-06T11:13:06.000Z</time>
      </trkpt>
      <trkpt lat="41.794754" lon="22.979673">
        <ele>1419.6</ele>
        <time>2026-05-06T11:13:07.000Z</time>
      </trkpt>
      <trkpt lat="41.794752" lon="22.979663">
        <ele>1421</ele>
        <time>2026-05-06T11:13:08.000Z</time>
      </trkpt>
      <trkpt lat="41.79475" lon="22.979654">
        <ele>1421</ele>
        <time>2026-05-06T11:13:09.000Z</time>
      </trkpt>
      <trkpt lat="41.794751" lon="22.979644">
        <ele>1421</ele>
        <time>2026-05-06T11:13:10.000Z</time>
      </trkpt>
      <trkpt lat="41.794751" lon="22.979635">
        <ele>1421</ele>
        <time>2026-05-06T11:13:11.000Z</time>
      </trkpt>
      <trkpt lat="41.794752" lon="22.979626">
        <ele>1421</ele>
        <time>2026-05-06T11:13:12.000Z</time>
      </trkpt>
      <trkpt lat="41.794755" lon="22.979616">
        <ele>1422.1</ele>
        <time>2026-05-06T11:13:13.000Z</time>
      </trkpt>
      <trkpt lat="41.794758" lon="22.979607">
        <ele>1422.1</ele>
        <time>2026-05-06T11:13:14.000Z</time>
      </trkpt>
      <trkpt lat="41.79476" lon="22.979601">
        <ele>1422.1</ele>
        <time>2026-05-06T11:13:15.000Z</time>
      </trkpt>
      <trkpt lat="41.794763" lon="22.979594">
        <ele>1422.1</ele>
        <time>2026-05-06T11:13:16.000Z</time>
      </trkpt>
      <trkpt lat="41.794766" lon="22.97959">
        <ele>1422.1</ele>
        <time>2026-05-06T11:13:17.000Z</time>
      </trkpt>
      <trkpt lat="41.794768" lon="22.979587">
        <ele>1422.7</ele>
        <time>2026-05-06T11:13:18.000Z</time>
      </trkpt>
      <trkpt lat="41.794769" lon="22.979582">
        <ele>1422.7</ele>
        <time>2026-05-06T11:13:19.000Z</time>
      </trkpt>
      <trkpt lat="41.79477" lon="22.979576">
        <ele>1422.7</ele>
        <time>2026-05-06T11:13:20.000Z</time>
      </trkpt>
      <trkpt lat="41.794769" lon="22.979567">
        <ele>1422.7</ele>
        <time>2026-05-06T11:13:21.000Z</time>
      </trkpt>
      <trkpt lat="41.794766" lon="22.979557">
        <ele>1422.7</ele>
        <time>2026-05-06T11:13:22.000Z</time>
      </trkpt>
      <trkpt lat="41.794762" lon="22.979548">
        <ele>1423.7</ele>
        <time>2026-05-06T11:13:23.000Z</time>
      </trkpt>
      <trkpt lat="41.794757" lon="22.979537">
        <ele>1423.7</ele>
        <time>2026-05-06T11:13:24.000Z</time>
      </trkpt>
      <trkpt lat="41.79475" lon="22.979526">
        <ele>1423.7</ele>
        <time>2026-05-06T11:13:25.000Z</time>
      </trkpt>
      <trkpt lat="41.794745" lon="22.979516">
        <ele>1423.7</ele>
        <time>2026-05-06T11:13:26.000Z</time>
      </trkpt>
      <trkpt lat="41.79474" lon="22.979506">
        <ele>1423.7</ele>
        <time>2026-05-06T11:13:27.000Z</time>
      </trkpt>
      <trkpt lat="41.794735" lon="22.979497">
        <ele>1424.7</ele>
        <time>2026-05-06T11:13:28.000Z</time>
      </trkpt>
      <trkpt lat="41.79473" lon="22.979489">
        <ele>1424.7</ele>
        <time>2026-05-06T11:13:29.000Z</time>
      </trkpt>
      <trkpt lat="41.794726" lon="22.979482">
        <ele>1424.7</ele>
        <time>2026-05-06T11:13:30.000Z</time>
      </trkpt>
      <trkpt lat="41.794723" lon="22.979473">
        <ele>1424.7</ele>
        <time>2026-05-06T11:13:31.000Z</time>
      </trkpt>
      <trkpt lat="41.794723" lon="22.979463">
        <ele>1424.7</ele>
        <time>2026-05-06T11:13:32.000Z</time>
      </trkpt>
      <trkpt lat="41.794724" lon="22.979452">
        <ele>1425.2</ele>
        <time>2026-05-06T11:13:33.000Z</time>
      </trkpt>
      <trkpt lat="41.794728" lon="22.97944">
        <ele>1425.2</ele>
        <time>2026-05-06T11:13:34.000Z</time>
      </trkpt>
      <trkpt lat="41.794732" lon="22.97943">
        <ele>1425.2</ele>
        <time>2026-05-06T11:13:35.000Z</time>
      </trkpt>
      <trkpt lat="41.794738" lon="22.979423">
        <ele>1425.2</ele>
        <time>2026-05-06T11:13:36.000Z</time>
      </trkpt>
      <trkpt lat="41.794741" lon="22.979417">
        <ele>1425.2</ele>
        <time>2026-05-06T11:13:37.000Z</time>
      </trkpt>
      <trkpt lat="41.794743" lon="22.979414">
        <ele>1426.2</ele>
        <time>2026-05-06T11:13:38.000Z</time>
      </trkpt>
      <trkpt lat="41.794742" lon="22.979412">
        <ele>1426.2</ele>
        <time>2026-05-06T11:13:39.000Z</time>
      </trkpt>
      <trkpt lat="41.79474" lon="22.97941">
        <ele>1426.2</ele>
        <time>2026-05-06T11:13:40.000Z</time>
      </trkpt>
      <trkpt lat="41.794738" lon="22.979408">
        <ele>1426.2</ele>
        <time>2026-05-06T11:13:41.000Z</time>
      </trkpt>
      <trkpt lat="41.794734" lon="22.979404">
        <ele>1426.2</ele>
        <time>2026-05-06T11:13:42.000Z</time>
      </trkpt>
      <trkpt lat="41.794731" lon="22.979399">
        <ele>1427.4</ele>
        <time>2026-05-06T11:13:43.000Z</time>
      </trkpt>
      <trkpt lat="41.794729" lon="22.979391">
        <ele>1427.4</ele>
        <time>2026-05-06T11:13:44.000Z</time>
      </trkpt>
      <trkpt lat="41.794728" lon="22.979381">
        <ele>1427.4</ele>
        <time>2026-05-06T11:13:45.000Z</time>
      </trkpt>
      <trkpt lat="41.794728" lon="22.97937">
        <ele>1427.4</ele>
        <time>2026-05-06T11:13:46.000Z</time>
      </trkpt>
      <trkpt lat="41.79473" lon="22.979361">
        <ele>1427.4</ele>
        <time>2026-05-06T11:13:47.000Z</time>
      </trkpt>
      <trkpt lat="41.794732" lon="22.979351">
        <ele>1427.9</ele>
        <time>2026-05-06T11:13:48.000Z</time>
      </trkpt>
      <trkpt lat="41.794733" lon="22.979342">
        <ele>1427.9</ele>
        <time>2026-05-06T11:13:49.000Z</time>
      </trkpt>
      <trkpt lat="41.794732" lon="22.979334">
        <ele>1427.9</ele>
        <time>2026-05-06T11:13:50.000Z</time>
      </trkpt>
      <trkpt lat="41.794729" lon="22.979324">
        <ele>1427.9</ele>
        <time>2026-05-06T11:13:51.000Z</time>
      </trkpt>
      <trkpt lat="41.794724" lon="22.979314">
        <ele>1427.9</ele>
        <time>2026-05-06T11:13:52.000Z</time>
      </trkpt>
      <trkpt lat="41.794721" lon="22.979305">
        <ele>1428.5</ele>
        <time>2026-05-06T11:13:53.000Z</time>
      </trkpt>
      <trkpt lat="41.794718" lon="22.979293">
        <ele>1428.5</ele>
        <time>2026-05-06T11:13:54.000Z</time>
      </trkpt>
      <trkpt lat="41.794717" lon="22.979282">
        <ele>1428.5</ele>
        <time>2026-05-06T11:13:55.000Z</time>
      </trkpt>
      <trkpt lat="41.794716" lon="22.979272">
        <ele>1428.5</ele>
        <time>2026-05-06T11:13:56.000Z</time>
      </trkpt>
      <trkpt lat="41.794715" lon="22.979262">
        <ele>1428.5</ele>
        <time>2026-05-06T11:13:57.000Z</time>
      </trkpt>
      <trkpt lat="41.794714" lon="22.979249">
        <ele>1429.1</ele>
        <time>2026-05-06T11:13:58.000Z</time>
      </trkpt>
      <trkpt lat="41.794713" lon="22.979237">
        <ele>1429.1</ele>
        <time>2026-05-06T11:13:59.000Z</time>
      </trkpt>
      <trkpt lat="41.794712" lon="22.979226">
        <ele>1429.1</ele>
        <time>2026-05-06T11:14:00.000Z</time>
      </trkpt>
      <trkpt lat="41.794711" lon="22.979214">
        <ele>1429.1</ele>
        <time>2026-05-06T11:14:01.000Z</time>
      </trkpt>
      <trkpt lat="41.794708" lon="22.979202">
        <ele>1429.1</ele>
        <time>2026-05-06T11:14:02.000Z</time>
      </trkpt>
      <trkpt lat="41.794706" lon="22.979191">
        <ele>1429.7</ele>
        <time>2026-05-06T11:14:03.000Z</time>
      </trkpt>
      <trkpt lat="41.794703" lon="22.979182">
        <ele>1429.7</ele>
        <time>2026-05-06T11:14:04.000Z</time>
      </trkpt>
      <trkpt lat="41.794701" lon="22.979172">
        <ele>1429.7</ele>
        <time>2026-05-06T11:14:05.000Z</time>
      </trkpt>
      <trkpt lat="41.794699" lon="22.979164">
        <ele>1429.7</ele>
        <time>2026-05-06T11:14:06.000Z</time>
      </trkpt>
      <trkpt lat="41.794699" lon="22.979155">
        <ele>1429.7</ele>
        <time>2026-05-06T11:14:07.000Z</time>
      </trkpt>
      <trkpt lat="41.794701" lon="22.979146">
        <ele>1430.9</ele>
        <time>2026-05-06T11:14:08.000Z</time>
      </trkpt>
      <trkpt lat="41.794703" lon="22.979137">
        <ele>1430.9</ele>
        <time>2026-05-06T11:14:09.000Z</time>
      </trkpt>
      <trkpt lat="41.794706" lon="22.979127">
        <ele>1430.9</ele>
        <time>2026-05-06T11:14:10.000Z</time>
      </trkpt>
      <trkpt lat="41.79471" lon="22.979117">
        <ele>1430.9</ele>
        <time>2026-05-06T11:14:11.000Z</time>
      </trkpt>
      <trkpt lat="41.794713" lon="22.979107">
        <ele>1430.9</ele>
        <time>2026-05-06T11:14:12.000Z</time>
      </trkpt>
      <trkpt lat="41.794714" lon="22.979099">
        <ele>1432.1</ele>
        <time>2026-05-06T11:14:13.000Z</time>
      </trkpt>
      <trkpt lat="41.794715" lon="22.979089">
        <ele>1432.1</ele>
        <time>2026-05-06T11:14:14.000Z</time>
      </trkpt>
      <trkpt lat="41.794714" lon="22.97908">
        <ele>1432.1</ele>
        <time>2026-05-06T11:14:15.000Z</time>
      </trkpt>
      <trkpt lat="41.794713" lon="22.979072">
        <ele>1432.1</ele>
        <time>2026-05-06T11:14:16.000Z</time>
      </trkpt>
      <trkpt lat="41.794712" lon="22.979065">
        <ele>1432.1</ele>
        <time>2026-05-06T11:14:17.000Z</time>
      </trkpt>
      <trkpt lat="41.794711" lon="22.979059">
        <ele>1432.7</ele>
        <time>2026-05-06T11:14:18.000Z</time>
      </trkpt>
      <trkpt lat="41.794709" lon="22.979055">
        <ele>1432.7</ele>
        <time>2026-05-06T11:14:19.000Z</time>
      </trkpt>
      <trkpt lat="41.794706" lon="22.979051">
        <ele>1432.7</ele>
        <time>2026-05-06T11:14:20.000Z</time>
      </trkpt>
      <trkpt lat="41.794702" lon="22.979045">
        <ele>1432.7</ele>
        <time>2026-05-06T11:14:21.000Z</time>
      </trkpt>
      <trkpt lat="41.794698" lon="22.979037">
        <ele>1432.7</ele>
        <time>2026-05-06T11:14:22.000Z</time>
      </trkpt>
      <trkpt lat="41.794695" lon="22.979028">
        <ele>1433.9</ele>
        <time>2026-05-06T11:14:23.000Z</time>
      </trkpt>
      <trkpt lat="41.794692" lon="22.979017">
        <ele>1433.9</ele>
        <time>2026-05-06T11:14:24.000Z</time>
      </trkpt>
      <trkpt lat="41.79469" lon="22.979005">
        <ele>1433.9</ele>
        <time>2026-05-06T11:14:25.000Z</time>
      </trkpt>
      <trkpt lat="41.79469" lon="22.978994">
        <ele>1433.9</ele>
        <time>2026-05-06T11:14:26.000Z</time>
      </trkpt>
      <trkpt lat="41.794688" lon="22.978982">
        <ele>1433.9</ele>
        <time>2026-05-06T11:14:27.000Z</time>
      </trkpt>
      <trkpt lat="41.794687" lon="22.978968">
        <ele>1435</ele>
        <time>2026-05-06T11:14:28.000Z</time>
      </trkpt>
      <trkpt lat="41.794688" lon="22.978956">
        <ele>1435</ele>
        <time>2026-05-06T11:14:29.000Z</time>
      </trkpt>
      <trkpt lat="41.794688" lon="22.978944">
        <ele>1435</ele>
        <time>2026-05-06T11:14:30.000Z</time>
      </trkpt>
      <trkpt lat="41.794689" lon="22.978931">
        <ele>1435</ele>
        <time>2026-05-06T11:14:31.000Z</time>
      </trkpt>
      <trkpt lat="41.794691" lon="22.978919">
        <ele>1435</ele>
        <time>2026-05-06T11:14:32.000Z</time>
      </trkpt>
      <trkpt lat="41.794692" lon="22.978908">
        <ele>1435.6</ele>
        <time>2026-05-06T11:14:33.000Z</time>
      </trkpt>
      <trkpt lat="41.794693" lon="22.978896">
        <ele>1435.6</ele>
        <time>2026-05-06T11:14:34.000Z</time>
      </trkpt>
      <trkpt lat="41.794693" lon="22.978883">
        <ele>1435.6</ele>
        <time>2026-05-06T11:14:35.000Z</time>
      </trkpt>
      <trkpt lat="41.794694" lon="22.978872">
        <ele>1435.6</ele>
        <time>2026-05-06T11:14:36.000Z</time>
      </trkpt>
      <trkpt lat="41.794695" lon="22.978863">
        <ele>1435.6</ele>
        <time>2026-05-06T11:14:37.000Z</time>
      </trkpt>
      <trkpt lat="41.794696" lon="22.978855">
        <ele>1436.6</ele>
        <time>2026-05-06T11:14:38.000Z</time>
      </trkpt>
      <trkpt lat="41.794698" lon="22.978849">
        <ele>1436.6</ele>
        <time>2026-05-06T11:14:39.000Z</time>
      </trkpt>
      <trkpt lat="41.7947" lon="22.978846">
        <ele>1436.6</ele>
        <time>2026-05-06T11:14:40.000Z</time>
      </trkpt>
      <trkpt lat="41.794701" lon="22.978844">
        <ele>1436.6</ele>
        <time>2026-05-06T11:14:41.000Z</time>
      </trkpt>
      <trkpt lat="41.794702" lon="22.978842">
        <ele>1436.6</ele>
        <time>2026-05-06T11:14:42.000Z</time>
      </trkpt>
      <trkpt lat="41.794702" lon="22.978841">
        <ele>1437.6</ele>
        <time>2026-05-06T11:14:43.000Z</time>
      </trkpt>
      <trkpt lat="41.794701" lon="22.97884">
        <ele>1437.6</ele>
        <time>2026-05-06T11:14:44.000Z</time>
      </trkpt>
      <trkpt lat="41.7947" lon="22.978839">
        <ele>1437.6</ele>
        <time>2026-05-06T11:14:45.000Z</time>
      </trkpt>
      <trkpt lat="41.794698" lon="22.978838">
        <ele>1437.6</ele>
        <time>2026-05-06T11:14:46.000Z</time>
      </trkpt>
      <trkpt lat="41.794696" lon="22.978839">
        <ele>1437.6</ele>
        <time>2026-05-06T11:14:47.000Z</time>
      </trkpt>
      <trkpt lat="41.794694" lon="22.978839">
        <ele>1438.1</ele>
        <time>2026-05-06T11:14:48.000Z</time>
      </trkpt>
      <trkpt lat="41.794693" lon="22.97884">
        <ele>1438.1</ele>
        <time>2026-05-06T11:14:49.000Z</time>
      </trkpt>
      <trkpt lat="41.794692" lon="22.978841">
        <ele>1438.1</ele>
        <time>2026-05-06T11:14:50.000Z</time>
      </trkpt>
      <trkpt lat="41.794692" lon="22.978843">
        <ele>1438.1</ele>
        <time>2026-05-06T11:14:51.000Z</time>
      </trkpt>
      <trkpt lat="41.794693" lon="22.978844">
        <ele>1438.1</ele>
        <time>2026-05-06T11:14:52.000Z</time>
      </trkpt>
      <trkpt lat="41.794694" lon="22.978845">
        <ele>1438.8</ele>
        <time>2026-05-06T11:14:53.000Z</time>
      </trkpt>
      <trkpt lat="41.794694" lon="22.978845">
        <ele>1438.8</ele>
        <time>2026-05-06T11:14:54.000Z</time>
      </trkpt>
      <trkpt lat="41.794692" lon="22.978843">
        <ele>1438.8</ele>
        <time>2026-05-06T11:14:55.000Z</time>
      </trkpt>
      <trkpt lat="41.79469" lon="22.978838">
        <ele>1438.8</ele>
        <time>2026-05-06T11:14:56.000Z</time>
      </trkpt>
      <trkpt lat="41.794688" lon="22.97883">
        <ele>1438.8</ele>
        <time>2026-05-06T11:14:57.000Z</time>
      </trkpt>
      <trkpt lat="41.794685" lon="22.978818">
        <ele>1439</ele>
        <time>2026-05-06T11:14:58.000Z</time>
      </trkpt>
      <trkpt lat="41.794683" lon="22.978804">
        <ele>1439</ele>
        <time>2026-05-06T11:14:59.000Z</time>
      </trkpt>
      <trkpt lat="41.794683" lon="22.978789">
        <ele>1439</ele>
        <time>2026-05-06T11:15:00.000Z</time>
      </trkpt>
      <trkpt lat="41.794683" lon="22.978774">
        <ele>1439</ele>
        <time>2026-05-06T11:15:01.000Z</time>
      </trkpt>
      <trkpt lat="41.794683" lon="22.978759">
        <ele>1439</ele>
        <time>2026-05-06T11:15:02.000Z</time>
      </trkpt>
      <trkpt lat="41.794682" lon="22.978745">
        <ele>1439</ele>
        <time>2026-05-06T11:15:03.000Z</time>
      </trkpt>
      <trkpt lat="41.79468" lon="22.978732">
        <ele>1439</ele>
        <time>2026-05-06T11:15:04.000Z</time>
      </trkpt>
      <trkpt lat="41.794678" lon="22.97872">
        <ele>1439</ele>
        <time>2026-05-06T11:15:05.000Z</time>
      </trkpt>
      <trkpt lat="41.794677" lon="22.978709">
        <ele>1439</ele>
        <time>2026-05-06T11:15:06.000Z</time>
      </trkpt>
      <trkpt lat="41.794676" lon="22.978702">
        <ele>1439</ele>
        <time>2026-05-06T11:15:07.000Z</time>
      </trkpt>
      <trkpt lat="41.794674" lon="22.978697">
        <ele>1439.2</ele>
        <time>2026-05-06T11:15:08.000Z</time>
      </trkpt>
      <trkpt lat="41.794672" lon="22.978691">
        <ele>1439.2</ele>
        <time>2026-05-06T11:15:09.000Z</time>
      </trkpt>
      <trkpt lat="41.794669" lon="22.978687">
        <ele>1439.2</ele>
        <time>2026-05-06T11:15:10.000Z</time>
      </trkpt>
      <trkpt lat="41.794666" lon="22.978682">
        <ele>1439.2</ele>
        <time>2026-05-06T11:15:11.000Z</time>
      </trkpt>
      <trkpt lat="41.794663" lon="22.978678">
        <ele>1439.2</ele>
        <time>2026-05-06T11:15:12.000Z</time>
      </trkpt>
      <trkpt lat="41.794663" lon="22.978673">
        <ele>1439.9</ele>
        <time>2026-05-06T11:15:13.000Z</time>
      </trkpt>
      <trkpt lat="41.794664" lon="22.97867">
        <ele>1439.9</ele>
        <time>2026-05-06T11:15:14.000Z</time>
      </trkpt>
      <trkpt lat="41.794667" lon="22.978667">
        <ele>1439.9</ele>
        <time>2026-05-06T11:15:15.000Z</time>
      </trkpt>
      <trkpt lat="41.794669" lon="22.978665">
        <ele>1439.9</ele>
        <time>2026-05-06T11:15:16.000Z</time>
      </trkpt>
      <trkpt lat="41.794672" lon="22.978661">
        <ele>1439.9</ele>
        <time>2026-05-06T11:15:17.000Z</time>
      </trkpt>
      <trkpt lat="41.794674" lon="22.978659">
        <ele>1440.4</ele>
        <time>2026-05-06T11:15:18.000Z</time>
      </trkpt>
      <trkpt lat="41.794675" lon="22.978657">
        <ele>1440.4</ele>
        <time>2026-05-06T11:15:19.000Z</time>
      </trkpt>
      <trkpt lat="41.794676" lon="22.978655">
        <ele>1440.4</ele>
        <time>2026-05-06T11:15:20.000Z</time>
      </trkpt>
      <trkpt lat="41.794676" lon="22.978654">
        <ele>1440.4</ele>
        <time>2026-05-06T11:15:21.000Z</time>
      </trkpt>
      <trkpt lat="41.794676" lon="22.978653">
        <ele>1440.4</ele>
        <time>2026-05-06T11:15:22.000Z</time>
      </trkpt>
      <trkpt lat="41.794676" lon="22.978653">
        <ele>1441.4</ele>
        <time>2026-05-06T11:15:23.000Z</time>
      </trkpt>
      <trkpt lat="41.794676" lon="22.978652">
        <ele>1441.4</ele>
        <time>2026-05-06T11:15:24.000Z</time>
      </trkpt>
      <trkpt lat="41.794676" lon="22.978653">
        <ele>1441.4</ele>
        <time>2026-05-06T11:15:25.000Z</time>
      </trkpt>
      <trkpt lat="41.794676" lon="22.978653">
        <ele>1441.4</ele>
        <time>2026-05-06T11:15:26.000Z</time>
      </trkpt>
      <trkpt lat="41.794676" lon="22.978654">
        <ele>1441.4</ele>
        <time>2026-05-06T11:15:27.000Z</time>
      </trkpt>
      <trkpt lat="41.794675" lon="22.978652">
        <ele>1441.9</ele>
        <time>2026-05-06T11:15:28.000Z</time>
      </trkpt>
      <trkpt lat="41.794673" lon="22.978648">
        <ele>1441.9</ele>
        <time>2026-05-06T11:15:29.000Z</time>
      </trkpt>
      <trkpt lat="41.79467" lon="22.978642">
        <ele>1441.9</ele>
        <time>2026-05-06T11:15:30.000Z</time>
      </trkpt>
      <trkpt lat="41.794667" lon="22.978634">
        <ele>1441.9</ele>
        <time>2026-05-06T11:15:31.000Z</time>
      </trkpt>
      <trkpt lat="41.794664" lon="22.978623">
        <ele>1441.9</ele>
        <time>2026-05-06T11:15:32.000Z</time>
      </trkpt>
      <trkpt lat="41.794662" lon="22.978611">
        <ele>1442</ele>
        <time>2026-05-06T11:15:33.000Z</time>
      </trkpt>
      <trkpt lat="41.794662" lon="22.978599">
        <ele>1442</ele>
        <time>2026-05-06T11:15:34.000Z</time>
      </trkpt>
      <trkpt lat="41.794661" lon="22.978587">
        <ele>1442</ele>
        <time>2026-05-06T11:15:35.000Z</time>
      </trkpt>
      <trkpt lat="41.79466" lon="22.978574">
        <ele>1442</ele>
        <time>2026-05-06T11:15:36.000Z</time>
      </trkpt>
      <trkpt lat="41.794657" lon="22.978564">
        <ele>1442</ele>
        <time>2026-05-06T11:15:37.000Z</time>
      </trkpt>
      <trkpt lat="41.794653" lon="22.978554">
        <ele>1441.9</ele>
        <time>2026-05-06T11:15:38.000Z</time>
      </trkpt>
      <trkpt lat="41.794647" lon="22.978544">
        <ele>1441.9</ele>
        <time>2026-05-06T11:15:39.000Z</time>
      </trkpt>
      <trkpt lat="41.79464" lon="22.978534">
        <ele>1441.9</ele>
        <time>2026-05-06T11:15:40.000Z</time>
      </trkpt>
      <trkpt lat="41.794634" lon="22.978524">
        <ele>1441.9</ele>
        <time>2026-05-06T11:15:41.000Z</time>
      </trkpt>
      <trkpt lat="41.794628" lon="22.978513">
        <ele>1441.9</ele>
        <time>2026-05-06T11:15:42.000Z</time>
      </trkpt>
      <trkpt lat="41.794622" lon="22.978501">
        <ele>1442.2</ele>
        <time>2026-05-06T11:15:43.000Z</time>
      </trkpt>
      <trkpt lat="41.794616" lon="22.978488">
        <ele>1442.2</ele>
        <time>2026-05-06T11:15:44.000Z</time>
      </trkpt>
      <trkpt lat="41.794612" lon="22.978476">
        <ele>1442.2</ele>
        <time>2026-05-06T11:15:45.000Z</time>
      </trkpt>
      <trkpt lat="41.794607" lon="22.978464">
        <ele>1442.2</ele>
        <time>2026-05-06T11:15:46.000Z</time>
      </trkpt>
      <trkpt lat="41.794602" lon="22.978452">
        <ele>1442.2</ele>
        <time>2026-05-06T11:15:47.000Z</time>
      </trkpt>
      <trkpt lat="41.794596" lon="22.978443">
        <ele>1442.6</ele>
        <time>2026-05-06T11:15:48.000Z</time>
      </trkpt>
      <trkpt lat="41.794589" lon="22.978436">
        <ele>1442.6</ele>
        <time>2026-05-06T11:15:49.000Z</time>
      </trkpt>
      <trkpt lat="41.794581" lon="22.97843">
        <ele>1442.6</ele>
        <time>2026-05-06T11:15:50.000Z</time>
      </trkpt>
      <trkpt lat="41.794571" lon="22.978424">
        <ele>1442.6</ele>
        <time>2026-05-06T11:15:51.000Z</time>
      </trkpt>
      <trkpt lat="41.794561" lon="22.978417">
        <ele>1442.6</ele>
        <time>2026-05-06T11:15:52.000Z</time>
      </trkpt>
      <trkpt lat="41.794553" lon="22.97841">
        <ele>1443.7</ele>
        <time>2026-05-06T11:15:53.000Z</time>
      </trkpt>
      <trkpt lat="41.794548" lon="22.978402">
        <ele>1443.7</ele>
        <time>2026-05-06T11:15:54.000Z</time>
      </trkpt>
      <trkpt lat="41.794545" lon="22.978397">
        <ele>1443.7</ele>
        <time>2026-05-06T11:15:55.000Z</time>
      </trkpt>
      <trkpt lat="41.794544" lon="22.978395">
        <ele>1443.7</ele>
        <time>2026-05-06T11:15:56.000Z</time>
      </trkpt>
      <trkpt lat="41.794544" lon="22.978396">
        <ele>1443.7</ele>
        <time>2026-05-06T11:15:57.000Z</time>
      </trkpt>
      <trkpt lat="41.794544" lon="22.978399">
        <ele>1445</ele>
        <time>2026-05-06T11:15:58.000Z</time>
      </trkpt>
      <trkpt lat="41.794543" lon="22.978402">
        <ele>1445</ele>
        <time>2026-05-06T11:15:59.000Z</time>
      </trkpt>
      <trkpt lat="41.794544" lon="22.978404">
        <ele>1445</ele>
        <time>2026-05-06T11:16:00.000Z</time>
      </trkpt>
      <trkpt lat="41.794544" lon="22.978405">
        <ele>1445</ele>
        <time>2026-05-06T11:16:01.000Z</time>
      </trkpt>
      <trkpt lat="41.794546" lon="22.978405">
        <ele>1445</ele>
        <time>2026-05-06T11:16:02.000Z</time>
      </trkpt>
      <trkpt lat="41.794547" lon="22.978405">
        <ele>1445.6</ele>
        <time>2026-05-06T11:16:03.000Z</time>
      </trkpt>
      <trkpt lat="41.794549" lon="22.978404">
        <ele>1445.6</ele>
        <time>2026-05-06T11:16:04.000Z</time>
      </trkpt>
      <trkpt lat="41.79455" lon="22.978403">
        <ele>1445.6</ele>
        <time>2026-05-06T11:16:05.000Z</time>
      </trkpt>
      <trkpt lat="41.794551" lon="22.978403">
        <ele>1445.6</ele>
        <time>2026-05-06T11:16:06.000Z</time>
      </trkpt>
      <trkpt lat="41.794551" lon="22.978403">
        <ele>1445.6</ele>
        <time>2026-05-06T11:16:07.000Z</time>
      </trkpt>
      <trkpt lat="41.794551" lon="22.978403">
        <ele>1446.4</ele>
        <time>2026-05-06T11:16:08.000Z</time>
      </trkpt>
      <trkpt lat="41.794551" lon="22.978404">
        <ele>1446.4</ele>
        <time>2026-05-06T11:16:09.000Z</time>
      </trkpt>
      <trkpt lat="41.794551" lon="22.978403">
        <ele>1446.4</ele>
        <time>2026-05-06T11:16:10.000Z</time>
      </trkpt>
      <trkpt lat="41.794552" lon="22.978402">
        <ele>1446.4</ele>
        <time>2026-05-06T11:16:11.000Z</time>
      </trkpt>
      <trkpt lat="41.794554" lon="22.978402">
        <ele>1446.4</ele>
        <time>2026-05-06T11:16:12.000Z</time>
      </trkpt>
      <trkpt lat="41.794555" lon="22.978402">
        <ele>1446.7</ele>
        <time>2026-05-06T11:16:13.000Z</time>
      </trkpt>
      <trkpt lat="41.794556" lon="22.978402">
        <ele>1446.7</ele>
        <time>2026-05-06T11:16:14.000Z</time>
      </trkpt>
      <trkpt lat="41.794555" lon="22.978403">
        <ele>1446.7</ele>
        <time>2026-05-06T11:16:15.000Z</time>
      </trkpt>
      <trkpt lat="41.794554" lon="22.978402">
        <ele>1446.7</ele>
        <time>2026-05-06T11:16:16.000Z</time>
      </trkpt>
      <trkpt lat="41.794553" lon="22.978401">
        <ele>1446.7</ele>
        <time>2026-05-06T11:16:17.000Z</time>
      </trkpt>
      <trkpt lat="41.794552" lon="22.9784">
        <ele>1446.7</ele>
        <time>2026-05-06T11:16:18.000Z</time>
      </trkpt>
      <trkpt lat="41.794552" lon="22.978399">
        <ele>1446.7</ele>
        <time>2026-05-06T11:16:19.000Z</time>
      </trkpt>
      <trkpt lat="41.794553" lon="22.978398">
        <ele>1446.7</ele>
        <time>2026-05-06T11:16:20.000Z</time>
      </trkpt>
      <trkpt lat="41.794554" lon="22.978398">
        <ele>1446.7</ele>
        <time>2026-05-06T11:16:21.000Z</time>
      </trkpt>
      <trkpt lat="41.794555" lon="22.978398">
        <ele>1446.7</ele>
        <time>2026-05-06T11:16:22.000Z</time>
      </trkpt>
      <trkpt lat="41.794555" lon="22.978397">
        <ele>1446.6</ele>
        <time>2026-05-06T11:16:23.000Z</time>
      </trkpt>
      <trkpt lat="41.794555" lon="22.978396">
        <ele>1446.6</ele>
        <time>2026-05-06T11:16:24.000Z</time>
      </trkpt>
      <trkpt lat="41.794556" lon="22.978395">
        <ele>1446.6</ele>
        <time>2026-05-06T11:16:25.000Z</time>
      </trkpt>
      <trkpt lat="41.794556" lon="22.978394">
        <ele>1446.6</ele>
        <time>2026-05-06T11:16:26.000Z</time>
      </trkpt>
      <trkpt lat="41.794556" lon="22.978394">
        <ele>1446.6</ele>
        <time>2026-05-06T11:16:27.000Z</time>
      </trkpt>
      <trkpt lat="41.794556" lon="22.978394">
        <ele>1446.6</ele>
        <time>2026-05-06T11:16:28.000Z</time>
      </trkpt>
      <trkpt lat="41.794556" lon="22.978394">
        <ele>1446.6</ele>
        <time>2026-05-06T11:16:29.000Z</time>
      </trkpt>
      <trkpt lat="41.794556" lon="22.978394">
        <ele>1446.6</ele>
        <time>2026-05-06T11:16:30.000Z</time>
      </trkpt>
      <trkpt lat="41.794556" lon="22.978393">
        <ele>1446.6</ele>
        <time>2026-05-06T11:16:31.000Z</time>
      </trkpt>
      <trkpt lat="41.794557" lon="22.978393">
        <ele>1446.6</ele>
        <time>2026-05-06T11:16:32.000Z</time>
      </trkpt>
      <trkpt lat="41.794557" lon="22.978392">
        <ele>1446.6</ele>
        <time>2026-05-06T11:16:33.000Z</time>
      </trkpt>
      <trkpt lat="41.794557" lon="22.978392">
        <ele>1446.6</ele>
        <time>2026-05-06T11:16:34.000Z</time>
      </trkpt>
      <trkpt lat="41.794557" lon="22.978391">
        <ele>1446.6</ele>
        <time>2026-05-06T11:16:35.000Z</time>
      </trkpt>
      <trkpt lat="41.794557" lon="22.978391">
        <ele>1446.6</ele>
        <time>2026-05-06T11:16:36.000Z</time>
      </trkpt>
      <trkpt lat="41.794557" lon="22.978391">
        <ele>1446.6</ele>
        <time>2026-05-06T11:16:37.000Z</time>
      </trkpt>
      <trkpt lat="41.794556" lon="22.978391">
        <ele>1446.6</ele>
        <time>2026-05-06T11:16:38.000Z</time>
      </trkpt>
      <trkpt lat="41.794555" lon="22.978391">
        <ele>1446.6</ele>
        <time>2026-05-06T11:16:39.000Z</time>
      </trkpt>
      <trkpt lat="41.794555" lon="22.978391">
        <ele>1446.6</ele>
        <time>2026-05-06T11:16:40.000Z</time>
      </trkpt>
      <trkpt lat="41.794554" lon="22.978391">
        <ele>1446.6</ele>
        <time>2026-05-06T11:16:41.000Z</time>
      </trkpt>
      <trkpt lat="41.794554" lon="22.978391">
        <ele>1446.6</ele>
        <time>2026-05-06T11:16:42.000Z</time>
      </trkpt>
      <trkpt lat="41.794555" lon="22.978391">
        <ele>1446.5</ele>
        <time>2026-05-06T11:16:43.000Z</time>
      </trkpt>
      <trkpt lat="41.794555" lon="22.978392">
        <ele>1446.5</ele>
        <time>2026-05-06T11:16:44.000Z</time>
      </trkpt>
      <trkpt lat="41.794555" lon="22.978393">
        <ele>1446.5</ele>
        <time>2026-05-06T11:16:45.000Z</time>
      </trkpt>
      <trkpt lat="41.794555" lon="22.978393">
        <ele>1446.5</ele>
        <time>2026-05-06T11:16:46.000Z</time>
      </trkpt>
      <trkpt lat="41.794555" lon="22.978394">
        <ele>1446.5</ele>
        <time>2026-05-06T11:16:47.000Z</time>
      </trkpt>
      <trkpt lat="41.794556" lon="22.978394">
        <ele>1446.4</ele>
        <time>2026-05-06T11:16:48.000Z</time>
      </trkpt>
      <trkpt lat="41.794558" lon="22.978394">
        <ele>1446.4</ele>
        <time>2026-05-06T11:16:49.000Z</time>
      </trkpt>
      <trkpt lat="41.79456" lon="22.978393">
        <ele>1446.4</ele>
        <time>2026-05-06T11:16:50.000Z</time>
      </trkpt>
      <trkpt lat="41.794561" lon="22.978393">
        <ele>1446.4</ele>
        <time>2026-05-06T11:16:51.000Z</time>
      </trkpt>
      <trkpt lat="41.794562" lon="22.978393">
        <ele>1446.4</ele>
        <time>2026-05-06T11:16:52.000Z</time>
      </trkpt>
      <trkpt lat="41.794564" lon="22.978392">
        <ele>1446.5</ele>
        <time>2026-05-06T11:16:53.000Z</time>
      </trkpt>
      <trkpt lat="41.794564" lon="22.978391">
        <ele>1446.5</ele>
        <time>2026-05-06T11:16:54.000Z</time>
      </trkpt>
      <trkpt lat="41.794564" lon="22.978389">
        <ele>1446.5</ele>
        <time>2026-05-06T11:16:55.000Z</time>
      </trkpt>
      <trkpt lat="41.794564" lon="22.978388">
        <ele>1446.5</ele>
        <time>2026-05-06T11:16:56.000Z</time>
      </trkpt>
      <trkpt lat="41.794564" lon="22.978387">
        <ele>1446.5</ele>
        <time>2026-05-06T11:16:57.000Z</time>
      </trkpt>
      <trkpt lat="41.794564" lon="22.978386">
        <ele>1446.8</ele>
        <time>2026-05-06T11:16:58.000Z</time>
      </trkpt>
      <trkpt lat="41.794564" lon="22.978386">
        <ele>1446.8</ele>
        <time>2026-05-06T11:16:59.000Z</time>
      </trkpt>
      <trkpt lat="41.794564" lon="22.978386">
        <ele>1446.8</ele>
        <time>2026-05-06T11:17:00.000Z</time>
      </trkpt>
      <trkpt lat="41.794564" lon="22.978386">
        <ele>1446.8</ele>
        <time>2026-05-06T11:17:01.000Z</time>
      </trkpt>
      <trkpt lat="41.794564" lon="22.978385">
        <ele>1446.8</ele>
        <time>2026-05-06T11:17:02.000Z</time>
      </trkpt>
      <trkpt lat="41.794565" lon="22.978385">
        <ele>1446.9</ele>
        <time>2026-05-06T11:17:03.000Z</time>
      </trkpt>
      <trkpt lat="41.794565" lon="22.978384">
        <ele>1446.9</ele>
        <time>2026-05-06T11:17:04.000Z</time>
      </trkpt>
      <trkpt lat="41.794565" lon="22.978383">
        <ele>1446.9</ele>
        <time>2026-05-06T11:17:05.000Z</time>
      </trkpt>
      <trkpt lat="41.794565" lon="22.978383">
        <ele>1446.9</ele>
        <time>2026-05-06T11:17:06.000Z</time>
      </trkpt>
      <trkpt lat="41.794565" lon="22.978383">
        <ele>1446.9</ele>
        <time>2026-05-06T11:17:07.000Z</time>
      </trkpt>
      <trkpt lat="41.794565" lon="22.978383">
        <ele>1447</ele>
        <time>2026-05-06T11:17:08.000Z</time>
      </trkpt>
      <trkpt lat="41.794565" lon="22.978383">
        <ele>1447</ele>
        <time>2026-05-06T11:17:09.000Z</time>
      </trkpt>
      <trkpt lat="41.794565" lon="22.978383">
        <ele>1447</ele>
        <time>2026-05-06T11:17:10.000Z</time>
      </trkpt>
      <trkpt lat="41.794565" lon="22.978383">
        <ele>1447</ele>
        <time>2026-05-06T11:17:11.000Z</time>
      </trkpt>
      <trkpt lat="41.794564" lon="22.978383">
        <ele>1447</ele>
        <time>2026-05-06T11:17:12.000Z</time>
      </trkpt>
      <trkpt lat="41.794564" lon="22.978382">
        <ele>1447</ele>
        <time>2026-05-06T11:17:13.000Z</time>
      </trkpt>
      <trkpt lat="41.794564" lon="22.978382">
        <ele>1447</ele>
        <time>2026-05-06T11:17:14.000Z</time>
      </trkpt>
      <trkpt lat="41.794563" lon="22.978382">
        <ele>1447</ele>
        <time>2026-05-06T11:17:15.000Z</time>
      </trkpt>
      <trkpt lat="41.794563" lon="22.978381">
        <ele>1447</ele>
        <time>2026-05-06T11:17:16.000Z</time>
      </trkpt>
      <trkpt lat="41.794562" lon="22.978381">
        <ele>1447</ele>
        <time>2026-05-06T11:17:17.000Z</time>
      </trkpt>
      <trkpt lat="41.794562" lon="22.978381">
        <ele>1446.9</ele>
        <time>2026-05-06T11:17:18.000Z</time>
      </trkpt>
      <trkpt lat="41.794562" lon="22.978381">
        <ele>1446.9</ele>
        <time>2026-05-06T11:17:19.000Z</time>
      </trkpt>
      <trkpt lat="41.794562" lon="22.978381">
        <ele>1446.9</ele>
        <time>2026-05-06T11:17:20.000Z</time>
      </trkpt>
      <trkpt lat="41.794562" lon="22.978381">
        <ele>1446.9</ele>
        <time>2026-05-06T11:17:21.000Z</time>
      </trkpt>
      <trkpt lat="41.794562" lon="22.978382">
        <ele>1446.9</ele>
        <time>2026-05-06T11:17:22.000Z</time>
      </trkpt>
      <trkpt lat="41.794561" lon="22.978383">
        <ele>1446.7</ele>
        <time>2026-05-06T11:17:23.000Z</time>
      </trkpt>
      <trkpt lat="41.794561" lon="22.978383">
        <ele>1446.7</ele>
        <time>2026-05-06T11:17:24.000Z</time>
      </trkpt>
      <trkpt lat="41.79456" lon="22.978384">
        <ele>1446.7</ele>
        <time>2026-05-06T11:17:25.000Z</time>
      </trkpt>
      <trkpt lat="41.794559" lon="22.978384">
        <ele>1446.7</ele>
        <time>2026-05-06T11:17:26.000Z</time>
      </trkpt>
      <trkpt lat="41.794559" lon="22.978384">
        <ele>1446.7</ele>
        <time>2026-05-06T11:17:27.000Z</time>
      </trkpt>
      <trkpt lat="41.794558" lon="22.978385">
        <ele>1446.6</ele>
        <time>2026-05-06T11:17:28.000Z</time>
      </trkpt>
      <trkpt lat="41.794558" lon="22.978385">
        <ele>1446.6</ele>
        <time>2026-05-06T11:17:29.000Z</time>
      </trkpt>
      <trkpt lat="41.794558" lon="22.978385">
        <ele>1446.6</ele>
        <time>2026-05-06T11:17:30.000Z</time>
      </trkpt>
      <trkpt lat="41.794558" lon="22.978386">
        <ele>1446.6</ele>
        <time>2026-05-06T11:17:31.000Z</time>
      </trkpt>
      <trkpt lat="41.794558" lon="22.978386">
        <ele>1446.6</ele>
        <time>2026-05-06T11:17:32.000Z</time>
      </trkpt>
      <trkpt lat="41.794558" lon="22.978385">
        <ele>1446.6</ele>
        <time>2026-05-06T11:17:33.000Z</time>
      </trkpt>
      <trkpt lat="41.794558" lon="22.978385">
        <ele>1446.6</ele>
        <time>2026-05-06T11:17:34.000Z</time>
      </trkpt>
      <trkpt lat="41.794558" lon="22.978384">
        <ele>1446.6</ele>
        <time>2026-05-06T11:17:35.000Z</time>
      </trkpt>
      <trkpt lat="41.794558" lon="22.978384">
        <ele>1446.6</ele>
        <time>2026-05-06T11:17:36.000Z</time>
      </trkpt>
      <trkpt lat="41.794557" lon="22.978384">
        <ele>1446.6</ele>
        <time>2026-05-06T11:17:37.000Z</time>
      </trkpt>
      <trkpt lat="41.794558" lon="22.978384">
        <ele>1447</ele>
        <time>2026-05-06T11:17:38.000Z</time>
      </trkpt>
      <trkpt lat="41.794558" lon="22.978384">
        <ele>1447</ele>
        <time>2026-05-06T11:17:39.000Z</time>
      </trkpt>
      <trkpt lat="41.794558" lon="22.978384">
        <ele>1447</ele>
        <time>2026-05-06T11:17:40.000Z</time>
      </trkpt>
      <trkpt lat="41.794558" lon="22.978384">
        <ele>1447</ele>
        <time>2026-05-06T11:17:41.000Z</time>
      </trkpt>
      <trkpt lat="41.794558" lon="22.978384">
        <ele>1447</ele>
        <time>2026-05-06T11:17:42.000Z</time>
      </trkpt>
      <trkpt lat="41.794559" lon="22.978383">
        <ele>1447.6</ele>
        <time>2026-05-06T11:17:43.000Z</time>
      </trkpt>
      <trkpt lat="41.794559" lon="22.978383">
        <ele>1447.6</ele>
        <time>2026-05-06T11:17:44.000Z</time>
      </trkpt>
      <trkpt lat="41.794559" lon="22.978382">
        <ele>1447.6</ele>
        <time>2026-05-06T11:17:45.000Z</time>
      </trkpt>
      <trkpt lat="41.79456" lon="22.978381">
        <ele>1447.6</ele>
        <time>2026-05-06T11:17:46.000Z</time>
      </trkpt>
      <trkpt lat="41.79456" lon="22.97838">
        <ele>1447.6</ele>
        <time>2026-05-06T11:17:47.000Z</time>
      </trkpt>
      <trkpt lat="41.794559" lon="22.978378">
        <ele>1447.9</ele>
        <time>2026-05-06T11:17:48.000Z</time>
      </trkpt>
      <trkpt lat="41.794556" lon="22.978375">
        <ele>1447.9</ele>
        <time>2026-05-06T11:17:49.000Z</time>
      </trkpt>
      <trkpt lat="41.794551" lon="22.978372">
        <ele>1447.9</ele>
        <time>2026-05-06T11:17:50.000Z</time>
      </trkpt>
      <trkpt lat="41.794543" lon="22.978368">
        <ele>1447.9</ele>
        <time>2026-05-06T11:17:51.000Z</time>
      </trkpt>
      <trkpt lat="41.794535" lon="22.978364">
        <ele>1447.9</ele>
        <time>2026-05-06T11:17:52.000Z</time>
      </trkpt>
      <trkpt lat="41.794526" lon="22.978358">
        <ele>1447.8</ele>
        <time>2026-05-06T11:17:53.000Z</time>
      </trkpt>
      <trkpt lat="41.794517" lon="22.978352">
        <ele>1447.8</ele>
        <time>2026-05-06T11:17:54.000Z</time>
      </trkpt>
      <trkpt lat="41.794509" lon="22.978344">
        <ele>1447.8</ele>
        <time>2026-05-06T11:17:55.000Z</time>
      </trkpt>
      <trkpt lat="41.794503" lon="22.978337">
        <ele>1447.8</ele>
        <time>2026-05-06T11:17:56.000Z</time>
      </trkpt>
      <trkpt lat="41.794496" lon="22.978329">
        <ele>1447.8</ele>
        <time>2026-05-06T11:17:57.000Z</time>
      </trkpt>
      <trkpt lat="41.794489" lon="22.97832">
        <ele>1447.7</ele>
        <time>2026-05-06T11:17:58.000Z</time>
      </trkpt>
      <trkpt lat="41.794482" lon="22.978312">
        <ele>1447.7</ele>
        <time>2026-05-06T11:17:59.000Z</time>
      </trkpt>
      <trkpt lat="41.794475" lon="22.978304">
        <ele>1447.7</ele>
        <time>2026-05-06T11:18:00.000Z</time>
      </trkpt>
      <trkpt lat="41.794469" lon="22.978296">
        <ele>1447.7</ele>
        <time>2026-05-06T11:18:01.000Z</time>
      </trkpt>
      <trkpt lat="41.794463" lon="22.978289">
        <ele>1447.7</ele>
        <time>2026-05-06T11:18:02.000Z</time>
      </trkpt>
      <trkpt lat="41.794459" lon="22.978284">
        <ele>1447.7</ele>
        <time>2026-05-06T11:18:03.000Z</time>
      </trkpt>
      <trkpt lat="41.794453" lon="22.978279">
        <ele>1447.7</ele>
        <time>2026-05-06T11:18:04.000Z</time>
      </trkpt>
      <trkpt lat="41.794447" lon="22.978274">
        <ele>1447.7</ele>
        <time>2026-05-06T11:18:05.000Z</time>
      </trkpt>
      <trkpt lat="41.794439" lon="22.978268">
        <ele>1447.7</ele>
        <time>2026-05-06T11:18:06.000Z</time>
      </trkpt>
      <trkpt lat="41.794431" lon="22.978262">
        <ele>1447.7</ele>
        <time>2026-05-06T11:18:07.000Z</time>
      </trkpt>
      <trkpt lat="41.794422" lon="22.978254">
        <ele>1448.3</ele>
        <time>2026-05-06T11:18:08.000Z</time>
      </trkpt>
      <trkpt lat="41.794413" lon="22.978245">
        <ele>1448.3</ele>
        <time>2026-05-06T11:18:09.000Z</time>
      </trkpt>
      <trkpt lat="41.794404" lon="22.978237">
        <ele>1448.3</ele>
        <time>2026-05-06T11:18:10.000Z</time>
      </trkpt>
      <trkpt lat="41.794395" lon="22.978229">
        <ele>1448.3</ele>
        <time>2026-05-06T11:18:11.000Z</time>
      </trkpt>
      <trkpt lat="41.794386" lon="22.97822">
        <ele>1448.3</ele>
        <time>2026-05-06T11:18:12.000Z</time>
      </trkpt>
      <trkpt lat="41.794377" lon="22.97821">
        <ele>1449</ele>
        <time>2026-05-06T11:18:13.000Z</time>
      </trkpt>
      <trkpt lat="41.794368" lon="22.978201">
        <ele>1449</ele>
        <time>2026-05-06T11:18:14.000Z</time>
      </trkpt>
      <trkpt lat="41.794361" lon="22.978192">
        <ele>1449</ele>
        <time>2026-05-06T11:18:15.000Z</time>
      </trkpt>
      <trkpt lat="41.794354" lon="22.978182">
        <ele>1449</ele>
        <time>2026-05-06T11:18:16.000Z</time>
      </trkpt>
      <trkpt lat="41.794346" lon="22.978172">
        <ele>1449</ele>
        <time>2026-05-06T11:18:17.000Z</time>
      </trkpt>
      <trkpt lat="41.794338" lon="22.978163">
        <ele>1449.3</ele>
        <time>2026-05-06T11:18:18.000Z</time>
      </trkpt>
      <trkpt lat="41.794331" lon="22.978154">
        <ele>1449.3</ele>
        <time>2026-05-06T11:18:19.000Z</time>
      </trkpt>
      <trkpt lat="41.794322" lon="22.978143">
        <ele>1449.3</ele>
        <time>2026-05-06T11:18:20.000Z</time>
      </trkpt>
      <trkpt lat="41.794315" lon="22.978133">
        <ele>1449.3</ele>
        <time>2026-05-06T11:18:21.000Z</time>
      </trkpt>
      <trkpt lat="41.794308" lon="22.978124">
        <ele>1449.3</ele>
        <time>2026-05-06T11:18:22.000Z</time>
      </trkpt>
      <trkpt lat="41.794302" lon="22.978114">
        <ele>1449.8</ele>
        <time>2026-05-06T11:18:23.000Z</time>
      </trkpt>
      <trkpt lat="41.794296" lon="22.978104">
        <ele>1449.8</ele>
        <time>2026-05-06T11:18:24.000Z</time>
      </trkpt>
      <trkpt lat="41.79429" lon="22.978094">
        <ele>1449.8</ele>
        <time>2026-05-06T11:18:25.000Z</time>
      </trkpt>
      <trkpt lat="41.794284" lon="22.978085">
        <ele>1449.8</ele>
        <time>2026-05-06T11:18:26.000Z</time>
      </trkpt>
      <trkpt lat="41.794279" lon="22.978075">
        <ele>1449.8</ele>
        <time>2026-05-06T11:18:27.000Z</time>
      </trkpt>
      <trkpt lat="41.794271" lon="22.978065">
        <ele>1450.5</ele>
        <time>2026-05-06T11:18:28.000Z</time>
      </trkpt>
      <trkpt lat="41.794264" lon="22.978057">
        <ele>1450.5</ele>
        <time>2026-05-06T11:18:29.000Z</time>
      </trkpt>
      <trkpt lat="41.794256" lon="22.978047">
        <ele>1450.5</ele>
        <time>2026-05-06T11:18:30.000Z</time>
      </trkpt>
      <trkpt lat="41.794248" lon="22.978036">
        <ele>1450.5</ele>
        <time>2026-05-06T11:18:31.000Z</time>
      </trkpt>
      <trkpt lat="41.79424" lon="22.978026">
        <ele>1450.5</ele>
        <time>2026-05-06T11:18:32.000Z</time>
      </trkpt>
      <trkpt lat="41.794233" lon="22.978015">
        <ele>1450.8</ele>
        <time>2026-05-06T11:18:33.000Z</time>
      </trkpt>
      <trkpt lat="41.794225" lon="22.978005">
        <ele>1450.8</ele>
        <time>2026-05-06T11:18:34.000Z</time>
      </trkpt>
      <trkpt lat="41.794217" lon="22.977997">
        <ele>1450.8</ele>
        <time>2026-05-06T11:18:35.000Z</time>
      </trkpt>
      <trkpt lat="41.794211" lon="22.977989">
        <ele>1450.8</ele>
        <time>2026-05-06T11:18:36.000Z</time>
      </trkpt>
      <trkpt lat="41.794203" lon="22.977981">
        <ele>1450.8</ele>
        <time>2026-05-06T11:18:37.000Z</time>
      </trkpt>
      <trkpt lat="41.794195" lon="22.977975">
        <ele>1451.5</ele>
        <time>2026-05-06T11:18:38.000Z</time>
      </trkpt>
      <trkpt lat="41.794188" lon="22.977969">
        <ele>1451.5</ele>
        <time>2026-05-06T11:18:39.000Z</time>
      </trkpt>
      <trkpt lat="41.794181" lon="22.977963">
        <ele>1451.5</ele>
        <time>2026-05-06T11:18:40.000Z</time>
      </trkpt>
      <trkpt lat="41.794174" lon="22.977956">
        <ele>1451.5</ele>
        <time>2026-05-06T11:18:41.000Z</time>
      </trkpt>
      <trkpt lat="41.794168" lon="22.977949">
        <ele>1451.5</ele>
        <time>2026-05-06T11:18:42.000Z</time>
      </trkpt>
      <trkpt lat="41.794162" lon="22.97794">
        <ele>1452.4</ele>
        <time>2026-05-06T11:18:43.000Z</time>
      </trkpt>
      <trkpt lat="41.794158" lon="22.97793">
        <ele>1452.4</ele>
        <time>2026-05-06T11:18:44.000Z</time>
      </trkpt>
      <trkpt lat="41.794153" lon="22.97792">
        <ele>1452.4</ele>
        <time>2026-05-06T11:18:45.000Z</time>
      </trkpt>
      <trkpt lat="41.794147" lon="22.97791">
        <ele>1452.4</ele>
        <time>2026-05-06T11:18:46.000Z</time>
      </trkpt>
      <trkpt lat="41.794143" lon="22.977901">
        <ele>1452.4</ele>
        <time>2026-05-06T11:18:47.000Z</time>
      </trkpt>
      <trkpt lat="41.794138" lon="22.977892">
        <ele>1452.9</ele>
        <time>2026-05-06T11:18:48.000Z</time>
      </trkpt>
      <trkpt lat="41.794134" lon="22.977884">
        <ele>1452.9</ele>
        <time>2026-05-06T11:18:49.000Z</time>
      </trkpt>
      <trkpt lat="41.79413" lon="22.977875">
        <ele>1452.9</ele>
        <time>2026-05-06T11:18:50.000Z</time>
      </trkpt>
      <trkpt lat="41.794128" lon="22.977867">
        <ele>1452.9</ele>
        <time>2026-05-06T11:18:51.000Z</time>
      </trkpt>
      <trkpt lat="41.794124" lon="22.977858">
        <ele>1452.9</ele>
        <time>2026-05-06T11:18:52.000Z</time>
      </trkpt>
      <trkpt lat="41.794122" lon="22.977849">
        <ele>1453.9</ele>
        <time>2026-05-06T11:18:53.000Z</time>
      </trkpt>
      <trkpt lat="41.794119" lon="22.97784">
        <ele>1453.9</ele>
        <time>2026-05-06T11:18:54.000Z</time>
      </trkpt>
      <trkpt lat="41.794117" lon="22.977834">
        <ele>1453.9</ele>
        <time>2026-05-06T11:18:55.000Z</time>
      </trkpt>
      <trkpt lat="41.794115" lon="22.977829">
        <ele>1453.9</ele>
        <time>2026-05-06T11:18:56.000Z</time>
      </trkpt>
      <trkpt lat="41.794114" lon="22.977825">
        <ele>1453.9</ele>
        <time>2026-05-06T11:18:57.000Z</time>
      </trkpt>
      <trkpt lat="41.794112" lon="22.977823">
        <ele>1454.8</ele>
        <time>2026-05-06T11:18:58.000Z</time>
      </trkpt>
      <trkpt lat="41.794111" lon="22.977822">
        <ele>1454.8</ele>
        <time>2026-05-06T11:18:59.000Z</time>
      </trkpt>
      <trkpt lat="41.79411" lon="22.97782">
        <ele>1454.8</ele>
        <time>2026-05-06T11:19:00.000Z</time>
      </trkpt>
      <trkpt lat="41.794108" lon="22.977817">
        <ele>1454.8</ele>
        <time>2026-05-06T11:19:01.000Z</time>
      </trkpt>
      <trkpt lat="41.794106" lon="22.977815">
        <ele>1454.8</ele>
        <time>2026-05-06T11:19:02.000Z</time>
      </trkpt>
      <trkpt lat="41.794104" lon="22.977813">
        <ele>1455.4</ele>
        <time>2026-05-06T11:19:03.000Z</time>
      </trkpt>
      <trkpt lat="41.794102" lon="22.977809">
        <ele>1455.4</ele>
        <time>2026-05-06T11:19:04.000Z</time>
      </trkpt>
      <trkpt lat="41.794099" lon="22.977804">
        <ele>1455.4</ele>
        <time>2026-05-06T11:19:05.000Z</time>
      </trkpt>
      <trkpt lat="41.794096" lon="22.9778">
        <ele>1455.4</ele>
        <time>2026-05-06T11:19:06.000Z</time>
      </trkpt>
      <trkpt lat="41.794094" lon="22.977797">
        <ele>1455.4</ele>
        <time>2026-05-06T11:19:07.000Z</time>
      </trkpt>
      <trkpt lat="41.794093" lon="22.977794">
        <ele>1456.4</ele>
        <time>2026-05-06T11:19:08.000Z</time>
      </trkpt>
      <trkpt lat="41.794093" lon="22.977793">
        <ele>1456.4</ele>
        <time>2026-05-06T11:19:09.000Z</time>
      </trkpt>
      <trkpt lat="41.794093" lon="22.977794">
        <ele>1456.4</ele>
        <time>2026-05-06T11:19:10.000Z</time>
      </trkpt>
      <trkpt lat="41.794094" lon="22.977795">
        <ele>1456.4</ele>
        <time>2026-05-06T11:19:11.000Z</time>
      </trkpt>
      <trkpt lat="41.794094" lon="22.977795">
        <ele>1456.4</ele>
        <time>2026-05-06T11:19:12.000Z</time>
      </trkpt>
      <trkpt lat="41.794094" lon="22.977795">
        <ele>1457.3</ele>
        <time>2026-05-06T11:19:13.000Z</time>
      </trkpt>
      <trkpt lat="41.794093" lon="22.977795">
        <ele>1457.3</ele>
        <time>2026-05-06T11:19:14.000Z</time>
      </trkpt>
      <trkpt lat="41.794092" lon="22.977795">
        <ele>1457.3</ele>
        <time>2026-05-06T11:19:15.000Z</time>
      </trkpt>
      <trkpt lat="41.794092" lon="22.977795">
        <ele>1457.3</ele>
        <time>2026-05-06T11:19:16.000Z</time>
      </trkpt>
      <trkpt lat="41.794092" lon="22.977794">
        <ele>1457.3</ele>
        <time>2026-05-06T11:19:17.000Z</time>
      </trkpt>
      <trkpt lat="41.794092" lon="22.977794">
        <ele>1457.6</ele>
        <time>2026-05-06T11:19:18.000Z</time>
      </trkpt>
      <trkpt lat="41.794093" lon="22.977793">
        <ele>1457.6</ele>
        <time>2026-05-06T11:19:19.000Z</time>
      </trkpt>
      <trkpt lat="41.794093" lon="22.977793">
        <ele>1457.6</ele>
        <time>2026-05-06T11:19:20.000Z</time>
      </trkpt>
      <trkpt lat="41.794093" lon="22.977793">
        <ele>1457.6</ele>
        <time>2026-05-06T11:19:21.000Z</time>
      </trkpt>
      <trkpt lat="41.794093" lon="22.977793">
        <ele>1457.6</ele>
        <time>2026-05-06T11:19:22.000Z</time>
      </trkpt>
      <trkpt lat="41.794093" lon="22.977793">
        <ele>1458.1</ele>
        <time>2026-05-06T11:19:23.000Z</time>
      </trkpt>
      <trkpt lat="41.794093" lon="22.977793">
        <ele>1458.1</ele>
        <time>2026-05-06T11:19:24.000Z</time>
      </trkpt>
      <trkpt lat="41.794093" lon="22.977793">
        <ele>1458.1</ele>
        <time>2026-05-06T11:19:25.000Z</time>
      </trkpt>
      <trkpt lat="41.794093" lon="22.977793">
        <ele>1458.1</ele>
        <time>2026-05-06T11:19:26.000Z</time>
      </trkpt>
      <trkpt lat="41.794093" lon="22.977793">
        <ele>1458.1</ele>
        <time>2026-05-06T11:19:27.000Z</time>
      </trkpt>
      <trkpt lat="41.794093" lon="22.977793">
        <ele>1458.5</ele>
        <time>2026-05-06T11:19:28.000Z</time>
      </trkpt>
      <trkpt lat="41.794094" lon="22.977792">
        <ele>1458.5</ele>
        <time>2026-05-06T11:19:29.000Z</time>
      </trkpt>
      <trkpt lat="41.794094" lon="22.977791">
        <ele>1458.5</ele>
        <time>2026-05-06T11:19:30.000Z</time>
      </trkpt>
      <trkpt lat="41.794095" lon="22.977791">
        <ele>1458.5</ele>
        <time>2026-05-06T11:19:31.000Z</time>
      </trkpt>
      <trkpt lat="41.794095" lon="22.97779">
        <ele>1458.5</ele>
        <time>2026-05-06T11:19:32.000Z</time>
      </trkpt>
      <trkpt lat="41.794096" lon="22.977789">
        <ele>1458.6</ele>
        <time>2026-05-06T11:19:33.000Z</time>
      </trkpt>
      <trkpt lat="41.794095" lon="22.977787">
        <ele>1458.6</ele>
        <time>2026-05-06T11:19:34.000Z</time>
      </trkpt>
      <trkpt lat="41.794094" lon="22.977783">
        <ele>1458.6</ele>
        <time>2026-05-06T11:19:35.000Z</time>
      </trkpt>
      <trkpt lat="41.794092" lon="22.977776">
        <ele>1458.6</ele>
        <time>2026-05-06T11:19:36.000Z</time>
      </trkpt>
      <trkpt lat="41.794089" lon="22.977768">
        <ele>1458.6</ele>
        <time>2026-05-06T11:19:37.000Z</time>
      </trkpt>
      <trkpt lat="41.794086" lon="22.977759">
        <ele>1458.6</ele>
        <time>2026-05-06T11:19:38.000Z</time>
      </trkpt>
      <trkpt lat="41.794085" lon="22.977751">
        <ele>1458.6</ele>
        <time>2026-05-06T11:19:39.000Z</time>
      </trkpt>
      <trkpt lat="41.794084" lon="22.977747">
        <ele>1458.6</ele>
        <time>2026-05-06T11:19:40.000Z</time>
      </trkpt>
      <trkpt lat="41.794081" lon="22.977743">
        <ele>1458.6</ele>
        <time>2026-05-06T11:19:41.000Z</time>
      </trkpt>
      <trkpt lat="41.79408" lon="22.97774">
        <ele>1458.6</ele>
        <time>2026-05-06T11:19:42.000Z</time>
      </trkpt>
      <trkpt lat="41.794077" lon="22.977736">
        <ele>1458.5</ele>
        <time>2026-05-06T11:19:43.000Z</time>
      </trkpt>
      <trkpt lat="41.794074" lon="22.977731">
        <ele>1458.5</ele>
        <time>2026-05-06T11:19:44.000Z</time>
      </trkpt>
      <trkpt lat="41.79407" lon="22.977725">
        <ele>1458.5</ele>
        <time>2026-05-06T11:19:45.000Z</time>
      </trkpt>
      <trkpt lat="41.794066" lon="22.977718">
        <ele>1458.5</ele>
        <time>2026-05-06T11:19:46.000Z</time>
      </trkpt>
      <trkpt lat="41.794063" lon="22.977712">
        <ele>1458.5</ele>
        <time>2026-05-06T11:19:47.000Z</time>
      </trkpt>
      <trkpt lat="41.794059" lon="22.977707">
        <ele>1458.5</ele>
        <time>2026-05-06T11:19:48.000Z</time>
      </trkpt>
      <trkpt lat="41.794057" lon="22.977702">
        <ele>1458.5</ele>
        <time>2026-05-06T11:19:49.000Z</time>
      </trkpt>
      <trkpt lat="41.794055" lon="22.977697">
        <ele>1458.5</ele>
        <time>2026-05-06T11:19:50.000Z</time>
      </trkpt>
      <trkpt lat="41.794053" lon="22.977692">
        <ele>1458.5</ele>
        <time>2026-05-06T11:19:51.000Z</time>
      </trkpt>
      <trkpt lat="41.794051" lon="22.977686">
        <ele>1458.5</ele>
        <time>2026-05-06T11:19:52.000Z</time>
      </trkpt>
      <trkpt lat="41.79405" lon="22.97768">
        <ele>1458.7</ele>
        <time>2026-05-06T11:19:53.000Z</time>
      </trkpt>
      <trkpt lat="41.794048" lon="22.977674">
        <ele>1458.7</ele>
        <time>2026-05-06T11:19:54.000Z</time>
      </trkpt>
      <trkpt lat="41.794047" lon="22.977668">
        <ele>1458.7</ele>
        <time>2026-05-06T11:19:55.000Z</time>
      </trkpt>
      <trkpt lat="41.794044" lon="22.977661">
        <ele>1458.7</ele>
        <time>2026-05-06T11:19:56.000Z</time>
      </trkpt>
      <trkpt lat="41.794041" lon="22.977655">
        <ele>1458.7</ele>
        <time>2026-05-06T11:19:57.000Z</time>
      </trkpt>
      <trkpt lat="41.794036" lon="22.977648">
        <ele>1459.4</ele>
        <time>2026-05-06T11:19:58.000Z</time>
      </trkpt>
      <trkpt lat="41.794031" lon="22.97764">
        <ele>1459.4</ele>
        <time>2026-05-06T11:19:59.000Z</time>
      </trkpt>
      <trkpt lat="41.794026" lon="22.977632">
        <ele>1459.4</ele>
        <time>2026-05-06T11:20:00.000Z</time>
      </trkpt>
      <trkpt lat="41.794023" lon="22.977624">
        <ele>1459.4</ele>
        <time>2026-05-06T11:20:01.000Z</time>
      </trkpt>
      <trkpt lat="41.79402" lon="22.977617">
        <ele>1459.4</ele>
        <time>2026-05-06T11:20:02.000Z</time>
      </trkpt>
      <trkpt lat="41.794017" lon="22.977608">
        <ele>1459.8</ele>
        <time>2026-05-06T11:20:03.000Z</time>
      </trkpt>
      <trkpt lat="41.794014" lon="22.977599">
        <ele>1459.8</ele>
        <time>2026-05-06T11:20:04.000Z</time>
      </trkpt>
      <trkpt lat="41.79401" lon="22.977589">
        <ele>1459.8</ele>
        <time>2026-05-06T11:20:05.000Z</time>
      </trkpt>
      <trkpt lat="41.794005" lon="22.97758">
        <ele>1459.8</ele>
        <time>2026-05-06T11:20:06.000Z</time>
      </trkpt>
      <trkpt lat="41.793999" lon="22.977572">
        <ele>1459.8</ele>
        <time>2026-05-06T11:20:07.000Z</time>
      </trkpt>
      <trkpt lat="41.793993" lon="22.977565">
        <ele>1460.6</ele>
        <time>2026-05-06T11:20:08.000Z</time>
      </trkpt>
      <trkpt lat="41.793987" lon="22.977558">
        <ele>1460.6</ele>
        <time>2026-05-06T11:20:09.000Z</time>
      </trkpt>
      <trkpt lat="41.793981" lon="22.977551">
        <ele>1460.6</ele>
        <time>2026-05-06T11:20:10.000Z</time>
      </trkpt>
      <trkpt lat="41.793976" lon="22.977543">
        <ele>1460.6</ele>
        <time>2026-05-06T11:20:11.000Z</time>
      </trkpt>
      <trkpt lat="41.793971" lon="22.977535">
        <ele>1460.6</ele>
        <time>2026-05-06T11:20:12.000Z</time>
      </trkpt>
      <trkpt lat="41.793968" lon="22.977527">
        <ele>1461.4</ele>
        <time>2026-05-06T11:20:13.000Z</time>
      </trkpt>
      <trkpt lat="41.793965" lon="22.977519">
        <ele>1461.4</ele>
        <time>2026-05-06T11:20:14.000Z</time>
      </trkpt>
      <trkpt lat="41.793962" lon="22.977512">
        <ele>1461.4</ele>
        <time>2026-05-06T11:20:15.000Z</time>
      </trkpt>
      <trkpt lat="41.79396" lon="22.977504">
        <ele>1461.4</ele>
        <time>2026-05-06T11:20:16.000Z</time>
      </trkpt>
      <trkpt lat="41.793958" lon="22.977496">
        <ele>1461.4</ele>
        <time>2026-05-06T11:20:17.000Z</time>
      </trkpt>
      <trkpt lat="41.793958" lon="22.977487">
        <ele>1461.9</ele>
        <time>2026-05-06T11:20:18.000Z</time>
      </trkpt>
      <trkpt lat="41.793958" lon="22.977479">
        <ele>1461.9</ele>
        <time>2026-05-06T11:20:19.000Z</time>
      </trkpt>
      <trkpt lat="41.793958" lon="22.977471">
        <ele>1461.9</ele>
        <time>2026-05-06T11:20:20.000Z</time>
      </trkpt>
      <trkpt lat="41.793958" lon="22.977464">
        <ele>1461.9</ele>
        <time>2026-05-06T11:20:21.000Z</time>
      </trkpt>
      <trkpt lat="41.793957" lon="22.977457">
        <ele>1461.9</ele>
        <time>2026-05-06T11:20:22.000Z</time>
      </trkpt>
      <trkpt lat="41.793955" lon="22.977451">
        <ele>1463</ele>
        <time>2026-05-06T11:20:23.000Z</time>
      </trkpt>
      <trkpt lat="41.793953" lon="22.977445">
        <ele>1463</ele>
        <time>2026-05-06T11:20:24.000Z</time>
      </trkpt>
      <trkpt lat="41.793952" lon="22.977439">
        <ele>1463</ele>
        <time>2026-05-06T11:20:25.000Z</time>
      </trkpt>
      <trkpt lat="41.793949" lon="22.977434">
        <ele>1463</ele>
        <time>2026-05-06T11:20:26.000Z</time>
      </trkpt>
      <trkpt lat="41.793948" lon="22.977429">
        <ele>1463</ele>
        <time>2026-05-06T11:20:27.000Z</time>
      </trkpt>
      <trkpt lat="41.793947" lon="22.977425">
        <ele>1464.2</ele>
        <time>2026-05-06T11:20:28.000Z</time>
      </trkpt>
      <trkpt lat="41.793945" lon="22.97742">
        <ele>1464.2</ele>
        <time>2026-05-06T11:20:29.000Z</time>
      </trkpt>
      <trkpt lat="41.793944" lon="22.977417">
        <ele>1464.2</ele>
        <time>2026-05-06T11:20:30.000Z</time>
      </trkpt>
      <trkpt lat="41.793943" lon="22.977414">
        <ele>1464.2</ele>
        <time>2026-05-06T11:20:31.000Z</time>
      </trkpt>
      <trkpt lat="41.793942" lon="22.977413">
        <ele>1464.2</ele>
        <time>2026-05-06T11:20:32.000Z</time>
      </trkpt>
      <trkpt lat="41.793942" lon="22.977412">
        <ele>1464.8</ele>
        <time>2026-05-06T11:20:33.000Z</time>
      </trkpt>
      <trkpt lat="41.793943" lon="22.977412">
        <ele>1464.8</ele>
        <time>2026-05-06T11:20:34.000Z</time>
      </trkpt>
      <trkpt lat="41.793944" lon="22.977412">
        <ele>1464.8</ele>
        <time>2026-05-06T11:20:35.000Z</time>
      </trkpt>
      <trkpt lat="41.793945" lon="22.977412">
        <ele>1464.8</ele>
        <time>2026-05-06T11:20:36.000Z</time>
      </trkpt>
      <trkpt lat="41.793947" lon="22.977413">
        <ele>1464.8</ele>
        <time>2026-05-06T11:20:37.000Z</time>
      </trkpt>
      <trkpt lat="41.793948" lon="22.977413">
        <ele>1465.7</ele>
        <time>2026-05-06T11:20:38.000Z</time>
      </trkpt>
      <trkpt lat="41.793949" lon="22.977413">
        <ele>1465.7</ele>
        <time>2026-05-06T11:20:39.000Z</time>
      </trkpt>
      <trkpt lat="41.793949" lon="22.977412">
        <ele>1465.7</ele>
        <time>2026-05-06T11:20:40.000Z</time>
      </trkpt>
      <trkpt lat="41.793949" lon="22.977412">
        <ele>1465.7</ele>
        <time>2026-05-06T11:20:41.000Z</time>
      </trkpt>
      <trkpt lat="41.793949" lon="22.977412">
        <ele>1465.7</ele>
        <time>2026-05-06T11:20:42.000Z</time>
      </trkpt>
      <trkpt lat="41.793949" lon="22.977412">
        <ele>1466.2</ele>
        <time>2026-05-06T11:20:43.000Z</time>
      </trkpt>
      <trkpt lat="41.793949" lon="22.977412">
        <ele>1466.2</ele>
        <time>2026-05-06T11:20:44.000Z</time>
      </trkpt>
      <trkpt lat="41.793949" lon="22.977412">
        <ele>1466.2</ele>
        <time>2026-05-06T11:20:45.000Z</time>
      </trkpt>
      <trkpt lat="41.793949" lon="22.977412">
        <ele>1466.2</ele>
        <time>2026-05-06T11:20:46.000Z</time>
      </trkpt>
      <trkpt lat="41.793949" lon="22.977412">
        <ele>1466.2</ele>
        <time>2026-05-06T11:20:47.000Z</time>
      </trkpt>
      <trkpt lat="41.793949" lon="22.977412">
        <ele>1466.3</ele>
        <time>2026-05-06T11:20:48.000Z</time>
      </trkpt>
      <trkpt lat="41.793949" lon="22.977412">
        <ele>1466.3</ele>
        <time>2026-05-06T11:20:49.000Z</time>
      </trkpt>
      <trkpt lat="41.793949" lon="22.977412">
        <ele>1466.3</ele>
        <time>2026-05-06T11:20:50.000Z</time>
      </trkpt>
      <trkpt lat="41.793949" lon="22.977412">
        <ele>1466.3</ele>
        <time>2026-05-06T11:20:51.000Z</time>
      </trkpt>
      <trkpt lat="41.793949" lon="22.977412">
        <ele>1466.3</ele>
        <time>2026-05-06T11:20:52.000Z</time>
      </trkpt>
      <trkpt lat="41.793949" lon="22.977412">
        <ele>1466.5</ele>
        <time>2026-05-06T11:20:53.000Z</time>
      </trkpt>
      <trkpt lat="41.793949" lon="22.977412">
        <ele>1466.5</ele>
        <time>2026-05-06T11:20:54.000Z</time>
      </trkpt>
      <trkpt lat="41.793949" lon="22.977412">
        <ele>1466.5</ele>
        <time>2026-05-06T11:20:55.000Z</time>
      </trkpt>
      <trkpt lat="41.793949" lon="22.977412">
        <ele>1466.5</ele>
        <time>2026-05-06T11:20:56.000Z</time>
      </trkpt>
      <trkpt lat="41.793949" lon="22.977412">
        <ele>1466.5</ele>
        <time>2026-05-06T11:20:57.000Z</time>
      </trkpt>
      <trkpt lat="41.793949" lon="22.977412">
        <ele>1466.7</ele>
        <time>2026-05-06T11:20:58.000Z</time>
      </trkpt>
      <trkpt lat="41.793949" lon="22.977412">
        <ele>1466.7</ele>
        <time>2026-05-06T11:20:59.000Z</time>
      </trkpt>
      <trkpt lat="41.793949" lon="22.977412">
        <ele>1466.7</ele>
        <time>2026-05-06T11:21:00.000Z</time>
      </trkpt>
      <trkpt lat="41.793949" lon="22.977412">
        <ele>1466.7</ele>
        <time>2026-05-06T11:21:01.000Z</time>
      </trkpt>
      <trkpt lat="41.793949" lon="22.977412">
        <ele>1466.7</ele>
        <time>2026-05-06T11:21:02.000Z</time>
      </trkpt>
      <trkpt lat="41.79395" lon="22.977411">
        <ele>1466.7</ele>
        <time>2026-05-06T11:21:03.000Z</time>
      </trkpt>
      <trkpt lat="41.793951" lon="22.97741">
        <ele>1466.7</ele>
        <time>2026-05-06T11:21:04.000Z</time>
      </trkpt>
      <trkpt lat="41.793952" lon="22.97741">
        <ele>1466.7</ele>
        <time>2026-05-06T11:21:05.000Z</time>
      </trkpt>
      <trkpt lat="41.793951" lon="22.977411">
        <ele>1466.7</ele>
        <time>2026-05-06T11:21:06.000Z</time>
      </trkpt>
      <trkpt lat="41.793948" lon="22.977412">
        <ele>1466.7</ele>
        <time>2026-05-06T11:21:07.000Z</time>
      </trkpt>
      <trkpt lat="41.793945" lon="22.977411">
        <ele>1466.7</ele>
        <time>2026-05-06T11:21:08.000Z</time>
      </trkpt>
      <trkpt lat="41.79394" lon="22.97741">
        <ele>1466.7</ele>
        <time>2026-05-06T11:21:09.000Z</time>
      </trkpt>
      <trkpt lat="41.793935" lon="22.977405">
        <ele>1466.7</ele>
        <time>2026-05-06T11:21:10.000Z</time>
      </trkpt>
      <trkpt lat="41.79393" lon="22.977398">
        <ele>1466.7</ele>
        <time>2026-05-06T11:21:11.000Z</time>
      </trkpt>
      <trkpt lat="41.793926" lon="22.97739">
        <ele>1466.7</ele>
        <time>2026-05-06T11:21:12.000Z</time>
      </trkpt>
      <trkpt lat="41.793921" lon="22.977382">
        <ele>1466.6</ele>
        <time>2026-05-06T11:21:13.000Z</time>
      </trkpt>
      <trkpt lat="41.793916" lon="22.977373">
        <ele>1466.6</ele>
        <time>2026-05-06T11:21:14.000Z</time>
      </trkpt>
      <trkpt lat="41.793911" lon="22.977365">
        <ele>1466.6</ele>
        <time>2026-05-06T11:21:15.000Z</time>
      </trkpt>
      <trkpt lat="41.793907" lon="22.977358">
        <ele>1466.6</ele>
        <time>2026-05-06T11:21:16.000Z</time>
      </trkpt>
      <trkpt lat="41.793902" lon="22.977351">
        <ele>1466.6</ele>
        <time>2026-05-06T11:21:17.000Z</time>
      </trkpt>
      <trkpt lat="41.793896" lon="22.977344">
        <ele>1466.7</ele>
        <time>2026-05-06T11:21:18.000Z</time>
      </trkpt>
      <trkpt lat="41.793891" lon="22.977338">
        <ele>1466.7</ele>
        <time>2026-05-06T11:21:19.000Z</time>
      </trkpt>
      <trkpt lat="41.793886" lon="22.977332">
        <ele>1466.7</ele>
        <time>2026-05-06T11:21:20.000Z</time>
      </trkpt>
      <trkpt lat="41.793881" lon="22.977326">
        <ele>1466.7</ele>
        <time>2026-05-06T11:21:21.000Z</time>
      </trkpt>
      <trkpt lat="41.793877" lon="22.977319">
        <ele>1466.7</ele>
        <time>2026-05-06T11:21:22.000Z</time>
      </trkpt>
      <trkpt lat="41.793874" lon="22.977312">
        <ele>1467.1</ele>
        <time>2026-05-06T11:21:23.000Z</time>
      </trkpt>
      <trkpt lat="41.79387" lon="22.977305">
        <ele>1467.1</ele>
        <time>2026-05-06T11:21:24.000Z</time>
      </trkpt>
      <trkpt lat="41.793867" lon="22.977296">
        <ele>1467.1</ele>
        <time>2026-05-06T11:21:25.000Z</time>
      </trkpt>
      <trkpt lat="41.793863" lon="22.977287">
        <ele>1467.1</ele>
        <time>2026-05-06T11:21:26.000Z</time>
      </trkpt>
      <trkpt lat="41.793859" lon="22.977278">
        <ele>1467.1</ele>
        <time>2026-05-06T11:21:27.000Z</time>
      </trkpt>
      <trkpt lat="41.793855" lon="22.977268">
        <ele>1468</ele>
        <time>2026-05-06T11:21:28.000Z</time>
      </trkpt>
      <trkpt lat="41.793851" lon="22.977259">
        <ele>1468</ele>
        <time>2026-05-06T11:21:29.000Z</time>
      </trkpt>
      <trkpt lat="41.793847" lon="22.97725">
        <ele>1468</ele>
        <time>2026-05-06T11:21:30.000Z</time>
      </trkpt>
      <trkpt lat="41.793844" lon="22.977241">
        <ele>1468</ele>
        <time>2026-05-06T11:21:31.000Z</time>
      </trkpt>
      <trkpt lat="41.793841" lon="22.977233">
        <ele>1468</ele>
        <time>2026-05-06T11:21:32.000Z</time>
      </trkpt>
      <trkpt lat="41.793838" lon="22.977225">
        <ele>1468.5</ele>
        <time>2026-05-06T11:21:33.000Z</time>
      </trkpt>
      <trkpt lat="41.793836" lon="22.977218">
        <ele>1468.5</ele>
        <time>2026-05-06T11:21:34.000Z</time>
      </trkpt>
      <trkpt lat="41.793834" lon="22.977211">
        <ele>1468.5</ele>
        <time>2026-05-06T11:21:35.000Z</time>
      </trkpt>
      <trkpt lat="41.793831" lon="22.977204">
        <ele>1468.5</ele>
        <time>2026-05-06T11:21:36.000Z</time>
      </trkpt>
      <trkpt lat="41.793827" lon="22.977198">
        <ele>1468.5</ele>
        <time>2026-05-06T11:21:37.000Z</time>
      </trkpt>
      <trkpt lat="41.793823" lon="22.977191">
        <ele>1469.6</ele>
        <time>2026-05-06T11:21:38.000Z</time>
      </trkpt>
      <trkpt lat="41.793818" lon="22.977183">
        <ele>1469.6</ele>
        <time>2026-05-06T11:21:39.000Z</time>
      </trkpt>
      <trkpt lat="41.793813" lon="22.977176">
        <ele>1469.6</ele>
        <time>2026-05-06T11:21:40.000Z</time>
      </trkpt>
      <trkpt lat="41.793807" lon="22.977168">
        <ele>1469.6</ele>
        <time>2026-05-06T11:21:41.000Z</time>
      </trkpt>
      <trkpt lat="41.793801" lon="22.977161">
        <ele>1469.6</ele>
        <time>2026-05-06T11:21:42.000Z</time>
      </trkpt>
      <trkpt lat="41.793796" lon="22.977154">
        <ele>1470.7</ele>
        <time>2026-05-06T11:21:43.000Z</time>
      </trkpt>
      <trkpt lat="41.793791" lon="22.977146">
        <ele>1470.7</ele>
        <time>2026-05-06T11:21:44.000Z</time>
      </trkpt>
      <trkpt lat="41.793787" lon="22.977139">
        <ele>1470.7</ele>
        <time>2026-05-06T11:21:45.000Z</time>
      </trkpt>
      <trkpt lat="41.793784" lon="22.97713">
        <ele>1470.7</ele>
        <time>2026-05-06T11:21:46.000Z</time>
      </trkpt>
      <trkpt lat="41.793781" lon="22.977122">
        <ele>1470.7</ele>
        <time>2026-05-06T11:21:47.000Z</time>
      </trkpt>
      <trkpt lat="41.79378" lon="22.977113">
        <ele>1471.2</ele>
        <time>2026-05-06T11:21:48.000Z</time>
      </trkpt>
      <trkpt lat="41.793779" lon="22.977104">
        <ele>1471.2</ele>
        <time>2026-05-06T11:21:49.000Z</time>
      </trkpt>
      <trkpt lat="41.793779" lon="22.977096">
        <ele>1471.2</ele>
        <time>2026-05-06T11:21:50.000Z</time>
      </trkpt>
      <trkpt lat="41.79378" lon="22.977089">
        <ele>1471.2</ele>
        <time>2026-05-06T11:21:51.000Z</time>
      </trkpt>
      <trkpt lat="41.79378" lon="22.977081">
        <ele>1471.2</ele>
        <time>2026-05-06T11:21:52.000Z</time>
      </trkpt>
      <trkpt lat="41.793778" lon="22.977073">
        <ele>1472.2</ele>
        <time>2026-05-06T11:21:53.000Z</time>
      </trkpt>
      <trkpt lat="41.793775" lon="22.977067">
        <ele>1472.2</ele>
        <time>2026-05-06T11:21:54.000Z</time>
      </trkpt>
      <trkpt lat="41.79377" lon="22.97706">
        <ele>1472.2</ele>
        <time>2026-05-06T11:21:55.000Z</time>
      </trkpt>
      <trkpt lat="41.793766" lon="22.977053">
        <ele>1472.2</ele>
        <time>2026-05-06T11:21:56.000Z</time>
      </trkpt>
      <trkpt lat="41.79376" lon="22.977046">
        <ele>1472.2</ele>
        <time>2026-05-06T11:21:57.000Z</time>
      </trkpt>
      <trkpt lat="41.793756" lon="22.977038">
        <ele>1473.2</ele>
        <time>2026-05-06T11:21:58.000Z</time>
      </trkpt>
      <trkpt lat="41.793753" lon="22.97703">
        <ele>1473.2</ele>
        <time>2026-05-06T11:21:59.000Z</time>
      </trkpt>
      <trkpt lat="41.79375" lon="22.977022">
        <ele>1473.2</ele>
        <time>2026-05-06T11:22:00.000Z</time>
      </trkpt>
      <trkpt lat="41.793747" lon="22.977014">
        <ele>1473.2</ele>
        <time>2026-05-06T11:22:01.000Z</time>
      </trkpt>
      <trkpt lat="41.793746" lon="22.977006">
        <ele>1473.2</ele>
        <time>2026-05-06T11:22:02.000Z</time>
      </trkpt>
      <trkpt lat="41.793744" lon="22.976999">
        <ele>1473.8</ele>
        <time>2026-05-06T11:22:03.000Z</time>
      </trkpt>
      <trkpt lat="41.793741" lon="22.976991">
        <ele>1473.8</ele>
        <time>2026-05-06T11:22:04.000Z</time>
      </trkpt>
      <trkpt lat="41.793738" lon="22.976984">
        <ele>1473.8</ele>
        <time>2026-05-06T11:22:05.000Z</time>
      </trkpt>
      <trkpt lat="41.793735" lon="22.976977">
        <ele>1473.8</ele>
        <time>2026-05-06T11:22:06.000Z</time>
      </trkpt>
      <trkpt lat="41.793733" lon="22.976971">
        <ele>1473.8</ele>
        <time>2026-05-06T11:22:07.000Z</time>
      </trkpt>
      <trkpt lat="41.793731" lon="22.976965">
        <ele>1474.8</ele>
        <time>2026-05-06T11:22:08.000Z</time>
      </trkpt>
      <trkpt lat="41.79373" lon="22.976959">
        <ele>1474.8</ele>
        <time>2026-05-06T11:22:09.000Z</time>
      </trkpt>
      <trkpt lat="41.79373" lon="22.976954">
        <ele>1474.8</ele>
        <time>2026-05-06T11:22:10.000Z</time>
      </trkpt>
      <trkpt lat="41.793728" lon="22.976947">
        <ele>1474.8</ele>
        <time>2026-05-06T11:22:11.000Z</time>
      </trkpt>
      <trkpt lat="41.793728" lon="22.976938">
        <ele>1474.8</ele>
        <time>2026-05-06T11:22:12.000Z</time>
      </trkpt>
      <trkpt lat="41.793726" lon="22.976928">
        <ele>1475.9</ele>
        <time>2026-05-06T11:22:13.000Z</time>
      </trkpt>
      <trkpt lat="41.793724" lon="22.976919">
        <ele>1475.9</ele>
        <time>2026-05-06T11:22:14.000Z</time>
      </trkpt>
      <trkpt lat="41.793722" lon="22.976908">
        <ele>1475.9</ele>
        <time>2026-05-06T11:22:15.000Z</time>
      </trkpt>
      <trkpt lat="41.79372" lon="22.976897">
        <ele>1475.9</ele>
        <time>2026-05-06T11:22:16.000Z</time>
      </trkpt>
      <trkpt lat="41.793717" lon="22.976888">
        <ele>1475.9</ele>
        <time>2026-05-06T11:22:17.000Z</time>
      </trkpt>
      <trkpt lat="41.793714" lon="22.976879">
        <ele>1476.3</ele>
        <time>2026-05-06T11:22:18.000Z</time>
      </trkpt>
      <trkpt lat="41.793712" lon="22.97687">
        <ele>1476.3</ele>
        <time>2026-05-06T11:22:19.000Z</time>
      </trkpt>
      <trkpt lat="41.79371" lon="22.976861">
        <ele>1476.3</ele>
        <time>2026-05-06T11:22:20.000Z</time>
      </trkpt>
      <trkpt lat="41.793708" lon="22.976851">
        <ele>1476.3</ele>
        <time>2026-05-06T11:22:21.000Z</time>
      </trkpt>
      <trkpt lat="41.793706" lon="22.976842">
        <ele>1476.3</ele>
        <time>2026-05-06T11:22:22.000Z</time>
      </trkpt>
      <trkpt lat="41.793705" lon="22.976834">
        <ele>1477.3</ele>
        <time>2026-05-06T11:22:23.000Z</time>
      </trkpt>
      <trkpt lat="41.793704" lon="22.976826">
        <ele>1477.3</ele>
        <time>2026-05-06T11:22:24.000Z</time>
      </trkpt>
      <trkpt lat="41.793704" lon="22.976819">
        <ele>1477.3</ele>
        <time>2026-05-06T11:22:25.000Z</time>
      </trkpt>
      <trkpt lat="41.793705" lon="22.976813">
        <ele>1477.3</ele>
        <time>2026-05-06T11:22:26.000Z</time>
      </trkpt>
      <trkpt lat="41.793705" lon="22.976807">
        <ele>1477.3</ele>
        <time>2026-05-06T11:22:27.000Z</time>
      </trkpt>
      <trkpt lat="41.793705" lon="22.976801">
        <ele>1478.1</ele>
        <time>2026-05-06T11:22:28.000Z</time>
      </trkpt>
      <trkpt lat="41.793705" lon="22.976796">
        <ele>1478.1</ele>
        <time>2026-05-06T11:22:29.000Z</time>
      </trkpt>
      <trkpt lat="41.793703" lon="22.976791">
        <ele>1478.1</ele>
        <time>2026-05-06T11:22:30.000Z</time>
      </trkpt>
      <trkpt lat="41.793701" lon="22.976788">
        <ele>1478.1</ele>
        <time>2026-05-06T11:22:31.000Z</time>
      </trkpt>
      <trkpt lat="41.7937" lon="22.976785">
        <ele>1478.1</ele>
        <time>2026-05-06T11:22:32.000Z</time>
      </trkpt>
      <trkpt lat="41.793698" lon="22.976784">
        <ele>1478.4</ele>
        <time>2026-05-06T11:22:33.000Z</time>
      </trkpt>
      <trkpt lat="41.793696" lon="22.976784">
        <ele>1478.4</ele>
        <time>2026-05-06T11:22:34.000Z</time>
      </trkpt>
      <trkpt lat="41.793695" lon="22.976784">
        <ele>1478.4</ele>
        <time>2026-05-06T11:22:35.000Z</time>
      </trkpt>
      <trkpt lat="41.793695" lon="22.976784">
        <ele>1478.4</ele>
        <time>2026-05-06T11:22:36.000Z</time>
      </trkpt>
      <trkpt lat="41.793694" lon="22.976783">
        <ele>1478.4</ele>
        <time>2026-05-06T11:22:37.000Z</time>
      </trkpt>
      <trkpt lat="41.793694" lon="22.976782">
        <ele>1479.1</ele>
        <time>2026-05-06T11:22:38.000Z</time>
      </trkpt>
      <trkpt lat="41.793696" lon="22.976779">
        <ele>1479.1</ele>
        <time>2026-05-06T11:22:39.000Z</time>
      </trkpt>
      <trkpt lat="41.793698" lon="22.976777">
        <ele>1479.1</ele>
        <time>2026-05-06T11:22:40.000Z</time>
      </trkpt>
      <trkpt lat="41.793699" lon="22.976775">
        <ele>1479.1</ele>
        <time>2026-05-06T11:22:41.000Z</time>
      </trkpt>
      <trkpt lat="41.793701" lon="22.976774">
        <ele>1479.1</ele>
        <time>2026-05-06T11:22:42.000Z</time>
      </trkpt>
      <trkpt lat="41.793702" lon="22.976773">
        <ele>1479.7</ele>
        <time>2026-05-06T11:22:43.000Z</time>
      </trkpt>
      <trkpt lat="41.793702" lon="22.976774">
        <ele>1479.7</ele>
        <time>2026-05-06T11:22:44.000Z</time>
      </trkpt>
      <trkpt lat="41.793702" lon="22.976775">
        <ele>1479.7</ele>
        <time>2026-05-06T11:22:45.000Z</time>
      </trkpt>
      <trkpt lat="41.793702" lon="22.976776">
        <ele>1479.7</ele>
        <time>2026-05-06T11:22:46.000Z</time>
      </trkpt>
      <trkpt lat="41.793702" lon="22.976777">
        <ele>1479.7</ele>
        <time>2026-05-06T11:22:47.000Z</time>
      </trkpt>
      <trkpt lat="41.793702" lon="22.976779">
        <ele>1480</ele>
        <time>2026-05-06T11:22:48.000Z</time>
      </trkpt>
      <trkpt lat="41.793702" lon="22.976779">
        <ele>1480</ele>
        <time>2026-05-06T11:22:49.000Z</time>
      </trkpt>
      <trkpt lat="41.793702" lon="22.97678">
        <ele>1480</ele>
        <time>2026-05-06T11:22:50.000Z</time>
      </trkpt>
      <trkpt lat="41.793701" lon="22.976781">
        <ele>1480</ele>
        <time>2026-05-06T11:22:51.000Z</time>
      </trkpt>
      <trkpt lat="41.7937" lon="22.976782">
        <ele>1480</ele>
        <time>2026-05-06T11:22:52.000Z</time>
      </trkpt>
      <trkpt lat="41.7937" lon="22.976783">
        <ele>1479.9</ele>
        <time>2026-05-06T11:22:53.000Z</time>
      </trkpt>
      <trkpt lat="41.793699" lon="22.976784">
        <ele>1479.9</ele>
        <time>2026-05-06T11:22:54.000Z</time>
      </trkpt>
      <trkpt lat="41.793698" lon="22.976785">
        <ele>1479.9</ele>
        <time>2026-05-06T11:22:55.000Z</time>
      </trkpt>
      <trkpt lat="41.793698" lon="22.976785">
        <ele>1479.9</ele>
        <time>2026-05-06T11:22:56.000Z</time>
      </trkpt>
      <trkpt lat="41.793698" lon="22.976785">
        <ele>1479.9</ele>
        <time>2026-05-06T11:22:57.000Z</time>
      </trkpt>
      <trkpt lat="41.793697" lon="22.976785">
        <ele>1479.8</ele>
        <time>2026-05-06T11:22:58.000Z</time>
      </trkpt>
      <trkpt lat="41.793697" lon="22.976785">
        <ele>1479.8</ele>
        <time>2026-05-06T11:22:59.000Z</time>
      </trkpt>
      <trkpt lat="41.793697" lon="22.976785">
        <ele>1479.8</ele>
        <time>2026-05-06T11:23:00.000Z</time>
      </trkpt>
      <trkpt lat="41.793697" lon="22.976785">
        <ele>1479.8</ele>
        <time>2026-05-06T11:23:01.000Z</time>
      </trkpt>
      <trkpt lat="41.793697" lon="22.976785">
        <ele>1479.8</ele>
        <time>2026-05-06T11:23:02.000Z</time>
      </trkpt>
      <trkpt lat="41.793697" lon="22.976784">
        <ele>1479.7</ele>
        <time>2026-05-06T11:23:03.000Z</time>
      </trkpt>
      <trkpt lat="41.793697" lon="22.976784">
        <ele>1479.7</ele>
        <time>2026-05-06T11:23:04.000Z</time>
      </trkpt>
      <trkpt lat="41.793697" lon="22.976784">
        <ele>1479.7</ele>
        <time>2026-05-06T11:23:05.000Z</time>
      </trkpt>
      <trkpt lat="41.793696" lon="22.976784">
        <ele>1479.7</ele>
        <time>2026-05-06T11:23:06.000Z</time>
      </trkpt>
      <trkpt lat="41.793696" lon="22.976784">
        <ele>1479.7</ele>
        <time>2026-05-06T11:23:07.000Z</time>
      </trkpt>
      <trkpt lat="41.793696" lon="22.976785">
        <ele>1479.6</ele>
        <time>2026-05-06T11:23:08.000Z</time>
      </trkpt>
      <trkpt lat="41.793696" lon="22.976785">
        <ele>1479.6</ele>
        <time>2026-05-06T11:23:09.000Z</time>
      </trkpt>
      <trkpt lat="41.793696" lon="22.976784">
        <ele>1479.6</ele>
        <time>2026-05-06T11:23:10.000Z</time>
      </trkpt>
      <trkpt lat="41.793696" lon="22.976784">
        <ele>1479.6</ele>
        <time>2026-05-06T11:23:11.000Z</time>
      </trkpt>
      <trkpt lat="41.793696" lon="22.976784">
        <ele>1479.6</ele>
        <time>2026-05-06T11:23:12.000Z</time>
      </trkpt>
      <trkpt lat="41.793696" lon="22.976784">
        <ele>1479.6</ele>
        <time>2026-05-06T11:23:13.000Z</time>
      </trkpt>
      <trkpt lat="41.793696" lon="22.976784">
        <ele>1479.6</ele>
        <time>2026-05-06T11:23:14.000Z</time>
      </trkpt>
      <trkpt lat="41.793696" lon="22.976783">
        <ele>1479.6</ele>
        <time>2026-05-06T11:23:15.000Z</time>
      </trkpt>
      <trkpt lat="41.793697" lon="22.976783">
        <ele>1479.6</ele>
        <time>2026-05-06T11:23:16.000Z</time>
      </trkpt>
      <trkpt lat="41.793697" lon="22.976782">
        <ele>1479.6</ele>
        <time>2026-05-06T11:23:17.000Z</time>
      </trkpt>
      <trkpt lat="41.793697" lon="22.976782">
        <ele>1479.7</ele>
        <time>2026-05-06T11:23:18.000Z</time>
      </trkpt>
      <trkpt lat="41.793697" lon="22.976781">
        <ele>1479.7</ele>
        <time>2026-05-06T11:23:19.000Z</time>
      </trkpt>
      <trkpt lat="41.793697" lon="22.976782">
        <ele>1479.7</ele>
        <time>2026-05-06T11:23:20.000Z</time>
      </trkpt>
      <trkpt lat="41.793697" lon="22.976782">
        <ele>1479.7</ele>
        <time>2026-05-06T11:23:21.000Z</time>
      </trkpt>
      <trkpt lat="41.793697" lon="22.976782">
        <ele>1479.7</ele>
        <time>2026-05-06T11:23:22.000Z</time>
      </trkpt>
      <trkpt lat="41.793697" lon="22.976781">
        <ele>1480</ele>
        <time>2026-05-06T11:23:23.000Z</time>
      </trkpt>
      <trkpt lat="41.793697" lon="22.976781">
        <ele>1480</ele>
        <time>2026-05-06T11:23:24.000Z</time>
      </trkpt>
      <trkpt lat="41.793698" lon="22.976781">
        <ele>1480</ele>
        <time>2026-05-06T11:23:25.000Z</time>
      </trkpt>
      <trkpt lat="41.793698" lon="22.97678">
        <ele>1480</ele>
        <time>2026-05-06T11:23:26.000Z</time>
      </trkpt>
      <trkpt lat="41.793698" lon="22.97678">
        <ele>1480</ele>
        <time>2026-05-06T11:23:27.000Z</time>
      </trkpt>
      <trkpt lat="41.793699" lon="22.97678">
        <ele>1480.3</ele>
        <time>2026-05-06T11:23:28.000Z</time>
      </trkpt>
      <trkpt lat="41.793699" lon="22.97678">
        <ele>1480.3</ele>
        <time>2026-05-06T11:23:29.000Z</time>
      </trkpt>
      <trkpt lat="41.7937" lon="22.97678">
        <ele>1480.3</ele>
        <time>2026-05-06T11:23:30.000Z</time>
      </trkpt>
      <trkpt lat="41.793701" lon="22.97678">
        <ele>1480.3</ele>
        <time>2026-05-06T11:23:31.000Z</time>
      </trkpt>
      <trkpt lat="41.793701" lon="22.97678">
        <ele>1480.3</ele>
        <time>2026-05-06T11:23:32.000Z</time>
      </trkpt>
      <trkpt lat="41.793701" lon="22.97678">
        <ele>1480.4</ele>
        <time>2026-05-06T11:23:33.000Z</time>
      </trkpt>
      <trkpt lat="41.793701" lon="22.97678">
        <ele>1480.4</ele>
        <time>2026-05-06T11:23:34.000Z</time>
      </trkpt>
      <trkpt lat="41.793701" lon="22.97678">
        <ele>1480.4</ele>
        <time>2026-05-06T11:23:35.000Z</time>
      </trkpt>
      <trkpt lat="41.793702" lon="22.97678">
        <ele>1480.4</ele>
        <time>2026-05-06T11:23:36.000Z</time>
      </trkpt>
      <trkpt lat="41.793702" lon="22.97678">
        <ele>1480.4</ele>
        <time>2026-05-06T11:23:37.000Z</time>
      </trkpt>
      <trkpt lat="41.793702" lon="22.97678">
        <ele>1480.3</ele>
        <time>2026-05-06T11:23:38.000Z</time>
      </trkpt>
      <trkpt lat="41.793702" lon="22.97678">
        <ele>1480.3</ele>
        <time>2026-05-06T11:23:39.000Z</time>
      </trkpt>
      <trkpt lat="41.793702" lon="22.97678">
        <ele>1480.3</ele>
        <time>2026-05-06T11:23:40.000Z</time>
      </trkpt>
      <trkpt lat="41.793703" lon="22.976779">
        <ele>1480.3</ele>
        <time>2026-05-06T11:23:41.000Z</time>
      </trkpt>
      <trkpt lat="41.793703" lon="22.976779">
        <ele>1480.3</ele>
        <time>2026-05-06T11:23:42.000Z</time>
      </trkpt>
      <trkpt lat="41.793704" lon="22.976778">
        <ele>1480.2</ele>
        <time>2026-05-06T11:23:43.000Z</time>
      </trkpt>
      <trkpt lat="41.793705" lon="22.976776">
        <ele>1480.2</ele>
        <time>2026-05-06T11:23:44.000Z</time>
      </trkpt>
      <trkpt lat="41.793705" lon="22.976775">
        <ele>1480.2</ele>
        <time>2026-05-06T11:23:45.000Z</time>
      </trkpt>
      <trkpt lat="41.793705" lon="22.976773">
        <ele>1480.2</ele>
        <time>2026-05-06T11:23:46.000Z</time>
      </trkpt>
      <trkpt lat="41.793705" lon="22.976771">
        <ele>1480.2</ele>
        <time>2026-05-06T11:23:47.000Z</time>
      </trkpt>
      <trkpt lat="41.793705" lon="22.976772">
        <ele>1480.3</ele>
        <time>2026-05-06T11:23:48.000Z</time>
      </trkpt>
      <trkpt lat="41.793704" lon="22.976773">
        <ele>1480.3</ele>
        <time>2026-05-06T11:23:49.000Z</time>
      </trkpt>
      <trkpt lat="41.793702" lon="22.976774">
        <ele>1480.3</ele>
        <time>2026-05-06T11:23:50.000Z</time>
      </trkpt>
      <trkpt lat="41.793702" lon="22.976776">
        <ele>1480.3</ele>
        <time>2026-05-06T11:23:51.000Z</time>
      </trkpt>
      <trkpt lat="41.793701" lon="22.976777">
        <ele>1480.3</ele>
        <time>2026-05-06T11:23:52.000Z</time>
      </trkpt>
      <trkpt lat="41.793701" lon="22.976777">
        <ele>1480.3</ele>
        <time>2026-05-06T11:23:53.000Z</time>
      </trkpt>
      <trkpt lat="41.793702" lon="22.976777">
        <ele>1480.3</ele>
        <time>2026-05-06T11:23:54.000Z</time>
      </trkpt>
      <trkpt lat="41.793703" lon="22.976777">
        <ele>1480.3</ele>
        <time>2026-05-06T11:23:55.000Z</time>
      </trkpt>
      <trkpt lat="41.793704" lon="22.976777">
        <ele>1480.3</ele>
        <time>2026-05-06T11:23:56.000Z</time>
      </trkpt>
      <trkpt lat="41.793704" lon="22.976777">
        <ele>1480.3</ele>
        <time>2026-05-06T11:23:57.000Z</time>
      </trkpt>
      <trkpt lat="41.793705" lon="22.976777">
        <ele>1480.3</ele>
        <time>2026-05-06T11:23:58.000Z</time>
      </trkpt>
      <trkpt lat="41.793705" lon="22.976776">
        <ele>1480.3</ele>
        <time>2026-05-06T11:23:59.000Z</time>
      </trkpt>
      <trkpt lat="41.793704" lon="22.976775">
        <ele>1480.3</ele>
        <time>2026-05-06T11:24:00.000Z</time>
      </trkpt>
      <trkpt lat="41.793704" lon="22.976774">
        <ele>1480.3</ele>
        <time>2026-05-06T11:24:01.000Z</time>
      </trkpt>
      <trkpt lat="41.793703" lon="22.976774">
        <ele>1480.3</ele>
        <time>2026-05-06T11:24:02.000Z</time>
      </trkpt>
      <trkpt lat="41.793702" lon="22.976773">
        <ele>1480.2</ele>
        <time>2026-05-06T11:24:03.000Z</time>
      </trkpt>
      <trkpt lat="41.793702" lon="22.976773">
        <ele>1480.2</ele>
        <time>2026-05-06T11:24:04.000Z</time>
      </trkpt>
      <trkpt lat="41.793701" lon="22.976773">
        <ele>1480.2</ele>
        <time>2026-05-06T11:24:05.000Z</time>
      </trkpt>
      <trkpt lat="41.793701" lon="22.976773">
        <ele>1480.2</ele>
        <time>2026-05-06T11:24:06.000Z</time>
      </trkpt>
      <trkpt lat="41.793702" lon="22.976773">
        <ele>1480.2</ele>
        <time>2026-05-06T11:24:07.000Z</time>
      </trkpt>
      <trkpt lat="41.793702" lon="22.976773">
        <ele>1480.2</ele>
        <time>2026-05-06T11:24:08.000Z</time>
      </trkpt>
      <trkpt lat="41.793702" lon="22.976773">
        <ele>1480.2</ele>
        <time>2026-05-06T11:24:09.000Z</time>
      </trkpt>
      <trkpt lat="41.793703" lon="22.976773">
        <ele>1480.2</ele>
        <time>2026-05-06T11:24:10.000Z</time>
      </trkpt>
      <trkpt lat="41.793703" lon="22.976773">
        <ele>1480.2</ele>
        <time>2026-05-06T11:24:11.000Z</time>
      </trkpt>
      <trkpt lat="41.793703" lon="22.976773">
        <ele>1480.2</ele>
        <time>2026-05-06T11:24:12.000Z</time>
      </trkpt>
      <trkpt lat="41.793703" lon="22.976773">
        <ele>1480.3</ele>
        <time>2026-05-06T11:24:13.000Z</time>
      </trkpt>
      <trkpt lat="41.793703" lon="22.976773">
        <ele>1480.3</ele>
        <time>2026-05-06T11:24:14.000Z</time>
      </trkpt>
      <trkpt lat="41.793704" lon="22.976773">
        <ele>1480.3</ele>
        <time>2026-05-06T11:24:15.000Z</time>
      </trkpt>
      <trkpt lat="41.793704" lon="22.976773">
        <ele>1480.3</ele>
        <time>2026-05-06T11:24:16.000Z</time>
      </trkpt>
      <trkpt lat="41.793704" lon="22.976773">
        <ele>1480.3</ele>
        <time>2026-05-06T11:24:17.000Z</time>
      </trkpt>
      <trkpt lat="41.793704" lon="22.976773">
        <ele>1480.4</ele>
        <time>2026-05-06T11:24:18.000Z</time>
      </trkpt>
      <trkpt lat="41.793704" lon="22.976772">
        <ele>1480.4</ele>
        <time>2026-05-06T11:24:19.000Z</time>
      </trkpt>
      <trkpt lat="41.793704" lon="22.976772">
        <ele>1480.4</ele>
        <time>2026-05-06T11:24:20.000Z</time>
      </trkpt>
      <trkpt lat="41.793704" lon="22.976771">
        <ele>1480.4</ele>
        <time>2026-05-06T11:24:21.000Z</time>
      </trkpt>
      <trkpt lat="41.793705" lon="22.976771">
        <ele>1480.4</ele>
        <time>2026-05-06T11:24:22.000Z</time>
      </trkpt>
      <trkpt lat="41.793705" lon="22.976771">
        <ele>1480.5</ele>
        <time>2026-05-06T11:24:23.000Z</time>
      </trkpt>
      <trkpt lat="41.793705" lon="22.976771">
        <ele>1480.5</ele>
        <time>2026-05-06T11:24:24.000Z</time>
      </trkpt>
      <trkpt lat="41.793705" lon="22.976771">
        <ele>1480.5</ele>
        <time>2026-05-06T11:24:25.000Z</time>
      </trkpt>
      <trkpt lat="41.793705" lon="22.976771">
        <ele>1480.5</ele>
        <time>2026-05-06T11:24:26.000Z</time>
      </trkpt>
      <trkpt lat="41.793705" lon="22.976771">
        <ele>1480.5</ele>
        <time>2026-05-06T11:24:27.000Z</time>
      </trkpt>
      <trkpt lat="41.793705" lon="22.976771">
        <ele>1480.5</ele>
        <time>2026-05-06T11:24:28.000Z</time>
      </trkpt>
      <trkpt lat="41.793705" lon="22.976771">
        <ele>1480.5</ele>
        <time>2026-05-06T11:24:29.000Z</time>
      </trkpt>
      <trkpt lat="41.793705" lon="22.976771">
        <ele>1480.5</ele>
        <time>2026-05-06T11:24:30.000Z</time>
      </trkpt>
      <trkpt lat="41.793705" lon="22.976771">
        <ele>1480.5</ele>
        <time>2026-05-06T11:24:31.000Z</time>
      </trkpt>
      <trkpt lat="41.793705" lon="22.976771">
        <ele>1480.5</ele>
        <time>2026-05-06T11:24:32.000Z</time>
      </trkpt>
      <trkpt lat="41.793705" lon="22.976771">
        <ele>1480.5</ele>
        <time>2026-05-06T11:24:33.000Z</time>
      </trkpt>
      <trkpt lat="41.793705" lon="22.976771">
        <ele>1480.5</ele>
        <time>2026-05-06T11:24:34.000Z</time>
      </trkpt>
      <trkpt lat="41.793705" lon="22.976771">
        <ele>1480.5</ele>
        <time>2026-05-06T11:24:35.000Z</time>
      </trkpt>
      <trkpt lat="41.793705" lon="22.976771">
        <ele>1480.5</ele>
        <time>2026-05-06T11:24:36.000Z</time>
      </trkpt>
      <trkpt lat="41.793705" lon="22.97677">
        <ele>1480.5</ele>
        <time>2026-05-06T11:24:37.000Z</time>
      </trkpt>
      <trkpt lat="41.793705" lon="22.97677">
        <ele>1480.5</ele>
        <time>2026-05-06T11:24:38.000Z</time>
      </trkpt>
      <trkpt lat="41.793705" lon="22.97677">
        <ele>1480.5</ele>
        <time>2026-05-06T11:24:39.000Z</time>
      </trkpt>
      <trkpt lat="41.793705" lon="22.97677">
        <ele>1480.5</ele>
        <time>2026-05-06T11:24:40.000Z</time>
      </trkpt>
      <trkpt lat="41.793705" lon="22.97677">
        <ele>1480.5</ele>
        <time>2026-05-06T11:24:41.000Z</time>
      </trkpt>
      <trkpt lat="41.793705" lon="22.97677">
        <ele>1480.5</ele>
        <time>2026-05-06T11:24:42.000Z</time>
      </trkpt>
      <trkpt lat="41.793705" lon="22.97677">
        <ele>1480.5</ele>
        <time>2026-05-06T11:24:43.000Z</time>
      </trkpt>
      <trkpt lat="41.793705" lon="22.97677">
        <ele>1480.5</ele>
        <time>2026-05-06T11:24:44.000Z</time>
      </trkpt>
      <trkpt lat="41.793705" lon="22.97677">
        <ele>1480.5</ele>
        <time>2026-05-06T11:24:45.000Z</time>
      </trkpt>
      <trkpt lat="41.793705" lon="22.97677">
        <ele>1480.5</ele>
        <time>2026-05-06T11:24:46.000Z</time>
      </trkpt>
      <trkpt lat="41.793705" lon="22.97677">
        <ele>1480.5</ele>
        <time>2026-05-06T11:24:47.000Z</time>
      </trkpt>
      <trkpt lat="41.793705" lon="22.97677">
        <ele>1480.5</ele>
        <time>2026-05-06T11:24:48.000Z</time>
      </trkpt>
      <trkpt lat="41.793705" lon="22.97677">
        <ele>1480.5</ele>
        <time>2026-05-06T11:24:49.000Z</time>
      </trkpt>
      <trkpt lat="41.793705" lon="22.97677">
        <ele>1480.5</ele>
        <time>2026-05-06T11:24:50.000Z</time>
      </trkpt>
      <trkpt lat="41.793705" lon="22.97677">
        <ele>1480.5</ele>
        <time>2026-05-06T11:24:51.000Z</time>
      </trkpt>
      <trkpt lat="41.793705" lon="22.97677">
        <ele>1480.5</ele>
        <time>2026-05-06T11:24:52.000Z</time>
      </trkpt>
      <trkpt lat="41.793704" lon="22.97677">
        <ele>1480.4</ele>
        <time>2026-05-06T11:24:53.000Z</time>
      </trkpt>
      <trkpt lat="41.793704" lon="22.97677">
        <ele>1480.4</ele>
        <time>2026-05-06T11:24:54.000Z</time>
      </trkpt>
      <trkpt lat="41.793703" lon="22.97677">
        <ele>1480.4</ele>
        <time>2026-05-06T11:24:55.000Z</time>
      </trkpt>
      <trkpt lat="41.793703" lon="22.97677">
        <ele>1480.4</ele>
        <time>2026-05-06T11:24:56.000Z</time>
      </trkpt>
      <trkpt lat="41.793703" lon="22.97677">
        <ele>1480.4</ele>
        <time>2026-05-06T11:24:57.000Z</time>
      </trkpt>
      <trkpt lat="41.793703" lon="22.97677">
        <ele>1480.3</ele>
        <time>2026-05-06T11:24:58.000Z</time>
      </trkpt>
      <trkpt lat="41.793703" lon="22.97677">
        <ele>1480.3</ele>
        <time>2026-05-06T11:24:59.000Z</time>
      </trkpt>
      <trkpt lat="41.793703" lon="22.97677">
        <ele>1480.3</ele>
        <time>2026-05-06T11:25:00.000Z</time>
      </trkpt>
      <trkpt lat="41.793703" lon="22.97677">
        <ele>1480.3</ele>
        <time>2026-05-06T11:25:01.000Z</time>
      </trkpt>
      <trkpt lat="41.793703" lon="22.97677">
        <ele>1480.3</ele>
        <time>2026-05-06T11:25:02.000Z</time>
      </trkpt>
      <trkpt lat="41.793703" lon="22.97677">
        <ele>1480.3</ele>
        <time>2026-05-06T11:25:03.000Z</time>
      </trkpt>
      <trkpt lat="41.793703" lon="22.97677">
        <ele>1480.3</ele>
        <time>2026-05-06T11:25:04.000Z</time>
      </trkpt>
      <trkpt lat="41.793703" lon="22.97677">
        <ele>1480.3</ele>
        <time>2026-05-06T11:25:05.000Z</time>
      </trkpt>
      <trkpt lat="41.793703" lon="22.976769">
        <ele>1480.3</ele>
        <time>2026-05-06T11:25:06.000Z</time>
      </trkpt>
      <trkpt lat="41.793703" lon="22.976769">
        <ele>1480.3</ele>
        <time>2026-05-06T11:25:07.000Z</time>
      </trkpt>
      <trkpt lat="41.793702" lon="22.976769">
        <ele>1480.1</ele>
        <time>2026-05-06T11:25:08.000Z</time>
      </trkpt>
      <trkpt lat="41.793702" lon="22.976769">
        <ele>1480.1</ele>
        <time>2026-05-06T11:25:09.000Z</time>
      </trkpt>
      <trkpt lat="41.793701" lon="22.976769">
        <ele>1480.1</ele>
        <time>2026-05-06T11:25:10.000Z</time>
      </trkpt>
      <trkpt lat="41.793701" lon="22.976769">
        <ele>1480.1</ele>
        <time>2026-05-06T11:25:11.000Z</time>
      </trkpt>
      <trkpt lat="41.793701" lon="22.976769">
        <ele>1480.1</ele>
        <time>2026-05-06T11:25:12.000Z</time>
      </trkpt>
      <trkpt lat="41.793701" lon="22.97677">
        <ele>1480</ele>
        <time>2026-05-06T11:25:13.000Z</time>
      </trkpt>
      <trkpt lat="41.793702" lon="22.976771">
        <ele>1480</ele>
        <time>2026-05-06T11:25:14.000Z</time>
      </trkpt>
      <trkpt lat="41.793703" lon="22.976772">
        <ele>1480</ele>
        <time>2026-05-06T11:25:15.000Z</time>
      </trkpt>
      <trkpt lat="41.793703" lon="22.976773">
        <ele>1480</ele>
        <time>2026-05-06T11:25:16.000Z</time>
      </trkpt>
      <trkpt lat="41.793704" lon="22.976774">
        <ele>1480</ele>
        <time>2026-05-06T11:25:17.000Z</time>
      </trkpt>
      <trkpt lat="41.793704" lon="22.976774">
        <ele>1480</ele>
        <time>2026-05-06T11:25:18.000Z</time>
      </trkpt>
      <trkpt lat="41.793704" lon="22.976774">
        <ele>1480</ele>
        <time>2026-05-06T11:25:19.000Z</time>
      </trkpt>
      <trkpt lat="41.793704" lon="22.976774">
        <ele>1480</ele>
        <time>2026-05-06T11:25:20.000Z</time>
      </trkpt>
      <trkpt lat="41.793704" lon="22.976774">
        <ele>1480</ele>
        <time>2026-05-06T11:25:21.000Z</time>
      </trkpt>
      <trkpt lat="41.793704" lon="22.976774">
        <ele>1480</ele>
        <time>2026-05-06T11:25:22.000Z</time>
      </trkpt>
      <trkpt lat="41.793704" lon="22.976774">
        <ele>1480</ele>
        <time>2026-05-06T11:25:23.000Z</time>
      </trkpt>
      <trkpt lat="41.793703" lon="22.976774">
        <ele>1480</ele>
        <time>2026-05-06T11:25:24.000Z</time>
      </trkpt>
      <trkpt lat="41.793703" lon="22.976774">
        <ele>1480</ele>
        <time>2026-05-06T11:25:25.000Z</time>
      </trkpt>
      <trkpt lat="41.793702" lon="22.976775">
        <ele>1480</ele>
        <time>2026-05-06T11:25:26.000Z</time>
      </trkpt>
      <trkpt lat="41.793701" lon="22.976775">
        <ele>1480</ele>
        <time>2026-05-06T11:25:27.000Z</time>
      </trkpt>
      <trkpt lat="41.7937" lon="22.976775">
        <ele>1480</ele>
        <time>2026-05-06T11:25:28.000Z</time>
      </trkpt>
      <trkpt lat="41.793699" lon="22.976777">
        <ele>1480</ele>
        <time>2026-05-06T11:25:29.000Z</time>
      </trkpt>
      <trkpt lat="41.793699" lon="22.976778">
        <ele>1480</ele>
        <time>2026-05-06T11:25:30.000Z</time>
      </trkpt>
      <trkpt lat="41.793698" lon="22.97678">
        <ele>1480</ele>
        <time>2026-05-06T11:25:31.000Z</time>
      </trkpt>
      <trkpt lat="41.793698" lon="22.976781">
        <ele>1480</ele>
        <time>2026-05-06T11:25:32.000Z</time>
      </trkpt>
      <trkpt lat="41.793697" lon="22.976782">
        <ele>1479.9</ele>
        <time>2026-05-06T11:25:33.000Z</time>
      </trkpt>
      <trkpt lat="41.793697" lon="22.976784">
        <ele>1479.9</ele>
        <time>2026-05-06T11:25:34.000Z</time>
      </trkpt>
      <trkpt lat="41.793697" lon="22.976784">
        <ele>1479.9</ele>
        <time>2026-05-06T11:25:35.000Z</time>
      </trkpt>
      <trkpt lat="41.793697" lon="22.976786">
        <ele>1479.9</ele>
        <time>2026-05-06T11:25:36.000Z</time>
      </trkpt>
      <trkpt lat="41.793698" lon="22.976789">
        <ele>1479.9</ele>
        <time>2026-05-06T11:25:37.000Z</time>
      </trkpt>
      <trkpt lat="41.793699" lon="22.97679">
        <ele>1479.7</ele>
        <time>2026-05-06T11:25:38.000Z</time>
      </trkpt>
      <trkpt lat="41.793701" lon="22.976791">
        <ele>1479.7</ele>
        <time>2026-05-06T11:25:39.000Z</time>
      </trkpt>
      <trkpt lat="41.793705" lon="22.976791">
        <ele>1479.7</ele>
        <time>2026-05-06T11:25:40.000Z</time>
      </trkpt>
      <trkpt lat="41.793707" lon="22.976791">
        <ele>1479.7</ele>
        <time>2026-05-06T11:25:41.000Z</time>
      </trkpt>
      <trkpt lat="41.793709" lon="22.97679">
        <ele>1479.7</ele>
        <time>2026-05-06T11:25:42.000Z</time>
      </trkpt>
      <trkpt lat="41.793711" lon="22.976789">
        <ele>1479.7</ele>
        <time>2026-05-06T11:25:43.000Z</time>
      </trkpt>
      <trkpt lat="41.793711" lon="22.976789">
        <ele>1479.7</ele>
        <time>2026-05-06T11:25:44.000Z</time>
      </trkpt>
      <trkpt lat="41.793711" lon="22.976789">
        <ele>1479.7</ele>
        <time>2026-05-06T11:25:45.000Z</time>
      </trkpt>
      <trkpt lat="41.793711" lon="22.976788">
        <ele>1479.7</ele>
        <time>2026-05-06T11:25:46.000Z</time>
      </trkpt>
      <trkpt lat="41.793711" lon="22.976787">
        <ele>1479.7</ele>
        <time>2026-05-06T11:25:47.000Z</time>
      </trkpt>
      <trkpt lat="41.79371" lon="22.976786">
        <ele>1479.8</ele>
        <time>2026-05-06T11:25:48.000Z</time>
      </trkpt>
      <trkpt lat="41.793708" lon="22.976784">
        <ele>1479.8</ele>
        <time>2026-05-06T11:25:49.000Z</time>
      </trkpt>
      <trkpt lat="41.793708" lon="22.976782">
        <ele>1479.8</ele>
        <time>2026-05-06T11:25:50.000Z</time>
      </trkpt>
      <trkpt lat="41.793708" lon="22.97678">
        <ele>1479.8</ele>
        <time>2026-05-06T11:25:51.000Z</time>
      </trkpt>
      <trkpt lat="41.793707" lon="22.976777">
        <ele>1479.8</ele>
        <time>2026-05-06T11:25:52.000Z</time>
      </trkpt>
      <trkpt lat="41.793708" lon="22.976775">
        <ele>1479.9</ele>
        <time>2026-05-06T11:25:53.000Z</time>
      </trkpt>
      <trkpt lat="41.793709" lon="22.976774">
        <ele>1479.9</ele>
        <time>2026-05-06T11:25:54.000Z</time>
      </trkpt>
      <trkpt lat="41.79371" lon="22.976773">
        <ele>1479.9</ele>
        <time>2026-05-06T11:25:55.000Z</time>
      </trkpt>
      <trkpt lat="41.79371" lon="22.976773">
        <ele>1479.9</ele>
        <time>2026-05-06T11:25:56.000Z</time>
      </trkpt>
      <trkpt lat="41.793711" lon="22.976774">
        <ele>1479.9</ele>
        <time>2026-05-06T11:25:57.000Z</time>
      </trkpt>
      <trkpt lat="41.793711" lon="22.976775">
        <ele>1480</ele>
        <time>2026-05-06T11:25:58.000Z</time>
      </trkpt>
      <trkpt lat="41.793711" lon="22.976775">
        <ele>1480</ele>
        <time>2026-05-06T11:25:59.000Z</time>
      </trkpt>
      <trkpt lat="41.793711" lon="22.976775">
        <ele>1480</ele>
        <time>2026-05-06T11:26:00.000Z</time>
      </trkpt>
      <trkpt lat="41.79371" lon="22.976774">
        <ele>1480</ele>
        <time>2026-05-06T11:26:01.000Z</time>
      </trkpt>
      <trkpt lat="41.79371" lon="22.976772">
        <ele>1480</ele>
        <time>2026-05-06T11:26:02.000Z</time>
      </trkpt>
      <trkpt lat="41.79371" lon="22.976771">
        <ele>1480</ele>
        <time>2026-05-06T11:26:03.000Z</time>
      </trkpt>
      <trkpt lat="41.793709" lon="22.97677">
        <ele>1480</ele>
        <time>2026-05-06T11:26:04.000Z</time>
      </trkpt>
      <trkpt lat="41.793709" lon="22.97677">
        <ele>1480</ele>
        <time>2026-05-06T11:26:05.000Z</time>
      </trkpt>
      <trkpt lat="41.793709" lon="22.97677">
        <ele>1480</ele>
        <time>2026-05-06T11:26:06.000Z</time>
      </trkpt>
      <trkpt lat="41.793709" lon="22.97677">
        <ele>1480</ele>
        <time>2026-05-06T11:26:07.000Z</time>
      </trkpt>
      <trkpt lat="41.79371" lon="22.976769">
        <ele>1479.9</ele>
        <time>2026-05-06T11:26:08.000Z</time>
      </trkpt>
      <trkpt lat="41.793709" lon="22.976769">
        <ele>1479.9</ele>
        <time>2026-05-06T11:26:09.000Z</time>
      </trkpt>
      <trkpt lat="41.793709" lon="22.976768">
        <ele>1479.9</ele>
        <time>2026-05-06T11:26:10.000Z</time>
      </trkpt>
      <trkpt lat="41.793709" lon="22.976767">
        <ele>1479.9</ele>
        <time>2026-05-06T11:26:11.000Z</time>
      </trkpt>
      <trkpt lat="41.793709" lon="22.976767">
        <ele>1479.9</ele>
        <time>2026-05-06T11:26:12.000Z</time>
      </trkpt>
      <trkpt lat="41.793708" lon="22.976767">
        <ele>1479.7</ele>
        <time>2026-05-06T11:26:13.000Z</time>
      </trkpt>
      <trkpt lat="41.793708" lon="22.976767">
        <ele>1479.7</ele>
        <time>2026-05-06T11:26:14.000Z</time>
      </trkpt>
      <trkpt lat="41.793706" lon="22.976768">
        <ele>1479.7</ele>
        <time>2026-05-06T11:26:15.000Z</time>
      </trkpt>
      <trkpt lat="41.793705" lon="22.976768">
        <ele>1479.7</ele>
        <time>2026-05-06T11:26:16.000Z</time>
      </trkpt>
      <trkpt lat="41.793704" lon="22.976768">
        <ele>1479.7</ele>
        <time>2026-05-06T11:26:17.000Z</time>
      </trkpt>
      <trkpt lat="41.793703" lon="22.976768">
        <ele>1479.6</ele>
        <time>2026-05-06T11:26:18.000Z</time>
      </trkpt>
      <trkpt lat="41.793701" lon="22.976767">
        <ele>1479.6</ele>
        <time>2026-05-06T11:26:19.000Z</time>
      </trkpt>
      <trkpt lat="41.793702" lon="22.976767">
        <ele>1479.6</ele>
        <time>2026-05-06T11:26:20.000Z</time>
      </trkpt>
      <trkpt lat="41.793702" lon="22.976767">
        <ele>1479.6</ele>
        <time>2026-05-06T11:26:21.000Z</time>
      </trkpt>
      <trkpt lat="41.793702" lon="22.976766">
        <ele>1479.6</ele>
        <time>2026-05-06T11:26:22.000Z</time>
      </trkpt>
      <trkpt lat="41.793703" lon="22.976766">
        <ele>1479.5</ele>
        <time>2026-05-06T11:26:23.000Z</time>
      </trkpt>
      <trkpt lat="41.793703" lon="22.976767">
        <ele>1479.5</ele>
        <time>2026-05-06T11:26:24.000Z</time>
      </trkpt>
      <trkpt lat="41.793704" lon="22.976767">
        <ele>1479.5</ele>
        <time>2026-05-06T11:26:25.000Z</time>
      </trkpt>
      <trkpt lat="41.793704" lon="22.976768">
        <ele>1479.5</ele>
        <time>2026-05-06T11:26:26.000Z</time>
      </trkpt>
      <trkpt lat="41.793704" lon="22.976768">
        <ele>1479.5</ele>
        <time>2026-05-06T11:26:27.000Z</time>
      </trkpt>
      <trkpt lat="41.793705" lon="22.976768">
        <ele>1479.5</ele>
        <time>2026-05-06T11:26:28.000Z</time>
      </trkpt>
      <trkpt lat="41.793705" lon="22.976768">
        <ele>1479.5</ele>
        <time>2026-05-06T11:26:29.000Z</time>
      </trkpt>
      <trkpt lat="41.793705" lon="22.976768">
        <ele>1479.5</ele>
        <time>2026-05-06T11:26:30.000Z</time>
      </trkpt>
      <trkpt lat="41.793705" lon="22.976768">
        <ele>1479.5</ele>
        <time>2026-05-06T11:26:31.000Z</time>
      </trkpt>
      <trkpt lat="41.793705" lon="22.976768">
        <ele>1479.5</ele>
        <time>2026-05-06T11:26:32.000Z</time>
      </trkpt>
      <trkpt lat="41.793705" lon="22.976768">
        <ele>1479.6</ele>
        <time>2026-05-06T11:26:33.000Z</time>
      </trkpt>
      <trkpt lat="41.793706" lon="22.976768">
        <ele>1479.6</ele>
        <time>2026-05-06T11:26:34.000Z</time>
      </trkpt>
      <trkpt lat="41.793706" lon="22.976768">
        <ele>1479.6</ele>
        <time>2026-05-06T11:26:35.000Z</time>
      </trkpt>
      <trkpt lat="41.793707" lon="22.976768">
        <ele>1479.6</ele>
        <time>2026-05-06T11:26:36.000Z</time>
      </trkpt>
      <trkpt lat="41.793708" lon="22.976768">
        <ele>1479.6</ele>
        <time>2026-05-06T11:26:37.000Z</time>
      </trkpt>
      <trkpt lat="41.793708" lon="22.976768">
        <ele>1479.6</ele>
        <time>2026-05-06T11:26:38.000Z</time>
      </trkpt>
      <trkpt lat="41.793709" lon="22.976769">
        <ele>1479.6</ele>
        <time>2026-05-06T11:26:39.000Z</time>
      </trkpt>
      <trkpt lat="41.793709" lon="22.976769">
        <ele>1479.6</ele>
        <time>2026-05-06T11:26:40.000Z</time>
      </trkpt>
      <trkpt lat="41.793709" lon="22.97677">
        <ele>1479.6</ele>
        <time>2026-05-06T11:26:41.000Z</time>
      </trkpt>
      <trkpt lat="41.793709" lon="22.97677">
        <ele>1479.6</ele>
        <time>2026-05-06T11:26:42.000Z</time>
      </trkpt>
      <trkpt lat="41.793709" lon="22.97677">
        <ele>1479.6</ele>
        <time>2026-05-06T11:26:43.000Z</time>
      </trkpt>
      <trkpt lat="41.793709" lon="22.97677">
        <ele>1479.6</ele>
        <time>2026-05-06T11:26:44.000Z</time>
      </trkpt>
      <trkpt lat="41.793709" lon="22.97677">
        <ele>1479.6</ele>
        <time>2026-05-06T11:26:45.000Z</time>
      </trkpt>
      <trkpt lat="41.793709" lon="22.97677">
        <ele>1479.6</ele>
        <time>2026-05-06T11:26:46.000Z</time>
      </trkpt>
      <trkpt lat="41.793709" lon="22.97677">
        <ele>1479.6</ele>
        <time>2026-05-06T11:26:47.000Z</time>
      </trkpt>
      <trkpt lat="41.793709" lon="22.97677">
        <ele>1479.6</ele>
        <time>2026-05-06T11:26:48.000Z</time>
      </trkpt>
      <trkpt lat="41.793709" lon="22.97677">
        <ele>1479.6</ele>
        <time>2026-05-06T11:26:49.000Z</time>
      </trkpt>
      <trkpt lat="41.793709" lon="22.97677">
        <ele>1479.6</ele>
        <time>2026-05-06T11:26:50.000Z</time>
      </trkpt>
      <trkpt lat="41.793709" lon="22.976771">
        <ele>1479.6</ele>
        <time>2026-05-06T11:26:51.000Z</time>
      </trkpt>
      <trkpt lat="41.793709" lon="22.976772">
        <ele>1479.6</ele>
        <time>2026-05-06T11:26:52.000Z</time>
      </trkpt>
      <trkpt lat="41.79371" lon="22.976773">
        <ele>1479.8</ele>
        <time>2026-05-06T11:26:53.000Z</time>
      </trkpt>
      <trkpt lat="41.79371" lon="22.976774">
        <ele>1479.8</ele>
        <time>2026-05-06T11:26:54.000Z</time>
      </trkpt>
      <trkpt lat="41.793711" lon="22.976775">
        <ele>1479.8</ele>
        <time>2026-05-06T11:26:55.000Z</time>
      </trkpt>
      <trkpt lat="41.793711" lon="22.976776">
        <ele>1479.8</ele>
        <time>2026-05-06T11:26:56.000Z</time>
      </trkpt>
      <trkpt lat="41.793712" lon="22.976777">
        <ele>1479.8</ele>
        <time>2026-05-06T11:26:57.000Z</time>
      </trkpt>
      <trkpt lat="41.793713" lon="22.976777">
        <ele>1479.9</ele>
        <time>2026-05-06T11:26:58.000Z</time>
      </trkpt>
      <trkpt lat="41.793714" lon="22.976778">
        <ele>1479.9</ele>
        <time>2026-05-06T11:26:59.000Z</time>
      </trkpt>
      <trkpt lat="41.793714" lon="22.976777">
        <ele>1479.9</ele>
        <time>2026-05-06T11:27:00.000Z</time>
      </trkpt>
      <trkpt lat="41.793714" lon="22.976777">
        <ele>1479.9</ele>
        <time>2026-05-06T11:27:01.000Z</time>
      </trkpt>
      <trkpt lat="41.793713" lon="22.976778">
        <ele>1479.9</ele>
        <time>2026-05-06T11:27:02.000Z</time>
      </trkpt>
      <trkpt lat="41.793712" lon="22.976778">
        <ele>1479.9</ele>
        <time>2026-05-06T11:27:03.000Z</time>
      </trkpt>
      <trkpt lat="41.793711" lon="22.976778">
        <ele>1479.9</ele>
        <time>2026-05-06T11:27:04.000Z</time>
      </trkpt>
      <trkpt lat="41.79371" lon="22.976779">
        <ele>1479.9</ele>
        <time>2026-05-06T11:27:05.000Z</time>
      </trkpt>
      <trkpt lat="41.79371" lon="22.976779">
        <ele>1479.9</ele>
        <time>2026-05-06T11:27:06.000Z</time>
      </trkpt>
      <trkpt lat="41.79371" lon="22.976778">
        <ele>1479.9</ele>
        <time>2026-05-06T11:27:07.000Z</time>
      </trkpt>
      <trkpt lat="41.79371" lon="22.976778">
        <ele>1480</ele>
        <time>2026-05-06T11:27:08.000Z</time>
      </trkpt>
      <trkpt lat="41.793711" lon="22.976777">
        <ele>1480</ele>
        <time>2026-05-06T11:27:09.000Z</time>
      </trkpt>
      <trkpt lat="41.793711" lon="22.976777">
        <ele>1480</ele>
        <time>2026-05-06T11:27:10.000Z</time>
      </trkpt>
      <trkpt lat="41.793711" lon="22.976777">
        <ele>1480</ele>
        <time>2026-05-06T11:27:11.000Z</time>
      </trkpt>
      <trkpt lat="41.793711" lon="22.976778">
        <ele>1480</ele>
        <time>2026-05-06T11:27:12.000Z</time>
      </trkpt>
      <trkpt lat="41.79371" lon="22.976778">
        <ele>1480.2</ele>
        <time>2026-05-06T11:27:13.000Z</time>
      </trkpt>
      <trkpt lat="41.79371" lon="22.976778">
        <ele>1480.2</ele>
        <time>2026-05-06T11:27:14.000Z</time>
      </trkpt>
      <trkpt lat="41.79371" lon="22.976779">
        <ele>1480.2</ele>
        <time>2026-05-06T11:27:15.000Z</time>
      </trkpt>
      <trkpt lat="41.79371" lon="22.976779">
        <ele>1480.2</ele>
        <time>2026-05-06T11:27:16.000Z</time>
      </trkpt>
      <trkpt lat="41.79371" lon="22.976779">
        <ele>1480.2</ele>
        <time>2026-05-06T11:27:17.000Z</time>
      </trkpt>
      <trkpt lat="41.79371" lon="22.976779">
        <ele>1480.3</ele>
        <time>2026-05-06T11:27:18.000Z</time>
      </trkpt>
      <trkpt lat="41.79371" lon="22.976779">
        <ele>1480.3</ele>
        <time>2026-05-06T11:27:19.000Z</time>
      </trkpt>
      <trkpt lat="41.79371" lon="22.976779">
        <ele>1480.3</ele>
        <time>2026-05-06T11:27:20.000Z</time>
      </trkpt>
      <trkpt lat="41.793711" lon="22.976779">
        <ele>1480.3</ele>
        <time>2026-05-06T11:27:21.000Z</time>
      </trkpt>
      <trkpt lat="41.793711" lon="22.976779">
        <ele>1480.3</ele>
        <time>2026-05-06T11:27:22.000Z</time>
      </trkpt>
      <trkpt lat="41.793711" lon="22.976779">
        <ele>1480.3</ele>
        <time>2026-05-06T11:27:23.000Z</time>
      </trkpt>
      <trkpt lat="41.793711" lon="22.976779">
        <ele>1480.3</ele>
        <time>2026-05-06T11:27:24.000Z</time>
      </trkpt>
      <trkpt lat="41.793711" lon="22.97678">
        <ele>1480.3</ele>
        <time>2026-05-06T11:27:25.000Z</time>
      </trkpt>
      <trkpt lat="41.79371" lon="22.97678">
        <ele>1480.3</ele>
        <time>2026-05-06T11:27:26.000Z</time>
      </trkpt>
      <trkpt lat="41.793708" lon="22.976781">
        <ele>1480.3</ele>
        <time>2026-05-06T11:27:27.000Z</time>
      </trkpt>
      <trkpt lat="41.793708" lon="22.976782">
        <ele>1480.1</ele>
        <time>2026-05-06T11:27:28.000Z</time>
      </trkpt>
      <trkpt lat="41.793708" lon="22.976781">
        <ele>1480.1</ele>
        <time>2026-05-06T11:27:29.000Z</time>
      </trkpt>
      <trkpt lat="41.793707" lon="22.976781">
        <ele>1480.1</ele>
        <time>2026-05-06T11:27:30.000Z</time>
      </trkpt>
      <trkpt lat="41.793708" lon="22.97678">
        <ele>1480.1</ele>
        <time>2026-05-06T11:27:31.000Z</time>
      </trkpt>
      <trkpt lat="41.793708" lon="22.976779">
        <ele>1480.1</ele>
        <time>2026-05-06T11:27:32.000Z</time>
      </trkpt>
      <trkpt lat="41.793709" lon="22.976779">
        <ele>1480.1</ele>
        <time>2026-05-06T11:27:33.000Z</time>
      </trkpt>
      <trkpt lat="41.793709" lon="22.976779">
        <ele>1480.1</ele>
        <time>2026-05-06T11:27:34.000Z</time>
      </trkpt>
      <trkpt lat="41.793709" lon="22.976779">
        <ele>1480.1</ele>
        <time>2026-05-06T11:27:35.000Z</time>
      </trkpt>
      <trkpt lat="41.793708" lon="22.976779">
        <ele>1480.1</ele>
        <time>2026-05-06T11:27:36.000Z</time>
      </trkpt>
      <trkpt lat="41.793708" lon="22.976779">
        <ele>1480.1</ele>
        <time>2026-05-06T11:27:37.000Z</time>
      </trkpt>
      <trkpt lat="41.793707" lon="22.976779">
        <ele>1480</ele>
        <time>2026-05-06T11:27:38.000Z</time>
      </trkpt>
      <trkpt lat="41.793707" lon="22.976779">
        <ele>1480</ele>
        <time>2026-05-06T11:27:39.000Z</time>
      </trkpt>
      <trkpt lat="41.793706" lon="22.976779">
        <ele>1480</ele>
        <time>2026-05-06T11:27:40.000Z</time>
      </trkpt>
      <trkpt lat="41.793706" lon="22.976778">
        <ele>1480</ele>
        <time>2026-05-06T11:27:41.000Z</time>
      </trkpt>
      <trkpt lat="41.793705" lon="22.976777">
        <ele>1480</ele>
        <time>2026-05-06T11:27:42.000Z</time>
      </trkpt>
      <trkpt lat="41.793706" lon="22.976776">
        <ele>1479.9</ele>
        <time>2026-05-06T11:27:43.000Z</time>
      </trkpt>
      <trkpt lat="41.793706" lon="22.976775">
        <ele>1479.9</ele>
        <time>2026-05-06T11:27:44.000Z</time>
      </trkpt>
      <trkpt lat="41.793706" lon="22.976774">
        <ele>1479.9</ele>
        <time>2026-05-06T11:27:45.000Z</time>
      </trkpt>
      <trkpt lat="41.793707" lon="22.976773">
        <ele>1479.9</ele>
        <time>2026-05-06T11:27:46.000Z</time>
      </trkpt>
      <trkpt lat="41.793707" lon="22.976772">
        <ele>1479.9</ele>
        <time>2026-05-06T11:27:47.000Z</time>
      </trkpt>
      <trkpt lat="41.793707" lon="22.976772">
        <ele>1479.9</ele>
        <time>2026-05-06T11:27:48.000Z</time>
      </trkpt>
      <trkpt lat="41.793707" lon="22.976771">
        <ele>1479.9</ele>
        <time>2026-05-06T11:27:49.000Z</time>
      </trkpt>
      <trkpt lat="41.793706" lon="22.976771">
        <ele>1479.9</ele>
        <time>2026-05-06T11:27:50.000Z</time>
      </trkpt>
      <trkpt lat="41.793706" lon="22.976772">
        <ele>1479.9</ele>
        <time>2026-05-06T11:27:51.000Z</time>
      </trkpt>
      <trkpt lat="41.793706" lon="22.976772">
        <ele>1479.9</ele>
        <time>2026-05-06T11:27:52.000Z</time>
      </trkpt>
      <trkpt lat="41.793706" lon="22.976772">
        <ele>1480</ele>
        <time>2026-05-06T11:27:53.000Z</time>
      </trkpt>
      <trkpt lat="41.793706" lon="22.976772">
        <ele>1480</ele>
        <time>2026-05-06T11:27:54.000Z</time>
      </trkpt>
      <trkpt lat="41.793706" lon="22.976772">
        <ele>1480</ele>
        <time>2026-05-06T11:27:55.000Z</time>
      </trkpt>
      <trkpt lat="41.793705" lon="22.976771">
        <ele>1480</ele>
        <time>2026-05-06T11:27:56.000Z</time>
      </trkpt>
      <trkpt lat="41.793703" lon="22.976771">
        <ele>1480</ele>
        <time>2026-05-06T11:27:57.000Z</time>
      </trkpt>
      <trkpt lat="41.793701" lon="22.97677">
        <ele>1480.2</ele>
        <time>2026-05-06T11:27:58.000Z</time>
      </trkpt>
      <trkpt lat="41.7937" lon="22.976769">
        <ele>1480.2</ele>
        <time>2026-05-06T11:27:59.000Z</time>
      </trkpt>
      <trkpt lat="41.793698" lon="22.976767">
        <ele>1480.2</ele>
        <time>2026-05-06T11:28:00.000Z</time>
      </trkpt>
      <trkpt lat="41.793697" lon="22.976764">
        <ele>1480.2</ele>
        <time>2026-05-06T11:28:01.000Z</time>
      </trkpt>
      <trkpt lat="41.793696" lon="22.976758">
        <ele>1480.2</ele>
        <time>2026-05-06T11:28:02.000Z</time>
      </trkpt>
      <trkpt lat="41.793693" lon="22.976752">
        <ele>1480.3</ele>
        <time>2026-05-06T11:28:03.000Z</time>
      </trkpt>
      <trkpt lat="41.793689" lon="22.976744">
        <ele>1480.3</ele>
        <time>2026-05-06T11:28:04.000Z</time>
      </trkpt>
      <trkpt lat="41.793684" lon="22.976735">
        <ele>1480.3</ele>
        <time>2026-05-06T11:28:05.000Z</time>
      </trkpt>
      <trkpt lat="41.793679" lon="22.976727">
        <ele>1480.3</ele>
        <time>2026-05-06T11:28:06.000Z</time>
      </trkpt>
      <trkpt lat="41.793674" lon="22.976719">
        <ele>1480.3</ele>
        <time>2026-05-06T11:28:07.000Z</time>
      </trkpt>
      <trkpt lat="41.793669" lon="22.97671">
        <ele>1480.8</ele>
        <time>2026-05-06T11:28:08.000Z</time>
      </trkpt>
      <trkpt lat="41.793665" lon="22.976702">
        <ele>1480.8</ele>
        <time>2026-05-06T11:28:09.000Z</time>
      </trkpt>
      <trkpt lat="41.793659" lon="22.976694">
        <ele>1480.8</ele>
        <time>2026-05-06T11:28:10.000Z</time>
      </trkpt>
      <trkpt lat="41.793655" lon="22.976686">
        <ele>1480.8</ele>
        <time>2026-05-06T11:28:11.000Z</time>
      </trkpt>
      <trkpt lat="41.79365" lon="22.976679">
        <ele>1480.8</ele>
        <time>2026-05-06T11:28:12.000Z</time>
      </trkpt>
      <trkpt lat="41.793646" lon="22.976672">
        <ele>1481.6</ele>
        <time>2026-05-06T11:28:13.000Z</time>
      </trkpt>
      <trkpt lat="41.793642" lon="22.976664">
        <ele>1481.6</ele>
        <time>2026-05-06T11:28:14.000Z</time>
      </trkpt>
      <trkpt lat="41.79364" lon="22.976655">
        <ele>1481.6</ele>
        <time>2026-05-06T11:28:15.000Z</time>
      </trkpt>
      <trkpt lat="41.793638" lon="22.976646">
        <ele>1481.6</ele>
        <time>2026-05-06T11:28:16.000Z</time>
      </trkpt>
      <trkpt lat="41.793635" lon="22.976636">
        <ele>1481.6</ele>
        <time>2026-05-06T11:28:17.000Z</time>
      </trkpt>
      <trkpt lat="41.793632" lon="22.976626">
        <ele>1482.1</ele>
        <time>2026-05-06T11:28:18.000Z</time>
      </trkpt>
      <trkpt lat="41.793628" lon="22.976619">
        <ele>1482.1</ele>
        <time>2026-05-06T11:28:19.000Z</time>
      </trkpt>
      <trkpt lat="41.793625" lon="22.976613">
        <ele>1482.1</ele>
        <time>2026-05-06T11:28:20.000Z</time>
      </trkpt>
      <trkpt lat="41.793623" lon="22.976609">
        <ele>1482.1</ele>
        <time>2026-05-06T11:28:21.000Z</time>
      </trkpt>
      <trkpt lat="41.793621" lon="22.976605">
        <ele>1482.1</ele>
        <time>2026-05-06T11:28:22.000Z</time>
      </trkpt>
      <trkpt lat="41.793621" lon="22.976601">
        <ele>1483.3</ele>
        <time>2026-05-06T11:28:23.000Z</time>
      </trkpt>
      <trkpt lat="41.79362" lon="22.976598">
        <ele>1483.3</ele>
        <time>2026-05-06T11:28:24.000Z</time>
      </trkpt>
      <trkpt lat="41.793619" lon="22.976595">
        <ele>1483.3</ele>
        <time>2026-05-06T11:28:25.000Z</time>
      </trkpt>
      <trkpt lat="41.79362" lon="22.976593">
        <ele>1483.3</ele>
        <time>2026-05-06T11:28:26.000Z</time>
      </trkpt>
      <trkpt lat="41.793623" lon="22.976595">
        <ele>1483.3</ele>
        <time>2026-05-06T11:28:27.000Z</time>
      </trkpt>
      <trkpt lat="41.79363" lon="22.976603">
        <ele>1484.6</ele>
        <time>2026-05-06T11:28:28.000Z</time>
      </trkpt>
      <trkpt lat="41.793638" lon="22.976616">
        <ele>1484.6</ele>
        <time>2026-05-06T11:28:29.000Z</time>
      </trkpt>
      <trkpt lat="41.793648" lon="22.976635">
        <ele>1484.6</ele>
        <time>2026-05-06T11:28:30.000Z</time>
      </trkpt>
      <trkpt lat="41.793658" lon="22.976656">
        <ele>1484.6</ele>
        <time>2026-05-06T11:28:31.000Z</time>
      </trkpt>
      <trkpt lat="41.793668" lon="22.97668">
        <ele>1484.6</ele>
        <time>2026-05-06T11:28:32.000Z</time>
      </trkpt>
      <trkpt lat="41.793676" lon="22.976701">
        <ele>1485</ele>
        <time>2026-05-06T11:28:33.000Z</time>
      </trkpt>
      <trkpt lat="41.793685" lon="22.976723">
        <ele>1485</ele>
        <time>2026-05-06T11:28:34.000Z</time>
      </trkpt>
      <trkpt lat="41.793693" lon="22.976741">
        <ele>1485</ele>
        <time>2026-05-06T11:28:35.000Z</time>
      </trkpt>
      <trkpt lat="41.793699" lon="22.976757">
        <ele>1485</ele>
        <time>2026-05-06T11:28:36.000Z</time>
      </trkpt>
      <trkpt lat="41.793702" lon="22.976767">
        <ele>1485</ele>
        <time>2026-05-06T11:28:37.000Z</time>
      </trkpt>
      <trkpt lat="41.793702" lon="22.976771">
        <ele>1484.9</ele>
        <time>2026-05-06T11:28:38.000Z</time>
      </trkpt>
      <trkpt lat="41.793699" lon="22.976769">
        <ele>1484.9</ele>
        <time>2026-05-06T11:28:39.000Z</time>
      </trkpt>
      <trkpt lat="41.793695" lon="22.976761">
        <ele>1484.9</ele>
        <time>2026-05-06T11:28:40.000Z</time>
      </trkpt>
      <trkpt lat="41.793691" lon="22.976753">
        <ele>1484.9</ele>
        <time>2026-05-06T11:28:41.000Z</time>
      </trkpt>
      <trkpt lat="41.793687" lon="22.976744">
        <ele>1484.9</ele>
        <time>2026-05-06T11:28:42.000Z</time>
      </trkpt>
      <trkpt lat="41.793685" lon="22.976736">
        <ele>1483.6</ele>
        <time>2026-05-06T11:28:43.000Z</time>
      </trkpt>
      <trkpt lat="41.793683" lon="22.976731">
        <ele>1483.6</ele>
        <time>2026-05-06T11:28:44.000Z</time>
      </trkpt>
      <trkpt lat="41.793679" lon="22.976725">
        <ele>1483.6</ele>
        <time>2026-05-06T11:28:45.000Z</time>
      </trkpt>
      <trkpt lat="41.793674" lon="22.976717">
        <ele>1483.6</ele>
        <time>2026-05-06T11:28:46.000Z</time>
      </trkpt>
      <trkpt lat="41.793666" lon="22.976706">
        <ele>1483.6</ele>
        <time>2026-05-06T11:28:47.000Z</time>
      </trkpt>
      <trkpt lat="41.793658" lon="22.976691">
        <ele>1482.8</ele>
        <time>2026-05-06T11:28:48.000Z</time>
      </trkpt>
      <trkpt lat="41.793649" lon="22.976673">
        <ele>1482.8</ele>
        <time>2026-05-06T11:28:49.000Z</time>
      </trkpt>
      <trkpt lat="41.793638" lon="22.976652">
        <ele>1482.8</ele>
        <time>2026-05-06T11:28:50.000Z</time>
      </trkpt>
      <trkpt lat="41.793628" lon="22.976631">
        <ele>1482.8</ele>
        <time>2026-05-06T11:28:51.000Z</time>
      </trkpt>
      <trkpt lat="41.79362" lon="22.976611">
        <ele>1482.8</ele>
        <time>2026-05-06T11:28:52.000Z</time>
      </trkpt>
      <trkpt lat="41.793612" lon="22.976595">
        <ele>1482.1</ele>
        <time>2026-05-06T11:28:53.000Z</time>
      </trkpt>
      <trkpt lat="41.793604" lon="22.97658">
        <ele>1482.1</ele>
        <time>2026-05-06T11:28:54.000Z</time>
      </trkpt>
      <trkpt lat="41.793598" lon="22.976566">
        <ele>1482.1</ele>
        <time>2026-05-06T11:28:55.000Z</time>
      </trkpt>
      <trkpt lat="41.793594" lon="22.976552">
        <ele>1482.1</ele>
        <time>2026-05-06T11:28:56.000Z</time>
      </trkpt>
      <trkpt lat="41.79359" lon="22.976539">
        <ele>1482.1</ele>
        <time>2026-05-06T11:28:57.000Z</time>
      </trkpt>
      <trkpt lat="41.793585" lon="22.976526">
        <ele>1483.2</ele>
        <time>2026-05-06T11:28:58.000Z</time>
      </trkpt>
      <trkpt lat="41.793579" lon="22.976512">
        <ele>1483.2</ele>
        <time>2026-05-06T11:28:59.000Z</time>
      </trkpt>
      <trkpt lat="41.793573" lon="22.976499">
        <ele>1483.2</ele>
        <time>2026-05-06T11:29:00.000Z</time>
      </trkpt>
      <trkpt lat="41.793567" lon="22.976488">
        <ele>1483.2</ele>
        <time>2026-05-06T11:29:01.000Z</time>
      </trkpt>
      <trkpt lat="41.793564" lon="22.976477">
        <ele>1483.2</ele>
        <time>2026-05-06T11:29:02.000Z</time>
      </trkpt>
      <trkpt lat="41.79356" lon="22.976465">
        <ele>1484.1</ele>
        <time>2026-05-06T11:29:03.000Z</time>
      </trkpt>
      <trkpt lat="41.793558" lon="22.976455">
        <ele>1484.1</ele>
        <time>2026-05-06T11:29:04.000Z</time>
      </trkpt>
      <trkpt lat="41.793556" lon="22.976445">
        <ele>1484.1</ele>
        <time>2026-05-06T11:29:05.000Z</time>
      </trkpt>
      <trkpt lat="41.793554" lon="22.976435">
        <ele>1484.1</ele>
        <time>2026-05-06T11:29:06.000Z</time>
      </trkpt>
      <trkpt lat="41.793551" lon="22.976426">
        <ele>1484.1</ele>
        <time>2026-05-06T11:29:07.000Z</time>
      </trkpt>
      <trkpt lat="41.793548" lon="22.976416">
        <ele>1486</ele>
        <time>2026-05-06T11:29:08.000Z</time>
      </trkpt>
      <trkpt lat="41.793545" lon="22.976407">
        <ele>1486</ele>
        <time>2026-05-06T11:29:09.000Z</time>
      </trkpt>
      <trkpt lat="41.793543" lon="22.976397">
        <ele>1486</ele>
        <time>2026-05-06T11:29:10.000Z</time>
      </trkpt>
      <trkpt lat="41.793541" lon="22.976388">
        <ele>1486</ele>
        <time>2026-05-06T11:29:11.000Z</time>
      </trkpt>
      <trkpt lat="41.79354" lon="22.976378">
        <ele>1486</ele>
        <time>2026-05-06T11:29:12.000Z</time>
      </trkpt>
      <trkpt lat="41.79354" lon="22.976367">
        <ele>1487.6</ele>
        <time>2026-05-06T11:29:13.000Z</time>
      </trkpt>
      <trkpt lat="41.793539" lon="22.976355">
        <ele>1487.6</ele>
        <time>2026-05-06T11:29:14.000Z</time>
      </trkpt>
      <trkpt lat="41.793537" lon="22.976343">
        <ele>1487.6</ele>
        <time>2026-05-06T11:29:15.000Z</time>
      </trkpt>
      <trkpt lat="41.793535" lon="22.976331">
        <ele>1487.6</ele>
        <time>2026-05-06T11:29:16.000Z</time>
      </trkpt>
      <trkpt lat="41.793532" lon="22.976317">
        <ele>1487.6</ele>
        <time>2026-05-06T11:29:17.000Z</time>
      </trkpt>
      <trkpt lat="41.793529" lon="22.976303">
        <ele>1488.2</ele>
        <time>2026-05-06T11:29:18.000Z</time>
      </trkpt>
      <trkpt lat="41.793526" lon="22.976291">
        <ele>1488.2</ele>
        <time>2026-05-06T11:29:19.000Z</time>
      </trkpt>
      <trkpt lat="41.793525" lon="22.976279">
        <ele>1488.2</ele>
        <time>2026-05-06T11:29:20.000Z</time>
      </trkpt>
      <trkpt lat="41.793524" lon="22.976267">
        <ele>1488.2</ele>
        <time>2026-05-06T11:29:21.000Z</time>
      </trkpt>
      <trkpt lat="41.793523" lon="22.976256">
        <ele>1488.2</ele>
        <time>2026-05-06T11:29:22.000Z</time>
      </trkpt>
      <trkpt lat="41.793521" lon="22.976246">
        <ele>1489.2</ele>
        <time>2026-05-06T11:29:23.000Z</time>
      </trkpt>
      <trkpt lat="41.793519" lon="22.976234">
        <ele>1489.2</ele>
        <time>2026-05-06T11:29:24.000Z</time>
      </trkpt>
      <trkpt lat="41.793516" lon="22.976222">
        <ele>1489.2</ele>
        <time>2026-05-06T11:29:25.000Z</time>
      </trkpt>
      <trkpt lat="41.793514" lon="22.976211">
        <ele>1489.2</ele>
        <time>2026-05-06T11:29:26.000Z</time>
      </trkpt>
      <trkpt lat="41.793512" lon="22.9762">
        <ele>1489.2</ele>
        <time>2026-05-06T11:29:27.000Z</time>
      </trkpt>
      <trkpt lat="41.793511" lon="22.976188">
        <ele>1490.2</ele>
        <time>2026-05-06T11:29:28.000Z</time>
      </trkpt>
      <trkpt lat="41.793509" lon="22.976179">
        <ele>1490.2</ele>
        <time>2026-05-06T11:29:29.000Z</time>
      </trkpt>
      <trkpt lat="41.793508" lon="22.976169">
        <ele>1490.2</ele>
        <time>2026-05-06T11:29:30.000Z</time>
      </trkpt>
      <trkpt lat="41.793506" lon="22.976158">
        <ele>1490.2</ele>
        <time>2026-05-06T11:29:31.000Z</time>
      </trkpt>
      <trkpt lat="41.793504" lon="22.976148">
        <ele>1490.2</ele>
        <time>2026-05-06T11:29:32.000Z</time>
      </trkpt>
      <trkpt lat="41.793502" lon="22.976139">
        <ele>1490.7</ele>
        <time>2026-05-06T11:29:33.000Z</time>
      </trkpt>
      <trkpt lat="41.793498" lon="22.976129">
        <ele>1490.7</ele>
        <time>2026-05-06T11:29:34.000Z</time>
      </trkpt>
      <trkpt lat="41.793495" lon="22.97612">
        <ele>1490.7</ele>
        <time>2026-05-06T11:29:35.000Z</time>
      </trkpt>
      <trkpt lat="41.793491" lon="22.976111">
        <ele>1490.7</ele>
        <time>2026-05-06T11:29:36.000Z</time>
      </trkpt>
      <trkpt lat="41.793489" lon="22.976102">
        <ele>1490.7</ele>
        <time>2026-05-06T11:29:37.000Z</time>
      </trkpt>
      <trkpt lat="41.793486" lon="22.976092">
        <ele>1492</ele>
        <time>2026-05-06T11:29:38.000Z</time>
      </trkpt>
      <trkpt lat="41.793485" lon="22.97608">
        <ele>1492</ele>
        <time>2026-05-06T11:29:39.000Z</time>
      </trkpt>
      <trkpt lat="41.793483" lon="22.976069">
        <ele>1492</ele>
        <time>2026-05-06T11:29:40.000Z</time>
      </trkpt>
      <trkpt lat="41.79348" lon="22.976059">
        <ele>1492</ele>
        <time>2026-05-06T11:29:41.000Z</time>
      </trkpt>
      <trkpt lat="41.793478" lon="22.976049">
        <ele>1492</ele>
        <time>2026-05-06T11:29:42.000Z</time>
      </trkpt>
      <trkpt lat="41.793475" lon="22.976041">
        <ele>1493.3</ele>
        <time>2026-05-06T11:29:43.000Z</time>
      </trkpt>
      <trkpt lat="41.793474" lon="22.976037">
        <ele>1493.3</ele>
        <time>2026-05-06T11:29:44.000Z</time>
      </trkpt>
      <trkpt lat="41.793473" lon="22.976035">
        <ele>1493.3</ele>
        <time>2026-05-06T11:29:45.000Z</time>
      </trkpt>
      <trkpt lat="41.793473" lon="22.976035">
        <ele>1493.3</ele>
        <time>2026-05-06T11:29:46.000Z</time>
      </trkpt>
      <trkpt lat="41.793473" lon="22.976035">
        <ele>1493.3</ele>
        <time>2026-05-06T11:29:47.000Z</time>
      </trkpt>
      <trkpt lat="41.793473" lon="22.976036">
        <ele>1494</ele>
        <time>2026-05-06T11:29:48.000Z</time>
      </trkpt>
      <trkpt lat="41.793471" lon="22.976036">
        <ele>1494</ele>
        <time>2026-05-06T11:29:49.000Z</time>
      </trkpt>
      <trkpt lat="41.79347" lon="22.976036">
        <ele>1494</ele>
        <time>2026-05-06T11:29:50.000Z</time>
      </trkpt>
      <trkpt lat="41.793468" lon="22.976036">
        <ele>1494</ele>
        <time>2026-05-06T11:29:51.000Z</time>
      </trkpt>
      <trkpt lat="41.793467" lon="22.976036">
        <ele>1494</ele>
        <time>2026-05-06T11:29:52.000Z</time>
      </trkpt>
      <trkpt lat="41.793467" lon="22.976037">
        <ele>1495.1</ele>
        <time>2026-05-06T11:29:53.000Z</time>
      </trkpt>
      <trkpt lat="41.793467" lon="22.976037">
        <ele>1495.1</ele>
        <time>2026-05-06T11:29:54.000Z</time>
      </trkpt>
      <trkpt lat="41.793467" lon="22.976036">
        <ele>1495.1</ele>
        <time>2026-05-06T11:29:55.000Z</time>
      </trkpt>
      <trkpt lat="41.793468" lon="22.976032">
        <ele>1495.1</ele>
        <time>2026-05-06T11:29:56.000Z</time>
      </trkpt>
      <trkpt lat="41.793469" lon="22.976025">
        <ele>1495.1</ele>
        <time>2026-05-06T11:29:57.000Z</time>
      </trkpt>
      <trkpt lat="41.79347" lon="22.976015">
        <ele>1495.5</ele>
        <time>2026-05-06T11:29:58.000Z</time>
      </trkpt>
      <trkpt lat="41.79347" lon="22.976002">
        <ele>1495.5</ele>
        <time>2026-05-06T11:29:59.000Z</time>
      </trkpt>
      <trkpt lat="41.79347" lon="22.975987">
        <ele>1495.5</ele>
        <time>2026-05-06T11:30:00.000Z</time>
      </trkpt>
      <trkpt lat="41.79347" lon="22.975973">
        <ele>1495.5</ele>
        <time>2026-05-06T11:30:01.000Z</time>
      </trkpt>
      <trkpt lat="41.793471" lon="22.97596">
        <ele>1495.5</ele>
        <time>2026-05-06T11:30:02.000Z</time>
      </trkpt>
      <trkpt lat="41.793471" lon="22.975947">
        <ele>1495.5</ele>
        <time>2026-05-06T11:30:03.000Z</time>
      </trkpt>
      <trkpt lat="41.793472" lon="22.975934">
        <ele>1495.5</ele>
        <time>2026-05-06T11:30:04.000Z</time>
      </trkpt>
      <trkpt lat="41.793474" lon="22.975922">
        <ele>1495.5</ele>
        <time>2026-05-06T11:30:05.000Z</time>
      </trkpt>
      <trkpt lat="41.793474" lon="22.975909">
        <ele>1495.5</ele>
        <time>2026-05-06T11:30:06.000Z</time>
      </trkpt>
      <trkpt lat="41.793474" lon="22.975896">
        <ele>1495.5</ele>
        <time>2026-05-06T11:30:07.000Z</time>
      </trkpt>
      <trkpt lat="41.793474" lon="22.975883">
        <ele>1495.7</ele>
        <time>2026-05-06T11:30:08.000Z</time>
      </trkpt>
      <trkpt lat="41.793474" lon="22.97587">
        <ele>1495.7</ele>
        <time>2026-05-06T11:30:09.000Z</time>
      </trkpt>
      <trkpt lat="41.793475" lon="22.975859">
        <ele>1495.7</ele>
        <time>2026-05-06T11:30:10.000Z</time>
      </trkpt>
      <trkpt lat="41.793477" lon="22.975847">
        <ele>1495.7</ele>
        <time>2026-05-06T11:30:11.000Z</time>
      </trkpt>
      <trkpt lat="41.793479" lon="22.975835">
        <ele>1495.7</ele>
        <time>2026-05-06T11:30:12.000Z</time>
      </trkpt>
      <trkpt lat="41.793481" lon="22.975822">
        <ele>1496.3</ele>
        <time>2026-05-06T11:30:13.000Z</time>
      </trkpt>
      <trkpt lat="41.793483" lon="22.975808">
        <ele>1496.3</ele>
        <time>2026-05-06T11:30:14.000Z</time>
      </trkpt>
      <trkpt lat="41.793485" lon="22.975793">
        <ele>1496.3</ele>
        <time>2026-05-06T11:30:15.000Z</time>
      </trkpt>
      <trkpt lat="41.793489" lon="22.975778">
        <ele>1496.3</ele>
        <time>2026-05-06T11:30:16.000Z</time>
      </trkpt>
      <trkpt lat="41.793492" lon="22.975763">
        <ele>1496.3</ele>
        <time>2026-05-06T11:30:17.000Z</time>
      </trkpt>
      <trkpt lat="41.793495" lon="22.97575">
        <ele>1496.8</ele>
        <time>2026-05-06T11:30:18.000Z</time>
      </trkpt>
      <trkpt lat="41.793497" lon="22.975737">
        <ele>1496.8</ele>
        <time>2026-05-06T11:30:19.000Z</time>
      </trkpt>
      <trkpt lat="41.793498" lon="22.975724">
        <ele>1496.8</ele>
        <time>2026-05-06T11:30:20.000Z</time>
      </trkpt>
      <trkpt lat="41.793496" lon="22.97571">
        <ele>1496.8</ele>
        <time>2026-05-06T11:30:21.000Z</time>
      </trkpt>
      <trkpt lat="41.793494" lon="22.975699">
        <ele>1496.8</ele>
        <time>2026-05-06T11:30:22.000Z</time>
      </trkpt>
      <trkpt lat="41.79349" lon="22.97569">
        <ele>1497.9</ele>
        <time>2026-05-06T11:30:23.000Z</time>
      </trkpt>
      <trkpt lat="41.793486" lon="22.975684">
        <ele>1497.9</ele>
        <time>2026-05-06T11:30:24.000Z</time>
      </trkpt>
      <trkpt lat="41.79348" lon="22.975682">
        <ele>1497.9</ele>
        <time>2026-05-06T11:30:25.000Z</time>
      </trkpt>
      <trkpt lat="41.793474" lon="22.975684">
        <ele>1497.9</ele>
        <time>2026-05-06T11:30:26.000Z</time>
      </trkpt>
      <trkpt lat="41.793469" lon="22.975686">
        <ele>1497.9</ele>
        <time>2026-05-06T11:30:27.000Z</time>
      </trkpt>
      <trkpt lat="41.793463" lon="22.97569">
        <ele>1499.1</ele>
        <time>2026-05-06T11:30:28.000Z</time>
      </trkpt>
      <trkpt lat="41.793458" lon="22.975693">
        <ele>1499.1</ele>
        <time>2026-05-06T11:30:29.000Z</time>
      </trkpt>
      <trkpt lat="41.793453" lon="22.975695">
        <ele>1499.1</ele>
        <time>2026-05-06T11:30:30.000Z</time>
      </trkpt>
      <trkpt lat="41.793449" lon="22.975698">
        <ele>1499.1</ele>
        <time>2026-05-06T11:30:31.000Z</time>
      </trkpt>
      <trkpt lat="41.793442" lon="22.975701">
        <ele>1499.1</ele>
        <time>2026-05-06T11:30:32.000Z</time>
      </trkpt>
      <trkpt lat="41.793437" lon="22.975704">
        <ele>1499.6</ele>
        <time>2026-05-06T11:30:33.000Z</time>
      </trkpt>
      <trkpt lat="41.793433" lon="22.975709">
        <ele>1499.6</ele>
        <time>2026-05-06T11:30:34.000Z</time>
      </trkpt>
      <trkpt lat="41.793428" lon="22.975716">
        <ele>1499.6</ele>
        <time>2026-05-06T11:30:35.000Z</time>
      </trkpt>
      <trkpt lat="41.793423" lon="22.975723">
        <ele>1499.6</ele>
        <time>2026-05-06T11:30:36.000Z</time>
      </trkpt>
      <trkpt lat="41.793419" lon="22.975731">
        <ele>1499.6</ele>
        <time>2026-05-06T11:30:37.000Z</time>
      </trkpt>
      <trkpt lat="41.793413" lon="22.975738">
        <ele>1500.7</ele>
        <time>2026-05-06T11:30:38.000Z</time>
      </trkpt>
      <trkpt lat="41.793408" lon="22.975745">
        <ele>1500.7</ele>
        <time>2026-05-06T11:30:39.000Z</time>
      </trkpt>
      <trkpt lat="41.793403" lon="22.975753">
        <ele>1500.7</ele>
        <time>2026-05-06T11:30:40.000Z</time>
      </trkpt>
      <trkpt lat="41.793398" lon="22.975761">
        <ele>1500.7</ele>
        <time>2026-05-06T11:30:41.000Z</time>
      </trkpt>
      <trkpt lat="41.793394" lon="22.975768">
        <ele>1500.7</ele>
        <time>2026-05-06T11:30:42.000Z</time>
      </trkpt>
      <trkpt lat="41.793393" lon="22.975777">
        <ele>1501.7</ele>
        <time>2026-05-06T11:30:43.000Z</time>
      </trkpt>
      <trkpt lat="41.793391" lon="22.975787">
        <ele>1501.7</ele>
        <time>2026-05-06T11:30:44.000Z</time>
      </trkpt>
      <trkpt lat="41.793388" lon="22.975796">
        <ele>1501.7</ele>
        <time>2026-05-06T11:30:45.000Z</time>
      </trkpt>
      <trkpt lat="41.793386" lon="22.975804">
        <ele>1501.7</ele>
        <time>2026-05-06T11:30:46.000Z</time>
      </trkpt>
      <trkpt lat="41.793385" lon="22.975811">
        <ele>1501.7</ele>
        <time>2026-05-06T11:30:47.000Z</time>
      </trkpt>
      <trkpt lat="41.793382" lon="22.975819">
        <ele>1502.1</ele>
        <time>2026-05-06T11:30:48.000Z</time>
      </trkpt>
      <trkpt lat="41.793379" lon="22.975824">
        <ele>1502.1</ele>
        <time>2026-05-06T11:30:49.000Z</time>
      </trkpt>
      <trkpt lat="41.793378" lon="22.975831">
        <ele>1502.1</ele>
        <time>2026-05-06T11:30:50.000Z</time>
      </trkpt>
      <trkpt lat="41.793375" lon="22.975839">
        <ele>1502.1</ele>
        <time>2026-05-06T11:30:51.000Z</time>
      </trkpt>
      <trkpt lat="41.793371" lon="22.975848">
        <ele>1502.1</ele>
        <time>2026-05-06T11:30:52.000Z</time>
      </trkpt>
      <trkpt lat="41.793369" lon="22.975856">
        <ele>1503</ele>
        <time>2026-05-06T11:30:53.000Z</time>
      </trkpt>
      <trkpt lat="41.793367" lon="22.975865">
        <ele>1503</ele>
        <time>2026-05-06T11:30:54.000Z</time>
      </trkpt>
      <trkpt lat="41.793364" lon="22.975871">
        <ele>1503</ele>
        <time>2026-05-06T11:30:55.000Z</time>
      </trkpt>
      <trkpt lat="41.793361" lon="22.975875">
        <ele>1503</ele>
        <time>2026-05-06T11:30:56.000Z</time>
      </trkpt>
      <trkpt lat="41.79336" lon="22.975876">
        <ele>1503</ele>
        <time>2026-05-06T11:30:57.000Z</time>
      </trkpt>
      <trkpt lat="41.793357" lon="22.975878">
        <ele>1503.7</ele>
        <time>2026-05-06T11:30:58.000Z</time>
      </trkpt>
      <trkpt lat="41.793357" lon="22.975878">
        <ele>1503.7</ele>
        <time>2026-05-06T11:30:59.000Z</time>
      </trkpt>
      <trkpt lat="41.793356" lon="22.975878">
        <ele>1503.7</ele>
        <time>2026-05-06T11:31:00.000Z</time>
      </trkpt>
      <trkpt lat="41.793355" lon="22.975881">
        <ele>1503.7</ele>
        <time>2026-05-06T11:31:01.000Z</time>
      </trkpt>
      <trkpt lat="41.793354" lon="22.975885">
        <ele>1503.7</ele>
        <time>2026-05-06T11:31:02.000Z</time>
      </trkpt>
      <trkpt lat="41.793352" lon="22.975892">
        <ele>1504.2</ele>
        <time>2026-05-06T11:31:03.000Z</time>
      </trkpt>
      <trkpt lat="41.793349" lon="22.975901">
        <ele>1504.2</ele>
        <time>2026-05-06T11:31:04.000Z</time>
      </trkpt>
      <trkpt lat="41.793347" lon="22.975912">
        <ele>1504.2</ele>
        <time>2026-05-06T11:31:05.000Z</time>
      </trkpt>
      <trkpt lat="41.793346" lon="22.975924">
        <ele>1504.2</ele>
        <time>2026-05-06T11:31:06.000Z</time>
      </trkpt>
      <trkpt lat="41.793344" lon="22.975935">
        <ele>1504.2</ele>
        <time>2026-05-06T11:31:07.000Z</time>
      </trkpt>
      <trkpt lat="41.793342" lon="22.975947">
        <ele>1504.9</ele>
        <time>2026-05-06T11:31:08.000Z</time>
      </trkpt>
      <trkpt lat="41.79334" lon="22.975959">
        <ele>1504.9</ele>
        <time>2026-05-06T11:31:09.000Z</time>
      </trkpt>
      <trkpt lat="41.793338" lon="22.975971">
        <ele>1504.9</ele>
        <time>2026-05-06T11:31:10.000Z</time>
      </trkpt>
      <trkpt lat="41.793335" lon="22.975981">
        <ele>1504.9</ele>
        <time>2026-05-06T11:31:11.000Z</time>
      </trkpt>
      <trkpt lat="41.793331" lon="22.975992">
        <ele>1504.9</ele>
        <time>2026-05-06T11:31:12.000Z</time>
      </trkpt>
      <trkpt lat="41.793328" lon="22.976001">
        <ele>1505.6</ele>
        <time>2026-05-06T11:31:13.000Z</time>
      </trkpt>
      <trkpt lat="41.793324" lon="22.976011">
        <ele>1505.6</ele>
        <time>2026-05-06T11:31:14.000Z</time>
      </trkpt>
      <trkpt lat="41.79332" lon="22.97602">
        <ele>1505.6</ele>
        <time>2026-05-06T11:31:15.000Z</time>
      </trkpt>
      <trkpt lat="41.793316" lon="22.976028">
        <ele>1505.6</ele>
        <time>2026-05-06T11:31:16.000Z</time>
      </trkpt>
      <trkpt lat="41.793311" lon="22.976037">
        <ele>1505.6</ele>
        <time>2026-05-06T11:31:17.000Z</time>
      </trkpt>
      <trkpt lat="41.793308" lon="22.976046">
        <ele>1505.9</ele>
        <time>2026-05-06T11:31:18.000Z</time>
      </trkpt>
      <trkpt lat="41.793304" lon="22.976055">
        <ele>1505.9</ele>
        <time>2026-05-06T11:31:19.000Z</time>
      </trkpt>
      <trkpt lat="41.793301" lon="22.976066">
        <ele>1505.9</ele>
        <time>2026-05-06T11:31:20.000Z</time>
      </trkpt>
      <trkpt lat="41.793297" lon="22.976078">
        <ele>1505.9</ele>
        <time>2026-05-06T11:31:21.000Z</time>
      </trkpt>
      <trkpt lat="41.793293" lon="22.97609">
        <ele>1505.9</ele>
        <time>2026-05-06T11:31:22.000Z</time>
      </trkpt>
      <trkpt lat="41.793289" lon="22.976102">
        <ele>1506.7</ele>
        <time>2026-05-06T11:31:23.000Z</time>
      </trkpt>
      <trkpt lat="41.793284" lon="22.976116">
        <ele>1506.7</ele>
        <time>2026-05-06T11:31:24.000Z</time>
      </trkpt>
      <trkpt lat="41.793281" lon="22.976128">
        <ele>1506.7</ele>
        <time>2026-05-06T11:31:25.000Z</time>
      </trkpt>
      <trkpt lat="41.793277" lon="22.97614">
        <ele>1506.7</ele>
        <time>2026-05-06T11:31:26.000Z</time>
      </trkpt>
      <trkpt lat="41.793273" lon="22.97615">
        <ele>1506.7</ele>
        <time>2026-05-06T11:31:27.000Z</time>
      </trkpt>
      <trkpt lat="41.793268" lon="22.976161">
        <ele>1507.5</ele>
        <time>2026-05-06T11:31:28.000Z</time>
      </trkpt>
      <trkpt lat="41.793264" lon="22.97617">
        <ele>1507.5</ele>
        <time>2026-05-06T11:31:29.000Z</time>
      </trkpt>
      <trkpt lat="41.79326" lon="22.976179">
        <ele>1507.5</ele>
        <time>2026-05-06T11:31:30.000Z</time>
      </trkpt>
      <trkpt lat="41.793257" lon="22.976188">
        <ele>1507.5</ele>
        <time>2026-05-06T11:31:31.000Z</time>
      </trkpt>
      <trkpt lat="41.793253" lon="22.976196">
        <ele>1507.5</ele>
        <time>2026-05-06T11:31:32.000Z</time>
      </trkpt>
      <trkpt lat="41.793251" lon="22.976203">
        <ele>1507.9</ele>
        <time>2026-05-06T11:31:33.000Z</time>
      </trkpt>
      <trkpt lat="41.79325" lon="22.976211">
        <ele>1507.9</ele>
        <time>2026-05-06T11:31:34.000Z</time>
      </trkpt>
      <trkpt lat="41.79325" lon="22.976218">
        <ele>1507.9</ele>
        <time>2026-05-06T11:31:35.000Z</time>
      </trkpt>
      <trkpt lat="41.793252" lon="22.976227">
        <ele>1507.9</ele>
        <time>2026-05-06T11:31:36.000Z</time>
      </trkpt>
      <trkpt lat="41.793253" lon="22.976236">
        <ele>1507.9</ele>
        <time>2026-05-06T11:31:37.000Z</time>
      </trkpt>
      <trkpt lat="41.793254" lon="22.976245">
        <ele>1508.5</ele>
        <time>2026-05-06T11:31:38.000Z</time>
      </trkpt>
      <trkpt lat="41.793253" lon="22.976254">
        <ele>1508.5</ele>
        <time>2026-05-06T11:31:39.000Z</time>
      </trkpt>
      <trkpt lat="41.793249" lon="22.976264">
        <ele>1508.5</ele>
        <time>2026-05-06T11:31:40.000Z</time>
      </trkpt>
      <trkpt lat="41.793246" lon="22.976274">
        <ele>1508.5</ele>
        <time>2026-05-06T11:31:41.000Z</time>
      </trkpt>
      <trkpt lat="41.793243" lon="22.976285">
        <ele>1508.5</ele>
        <time>2026-05-06T11:31:42.000Z</time>
      </trkpt>
      <trkpt lat="41.79324" lon="22.976296">
        <ele>1508.9</ele>
        <time>2026-05-06T11:31:43.000Z</time>
      </trkpt>
      <trkpt lat="41.793238" lon="22.976308">
        <ele>1508.9</ele>
        <time>2026-05-06T11:31:44.000Z</time>
      </trkpt>
      <trkpt lat="41.793236" lon="22.97632">
        <ele>1508.9</ele>
        <time>2026-05-06T11:31:45.000Z</time>
      </trkpt>
      <trkpt lat="41.793233" lon="22.976332">
        <ele>1508.9</ele>
        <time>2026-05-06T11:31:46.000Z</time>
      </trkpt>
      <trkpt lat="41.793231" lon="22.976341">
        <ele>1508.9</ele>
        <time>2026-05-06T11:31:47.000Z</time>
      </trkpt>
      <trkpt lat="41.793229" lon="22.976348">
        <ele>1509.1</ele>
        <time>2026-05-06T11:31:48.000Z</time>
      </trkpt>
      <trkpt lat="41.793229" lon="22.976353">
        <ele>1509.1</ele>
        <time>2026-05-06T11:31:49.000Z</time>
      </trkpt>
      <trkpt lat="41.793228" lon="22.976354">
        <ele>1509.1</ele>
        <time>2026-05-06T11:31:50.000Z</time>
      </trkpt>
      <trkpt lat="41.793229" lon="22.976355">
        <ele>1509.1</ele>
        <time>2026-05-06T11:31:51.000Z</time>
      </trkpt>
      <trkpt lat="41.793229" lon="22.976355">
        <ele>1509.1</ele>
        <time>2026-05-06T11:31:52.000Z</time>
      </trkpt>
      <trkpt lat="41.79323" lon="22.976356">
        <ele>1509.5</ele>
        <time>2026-05-06T11:31:53.000Z</time>
      </trkpt>
      <trkpt lat="41.79323" lon="22.976356">
        <ele>1509.5</ele>
        <time>2026-05-06T11:31:54.000Z</time>
      </trkpt>
      <trkpt lat="41.793231" lon="22.976358">
        <ele>1509.5</ele>
        <time>2026-05-06T11:31:55.000Z</time>
      </trkpt>
      <trkpt lat="41.793232" lon="22.976358">
        <ele>1509.5</ele>
        <time>2026-05-06T11:31:56.000Z</time>
      </trkpt>
      <trkpt lat="41.793232" lon="22.97636">
        <ele>1509.5</ele>
        <time>2026-05-06T11:31:57.000Z</time>
      </trkpt>
      <trkpt lat="41.793232" lon="22.976365">
        <ele>1509.7</ele>
        <time>2026-05-06T11:31:58.000Z</time>
      </trkpt>
      <trkpt lat="41.793231" lon="22.976372">
        <ele>1509.7</ele>
        <time>2026-05-06T11:31:59.000Z</time>
      </trkpt>
      <trkpt lat="41.793228" lon="22.976381">
        <ele>1509.7</ele>
        <time>2026-05-06T11:32:00.000Z</time>
      </trkpt>
      <trkpt lat="41.793225" lon="22.976394">
        <ele>1509.7</ele>
        <time>2026-05-06T11:32:01.000Z</time>
      </trkpt>
      <trkpt lat="41.793221" lon="22.976406">
        <ele>1509.7</ele>
        <time>2026-05-06T11:32:02.000Z</time>
      </trkpt>
      <trkpt lat="41.793217" lon="22.976418">
        <ele>1509.8</ele>
        <time>2026-05-06T11:32:03.000Z</time>
      </trkpt>
      <trkpt lat="41.793215" lon="22.976429">
        <ele>1509.8</ele>
        <time>2026-05-06T11:32:04.000Z</time>
      </trkpt>
      <trkpt lat="41.793213" lon="22.976439">
        <ele>1509.8</ele>
        <time>2026-05-06T11:32:05.000Z</time>
      </trkpt>
      <trkpt lat="41.793212" lon="22.976448">
        <ele>1509.8</ele>
        <time>2026-05-06T11:32:06.000Z</time>
      </trkpt>
      <trkpt lat="41.79321" lon="22.976459">
        <ele>1509.8</ele>
        <time>2026-05-06T11:32:07.000Z</time>
      </trkpt>
      <trkpt lat="41.79321" lon="22.976469">
        <ele>1510</ele>
        <time>2026-05-06T11:32:08.000Z</time>
      </trkpt>
      <trkpt lat="41.79321" lon="22.976478">
        <ele>1510</ele>
        <time>2026-05-06T11:32:09.000Z</time>
      </trkpt>
      <trkpt lat="41.79321" lon="22.976488">
        <ele>1510</ele>
        <time>2026-05-06T11:32:10.000Z</time>
      </trkpt>
      <trkpt lat="41.793211" lon="22.976498">
        <ele>1510</ele>
        <time>2026-05-06T11:32:11.000Z</time>
      </trkpt>
      <trkpt lat="41.79321" lon="22.976507">
        <ele>1510</ele>
        <time>2026-05-06T11:32:12.000Z</time>
      </trkpt>
      <trkpt lat="41.793209" lon="22.976516">
        <ele>1510.5</ele>
        <time>2026-05-06T11:32:13.000Z</time>
      </trkpt>
      <trkpt lat="41.793208" lon="22.976523">
        <ele>1510.5</ele>
        <time>2026-05-06T11:32:14.000Z</time>
      </trkpt>
      <trkpt lat="41.793207" lon="22.976528">
        <ele>1510.5</ele>
        <time>2026-05-06T11:32:15.000Z</time>
      </trkpt>
      <trkpt lat="41.793207" lon="22.976531">
        <ele>1510.5</ele>
        <time>2026-05-06T11:32:16.000Z</time>
      </trkpt>
      <trkpt lat="41.793207" lon="22.976534">
        <ele>1510.5</ele>
        <time>2026-05-06T11:32:17.000Z</time>
      </trkpt>
      <trkpt lat="41.793206" lon="22.976537">
        <ele>1510.9</ele>
        <time>2026-05-06T11:32:18.000Z</time>
      </trkpt>
      <trkpt lat="41.793205" lon="22.97654">
        <ele>1510.9</ele>
        <time>2026-05-06T11:32:19.000Z</time>
      </trkpt>
      <trkpt lat="41.793204" lon="22.976543">
        <ele>1510.9</ele>
        <time>2026-05-06T11:32:20.000Z</time>
      </trkpt>
      <trkpt lat="41.793203" lon="22.976546">
        <ele>1510.9</ele>
        <time>2026-05-06T11:32:21.000Z</time>
      </trkpt>
      <trkpt lat="41.793202" lon="22.976549">
        <ele>1510.9</ele>
        <time>2026-05-06T11:32:22.000Z</time>
      </trkpt>
      <trkpt lat="41.7932" lon="22.976553">
        <ele>1511.7</ele>
        <time>2026-05-06T11:32:23.000Z</time>
      </trkpt>
      <trkpt lat="41.793199" lon="22.976558">
        <ele>1511.7</ele>
        <time>2026-05-06T11:32:24.000Z</time>
      </trkpt>
      <trkpt lat="41.793198" lon="22.976565">
        <ele>1511.7</ele>
        <time>2026-05-06T11:32:25.000Z</time>
      </trkpt>
      <trkpt lat="41.793196" lon="22.976575">
        <ele>1511.7</ele>
        <time>2026-05-06T11:32:26.000Z</time>
      </trkpt>
      <trkpt lat="41.793195" lon="22.976587">
        <ele>1511.7</ele>
        <time>2026-05-06T11:32:27.000Z</time>
      </trkpt>
      <trkpt lat="41.793193" lon="22.976599">
        <ele>1512</ele>
        <time>2026-05-06T11:32:28.000Z</time>
      </trkpt>
      <trkpt lat="41.793193" lon="22.976612">
        <ele>1512</ele>
        <time>2026-05-06T11:32:29.000Z</time>
      </trkpt>
      <trkpt lat="41.793192" lon="22.976627">
        <ele>1512</ele>
        <time>2026-05-06T11:32:30.000Z</time>
      </trkpt>
      <trkpt lat="41.793191" lon="22.976641">
        <ele>1512</ele>
        <time>2026-05-06T11:32:31.000Z</time>
      </trkpt>
      <trkpt lat="41.793191" lon="22.976654">
        <ele>1512</ele>
        <time>2026-05-06T11:32:32.000Z</time>
      </trkpt>
      <trkpt lat="41.79319" lon="22.976668">
        <ele>1512.1</ele>
        <time>2026-05-06T11:32:33.000Z</time>
      </trkpt>
      <trkpt lat="41.793188" lon="22.976681">
        <ele>1512.1</ele>
        <time>2026-05-06T11:32:34.000Z</time>
      </trkpt>
      <trkpt lat="41.793186" lon="22.976694">
        <ele>1512.1</ele>
        <time>2026-05-06T11:32:35.000Z</time>
      </trkpt>
      <trkpt lat="41.793185" lon="22.976705">
        <ele>1512.1</ele>
        <time>2026-05-06T11:32:36.000Z</time>
      </trkpt>
      <trkpt lat="41.793183" lon="22.976717">
        <ele>1512.1</ele>
        <time>2026-05-06T11:32:37.000Z</time>
      </trkpt>
      <trkpt lat="41.793182" lon="22.976728">
        <ele>1512.4</ele>
        <time>2026-05-06T11:32:38.000Z</time>
      </trkpt>
      <trkpt lat="41.793182" lon="22.976739">
        <ele>1512.4</ele>
        <time>2026-05-06T11:32:39.000Z</time>
      </trkpt>
      <trkpt lat="41.793181" lon="22.976749">
        <ele>1512.4</ele>
        <time>2026-05-06T11:32:40.000Z</time>
      </trkpt>
      <trkpt lat="41.79318" lon="22.97676">
        <ele>1512.4</ele>
        <time>2026-05-06T11:32:41.000Z</time>
      </trkpt>
      <trkpt lat="41.79318" lon="22.976771">
        <ele>1512.4</ele>
        <time>2026-05-06T11:32:42.000Z</time>
      </trkpt>
      <trkpt lat="41.793179" lon="22.976781">
        <ele>1512.8</ele>
        <time>2026-05-06T11:32:43.000Z</time>
      </trkpt>
      <trkpt lat="41.793178" lon="22.976792">
        <ele>1512.8</ele>
        <time>2026-05-06T11:32:44.000Z</time>
      </trkpt>
      <trkpt lat="41.793177" lon="22.976803">
        <ele>1512.8</ele>
        <time>2026-05-06T11:32:45.000Z</time>
      </trkpt>
      <trkpt lat="41.793177" lon="22.976814">
        <ele>1512.8</ele>
        <time>2026-05-06T11:32:46.000Z</time>
      </trkpt>
      <trkpt lat="41.793175" lon="22.976827">
        <ele>1512.8</ele>
        <time>2026-05-06T11:32:47.000Z</time>
      </trkpt>
      <trkpt lat="41.793174" lon="22.97684">
        <ele>1513.1</ele>
        <time>2026-05-06T11:32:48.000Z</time>
      </trkpt>
      <trkpt lat="41.793173" lon="22.976852">
        <ele>1513.1</ele>
        <time>2026-05-06T11:32:49.000Z</time>
      </trkpt>
      <trkpt lat="41.79317" lon="22.976864">
        <ele>1513.1</ele>
        <time>2026-05-06T11:32:50.000Z</time>
      </trkpt>
      <trkpt lat="41.793169" lon="22.976877">
        <ele>1513.1</ele>
        <time>2026-05-06T11:32:51.000Z</time>
      </trkpt>
      <trkpt lat="41.793169" lon="22.976888">
        <ele>1513.1</ele>
        <time>2026-05-06T11:32:52.000Z</time>
      </trkpt>
      <trkpt lat="41.79317" lon="22.976898">
        <ele>1513.5</ele>
        <time>2026-05-06T11:32:53.000Z</time>
      </trkpt>
      <trkpt lat="41.79317" lon="22.976909">
        <ele>1513.5</ele>
        <time>2026-05-06T11:32:54.000Z</time>
      </trkpt>
      <trkpt lat="41.793172" lon="22.97692">
        <ele>1513.5</ele>
        <time>2026-05-06T11:32:55.000Z</time>
      </trkpt>
      <trkpt lat="41.793173" lon="22.976929">
        <ele>1513.5</ele>
        <time>2026-05-06T11:32:56.000Z</time>
      </trkpt>
      <trkpt lat="41.793174" lon="22.976938">
        <ele>1513.5</ele>
        <time>2026-05-06T11:32:57.000Z</time>
      </trkpt>
      <trkpt lat="41.793174" lon="22.976946">
        <ele>1514</ele>
        <time>2026-05-06T11:32:58.000Z</time>
      </trkpt>
      <trkpt lat="41.793175" lon="22.976954">
        <ele>1514</ele>
        <time>2026-05-06T11:32:59.000Z</time>
      </trkpt>
      <trkpt lat="41.793176" lon="22.976961">
        <ele>1514</ele>
        <time>2026-05-06T11:33:00.000Z</time>
      </trkpt>
      <trkpt lat="41.793176" lon="22.976968">
        <ele>1514</ele>
        <time>2026-05-06T11:33:01.000Z</time>
      </trkpt>
      <trkpt lat="41.793175" lon="22.976975">
        <ele>1514</ele>
        <time>2026-05-06T11:33:02.000Z</time>
      </trkpt>
      <trkpt lat="41.793174" lon="22.976982">
        <ele>1514.3</ele>
        <time>2026-05-06T11:33:03.000Z</time>
      </trkpt>
      <trkpt lat="41.793172" lon="22.97699">
        <ele>1514.3</ele>
        <time>2026-05-06T11:33:04.000Z</time>
      </trkpt>
      <trkpt lat="41.793171" lon="22.976999">
        <ele>1514.3</ele>
        <time>2026-05-06T11:33:05.000Z</time>
      </trkpt>
      <trkpt lat="41.793168" lon="22.977009">
        <ele>1514.3</ele>
        <time>2026-05-06T11:33:06.000Z</time>
      </trkpt>
      <trkpt lat="41.793166" lon="22.977021">
        <ele>1514.3</ele>
        <time>2026-05-06T11:33:07.000Z</time>
      </trkpt>
      <trkpt lat="41.793164" lon="22.977033">
        <ele>1514.7</ele>
        <time>2026-05-06T11:33:08.000Z</time>
      </trkpt>
      <trkpt lat="41.793161" lon="22.977045">
        <ele>1514.7</ele>
        <time>2026-05-06T11:33:09.000Z</time>
      </trkpt>
      <trkpt lat="41.793159" lon="22.977058">
        <ele>1514.7</ele>
        <time>2026-05-06T11:33:10.000Z</time>
      </trkpt>
      <trkpt lat="41.793157" lon="22.977072">
        <ele>1514.7</ele>
        <time>2026-05-06T11:33:11.000Z</time>
      </trkpt>
      <trkpt lat="41.793156" lon="22.977087">
        <ele>1514.7</ele>
        <time>2026-05-06T11:33:12.000Z</time>
      </trkpt>
      <trkpt lat="41.793156" lon="22.977101">
        <ele>1514.9</ele>
        <time>2026-05-06T11:33:13.000Z</time>
      </trkpt>
      <trkpt lat="41.793156" lon="22.977115">
        <ele>1514.9</ele>
        <time>2026-05-06T11:33:14.000Z</time>
      </trkpt>
      <trkpt lat="41.793155" lon="22.977128">
        <ele>1514.9</ele>
        <time>2026-05-06T11:33:15.000Z</time>
      </trkpt>
      <trkpt lat="41.793156" lon="22.977139">
        <ele>1514.9</ele>
        <time>2026-05-06T11:33:16.000Z</time>
      </trkpt>
      <trkpt lat="41.793155" lon="22.977149">
        <ele>1514.9</ele>
        <time>2026-05-06T11:33:17.000Z</time>
      </trkpt>
      <trkpt lat="41.793154" lon="22.97716">
        <ele>1515</ele>
        <time>2026-05-06T11:33:18.000Z</time>
      </trkpt>
      <trkpt lat="41.793154" lon="22.97717">
        <ele>1515</ele>
        <time>2026-05-06T11:33:19.000Z</time>
      </trkpt>
      <trkpt lat="41.793154" lon="22.977179">
        <ele>1515</ele>
        <time>2026-05-06T11:33:20.000Z</time>
      </trkpt>
      <trkpt lat="41.793154" lon="22.977189">
        <ele>1515</ele>
        <time>2026-05-06T11:33:21.000Z</time>
      </trkpt>
      <trkpt lat="41.793155" lon="22.977201">
        <ele>1515</ele>
        <time>2026-05-06T11:33:22.000Z</time>
      </trkpt>
      <trkpt lat="41.793157" lon="22.977212">
        <ele>1515.2</ele>
        <time>2026-05-06T11:33:23.000Z</time>
      </trkpt>
      <trkpt lat="41.793158" lon="22.977225">
        <ele>1515.2</ele>
        <time>2026-05-06T11:33:24.000Z</time>
      </trkpt>
      <trkpt lat="41.793158" lon="22.977239">
        <ele>1515.2</ele>
        <time>2026-05-06T11:33:25.000Z</time>
      </trkpt>
      <trkpt lat="41.793157" lon="22.97725">
        <ele>1515.2</ele>
        <time>2026-05-06T11:33:26.000Z</time>
      </trkpt>
      <trkpt lat="41.793156" lon="22.977261">
        <ele>1515.2</ele>
        <time>2026-05-06T11:33:27.000Z</time>
      </trkpt>
      <trkpt lat="41.793153" lon="22.97727">
        <ele>1515.1</ele>
        <time>2026-05-06T11:33:28.000Z</time>
      </trkpt>
      <trkpt lat="41.79315" lon="22.977278">
        <ele>1515.1</ele>
        <time>2026-05-06T11:33:29.000Z</time>
      </trkpt>
      <trkpt lat="41.793148" lon="22.977285">
        <ele>1515.1</ele>
        <time>2026-05-06T11:33:30.000Z</time>
      </trkpt>
      <trkpt lat="41.793145" lon="22.977292">
        <ele>1515.1</ele>
        <time>2026-05-06T11:33:31.000Z</time>
      </trkpt>
      <trkpt lat="41.793142" lon="22.977298">
        <ele>1515.1</ele>
        <time>2026-05-06T11:33:32.000Z</time>
      </trkpt>
      <trkpt lat="41.79314" lon="22.977305">
        <ele>1515</ele>
        <time>2026-05-06T11:33:33.000Z</time>
      </trkpt>
      <trkpt lat="41.793138" lon="22.977311">
        <ele>1515</ele>
        <time>2026-05-06T11:33:34.000Z</time>
      </trkpt>
      <trkpt lat="41.793136" lon="22.977319">
        <ele>1515</ele>
        <time>2026-05-06T11:33:35.000Z</time>
      </trkpt>
      <trkpt lat="41.793134" lon="22.977326">
        <ele>1515</ele>
        <time>2026-05-06T11:33:36.000Z</time>
      </trkpt>
      <trkpt lat="41.793132" lon="22.977333">
        <ele>1515</ele>
        <time>2026-05-06T11:33:37.000Z</time>
      </trkpt>
      <trkpt lat="41.79313" lon="22.97734">
        <ele>1515</ele>
        <time>2026-05-06T11:33:38.000Z</time>
      </trkpt>
      <trkpt lat="41.793129" lon="22.977347">
        <ele>1515</ele>
        <time>2026-05-06T11:33:39.000Z</time>
      </trkpt>
      <trkpt lat="41.793126" lon="22.977354">
        <ele>1515</ele>
        <time>2026-05-06T11:33:40.000Z</time>
      </trkpt>
      <trkpt lat="41.793124" lon="22.97736">
        <ele>1515</ele>
        <time>2026-05-06T11:33:41.000Z</time>
      </trkpt>
      <trkpt lat="41.793121" lon="22.977366">
        <ele>1515</ele>
        <time>2026-05-06T11:33:42.000Z</time>
      </trkpt>
      <trkpt lat="41.79312" lon="22.977372">
        <ele>1515.6</ele>
        <time>2026-05-06T11:33:43.000Z</time>
      </trkpt>
      <trkpt lat="41.793118" lon="22.977379">
        <ele>1515.6</ele>
        <time>2026-05-06T11:33:44.000Z</time>
      </trkpt>
      <trkpt lat="41.793117" lon="22.977385">
        <ele>1515.6</ele>
        <time>2026-05-06T11:33:45.000Z</time>
      </trkpt>
      <trkpt lat="41.793115" lon="22.977392">
        <ele>1515.6</ele>
        <time>2026-05-06T11:33:46.000Z</time>
      </trkpt>
      <trkpt lat="41.793114" lon="22.977398">
        <ele>1515.6</ele>
        <time>2026-05-06T11:33:47.000Z</time>
      </trkpt>
      <trkpt lat="41.793113" lon="22.977405">
        <ele>1516.1</ele>
        <time>2026-05-06T11:33:48.000Z</time>
      </trkpt>
      <trkpt lat="41.793112" lon="22.977411">
        <ele>1516.1</ele>
        <time>2026-05-06T11:33:49.000Z</time>
      </trkpt>
      <trkpt lat="41.793111" lon="22.977419">
        <ele>1516.1</ele>
        <time>2026-05-06T11:33:50.000Z</time>
      </trkpt>
      <trkpt lat="41.793112" lon="22.977429">
        <ele>1516.1</ele>
        <time>2026-05-06T11:33:51.000Z</time>
      </trkpt>
      <trkpt lat="41.793111" lon="22.97744">
        <ele>1516.1</ele>
        <time>2026-05-06T11:33:52.000Z</time>
      </trkpt>
      <trkpt lat="41.793111" lon="22.977451">
        <ele>1517</ele>
        <time>2026-05-06T11:33:53.000Z</time>
      </trkpt>
      <trkpt lat="41.793111" lon="22.977464">
        <ele>1517</ele>
        <time>2026-05-06T11:33:54.000Z</time>
      </trkpt>
      <trkpt lat="41.793109" lon="22.977475">
        <ele>1517</ele>
        <time>2026-05-06T11:33:55.000Z</time>
      </trkpt>
      <trkpt lat="41.793108" lon="22.977486">
        <ele>1517</ele>
        <time>2026-05-06T11:33:56.000Z</time>
      </trkpt>
      <trkpt lat="41.793107" lon="22.977496">
        <ele>1517</ele>
        <time>2026-05-06T11:33:57.000Z</time>
      </trkpt>
      <trkpt lat="41.793106" lon="22.977507">
        <ele>1517.5</ele>
        <time>2026-05-06T11:33:58.000Z</time>
      </trkpt>
      <trkpt lat="41.793107" lon="22.977518">
        <ele>1517.5</ele>
        <time>2026-05-06T11:33:59.000Z</time>
      </trkpt>
      <trkpt lat="41.793108" lon="22.977529">
        <ele>1517.5</ele>
        <time>2026-05-06T11:34:00.000Z</time>
      </trkpt>
      <trkpt lat="41.793109" lon="22.97754">
        <ele>1517.5</ele>
        <time>2026-05-06T11:34:01.000Z</time>
      </trkpt>
      <trkpt lat="41.793108" lon="22.97755">
        <ele>1517.5</ele>
        <time>2026-05-06T11:34:02.000Z</time>
      </trkpt>
      <trkpt lat="41.793107" lon="22.977561">
        <ele>1517.6</ele>
        <time>2026-05-06T11:34:03.000Z</time>
      </trkpt>
      <trkpt lat="41.793105" lon="22.97757">
        <ele>1517.6</ele>
        <time>2026-05-06T11:34:04.000Z</time>
      </trkpt>
      <trkpt lat="41.793101" lon="22.977579">
        <ele>1517.6</ele>
        <time>2026-05-06T11:34:05.000Z</time>
      </trkpt>
      <trkpt lat="41.793098" lon="22.977587">
        <ele>1517.6</ele>
        <time>2026-05-06T11:34:06.000Z</time>
      </trkpt>
      <trkpt lat="41.793096" lon="22.977596">
        <ele>1517.6</ele>
        <time>2026-05-06T11:34:07.000Z</time>
      </trkpt>
      <trkpt lat="41.793092" lon="22.977606">
        <ele>1517.4</ele>
        <time>2026-05-06T11:34:08.000Z</time>
      </trkpt>
      <trkpt lat="41.793088" lon="22.977617">
        <ele>1517.4</ele>
        <time>2026-05-06T11:34:09.000Z</time>
      </trkpt>
      <trkpt lat="41.793084" lon="22.977627">
        <ele>1517.4</ele>
        <time>2026-05-06T11:34:10.000Z</time>
      </trkpt>
      <trkpt lat="41.793079" lon="22.977639">
        <ele>1517.4</ele>
        <time>2026-05-06T11:34:11.000Z</time>
      </trkpt>
      <trkpt lat="41.793074" lon="22.977651">
        <ele>1517.4</ele>
        <time>2026-05-06T11:34:12.000Z</time>
      </trkpt>
      <trkpt lat="41.79307" lon="22.977662">
        <ele>1517.4</ele>
        <time>2026-05-06T11:34:13.000Z</time>
      </trkpt>
      <trkpt lat="41.793064" lon="22.977671">
        <ele>1517.4</ele>
        <time>2026-05-06T11:34:14.000Z</time>
      </trkpt>
      <trkpt lat="41.793059" lon="22.977681">
        <ele>1517.4</ele>
        <time>2026-05-06T11:34:15.000Z</time>
      </trkpt>
      <trkpt lat="41.793055" lon="22.977689">
        <ele>1517.4</ele>
        <time>2026-05-06T11:34:16.000Z</time>
      </trkpt>
      <trkpt lat="41.793051" lon="22.977696">
        <ele>1517.4</ele>
        <time>2026-05-06T11:34:17.000Z</time>
      </trkpt>
      <trkpt lat="41.793047" lon="22.977702">
        <ele>1517.6</ele>
        <time>2026-05-06T11:34:18.000Z</time>
      </trkpt>
      <trkpt lat="41.793044" lon="22.977709">
        <ele>1517.6</ele>
        <time>2026-05-06T11:34:19.000Z</time>
      </trkpt>
      <trkpt lat="41.793043" lon="22.977716">
        <ele>1517.6</ele>
        <time>2026-05-06T11:34:20.000Z</time>
      </trkpt>
      <trkpt lat="41.793042" lon="22.977725">
        <ele>1517.6</ele>
        <time>2026-05-06T11:34:21.000Z</time>
      </trkpt>
      <trkpt lat="41.793041" lon="22.977734">
        <ele>1517.6</ele>
        <time>2026-05-06T11:34:22.000Z</time>
      </trkpt>
      <trkpt lat="41.79304" lon="22.977741">
        <ele>1518.2</ele>
        <time>2026-05-06T11:34:23.000Z</time>
      </trkpt>
      <trkpt lat="41.793039" lon="22.977749">
        <ele>1518.2</ele>
        <time>2026-05-06T11:34:24.000Z</time>
      </trkpt>
      <trkpt lat="41.793037" lon="22.977755">
        <ele>1518.2</ele>
        <time>2026-05-06T11:34:25.000Z</time>
      </trkpt>
      <trkpt lat="41.793034" lon="22.977759">
        <ele>1518.2</ele>
        <time>2026-05-06T11:34:26.000Z</time>
      </trkpt>
      <trkpt lat="41.793031" lon="22.977764">
        <ele>1518.2</ele>
        <time>2026-05-06T11:34:27.000Z</time>
      </trkpt>
      <trkpt lat="41.79303" lon="22.977769">
        <ele>1518.9</ele>
        <time>2026-05-06T11:34:28.000Z</time>
      </trkpt>
      <trkpt lat="41.793028" lon="22.977777">
        <ele>1518.9</ele>
        <time>2026-05-06T11:34:29.000Z</time>
      </trkpt>
      <trkpt lat="41.793025" lon="22.977786">
        <ele>1518.9</ele>
        <time>2026-05-06T11:34:30.000Z</time>
      </trkpt>
      <trkpt lat="41.793023" lon="22.977796">
        <ele>1518.9</ele>
        <time>2026-05-06T11:34:31.000Z</time>
      </trkpt>
      <trkpt lat="41.793021" lon="22.977805">
        <ele>1518.9</ele>
        <time>2026-05-06T11:34:32.000Z</time>
      </trkpt>
      <trkpt lat="41.793018" lon="22.977812">
        <ele>1519.1</ele>
        <time>2026-05-06T11:34:33.000Z</time>
      </trkpt>
      <trkpt lat="41.793016" lon="22.977818">
        <ele>1519.1</ele>
        <time>2026-05-06T11:34:34.000Z</time>
      </trkpt>
      <trkpt lat="41.793014" lon="22.977825">
        <ele>1519.1</ele>
        <time>2026-05-06T11:34:35.000Z</time>
      </trkpt>
      <trkpt lat="41.793014" lon="22.977831">
        <ele>1519.1</ele>
        <time>2026-05-06T11:34:36.000Z</time>
      </trkpt>
      <trkpt lat="41.793015" lon="22.97784">
        <ele>1519.1</ele>
        <time>2026-05-06T11:34:37.000Z</time>
      </trkpt>
      <trkpt lat="41.793016" lon="22.977851">
        <ele>1519.3</ele>
        <time>2026-05-06T11:34:38.000Z</time>
      </trkpt>
      <trkpt lat="41.793017" lon="22.977864">
        <ele>1519.3</ele>
        <time>2026-05-06T11:34:39.000Z</time>
      </trkpt>
      <trkpt lat="41.793019" lon="22.977876">
        <ele>1519.3</ele>
        <time>2026-05-06T11:34:40.000Z</time>
      </trkpt>
      <trkpt lat="41.79302" lon="22.977889">
        <ele>1519.3</ele>
        <time>2026-05-06T11:34:41.000Z</time>
      </trkpt>
      <trkpt lat="41.793019" lon="22.977902">
        <ele>1519.3</ele>
        <time>2026-05-06T11:34:42.000Z</time>
      </trkpt>
      <trkpt lat="41.793016" lon="22.977913">
        <ele>1519.4</ele>
        <time>2026-05-06T11:34:43.000Z</time>
      </trkpt>
      <trkpt lat="41.793014" lon="22.977922">
        <ele>1519.4</ele>
        <time>2026-05-06T11:34:44.000Z</time>
      </trkpt>
      <trkpt lat="41.793012" lon="22.977931">
        <ele>1519.4</ele>
        <time>2026-05-06T11:34:45.000Z</time>
      </trkpt>
      <trkpt lat="41.793009" lon="22.977939">
        <ele>1519.4</ele>
        <time>2026-05-06T11:34:46.000Z</time>
      </trkpt>
      <trkpt lat="41.793008" lon="22.977946">
        <ele>1519.4</ele>
        <time>2026-05-06T11:34:47.000Z</time>
      </trkpt>
      <trkpt lat="41.793008" lon="22.977952">
        <ele>1519.7</ele>
        <time>2026-05-06T11:34:48.000Z</time>
      </trkpt>
      <trkpt lat="41.793007" lon="22.977957">
        <ele>1519.7</ele>
        <time>2026-05-06T11:34:49.000Z</time>
      </trkpt>
      <trkpt lat="41.793006" lon="22.977959">
        <ele>1519.7</ele>
        <time>2026-05-06T11:34:50.000Z</time>
      </trkpt>
      <trkpt lat="41.793005" lon="22.977959">
        <ele>1519.7</ele>
        <time>2026-05-06T11:34:51.000Z</time>
      </trkpt>
      <trkpt lat="41.793004" lon="22.977959">
        <ele>1519.7</ele>
        <time>2026-05-06T11:34:52.000Z</time>
      </trkpt>
      <trkpt lat="41.793004" lon="22.977959">
        <ele>1520.3</ele>
        <time>2026-05-06T11:34:53.000Z</time>
      </trkpt>
      <trkpt lat="41.793003" lon="22.977959">
        <ele>1520.3</ele>
        <time>2026-05-06T11:34:54.000Z</time>
      </trkpt>
      <trkpt lat="41.793003" lon="22.977959">
        <ele>1520.3</ele>
        <time>2026-05-06T11:34:55.000Z</time>
      </trkpt>
      <trkpt lat="41.793003" lon="22.977958">
        <ele>1520.3</ele>
        <time>2026-05-06T11:34:56.000Z</time>
      </trkpt>
      <trkpt lat="41.793003" lon="22.977958">
        <ele>1520.3</ele>
        <time>2026-05-06T11:34:57.000Z</time>
      </trkpt>
      <trkpt lat="41.793003" lon="22.977957">
        <ele>1520.8</ele>
        <time>2026-05-06T11:34:58.000Z</time>
      </trkpt>
      <trkpt lat="41.793004" lon="22.977956">
        <ele>1520.8</ele>
        <time>2026-05-06T11:34:59.000Z</time>
      </trkpt>
      <trkpt lat="41.793005" lon="22.977956">
        <ele>1520.8</ele>
        <time>2026-05-06T11:35:00.000Z</time>
      </trkpt>
      <trkpt lat="41.793006" lon="22.977955">
        <ele>1520.8</ele>
        <time>2026-05-06T11:35:01.000Z</time>
      </trkpt>
      <trkpt lat="41.793008" lon="22.977955">
        <ele>1520.8</ele>
        <time>2026-05-06T11:35:02.000Z</time>
      </trkpt>
      <trkpt lat="41.793009" lon="22.977955">
        <ele>1520.8</ele>
        <time>2026-05-06T11:35:03.000Z</time>
      </trkpt>
      <trkpt lat="41.793011" lon="22.977955">
        <ele>1520.8</ele>
        <time>2026-05-06T11:35:04.000Z</time>
      </trkpt>
      <trkpt lat="41.793012" lon="22.977955">
        <ele>1520.8</ele>
        <time>2026-05-06T11:35:05.000Z</time>
      </trkpt>
      <trkpt lat="41.793012" lon="22.977955">
        <ele>1520.8</ele>
        <time>2026-05-06T11:35:06.000Z</time>
      </trkpt>
      <trkpt lat="41.793012" lon="22.977955">
        <ele>1520.8</ele>
        <time>2026-05-06T11:35:07.000Z</time>
      </trkpt>
      <trkpt lat="41.793012" lon="22.977956">
        <ele>1520.9</ele>
        <time>2026-05-06T11:35:08.000Z</time>
      </trkpt>
      <trkpt lat="41.793011" lon="22.977957">
        <ele>1520.9</ele>
        <time>2026-05-06T11:35:09.000Z</time>
      </trkpt>
      <trkpt lat="41.79301" lon="22.977959">
        <ele>1520.9</ele>
        <time>2026-05-06T11:35:10.000Z</time>
      </trkpt>
      <trkpt lat="41.79301" lon="22.977962">
        <ele>1520.9</ele>
        <time>2026-05-06T11:35:11.000Z</time>
      </trkpt>
      <trkpt lat="41.793009" lon="22.977967">
        <ele>1520.9</ele>
        <time>2026-05-06T11:35:12.000Z</time>
      </trkpt>
      <trkpt lat="41.793007" lon="22.977971">
        <ele>1520.7</ele>
        <time>2026-05-06T11:35:13.000Z</time>
      </trkpt>
      <trkpt lat="41.793007" lon="22.977976">
        <ele>1520.7</ele>
        <time>2026-05-06T11:35:14.000Z</time>
      </trkpt>
      <trkpt lat="41.793009" lon="22.977981">
        <ele>1520.7</ele>
        <time>2026-05-06T11:35:15.000Z</time>
      </trkpt>
      <trkpt lat="41.793012" lon="22.977988">
        <ele>1520.7</ele>
        <time>2026-05-06T11:35:16.000Z</time>
      </trkpt>
      <trkpt lat="41.793017" lon="22.977998">
        <ele>1520.7</ele>
        <time>2026-05-06T11:35:17.000Z</time>
      </trkpt>
      <trkpt lat="41.793022" lon="22.978007">
        <ele>1520.7</ele>
        <time>2026-05-06T11:35:18.000Z</time>
      </trkpt>
      <trkpt lat="41.793027" lon="22.97802">
        <ele>1520.7</ele>
        <time>2026-05-06T11:35:19.000Z</time>
      </trkpt>
      <trkpt lat="41.79303" lon="22.978033">
        <ele>1520.7</ele>
        <time>2026-05-06T11:35:20.000Z</time>
      </trkpt>
      <trkpt lat="41.793032" lon="22.978047">
        <ele>1520.7</ele>
        <time>2026-05-06T11:35:21.000Z</time>
      </trkpt>
      <trkpt lat="41.793033" lon="22.978059">
        <ele>1520.7</ele>
        <time>2026-05-06T11:35:22.000Z</time>
      </trkpt>
      <trkpt lat="41.793033" lon="22.978073">
        <ele>1520.7</ele>
        <time>2026-05-06T11:35:23.000Z</time>
      </trkpt>
      <trkpt lat="41.793032" lon="22.978087">
        <ele>1520.7</ele>
        <time>2026-05-06T11:35:24.000Z</time>
      </trkpt>
      <trkpt lat="41.793031" lon="22.978102">
        <ele>1520.7</ele>
        <time>2026-05-06T11:35:25.000Z</time>
      </trkpt>
      <trkpt lat="41.793028" lon="22.978115">
        <ele>1520.7</ele>
        <time>2026-05-06T11:35:26.000Z</time>
      </trkpt>
      <trkpt lat="41.793025" lon="22.978129">
        <ele>1520.7</ele>
        <time>2026-05-06T11:35:27.000Z</time>
      </trkpt>
      <trkpt lat="41.793023" lon="22.978142">
        <ele>1521</ele>
        <time>2026-05-06T11:35:28.000Z</time>
      </trkpt>
      <trkpt lat="41.793023" lon="22.978156">
        <ele>1521</ele>
        <time>2026-05-06T11:35:29.000Z</time>
      </trkpt>
      <trkpt lat="41.793023" lon="22.978169">
        <ele>1521</ele>
        <time>2026-05-06T11:35:30.000Z</time>
      </trkpt>
      <trkpt lat="41.793024" lon="22.978183">
        <ele>1521</ele>
        <time>2026-05-06T11:35:31.000Z</time>
      </trkpt>
      <trkpt lat="41.793025" lon="22.978198">
        <ele>1521</ele>
        <time>2026-05-06T11:35:32.000Z</time>
      </trkpt>
      <trkpt lat="41.793026" lon="22.978213">
        <ele>1521.3</ele>
        <time>2026-05-06T11:35:33.000Z</time>
      </trkpt>
      <trkpt lat="41.793026" lon="22.978227">
        <ele>1521.3</ele>
        <time>2026-05-06T11:35:34.000Z</time>
      </trkpt>
      <trkpt lat="41.793026" lon="22.978241">
        <ele>1521.3</ele>
        <time>2026-05-06T11:35:35.000Z</time>
      </trkpt>
      <trkpt lat="41.793028" lon="22.978257">
        <ele>1521.3</ele>
        <time>2026-05-06T11:35:36.000Z</time>
      </trkpt>
      <trkpt lat="41.793029" lon="22.97827">
        <ele>1521.3</ele>
        <time>2026-05-06T11:35:37.000Z</time>
      </trkpt>
      <trkpt lat="41.79303" lon="22.978284">
        <ele>1521.9</ele>
        <time>2026-05-06T11:35:38.000Z</time>
      </trkpt>
      <trkpt lat="41.79303" lon="22.978298">
        <ele>1521.9</ele>
        <time>2026-05-06T11:35:39.000Z</time>
      </trkpt>
      <trkpt lat="41.793029" lon="22.978312">
        <ele>1521.9</ele>
        <time>2026-05-06T11:35:40.000Z</time>
      </trkpt>
      <trkpt lat="41.793027" lon="22.978328">
        <ele>1521.9</ele>
        <time>2026-05-06T11:35:41.000Z</time>
      </trkpt>
      <trkpt lat="41.793026" lon="22.978344">
        <ele>1521.9</ele>
        <time>2026-05-06T11:35:42.000Z</time>
      </trkpt>
      <trkpt lat="41.793026" lon="22.978359">
        <ele>1522.5</ele>
        <time>2026-05-06T11:35:43.000Z</time>
      </trkpt>
      <trkpt lat="41.793029" lon="22.978375">
        <ele>1522.5</ele>
        <time>2026-05-06T11:35:44.000Z</time>
      </trkpt>
      <trkpt lat="41.793032" lon="22.978391">
        <ele>1522.5</ele>
        <time>2026-05-06T11:35:45.000Z</time>
      </trkpt>
      <trkpt lat="41.793035" lon="22.978405">
        <ele>1522.5</ele>
        <time>2026-05-06T11:35:46.000Z</time>
      </trkpt>
      <trkpt lat="41.793039" lon="22.978419">
        <ele>1522.5</ele>
        <time>2026-05-06T11:35:47.000Z</time>
      </trkpt>
      <trkpt lat="41.793044" lon="22.978432">
        <ele>1522.9</ele>
        <time>2026-05-06T11:35:48.000Z</time>
      </trkpt>
      <trkpt lat="41.793047" lon="22.978447">
        <ele>1522.9</ele>
        <time>2026-05-06T11:35:49.000Z</time>
      </trkpt>
      <trkpt lat="41.79305" lon="22.978462">
        <ele>1522.9</ele>
        <time>2026-05-06T11:35:50.000Z</time>
      </trkpt>
      <trkpt lat="41.793055" lon="22.978478">
        <ele>1522.9</ele>
        <time>2026-05-06T11:35:51.000Z</time>
      </trkpt>
      <trkpt lat="41.79306" lon="22.978494">
        <ele>1522.9</ele>
        <time>2026-05-06T11:35:52.000Z</time>
      </trkpt>
      <trkpt lat="41.793064" lon="22.978512">
        <ele>1523.6</ele>
        <time>2026-05-06T11:35:53.000Z</time>
      </trkpt>
      <trkpt lat="41.79307" lon="22.978529">
        <ele>1523.6</ele>
        <time>2026-05-06T11:35:54.000Z</time>
      </trkpt>
      <trkpt lat="41.793073" lon="22.978548">
        <ele>1523.6</ele>
        <time>2026-05-06T11:35:55.000Z</time>
      </trkpt>
      <trkpt lat="41.793075" lon="22.978566">
        <ele>1523.6</ele>
        <time>2026-05-06T11:35:56.000Z</time>
      </trkpt>
      <trkpt lat="41.793075" lon="22.978584">
        <ele>1523.6</ele>
        <time>2026-05-06T11:35:57.000Z</time>
      </trkpt>
      <trkpt lat="41.793074" lon="22.978603">
        <ele>1524.5</ele>
        <time>2026-05-06T11:35:58.000Z</time>
      </trkpt>
      <trkpt lat="41.793072" lon="22.978621">
        <ele>1524.5</ele>
        <time>2026-05-06T11:35:59.000Z</time>
      </trkpt>
      <trkpt lat="41.79307" lon="22.978637">
        <ele>1524.5</ele>
        <time>2026-05-06T11:36:00.000Z</time>
      </trkpt>
      <trkpt lat="41.793069" lon="22.978653">
        <ele>1524.5</ele>
        <time>2026-05-06T11:36:01.000Z</time>
      </trkpt>
      <trkpt lat="41.793066" lon="22.978667">
        <ele>1524.5</ele>
        <time>2026-05-06T11:36:02.000Z</time>
      </trkpt>
      <trkpt lat="41.793063" lon="22.97868">
        <ele>1525</ele>
        <time>2026-05-06T11:36:03.000Z</time>
      </trkpt>
      <trkpt lat="41.793061" lon="22.978694">
        <ele>1525</ele>
        <time>2026-05-06T11:36:04.000Z</time>
      </trkpt>
      <trkpt lat="41.793058" lon="22.978707">
        <ele>1525</ele>
        <time>2026-05-06T11:36:05.000Z</time>
      </trkpt>
      <trkpt lat="41.793054" lon="22.97872">
        <ele>1525</ele>
        <time>2026-05-06T11:36:06.000Z</time>
      </trkpt>
      <trkpt lat="41.793051" lon="22.978732">
        <ele>1525</ele>
        <time>2026-05-06T11:36:07.000Z</time>
      </trkpt>
      <trkpt lat="41.793046" lon="22.978745">
        <ele>1526</ele>
        <time>2026-05-06T11:36:08.000Z</time>
      </trkpt>
      <trkpt lat="41.793042" lon="22.978756">
        <ele>1526</ele>
        <time>2026-05-06T11:36:09.000Z</time>
      </trkpt>
      <trkpt lat="41.793039" lon="22.978767">
        <ele>1526</ele>
        <time>2026-05-06T11:36:10.000Z</time>
      </trkpt>
      <trkpt lat="41.793036" lon="22.978777">
        <ele>1526</ele>
        <time>2026-05-06T11:36:11.000Z</time>
      </trkpt>
      <trkpt lat="41.793034" lon="22.978785">
        <ele>1526</ele>
        <time>2026-05-06T11:36:12.000Z</time>
      </trkpt>
      <trkpt lat="41.793033" lon="22.978792">
        <ele>1526.8</ele>
        <time>2026-05-06T11:36:13.000Z</time>
      </trkpt>
      <trkpt lat="41.793033" lon="22.978797">
        <ele>1526.8</ele>
        <time>2026-05-06T11:36:14.000Z</time>
      </trkpt>
      <trkpt lat="41.793033" lon="22.9788">
        <ele>1526.8</ele>
        <time>2026-05-06T11:36:15.000Z</time>
      </trkpt>
      <trkpt lat="41.793033" lon="22.978802">
        <ele>1526.8</ele>
        <time>2026-05-06T11:36:16.000Z</time>
      </trkpt>
      <trkpt lat="41.793033" lon="22.978803">
        <ele>1526.8</ele>
        <time>2026-05-06T11:36:17.000Z</time>
      </trkpt>
      <trkpt lat="41.793032" lon="22.978804">
        <ele>1527.2</ele>
        <time>2026-05-06T11:36:18.000Z</time>
      </trkpt>
      <trkpt lat="41.793033" lon="22.978806">
        <ele>1527.2</ele>
        <time>2026-05-06T11:36:19.000Z</time>
      </trkpt>
      <trkpt lat="41.793033" lon="22.978806">
        <ele>1527.2</ele>
        <time>2026-05-06T11:36:20.000Z</time>
      </trkpt>
      <trkpt lat="41.793033" lon="22.978807">
        <ele>1527.2</ele>
        <time>2026-05-06T11:36:21.000Z</time>
      </trkpt>
      <trkpt lat="41.793034" lon="22.978808">
        <ele>1527.2</ele>
        <time>2026-05-06T11:36:22.000Z</time>
      </trkpt>
      <trkpt lat="41.793034" lon="22.978809">
        <ele>1528</ele>
        <time>2026-05-06T11:36:23.000Z</time>
      </trkpt>
      <trkpt lat="41.793034" lon="22.978809">
        <ele>1528</ele>
        <time>2026-05-06T11:36:24.000Z</time>
      </trkpt>
      <trkpt lat="41.793035" lon="22.97881">
        <ele>1528</ele>
        <time>2026-05-06T11:36:25.000Z</time>
      </trkpt>
      <trkpt lat="41.793037" lon="22.978812">
        <ele>1528</ele>
        <time>2026-05-06T11:36:26.000Z</time>
      </trkpt>
      <trkpt lat="41.793037" lon="22.978816">
        <ele>1528</ele>
        <time>2026-05-06T11:36:27.000Z</time>
      </trkpt>
      <trkpt lat="41.793038" lon="22.97882">
        <ele>1528.6</ele>
        <time>2026-05-06T11:36:28.000Z</time>
      </trkpt>
      <trkpt lat="41.793038" lon="22.978825">
        <ele>1528.6</ele>
        <time>2026-05-06T11:36:29.000Z</time>
      </trkpt>
      <trkpt lat="41.793038" lon="22.97883">
        <ele>1528.6</ele>
        <time>2026-05-06T11:36:30.000Z</time>
      </trkpt>
      <trkpt lat="41.793036" lon="22.978834">
        <ele>1528.6</ele>
        <time>2026-05-06T11:36:31.000Z</time>
      </trkpt>
      <trkpt lat="41.793033" lon="22.978839">
        <ele>1528.6</ele>
        <time>2026-05-06T11:36:32.000Z</time>
      </trkpt>
      <trkpt lat="41.793031" lon="22.978843">
        <ele>1528.7</ele>
        <time>2026-05-06T11:36:33.000Z</time>
      </trkpt>
      <trkpt lat="41.793028" lon="22.978848">
        <ele>1528.7</ele>
        <time>2026-05-06T11:36:34.000Z</time>
      </trkpt>
      <trkpt lat="41.793023" lon="22.978852">
        <ele>1528.7</ele>
        <time>2026-05-06T11:36:35.000Z</time>
      </trkpt>
      <trkpt lat="41.793019" lon="22.978856">
        <ele>1528.7</ele>
        <time>2026-05-06T11:36:36.000Z</time>
      </trkpt>
      <trkpt lat="41.793013" lon="22.97886">
        <ele>1528.7</ele>
        <time>2026-05-06T11:36:37.000Z</time>
      </trkpt>
      <trkpt lat="41.793007" lon="22.978865">
        <ele>1528.9</ele>
        <time>2026-05-06T11:36:38.000Z</time>
      </trkpt>
      <trkpt lat="41.793" lon="22.978871">
        <ele>1528.9</ele>
        <time>2026-05-06T11:36:39.000Z</time>
      </trkpt>
      <trkpt lat="41.792993" lon="22.978877">
        <ele>1528.9</ele>
        <time>2026-05-06T11:36:40.000Z</time>
      </trkpt>
      <trkpt lat="41.792986" lon="22.978883">
        <ele>1528.9</ele>
        <time>2026-05-06T11:36:41.000Z</time>
      </trkpt>
      <trkpt lat="41.792979" lon="22.978889">
        <ele>1528.9</ele>
        <time>2026-05-06T11:36:42.000Z</time>
      </trkpt>
      <trkpt lat="41.792972" lon="22.978895">
        <ele>1529</ele>
        <time>2026-05-06T11:36:43.000Z</time>
      </trkpt>
      <trkpt lat="41.792964" lon="22.978899">
        <ele>1529</ele>
        <time>2026-05-06T11:36:44.000Z</time>
      </trkpt>
      <trkpt lat="41.792956" lon="22.978903">
        <ele>1529</ele>
        <time>2026-05-06T11:36:45.000Z</time>
      </trkpt>
      <trkpt lat="41.792948" lon="22.978907">
        <ele>1529</ele>
        <time>2026-05-06T11:36:46.000Z</time>
      </trkpt>
      <trkpt lat="41.792942" lon="22.978909">
        <ele>1529</ele>
        <time>2026-05-06T11:36:47.000Z</time>
      </trkpt>
      <trkpt lat="41.792936" lon="22.978911">
        <ele>1529.2</ele>
        <time>2026-05-06T11:36:48.000Z</time>
      </trkpt>
      <trkpt lat="41.79293" lon="22.978915">
        <ele>1529.2</ele>
        <time>2026-05-06T11:36:49.000Z</time>
      </trkpt>
      <trkpt lat="41.792924" lon="22.978918">
        <ele>1529.2</ele>
        <time>2026-05-06T11:36:50.000Z</time>
      </trkpt>
      <trkpt lat="41.792919" lon="22.978921">
        <ele>1529.2</ele>
        <time>2026-05-06T11:36:51.000Z</time>
      </trkpt>
      <trkpt lat="41.792915" lon="22.978923">
        <ele>1529.2</ele>
        <time>2026-05-06T11:36:52.000Z</time>
      </trkpt>
      <trkpt lat="41.792912" lon="22.978925">
        <ele>1529.8</ele>
        <time>2026-05-06T11:36:53.000Z</time>
      </trkpt>
      <trkpt lat="41.79291" lon="22.978925">
        <ele>1529.8</ele>
        <time>2026-05-06T11:36:54.000Z</time>
      </trkpt>
      <trkpt lat="41.792909" lon="22.978926">
        <ele>1529.8</ele>
        <time>2026-05-06T11:36:55.000Z</time>
      </trkpt>
      <trkpt lat="41.792908" lon="22.978925">
        <ele>1529.8</ele>
        <time>2026-05-06T11:36:56.000Z</time>
      </trkpt>
      <trkpt lat="41.792907" lon="22.978926">
        <ele>1529.8</ele>
        <time>2026-05-06T11:36:57.000Z</time>
      </trkpt>
      <trkpt lat="41.792906" lon="22.978927">
        <ele>1530.5</ele>
        <time>2026-05-06T11:36:58.000Z</time>
      </trkpt>
      <trkpt lat="41.792905" lon="22.978929">
        <ele>1530.5</ele>
        <time>2026-05-06T11:36:59.000Z</time>
      </trkpt>
      <trkpt lat="41.792905" lon="22.97893">
        <ele>1530.5</ele>
        <time>2026-05-06T11:37:00.000Z</time>
      </trkpt>
      <trkpt lat="41.792904" lon="22.97893">
        <ele>1530.5</ele>
        <time>2026-05-06T11:37:01.000Z</time>
      </trkpt>
      <trkpt lat="41.792904" lon="22.978931">
        <ele>1530.5</ele>
        <time>2026-05-06T11:37:02.000Z</time>
      </trkpt>
      <trkpt lat="41.792904" lon="22.97893">
        <ele>1530.9</ele>
        <time>2026-05-06T11:37:03.000Z</time>
      </trkpt>
      <trkpt lat="41.792904" lon="22.97893">
        <ele>1530.9</ele>
        <time>2026-05-06T11:37:04.000Z</time>
      </trkpt>
      <trkpt lat="41.792904" lon="22.97893">
        <ele>1530.9</ele>
        <time>2026-05-06T11:37:05.000Z</time>
      </trkpt>
      <trkpt lat="41.792905" lon="22.97893">
        <ele>1530.9</ele>
        <time>2026-05-06T11:37:06.000Z</time>
      </trkpt>
      <trkpt lat="41.792905" lon="22.978929">
        <ele>1530.9</ele>
        <time>2026-05-06T11:37:07.000Z</time>
      </trkpt>
      <trkpt lat="41.792905" lon="22.978929">
        <ele>1531.5</ele>
        <time>2026-05-06T11:37:08.000Z</time>
      </trkpt>
      <trkpt lat="41.792905" lon="22.978929">
        <ele>1531.5</ele>
        <time>2026-05-06T11:37:09.000Z</time>
      </trkpt>
      <trkpt lat="41.792905" lon="22.978929">
        <ele>1531.5</ele>
        <time>2026-05-06T11:37:10.000Z</time>
      </trkpt>
      <trkpt lat="41.792905" lon="22.97893">
        <ele>1531.5</ele>
        <time>2026-05-06T11:37:11.000Z</time>
      </trkpt>
      <trkpt lat="41.792906" lon="22.97893">
        <ele>1531.5</ele>
        <time>2026-05-06T11:37:12.000Z</time>
      </trkpt>
      <trkpt lat="41.792906" lon="22.978929">
        <ele>1531.8</ele>
        <time>2026-05-06T11:37:13.000Z</time>
      </trkpt>
      <trkpt lat="41.792907" lon="22.97893">
        <ele>1531.8</ele>
        <time>2026-05-06T11:37:14.000Z</time>
      </trkpt>
      <trkpt lat="41.792905" lon="22.978931">
        <ele>1531.8</ele>
        <time>2026-05-06T11:37:15.000Z</time>
      </trkpt>
      <trkpt lat="41.7929" lon="22.978932">
        <ele>1531.8</ele>
        <time>2026-05-06T11:37:16.000Z</time>
      </trkpt>
      <trkpt lat="41.792893" lon="22.978933">
        <ele>1531.8</ele>
        <time>2026-05-06T11:37:17.000Z</time>
      </trkpt>
      <trkpt lat="41.792885" lon="22.978936">
        <ele>1531.8</ele>
        <time>2026-05-06T11:37:18.000Z</time>
      </trkpt>
      <trkpt lat="41.792875" lon="22.978936">
        <ele>1531.8</ele>
        <time>2026-05-06T11:37:19.000Z</time>
      </trkpt>
      <trkpt lat="41.792864" lon="22.978936">
        <ele>1531.8</ele>
        <time>2026-05-06T11:37:20.000Z</time>
      </trkpt>
      <trkpt lat="41.792854" lon="22.978935">
        <ele>1531.8</ele>
        <time>2026-05-06T11:37:21.000Z</time>
      </trkpt>
      <trkpt lat="41.792843" lon="22.978933">
        <ele>1531.8</ele>
        <time>2026-05-06T11:37:22.000Z</time>
      </trkpt>
      <trkpt lat="41.792832" lon="22.97893">
        <ele>1531.6</ele>
        <time>2026-05-06T11:37:23.000Z</time>
      </trkpt>
      <trkpt lat="41.792822" lon="22.978927">
        <ele>1531.6</ele>
        <time>2026-05-06T11:37:24.000Z</time>
      </trkpt>
      <trkpt lat="41.792812" lon="22.978924">
        <ele>1531.6</ele>
        <time>2026-05-06T11:37:25.000Z</time>
      </trkpt>
      <trkpt lat="41.792803" lon="22.978921">
        <ele>1531.6</ele>
        <time>2026-05-06T11:37:26.000Z</time>
      </trkpt>
      <trkpt lat="41.792796" lon="22.978918">
        <ele>1531.6</ele>
        <time>2026-05-06T11:37:27.000Z</time>
      </trkpt>
      <trkpt lat="41.79279" lon="22.978917">
        <ele>1531.8</ele>
        <time>2026-05-06T11:37:28.000Z</time>
      </trkpt>
      <trkpt lat="41.792787" lon="22.978915">
        <ele>1531.8</ele>
        <time>2026-05-06T11:37:29.000Z</time>
      </trkpt>
      <trkpt lat="41.792786" lon="22.978914">
        <ele>1531.8</ele>
        <time>2026-05-06T11:37:30.000Z</time>
      </trkpt>
      <trkpt lat="41.792786" lon="22.978914">
        <ele>1531.8</ele>
        <time>2026-05-06T11:37:31.000Z</time>
      </trkpt>
      <trkpt lat="41.792785" lon="22.978913">
        <ele>1531.8</ele>
        <time>2026-05-06T11:37:32.000Z</time>
      </trkpt>
      <trkpt lat="41.792785" lon="22.978912">
        <ele>1532.2</ele>
        <time>2026-05-06T11:37:33.000Z</time>
      </trkpt>
      <trkpt lat="41.792785" lon="22.978911">
        <ele>1532.2</ele>
        <time>2026-05-06T11:37:34.000Z</time>
      </trkpt>
      <trkpt lat="41.792784" lon="22.978911">
        <ele>1532.2</ele>
        <time>2026-05-06T11:37:35.000Z</time>
      </trkpt>
      <trkpt lat="41.792784" lon="22.97891">
        <ele>1532.2</ele>
        <time>2026-05-06T11:37:36.000Z</time>
      </trkpt>
      <trkpt lat="41.792783" lon="22.978909">
        <ele>1532.2</ele>
        <time>2026-05-06T11:37:37.000Z</time>
      </trkpt>
      <trkpt lat="41.792783" lon="22.978908">
        <ele>1533.2</ele>
        <time>2026-05-06T11:37:38.000Z</time>
      </trkpt>
      <trkpt lat="41.792783" lon="22.978908">
        <ele>1533.2</ele>
        <time>2026-05-06T11:37:39.000Z</time>
      </trkpt>
      <trkpt lat="41.792783" lon="22.978909">
        <ele>1533.2</ele>
        <time>2026-05-06T11:37:40.000Z</time>
      </trkpt>
      <trkpt lat="41.792783" lon="22.978909">
        <ele>1533.2</ele>
        <time>2026-05-06T11:37:41.000Z</time>
      </trkpt>
      <trkpt lat="41.792782" lon="22.978909">
        <ele>1533.2</ele>
        <time>2026-05-06T11:37:42.000Z</time>
      </trkpt>
      <trkpt lat="41.792782" lon="22.978911">
        <ele>1534</ele>
        <time>2026-05-06T11:37:43.000Z</time>
      </trkpt>
      <trkpt lat="41.792782" lon="22.978912">
        <ele>1534</ele>
        <time>2026-05-06T11:37:44.000Z</time>
      </trkpt>
      <trkpt lat="41.792782" lon="22.978915">
        <ele>1534</ele>
        <time>2026-05-06T11:37:45.000Z</time>
      </trkpt>
      <trkpt lat="41.792782" lon="22.978917">
        <ele>1534</ele>
        <time>2026-05-06T11:37:46.000Z</time>
      </trkpt>
      <trkpt lat="41.792781" lon="22.97892">
        <ele>1534</ele>
        <time>2026-05-06T11:37:47.000Z</time>
      </trkpt>
      <trkpt lat="41.792781" lon="22.978922">
        <ele>1534.2</ele>
        <time>2026-05-06T11:37:48.000Z</time>
      </trkpt>
      <trkpt lat="41.792781" lon="22.978922">
        <ele>1534.2</ele>
        <time>2026-05-06T11:37:49.000Z</time>
      </trkpt>
      <trkpt lat="41.792781" lon="22.978922">
        <ele>1534.2</ele>
        <time>2026-05-06T11:37:50.000Z</time>
      </trkpt>
      <trkpt lat="41.792781" lon="22.978922">
        <ele>1534.2</ele>
        <time>2026-05-06T11:37:51.000Z</time>
      </trkpt>
      <trkpt lat="41.79278" lon="22.978923">
        <ele>1534.2</ele>
        <time>2026-05-06T11:37:52.000Z</time>
      </trkpt>
      <trkpt lat="41.792779" lon="22.978924">
        <ele>1534.3</ele>
        <time>2026-05-06T11:37:53.000Z</time>
      </trkpt>
      <trkpt lat="41.792778" lon="22.978925">
        <ele>1534.3</ele>
        <time>2026-05-06T11:37:54.000Z</time>
      </trkpt>
      <trkpt lat="41.792778" lon="22.978926">
        <ele>1534.3</ele>
        <time>2026-05-06T11:37:55.000Z</time>
      </trkpt>
      <trkpt lat="41.792777" lon="22.978928">
        <ele>1534.3</ele>
        <time>2026-05-06T11:37:56.000Z</time>
      </trkpt>
      <trkpt lat="41.792778" lon="22.978929">
        <ele>1534.3</ele>
        <time>2026-05-06T11:37:57.000Z</time>
      </trkpt>
      <trkpt lat="41.792779" lon="22.97893">
        <ele>1534.2</ele>
        <time>2026-05-06T11:37:58.000Z</time>
      </trkpt>
      <trkpt lat="41.79278" lon="22.978931">
        <ele>1534.2</ele>
        <time>2026-05-06T11:37:59.000Z</time>
      </trkpt>
      <trkpt lat="41.792781" lon="22.978932">
        <ele>1534.2</ele>
        <time>2026-05-06T11:38:00.000Z</time>
      </trkpt>
      <trkpt lat="41.792781" lon="22.978932">
        <ele>1534.2</ele>
        <time>2026-05-06T11:38:01.000Z</time>
      </trkpt>
      <trkpt lat="41.792781" lon="22.978932">
        <ele>1534.2</ele>
        <time>2026-05-06T11:38:02.000Z</time>
      </trkpt>
      <trkpt lat="41.79278" lon="22.978933">
        <ele>1534.2</ele>
        <time>2026-05-06T11:38:03.000Z</time>
      </trkpt>
      <trkpt lat="41.79278" lon="22.978933">
        <ele>1534.2</ele>
        <time>2026-05-06T11:38:04.000Z</time>
      </trkpt>
      <trkpt lat="41.79278" lon="22.978933">
        <ele>1534.2</ele>
        <time>2026-05-06T11:38:05.000Z</time>
      </trkpt>
      <trkpt lat="41.79278" lon="22.978934">
        <ele>1534.2</ele>
        <time>2026-05-06T11:38:06.000Z</time>
      </trkpt>
      <trkpt lat="41.792781" lon="22.978934">
        <ele>1534.2</ele>
        <time>2026-05-06T11:38:07.000Z</time>
      </trkpt>
      <trkpt lat="41.79278" lon="22.978934">
        <ele>1534.2</ele>
        <time>2026-05-06T11:38:08.000Z</time>
      </trkpt>
      <trkpt lat="41.792777" lon="22.978933">
        <ele>1534.2</ele>
        <time>2026-05-06T11:38:09.000Z</time>
      </trkpt>
      <trkpt lat="41.792773" lon="22.978932">
        <ele>1534.2</ele>
        <time>2026-05-06T11:38:10.000Z</time>
      </trkpt>
      <trkpt lat="41.792769" lon="22.978929">
        <ele>1534.2</ele>
        <time>2026-05-06T11:38:11.000Z</time>
      </trkpt>
      <trkpt lat="41.792763" lon="22.978926">
        <ele>1534.2</ele>
        <time>2026-05-06T11:38:12.000Z</time>
      </trkpt>
      <trkpt lat="41.792757" lon="22.978923">
        <ele>1534.1</ele>
        <time>2026-05-06T11:38:13.000Z</time>
      </trkpt>
      <trkpt lat="41.792751" lon="22.978921">
        <ele>1534.1</ele>
        <time>2026-05-06T11:38:14.000Z</time>
      </trkpt>
      <trkpt lat="41.792745" lon="22.97892">
        <ele>1534.1</ele>
        <time>2026-05-06T11:38:15.000Z</time>
      </trkpt>
      <trkpt lat="41.792739" lon="22.978919">
        <ele>1534.1</ele>
        <time>2026-05-06T11:38:16.000Z</time>
      </trkpt>
      <trkpt lat="41.792732" lon="22.978917">
        <ele>1534.1</ele>
        <time>2026-05-06T11:38:17.000Z</time>
      </trkpt>
      <trkpt lat="41.792725" lon="22.978915">
        <ele>1534.1</ele>
        <time>2026-05-06T11:38:18.000Z</time>
      </trkpt>
      <trkpt lat="41.792718" lon="22.978913">
        <ele>1534.1</ele>
        <time>2026-05-06T11:38:19.000Z</time>
      </trkpt>
      <trkpt lat="41.79271" lon="22.978912">
        <ele>1534.1</ele>
        <time>2026-05-06T11:38:20.000Z</time>
      </trkpt>
      <trkpt lat="41.792702" lon="22.97891">
        <ele>1534.1</ele>
        <time>2026-05-06T11:38:21.000Z</time>
      </trkpt>
      <trkpt lat="41.792696" lon="22.978909">
        <ele>1534.1</ele>
        <time>2026-05-06T11:38:22.000Z</time>
      </trkpt>
      <trkpt lat="41.792692" lon="22.978909">
        <ele>1534.6</ele>
        <time>2026-05-06T11:38:23.000Z</time>
      </trkpt>
      <trkpt lat="41.79269" lon="22.978909">
        <ele>1534.6</ele>
        <time>2026-05-06T11:38:24.000Z</time>
      </trkpt>
      <trkpt lat="41.792689" lon="22.978908">
        <ele>1534.6</ele>
        <time>2026-05-06T11:38:25.000Z</time>
      </trkpt>
      <trkpt lat="41.79269" lon="22.978909">
        <ele>1534.6</ele>
        <time>2026-05-06T11:38:26.000Z</time>
      </trkpt>
      <trkpt lat="41.79269" lon="22.97891">
        <ele>1534.6</ele>
        <time>2026-05-06T11:38:27.000Z</time>
      </trkpt>
      <trkpt lat="41.792691" lon="22.978911">
        <ele>1535.5</ele>
        <time>2026-05-06T11:38:28.000Z</time>
      </trkpt>
      <trkpt lat="41.792691" lon="22.978911">
        <ele>1535.5</ele>
        <time>2026-05-06T11:38:29.000Z</time>
      </trkpt>
      <trkpt lat="41.792692" lon="22.978912">
        <ele>1535.5</ele>
        <time>2026-05-06T11:38:30.000Z</time>
      </trkpt>
      <trkpt lat="41.792692" lon="22.978912">
        <ele>1535.5</ele>
        <time>2026-05-06T11:38:31.000Z</time>
      </trkpt>
      <trkpt lat="41.792692" lon="22.978911">
        <ele>1535.5</ele>
        <time>2026-05-06T11:38:32.000Z</time>
      </trkpt>
      <trkpt lat="41.792691" lon="22.978911">
        <ele>1535.9</ele>
        <time>2026-05-06T11:38:33.000Z</time>
      </trkpt>
      <trkpt lat="41.79269" lon="22.978907">
        <ele>1535.9</ele>
        <time>2026-05-06T11:38:34.000Z</time>
      </trkpt>
      <trkpt lat="41.792687" lon="22.978902">
        <ele>1535.9</ele>
        <time>2026-05-06T11:38:35.000Z</time>
      </trkpt>
      <trkpt lat="41.792684" lon="22.978897">
        <ele>1535.9</ele>
        <time>2026-05-06T11:38:36.000Z</time>
      </trkpt>
      <trkpt lat="41.792678" lon="22.978892">
        <ele>1535.9</ele>
        <time>2026-05-06T11:38:37.000Z</time>
      </trkpt>
      <trkpt lat="41.792671" lon="22.978886">
        <ele>1536.5</ele>
        <time>2026-05-06T11:38:38.000Z</time>
      </trkpt>
      <trkpt lat="41.792665" lon="22.978882">
        <ele>1536.5</ele>
        <time>2026-05-06T11:38:39.000Z</time>
      </trkpt>
      <trkpt lat="41.792658" lon="22.978878">
        <ele>1536.5</ele>
        <time>2026-05-06T11:38:40.000Z</time>
      </trkpt>
      <trkpt lat="41.79265" lon="22.978873">
        <ele>1536.5</ele>
        <time>2026-05-06T11:38:41.000Z</time>
      </trkpt>
      <trkpt lat="41.792643" lon="22.978867">
        <ele>1536.5</ele>
        <time>2026-05-06T11:38:42.000Z</time>
      </trkpt>
      <trkpt lat="41.792637" lon="22.97886">
        <ele>1536.7</ele>
        <time>2026-05-06T11:38:43.000Z</time>
      </trkpt>
      <trkpt lat="41.792631" lon="22.978853">
        <ele>1536.7</ele>
        <time>2026-05-06T11:38:44.000Z</time>
      </trkpt>
      <trkpt lat="41.792625" lon="22.978848">
        <ele>1536.7</ele>
        <time>2026-05-06T11:38:45.000Z</time>
      </trkpt>
      <trkpt lat="41.792619" lon="22.978845">
        <ele>1536.7</ele>
        <time>2026-05-06T11:38:46.000Z</time>
      </trkpt>
      <trkpt lat="41.792613" lon="22.978842">
        <ele>1536.7</ele>
        <time>2026-05-06T11:38:47.000Z</time>
      </trkpt>
      <trkpt lat="41.792607" lon="22.978841">
        <ele>1536.9</ele>
        <time>2026-05-06T11:38:48.000Z</time>
      </trkpt>
      <trkpt lat="41.792601" lon="22.978839">
        <ele>1536.9</ele>
        <time>2026-05-06T11:38:49.000Z</time>
      </trkpt>
      <trkpt lat="41.792596" lon="22.978836">
        <ele>1536.9</ele>
        <time>2026-05-06T11:38:50.000Z</time>
      </trkpt>
      <trkpt lat="41.792592" lon="22.97883">
        <ele>1536.9</ele>
        <time>2026-05-06T11:38:51.000Z</time>
      </trkpt>
      <trkpt lat="41.792588" lon="22.978824">
        <ele>1536.9</ele>
        <time>2026-05-06T11:38:52.000Z</time>
      </trkpt>
      <trkpt lat="41.792584" lon="22.978816">
        <ele>1537.9</ele>
        <time>2026-05-06T11:38:53.000Z</time>
      </trkpt>
      <trkpt lat="41.792579" lon="22.978807">
        <ele>1537.9</ele>
        <time>2026-05-06T11:38:54.000Z</time>
      </trkpt>
      <trkpt lat="41.792575" lon="22.9788">
        <ele>1537.9</ele>
        <time>2026-05-06T11:38:55.000Z</time>
      </trkpt>
      <trkpt lat="41.792569" lon="22.978795">
        <ele>1537.9</ele>
        <time>2026-05-06T11:38:56.000Z</time>
      </trkpt>
      <trkpt lat="41.792565" lon="22.978791">
        <ele>1537.9</ele>
        <time>2026-05-06T11:38:57.000Z</time>
      </trkpt>
      <trkpt lat="41.79256" lon="22.978789">
        <ele>1539.1</ele>
        <time>2026-05-06T11:38:58.000Z</time>
      </trkpt>
      <trkpt lat="41.792556" lon="22.978787">
        <ele>1539.1</ele>
        <time>2026-05-06T11:38:59.000Z</time>
      </trkpt>
      <trkpt lat="41.792552" lon="22.978785">
        <ele>1539.1</ele>
        <time>2026-05-06T11:39:00.000Z</time>
      </trkpt>
      <trkpt lat="41.792548" lon="22.978782">
        <ele>1539.1</ele>
        <time>2026-05-06T11:39:01.000Z</time>
      </trkpt>
      <trkpt lat="41.792544" lon="22.978779">
        <ele>1539.1</ele>
        <time>2026-05-06T11:39:02.000Z</time>
      </trkpt>
      <trkpt lat="41.792541" lon="22.978777">
        <ele>1539.8</ele>
        <time>2026-05-06T11:39:03.000Z</time>
      </trkpt>
      <trkpt lat="41.792537" lon="22.978775">
        <ele>1539.8</ele>
        <time>2026-05-06T11:39:04.000Z</time>
      </trkpt>
      <trkpt lat="41.792535" lon="22.978773">
        <ele>1539.8</ele>
        <time>2026-05-06T11:39:05.000Z</time>
      </trkpt>
      <trkpt lat="41.792533" lon="22.978771">
        <ele>1539.8</ele>
        <time>2026-05-06T11:39:06.000Z</time>
      </trkpt>
      <trkpt lat="41.792533" lon="22.97877">
        <ele>1539.8</ele>
        <time>2026-05-06T11:39:07.000Z</time>
      </trkpt>
      <trkpt lat="41.792532" lon="22.978769">
        <ele>1541</ele>
        <time>2026-05-06T11:39:08.000Z</time>
      </trkpt>
      <trkpt lat="41.792531" lon="22.978768">
        <ele>1541</ele>
        <time>2026-05-06T11:39:09.000Z</time>
      </trkpt>
      <trkpt lat="41.792532" lon="22.978768">
        <ele>1541</ele>
        <time>2026-05-06T11:39:10.000Z</time>
      </trkpt>
      <trkpt lat="41.792532" lon="22.978768">
        <ele>1541</ele>
        <time>2026-05-06T11:39:11.000Z</time>
      </trkpt>
      <trkpt lat="41.792531" lon="22.978768">
        <ele>1541</ele>
        <time>2026-05-06T11:39:12.000Z</time>
      </trkpt>
      <trkpt lat="41.792531" lon="22.978769">
        <ele>1541.9</ele>
        <time>2026-05-06T11:39:13.000Z</time>
      </trkpt>
      <trkpt lat="41.792531" lon="22.978769">
        <ele>1541.9</ele>
        <time>2026-05-06T11:39:14.000Z</time>
      </trkpt>
      <trkpt lat="41.792531" lon="22.978769">
        <ele>1541.9</ele>
        <time>2026-05-06T11:39:15.000Z</time>
      </trkpt>
      <trkpt lat="41.79253" lon="22.978769">
        <ele>1541.9</ele>
        <time>2026-05-06T11:39:16.000Z</time>
      </trkpt>
      <trkpt lat="41.792529" lon="22.978767">
        <ele>1541.9</ele>
        <time>2026-05-06T11:39:17.000Z</time>
      </trkpt>
      <trkpt lat="41.792528" lon="22.978765">
        <ele>1542.2</ele>
        <time>2026-05-06T11:39:18.000Z</time>
      </trkpt>
      <trkpt lat="41.792527" lon="22.978764">
        <ele>1542.2</ele>
        <time>2026-05-06T11:39:19.000Z</time>
      </trkpt>
      <trkpt lat="41.792526" lon="22.978762">
        <ele>1542.2</ele>
        <time>2026-05-06T11:39:20.000Z</time>
      </trkpt>
      <trkpt lat="41.792525" lon="22.97876">
        <ele>1542.2</ele>
        <time>2026-05-06T11:39:21.000Z</time>
      </trkpt>
      <trkpt lat="41.792526" lon="22.978761">
        <ele>1542.2</ele>
        <time>2026-05-06T11:39:22.000Z</time>
      </trkpt>
      <trkpt lat="41.792526" lon="22.978762">
        <ele>1542.3</ele>
        <time>2026-05-06T11:39:23.000Z</time>
      </trkpt>
      <trkpt lat="41.792526" lon="22.978763">
        <ele>1542.3</ele>
        <time>2026-05-06T11:39:24.000Z</time>
      </trkpt>
      <trkpt lat="41.792527" lon="22.978765">
        <ele>1542.3</ele>
        <time>2026-05-06T11:39:25.000Z</time>
      </trkpt>
      <trkpt lat="41.792527" lon="22.978766">
        <ele>1542.3</ele>
        <time>2026-05-06T11:39:26.000Z</time>
      </trkpt>
      <trkpt lat="41.792528" lon="22.978767">
        <ele>1542.3</ele>
        <time>2026-05-06T11:39:27.000Z</time>
      </trkpt>
      <trkpt lat="41.792531" lon="22.978766">
        <ele>1542.5</ele>
        <time>2026-05-06T11:39:28.000Z</time>
      </trkpt>
      <trkpt lat="41.792534" lon="22.978763">
        <ele>1542.5</ele>
        <time>2026-05-06T11:39:29.000Z</time>
      </trkpt>
      <trkpt lat="41.792539" lon="22.97876">
        <ele>1542.5</ele>
        <time>2026-05-06T11:39:30.000Z</time>
      </trkpt>
      <trkpt lat="41.792545" lon="22.978755">
        <ele>1542.5</ele>
        <time>2026-05-06T11:39:31.000Z</time>
      </trkpt>
      <trkpt lat="41.792551" lon="22.97875">
        <ele>1542.5</ele>
        <time>2026-05-06T11:39:32.000Z</time>
      </trkpt>
      <trkpt lat="41.792557" lon="22.978745">
        <ele>1542.7</ele>
        <time>2026-05-06T11:39:33.000Z</time>
      </trkpt>
      <trkpt lat="41.792563" lon="22.978739">
        <ele>1542.7</ele>
        <time>2026-05-06T11:39:34.000Z</time>
      </trkpt>
      <trkpt lat="41.792569" lon="22.978732">
        <ele>1542.7</ele>
        <time>2026-05-06T11:39:35.000Z</time>
      </trkpt>
      <trkpt lat="41.792574" lon="22.978724">
        <ele>1542.7</ele>
        <time>2026-05-06T11:39:36.000Z</time>
      </trkpt>
      <trkpt lat="41.792579" lon="22.978717">
        <ele>1542.7</ele>
        <time>2026-05-06T11:39:37.000Z</time>
      </trkpt>
      <trkpt lat="41.792583" lon="22.97871">
        <ele>1543.3</ele>
        <time>2026-05-06T11:39:38.000Z</time>
      </trkpt>
      <trkpt lat="41.792587" lon="22.978703">
        <ele>1543.3</ele>
        <time>2026-05-06T11:39:39.000Z</time>
      </trkpt>
      <trkpt lat="41.792591" lon="22.978696">
        <ele>1543.3</ele>
        <time>2026-05-06T11:39:40.000Z</time>
      </trkpt>
      <trkpt lat="41.792594" lon="22.978689">
        <ele>1543.3</ele>
        <time>2026-05-06T11:39:41.000Z</time>
      </trkpt>
      <trkpt lat="41.792598" lon="22.978681">
        <ele>1543.3</ele>
        <time>2026-05-06T11:39:42.000Z</time>
      </trkpt>
      <trkpt lat="41.792602" lon="22.978673">
        <ele>1543.5</ele>
        <time>2026-05-06T11:39:43.000Z</time>
      </trkpt>
      <trkpt lat="41.792605" lon="22.978664">
        <ele>1543.5</ele>
        <time>2026-05-06T11:39:44.000Z</time>
      </trkpt>
      <trkpt lat="41.792607" lon="22.978654">
        <ele>1543.5</ele>
        <time>2026-05-06T11:39:45.000Z</time>
      </trkpt>
      <trkpt lat="41.792608" lon="22.978643">
        <ele>1543.5</ele>
        <time>2026-05-06T11:39:46.000Z</time>
      </trkpt>
      <trkpt lat="41.792608" lon="22.978632">
        <ele>1543.5</ele>
        <time>2026-05-06T11:39:47.000Z</time>
      </trkpt>
      <trkpt lat="41.792609" lon="22.978621">
        <ele>1543.8</ele>
        <time>2026-05-06T11:39:48.000Z</time>
      </trkpt>
      <trkpt lat="41.792609" lon="22.978611">
        <ele>1543.8</ele>
        <time>2026-05-06T11:39:49.000Z</time>
      </trkpt>
      <trkpt lat="41.792609" lon="22.978601">
        <ele>1543.8</ele>
        <time>2026-05-06T11:39:50.000Z</time>
      </trkpt>
      <trkpt lat="41.792609" lon="22.978592">
        <ele>1543.8</ele>
        <time>2026-05-06T11:39:51.000Z</time>
      </trkpt>
      <trkpt lat="41.79261" lon="22.978583">
        <ele>1543.8</ele>
        <time>2026-05-06T11:39:52.000Z</time>
      </trkpt>
      <trkpt lat="41.792611" lon="22.978575">
        <ele>1544.7</ele>
        <time>2026-05-06T11:39:53.000Z</time>
      </trkpt>
      <trkpt lat="41.792611" lon="22.978568">
        <ele>1544.7</ele>
        <time>2026-05-06T11:39:54.000Z</time>
      </trkpt>
      <trkpt lat="41.792612" lon="22.97856">
        <ele>1544.7</ele>
        <time>2026-05-06T11:39:55.000Z</time>
      </trkpt>
      <trkpt lat="41.792611" lon="22.978551">
        <ele>1544.7</ele>
        <time>2026-05-06T11:39:56.000Z</time>
      </trkpt>
      <trkpt lat="41.79261" lon="22.978541">
        <ele>1544.7</ele>
        <time>2026-05-06T11:39:57.000Z</time>
      </trkpt>
      <trkpt lat="41.792609" lon="22.978529">
        <ele>1545.6</ele>
        <time>2026-05-06T11:39:58.000Z</time>
      </trkpt>
      <trkpt lat="41.792608" lon="22.978518">
        <ele>1545.6</ele>
        <time>2026-05-06T11:39:59.000Z</time>
      </trkpt>
      <trkpt lat="41.792607" lon="22.978508">
        <ele>1545.6</ele>
        <time>2026-05-06T11:40:00.000Z</time>
      </trkpt>
      <trkpt lat="41.792607" lon="22.978498">
        <ele>1545.6</ele>
        <time>2026-05-06T11:40:01.000Z</time>
      </trkpt>
      <trkpt lat="41.792608" lon="22.978488">
        <ele>1545.6</ele>
        <time>2026-05-06T11:40:02.000Z</time>
      </trkpt>
      <trkpt lat="41.792609" lon="22.978479">
        <ele>1546</ele>
        <time>2026-05-06T11:40:03.000Z</time>
      </trkpt>
      <trkpt lat="41.79261" lon="22.97847">
        <ele>1546</ele>
        <time>2026-05-06T11:40:04.000Z</time>
      </trkpt>
      <trkpt lat="41.792612" lon="22.978461">
        <ele>1546</ele>
        <time>2026-05-06T11:40:05.000Z</time>
      </trkpt>
      <trkpt lat="41.792613" lon="22.978451">
        <ele>1546</ele>
        <time>2026-05-06T11:40:06.000Z</time>
      </trkpt>
      <trkpt lat="41.792613" lon="22.978441">
        <ele>1546</ele>
        <time>2026-05-06T11:40:07.000Z</time>
      </trkpt>
      <trkpt lat="41.792613" lon="22.978431">
        <ele>1547</ele>
        <time>2026-05-06T11:40:08.000Z</time>
      </trkpt>
      <trkpt lat="41.792611" lon="22.97842">
        <ele>1547</ele>
        <time>2026-05-06T11:40:09.000Z</time>
      </trkpt>
      <trkpt lat="41.792608" lon="22.978408">
        <ele>1547</ele>
        <time>2026-05-06T11:40:10.000Z</time>
      </trkpt>
      <trkpt lat="41.792604" lon="22.978397">
        <ele>1547</ele>
        <time>2026-05-06T11:40:11.000Z</time>
      </trkpt>
      <trkpt lat="41.7926" lon="22.978385">
        <ele>1547</ele>
        <time>2026-05-06T11:40:12.000Z</time>
      </trkpt>
      <trkpt lat="41.792597" lon="22.978374">
        <ele>1548.1</ele>
        <time>2026-05-06T11:40:13.000Z</time>
      </trkpt>
      <trkpt lat="41.792597" lon="22.978363">
        <ele>1548.1</ele>
        <time>2026-05-06T11:40:14.000Z</time>
      </trkpt>
      <trkpt lat="41.792597" lon="22.978352">
        <ele>1548.1</ele>
        <time>2026-05-06T11:40:15.000Z</time>
      </trkpt>
      <trkpt lat="41.792598" lon="22.978341">
        <ele>1548.1</ele>
        <time>2026-05-06T11:40:16.000Z</time>
      </trkpt>
      <trkpt lat="41.7926" lon="22.978331">
        <ele>1548.1</ele>
        <time>2026-05-06T11:40:17.000Z</time>
      </trkpt>
      <trkpt lat="41.7926" lon="22.978322">
        <ele>1548.6</ele>
        <time>2026-05-06T11:40:18.000Z</time>
      </trkpt>
      <trkpt lat="41.792601" lon="22.978314">
        <ele>1548.6</ele>
        <time>2026-05-06T11:40:19.000Z</time>
      </trkpt>
      <trkpt lat="41.792602" lon="22.978309">
        <ele>1548.6</ele>
        <time>2026-05-06T11:40:20.000Z</time>
      </trkpt>
      <trkpt lat="41.792604" lon="22.978306">
        <ele>1548.6</ele>
        <time>2026-05-06T11:40:21.000Z</time>
      </trkpt>
      <trkpt lat="41.792605" lon="22.978304">
        <ele>1548.6</ele>
        <time>2026-05-06T11:40:22.000Z</time>
      </trkpt>
      <trkpt lat="41.792608" lon="22.978303">
        <ele>1549.6</ele>
        <time>2026-05-06T11:40:23.000Z</time>
      </trkpt>
      <trkpt lat="41.792609" lon="22.978303">
        <ele>1549.6</ele>
        <time>2026-05-06T11:40:24.000Z</time>
      </trkpt>
      <trkpt lat="41.792611" lon="22.978302">
        <ele>1549.6</ele>
        <time>2026-05-06T11:40:25.000Z</time>
      </trkpt>
      <trkpt lat="41.79261" lon="22.978302">
        <ele>1549.6</ele>
        <time>2026-05-06T11:40:26.000Z</time>
      </trkpt>
      <trkpt lat="41.79261" lon="22.978301">
        <ele>1549.6</ele>
        <time>2026-05-06T11:40:27.000Z</time>
      </trkpt>
      <trkpt lat="41.792608" lon="22.978299">
        <ele>1550.4</ele>
        <time>2026-05-06T11:40:28.000Z</time>
      </trkpt>
      <trkpt lat="41.792606" lon="22.978298">
        <ele>1550.4</ele>
        <time>2026-05-06T11:40:29.000Z</time>
      </trkpt>
      <trkpt lat="41.792604" lon="22.978296">
        <ele>1550.4</ele>
        <time>2026-05-06T11:40:30.000Z</time>
      </trkpt>
      <trkpt lat="41.792602" lon="22.978295">
        <ele>1550.4</ele>
        <time>2026-05-06T11:40:31.000Z</time>
      </trkpt>
      <trkpt lat="41.792601" lon="22.978294">
        <ele>1550.4</ele>
        <time>2026-05-06T11:40:32.000Z</time>
      </trkpt>
      <trkpt lat="41.792601" lon="22.978293">
        <ele>1550.7</ele>
        <time>2026-05-06T11:40:33.000Z</time>
      </trkpt>
      <trkpt lat="41.792603" lon="22.97829">
        <ele>1550.7</ele>
        <time>2026-05-06T11:40:34.000Z</time>
      </trkpt>
      <trkpt lat="41.792606" lon="22.978286">
        <ele>1550.7</ele>
        <time>2026-05-06T11:40:35.000Z</time>
      </trkpt>
      <trkpt lat="41.792609" lon="22.97828">
        <ele>1550.7</ele>
        <time>2026-05-06T11:40:36.000Z</time>
      </trkpt>
      <trkpt lat="41.792611" lon="22.978275">
        <ele>1550.7</ele>
        <time>2026-05-06T11:40:37.000Z</time>
      </trkpt>
      <trkpt lat="41.792612" lon="22.978269">
        <ele>1551.2</ele>
        <time>2026-05-06T11:40:38.000Z</time>
      </trkpt>
      <trkpt lat="41.79261" lon="22.978265">
        <ele>1551.2</ele>
        <time>2026-05-06T11:40:39.000Z</time>
      </trkpt>
      <trkpt lat="41.792608" lon="22.978262">
        <ele>1551.2</ele>
        <time>2026-05-06T11:40:40.000Z</time>
      </trkpt>
      <trkpt lat="41.792605" lon="22.97826">
        <ele>1551.2</ele>
        <time>2026-05-06T11:40:41.000Z</time>
      </trkpt>
      <trkpt lat="41.792603" lon="22.978257">
        <ele>1551.2</ele>
        <time>2026-05-06T11:40:42.000Z</time>
      </trkpt>
      <trkpt lat="41.792601" lon="22.978256">
        <ele>1551.6</ele>
        <time>2026-05-06T11:40:43.000Z</time>
      </trkpt>
      <trkpt lat="41.792599" lon="22.978254">
        <ele>1551.6</ele>
        <time>2026-05-06T11:40:44.000Z</time>
      </trkpt>
      <trkpt lat="41.792598" lon="22.978253">
        <ele>1551.6</ele>
        <time>2026-05-06T11:40:45.000Z</time>
      </trkpt>
      <trkpt lat="41.792598" lon="22.978254">
        <ele>1551.6</ele>
        <time>2026-05-06T11:40:46.000Z</time>
      </trkpt>
      <trkpt lat="41.792597" lon="22.978254">
        <ele>1551.6</ele>
        <time>2026-05-06T11:40:47.000Z</time>
      </trkpt>
      <trkpt lat="41.792596" lon="22.978255">
        <ele>1551.8</ele>
        <time>2026-05-06T11:40:48.000Z</time>
      </trkpt>
      <trkpt lat="41.792596" lon="22.978256">
        <ele>1551.8</ele>
        <time>2026-05-06T11:40:49.000Z</time>
      </trkpt>
      <trkpt lat="41.792596" lon="22.978257">
        <ele>1551.8</ele>
        <time>2026-05-06T11:40:50.000Z</time>
      </trkpt>
      <trkpt lat="41.792595" lon="22.978257">
        <ele>1551.8</ele>
        <time>2026-05-06T11:40:51.000Z</time>
      </trkpt>
      <trkpt lat="41.792595" lon="22.978257">
        <ele>1551.8</ele>
        <time>2026-05-06T11:40:52.000Z</time>
      </trkpt>
      <trkpt lat="41.792595" lon="22.978257">
        <ele>1552.1</ele>
        <time>2026-05-06T11:40:53.000Z</time>
      </trkpt>
      <trkpt lat="41.792595" lon="22.978257">
        <ele>1552.1</ele>
        <time>2026-05-06T11:40:54.000Z</time>
      </trkpt>
      <trkpt lat="41.792595" lon="22.978257">
        <ele>1552.1</ele>
        <time>2026-05-06T11:40:55.000Z</time>
      </trkpt>
      <trkpt lat="41.792595" lon="22.978257">
        <ele>1552.1</ele>
        <time>2026-05-06T11:40:56.000Z</time>
      </trkpt>
      <trkpt lat="41.792595" lon="22.978257">
        <ele>1552.1</ele>
        <time>2026-05-06T11:40:57.000Z</time>
      </trkpt>
      <trkpt lat="41.792595" lon="22.978257">
        <ele>1552.2</ele>
        <time>2026-05-06T11:40:58.000Z</time>
      </trkpt>
      <trkpt lat="41.792595" lon="22.978257">
        <ele>1552.2</ele>
        <time>2026-05-06T11:40:59.000Z</time>
      </trkpt>
      <trkpt lat="41.792595" lon="22.978256">
        <ele>1552.2</ele>
        <time>2026-05-06T11:41:00.000Z</time>
      </trkpt>
      <trkpt lat="41.792595" lon="22.978256">
        <ele>1552.2</ele>
        <time>2026-05-06T11:41:01.000Z</time>
      </trkpt>
      <trkpt lat="41.792594" lon="22.978256">
        <ele>1552.2</ele>
        <time>2026-05-06T11:41:02.000Z</time>
      </trkpt>
      <trkpt lat="41.792594" lon="22.978256">
        <ele>1552.2</ele>
        <time>2026-05-06T11:41:03.000Z</time>
      </trkpt>
      <trkpt lat="41.792593" lon="22.978257">
        <ele>1552.2</ele>
        <time>2026-05-06T11:41:04.000Z</time>
      </trkpt>
      <trkpt lat="41.792593" lon="22.978257">
        <ele>1552.2</ele>
        <time>2026-05-06T11:41:05.000Z</time>
      </trkpt>
      <trkpt lat="41.792593" lon="22.978257">
        <ele>1552.2</ele>
        <time>2026-05-06T11:41:06.000Z</time>
      </trkpt>
      <trkpt lat="41.792593" lon="22.978258">
        <ele>1552.2</ele>
        <time>2026-05-06T11:41:07.000Z</time>
      </trkpt>
      <trkpt lat="41.792594" lon="22.978258">
        <ele>1552.2</ele>
        <time>2026-05-06T11:41:08.000Z</time>
      </trkpt>
      <trkpt lat="41.792595" lon="22.978258">
        <ele>1552.2</ele>
        <time>2026-05-06T11:41:09.000Z</time>
      </trkpt>
      <trkpt lat="41.792596" lon="22.978258">
        <ele>1552.2</ele>
        <time>2026-05-06T11:41:10.000Z</time>
      </trkpt>
      <trkpt lat="41.792596" lon="22.978258">
        <ele>1552.2</ele>
        <time>2026-05-06T11:41:11.000Z</time>
      </trkpt>
      <trkpt lat="41.792594" lon="22.978258">
        <ele>1552.2</ele>
        <time>2026-05-06T11:41:12.000Z</time>
      </trkpt>
      <trkpt lat="41.792592" lon="22.978258">
        <ele>1552.3</ele>
        <time>2026-05-06T11:41:13.000Z</time>
      </trkpt>
      <trkpt lat="41.79259" lon="22.978257">
        <ele>1552.3</ele>
        <time>2026-05-06T11:41:14.000Z</time>
      </trkpt>
      <trkpt lat="41.792588" lon="22.978257">
        <ele>1552.3</ele>
        <time>2026-05-06T11:41:15.000Z</time>
      </trkpt>
      <trkpt lat="41.792587" lon="22.978257">
        <ele>1552.3</ele>
        <time>2026-05-06T11:41:16.000Z</time>
      </trkpt>
      <trkpt lat="41.792588" lon="22.978257">
        <ele>1552.3</ele>
        <time>2026-05-06T11:41:17.000Z</time>
      </trkpt>
      <trkpt lat="41.792588" lon="22.978256">
        <ele>1552.3</ele>
        <time>2026-05-06T11:41:18.000Z</time>
      </trkpt>
      <trkpt lat="41.792588" lon="22.978257">
        <ele>1552.3</ele>
        <time>2026-05-06T11:41:19.000Z</time>
      </trkpt>
      <trkpt lat="41.792589" lon="22.978259">
        <ele>1552.3</ele>
        <time>2026-05-06T11:41:20.000Z</time>
      </trkpt>
      <trkpt lat="41.792589" lon="22.97826">
        <ele>1552.3</ele>
        <time>2026-05-06T11:41:21.000Z</time>
      </trkpt>
      <trkpt lat="41.792589" lon="22.978262">
        <ele>1552.3</ele>
        <time>2026-05-06T11:41:22.000Z</time>
      </trkpt>
      <trkpt lat="41.792589" lon="22.978264">
        <ele>1552.4</ele>
        <time>2026-05-06T11:41:23.000Z</time>
      </trkpt>
      <trkpt lat="41.792589" lon="22.978264">
        <ele>1552.4</ele>
        <time>2026-05-06T11:41:24.000Z</time>
      </trkpt>
      <trkpt lat="41.792588" lon="22.978264">
        <ele>1552.4</ele>
        <time>2026-05-06T11:41:25.000Z</time>
      </trkpt>
      <trkpt lat="41.792587" lon="22.978265">
        <ele>1552.4</ele>
        <time>2026-05-06T11:41:26.000Z</time>
      </trkpt>
      <trkpt lat="41.792586" lon="22.978265">
        <ele>1552.4</ele>
        <time>2026-05-06T11:41:27.000Z</time>
      </trkpt>
      <trkpt lat="41.792586" lon="22.978265">
        <ele>1552.5</ele>
        <time>2026-05-06T11:41:28.000Z</time>
      </trkpt>
      <trkpt lat="41.792586" lon="22.978266">
        <ele>1552.5</ele>
        <time>2026-05-06T11:41:29.000Z</time>
      </trkpt>
      <trkpt lat="41.792584" lon="22.978265">
        <ele>1552.5</ele>
        <time>2026-05-06T11:41:30.000Z</time>
      </trkpt>
      <trkpt lat="41.792583" lon="22.978264">
        <ele>1552.5</ele>
        <time>2026-05-06T11:41:31.000Z</time>
      </trkpt>
      <trkpt lat="41.792582" lon="22.978261">
        <ele>1552.5</ele>
        <time>2026-05-06T11:41:32.000Z</time>
      </trkpt>
      <trkpt lat="41.79258" lon="22.978255">
        <ele>1552.6</ele>
        <time>2026-05-06T11:41:33.000Z</time>
      </trkpt>
      <trkpt lat="41.792577" lon="22.978247">
        <ele>1552.6</ele>
        <time>2026-05-06T11:41:34.000Z</time>
      </trkpt>
      <trkpt lat="41.792576" lon="22.978237">
        <ele>1552.6</ele>
        <time>2026-05-06T11:41:35.000Z</time>
      </trkpt>
      <trkpt lat="41.792575" lon="22.978226">
        <ele>1552.6</ele>
        <time>2026-05-06T11:41:36.000Z</time>
      </trkpt>
      <trkpt lat="41.792573" lon="22.978216">
        <ele>1552.6</ele>
        <time>2026-05-06T11:41:37.000Z</time>
      </trkpt>
      <trkpt lat="41.792572" lon="22.978208">
        <ele>1552.6</ele>
        <time>2026-05-06T11:41:38.000Z</time>
      </trkpt>
      <trkpt lat="41.79257" lon="22.9782">
        <ele>1552.6</ele>
        <time>2026-05-06T11:41:39.000Z</time>
      </trkpt>
      <trkpt lat="41.79257" lon="22.978191">
        <ele>1552.6</ele>
        <time>2026-05-06T11:41:40.000Z</time>
      </trkpt>
      <trkpt lat="41.792571" lon="22.978182">
        <ele>1552.6</ele>
        <time>2026-05-06T11:41:41.000Z</time>
      </trkpt>
      <trkpt lat="41.792573" lon="22.978173">
        <ele>1552.6</ele>
        <time>2026-05-06T11:41:42.000Z</time>
      </trkpt>
      <trkpt lat="41.792578" lon="22.978164">
        <ele>1552.7</ele>
        <time>2026-05-06T11:41:43.000Z</time>
      </trkpt>
      <trkpt lat="41.792581" lon="22.978155">
        <ele>1552.7</ele>
        <time>2026-05-06T11:41:44.000Z</time>
      </trkpt>
      <trkpt lat="41.792584" lon="22.978146">
        <ele>1552.7</ele>
        <time>2026-05-06T11:41:45.000Z</time>
      </trkpt>
      <trkpt lat="41.792585" lon="22.978138">
        <ele>1552.7</ele>
        <time>2026-05-06T11:41:46.000Z</time>
      </trkpt>
      <trkpt lat="41.792586" lon="22.978131">
        <ele>1552.7</ele>
        <time>2026-05-06T11:41:47.000Z</time>
      </trkpt>
      <trkpt lat="41.792587" lon="22.978123">
        <ele>1552.7</ele>
        <time>2026-05-06T11:41:48.000Z</time>
      </trkpt>
      <trkpt lat="41.792588" lon="22.978118">
        <ele>1552.7</ele>
        <time>2026-05-06T11:41:49.000Z</time>
      </trkpt>
      <trkpt lat="41.792589" lon="22.978115">
        <ele>1552.7</ele>
        <time>2026-05-06T11:41:50.000Z</time>
      </trkpt>
      <trkpt lat="41.79259" lon="22.978113">
        <ele>1552.7</ele>
        <time>2026-05-06T11:41:51.000Z</time>
      </trkpt>
      <trkpt lat="41.792589" lon="22.978112">
        <ele>1552.7</ele>
        <time>2026-05-06T11:41:52.000Z</time>
      </trkpt>
      <trkpt lat="41.792587" lon="22.978111">
        <ele>1553.1</ele>
        <time>2026-05-06T11:41:53.000Z</time>
      </trkpt>
      <trkpt lat="41.792586" lon="22.97811">
        <ele>1553.1</ele>
        <time>2026-05-06T11:41:54.000Z</time>
      </trkpt>
      <trkpt lat="41.792584" lon="22.97811">
        <ele>1553.1</ele>
        <time>2026-05-06T11:41:55.000Z</time>
      </trkpt>
      <trkpt lat="41.792582" lon="22.978109">
        <ele>1553.1</ele>
        <time>2026-05-06T11:41:56.000Z</time>
      </trkpt>
      <trkpt lat="41.792581" lon="22.978107">
        <ele>1553.1</ele>
        <time>2026-05-06T11:41:57.000Z</time>
      </trkpt>
      <trkpt lat="41.792581" lon="22.978103">
        <ele>1553.7</ele>
        <time>2026-05-06T11:41:58.000Z</time>
      </trkpt>
      <trkpt lat="41.792582" lon="22.978097">
        <ele>1553.7</ele>
        <time>2026-05-06T11:41:59.000Z</time>
      </trkpt>
      <trkpt lat="41.792582" lon="22.978089">
        <ele>1553.7</ele>
        <time>2026-05-06T11:42:00.000Z</time>
      </trkpt>
      <trkpt lat="41.792583" lon="22.978079">
        <ele>1553.7</ele>
        <time>2026-05-06T11:42:01.000Z</time>
      </trkpt>
      <trkpt lat="41.792582" lon="22.978068">
        <ele>1553.7</ele>
        <time>2026-05-06T11:42:02.000Z</time>
      </trkpt>
      <trkpt lat="41.792582" lon="22.978057">
        <ele>1554</ele>
        <time>2026-05-06T11:42:03.000Z</time>
      </trkpt>
      <trkpt lat="41.792581" lon="22.978044">
        <ele>1554</ele>
        <time>2026-05-06T11:42:04.000Z</time>
      </trkpt>
      <trkpt lat="41.792581" lon="22.978028">
        <ele>1554</ele>
        <time>2026-05-06T11:42:05.000Z</time>
      </trkpt>
      <trkpt lat="41.79258" lon="22.978011">
        <ele>1554</ele>
        <time>2026-05-06T11:42:06.000Z</time>
      </trkpt>
      <trkpt lat="41.79258" lon="22.977995">
        <ele>1554</ele>
        <time>2026-05-06T11:42:07.000Z</time>
      </trkpt>
      <trkpt lat="41.792579" lon="22.977976">
        <ele>1554.3</ele>
        <time>2026-05-06T11:42:08.000Z</time>
      </trkpt>
      <trkpt lat="41.792577" lon="22.977958">
        <ele>1554.3</ele>
        <time>2026-05-06T11:42:09.000Z</time>
      </trkpt>
      <trkpt lat="41.792575" lon="22.977942">
        <ele>1554.3</ele>
        <time>2026-05-06T11:42:10.000Z</time>
      </trkpt>
      <trkpt lat="41.792574" lon="22.977925">
        <ele>1554.3</ele>
        <time>2026-05-06T11:42:11.000Z</time>
      </trkpt>
      <trkpt lat="41.792572" lon="22.977909">
        <ele>1554.3</ele>
        <time>2026-05-06T11:42:12.000Z</time>
      </trkpt>
      <trkpt lat="41.792572" lon="22.977894">
        <ele>1554.6</ele>
        <time>2026-05-06T11:42:13.000Z</time>
      </trkpt>
      <trkpt lat="41.792572" lon="22.977878">
        <ele>1554.6</ele>
        <time>2026-05-06T11:42:14.000Z</time>
      </trkpt>
      <trkpt lat="41.792573" lon="22.977865">
        <ele>1554.6</ele>
        <time>2026-05-06T11:42:15.000Z</time>
      </trkpt>
      <trkpt lat="41.792573" lon="22.977852">
        <ele>1554.6</ele>
        <time>2026-05-06T11:42:16.000Z</time>
      </trkpt>
      <trkpt lat="41.792573" lon="22.977841">
        <ele>1554.6</ele>
        <time>2026-05-06T11:42:17.000Z</time>
      </trkpt>
      <trkpt lat="41.792572" lon="22.97783">
        <ele>1554.9</ele>
        <time>2026-05-06T11:42:18.000Z</time>
      </trkpt>
      <trkpt lat="41.79257" lon="22.977819">
        <ele>1554.9</ele>
        <time>2026-05-06T11:42:19.000Z</time>
      </trkpt>
      <trkpt lat="41.792566" lon="22.977808">
        <ele>1554.9</ele>
        <time>2026-05-06T11:42:20.000Z</time>
      </trkpt>
      <trkpt lat="41.792564" lon="22.977796">
        <ele>1554.9</ele>
        <time>2026-05-06T11:42:21.000Z</time>
      </trkpt>
      <trkpt lat="41.792561" lon="22.977784">
        <ele>1554.9</ele>
        <time>2026-05-06T11:42:22.000Z</time>
      </trkpt>
      <trkpt lat="41.792559" lon="22.977773">
        <ele>1555.6</ele>
        <time>2026-05-06T11:42:23.000Z</time>
      </trkpt>
      <trkpt lat="41.792559" lon="22.977763">
        <ele>1555.6</ele>
        <time>2026-05-06T11:42:24.000Z</time>
      </trkpt>
      <trkpt lat="41.792559" lon="22.977752">
        <ele>1555.6</ele>
        <time>2026-05-06T11:42:25.000Z</time>
      </trkpt>
      <trkpt lat="41.79256" lon="22.977742">
        <ele>1555.6</ele>
        <time>2026-05-06T11:42:26.000Z</time>
      </trkpt>
      <trkpt lat="41.79256" lon="22.977733">
        <ele>1555.6</ele>
        <time>2026-05-06T11:42:27.000Z</time>
      </trkpt>
      <trkpt lat="41.792561" lon="22.97772">
        <ele>1556.3</ele>
        <time>2026-05-06T11:42:28.000Z</time>
      </trkpt>
      <trkpt lat="41.79256" lon="22.977707">
        <ele>1556.3</ele>
        <time>2026-05-06T11:42:29.000Z</time>
      </trkpt>
      <trkpt lat="41.79256" lon="22.977694">
        <ele>1556.3</ele>
        <time>2026-05-06T11:42:30.000Z</time>
      </trkpt>
      <trkpt lat="41.792559" lon="22.97768">
        <ele>1556.3</ele>
        <time>2026-05-06T11:42:31.000Z</time>
      </trkpt>
      <trkpt lat="41.79256" lon="22.977667">
        <ele>1556.3</ele>
        <time>2026-05-06T11:42:32.000Z</time>
      </trkpt>
      <trkpt lat="41.792559" lon="22.977654">
        <ele>1556.6</ele>
        <time>2026-05-06T11:42:33.000Z</time>
      </trkpt>
      <trkpt lat="41.79256" lon="22.977641">
        <ele>1556.6</ele>
        <time>2026-05-06T11:42:34.000Z</time>
      </trkpt>
      <trkpt lat="41.79256" lon="22.977629">
        <ele>1556.6</ele>
        <time>2026-05-06T11:42:35.000Z</time>
      </trkpt>
      <trkpt lat="41.792561" lon="22.977615">
        <ele>1556.6</ele>
        <time>2026-05-06T11:42:36.000Z</time>
      </trkpt>
      <trkpt lat="41.792561" lon="22.9776">
        <ele>1556.6</ele>
        <time>2026-05-06T11:42:37.000Z</time>
      </trkpt>
      <trkpt lat="41.792561" lon="22.977585">
        <ele>1557.4</ele>
        <time>2026-05-06T11:42:38.000Z</time>
      </trkpt>
      <trkpt lat="41.79256" lon="22.977571">
        <ele>1557.4</ele>
        <time>2026-05-06T11:42:39.000Z</time>
      </trkpt>
      <trkpt lat="41.792559" lon="22.977557">
        <ele>1557.4</ele>
        <time>2026-05-06T11:42:40.000Z</time>
      </trkpt>
      <trkpt lat="41.792558" lon="22.977544">
        <ele>1557.4</ele>
        <time>2026-05-06T11:42:41.000Z</time>
      </trkpt>
      <trkpt lat="41.792556" lon="22.977533">
        <ele>1557.4</ele>
        <time>2026-05-06T11:42:42.000Z</time>
      </trkpt>
      <trkpt lat="41.792556" lon="22.977523">
        <ele>1558.3</ele>
        <time>2026-05-06T11:42:43.000Z</time>
      </trkpt>
      <trkpt lat="41.792557" lon="22.977513">
        <ele>1558.3</ele>
        <time>2026-05-06T11:42:44.000Z</time>
      </trkpt>
      <trkpt lat="41.792559" lon="22.977505">
        <ele>1558.3</ele>
        <time>2026-05-06T11:42:45.000Z</time>
      </trkpt>
      <trkpt lat="41.792559" lon="22.977497">
        <ele>1558.3</ele>
        <time>2026-05-06T11:42:46.000Z</time>
      </trkpt>
      <trkpt lat="41.79256" lon="22.977487">
        <ele>1558.3</ele>
        <time>2026-05-06T11:42:47.000Z</time>
      </trkpt>
      <trkpt lat="41.79256" lon="22.977478">
        <ele>1558.8</ele>
        <time>2026-05-06T11:42:48.000Z</time>
      </trkpt>
      <trkpt lat="41.792558" lon="22.977467">
        <ele>1558.8</ele>
        <time>2026-05-06T11:42:49.000Z</time>
      </trkpt>
      <trkpt lat="41.792556" lon="22.977457">
        <ele>1558.8</ele>
        <time>2026-05-06T11:42:50.000Z</time>
      </trkpt>
      <trkpt lat="41.792556" lon="22.977447">
        <ele>1558.8</ele>
        <time>2026-05-06T11:42:51.000Z</time>
      </trkpt>
      <trkpt lat="41.792554" lon="22.977441">
        <ele>1558.8</ele>
        <time>2026-05-06T11:42:52.000Z</time>
      </trkpt>
      <trkpt lat="41.792553" lon="22.977434">
        <ele>1559.7</ele>
        <time>2026-05-06T11:42:53.000Z</time>
      </trkpt>
      <trkpt lat="41.792553" lon="22.977429">
        <ele>1559.7</ele>
        <time>2026-05-06T11:42:54.000Z</time>
      </trkpt>
      <trkpt lat="41.792553" lon="22.977424">
        <ele>1559.7</ele>
        <time>2026-05-06T11:42:55.000Z</time>
      </trkpt>
      <trkpt lat="41.792553" lon="22.97742">
        <ele>1559.7</ele>
        <time>2026-05-06T11:42:56.000Z</time>
      </trkpt>
      <trkpt lat="41.792554" lon="22.977415">
        <ele>1559.7</ele>
        <time>2026-05-06T11:42:57.000Z</time>
      </trkpt>
      <trkpt lat="41.792554" lon="22.97741">
        <ele>1560.6</ele>
        <time>2026-05-06T11:42:58.000Z</time>
      </trkpt>
      <trkpt lat="41.792551" lon="22.977404">
        <ele>1560.6</ele>
        <time>2026-05-06T11:42:59.000Z</time>
      </trkpt>
      <trkpt lat="41.792548" lon="22.977395">
        <ele>1560.6</ele>
        <time>2026-05-06T11:43:00.000Z</time>
      </trkpt>
      <trkpt lat="41.792546" lon="22.977386">
        <ele>1560.6</ele>
        <time>2026-05-06T11:43:01.000Z</time>
      </trkpt>
      <trkpt lat="41.792543" lon="22.977376">
        <ele>1560.6</ele>
        <time>2026-05-06T11:43:02.000Z</time>
      </trkpt>
      <trkpt lat="41.792539" lon="22.977365">
        <ele>1561</ele>
        <time>2026-05-06T11:43:03.000Z</time>
      </trkpt>
      <trkpt lat="41.792536" lon="22.977355">
        <ele>1561</ele>
        <time>2026-05-06T11:43:04.000Z</time>
      </trkpt>
      <trkpt lat="41.792533" lon="22.977345">
        <ele>1561</ele>
        <time>2026-05-06T11:43:05.000Z</time>
      </trkpt>
      <trkpt lat="41.792529" lon="22.977333">
        <ele>1561</ele>
        <time>2026-05-06T11:43:06.000Z</time>
      </trkpt>
      <trkpt lat="41.792526" lon="22.977321">
        <ele>1561</ele>
        <time>2026-05-06T11:43:07.000Z</time>
      </trkpt>
      <trkpt lat="41.792522" lon="22.977307">
        <ele>1561.9</ele>
        <time>2026-05-06T11:43:08.000Z</time>
      </trkpt>
      <trkpt lat="41.792518" lon="22.977293">
        <ele>1561.9</ele>
        <time>2026-05-06T11:43:09.000Z</time>
      </trkpt>
      <trkpt lat="41.792515" lon="22.97728">
        <ele>1561.9</ele>
        <time>2026-05-06T11:43:10.000Z</time>
      </trkpt>
      <trkpt lat="41.79251" lon="22.977266">
        <ele>1561.9</ele>
        <time>2026-05-06T11:43:11.000Z</time>
      </trkpt>
      <trkpt lat="41.792504" lon="22.977252">
        <ele>1561.9</ele>
        <time>2026-05-06T11:43:12.000Z</time>
      </trkpt>
      <trkpt lat="41.792501" lon="22.977241">
        <ele>1562.8</ele>
        <time>2026-05-06T11:43:13.000Z</time>
      </trkpt>
      <trkpt lat="41.792497" lon="22.977228">
        <ele>1562.8</ele>
        <time>2026-05-06T11:43:14.000Z</time>
      </trkpt>
      <trkpt lat="41.792493" lon="22.977217">
        <ele>1562.8</ele>
        <time>2026-05-06T11:43:15.000Z</time>
      </trkpt>
      <trkpt lat="41.792491" lon="22.977205">
        <ele>1562.8</ele>
        <time>2026-05-06T11:43:16.000Z</time>
      </trkpt>
      <trkpt lat="41.792489" lon="22.977192">
        <ele>1562.8</ele>
        <time>2026-05-06T11:43:17.000Z</time>
      </trkpt>
      <trkpt lat="41.792487" lon="22.977178">
        <ele>1563.2</ele>
        <time>2026-05-06T11:43:18.000Z</time>
      </trkpt>
      <trkpt lat="41.792485" lon="22.977166">
        <ele>1563.2</ele>
        <time>2026-05-06T11:43:19.000Z</time>
      </trkpt>
      <trkpt lat="41.792484" lon="22.977152">
        <ele>1563.2</ele>
        <time>2026-05-06T11:43:20.000Z</time>
      </trkpt>
      <trkpt lat="41.792483" lon="22.977138">
        <ele>1563.2</ele>
        <time>2026-05-06T11:43:21.000Z</time>
      </trkpt>
      <trkpt lat="41.792483" lon="22.977124">
        <ele>1563.2</ele>
        <time>2026-05-06T11:43:22.000Z</time>
      </trkpt>
      <trkpt lat="41.792481" lon="22.97711">
        <ele>1564.1</ele>
        <time>2026-05-06T11:43:23.000Z</time>
      </trkpt>
      <trkpt lat="41.79248" lon="22.977095">
        <ele>1564.1</ele>
        <time>2026-05-06T11:43:24.000Z</time>
      </trkpt>
      <trkpt lat="41.792479" lon="22.977081">
        <ele>1564.1</ele>
        <time>2026-05-06T11:43:25.000Z</time>
      </trkpt>
      <trkpt lat="41.792478" lon="22.97707">
        <ele>1564.1</ele>
        <time>2026-05-06T11:43:26.000Z</time>
      </trkpt>
      <trkpt lat="41.792477" lon="22.977059">
        <ele>1564.1</ele>
        <time>2026-05-06T11:43:27.000Z</time>
      </trkpt>
      <trkpt lat="41.792477" lon="22.977048">
        <ele>1565.1</ele>
        <time>2026-05-06T11:43:28.000Z</time>
      </trkpt>
      <trkpt lat="41.792477" lon="22.977038">
        <ele>1565.1</ele>
        <time>2026-05-06T11:43:29.000Z</time>
      </trkpt>
      <trkpt lat="41.792475" lon="22.977027">
        <ele>1565.1</ele>
        <time>2026-05-06T11:43:30.000Z</time>
      </trkpt>
      <trkpt lat="41.792475" lon="22.977015">
        <ele>1565.1</ele>
        <time>2026-05-06T11:43:31.000Z</time>
      </trkpt>
      <trkpt lat="41.792473" lon="22.977002">
        <ele>1565.1</ele>
        <time>2026-05-06T11:43:32.000Z</time>
      </trkpt>
      <trkpt lat="41.792471" lon="22.976989">
        <ele>1565.6</ele>
        <time>2026-05-06T11:43:33.000Z</time>
      </trkpt>
      <trkpt lat="41.79247" lon="22.976975">
        <ele>1565.6</ele>
        <time>2026-05-06T11:43:34.000Z</time>
      </trkpt>
      <trkpt lat="41.79247" lon="22.976961">
        <ele>1565.6</ele>
        <time>2026-05-06T11:43:35.000Z</time>
      </trkpt>
      <trkpt lat="41.792469" lon="22.976947">
        <ele>1565.6</ele>
        <time>2026-05-06T11:43:36.000Z</time>
      </trkpt>
      <trkpt lat="41.79247" lon="22.976934">
        <ele>1565.6</ele>
        <time>2026-05-06T11:43:37.000Z</time>
      </trkpt>
      <trkpt lat="41.792472" lon="22.976919">
        <ele>1566.7</ele>
        <time>2026-05-06T11:43:38.000Z</time>
      </trkpt>
      <trkpt lat="41.792474" lon="22.976906">
        <ele>1566.7</ele>
        <time>2026-05-06T11:43:39.000Z</time>
      </trkpt>
      <trkpt lat="41.792476" lon="22.976892">
        <ele>1566.7</ele>
        <time>2026-05-06T11:43:40.000Z</time>
      </trkpt>
      <trkpt lat="41.792479" lon="22.976877">
        <ele>1566.7</ele>
        <time>2026-05-06T11:43:41.000Z</time>
      </trkpt>
      <trkpt lat="41.792482" lon="22.976862">
        <ele>1566.7</ele>
        <time>2026-05-06T11:43:42.000Z</time>
      </trkpt>
      <trkpt lat="41.792484" lon="22.976847">
        <ele>1567.7</ele>
        <time>2026-05-06T11:43:43.000Z</time>
      </trkpt>
      <trkpt lat="41.792485" lon="22.976833">
        <ele>1567.7</ele>
        <time>2026-05-06T11:43:44.000Z</time>
      </trkpt>
      <trkpt lat="41.792486" lon="22.976818">
        <ele>1567.7</ele>
        <time>2026-05-06T11:43:45.000Z</time>
      </trkpt>
      <trkpt lat="41.792486" lon="22.976806">
        <ele>1567.7</ele>
        <time>2026-05-06T11:43:46.000Z</time>
      </trkpt>
      <trkpt lat="41.792485" lon="22.976794">
        <ele>1567.7</ele>
        <time>2026-05-06T11:43:47.000Z</time>
      </trkpt>
      <trkpt lat="41.792482" lon="22.976783">
        <ele>1568.2</ele>
        <time>2026-05-06T11:43:48.000Z</time>
      </trkpt>
      <trkpt lat="41.792478" lon="22.976773">
        <ele>1568.2</ele>
        <time>2026-05-06T11:43:49.000Z</time>
      </trkpt>
      <trkpt lat="41.792474" lon="22.976762">
        <ele>1568.2</ele>
        <time>2026-05-06T11:43:50.000Z</time>
      </trkpt>
      <trkpt lat="41.792469" lon="22.97675">
        <ele>1568.2</ele>
        <time>2026-05-06T11:43:51.000Z</time>
      </trkpt>
      <trkpt lat="41.792465" lon="22.976736">
        <ele>1568.2</ele>
        <time>2026-05-06T11:43:52.000Z</time>
      </trkpt>
      <trkpt lat="41.792462" lon="22.976721">
        <ele>1569.2</ele>
        <time>2026-05-06T11:43:53.000Z</time>
      </trkpt>
      <trkpt lat="41.792459" lon="22.976707">
        <ele>1569.2</ele>
        <time>2026-05-06T11:43:54.000Z</time>
      </trkpt>
      <trkpt lat="41.792455" lon="22.976694">
        <ele>1569.2</ele>
        <time>2026-05-06T11:43:55.000Z</time>
      </trkpt>
      <trkpt lat="41.792452" lon="22.976681">
        <ele>1569.2</ele>
        <time>2026-05-06T11:43:56.000Z</time>
      </trkpt>
      <trkpt lat="41.79245" lon="22.97667">
        <ele>1569.2</ele>
        <time>2026-05-06T11:43:57.000Z</time>
      </trkpt>
      <trkpt lat="41.792448" lon="22.976659">
        <ele>1569.8</ele>
        <time>2026-05-06T11:43:58.000Z</time>
      </trkpt>
      <trkpt lat="41.792446" lon="22.976648">
        <ele>1569.8</ele>
        <time>2026-05-06T11:43:59.000Z</time>
      </trkpt>
      <trkpt lat="41.792445" lon="22.976637">
        <ele>1569.8</ele>
        <time>2026-05-06T11:44:00.000Z</time>
      </trkpt>
      <trkpt lat="41.792444" lon="22.976627">
        <ele>1569.8</ele>
        <time>2026-05-06T11:44:01.000Z</time>
      </trkpt>
      <trkpt lat="41.792444" lon="22.976615">
        <ele>1569.8</ele>
        <time>2026-05-06T11:44:02.000Z</time>
      </trkpt>
      <trkpt lat="41.792443" lon="22.976605">
        <ele>1570.2</ele>
        <time>2026-05-06T11:44:03.000Z</time>
      </trkpt>
      <trkpt lat="41.792443" lon="22.976594">
        <ele>1570.2</ele>
        <time>2026-05-06T11:44:04.000Z</time>
      </trkpt>
      <trkpt lat="41.792443" lon="22.976584">
        <ele>1570.2</ele>
        <time>2026-05-06T11:44:05.000Z</time>
      </trkpt>
      <trkpt lat="41.792444" lon="22.976575">
        <ele>1570.2</ele>
        <time>2026-05-06T11:44:06.000Z</time>
      </trkpt>
      <trkpt lat="41.792442" lon="22.976568">
        <ele>1570.2</ele>
        <time>2026-05-06T11:44:07.000Z</time>
      </trkpt>
      <trkpt lat="41.79244" lon="22.976559">
        <ele>1571</ele>
        <time>2026-05-06T11:44:08.000Z</time>
      </trkpt>
      <trkpt lat="41.792438" lon="22.976551">
        <ele>1571</ele>
        <time>2026-05-06T11:44:09.000Z</time>
      </trkpt>
      <trkpt lat="41.792436" lon="22.976543">
        <ele>1571</ele>
        <time>2026-05-06T11:44:10.000Z</time>
      </trkpt>
      <trkpt lat="41.792434" lon="22.976532">
        <ele>1571</ele>
        <time>2026-05-06T11:44:11.000Z</time>
      </trkpt>
      <trkpt lat="41.792432" lon="22.976521">
        <ele>1571</ele>
        <time>2026-05-06T11:44:12.000Z</time>
      </trkpt>
      <trkpt lat="41.792429" lon="22.976512">
        <ele>1571.9</ele>
        <time>2026-05-06T11:44:13.000Z</time>
      </trkpt>
      <trkpt lat="41.792427" lon="22.976502">
        <ele>1571.9</ele>
        <time>2026-05-06T11:44:14.000Z</time>
      </trkpt>
      <trkpt lat="41.792425" lon="22.976493">
        <ele>1571.9</ele>
        <time>2026-05-06T11:44:15.000Z</time>
      </trkpt>
      <trkpt lat="41.792422" lon="22.976486">
        <ele>1571.9</ele>
        <time>2026-05-06T11:44:16.000Z</time>
      </trkpt>
      <trkpt lat="41.79242" lon="22.976479">
        <ele>1571.9</ele>
        <time>2026-05-06T11:44:17.000Z</time>
      </trkpt>
      <trkpt lat="41.792416" lon="22.976472">
        <ele>1572.4</ele>
        <time>2026-05-06T11:44:18.000Z</time>
      </trkpt>
      <trkpt lat="41.792413" lon="22.976466">
        <ele>1572.4</ele>
        <time>2026-05-06T11:44:19.000Z</time>
      </trkpt>
      <trkpt lat="41.79241" lon="22.97646">
        <ele>1572.4</ele>
        <time>2026-05-06T11:44:20.000Z</time>
      </trkpt>
      <trkpt lat="41.792406" lon="22.976453">
        <ele>1572.4</ele>
        <time>2026-05-06T11:44:21.000Z</time>
      </trkpt>
      <trkpt lat="41.792404" lon="22.976446">
        <ele>1572.4</ele>
        <time>2026-05-06T11:44:22.000Z</time>
      </trkpt>
      <trkpt lat="41.792403" lon="22.976437">
        <ele>1573.3</ele>
        <time>2026-05-06T11:44:23.000Z</time>
      </trkpt>
      <trkpt lat="41.792401" lon="22.976429">
        <ele>1573.3</ele>
        <time>2026-05-06T11:44:24.000Z</time>
      </trkpt>
      <trkpt lat="41.792398" lon="22.97642">
        <ele>1573.3</ele>
        <time>2026-05-06T11:44:25.000Z</time>
      </trkpt>
      <trkpt lat="41.792395" lon="22.976411">
        <ele>1573.3</ele>
        <time>2026-05-06T11:44:26.000Z</time>
      </trkpt>
      <trkpt lat="41.792392" lon="22.976402">
        <ele>1573.3</ele>
        <time>2026-05-06T11:44:27.000Z</time>
      </trkpt>
      <trkpt lat="41.792389" lon="22.976393">
        <ele>1574.3</ele>
        <time>2026-05-06T11:44:28.000Z</time>
      </trkpt>
      <trkpt lat="41.792385" lon="22.976384">
        <ele>1574.3</ele>
        <time>2026-05-06T11:44:29.000Z</time>
      </trkpt>
      <trkpt lat="41.792382" lon="22.976376">
        <ele>1574.3</ele>
        <time>2026-05-06T11:44:30.000Z</time>
      </trkpt>
      <trkpt lat="41.792378" lon="22.976368">
        <ele>1574.3</ele>
        <time>2026-05-06T11:44:31.000Z</time>
      </trkpt>
      <trkpt lat="41.792374" lon="22.97636">
        <ele>1574.3</ele>
        <time>2026-05-06T11:44:32.000Z</time>
      </trkpt>
      <trkpt lat="41.792372" lon="22.976352">
        <ele>1574.8</ele>
        <time>2026-05-06T11:44:33.000Z</time>
      </trkpt>
      <trkpt lat="41.79237" lon="22.976343">
        <ele>1574.8</ele>
        <time>2026-05-06T11:44:34.000Z</time>
      </trkpt>
      <trkpt lat="41.79237" lon="22.976335">
        <ele>1574.8</ele>
        <time>2026-05-06T11:44:35.000Z</time>
      </trkpt>
      <trkpt lat="41.792371" lon="22.976327">
        <ele>1574.8</ele>
        <time>2026-05-06T11:44:36.000Z</time>
      </trkpt>
      <trkpt lat="41.792372" lon="22.97632">
        <ele>1574.8</ele>
        <time>2026-05-06T11:44:37.000Z</time>
      </trkpt>
      <trkpt lat="41.792372" lon="22.976313">
        <ele>1575.9</ele>
        <time>2026-05-06T11:44:38.000Z</time>
      </trkpt>
      <trkpt lat="41.792372" lon="22.976306">
        <ele>1575.9</ele>
        <time>2026-05-06T11:44:39.000Z</time>
      </trkpt>
      <trkpt lat="41.792371" lon="22.976299">
        <ele>1575.9</ele>
        <time>2026-05-06T11:44:40.000Z</time>
      </trkpt>
      <trkpt lat="41.79237" lon="22.976293">
        <ele>1575.9</ele>
        <time>2026-05-06T11:44:41.000Z</time>
      </trkpt>
      <trkpt lat="41.792368" lon="22.976288">
        <ele>1575.9</ele>
        <time>2026-05-06T11:44:42.000Z</time>
      </trkpt>
      <trkpt lat="41.792366" lon="22.976284">
        <ele>1576.9</ele>
        <time>2026-05-06T11:44:43.000Z</time>
      </trkpt>
      <trkpt lat="41.792363" lon="22.976279">
        <ele>1576.9</ele>
        <time>2026-05-06T11:44:44.000Z</time>
      </trkpt>
      <trkpt lat="41.79236" lon="22.976276">
        <ele>1576.9</ele>
        <time>2026-05-06T11:44:45.000Z</time>
      </trkpt>
      <trkpt lat="41.792359" lon="22.976274">
        <ele>1576.9</ele>
        <time>2026-05-06T11:44:46.000Z</time>
      </trkpt>
      <trkpt lat="41.792359" lon="22.976271">
        <ele>1576.9</ele>
        <time>2026-05-06T11:44:47.000Z</time>
      </trkpt>
      <trkpt lat="41.792359" lon="22.97627">
        <ele>1577.4</ele>
        <time>2026-05-06T11:44:48.000Z</time>
      </trkpt>
      <trkpt lat="41.79236" lon="22.976271">
        <ele>1577.4</ele>
        <time>2026-05-06T11:44:49.000Z</time>
      </trkpt>
      <trkpt lat="41.792361" lon="22.976271">
        <ele>1577.4</ele>
        <time>2026-05-06T11:44:50.000Z</time>
      </trkpt>
      <trkpt lat="41.792362" lon="22.97627">
        <ele>1577.4</ele>
        <time>2026-05-06T11:44:51.000Z</time>
      </trkpt>
      <trkpt lat="41.792363" lon="22.976269">
        <ele>1577.4</ele>
        <time>2026-05-06T11:44:52.000Z</time>
      </trkpt>
      <trkpt lat="41.792364" lon="22.976266">
        <ele>1578.3</ele>
        <time>2026-05-06T11:44:53.000Z</time>
      </trkpt>
      <trkpt lat="41.792366" lon="22.976261">
        <ele>1578.3</ele>
        <time>2026-05-06T11:44:54.000Z</time>
      </trkpt>
      <trkpt lat="41.792368" lon="22.976256">
        <ele>1578.3</ele>
        <time>2026-05-06T11:44:55.000Z</time>
      </trkpt>
      <trkpt lat="41.792368" lon="22.976251">
        <ele>1578.3</ele>
        <time>2026-05-06T11:44:56.000Z</time>
      </trkpt>
      <trkpt lat="41.792368" lon="22.976248">
        <ele>1578.3</ele>
        <time>2026-05-06T11:44:57.000Z</time>
      </trkpt>
      <trkpt lat="41.792368" lon="22.976246">
        <ele>1578.8</ele>
        <time>2026-05-06T11:44:58.000Z</time>
      </trkpt>
      <trkpt lat="41.792367" lon="22.976248">
        <ele>1578.8</ele>
        <time>2026-05-06T11:44:59.000Z</time>
      </trkpt>
      <trkpt lat="41.792367" lon="22.976248">
        <ele>1578.8</ele>
        <time>2026-05-06T11:45:00.000Z</time>
      </trkpt>
      <trkpt lat="41.792367" lon="22.976247">
        <ele>1578.8</ele>
        <time>2026-05-06T11:45:01.000Z</time>
      </trkpt>
      <trkpt lat="41.792369" lon="22.976246">
        <ele>1578.8</ele>
        <time>2026-05-06T11:45:02.000Z</time>
      </trkpt>
      <trkpt lat="41.792371" lon="22.976245">
        <ele>1578.9</ele>
        <time>2026-05-06T11:45:03.000Z</time>
      </trkpt>
      <trkpt lat="41.792372" lon="22.976242">
        <ele>1578.9</ele>
        <time>2026-05-06T11:45:04.000Z</time>
      </trkpt>
      <trkpt lat="41.792373" lon="22.976238">
        <ele>1578.9</ele>
        <time>2026-05-06T11:45:05.000Z</time>
      </trkpt>
      <trkpt lat="41.792373" lon="22.976235">
        <ele>1578.9</ele>
        <time>2026-05-06T11:45:06.000Z</time>
      </trkpt>
      <trkpt lat="41.792373" lon="22.976232">
        <ele>1578.9</ele>
        <time>2026-05-06T11:45:07.000Z</time>
      </trkpt>
      <trkpt lat="41.792372" lon="22.976228">
        <ele>1579.1</ele>
        <time>2026-05-06T11:45:08.000Z</time>
      </trkpt>
      <trkpt lat="41.792373" lon="22.976224">
        <ele>1579.1</ele>
        <time>2026-05-06T11:45:09.000Z</time>
      </trkpt>
      <trkpt lat="41.792373" lon="22.97622">
        <ele>1579.1</ele>
        <time>2026-05-06T11:45:10.000Z</time>
      </trkpt>
      <trkpt lat="41.792373" lon="22.976217">
        <ele>1579.1</ele>
        <time>2026-05-06T11:45:11.000Z</time>
      </trkpt>
      <trkpt lat="41.792372" lon="22.976214">
        <ele>1579.1</ele>
        <time>2026-05-06T11:45:12.000Z</time>
      </trkpt>
      <trkpt lat="41.792371" lon="22.976211">
        <ele>1579.2</ele>
        <time>2026-05-06T11:45:13.000Z</time>
      </trkpt>
      <trkpt lat="41.792369" lon="22.976209">
        <ele>1579.2</ele>
        <time>2026-05-06T11:45:14.000Z</time>
      </trkpt>
      <trkpt lat="41.792366" lon="22.976204">
        <ele>1579.2</ele>
        <time>2026-05-06T11:45:15.000Z</time>
      </trkpt>
      <trkpt lat="41.792364" lon="22.976198">
        <ele>1579.2</ele>
        <time>2026-05-06T11:45:16.000Z</time>
      </trkpt>
      <trkpt lat="41.792363" lon="22.976193">
        <ele>1579.2</ele>
        <time>2026-05-06T11:45:17.000Z</time>
      </trkpt>
      <trkpt lat="41.792364" lon="22.976189">
        <ele>1579.3</ele>
        <time>2026-05-06T11:45:18.000Z</time>
      </trkpt>
      <trkpt lat="41.792365" lon="22.976187">
        <ele>1579.3</ele>
        <time>2026-05-06T11:45:19.000Z</time>
      </trkpt>
      <trkpt lat="41.792367" lon="22.976187">
        <ele>1579.3</ele>
        <time>2026-05-06T11:45:20.000Z</time>
      </trkpt>
      <trkpt lat="41.792367" lon="22.976188">
        <ele>1579.3</ele>
        <time>2026-05-06T11:45:21.000Z</time>
      </trkpt>
      <trkpt lat="41.792368" lon="22.976189">
        <ele>1579.3</ele>
        <time>2026-05-06T11:45:22.000Z</time>
      </trkpt>
      <trkpt lat="41.792368" lon="22.976189">
        <ele>1579.5</ele>
        <time>2026-05-06T11:45:23.000Z</time>
      </trkpt>
      <trkpt lat="41.792369" lon="22.976188">
        <ele>1579.5</ele>
        <time>2026-05-06T11:45:24.000Z</time>
      </trkpt>
      <trkpt lat="41.792369" lon="22.976188">
        <ele>1579.5</ele>
        <time>2026-05-06T11:45:25.000Z</time>
      </trkpt>
      <trkpt lat="41.792369" lon="22.976187">
        <ele>1579.5</ele>
        <time>2026-05-06T11:45:26.000Z</time>
      </trkpt>
      <trkpt lat="41.792369" lon="22.976187">
        <ele>1579.5</ele>
        <time>2026-05-06T11:45:27.000Z</time>
      </trkpt>
      <trkpt lat="41.792369" lon="22.976187">
        <ele>1579.8</ele>
        <time>2026-05-06T11:45:28.000Z</time>
      </trkpt>
      <trkpt lat="41.792369" lon="22.976188">
        <ele>1579.8</ele>
        <time>2026-05-06T11:45:29.000Z</time>
      </trkpt>
      <trkpt lat="41.792369" lon="22.976189">
        <ele>1579.8</ele>
        <time>2026-05-06T11:45:30.000Z</time>
      </trkpt>
      <trkpt lat="41.79237" lon="22.976189">
        <ele>1579.8</ele>
        <time>2026-05-06T11:45:31.000Z</time>
      </trkpt>
      <trkpt lat="41.79237" lon="22.976189">
        <ele>1579.8</ele>
        <time>2026-05-06T11:45:32.000Z</time>
      </trkpt>
      <trkpt lat="41.79237" lon="22.976189">
        <ele>1579.9</ele>
        <time>2026-05-06T11:45:33.000Z</time>
      </trkpt>
      <trkpt lat="41.792371" lon="22.976189">
        <ele>1579.9</ele>
        <time>2026-05-06T11:45:34.000Z</time>
      </trkpt>
      <trkpt lat="41.792371" lon="22.976189">
        <ele>1579.9</ele>
        <time>2026-05-06T11:45:35.000Z</time>
      </trkpt>
      <trkpt lat="41.792371" lon="22.976189">
        <ele>1579.9</ele>
        <time>2026-05-06T11:45:36.000Z</time>
      </trkpt>
      <trkpt lat="41.792371" lon="22.97619">
        <ele>1579.9</ele>
        <time>2026-05-06T11:45:37.000Z</time>
      </trkpt>
      <trkpt lat="41.792371" lon="22.976191">
        <ele>1580</ele>
        <time>2026-05-06T11:45:38.000Z</time>
      </trkpt>
      <trkpt lat="41.792372" lon="22.976192">
        <ele>1580</ele>
        <time>2026-05-06T11:45:39.000Z</time>
      </trkpt>
      <trkpt lat="41.792372" lon="22.976194">
        <ele>1580</ele>
        <time>2026-05-06T11:45:40.000Z</time>
      </trkpt>
      <trkpt lat="41.792373" lon="22.976196">
        <ele>1580</ele>
        <time>2026-05-06T11:45:41.000Z</time>
      </trkpt>
      <trkpt lat="41.792373" lon="22.976198">
        <ele>1580</ele>
        <time>2026-05-06T11:45:42.000Z</time>
      </trkpt>
      <trkpt lat="41.792373" lon="22.976199">
        <ele>1579.9</ele>
        <time>2026-05-06T11:45:43.000Z</time>
      </trkpt>
      <trkpt lat="41.792373" lon="22.9762">
        <ele>1579.9</ele>
        <time>2026-05-06T11:45:44.000Z</time>
      </trkpt>
      <trkpt lat="41.792373" lon="22.9762">
        <ele>1579.9</ele>
        <time>2026-05-06T11:45:45.000Z</time>
      </trkpt>
      <trkpt lat="41.792373" lon="22.9762">
        <ele>1579.9</ele>
        <time>2026-05-06T11:45:46.000Z</time>
      </trkpt>
      <trkpt lat="41.792373" lon="22.9762">
        <ele>1579.9</ele>
        <time>2026-05-06T11:45:47.000Z</time>
      </trkpt>
      <trkpt lat="41.792374" lon="22.9762">
        <ele>1579.9</ele>
        <time>2026-05-06T11:45:48.000Z</time>
      </trkpt>
      <trkpt lat="41.792374" lon="22.976199">
        <ele>1579.9</ele>
        <time>2026-05-06T11:45:49.000Z</time>
      </trkpt>
      <trkpt lat="41.792374" lon="22.976199">
        <ele>1579.9</ele>
        <time>2026-05-06T11:45:50.000Z</time>
      </trkpt>
      <trkpt lat="41.792374" lon="22.976199">
        <ele>1579.9</ele>
        <time>2026-05-06T11:45:51.000Z</time>
      </trkpt>
      <trkpt lat="41.792373" lon="22.976199">
        <ele>1579.9</ele>
        <time>2026-05-06T11:45:52.000Z</time>
      </trkpt>
      <trkpt lat="41.792373" lon="22.976198">
        <ele>1580</ele>
        <time>2026-05-06T11:45:53.000Z</time>
      </trkpt>
      <trkpt lat="41.792373" lon="22.976198">
        <ele>1580</ele>
        <time>2026-05-06T11:45:54.000Z</time>
      </trkpt>
      <trkpt lat="41.792373" lon="22.976198">
        <ele>1580</ele>
        <time>2026-05-06T11:45:55.000Z</time>
      </trkpt>
      <trkpt lat="41.792373" lon="22.976198">
        <ele>1580</ele>
        <time>2026-05-06T11:45:56.000Z</time>
      </trkpt>
      <trkpt lat="41.792373" lon="22.976198">
        <ele>1580</ele>
        <time>2026-05-06T11:45:57.000Z</time>
      </trkpt>
      <trkpt lat="41.792373" lon="22.976198">
        <ele>1580.1</ele>
        <time>2026-05-06T11:45:58.000Z</time>
      </trkpt>
      <trkpt lat="41.792373" lon="22.976198">
        <ele>1580.1</ele>
        <time>2026-05-06T11:45:59.000Z</time>
      </trkpt>
      <trkpt lat="41.792373" lon="22.976198">
        <ele>1580.1</ele>
        <time>2026-05-06T11:46:00.000Z</time>
      </trkpt>
      <trkpt lat="41.792373" lon="22.976198">
        <ele>1580.1</ele>
        <time>2026-05-06T11:46:01.000Z</time>
      </trkpt>
      <trkpt lat="41.792373" lon="22.976199">
        <ele>1580.1</ele>
        <time>2026-05-06T11:46:02.000Z</time>
      </trkpt>
      <trkpt lat="41.792374" lon="22.976199">
        <ele>1580.1</ele>
        <time>2026-05-06T11:46:03.000Z</time>
      </trkpt>
      <trkpt lat="41.792375" lon="22.976199">
        <ele>1580.1</ele>
        <time>2026-05-06T11:46:04.000Z</time>
      </trkpt>
      <trkpt lat="41.792376" lon="22.9762">
        <ele>1580.1</ele>
        <time>2026-05-06T11:46:05.000Z</time>
      </trkpt>
      <trkpt lat="41.792376" lon="22.976199">
        <ele>1580.1</ele>
        <time>2026-05-06T11:46:06.000Z</time>
      </trkpt>
      <trkpt lat="41.792376" lon="22.976198">
        <ele>1580.1</ele>
        <time>2026-05-06T11:46:07.000Z</time>
      </trkpt>
      <trkpt lat="41.792377" lon="22.976198">
        <ele>1580</ele>
        <time>2026-05-06T11:46:08.000Z</time>
      </trkpt>
      <trkpt lat="41.792378" lon="22.976196">
        <ele>1580</ele>
        <time>2026-05-06T11:46:09.000Z</time>
      </trkpt>
      <trkpt lat="41.792379" lon="22.976194">
        <ele>1580</ele>
        <time>2026-05-06T11:46:10.000Z</time>
      </trkpt>
      <trkpt lat="41.792379" lon="22.976193">
        <ele>1580</ele>
        <time>2026-05-06T11:46:11.000Z</time>
      </trkpt>
      <trkpt lat="41.79238" lon="22.976193">
        <ele>1580</ele>
        <time>2026-05-06T11:46:12.000Z</time>
      </trkpt>
      <trkpt lat="41.79238" lon="22.976192">
        <ele>1579.9</ele>
        <time>2026-05-06T11:46:13.000Z</time>
      </trkpt>
      <trkpt lat="41.79238" lon="22.976192">
        <ele>1579.9</ele>
        <time>2026-05-06T11:46:14.000Z</time>
      </trkpt>
      <trkpt lat="41.79238" lon="22.976192">
        <ele>1579.9</ele>
        <time>2026-05-06T11:46:15.000Z</time>
      </trkpt>
      <trkpt lat="41.79238" lon="22.976192">
        <ele>1579.9</ele>
        <time>2026-05-06T11:46:16.000Z</time>
      </trkpt>
      <trkpt lat="41.79238" lon="22.976191">
        <ele>1579.9</ele>
        <time>2026-05-06T11:46:17.000Z</time>
      </trkpt>
      <trkpt lat="41.79238" lon="22.976191">
        <ele>1579.9</ele>
        <time>2026-05-06T11:46:18.000Z</time>
      </trkpt>
      <trkpt lat="41.79238" lon="22.976191">
        <ele>1579.9</ele>
        <time>2026-05-06T11:46:19.000Z</time>
      </trkpt>
      <trkpt lat="41.79238" lon="22.976191">
        <ele>1579.9</ele>
        <time>2026-05-06T11:46:20.000Z</time>
      </trkpt>
      <trkpt lat="41.79238" lon="22.976191">
        <ele>1579.9</ele>
        <time>2026-05-06T11:46:21.000Z</time>
      </trkpt>
      <trkpt lat="41.79238" lon="22.976191">
        <ele>1579.9</ele>
        <time>2026-05-06T11:46:22.000Z</time>
      </trkpt>
      <trkpt lat="41.79238" lon="22.976191">
        <ele>1579.9</ele>
        <time>2026-05-06T11:46:23.000Z</time>
      </trkpt>
      <trkpt lat="41.79238" lon="22.976191">
        <ele>1579.9</ele>
        <time>2026-05-06T11:46:24.000Z</time>
      </trkpt>
      <trkpt lat="41.79238" lon="22.976191">
        <ele>1579.9</ele>
        <time>2026-05-06T11:46:25.000Z</time>
      </trkpt>
      <trkpt lat="41.79238" lon="22.976191">
        <ele>1579.9</ele>
        <time>2026-05-06T11:46:26.000Z</time>
      </trkpt>
      <trkpt lat="41.79238" lon="22.97619">
        <ele>1579.9</ele>
        <time>2026-05-06T11:46:27.000Z</time>
      </trkpt>
      <trkpt lat="41.79238" lon="22.97619">
        <ele>1579.9</ele>
        <time>2026-05-06T11:46:28.000Z</time>
      </trkpt>
      <trkpt lat="41.79238" lon="22.976189">
        <ele>1579.9</ele>
        <time>2026-05-06T11:46:29.000Z</time>
      </trkpt>
      <trkpt lat="41.79238" lon="22.976189">
        <ele>1579.9</ele>
        <time>2026-05-06T11:46:30.000Z</time>
      </trkpt>
      <trkpt lat="41.79238" lon="22.976189">
        <ele>1579.9</ele>
        <time>2026-05-06T11:46:31.000Z</time>
      </trkpt>
      <trkpt lat="41.79238" lon="22.976189">
        <ele>1579.9</ele>
        <time>2026-05-06T11:46:32.000Z</time>
      </trkpt>
      <trkpt lat="41.79238" lon="22.976189">
        <ele>1580</ele>
        <time>2026-05-06T11:46:33.000Z</time>
      </trkpt>
      <trkpt lat="41.79238" lon="22.976189">
        <ele>1580</ele>
        <time>2026-05-06T11:46:34.000Z</time>
      </trkpt>
      <trkpt lat="41.79238" lon="22.976189">
        <ele>1580</ele>
        <time>2026-05-06T11:46:35.000Z</time>
      </trkpt>
      <trkpt lat="41.79238" lon="22.976189">
        <ele>1580</ele>
        <time>2026-05-06T11:46:36.000Z</time>
      </trkpt>
      <trkpt lat="41.79238" lon="22.976189">
        <ele>1580</ele>
        <time>2026-05-06T11:46:37.000Z</time>
      </trkpt>
      <trkpt lat="41.792379" lon="22.976189">
        <ele>1580</ele>
        <time>2026-05-06T11:46:38.000Z</time>
      </trkpt>
      <trkpt lat="41.792379" lon="22.976189">
        <ele>1580</ele>
        <time>2026-05-06T11:46:39.000Z</time>
      </trkpt>
      <trkpt lat="41.792379" lon="22.97619">
        <ele>1580</ele>
        <time>2026-05-06T11:46:40.000Z</time>
      </trkpt>
      <trkpt lat="41.79238" lon="22.976192">
        <ele>1580</ele>
        <time>2026-05-06T11:46:41.000Z</time>
      </trkpt>
      <trkpt lat="41.792381" lon="22.976195">
        <ele>1580</ele>
        <time>2026-05-06T11:46:42.000Z</time>
      </trkpt>
      <trkpt lat="41.792383" lon="22.976198">
        <ele>1580.1</ele>
        <time>2026-05-06T11:46:43.000Z</time>
      </trkpt>
      <trkpt lat="41.792385" lon="22.976202">
        <ele>1580.1</ele>
        <time>2026-05-06T11:46:44.000Z</time>
      </trkpt>
      <trkpt lat="41.792386" lon="22.976204">
        <ele>1580.1</ele>
        <time>2026-05-06T11:46:45.000Z</time>
      </trkpt>
      <trkpt lat="41.792386" lon="22.976206">
        <ele>1580.1</ele>
        <time>2026-05-06T11:46:46.000Z</time>
      </trkpt>
      <trkpt lat="41.792386" lon="22.976207">
        <ele>1580.1</ele>
        <time>2026-05-06T11:46:47.000Z</time>
      </trkpt>
      <trkpt lat="41.792386" lon="22.976207">
        <ele>1580</ele>
        <time>2026-05-06T11:46:48.000Z</time>
      </trkpt>
      <trkpt lat="41.792386" lon="22.976207">
        <ele>1580</ele>
        <time>2026-05-06T11:46:49.000Z</time>
      </trkpt>
      <trkpt lat="41.792386" lon="22.976207">
        <ele>1580</ele>
        <time>2026-05-06T11:46:50.000Z</time>
      </trkpt>
      <trkpt lat="41.792387" lon="22.976207">
        <ele>1580</ele>
        <time>2026-05-06T11:46:51.000Z</time>
      </trkpt>
      <trkpt lat="41.792387" lon="22.976207">
        <ele>1580</ele>
        <time>2026-05-06T11:46:52.000Z</time>
      </trkpt>
      <trkpt lat="41.792387" lon="22.976206">
        <ele>1580.1</ele>
        <time>2026-05-06T11:46:53.000Z</time>
      </trkpt>
      <trkpt lat="41.792387" lon="22.976206">
        <ele>1580.1</ele>
        <time>2026-05-06T11:46:54.000Z</time>
      </trkpt>
      <trkpt lat="41.792387" lon="22.976206">
        <ele>1580.1</ele>
        <time>2026-05-06T11:46:55.000Z</time>
      </trkpt>
      <trkpt lat="41.792387" lon="22.976206">
        <ele>1580.1</ele>
        <time>2026-05-06T11:46:56.000Z</time>
      </trkpt>
      <trkpt lat="41.792387" lon="22.976206">
        <ele>1580.1</ele>
        <time>2026-05-06T11:46:57.000Z</time>
      </trkpt>
      <trkpt lat="41.792387" lon="22.976206">
        <ele>1580</ele>
        <time>2026-05-06T11:46:58.000Z</time>
      </trkpt>
      <trkpt lat="41.792387" lon="22.976206">
        <ele>1580</ele>
        <time>2026-05-06T11:46:59.000Z</time>
      </trkpt>
      <trkpt lat="41.792387" lon="22.976206">
        <ele>1580</ele>
        <time>2026-05-06T11:47:00.000Z</time>
      </trkpt>
      <trkpt lat="41.792388" lon="22.976206">
        <ele>1580</ele>
        <time>2026-05-06T11:47:01.000Z</time>
      </trkpt>
      <trkpt lat="41.792388" lon="22.976206">
        <ele>1580</ele>
        <time>2026-05-06T11:47:02.000Z</time>
      </trkpt>
      <trkpt lat="41.792388" lon="22.976206">
        <ele>1580.1</ele>
        <time>2026-05-06T11:47:03.000Z</time>
      </trkpt>
      <trkpt lat="41.792388" lon="22.976206">
        <ele>1580.1</ele>
        <time>2026-05-06T11:47:04.000Z</time>
      </trkpt>
      <trkpt lat="41.792388" lon="22.976206">
        <ele>1580.1</ele>
        <time>2026-05-06T11:47:05.000Z</time>
      </trkpt>
      <trkpt lat="41.792388" lon="22.976206">
        <ele>1580.1</ele>
        <time>2026-05-06T11:47:06.000Z</time>
      </trkpt>
      <trkpt lat="41.792388" lon="22.976206">
        <ele>1580.1</ele>
        <time>2026-05-06T11:47:07.000Z</time>
      </trkpt>
      <trkpt lat="41.792388" lon="22.976206">
        <ele>1580.2</ele>
        <time>2026-05-06T11:47:08.000Z</time>
      </trkpt>
      <trkpt lat="41.792388" lon="22.976206">
        <ele>1580.2</ele>
        <time>2026-05-06T11:47:09.000Z</time>
      </trkpt>
      <trkpt lat="41.792388" lon="22.976206">
        <ele>1580.2</ele>
        <time>2026-05-06T11:47:10.000Z</time>
      </trkpt>
      <trkpt lat="41.792388" lon="22.976206">
        <ele>1580.2</ele>
        <time>2026-05-06T11:47:11.000Z</time>
      </trkpt>
      <trkpt lat="41.792389" lon="22.976206">
        <ele>1580.2</ele>
        <time>2026-05-06T11:47:12.000Z</time>
      </trkpt>
      <trkpt lat="41.792389" lon="22.976206">
        <ele>1580.3</ele>
        <time>2026-05-06T11:47:13.000Z</time>
      </trkpt>
      <trkpt lat="41.792389" lon="22.976207">
        <ele>1580.3</ele>
        <time>2026-05-06T11:47:14.000Z</time>
      </trkpt>
      <trkpt lat="41.792389" lon="22.976207">
        <ele>1580.3</ele>
        <time>2026-05-06T11:47:15.000Z</time>
      </trkpt>
      <trkpt lat="41.792389" lon="22.976206">
        <ele>1580.3</ele>
        <time>2026-05-06T11:47:16.000Z</time>
      </trkpt>
      <trkpt lat="41.792388" lon="22.976204">
        <ele>1580.3</ele>
        <time>2026-05-06T11:47:17.000Z</time>
      </trkpt>
      <trkpt lat="41.792387" lon="22.976202">
        <ele>1580.4</ele>
        <time>2026-05-06T11:47:18.000Z</time>
      </trkpt>
      <trkpt lat="41.792386" lon="22.976198">
        <ele>1580.4</ele>
        <time>2026-05-06T11:47:19.000Z</time>
      </trkpt>
      <trkpt lat="41.792386" lon="22.97619">
        <ele>1580.4</ele>
        <time>2026-05-06T11:47:20.000Z</time>
      </trkpt>
      <trkpt lat="41.792385" lon="22.976181">
        <ele>1580.4</ele>
        <time>2026-05-06T11:47:21.000Z</time>
      </trkpt>
      <trkpt lat="41.792386" lon="22.976169">
        <ele>1580.4</ele>
        <time>2026-05-06T11:47:22.000Z</time>
      </trkpt>
      <trkpt lat="41.792387" lon="22.976154">
        <ele>1580.5</ele>
        <time>2026-05-06T11:47:23.000Z</time>
      </trkpt>
      <trkpt lat="41.792387" lon="22.97614">
        <ele>1580.5</ele>
        <time>2026-05-06T11:47:24.000Z</time>
      </trkpt>
      <trkpt lat="41.792388" lon="22.976127">
        <ele>1580.5</ele>
        <time>2026-05-06T11:47:25.000Z</time>
      </trkpt>
      <trkpt lat="41.792388" lon="22.976116">
        <ele>1580.5</ele>
        <time>2026-05-06T11:47:26.000Z</time>
      </trkpt>
      <trkpt lat="41.792387" lon="22.976105">
        <ele>1580.5</ele>
        <time>2026-05-06T11:47:27.000Z</time>
      </trkpt>
      <trkpt lat="41.792384" lon="22.976093">
        <ele>1580.5</ele>
        <time>2026-05-06T11:47:28.000Z</time>
      </trkpt>
      <trkpt lat="41.792381" lon="22.976081">
        <ele>1580.5</ele>
        <time>2026-05-06T11:47:29.000Z</time>
      </trkpt>
      <trkpt lat="41.792377" lon="22.976068">
        <ele>1580.5</ele>
        <time>2026-05-06T11:47:30.000Z</time>
      </trkpt>
      <trkpt lat="41.792374" lon="22.976054">
        <ele>1580.5</ele>
        <time>2026-05-06T11:47:31.000Z</time>
      </trkpt>
      <trkpt lat="41.792372" lon="22.976038">
        <ele>1580.5</ele>
        <time>2026-05-06T11:47:32.000Z</time>
      </trkpt>
      <trkpt lat="41.792372" lon="22.976023">
        <ele>1580.6</ele>
        <time>2026-05-06T11:47:33.000Z</time>
      </trkpt>
      <trkpt lat="41.792374" lon="22.976009">
        <ele>1580.6</ele>
        <time>2026-05-06T11:47:34.000Z</time>
      </trkpt>
      <trkpt lat="41.792374" lon="22.975995">
        <ele>1580.6</ele>
        <time>2026-05-06T11:47:35.000Z</time>
      </trkpt>
      <trkpt lat="41.792375" lon="22.975981">
        <ele>1580.6</ele>
        <time>2026-05-06T11:47:36.000Z</time>
      </trkpt>
      <trkpt lat="41.792375" lon="22.975969">
        <ele>1580.6</ele>
        <time>2026-05-06T11:47:37.000Z</time>
      </trkpt>
      <trkpt lat="41.792374" lon="22.975958">
        <ele>1581</ele>
        <time>2026-05-06T11:47:38.000Z</time>
      </trkpt>
      <trkpt lat="41.792373" lon="22.975948">
        <ele>1581</ele>
        <time>2026-05-06T11:47:39.000Z</time>
      </trkpt>
      <trkpt lat="41.792372" lon="22.975937">
        <ele>1581</ele>
        <time>2026-05-06T11:47:40.000Z</time>
      </trkpt>
      <trkpt lat="41.792369" lon="22.975927">
        <ele>1581</ele>
        <time>2026-05-06T11:47:41.000Z</time>
      </trkpt>
      <trkpt lat="41.792367" lon="22.975917">
        <ele>1581</ele>
        <time>2026-05-06T11:47:42.000Z</time>
      </trkpt>
      <trkpt lat="41.792364" lon="22.975905">
        <ele>1581.9</ele>
        <time>2026-05-06T11:47:43.000Z</time>
      </trkpt>
      <trkpt lat="41.792361" lon="22.975892">
        <ele>1581.9</ele>
        <time>2026-05-06T11:47:44.000Z</time>
      </trkpt>
      <trkpt lat="41.792358" lon="22.975881">
        <ele>1581.9</ele>
        <time>2026-05-06T11:47:45.000Z</time>
      </trkpt>
      <trkpt lat="41.792356" lon="22.975869">
        <ele>1581.9</ele>
        <time>2026-05-06T11:47:46.000Z</time>
      </trkpt>
      <trkpt lat="41.792353" lon="22.975856">
        <ele>1581.9</ele>
        <time>2026-05-06T11:47:47.000Z</time>
      </trkpt>
      <trkpt lat="41.792352" lon="22.975843">
        <ele>1582.4</ele>
        <time>2026-05-06T11:47:48.000Z</time>
      </trkpt>
      <trkpt lat="41.79235" lon="22.97583">
        <ele>1582.4</ele>
        <time>2026-05-06T11:47:49.000Z</time>
      </trkpt>
      <trkpt lat="41.792347" lon="22.975816">
        <ele>1582.4</ele>
        <time>2026-05-06T11:47:50.000Z</time>
      </trkpt>
      <trkpt lat="41.792346" lon="22.975802">
        <ele>1582.4</ele>
        <time>2026-05-06T11:47:51.000Z</time>
      </trkpt>
      <trkpt lat="41.792344" lon="22.975787">
        <ele>1582.4</ele>
        <time>2026-05-06T11:47:52.000Z</time>
      </trkpt>
      <trkpt lat="41.792342" lon="22.975771">
        <ele>1583.6</ele>
        <time>2026-05-06T11:47:53.000Z</time>
      </trkpt>
      <trkpt lat="41.792341" lon="22.975755">
        <ele>1583.6</ele>
        <time>2026-05-06T11:47:54.000Z</time>
      </trkpt>
      <trkpt lat="41.792341" lon="22.975737">
        <ele>1583.6</ele>
        <time>2026-05-06T11:47:55.000Z</time>
      </trkpt>
      <trkpt lat="41.792342" lon="22.975719">
        <ele>1583.6</ele>
        <time>2026-05-06T11:47:56.000Z</time>
      </trkpt>
      <trkpt lat="41.792344" lon="22.975701">
        <ele>1583.6</ele>
        <time>2026-05-06T11:47:57.000Z</time>
      </trkpt>
      <trkpt lat="41.792346" lon="22.975685">
        <ele>1584.6</ele>
        <time>2026-05-06T11:47:58.000Z</time>
      </trkpt>
      <trkpt lat="41.792348" lon="22.97567">
        <ele>1584.6</ele>
        <time>2026-05-06T11:47:59.000Z</time>
      </trkpt>
      <trkpt lat="41.79235" lon="22.975656">
        <ele>1584.6</ele>
        <time>2026-05-06T11:48:00.000Z</time>
      </trkpt>
      <trkpt lat="41.792351" lon="22.975646">
        <ele>1584.6</ele>
        <time>2026-05-06T11:48:01.000Z</time>
      </trkpt>
      <trkpt lat="41.79235" lon="22.975637">
        <ele>1584.6</ele>
        <time>2026-05-06T11:48:02.000Z</time>
      </trkpt>
      <trkpt lat="41.792349" lon="22.975628">
        <ele>1585</ele>
        <time>2026-05-06T11:48:03.000Z</time>
      </trkpt>
      <trkpt lat="41.792349" lon="22.975619">
        <ele>1585</ele>
        <time>2026-05-06T11:48:04.000Z</time>
      </trkpt>
      <trkpt lat="41.792348" lon="22.97561">
        <ele>1585</ele>
        <time>2026-05-06T11:48:05.000Z</time>
      </trkpt>
      <trkpt lat="41.792346" lon="22.975601">
        <ele>1585</ele>
        <time>2026-05-06T11:48:06.000Z</time>
      </trkpt>
      <trkpt lat="41.792345" lon="22.975592">
        <ele>1585</ele>
        <time>2026-05-06T11:48:07.000Z</time>
      </trkpt>
      <trkpt lat="41.792344" lon="22.975581">
        <ele>1585.9</ele>
        <time>2026-05-06T11:48:08.000Z</time>
      </trkpt>
      <trkpt lat="41.792344" lon="22.975569">
        <ele>1585.9</ele>
        <time>2026-05-06T11:48:09.000Z</time>
      </trkpt>
      <trkpt lat="41.792345" lon="22.975556">
        <ele>1585.9</ele>
        <time>2026-05-06T11:48:10.000Z</time>
      </trkpt>
      <trkpt lat="41.792348" lon="22.975543">
        <ele>1585.9</ele>
        <time>2026-05-06T11:48:11.000Z</time>
      </trkpt>
      <trkpt lat="41.79235" lon="22.975528">
        <ele>1585.9</ele>
        <time>2026-05-06T11:48:12.000Z</time>
      </trkpt>
      <trkpt lat="41.792353" lon="22.975514">
        <ele>1586.7</ele>
        <time>2026-05-06T11:48:13.000Z</time>
      </trkpt>
      <trkpt lat="41.792356" lon="22.975501">
        <ele>1586.7</ele>
        <time>2026-05-06T11:48:14.000Z</time>
      </trkpt>
      <trkpt lat="41.792358" lon="22.975488">
        <ele>1586.7</ele>
        <time>2026-05-06T11:48:15.000Z</time>
      </trkpt>
      <trkpt lat="41.792359" lon="22.975477">
        <ele>1586.7</ele>
        <time>2026-05-06T11:48:16.000Z</time>
      </trkpt>
      <trkpt lat="41.792361" lon="22.975467">
        <ele>1586.7</ele>
        <time>2026-05-06T11:48:17.000Z</time>
      </trkpt>
      <trkpt lat="41.792362" lon="22.975457">
        <ele>1587.2</ele>
        <time>2026-05-06T11:48:18.000Z</time>
      </trkpt>
      <trkpt lat="41.792362" lon="22.975447">
        <ele>1587.2</ele>
        <time>2026-05-06T11:48:19.000Z</time>
      </trkpt>
      <trkpt lat="41.792363" lon="22.975436">
        <ele>1587.2</ele>
        <time>2026-05-06T11:48:20.000Z</time>
      </trkpt>
      <trkpt lat="41.792363" lon="22.975424">
        <ele>1587.2</ele>
        <time>2026-05-06T11:48:21.000Z</time>
      </trkpt>
      <trkpt lat="41.792363" lon="22.975413">
        <ele>1587.2</ele>
        <time>2026-05-06T11:48:22.000Z</time>
      </trkpt>
      <trkpt lat="41.792364" lon="22.975402">
        <ele>1588.3</ele>
        <time>2026-05-06T11:48:23.000Z</time>
      </trkpt>
      <trkpt lat="41.792366" lon="22.975392">
        <ele>1588.3</ele>
        <time>2026-05-06T11:48:24.000Z</time>
      </trkpt>
      <trkpt lat="41.792369" lon="22.975382">
        <ele>1588.3</ele>
        <time>2026-05-06T11:48:25.000Z</time>
      </trkpt>
      <trkpt lat="41.792372" lon="22.975372">
        <ele>1588.3</ele>
        <time>2026-05-06T11:48:26.000Z</time>
      </trkpt>
      <trkpt lat="41.792376" lon="22.975362">
        <ele>1588.3</ele>
        <time>2026-05-06T11:48:27.000Z</time>
      </trkpt>
      <trkpt lat="41.792378" lon="22.975352">
        <ele>1589.2</ele>
        <time>2026-05-06T11:48:28.000Z</time>
      </trkpt>
      <trkpt lat="41.792379" lon="22.975339">
        <ele>1589.2</ele>
        <time>2026-05-06T11:48:29.000Z</time>
      </trkpt>
      <trkpt lat="41.792378" lon="22.975326">
        <ele>1589.2</ele>
        <time>2026-05-06T11:48:30.000Z</time>
      </trkpt>
      <trkpt lat="41.792377" lon="22.975311">
        <ele>1589.2</ele>
        <time>2026-05-06T11:48:31.000Z</time>
      </trkpt>
      <trkpt lat="41.792375" lon="22.975295">
        <ele>1589.2</ele>
        <time>2026-05-06T11:48:32.000Z</time>
      </trkpt>
      <trkpt lat="41.792376" lon="22.975278">
        <ele>1589.5</ele>
        <time>2026-05-06T11:48:33.000Z</time>
      </trkpt>
      <trkpt lat="41.792377" lon="22.975264">
        <ele>1589.5</ele>
        <time>2026-05-06T11:48:34.000Z</time>
      </trkpt>
      <trkpt lat="41.792377" lon="22.975249">
        <ele>1589.5</ele>
        <time>2026-05-06T11:48:35.000Z</time>
      </trkpt>
      <trkpt lat="41.792379" lon="22.975233">
        <ele>1589.5</ele>
        <time>2026-05-06T11:48:36.000Z</time>
      </trkpt>
      <trkpt lat="41.792379" lon="22.975218">
        <ele>1589.5</ele>
        <time>2026-05-06T11:48:37.000Z</time>
      </trkpt>
      <trkpt lat="41.792378" lon="22.975203">
        <ele>1590</ele>
        <time>2026-05-06T11:48:38.000Z</time>
      </trkpt>
      <trkpt lat="41.792378" lon="22.975188">
        <ele>1590</ele>
        <time>2026-05-06T11:48:39.000Z</time>
      </trkpt>
      <trkpt lat="41.792378" lon="22.975176">
        <ele>1590</ele>
        <time>2026-05-06T11:48:40.000Z</time>
      </trkpt>
      <trkpt lat="41.792378" lon="22.975165">
        <ele>1590</ele>
        <time>2026-05-06T11:48:41.000Z</time>
      </trkpt>
      <trkpt lat="41.792381" lon="22.975155">
        <ele>1590</ele>
        <time>2026-05-06T11:48:42.000Z</time>
      </trkpt>
      <trkpt lat="41.792383" lon="22.975146">
        <ele>1590.3</ele>
        <time>2026-05-06T11:48:43.000Z</time>
      </trkpt>
      <trkpt lat="41.792385" lon="22.975135">
        <ele>1590.3</ele>
        <time>2026-05-06T11:48:44.000Z</time>
      </trkpt>
      <trkpt lat="41.792388" lon="22.975125">
        <ele>1590.3</ele>
        <time>2026-05-06T11:48:45.000Z</time>
      </trkpt>
      <trkpt lat="41.79239" lon="22.975114">
        <ele>1590.3</ele>
        <time>2026-05-06T11:48:46.000Z</time>
      </trkpt>
      <trkpt lat="41.792391" lon="22.975102">
        <ele>1590.3</ele>
        <time>2026-05-06T11:48:47.000Z</time>
      </trkpt>
      <trkpt lat="41.792393" lon="22.975091">
        <ele>1590.5</ele>
        <time>2026-05-06T11:48:48.000Z</time>
      </trkpt>
      <trkpt lat="41.792393" lon="22.975082">
        <ele>1590.5</ele>
        <time>2026-05-06T11:48:49.000Z</time>
      </trkpt>
      <trkpt lat="41.792394" lon="22.975072">
        <ele>1590.5</ele>
        <time>2026-05-06T11:48:50.000Z</time>
      </trkpt>
      <trkpt lat="41.792395" lon="22.97506">
        <ele>1590.5</ele>
        <time>2026-05-06T11:48:51.000Z</time>
      </trkpt>
      <trkpt lat="41.792395" lon="22.975049">
        <ele>1590.5</ele>
        <time>2026-05-06T11:48:52.000Z</time>
      </trkpt>
      <trkpt lat="41.792396" lon="22.975037">
        <ele>1590.9</ele>
        <time>2026-05-06T11:48:53.000Z</time>
      </trkpt>
      <trkpt lat="41.792398" lon="22.975025">
        <ele>1590.9</ele>
        <time>2026-05-06T11:48:54.000Z</time>
      </trkpt>
      <trkpt lat="41.792399" lon="22.975012">
        <ele>1590.9</ele>
        <time>2026-05-06T11:48:55.000Z</time>
      </trkpt>
      <trkpt lat="41.792401" lon="22.975002">
        <ele>1590.9</ele>
        <time>2026-05-06T11:48:56.000Z</time>
      </trkpt>
      <trkpt lat="41.792403" lon="22.97499">
        <ele>1590.9</ele>
        <time>2026-05-06T11:48:57.000Z</time>
      </trkpt>
      <trkpt lat="41.792404" lon="22.974979">
        <ele>1591.5</ele>
        <time>2026-05-06T11:48:58.000Z</time>
      </trkpt>
      <trkpt lat="41.792404" lon="22.974968">
        <ele>1591.5</ele>
        <time>2026-05-06T11:48:59.000Z</time>
      </trkpt>
      <trkpt lat="41.792404" lon="22.974956">
        <ele>1591.5</ele>
        <time>2026-05-06T11:49:00.000Z</time>
      </trkpt>
      <trkpt lat="41.792407" lon="22.974945">
        <ele>1591.5</ele>
        <time>2026-05-06T11:49:01.000Z</time>
      </trkpt>
      <trkpt lat="41.792409" lon="22.974934">
        <ele>1591.5</ele>
        <time>2026-05-06T11:49:02.000Z</time>
      </trkpt>
      <trkpt lat="41.792412" lon="22.974922">
        <ele>1591.8</ele>
        <time>2026-05-06T11:49:03.000Z</time>
      </trkpt>
      <trkpt lat="41.792415" lon="22.97491">
        <ele>1591.8</ele>
        <time>2026-05-06T11:49:04.000Z</time>
      </trkpt>
      <trkpt lat="41.792418" lon="22.974898">
        <ele>1591.8</ele>
        <time>2026-05-06T11:49:05.000Z</time>
      </trkpt>
      <trkpt lat="41.792419" lon="22.974885">
        <ele>1591.8</ele>
        <time>2026-05-06T11:49:06.000Z</time>
      </trkpt>
      <trkpt lat="41.792419" lon="22.974872">
        <ele>1591.8</ele>
        <time>2026-05-06T11:49:07.000Z</time>
      </trkpt>
      <trkpt lat="41.792421" lon="22.974859">
        <ele>1592.6</ele>
        <time>2026-05-06T11:49:08.000Z</time>
      </trkpt>
      <trkpt lat="41.792422" lon="22.974846">
        <ele>1592.6</ele>
        <time>2026-05-06T11:49:09.000Z</time>
      </trkpt>
      <trkpt lat="41.792423" lon="22.974835">
        <ele>1592.6</ele>
        <time>2026-05-06T11:49:10.000Z</time>
      </trkpt>
      <trkpt lat="41.792424" lon="22.974824">
        <ele>1592.6</ele>
        <time>2026-05-06T11:49:11.000Z</time>
      </trkpt>
      <trkpt lat="41.792425" lon="22.974815">
        <ele>1592.6</ele>
        <time>2026-05-06T11:49:12.000Z</time>
      </trkpt>
      <trkpt lat="41.792426" lon="22.974807">
        <ele>1593.3</ele>
        <time>2026-05-06T11:49:13.000Z</time>
      </trkpt>
      <trkpt lat="41.792428" lon="22.974799">
        <ele>1593.3</ele>
        <time>2026-05-06T11:49:14.000Z</time>
      </trkpt>
      <trkpt lat="41.792428" lon="22.974791">
        <ele>1593.3</ele>
        <time>2026-05-06T11:49:15.000Z</time>
      </trkpt>
      <trkpt lat="41.79243" lon="22.974783">
        <ele>1593.3</ele>
        <time>2026-05-06T11:49:16.000Z</time>
      </trkpt>
      <trkpt lat="41.792433" lon="22.974774">
        <ele>1593.3</ele>
        <time>2026-05-06T11:49:17.000Z</time>
      </trkpt>
      <trkpt lat="41.792437" lon="22.974762">
        <ele>1593.8</ele>
        <time>2026-05-06T11:49:18.000Z</time>
      </trkpt>
      <trkpt lat="41.792442" lon="22.97475">
        <ele>1593.8</ele>
        <time>2026-05-06T11:49:19.000Z</time>
      </trkpt>
      <trkpt lat="41.792446" lon="22.974739">
        <ele>1593.8</ele>
        <time>2026-05-06T11:49:20.000Z</time>
      </trkpt>
      <trkpt lat="41.79245" lon="22.974729">
        <ele>1593.8</ele>
        <time>2026-05-06T11:49:21.000Z</time>
      </trkpt>
      <trkpt lat="41.792453" lon="22.97472">
        <ele>1593.8</ele>
        <time>2026-05-06T11:49:22.000Z</time>
      </trkpt>
      <trkpt lat="41.792455" lon="22.974712">
        <ele>1594.9</ele>
        <time>2026-05-06T11:49:23.000Z</time>
      </trkpt>
      <trkpt lat="41.792455" lon="22.974705">
        <ele>1594.9</ele>
        <time>2026-05-06T11:49:24.000Z</time>
      </trkpt>
      <trkpt lat="41.792453" lon="22.974697">
        <ele>1594.9</ele>
        <time>2026-05-06T11:49:25.000Z</time>
      </trkpt>
      <trkpt lat="41.792451" lon="22.974686">
        <ele>1594.9</ele>
        <time>2026-05-06T11:49:26.000Z</time>
      </trkpt>
      <trkpt lat="41.79245" lon="22.974675">
        <ele>1594.9</ele>
        <time>2026-05-06T11:49:27.000Z</time>
      </trkpt>
      <trkpt lat="41.792448" lon="22.974663">
        <ele>1595.8</ele>
        <time>2026-05-06T11:49:28.000Z</time>
      </trkpt>
      <trkpt lat="41.792447" lon="22.97465">
        <ele>1595.8</ele>
        <time>2026-05-06T11:49:29.000Z</time>
      </trkpt>
      <trkpt lat="41.792448" lon="22.974637">
        <ele>1595.8</ele>
        <time>2026-05-06T11:49:30.000Z</time>
      </trkpt>
      <trkpt lat="41.79245" lon="22.974623">
        <ele>1595.8</ele>
        <time>2026-05-06T11:49:31.000Z</time>
      </trkpt>
      <trkpt lat="41.792452" lon="22.974609">
        <ele>1595.8</ele>
        <time>2026-05-06T11:49:32.000Z</time>
      </trkpt>
      <trkpt lat="41.792454" lon="22.974596">
        <ele>1596.2</ele>
        <time>2026-05-06T11:49:33.000Z</time>
      </trkpt>
      <trkpt lat="41.792456" lon="22.974583">
        <ele>1596.2</ele>
        <time>2026-05-06T11:49:34.000Z</time>
      </trkpt>
      <trkpt lat="41.792458" lon="22.974571">
        <ele>1596.2</ele>
        <time>2026-05-06T11:49:35.000Z</time>
      </trkpt>
      <trkpt lat="41.792459" lon="22.974559">
        <ele>1596.2</ele>
        <time>2026-05-06T11:49:36.000Z</time>
      </trkpt>
      <trkpt lat="41.79246" lon="22.974546">
        <ele>1596.2</ele>
        <time>2026-05-06T11:49:37.000Z</time>
      </trkpt>
      <trkpt lat="41.792463" lon="22.974534">
        <ele>1596.9</ele>
        <time>2026-05-06T11:49:38.000Z</time>
      </trkpt>
      <trkpt lat="41.792466" lon="22.974525">
        <ele>1596.9</ele>
        <time>2026-05-06T11:49:39.000Z</time>
      </trkpt>
      <trkpt lat="41.79247" lon="22.974516">
        <ele>1596.9</ele>
        <time>2026-05-06T11:49:40.000Z</time>
      </trkpt>
      <trkpt lat="41.792473" lon="22.97451">
        <ele>1596.9</ele>
        <time>2026-05-06T11:49:41.000Z</time>
      </trkpt>
      <trkpt lat="41.792476" lon="22.974507">
        <ele>1596.9</ele>
        <time>2026-05-06T11:49:42.000Z</time>
      </trkpt>
      <trkpt lat="41.792477" lon="22.974506">
        <ele>1597.5</ele>
        <time>2026-05-06T11:49:43.000Z</time>
      </trkpt>
      <trkpt lat="41.792476" lon="22.974505">
        <ele>1597.5</ele>
        <time>2026-05-06T11:49:44.000Z</time>
      </trkpt>
      <trkpt lat="41.792474" lon="22.974506">
        <ele>1597.5</ele>
        <time>2026-05-06T11:49:45.000Z</time>
      </trkpt>
      <trkpt lat="41.792473" lon="22.974506">
        <ele>1597.5</ele>
        <time>2026-05-06T11:49:46.000Z</time>
      </trkpt>
      <trkpt lat="41.792472" lon="22.974507">
        <ele>1597.5</ele>
        <time>2026-05-06T11:49:47.000Z</time>
      </trkpt>
      <trkpt lat="41.792471" lon="22.974506">
        <ele>1597.8</ele>
        <time>2026-05-06T11:49:48.000Z</time>
      </trkpt>
      <trkpt lat="41.79247" lon="22.974504">
        <ele>1597.8</ele>
        <time>2026-05-06T11:49:49.000Z</time>
      </trkpt>
      <trkpt lat="41.79247" lon="22.974499">
        <ele>1597.8</ele>
        <time>2026-05-06T11:49:50.000Z</time>
      </trkpt>
      <trkpt lat="41.792471" lon="22.974491">
        <ele>1597.8</ele>
        <time>2026-05-06T11:49:51.000Z</time>
      </trkpt>
      <trkpt lat="41.792472" lon="22.974481">
        <ele>1597.8</ele>
        <time>2026-05-06T11:49:52.000Z</time>
      </trkpt>
      <trkpt lat="41.792474" lon="22.974473">
        <ele>1598.2</ele>
        <time>2026-05-06T11:49:53.000Z</time>
      </trkpt>
      <trkpt lat="41.792475" lon="22.974464">
        <ele>1598.2</ele>
        <time>2026-05-06T11:49:54.000Z</time>
      </trkpt>
      <trkpt lat="41.792474" lon="22.974456">
        <ele>1598.2</ele>
        <time>2026-05-06T11:49:55.000Z</time>
      </trkpt>
      <trkpt lat="41.792473" lon="22.97445">
        <ele>1598.2</ele>
        <time>2026-05-06T11:49:56.000Z</time>
      </trkpt>
      <trkpt lat="41.79247" lon="22.974442">
        <ele>1598.2</ele>
        <time>2026-05-06T11:49:57.000Z</time>
      </trkpt>
      <trkpt lat="41.792469" lon="22.974434">
        <ele>1598.7</ele>
        <time>2026-05-06T11:49:58.000Z</time>
      </trkpt>
      <trkpt lat="41.792469" lon="22.974425">
        <ele>1598.7</ele>
        <time>2026-05-06T11:49:59.000Z</time>
      </trkpt>
      <trkpt lat="41.79247" lon="22.974415">
        <ele>1598.7</ele>
        <time>2026-05-06T11:50:00.000Z</time>
      </trkpt>
      <trkpt lat="41.792472" lon="22.974406">
        <ele>1598.7</ele>
        <time>2026-05-06T11:50:01.000Z</time>
      </trkpt>
      <trkpt lat="41.792474" lon="22.974397">
        <ele>1598.7</ele>
        <time>2026-05-06T11:50:02.000Z</time>
      </trkpt>
      <trkpt lat="41.792476" lon="22.974388">
        <ele>1598.9</ele>
        <time>2026-05-06T11:50:03.000Z</time>
      </trkpt>
      <trkpt lat="41.792476" lon="22.974379">
        <ele>1598.9</ele>
        <time>2026-05-06T11:50:04.000Z</time>
      </trkpt>
      <trkpt lat="41.792477" lon="22.974371">
        <ele>1598.9</ele>
        <time>2026-05-06T11:50:05.000Z</time>
      </trkpt>
      <trkpt lat="41.792477" lon="22.974361">
        <ele>1598.9</ele>
        <time>2026-05-06T11:50:06.000Z</time>
      </trkpt>
      <trkpt lat="41.792477" lon="22.974352">
        <ele>1598.9</ele>
        <time>2026-05-06T11:50:07.000Z</time>
      </trkpt>
      <trkpt lat="41.792477" lon="22.974341">
        <ele>1599.4</ele>
        <time>2026-05-06T11:50:08.000Z</time>
      </trkpt>
      <trkpt lat="41.792477" lon="22.974329">
        <ele>1599.4</ele>
        <time>2026-05-06T11:50:09.000Z</time>
      </trkpt>
      <trkpt lat="41.792477" lon="22.974317">
        <ele>1599.4</ele>
        <time>2026-05-06T11:50:10.000Z</time>
      </trkpt>
      <trkpt lat="41.792478" lon="22.974306">
        <ele>1599.4</ele>
        <time>2026-05-06T11:50:11.000Z</time>
      </trkpt>
      <trkpt lat="41.792481" lon="22.974293">
        <ele>1599.4</ele>
        <time>2026-05-06T11:50:12.000Z</time>
      </trkpt>
      <trkpt lat="41.792484" lon="22.974282">
        <ele>1600.1</ele>
        <time>2026-05-06T11:50:13.000Z</time>
      </trkpt>
      <trkpt lat="41.792488" lon="22.97427">
        <ele>1600.1</ele>
        <time>2026-05-06T11:50:14.000Z</time>
      </trkpt>
      <trkpt lat="41.79249" lon="22.974259">
        <ele>1600.1</ele>
        <time>2026-05-06T11:50:15.000Z</time>
      </trkpt>
      <trkpt lat="41.792492" lon="22.974248">
        <ele>1600.1</ele>
        <time>2026-05-06T11:50:16.000Z</time>
      </trkpt>
      <trkpt lat="41.792492" lon="22.974239">
        <ele>1600.1</ele>
        <time>2026-05-06T11:50:17.000Z</time>
      </trkpt>
      <trkpt lat="41.79249" lon="22.97423">
        <ele>1600.5</ele>
        <time>2026-05-06T11:50:18.000Z</time>
      </trkpt>
      <trkpt lat="41.792487" lon="22.974222">
        <ele>1600.5</ele>
        <time>2026-05-06T11:50:19.000Z</time>
      </trkpt>
      <trkpt lat="41.792485" lon="22.974213">
        <ele>1600.5</ele>
        <time>2026-05-06T11:50:20.000Z</time>
      </trkpt>
      <trkpt lat="41.792482" lon="22.974205">
        <ele>1600.5</ele>
        <time>2026-05-06T11:50:21.000Z</time>
      </trkpt>
      <trkpt lat="41.79248" lon="22.974196">
        <ele>1600.5</ele>
        <time>2026-05-06T11:50:22.000Z</time>
      </trkpt>
      <trkpt lat="41.792479" lon="22.974185">
        <ele>1601.6</ele>
        <time>2026-05-06T11:50:23.000Z</time>
      </trkpt>
      <trkpt lat="41.792479" lon="22.974175">
        <ele>1601.6</ele>
        <time>2026-05-06T11:50:24.000Z</time>
      </trkpt>
      <trkpt lat="41.792479" lon="22.974167">
        <ele>1601.6</ele>
        <time>2026-05-06T11:50:25.000Z</time>
      </trkpt>
      <trkpt lat="41.792481" lon="22.97416">
        <ele>1601.6</ele>
        <time>2026-05-06T11:50:26.000Z</time>
      </trkpt>
      <trkpt lat="41.792482" lon="22.974157">
        <ele>1601.6</ele>
        <time>2026-05-06T11:50:27.000Z</time>
      </trkpt>
      <trkpt lat="41.792485" lon="22.974156">
        <ele>1602.6</ele>
        <time>2026-05-06T11:50:28.000Z</time>
      </trkpt>
      <trkpt lat="41.792486" lon="22.974157">
        <ele>1602.6</ele>
        <time>2026-05-06T11:50:29.000Z</time>
      </trkpt>
      <trkpt lat="41.792488" lon="22.974157">
        <ele>1602.6</ele>
        <time>2026-05-06T11:50:30.000Z</time>
      </trkpt>
      <trkpt lat="41.79249" lon="22.974158">
        <ele>1602.6</ele>
        <time>2026-05-06T11:50:31.000Z</time>
      </trkpt>
      <trkpt lat="41.792493" lon="22.974159">
        <ele>1602.6</ele>
        <time>2026-05-06T11:50:32.000Z</time>
      </trkpt>
      <trkpt lat="41.792496" lon="22.97416">
        <ele>1603.1</ele>
        <time>2026-05-06T11:50:33.000Z</time>
      </trkpt>
      <trkpt lat="41.792498" lon="22.974161">
        <ele>1603.1</ele>
        <time>2026-05-06T11:50:34.000Z</time>
      </trkpt>
      <trkpt lat="41.7925" lon="22.97416">
        <ele>1603.1</ele>
        <time>2026-05-06T11:50:35.000Z</time>
      </trkpt>
      <trkpt lat="41.792499" lon="22.974158">
        <ele>1603.1</ele>
        <time>2026-05-06T11:50:36.000Z</time>
      </trkpt>
      <trkpt lat="41.792497" lon="22.974154">
        <ele>1603.1</ele>
        <time>2026-05-06T11:50:37.000Z</time>
      </trkpt>
      <trkpt lat="41.792495" lon="22.97415">
        <ele>1604</ele>
        <time>2026-05-06T11:50:38.000Z</time>
      </trkpt>
      <trkpt lat="41.792492" lon="22.974144">
        <ele>1604</ele>
        <time>2026-05-06T11:50:39.000Z</time>
      </trkpt>
      <trkpt lat="41.792491" lon="22.97414">
        <ele>1604</ele>
        <time>2026-05-06T11:50:40.000Z</time>
      </trkpt>
      <trkpt lat="41.792491" lon="22.974137">
        <ele>1604</ele>
        <time>2026-05-06T11:50:41.000Z</time>
      </trkpt>
      <trkpt lat="41.792491" lon="22.974133">
        <ele>1604</ele>
        <time>2026-05-06T11:50:42.000Z</time>
      </trkpt>
      <trkpt lat="41.792492" lon="22.97413">
        <ele>1604.4</ele>
        <time>2026-05-06T11:50:43.000Z</time>
      </trkpt>
      <trkpt lat="41.792494" lon="22.974128">
        <ele>1604.4</ele>
        <time>2026-05-06T11:50:44.000Z</time>
      </trkpt>
      <trkpt lat="41.792496" lon="22.974126">
        <ele>1604.4</ele>
        <time>2026-05-06T11:50:45.000Z</time>
      </trkpt>
      <trkpt lat="41.792496" lon="22.974124">
        <ele>1604.4</ele>
        <time>2026-05-06T11:50:46.000Z</time>
      </trkpt>
      <trkpt lat="41.792497" lon="22.974123">
        <ele>1604.4</ele>
        <time>2026-05-06T11:50:47.000Z</time>
      </trkpt>
      <trkpt lat="41.792498" lon="22.974123">
        <ele>1604.4</ele>
        <time>2026-05-06T11:50:48.000Z</time>
      </trkpt>
      <trkpt lat="41.792497" lon="22.974122">
        <ele>1604.4</ele>
        <time>2026-05-06T11:50:49.000Z</time>
      </trkpt>
      <trkpt lat="41.792498" lon="22.974122">
        <ele>1604.4</ele>
        <time>2026-05-06T11:50:50.000Z</time>
      </trkpt>
      <trkpt lat="41.7925" lon="22.974122">
        <ele>1604.4</ele>
        <time>2026-05-06T11:50:51.000Z</time>
      </trkpt>
      <trkpt lat="41.792501" lon="22.974122">
        <ele>1604.4</ele>
        <time>2026-05-06T11:50:52.000Z</time>
      </trkpt>
      <trkpt lat="41.792503" lon="22.974121">
        <ele>1604.5</ele>
        <time>2026-05-06T11:50:53.000Z</time>
      </trkpt>
      <trkpt lat="41.792506" lon="22.97412">
        <ele>1604.5</ele>
        <time>2026-05-06T11:50:54.000Z</time>
      </trkpt>
      <trkpt lat="41.792508" lon="22.97412">
        <ele>1604.5</ele>
        <time>2026-05-06T11:50:55.000Z</time>
      </trkpt>
      <trkpt lat="41.792509" lon="22.974118">
        <ele>1604.5</ele>
        <time>2026-05-06T11:50:56.000Z</time>
      </trkpt>
      <trkpt lat="41.792509" lon="22.974116">
        <ele>1604.5</ele>
        <time>2026-05-06T11:50:57.000Z</time>
      </trkpt>
      <trkpt lat="41.792509" lon="22.974112">
        <ele>1604.7</ele>
        <time>2026-05-06T11:50:58.000Z</time>
      </trkpt>
      <trkpt lat="41.792509" lon="22.974108">
        <ele>1604.7</ele>
        <time>2026-05-06T11:50:59.000Z</time>
      </trkpt>
      <trkpt lat="41.792509" lon="22.974102">
        <ele>1604.7</ele>
        <time>2026-05-06T11:51:00.000Z</time>
      </trkpt>
      <trkpt lat="41.792509" lon="22.974094">
        <ele>1604.7</ele>
        <time>2026-05-06T11:51:01.000Z</time>
      </trkpt>
      <trkpt lat="41.792508" lon="22.974085">
        <ele>1604.7</ele>
        <time>2026-05-06T11:51:02.000Z</time>
      </trkpt>
      <trkpt lat="41.792506" lon="22.974077">
        <ele>1604.7</ele>
        <time>2026-05-06T11:51:03.000Z</time>
      </trkpt>
      <trkpt lat="41.792501" lon="22.97407">
        <ele>1604.7</ele>
        <time>2026-05-06T11:51:04.000Z</time>
      </trkpt>
      <trkpt lat="41.792496" lon="22.974062">
        <ele>1604.7</ele>
        <time>2026-05-06T11:51:05.000Z</time>
      </trkpt>
      <trkpt lat="41.79249" lon="22.974056">
        <ele>1604.7</ele>
        <time>2026-05-06T11:51:06.000Z</time>
      </trkpt>
      <trkpt lat="41.792485" lon="22.974052">
        <ele>1604.7</ele>
        <time>2026-05-06T11:51:07.000Z</time>
      </trkpt>
      <trkpt lat="41.792481" lon="22.974045">
        <ele>1604.7</ele>
        <time>2026-05-06T11:51:08.000Z</time>
      </trkpt>
      <trkpt lat="41.792478" lon="22.974038">
        <ele>1604.7</ele>
        <time>2026-05-06T11:51:09.000Z</time>
      </trkpt>
      <trkpt lat="41.792475" lon="22.974032">
        <ele>1604.7</ele>
        <time>2026-05-06T11:51:10.000Z</time>
      </trkpt>
      <trkpt lat="41.792472" lon="22.974026">
        <ele>1604.7</ele>
        <time>2026-05-06T11:51:11.000Z</time>
      </trkpt>
      <trkpt lat="41.792469" lon="22.97402">
        <ele>1604.7</ele>
        <time>2026-05-06T11:51:12.000Z</time>
      </trkpt>
      <trkpt lat="41.792465" lon="22.974014">
        <ele>1605</ele>
        <time>2026-05-06T11:51:13.000Z</time>
      </trkpt>
      <trkpt lat="41.792461" lon="22.974009">
        <ele>1605</ele>
        <time>2026-05-06T11:51:14.000Z</time>
      </trkpt>
      <trkpt lat="41.792456" lon="22.974001">
        <ele>1605</ele>
        <time>2026-05-06T11:51:15.000Z</time>
      </trkpt>
      <trkpt lat="41.792451" lon="22.973994">
        <ele>1605</ele>
        <time>2026-05-06T11:51:16.000Z</time>
      </trkpt>
      <trkpt lat="41.792446" lon="22.973986">
        <ele>1605</ele>
        <time>2026-05-06T11:51:17.000Z</time>
      </trkpt>
      <trkpt lat="41.792442" lon="22.973978">
        <ele>1605.2</ele>
        <time>2026-05-06T11:51:18.000Z</time>
      </trkpt>
      <trkpt lat="41.792438" lon="22.973971">
        <ele>1605.2</ele>
        <time>2026-05-06T11:51:19.000Z</time>
      </trkpt>
      <trkpt lat="41.792435" lon="22.973962">
        <ele>1605.2</ele>
        <time>2026-05-06T11:51:20.000Z</time>
      </trkpt>
      <trkpt lat="41.792431" lon="22.973955">
        <ele>1605.2</ele>
        <time>2026-05-06T11:51:21.000Z</time>
      </trkpt>
      <trkpt lat="41.792429" lon="22.973947">
        <ele>1605.2</ele>
        <time>2026-05-06T11:51:22.000Z</time>
      </trkpt>
      <trkpt lat="41.792425" lon="22.973938">
        <ele>1606.1</ele>
        <time>2026-05-06T11:51:23.000Z</time>
      </trkpt>
      <trkpt lat="41.792422" lon="22.97393">
        <ele>1606.1</ele>
        <time>2026-05-06T11:51:24.000Z</time>
      </trkpt>
      <trkpt lat="41.792417" lon="22.973921">
        <ele>1606.1</ele>
        <time>2026-05-06T11:51:25.000Z</time>
      </trkpt>
      <trkpt lat="41.792413" lon="22.973913">
        <ele>1606.1</ele>
        <time>2026-05-06T11:51:26.000Z</time>
      </trkpt>
      <trkpt lat="41.792408" lon="22.973903">
        <ele>1606.1</ele>
        <time>2026-05-06T11:51:27.000Z</time>
      </trkpt>
      <trkpt lat="41.792404" lon="22.973894">
        <ele>1607.1</ele>
        <time>2026-05-06T11:51:28.000Z</time>
      </trkpt>
      <trkpt lat="41.792401" lon="22.973887">
        <ele>1607.1</ele>
        <time>2026-05-06T11:51:29.000Z</time>
      </trkpt>
      <trkpt lat="41.792399" lon="22.973879">
        <ele>1607.1</ele>
        <time>2026-05-06T11:51:30.000Z</time>
      </trkpt>
      <trkpt lat="41.792397" lon="22.973871">
        <ele>1607.1</ele>
        <time>2026-05-06T11:51:31.000Z</time>
      </trkpt>
      <trkpt lat="41.792394" lon="22.973863">
        <ele>1607.1</ele>
        <time>2026-05-06T11:51:32.000Z</time>
      </trkpt>
      <trkpt lat="41.792391" lon="22.973856">
        <ele>1607.7</ele>
        <time>2026-05-06T11:51:33.000Z</time>
      </trkpt>
      <trkpt lat="41.792389" lon="22.973848">
        <ele>1607.7</ele>
        <time>2026-05-06T11:51:34.000Z</time>
      </trkpt>
      <trkpt lat="41.792386" lon="22.973841">
        <ele>1607.7</ele>
        <time>2026-05-06T11:51:35.000Z</time>
      </trkpt>
      <trkpt lat="41.792384" lon="22.973834">
        <ele>1607.7</ele>
        <time>2026-05-06T11:51:36.000Z</time>
      </trkpt>
      <trkpt lat="41.792383" lon="22.973827">
        <ele>1607.7</ele>
        <time>2026-05-06T11:51:37.000Z</time>
      </trkpt>
      <trkpt lat="41.792381" lon="22.973818">
        <ele>1608.9</ele>
        <time>2026-05-06T11:51:38.000Z</time>
      </trkpt>
      <trkpt lat="41.792379" lon="22.973809">
        <ele>1608.9</ele>
        <time>2026-05-06T11:51:39.000Z</time>
      </trkpt>
      <trkpt lat="41.792377" lon="22.973798">
        <ele>1608.9</ele>
        <time>2026-05-06T11:51:40.000Z</time>
      </trkpt>
      <trkpt lat="41.792374" lon="22.973786">
        <ele>1608.9</ele>
        <time>2026-05-06T11:51:41.000Z</time>
      </trkpt>
      <trkpt lat="41.792373" lon="22.973775">
        <ele>1608.9</ele>
        <time>2026-05-06T11:51:42.000Z</time>
      </trkpt>
      <trkpt lat="41.792371" lon="22.973765">
        <ele>1610</ele>
        <time>2026-05-06T11:51:43.000Z</time>
      </trkpt>
      <trkpt lat="41.792368" lon="22.973755">
        <ele>1610</ele>
        <time>2026-05-06T11:51:44.000Z</time>
      </trkpt>
      <trkpt lat="41.792366" lon="22.973746">
        <ele>1610</ele>
        <time>2026-05-06T11:51:45.000Z</time>
      </trkpt>
      <trkpt lat="41.792363" lon="22.973738">
        <ele>1610</ele>
        <time>2026-05-06T11:51:46.000Z</time>
      </trkpt>
      <trkpt lat="41.79236" lon="22.973732">
        <ele>1610</ele>
        <time>2026-05-06T11:51:47.000Z</time>
      </trkpt>
      <trkpt lat="41.792358" lon="22.973725">
        <ele>1610.5</ele>
        <time>2026-05-06T11:51:48.000Z</time>
      </trkpt>
      <trkpt lat="41.792355" lon="22.973719">
        <ele>1610.5</ele>
        <time>2026-05-06T11:51:49.000Z</time>
      </trkpt>
      <trkpt lat="41.792353" lon="22.973712">
        <ele>1610.5</ele>
        <time>2026-05-06T11:51:50.000Z</time>
      </trkpt>
      <trkpt lat="41.79235" lon="22.973705">
        <ele>1610.5</ele>
        <time>2026-05-06T11:51:51.000Z</time>
      </trkpt>
      <trkpt lat="41.792347" lon="22.973696">
        <ele>1610.5</ele>
        <time>2026-05-06T11:51:52.000Z</time>
      </trkpt>
      <trkpt lat="41.792344" lon="22.973686">
        <ele>1611.4</ele>
        <time>2026-05-06T11:51:53.000Z</time>
      </trkpt>
      <trkpt lat="41.79234" lon="22.973677">
        <ele>1611.4</ele>
        <time>2026-05-06T11:51:54.000Z</time>
      </trkpt>
      <trkpt lat="41.792337" lon="22.973667">
        <ele>1611.4</ele>
        <time>2026-05-06T11:51:55.000Z</time>
      </trkpt>
      <trkpt lat="41.792334" lon="22.973657">
        <ele>1611.4</ele>
        <time>2026-05-06T11:51:56.000Z</time>
      </trkpt>
      <trkpt lat="41.792331" lon="22.973648">
        <ele>1611.4</ele>
        <time>2026-05-06T11:51:57.000Z</time>
      </trkpt>
      <trkpt lat="41.792328" lon="22.973639">
        <ele>1612.5</ele>
        <time>2026-05-06T11:51:58.000Z</time>
      </trkpt>
      <trkpt lat="41.792326" lon="22.97363">
        <ele>1612.5</ele>
        <time>2026-05-06T11:51:59.000Z</time>
      </trkpt>
      <trkpt lat="41.792325" lon="22.973621">
        <ele>1612.5</ele>
        <time>2026-05-06T11:52:00.000Z</time>
      </trkpt>
      <trkpt lat="41.792323" lon="22.973613">
        <ele>1612.5</ele>
        <time>2026-05-06T11:52:01.000Z</time>
      </trkpt>
      <trkpt lat="41.792322" lon="22.973605">
        <ele>1612.5</ele>
        <time>2026-05-06T11:52:02.000Z</time>
      </trkpt>
      <trkpt lat="41.792321" lon="22.973597">
        <ele>1613</ele>
        <time>2026-05-06T11:52:03.000Z</time>
      </trkpt>
      <trkpt lat="41.792319" lon="22.973589">
        <ele>1613</ele>
        <time>2026-05-06T11:52:04.000Z</time>
      </trkpt>
      <trkpt lat="41.792318" lon="22.973581">
        <ele>1613</ele>
        <time>2026-05-06T11:52:05.000Z</time>
      </trkpt>
      <trkpt lat="41.792316" lon="22.973572">
        <ele>1613</ele>
        <time>2026-05-06T11:52:06.000Z</time>
      </trkpt>
      <trkpt lat="41.792313" lon="22.973563">
        <ele>1613</ele>
        <time>2026-05-06T11:52:07.000Z</time>
      </trkpt>
      <trkpt lat="41.792311" lon="22.973555">
        <ele>1614.1</ele>
        <time>2026-05-06T11:52:08.000Z</time>
      </trkpt>
      <trkpt lat="41.792309" lon="22.973545">
        <ele>1614.1</ele>
        <time>2026-05-06T11:52:09.000Z</time>
      </trkpt>
      <trkpt lat="41.792307" lon="22.973536">
        <ele>1614.1</ele>
        <time>2026-05-06T11:52:10.000Z</time>
      </trkpt>
      <trkpt lat="41.792304" lon="22.973527">
        <ele>1614.1</ele>
        <time>2026-05-06T11:52:11.000Z</time>
      </trkpt>
      <trkpt lat="41.792302" lon="22.973518">
        <ele>1614.1</ele>
        <time>2026-05-06T11:52:12.000Z</time>
      </trkpt>
      <trkpt lat="41.7923" lon="22.973508">
        <ele>1615.1</ele>
        <time>2026-05-06T11:52:13.000Z</time>
      </trkpt>
      <trkpt lat="41.792297" lon="22.973501">
        <ele>1615.1</ele>
        <time>2026-05-06T11:52:14.000Z</time>
      </trkpt>
      <trkpt lat="41.792294" lon="22.973493">
        <ele>1615.1</ele>
        <time>2026-05-06T11:52:15.000Z</time>
      </trkpt>
      <trkpt lat="41.79229" lon="22.973485">
        <ele>1615.1</ele>
        <time>2026-05-06T11:52:16.000Z</time>
      </trkpt>
      <trkpt lat="41.792286" lon="22.973478">
        <ele>1615.1</ele>
        <time>2026-05-06T11:52:17.000Z</time>
      </trkpt>
      <trkpt lat="41.792282" lon="22.97347">
        <ele>1615.7</ele>
        <time>2026-05-06T11:52:18.000Z</time>
      </trkpt>
      <trkpt lat="41.792279" lon="22.973462">
        <ele>1615.7</ele>
        <time>2026-05-06T11:52:19.000Z</time>
      </trkpt>
      <trkpt lat="41.792275" lon="22.973454">
        <ele>1615.7</ele>
        <time>2026-05-06T11:52:20.000Z</time>
      </trkpt>
      <trkpt lat="41.792272" lon="22.973445">
        <ele>1615.7</ele>
        <time>2026-05-06T11:52:21.000Z</time>
      </trkpt>
      <trkpt lat="41.792269" lon="22.973435">
        <ele>1615.7</ele>
        <time>2026-05-06T11:52:22.000Z</time>
      </trkpt>
      <trkpt lat="41.792265" lon="22.973424">
        <ele>1617</ele>
        <time>2026-05-06T11:52:23.000Z</time>
      </trkpt>
      <trkpt lat="41.792262" lon="22.973413">
        <ele>1617</ele>
        <time>2026-05-06T11:52:24.000Z</time>
      </trkpt>
      <trkpt lat="41.79226" lon="22.973402">
        <ele>1617</ele>
        <time>2026-05-06T11:52:25.000Z</time>
      </trkpt>
      <trkpt lat="41.792257" lon="22.973392">
        <ele>1617</ele>
        <time>2026-05-06T11:52:26.000Z</time>
      </trkpt>
      <trkpt lat="41.792254" lon="22.973382">
        <ele>1617</ele>
        <time>2026-05-06T11:52:27.000Z</time>
      </trkpt>
      <trkpt lat="41.792251" lon="22.973372">
        <ele>1618.1</ele>
        <time>2026-05-06T11:52:28.000Z</time>
      </trkpt>
      <trkpt lat="41.792249" lon="22.973366">
        <ele>1618.1</ele>
        <time>2026-05-06T11:52:29.000Z</time>
      </trkpt>
      <trkpt lat="41.792248" lon="22.973359">
        <ele>1618.1</ele>
        <time>2026-05-06T11:52:30.000Z</time>
      </trkpt>
      <trkpt lat="41.792247" lon="22.973354">
        <ele>1618.1</ele>
        <time>2026-05-06T11:52:31.000Z</time>
      </trkpt>
      <trkpt lat="41.792247" lon="22.973351">
        <ele>1618.1</ele>
        <time>2026-05-06T11:52:32.000Z</time>
      </trkpt>
      <trkpt lat="41.792247" lon="22.97335">
        <ele>1618.6</ele>
        <time>2026-05-06T11:52:33.000Z</time>
      </trkpt>
      <trkpt lat="41.792247" lon="22.973349">
        <ele>1618.6</ele>
        <time>2026-05-06T11:52:34.000Z</time>
      </trkpt>
      <trkpt lat="41.792246" lon="22.973349">
        <ele>1618.6</ele>
        <time>2026-05-06T11:52:35.000Z</time>
      </trkpt>
      <trkpt lat="41.792246" lon="22.973348">
        <ele>1618.6</ele>
        <time>2026-05-06T11:52:36.000Z</time>
      </trkpt>
      <trkpt lat="41.792245" lon="22.973345">
        <ele>1618.6</ele>
        <time>2026-05-06T11:52:37.000Z</time>
      </trkpt>
      <trkpt lat="41.792244" lon="22.973341">
        <ele>1619.4</ele>
        <time>2026-05-06T11:52:38.000Z</time>
      </trkpt>
      <trkpt lat="41.792242" lon="22.973335">
        <ele>1619.4</ele>
        <time>2026-05-06T11:52:39.000Z</time>
      </trkpt>
      <trkpt lat="41.792238" lon="22.973327">
        <ele>1619.4</ele>
        <time>2026-05-06T11:52:40.000Z</time>
      </trkpt>
      <trkpt lat="41.792234" lon="22.973318">
        <ele>1619.4</ele>
        <time>2026-05-06T11:52:41.000Z</time>
      </trkpt>
      <trkpt lat="41.792229" lon="22.97331">
        <ele>1619.4</ele>
        <time>2026-05-06T11:52:42.000Z</time>
      </trkpt>
      <trkpt lat="41.792225" lon="22.973301">
        <ele>1619.7</ele>
        <time>2026-05-06T11:52:43.000Z</time>
      </trkpt>
      <trkpt lat="41.792221" lon="22.973292">
        <ele>1619.7</ele>
        <time>2026-05-06T11:52:44.000Z</time>
      </trkpt>
      <trkpt lat="41.792218" lon="22.973283">
        <ele>1619.7</ele>
        <time>2026-05-06T11:52:45.000Z</time>
      </trkpt>
      <trkpt lat="41.792214" lon="22.973273">
        <ele>1619.7</ele>
        <time>2026-05-06T11:52:46.000Z</time>
      </trkpt>
      <trkpt lat="41.79221" lon="22.973264">
        <ele>1619.7</ele>
        <time>2026-05-06T11:52:47.000Z</time>
      </trkpt>
      <trkpt lat="41.792206" lon="22.973255">
        <ele>1619.9</ele>
        <time>2026-05-06T11:52:48.000Z</time>
      </trkpt>
      <trkpt lat="41.792202" lon="22.973244">
        <ele>1619.9</ele>
        <time>2026-05-06T11:52:49.000Z</time>
      </trkpt>
      <trkpt lat="41.792197" lon="22.973233">
        <ele>1619.9</ele>
        <time>2026-05-06T11:52:50.000Z</time>
      </trkpt>
      <trkpt lat="41.792194" lon="22.973223">
        <ele>1619.9</ele>
        <time>2026-05-06T11:52:51.000Z</time>
      </trkpt>
      <trkpt lat="41.79219" lon="22.973213">
        <ele>1619.9</ele>
        <time>2026-05-06T11:52:52.000Z</time>
      </trkpt>
      <trkpt lat="41.792187" lon="22.973204">
        <ele>1620.4</ele>
        <time>2026-05-06T11:52:53.000Z</time>
      </trkpt>
      <trkpt lat="41.792186" lon="22.973194">
        <ele>1620.4</ele>
        <time>2026-05-06T11:52:54.000Z</time>
      </trkpt>
      <trkpt lat="41.792185" lon="22.973184">
        <ele>1620.4</ele>
        <time>2026-05-06T11:52:55.000Z</time>
      </trkpt>
      <trkpt lat="41.792184" lon="22.973175">
        <ele>1620.4</ele>
        <time>2026-05-06T11:52:56.000Z</time>
      </trkpt>
      <trkpt lat="41.792182" lon="22.973165">
        <ele>1620.4</ele>
        <time>2026-05-06T11:52:57.000Z</time>
      </trkpt>
      <trkpt lat="41.79218" lon="22.973156">
        <ele>1621.3</ele>
        <time>2026-05-06T11:52:58.000Z</time>
      </trkpt>
      <trkpt lat="41.792176" lon="22.973149">
        <ele>1621.3</ele>
        <time>2026-05-06T11:52:59.000Z</time>
      </trkpt>
      <trkpt lat="41.792172" lon="22.97314">
        <ele>1621.3</ele>
        <time>2026-05-06T11:53:00.000Z</time>
      </trkpt>
      <trkpt lat="41.792168" lon="22.973132">
        <ele>1621.3</ele>
        <time>2026-05-06T11:53:01.000Z</time>
      </trkpt>
      <trkpt lat="41.792164" lon="22.973123">
        <ele>1621.3</ele>
        <time>2026-05-06T11:53:02.000Z</time>
      </trkpt>
      <trkpt lat="41.792161" lon="22.973113">
        <ele>1621.9</ele>
        <time>2026-05-06T11:53:03.000Z</time>
      </trkpt>
      <trkpt lat="41.792158" lon="22.973104">
        <ele>1621.9</ele>
        <time>2026-05-06T11:53:04.000Z</time>
      </trkpt>
      <trkpt lat="41.792156" lon="22.973095">
        <ele>1621.9</ele>
        <time>2026-05-06T11:53:05.000Z</time>
      </trkpt>
      <trkpt lat="41.792154" lon="22.973087">
        <ele>1621.9</ele>
        <time>2026-05-06T11:53:06.000Z</time>
      </trkpt>
      <trkpt lat="41.792151" lon="22.973079">
        <ele>1621.9</ele>
        <time>2026-05-06T11:53:07.000Z</time>
      </trkpt>
      <trkpt lat="41.792148" lon="22.973073">
        <ele>1623.1</ele>
        <time>2026-05-06T11:53:08.000Z</time>
      </trkpt>
      <trkpt lat="41.792144" lon="22.973065">
        <ele>1623.1</ele>
        <time>2026-05-06T11:53:09.000Z</time>
      </trkpt>
      <trkpt lat="41.79214" lon="22.973057">
        <ele>1623.1</ele>
        <time>2026-05-06T11:53:10.000Z</time>
      </trkpt>
      <trkpt lat="41.792138" lon="22.973049">
        <ele>1623.1</ele>
        <time>2026-05-06T11:53:11.000Z</time>
      </trkpt>
      <trkpt lat="41.792137" lon="22.97304">
        <ele>1623.1</ele>
        <time>2026-05-06T11:53:12.000Z</time>
      </trkpt>
      <trkpt lat="41.792136" lon="22.973029">
        <ele>1624.1</ele>
        <time>2026-05-06T11:53:13.000Z</time>
      </trkpt>
      <trkpt lat="41.792135" lon="22.973018">
        <ele>1624.1</ele>
        <time>2026-05-06T11:53:14.000Z</time>
      </trkpt>
      <trkpt lat="41.792133" lon="22.973008">
        <ele>1624.1</ele>
        <time>2026-05-06T11:53:15.000Z</time>
      </trkpt>
      <trkpt lat="41.792129" lon="22.972997">
        <ele>1624.1</ele>
        <time>2026-05-06T11:53:16.000Z</time>
      </trkpt>
      <trkpt lat="41.792123" lon="22.972986">
        <ele>1624.1</ele>
        <time>2026-05-06T11:53:17.000Z</time>
      </trkpt>
      <trkpt lat="41.792118" lon="22.972974">
        <ele>1624.4</ele>
        <time>2026-05-06T11:53:18.000Z</time>
      </trkpt>
      <trkpt lat="41.792114" lon="22.972964">
        <ele>1624.4</ele>
        <time>2026-05-06T11:53:19.000Z</time>
      </trkpt>
      <trkpt lat="41.792108" lon="22.972953">
        <ele>1624.4</ele>
        <time>2026-05-06T11:53:20.000Z</time>
      </trkpt>
      <trkpt lat="41.792105" lon="22.972944">
        <ele>1624.4</ele>
        <time>2026-05-06T11:53:21.000Z</time>
      </trkpt>
      <trkpt lat="41.792103" lon="22.972935">
        <ele>1624.4</ele>
        <time>2026-05-06T11:53:22.000Z</time>
      </trkpt>
      <trkpt lat="41.792102" lon="22.972929">
        <ele>1625</ele>
        <time>2026-05-06T11:53:23.000Z</time>
      </trkpt>
      <trkpt lat="41.792102" lon="22.972924">
        <ele>1625</ele>
        <time>2026-05-06T11:53:24.000Z</time>
      </trkpt>
      <trkpt lat="41.792103" lon="22.97292">
        <ele>1625</ele>
        <time>2026-05-06T11:53:25.000Z</time>
      </trkpt>
      <trkpt lat="41.792102" lon="22.972915">
        <ele>1625</ele>
        <time>2026-05-06T11:53:26.000Z</time>
      </trkpt>
      <trkpt lat="41.792102" lon="22.972911">
        <ele>1625</ele>
        <time>2026-05-06T11:53:27.000Z</time>
      </trkpt>
      <trkpt lat="41.792102" lon="22.972906">
        <ele>1625.5</ele>
        <time>2026-05-06T11:53:28.000Z</time>
      </trkpt>
      <trkpt lat="41.792103" lon="22.972901">
        <ele>1625.5</ele>
        <time>2026-05-06T11:53:29.000Z</time>
      </trkpt>
      <trkpt lat="41.792105" lon="22.972898">
        <ele>1625.5</ele>
        <time>2026-05-06T11:53:30.000Z</time>
      </trkpt>
      <trkpt lat="41.792108" lon="22.972895">
        <ele>1625.5</ele>
        <time>2026-05-06T11:53:31.000Z</time>
      </trkpt>
      <trkpt lat="41.79211" lon="22.972893">
        <ele>1625.5</ele>
        <time>2026-05-06T11:53:32.000Z</time>
      </trkpt>
      <trkpt lat="41.792113" lon="22.972892">
        <ele>1625.7</ele>
        <time>2026-05-06T11:53:33.000Z</time>
      </trkpt>
      <trkpt lat="41.792115" lon="22.972891">
        <ele>1625.7</ele>
        <time>2026-05-06T11:53:34.000Z</time>
      </trkpt>
      <trkpt lat="41.792115" lon="22.97289">
        <ele>1625.7</ele>
        <time>2026-05-06T11:53:35.000Z</time>
      </trkpt>
      <trkpt lat="41.792115" lon="22.97289">
        <ele>1625.7</ele>
        <time>2026-05-06T11:53:36.000Z</time>
      </trkpt>
      <trkpt lat="41.792115" lon="22.972889">
        <ele>1625.7</ele>
        <time>2026-05-06T11:53:37.000Z</time>
      </trkpt>
      <trkpt lat="41.792115" lon="22.97289">
        <ele>1625.8</ele>
        <time>2026-05-06T11:53:38.000Z</time>
      </trkpt>
      <trkpt lat="41.792114" lon="22.972891">
        <ele>1625.8</ele>
        <time>2026-05-06T11:53:39.000Z</time>
      </trkpt>
      <trkpt lat="41.792114" lon="22.972893">
        <ele>1625.8</ele>
        <time>2026-05-06T11:53:40.000Z</time>
      </trkpt>
      <trkpt lat="41.792113" lon="22.972894">
        <ele>1625.8</ele>
        <time>2026-05-06T11:53:41.000Z</time>
      </trkpt>
      <trkpt lat="41.792113" lon="22.972896">
        <ele>1625.8</ele>
        <time>2026-05-06T11:53:42.000Z</time>
      </trkpt>
      <trkpt lat="41.792112" lon="22.972897">
        <ele>1626.2</ele>
        <time>2026-05-06T11:53:43.000Z</time>
      </trkpt>
      <trkpt lat="41.792112" lon="22.972898">
        <ele>1626.2</ele>
        <time>2026-05-06T11:53:44.000Z</time>
      </trkpt>
      <trkpt lat="41.792111" lon="22.972899">
        <ele>1626.2</ele>
        <time>2026-05-06T11:53:45.000Z</time>
      </trkpt>
      <trkpt lat="41.792111" lon="22.9729">
        <ele>1626.2</ele>
        <time>2026-05-06T11:53:46.000Z</time>
      </trkpt>
      <trkpt lat="41.792111" lon="22.9729">
        <ele>1626.2</ele>
        <time>2026-05-06T11:53:47.000Z</time>
      </trkpt>
      <trkpt lat="41.792111" lon="22.9729">
        <ele>1626.4</ele>
        <time>2026-05-06T11:53:48.000Z</time>
      </trkpt>
      <trkpt lat="41.792111" lon="22.972898">
        <ele>1626.4</ele>
        <time>2026-05-06T11:53:49.000Z</time>
      </trkpt>
      <trkpt lat="41.792111" lon="22.972896">
        <ele>1626.4</ele>
        <time>2026-05-06T11:53:50.000Z</time>
      </trkpt>
      <trkpt lat="41.792111" lon="22.972893">
        <ele>1626.4</ele>
        <time>2026-05-06T11:53:51.000Z</time>
      </trkpt>
      <trkpt lat="41.792112" lon="22.97289">
        <ele>1626.4</ele>
        <time>2026-05-06T11:53:52.000Z</time>
      </trkpt>
      <trkpt lat="41.792112" lon="22.972888">
        <ele>1626.8</ele>
        <time>2026-05-06T11:53:53.000Z</time>
      </trkpt>
      <trkpt lat="41.792112" lon="22.972887">
        <ele>1626.8</ele>
        <time>2026-05-06T11:53:54.000Z</time>
      </trkpt>
      <trkpt lat="41.792113" lon="22.972887">
        <ele>1626.8</ele>
        <time>2026-05-06T11:53:55.000Z</time>
      </trkpt>
      <trkpt lat="41.792112" lon="22.972887">
        <ele>1626.8</ele>
        <time>2026-05-06T11:53:56.000Z</time>
      </trkpt>
      <trkpt lat="41.792116" lon="22.972885">
        <ele>1626.8</ele>
        <time>2026-05-06T11:53:57.000Z</time>
      </trkpt>
      <trkpt lat="41.792122" lon="22.972881">
        <ele>1626.8</ele>
        <time>2026-05-06T11:53:58.000Z</time>
      </trkpt>
      <trkpt lat="41.79213" lon="22.972875">
        <ele>1626.8</ele>
        <time>2026-05-06T11:53:59.000Z</time>
      </trkpt>
      <trkpt lat="41.79214" lon="22.972868">
        <ele>1626.8</ele>
        <time>2026-05-06T11:54:00.000Z</time>
      </trkpt>
      <trkpt lat="41.792151" lon="22.972859">
        <ele>1626.8</ele>
        <time>2026-05-06T11:54:01.000Z</time>
      </trkpt>
      <trkpt lat="41.792161" lon="22.972851">
        <ele>1626.8</ele>
        <time>2026-05-06T11:54:02.000Z</time>
      </trkpt>
      <trkpt lat="41.79217" lon="22.972844">
        <ele>1626.8</ele>
        <time>2026-05-06T11:54:03.000Z</time>
      </trkpt>
      <trkpt lat="41.792178" lon="22.972837">
        <ele>1626.8</ele>
        <time>2026-05-06T11:54:04.000Z</time>
      </trkpt>
      <trkpt lat="41.792185" lon="22.97283">
        <ele>1626.8</ele>
        <time>2026-05-06T11:54:05.000Z</time>
      </trkpt>
      <trkpt lat="41.792193" lon="22.972822">
        <ele>1626.8</ele>
        <time>2026-05-06T11:54:06.000Z</time>
      </trkpt>
      <trkpt lat="41.7922" lon="22.972814">
        <ele>1626.8</ele>
        <time>2026-05-06T11:54:07.000Z</time>
      </trkpt>
      <trkpt lat="41.792207" lon="22.972806">
        <ele>1626.5</ele>
        <time>2026-05-06T11:54:08.000Z</time>
      </trkpt>
      <trkpt lat="41.792215" lon="22.972799">
        <ele>1626.5</ele>
        <time>2026-05-06T11:54:09.000Z</time>
      </trkpt>
      <trkpt lat="41.792222" lon="22.972792">
        <ele>1626.5</ele>
        <time>2026-05-06T11:54:10.000Z</time>
      </trkpt>
      <trkpt lat="41.792229" lon="22.972786">
        <ele>1626.5</ele>
        <time>2026-05-06T11:54:11.000Z</time>
      </trkpt>
      <trkpt lat="41.792236" lon="22.97278">
        <ele>1626.5</ele>
        <time>2026-05-06T11:54:12.000Z</time>
      </trkpt>
      <trkpt lat="41.792244" lon="22.972773">
        <ele>1626.4</ele>
        <time>2026-05-06T11:54:13.000Z</time>
      </trkpt>
      <trkpt lat="41.79225" lon="22.972766">
        <ele>1626.4</ele>
        <time>2026-05-06T11:54:14.000Z</time>
      </trkpt>
      <trkpt lat="41.792255" lon="22.972758">
        <ele>1626.4</ele>
        <time>2026-05-06T11:54:15.000Z</time>
      </trkpt>
      <trkpt lat="41.792261" lon="22.972751">
        <ele>1626.4</ele>
        <time>2026-05-06T11:54:16.000Z</time>
      </trkpt>
      <trkpt lat="41.792266" lon="22.972745">
        <ele>1626.4</ele>
        <time>2026-05-06T11:54:17.000Z</time>
      </trkpt>
      <trkpt lat="41.79227" lon="22.972738">
        <ele>1626.6</ele>
        <time>2026-05-06T11:54:18.000Z</time>
      </trkpt>
      <trkpt lat="41.792274" lon="22.972731">
        <ele>1626.6</ele>
        <time>2026-05-06T11:54:19.000Z</time>
      </trkpt>
      <trkpt lat="41.792279" lon="22.972726">
        <ele>1626.6</ele>
        <time>2026-05-06T11:54:20.000Z</time>
      </trkpt>
      <trkpt lat="41.792282" lon="22.972721">
        <ele>1626.6</ele>
        <time>2026-05-06T11:54:21.000Z</time>
      </trkpt>
      <trkpt lat="41.792285" lon="22.972716">
        <ele>1626.6</ele>
        <time>2026-05-06T11:54:22.000Z</time>
      </trkpt>
      <trkpt lat="41.792289" lon="22.972709">
        <ele>1627.5</ele>
        <time>2026-05-06T11:54:23.000Z</time>
      </trkpt>
      <trkpt lat="41.792292" lon="22.972702">
        <ele>1627.5</ele>
        <time>2026-05-06T11:54:24.000Z</time>
      </trkpt>
      <trkpt lat="41.792294" lon="22.972694">
        <ele>1627.5</ele>
        <time>2026-05-06T11:54:25.000Z</time>
      </trkpt>
      <trkpt lat="41.792297" lon="22.972685">
        <ele>1627.5</ele>
        <time>2026-05-06T11:54:26.000Z</time>
      </trkpt>
      <trkpt lat="41.792299" lon="22.972674">
        <ele>1627.5</ele>
        <time>2026-05-06T11:54:27.000Z</time>
      </trkpt>
      <trkpt lat="41.7923" lon="22.972664">
        <ele>1628.7</ele>
        <time>2026-05-06T11:54:28.000Z</time>
      </trkpt>
      <trkpt lat="41.792301" lon="22.972654">
        <ele>1628.7</ele>
        <time>2026-05-06T11:54:29.000Z</time>
      </trkpt>
      <trkpt lat="41.792303" lon="22.972644">
        <ele>1628.7</ele>
        <time>2026-05-06T11:54:30.000Z</time>
      </trkpt>
      <trkpt lat="41.792306" lon="22.972634">
        <ele>1628.7</ele>
        <time>2026-05-06T11:54:31.000Z</time>
      </trkpt>
      <trkpt lat="41.79231" lon="22.972625">
        <ele>1628.7</ele>
        <time>2026-05-06T11:54:32.000Z</time>
      </trkpt>
      <trkpt lat="41.792316" lon="22.972617">
        <ele>1629.2</ele>
        <time>2026-05-06T11:54:33.000Z</time>
      </trkpt>
      <trkpt lat="41.792321" lon="22.97261">
        <ele>1629.2</ele>
        <time>2026-05-06T11:54:34.000Z</time>
      </trkpt>
      <trkpt lat="41.792326" lon="22.972602">
        <ele>1629.2</ele>
        <time>2026-05-06T11:54:35.000Z</time>
      </trkpt>
      <trkpt lat="41.792331" lon="22.972595">
        <ele>1629.2</ele>
        <time>2026-05-06T11:54:36.000Z</time>
      </trkpt>
      <trkpt lat="41.792335" lon="22.972586">
        <ele>1629.2</ele>
        <time>2026-05-06T11:54:37.000Z</time>
      </trkpt>
      <trkpt lat="41.792339" lon="22.972575">
        <ele>1630.1</ele>
        <time>2026-05-06T11:54:38.000Z</time>
      </trkpt>
      <trkpt lat="41.792342" lon="22.972564">
        <ele>1630.1</ele>
        <time>2026-05-06T11:54:39.000Z</time>
      </trkpt>
      <trkpt lat="41.792347" lon="22.972552">
        <ele>1630.1</ele>
        <time>2026-05-06T11:54:40.000Z</time>
      </trkpt>
      <trkpt lat="41.792351" lon="22.972539">
        <ele>1630.1</ele>
        <time>2026-05-06T11:54:41.000Z</time>
      </trkpt>
      <trkpt lat="41.792356" lon="22.972527">
        <ele>1630.1</ele>
        <time>2026-05-06T11:54:42.000Z</time>
      </trkpt>
      <trkpt lat="41.792361" lon="22.972517">
        <ele>1631</ele>
        <time>2026-05-06T11:54:43.000Z</time>
      </trkpt>
      <trkpt lat="41.792366" lon="22.972506">
        <ele>1631</ele>
        <time>2026-05-06T11:54:44.000Z</time>
      </trkpt>
      <trkpt lat="41.79237" lon="22.972496">
        <ele>1631</ele>
        <time>2026-05-06T11:54:45.000Z</time>
      </trkpt>
      <trkpt lat="41.792375" lon="22.972488">
        <ele>1631</ele>
        <time>2026-05-06T11:54:46.000Z</time>
      </trkpt>
      <trkpt lat="41.79238" lon="22.97248">
        <ele>1631</ele>
        <time>2026-05-06T11:54:47.000Z</time>
      </trkpt>
      <trkpt lat="41.792385" lon="22.972472">
        <ele>1631.5</ele>
        <time>2026-05-06T11:54:48.000Z</time>
      </trkpt>
      <trkpt lat="41.79239" lon="22.972464">
        <ele>1631.5</ele>
        <time>2026-05-06T11:54:49.000Z</time>
      </trkpt>
      <trkpt lat="41.792395" lon="22.972456">
        <ele>1631.5</ele>
        <time>2026-05-06T11:54:50.000Z</time>
      </trkpt>
      <trkpt lat="41.7924" lon="22.97245">
        <ele>1631.5</ele>
        <time>2026-05-06T11:54:51.000Z</time>
      </trkpt>
      <trkpt lat="41.792402" lon="22.972446">
        <ele>1631.5</ele>
        <time>2026-05-06T11:54:52.000Z</time>
      </trkpt>
      <trkpt lat="41.792403" lon="22.972443">
        <ele>1632.6</ele>
        <time>2026-05-06T11:54:53.000Z</time>
      </trkpt>
      <trkpt lat="41.792403" lon="22.972443">
        <ele>1632.6</ele>
        <time>2026-05-06T11:54:54.000Z</time>
      </trkpt>
      <trkpt lat="41.792402" lon="22.972444">
        <ele>1632.6</ele>
        <time>2026-05-06T11:54:55.000Z</time>
      </trkpt>
      <trkpt lat="41.792402" lon="22.972445">
        <ele>1632.6</ele>
        <time>2026-05-06T11:54:56.000Z</time>
      </trkpt>
      <trkpt lat="41.792401" lon="22.972445">
        <ele>1632.6</ele>
        <time>2026-05-06T11:54:57.000Z</time>
      </trkpt>
      <trkpt lat="41.792401" lon="22.972445">
        <ele>1633.5</ele>
        <time>2026-05-06T11:54:58.000Z</time>
      </trkpt>
      <trkpt lat="41.792401" lon="22.972445">
        <ele>1633.5</ele>
        <time>2026-05-06T11:54:59.000Z</time>
      </trkpt>
      <trkpt lat="41.7924" lon="22.972444">
        <ele>1633.5</ele>
        <time>2026-05-06T11:55:00.000Z</time>
      </trkpt>
      <trkpt lat="41.7924" lon="22.972444">
        <ele>1633.5</ele>
        <time>2026-05-06T11:55:01.000Z</time>
      </trkpt>
      <trkpt lat="41.7924" lon="22.972444">
        <ele>1633.5</ele>
        <time>2026-05-06T11:55:02.000Z</time>
      </trkpt>
      <trkpt lat="41.7924" lon="22.972444">
        <ele>1633.9</ele>
        <time>2026-05-06T11:55:03.000Z</time>
      </trkpt>
      <trkpt lat="41.7924" lon="22.972444">
        <ele>1633.9</ele>
        <time>2026-05-06T11:55:04.000Z</time>
      </trkpt>
      <trkpt lat="41.7924" lon="22.972444">
        <ele>1633.9</ele>
        <time>2026-05-06T11:55:05.000Z</time>
      </trkpt>
      <trkpt lat="41.792399" lon="22.972443">
        <ele>1633.9</ele>
        <time>2026-05-06T11:55:06.000Z</time>
      </trkpt>
      <trkpt lat="41.792398" lon="22.972442">
        <ele>1633.9</ele>
        <time>2026-05-06T11:55:07.000Z</time>
      </trkpt>
      <trkpt lat="41.792398" lon="22.972442">
        <ele>1634.5</ele>
        <time>2026-05-06T11:55:08.000Z</time>
      </trkpt>
      <trkpt lat="41.792397" lon="22.972441">
        <ele>1634.5</ele>
        <time>2026-05-06T11:55:09.000Z</time>
      </trkpt>
      <trkpt lat="41.792397" lon="22.97244">
        <ele>1634.5</ele>
        <time>2026-05-06T11:55:10.000Z</time>
      </trkpt>
      <trkpt lat="41.792397" lon="22.972441">
        <ele>1634.5</ele>
        <time>2026-05-06T11:55:11.000Z</time>
      </trkpt>
      <trkpt lat="41.792398" lon="22.972442">
        <ele>1634.5</ele>
        <time>2026-05-06T11:55:12.000Z</time>
      </trkpt>
      <trkpt lat="41.792399" lon="22.972444">
        <ele>1635</ele>
        <time>2026-05-06T11:55:13.000Z</time>
      </trkpt>
      <trkpt lat="41.7924" lon="22.972445">
        <ele>1635</ele>
        <time>2026-05-06T11:55:14.000Z</time>
      </trkpt>
      <trkpt lat="41.792401" lon="22.972447">
        <ele>1635</ele>
        <time>2026-05-06T11:55:15.000Z</time>
      </trkpt>
      <trkpt lat="41.792402" lon="22.972449">
        <ele>1635</ele>
        <time>2026-05-06T11:55:16.000Z</time>
      </trkpt>
      <trkpt lat="41.792403" lon="22.972449">
        <ele>1635</ele>
        <time>2026-05-06T11:55:17.000Z</time>
      </trkpt>
      <trkpt lat="41.792404" lon="22.97245">
        <ele>1635.2</ele>
        <time>2026-05-06T11:55:18.000Z</time>
      </trkpt>
      <trkpt lat="41.792405" lon="22.972451">
        <ele>1635.2</ele>
        <time>2026-05-06T11:55:19.000Z</time>
      </trkpt>
      <trkpt lat="41.792406" lon="22.972451">
        <ele>1635.2</ele>
        <time>2026-05-06T11:55:20.000Z</time>
      </trkpt>
      <trkpt lat="41.792406" lon="22.972449">
        <ele>1635.2</ele>
        <time>2026-05-06T11:55:21.000Z</time>
      </trkpt>
      <trkpt lat="41.792408" lon="22.972446">
        <ele>1635.2</ele>
        <time>2026-05-06T11:55:22.000Z</time>
      </trkpt>
      <trkpt lat="41.792409" lon="22.972444">
        <ele>1635.1</ele>
        <time>2026-05-06T11:55:23.000Z</time>
      </trkpt>
      <trkpt lat="41.792411" lon="22.97244">
        <ele>1635.1</ele>
        <time>2026-05-06T11:55:24.000Z</time>
      </trkpt>
      <trkpt lat="41.792412" lon="22.972436">
        <ele>1635.1</ele>
        <time>2026-05-06T11:55:25.000Z</time>
      </trkpt>
      <trkpt lat="41.792414" lon="22.972431">
        <ele>1635.1</ele>
        <time>2026-05-06T11:55:26.000Z</time>
      </trkpt>
      <trkpt lat="41.792416" lon="22.972426">
        <ele>1635.1</ele>
        <time>2026-05-06T11:55:27.000Z</time>
      </trkpt>
      <trkpt lat="41.79242" lon="22.972419">
        <ele>1635</ele>
        <time>2026-05-06T11:55:28.000Z</time>
      </trkpt>
      <trkpt lat="41.792424" lon="22.972411">
        <ele>1635</ele>
        <time>2026-05-06T11:55:29.000Z</time>
      </trkpt>
      <trkpt lat="41.792429" lon="22.972404">
        <ele>1635</ele>
        <time>2026-05-06T11:55:30.000Z</time>
      </trkpt>
      <trkpt lat="41.792434" lon="22.972395">
        <ele>1635</ele>
        <time>2026-05-06T11:55:31.000Z</time>
      </trkpt>
      <trkpt lat="41.792437" lon="22.972385">
        <ele>1635</ele>
        <time>2026-05-06T11:55:32.000Z</time>
      </trkpt>
      <trkpt lat="41.792439" lon="22.972373">
        <ele>1635.2</ele>
        <time>2026-05-06T11:55:33.000Z</time>
      </trkpt>
      <trkpt lat="41.79244" lon="22.972361">
        <ele>1635.2</ele>
        <time>2026-05-06T11:55:34.000Z</time>
      </trkpt>
      <trkpt lat="41.792442" lon="22.972348">
        <ele>1635.2</ele>
        <time>2026-05-06T11:55:35.000Z</time>
      </trkpt>
      <trkpt lat="41.792443" lon="22.972335">
        <ele>1635.2</ele>
        <time>2026-05-06T11:55:36.000Z</time>
      </trkpt>
      <trkpt lat="41.792445" lon="22.972324">
        <ele>1635.2</ele>
        <time>2026-05-06T11:55:37.000Z</time>
      </trkpt>
      <trkpt lat="41.792448" lon="22.972314">
        <ele>1636.1</ele>
        <time>2026-05-06T11:55:38.000Z</time>
      </trkpt>
      <trkpt lat="41.792451" lon="22.972305">
        <ele>1636.1</ele>
        <time>2026-05-06T11:55:39.000Z</time>
      </trkpt>
      <trkpt lat="41.792453" lon="22.972297">
        <ele>1636.1</ele>
        <time>2026-05-06T11:55:40.000Z</time>
      </trkpt>
      <trkpt lat="41.792457" lon="22.972287">
        <ele>1636.1</ele>
        <time>2026-05-06T11:55:41.000Z</time>
      </trkpt>
      <trkpt lat="41.79246" lon="22.972278">
        <ele>1636.1</ele>
        <time>2026-05-06T11:55:42.000Z</time>
      </trkpt>
      <trkpt lat="41.792463" lon="22.972268">
        <ele>1637.3</ele>
        <time>2026-05-06T11:55:43.000Z</time>
      </trkpt>
      <trkpt lat="41.792465" lon="22.972257">
        <ele>1637.3</ele>
        <time>2026-05-06T11:55:44.000Z</time>
      </trkpt>
      <trkpt lat="41.792467" lon="22.972246">
        <ele>1637.3</ele>
        <time>2026-05-06T11:55:45.000Z</time>
      </trkpt>
      <trkpt lat="41.792467" lon="22.972236">
        <ele>1637.3</ele>
        <time>2026-05-06T11:55:46.000Z</time>
      </trkpt>
      <trkpt lat="41.792468" lon="22.972226">
        <ele>1637.3</ele>
        <time>2026-05-06T11:55:47.000Z</time>
      </trkpt>
      <trkpt lat="41.792471" lon="22.972219">
        <ele>1638</ele>
        <time>2026-05-06T11:55:48.000Z</time>
      </trkpt>
      <trkpt lat="41.792473" lon="22.972212">
        <ele>1638</ele>
        <time>2026-05-06T11:55:49.000Z</time>
      </trkpt>
      <trkpt lat="41.792476" lon="22.972206">
        <ele>1638</ele>
        <time>2026-05-06T11:55:50.000Z</time>
      </trkpt>
      <trkpt lat="41.792478" lon="22.972199">
        <ele>1638</ele>
        <time>2026-05-06T11:55:51.000Z</time>
      </trkpt>
      <trkpt lat="41.792479" lon="22.972192">
        <ele>1638</ele>
        <time>2026-05-06T11:55:52.000Z</time>
      </trkpt>
      <trkpt lat="41.792479" lon="22.972183">
        <ele>1639</ele>
        <time>2026-05-06T11:55:53.000Z</time>
      </trkpt>
      <trkpt lat="41.792479" lon="22.972176">
        <ele>1639</ele>
        <time>2026-05-06T11:55:54.000Z</time>
      </trkpt>
      <trkpt lat="41.792479" lon="22.972169">
        <ele>1639</ele>
        <time>2026-05-06T11:55:55.000Z</time>
      </trkpt>
      <trkpt lat="41.79248" lon="22.972162">
        <ele>1639</ele>
        <time>2026-05-06T11:55:56.000Z</time>
      </trkpt>
      <trkpt lat="41.792482" lon="22.972156">
        <ele>1639</ele>
        <time>2026-05-06T11:55:57.000Z</time>
      </trkpt>
      <trkpt lat="41.792484" lon="22.972151">
        <ele>1639.9</ele>
        <time>2026-05-06T11:55:58.000Z</time>
      </trkpt>
      <trkpt lat="41.792486" lon="22.972147">
        <ele>1639.9</ele>
        <time>2026-05-06T11:55:59.000Z</time>
      </trkpt>
      <trkpt lat="41.792487" lon="22.972143">
        <ele>1639.9</ele>
        <time>2026-05-06T11:56:00.000Z</time>
      </trkpt>
      <trkpt lat="41.792488" lon="22.972141">
        <ele>1639.9</ele>
        <time>2026-05-06T11:56:01.000Z</time>
      </trkpt>
      <trkpt lat="41.792488" lon="22.972141">
        <ele>1639.9</ele>
        <time>2026-05-06T11:56:02.000Z</time>
      </trkpt>
      <trkpt lat="41.792488" lon="22.97214">
        <ele>1640.2</ele>
        <time>2026-05-06T11:56:03.000Z</time>
      </trkpt>
      <trkpt lat="41.792488" lon="22.972139">
        <ele>1640.2</ele>
        <time>2026-05-06T11:56:04.000Z</time>
      </trkpt>
      <trkpt lat="41.792488" lon="22.972139">
        <ele>1640.2</ele>
        <time>2026-05-06T11:56:05.000Z</time>
      </trkpt>
      <trkpt lat="41.792488" lon="22.97214">
        <ele>1640.2</ele>
        <time>2026-05-06T11:56:06.000Z</time>
      </trkpt>
      <trkpt lat="41.792487" lon="22.97214">
        <ele>1640.2</ele>
        <time>2026-05-06T11:56:07.000Z</time>
      </trkpt>
      <trkpt lat="41.792486" lon="22.972141">
        <ele>1640.8</ele>
        <time>2026-05-06T11:56:08.000Z</time>
      </trkpt>
      <trkpt lat="41.792484" lon="22.972142">
        <ele>1640.8</ele>
        <time>2026-05-06T11:56:09.000Z</time>
      </trkpt>
      <trkpt lat="41.792482" lon="22.972143">
        <ele>1640.8</ele>
        <time>2026-05-06T11:56:10.000Z</time>
      </trkpt>
      <trkpt lat="41.79248" lon="22.972144">
        <ele>1640.8</ele>
        <time>2026-05-06T11:56:11.000Z</time>
      </trkpt>
      <trkpt lat="41.79248" lon="22.972146">
        <ele>1640.8</ele>
        <time>2026-05-06T11:56:12.000Z</time>
      </trkpt>
      <trkpt lat="41.792479" lon="22.972147">
        <ele>1641.2</ele>
        <time>2026-05-06T11:56:13.000Z</time>
      </trkpt>
      <trkpt lat="41.792479" lon="22.972147">
        <ele>1641.2</ele>
        <time>2026-05-06T11:56:14.000Z</time>
      </trkpt>
      <trkpt lat="41.792478" lon="22.972147">
        <ele>1641.2</ele>
        <time>2026-05-06T11:56:15.000Z</time>
      </trkpt>
      <trkpt lat="41.79248" lon="22.972143">
        <ele>1641.2</ele>
        <time>2026-05-06T11:56:16.000Z</time>
      </trkpt>
      <trkpt lat="41.79248" lon="22.972137">
        <ele>1641.2</ele>
        <time>2026-05-06T11:56:17.000Z</time>
      </trkpt>
      <trkpt lat="41.792481" lon="22.972129">
        <ele>1641.4</ele>
        <time>2026-05-06T11:56:18.000Z</time>
      </trkpt>
      <trkpt lat="41.792481" lon="22.97212">
        <ele>1641.4</ele>
        <time>2026-05-06T11:56:19.000Z</time>
      </trkpt>
      <trkpt lat="41.792483" lon="22.972112">
        <ele>1641.4</ele>
        <time>2026-05-06T11:56:20.000Z</time>
      </trkpt>
      <trkpt lat="41.792484" lon="22.972106">
        <ele>1641.4</ele>
        <time>2026-05-06T11:56:21.000Z</time>
      </trkpt>
      <trkpt lat="41.792486" lon="22.972101">
        <ele>1641.4</ele>
        <time>2026-05-06T11:56:22.000Z</time>
      </trkpt>
      <trkpt lat="41.792489" lon="22.972097">
        <ele>1641.6</ele>
        <time>2026-05-06T11:56:23.000Z</time>
      </trkpt>
      <trkpt lat="41.792492" lon="22.972092">
        <ele>1641.6</ele>
        <time>2026-05-06T11:56:24.000Z</time>
      </trkpt>
      <trkpt lat="41.792494" lon="22.972085">
        <ele>1641.6</ele>
        <time>2026-05-06T11:56:25.000Z</time>
      </trkpt>
      <trkpt lat="41.792494" lon="22.972078">
        <ele>1641.6</ele>
        <time>2026-05-06T11:56:26.000Z</time>
      </trkpt>
      <trkpt lat="41.792493" lon="22.972068">
        <ele>1641.6</ele>
        <time>2026-05-06T11:56:27.000Z</time>
      </trkpt>
      <trkpt lat="41.792491" lon="22.972058">
        <ele>1641.9</ele>
        <time>2026-05-06T11:56:28.000Z</time>
      </trkpt>
      <trkpt lat="41.792489" lon="22.972048">
        <ele>1641.9</ele>
        <time>2026-05-06T11:56:29.000Z</time>
      </trkpt>
      <trkpt lat="41.792488" lon="22.972038">
        <ele>1641.9</ele>
        <time>2026-05-06T11:56:30.000Z</time>
      </trkpt>
      <trkpt lat="41.792487" lon="22.972028">
        <ele>1641.9</ele>
        <time>2026-05-06T11:56:31.000Z</time>
      </trkpt>
      <trkpt lat="41.792487" lon="22.972019">
        <ele>1641.9</ele>
        <time>2026-05-06T11:56:32.000Z</time>
      </trkpt>
      <trkpt lat="41.792487" lon="22.97201">
        <ele>1642.2</ele>
        <time>2026-05-06T11:56:33.000Z</time>
      </trkpt>
      <trkpt lat="41.792488" lon="22.972001">
        <ele>1642.2</ele>
        <time>2026-05-06T11:56:34.000Z</time>
      </trkpt>
      <trkpt lat="41.792488" lon="22.971992">
        <ele>1642.2</ele>
        <time>2026-05-06T11:56:35.000Z</time>
      </trkpt>
      <trkpt lat="41.792489" lon="22.971983">
        <ele>1642.2</ele>
        <time>2026-05-06T11:56:36.000Z</time>
      </trkpt>
      <trkpt lat="41.792489" lon="22.971973">
        <ele>1642.2</ele>
        <time>2026-05-06T11:56:37.000Z</time>
      </trkpt>
      <trkpt lat="41.792489" lon="22.971964">
        <ele>1643</ele>
        <time>2026-05-06T11:56:38.000Z</time>
      </trkpt>
      <trkpt lat="41.792489" lon="22.971955">
        <ele>1643</ele>
        <time>2026-05-06T11:56:39.000Z</time>
      </trkpt>
      <trkpt lat="41.792489" lon="22.971945">
        <ele>1643</ele>
        <time>2026-05-06T11:56:40.000Z</time>
      </trkpt>
      <trkpt lat="41.79249" lon="22.971935">
        <ele>1643</ele>
        <time>2026-05-06T11:56:41.000Z</time>
      </trkpt>
      <trkpt lat="41.79249" lon="22.971925">
        <ele>1643</ele>
        <time>2026-05-06T11:56:42.000Z</time>
      </trkpt>
      <trkpt lat="41.792491" lon="22.971916">
        <ele>1644.1</ele>
        <time>2026-05-06T11:56:43.000Z</time>
      </trkpt>
      <trkpt lat="41.792493" lon="22.971906">
        <ele>1644.1</ele>
        <time>2026-05-06T11:56:44.000Z</time>
      </trkpt>
      <trkpt lat="41.792494" lon="22.971897">
        <ele>1644.1</ele>
        <time>2026-05-06T11:56:45.000Z</time>
      </trkpt>
      <trkpt lat="41.792497" lon="22.971889">
        <ele>1644.1</ele>
        <time>2026-05-06T11:56:46.000Z</time>
      </trkpt>
      <trkpt lat="41.7925" lon="22.971882">
        <ele>1644.1</ele>
        <time>2026-05-06T11:56:47.000Z</time>
      </trkpt>
      <trkpt lat="41.792502" lon="22.971874">
        <ele>1644.6</ele>
        <time>2026-05-06T11:56:48.000Z</time>
      </trkpt>
      <trkpt lat="41.792505" lon="22.971867">
        <ele>1644.6</ele>
        <time>2026-05-06T11:56:49.000Z</time>
      </trkpt>
      <trkpt lat="41.792507" lon="22.97186">
        <ele>1644.6</ele>
        <time>2026-05-06T11:56:50.000Z</time>
      </trkpt>
      <trkpt lat="41.79251" lon="22.971852">
        <ele>1644.6</ele>
        <time>2026-05-06T11:56:51.000Z</time>
      </trkpt>
      <trkpt lat="41.792512" lon="22.971844">
        <ele>1644.6</ele>
        <time>2026-05-06T11:56:52.000Z</time>
      </trkpt>
      <trkpt lat="41.792515" lon="22.971837">
        <ele>1645.8</ele>
        <time>2026-05-06T11:56:53.000Z</time>
      </trkpt>
      <trkpt lat="41.792517" lon="22.971832">
        <ele>1645.8</ele>
        <time>2026-05-06T11:56:54.000Z</time>
      </trkpt>
      <trkpt lat="41.792521" lon="22.971828">
        <ele>1645.8</ele>
        <time>2026-05-06T11:56:55.000Z</time>
      </trkpt>
      <trkpt lat="41.792525" lon="22.971827">
        <ele>1645.8</ele>
        <time>2026-05-06T11:56:56.000Z</time>
      </trkpt>
      <trkpt lat="41.792528" lon="22.971827">
        <ele>1645.8</ele>
        <time>2026-05-06T11:56:57.000Z</time>
      </trkpt>
      <trkpt lat="41.792532" lon="22.971827">
        <ele>1646.9</ele>
        <time>2026-05-06T11:56:58.000Z</time>
      </trkpt>
      <trkpt lat="41.792535" lon="22.971828">
        <ele>1646.9</ele>
        <time>2026-05-06T11:56:59.000Z</time>
      </trkpt>
      <trkpt lat="41.792538" lon="22.971829">
        <ele>1646.9</ele>
        <time>2026-05-06T11:57:00.000Z</time>
      </trkpt>
      <trkpt lat="41.792539" lon="22.97183">
        <ele>1646.9</ele>
        <time>2026-05-06T11:57:01.000Z</time>
      </trkpt>
      <trkpt lat="41.792539" lon="22.97183">
        <ele>1646.9</ele>
        <time>2026-05-06T11:57:02.000Z</time>
      </trkpt>
      <trkpt lat="41.792538" lon="22.971828">
        <ele>1647.4</ele>
        <time>2026-05-06T11:57:03.000Z</time>
      </trkpt>
      <trkpt lat="41.792537" lon="22.971825">
        <ele>1647.4</ele>
        <time>2026-05-06T11:57:04.000Z</time>
      </trkpt>
      <trkpt lat="41.792537" lon="22.971821">
        <ele>1647.4</ele>
        <time>2026-05-06T11:57:05.000Z</time>
      </trkpt>
      <trkpt lat="41.792539" lon="22.971818">
        <ele>1647.4</ele>
        <time>2026-05-06T11:57:06.000Z</time>
      </trkpt>
      <trkpt lat="41.792541" lon="22.971814">
        <ele>1647.4</ele>
        <time>2026-05-06T11:57:07.000Z</time>
      </trkpt>
      <trkpt lat="41.792543" lon="22.97181">
        <ele>1648.1</ele>
        <time>2026-05-06T11:57:08.000Z</time>
      </trkpt>
      <trkpt lat="41.792545" lon="22.971806">
        <ele>1648.1</ele>
        <time>2026-05-06T11:57:09.000Z</time>
      </trkpt>
      <trkpt lat="41.792546" lon="22.971803">
        <ele>1648.1</ele>
        <time>2026-05-06T11:57:10.000Z</time>
      </trkpt>
      <trkpt lat="41.792546" lon="22.9718">
        <ele>1648.1</ele>
        <time>2026-05-06T11:57:11.000Z</time>
      </trkpt>
      <trkpt lat="41.792545" lon="22.971798">
        <ele>1648.1</ele>
        <time>2026-05-06T11:57:12.000Z</time>
      </trkpt>
      <trkpt lat="41.792544" lon="22.971798">
        <ele>1648.5</ele>
        <time>2026-05-06T11:57:13.000Z</time>
      </trkpt>
      <trkpt lat="41.792544" lon="22.9718">
        <ele>1648.5</ele>
        <time>2026-05-06T11:57:14.000Z</time>
      </trkpt>
      <trkpt lat="41.792543" lon="22.971802">
        <ele>1648.5</ele>
        <time>2026-05-06T11:57:15.000Z</time>
      </trkpt>
      <trkpt lat="41.792542" lon="22.971804">
        <ele>1648.5</ele>
        <time>2026-05-06T11:57:16.000Z</time>
      </trkpt>
      <trkpt lat="41.792541" lon="22.971805">
        <ele>1648.5</ele>
        <time>2026-05-06T11:57:17.000Z</time>
      </trkpt>
      <trkpt lat="41.79254" lon="22.971807">
        <ele>1648.6</ele>
        <time>2026-05-06T11:57:18.000Z</time>
      </trkpt>
      <trkpt lat="41.79254" lon="22.971808">
        <ele>1648.6</ele>
        <time>2026-05-06T11:57:19.000Z</time>
      </trkpt>
      <trkpt lat="41.79254" lon="22.971809">
        <ele>1648.6</ele>
        <time>2026-05-06T11:57:20.000Z</time>
      </trkpt>
      <trkpt lat="41.792539" lon="22.971809">
        <ele>1648.6</ele>
        <time>2026-05-06T11:57:21.000Z</time>
      </trkpt>
      <trkpt lat="41.792539" lon="22.971811">
        <ele>1648.6</ele>
        <time>2026-05-06T11:57:22.000Z</time>
      </trkpt>
      <trkpt lat="41.792538" lon="22.971812">
        <ele>1648.7</ele>
        <time>2026-05-06T11:57:23.000Z</time>
      </trkpt>
      <trkpt lat="41.792537" lon="22.971813">
        <ele>1648.7</ele>
        <time>2026-05-06T11:57:24.000Z</time>
      </trkpt>
      <trkpt lat="41.792537" lon="22.971814">
        <ele>1648.7</ele>
        <time>2026-05-06T11:57:25.000Z</time>
      </trkpt>
      <trkpt lat="41.792536" lon="22.971814">
        <ele>1648.7</ele>
        <time>2026-05-06T11:57:26.000Z</time>
      </trkpt>
      <trkpt lat="41.792536" lon="22.971814">
        <ele>1648.7</ele>
        <time>2026-05-06T11:57:27.000Z</time>
      </trkpt>
      <trkpt lat="41.792536" lon="22.971814">
        <ele>1648.8</ele>
        <time>2026-05-06T11:57:28.000Z</time>
      </trkpt>
      <trkpt lat="41.792536" lon="22.971814">
        <ele>1648.8</ele>
        <time>2026-05-06T11:57:29.000Z</time>
      </trkpt>
      <trkpt lat="41.792536" lon="22.971814">
        <ele>1648.8</ele>
        <time>2026-05-06T11:57:30.000Z</time>
      </trkpt>
      <trkpt lat="41.792536" lon="22.971814">
        <ele>1648.8</ele>
        <time>2026-05-06T11:57:31.000Z</time>
      </trkpt>
      <trkpt lat="41.792536" lon="22.971814">
        <ele>1648.8</ele>
        <time>2026-05-06T11:57:32.000Z</time>
      </trkpt>
      <trkpt lat="41.792536" lon="22.971814">
        <ele>1648.8</ele>
        <time>2026-05-06T11:57:33.000Z</time>
      </trkpt>
      <trkpt lat="41.792536" lon="22.971814">
        <ele>1648.8</ele>
        <time>2026-05-06T11:57:34.000Z</time>
      </trkpt>
      <trkpt lat="41.792536" lon="22.971814">
        <ele>1648.8</ele>
        <time>2026-05-06T11:57:35.000Z</time>
      </trkpt>
      <trkpt lat="41.792536" lon="22.971814">
        <ele>1648.8</ele>
        <time>2026-05-06T11:57:36.000Z</time>
      </trkpt>
      <trkpt lat="41.792535" lon="22.971814">
        <ele>1648.8</ele>
        <time>2026-05-06T11:57:37.000Z</time>
      </trkpt>
      <trkpt lat="41.792535" lon="22.971815">
        <ele>1648.8</ele>
        <time>2026-05-06T11:57:38.000Z</time>
      </trkpt>
      <trkpt lat="41.792534" lon="22.971815">
        <ele>1648.8</ele>
        <time>2026-05-06T11:57:39.000Z</time>
      </trkpt>
      <trkpt lat="41.792534" lon="22.971815">
        <ele>1648.8</ele>
        <time>2026-05-06T11:57:40.000Z</time>
      </trkpt>
      <trkpt lat="41.792534" lon="22.971815">
        <ele>1648.8</ele>
        <time>2026-05-06T11:57:41.000Z</time>
      </trkpt>
      <trkpt lat="41.792534" lon="22.971815">
        <ele>1648.8</ele>
        <time>2026-05-06T11:57:42.000Z</time>
      </trkpt>
      <trkpt lat="41.792534" lon="22.971815">
        <ele>1648.9</ele>
        <time>2026-05-06T11:57:43.000Z</time>
      </trkpt>
      <trkpt lat="41.792534" lon="22.971815">
        <ele>1648.9</ele>
        <time>2026-05-06T11:57:44.000Z</time>
      </trkpt>
      <trkpt lat="41.792534" lon="22.971814">
        <ele>1648.9</ele>
        <time>2026-05-06T11:57:45.000Z</time>
      </trkpt>
      <trkpt lat="41.792534" lon="22.971814">
        <ele>1648.9</ele>
        <time>2026-05-06T11:57:46.000Z</time>
      </trkpt>
      <trkpt lat="41.792535" lon="22.971814">
        <ele>1648.9</ele>
        <time>2026-05-06T11:57:47.000Z</time>
      </trkpt>
      <trkpt lat="41.792535" lon="22.971813">
        <ele>1649</ele>
        <time>2026-05-06T11:57:48.000Z</time>
      </trkpt>
      <trkpt lat="41.792535" lon="22.971813">
        <ele>1649</ele>
        <time>2026-05-06T11:57:49.000Z</time>
      </trkpt>
      <trkpt lat="41.792536" lon="22.971813">
        <ele>1649</ele>
        <time>2026-05-06T11:57:50.000Z</time>
      </trkpt>
      <trkpt lat="41.792536" lon="22.971814">
        <ele>1649</ele>
        <time>2026-05-06T11:57:51.000Z</time>
      </trkpt>
      <trkpt lat="41.792537" lon="22.971814">
        <ele>1649</ele>
        <time>2026-05-06T11:57:52.000Z</time>
      </trkpt>
      <trkpt lat="41.792539" lon="22.971815">
        <ele>1649</ele>
        <time>2026-05-06T11:57:53.000Z</time>
      </trkpt>
      <trkpt lat="41.79254" lon="22.971814">
        <ele>1649</ele>
        <time>2026-05-06T11:57:54.000Z</time>
      </trkpt>
      <trkpt lat="41.792542" lon="22.971813">
        <ele>1649</ele>
        <time>2026-05-06T11:57:55.000Z</time>
      </trkpt>
      <trkpt lat="41.792544" lon="22.971812">
        <ele>1649</ele>
        <time>2026-05-06T11:57:56.000Z</time>
      </trkpt>
      <trkpt lat="41.792545" lon="22.971812">
        <ele>1649</ele>
        <time>2026-05-06T11:57:57.000Z</time>
      </trkpt>
      <trkpt lat="41.792545" lon="22.971811">
        <ele>1648.8</ele>
        <time>2026-05-06T11:57:58.000Z</time>
      </trkpt>
      <trkpt lat="41.792544" lon="22.971811">
        <ele>1648.8</ele>
        <time>2026-05-06T11:57:59.000Z</time>
      </trkpt>
      <trkpt lat="41.792544" lon="22.971812">
        <ele>1648.8</ele>
        <time>2026-05-06T11:58:00.000Z</time>
      </trkpt>
      <trkpt lat="41.792544" lon="22.971812">
        <ele>1648.8</ele>
        <time>2026-05-06T11:58:01.000Z</time>
      </trkpt>
      <trkpt lat="41.792544" lon="22.971813">
        <ele>1648.8</ele>
        <time>2026-05-06T11:58:02.000Z</time>
      </trkpt>
      <trkpt lat="41.792543" lon="22.971813">
        <ele>1648.7</ele>
        <time>2026-05-06T11:58:03.000Z</time>
      </trkpt>
      <trkpt lat="41.792543" lon="22.971813">
        <ele>1648.7</ele>
        <time>2026-05-06T11:58:04.000Z</time>
      </trkpt>
      <trkpt lat="41.792543" lon="22.971812">
        <ele>1648.7</ele>
        <time>2026-05-06T11:58:05.000Z</time>
      </trkpt>
      <trkpt lat="41.792543" lon="22.971812">
        <ele>1648.7</ele>
        <time>2026-05-06T11:58:06.000Z</time>
      </trkpt>
      <trkpt lat="41.792542" lon="22.971811">
        <ele>1648.7</ele>
        <time>2026-05-06T11:58:07.000Z</time>
      </trkpt>
      <trkpt lat="41.792542" lon="22.971811">
        <ele>1648.5</ele>
        <time>2026-05-06T11:58:08.000Z</time>
      </trkpt>
      <trkpt lat="41.792542" lon="22.97181">
        <ele>1648.5</ele>
        <time>2026-05-06T11:58:09.000Z</time>
      </trkpt>
      <trkpt lat="41.792541" lon="22.97181">
        <ele>1648.5</ele>
        <time>2026-05-06T11:58:10.000Z</time>
      </trkpt>
      <trkpt lat="41.79254" lon="22.97181">
        <ele>1648.5</ele>
        <time>2026-05-06T11:58:11.000Z</time>
      </trkpt>
      <trkpt lat="41.792541" lon="22.97181">
        <ele>1648.5</ele>
        <time>2026-05-06T11:58:12.000Z</time>
      </trkpt>
      <trkpt lat="41.792541" lon="22.971811">
        <ele>1648.7</ele>
        <time>2026-05-06T11:58:13.000Z</time>
      </trkpt>
      <trkpt lat="41.792541" lon="22.971811">
        <ele>1648.7</ele>
        <time>2026-05-06T11:58:14.000Z</time>
      </trkpt>
      <trkpt lat="41.792543" lon="22.971812">
        <ele>1648.7</ele>
        <time>2026-05-06T11:58:15.000Z</time>
      </trkpt>
      <trkpt lat="41.792544" lon="22.971813">
        <ele>1648.7</ele>
        <time>2026-05-06T11:58:16.000Z</time>
      </trkpt>
      <trkpt lat="41.792544" lon="22.971813">
        <ele>1648.7</ele>
        <time>2026-05-06T11:58:17.000Z</time>
      </trkpt>
      <trkpt lat="41.792544" lon="22.971813">
        <ele>1648.9</ele>
        <time>2026-05-06T11:58:18.000Z</time>
      </trkpt>
      <trkpt lat="41.792543" lon="22.971812">
        <ele>1648.9</ele>
        <time>2026-05-06T11:58:19.000Z</time>
      </trkpt>
      <trkpt lat="41.792543" lon="22.971812">
        <ele>1648.9</ele>
        <time>2026-05-06T11:58:20.000Z</time>
      </trkpt>
      <trkpt lat="41.792543" lon="22.971811">
        <ele>1648.9</ele>
        <time>2026-05-06T11:58:21.000Z</time>
      </trkpt>
      <trkpt lat="41.792543" lon="22.971809">
        <ele>1648.9</ele>
        <time>2026-05-06T11:58:22.000Z</time>
      </trkpt>
      <trkpt lat="41.792543" lon="22.971807">
        <ele>1649.4</ele>
        <time>2026-05-06T11:58:23.000Z</time>
      </trkpt>
      <trkpt lat="41.792542" lon="22.971805">
        <ele>1649.4</ele>
        <time>2026-05-06T11:58:24.000Z</time>
      </trkpt>
      <trkpt lat="41.792542" lon="22.971805">
        <ele>1649.4</ele>
        <time>2026-05-06T11:58:25.000Z</time>
      </trkpt>
      <trkpt lat="41.792542" lon="22.971805">
        <ele>1649.4</ele>
        <time>2026-05-06T11:58:26.000Z</time>
      </trkpt>
      <trkpt lat="41.792543" lon="22.971807">
        <ele>1649.4</ele>
        <time>2026-05-06T11:58:27.000Z</time>
      </trkpt>
      <trkpt lat="41.792543" lon="22.971809">
        <ele>1649.6</ele>
        <time>2026-05-06T11:58:28.000Z</time>
      </trkpt>
      <trkpt lat="41.792542" lon="22.971811">
        <ele>1649.6</ele>
        <time>2026-05-06T11:58:29.000Z</time>
      </trkpt>
      <trkpt lat="41.792542" lon="22.971812">
        <ele>1649.6</ele>
        <time>2026-05-06T11:58:30.000Z</time>
      </trkpt>
      <trkpt lat="41.792542" lon="22.971814">
        <ele>1649.6</ele>
        <time>2026-05-06T11:58:31.000Z</time>
      </trkpt>
      <trkpt lat="41.792541" lon="22.971815">
        <ele>1649.6</ele>
        <time>2026-05-06T11:58:32.000Z</time>
      </trkpt>
      <trkpt lat="41.79254" lon="22.971816">
        <ele>1649.6</ele>
        <time>2026-05-06T11:58:33.000Z</time>
      </trkpt>
      <trkpt lat="41.79254" lon="22.971817">
        <ele>1649.6</ele>
        <time>2026-05-06T11:58:34.000Z</time>
      </trkpt>
      <trkpt lat="41.79254" lon="22.971817">
        <ele>1649.6</ele>
        <time>2026-05-06T11:58:35.000Z</time>
      </trkpt>
      <trkpt lat="41.79254" lon="22.971816">
        <ele>1649.6</ele>
        <time>2026-05-06T11:58:36.000Z</time>
      </trkpt>
      <trkpt lat="41.79254" lon="22.971817">
        <ele>1649.6</ele>
        <time>2026-05-06T11:58:37.000Z</time>
      </trkpt>
      <trkpt lat="41.79254" lon="22.971816">
        <ele>1649.2</ele>
        <time>2026-05-06T11:58:38.000Z</time>
      </trkpt>
      <trkpt lat="41.792541" lon="22.971816">
        <ele>1649.2</ele>
        <time>2026-05-06T11:58:39.000Z</time>
      </trkpt>
      <trkpt lat="41.792541" lon="22.971815">
        <ele>1649.2</ele>
        <time>2026-05-06T11:58:40.000Z</time>
      </trkpt>
      <trkpt lat="41.79254" lon="22.971814">
        <ele>1649.2</ele>
        <time>2026-05-06T11:58:41.000Z</time>
      </trkpt>
      <trkpt lat="41.792539" lon="22.971813">
        <ele>1649.2</ele>
        <time>2026-05-06T11:58:42.000Z</time>
      </trkpt>
      <trkpt lat="41.792538" lon="22.971812">
        <ele>1648.8</ele>
        <time>2026-05-06T11:58:43.000Z</time>
      </trkpt>
      <trkpt lat="41.792537" lon="22.971811">
        <ele>1648.8</ele>
        <time>2026-05-06T11:58:44.000Z</time>
      </trkpt>
      <trkpt lat="41.792536" lon="22.971808">
        <ele>1648.8</ele>
        <time>2026-05-06T11:58:45.000Z</time>
      </trkpt>
      <trkpt lat="41.792536" lon="22.971806">
        <ele>1648.8</ele>
        <time>2026-05-06T11:58:46.000Z</time>
      </trkpt>
      <trkpt lat="41.792537" lon="22.971805">
        <ele>1648.8</ele>
        <time>2026-05-06T11:58:47.000Z</time>
      </trkpt>
      <trkpt lat="41.792538" lon="22.971804">
        <ele>1648.8</ele>
        <time>2026-05-06T11:58:48.000Z</time>
      </trkpt>
      <trkpt lat="41.79254" lon="22.971803">
        <ele>1648.8</ele>
        <time>2026-05-06T11:58:49.000Z</time>
      </trkpt>
      <trkpt lat="41.792542" lon="22.971804">
        <ele>1648.8</ele>
        <time>2026-05-06T11:58:50.000Z</time>
      </trkpt>
      <trkpt lat="41.792543" lon="22.971804">
        <ele>1648.8</ele>
        <time>2026-05-06T11:58:51.000Z</time>
      </trkpt>
      <trkpt lat="41.792544" lon="22.971804">
        <ele>1648.8</ele>
        <time>2026-05-06T11:58:52.000Z</time>
      </trkpt>
      <trkpt lat="41.792544" lon="22.971803">
        <ele>1649.2</ele>
        <time>2026-05-06T11:58:53.000Z</time>
      </trkpt>
      <trkpt lat="41.792545" lon="22.971803">
        <ele>1649.2</ele>
        <time>2026-05-06T11:58:54.000Z</time>
      </trkpt>
      <trkpt lat="41.792545" lon="22.971803">
        <ele>1649.2</ele>
        <time>2026-05-06T11:58:55.000Z</time>
      </trkpt>
      <trkpt lat="41.792544" lon="22.971802">
        <ele>1649.2</ele>
        <time>2026-05-06T11:58:56.000Z</time>
      </trkpt>
      <trkpt lat="41.792544" lon="22.971801">
        <ele>1649.2</ele>
        <time>2026-05-06T11:58:57.000Z</time>
      </trkpt>
      <trkpt lat="41.792542" lon="22.9718">
        <ele>1649.6</ele>
        <time>2026-05-06T11:58:58.000Z</time>
      </trkpt>
      <trkpt lat="41.792541" lon="22.9718">
        <ele>1649.6</ele>
        <time>2026-05-06T11:58:59.000Z</time>
      </trkpt>
      <trkpt lat="41.792539" lon="22.9718">
        <ele>1649.6</ele>
        <time>2026-05-06T11:59:00.000Z</time>
      </trkpt>
      <trkpt lat="41.792537" lon="22.9718">
        <ele>1649.6</ele>
        <time>2026-05-06T11:59:01.000Z</time>
      </trkpt>
      <trkpt lat="41.792537" lon="22.9718">
        <ele>1649.6</ele>
        <time>2026-05-06T11:59:02.000Z</time>
      </trkpt>
      <trkpt lat="41.792536" lon="22.971801">
        <ele>1649.6</ele>
        <time>2026-05-06T11:59:03.000Z</time>
      </trkpt>
      <trkpt lat="41.792535" lon="22.971801">
        <ele>1649.6</ele>
        <time>2026-05-06T11:59:04.000Z</time>
      </trkpt>
      <trkpt lat="41.792535" lon="22.971801">
        <ele>1649.6</ele>
        <time>2026-05-06T11:59:05.000Z</time>
      </trkpt>
      <trkpt lat="41.792537" lon="22.971801">
        <ele>1649.6</ele>
        <time>2026-05-06T11:59:06.000Z</time>
      </trkpt>
      <trkpt lat="41.792538" lon="22.971802">
        <ele>1649.6</ele>
        <time>2026-05-06T11:59:07.000Z</time>
      </trkpt>
      <trkpt lat="41.79254" lon="22.971802">
        <ele>1649.6</ele>
        <time>2026-05-06T11:59:08.000Z</time>
      </trkpt>
      <trkpt lat="41.792542" lon="22.971801">
        <ele>1649.6</ele>
        <time>2026-05-06T11:59:09.000Z</time>
      </trkpt>
      <trkpt lat="41.792546" lon="22.971798">
        <ele>1649.6</ele>
        <time>2026-05-06T11:59:10.000Z</time>
      </trkpt>
      <trkpt lat="41.792549" lon="22.971791">
        <ele>1649.6</ele>
        <time>2026-05-06T11:59:11.000Z</time>
      </trkpt>
      <trkpt lat="41.792552" lon="22.971783">
        <ele>1649.6</ele>
        <time>2026-05-06T11:59:12.000Z</time>
      </trkpt>
      <trkpt lat="41.792556" lon="22.971772">
        <ele>1649.6</ele>
        <time>2026-05-06T11:59:13.000Z</time>
      </trkpt>
      <trkpt lat="41.79256" lon="22.971761">
        <ele>1649.6</ele>
        <time>2026-05-06T11:59:14.000Z</time>
      </trkpt>
      <trkpt lat="41.792564" lon="22.971751">
        <ele>1649.6</ele>
        <time>2026-05-06T11:59:15.000Z</time>
      </trkpt>
      <trkpt lat="41.792566" lon="22.971744">
        <ele>1649.6</ele>
        <time>2026-05-06T11:59:16.000Z</time>
      </trkpt>
      <trkpt lat="41.792567" lon="22.971736">
        <ele>1649.6</ele>
        <time>2026-05-06T11:59:17.000Z</time>
      </trkpt>
      <trkpt lat="41.792567" lon="22.971731">
        <ele>1649.6</ele>
        <time>2026-05-06T11:59:18.000Z</time>
      </trkpt>
      <trkpt lat="41.792566" lon="22.971724">
        <ele>1649.6</ele>
        <time>2026-05-06T11:59:19.000Z</time>
      </trkpt>
      <trkpt lat="41.792564" lon="22.971717">
        <ele>1649.6</ele>
        <time>2026-05-06T11:59:20.000Z</time>
      </trkpt>
      <trkpt lat="41.792563" lon="22.97171">
        <ele>1649.6</ele>
        <time>2026-05-06T11:59:21.000Z</time>
      </trkpt>
      <trkpt lat="41.792562" lon="22.971701">
        <ele>1649.6</ele>
        <time>2026-05-06T11:59:22.000Z</time>
      </trkpt>
      <trkpt lat="41.792561" lon="22.971695">
        <ele>1649.9</ele>
        <time>2026-05-06T11:59:23.000Z</time>
      </trkpt>
      <trkpt lat="41.792561" lon="22.971691">
        <ele>1649.9</ele>
        <time>2026-05-06T11:59:24.000Z</time>
      </trkpt>
      <trkpt lat="41.792562" lon="22.971689">
        <ele>1649.9</ele>
        <time>2026-05-06T11:59:25.000Z</time>
      </trkpt>
      <trkpt lat="41.792563" lon="22.971689">
        <ele>1649.9</ele>
        <time>2026-05-06T11:59:26.000Z</time>
      </trkpt>
      <trkpt lat="41.792563" lon="22.971691">
        <ele>1649.9</ele>
        <time>2026-05-06T11:59:27.000Z</time>
      </trkpt>
      <trkpt lat="41.792563" lon="22.971692">
        <ele>1650.6</ele>
        <time>2026-05-06T11:59:28.000Z</time>
      </trkpt>
      <trkpt lat="41.792563" lon="22.971691">
        <ele>1650.6</ele>
        <time>2026-05-06T11:59:29.000Z</time>
      </trkpt>
      <trkpt lat="41.792561" lon="22.971688">
        <ele>1650.6</ele>
        <time>2026-05-06T11:59:30.000Z</time>
      </trkpt>
      <trkpt lat="41.79256" lon="22.971684">
        <ele>1650.6</ele>
        <time>2026-05-06T11:59:31.000Z</time>
      </trkpt>
      <trkpt lat="41.79256" lon="22.971678">
        <ele>1650.6</ele>
        <time>2026-05-06T11:59:32.000Z</time>
      </trkpt>
      <trkpt lat="41.79256" lon="22.97167">
        <ele>1651.1</ele>
        <time>2026-05-06T11:59:33.000Z</time>
      </trkpt>
      <trkpt lat="41.792563" lon="22.971663">
        <ele>1651.1</ele>
        <time>2026-05-06T11:59:34.000Z</time>
      </trkpt>
      <trkpt lat="41.792567" lon="22.971657">
        <ele>1651.1</ele>
        <time>2026-05-06T11:59:35.000Z</time>
      </trkpt>
      <trkpt lat="41.792571" lon="22.97165">
        <ele>1651.1</ele>
        <time>2026-05-06T11:59:36.000Z</time>
      </trkpt>
      <trkpt lat="41.792576" lon="22.971642">
        <ele>1651.1</ele>
        <time>2026-05-06T11:59:37.000Z</time>
      </trkpt>
      <trkpt lat="41.792582" lon="22.971634">
        <ele>1651.9</ele>
        <time>2026-05-06T11:59:38.000Z</time>
      </trkpt>
      <trkpt lat="41.792586" lon="22.971625">
        <ele>1651.9</ele>
        <time>2026-05-06T11:59:39.000Z</time>
      </trkpt>
      <trkpt lat="41.792589" lon="22.971615">
        <ele>1651.9</ele>
        <time>2026-05-06T11:59:40.000Z</time>
      </trkpt>
      <trkpt lat="41.792593" lon="22.971604">
        <ele>1651.9</ele>
        <time>2026-05-06T11:59:41.000Z</time>
      </trkpt>
      <trkpt lat="41.792593" lon="22.971595">
        <ele>1651.9</ele>
        <time>2026-05-06T11:59:42.000Z</time>
      </trkpt>
      <trkpt lat="41.792593" lon="22.971585">
        <ele>1652.4</ele>
        <time>2026-05-06T11:59:43.000Z</time>
      </trkpt>
      <trkpt lat="41.792592" lon="22.971575">
        <ele>1652.4</ele>
        <time>2026-05-06T11:59:44.000Z</time>
      </trkpt>
      <trkpt lat="41.792592" lon="22.971566">
        <ele>1652.4</ele>
        <time>2026-05-06T11:59:45.000Z</time>
      </trkpt>
      <trkpt lat="41.792591" lon="22.971557">
        <ele>1652.4</ele>
        <time>2026-05-06T11:59:46.000Z</time>
      </trkpt>
      <trkpt lat="41.792591" lon="22.971548">
        <ele>1652.4</ele>
        <time>2026-05-06T11:59:47.000Z</time>
      </trkpt>
      <trkpt lat="41.792593" lon="22.97154">
        <ele>1652.7</ele>
        <time>2026-05-06T11:59:48.000Z</time>
      </trkpt>
      <trkpt lat="41.792596" lon="22.971532">
        <ele>1652.7</ele>
        <time>2026-05-06T11:59:49.000Z</time>
      </trkpt>
      <trkpt lat="41.792599" lon="22.971524">
        <ele>1652.7</ele>
        <time>2026-05-06T11:59:50.000Z</time>
      </trkpt>
      <trkpt lat="41.792603" lon="22.971516">
        <ele>1652.7</ele>
        <time>2026-05-06T11:59:51.000Z</time>
      </trkpt>
      <trkpt lat="41.792608" lon="22.97151">
        <ele>1652.7</ele>
        <time>2026-05-06T11:59:52.000Z</time>
      </trkpt>
      <trkpt lat="41.792611" lon="22.971502">
        <ele>1653.4</ele>
        <time>2026-05-06T11:59:53.000Z</time>
      </trkpt>
      <trkpt lat="41.792613" lon="22.971493">
        <ele>1653.4</ele>
        <time>2026-05-06T11:59:54.000Z</time>
      </trkpt>
      <trkpt lat="41.792613" lon="22.971484">
        <ele>1653.4</ele>
        <time>2026-05-06T11:59:55.000Z</time>
      </trkpt>
      <trkpt lat="41.792613" lon="22.971474">
        <ele>1653.4</ele>
        <time>2026-05-06T11:59:56.000Z</time>
      </trkpt>
      <trkpt lat="41.792612" lon="22.971464">
        <ele>1653.4</ele>
        <time>2026-05-06T11:59:57.000Z</time>
      </trkpt>
      <trkpt lat="41.792611" lon="22.971453">
        <ele>1654.2</ele>
        <time>2026-05-06T11:59:58.000Z</time>
      </trkpt>
      <trkpt lat="41.79261" lon="22.971443">
        <ele>1654.2</ele>
        <time>2026-05-06T11:59:59.000Z</time>
      </trkpt>
      <trkpt lat="41.792611" lon="22.971434">
        <ele>1654.2</ele>
        <time>2026-05-06T12:00:00.000Z</time>
      </trkpt>
      <trkpt lat="41.792613" lon="22.971424">
        <ele>1654.2</ele>
        <time>2026-05-06T12:00:01.000Z</time>
      </trkpt>
      <trkpt lat="41.792615" lon="22.971415">
        <ele>1654.2</ele>
        <time>2026-05-06T12:00:02.000Z</time>
      </trkpt>
      <trkpt lat="41.792617" lon="22.971406">
        <ele>1654.6</ele>
        <time>2026-05-06T12:00:03.000Z</time>
      </trkpt>
      <trkpt lat="41.79262" lon="22.971398">
        <ele>1654.6</ele>
        <time>2026-05-06T12:00:04.000Z</time>
      </trkpt>
      <trkpt lat="41.792621" lon="22.971388">
        <ele>1654.6</ele>
        <time>2026-05-06T12:00:05.000Z</time>
      </trkpt>
      <trkpt lat="41.792622" lon="22.971379">
        <ele>1654.6</ele>
        <time>2026-05-06T12:00:06.000Z</time>
      </trkpt>
      <trkpt lat="41.792623" lon="22.971368">
        <ele>1654.6</ele>
        <time>2026-05-06T12:00:07.000Z</time>
      </trkpt>
      <trkpt lat="41.792624" lon="22.971358">
        <ele>1655.2</ele>
        <time>2026-05-06T12:00:08.000Z</time>
      </trkpt>
      <trkpt lat="41.792625" lon="22.971347">
        <ele>1655.2</ele>
        <time>2026-05-06T12:00:09.000Z</time>
      </trkpt>
      <trkpt lat="41.792627" lon="22.971334">
        <ele>1655.2</ele>
        <time>2026-05-06T12:00:10.000Z</time>
      </trkpt>
      <trkpt lat="41.792627" lon="22.97132">
        <ele>1655.2</ele>
        <time>2026-05-06T12:00:11.000Z</time>
      </trkpt>
      <trkpt lat="41.792627" lon="22.971306">
        <ele>1655.2</ele>
        <time>2026-05-06T12:00:12.000Z</time>
      </trkpt>
      <trkpt lat="41.792626" lon="22.971288">
        <ele>1655.5</ele>
        <time>2026-05-06T12:00:13.000Z</time>
      </trkpt>
      <trkpt lat="41.792626" lon="22.971271">
        <ele>1655.5</ele>
        <time>2026-05-06T12:00:14.000Z</time>
      </trkpt>
      <trkpt lat="41.792626" lon="22.971254">
        <ele>1655.5</ele>
        <time>2026-05-06T12:00:15.000Z</time>
      </trkpt>
      <trkpt lat="41.792624" lon="22.971238">
        <ele>1655.5</ele>
        <time>2026-05-06T12:00:16.000Z</time>
      </trkpt>
      <trkpt lat="41.792623" lon="22.971221">
        <ele>1655.5</ele>
        <time>2026-05-06T12:00:17.000Z</time>
      </trkpt>
      <trkpt lat="41.792623" lon="22.971206">
        <ele>1655.5</ele>
        <time>2026-05-06T12:00:18.000Z</time>
      </trkpt>
      <trkpt lat="41.792623" lon="22.971193">
        <ele>1655.5</ele>
        <time>2026-05-06T12:00:19.000Z</time>
      </trkpt>
      <trkpt lat="41.792624" lon="22.97118">
        <ele>1655.5</ele>
        <time>2026-05-06T12:00:20.000Z</time>
      </trkpt>
      <trkpt lat="41.792626" lon="22.971169">
        <ele>1655.5</ele>
        <time>2026-05-06T12:00:21.000Z</time>
      </trkpt>
      <trkpt lat="41.79263" lon="22.971159">
        <ele>1655.5</ele>
        <time>2026-05-06T12:00:22.000Z</time>
      </trkpt>
      <trkpt lat="41.792634" lon="22.97115">
        <ele>1655.4</ele>
        <time>2026-05-06T12:00:23.000Z</time>
      </trkpt>
      <trkpt lat="41.792637" lon="22.971142">
        <ele>1655.4</ele>
        <time>2026-05-06T12:00:24.000Z</time>
      </trkpt>
      <trkpt lat="41.792641" lon="22.971136">
        <ele>1655.4</ele>
        <time>2026-05-06T12:00:25.000Z</time>
      </trkpt>
      <trkpt lat="41.792644" lon="22.971128">
        <ele>1655.4</ele>
        <time>2026-05-06T12:00:26.000Z</time>
      </trkpt>
      <trkpt lat="41.792646" lon="22.971121">
        <ele>1655.4</ele>
        <time>2026-05-06T12:00:27.000Z</time>
      </trkpt>
      <trkpt lat="41.792647" lon="22.971114">
        <ele>1655.2</ele>
        <time>2026-05-06T12:00:28.000Z</time>
      </trkpt>
      <trkpt lat="41.792647" lon="22.971107">
        <ele>1655.2</ele>
        <time>2026-05-06T12:00:29.000Z</time>
      </trkpt>
      <trkpt lat="41.792646" lon="22.971101">
        <ele>1655.2</ele>
        <time>2026-05-06T12:00:30.000Z</time>
      </trkpt>
      <trkpt lat="41.792645" lon="22.971096">
        <ele>1655.2</ele>
        <time>2026-05-06T12:00:31.000Z</time>
      </trkpt>
      <trkpt lat="41.792643" lon="22.971092">
        <ele>1655.2</ele>
        <time>2026-05-06T12:00:32.000Z</time>
      </trkpt>
      <trkpt lat="41.792643" lon="22.971089">
        <ele>1655.2</ele>
        <time>2026-05-06T12:00:33.000Z</time>
      </trkpt>
      <trkpt lat="41.792642" lon="22.971087">
        <ele>1655.2</ele>
        <time>2026-05-06T12:00:34.000Z</time>
      </trkpt>
      <trkpt lat="41.792641" lon="22.971085">
        <ele>1655.2</ele>
        <time>2026-05-06T12:00:35.000Z</time>
      </trkpt>
      <trkpt lat="41.792641" lon="22.971083">
        <ele>1655.2</ele>
        <time>2026-05-06T12:00:36.000Z</time>
      </trkpt>
      <trkpt lat="41.792641" lon="22.971082">
        <ele>1655.2</ele>
        <time>2026-05-06T12:00:37.000Z</time>
      </trkpt>
      <trkpt lat="41.792643" lon="22.971081">
        <ele>1655.2</ele>
        <time>2026-05-06T12:00:38.000Z</time>
      </trkpt>
      <trkpt lat="41.792645" lon="22.97108">
        <ele>1655.2</ele>
        <time>2026-05-06T12:00:39.000Z</time>
      </trkpt>
      <trkpt lat="41.792647" lon="22.971079">
        <ele>1655.2</ele>
        <time>2026-05-06T12:00:40.000Z</time>
      </trkpt>
      <trkpt lat="41.792649" lon="22.971079">
        <ele>1655.2</ele>
        <time>2026-05-06T12:00:41.000Z</time>
      </trkpt>
      <trkpt lat="41.792651" lon="22.971079">
        <ele>1655.2</ele>
        <time>2026-05-06T12:00:42.000Z</time>
      </trkpt>
      <trkpt lat="41.792651" lon="22.97108">
        <ele>1655.4</ele>
        <time>2026-05-06T12:00:43.000Z</time>
      </trkpt>
      <trkpt lat="41.792652" lon="22.97108">
        <ele>1655.4</ele>
        <time>2026-05-06T12:00:44.000Z</time>
      </trkpt>
      <trkpt lat="41.792652" lon="22.97108">
        <ele>1655.4</ele>
        <time>2026-05-06T12:00:45.000Z</time>
      </trkpt>
      <trkpt lat="41.792652" lon="22.97108">
        <ele>1655.4</ele>
        <time>2026-05-06T12:00:46.000Z</time>
      </trkpt>
      <trkpt lat="41.792653" lon="22.971081">
        <ele>1655.4</ele>
        <time>2026-05-06T12:00:47.000Z</time>
      </trkpt>
      <trkpt lat="41.792654" lon="22.971082">
        <ele>1655.6</ele>
        <time>2026-05-06T12:00:48.000Z</time>
      </trkpt>
      <trkpt lat="41.792654" lon="22.971084">
        <ele>1655.6</ele>
        <time>2026-05-06T12:00:49.000Z</time>
      </trkpt>
      <trkpt lat="41.792654" lon="22.971085">
        <ele>1655.6</ele>
        <time>2026-05-06T12:00:50.000Z</time>
      </trkpt>
      <trkpt lat="41.792654" lon="22.971087">
        <ele>1655.6</ele>
        <time>2026-05-06T12:00:51.000Z</time>
      </trkpt>
      <trkpt lat="41.792655" lon="22.971088">
        <ele>1655.6</ele>
        <time>2026-05-06T12:00:52.000Z</time>
      </trkpt>
      <trkpt lat="41.792655" lon="22.971089">
        <ele>1655.6</ele>
        <time>2026-05-06T12:00:53.000Z</time>
      </trkpt>
      <trkpt lat="41.792656" lon="22.971091">
        <ele>1655.6</ele>
        <time>2026-05-06T12:00:54.000Z</time>
      </trkpt>
      <trkpt lat="41.792657" lon="22.971091">
        <ele>1655.6</ele>
        <time>2026-05-06T12:00:55.000Z</time>
      </trkpt>
      <trkpt lat="41.792658" lon="22.971092">
        <ele>1655.6</ele>
        <time>2026-05-06T12:00:56.000Z</time>
      </trkpt>
      <trkpt lat="41.792658" lon="22.971091">
        <ele>1655.6</ele>
        <time>2026-05-06T12:00:57.000Z</time>
      </trkpt>
      <trkpt lat="41.792658" lon="22.97109">
        <ele>1655.3</ele>
        <time>2026-05-06T12:00:58.000Z</time>
      </trkpt>
      <trkpt lat="41.792659" lon="22.971087">
        <ele>1655.3</ele>
        <time>2026-05-06T12:00:59.000Z</time>
      </trkpt>
      <trkpt lat="41.79266" lon="22.971085">
        <ele>1655.3</ele>
        <time>2026-05-06T12:01:00.000Z</time>
      </trkpt>
      <trkpt lat="41.79266" lon="22.971081">
        <ele>1655.3</ele>
        <time>2026-05-06T12:01:01.000Z</time>
      </trkpt>
      <trkpt lat="41.79266" lon="22.971077">
        <ele>1655.3</ele>
        <time>2026-05-06T12:01:02.000Z</time>
      </trkpt>
      <trkpt lat="41.792659" lon="22.971073">
        <ele>1655.2</ele>
        <time>2026-05-06T12:01:03.000Z</time>
      </trkpt>
      <trkpt lat="41.792657" lon="22.971071">
        <ele>1655.2</ele>
        <time>2026-05-06T12:01:04.000Z</time>
      </trkpt>
      <trkpt lat="41.792656" lon="22.97107">
        <ele>1655.2</ele>
        <time>2026-05-06T12:01:05.000Z</time>
      </trkpt>
      <trkpt lat="41.792656" lon="22.971069">
        <ele>1655.2</ele>
        <time>2026-05-06T12:01:06.000Z</time>
      </trkpt>
      <trkpt lat="41.792656" lon="22.97107">
        <ele>1655.2</ele>
        <time>2026-05-06T12:01:07.000Z</time>
      </trkpt>
      <trkpt lat="41.792658" lon="22.971071">
        <ele>1655.1</ele>
        <time>2026-05-06T12:01:08.000Z</time>
      </trkpt>
      <trkpt lat="41.792659" lon="22.971072">
        <ele>1655.1</ele>
        <time>2026-05-06T12:01:09.000Z</time>
      </trkpt>
      <trkpt lat="41.792659" lon="22.971073">
        <ele>1655.1</ele>
        <time>2026-05-06T12:01:10.000Z</time>
      </trkpt>
      <trkpt lat="41.792659" lon="22.971074">
        <ele>1655.1</ele>
        <time>2026-05-06T12:01:11.000Z</time>
      </trkpt>
      <trkpt lat="41.79266" lon="22.971076">
        <ele>1655.1</ele>
        <time>2026-05-06T12:01:12.000Z</time>
      </trkpt>
      <trkpt lat="41.79266" lon="22.971076">
        <ele>1655.5</ele>
        <time>2026-05-06T12:01:13.000Z</time>
      </trkpt>
      <trkpt lat="41.792659" lon="22.971077">
        <ele>1655.5</ele>
        <time>2026-05-06T12:01:14.000Z</time>
      </trkpt>
      <trkpt lat="41.792659" lon="22.971078">
        <ele>1655.5</ele>
        <time>2026-05-06T12:01:15.000Z</time>
      </trkpt>
      <trkpt lat="41.792658" lon="22.971079">
        <ele>1655.5</ele>
        <time>2026-05-06T12:01:16.000Z</time>
      </trkpt>
      <trkpt lat="41.792657" lon="22.971079">
        <ele>1655.5</ele>
        <time>2026-05-06T12:01:17.000Z</time>
      </trkpt>
      <trkpt lat="41.792656" lon="22.971079">
        <ele>1655.7</ele>
        <time>2026-05-06T12:01:18.000Z</time>
      </trkpt>
      <trkpt lat="41.792655" lon="22.971079">
        <ele>1655.7</ele>
        <time>2026-05-06T12:01:19.000Z</time>
      </trkpt>
      <trkpt lat="41.792654" lon="22.971076">
        <ele>1655.7</ele>
        <time>2026-05-06T12:01:20.000Z</time>
      </trkpt>
      <trkpt lat="41.792652" lon="22.971071">
        <ele>1655.7</ele>
        <time>2026-05-06T12:01:21.000Z</time>
      </trkpt>
      <trkpt lat="41.79265" lon="22.971066">
        <ele>1655.7</ele>
        <time>2026-05-06T12:01:22.000Z</time>
      </trkpt>
      <trkpt lat="41.792647" lon="22.97106">
        <ele>1656</ele>
        <time>2026-05-06T12:01:23.000Z</time>
      </trkpt>
      <trkpt lat="41.792644" lon="22.971053">
        <ele>1656</ele>
        <time>2026-05-06T12:01:24.000Z</time>
      </trkpt>
      <trkpt lat="41.792641" lon="22.971047">
        <ele>1656</ele>
        <time>2026-05-06T12:01:25.000Z</time>
      </trkpt>
      <trkpt lat="41.792639" lon="22.971041">
        <ele>1656</ele>
        <time>2026-05-06T12:01:26.000Z</time>
      </trkpt>
      <trkpt lat="41.792638" lon="22.971035">
        <ele>1656</ele>
        <time>2026-05-06T12:01:27.000Z</time>
      </trkpt>
      <trkpt lat="41.792637" lon="22.97103">
        <ele>1656</ele>
        <time>2026-05-06T12:01:28.000Z</time>
      </trkpt>
      <trkpt lat="41.792637" lon="22.971027">
        <ele>1656</ele>
        <time>2026-05-06T12:01:29.000Z</time>
      </trkpt>
      <trkpt lat="41.792637" lon="22.971024">
        <ele>1656</ele>
        <time>2026-05-06T12:01:30.000Z</time>
      </trkpt>
      <trkpt lat="41.792636" lon="22.971022">
        <ele>1656</ele>
        <time>2026-05-06T12:01:31.000Z</time>
      </trkpt>
      <trkpt lat="41.792634" lon="22.971019">
        <ele>1656</ele>
        <time>2026-05-06T12:01:32.000Z</time>
      </trkpt>
      <trkpt lat="41.792631" lon="22.971016">
        <ele>1656.1</ele>
        <time>2026-05-06T12:01:33.000Z</time>
      </trkpt>
      <trkpt lat="41.792628" lon="22.971013">
        <ele>1656.1</ele>
        <time>2026-05-06T12:01:34.000Z</time>
      </trkpt>
      <trkpt lat="41.792624" lon="22.97101">
        <ele>1656.1</ele>
        <time>2026-05-06T12:01:35.000Z</time>
      </trkpt>
      <trkpt lat="41.792618" lon="22.971009">
        <ele>1656.1</ele>
        <time>2026-05-06T12:01:36.000Z</time>
      </trkpt>
      <trkpt lat="41.792613" lon="22.971008">
        <ele>1656.1</ele>
        <time>2026-05-06T12:01:37.000Z</time>
      </trkpt>
      <trkpt lat="41.792607" lon="22.971007">
        <ele>1656.7</ele>
        <time>2026-05-06T12:01:38.000Z</time>
      </trkpt>
      <trkpt lat="41.792599" lon="22.971002">
        <ele>1656.7</ele>
        <time>2026-05-06T12:01:39.000Z</time>
      </trkpt>
      <trkpt lat="41.792593" lon="22.970998">
        <ele>1656.7</ele>
        <time>2026-05-06T12:01:40.000Z</time>
      </trkpt>
      <trkpt lat="41.792589" lon="22.970993">
        <ele>1656.7</ele>
        <time>2026-05-06T12:01:41.000Z</time>
      </trkpt>
      <trkpt lat="41.792585" lon="22.970987">
        <ele>1656.7</ele>
        <time>2026-05-06T12:01:42.000Z</time>
      </trkpt>
      <trkpt lat="41.792582" lon="22.970981">
        <ele>1657.8</ele>
        <time>2026-05-06T12:01:43.000Z</time>
      </trkpt>
      <trkpt lat="41.792581" lon="22.970979">
        <ele>1657.8</ele>
        <time>2026-05-06T12:01:44.000Z</time>
      </trkpt>
      <trkpt lat="41.792579" lon="22.970976">
        <ele>1657.8</ele>
        <time>2026-05-06T12:01:45.000Z</time>
      </trkpt>
      <trkpt lat="41.792577" lon="22.970975">
        <ele>1657.8</ele>
        <time>2026-05-06T12:01:46.000Z</time>
      </trkpt>
      <trkpt lat="41.792577" lon="22.970974">
        <ele>1657.8</ele>
        <time>2026-05-06T12:01:47.000Z</time>
      </trkpt>
      <trkpt lat="41.792577" lon="22.970973">
        <ele>1658.5</ele>
        <time>2026-05-06T12:01:48.000Z</time>
      </trkpt>
      <trkpt lat="41.792579" lon="22.970971">
        <ele>1658.5</ele>
        <time>2026-05-06T12:01:49.000Z</time>
      </trkpt>
      <trkpt lat="41.792582" lon="22.97097">
        <ele>1658.5</ele>
        <time>2026-05-06T12:01:50.000Z</time>
      </trkpt>
      <trkpt lat="41.792585" lon="22.97097">
        <ele>1658.5</ele>
        <time>2026-05-06T12:01:51.000Z</time>
      </trkpt>
      <trkpt lat="41.792587" lon="22.97097">
        <ele>1658.5</ele>
        <time>2026-05-06T12:01:52.000Z</time>
      </trkpt>
      <trkpt lat="41.792589" lon="22.970973">
        <ele>1659.8</ele>
        <time>2026-05-06T12:01:53.000Z</time>
      </trkpt>
      <trkpt lat="41.79259" lon="22.970976">
        <ele>1659.8</ele>
        <time>2026-05-06T12:01:54.000Z</time>
      </trkpt>
      <trkpt lat="41.792589" lon="22.970978">
        <ele>1659.8</ele>
        <time>2026-05-06T12:01:55.000Z</time>
      </trkpt>
      <trkpt lat="41.792588" lon="22.970979">
        <ele>1659.8</ele>
        <time>2026-05-06T12:01:56.000Z</time>
      </trkpt>
      <trkpt lat="41.792587" lon="22.970981">
        <ele>1659.8</ele>
        <time>2026-05-06T12:01:57.000Z</time>
      </trkpt>
      <trkpt lat="41.792585" lon="22.970982">
        <ele>1660.8</ele>
        <time>2026-05-06T12:01:58.000Z</time>
      </trkpt>
      <trkpt lat="41.792584" lon="22.970982">
        <ele>1660.8</ele>
        <time>2026-05-06T12:01:59.000Z</time>
      </trkpt>
      <trkpt lat="41.792584" lon="22.970982">
        <ele>1660.8</ele>
        <time>2026-05-06T12:02:00.000Z</time>
      </trkpt>
      <trkpt lat="41.792583" lon="22.970982">
        <ele>1660.8</ele>
        <time>2026-05-06T12:02:01.000Z</time>
      </trkpt>
      <trkpt lat="41.792583" lon="22.970982">
        <ele>1660.8</ele>
        <time>2026-05-06T12:02:02.000Z</time>
      </trkpt>
      <trkpt lat="41.792584" lon="22.970981">
        <ele>1661.2</ele>
        <time>2026-05-06T12:02:03.000Z</time>
      </trkpt>
      <trkpt lat="41.792583" lon="22.970981">
        <ele>1661.2</ele>
        <time>2026-05-06T12:02:04.000Z</time>
      </trkpt>
      <trkpt lat="41.792583" lon="22.970982">
        <ele>1661.2</ele>
        <time>2026-05-06T12:02:05.000Z</time>
      </trkpt>
      <trkpt lat="41.792582" lon="22.970983">
        <ele>1661.2</ele>
        <time>2026-05-06T12:02:06.000Z</time>
      </trkpt>
      <trkpt lat="41.792582" lon="22.970984">
        <ele>1661.2</ele>
        <time>2026-05-06T12:02:07.000Z</time>
      </trkpt>
      <trkpt lat="41.792581" lon="22.970985">
        <ele>1661.7</ele>
        <time>2026-05-06T12:02:08.000Z</time>
      </trkpt>
      <trkpt lat="41.79258" lon="22.970984">
        <ele>1661.7</ele>
        <time>2026-05-06T12:02:09.000Z</time>
      </trkpt>
      <trkpt lat="41.792579" lon="22.970983">
        <ele>1661.7</ele>
        <time>2026-05-06T12:02:10.000Z</time>
      </trkpt>
      <trkpt lat="41.792577" lon="22.97098">
        <ele>1661.7</ele>
        <time>2026-05-06T12:02:11.000Z</time>
      </trkpt>
      <trkpt lat="41.792573" lon="22.970976">
        <ele>1661.7</ele>
        <time>2026-05-06T12:02:12.000Z</time>
      </trkpt>
      <trkpt lat="41.792569" lon="22.970972">
        <ele>1662.1</ele>
        <time>2026-05-06T12:02:13.000Z</time>
      </trkpt>
      <trkpt lat="41.792565" lon="22.970967">
        <ele>1662.1</ele>
        <time>2026-05-06T12:02:14.000Z</time>
      </trkpt>
      <trkpt lat="41.79256" lon="22.970962">
        <ele>1662.1</ele>
        <time>2026-05-06T12:02:15.000Z</time>
      </trkpt>
      <trkpt lat="41.792557" lon="22.970955">
        <ele>1662.1</ele>
        <time>2026-05-06T12:02:16.000Z</time>
      </trkpt>
      <trkpt lat="41.792555" lon="22.970948">
        <ele>1662.1</ele>
        <time>2026-05-06T12:02:17.000Z</time>
      </trkpt>
      <trkpt lat="41.792553" lon="22.97094">
        <ele>1662.3</ele>
        <time>2026-05-06T12:02:18.000Z</time>
      </trkpt>
      <trkpt lat="41.792552" lon="22.970933">
        <ele>1662.3</ele>
        <time>2026-05-06T12:02:19.000Z</time>
      </trkpt>
      <trkpt lat="41.792552" lon="22.970925">
        <ele>1662.3</ele>
        <time>2026-05-06T12:02:20.000Z</time>
      </trkpt>
      <trkpt lat="41.792551" lon="22.970919">
        <ele>1662.3</ele>
        <time>2026-05-06T12:02:21.000Z</time>
      </trkpt>
      <trkpt lat="41.79255" lon="22.970913">
        <ele>1662.3</ele>
        <time>2026-05-06T12:02:22.000Z</time>
      </trkpt>
      <trkpt lat="41.792548" lon="22.970906">
        <ele>1662.8</ele>
        <time>2026-05-06T12:02:23.000Z</time>
      </trkpt>
      <trkpt lat="41.792548" lon="22.970899">
        <ele>1662.8</ele>
        <time>2026-05-06T12:02:24.000Z</time>
      </trkpt>
      <trkpt lat="41.792547" lon="22.970891">
        <ele>1662.8</ele>
        <time>2026-05-06T12:02:25.000Z</time>
      </trkpt>
      <trkpt lat="41.792547" lon="22.970884">
        <ele>1662.8</ele>
        <time>2026-05-06T12:02:26.000Z</time>
      </trkpt>
      <trkpt lat="41.792547" lon="22.970878">
        <ele>1662.8</ele>
        <time>2026-05-06T12:02:27.000Z</time>
      </trkpt>
      <trkpt lat="41.792548" lon="22.970874">
        <ele>1663.4</ele>
        <time>2026-05-06T12:02:28.000Z</time>
      </trkpt>
      <trkpt lat="41.792548" lon="22.970871">
        <ele>1663.4</ele>
        <time>2026-05-06T12:02:29.000Z</time>
      </trkpt>
      <trkpt lat="41.792547" lon="22.970868">
        <ele>1663.4</ele>
        <time>2026-05-06T12:02:30.000Z</time>
      </trkpt>
      <trkpt lat="41.792546" lon="22.970865">
        <ele>1663.4</ele>
        <time>2026-05-06T12:02:31.000Z</time>
      </trkpt>
      <trkpt lat="41.792546" lon="22.970863">
        <ele>1663.4</ele>
        <time>2026-05-06T12:02:32.000Z</time>
      </trkpt>
      <trkpt lat="41.792545" lon="22.970861">
        <ele>1663.7</ele>
        <time>2026-05-06T12:02:33.000Z</time>
      </trkpt>
      <trkpt lat="41.792545" lon="22.970859">
        <ele>1663.7</ele>
        <time>2026-05-06T12:02:34.000Z</time>
      </trkpt>
      <trkpt lat="41.792545" lon="22.970858">
        <ele>1663.7</ele>
        <time>2026-05-06T12:02:35.000Z</time>
      </trkpt>
      <trkpt lat="41.792545" lon="22.970858">
        <ele>1663.7</ele>
        <time>2026-05-06T12:02:36.000Z</time>
      </trkpt>
      <trkpt lat="41.792545" lon="22.970857">
        <ele>1663.7</ele>
        <time>2026-05-06T12:02:37.000Z</time>
      </trkpt>
      <trkpt lat="41.792544" lon="22.970856">
        <ele>1663.9</ele>
        <time>2026-05-06T12:02:38.000Z</time>
      </trkpt>
      <trkpt lat="41.792543" lon="22.970856">
        <ele>1663.9</ele>
        <time>2026-05-06T12:02:39.000Z</time>
      </trkpt>
      <trkpt lat="41.792543" lon="22.970857">
        <ele>1663.9</ele>
        <time>2026-05-06T12:02:40.000Z</time>
      </trkpt>
      <trkpt lat="41.792543" lon="22.970857">
        <ele>1663.9</ele>
        <time>2026-05-06T12:02:41.000Z</time>
      </trkpt>
      <trkpt lat="41.792543" lon="22.970859">
        <ele>1663.9</ele>
        <time>2026-05-06T12:02:42.000Z</time>
      </trkpt>
      <trkpt lat="41.792542" lon="22.97086">
        <ele>1664</ele>
        <time>2026-05-06T12:02:43.000Z</time>
      </trkpt>
      <trkpt lat="41.792541" lon="22.970859">
        <ele>1664</ele>
        <time>2026-05-06T12:02:44.000Z</time>
      </trkpt>
      <trkpt lat="41.79254" lon="22.970856">
        <ele>1664</ele>
        <time>2026-05-06T12:02:45.000Z</time>
      </trkpt>
      <trkpt lat="41.79254" lon="22.970855">
        <ele>1664</ele>
        <time>2026-05-06T12:02:46.000Z</time>
      </trkpt>
      <trkpt lat="41.792538" lon="22.970852">
        <ele>1664</ele>
        <time>2026-05-06T12:02:47.000Z</time>
      </trkpt>
      <trkpt lat="41.792536" lon="22.97085">
        <ele>1664</ele>
        <time>2026-05-06T12:02:48.000Z</time>
      </trkpt>
      <trkpt lat="41.792534" lon="22.970848">
        <ele>1664</ele>
        <time>2026-05-06T12:02:49.000Z</time>
      </trkpt>
      <trkpt lat="41.792532" lon="22.970846">
        <ele>1664</ele>
        <time>2026-05-06T12:02:50.000Z</time>
      </trkpt>
      <trkpt lat="41.79253" lon="22.970841">
        <ele>1664</ele>
        <time>2026-05-06T12:02:51.000Z</time>
      </trkpt>
      <trkpt lat="41.792527" lon="22.970836">
        <ele>1664</ele>
        <time>2026-05-06T12:02:52.000Z</time>
      </trkpt>
      <trkpt lat="41.792525" lon="22.97083">
        <ele>1663.9</ele>
        <time>2026-05-06T12:02:53.000Z</time>
      </trkpt>
      <trkpt lat="41.792522" lon="22.970822">
        <ele>1663.9</ele>
        <time>2026-05-06T12:02:54.000Z</time>
      </trkpt>
      <trkpt lat="41.792519" lon="22.970816">
        <ele>1663.9</ele>
        <time>2026-05-06T12:02:55.000Z</time>
      </trkpt>
      <trkpt lat="41.792516" lon="22.970812">
        <ele>1663.9</ele>
        <time>2026-05-06T12:02:56.000Z</time>
      </trkpt>
      <trkpt lat="41.792514" lon="22.970809">
        <ele>1663.9</ele>
        <time>2026-05-06T12:02:57.000Z</time>
      </trkpt>
      <trkpt lat="41.792513" lon="22.970806">
        <ele>1663.8</ele>
        <time>2026-05-06T12:02:58.000Z</time>
      </trkpt>
      <trkpt lat="41.792512" lon="22.970805">
        <ele>1663.8</ele>
        <time>2026-05-06T12:02:59.000Z</time>
      </trkpt>
      <trkpt lat="41.792511" lon="22.970802">
        <ele>1663.8</ele>
        <time>2026-05-06T12:03:00.000Z</time>
      </trkpt>
      <trkpt lat="41.79251" lon="22.970801">
        <ele>1663.8</ele>
        <time>2026-05-06T12:03:01.000Z</time>
      </trkpt>
      <trkpt lat="41.792509" lon="22.9708">
        <ele>1663.8</ele>
        <time>2026-05-06T12:03:02.000Z</time>
      </trkpt>
      <trkpt lat="41.792508" lon="22.9708">
        <ele>1663.7</ele>
        <time>2026-05-06T12:03:03.000Z</time>
      </trkpt>
      <trkpt lat="41.792507" lon="22.970799">
        <ele>1663.7</ele>
        <time>2026-05-06T12:03:04.000Z</time>
      </trkpt>
      <trkpt lat="41.792507" lon="22.9708">
        <ele>1663.7</ele>
        <time>2026-05-06T12:03:05.000Z</time>
      </trkpt>
      <trkpt lat="41.792508" lon="22.9708">
        <ele>1663.7</ele>
        <time>2026-05-06T12:03:06.000Z</time>
      </trkpt>
      <trkpt lat="41.792509" lon="22.970799">
        <ele>1663.7</ele>
        <time>2026-05-06T12:03:07.000Z</time>
      </trkpt>
      <trkpt lat="41.79251" lon="22.970795">
        <ele>1663.7</ele>
        <time>2026-05-06T12:03:08.000Z</time>
      </trkpt>
      <trkpt lat="41.792511" lon="22.970792">
        <ele>1663.7</ele>
        <time>2026-05-06T12:03:09.000Z</time>
      </trkpt>
      <trkpt lat="41.792513" lon="22.970788">
        <ele>1663.7</ele>
        <time>2026-05-06T12:03:10.000Z</time>
      </trkpt>
      <trkpt lat="41.792515" lon="22.970784">
        <ele>1663.7</ele>
        <time>2026-05-06T12:03:11.000Z</time>
      </trkpt>
      <trkpt lat="41.792515" lon="22.970779">
        <ele>1663.7</ele>
        <time>2026-05-06T12:03:12.000Z</time>
      </trkpt>
      <trkpt lat="41.792516" lon="22.970775">
        <ele>1663.8</ele>
        <time>2026-05-06T12:03:13.000Z</time>
      </trkpt>
      <trkpt lat="41.792516" lon="22.970771">
        <ele>1663.8</ele>
        <time>2026-05-06T12:03:14.000Z</time>
      </trkpt>
      <trkpt lat="41.792516" lon="22.970767">
        <ele>1663.8</ele>
        <time>2026-05-06T12:03:15.000Z</time>
      </trkpt>
      <trkpt lat="41.792517" lon="22.970761">
        <ele>1663.8</ele>
        <time>2026-05-06T12:03:16.000Z</time>
      </trkpt>
      <trkpt lat="41.792519" lon="22.970755">
        <ele>1663.8</ele>
        <time>2026-05-06T12:03:17.000Z</time>
      </trkpt>
      <trkpt lat="41.79252" lon="22.97075">
        <ele>1663.9</ele>
        <time>2026-05-06T12:03:18.000Z</time>
      </trkpt>
      <trkpt lat="41.792523" lon="22.970745">
        <ele>1663.9</ele>
        <time>2026-05-06T12:03:19.000Z</time>
      </trkpt>
      <trkpt lat="41.792525" lon="22.97074">
        <ele>1663.9</ele>
        <time>2026-05-06T12:03:20.000Z</time>
      </trkpt>
      <trkpt lat="41.792527" lon="22.970738">
        <ele>1663.9</ele>
        <time>2026-05-06T12:03:21.000Z</time>
      </trkpt>
      <trkpt lat="41.792528" lon="22.970735">
        <ele>1663.9</ele>
        <time>2026-05-06T12:03:22.000Z</time>
      </trkpt>
      <trkpt lat="41.79253" lon="22.970732">
        <ele>1664.3</ele>
        <time>2026-05-06T12:03:23.000Z</time>
      </trkpt>
      <trkpt lat="41.79253" lon="22.970729">
        <ele>1664.3</ele>
        <time>2026-05-06T12:03:24.000Z</time>
      </trkpt>
      <trkpt lat="41.79253" lon="22.970725">
        <ele>1664.3</ele>
        <time>2026-05-06T12:03:25.000Z</time>
      </trkpt>
      <trkpt lat="41.79253" lon="22.970722">
        <ele>1664.3</ele>
        <time>2026-05-06T12:03:26.000Z</time>
      </trkpt>
      <trkpt lat="41.792529" lon="22.970719">
        <ele>1664.3</ele>
        <time>2026-05-06T12:03:27.000Z</time>
      </trkpt>
      <trkpt lat="41.792527" lon="22.970717">
        <ele>1665.2</ele>
        <time>2026-05-06T12:03:28.000Z</time>
      </trkpt>
      <trkpt lat="41.792524" lon="22.970714">
        <ele>1665.2</ele>
        <time>2026-05-06T12:03:29.000Z</time>
      </trkpt>
      <trkpt lat="41.792522" lon="22.970711">
        <ele>1665.2</ele>
        <time>2026-05-06T12:03:30.000Z</time>
      </trkpt>
      <trkpt lat="41.79252" lon="22.970708">
        <ele>1665.2</ele>
        <time>2026-05-06T12:03:31.000Z</time>
      </trkpt>
      <trkpt lat="41.792518" lon="22.970705">
        <ele>1665.2</ele>
        <time>2026-05-06T12:03:32.000Z</time>
      </trkpt>
      <trkpt lat="41.792515" lon="22.970703">
        <ele>1665.8</ele>
        <time>2026-05-06T12:03:33.000Z</time>
      </trkpt>
      <trkpt lat="41.792513" lon="22.9707">
        <ele>1665.8</ele>
        <time>2026-05-06T12:03:34.000Z</time>
      </trkpt>
      <trkpt lat="41.792511" lon="22.970698">
        <ele>1665.8</ele>
        <time>2026-05-06T12:03:35.000Z</time>
      </trkpt>
      <trkpt lat="41.792509" lon="22.970696">
        <ele>1665.8</ele>
        <time>2026-05-06T12:03:36.000Z</time>
      </trkpt>
      <trkpt lat="41.792508" lon="22.970694">
        <ele>1665.8</ele>
        <time>2026-05-06T12:03:37.000Z</time>
      </trkpt>
      <trkpt lat="41.792506" lon="22.970691">
        <ele>1666.9</ele>
        <time>2026-05-06T12:03:38.000Z</time>
      </trkpt>
      <trkpt lat="41.792505" lon="22.970688">
        <ele>1666.9</ele>
        <time>2026-05-06T12:03:39.000Z</time>
      </trkpt>
      <trkpt lat="41.792503" lon="22.970685">
        <ele>1666.9</ele>
        <time>2026-05-06T12:03:40.000Z</time>
      </trkpt>
      <trkpt lat="41.792502" lon="22.970683">
        <ele>1666.9</ele>
        <time>2026-05-06T12:03:41.000Z</time>
      </trkpt>
      <trkpt lat="41.792502" lon="22.97068">
        <ele>1666.9</ele>
        <time>2026-05-06T12:03:42.000Z</time>
      </trkpt>
      <trkpt lat="41.792502" lon="22.970676">
        <ele>1667.6</ele>
        <time>2026-05-06T12:03:43.000Z</time>
      </trkpt>
      <trkpt lat="41.792504" lon="22.970673">
        <ele>1667.6</ele>
        <time>2026-05-06T12:03:44.000Z</time>
      </trkpt>
      <trkpt lat="41.792505" lon="22.97067">
        <ele>1667.6</ele>
        <time>2026-05-06T12:03:45.000Z</time>
      </trkpt>
      <trkpt lat="41.792507" lon="22.970665">
        <ele>1667.6</ele>
        <time>2026-05-06T12:03:46.000Z</time>
      </trkpt>
      <trkpt lat="41.792509" lon="22.970661">
        <ele>1667.6</ele>
        <time>2026-05-06T12:03:47.000Z</time>
      </trkpt>
      <trkpt lat="41.792509" lon="22.970658">
        <ele>1667.8</ele>
        <time>2026-05-06T12:03:48.000Z</time>
      </trkpt>
      <trkpt lat="41.792507" lon="22.970653">
        <ele>1667.8</ele>
        <time>2026-05-06T12:03:49.000Z</time>
      </trkpt>
      <trkpt lat="41.792507" lon="22.970648">
        <ele>1667.8</ele>
        <time>2026-05-06T12:03:50.000Z</time>
      </trkpt>
      <trkpt lat="41.792506" lon="22.970641">
        <ele>1667.8</ele>
        <time>2026-05-06T12:03:51.000Z</time>
      </trkpt>
      <trkpt lat="41.792507" lon="22.970635">
        <ele>1667.8</ele>
        <time>2026-05-06T12:03:52.000Z</time>
      </trkpt>
      <trkpt lat="41.792508" lon="22.970628">
        <ele>1668</ele>
        <time>2026-05-06T12:03:53.000Z</time>
      </trkpt>
      <trkpt lat="41.79251" lon="22.970622">
        <ele>1668</ele>
        <time>2026-05-06T12:03:54.000Z</time>
      </trkpt>
      <trkpt lat="41.792511" lon="22.970616">
        <ele>1668</ele>
        <time>2026-05-06T12:03:55.000Z</time>
      </trkpt>
      <trkpt lat="41.792511" lon="22.970611">
        <ele>1668</ele>
        <time>2026-05-06T12:03:56.000Z</time>
      </trkpt>
      <trkpt lat="41.792511" lon="22.970607">
        <ele>1668</ele>
        <time>2026-05-06T12:03:57.000Z</time>
      </trkpt>
      <trkpt lat="41.792512" lon="22.970604">
        <ele>1668.2</ele>
        <time>2026-05-06T12:03:58.000Z</time>
      </trkpt>
      <trkpt lat="41.792513" lon="22.970602">
        <ele>1668.2</ele>
        <time>2026-05-06T12:03:59.000Z</time>
      </trkpt>
      <trkpt lat="41.792515" lon="22.970601">
        <ele>1668.2</ele>
        <time>2026-05-06T12:04:00.000Z</time>
      </trkpt>
      <trkpt lat="41.792517" lon="22.9706">
        <ele>1668.2</ele>
        <time>2026-05-06T12:04:01.000Z</time>
      </trkpt>
      <trkpt lat="41.792516" lon="22.970598">
        <ele>1668.2</ele>
        <time>2026-05-06T12:04:02.000Z</time>
      </trkpt>
      <trkpt lat="41.792515" lon="22.970597">
        <ele>1668.5</ele>
        <time>2026-05-06T12:04:03.000Z</time>
      </trkpt>
      <trkpt lat="41.792511" lon="22.970594">
        <ele>1668.5</ele>
        <time>2026-05-06T12:04:04.000Z</time>
      </trkpt>
      <trkpt lat="41.792508" lon="22.970591">
        <ele>1668.5</ele>
        <time>2026-05-06T12:04:05.000Z</time>
      </trkpt>
      <trkpt lat="41.792503" lon="22.970586">
        <ele>1668.5</ele>
        <time>2026-05-06T12:04:06.000Z</time>
      </trkpt>
      <trkpt lat="41.792498" lon="22.970582">
        <ele>1668.5</ele>
        <time>2026-05-06T12:04:07.000Z</time>
      </trkpt>
      <trkpt lat="41.792494" lon="22.970577">
        <ele>1669.5</ele>
        <time>2026-05-06T12:04:08.000Z</time>
      </trkpt>
      <trkpt lat="41.79249" lon="22.970571">
        <ele>1669.5</ele>
        <time>2026-05-06T12:04:09.000Z</time>
      </trkpt>
      <trkpt lat="41.792486" lon="22.970566">
        <ele>1669.5</ele>
        <time>2026-05-06T12:04:10.000Z</time>
      </trkpt>
      <trkpt lat="41.792484" lon="22.970561">
        <ele>1669.5</ele>
        <time>2026-05-06T12:04:11.000Z</time>
      </trkpt>
      <trkpt lat="41.792483" lon="22.970557">
        <ele>1669.5</ele>
        <time>2026-05-06T12:04:12.000Z</time>
      </trkpt>
      <trkpt lat="41.792483" lon="22.970553">
        <ele>1670.6</ele>
        <time>2026-05-06T12:04:13.000Z</time>
      </trkpt>
      <trkpt lat="41.792483" lon="22.970551">
        <ele>1670.6</ele>
        <time>2026-05-06T12:04:14.000Z</time>
      </trkpt>
      <trkpt lat="41.792483" lon="22.97055">
        <ele>1670.6</ele>
        <time>2026-05-06T12:04:15.000Z</time>
      </trkpt>
      <trkpt lat="41.792483" lon="22.970549">
        <ele>1670.6</ele>
        <time>2026-05-06T12:04:16.000Z</time>
      </trkpt>
      <trkpt lat="41.792482" lon="22.970549">
        <ele>1670.6</ele>
        <time>2026-05-06T12:04:17.000Z</time>
      </trkpt>
      <trkpt lat="41.792481" lon="22.970548">
        <ele>1671</ele>
        <time>2026-05-06T12:04:18.000Z</time>
      </trkpt>
      <trkpt lat="41.792481" lon="22.970546">
        <ele>1671</ele>
        <time>2026-05-06T12:04:19.000Z</time>
      </trkpt>
      <trkpt lat="41.792481" lon="22.970545">
        <ele>1671</ele>
        <time>2026-05-06T12:04:20.000Z</time>
      </trkpt>
      <trkpt lat="41.792481" lon="22.970544">
        <ele>1671</ele>
        <time>2026-05-06T12:04:21.000Z</time>
      </trkpt>
      <trkpt lat="41.792483" lon="22.970544">
        <ele>1671</ele>
        <time>2026-05-06T12:04:22.000Z</time>
      </trkpt>
      <trkpt lat="41.792484" lon="22.970545">
        <ele>1671.8</ele>
        <time>2026-05-06T12:04:23.000Z</time>
      </trkpt>
      <trkpt lat="41.792485" lon="22.970545">
        <ele>1671.8</ele>
        <time>2026-05-06T12:04:24.000Z</time>
      </trkpt>
      <trkpt lat="41.792486" lon="22.970546">
        <ele>1671.8</ele>
        <time>2026-05-06T12:04:25.000Z</time>
      </trkpt>
      <trkpt lat="41.792486" lon="22.970546">
        <ele>1671.8</ele>
        <time>2026-05-06T12:04:26.000Z</time>
      </trkpt>
      <trkpt lat="41.792485" lon="22.970545">
        <ele>1671.8</ele>
        <time>2026-05-06T12:04:27.000Z</time>
      </trkpt>
      <trkpt lat="41.792482" lon="22.970543">
        <ele>1672.4</ele>
        <time>2026-05-06T12:04:28.000Z</time>
      </trkpt>
      <trkpt lat="41.792479" lon="22.970542">
        <ele>1672.4</ele>
        <time>2026-05-06T12:04:29.000Z</time>
      </trkpt>
      <trkpt lat="41.792477" lon="22.970541">
        <ele>1672.4</ele>
        <time>2026-05-06T12:04:30.000Z</time>
      </trkpt>
      <trkpt lat="41.792475" lon="22.97054">
        <ele>1672.4</ele>
        <time>2026-05-06T12:04:31.000Z</time>
      </trkpt>
      <trkpt lat="41.792474" lon="22.970541">
        <ele>1672.4</ele>
        <time>2026-05-06T12:04:32.000Z</time>
      </trkpt>
      <trkpt lat="41.792474" lon="22.970543">
        <ele>1672.6</ele>
        <time>2026-05-06T12:04:33.000Z</time>
      </trkpt>
      <trkpt lat="41.792474" lon="22.970545">
        <ele>1672.6</ele>
        <time>2026-05-06T12:04:34.000Z</time>
      </trkpt>
      <trkpt lat="41.792475" lon="22.970547">
        <ele>1672.6</ele>
        <time>2026-05-06T12:04:35.000Z</time>
      </trkpt>
      <trkpt lat="41.792475" lon="22.970549">
        <ele>1672.6</ele>
        <time>2026-05-06T12:04:36.000Z</time>
      </trkpt>
      <trkpt lat="41.792474" lon="22.97055">
        <ele>1672.6</ele>
        <time>2026-05-06T12:04:37.000Z</time>
      </trkpt>
      <trkpt lat="41.792474" lon="22.97055">
        <ele>1672.6</ele>
        <time>2026-05-06T12:04:38.000Z</time>
      </trkpt>
      <trkpt lat="41.792473" lon="22.97055">
        <ele>1672.6</ele>
        <time>2026-05-06T12:04:39.000Z</time>
      </trkpt>
      <trkpt lat="41.792474" lon="22.97055">
        <ele>1672.6</ele>
        <time>2026-05-06T12:04:40.000Z</time>
      </trkpt>
      <trkpt lat="41.792475" lon="22.97055">
        <ele>1672.6</ele>
        <time>2026-05-06T12:04:41.000Z</time>
      </trkpt>
      <trkpt lat="41.792475" lon="22.970549">
        <ele>1672.6</ele>
        <time>2026-05-06T12:04:42.000Z</time>
      </trkpt>
      <trkpt lat="41.792474" lon="22.970549">
        <ele>1672.6</ele>
        <time>2026-05-06T12:04:43.000Z</time>
      </trkpt>
      <trkpt lat="41.792473" lon="22.970548">
        <ele>1672.6</ele>
        <time>2026-05-06T12:04:44.000Z</time>
      </trkpt>
      <trkpt lat="41.79247" lon="22.970548">
        <ele>1672.6</ele>
        <time>2026-05-06T12:04:45.000Z</time>
      </trkpt>
      <trkpt lat="41.792465" lon="22.970546">
        <ele>1672.6</ele>
        <time>2026-05-06T12:04:46.000Z</time>
      </trkpt>
      <trkpt lat="41.792462" lon="22.970544">
        <ele>1672.6</ele>
        <time>2026-05-06T12:04:47.000Z</time>
      </trkpt>
      <trkpt lat="41.792457" lon="22.970542">
        <ele>1672.6</ele>
        <time>2026-05-06T12:04:48.000Z</time>
      </trkpt>
      <trkpt lat="41.792454" lon="22.970541">
        <ele>1672.6</ele>
        <time>2026-05-06T12:04:49.000Z</time>
      </trkpt>
      <trkpt lat="41.792449" lon="22.970541">
        <ele>1672.6</ele>
        <time>2026-05-06T12:04:50.000Z</time>
      </trkpt>
      <trkpt lat="41.792446" lon="22.970542">
        <ele>1672.6</ele>
        <time>2026-05-06T12:04:51.000Z</time>
      </trkpt>
      <trkpt lat="41.792442" lon="22.970543">
        <ele>1672.6</ele>
        <time>2026-05-06T12:04:52.000Z</time>
      </trkpt>
      <trkpt lat="41.792438" lon="22.970545">
        <ele>1672.7</ele>
        <time>2026-05-06T12:04:53.000Z</time>
      </trkpt>
      <trkpt lat="41.792434" lon="22.970546">
        <ele>1672.7</ele>
        <time>2026-05-06T12:04:54.000Z</time>
      </trkpt>
      <trkpt lat="41.79243" lon="22.970546">
        <ele>1672.7</ele>
        <time>2026-05-06T12:04:55.000Z</time>
      </trkpt>
      <trkpt lat="41.792426" lon="22.970545">
        <ele>1672.7</ele>
        <time>2026-05-06T12:04:56.000Z</time>
      </trkpt>
      <trkpt lat="41.792424" lon="22.970545">
        <ele>1672.7</ele>
        <time>2026-05-06T12:04:57.000Z</time>
      </trkpt>
      <trkpt lat="41.79242" lon="22.970544">
        <ele>1673.2</ele>
        <time>2026-05-06T12:04:58.000Z</time>
      </trkpt>
      <trkpt lat="41.792416" lon="22.970543">
        <ele>1673.2</ele>
        <time>2026-05-06T12:04:59.000Z</time>
      </trkpt>
      <trkpt lat="41.792413" lon="22.970543">
        <ele>1673.2</ele>
        <time>2026-05-06T12:05:00.000Z</time>
      </trkpt>
      <trkpt lat="41.792409" lon="22.970542">
        <ele>1673.2</ele>
        <time>2026-05-06T12:05:01.000Z</time>
      </trkpt>
      <trkpt lat="41.792405" lon="22.97054">
        <ele>1673.2</ele>
        <time>2026-05-06T12:05:02.000Z</time>
      </trkpt>
      <trkpt lat="41.792402" lon="22.970538">
        <ele>1673.7</ele>
        <time>2026-05-06T12:05:03.000Z</time>
      </trkpt>
      <trkpt lat="41.7924" lon="22.970536">
        <ele>1673.7</ele>
        <time>2026-05-06T12:05:04.000Z</time>
      </trkpt>
      <trkpt lat="41.792398" lon="22.970531">
        <ele>1673.7</ele>
        <time>2026-05-06T12:05:05.000Z</time>
      </trkpt>
      <trkpt lat="41.792397" lon="22.970528">
        <ele>1673.7</ele>
        <time>2026-05-06T12:05:06.000Z</time>
      </trkpt>
      <trkpt lat="41.792397" lon="22.970525">
        <ele>1673.7</ele>
        <time>2026-05-06T12:05:07.000Z</time>
      </trkpt>
      <trkpt lat="41.792397" lon="22.970522">
        <ele>1674.9</ele>
        <time>2026-05-06T12:05:08.000Z</time>
      </trkpt>
      <trkpt lat="41.792396" lon="22.970519">
        <ele>1674.9</ele>
        <time>2026-05-06T12:05:09.000Z</time>
      </trkpt>
      <trkpt lat="41.792396" lon="22.970516">
        <ele>1674.9</ele>
        <time>2026-05-06T12:05:10.000Z</time>
      </trkpt>
      <trkpt lat="41.792394" lon="22.970513">
        <ele>1674.9</ele>
        <time>2026-05-06T12:05:11.000Z</time>
      </trkpt>
      <trkpt lat="41.792392" lon="22.970509">
        <ele>1674.9</ele>
        <time>2026-05-06T12:05:12.000Z</time>
      </trkpt>
      <trkpt lat="41.792391" lon="22.970506">
        <ele>1676.2</ele>
        <time>2026-05-06T12:05:13.000Z</time>
      </trkpt>
      <trkpt lat="41.79239" lon="22.970503">
        <ele>1676.2</ele>
        <time>2026-05-06T12:05:14.000Z</time>
      </trkpt>
      <trkpt lat="41.792388" lon="22.9705">
        <ele>1676.2</ele>
        <time>2026-05-06T12:05:15.000Z</time>
      </trkpt>
      <trkpt lat="41.792388" lon="22.970498">
        <ele>1676.2</ele>
        <time>2026-05-06T12:05:16.000Z</time>
      </trkpt>
      <trkpt lat="41.792386" lon="22.970496">
        <ele>1676.2</ele>
        <time>2026-05-06T12:05:17.000Z</time>
      </trkpt>
      <trkpt lat="41.792386" lon="22.970494">
        <ele>1676.9</ele>
        <time>2026-05-06T12:05:18.000Z</time>
      </trkpt>
      <trkpt lat="41.792385" lon="22.970494">
        <ele>1676.9</ele>
        <time>2026-05-06T12:05:19.000Z</time>
      </trkpt>
      <trkpt lat="41.792385" lon="22.970495">
        <ele>1676.9</ele>
        <time>2026-05-06T12:05:20.000Z</time>
      </trkpt>
      <trkpt lat="41.792384" lon="22.970498">
        <ele>1676.9</ele>
        <time>2026-05-06T12:05:21.000Z</time>
      </trkpt>
      <trkpt lat="41.792384" lon="22.970502">
        <ele>1676.9</ele>
        <time>2026-05-06T12:05:22.000Z</time>
      </trkpt>
      <trkpt lat="41.792383" lon="22.970507">
        <ele>1677.9</ele>
        <time>2026-05-06T12:05:23.000Z</time>
      </trkpt>
      <trkpt lat="41.79238" lon="22.970512">
        <ele>1677.9</ele>
        <time>2026-05-06T12:05:24.000Z</time>
      </trkpt>
      <trkpt lat="41.792378" lon="22.970517">
        <ele>1677.9</ele>
        <time>2026-05-06T12:05:25.000Z</time>
      </trkpt>
      <trkpt lat="41.792376" lon="22.970521">
        <ele>1677.9</ele>
        <time>2026-05-06T12:05:26.000Z</time>
      </trkpt>
      <trkpt lat="41.792374" lon="22.970523">
        <ele>1677.9</ele>
        <time>2026-05-06T12:05:27.000Z</time>
      </trkpt>
      <trkpt lat="41.792373" lon="22.970522">
        <ele>1678.7</ele>
        <time>2026-05-06T12:05:28.000Z</time>
      </trkpt>
      <trkpt lat="41.792373" lon="22.970521">
        <ele>1678.7</ele>
        <time>2026-05-06T12:05:29.000Z</time>
      </trkpt>
      <trkpt lat="41.792372" lon="22.970517">
        <ele>1678.7</ele>
        <time>2026-05-06T12:05:30.000Z</time>
      </trkpt>
      <trkpt lat="41.792369" lon="22.970511">
        <ele>1678.7</ele>
        <time>2026-05-06T12:05:31.000Z</time>
      </trkpt>
      <trkpt lat="41.792366" lon="22.970507">
        <ele>1678.7</ele>
        <time>2026-05-06T12:05:32.000Z</time>
      </trkpt>
      <trkpt lat="41.792363" lon="22.970503">
        <ele>1679.1</ele>
        <time>2026-05-06T12:05:33.000Z</time>
      </trkpt>
      <trkpt lat="41.792358" lon="22.970501">
        <ele>1679.1</ele>
        <time>2026-05-06T12:05:34.000Z</time>
      </trkpt>
      <trkpt lat="41.792354" lon="22.970501">
        <ele>1679.1</ele>
        <time>2026-05-06T12:05:35.000Z</time>
      </trkpt>
      <trkpt lat="41.79235" lon="22.970503">
        <ele>1679.1</ele>
        <time>2026-05-06T12:05:36.000Z</time>
      </trkpt>
      <trkpt lat="41.792345" lon="22.970504">
        <ele>1679.1</ele>
        <time>2026-05-06T12:05:37.000Z</time>
      </trkpt>
      <trkpt lat="41.79234" lon="22.970505">
        <ele>1680.1</ele>
        <time>2026-05-06T12:05:38.000Z</time>
      </trkpt>
      <trkpt lat="41.792335" lon="22.970505">
        <ele>1680.1</ele>
        <time>2026-05-06T12:05:39.000Z</time>
      </trkpt>
      <trkpt lat="41.792331" lon="22.970504">
        <ele>1680.1</ele>
        <time>2026-05-06T12:05:40.000Z</time>
      </trkpt>
      <trkpt lat="41.792327" lon="22.970502">
        <ele>1680.1</ele>
        <time>2026-05-06T12:05:41.000Z</time>
      </trkpt>
      <trkpt lat="41.792327" lon="22.970502">
        <ele>1680.1</ele>
        <time>2026-05-06T12:05:42.000Z</time>
      </trkpt>
      <trkpt lat="41.792326" lon="22.970504">
        <ele>1681.5</ele>
        <time>2026-05-06T12:05:43.000Z</time>
      </trkpt>
      <trkpt lat="41.792327" lon="22.970508">
        <ele>1681.5</ele>
        <time>2026-05-06T12:05:44.000Z</time>
      </trkpt>
      <trkpt lat="41.792327" lon="22.970513">
        <ele>1681.5</ele>
        <time>2026-05-06T12:05:45.000Z</time>
      </trkpt>
      <trkpt lat="41.792327" lon="22.970518">
        <ele>1681.5</ele>
        <time>2026-05-06T12:05:46.000Z</time>
      </trkpt>
      <trkpt lat="41.792325" lon="22.970523">
        <ele>1681.5</ele>
        <time>2026-05-06T12:05:47.000Z</time>
      </trkpt>
      <trkpt lat="41.792323" lon="22.970527">
        <ele>1682.2</ele>
        <time>2026-05-06T12:05:48.000Z</time>
      </trkpt>
      <trkpt lat="41.79232" lon="22.970528">
        <ele>1682.2</ele>
        <time>2026-05-06T12:05:49.000Z</time>
      </trkpt>
      <trkpt lat="41.792316" lon="22.970529">
        <ele>1682.2</ele>
        <time>2026-05-06T12:05:50.000Z</time>
      </trkpt>
      <trkpt lat="41.792313" lon="22.97053">
        <ele>1682.2</ele>
        <time>2026-05-06T12:05:51.000Z</time>
      </trkpt>
      <trkpt lat="41.792312" lon="22.970529">
        <ele>1682.2</ele>
        <time>2026-05-06T12:05:52.000Z</time>
      </trkpt>
      <trkpt lat="41.792312" lon="22.970528">
        <ele>1683.5</ele>
        <time>2026-05-06T12:05:53.000Z</time>
      </trkpt>
      <trkpt lat="41.792313" lon="22.97053">
        <ele>1683.5</ele>
        <time>2026-05-06T12:05:54.000Z</time>
      </trkpt>
      <trkpt lat="41.792315" lon="22.970531">
        <ele>1683.5</ele>
        <time>2026-05-06T12:05:55.000Z</time>
      </trkpt>
      <trkpt lat="41.792317" lon="22.970532">
        <ele>1683.5</ele>
        <time>2026-05-06T12:05:56.000Z</time>
      </trkpt>
      <trkpt lat="41.792319" lon="22.970533">
        <ele>1683.5</ele>
        <time>2026-05-06T12:05:57.000Z</time>
      </trkpt>
      <trkpt lat="41.792322" lon="22.970535">
        <ele>1684.5</ele>
        <time>2026-05-06T12:05:58.000Z</time>
      </trkpt>
      <trkpt lat="41.792323" lon="22.970535">
        <ele>1684.5</ele>
        <time>2026-05-06T12:05:59.000Z</time>
      </trkpt>
      <trkpt lat="41.792324" lon="22.970536">
        <ele>1684.5</ele>
        <time>2026-05-06T12:06:00.000Z</time>
      </trkpt>
      <trkpt lat="41.792325" lon="22.970536">
        <ele>1684.5</ele>
        <time>2026-05-06T12:06:01.000Z</time>
      </trkpt>
      <trkpt lat="41.792325" lon="22.970535">
        <ele>1684.5</ele>
        <time>2026-05-06T12:06:02.000Z</time>
      </trkpt>
      <trkpt lat="41.792322" lon="22.970534">
        <ele>1684.8</ele>
        <time>2026-05-06T12:06:03.000Z</time>
      </trkpt>
      <trkpt lat="41.792318" lon="22.970533">
        <ele>1684.8</ele>
        <time>2026-05-06T12:06:04.000Z</time>
      </trkpt>
      <trkpt lat="41.792313" lon="22.970531">
        <ele>1684.8</ele>
        <time>2026-05-06T12:06:05.000Z</time>
      </trkpt>
      <trkpt lat="41.792309" lon="22.970529">
        <ele>1684.8</ele>
        <time>2026-05-06T12:06:06.000Z</time>
      </trkpt>
      <trkpt lat="41.792304" lon="22.970528">
        <ele>1684.8</ele>
        <time>2026-05-06T12:06:07.000Z</time>
      </trkpt>
      <trkpt lat="41.792302" lon="22.970526">
        <ele>1685.1</ele>
        <time>2026-05-06T12:06:08.000Z</time>
      </trkpt>
      <trkpt lat="41.792299" lon="22.970523">
        <ele>1685.1</ele>
        <time>2026-05-06T12:06:09.000Z</time>
      </trkpt>
      <trkpt lat="41.792297" lon="22.970518">
        <ele>1685.1</ele>
        <time>2026-05-06T12:06:10.000Z</time>
      </trkpt>
      <trkpt lat="41.792295" lon="22.970513">
        <ele>1685.1</ele>
        <time>2026-05-06T12:06:11.000Z</time>
      </trkpt>
      <trkpt lat="41.792291" lon="22.970507">
        <ele>1685.1</ele>
        <time>2026-05-06T12:06:12.000Z</time>
      </trkpt>
      <trkpt lat="41.792288" lon="22.9705">
        <ele>1685.7</ele>
        <time>2026-05-06T12:06:13.000Z</time>
      </trkpt>
      <trkpt lat="41.792285" lon="22.970496">
        <ele>1685.7</ele>
        <time>2026-05-06T12:06:14.000Z</time>
      </trkpt>
      <trkpt lat="41.792283" lon="22.970493">
        <ele>1685.7</ele>
        <time>2026-05-06T12:06:15.000Z</time>
      </trkpt>
      <trkpt lat="41.792281" lon="22.970491">
        <ele>1685.7</ele>
        <time>2026-05-06T12:06:16.000Z</time>
      </trkpt>
      <trkpt lat="41.792281" lon="22.970492">
        <ele>1685.7</ele>
        <time>2026-05-06T12:06:17.000Z</time>
      </trkpt>
      <trkpt lat="41.79228" lon="22.970493">
        <ele>1686.1</ele>
        <time>2026-05-06T12:06:18.000Z</time>
      </trkpt>
      <trkpt lat="41.79228" lon="22.970493">
        <ele>1686.1</ele>
        <time>2026-05-06T12:06:19.000Z</time>
      </trkpt>
      <trkpt lat="41.79228" lon="22.970494">
        <ele>1686.1</ele>
        <time>2026-05-06T12:06:20.000Z</time>
      </trkpt>
      <trkpt lat="41.792281" lon="22.970493">
        <ele>1686.1</ele>
        <time>2026-05-06T12:06:21.000Z</time>
      </trkpt>
      <trkpt lat="41.792281" lon="22.970492">
        <ele>1686.1</ele>
        <time>2026-05-06T12:06:22.000Z</time>
      </trkpt>
      <trkpt lat="41.79228" lon="22.970489">
        <ele>1686.8</ele>
        <time>2026-05-06T12:06:23.000Z</time>
      </trkpt>
      <trkpt lat="41.792278" lon="22.970486">
        <ele>1686.8</ele>
        <time>2026-05-06T12:06:24.000Z</time>
      </trkpt>
      <trkpt lat="41.792276" lon="22.970482">
        <ele>1686.8</ele>
        <time>2026-05-06T12:06:25.000Z</time>
      </trkpt>
      <trkpt lat="41.792274" lon="22.970479">
        <ele>1686.8</ele>
        <time>2026-05-06T12:06:26.000Z</time>
      </trkpt>
      <trkpt lat="41.792272" lon="22.970476">
        <ele>1686.8</ele>
        <time>2026-05-06T12:06:27.000Z</time>
      </trkpt>
      <trkpt lat="41.79227" lon="22.970474">
        <ele>1687.1</ele>
        <time>2026-05-06T12:06:28.000Z</time>
      </trkpt>
      <trkpt lat="41.792268" lon="22.970472">
        <ele>1687.1</ele>
        <time>2026-05-06T12:06:29.000Z</time>
      </trkpt>
      <trkpt lat="41.792266" lon="22.97047">
        <ele>1687.1</ele>
        <time>2026-05-06T12:06:30.000Z</time>
      </trkpt>
      <trkpt lat="41.792263" lon="22.970467">
        <ele>1687.1</ele>
        <time>2026-05-06T12:06:31.000Z</time>
      </trkpt>
      <trkpt lat="41.792259" lon="22.970464">
        <ele>1687.1</ele>
        <time>2026-05-06T12:06:32.000Z</time>
      </trkpt>
      <trkpt lat="41.792255" lon="22.970461">
        <ele>1687.2</ele>
        <time>2026-05-06T12:06:33.000Z</time>
      </trkpt>
      <trkpt lat="41.792253" lon="22.970458">
        <ele>1687.2</ele>
        <time>2026-05-06T12:06:34.000Z</time>
      </trkpt>
      <trkpt lat="41.792251" lon="22.970456">
        <ele>1687.2</ele>
        <time>2026-05-06T12:06:35.000Z</time>
      </trkpt>
      <trkpt lat="41.792249" lon="22.970454">
        <ele>1687.2</ele>
        <time>2026-05-06T12:06:36.000Z</time>
      </trkpt>
      <trkpt lat="41.792249" lon="22.970455">
        <ele>1687.2</ele>
        <time>2026-05-06T12:06:37.000Z</time>
      </trkpt>
      <trkpt lat="41.792249" lon="22.970456">
        <ele>1687.6</ele>
        <time>2026-05-06T12:06:38.000Z</time>
      </trkpt>
      <trkpt lat="41.792248" lon="22.970458">
        <ele>1687.6</ele>
        <time>2026-05-06T12:06:39.000Z</time>
      </trkpt>
      <trkpt lat="41.792248" lon="22.970461">
        <ele>1687.6</ele>
        <time>2026-05-06T12:06:40.000Z</time>
      </trkpt>
      <trkpt lat="41.792248" lon="22.970464">
        <ele>1687.6</ele>
        <time>2026-05-06T12:06:41.000Z</time>
      </trkpt>
      <trkpt lat="41.792248" lon="22.970465">
        <ele>1687.6</ele>
        <time>2026-05-06T12:06:42.000Z</time>
      </trkpt>
      <trkpt lat="41.792248" lon="22.970466">
        <ele>1688.7</ele>
        <time>2026-05-06T12:06:43.000Z</time>
      </trkpt>
      <trkpt lat="41.792248" lon="22.970467">
        <ele>1688.7</ele>
        <time>2026-05-06T12:06:44.000Z</time>
      </trkpt>
      <trkpt lat="41.792248" lon="22.970467">
        <ele>1688.7</ele>
        <time>2026-05-06T12:06:45.000Z</time>
      </trkpt>
      <trkpt lat="41.792248" lon="22.970467">
        <ele>1688.7</ele>
        <time>2026-05-06T12:06:46.000Z</time>
      </trkpt>
      <trkpt lat="41.792248" lon="22.970468">
        <ele>1688.7</ele>
        <time>2026-05-06T12:06:47.000Z</time>
      </trkpt>
      <trkpt lat="41.792248" lon="22.97047">
        <ele>1689.2</ele>
        <time>2026-05-06T12:06:48.000Z</time>
      </trkpt>
      <trkpt lat="41.792247" lon="22.970472">
        <ele>1689.2</ele>
        <time>2026-05-06T12:06:49.000Z</time>
      </trkpt>
      <trkpt lat="41.792248" lon="22.970475">
        <ele>1689.2</ele>
        <time>2026-05-06T12:06:50.000Z</time>
      </trkpt>
      <trkpt lat="41.792248" lon="22.970479">
        <ele>1689.2</ele>
        <time>2026-05-06T12:06:51.000Z</time>
      </trkpt>
      <trkpt lat="41.792248" lon="22.970481">
        <ele>1689.2</ele>
        <time>2026-05-06T12:06:52.000Z</time>
      </trkpt>
      <trkpt lat="41.792247" lon="22.970483">
        <ele>1690</ele>
        <time>2026-05-06T12:06:53.000Z</time>
      </trkpt>
      <trkpt lat="41.792247" lon="22.970484">
        <ele>1690</ele>
        <time>2026-05-06T12:06:54.000Z</time>
      </trkpt>
      <trkpt lat="41.792246" lon="22.970484">
        <ele>1690</ele>
        <time>2026-05-06T12:06:55.000Z</time>
      </trkpt>
      <trkpt lat="41.792245" lon="22.970483">
        <ele>1690</ele>
        <time>2026-05-06T12:06:56.000Z</time>
      </trkpt>
      <trkpt lat="41.792244" lon="22.970481">
        <ele>1690</ele>
        <time>2026-05-06T12:06:57.000Z</time>
      </trkpt>
      <trkpt lat="41.792245" lon="22.970479">
        <ele>1690</ele>
        <time>2026-05-06T12:06:58.000Z</time>
      </trkpt>
      <trkpt lat="41.792246" lon="22.970477">
        <ele>1690</ele>
        <time>2026-05-06T12:06:59.000Z</time>
      </trkpt>
      <trkpt lat="41.792246" lon="22.970475">
        <ele>1690</ele>
        <time>2026-05-06T12:07:00.000Z</time>
      </trkpt>
      <trkpt lat="41.792247" lon="22.970475">
        <ele>1690</ele>
        <time>2026-05-06T12:07:01.000Z</time>
      </trkpt>
      <trkpt lat="41.792248" lon="22.970475">
        <ele>1690</ele>
        <time>2026-05-06T12:07:02.000Z</time>
      </trkpt>
      <trkpt lat="41.792248" lon="22.970476">
        <ele>1689.9</ele>
        <time>2026-05-06T12:07:03.000Z</time>
      </trkpt>
      <trkpt lat="41.792249" lon="22.970477">
        <ele>1689.9</ele>
        <time>2026-05-06T12:07:04.000Z</time>
      </trkpt>
      <trkpt lat="41.792249" lon="22.970478">
        <ele>1689.9</ele>
        <time>2026-05-06T12:07:05.000Z</time>
      </trkpt>
      <trkpt lat="41.792249" lon="22.970478">
        <ele>1689.9</ele>
        <time>2026-05-06T12:07:06.000Z</time>
      </trkpt>
      <trkpt lat="41.792247" lon="22.970478">
        <ele>1689.9</ele>
        <time>2026-05-06T12:07:07.000Z</time>
      </trkpt>
      <trkpt lat="41.792244" lon="22.970479">
        <ele>1689.7</ele>
        <time>2026-05-06T12:07:08.000Z</time>
      </trkpt>
      <trkpt lat="41.79224" lon="22.970479">
        <ele>1689.7</ele>
        <time>2026-05-06T12:07:09.000Z</time>
      </trkpt>
      <trkpt lat="41.792235" lon="22.970479">
        <ele>1689.7</ele>
        <time>2026-05-06T12:07:10.000Z</time>
      </trkpt>
      <trkpt lat="41.79223" lon="22.970479">
        <ele>1689.7</ele>
        <time>2026-05-06T12:07:11.000Z</time>
      </trkpt>
      <trkpt lat="41.792226" lon="22.970479">
        <ele>1689.7</ele>
        <time>2026-05-06T12:07:12.000Z</time>
      </trkpt>
      <trkpt lat="41.792224" lon="22.970479">
        <ele>1689.8</ele>
        <time>2026-05-06T12:07:13.000Z</time>
      </trkpt>
      <trkpt lat="41.792222" lon="22.970481">
        <ele>1689.8</ele>
        <time>2026-05-06T12:07:14.000Z</time>
      </trkpt>
      <trkpt lat="41.79222" lon="22.970484">
        <ele>1689.8</ele>
        <time>2026-05-06T12:07:15.000Z</time>
      </trkpt>
      <trkpt lat="41.792219" lon="22.970487">
        <ele>1689.8</ele>
        <time>2026-05-06T12:07:16.000Z</time>
      </trkpt>
      <trkpt lat="41.792217" lon="22.97049">
        <ele>1689.8</ele>
        <time>2026-05-06T12:07:17.000Z</time>
      </trkpt>
      <trkpt lat="41.792213" lon="22.970491">
        <ele>1690</ele>
        <time>2026-05-06T12:07:18.000Z</time>
      </trkpt>
      <trkpt lat="41.79221" lon="22.97049">
        <ele>1690</ele>
        <time>2026-05-06T12:07:19.000Z</time>
      </trkpt>
      <trkpt lat="41.792208" lon="22.970486">
        <ele>1690</ele>
        <time>2026-05-06T12:07:20.000Z</time>
      </trkpt>
      <trkpt lat="41.792207" lon="22.970482">
        <ele>1690</ele>
        <time>2026-05-06T12:07:21.000Z</time>
      </trkpt>
      <trkpt lat="41.792206" lon="22.97048">
        <ele>1690</ele>
        <time>2026-05-06T12:07:22.000Z</time>
      </trkpt>
      <trkpt lat="41.792205" lon="22.970478">
        <ele>1690.5</ele>
        <time>2026-05-06T12:07:23.000Z</time>
      </trkpt>
      <trkpt lat="41.792205" lon="22.970474">
        <ele>1690.5</ele>
        <time>2026-05-06T12:07:24.000Z</time>
      </trkpt>
      <trkpt lat="41.792205" lon="22.97047">
        <ele>1690.5</ele>
        <time>2026-05-06T12:07:25.000Z</time>
      </trkpt>
      <trkpt lat="41.792202" lon="22.970464">
        <ele>1690.5</ele>
        <time>2026-05-06T12:07:26.000Z</time>
      </trkpt>
      <trkpt lat="41.792201" lon="22.970457">
        <ele>1690.5</ele>
        <time>2026-05-06T12:07:27.000Z</time>
      </trkpt>
      <trkpt lat="41.792199" lon="22.97045">
        <ele>1691.2</ele>
        <time>2026-05-06T12:07:28.000Z</time>
      </trkpt>
      <trkpt lat="41.792197" lon="22.970446">
        <ele>1691.2</ele>
        <time>2026-05-06T12:07:29.000Z</time>
      </trkpt>
      <trkpt lat="41.792196" lon="22.970443">
        <ele>1691.2</ele>
        <time>2026-05-06T12:07:30.000Z</time>
      </trkpt>
      <trkpt lat="41.792195" lon="22.970443">
        <ele>1691.2</ele>
        <time>2026-05-06T12:07:31.000Z</time>
      </trkpt>
      <trkpt lat="41.792195" lon="22.970443">
        <ele>1691.2</ele>
        <time>2026-05-06T12:07:32.000Z</time>
      </trkpt>
      <trkpt lat="41.792197" lon="22.970442">
        <ele>1691.5</ele>
        <time>2026-05-06T12:07:33.000Z</time>
      </trkpt>
      <trkpt lat="41.792198" lon="22.970442">
        <ele>1691.5</ele>
        <time>2026-05-06T12:07:34.000Z</time>
      </trkpt>
      <trkpt lat="41.792199" lon="22.970441">
        <ele>1691.5</ele>
        <time>2026-05-06T12:07:35.000Z</time>
      </trkpt>
      <trkpt lat="41.7922" lon="22.97044">
        <ele>1691.5</ele>
        <time>2026-05-06T12:07:36.000Z</time>
      </trkpt>
      <trkpt lat="41.7922" lon="22.970439">
        <ele>1691.5</ele>
        <time>2026-05-06T12:07:37.000Z</time>
      </trkpt>
      <trkpt lat="41.7922" lon="22.970439">
        <ele>1691.9</ele>
        <time>2026-05-06T12:07:38.000Z</time>
      </trkpt>
      <trkpt lat="41.792201" lon="22.97044">
        <ele>1691.9</ele>
        <time>2026-05-06T12:07:39.000Z</time>
      </trkpt>
      <trkpt lat="41.792201" lon="22.97044">
        <ele>1691.9</ele>
        <time>2026-05-06T12:07:40.000Z</time>
      </trkpt>
      <trkpt lat="41.792202" lon="22.970441">
        <ele>1691.9</ele>
        <time>2026-05-06T12:07:41.000Z</time>
      </trkpt>
      <trkpt lat="41.792202" lon="22.970442">
        <ele>1691.9</ele>
        <time>2026-05-06T12:07:42.000Z</time>
      </trkpt>
      <trkpt lat="41.792202" lon="22.970442">
        <ele>1692</ele>
        <time>2026-05-06T12:07:43.000Z</time>
      </trkpt>
      <trkpt lat="41.792201" lon="22.970443">
        <ele>1692</ele>
        <time>2026-05-06T12:07:44.000Z</time>
      </trkpt>
      <trkpt lat="41.792198" lon="22.970442">
        <ele>1692</ele>
        <time>2026-05-06T12:07:45.000Z</time>
      </trkpt>
      <trkpt lat="41.792195" lon="22.970441">
        <ele>1692</ele>
        <time>2026-05-06T12:07:46.000Z</time>
      </trkpt>
      <trkpt lat="41.792193" lon="22.970441">
        <ele>1692</ele>
        <time>2026-05-06T12:07:47.000Z</time>
      </trkpt>
      <trkpt lat="41.79219" lon="22.970442">
        <ele>1692</ele>
        <time>2026-05-06T12:07:48.000Z</time>
      </trkpt>
      <trkpt lat="41.79219" lon="22.970442">
        <ele>1692</ele>
        <time>2026-05-06T12:07:49.000Z</time>
      </trkpt>
      <trkpt lat="41.792191" lon="22.970441">
        <ele>1692</ele>
        <time>2026-05-06T12:07:50.000Z</time>
      </trkpt>
      <trkpt lat="41.792194" lon="22.97044">
        <ele>1692</ele>
        <time>2026-05-06T12:07:51.000Z</time>
      </trkpt>
      <trkpt lat="41.792196" lon="22.970439">
        <ele>1692</ele>
        <time>2026-05-06T12:07:52.000Z</time>
      </trkpt>
      <trkpt lat="41.792197" lon="22.970435">
        <ele>1692.1</ele>
        <time>2026-05-06T12:07:53.000Z</time>
      </trkpt>
      <trkpt lat="41.792197" lon="22.970433">
        <ele>1692.1</ele>
        <time>2026-05-06T12:07:54.000Z</time>
      </trkpt>
      <trkpt lat="41.792197" lon="22.970432">
        <ele>1692.1</ele>
        <time>2026-05-06T12:07:55.000Z</time>
      </trkpt>
      <trkpt lat="41.792194" lon="22.97043">
        <ele>1692.1</ele>
        <time>2026-05-06T12:07:56.000Z</time>
      </trkpt>
      <trkpt lat="41.792191" lon="22.970429">
        <ele>1692.1</ele>
        <time>2026-05-06T12:07:57.000Z</time>
      </trkpt>
      <trkpt lat="41.792189" lon="22.970429">
        <ele>1692.5</ele>
        <time>2026-05-06T12:07:58.000Z</time>
      </trkpt>
      <trkpt lat="41.792185" lon="22.970428">
        <ele>1692.5</ele>
        <time>2026-05-06T12:07:59.000Z</time>
      </trkpt>
      <trkpt lat="41.792181" lon="22.970427">
        <ele>1692.5</ele>
        <time>2026-05-06T12:08:00.000Z</time>
      </trkpt>
      <trkpt lat="41.792177" lon="22.970427">
        <ele>1692.5</ele>
        <time>2026-05-06T12:08:01.000Z</time>
      </trkpt>
      <trkpt lat="41.792172" lon="22.970427">
        <ele>1692.5</ele>
        <time>2026-05-06T12:08:02.000Z</time>
      </trkpt>
      <trkpt lat="41.79217" lon="22.970429">
        <ele>1692.7</ele>
        <time>2026-05-06T12:08:03.000Z</time>
      </trkpt>
      <trkpt lat="41.792167" lon="22.970428">
        <ele>1692.7</ele>
        <time>2026-05-06T12:08:04.000Z</time>
      </trkpt>
      <trkpt lat="41.792165" lon="22.970428">
        <ele>1692.7</ele>
        <time>2026-05-06T12:08:05.000Z</time>
      </trkpt>
      <trkpt lat="41.792162" lon="22.970428">
        <ele>1692.7</ele>
        <time>2026-05-06T12:08:06.000Z</time>
      </trkpt>
      <trkpt lat="41.79216" lon="22.970428">
        <ele>1692.7</ele>
        <time>2026-05-06T12:08:07.000Z</time>
      </trkpt>
      <trkpt lat="41.792156" lon="22.970428">
        <ele>1693.3</ele>
        <time>2026-05-06T12:08:08.000Z</time>
      </trkpt>
      <trkpt lat="41.792153" lon="22.970429">
        <ele>1693.3</ele>
        <time>2026-05-06T12:08:09.000Z</time>
      </trkpt>
      <trkpt lat="41.792149" lon="22.970429">
        <ele>1693.3</ele>
        <time>2026-05-06T12:08:10.000Z</time>
      </trkpt>
      <trkpt lat="41.792145" lon="22.97043">
        <ele>1693.3</ele>
        <time>2026-05-06T12:08:11.000Z</time>
      </trkpt>
      <trkpt lat="41.792141" lon="22.970431">
        <ele>1693.3</ele>
        <time>2026-05-06T12:08:12.000Z</time>
      </trkpt>
      <trkpt lat="41.792138" lon="22.970431">
        <ele>1694</ele>
        <time>2026-05-06T12:08:13.000Z</time>
      </trkpt>
      <trkpt lat="41.792133" lon="22.97043">
        <ele>1694</ele>
        <time>2026-05-06T12:08:14.000Z</time>
      </trkpt>
      <trkpt lat="41.79213" lon="22.97043">
        <ele>1694</ele>
        <time>2026-05-06T12:08:15.000Z</time>
      </trkpt>
      <trkpt lat="41.792126" lon="22.970428">
        <ele>1694</ele>
        <time>2026-05-06T12:08:16.000Z</time>
      </trkpt>
      <trkpt lat="41.792122" lon="22.970427">
        <ele>1694</ele>
        <time>2026-05-06T12:08:17.000Z</time>
      </trkpt>
      <trkpt lat="41.792118" lon="22.970426">
        <ele>1694.4</ele>
        <time>2026-05-06T12:08:18.000Z</time>
      </trkpt>
      <trkpt lat="41.792115" lon="22.970426">
        <ele>1694.4</ele>
        <time>2026-05-06T12:08:19.000Z</time>
      </trkpt>
      <trkpt lat="41.792112" lon="22.970426">
        <ele>1694.4</ele>
        <time>2026-05-06T12:08:20.000Z</time>
      </trkpt>
      <trkpt lat="41.79211" lon="22.970428">
        <ele>1694.4</ele>
        <time>2026-05-06T12:08:21.000Z</time>
      </trkpt>
      <trkpt lat="41.792109" lon="22.97043">
        <ele>1694.4</ele>
        <time>2026-05-06T12:08:22.000Z</time>
      </trkpt>
      <trkpt lat="41.792107" lon="22.970432">
        <ele>1695.6</ele>
        <time>2026-05-06T12:08:23.000Z</time>
      </trkpt>
      <trkpt lat="41.792105" lon="22.970436">
        <ele>1695.6</ele>
        <time>2026-05-06T12:08:24.000Z</time>
      </trkpt>
      <trkpt lat="41.792103" lon="22.970438">
        <ele>1695.6</ele>
        <time>2026-05-06T12:08:25.000Z</time>
      </trkpt>
      <trkpt lat="41.792099" lon="22.970441">
        <ele>1695.6</ele>
        <time>2026-05-06T12:08:26.000Z</time>
      </trkpt>
      <trkpt lat="41.792095" lon="22.970444">
        <ele>1695.6</ele>
        <time>2026-05-06T12:08:27.000Z</time>
      </trkpt>
      <trkpt lat="41.792091" lon="22.970446">
        <ele>1696.7</ele>
        <time>2026-05-06T12:08:28.000Z</time>
      </trkpt>
      <trkpt lat="41.792088" lon="22.970447">
        <ele>1696.7</ele>
        <time>2026-05-06T12:08:29.000Z</time>
      </trkpt>
      <trkpt lat="41.792085" lon="22.970449">
        <ele>1696.7</ele>
        <time>2026-05-06T12:08:30.000Z</time>
      </trkpt>
      <trkpt lat="41.792084" lon="22.97045">
        <ele>1696.7</ele>
        <time>2026-05-06T12:08:31.000Z</time>
      </trkpt>
      <trkpt lat="41.792083" lon="22.97045">
        <ele>1696.7</ele>
        <time>2026-05-06T12:08:32.000Z</time>
      </trkpt>
      <trkpt lat="41.792081" lon="22.970451">
        <ele>1697.3</ele>
        <time>2026-05-06T12:08:33.000Z</time>
      </trkpt>
      <trkpt lat="41.79208" lon="22.970451">
        <ele>1697.3</ele>
        <time>2026-05-06T12:08:34.000Z</time>
      </trkpt>
      <trkpt lat="41.792079" lon="22.970452">
        <ele>1697.3</ele>
        <time>2026-05-06T12:08:35.000Z</time>
      </trkpt>
      <trkpt lat="41.792078" lon="22.970451">
        <ele>1697.3</ele>
        <time>2026-05-06T12:08:36.000Z</time>
      </trkpt>
      <trkpt lat="41.792078" lon="22.970451">
        <ele>1697.3</ele>
        <time>2026-05-06T12:08:37.000Z</time>
      </trkpt>
      <trkpt lat="41.792079" lon="22.970451">
        <ele>1698.5</ele>
        <time>2026-05-06T12:08:38.000Z</time>
      </trkpt>
      <trkpt lat="41.792079" lon="22.97045">
        <ele>1698.5</ele>
        <time>2026-05-06T12:08:39.000Z</time>
      </trkpt>
      <trkpt lat="41.792078" lon="22.970448">
        <ele>1698.5</ele>
        <time>2026-05-06T12:08:40.000Z</time>
      </trkpt>
      <trkpt lat="41.792078" lon="22.970446">
        <ele>1698.5</ele>
        <time>2026-05-06T12:08:41.000Z</time>
      </trkpt>
      <trkpt lat="41.792078" lon="22.970443">
        <ele>1698.5</ele>
        <time>2026-05-06T12:08:42.000Z</time>
      </trkpt>
      <trkpt lat="41.792078" lon="22.970441">
        <ele>1699.8</ele>
        <time>2026-05-06T12:08:43.000Z</time>
      </trkpt>
      <trkpt lat="41.792079" lon="22.970437">
        <ele>1699.8</ele>
        <time>2026-05-06T12:08:44.000Z</time>
      </trkpt>
      <trkpt lat="41.792079" lon="22.970434">
        <ele>1699.8</ele>
        <time>2026-05-06T12:08:45.000Z</time>
      </trkpt>
      <trkpt lat="41.792079" lon="22.970431">
        <ele>1699.8</ele>
        <time>2026-05-06T12:08:46.000Z</time>
      </trkpt>
      <trkpt lat="41.792079" lon="22.970427">
        <ele>1699.8</ele>
        <time>2026-05-06T12:08:47.000Z</time>
      </trkpt>
      <trkpt lat="41.792078" lon="22.970424">
        <ele>1700.4</ele>
        <time>2026-05-06T12:08:48.000Z</time>
      </trkpt>
      <trkpt lat="41.792077" lon="22.970423">
        <ele>1700.4</ele>
        <time>2026-05-06T12:08:49.000Z</time>
      </trkpt>
      <trkpt lat="41.792075" lon="22.970421">
        <ele>1700.4</ele>
        <time>2026-05-06T12:08:50.000Z</time>
      </trkpt>
      <trkpt lat="41.792075" lon="22.970419">
        <ele>1700.4</ele>
        <time>2026-05-06T12:08:51.000Z</time>
      </trkpt>
      <trkpt lat="41.792075" lon="22.970417">
        <ele>1700.4</ele>
        <time>2026-05-06T12:08:52.000Z</time>
      </trkpt>
      <trkpt lat="41.792076" lon="22.970416">
        <ele>1701.3</ele>
        <time>2026-05-06T12:08:53.000Z</time>
      </trkpt>
      <trkpt lat="41.792076" lon="22.970414">
        <ele>1701.3</ele>
        <time>2026-05-06T12:08:54.000Z</time>
      </trkpt>
      <trkpt lat="41.792076" lon="22.970413">
        <ele>1701.3</ele>
        <time>2026-05-06T12:08:55.000Z</time>
      </trkpt>
      <trkpt lat="41.792075" lon="22.970412">
        <ele>1701.3</ele>
        <time>2026-05-06T12:08:56.000Z</time>
      </trkpt>
      <trkpt lat="41.792073" lon="22.970411">
        <ele>1701.3</ele>
        <time>2026-05-06T12:08:57.000Z</time>
      </trkpt>
      <trkpt lat="41.792072" lon="22.97041">
        <ele>1701.7</ele>
        <time>2026-05-06T12:08:58.000Z</time>
      </trkpt>
      <trkpt lat="41.79207" lon="22.970411">
        <ele>1701.7</ele>
        <time>2026-05-06T12:08:59.000Z</time>
      </trkpt>
      <trkpt lat="41.79207" lon="22.970412">
        <ele>1701.7</ele>
        <time>2026-05-06T12:09:00.000Z</time>
      </trkpt>
      <trkpt lat="41.79207" lon="22.970413">
        <ele>1701.7</ele>
        <time>2026-05-06T12:09:01.000Z</time>
      </trkpt>
      <trkpt lat="41.79207" lon="22.970415">
        <ele>1701.7</ele>
        <time>2026-05-06T12:09:02.000Z</time>
      </trkpt>
      <trkpt lat="41.792069" lon="22.970416">
        <ele>1701.8</ele>
        <time>2026-05-06T12:09:03.000Z</time>
      </trkpt>
      <trkpt lat="41.79207" lon="22.970414">
        <ele>1701.8</ele>
        <time>2026-05-06T12:09:04.000Z</time>
      </trkpt>
      <trkpt lat="41.79207" lon="22.970412">
        <ele>1701.8</ele>
        <time>2026-05-06T12:09:05.000Z</time>
      </trkpt>
      <trkpt lat="41.79207" lon="22.970412">
        <ele>1701.8</ele>
        <time>2026-05-06T12:09:06.000Z</time>
      </trkpt>
      <trkpt lat="41.79207" lon="22.970411">
        <ele>1701.8</ele>
        <time>2026-05-06T12:09:07.000Z</time>
      </trkpt>
      <trkpt lat="41.79207" lon="22.970411">
        <ele>1701.9</ele>
        <time>2026-05-06T12:09:08.000Z</time>
      </trkpt>
      <trkpt lat="41.79207" lon="22.970411">
        <ele>1701.9</ele>
        <time>2026-05-06T12:09:09.000Z</time>
      </trkpt>
      <trkpt lat="41.792071" lon="22.970413">
        <ele>1701.9</ele>
        <time>2026-05-06T12:09:10.000Z</time>
      </trkpt>
      <trkpt lat="41.792071" lon="22.970413">
        <ele>1701.9</ele>
        <time>2026-05-06T12:09:11.000Z</time>
      </trkpt>
      <trkpt lat="41.792071" lon="22.970414">
        <ele>1701.9</ele>
        <time>2026-05-06T12:09:12.000Z</time>
      </trkpt>
      <trkpt lat="41.792071" lon="22.970415">
        <ele>1701.9</ele>
        <time>2026-05-06T12:09:13.000Z</time>
      </trkpt>
      <trkpt lat="41.792071" lon="22.970416">
        <ele>1701.9</ele>
        <time>2026-05-06T12:09:14.000Z</time>
      </trkpt>
      <trkpt lat="41.792071" lon="22.970416">
        <ele>1701.9</ele>
        <time>2026-05-06T12:09:15.000Z</time>
      </trkpt>
      <trkpt lat="41.792071" lon="22.970416">
        <ele>1701.9</ele>
        <time>2026-05-06T12:09:16.000Z</time>
      </trkpt>
      <trkpt lat="41.792071" lon="22.970416">
        <ele>1701.9</ele>
        <time>2026-05-06T12:09:17.000Z</time>
      </trkpt>
      <trkpt lat="41.79207" lon="22.970417">
        <ele>1701.9</ele>
        <time>2026-05-06T12:09:18.000Z</time>
      </trkpt>
      <trkpt lat="41.79207" lon="22.970417">
        <ele>1701.9</ele>
        <time>2026-05-06T12:09:19.000Z</time>
      </trkpt>
      <trkpt lat="41.79207" lon="22.970417">
        <ele>1701.9</ele>
        <time>2026-05-06T12:09:20.000Z</time>
      </trkpt>
      <trkpt lat="41.79207" lon="22.970417">
        <ele>1701.9</ele>
        <time>2026-05-06T12:09:21.000Z</time>
      </trkpt>
      <trkpt lat="41.79207" lon="22.970417">
        <ele>1701.9</ele>
        <time>2026-05-06T12:09:22.000Z</time>
      </trkpt>
      <trkpt lat="41.79207" lon="22.970417">
        <ele>1701.8</ele>
        <time>2026-05-06T12:09:23.000Z</time>
      </trkpt>
      <trkpt lat="41.79207" lon="22.970417">
        <ele>1701.8</ele>
        <time>2026-05-06T12:09:24.000Z</time>
      </trkpt>
      <trkpt lat="41.792071" lon="22.970418">
        <ele>1701.8</ele>
        <time>2026-05-06T12:09:25.000Z</time>
      </trkpt>
      <trkpt lat="41.792072" lon="22.970419">
        <ele>1701.8</ele>
        <time>2026-05-06T12:09:26.000Z</time>
      </trkpt>
      <trkpt lat="41.792072" lon="22.970419">
        <ele>1701.8</ele>
        <time>2026-05-06T12:09:27.000Z</time>
      </trkpt>
      <trkpt lat="41.792073" lon="22.97042">
        <ele>1701.7</ele>
        <time>2026-05-06T12:09:28.000Z</time>
      </trkpt>
      <trkpt lat="41.792073" lon="22.970421">
        <ele>1701.7</ele>
        <time>2026-05-06T12:09:29.000Z</time>
      </trkpt>
      <trkpt lat="41.792072" lon="22.97042">
        <ele>1701.7</ele>
        <time>2026-05-06T12:09:30.000Z</time>
      </trkpt>
      <trkpt lat="41.792071" lon="22.970417">
        <ele>1701.7</ele>
        <time>2026-05-06T12:09:31.000Z</time>
      </trkpt>
      <trkpt lat="41.792071" lon="22.970412">
        <ele>1701.7</ele>
        <time>2026-05-06T12:09:32.000Z</time>
      </trkpt>
      <trkpt lat="41.79207" lon="22.970407">
        <ele>1701.7</ele>
        <time>2026-05-06T12:09:33.000Z</time>
      </trkpt>
      <trkpt lat="41.79207" lon="22.970402">
        <ele>1701.7</ele>
        <time>2026-05-06T12:09:34.000Z</time>
      </trkpt>
      <trkpt lat="41.792069" lon="22.970397">
        <ele>1701.7</ele>
        <time>2026-05-06T12:09:35.000Z</time>
      </trkpt>
      <trkpt lat="41.79207" lon="22.970395">
        <ele>1701.7</ele>
        <time>2026-05-06T12:09:36.000Z</time>
      </trkpt>
      <trkpt lat="41.79207" lon="22.970395">
        <ele>1701.7</ele>
        <time>2026-05-06T12:09:37.000Z</time>
      </trkpt>
      <trkpt lat="41.79207" lon="22.970395">
        <ele>1701.8</ele>
        <time>2026-05-06T12:09:38.000Z</time>
      </trkpt>
      <trkpt lat="41.79207" lon="22.970394">
        <ele>1701.8</ele>
        <time>2026-05-06T12:09:39.000Z</time>
      </trkpt>
      <trkpt lat="41.79207" lon="22.970394">
        <ele>1701.8</ele>
        <time>2026-05-06T12:09:40.000Z</time>
      </trkpt>
      <trkpt lat="41.792069" lon="22.970394">
        <ele>1701.8</ele>
        <time>2026-05-06T12:09:41.000Z</time>
      </trkpt>
      <trkpt lat="41.792069" lon="22.970394">
        <ele>1701.8</ele>
        <time>2026-05-06T12:09:42.000Z</time>
      </trkpt>
      <trkpt lat="41.792069" lon="22.970394">
        <ele>1702.2</ele>
        <time>2026-05-06T12:09:43.000Z</time>
      </trkpt>
      <trkpt lat="41.792069" lon="22.970395">
        <ele>1702.2</ele>
        <time>2026-05-06T12:09:44.000Z</time>
      </trkpt>
      <trkpt lat="41.792069" lon="22.970396">
        <ele>1702.2</ele>
        <time>2026-05-06T12:09:45.000Z</time>
      </trkpt>
      <trkpt lat="41.792069" lon="22.970396">
        <ele>1702.2</ele>
        <time>2026-05-06T12:09:46.000Z</time>
      </trkpt>
      <trkpt lat="41.792069" lon="22.970397">
        <ele>1702.2</ele>
        <time>2026-05-06T12:09:47.000Z</time>
      </trkpt>
      <trkpt lat="41.792069" lon="22.970397">
        <ele>1702.3</ele>
        <time>2026-05-06T12:09:48.000Z</time>
      </trkpt>
      <trkpt lat="41.79207" lon="22.970397">
        <ele>1702.3</ele>
        <time>2026-05-06T12:09:49.000Z</time>
      </trkpt>
      <trkpt lat="41.79207" lon="22.970397">
        <ele>1702.3</ele>
        <time>2026-05-06T12:09:50.000Z</time>
      </trkpt>
      <trkpt lat="41.79207" lon="22.970397">
        <ele>1702.3</ele>
        <time>2026-05-06T12:09:51.000Z</time>
      </trkpt>
      <trkpt lat="41.79207" lon="22.970397">
        <ele>1702.3</ele>
        <time>2026-05-06T12:09:52.000Z</time>
      </trkpt>
      <trkpt lat="41.792069" lon="22.970398">
        <ele>1702.4</ele>
        <time>2026-05-06T12:09:53.000Z</time>
      </trkpt>
      <trkpt lat="41.792069" lon="22.970399">
        <ele>1702.4</ele>
        <time>2026-05-06T12:09:54.000Z</time>
      </trkpt>
      <trkpt lat="41.792069" lon="22.9704">
        <ele>1702.4</ele>
        <time>2026-05-06T12:09:55.000Z</time>
      </trkpt>
      <trkpt lat="41.792068" lon="22.970402">
        <ele>1702.4</ele>
        <time>2026-05-06T12:09:56.000Z</time>
      </trkpt>
      <trkpt lat="41.792068" lon="22.970402">
        <ele>1702.4</ele>
        <time>2026-05-06T12:09:57.000Z</time>
      </trkpt>
      <trkpt lat="41.792068" lon="22.970403">
        <ele>1702.2</ele>
        <time>2026-05-06T12:09:58.000Z</time>
      </trkpt>
      <trkpt lat="41.792068" lon="22.970403">
        <ele>1702.2</ele>
        <time>2026-05-06T12:09:59.000Z</time>
      </trkpt>
      <trkpt lat="41.792068" lon="22.970403">
        <ele>1702.2</ele>
        <time>2026-05-06T12:10:00.000Z</time>
      </trkpt>
      <trkpt lat="41.792068" lon="22.970403">
        <ele>1702.2</ele>
        <time>2026-05-06T12:10:01.000Z</time>
      </trkpt>
      <trkpt lat="41.792068" lon="22.970403">
        <ele>1702.2</ele>
        <time>2026-05-06T12:10:02.000Z</time>
      </trkpt>
      <trkpt lat="41.792068" lon="22.970403">
        <ele>1702.1</ele>
        <time>2026-05-06T12:10:03.000Z</time>
      </trkpt>
      <trkpt lat="41.792068" lon="22.970403">
        <ele>1702.1</ele>
        <time>2026-05-06T12:10:04.000Z</time>
      </trkpt>
      <trkpt lat="41.792068" lon="22.970403">
        <ele>1702.1</ele>
        <time>2026-05-06T12:10:05.000Z</time>
      </trkpt>
      <trkpt lat="41.792067" lon="22.970403">
        <ele>1702.1</ele>
        <time>2026-05-06T12:10:06.000Z</time>
      </trkpt>
      <trkpt lat="41.792067" lon="22.970403">
        <ele>1702.1</ele>
        <time>2026-05-06T12:10:07.000Z</time>
      </trkpt>
      <trkpt lat="41.792067" lon="22.970402">
        <ele>1702</ele>
        <time>2026-05-06T12:10:08.000Z</time>
      </trkpt>
      <trkpt lat="41.792068" lon="22.9704">
        <ele>1702</ele>
        <time>2026-05-06T12:10:09.000Z</time>
      </trkpt>
      <trkpt lat="41.792068" lon="22.970398">
        <ele>1702</ele>
        <time>2026-05-06T12:10:10.000Z</time>
      </trkpt>
      <trkpt lat="41.792069" lon="22.970397">
        <ele>1702</ele>
        <time>2026-05-06T12:10:11.000Z</time>
      </trkpt>
      <trkpt lat="41.792069" lon="22.970395">
        <ele>1702</ele>
        <time>2026-05-06T12:10:12.000Z</time>
      </trkpt>
      <trkpt lat="41.79207" lon="22.970394">
        <ele>1702.1</ele>
        <time>2026-05-06T12:10:13.000Z</time>
      </trkpt>
      <trkpt lat="41.79207" lon="22.970394">
        <ele>1702.1</ele>
        <time>2026-05-06T12:10:14.000Z</time>
      </trkpt>
      <trkpt lat="41.79207" lon="22.970393">
        <ele>1702.1</ele>
        <time>2026-05-06T12:10:15.000Z</time>
      </trkpt>
      <trkpt lat="41.792069" lon="22.970393">
        <ele>1702.1</ele>
        <time>2026-05-06T12:10:16.000Z</time>
      </trkpt>
      <trkpt lat="41.792069" lon="22.970392">
        <ele>1702.1</ele>
        <time>2026-05-06T12:10:17.000Z</time>
      </trkpt>
      <trkpt lat="41.792068" lon="22.970392">
        <ele>1702.1</ele>
        <time>2026-05-06T12:10:18.000Z</time>
      </trkpt>
      <trkpt lat="41.792068" lon="22.970392">
        <ele>1702.1</ele>
        <time>2026-05-06T12:10:19.000Z</time>
      </trkpt>
      <trkpt lat="41.792068" lon="22.970392">
        <ele>1702.1</ele>
        <time>2026-05-06T12:10:20.000Z</time>
      </trkpt>
      <trkpt lat="41.792068" lon="22.970392">
        <ele>1702.1</ele>
        <time>2026-05-06T12:10:21.000Z</time>
      </trkpt>
      <trkpt lat="41.792068" lon="22.970391">
        <ele>1702.1</ele>
        <time>2026-05-06T12:10:22.000Z</time>
      </trkpt>
      <trkpt lat="41.792068" lon="22.970389">
        <ele>1702.2</ele>
        <time>2026-05-06T12:10:23.000Z</time>
      </trkpt>
      <trkpt lat="41.792068" lon="22.970386">
        <ele>1702.2</ele>
        <time>2026-05-06T12:10:24.000Z</time>
      </trkpt>
      <trkpt lat="41.792067" lon="22.970381">
        <ele>1702.2</ele>
        <time>2026-05-06T12:10:25.000Z</time>
      </trkpt>
      <trkpt lat="41.792066" lon="22.970376">
        <ele>1702.2</ele>
        <time>2026-05-06T12:10:26.000Z</time>
      </trkpt>
      <trkpt lat="41.792065" lon="22.970373">
        <ele>1702.2</ele>
        <time>2026-05-06T12:10:27.000Z</time>
      </trkpt>
      <trkpt lat="41.792064" lon="22.970371">
        <ele>1702.2</ele>
        <time>2026-05-06T12:10:28.000Z</time>
      </trkpt>
      <trkpt lat="41.792062" lon="22.970372">
        <ele>1702.2</ele>
        <time>2026-05-06T12:10:29.000Z</time>
      </trkpt>
      <trkpt lat="41.79206" lon="22.970375">
        <ele>1702.2</ele>
        <time>2026-05-06T12:10:30.000Z</time>
      </trkpt>
      <trkpt lat="41.792059" lon="22.970378">
        <ele>1702.2</ele>
        <time>2026-05-06T12:10:31.000Z</time>
      </trkpt>
      <trkpt lat="41.792058" lon="22.970381">
        <ele>1702.2</ele>
        <time>2026-05-06T12:10:32.000Z</time>
      </trkpt>
      <trkpt lat="41.792057" lon="22.970385">
        <ele>1702.2</ele>
        <time>2026-05-06T12:10:33.000Z</time>
      </trkpt>
      <trkpt lat="41.792056" lon="22.970389">
        <ele>1702.2</ele>
        <time>2026-05-06T12:10:34.000Z</time>
      </trkpt>
      <trkpt lat="41.792055" lon="22.970392">
        <ele>1702.2</ele>
        <time>2026-05-06T12:10:35.000Z</time>
      </trkpt>
      <trkpt lat="41.792053" lon="22.970396">
        <ele>1702.2</ele>
        <time>2026-05-06T12:10:36.000Z</time>
      </trkpt>
      <trkpt lat="41.792049" lon="22.970401">
        <ele>1702.2</ele>
        <time>2026-05-06T12:10:37.000Z</time>
      </trkpt>
      <trkpt lat="41.792045" lon="22.970408">
        <ele>1702.6</ele>
        <time>2026-05-06T12:10:38.000Z</time>
      </trkpt>
      <trkpt lat="41.792041" lon="22.970414">
        <ele>1702.6</ele>
        <time>2026-05-06T12:10:39.000Z</time>
      </trkpt>
      <trkpt lat="41.792037" lon="22.970421">
        <ele>1702.6</ele>
        <time>2026-05-06T12:10:40.000Z</time>
      </trkpt>
      <trkpt lat="41.792035" lon="22.970426">
        <ele>1702.6</ele>
        <time>2026-05-06T12:10:41.000Z</time>
      </trkpt>
      <trkpt lat="41.792032" lon="22.970429">
        <ele>1702.6</ele>
        <time>2026-05-06T12:10:42.000Z</time>
      </trkpt>
      <trkpt lat="41.79203" lon="22.970429">
        <ele>1703.4</ele>
        <time>2026-05-06T12:10:43.000Z</time>
      </trkpt>
      <trkpt lat="41.792027" lon="22.970429">
        <ele>1703.4</ele>
        <time>2026-05-06T12:10:44.000Z</time>
      </trkpt>
      <trkpt lat="41.792024" lon="22.970428">
        <ele>1703.4</ele>
        <time>2026-05-06T12:10:45.000Z</time>
      </trkpt>
      <trkpt lat="41.79202" lon="22.970426">
        <ele>1703.4</ele>
        <time>2026-05-06T12:10:46.000Z</time>
      </trkpt>
      <trkpt lat="41.792017" lon="22.970424">
        <ele>1703.4</ele>
        <time>2026-05-06T12:10:47.000Z</time>
      </trkpt>
      <trkpt lat="41.792015" lon="22.970422">
        <ele>1703.9</ele>
        <time>2026-05-06T12:10:48.000Z</time>
      </trkpt>
      <trkpt lat="41.792015" lon="22.970418">
        <ele>1703.9</ele>
        <time>2026-05-06T12:10:49.000Z</time>
      </trkpt>
      <trkpt lat="41.792015" lon="22.970414">
        <ele>1703.9</ele>
        <time>2026-05-06T12:10:50.000Z</time>
      </trkpt>
      <trkpt lat="41.792015" lon="22.970409">
        <ele>1703.9</ele>
        <time>2026-05-06T12:10:51.000Z</time>
      </trkpt>
      <trkpt lat="41.792015" lon="22.970403">
        <ele>1703.9</ele>
        <time>2026-05-06T12:10:52.000Z</time>
      </trkpt>
      <trkpt lat="41.792014" lon="22.970397">
        <ele>1705.2</ele>
        <time>2026-05-06T12:10:53.000Z</time>
      </trkpt>
      <trkpt lat="41.792011" lon="22.970392">
        <ele>1705.2</ele>
        <time>2026-05-06T12:10:54.000Z</time>
      </trkpt>
      <trkpt lat="41.792009" lon="22.970388">
        <ele>1705.2</ele>
        <time>2026-05-06T12:10:55.000Z</time>
      </trkpt>
      <trkpt lat="41.792006" lon="22.970385">
        <ele>1705.2</ele>
        <time>2026-05-06T12:10:56.000Z</time>
      </trkpt>
      <trkpt lat="41.792004" lon="22.970385">
        <ele>1705.2</ele>
        <time>2026-05-06T12:10:57.000Z</time>
      </trkpt>
      <trkpt lat="41.792" lon="22.970385">
        <ele>1706.5</ele>
        <time>2026-05-06T12:10:58.000Z</time>
      </trkpt>
      <trkpt lat="41.791998" lon="22.970386">
        <ele>1706.5</ele>
        <time>2026-05-06T12:10:59.000Z</time>
      </trkpt>
      <trkpt lat="41.791993" lon="22.970386">
        <ele>1706.5</ele>
        <time>2026-05-06T12:11:00.000Z</time>
      </trkpt>
      <trkpt lat="41.791989" lon="22.970386">
        <ele>1706.5</ele>
        <time>2026-05-06T12:11:01.000Z</time>
      </trkpt>
      <trkpt lat="41.791984" lon="22.970384">
        <ele>1706.5</ele>
        <time>2026-05-06T12:11:02.000Z</time>
      </trkpt>
      <trkpt lat="41.79198" lon="22.970383">
        <ele>1707.2</ele>
        <time>2026-05-06T12:11:03.000Z</time>
      </trkpt>
      <trkpt lat="41.791975" lon="22.970381">
        <ele>1707.2</ele>
        <time>2026-05-06T12:11:04.000Z</time>
      </trkpt>
      <trkpt lat="41.79197" lon="22.97038">
        <ele>1707.2</ele>
        <time>2026-05-06T12:11:05.000Z</time>
      </trkpt>
      <trkpt lat="41.791965" lon="22.970379">
        <ele>1707.2</ele>
        <time>2026-05-06T12:11:06.000Z</time>
      </trkpt>
      <trkpt lat="41.791961" lon="22.970379">
        <ele>1707.2</ele>
        <time>2026-05-06T12:11:07.000Z</time>
      </trkpt>
      <trkpt lat="41.791956" lon="22.97038">
        <ele>1708.5</ele>
        <time>2026-05-06T12:11:08.000Z</time>
      </trkpt>
      <trkpt lat="41.791952" lon="22.970381">
        <ele>1708.5</ele>
        <time>2026-05-06T12:11:09.000Z</time>
      </trkpt>
      <trkpt lat="41.791949" lon="22.970381">
        <ele>1708.5</ele>
        <time>2026-05-06T12:11:10.000Z</time>
      </trkpt>
      <trkpt lat="41.791946" lon="22.970381">
        <ele>1708.5</ele>
        <time>2026-05-06T12:11:11.000Z</time>
      </trkpt>
      <trkpt lat="41.791944" lon="22.970379">
        <ele>1708.5</ele>
        <time>2026-05-06T12:11:12.000Z</time>
      </trkpt>
      <trkpt lat="41.791945" lon="22.970377">
        <ele>1709.8</ele>
        <time>2026-05-06T12:11:13.000Z</time>
      </trkpt>
      <trkpt lat="41.791945" lon="22.970375">
        <ele>1709.8</ele>
        <time>2026-05-06T12:11:14.000Z</time>
      </trkpt>
      <trkpt lat="41.791945" lon="22.970373">
        <ele>1709.8</ele>
        <time>2026-05-06T12:11:15.000Z</time>
      </trkpt>
      <trkpt lat="41.791944" lon="22.97037">
        <ele>1709.8</ele>
        <time>2026-05-06T12:11:16.000Z</time>
      </trkpt>
      <trkpt lat="41.791943" lon="22.970366">
        <ele>1709.8</ele>
        <time>2026-05-06T12:11:17.000Z</time>
      </trkpt>
      <trkpt lat="41.791941" lon="22.970363">
        <ele>1710.5</ele>
        <time>2026-05-06T12:11:18.000Z</time>
      </trkpt>
      <trkpt lat="41.791939" lon="22.970358">
        <ele>1710.5</ele>
        <time>2026-05-06T12:11:19.000Z</time>
      </trkpt>
      <trkpt lat="41.791937" lon="22.970354">
        <ele>1710.5</ele>
        <time>2026-05-06T12:11:20.000Z</time>
      </trkpt>
      <trkpt lat="41.791935" lon="22.970353">
        <ele>1710.5</ele>
        <time>2026-05-06T12:11:21.000Z</time>
      </trkpt>
      <trkpt lat="41.791933" lon="22.970353">
        <ele>1710.5</ele>
        <time>2026-05-06T12:11:22.000Z</time>
      </trkpt>
      <trkpt lat="41.791931" lon="22.970352">
        <ele>1711.8</ele>
        <time>2026-05-06T12:11:23.000Z</time>
      </trkpt>
      <trkpt lat="41.79193" lon="22.970353">
        <ele>1711.8</ele>
        <time>2026-05-06T12:11:24.000Z</time>
      </trkpt>
      <trkpt lat="41.791929" lon="22.970355">
        <ele>1711.8</ele>
        <time>2026-05-06T12:11:25.000Z</time>
      </trkpt>
      <trkpt lat="41.79193" lon="22.970356">
        <ele>1711.8</ele>
        <time>2026-05-06T12:11:26.000Z</time>
      </trkpt>
      <trkpt lat="41.79193" lon="22.970357">
        <ele>1711.8</ele>
        <time>2026-05-06T12:11:27.000Z</time>
      </trkpt>
      <trkpt lat="41.79193" lon="22.970358">
        <ele>1712.9</ele>
        <time>2026-05-06T12:11:28.000Z</time>
      </trkpt>
      <trkpt lat="41.79193" lon="22.970359">
        <ele>1712.9</ele>
        <time>2026-05-06T12:11:29.000Z</time>
      </trkpt>
      <trkpt lat="41.791929" lon="22.970356">
        <ele>1712.9</ele>
        <time>2026-05-06T12:11:30.000Z</time>
      </trkpt>
      <trkpt lat="41.791928" lon="22.970352">
        <ele>1712.9</ele>
        <time>2026-05-06T12:11:31.000Z</time>
      </trkpt>
      <trkpt lat="41.791926" lon="22.970348">
        <ele>1712.9</ele>
        <time>2026-05-06T12:11:32.000Z</time>
      </trkpt>
      <trkpt lat="41.791925" lon="22.970342">
        <ele>1713.3</ele>
        <time>2026-05-06T12:11:33.000Z</time>
      </trkpt>
      <trkpt lat="41.791922" lon="22.970337">
        <ele>1713.3</ele>
        <time>2026-05-06T12:11:34.000Z</time>
      </trkpt>
      <trkpt lat="41.791921" lon="22.970334">
        <ele>1713.3</ele>
        <time>2026-05-06T12:11:35.000Z</time>
      </trkpt>
      <trkpt lat="41.791916" lon="22.97033">
        <ele>1713.3</ele>
        <time>2026-05-06T12:11:36.000Z</time>
      </trkpt>
      <trkpt lat="41.791911" lon="22.970328">
        <ele>1713.3</ele>
        <time>2026-05-06T12:11:37.000Z</time>
      </trkpt>
      <trkpt lat="41.791905" lon="22.970325">
        <ele>1713.9</ele>
        <time>2026-05-06T12:11:38.000Z</time>
      </trkpt>
      <trkpt lat="41.7919" lon="22.970323">
        <ele>1713.9</ele>
        <time>2026-05-06T12:11:39.000Z</time>
      </trkpt>
      <trkpt lat="41.791895" lon="22.970319">
        <ele>1713.9</ele>
        <time>2026-05-06T12:11:40.000Z</time>
      </trkpt>
      <trkpt lat="41.791892" lon="22.970315">
        <ele>1713.9</ele>
        <time>2026-05-06T12:11:41.000Z</time>
      </trkpt>
      <trkpt lat="41.79189" lon="22.97031">
        <ele>1713.9</ele>
        <time>2026-05-06T12:11:42.000Z</time>
      </trkpt>
      <trkpt lat="41.79189" lon="22.970307">
        <ele>1714.3</ele>
        <time>2026-05-06T12:11:43.000Z</time>
      </trkpt>
      <trkpt lat="41.791888" lon="22.970303">
        <ele>1714.3</ele>
        <time>2026-05-06T12:11:44.000Z</time>
      </trkpt>
      <trkpt lat="41.791887" lon="22.9703">
        <ele>1714.3</ele>
        <time>2026-05-06T12:11:45.000Z</time>
      </trkpt>
      <trkpt lat="41.791885" lon="22.970298">
        <ele>1714.3</ele>
        <time>2026-05-06T12:11:46.000Z</time>
      </trkpt>
      <trkpt lat="41.791881" lon="22.970297">
        <ele>1714.3</ele>
        <time>2026-05-06T12:11:47.000Z</time>
      </trkpt>
      <trkpt lat="41.791877" lon="22.970297">
        <ele>1714.6</ele>
        <time>2026-05-06T12:11:48.000Z</time>
      </trkpt>
      <trkpt lat="41.791872" lon="22.970297">
        <ele>1714.6</ele>
        <time>2026-05-06T12:11:49.000Z</time>
      </trkpt>
      <trkpt lat="41.791868" lon="22.970298">
        <ele>1714.6</ele>
        <time>2026-05-06T12:11:50.000Z</time>
      </trkpt>
      <trkpt lat="41.791866" lon="22.970298">
        <ele>1714.6</ele>
        <time>2026-05-06T12:11:51.000Z</time>
      </trkpt>
      <trkpt lat="41.791864" lon="22.970298">
        <ele>1714.6</ele>
        <time>2026-05-06T12:11:52.000Z</time>
      </trkpt>
      <trkpt lat="41.791862" lon="22.970297">
        <ele>1715.6</ele>
        <time>2026-05-06T12:11:53.000Z</time>
      </trkpt>
      <trkpt lat="41.791862" lon="22.970295">
        <ele>1715.6</ele>
        <time>2026-05-06T12:11:54.000Z</time>
      </trkpt>
      <trkpt lat="41.791862" lon="22.970293">
        <ele>1715.6</ele>
        <time>2026-05-06T12:11:55.000Z</time>
      </trkpt>
      <trkpt lat="41.791861" lon="22.970292">
        <ele>1715.6</ele>
        <time>2026-05-06T12:11:56.000Z</time>
      </trkpt>
      <trkpt lat="41.79186" lon="22.970291">
        <ele>1715.6</ele>
        <time>2026-05-06T12:11:57.000Z</time>
      </trkpt>
      <trkpt lat="41.79186" lon="22.97029">
        <ele>1716.7</ele>
        <time>2026-05-06T12:11:58.000Z</time>
      </trkpt>
      <trkpt lat="41.791859" lon="22.970289">
        <ele>1716.7</ele>
        <time>2026-05-06T12:11:59.000Z</time>
      </trkpt>
      <trkpt lat="41.791858" lon="22.970288">
        <ele>1716.7</ele>
        <time>2026-05-06T12:12:00.000Z</time>
      </trkpt>
      <trkpt lat="41.791858" lon="22.970287">
        <ele>1716.7</ele>
        <time>2026-05-06T12:12:01.000Z</time>
      </trkpt>
      <trkpt lat="41.791859" lon="22.970287">
        <ele>1716.7</ele>
        <time>2026-05-06T12:12:02.000Z</time>
      </trkpt>
      <trkpt lat="41.79186" lon="22.970286">
        <ele>1717.2</ele>
        <time>2026-05-06T12:12:03.000Z</time>
      </trkpt>
      <trkpt lat="41.791862" lon="22.970288">
        <ele>1717.2</ele>
        <time>2026-05-06T12:12:04.000Z</time>
      </trkpt>
      <trkpt lat="41.791861" lon="22.970291">
        <ele>1717.2</ele>
        <time>2026-05-06T12:12:05.000Z</time>
      </trkpt>
      <trkpt lat="41.79186" lon="22.970295">
        <ele>1717.2</ele>
        <time>2026-05-06T12:12:06.000Z</time>
      </trkpt>
      <trkpt lat="41.791858" lon="22.970301">
        <ele>1717.2</ele>
        <time>2026-05-06T12:12:07.000Z</time>
      </trkpt>
      <trkpt lat="41.791854" lon="22.970306">
        <ele>1718.3</ele>
        <time>2026-05-06T12:12:08.000Z</time>
      </trkpt>
      <trkpt lat="41.791849" lon="22.97031">
        <ele>1718.3</ele>
        <time>2026-05-06T12:12:09.000Z</time>
      </trkpt>
      <trkpt lat="41.791843" lon="22.970312">
        <ele>1718.3</ele>
        <time>2026-05-06T12:12:10.000Z</time>
      </trkpt>
      <trkpt lat="41.791838" lon="22.970313">
        <ele>1718.3</ele>
        <time>2026-05-06T12:12:11.000Z</time>
      </trkpt>
      <trkpt lat="41.791833" lon="22.970313">
        <ele>1718.3</ele>
        <time>2026-05-06T12:12:12.000Z</time>
      </trkpt>
      <trkpt lat="41.791827" lon="22.970313">
        <ele>1718.9</ele>
        <time>2026-05-06T12:12:13.000Z</time>
      </trkpt>
      <trkpt lat="41.791823" lon="22.970313">
        <ele>1718.9</ele>
        <time>2026-05-06T12:12:14.000Z</time>
      </trkpt>
      <trkpt lat="41.791819" lon="22.970312">
        <ele>1718.9</ele>
        <time>2026-05-06T12:12:15.000Z</time>
      </trkpt>
      <trkpt lat="41.791815" lon="22.970311">
        <ele>1718.9</ele>
        <time>2026-05-06T12:12:16.000Z</time>
      </trkpt>
      <trkpt lat="41.79181" lon="22.970308">
        <ele>1718.9</ele>
        <time>2026-05-06T12:12:17.000Z</time>
      </trkpt>
      <trkpt lat="41.791807" lon="22.970306">
        <ele>1718.9</ele>
        <time>2026-05-06T12:12:18.000Z</time>
      </trkpt>
      <trkpt lat="41.791803" lon="22.970304">
        <ele>1718.9</ele>
        <time>2026-05-06T12:12:19.000Z</time>
      </trkpt>
      <trkpt lat="41.7918" lon="22.970302">
        <ele>1718.9</ele>
        <time>2026-05-06T12:12:20.000Z</time>
      </trkpt>
      <trkpt lat="41.791797" lon="22.970299">
        <ele>1718.9</ele>
        <time>2026-05-06T12:12:21.000Z</time>
      </trkpt>
      <trkpt lat="41.791795" lon="22.970299">
        <ele>1718.9</ele>
        <time>2026-05-06T12:12:22.000Z</time>
      </trkpt>
      <trkpt lat="41.791793" lon="22.970297">
        <ele>1719.2</ele>
        <time>2026-05-06T12:12:23.000Z</time>
      </trkpt>
      <trkpt lat="41.791792" lon="22.970296">
        <ele>1719.2</ele>
        <time>2026-05-06T12:12:24.000Z</time>
      </trkpt>
      <trkpt lat="41.79179" lon="22.970295">
        <ele>1719.2</ele>
        <time>2026-05-06T12:12:25.000Z</time>
      </trkpt>
      <trkpt lat="41.791788" lon="22.970294">
        <ele>1719.2</ele>
        <time>2026-05-06T12:12:26.000Z</time>
      </trkpt>
      <trkpt lat="41.791787" lon="22.970291">
        <ele>1719.2</ele>
        <time>2026-05-06T12:12:27.000Z</time>
      </trkpt>
      <trkpt lat="41.791786" lon="22.970287">
        <ele>1720.1</ele>
        <time>2026-05-06T12:12:28.000Z</time>
      </trkpt>
      <trkpt lat="41.791785" lon="22.970284">
        <ele>1720.1</ele>
        <time>2026-05-06T12:12:29.000Z</time>
      </trkpt>
      <trkpt lat="41.791783" lon="22.970281">
        <ele>1720.1</ele>
        <time>2026-05-06T12:12:30.000Z</time>
      </trkpt>
      <trkpt lat="41.791783" lon="22.97028">
        <ele>1720.1</ele>
        <time>2026-05-06T12:12:31.000Z</time>
      </trkpt>
      <trkpt lat="41.79178" lon="22.97028">
        <ele>1720.1</ele>
        <time>2026-05-06T12:12:32.000Z</time>
      </trkpt>
      <trkpt lat="41.791778" lon="22.970281">
        <ele>1720.7</ele>
        <time>2026-05-06T12:12:33.000Z</time>
      </trkpt>
      <trkpt lat="41.791776" lon="22.970281">
        <ele>1720.7</ele>
        <time>2026-05-06T12:12:34.000Z</time>
      </trkpt>
      <trkpt lat="41.791775" lon="22.970282">
        <ele>1720.7</ele>
        <time>2026-05-06T12:12:35.000Z</time>
      </trkpt>
      <trkpt lat="41.791773" lon="22.970282">
        <ele>1720.7</ele>
        <time>2026-05-06T12:12:36.000Z</time>
      </trkpt>
      <trkpt lat="41.791772" lon="22.970282">
        <ele>1720.7</ele>
        <time>2026-05-06T12:12:37.000Z</time>
      </trkpt>
      <trkpt lat="41.791771" lon="22.970282">
        <ele>1721.9</ele>
        <time>2026-05-06T12:12:38.000Z</time>
      </trkpt>
      <trkpt lat="41.79177" lon="22.970283">
        <ele>1721.9</ele>
        <time>2026-05-06T12:12:39.000Z</time>
      </trkpt>
      <trkpt lat="41.791767" lon="22.970282">
        <ele>1721.9</ele>
        <time>2026-05-06T12:12:40.000Z</time>
      </trkpt>
      <trkpt lat="41.791766" lon="22.970282">
        <ele>1721.9</ele>
        <time>2026-05-06T12:12:41.000Z</time>
      </trkpt>
      <trkpt lat="41.791763" lon="22.970282">
        <ele>1721.9</ele>
        <time>2026-05-06T12:12:42.000Z</time>
      </trkpt>
      <trkpt lat="41.791761" lon="22.970281">
        <ele>1722.8</ele>
        <time>2026-05-06T12:12:43.000Z</time>
      </trkpt>
      <trkpt lat="41.791759" lon="22.97028">
        <ele>1722.8</ele>
        <time>2026-05-06T12:12:44.000Z</time>
      </trkpt>
      <trkpt lat="41.791759" lon="22.970277">
        <ele>1722.8</ele>
        <time>2026-05-06T12:12:45.000Z</time>
      </trkpt>
      <trkpt lat="41.79176" lon="22.970272">
        <ele>1722.8</ele>
        <time>2026-05-06T12:12:46.000Z</time>
      </trkpt>
      <trkpt lat="41.79176" lon="22.970267">
        <ele>1722.8</ele>
        <time>2026-05-06T12:12:47.000Z</time>
      </trkpt>
      <trkpt lat="41.791762" lon="22.970261">
        <ele>1723.2</ele>
        <time>2026-05-06T12:12:48.000Z</time>
      </trkpt>
      <trkpt lat="41.791764" lon="22.970254">
        <ele>1723.2</ele>
        <time>2026-05-06T12:12:49.000Z</time>
      </trkpt>
      <trkpt lat="41.791766" lon="22.970246">
        <ele>1723.2</ele>
        <time>2026-05-06T12:12:50.000Z</time>
      </trkpt>
      <trkpt lat="41.791768" lon="22.970241">
        <ele>1723.2</ele>
        <time>2026-05-06T12:12:51.000Z</time>
      </trkpt>
      <trkpt lat="41.791768" lon="22.970234">
        <ele>1723.2</ele>
        <time>2026-05-06T12:12:52.000Z</time>
      </trkpt>
      <trkpt lat="41.791767" lon="22.970229">
        <ele>1724</ele>
        <time>2026-05-06T12:12:53.000Z</time>
      </trkpt>
      <trkpt lat="41.791766" lon="22.970224">
        <ele>1724</ele>
        <time>2026-05-06T12:12:54.000Z</time>
      </trkpt>
      <trkpt lat="41.791765" lon="22.970221">
        <ele>1724</ele>
        <time>2026-05-06T12:12:55.000Z</time>
      </trkpt>
      <trkpt lat="41.791764" lon="22.970219">
        <ele>1724</ele>
        <time>2026-05-06T12:12:56.000Z</time>
      </trkpt>
      <trkpt lat="41.791764" lon="22.970218">
        <ele>1724</ele>
        <time>2026-05-06T12:12:57.000Z</time>
      </trkpt>
      <trkpt lat="41.791764" lon="22.970218">
        <ele>1724.7</ele>
        <time>2026-05-06T12:12:58.000Z</time>
      </trkpt>
      <trkpt lat="41.791764" lon="22.970219">
        <ele>1724.7</ele>
        <time>2026-05-06T12:12:59.000Z</time>
      </trkpt>
      <trkpt lat="41.791764" lon="22.97022">
        <ele>1724.7</ele>
        <time>2026-05-06T12:13:00.000Z</time>
      </trkpt>
      <trkpt lat="41.791763" lon="22.970221">
        <ele>1724.7</ele>
        <time>2026-05-06T12:13:01.000Z</time>
      </trkpt>
      <trkpt lat="41.791763" lon="22.970221">
        <ele>1724.7</ele>
        <time>2026-05-06T12:13:02.000Z</time>
      </trkpt>
      <trkpt lat="41.791762" lon="22.970222">
        <ele>1725.1</ele>
        <time>2026-05-06T12:13:03.000Z</time>
      </trkpt>
      <trkpt lat="41.79176" lon="22.970224">
        <ele>1725.1</ele>
        <time>2026-05-06T12:13:04.000Z</time>
      </trkpt>
      <trkpt lat="41.791757" lon="22.970228">
        <ele>1725.1</ele>
        <time>2026-05-06T12:13:05.000Z</time>
      </trkpt>
      <trkpt lat="41.791754" lon="22.970233">
        <ele>1725.1</ele>
        <time>2026-05-06T12:13:06.000Z</time>
      </trkpt>
      <trkpt lat="41.791748" lon="22.970238">
        <ele>1725.1</ele>
        <time>2026-05-06T12:13:07.000Z</time>
      </trkpt>
      <trkpt lat="41.791744" lon="22.970243">
        <ele>1725.7</ele>
        <time>2026-05-06T12:13:08.000Z</time>
      </trkpt>
      <trkpt lat="41.791739" lon="22.970247">
        <ele>1725.7</ele>
        <time>2026-05-06T12:13:09.000Z</time>
      </trkpt>
      <trkpt lat="41.791735" lon="22.970252">
        <ele>1725.7</ele>
        <time>2026-05-06T12:13:10.000Z</time>
      </trkpt>
      <trkpt lat="41.791732" lon="22.970256">
        <ele>1725.7</ele>
        <time>2026-05-06T12:13:11.000Z</time>
      </trkpt>
      <trkpt lat="41.79173" lon="22.97026">
        <ele>1725.7</ele>
        <time>2026-05-06T12:13:12.000Z</time>
      </trkpt>
      <trkpt lat="41.791728" lon="22.970262">
        <ele>1726.1</ele>
        <time>2026-05-06T12:13:13.000Z</time>
      </trkpt>
      <trkpt lat="41.791727" lon="22.970265">
        <ele>1726.1</ele>
        <time>2026-05-06T12:13:14.000Z</time>
      </trkpt>
      <trkpt lat="41.791727" lon="22.970266">
        <ele>1726.1</ele>
        <time>2026-05-06T12:13:15.000Z</time>
      </trkpt>
      <trkpt lat="41.791726" lon="22.970268">
        <ele>1726.1</ele>
        <time>2026-05-06T12:13:16.000Z</time>
      </trkpt>
      <trkpt lat="41.791726" lon="22.970272">
        <ele>1726.1</ele>
        <time>2026-05-06T12:13:17.000Z</time>
      </trkpt>
      <trkpt lat="41.791725" lon="22.970277">
        <ele>1726.2</ele>
        <time>2026-05-06T12:13:18.000Z</time>
      </trkpt>
      <trkpt lat="41.791724" lon="22.970283">
        <ele>1726.2</ele>
        <time>2026-05-06T12:13:19.000Z</time>
      </trkpt>
      <trkpt lat="41.791722" lon="22.970292">
        <ele>1726.2</ele>
        <time>2026-05-06T12:13:20.000Z</time>
      </trkpt>
      <trkpt lat="41.79172" lon="22.9703">
        <ele>1726.2</ele>
        <time>2026-05-06T12:13:21.000Z</time>
      </trkpt>
      <trkpt lat="41.791718" lon="22.970307">
        <ele>1726.2</ele>
        <time>2026-05-06T12:13:22.000Z</time>
      </trkpt>
      <trkpt lat="41.791716" lon="22.970315">
        <ele>1726.6</ele>
        <time>2026-05-06T12:13:23.000Z</time>
      </trkpt>
      <trkpt lat="41.791713" lon="22.970322">
        <ele>1726.6</ele>
        <time>2026-05-06T12:13:24.000Z</time>
      </trkpt>
      <trkpt lat="41.791711" lon="22.970331">
        <ele>1726.6</ele>
        <time>2026-05-06T12:13:25.000Z</time>
      </trkpt>
      <trkpt lat="41.791709" lon="22.970339">
        <ele>1726.6</ele>
        <time>2026-05-06T12:13:26.000Z</time>
      </trkpt>
      <trkpt lat="41.791707" lon="22.970348">
        <ele>1726.6</ele>
        <time>2026-05-06T12:13:27.000Z</time>
      </trkpt>
      <trkpt lat="41.791704" lon="22.970357">
        <ele>1727.1</ele>
        <time>2026-05-06T12:13:28.000Z</time>
      </trkpt>
      <trkpt lat="41.791703" lon="22.970368">
        <ele>1727.1</ele>
        <time>2026-05-06T12:13:29.000Z</time>
      </trkpt>
      <trkpt lat="41.791702" lon="22.970378">
        <ele>1727.1</ele>
        <time>2026-05-06T12:13:30.000Z</time>
      </trkpt>
      <trkpt lat="41.791699" lon="22.97039">
        <ele>1727.1</ele>
        <time>2026-05-06T12:13:31.000Z</time>
      </trkpt>
      <trkpt lat="41.791696" lon="22.970401">
        <ele>1727.1</ele>
        <time>2026-05-06T12:13:32.000Z</time>
      </trkpt>
      <trkpt lat="41.791691" lon="22.970412">
        <ele>1727.3</ele>
        <time>2026-05-06T12:13:33.000Z</time>
      </trkpt>
      <trkpt lat="41.791685" lon="22.970421">
        <ele>1727.3</ele>
        <time>2026-05-06T12:13:34.000Z</time>
      </trkpt>
      <trkpt lat="41.791679" lon="22.970427">
        <ele>1727.3</ele>
        <time>2026-05-06T12:13:35.000Z</time>
      </trkpt>
      <trkpt lat="41.791676" lon="22.97043">
        <ele>1727.3</ele>
        <time>2026-05-06T12:13:36.000Z</time>
      </trkpt>
      <trkpt lat="41.791673" lon="22.970432">
        <ele>1727.3</ele>
        <time>2026-05-06T12:13:37.000Z</time>
      </trkpt>
      <trkpt lat="41.791671" lon="22.970433">
        <ele>1727.6</ele>
        <time>2026-05-06T12:13:38.000Z</time>
      </trkpt>
      <trkpt lat="41.79167" lon="22.970434">
        <ele>1727.6</ele>
        <time>2026-05-06T12:13:39.000Z</time>
      </trkpt>
      <trkpt lat="41.791669" lon="22.970436">
        <ele>1727.6</ele>
        <time>2026-05-06T12:13:40.000Z</time>
      </trkpt>
      <trkpt lat="41.791667" lon="22.97044">
        <ele>1727.6</ele>
        <time>2026-05-06T12:13:41.000Z</time>
      </trkpt>
      <trkpt lat="41.791663" lon="22.970447">
        <ele>1727.6</ele>
        <time>2026-05-06T12:13:42.000Z</time>
      </trkpt>
      <trkpt lat="41.791659" lon="22.970454">
        <ele>1727.7</ele>
        <time>2026-05-06T12:13:43.000Z</time>
      </trkpt>
      <trkpt lat="41.791655" lon="22.970462">
        <ele>1727.7</ele>
        <time>2026-05-06T12:13:44.000Z</time>
      </trkpt>
      <trkpt lat="41.79165" lon="22.97047">
        <ele>1727.7</ele>
        <time>2026-05-06T12:13:45.000Z</time>
      </trkpt>
      <trkpt lat="41.791645" lon="22.970474">
        <ele>1727.7</ele>
        <time>2026-05-06T12:13:46.000Z</time>
      </trkpt>
      <trkpt lat="41.791642" lon="22.970476">
        <ele>1727.7</ele>
        <time>2026-05-06T12:13:47.000Z</time>
      </trkpt>
      <trkpt lat="41.791638" lon="22.970476">
        <ele>1727.8</ele>
        <time>2026-05-06T12:13:48.000Z</time>
      </trkpt>
      <trkpt lat="41.791635" lon="22.970477">
        <ele>1727.8</ele>
        <time>2026-05-06T12:13:49.000Z</time>
      </trkpt>
      <trkpt lat="41.791631" lon="22.970478">
        <ele>1727.8</ele>
        <time>2026-05-06T12:13:50.000Z</time>
      </trkpt>
      <trkpt lat="41.791628" lon="22.97048">
        <ele>1727.8</ele>
        <time>2026-05-06T12:13:51.000Z</time>
      </trkpt>
      <trkpt lat="41.791624" lon="22.970482">
        <ele>1727.8</ele>
        <time>2026-05-06T12:13:52.000Z</time>
      </trkpt>
      <trkpt lat="41.79162" lon="22.970482">
        <ele>1728.1</ele>
        <time>2026-05-06T12:13:53.000Z</time>
      </trkpt>
      <trkpt lat="41.791616" lon="22.970482">
        <ele>1728.1</ele>
        <time>2026-05-06T12:13:54.000Z</time>
      </trkpt>
      <trkpt lat="41.791612" lon="22.970481">
        <ele>1728.1</ele>
        <time>2026-05-06T12:13:55.000Z</time>
      </trkpt>
      <trkpt lat="41.791608" lon="22.970479">
        <ele>1728.1</ele>
        <time>2026-05-06T12:13:56.000Z</time>
      </trkpt>
      <trkpt lat="41.791605" lon="22.970476">
        <ele>1728.1</ele>
        <time>2026-05-06T12:13:57.000Z</time>
      </trkpt>
      <trkpt lat="41.791602" lon="22.970474">
        <ele>1728.8</ele>
        <time>2026-05-06T12:13:58.000Z</time>
      </trkpt>
      <trkpt lat="41.791599" lon="22.970473">
        <ele>1728.8</ele>
        <time>2026-05-06T12:13:59.000Z</time>
      </trkpt>
      <trkpt lat="41.791596" lon="22.970471">
        <ele>1728.8</ele>
        <time>2026-05-06T12:14:00.000Z</time>
      </trkpt>
      <trkpt lat="41.791593" lon="22.970468">
        <ele>1728.8</ele>
        <time>2026-05-06T12:14:01.000Z</time>
      </trkpt>
      <trkpt lat="41.791591" lon="22.970466">
        <ele>1728.8</ele>
        <time>2026-05-06T12:14:02.000Z</time>
      </trkpt>
      <trkpt lat="41.791589" lon="22.970464">
        <ele>1729.4</ele>
        <time>2026-05-06T12:14:03.000Z</time>
      </trkpt>
      <trkpt lat="41.791586" lon="22.970463">
        <ele>1729.4</ele>
        <time>2026-05-06T12:14:04.000Z</time>
      </trkpt>
      <trkpt lat="41.791583" lon="22.970464">
        <ele>1729.4</ele>
        <time>2026-05-06T12:14:05.000Z</time>
      </trkpt>
      <trkpt lat="41.79158" lon="22.970463">
        <ele>1729.4</ele>
        <time>2026-05-06T12:14:06.000Z</time>
      </trkpt>
      <trkpt lat="41.791578" lon="22.970463">
        <ele>1729.4</ele>
        <time>2026-05-06T12:14:07.000Z</time>
      </trkpt>
      <trkpt lat="41.791575" lon="22.970462">
        <ele>1730.6</ele>
        <time>2026-05-06T12:14:08.000Z</time>
      </trkpt>
      <trkpt lat="41.791572" lon="22.970459">
        <ele>1730.6</ele>
        <time>2026-05-06T12:14:09.000Z</time>
      </trkpt>
      <trkpt lat="41.79157" lon="22.970455">
        <ele>1730.6</ele>
        <time>2026-05-06T12:14:10.000Z</time>
      </trkpt>
      <trkpt lat="41.791569" lon="22.970452">
        <ele>1730.6</ele>
        <time>2026-05-06T12:14:11.000Z</time>
      </trkpt>
      <trkpt lat="41.791567" lon="22.970449">
        <ele>1730.6</ele>
        <time>2026-05-06T12:14:12.000Z</time>
      </trkpt>
      <trkpt lat="41.791565" lon="22.970447">
        <ele>1731.6</ele>
        <time>2026-05-06T12:14:13.000Z</time>
      </trkpt>
      <trkpt lat="41.791564" lon="22.970445">
        <ele>1731.6</ele>
        <time>2026-05-06T12:14:14.000Z</time>
      </trkpt>
      <trkpt lat="41.791563" lon="22.970446">
        <ele>1731.6</ele>
        <time>2026-05-06T12:14:15.000Z</time>
      </trkpt>
      <trkpt lat="41.791562" lon="22.970445">
        <ele>1731.6</ele>
        <time>2026-05-06T12:14:16.000Z</time>
      </trkpt>
      <trkpt lat="41.791559" lon="22.970444">
        <ele>1731.6</ele>
        <time>2026-05-06T12:14:17.000Z</time>
      </trkpt>
      <trkpt lat="41.791557" lon="22.970442">
        <ele>1732.1</ele>
        <time>2026-05-06T12:14:18.000Z</time>
      </trkpt>
      <trkpt lat="41.791556" lon="22.970439">
        <ele>1732.1</ele>
        <time>2026-05-06T12:14:19.000Z</time>
      </trkpt>
      <trkpt lat="41.791555" lon="22.970434">
        <ele>1732.1</ele>
        <time>2026-05-06T12:14:20.000Z</time>
      </trkpt>
      <trkpt lat="41.791555" lon="22.97043">
        <ele>1732.1</ele>
        <time>2026-05-06T12:14:21.000Z</time>
      </trkpt>
      <trkpt lat="41.791556" lon="22.970425">
        <ele>1732.1</ele>
        <time>2026-05-06T12:14:22.000Z</time>
      </trkpt>
      <trkpt lat="41.791556" lon="22.970422">
        <ele>1732.9</ele>
        <time>2026-05-06T12:14:23.000Z</time>
      </trkpt>
      <trkpt lat="41.791556" lon="22.97042">
        <ele>1732.9</ele>
        <time>2026-05-06T12:14:24.000Z</time>
      </trkpt>
      <trkpt lat="41.791555" lon="22.970419">
        <ele>1732.9</ele>
        <time>2026-05-06T12:14:25.000Z</time>
      </trkpt>
      <trkpt lat="41.791554" lon="22.970418">
        <ele>1732.9</ele>
        <time>2026-05-06T12:14:26.000Z</time>
      </trkpt>
      <trkpt lat="41.791553" lon="22.970419">
        <ele>1732.9</ele>
        <time>2026-05-06T12:14:27.000Z</time>
      </trkpt>
      <trkpt lat="41.79155" lon="22.97042">
        <ele>1733.7</ele>
        <time>2026-05-06T12:14:28.000Z</time>
      </trkpt>
      <trkpt lat="41.791547" lon="22.970422">
        <ele>1733.7</ele>
        <time>2026-05-06T12:14:29.000Z</time>
      </trkpt>
      <trkpt lat="41.791542" lon="22.970423">
        <ele>1733.7</ele>
        <time>2026-05-06T12:14:30.000Z</time>
      </trkpt>
      <trkpt lat="41.791537" lon="22.970423">
        <ele>1733.7</ele>
        <time>2026-05-06T12:14:31.000Z</time>
      </trkpt>
      <trkpt lat="41.791534" lon="22.970421">
        <ele>1733.7</ele>
        <time>2026-05-06T12:14:32.000Z</time>
      </trkpt>
      <trkpt lat="41.791531" lon="22.970418">
        <ele>1734</ele>
        <time>2026-05-06T12:14:33.000Z</time>
      </trkpt>
      <trkpt lat="41.791529" lon="22.970413">
        <ele>1734</ele>
        <time>2026-05-06T12:14:34.000Z</time>
      </trkpt>
      <trkpt lat="41.791528" lon="22.970407">
        <ele>1734</ele>
        <time>2026-05-06T12:14:35.000Z</time>
      </trkpt>
      <trkpt lat="41.791528" lon="22.970401">
        <ele>1734</ele>
        <time>2026-05-06T12:14:36.000Z</time>
      </trkpt>
      <trkpt lat="41.791527" lon="22.970397">
        <ele>1734</ele>
        <time>2026-05-06T12:14:37.000Z</time>
      </trkpt>
      <trkpt lat="41.791525" lon="22.970393">
        <ele>1734.4</ele>
        <time>2026-05-06T12:14:38.000Z</time>
      </trkpt>
      <trkpt lat="41.791524" lon="22.970391">
        <ele>1734.4</ele>
        <time>2026-05-06T12:14:39.000Z</time>
      </trkpt>
      <trkpt lat="41.791521" lon="22.970389">
        <ele>1734.4</ele>
        <time>2026-05-06T12:14:40.000Z</time>
      </trkpt>
      <trkpt lat="41.791519" lon="22.970388">
        <ele>1734.4</ele>
        <time>2026-05-06T12:14:41.000Z</time>
      </trkpt>
      <trkpt lat="41.791518" lon="22.970388">
        <ele>1734.4</ele>
        <time>2026-05-06T12:14:42.000Z</time>
      </trkpt>
      <trkpt lat="41.791518" lon="22.970388">
        <ele>1734.9</ele>
        <time>2026-05-06T12:14:43.000Z</time>
      </trkpt>
      <trkpt lat="41.791517" lon="22.970388">
        <ele>1734.9</ele>
        <time>2026-05-06T12:14:44.000Z</time>
      </trkpt>
      <trkpt lat="41.791515" lon="22.97039">
        <ele>1734.9</ele>
        <time>2026-05-06T12:14:45.000Z</time>
      </trkpt>
      <trkpt lat="41.79151" lon="22.970391">
        <ele>1734.9</ele>
        <time>2026-05-06T12:14:46.000Z</time>
      </trkpt>
      <trkpt lat="41.791505" lon="22.970392">
        <ele>1734.9</ele>
        <time>2026-05-06T12:14:47.000Z</time>
      </trkpt>
      <trkpt lat="41.791499" lon="22.970392">
        <ele>1735.1</ele>
        <time>2026-05-06T12:14:48.000Z</time>
      </trkpt>
      <trkpt lat="41.791493" lon="22.970389">
        <ele>1735.1</ele>
        <time>2026-05-06T12:14:49.000Z</time>
      </trkpt>
      <trkpt lat="41.79149" lon="22.970386">
        <ele>1735.1</ele>
        <time>2026-05-06T12:14:50.000Z</time>
      </trkpt>
      <trkpt lat="41.791488" lon="22.970383">
        <ele>1735.1</ele>
        <time>2026-05-06T12:14:51.000Z</time>
      </trkpt>
      <trkpt lat="41.791487" lon="22.970381">
        <ele>1735.1</ele>
        <time>2026-05-06T12:14:52.000Z</time>
      </trkpt>
      <trkpt lat="41.791485" lon="22.97038">
        <ele>1735.8</ele>
        <time>2026-05-06T12:14:53.000Z</time>
      </trkpt>
      <trkpt lat="41.791483" lon="22.970381">
        <ele>1735.8</ele>
        <time>2026-05-06T12:14:54.000Z</time>
      </trkpt>
      <trkpt lat="41.791477" lon="22.970381">
        <ele>1735.8</ele>
        <time>2026-05-06T12:14:55.000Z</time>
      </trkpt>
      <trkpt lat="41.791472" lon="22.970378">
        <ele>1735.8</ele>
        <time>2026-05-06T12:14:56.000Z</time>
      </trkpt>
      <trkpt lat="41.791467" lon="22.970375">
        <ele>1735.8</ele>
        <time>2026-05-06T12:14:57.000Z</time>
      </trkpt>
      <trkpt lat="41.791464" lon="22.970371">
        <ele>1736.4</ele>
        <time>2026-05-06T12:14:58.000Z</time>
      </trkpt>
      <trkpt lat="41.791463" lon="22.970367">
        <ele>1736.4</ele>
        <time>2026-05-06T12:14:59.000Z</time>
      </trkpt>
      <trkpt lat="41.791463" lon="22.970364">
        <ele>1736.4</ele>
        <time>2026-05-06T12:15:00.000Z</time>
      </trkpt>
      <trkpt lat="41.791463" lon="22.970363">
        <ele>1736.4</ele>
        <time>2026-05-06T12:15:01.000Z</time>
      </trkpt>
      <trkpt lat="41.791463" lon="22.970363">
        <ele>1736.4</ele>
        <time>2026-05-06T12:15:02.000Z</time>
      </trkpt>
      <trkpt lat="41.791464" lon="22.970364">
        <ele>1736.9</ele>
        <time>2026-05-06T12:15:03.000Z</time>
      </trkpt>
      <trkpt lat="41.791464" lon="22.970364">
        <ele>1736.9</ele>
        <time>2026-05-06T12:15:04.000Z</time>
      </trkpt>
      <trkpt lat="41.791464" lon="22.970364">
        <ele>1736.9</ele>
        <time>2026-05-06T12:15:05.000Z</time>
      </trkpt>
      <trkpt lat="41.791465" lon="22.970364">
        <ele>1736.9</ele>
        <time>2026-05-06T12:15:06.000Z</time>
      </trkpt>
      <trkpt lat="41.791465" lon="22.970364">
        <ele>1736.9</ele>
        <time>2026-05-06T12:15:07.000Z</time>
      </trkpt>
      <trkpt lat="41.791465" lon="22.970364">
        <ele>1737.9</ele>
        <time>2026-05-06T12:15:08.000Z</time>
      </trkpt>
      <trkpt lat="41.791465" lon="22.970364">
        <ele>1737.9</ele>
        <time>2026-05-06T12:15:09.000Z</time>
      </trkpt>
      <trkpt lat="41.791465" lon="22.970364">
        <ele>1737.9</ele>
        <time>2026-05-06T12:15:10.000Z</time>
      </trkpt>
      <trkpt lat="41.791465" lon="22.970364">
        <ele>1737.9</ele>
        <time>2026-05-06T12:15:11.000Z</time>
      </trkpt>
      <trkpt lat="41.791465" lon="22.970364">
        <ele>1737.9</ele>
        <time>2026-05-06T12:15:12.000Z</time>
      </trkpt>
      <trkpt lat="41.791465" lon="22.970364">
        <ele>1738.8</ele>
        <time>2026-05-06T12:15:13.000Z</time>
      </trkpt>
      <trkpt lat="41.791465" lon="22.970364">
        <ele>1738.8</ele>
        <time>2026-05-06T12:15:14.000Z</time>
      </trkpt>
      <trkpt lat="41.791465" lon="22.970364">
        <ele>1738.8</ele>
        <time>2026-05-06T12:15:15.000Z</time>
      </trkpt>
      <trkpt lat="41.791465" lon="22.970364">
        <ele>1738.8</ele>
        <time>2026-05-06T12:15:16.000Z</time>
      </trkpt>
      <trkpt lat="41.791465" lon="22.970364">
        <ele>1738.8</ele>
        <time>2026-05-06T12:15:17.000Z</time>
      </trkpt>
      <trkpt lat="41.791465" lon="22.970364">
        <ele>1738.9</ele>
        <time>2026-05-06T12:15:18.000Z</time>
      </trkpt>
      <trkpt lat="41.791465" lon="22.970364">
        <ele>1738.9</ele>
        <time>2026-05-06T12:15:19.000Z</time>
      </trkpt>
      <trkpt lat="41.791464" lon="22.970364">
        <ele>1738.9</ele>
        <time>2026-05-06T12:15:20.000Z</time>
      </trkpt>
      <trkpt lat="41.791464" lon="22.970364">
        <ele>1738.9</ele>
        <time>2026-05-06T12:15:21.000Z</time>
      </trkpt>
      <trkpt lat="41.791464" lon="22.970364">
        <ele>1738.9</ele>
        <time>2026-05-06T12:15:22.000Z</time>
      </trkpt>
      <trkpt lat="41.791464" lon="22.970363">
        <ele>1738.8</ele>
        <time>2026-05-06T12:15:23.000Z</time>
      </trkpt>
      <trkpt lat="41.791464" lon="22.970363">
        <ele>1738.8</ele>
        <time>2026-05-06T12:15:24.000Z</time>
      </trkpt>
      <trkpt lat="41.791464" lon="22.970363">
        <ele>1738.8</ele>
        <time>2026-05-06T12:15:25.000Z</time>
      </trkpt>
      <trkpt lat="41.791464" lon="22.970363">
        <ele>1738.8</ele>
        <time>2026-05-06T12:15:26.000Z</time>
      </trkpt>
      <trkpt lat="41.791464" lon="22.970363">
        <ele>1738.8</ele>
        <time>2026-05-06T12:15:27.000Z</time>
      </trkpt>
      <trkpt lat="41.791464" lon="22.970363">
        <ele>1738.6</ele>
        <time>2026-05-06T12:15:28.000Z</time>
      </trkpt>
      <trkpt lat="41.791464" lon="22.970363">
        <ele>1738.6</ele>
        <time>2026-05-06T12:15:29.000Z</time>
      </trkpt>
      <trkpt lat="41.791464" lon="22.970364">
        <ele>1738.6</ele>
        <time>2026-05-06T12:15:30.000Z</time>
      </trkpt>
      <trkpt lat="41.791464" lon="22.970366">
        <ele>1738.6</ele>
        <time>2026-05-06T12:15:31.000Z</time>
      </trkpt>
      <trkpt lat="41.791462" lon="22.970367">
        <ele>1738.6</ele>
        <time>2026-05-06T12:15:32.000Z</time>
      </trkpt>
      <trkpt lat="41.791462" lon="22.970369">
        <ele>1738.6</ele>
        <time>2026-05-06T12:15:33.000Z</time>
      </trkpt>
      <trkpt lat="41.791461" lon="22.97037">
        <ele>1738.6</ele>
        <time>2026-05-06T12:15:34.000Z</time>
      </trkpt>
      <trkpt lat="41.79146" lon="22.970371">
        <ele>1738.6</ele>
        <time>2026-05-06T12:15:35.000Z</time>
      </trkpt>
      <trkpt lat="41.79146" lon="22.970369">
        <ele>1738.6</ele>
        <time>2026-05-06T12:15:36.000Z</time>
      </trkpt>
      <trkpt lat="41.791461" lon="22.970368">
        <ele>1738.6</ele>
        <time>2026-05-06T12:15:37.000Z</time>
      </trkpt>
      <trkpt lat="41.791462" lon="22.970367">
        <ele>1738.6</ele>
        <time>2026-05-06T12:15:38.000Z</time>
      </trkpt>
      <trkpt lat="41.791462" lon="22.970366">
        <ele>1738.6</ele>
        <time>2026-05-06T12:15:39.000Z</time>
      </trkpt>
      <trkpt lat="41.791462" lon="22.970366">
        <ele>1738.6</ele>
        <time>2026-05-06T12:15:40.000Z</time>
      </trkpt>
      <trkpt lat="41.791462" lon="22.970366">
        <ele>1738.6</ele>
        <time>2026-05-06T12:15:41.000Z</time>
      </trkpt>
      <trkpt lat="41.791462" lon="22.970366">
        <ele>1738.6</ele>
        <time>2026-05-06T12:15:42.000Z</time>
      </trkpt>
      <trkpt lat="41.791462" lon="22.970366">
        <ele>1738.6</ele>
        <time>2026-05-06T12:15:43.000Z</time>
      </trkpt>
      <trkpt lat="41.791462" lon="22.970366">
        <ele>1738.6</ele>
        <time>2026-05-06T12:15:44.000Z</time>
      </trkpt>
      <trkpt lat="41.791462" lon="22.970366">
        <ele>1738.6</ele>
        <time>2026-05-06T12:15:45.000Z</time>
      </trkpt>
      <trkpt lat="41.791462" lon="22.970366">
        <ele>1738.6</ele>
        <time>2026-05-06T12:15:46.000Z</time>
      </trkpt>
      <trkpt lat="41.791462" lon="22.970366">
        <ele>1738.6</ele>
        <time>2026-05-06T12:15:47.000Z</time>
      </trkpt>
      <trkpt lat="41.791462" lon="22.970367">
        <ele>1738.6</ele>
        <time>2026-05-06T12:15:48.000Z</time>
      </trkpt>
      <trkpt lat="41.791462" lon="22.970367">
        <ele>1738.6</ele>
        <time>2026-05-06T12:15:49.000Z</time>
      </trkpt>
      <trkpt lat="41.791462" lon="22.970368">
        <ele>1738.6</ele>
        <time>2026-05-06T12:15:50.000Z</time>
      </trkpt>
      <trkpt lat="41.791461" lon="22.970368">
        <ele>1738.6</ele>
        <time>2026-05-06T12:15:51.000Z</time>
      </trkpt>
      <trkpt lat="41.79146" lon="22.970369">
        <ele>1738.6</ele>
        <time>2026-05-06T12:15:52.000Z</time>
      </trkpt>
      <trkpt lat="41.791459" lon="22.970369">
        <ele>1738.7</ele>
        <time>2026-05-06T12:15:53.000Z</time>
      </trkpt>
      <trkpt lat="41.791459" lon="22.97037">
        <ele>1738.7</ele>
        <time>2026-05-06T12:15:54.000Z</time>
      </trkpt>
      <trkpt lat="41.791458" lon="22.97037">
        <ele>1738.7</ele>
        <time>2026-05-06T12:15:55.000Z</time>
      </trkpt>
      <trkpt lat="41.791458" lon="22.97037">
        <ele>1738.7</ele>
        <time>2026-05-06T12:15:56.000Z</time>
      </trkpt>
      <trkpt lat="41.791458" lon="22.97037">
        <ele>1738.7</ele>
        <time>2026-05-06T12:15:57.000Z</time>
      </trkpt>
      <trkpt lat="41.791458" lon="22.97037">
        <ele>1738.8</ele>
        <time>2026-05-06T12:15:58.000Z</time>
      </trkpt>
      <trkpt lat="41.791458" lon="22.97037">
        <ele>1738.8</ele>
        <time>2026-05-06T12:15:59.000Z</time>
      </trkpt>
      <trkpt lat="41.791458" lon="22.97037">
        <ele>1738.8</ele>
        <time>2026-05-06T12:16:00.000Z</time>
      </trkpt>
      <trkpt lat="41.791459" lon="22.97037">
        <ele>1738.8</ele>
        <time>2026-05-06T12:16:01.000Z</time>
      </trkpt>
      <trkpt lat="41.791459" lon="22.97037">
        <ele>1738.8</ele>
        <time>2026-05-06T12:16:02.000Z</time>
      </trkpt>
      <trkpt lat="41.79146" lon="22.97037">
        <ele>1738.8</ele>
        <time>2026-05-06T12:16:03.000Z</time>
      </trkpt>
      <trkpt lat="41.79146" lon="22.97037">
        <ele>1738.8</ele>
        <time>2026-05-06T12:16:04.000Z</time>
      </trkpt>
      <trkpt lat="41.79146" lon="22.97037">
        <ele>1738.8</ele>
        <time>2026-05-06T12:16:05.000Z</time>
      </trkpt>
      <trkpt lat="41.79146" lon="22.97037">
        <ele>1738.8</ele>
        <time>2026-05-06T12:16:06.000Z</time>
      </trkpt>
      <trkpt lat="41.79146" lon="22.97037">
        <ele>1738.8</ele>
        <time>2026-05-06T12:16:07.000Z</time>
      </trkpt>
      <trkpt lat="41.79146" lon="22.97037">
        <ele>1738.7</ele>
        <time>2026-05-06T12:16:08.000Z</time>
      </trkpt>
      <trkpt lat="41.79146" lon="22.97037">
        <ele>1738.7</ele>
        <time>2026-05-06T12:16:09.000Z</time>
      </trkpt>
      <trkpt lat="41.791459" lon="22.970368">
        <ele>1738.7</ele>
        <time>2026-05-06T12:16:10.000Z</time>
      </trkpt>
      <trkpt lat="41.791458" lon="22.970366">
        <ele>1738.7</ele>
        <time>2026-05-06T12:16:11.000Z</time>
      </trkpt>
      <trkpt lat="41.791456" lon="22.970363">
        <ele>1738.7</ele>
        <time>2026-05-06T12:16:12.000Z</time>
      </trkpt>
      <trkpt lat="41.791452" lon="22.970359">
        <ele>1738.6</ele>
        <time>2026-05-06T12:16:13.000Z</time>
      </trkpt>
      <trkpt lat="41.791449" lon="22.970354">
        <ele>1738.6</ele>
        <time>2026-05-06T12:16:14.000Z</time>
      </trkpt>
      <trkpt lat="41.791445" lon="22.97035">
        <ele>1738.6</ele>
        <time>2026-05-06T12:16:15.000Z</time>
      </trkpt>
      <trkpt lat="41.791441" lon="22.970346">
        <ele>1738.6</ele>
        <time>2026-05-06T12:16:16.000Z</time>
      </trkpt>
      <trkpt lat="41.791437" lon="22.970342">
        <ele>1738.6</ele>
        <time>2026-05-06T12:16:17.000Z</time>
      </trkpt>
      <trkpt lat="41.791433" lon="22.970338">
        <ele>1738.7</ele>
        <time>2026-05-06T12:16:18.000Z</time>
      </trkpt>
      <trkpt lat="41.791429" lon="22.970333">
        <ele>1738.7</ele>
        <time>2026-05-06T12:16:19.000Z</time>
      </trkpt>
      <trkpt lat="41.791425" lon="22.970329">
        <ele>1738.7</ele>
        <time>2026-05-06T12:16:20.000Z</time>
      </trkpt>
      <trkpt lat="41.791422" lon="22.970323">
        <ele>1738.7</ele>
        <time>2026-05-06T12:16:21.000Z</time>
      </trkpt>
      <trkpt lat="41.791419" lon="22.970316">
        <ele>1738.7</ele>
        <time>2026-05-06T12:16:22.000Z</time>
      </trkpt>
      <trkpt lat="41.791417" lon="22.970308">
        <ele>1739.3</ele>
        <time>2026-05-06T12:16:23.000Z</time>
      </trkpt>
      <trkpt lat="41.791415" lon="22.9703">
        <ele>1739.3</ele>
        <time>2026-05-06T12:16:24.000Z</time>
      </trkpt>
      <trkpt lat="41.791415" lon="22.970292">
        <ele>1739.3</ele>
        <time>2026-05-06T12:16:25.000Z</time>
      </trkpt>
      <trkpt lat="41.791415" lon="22.970285">
        <ele>1739.3</ele>
        <time>2026-05-06T12:16:26.000Z</time>
      </trkpt>
      <trkpt lat="41.791413" lon="22.970279">
        <ele>1739.3</ele>
        <time>2026-05-06T12:16:27.000Z</time>
      </trkpt>
      <trkpt lat="41.791412" lon="22.970274">
        <ele>1740.5</ele>
        <time>2026-05-06T12:16:28.000Z</time>
      </trkpt>
      <trkpt lat="41.791409" lon="22.970269">
        <ele>1740.5</ele>
        <time>2026-05-06T12:16:29.000Z</time>
      </trkpt>
      <trkpt lat="41.791406" lon="22.970264">
        <ele>1740.5</ele>
        <time>2026-05-06T12:16:30.000Z</time>
      </trkpt>
      <trkpt lat="41.791403" lon="22.970259">
        <ele>1740.5</ele>
        <time>2026-05-06T12:16:31.000Z</time>
      </trkpt>
      <trkpt lat="41.7914" lon="22.970254">
        <ele>1740.5</ele>
        <time>2026-05-06T12:16:32.000Z</time>
      </trkpt>
      <trkpt lat="41.791398" lon="22.970249">
        <ele>1741.1</ele>
        <time>2026-05-06T12:16:33.000Z</time>
      </trkpt>
      <trkpt lat="41.791395" lon="22.970245">
        <ele>1741.1</ele>
        <time>2026-05-06T12:16:34.000Z</time>
      </trkpt>
      <trkpt lat="41.791393" lon="22.970241">
        <ele>1741.1</ele>
        <time>2026-05-06T12:16:35.000Z</time>
      </trkpt>
      <trkpt lat="41.79139" lon="22.970236">
        <ele>1741.1</ele>
        <time>2026-05-06T12:16:36.000Z</time>
      </trkpt>
      <trkpt lat="41.791388" lon="22.970231">
        <ele>1741.1</ele>
        <time>2026-05-06T12:16:37.000Z</time>
      </trkpt>
      <trkpt lat="41.791386" lon="22.970225">
        <ele>1742.3</ele>
        <time>2026-05-06T12:16:38.000Z</time>
      </trkpt>
      <trkpt lat="41.791385" lon="22.970217">
        <ele>1742.3</ele>
        <time>2026-05-06T12:16:39.000Z</time>
      </trkpt>
      <trkpt lat="41.791383" lon="22.97021">
        <ele>1742.3</ele>
        <time>2026-05-06T12:16:40.000Z</time>
      </trkpt>
      <trkpt lat="41.791381" lon="22.970205">
        <ele>1742.3</ele>
        <time>2026-05-06T12:16:41.000Z</time>
      </trkpt>
      <trkpt lat="41.791379" lon="22.970199">
        <ele>1742.3</ele>
        <time>2026-05-06T12:16:42.000Z</time>
      </trkpt>
      <trkpt lat="41.791378" lon="22.970195">
        <ele>1743.4</ele>
        <time>2026-05-06T12:16:43.000Z</time>
      </trkpt>
      <trkpt lat="41.791376" lon="22.97019">
        <ele>1743.4</ele>
        <time>2026-05-06T12:16:44.000Z</time>
      </trkpt>
      <trkpt lat="41.791375" lon="22.970185">
        <ele>1743.4</ele>
        <time>2026-05-06T12:16:45.000Z</time>
      </trkpt>
      <trkpt lat="41.791374" lon="22.970177">
        <ele>1743.4</ele>
        <time>2026-05-06T12:16:46.000Z</time>
      </trkpt>
      <trkpt lat="41.791372" lon="22.970171">
        <ele>1743.4</ele>
        <time>2026-05-06T12:16:47.000Z</time>
      </trkpt>
      <trkpt lat="41.79137" lon="22.970163">
        <ele>1743.9</ele>
        <time>2026-05-06T12:16:48.000Z</time>
      </trkpt>
      <trkpt lat="41.791367" lon="22.970156">
        <ele>1743.9</ele>
        <time>2026-05-06T12:16:49.000Z</time>
      </trkpt>
      <trkpt lat="41.791364" lon="22.970149">
        <ele>1743.9</ele>
        <time>2026-05-06T12:16:50.000Z</time>
      </trkpt>
      <trkpt lat="41.791359" lon="22.970142">
        <ele>1743.9</ele>
        <time>2026-05-06T12:16:51.000Z</time>
      </trkpt>
      <trkpt lat="41.791356" lon="22.970137">
        <ele>1743.9</ele>
        <time>2026-05-06T12:16:52.000Z</time>
      </trkpt>
      <trkpt lat="41.791354" lon="22.970133">
        <ele>1744.8</ele>
        <time>2026-05-06T12:16:53.000Z</time>
      </trkpt>
      <trkpt lat="41.791352" lon="22.97013">
        <ele>1744.8</ele>
        <time>2026-05-06T12:16:54.000Z</time>
      </trkpt>
      <trkpt lat="41.791351" lon="22.970128">
        <ele>1744.8</ele>
        <time>2026-05-06T12:16:55.000Z</time>
      </trkpt>
      <trkpt lat="41.791352" lon="22.970129">
        <ele>1744.8</ele>
        <time>2026-05-06T12:16:56.000Z</time>
      </trkpt>
      <trkpt lat="41.791351" lon="22.970129">
        <ele>1744.8</ele>
        <time>2026-05-06T12:16:57.000Z</time>
      </trkpt>
      <trkpt lat="41.791349" lon="22.97013">
        <ele>1745.8</ele>
        <time>2026-05-06T12:16:58.000Z</time>
      </trkpt>
      <trkpt lat="41.791346" lon="22.97013">
        <ele>1745.8</ele>
        <time>2026-05-06T12:16:59.000Z</time>
      </trkpt>
      <trkpt lat="41.791343" lon="22.97013">
        <ele>1745.8</ele>
        <time>2026-05-06T12:17:00.000Z</time>
      </trkpt>
      <trkpt lat="41.79134" lon="22.97013">
        <ele>1745.8</ele>
        <time>2026-05-06T12:17:01.000Z</time>
      </trkpt>
      <trkpt lat="41.791338" lon="22.97013">
        <ele>1745.8</ele>
        <time>2026-05-06T12:17:02.000Z</time>
      </trkpt>
      <trkpt lat="41.791337" lon="22.97013">
        <ele>1746.3</ele>
        <time>2026-05-06T12:17:03.000Z</time>
      </trkpt>
      <trkpt lat="41.791336" lon="22.97013">
        <ele>1746.3</ele>
        <time>2026-05-06T12:17:04.000Z</time>
      </trkpt>
      <trkpt lat="41.791333" lon="22.970131">
        <ele>1746.3</ele>
        <time>2026-05-06T12:17:05.000Z</time>
      </trkpt>
      <trkpt lat="41.79133" lon="22.970131">
        <ele>1746.3</ele>
        <time>2026-05-06T12:17:06.000Z</time>
      </trkpt>
      <trkpt lat="41.791326" lon="22.970132">
        <ele>1746.3</ele>
        <time>2026-05-06T12:17:07.000Z</time>
      </trkpt>
      <trkpt lat="41.791322" lon="22.970134">
        <ele>1747</ele>
        <time>2026-05-06T12:17:08.000Z</time>
      </trkpt>
      <trkpt lat="41.791317" lon="22.970136">
        <ele>1747</ele>
        <time>2026-05-06T12:17:09.000Z</time>
      </trkpt>
      <trkpt lat="41.791313" lon="22.970139">
        <ele>1747</ele>
        <time>2026-05-06T12:17:10.000Z</time>
      </trkpt>
      <trkpt lat="41.791309" lon="22.970144">
        <ele>1747</ele>
        <time>2026-05-06T12:17:11.000Z</time>
      </trkpt>
      <trkpt lat="41.791306" lon="22.97015">
        <ele>1747</ele>
        <time>2026-05-06T12:17:12.000Z</time>
      </trkpt>
      <trkpt lat="41.791302" lon="22.970158">
        <ele>1747.5</ele>
        <time>2026-05-06T12:17:13.000Z</time>
      </trkpt>
      <trkpt lat="41.7913" lon="22.970167">
        <ele>1747.5</ele>
        <time>2026-05-06T12:17:14.000Z</time>
      </trkpt>
      <trkpt lat="41.791296" lon="22.970176">
        <ele>1747.5</ele>
        <time>2026-05-06T12:17:15.000Z</time>
      </trkpt>
      <trkpt lat="41.791292" lon="22.970184">
        <ele>1747.5</ele>
        <time>2026-05-06T12:17:16.000Z</time>
      </trkpt>
      <trkpt lat="41.791287" lon="22.97019">
        <ele>1747.5</ele>
        <time>2026-05-06T12:17:17.000Z</time>
      </trkpt>
      <trkpt lat="41.791283" lon="22.970195">
        <ele>1747.7</ele>
        <time>2026-05-06T12:17:18.000Z</time>
      </trkpt>
      <trkpt lat="41.791278" lon="22.970198">
        <ele>1747.7</ele>
        <time>2026-05-06T12:17:19.000Z</time>
      </trkpt>
      <trkpt lat="41.791276" lon="22.970198">
        <ele>1747.7</ele>
        <time>2026-05-06T12:17:20.000Z</time>
      </trkpt>
      <trkpt lat="41.791272" lon="22.970197">
        <ele>1747.7</ele>
        <time>2026-05-06T12:17:21.000Z</time>
      </trkpt>
      <trkpt lat="41.791269" lon="22.970194">
        <ele>1747.7</ele>
        <time>2026-05-06T12:17:22.000Z</time>
      </trkpt>
      <trkpt lat="41.791268" lon="22.970191">
        <ele>1748.5</ele>
        <time>2026-05-06T12:17:23.000Z</time>
      </trkpt>
      <trkpt lat="41.791266" lon="22.970189">
        <ele>1748.5</ele>
        <time>2026-05-06T12:17:24.000Z</time>
      </trkpt>
      <trkpt lat="41.791265" lon="22.970186">
        <ele>1748.5</ele>
        <time>2026-05-06T12:17:25.000Z</time>
      </trkpt>
      <trkpt lat="41.791264" lon="22.970185">
        <ele>1748.5</ele>
        <time>2026-05-06T12:17:26.000Z</time>
      </trkpt>
      <trkpt lat="41.791264" lon="22.970184">
        <ele>1748.5</ele>
        <time>2026-05-06T12:17:27.000Z</time>
      </trkpt>
      <trkpt lat="41.791264" lon="22.970183">
        <ele>1749.5</ele>
        <time>2026-05-06T12:17:28.000Z</time>
      </trkpt>
      <trkpt lat="41.791264" lon="22.970183">
        <ele>1749.5</ele>
        <time>2026-05-06T12:17:29.000Z</time>
      </trkpt>
      <trkpt lat="41.791264" lon="22.970184">
        <ele>1749.5</ele>
        <time>2026-05-06T12:17:30.000Z</time>
      </trkpt>
      <trkpt lat="41.791264" lon="22.970185">
        <ele>1749.5</ele>
        <time>2026-05-06T12:17:31.000Z</time>
      </trkpt>
      <trkpt lat="41.791264" lon="22.970187">
        <ele>1749.5</ele>
        <time>2026-05-06T12:17:32.000Z</time>
      </trkpt>
      <trkpt lat="41.791263" lon="22.970188">
        <ele>1750</ele>
        <time>2026-05-06T12:17:33.000Z</time>
      </trkpt>
      <trkpt lat="41.791262" lon="22.97019">
        <ele>1750</ele>
        <time>2026-05-06T12:17:34.000Z</time>
      </trkpt>
      <trkpt lat="41.791258" lon="22.970193">
        <ele>1750</ele>
        <time>2026-05-06T12:17:35.000Z</time>
      </trkpt>
      <trkpt lat="41.791255" lon="22.970196">
        <ele>1750</ele>
        <time>2026-05-06T12:17:36.000Z</time>
      </trkpt>
      <trkpt lat="41.791251" lon="22.970198">
        <ele>1750</ele>
        <time>2026-05-06T12:17:37.000Z</time>
      </trkpt>
      <trkpt lat="41.791247" lon="22.970201">
        <ele>1750.9</ele>
        <time>2026-05-06T12:17:38.000Z</time>
      </trkpt>
      <trkpt lat="41.791243" lon="22.970203">
        <ele>1750.9</ele>
        <time>2026-05-06T12:17:39.000Z</time>
      </trkpt>
      <trkpt lat="41.791238" lon="22.970206">
        <ele>1750.9</ele>
        <time>2026-05-06T12:17:40.000Z</time>
      </trkpt>
      <trkpt lat="41.791234" lon="22.970208">
        <ele>1750.9</ele>
        <time>2026-05-06T12:17:41.000Z</time>
      </trkpt>
      <trkpt lat="41.791229" lon="22.97021">
        <ele>1750.9</ele>
        <time>2026-05-06T12:17:42.000Z</time>
      </trkpt>
      <trkpt lat="41.791224" lon="22.970213">
        <ele>1751.4</ele>
        <time>2026-05-06T12:17:43.000Z</time>
      </trkpt>
      <trkpt lat="41.79122" lon="22.970215">
        <ele>1751.4</ele>
        <time>2026-05-06T12:17:44.000Z</time>
      </trkpt>
      <trkpt lat="41.791216" lon="22.970217">
        <ele>1751.4</ele>
        <time>2026-05-06T12:17:45.000Z</time>
      </trkpt>
      <trkpt lat="41.791213" lon="22.970219">
        <ele>1751.4</ele>
        <time>2026-05-06T12:17:46.000Z</time>
      </trkpt>
      <trkpt lat="41.791209" lon="22.970222">
        <ele>1751.4</ele>
        <time>2026-05-06T12:17:47.000Z</time>
      </trkpt>
      <trkpt lat="41.791205" lon="22.970225">
        <ele>1751.5</ele>
        <time>2026-05-06T12:17:48.000Z</time>
      </trkpt>
      <trkpt lat="41.7912" lon="22.970225">
        <ele>1751.5</ele>
        <time>2026-05-06T12:17:49.000Z</time>
      </trkpt>
      <trkpt lat="41.791197" lon="22.970226">
        <ele>1751.5</ele>
        <time>2026-05-06T12:17:50.000Z</time>
      </trkpt>
      <trkpt lat="41.791193" lon="22.970224">
        <ele>1751.5</ele>
        <time>2026-05-06T12:17:51.000Z</time>
      </trkpt>
      <trkpt lat="41.79119" lon="22.970221">
        <ele>1751.5</ele>
        <time>2026-05-06T12:17:52.000Z</time>
      </trkpt>
      <trkpt lat="41.791186" lon="22.970217">
        <ele>1752.1</ele>
        <time>2026-05-06T12:17:53.000Z</time>
      </trkpt>
      <trkpt lat="41.791182" lon="22.970213">
        <ele>1752.1</ele>
        <time>2026-05-06T12:17:54.000Z</time>
      </trkpt>
      <trkpt lat="41.791178" lon="22.970209">
        <ele>1752.1</ele>
        <time>2026-05-06T12:17:55.000Z</time>
      </trkpt>
      <trkpt lat="41.791174" lon="22.970205">
        <ele>1752.1</ele>
        <time>2026-05-06T12:17:56.000Z</time>
      </trkpt>
      <trkpt lat="41.79117" lon="22.970201">
        <ele>1752.1</ele>
        <time>2026-05-06T12:17:57.000Z</time>
      </trkpt>
      <trkpt lat="41.791167" lon="22.970198">
        <ele>1753.1</ele>
        <time>2026-05-06T12:17:58.000Z</time>
      </trkpt>
      <trkpt lat="41.791164" lon="22.970195">
        <ele>1753.1</ele>
        <time>2026-05-06T12:17:59.000Z</time>
      </trkpt>
      <trkpt lat="41.791161" lon="22.970194">
        <ele>1753.1</ele>
        <time>2026-05-06T12:18:00.000Z</time>
      </trkpt>
      <trkpt lat="41.791158" lon="22.970191">
        <ele>1753.1</ele>
        <time>2026-05-06T12:18:01.000Z</time>
      </trkpt>
      <trkpt lat="41.791154" lon="22.970189">
        <ele>1753.1</ele>
        <time>2026-05-06T12:18:02.000Z</time>
      </trkpt>
      <trkpt lat="41.791152" lon="22.970186">
        <ele>1753.7</ele>
        <time>2026-05-06T12:18:03.000Z</time>
      </trkpt>
      <trkpt lat="41.79115" lon="22.970181">
        <ele>1753.7</ele>
        <time>2026-05-06T12:18:04.000Z</time>
      </trkpt>
      <trkpt lat="41.79115" lon="22.970174">
        <ele>1753.7</ele>
        <time>2026-05-06T12:18:05.000Z</time>
      </trkpt>
      <trkpt lat="41.791151" lon="22.970167">
        <ele>1753.7</ele>
        <time>2026-05-06T12:18:06.000Z</time>
      </trkpt>
      <trkpt lat="41.791153" lon="22.970161">
        <ele>1753.7</ele>
        <time>2026-05-06T12:18:07.000Z</time>
      </trkpt>
      <trkpt lat="41.791153" lon="22.970155">
        <ele>1754.9</ele>
        <time>2026-05-06T12:18:08.000Z</time>
      </trkpt>
      <trkpt lat="41.791152" lon="22.97015">
        <ele>1754.9</ele>
        <time>2026-05-06T12:18:09.000Z</time>
      </trkpt>
      <trkpt lat="41.791149" lon="22.970147">
        <ele>1754.9</ele>
        <time>2026-05-06T12:18:10.000Z</time>
      </trkpt>
      <trkpt lat="41.791147" lon="22.970144">
        <ele>1754.9</ele>
        <time>2026-05-06T12:18:11.000Z</time>
      </trkpt>
      <trkpt lat="41.791144" lon="22.970141">
        <ele>1754.9</ele>
        <time>2026-05-06T12:18:12.000Z</time>
      </trkpt>
      <trkpt lat="41.791141" lon="22.970139">
        <ele>1756.1</ele>
        <time>2026-05-06T12:18:13.000Z</time>
      </trkpt>
      <trkpt lat="41.791138" lon="22.970137">
        <ele>1756.1</ele>
        <time>2026-05-06T12:18:14.000Z</time>
      </trkpt>
      <trkpt lat="41.791135" lon="22.970134">
        <ele>1756.1</ele>
        <time>2026-05-06T12:18:15.000Z</time>
      </trkpt>
      <trkpt lat="41.791133" lon="22.970132">
        <ele>1756.1</ele>
        <time>2026-05-06T12:18:16.000Z</time>
      </trkpt>
      <trkpt lat="41.791132" lon="22.970129">
        <ele>1756.1</ele>
        <time>2026-05-06T12:18:17.000Z</time>
      </trkpt>
      <trkpt lat="41.791131" lon="22.970125">
        <ele>1756.7</ele>
        <time>2026-05-06T12:18:18.000Z</time>
      </trkpt>
      <trkpt lat="41.791131" lon="22.970121">
        <ele>1756.7</ele>
        <time>2026-05-06T12:18:19.000Z</time>
      </trkpt>
      <trkpt lat="41.791129" lon="22.970116">
        <ele>1756.7</ele>
        <time>2026-05-06T12:18:20.000Z</time>
      </trkpt>
      <trkpt lat="41.791126" lon="22.970112">
        <ele>1756.7</ele>
        <time>2026-05-06T12:18:21.000Z</time>
      </trkpt>
      <trkpt lat="41.791122" lon="22.970107">
        <ele>1756.7</ele>
        <time>2026-05-06T12:18:22.000Z</time>
      </trkpt>
      <trkpt lat="41.791117" lon="22.970102">
        <ele>1757.7</ele>
        <time>2026-05-06T12:18:23.000Z</time>
      </trkpt>
      <trkpt lat="41.791113" lon="22.970097">
        <ele>1757.7</ele>
        <time>2026-05-06T12:18:24.000Z</time>
      </trkpt>
      <trkpt lat="41.79111" lon="22.970092">
        <ele>1757.7</ele>
        <time>2026-05-06T12:18:25.000Z</time>
      </trkpt>
      <trkpt lat="41.791107" lon="22.970086">
        <ele>1757.7</ele>
        <time>2026-05-06T12:18:26.000Z</time>
      </trkpt>
      <trkpt lat="41.791105" lon="22.970081">
        <ele>1757.7</ele>
        <time>2026-05-06T12:18:27.000Z</time>
      </trkpt>
      <trkpt lat="41.791104" lon="22.970077">
        <ele>1758.7</ele>
        <time>2026-05-06T12:18:28.000Z</time>
      </trkpt>
      <trkpt lat="41.791102" lon="22.970073">
        <ele>1758.7</ele>
        <time>2026-05-06T12:18:29.000Z</time>
      </trkpt>
      <trkpt lat="41.791098" lon="22.97007">
        <ele>1758.7</ele>
        <time>2026-05-06T12:18:30.000Z</time>
      </trkpt>
      <trkpt lat="41.791095" lon="22.970065">
        <ele>1758.7</ele>
        <time>2026-05-06T12:18:31.000Z</time>
      </trkpt>
      <trkpt lat="41.791092" lon="22.970061">
        <ele>1758.7</ele>
        <time>2026-05-06T12:18:32.000Z</time>
      </trkpt>
      <trkpt lat="41.791087" lon="22.970055">
        <ele>1759.1</ele>
        <time>2026-05-06T12:18:33.000Z</time>
      </trkpt>
      <trkpt lat="41.791084" lon="22.970049">
        <ele>1759.1</ele>
        <time>2026-05-06T12:18:34.000Z</time>
      </trkpt>
      <trkpt lat="41.791081" lon="22.970042">
        <ele>1759.1</ele>
        <time>2026-05-06T12:18:35.000Z</time>
      </trkpt>
      <trkpt lat="41.791079" lon="22.970036">
        <ele>1759.1</ele>
        <time>2026-05-06T12:18:36.000Z</time>
      </trkpt>
      <trkpt lat="41.791077" lon="22.97003">
        <ele>1759.1</ele>
        <time>2026-05-06T12:18:37.000Z</time>
      </trkpt>
      <trkpt lat="41.791075" lon="22.970024">
        <ele>1760.1</ele>
        <time>2026-05-06T12:18:38.000Z</time>
      </trkpt>
      <trkpt lat="41.791072" lon="22.97002">
        <ele>1760.1</ele>
        <time>2026-05-06T12:18:39.000Z</time>
      </trkpt>
      <trkpt lat="41.791069" lon="22.970015">
        <ele>1760.1</ele>
        <time>2026-05-06T12:18:40.000Z</time>
      </trkpt>
      <trkpt lat="41.791066" lon="22.97001">
        <ele>1760.1</ele>
        <time>2026-05-06T12:18:41.000Z</time>
      </trkpt>
      <trkpt lat="41.791063" lon="22.970003">
        <ele>1760.1</ele>
        <time>2026-05-06T12:18:42.000Z</time>
      </trkpt>
      <trkpt lat="41.79106" lon="22.969998">
        <ele>1761.1</ele>
        <time>2026-05-06T12:18:43.000Z</time>
      </trkpt>
      <trkpt lat="41.791058" lon="22.969992">
        <ele>1761.1</ele>
        <time>2026-05-06T12:18:44.000Z</time>
      </trkpt>
      <trkpt lat="41.791055" lon="22.969987">
        <ele>1761.1</ele>
        <time>2026-05-06T12:18:45.000Z</time>
      </trkpt>
      <trkpt lat="41.791052" lon="22.96998">
        <ele>1761.1</ele>
        <time>2026-05-06T12:18:46.000Z</time>
      </trkpt>
      <trkpt lat="41.791048" lon="22.969975">
        <ele>1761.1</ele>
        <time>2026-05-06T12:18:47.000Z</time>
      </trkpt>
      <trkpt lat="41.791045" lon="22.969971">
        <ele>1761.6</ele>
        <time>2026-05-06T12:18:48.000Z</time>
      </trkpt>
      <trkpt lat="41.791042" lon="22.969965">
        <ele>1761.6</ele>
        <time>2026-05-06T12:18:49.000Z</time>
      </trkpt>
      <trkpt lat="41.791038" lon="22.96996">
        <ele>1761.6</ele>
        <time>2026-05-06T12:18:50.000Z</time>
      </trkpt>
      <trkpt lat="41.791035" lon="22.969955">
        <ele>1761.6</ele>
        <time>2026-05-06T12:18:51.000Z</time>
      </trkpt>
      <trkpt lat="41.791033" lon="22.969948">
        <ele>1761.6</ele>
        <time>2026-05-06T12:18:52.000Z</time>
      </trkpt>
      <trkpt lat="41.791032" lon="22.969942">
        <ele>1762.7</ele>
        <time>2026-05-06T12:18:53.000Z</time>
      </trkpt>
      <trkpt lat="41.791033" lon="22.969934">
        <ele>1762.7</ele>
        <time>2026-05-06T12:18:54.000Z</time>
      </trkpt>
      <trkpt lat="41.791034" lon="22.969927">
        <ele>1762.7</ele>
        <time>2026-05-06T12:18:55.000Z</time>
      </trkpt>
      <trkpt lat="41.791036" lon="22.96992">
        <ele>1762.7</ele>
        <time>2026-05-06T12:18:56.000Z</time>
      </trkpt>
      <trkpt lat="41.791037" lon="22.969914">
        <ele>1762.7</ele>
        <time>2026-05-06T12:18:57.000Z</time>
      </trkpt>
      <trkpt lat="41.791036" lon="22.969908">
        <ele>1763.9</ele>
        <time>2026-05-06T12:18:58.000Z</time>
      </trkpt>
      <trkpt lat="41.791034" lon="22.969903">
        <ele>1763.9</ele>
        <time>2026-05-06T12:18:59.000Z</time>
      </trkpt>
      <trkpt lat="41.791033" lon="22.969898">
        <ele>1763.9</ele>
        <time>2026-05-06T12:19:00.000Z</time>
      </trkpt>
      <trkpt lat="41.791031" lon="22.969892">
        <ele>1763.9</ele>
        <time>2026-05-06T12:19:01.000Z</time>
      </trkpt>
      <trkpt lat="41.791029" lon="22.969887">
        <ele>1763.9</ele>
        <time>2026-05-06T12:19:02.000Z</time>
      </trkpt>
      <trkpt lat="41.791027" lon="22.969879">
        <ele>1764.5</ele>
        <time>2026-05-06T12:19:03.000Z</time>
      </trkpt>
      <trkpt lat="41.791025" lon="22.969871">
        <ele>1764.5</ele>
        <time>2026-05-06T12:19:04.000Z</time>
      </trkpt>
      <trkpt lat="41.791022" lon="22.969863">
        <ele>1764.5</ele>
        <time>2026-05-06T12:19:05.000Z</time>
      </trkpt>
      <trkpt lat="41.791019" lon="22.969854">
        <ele>1764.5</ele>
        <time>2026-05-06T12:19:06.000Z</time>
      </trkpt>
      <trkpt lat="41.791015" lon="22.969846">
        <ele>1764.5</ele>
        <time>2026-05-06T12:19:07.000Z</time>
      </trkpt>
      <trkpt lat="41.791011" lon="22.96984">
        <ele>1765.3</ele>
        <time>2026-05-06T12:19:08.000Z</time>
      </trkpt>
      <trkpt lat="41.791008" lon="22.969835">
        <ele>1765.3</ele>
        <time>2026-05-06T12:19:09.000Z</time>
      </trkpt>
      <trkpt lat="41.791004" lon="22.96983">
        <ele>1765.3</ele>
        <time>2026-05-06T12:19:10.000Z</time>
      </trkpt>
      <trkpt lat="41.791" lon="22.969825">
        <ele>1765.3</ele>
        <time>2026-05-06T12:19:11.000Z</time>
      </trkpt>
      <trkpt lat="41.790997" lon="22.96982">
        <ele>1765.3</ele>
        <time>2026-05-06T12:19:12.000Z</time>
      </trkpt>
      <trkpt lat="41.790995" lon="22.969813">
        <ele>1765.9</ele>
        <time>2026-05-06T12:19:13.000Z</time>
      </trkpt>
      <trkpt lat="41.790994" lon="22.969806">
        <ele>1765.9</ele>
        <time>2026-05-06T12:19:14.000Z</time>
      </trkpt>
      <trkpt lat="41.790993" lon="22.969798">
        <ele>1765.9</ele>
        <time>2026-05-06T12:19:15.000Z</time>
      </trkpt>
      <trkpt lat="41.790992" lon="22.969792">
        <ele>1765.9</ele>
        <time>2026-05-06T12:19:16.000Z</time>
      </trkpt>
      <trkpt lat="41.790991" lon="22.969785">
        <ele>1765.9</ele>
        <time>2026-05-06T12:19:17.000Z</time>
      </trkpt>
      <trkpt lat="41.790989" lon="22.969779">
        <ele>1766.2</ele>
        <time>2026-05-06T12:19:18.000Z</time>
      </trkpt>
      <trkpt lat="41.790988" lon="22.969773">
        <ele>1766.2</ele>
        <time>2026-05-06T12:19:19.000Z</time>
      </trkpt>
      <trkpt lat="41.790987" lon="22.969767">
        <ele>1766.2</ele>
        <time>2026-05-06T12:19:20.000Z</time>
      </trkpt>
      <trkpt lat="41.790987" lon="22.969761">
        <ele>1766.2</ele>
        <time>2026-05-06T12:19:21.000Z</time>
      </trkpt>
      <trkpt lat="41.790986" lon="22.969755">
        <ele>1766.2</ele>
        <time>2026-05-06T12:19:22.000Z</time>
      </trkpt>
      <trkpt lat="41.790986" lon="22.969749">
        <ele>1767.2</ele>
        <time>2026-05-06T12:19:23.000Z</time>
      </trkpt>
      <trkpt lat="41.790985" lon="22.969742">
        <ele>1767.2</ele>
        <time>2026-05-06T12:19:24.000Z</time>
      </trkpt>
      <trkpt lat="41.790984" lon="22.969735">
        <ele>1767.2</ele>
        <time>2026-05-06T12:19:25.000Z</time>
      </trkpt>
      <trkpt lat="41.790985" lon="22.969729">
        <ele>1767.2</ele>
        <time>2026-05-06T12:19:26.000Z</time>
      </trkpt>
      <trkpt lat="41.790985" lon="22.969723">
        <ele>1767.2</ele>
        <time>2026-05-06T12:19:27.000Z</time>
      </trkpt>
      <trkpt lat="41.790985" lon="22.969718">
        <ele>1768.4</ele>
        <time>2026-05-06T12:19:28.000Z</time>
      </trkpt>
      <trkpt lat="41.790986" lon="22.969715">
        <ele>1768.4</ele>
        <time>2026-05-06T12:19:29.000Z</time>
      </trkpt>
      <trkpt lat="41.790985" lon="22.969714">
        <ele>1768.4</ele>
        <time>2026-05-06T12:19:30.000Z</time>
      </trkpt>
      <trkpt lat="41.790984" lon="22.969714">
        <ele>1768.4</ele>
        <time>2026-05-06T12:19:31.000Z</time>
      </trkpt>
      <trkpt lat="41.790983" lon="22.969715">
        <ele>1768.4</ele>
        <time>2026-05-06T12:19:32.000Z</time>
      </trkpt>
      <trkpt lat="41.790983" lon="22.969715">
        <ele>1768.9</ele>
        <time>2026-05-06T12:19:33.000Z</time>
      </trkpt>
      <trkpt lat="41.790983" lon="22.969716">
        <ele>1768.9</ele>
        <time>2026-05-06T12:19:34.000Z</time>
      </trkpt>
      <trkpt lat="41.790983" lon="22.969717">
        <ele>1768.9</ele>
        <time>2026-05-06T12:19:35.000Z</time>
      </trkpt>
      <trkpt lat="41.790983" lon="22.969717">
        <ele>1768.9</ele>
        <time>2026-05-06T12:19:36.000Z</time>
      </trkpt>
      <trkpt lat="41.790983" lon="22.969718">
        <ele>1768.9</ele>
        <time>2026-05-06T12:19:37.000Z</time>
      </trkpt>
      <trkpt lat="41.790984" lon="22.969718">
        <ele>1769.6</ele>
        <time>2026-05-06T12:19:38.000Z</time>
      </trkpt>
      <trkpt lat="41.790984" lon="22.969718">
        <ele>1769.6</ele>
        <time>2026-05-06T12:19:39.000Z</time>
      </trkpt>
      <trkpt lat="41.790983" lon="22.969719">
        <ele>1769.6</ele>
        <time>2026-05-06T12:19:40.000Z</time>
      </trkpt>
      <trkpt lat="41.790983" lon="22.969721">
        <ele>1769.6</ele>
        <time>2026-05-06T12:19:41.000Z</time>
      </trkpt>
      <trkpt lat="41.790982" lon="22.969722">
        <ele>1769.6</ele>
        <time>2026-05-06T12:19:42.000Z</time>
      </trkpt>
      <trkpt lat="41.790982" lon="22.969723">
        <ele>1769.8</ele>
        <time>2026-05-06T12:19:43.000Z</time>
      </trkpt>
      <trkpt lat="41.790981" lon="22.969723">
        <ele>1769.8</ele>
        <time>2026-05-06T12:19:44.000Z</time>
      </trkpt>
      <trkpt lat="41.790981" lon="22.969723">
        <ele>1769.8</ele>
        <time>2026-05-06T12:19:45.000Z</time>
      </trkpt>
      <trkpt lat="41.790981" lon="22.969722">
        <ele>1769.8</ele>
        <time>2026-05-06T12:19:46.000Z</time>
      </trkpt>
      <trkpt lat="41.790981" lon="22.969721">
        <ele>1769.8</ele>
        <time>2026-05-06T12:19:47.000Z</time>
      </trkpt>
      <trkpt lat="41.79098" lon="22.96972">
        <ele>1769.8</ele>
        <time>2026-05-06T12:19:48.000Z</time>
      </trkpt>
      <trkpt lat="41.79098" lon="22.96972">
        <ele>1769.8</ele>
        <time>2026-05-06T12:19:49.000Z</time>
      </trkpt>
      <trkpt lat="41.79098" lon="22.96972">
        <ele>1769.8</ele>
        <time>2026-05-06T12:19:50.000Z</time>
      </trkpt>
      <trkpt lat="41.79098" lon="22.969719">
        <ele>1769.8</ele>
        <time>2026-05-06T12:19:51.000Z</time>
      </trkpt>
      <trkpt lat="41.79098" lon="22.969719">
        <ele>1769.8</ele>
        <time>2026-05-06T12:19:52.000Z</time>
      </trkpt>
      <trkpt lat="41.790981" lon="22.969718">
        <ele>1769.7</ele>
        <time>2026-05-06T12:19:53.000Z</time>
      </trkpt>
      <trkpt lat="41.790981" lon="22.969717">
        <ele>1769.7</ele>
        <time>2026-05-06T12:19:54.000Z</time>
      </trkpt>
      <trkpt lat="41.790981" lon="22.969717">
        <ele>1769.7</ele>
        <time>2026-05-06T12:19:55.000Z</time>
      </trkpt>
      <trkpt lat="41.79098" lon="22.969716">
        <ele>1769.7</ele>
        <time>2026-05-06T12:19:56.000Z</time>
      </trkpt>
      <trkpt lat="41.79098" lon="22.969716">
        <ele>1769.7</ele>
        <time>2026-05-06T12:19:57.000Z</time>
      </trkpt>
      <trkpt lat="41.79098" lon="22.969716">
        <ele>1769.8</ele>
        <time>2026-05-06T12:19:58.000Z</time>
      </trkpt>
      <trkpt lat="41.790979" lon="22.969716">
        <ele>1769.8</ele>
        <time>2026-05-06T12:19:59.000Z</time>
      </trkpt>
      <trkpt lat="41.790979" lon="22.969716">
        <ele>1769.8</ele>
        <time>2026-05-06T12:20:00.000Z</time>
      </trkpt>
      <trkpt lat="41.790979" lon="22.969716">
        <ele>1769.8</ele>
        <time>2026-05-06T12:20:01.000Z</time>
      </trkpt>
      <trkpt lat="41.790979" lon="22.969716">
        <ele>1769.8</ele>
        <time>2026-05-06T12:20:02.000Z</time>
      </trkpt>
      <trkpt lat="41.790978" lon="22.969717">
        <ele>1769.8</ele>
        <time>2026-05-06T12:20:03.000Z</time>
      </trkpt>
      <trkpt lat="41.790978" lon="22.969717">
        <ele>1769.8</ele>
        <time>2026-05-06T12:20:04.000Z</time>
      </trkpt>
      <trkpt lat="41.790977" lon="22.969717">
        <ele>1769.8</ele>
        <time>2026-05-06T12:20:05.000Z</time>
      </trkpt>
      <trkpt lat="41.790977" lon="22.969718">
        <ele>1769.8</ele>
        <time>2026-05-06T12:20:06.000Z</time>
      </trkpt>
      <trkpt lat="41.790976" lon="22.969718">
        <ele>1769.8</ele>
        <time>2026-05-06T12:20:07.000Z</time>
      </trkpt>
      <trkpt lat="41.790976" lon="22.969718">
        <ele>1769.7</ele>
        <time>2026-05-06T12:20:08.000Z</time>
      </trkpt>
      <trkpt lat="41.790976" lon="22.969718">
        <ele>1769.7</ele>
        <time>2026-05-06T12:20:09.000Z</time>
      </trkpt>
      <trkpt lat="41.790976" lon="22.969718">
        <ele>1769.7</ele>
        <time>2026-05-06T12:20:10.000Z</time>
      </trkpt>
      <trkpt lat="41.790976" lon="22.969717">
        <ele>1769.7</ele>
        <time>2026-05-06T12:20:11.000Z</time>
      </trkpt>
      <trkpt lat="41.790976" lon="22.969717">
        <ele>1769.7</ele>
        <time>2026-05-06T12:20:12.000Z</time>
      </trkpt>
      <trkpt lat="41.790976" lon="22.969717">
        <ele>1769.7</ele>
        <time>2026-05-06T12:20:13.000Z</time>
      </trkpt>
      <trkpt lat="41.790976" lon="22.969717">
        <ele>1769.7</ele>
        <time>2026-05-06T12:20:14.000Z</time>
      </trkpt>
      <trkpt lat="41.790976" lon="22.969717">
        <ele>1769.7</ele>
        <time>2026-05-06T12:20:15.000Z</time>
      </trkpt>
      <trkpt lat="41.790976" lon="22.969717">
        <ele>1769.7</ele>
        <time>2026-05-06T12:20:16.000Z</time>
      </trkpt>
      <trkpt lat="41.790975" lon="22.969718">
        <ele>1769.7</ele>
        <time>2026-05-06T12:20:17.000Z</time>
      </trkpt>
      <trkpt lat="41.790975" lon="22.969718">
        <ele>1769.8</ele>
        <time>2026-05-06T12:20:18.000Z</time>
      </trkpt>
      <trkpt lat="41.790975" lon="22.969718">
        <ele>1769.8</ele>
        <time>2026-05-06T12:20:19.000Z</time>
      </trkpt>
      <trkpt lat="41.790975" lon="22.969718">
        <ele>1769.8</ele>
        <time>2026-05-06T12:20:20.000Z</time>
      </trkpt>
      <trkpt lat="41.790975" lon="22.969718">
        <ele>1769.8</ele>
        <time>2026-05-06T12:20:21.000Z</time>
      </trkpt>
      <trkpt lat="41.790975" lon="22.969718">
        <ele>1769.8</ele>
        <time>2026-05-06T12:20:22.000Z</time>
      </trkpt>
      <trkpt lat="41.790975" lon="22.969718">
        <ele>1769.8</ele>
        <time>2026-05-06T12:20:23.000Z</time>
      </trkpt>
      <trkpt lat="41.790975" lon="22.969718">
        <ele>1769.8</ele>
        <time>2026-05-06T12:20:24.000Z</time>
      </trkpt>
      <trkpt lat="41.790975" lon="22.969718">
        <ele>1769.8</ele>
        <time>2026-05-06T12:20:25.000Z</time>
      </trkpt>
      <trkpt lat="41.790975" lon="22.969718">
        <ele>1769.8</ele>
        <time>2026-05-06T12:20:26.000Z</time>
      </trkpt>
      <trkpt lat="41.790975" lon="22.969718">
        <ele>1769.8</ele>
        <time>2026-05-06T12:20:27.000Z</time>
      </trkpt>
      <trkpt lat="41.790975" lon="22.969718">
        <ele>1769.8</ele>
        <time>2026-05-06T12:20:28.000Z</time>
      </trkpt>
      <trkpt lat="41.790975" lon="22.969718">
        <ele>1769.8</ele>
        <time>2026-05-06T12:20:29.000Z</time>
      </trkpt>
      <trkpt lat="41.790975" lon="22.969718">
        <ele>1769.8</ele>
        <time>2026-05-06T12:20:30.000Z</time>
      </trkpt>
      <trkpt lat="41.790975" lon="22.969718">
        <ele>1769.8</ele>
        <time>2026-05-06T12:20:31.000Z</time>
      </trkpt>
      <trkpt lat="41.790975" lon="22.969718">
        <ele>1769.8</ele>
        <time>2026-05-06T12:20:32.000Z</time>
      </trkpt>
      <trkpt lat="41.790975" lon="22.969718">
        <ele>1769.7</ele>
        <time>2026-05-06T12:20:33.000Z</time>
      </trkpt>
      <trkpt lat="41.790975" lon="22.969718">
        <ele>1769.7</ele>
        <time>2026-05-06T12:20:34.000Z</time>
      </trkpt>
      <trkpt lat="41.790975" lon="22.969718">
        <ele>1769.7</ele>
        <time>2026-05-06T12:20:35.000Z</time>
      </trkpt>
      <trkpt lat="41.790975" lon="22.969718">
        <ele>1769.7</ele>
        <time>2026-05-06T12:20:36.000Z</time>
      </trkpt>
      <trkpt lat="41.790975" lon="22.969718">
        <ele>1769.7</ele>
        <time>2026-05-06T12:20:37.000Z</time>
      </trkpt>
      <trkpt lat="41.790975" lon="22.969718">
        <ele>1769.6</ele>
        <time>2026-05-06T12:20:38.000Z</time>
      </trkpt>
      <trkpt lat="41.790975" lon="22.969718">
        <ele>1769.6</ele>
        <time>2026-05-06T12:20:39.000Z</time>
      </trkpt>
      <trkpt lat="41.790975" lon="22.969718">
        <ele>1769.6</ele>
        <time>2026-05-06T12:20:40.000Z</time>
      </trkpt>
      <trkpt lat="41.790975" lon="22.969718">
        <ele>1769.6</ele>
        <time>2026-05-06T12:20:41.000Z</time>
      </trkpt>
      <trkpt lat="41.790975" lon="22.969717">
        <ele>1769.6</ele>
        <time>2026-05-06T12:20:42.000Z</time>
      </trkpt>
      <trkpt lat="41.790976" lon="22.969717">
        <ele>1769.6</ele>
        <time>2026-05-06T12:20:43.000Z</time>
      </trkpt>
      <trkpt lat="41.790976" lon="22.969717">
        <ele>1769.6</ele>
        <time>2026-05-06T12:20:44.000Z</time>
      </trkpt>
      <trkpt lat="41.790977" lon="22.969716">
        <ele>1769.6</ele>
        <time>2026-05-06T12:20:45.000Z</time>
      </trkpt>
      <trkpt lat="41.790977" lon="22.969717">
        <ele>1769.6</ele>
        <time>2026-05-06T12:20:46.000Z</time>
      </trkpt>
      <trkpt lat="41.790978" lon="22.969717">
        <ele>1769.6</ele>
        <time>2026-05-06T12:20:47.000Z</time>
      </trkpt>
      <trkpt lat="41.790978" lon="22.969717">
        <ele>1769.6</ele>
        <time>2026-05-06T12:20:48.000Z</time>
      </trkpt>
      <trkpt lat="41.790978" lon="22.969717">
        <ele>1769.6</ele>
        <time>2026-05-06T12:20:49.000Z</time>
      </trkpt>
      <trkpt lat="41.790979" lon="22.969717">
        <ele>1769.6</ele>
        <time>2026-05-06T12:20:50.000Z</time>
      </trkpt>
      <trkpt lat="41.790979" lon="22.969717">
        <ele>1769.6</ele>
        <time>2026-05-06T12:20:51.000Z</time>
      </trkpt>
      <trkpt lat="41.790979" lon="22.969717">
        <ele>1769.6</ele>
        <time>2026-05-06T12:20:52.000Z</time>
      </trkpt>
      <trkpt lat="41.790979" lon="22.969717">
        <ele>1769.5</ele>
        <time>2026-05-06T12:20:53.000Z</time>
      </trkpt>
      <trkpt lat="41.790978" lon="22.969717">
        <ele>1769.5</ele>
        <time>2026-05-06T12:20:54.000Z</time>
      </trkpt>
      <trkpt lat="41.790977" lon="22.969717">
        <ele>1769.5</ele>
        <time>2026-05-06T12:20:55.000Z</time>
      </trkpt>
      <trkpt lat="41.790977" lon="22.969717">
        <ele>1769.5</ele>
        <time>2026-05-06T12:20:56.000Z</time>
      </trkpt>
      <trkpt lat="41.790976" lon="22.969717">
        <ele>1769.5</ele>
        <time>2026-05-06T12:20:57.000Z</time>
      </trkpt>
      <trkpt lat="41.790975" lon="22.969717">
        <ele>1769.3</ele>
        <time>2026-05-06T12:20:58.000Z</time>
      </trkpt>
      <trkpt lat="41.790976" lon="22.969717">
        <ele>1769.3</ele>
        <time>2026-05-06T12:20:59.000Z</time>
      </trkpt>
      <trkpt lat="41.790976" lon="22.969716">
        <ele>1769.3</ele>
        <time>2026-05-06T12:21:00.000Z</time>
      </trkpt>
      <trkpt lat="41.790976" lon="22.969716">
        <ele>1769.3</ele>
        <time>2026-05-06T12:21:01.000Z</time>
      </trkpt>
      <trkpt lat="41.790976" lon="22.969716">
        <ele>1769.3</ele>
        <time>2026-05-06T12:21:02.000Z</time>
      </trkpt>
      <trkpt lat="41.790977" lon="22.969716">
        <ele>1769.2</ele>
        <time>2026-05-06T12:21:03.000Z</time>
      </trkpt>
      <trkpt lat="41.790977" lon="22.969717">
        <ele>1769.2</ele>
        <time>2026-05-06T12:21:04.000Z</time>
      </trkpt>
      <trkpt lat="41.790977" lon="22.969717">
        <ele>1769.2</ele>
        <time>2026-05-06T12:21:05.000Z</time>
      </trkpt>
      <trkpt lat="41.790977" lon="22.969717">
        <ele>1769.2</ele>
        <time>2026-05-06T12:21:06.000Z</time>
      </trkpt>
      <trkpt lat="41.790977" lon="22.969717">
        <ele>1769.2</ele>
        <time>2026-05-06T12:21:07.000Z</time>
      </trkpt>
      <trkpt lat="41.790978" lon="22.969717">
        <ele>1769.1</ele>
        <time>2026-05-06T12:21:08.000Z</time>
      </trkpt>
      <trkpt lat="41.790977" lon="22.969716">
        <ele>1769.1</ele>
        <time>2026-05-06T12:21:09.000Z</time>
      </trkpt>
      <trkpt lat="41.790976" lon="22.969716">
        <ele>1769.1</ele>
        <time>2026-05-06T12:21:10.000Z</time>
      </trkpt>
      <trkpt lat="41.790972" lon="22.969714">
        <ele>1769.1</ele>
        <time>2026-05-06T12:21:11.000Z</time>
      </trkpt>
      <trkpt lat="41.790966" lon="22.969711">
        <ele>1769.1</ele>
        <time>2026-05-06T12:21:12.000Z</time>
      </trkpt>
      <trkpt lat="41.79096" lon="22.969706">
        <ele>1769.2</ele>
        <time>2026-05-06T12:21:13.000Z</time>
      </trkpt>
      <trkpt lat="41.790954" lon="22.969699">
        <ele>1769.2</ele>
        <time>2026-05-06T12:21:14.000Z</time>
      </trkpt>
      <trkpt lat="41.790949" lon="22.96969">
        <ele>1769.2</ele>
        <time>2026-05-06T12:21:15.000Z</time>
      </trkpt>
      <trkpt lat="41.790945" lon="22.969682">
        <ele>1769.2</ele>
        <time>2026-05-06T12:21:16.000Z</time>
      </trkpt>
      <trkpt lat="41.790941" lon="22.969673">
        <ele>1769.2</ele>
        <time>2026-05-06T12:21:17.000Z</time>
      </trkpt>
      <trkpt lat="41.790938" lon="22.969665">
        <ele>1769.4</ele>
        <time>2026-05-06T12:21:18.000Z</time>
      </trkpt>
      <trkpt lat="41.790934" lon="22.969657">
        <ele>1769.4</ele>
        <time>2026-05-06T12:21:19.000Z</time>
      </trkpt>
      <trkpt lat="41.790931" lon="22.969648">
        <ele>1769.4</ele>
        <time>2026-05-06T12:21:20.000Z</time>
      </trkpt>
      <trkpt lat="41.790928" lon="22.969639">
        <ele>1769.4</ele>
        <time>2026-05-06T12:21:21.000Z</time>
      </trkpt>
      <trkpt lat="41.790925" lon="22.969631">
        <ele>1769.4</ele>
        <time>2026-05-06T12:21:22.000Z</time>
      </trkpt>
      <trkpt lat="41.790921" lon="22.969624">
        <ele>1770</ele>
        <time>2026-05-06T12:21:23.000Z</time>
      </trkpt>
      <trkpt lat="41.790917" lon="22.969617">
        <ele>1770</ele>
        <time>2026-05-06T12:21:24.000Z</time>
      </trkpt>
      <trkpt lat="41.790913" lon="22.969612">
        <ele>1770</ele>
        <time>2026-05-06T12:21:25.000Z</time>
      </trkpt>
      <trkpt lat="41.790909" lon="22.969607">
        <ele>1770</ele>
        <time>2026-05-06T12:21:26.000Z</time>
      </trkpt>
      <trkpt lat="41.790905" lon="22.9696">
        <ele>1770</ele>
        <time>2026-05-06T12:21:27.000Z</time>
      </trkpt>
      <trkpt lat="41.790902" lon="22.969594">
        <ele>1771</ele>
        <time>2026-05-06T12:21:28.000Z</time>
      </trkpt>
      <trkpt lat="41.790898" lon="22.969588">
        <ele>1771</ele>
        <time>2026-05-06T12:21:29.000Z</time>
      </trkpt>
      <trkpt lat="41.790896" lon="22.969583">
        <ele>1771</ele>
        <time>2026-05-06T12:21:30.000Z</time>
      </trkpt>
      <trkpt lat="41.790892" lon="22.969579">
        <ele>1771</ele>
        <time>2026-05-06T12:21:31.000Z</time>
      </trkpt>
      <trkpt lat="41.790889" lon="22.969577">
        <ele>1771</ele>
        <time>2026-05-06T12:21:32.000Z</time>
      </trkpt>
      <trkpt lat="41.790886" lon="22.969575">
        <ele>1771.7</ele>
        <time>2026-05-06T12:21:33.000Z</time>
      </trkpt>
      <trkpt lat="41.790881" lon="22.969574">
        <ele>1771.7</ele>
        <time>2026-05-06T12:21:34.000Z</time>
      </trkpt>
      <trkpt lat="41.790877" lon="22.969572">
        <ele>1771.7</ele>
        <time>2026-05-06T12:21:35.000Z</time>
      </trkpt>
      <trkpt lat="41.790874" lon="22.96957">
        <ele>1771.7</ele>
        <time>2026-05-06T12:21:36.000Z</time>
      </trkpt>
      <trkpt lat="41.790872" lon="22.969568">
        <ele>1771.7</ele>
        <time>2026-05-06T12:21:37.000Z</time>
      </trkpt>
      <trkpt lat="41.790869" lon="22.969564">
        <ele>1773.1</ele>
        <time>2026-05-06T12:21:38.000Z</time>
      </trkpt>
      <trkpt lat="41.790868" lon="22.96956">
        <ele>1773.1</ele>
        <time>2026-05-06T12:21:39.000Z</time>
      </trkpt>
      <trkpt lat="41.790866" lon="22.969556">
        <ele>1773.1</ele>
        <time>2026-05-06T12:21:40.000Z</time>
      </trkpt>
      <trkpt lat="41.790864" lon="22.96955">
        <ele>1773.1</ele>
        <time>2026-05-06T12:21:41.000Z</time>
      </trkpt>
      <trkpt lat="41.790862" lon="22.969544">
        <ele>1773.1</ele>
        <time>2026-05-06T12:21:42.000Z</time>
      </trkpt>
      <trkpt lat="41.790859" lon="22.969539">
        <ele>1774.6</ele>
        <time>2026-05-06T12:21:43.000Z</time>
      </trkpt>
      <trkpt lat="41.790856" lon="22.969534">
        <ele>1774.6</ele>
        <time>2026-05-06T12:21:44.000Z</time>
      </trkpt>
      <trkpt lat="41.790854" lon="22.969529">
        <ele>1774.6</ele>
        <time>2026-05-06T12:21:45.000Z</time>
      </trkpt>
      <trkpt lat="41.790851" lon="22.969524">
        <ele>1774.6</ele>
        <time>2026-05-06T12:21:46.000Z</time>
      </trkpt>
      <trkpt lat="41.79085" lon="22.969519">
        <ele>1774.6</ele>
        <time>2026-05-06T12:21:47.000Z</time>
      </trkpt>
      <trkpt lat="41.79085" lon="22.969513">
        <ele>1775.3</ele>
        <time>2026-05-06T12:21:48.000Z</time>
      </trkpt>
      <trkpt lat="41.790849" lon="22.969509">
        <ele>1775.3</ele>
        <time>2026-05-06T12:21:49.000Z</time>
      </trkpt>
      <trkpt lat="41.790848" lon="22.969506">
        <ele>1775.3</ele>
        <time>2026-05-06T12:21:50.000Z</time>
      </trkpt>
      <trkpt lat="41.790848" lon="22.969504">
        <ele>1775.3</ele>
        <time>2026-05-06T12:21:51.000Z</time>
      </trkpt>
      <trkpt lat="41.790848" lon="22.969504">
        <ele>1775.3</ele>
        <time>2026-05-06T12:21:52.000Z</time>
      </trkpt>
      <trkpt lat="41.790847" lon="22.969503">
        <ele>1776.3</ele>
        <time>2026-05-06T12:21:53.000Z</time>
      </trkpt>
      <trkpt lat="41.790847" lon="22.969502">
        <ele>1776.3</ele>
        <time>2026-05-06T12:21:54.000Z</time>
      </trkpt>
      <trkpt lat="41.790846" lon="22.969502">
        <ele>1776.3</ele>
        <time>2026-05-06T12:21:55.000Z</time>
      </trkpt>
      <trkpt lat="41.790846" lon="22.969501">
        <ele>1776.3</ele>
        <time>2026-05-06T12:21:56.000Z</time>
      </trkpt>
      <trkpt lat="41.790846" lon="22.969501">
        <ele>1776.3</ele>
        <time>2026-05-06T12:21:57.000Z</time>
      </trkpt>
      <trkpt lat="41.790846" lon="22.969501">
        <ele>1777.3</ele>
        <time>2026-05-06T12:21:58.000Z</time>
      </trkpt>
      <trkpt lat="41.790846" lon="22.969501">
        <ele>1777.3</ele>
        <time>2026-05-06T12:21:59.000Z</time>
      </trkpt>
      <trkpt lat="41.790846" lon="22.969501">
        <ele>1777.3</ele>
        <time>2026-05-06T12:22:00.000Z</time>
      </trkpt>
      <trkpt lat="41.790846" lon="22.9695">
        <ele>1777.3</ele>
        <time>2026-05-06T12:22:01.000Z</time>
      </trkpt>
      <trkpt lat="41.790845" lon="22.969498">
        <ele>1777.3</ele>
        <time>2026-05-06T12:22:02.000Z</time>
      </trkpt>
      <trkpt lat="41.790843" lon="22.969496">
        <ele>1777.6</ele>
        <time>2026-05-06T12:22:03.000Z</time>
      </trkpt>
      <trkpt lat="41.790841" lon="22.969491">
        <ele>1777.6</ele>
        <time>2026-05-06T12:22:04.000Z</time>
      </trkpt>
      <trkpt lat="41.790839" lon="22.969486">
        <ele>1777.6</ele>
        <time>2026-05-06T12:22:05.000Z</time>
      </trkpt>
      <trkpt lat="41.790837" lon="22.969478">
        <ele>1777.6</ele>
        <time>2026-05-06T12:22:06.000Z</time>
      </trkpt>
      <trkpt lat="41.790836" lon="22.96947">
        <ele>1777.6</ele>
        <time>2026-05-06T12:22:07.000Z</time>
      </trkpt>
      <trkpt lat="41.790837" lon="22.969459">
        <ele>1778</ele>
        <time>2026-05-06T12:22:08.000Z</time>
      </trkpt>
      <trkpt lat="41.790838" lon="22.969448">
        <ele>1778</ele>
        <time>2026-05-06T12:22:09.000Z</time>
      </trkpt>
      <trkpt lat="41.790838" lon="22.969438">
        <ele>1778</ele>
        <time>2026-05-06T12:22:10.000Z</time>
      </trkpt>
      <trkpt lat="41.790837" lon="22.969428">
        <ele>1778</ele>
        <time>2026-05-06T12:22:11.000Z</time>
      </trkpt>
      <trkpt lat="41.790836" lon="22.969418">
        <ele>1778</ele>
        <time>2026-05-06T12:22:12.000Z</time>
      </trkpt>
      <trkpt lat="41.790834" lon="22.969409">
        <ele>1778.2</ele>
        <time>2026-05-06T12:22:13.000Z</time>
      </trkpt>
      <trkpt lat="41.79083" lon="22.969401">
        <ele>1778.2</ele>
        <time>2026-05-06T12:22:14.000Z</time>
      </trkpt>
      <trkpt lat="41.790827" lon="22.969393">
        <ele>1778.2</ele>
        <time>2026-05-06T12:22:15.000Z</time>
      </trkpt>
      <trkpt lat="41.790824" lon="22.969386">
        <ele>1778.2</ele>
        <time>2026-05-06T12:22:16.000Z</time>
      </trkpt>
      <trkpt lat="41.79082" lon="22.969379">
        <ele>1778.2</ele>
        <time>2026-05-06T12:22:17.000Z</time>
      </trkpt>
      <trkpt lat="41.790817" lon="22.969373">
        <ele>1778.3</ele>
        <time>2026-05-06T12:22:18.000Z</time>
      </trkpt>
      <trkpt lat="41.790813" lon="22.969367">
        <ele>1778.3</ele>
        <time>2026-05-06T12:22:19.000Z</time>
      </trkpt>
      <trkpt lat="41.79081" lon="22.969359">
        <ele>1778.3</ele>
        <time>2026-05-06T12:22:20.000Z</time>
      </trkpt>
      <trkpt lat="41.790808" lon="22.969352">
        <ele>1778.3</ele>
        <time>2026-05-06T12:22:21.000Z</time>
      </trkpt>
      <trkpt lat="41.790806" lon="22.969347">
        <ele>1778.3</ele>
        <time>2026-05-06T12:22:22.000Z</time>
      </trkpt>
      <trkpt lat="41.790803" lon="22.969344">
        <ele>1778.9</ele>
        <time>2026-05-06T12:22:23.000Z</time>
      </trkpt>
      <trkpt lat="41.790801" lon="22.969341">
        <ele>1778.9</ele>
        <time>2026-05-06T12:22:24.000Z</time>
      </trkpt>
      <trkpt lat="41.790798" lon="22.969339">
        <ele>1778.9</ele>
        <time>2026-05-06T12:22:25.000Z</time>
      </trkpt>
      <trkpt lat="41.790794" lon="22.969336">
        <ele>1778.9</ele>
        <time>2026-05-06T12:22:26.000Z</time>
      </trkpt>
      <trkpt lat="41.790791" lon="22.969331">
        <ele>1778.9</ele>
        <time>2026-05-06T12:22:27.000Z</time>
      </trkpt>
      <trkpt lat="41.790789" lon="22.969326">
        <ele>1780</ele>
        <time>2026-05-06T12:22:28.000Z</time>
      </trkpt>
      <trkpt lat="41.790788" lon="22.969321">
        <ele>1780</ele>
        <time>2026-05-06T12:22:29.000Z</time>
      </trkpt>
      <trkpt lat="41.790788" lon="22.969316">
        <ele>1780</ele>
        <time>2026-05-06T12:22:30.000Z</time>
      </trkpt>
      <trkpt lat="41.790788" lon="22.969312">
        <ele>1780</ele>
        <time>2026-05-06T12:22:31.000Z</time>
      </trkpt>
      <trkpt lat="41.790787" lon="22.969308">
        <ele>1780</ele>
        <time>2026-05-06T12:22:32.000Z</time>
      </trkpt>
      <trkpt lat="41.790785" lon="22.969304">
        <ele>1780.6</ele>
        <time>2026-05-06T12:22:33.000Z</time>
      </trkpt>
      <trkpt lat="41.790782" lon="22.969299">
        <ele>1780.6</ele>
        <time>2026-05-06T12:22:34.000Z</time>
      </trkpt>
      <trkpt lat="41.79078" lon="22.969293">
        <ele>1780.6</ele>
        <time>2026-05-06T12:22:35.000Z</time>
      </trkpt>
      <trkpt lat="41.790778" lon="22.969286">
        <ele>1780.6</ele>
        <time>2026-05-06T12:22:36.000Z</time>
      </trkpt>
      <trkpt lat="41.790777" lon="22.969279">
        <ele>1780.6</ele>
        <time>2026-05-06T12:22:37.000Z</time>
      </trkpt>
      <trkpt lat="41.790776" lon="22.969273">
        <ele>1782</ele>
        <time>2026-05-06T12:22:38.000Z</time>
      </trkpt>
      <trkpt lat="41.790775" lon="22.969267">
        <ele>1782</ele>
        <time>2026-05-06T12:22:39.000Z</time>
      </trkpt>
      <trkpt lat="41.790774" lon="22.969262">
        <ele>1782</ele>
        <time>2026-05-06T12:22:40.000Z</time>
      </trkpt>
      <trkpt lat="41.790773" lon="22.969257">
        <ele>1782</ele>
        <time>2026-05-06T12:22:41.000Z</time>
      </trkpt>
      <trkpt lat="41.790771" lon="22.969252">
        <ele>1782</ele>
        <time>2026-05-06T12:22:42.000Z</time>
      </trkpt>
      <trkpt lat="41.790769" lon="22.969248">
        <ele>1783.2</ele>
        <time>2026-05-06T12:22:43.000Z</time>
      </trkpt>
      <trkpt lat="41.790767" lon="22.969243">
        <ele>1783.2</ele>
        <time>2026-05-06T12:22:44.000Z</time>
      </trkpt>
      <trkpt lat="41.790763" lon="22.969238">
        <ele>1783.2</ele>
        <time>2026-05-06T12:22:45.000Z</time>
      </trkpt>
      <trkpt lat="41.790759" lon="22.969233">
        <ele>1783.2</ele>
        <time>2026-05-06T12:22:46.000Z</time>
      </trkpt>
      <trkpt lat="41.790755" lon="22.969228">
        <ele>1783.2</ele>
        <time>2026-05-06T12:22:47.000Z</time>
      </trkpt>
      <trkpt lat="41.790751" lon="22.969224">
        <ele>1783.7</ele>
        <time>2026-05-06T12:22:48.000Z</time>
      </trkpt>
      <trkpt lat="41.790747" lon="22.969219">
        <ele>1783.7</ele>
        <time>2026-05-06T12:22:49.000Z</time>
      </trkpt>
      <trkpt lat="41.790743" lon="22.969214">
        <ele>1783.7</ele>
        <time>2026-05-06T12:22:50.000Z</time>
      </trkpt>
      <trkpt lat="41.790739" lon="22.969209">
        <ele>1783.7</ele>
        <time>2026-05-06T12:22:51.000Z</time>
      </trkpt>
      <trkpt lat="41.790735" lon="22.969204">
        <ele>1783.7</ele>
        <time>2026-05-06T12:22:52.000Z</time>
      </trkpt>
      <trkpt lat="41.790731" lon="22.969199">
        <ele>1784.7</ele>
        <time>2026-05-06T12:22:53.000Z</time>
      </trkpt>
      <trkpt lat="41.790726" lon="22.969193">
        <ele>1784.7</ele>
        <time>2026-05-06T12:22:54.000Z</time>
      </trkpt>
      <trkpt lat="41.790722" lon="22.969189">
        <ele>1784.7</ele>
        <time>2026-05-06T12:22:55.000Z</time>
      </trkpt>
      <trkpt lat="41.790716" lon="22.969183">
        <ele>1784.7</ele>
        <time>2026-05-06T12:22:56.000Z</time>
      </trkpt>
      <trkpt lat="41.790711" lon="22.969178">
        <ele>1784.7</ele>
        <time>2026-05-06T12:22:57.000Z</time>
      </trkpt>
      <trkpt lat="41.790706" lon="22.969172">
        <ele>1785.9</ele>
        <time>2026-05-06T12:22:58.000Z</time>
      </trkpt>
      <trkpt lat="41.790701" lon="22.969169">
        <ele>1785.9</ele>
        <time>2026-05-06T12:22:59.000Z</time>
      </trkpt>
      <trkpt lat="41.790696" lon="22.969166">
        <ele>1785.9</ele>
        <time>2026-05-06T12:23:00.000Z</time>
      </trkpt>
      <trkpt lat="41.790692" lon="22.969165">
        <ele>1785.9</ele>
        <time>2026-05-06T12:23:01.000Z</time>
      </trkpt>
      <trkpt lat="41.790687" lon="22.969165">
        <ele>1785.9</ele>
        <time>2026-05-06T12:23:02.000Z</time>
      </trkpt>
      <trkpt lat="41.790682" lon="22.969165">
        <ele>1786.5</ele>
        <time>2026-05-06T12:23:03.000Z</time>
      </trkpt>
      <trkpt lat="41.790678" lon="22.969166">
        <ele>1786.5</ele>
        <time>2026-05-06T12:23:04.000Z</time>
      </trkpt>
      <trkpt lat="41.790672" lon="22.969168">
        <ele>1786.5</ele>
        <time>2026-05-06T12:23:05.000Z</time>
      </trkpt>
      <trkpt lat="41.790666" lon="22.96917">
        <ele>1786.5</ele>
        <time>2026-05-06T12:23:06.000Z</time>
      </trkpt>
      <trkpt lat="41.790659" lon="22.969172">
        <ele>1786.5</ele>
        <time>2026-05-06T12:23:07.000Z</time>
      </trkpt>
      <trkpt lat="41.790653" lon="22.969177">
        <ele>1787.8</ele>
        <time>2026-05-06T12:23:08.000Z</time>
      </trkpt>
      <trkpt lat="41.790647" lon="22.969181">
        <ele>1787.8</ele>
        <time>2026-05-06T12:23:09.000Z</time>
      </trkpt>
      <trkpt lat="41.790641" lon="22.969184">
        <ele>1787.8</ele>
        <time>2026-05-06T12:23:10.000Z</time>
      </trkpt>
      <trkpt lat="41.790635" lon="22.969188">
        <ele>1787.8</ele>
        <time>2026-05-06T12:23:11.000Z</time>
      </trkpt>
      <trkpt lat="41.79063" lon="22.969191">
        <ele>1787.8</ele>
        <time>2026-05-06T12:23:12.000Z</time>
      </trkpt>
      <trkpt lat="41.790623" lon="22.969192">
        <ele>1789.1</ele>
        <time>2026-05-06T12:23:13.000Z</time>
      </trkpt>
      <trkpt lat="41.790616" lon="22.969193">
        <ele>1789.1</ele>
        <time>2026-05-06T12:23:14.000Z</time>
      </trkpt>
      <trkpt lat="41.79061" lon="22.969193">
        <ele>1789.1</ele>
        <time>2026-05-06T12:23:15.000Z</time>
      </trkpt>
      <trkpt lat="41.790602" lon="22.969193">
        <ele>1789.1</ele>
        <time>2026-05-06T12:23:16.000Z</time>
      </trkpt>
      <trkpt lat="41.790595" lon="22.969195">
        <ele>1789.1</ele>
        <time>2026-05-06T12:23:17.000Z</time>
      </trkpt>
      <trkpt lat="41.790588" lon="22.969196">
        <ele>1789.7</ele>
        <time>2026-05-06T12:23:18.000Z</time>
      </trkpt>
      <trkpt lat="41.790582" lon="22.969199">
        <ele>1789.7</ele>
        <time>2026-05-06T12:23:19.000Z</time>
      </trkpt>
      <trkpt lat="41.790577" lon="22.9692">
        <ele>1789.7</ele>
        <time>2026-05-06T12:23:20.000Z</time>
      </trkpt>
      <trkpt lat="41.790571" lon="22.969203">
        <ele>1789.7</ele>
        <time>2026-05-06T12:23:21.000Z</time>
      </trkpt>
      <trkpt lat="41.790566" lon="22.969203">
        <ele>1789.7</ele>
        <time>2026-05-06T12:23:22.000Z</time>
      </trkpt>
      <trkpt lat="41.790562" lon="22.969202">
        <ele>1790.6</ele>
        <time>2026-05-06T12:23:23.000Z</time>
      </trkpt>
      <trkpt lat="41.790558" lon="22.969201">
        <ele>1790.6</ele>
        <time>2026-05-06T12:23:24.000Z</time>
      </trkpt>
      <trkpt lat="41.790553" lon="22.969197">
        <ele>1790.6</ele>
        <time>2026-05-06T12:23:25.000Z</time>
      </trkpt>
      <trkpt lat="41.79055" lon="22.969194">
        <ele>1790.6</ele>
        <time>2026-05-06T12:23:26.000Z</time>
      </trkpt>
      <trkpt lat="41.790546" lon="22.96919">
        <ele>1790.6</ele>
        <time>2026-05-06T12:23:27.000Z</time>
      </trkpt>
      <trkpt lat="41.790541" lon="22.969187">
        <ele>1791.4</ele>
        <time>2026-05-06T12:23:28.000Z</time>
      </trkpt>
      <trkpt lat="41.790536" lon="22.969186">
        <ele>1791.4</ele>
        <time>2026-05-06T12:23:29.000Z</time>
      </trkpt>
      <trkpt lat="41.790532" lon="22.969185">
        <ele>1791.4</ele>
        <time>2026-05-06T12:23:30.000Z</time>
      </trkpt>
      <trkpt lat="41.790526" lon="22.969185">
        <ele>1791.4</ele>
        <time>2026-05-06T12:23:31.000Z</time>
      </trkpt>
      <trkpt lat="41.790521" lon="22.969184">
        <ele>1791.4</ele>
        <time>2026-05-06T12:23:32.000Z</time>
      </trkpt>
      <trkpt lat="41.790517" lon="22.969182">
        <ele>1791.8</ele>
        <time>2026-05-06T12:23:33.000Z</time>
      </trkpt>
      <trkpt lat="41.790514" lon="22.96918">
        <ele>1791.8</ele>
        <time>2026-05-06T12:23:34.000Z</time>
      </trkpt>
      <trkpt lat="41.79051" lon="22.969176">
        <ele>1791.8</ele>
        <time>2026-05-06T12:23:35.000Z</time>
      </trkpt>
      <trkpt lat="41.790508" lon="22.969173">
        <ele>1791.8</ele>
        <time>2026-05-06T12:23:36.000Z</time>
      </trkpt>
      <trkpt lat="41.790504" lon="22.969169">
        <ele>1791.8</ele>
        <time>2026-05-06T12:23:37.000Z</time>
      </trkpt>
      <trkpt lat="41.790501" lon="22.969166">
        <ele>1792.9</ele>
        <time>2026-05-06T12:23:38.000Z</time>
      </trkpt>
      <trkpt lat="41.790496" lon="22.969161">
        <ele>1792.9</ele>
        <time>2026-05-06T12:23:39.000Z</time>
      </trkpt>
      <trkpt lat="41.790492" lon="22.969158">
        <ele>1792.9</ele>
        <time>2026-05-06T12:23:40.000Z</time>
      </trkpt>
      <trkpt lat="41.790488" lon="22.969156">
        <ele>1792.9</ele>
        <time>2026-05-06T12:23:41.000Z</time>
      </trkpt>
      <trkpt lat="41.790483" lon="22.969157">
        <ele>1792.9</ele>
        <time>2026-05-06T12:23:42.000Z</time>
      </trkpt>
      <trkpt lat="41.790477" lon="22.969156">
        <ele>1794.3</ele>
        <time>2026-05-06T12:23:43.000Z</time>
      </trkpt>
      <trkpt lat="41.790471" lon="22.969158">
        <ele>1794.3</ele>
        <time>2026-05-06T12:23:44.000Z</time>
      </trkpt>
      <trkpt lat="41.790464" lon="22.969158">
        <ele>1794.3</ele>
        <time>2026-05-06T12:23:45.000Z</time>
      </trkpt>
      <trkpt lat="41.790456" lon="22.969158">
        <ele>1794.3</ele>
        <time>2026-05-06T12:23:46.000Z</time>
      </trkpt>
      <trkpt lat="41.790449" lon="22.969159">
        <ele>1794.3</ele>
        <time>2026-05-06T12:23:47.000Z</time>
      </trkpt>
      <trkpt lat="41.790441" lon="22.96916">
        <ele>1795.1</ele>
        <time>2026-05-06T12:23:48.000Z</time>
      </trkpt>
      <trkpt lat="41.790435" lon="22.969159">
        <ele>1795.1</ele>
        <time>2026-05-06T12:23:49.000Z</time>
      </trkpt>
      <trkpt lat="41.790427" lon="22.96916">
        <ele>1795.1</ele>
        <time>2026-05-06T12:23:50.000Z</time>
      </trkpt>
      <trkpt lat="41.790421" lon="22.969161">
        <ele>1795.1</ele>
        <time>2026-05-06T12:23:51.000Z</time>
      </trkpt>
      <trkpt lat="41.790414" lon="22.969161">
        <ele>1795.1</ele>
        <time>2026-05-06T12:23:52.000Z</time>
      </trkpt>
      <trkpt lat="41.790407" lon="22.969163">
        <ele>1796.5</ele>
        <time>2026-05-06T12:23:53.000Z</time>
      </trkpt>
      <trkpt lat="41.790401" lon="22.969165">
        <ele>1796.5</ele>
        <time>2026-05-06T12:23:54.000Z</time>
      </trkpt>
      <trkpt lat="41.790394" lon="22.969168">
        <ele>1796.5</ele>
        <time>2026-05-06T12:23:55.000Z</time>
      </trkpt>
      <trkpt lat="41.790389" lon="22.969169">
        <ele>1796.5</ele>
        <time>2026-05-06T12:23:56.000Z</time>
      </trkpt>
      <trkpt lat="41.790383" lon="22.969171">
        <ele>1796.5</ele>
        <time>2026-05-06T12:23:57.000Z</time>
      </trkpt>
      <trkpt lat="41.790379" lon="22.969173">
        <ele>1797.9</ele>
        <time>2026-05-06T12:23:58.000Z</time>
      </trkpt>
      <trkpt lat="41.790376" lon="22.969175">
        <ele>1797.9</ele>
        <time>2026-05-06T12:23:59.000Z</time>
      </trkpt>
      <trkpt lat="41.790375" lon="22.969176">
        <ele>1797.9</ele>
        <time>2026-05-06T12:24:00.000Z</time>
      </trkpt>
      <trkpt lat="41.790374" lon="22.969177">
        <ele>1797.9</ele>
        <time>2026-05-06T12:24:01.000Z</time>
      </trkpt>
      <trkpt lat="41.790374" lon="22.969178">
        <ele>1797.9</ele>
        <time>2026-05-06T12:24:02.000Z</time>
      </trkpt>
      <trkpt lat="41.790375" lon="22.969178">
        <ele>1798.5</ele>
        <time>2026-05-06T12:24:03.000Z</time>
      </trkpt>
      <trkpt lat="41.790375" lon="22.969178">
        <ele>1798.5</ele>
        <time>2026-05-06T12:24:04.000Z</time>
      </trkpt>
      <trkpt lat="41.790375" lon="22.969177">
        <ele>1798.5</ele>
        <time>2026-05-06T12:24:05.000Z</time>
      </trkpt>
      <trkpt lat="41.790375" lon="22.969177">
        <ele>1798.5</ele>
        <time>2026-05-06T12:24:06.000Z</time>
      </trkpt>
      <trkpt lat="41.790375" lon="22.969178">
        <ele>1798.5</ele>
        <time>2026-05-06T12:24:07.000Z</time>
      </trkpt>
      <trkpt lat="41.790375" lon="22.969178">
        <ele>1799.8</ele>
        <time>2026-05-06T12:24:08.000Z</time>
      </trkpt>
      <trkpt lat="41.790375" lon="22.969179">
        <ele>1799.8</ele>
        <time>2026-05-06T12:24:09.000Z</time>
      </trkpt>
      <trkpt lat="41.790374" lon="22.96918">
        <ele>1799.8</ele>
        <time>2026-05-06T12:24:10.000Z</time>
      </trkpt>
      <trkpt lat="41.790374" lon="22.969181">
        <ele>1799.8</ele>
        <time>2026-05-06T12:24:11.000Z</time>
      </trkpt>
      <trkpt lat="41.790374" lon="22.969182">
        <ele>1799.8</ele>
        <time>2026-05-06T12:24:12.000Z</time>
      </trkpt>
      <trkpt lat="41.790374" lon="22.969182">
        <ele>1800.5</ele>
        <time>2026-05-06T12:24:13.000Z</time>
      </trkpt>
      <trkpt lat="41.790374" lon="22.969183">
        <ele>1800.5</ele>
        <time>2026-05-06T12:24:14.000Z</time>
      </trkpt>
      <trkpt lat="41.790373" lon="22.969184">
        <ele>1800.5</ele>
        <time>2026-05-06T12:24:15.000Z</time>
      </trkpt>
      <trkpt lat="41.790371" lon="22.969185">
        <ele>1800.5</ele>
        <time>2026-05-06T12:24:16.000Z</time>
      </trkpt>
      <trkpt lat="41.790367" lon="22.969186">
        <ele>1800.5</ele>
        <time>2026-05-06T12:24:17.000Z</time>
      </trkpt>
      <trkpt lat="41.790364" lon="22.969188">
        <ele>1800.6</ele>
        <time>2026-05-06T12:24:18.000Z</time>
      </trkpt>
      <trkpt lat="41.790359" lon="22.96919">
        <ele>1800.6</ele>
        <time>2026-05-06T12:24:19.000Z</time>
      </trkpt>
      <trkpt lat="41.790356" lon="22.969192">
        <ele>1800.6</ele>
        <time>2026-05-06T12:24:20.000Z</time>
      </trkpt>
      <trkpt lat="41.790354" lon="22.969195">
        <ele>1800.6</ele>
        <time>2026-05-06T12:24:21.000Z</time>
      </trkpt>
      <trkpt lat="41.790352" lon="22.969201">
        <ele>1800.6</ele>
        <time>2026-05-06T12:24:22.000Z</time>
      </trkpt>
      <trkpt lat="41.790348" lon="22.969208">
        <ele>1800.5</ele>
        <time>2026-05-06T12:24:23.000Z</time>
      </trkpt>
      <trkpt lat="41.790344" lon="22.969214">
        <ele>1800.5</ele>
        <time>2026-05-06T12:24:24.000Z</time>
      </trkpt>
      <trkpt lat="41.790339" lon="22.969219">
        <ele>1800.5</ele>
        <time>2026-05-06T12:24:25.000Z</time>
      </trkpt>
      <trkpt lat="41.790332" lon="22.969221">
        <ele>1800.5</ele>
        <time>2026-05-06T12:24:26.000Z</time>
      </trkpt>
      <trkpt lat="41.790326" lon="22.96922">
        <ele>1800.5</ele>
        <time>2026-05-06T12:24:27.000Z</time>
      </trkpt>
      <trkpt lat="41.790321" lon="22.969219">
        <ele>1800.6</ele>
        <time>2026-05-06T12:24:28.000Z</time>
      </trkpt>
      <trkpt lat="41.790317" lon="22.969216">
        <ele>1800.6</ele>
        <time>2026-05-06T12:24:29.000Z</time>
      </trkpt>
      <trkpt lat="41.790313" lon="22.969213">
        <ele>1800.6</ele>
        <time>2026-05-06T12:24:30.000Z</time>
      </trkpt>
      <trkpt lat="41.790309" lon="22.969211">
        <ele>1800.6</ele>
        <time>2026-05-06T12:24:31.000Z</time>
      </trkpt>
      <trkpt lat="41.790305" lon="22.96921">
        <ele>1800.6</ele>
        <time>2026-05-06T12:24:32.000Z</time>
      </trkpt>
      <trkpt lat="41.7903" lon="22.969209">
        <ele>1800.9</ele>
        <time>2026-05-06T12:24:33.000Z</time>
      </trkpt>
      <trkpt lat="41.790296" lon="22.969209">
        <ele>1800.9</ele>
        <time>2026-05-06T12:24:34.000Z</time>
      </trkpt>
      <trkpt lat="41.790292" lon="22.96921">
        <ele>1800.9</ele>
        <time>2026-05-06T12:24:35.000Z</time>
      </trkpt>
      <trkpt lat="41.790287" lon="22.969212">
        <ele>1800.9</ele>
        <time>2026-05-06T12:24:36.000Z</time>
      </trkpt>
      <trkpt lat="41.790283" lon="22.969216">
        <ele>1800.9</ele>
        <time>2026-05-06T12:24:37.000Z</time>
      </trkpt>
      <trkpt lat="41.790279" lon="22.96922">
        <ele>1801.9</ele>
        <time>2026-05-06T12:24:38.000Z</time>
      </trkpt>
      <trkpt lat="41.790274" lon="22.969226">
        <ele>1801.9</ele>
        <time>2026-05-06T12:24:39.000Z</time>
      </trkpt>
      <trkpt lat="41.790268" lon="22.969231">
        <ele>1801.9</ele>
        <time>2026-05-06T12:24:40.000Z</time>
      </trkpt>
      <trkpt lat="41.790262" lon="22.969236">
        <ele>1801.9</ele>
        <time>2026-05-06T12:24:41.000Z</time>
      </trkpt>
      <trkpt lat="41.790256" lon="22.96924">
        <ele>1801.9</ele>
        <time>2026-05-06T12:24:42.000Z</time>
      </trkpt>
      <trkpt lat="41.79025" lon="22.969244">
        <ele>1802.9</ele>
        <time>2026-05-06T12:24:43.000Z</time>
      </trkpt>
      <trkpt lat="41.790244" lon="22.969246">
        <ele>1802.9</ele>
        <time>2026-05-06T12:24:44.000Z</time>
      </trkpt>
      <trkpt lat="41.790239" lon="22.969248">
        <ele>1802.9</ele>
        <time>2026-05-06T12:24:45.000Z</time>
      </trkpt>
      <trkpt lat="41.790232" lon="22.969251">
        <ele>1802.9</ele>
        <time>2026-05-06T12:24:46.000Z</time>
      </trkpt>
      <trkpt lat="41.790227" lon="22.969254">
        <ele>1802.9</ele>
        <time>2026-05-06T12:24:47.000Z</time>
      </trkpt>
      <trkpt lat="41.79022" lon="22.969257">
        <ele>1803.4</ele>
        <time>2026-05-06T12:24:48.000Z</time>
      </trkpt>
      <trkpt lat="41.790214" lon="22.96926">
        <ele>1803.4</ele>
        <time>2026-05-06T12:24:49.000Z</time>
      </trkpt>
      <trkpt lat="41.790209" lon="22.969264">
        <ele>1803.4</ele>
        <time>2026-05-06T12:24:50.000Z</time>
      </trkpt>
      <trkpt lat="41.790203" lon="22.969266">
        <ele>1803.4</ele>
        <time>2026-05-06T12:24:51.000Z</time>
      </trkpt>
      <trkpt lat="41.790198" lon="22.969267">
        <ele>1803.4</ele>
        <time>2026-05-06T12:24:52.000Z</time>
      </trkpt>
      <trkpt lat="41.790193" lon="22.96927">
        <ele>1804.5</ele>
        <time>2026-05-06T12:24:53.000Z</time>
      </trkpt>
      <trkpt lat="41.790188" lon="22.969272">
        <ele>1804.5</ele>
        <time>2026-05-06T12:24:54.000Z</time>
      </trkpt>
      <trkpt lat="41.790183" lon="22.969276">
        <ele>1804.5</ele>
        <time>2026-05-06T12:24:55.000Z</time>
      </trkpt>
      <trkpt lat="41.790178" lon="22.96928">
        <ele>1804.5</ele>
        <time>2026-05-06T12:24:56.000Z</time>
      </trkpt>
      <trkpt lat="41.790173" lon="22.969285">
        <ele>1804.5</ele>
        <time>2026-05-06T12:24:57.000Z</time>
      </trkpt>
      <trkpt lat="41.790169" lon="22.96929">
        <ele>1805.8</ele>
        <time>2026-05-06T12:24:58.000Z</time>
      </trkpt>
      <trkpt lat="41.790165" lon="22.969296">
        <ele>1805.8</ele>
        <time>2026-05-06T12:24:59.000Z</time>
      </trkpt>
      <trkpt lat="41.79016" lon="22.969303">
        <ele>1805.8</ele>
        <time>2026-05-06T12:25:00.000Z</time>
      </trkpt>
      <trkpt lat="41.790156" lon="22.969308">
        <ele>1805.8</ele>
        <time>2026-05-06T12:25:01.000Z</time>
      </trkpt>
      <trkpt lat="41.790151" lon="22.969314">
        <ele>1805.8</ele>
        <time>2026-05-06T12:25:02.000Z</time>
      </trkpt>
      <trkpt lat="41.790147" lon="22.969317">
        <ele>1806.5</ele>
        <time>2026-05-06T12:25:03.000Z</time>
      </trkpt>
      <trkpt lat="41.790142" lon="22.96932">
        <ele>1806.5</ele>
        <time>2026-05-06T12:25:04.000Z</time>
      </trkpt>
      <trkpt lat="41.790138" lon="22.969322">
        <ele>1806.5</ele>
        <time>2026-05-06T12:25:05.000Z</time>
      </trkpt>
      <trkpt lat="41.790133" lon="22.969324">
        <ele>1806.5</ele>
        <time>2026-05-06T12:25:06.000Z</time>
      </trkpt>
      <trkpt lat="41.790128" lon="22.969324">
        <ele>1806.5</ele>
        <time>2026-05-06T12:25:07.000Z</time>
      </trkpt>
      <trkpt lat="41.790123" lon="22.969326">
        <ele>1807.8</ele>
        <time>2026-05-06T12:25:08.000Z</time>
      </trkpt>
      <trkpt lat="41.790119" lon="22.969328">
        <ele>1807.8</ele>
        <time>2026-05-06T12:25:09.000Z</time>
      </trkpt>
      <trkpt lat="41.790113" lon="22.969332">
        <ele>1807.8</ele>
        <time>2026-05-06T12:25:10.000Z</time>
      </trkpt>
      <trkpt lat="41.790109" lon="22.969336">
        <ele>1807.8</ele>
        <time>2026-05-06T12:25:11.000Z</time>
      </trkpt>
      <trkpt lat="41.790103" lon="22.969341">
        <ele>1807.8</ele>
        <time>2026-05-06T12:25:12.000Z</time>
      </trkpt>
      <trkpt lat="41.790097" lon="22.969346">
        <ele>1809.1</ele>
        <time>2026-05-06T12:25:13.000Z</time>
      </trkpt>
      <trkpt lat="41.79009" lon="22.96935">
        <ele>1809.1</ele>
        <time>2026-05-06T12:25:14.000Z</time>
      </trkpt>
      <trkpt lat="41.790084" lon="22.969354">
        <ele>1809.1</ele>
        <time>2026-05-06T12:25:15.000Z</time>
      </trkpt>
      <trkpt lat="41.790079" lon="22.969358">
        <ele>1809.1</ele>
        <time>2026-05-06T12:25:16.000Z</time>
      </trkpt>
      <trkpt lat="41.790072" lon="22.96936">
        <ele>1809.1</ele>
        <time>2026-05-06T12:25:17.000Z</time>
      </trkpt>
      <trkpt lat="41.790066" lon="22.969362">
        <ele>1809.7</ele>
        <time>2026-05-06T12:25:18.000Z</time>
      </trkpt>
      <trkpt lat="41.79006" lon="22.969363">
        <ele>1809.7</ele>
        <time>2026-05-06T12:25:19.000Z</time>
      </trkpt>
      <trkpt lat="41.790052" lon="22.969362">
        <ele>1809.7</ele>
        <time>2026-05-06T12:25:20.000Z</time>
      </trkpt>
      <trkpt lat="41.790047" lon="22.969359">
        <ele>1809.7</ele>
        <time>2026-05-06T12:25:21.000Z</time>
      </trkpt>
      <trkpt lat="41.790042" lon="22.969356">
        <ele>1809.7</ele>
        <time>2026-05-06T12:25:22.000Z</time>
      </trkpt>
      <trkpt lat="41.790039" lon="22.969354">
        <ele>1810.6</ele>
        <time>2026-05-06T12:25:23.000Z</time>
      </trkpt>
      <trkpt lat="41.790037" lon="22.969353">
        <ele>1810.6</ele>
        <time>2026-05-06T12:25:24.000Z</time>
      </trkpt>
      <trkpt lat="41.790035" lon="22.969353">
        <ele>1810.6</ele>
        <time>2026-05-06T12:25:25.000Z</time>
      </trkpt>
      <trkpt lat="41.790033" lon="22.969353">
        <ele>1810.6</ele>
        <time>2026-05-06T12:25:26.000Z</time>
      </trkpt>
      <trkpt lat="41.790031" lon="22.969354">
        <ele>1810.6</ele>
        <time>2026-05-06T12:25:27.000Z</time>
      </trkpt>
      <trkpt lat="41.790028" lon="22.969354">
        <ele>1811.2</ele>
        <time>2026-05-06T12:25:28.000Z</time>
      </trkpt>
      <trkpt lat="41.790027" lon="22.969352">
        <ele>1811.2</ele>
        <time>2026-05-06T12:25:29.000Z</time>
      </trkpt>
      <trkpt lat="41.790026" lon="22.969352">
        <ele>1811.2</ele>
        <time>2026-05-06T12:25:30.000Z</time>
      </trkpt>
      <trkpt lat="41.790025" lon="22.969351">
        <ele>1811.2</ele>
        <time>2026-05-06T12:25:31.000Z</time>
      </trkpt>
      <trkpt lat="41.790025" lon="22.969351">
        <ele>1811.2</ele>
        <time>2026-05-06T12:25:32.000Z</time>
      </trkpt>
      <trkpt lat="41.790024" lon="22.96935">
        <ele>1811.6</ele>
        <time>2026-05-06T12:25:33.000Z</time>
      </trkpt>
      <trkpt lat="41.790025" lon="22.96935">
        <ele>1811.6</ele>
        <time>2026-05-06T12:25:34.000Z</time>
      </trkpt>
      <trkpt lat="41.790025" lon="22.96935">
        <ele>1811.6</ele>
        <time>2026-05-06T12:25:35.000Z</time>
      </trkpt>
      <trkpt lat="41.790025" lon="22.969351">
        <ele>1811.6</ele>
        <time>2026-05-06T12:25:36.000Z</time>
      </trkpt>
      <trkpt lat="41.790025" lon="22.969351">
        <ele>1811.6</ele>
        <time>2026-05-06T12:25:37.000Z</time>
      </trkpt>
      <trkpt lat="41.790025" lon="22.969351">
        <ele>1812.4</ele>
        <time>2026-05-06T12:25:38.000Z</time>
      </trkpt>
      <trkpt lat="41.790026" lon="22.96935">
        <ele>1812.4</ele>
        <time>2026-05-06T12:25:39.000Z</time>
      </trkpt>
      <trkpt lat="41.790026" lon="22.969349">
        <ele>1812.4</ele>
        <time>2026-05-06T12:25:40.000Z</time>
      </trkpt>
      <trkpt lat="41.790027" lon="22.969348">
        <ele>1812.4</ele>
        <time>2026-05-06T12:25:41.000Z</time>
      </trkpt>
      <trkpt lat="41.790028" lon="22.969348">
        <ele>1812.4</ele>
        <time>2026-05-06T12:25:42.000Z</time>
      </trkpt>
      <trkpt lat="41.790029" lon="22.969348">
        <ele>1813.1</ele>
        <time>2026-05-06T12:25:43.000Z</time>
      </trkpt>
      <trkpt lat="41.790029" lon="22.969348">
        <ele>1813.1</ele>
        <time>2026-05-06T12:25:44.000Z</time>
      </trkpt>
      <trkpt lat="41.790029" lon="22.969349">
        <ele>1813.1</ele>
        <time>2026-05-06T12:25:45.000Z</time>
      </trkpt>
      <trkpt lat="41.790029" lon="22.96935">
        <ele>1813.1</ele>
        <time>2026-05-06T12:25:46.000Z</time>
      </trkpt>
      <trkpt lat="41.790028" lon="22.969352">
        <ele>1813.1</ele>
        <time>2026-05-06T12:25:47.000Z</time>
      </trkpt>
      <trkpt lat="41.790028" lon="22.969353">
        <ele>1813.1</ele>
        <time>2026-05-06T12:25:48.000Z</time>
      </trkpt>
      <trkpt lat="41.790027" lon="22.969354">
        <ele>1813.1</ele>
        <time>2026-05-06T12:25:49.000Z</time>
      </trkpt>
      <trkpt lat="41.790026" lon="22.969353">
        <ele>1813.1</ele>
        <time>2026-05-06T12:25:50.000Z</time>
      </trkpt>
      <trkpt lat="41.790026" lon="22.969354">
        <ele>1813.1</ele>
        <time>2026-05-06T12:25:51.000Z</time>
      </trkpt>
      <trkpt lat="41.790026" lon="22.969353">
        <ele>1813.1</ele>
        <time>2026-05-06T12:25:52.000Z</time>
      </trkpt>
      <trkpt lat="41.790027" lon="22.969354">
        <ele>1813.2</ele>
        <time>2026-05-06T12:25:53.000Z</time>
      </trkpt>
      <trkpt lat="41.790027" lon="22.969355">
        <ele>1813.2</ele>
        <time>2026-05-06T12:25:54.000Z</time>
      </trkpt>
      <trkpt lat="41.790029" lon="22.969358">
        <ele>1813.2</ele>
        <time>2026-05-06T12:25:55.000Z</time>
      </trkpt>
      <trkpt lat="41.79003" lon="22.969359">
        <ele>1813.2</ele>
        <time>2026-05-06T12:25:56.000Z</time>
      </trkpt>
      <trkpt lat="41.790031" lon="22.969361">
        <ele>1813.2</ele>
        <time>2026-05-06T12:25:57.000Z</time>
      </trkpt>
      <trkpt lat="41.790031" lon="22.969362">
        <ele>1813.6</ele>
        <time>2026-05-06T12:25:58.000Z</time>
      </trkpt>
      <trkpt lat="41.790031" lon="22.969364">
        <ele>1813.6</ele>
        <time>2026-05-06T12:25:59.000Z</time>
      </trkpt>
      <trkpt lat="41.790031" lon="22.969364">
        <ele>1813.6</ele>
        <time>2026-05-06T12:26:00.000Z</time>
      </trkpt>
      <trkpt lat="41.790031" lon="22.969364">
        <ele>1813.6</ele>
        <time>2026-05-06T12:26:01.000Z</time>
      </trkpt>
      <trkpt lat="41.79003" lon="22.969363">
        <ele>1813.6</ele>
        <time>2026-05-06T12:26:02.000Z</time>
      </trkpt>
      <trkpt lat="41.79003" lon="22.969362">
        <ele>1813.6</ele>
        <time>2026-05-06T12:26:03.000Z</time>
      </trkpt>
      <trkpt lat="41.79003" lon="22.969359">
        <ele>1813.6</ele>
        <time>2026-05-06T12:26:04.000Z</time>
      </trkpt>
      <trkpt lat="41.790029" lon="22.969358">
        <ele>1813.6</ele>
        <time>2026-05-06T12:26:05.000Z</time>
      </trkpt>
      <trkpt lat="41.790029" lon="22.969358">
        <ele>1813.6</ele>
        <time>2026-05-06T12:26:06.000Z</time>
      </trkpt>
      <trkpt lat="41.790029" lon="22.969358">
        <ele>1813.6</ele>
        <time>2026-05-06T12:26:07.000Z</time>
      </trkpt>
      <trkpt lat="41.790029" lon="22.969358">
        <ele>1813.5</ele>
        <time>2026-05-06T12:26:08.000Z</time>
      </trkpt>
      <trkpt lat="41.790029" lon="22.969359">
        <ele>1813.5</ele>
        <time>2026-05-06T12:26:09.000Z</time>
      </trkpt>
      <trkpt lat="41.790028" lon="22.96936">
        <ele>1813.5</ele>
        <time>2026-05-06T12:26:10.000Z</time>
      </trkpt>
      <trkpt lat="41.790028" lon="22.969361">
        <ele>1813.5</ele>
        <time>2026-05-06T12:26:11.000Z</time>
      </trkpt>
      <trkpt lat="41.790028" lon="22.969361">
        <ele>1813.5</ele>
        <time>2026-05-06T12:26:12.000Z</time>
      </trkpt>
      <trkpt lat="41.790027" lon="22.969361">
        <ele>1813.5</ele>
        <time>2026-05-06T12:26:13.000Z</time>
      </trkpt>
      <trkpt lat="41.790026" lon="22.969361">
        <ele>1813.5</ele>
        <time>2026-05-06T12:26:14.000Z</time>
      </trkpt>
      <trkpt lat="41.790025" lon="22.969359">
        <ele>1813.5</ele>
        <time>2026-05-06T12:26:15.000Z</time>
      </trkpt>
      <trkpt lat="41.790024" lon="22.969357">
        <ele>1813.5</ele>
        <time>2026-05-06T12:26:16.000Z</time>
      </trkpt>
      <trkpt lat="41.790023" lon="22.969356">
        <ele>1813.5</ele>
        <time>2026-05-06T12:26:17.000Z</time>
      </trkpt>
      <trkpt lat="41.790022" lon="22.969356">
        <ele>1813.6</ele>
        <time>2026-05-06T12:26:18.000Z</time>
      </trkpt>
      <trkpt lat="41.790021" lon="22.969356">
        <ele>1813.6</ele>
        <time>2026-05-06T12:26:19.000Z</time>
      </trkpt>
      <trkpt lat="41.79002" lon="22.969357">
        <ele>1813.6</ele>
        <time>2026-05-06T12:26:20.000Z</time>
      </trkpt>
      <trkpt lat="41.79002" lon="22.969358">
        <ele>1813.6</ele>
        <time>2026-05-06T12:26:21.000Z</time>
      </trkpt>
      <trkpt lat="41.790019" lon="22.969358">
        <ele>1813.6</ele>
        <time>2026-05-06T12:26:22.000Z</time>
      </trkpt>
      <trkpt lat="41.79002" lon="22.969358">
        <ele>1814</ele>
        <time>2026-05-06T12:26:23.000Z</time>
      </trkpt>
      <trkpt lat="41.790021" lon="22.969359">
        <ele>1814</ele>
        <time>2026-05-06T12:26:24.000Z</time>
      </trkpt>
      <trkpt lat="41.790022" lon="22.969359">
        <ele>1814</ele>
        <time>2026-05-06T12:26:25.000Z</time>
      </trkpt>
      <trkpt lat="41.790024" lon="22.969359">
        <ele>1814</ele>
        <time>2026-05-06T12:26:26.000Z</time>
      </trkpt>
      <trkpt lat="41.790025" lon="22.969359">
        <ele>1814</ele>
        <time>2026-05-06T12:26:27.000Z</time>
      </trkpt>
      <trkpt lat="41.790026" lon="22.969359">
        <ele>1814</ele>
        <time>2026-05-06T12:26:28.000Z</time>
      </trkpt>
      <trkpt lat="41.790027" lon="22.969359">
        <ele>1814</ele>
        <time>2026-05-06T12:26:29.000Z</time>
      </trkpt>
      <trkpt lat="41.790028" lon="22.969359">
        <ele>1814</ele>
        <time>2026-05-06T12:26:30.000Z</time>
      </trkpt>
      <trkpt lat="41.790029" lon="22.969359">
        <ele>1814</ele>
        <time>2026-05-06T12:26:31.000Z</time>
      </trkpt>
      <trkpt lat="41.79003" lon="22.969359">
        <ele>1814</ele>
        <time>2026-05-06T12:26:32.000Z</time>
      </trkpt>
      <trkpt lat="41.79003" lon="22.969359">
        <ele>1813.8</ele>
        <time>2026-05-06T12:26:33.000Z</time>
      </trkpt>
      <trkpt lat="41.79003" lon="22.969359">
        <ele>1813.8</ele>
        <time>2026-05-06T12:26:34.000Z</time>
      </trkpt>
      <trkpt lat="41.790029" lon="22.969359">
        <ele>1813.8</ele>
        <time>2026-05-06T12:26:35.000Z</time>
      </trkpt>
      <trkpt lat="41.790028" lon="22.969358">
        <ele>1813.8</ele>
        <time>2026-05-06T12:26:36.000Z</time>
      </trkpt>
      <trkpt lat="41.790026" lon="22.969358">
        <ele>1813.8</ele>
        <time>2026-05-06T12:26:37.000Z</time>
      </trkpt>
      <trkpt lat="41.790025" lon="22.969357">
        <ele>1813.7</ele>
        <time>2026-05-06T12:26:38.000Z</time>
      </trkpt>
      <trkpt lat="41.790025" lon="22.969357">
        <ele>1813.7</ele>
        <time>2026-05-06T12:26:39.000Z</time>
      </trkpt>
      <trkpt lat="41.790024" lon="22.969357">
        <ele>1813.7</ele>
        <time>2026-05-06T12:26:40.000Z</time>
      </trkpt>
      <trkpt lat="41.790024" lon="22.969357">
        <ele>1813.7</ele>
        <time>2026-05-06T12:26:41.000Z</time>
      </trkpt>
      <trkpt lat="41.790024" lon="22.969356">
        <ele>1813.7</ele>
        <time>2026-05-06T12:26:42.000Z</time>
      </trkpt>
      <trkpt lat="41.790025" lon="22.969356">
        <ele>1813.6</ele>
        <time>2026-05-06T12:26:43.000Z</time>
      </trkpt>
      <trkpt lat="41.790025" lon="22.969356">
        <ele>1813.6</ele>
        <time>2026-05-06T12:26:44.000Z</time>
      </trkpt>
      <trkpt lat="41.790025" lon="22.969356">
        <ele>1813.6</ele>
        <time>2026-05-06T12:26:45.000Z</time>
      </trkpt>
      <trkpt lat="41.790025" lon="22.969356">
        <ele>1813.6</ele>
        <time>2026-05-06T12:26:46.000Z</time>
      </trkpt>
      <trkpt lat="41.790025" lon="22.969357">
        <ele>1813.6</ele>
        <time>2026-05-06T12:26:47.000Z</time>
      </trkpt>
      <trkpt lat="41.790025" lon="22.969357">
        <ele>1813.5</ele>
        <time>2026-05-06T12:26:48.000Z</time>
      </trkpt>
      <trkpt lat="41.790025" lon="22.969358">
        <ele>1813.5</ele>
        <time>2026-05-06T12:26:49.000Z</time>
      </trkpt>
      <trkpt lat="41.790024" lon="22.969359">
        <ele>1813.5</ele>
        <time>2026-05-06T12:26:50.000Z</time>
      </trkpt>
      <trkpt lat="41.790024" lon="22.96936">
        <ele>1813.5</ele>
        <time>2026-05-06T12:26:51.000Z</time>
      </trkpt>
      <trkpt lat="41.790024" lon="22.96936">
        <ele>1813.5</ele>
        <time>2026-05-06T12:26:52.000Z</time>
      </trkpt>
      <trkpt lat="41.790024" lon="22.96936">
        <ele>1812.9</ele>
        <time>2026-05-06T12:26:53.000Z</time>
      </trkpt>
      <trkpt lat="41.790024" lon="22.96936">
        <ele>1812.9</ele>
        <time>2026-05-06T12:26:54.000Z</time>
      </trkpt>
      <trkpt lat="41.790024" lon="22.96936">
        <ele>1812.9</ele>
        <time>2026-05-06T12:26:55.000Z</time>
      </trkpt>
      <trkpt lat="41.790024" lon="22.96936">
        <ele>1812.9</ele>
        <time>2026-05-06T12:26:56.000Z</time>
      </trkpt>
      <trkpt lat="41.790024" lon="22.96936">
        <ele>1812.9</ele>
        <time>2026-05-06T12:26:57.000Z</time>
      </trkpt>
      <trkpt lat="41.790024" lon="22.96936">
        <ele>1812.8</ele>
        <time>2026-05-06T12:26:58.000Z</time>
      </trkpt>
      <trkpt lat="41.790024" lon="22.96936">
        <ele>1812.8</ele>
        <time>2026-05-06T12:26:59.000Z</time>
      </trkpt>
      <trkpt lat="41.790024" lon="22.96936">
        <ele>1812.8</ele>
        <time>2026-05-06T12:27:00.000Z</time>
      </trkpt>
      <trkpt lat="41.790024" lon="22.96936">
        <ele>1812.8</ele>
        <time>2026-05-06T12:27:01.000Z</time>
      </trkpt>
      <trkpt lat="41.790024" lon="22.96936">
        <ele>1812.8</ele>
        <time>2026-05-06T12:27:02.000Z</time>
      </trkpt>
      <trkpt lat="41.790024" lon="22.96936">
        <ele>1812.9</ele>
        <time>2026-05-06T12:27:03.000Z</time>
      </trkpt>
      <trkpt lat="41.790024" lon="22.96936">
        <ele>1812.9</ele>
        <time>2026-05-06T12:27:04.000Z</time>
      </trkpt>
      <trkpt lat="41.790024" lon="22.96936">
        <ele>1812.9</ele>
        <time>2026-05-06T12:27:05.000Z</time>
      </trkpt>
      <trkpt lat="41.790024" lon="22.96936">
        <ele>1812.9</ele>
        <time>2026-05-06T12:27:06.000Z</time>
      </trkpt>
      <trkpt lat="41.790024" lon="22.96936">
        <ele>1812.9</ele>
        <time>2026-05-06T12:27:07.000Z</time>
      </trkpt>
      <trkpt lat="41.790025" lon="22.96936">
        <ele>1813.1</ele>
        <time>2026-05-06T12:27:08.000Z</time>
      </trkpt>
      <trkpt lat="41.790025" lon="22.96936">
        <ele>1813.1</ele>
        <time>2026-05-06T12:27:09.000Z</time>
      </trkpt>
      <trkpt lat="41.790027" lon="22.96936">
        <ele>1813.1</ele>
        <time>2026-05-06T12:27:10.000Z</time>
      </trkpt>
      <trkpt lat="41.790028" lon="22.96936">
        <ele>1813.1</ele>
        <time>2026-05-06T12:27:11.000Z</time>
      </trkpt>
      <trkpt lat="41.79003" lon="22.969359">
        <ele>1813.1</ele>
        <time>2026-05-06T12:27:12.000Z</time>
      </trkpt>
      <trkpt lat="41.790031" lon="22.96936">
        <ele>1813.3</ele>
        <time>2026-05-06T12:27:13.000Z</time>
      </trkpt>
      <trkpt lat="41.790031" lon="22.96936">
        <ele>1813.3</ele>
        <time>2026-05-06T12:27:14.000Z</time>
      </trkpt>
      <trkpt lat="41.790031" lon="22.969359">
        <ele>1813.3</ele>
        <time>2026-05-06T12:27:15.000Z</time>
      </trkpt>
      <trkpt lat="41.790031" lon="22.969359">
        <ele>1813.3</ele>
        <time>2026-05-06T12:27:16.000Z</time>
      </trkpt>
      <trkpt lat="41.79003" lon="22.969359">
        <ele>1813.3</ele>
        <time>2026-05-06T12:27:17.000Z</time>
      </trkpt>
      <trkpt lat="41.79003" lon="22.969359">
        <ele>1813.4</ele>
        <time>2026-05-06T12:27:18.000Z</time>
      </trkpt>
      <trkpt lat="41.79003" lon="22.969359">
        <ele>1813.4</ele>
        <time>2026-05-06T12:27:19.000Z</time>
      </trkpt>
      <trkpt lat="41.79003" lon="22.969358">
        <ele>1813.4</ele>
        <time>2026-05-06T12:27:20.000Z</time>
      </trkpt>
      <trkpt lat="41.790031" lon="22.969358">
        <ele>1813.4</ele>
        <time>2026-05-06T12:27:21.000Z</time>
      </trkpt>
      <trkpt lat="41.790031" lon="22.969358">
        <ele>1813.4</ele>
        <time>2026-05-06T12:27:22.000Z</time>
      </trkpt>
      <trkpt lat="41.790031" lon="22.969357">
        <ele>1813.6</ele>
        <time>2026-05-06T12:27:23.000Z</time>
      </trkpt>
      <trkpt lat="41.790033" lon="22.969356">
        <ele>1813.6</ele>
        <time>2026-05-06T12:27:24.000Z</time>
      </trkpt>
      <trkpt lat="41.790035" lon="22.969355">
        <ele>1813.6</ele>
        <time>2026-05-06T12:27:25.000Z</time>
      </trkpt>
      <trkpt lat="41.790038" lon="22.969353">
        <ele>1813.6</ele>
        <time>2026-05-06T12:27:26.000Z</time>
      </trkpt>
      <trkpt lat="41.790043" lon="22.969352">
        <ele>1813.6</ele>
        <time>2026-05-06T12:27:27.000Z</time>
      </trkpt>
      <trkpt lat="41.790047" lon="22.96935">
        <ele>1813.6</ele>
        <time>2026-05-06T12:27:28.000Z</time>
      </trkpt>
      <trkpt lat="41.790049" lon="22.969347">
        <ele>1813.6</ele>
        <time>2026-05-06T12:27:29.000Z</time>
      </trkpt>
      <trkpt lat="41.79005" lon="22.969342">
        <ele>1813.6</ele>
        <time>2026-05-06T12:27:30.000Z</time>
      </trkpt>
      <trkpt lat="41.79005" lon="22.969337">
        <ele>1813.6</ele>
        <time>2026-05-06T12:27:31.000Z</time>
      </trkpt>
      <trkpt lat="41.790048" lon="22.96933">
        <ele>1813.6</ele>
        <time>2026-05-06T12:27:32.000Z</time>
      </trkpt>
      <trkpt lat="41.790045" lon="22.969323">
        <ele>1813.4</ele>
        <time>2026-05-06T12:27:33.000Z</time>
      </trkpt>
      <trkpt lat="41.790041" lon="22.969317">
        <ele>1813.4</ele>
        <time>2026-05-06T12:27:34.000Z</time>
      </trkpt>
      <trkpt lat="41.790037" lon="22.969313">
        <ele>1813.4</ele>
        <time>2026-05-06T12:27:35.000Z</time>
      </trkpt>
      <trkpt lat="41.790032" lon="22.969309">
        <ele>1813.4</ele>
        <time>2026-05-06T12:27:36.000Z</time>
      </trkpt>
      <trkpt lat="41.790027" lon="22.969306">
        <ele>1813.4</ele>
        <time>2026-05-06T12:27:37.000Z</time>
      </trkpt>
      <trkpt lat="41.790022" lon="22.969304">
        <ele>1813.2</ele>
        <time>2026-05-06T12:27:38.000Z</time>
      </trkpt>
      <trkpt lat="41.790016" lon="22.969302">
        <ele>1813.2</ele>
        <time>2026-05-06T12:27:39.000Z</time>
      </trkpt>
      <trkpt lat="41.79001" lon="22.969297">
        <ele>1813.2</ele>
        <time>2026-05-06T12:27:40.000Z</time>
      </trkpt>
      <trkpt lat="41.790004" lon="22.969291">
        <ele>1813.2</ele>
        <time>2026-05-06T12:27:41.000Z</time>
      </trkpt>
      <trkpt lat="41.79" lon="22.969286">
        <ele>1813.2</ele>
        <time>2026-05-06T12:27:42.000Z</time>
      </trkpt>
      <trkpt lat="41.789997" lon="22.969281">
        <ele>1813.2</ele>
        <time>2026-05-06T12:27:43.000Z</time>
      </trkpt>
      <trkpt lat="41.789995" lon="22.969276">
        <ele>1813.2</ele>
        <time>2026-05-06T12:27:44.000Z</time>
      </trkpt>
      <trkpt lat="41.789994" lon="22.969271">
        <ele>1813.2</ele>
        <time>2026-05-06T12:27:45.000Z</time>
      </trkpt>
      <trkpt lat="41.789994" lon="22.969267">
        <ele>1813.2</ele>
        <time>2026-05-06T12:27:46.000Z</time>
      </trkpt>
      <trkpt lat="41.789993" lon="22.969261">
        <ele>1813.2</ele>
        <time>2026-05-06T12:27:47.000Z</time>
      </trkpt>
      <trkpt lat="41.789992" lon="22.969256">
        <ele>1813.3</ele>
        <time>2026-05-06T12:27:48.000Z</time>
      </trkpt>
      <trkpt lat="41.789991" lon="22.969252">
        <ele>1813.3</ele>
        <time>2026-05-06T12:27:49.000Z</time>
      </trkpt>
      <trkpt lat="41.789991" lon="22.969248">
        <ele>1813.3</ele>
        <time>2026-05-06T12:27:50.000Z</time>
      </trkpt>
      <trkpt lat="41.78999" lon="22.969246">
        <ele>1813.3</ele>
        <time>2026-05-06T12:27:51.000Z</time>
      </trkpt>
      <trkpt lat="41.789989" lon="22.969243">
        <ele>1813.3</ele>
        <time>2026-05-06T12:27:52.000Z</time>
      </trkpt>
      <trkpt lat="41.789986" lon="22.96924">
        <ele>1813.7</ele>
        <time>2026-05-06T12:27:53.000Z</time>
      </trkpt>
      <trkpt lat="41.789983" lon="22.969236">
        <ele>1813.7</ele>
        <time>2026-05-06T12:27:54.000Z</time>
      </trkpt>
      <trkpt lat="41.789978" lon="22.969231">
        <ele>1813.7</ele>
        <time>2026-05-06T12:27:55.000Z</time>
      </trkpt>
      <trkpt lat="41.789972" lon="22.969225">
        <ele>1813.7</ele>
        <time>2026-05-06T12:27:56.000Z</time>
      </trkpt>
      <trkpt lat="41.789967" lon="22.969219">
        <ele>1813.7</ele>
        <time>2026-05-06T12:27:57.000Z</time>
      </trkpt>
      <trkpt lat="41.789959" lon="22.969213">
        <ele>1814.3</ele>
        <time>2026-05-06T12:27:58.000Z</time>
      </trkpt>
      <trkpt lat="41.789951" lon="22.969205">
        <ele>1814.3</ele>
        <time>2026-05-06T12:27:59.000Z</time>
      </trkpt>
      <trkpt lat="41.789944" lon="22.969198">
        <ele>1814.3</ele>
        <time>2026-05-06T12:28:00.000Z</time>
      </trkpt>
      <trkpt lat="41.789937" lon="22.96919">
        <ele>1814.3</ele>
        <time>2026-05-06T12:28:01.000Z</time>
      </trkpt>
      <trkpt lat="41.789931" lon="22.969181">
        <ele>1814.3</ele>
        <time>2026-05-06T12:28:02.000Z</time>
      </trkpt>
      <trkpt lat="41.789928" lon="22.969173">
        <ele>1814.6</ele>
        <time>2026-05-06T12:28:03.000Z</time>
      </trkpt>
      <trkpt lat="41.789927" lon="22.969164">
        <ele>1814.6</ele>
        <time>2026-05-06T12:28:04.000Z</time>
      </trkpt>
      <trkpt lat="41.789926" lon="22.969155">
        <ele>1814.6</ele>
        <time>2026-05-06T12:28:05.000Z</time>
      </trkpt>
      <trkpt lat="41.789926" lon="22.969147">
        <ele>1814.6</ele>
        <time>2026-05-06T12:28:06.000Z</time>
      </trkpt>
      <trkpt lat="41.789926" lon="22.969139">
        <ele>1814.6</ele>
        <time>2026-05-06T12:28:07.000Z</time>
      </trkpt>
      <trkpt lat="41.789925" lon="22.969133">
        <ele>1815.1</ele>
        <time>2026-05-06T12:28:08.000Z</time>
      </trkpt>
      <trkpt lat="41.789923" lon="22.969126">
        <ele>1815.1</ele>
        <time>2026-05-06T12:28:09.000Z</time>
      </trkpt>
      <trkpt lat="41.78992" lon="22.969118">
        <ele>1815.1</ele>
        <time>2026-05-06T12:28:10.000Z</time>
      </trkpt>
      <trkpt lat="41.789917" lon="22.96911">
        <ele>1815.1</ele>
        <time>2026-05-06T12:28:11.000Z</time>
      </trkpt>
      <trkpt lat="41.789912" lon="22.969102">
        <ele>1815.1</ele>
        <time>2026-05-06T12:28:12.000Z</time>
      </trkpt>
      <trkpt lat="41.789907" lon="22.969093">
        <ele>1815.8</ele>
        <time>2026-05-06T12:28:13.000Z</time>
      </trkpt>
      <trkpt lat="41.789903" lon="22.969084">
        <ele>1815.8</ele>
        <time>2026-05-06T12:28:14.000Z</time>
      </trkpt>
      <trkpt lat="41.7899" lon="22.969074">
        <ele>1815.8</ele>
        <time>2026-05-06T12:28:15.000Z</time>
      </trkpt>
      <trkpt lat="41.789897" lon="22.969064">
        <ele>1815.8</ele>
        <time>2026-05-06T12:28:16.000Z</time>
      </trkpt>
      <trkpt lat="41.789895" lon="22.969055">
        <ele>1815.8</ele>
        <time>2026-05-06T12:28:17.000Z</time>
      </trkpt>
      <trkpt lat="41.789895" lon="22.969047">
        <ele>1816.3</ele>
        <time>2026-05-06T12:28:18.000Z</time>
      </trkpt>
      <trkpt lat="41.789896" lon="22.96904">
        <ele>1816.3</ele>
        <time>2026-05-06T12:28:19.000Z</time>
      </trkpt>
      <trkpt lat="41.789897" lon="22.969034">
        <ele>1816.3</ele>
        <time>2026-05-06T12:28:20.000Z</time>
      </trkpt>
      <trkpt lat="41.789899" lon="22.96903">
        <ele>1816.3</ele>
        <time>2026-05-06T12:28:21.000Z</time>
      </trkpt>
      <trkpt lat="41.789902" lon="22.969027">
        <ele>1816.3</ele>
        <time>2026-05-06T12:28:22.000Z</time>
      </trkpt>
      <trkpt lat="41.789905" lon="22.969024">
        <ele>1817.3</ele>
        <time>2026-05-06T12:28:23.000Z</time>
      </trkpt>
      <trkpt lat="41.789908" lon="22.96902">
        <ele>1817.3</ele>
        <time>2026-05-06T12:28:24.000Z</time>
      </trkpt>
      <trkpt lat="41.789912" lon="22.969016">
        <ele>1817.3</ele>
        <time>2026-05-06T12:28:25.000Z</time>
      </trkpt>
      <trkpt lat="41.789916" lon="22.96901">
        <ele>1817.3</ele>
        <time>2026-05-06T12:28:26.000Z</time>
      </trkpt>
      <trkpt lat="41.789919" lon="22.969003">
        <ele>1817.3</ele>
        <time>2026-05-06T12:28:27.000Z</time>
      </trkpt>
      <trkpt lat="41.789922" lon="22.968994">
        <ele>1818.2</ele>
        <time>2026-05-06T12:28:28.000Z</time>
      </trkpt>
      <trkpt lat="41.789924" lon="22.968986">
        <ele>1818.2</ele>
        <time>2026-05-06T12:28:29.000Z</time>
      </trkpt>
      <trkpt lat="41.789927" lon="22.968976">
        <ele>1818.2</ele>
        <time>2026-05-06T12:28:30.000Z</time>
      </trkpt>
      <trkpt lat="41.789928" lon="22.968968">
        <ele>1818.2</ele>
        <time>2026-05-06T12:28:31.000Z</time>
      </trkpt>
      <trkpt lat="41.789928" lon="22.968962">
        <ele>1818.2</ele>
        <time>2026-05-06T12:28:32.000Z</time>
      </trkpt>
      <trkpt lat="41.789928" lon="22.968957">
        <ele>1818.7</ele>
        <time>2026-05-06T12:28:33.000Z</time>
      </trkpt>
      <trkpt lat="41.789926" lon="22.968952">
        <ele>1818.7</ele>
        <time>2026-05-06T12:28:34.000Z</time>
      </trkpt>
      <trkpt lat="41.789922" lon="22.968948">
        <ele>1818.7</ele>
        <time>2026-05-06T12:28:35.000Z</time>
      </trkpt>
      <trkpt lat="41.789919" lon="22.968943">
        <ele>1818.7</ele>
        <time>2026-05-06T12:28:36.000Z</time>
      </trkpt>
      <trkpt lat="41.789917" lon="22.968939">
        <ele>1818.7</ele>
        <time>2026-05-06T12:28:37.000Z</time>
      </trkpt>
      <trkpt lat="41.789915" lon="22.968935">
        <ele>1819.4</ele>
        <time>2026-05-06T12:28:38.000Z</time>
      </trkpt>
      <trkpt lat="41.789913" lon="22.968932">
        <ele>1819.4</ele>
        <time>2026-05-06T12:28:39.000Z</time>
      </trkpt>
      <trkpt lat="41.789912" lon="22.968931">
        <ele>1819.4</ele>
        <time>2026-05-06T12:28:40.000Z</time>
      </trkpt>
      <trkpt lat="41.789911" lon="22.968931">
        <ele>1819.4</ele>
        <time>2026-05-06T12:28:41.000Z</time>
      </trkpt>
      <trkpt lat="41.789911" lon="22.96893">
        <ele>1819.4</ele>
        <time>2026-05-06T12:28:42.000Z</time>
      </trkpt>
      <trkpt lat="41.78991" lon="22.96893">
        <ele>1819.9</ele>
        <time>2026-05-06T12:28:43.000Z</time>
      </trkpt>
      <trkpt lat="41.78991" lon="22.96893">
        <ele>1819.9</ele>
        <time>2026-05-06T12:28:44.000Z</time>
      </trkpt>
      <trkpt lat="41.78991" lon="22.96893">
        <ele>1819.9</ele>
        <time>2026-05-06T12:28:45.000Z</time>
      </trkpt>
      <trkpt lat="41.78991" lon="22.96893">
        <ele>1819.9</ele>
        <time>2026-05-06T12:28:46.000Z</time>
      </trkpt>
      <trkpt lat="41.78991" lon="22.96893">
        <ele>1819.9</ele>
        <time>2026-05-06T12:28:47.000Z</time>
      </trkpt>
      <trkpt lat="41.78991" lon="22.96893">
        <ele>1819.9</ele>
        <time>2026-05-06T12:28:48.000Z</time>
      </trkpt>
      <trkpt lat="41.78991" lon="22.96893">
        <ele>1819.9</ele>
        <time>2026-05-06T12:28:49.000Z</time>
      </trkpt>
      <trkpt lat="41.78991" lon="22.96893">
        <ele>1819.9</ele>
        <time>2026-05-06T12:28:50.000Z</time>
      </trkpt>
      <trkpt lat="41.78991" lon="22.96893">
        <ele>1819.9</ele>
        <time>2026-05-06T12:28:51.000Z</time>
      </trkpt>
      <trkpt lat="41.78991" lon="22.96893">
        <ele>1819.9</ele>
        <time>2026-05-06T12:28:52.000Z</time>
      </trkpt>
      <trkpt lat="41.78991" lon="22.96893">
        <ele>1819.8</ele>
        <time>2026-05-06T12:28:53.000Z</time>
      </trkpt>
      <trkpt lat="41.78991" lon="22.968929">
        <ele>1819.8</ele>
        <time>2026-05-06T12:28:54.000Z</time>
      </trkpt>
      <trkpt lat="41.789907" lon="22.968926">
        <ele>1819.8</ele>
        <time>2026-05-06T12:28:55.000Z</time>
      </trkpt>
      <trkpt lat="41.789904" lon="22.968922">
        <ele>1819.8</ele>
        <time>2026-05-06T12:28:56.000Z</time>
      </trkpt>
      <trkpt lat="41.789901" lon="22.968916">
        <ele>1819.8</ele>
        <time>2026-05-06T12:28:57.000Z</time>
      </trkpt>
      <trkpt lat="41.789897" lon="22.968908">
        <ele>1819.6</ele>
        <time>2026-05-06T12:28:58.000Z</time>
      </trkpt>
      <trkpt lat="41.789894" lon="22.9689">
        <ele>1819.6</ele>
        <time>2026-05-06T12:28:59.000Z</time>
      </trkpt>
      <trkpt lat="41.789894" lon="22.968891">
        <ele>1819.6</ele>
        <time>2026-05-06T12:29:00.000Z</time>
      </trkpt>
      <trkpt lat="41.789894" lon="22.968881">
        <ele>1819.6</ele>
        <time>2026-05-06T12:29:01.000Z</time>
      </trkpt>
      <trkpt lat="41.789895" lon="22.968874">
        <ele>1819.6</ele>
        <time>2026-05-06T12:29:02.000Z</time>
      </trkpt>
      <trkpt lat="41.789896" lon="22.968869">
        <ele>1819.7</ele>
        <time>2026-05-06T12:29:03.000Z</time>
      </trkpt>
      <trkpt lat="41.789897" lon="22.968866">
        <ele>1819.7</ele>
        <time>2026-05-06T12:29:04.000Z</time>
      </trkpt>
      <trkpt lat="41.789897" lon="22.968866">
        <ele>1819.7</ele>
        <time>2026-05-06T12:29:05.000Z</time>
      </trkpt>
      <trkpt lat="41.789897" lon="22.968868">
        <ele>1819.7</ele>
        <time>2026-05-06T12:29:06.000Z</time>
      </trkpt>
      <trkpt lat="41.789897" lon="22.968869">
        <ele>1819.7</ele>
        <time>2026-05-06T12:29:07.000Z</time>
      </trkpt>
      <trkpt lat="41.789896" lon="22.96887">
        <ele>1820</ele>
        <time>2026-05-06T12:29:08.000Z</time>
      </trkpt>
      <trkpt lat="41.789896" lon="22.968871">
        <ele>1820</ele>
        <time>2026-05-06T12:29:09.000Z</time>
      </trkpt>
      <trkpt lat="41.789896" lon="22.968871">
        <ele>1820</ele>
        <time>2026-05-06T12:29:10.000Z</time>
      </trkpt>
      <trkpt lat="41.789896" lon="22.968872">
        <ele>1820</ele>
        <time>2026-05-06T12:29:11.000Z</time>
      </trkpt>
      <trkpt lat="41.789895" lon="22.968872">
        <ele>1820</ele>
        <time>2026-05-06T12:29:12.000Z</time>
      </trkpt>
      <trkpt lat="41.789895" lon="22.968873">
        <ele>1820.8</ele>
        <time>2026-05-06T12:29:13.000Z</time>
      </trkpt>
      <trkpt lat="41.789895" lon="22.968873">
        <ele>1820.8</ele>
        <time>2026-05-06T12:29:14.000Z</time>
      </trkpt>
      <trkpt lat="41.789895" lon="22.968873">
        <ele>1820.8</ele>
        <time>2026-05-06T12:29:15.000Z</time>
      </trkpt>
      <trkpt lat="41.789895" lon="22.968873">
        <ele>1820.8</ele>
        <time>2026-05-06T12:29:16.000Z</time>
      </trkpt>
      <trkpt lat="41.789895" lon="22.968872">
        <ele>1820.8</ele>
        <time>2026-05-06T12:29:17.000Z</time>
      </trkpt>
      <trkpt lat="41.789896" lon="22.96887">
        <ele>1821.2</ele>
        <time>2026-05-06T12:29:18.000Z</time>
      </trkpt>
      <trkpt lat="41.789897" lon="22.968865">
        <ele>1821.2</ele>
        <time>2026-05-06T12:29:19.000Z</time>
      </trkpt>
      <trkpt lat="41.789897" lon="22.968856">
        <ele>1821.2</ele>
        <time>2026-05-06T12:29:20.000Z</time>
      </trkpt>
      <trkpt lat="41.789898" lon="22.968846">
        <ele>1821.2</ele>
        <time>2026-05-06T12:29:21.000Z</time>
      </trkpt>
      <trkpt lat="41.789899" lon="22.968833">
        <ele>1821.2</ele>
        <time>2026-05-06T12:29:22.000Z</time>
      </trkpt>
      <trkpt lat="41.789898" lon="22.968821">
        <ele>1821.7</ele>
        <time>2026-05-06T12:29:23.000Z</time>
      </trkpt>
      <trkpt lat="41.789895" lon="22.968809">
        <ele>1821.7</ele>
        <time>2026-05-06T12:29:24.000Z</time>
      </trkpt>
      <trkpt lat="41.789893" lon="22.968799">
        <ele>1821.7</ele>
        <time>2026-05-06T12:29:25.000Z</time>
      </trkpt>
      <trkpt lat="41.78989" lon="22.968789">
        <ele>1821.7</ele>
        <time>2026-05-06T12:29:26.000Z</time>
      </trkpt>
      <trkpt lat="41.789887" lon="22.968781">
        <ele>1821.7</ele>
        <time>2026-05-06T12:29:27.000Z</time>
      </trkpt>
      <trkpt lat="41.789883" lon="22.968774">
        <ele>1822.1</ele>
        <time>2026-05-06T12:29:28.000Z</time>
      </trkpt>
      <trkpt lat="41.789878" lon="22.968767">
        <ele>1822.1</ele>
        <time>2026-05-06T12:29:29.000Z</time>
      </trkpt>
      <trkpt lat="41.789874" lon="22.968762">
        <ele>1822.1</ele>
        <time>2026-05-06T12:29:30.000Z</time>
      </trkpt>
      <trkpt lat="41.789867" lon="22.968757">
        <ele>1822.1</ele>
        <time>2026-05-06T12:29:31.000Z</time>
      </trkpt>
      <trkpt lat="41.789861" lon="22.968752">
        <ele>1822.1</ele>
        <time>2026-05-06T12:29:32.000Z</time>
      </trkpt>
      <trkpt lat="41.789855" lon="22.968749">
        <ele>1822.3</ele>
        <time>2026-05-06T12:29:33.000Z</time>
      </trkpt>
      <trkpt lat="41.789848" lon="22.968747">
        <ele>1822.3</ele>
        <time>2026-05-06T12:29:34.000Z</time>
      </trkpt>
      <trkpt lat="41.789841" lon="22.968745">
        <ele>1822.3</ele>
        <time>2026-05-06T12:29:35.000Z</time>
      </trkpt>
      <trkpt lat="41.789833" lon="22.968744">
        <ele>1822.3</ele>
        <time>2026-05-06T12:29:36.000Z</time>
      </trkpt>
      <trkpt lat="41.789824" lon="22.968742">
        <ele>1822.3</ele>
        <time>2026-05-06T12:29:37.000Z</time>
      </trkpt>
      <trkpt lat="41.789815" lon="22.968739">
        <ele>1823.1</ele>
        <time>2026-05-06T12:29:38.000Z</time>
      </trkpt>
      <trkpt lat="41.789807" lon="22.968735">
        <ele>1823.1</ele>
        <time>2026-05-06T12:29:39.000Z</time>
      </trkpt>
      <trkpt lat="41.789799" lon="22.968731">
        <ele>1823.1</ele>
        <time>2026-05-06T12:29:40.000Z</time>
      </trkpt>
      <trkpt lat="41.789793" lon="22.968728">
        <ele>1823.1</ele>
        <time>2026-05-06T12:29:41.000Z</time>
      </trkpt>
      <trkpt lat="41.789788" lon="22.968725">
        <ele>1823.1</ele>
        <time>2026-05-06T12:29:42.000Z</time>
      </trkpt>
      <trkpt lat="41.789784" lon="22.968723">
        <ele>1824.3</ele>
        <time>2026-05-06T12:29:43.000Z</time>
      </trkpt>
      <trkpt lat="41.789782" lon="22.968722">
        <ele>1824.3</ele>
        <time>2026-05-06T12:29:44.000Z</time>
      </trkpt>
      <trkpt lat="41.789781" lon="22.968721">
        <ele>1824.3</ele>
        <time>2026-05-06T12:29:45.000Z</time>
      </trkpt>
      <trkpt lat="41.789781" lon="22.96872">
        <ele>1824.3</ele>
        <time>2026-05-06T12:29:46.000Z</time>
      </trkpt>
      <trkpt lat="41.78978" lon="22.96872">
        <ele>1824.3</ele>
        <time>2026-05-06T12:29:47.000Z</time>
      </trkpt>
      <trkpt lat="41.78978" lon="22.96872">
        <ele>1825</ele>
        <time>2026-05-06T12:29:48.000Z</time>
      </trkpt>
      <trkpt lat="41.78978" lon="22.96872">
        <ele>1825</ele>
        <time>2026-05-06T12:29:49.000Z</time>
      </trkpt>
      <trkpt lat="41.789781" lon="22.96872">
        <ele>1825</ele>
        <time>2026-05-06T12:29:50.000Z</time>
      </trkpt>
      <trkpt lat="41.789781" lon="22.96872">
        <ele>1825</ele>
        <time>2026-05-06T12:29:51.000Z</time>
      </trkpt>
      <trkpt lat="41.789781" lon="22.968721">
        <ele>1825</ele>
        <time>2026-05-06T12:29:52.000Z</time>
      </trkpt>
      <trkpt lat="41.789783" lon="22.968722">
        <ele>1826.2</ele>
        <time>2026-05-06T12:29:53.000Z</time>
      </trkpt>
      <trkpt lat="41.789784" lon="22.968723">
        <ele>1826.2</ele>
        <time>2026-05-06T12:29:54.000Z</time>
      </trkpt>
      <trkpt lat="41.789785" lon="22.968723">
        <ele>1826.2</ele>
        <time>2026-05-06T12:29:55.000Z</time>
      </trkpt>
      <trkpt lat="41.789785" lon="22.968724">
        <ele>1826.2</ele>
        <time>2026-05-06T12:29:56.000Z</time>
      </trkpt>
      <trkpt lat="41.789786" lon="22.968725">
        <ele>1826.2</ele>
        <time>2026-05-06T12:29:57.000Z</time>
      </trkpt>
      <trkpt lat="41.789785" lon="22.968724">
        <ele>1826.6</ele>
        <time>2026-05-06T12:29:58.000Z</time>
      </trkpt>
      <trkpt lat="41.789785" lon="22.968724">
        <ele>1826.6</ele>
        <time>2026-05-06T12:29:59.000Z</time>
      </trkpt>
      <trkpt lat="41.789786" lon="22.968724">
        <ele>1826.6</ele>
        <time>2026-05-06T12:30:00.000Z</time>
      </trkpt>
      <trkpt lat="41.789787" lon="22.968722">
        <ele>1826.6</ele>
        <time>2026-05-06T12:30:01.000Z</time>
      </trkpt>
      <trkpt lat="41.78979" lon="22.968719">
        <ele>1826.6</ele>
        <time>2026-05-06T12:30:02.000Z</time>
      </trkpt>
      <trkpt lat="41.789793" lon="22.968715">
        <ele>1826.6</ele>
        <time>2026-05-06T12:30:03.000Z</time>
      </trkpt>
      <trkpt lat="41.789799" lon="22.968711">
        <ele>1826.6</ele>
        <time>2026-05-06T12:30:04.000Z</time>
      </trkpt>
      <trkpt lat="41.789805" lon="22.968706">
        <ele>1826.6</ele>
        <time>2026-05-06T12:30:05.000Z</time>
      </trkpt>
      <trkpt lat="41.78981" lon="22.968702">
        <ele>1826.6</ele>
        <time>2026-05-06T12:30:06.000Z</time>
      </trkpt>
      <trkpt lat="41.789814" lon="22.968701">
        <ele>1826.6</ele>
        <time>2026-05-06T12:30:07.000Z</time>
      </trkpt>
      <trkpt lat="41.789818" lon="22.968699">
        <ele>1826.5</ele>
        <time>2026-05-06T12:30:08.000Z</time>
      </trkpt>
      <trkpt lat="41.78982" lon="22.968698">
        <ele>1826.5</ele>
        <time>2026-05-06T12:30:09.000Z</time>
      </trkpt>
      <trkpt lat="41.789821" lon="22.968698">
        <ele>1826.5</ele>
        <time>2026-05-06T12:30:10.000Z</time>
      </trkpt>
      <trkpt lat="41.789822" lon="22.968697">
        <ele>1826.5</ele>
        <time>2026-05-06T12:30:11.000Z</time>
      </trkpt>
      <trkpt lat="41.789822" lon="22.968697">
        <ele>1826.5</ele>
        <time>2026-05-06T12:30:12.000Z</time>
      </trkpt>
      <trkpt lat="41.789821" lon="22.968698">
        <ele>1826.5</ele>
        <time>2026-05-06T12:30:13.000Z</time>
      </trkpt>
      <trkpt lat="41.789821" lon="22.968699">
        <ele>1826.5</ele>
        <time>2026-05-06T12:30:14.000Z</time>
      </trkpt>
      <trkpt lat="41.78982" lon="22.9687">
        <ele>1826.5</ele>
        <time>2026-05-06T12:30:15.000Z</time>
      </trkpt>
      <trkpt lat="41.78982" lon="22.9687">
        <ele>1826.5</ele>
        <time>2026-05-06T12:30:16.000Z</time>
      </trkpt>
      <trkpt lat="41.789819" lon="22.9687">
        <ele>1826.5</ele>
        <time>2026-05-06T12:30:17.000Z</time>
      </trkpt>
      <trkpt lat="41.789819" lon="22.9687">
        <ele>1826.6</ele>
        <time>2026-05-06T12:30:18.000Z</time>
      </trkpt>
      <trkpt lat="41.789818" lon="22.968699">
        <ele>1826.6</ele>
        <time>2026-05-06T12:30:19.000Z</time>
      </trkpt>
      <trkpt lat="41.789818" lon="22.968699">
        <ele>1826.6</ele>
        <time>2026-05-06T12:30:20.000Z</time>
      </trkpt>
      <trkpt lat="41.789817" lon="22.968699">
        <ele>1826.6</ele>
        <time>2026-05-06T12:30:21.000Z</time>
      </trkpt>
      <trkpt lat="41.789816" lon="22.968698">
        <ele>1826.6</ele>
        <time>2026-05-06T12:30:22.000Z</time>
      </trkpt>
      <trkpt lat="41.789816" lon="22.968699">
        <ele>1826.7</ele>
        <time>2026-05-06T12:30:23.000Z</time>
      </trkpt>
      <trkpt lat="41.789816" lon="22.968698">
        <ele>1826.7</ele>
        <time>2026-05-06T12:30:24.000Z</time>
      </trkpt>
      <trkpt lat="41.789816" lon="22.968698">
        <ele>1826.7</ele>
        <time>2026-05-06T12:30:25.000Z</time>
      </trkpt>
      <trkpt lat="41.789816" lon="22.968698">
        <ele>1826.7</ele>
        <time>2026-05-06T12:30:26.000Z</time>
      </trkpt>
      <trkpt lat="41.789815" lon="22.968698">
        <ele>1826.7</ele>
        <time>2026-05-06T12:30:27.000Z</time>
      </trkpt>
      <trkpt lat="41.789815" lon="22.968698">
        <ele>1826.8</ele>
        <time>2026-05-06T12:30:28.000Z</time>
      </trkpt>
      <trkpt lat="41.789813" lon="22.968698">
        <ele>1826.8</ele>
        <time>2026-05-06T12:30:29.000Z</time>
      </trkpt>
      <trkpt lat="41.789811" lon="22.968698">
        <ele>1826.8</ele>
        <time>2026-05-06T12:30:30.000Z</time>
      </trkpt>
      <trkpt lat="41.789807" lon="22.968697">
        <ele>1826.8</ele>
        <time>2026-05-06T12:30:31.000Z</time>
      </trkpt>
      <trkpt lat="41.789803" lon="22.968695">
        <ele>1826.8</ele>
        <time>2026-05-06T12:30:32.000Z</time>
      </trkpt>
      <trkpt lat="41.789798" lon="22.968692">
        <ele>1826.8</ele>
        <time>2026-05-06T12:30:33.000Z</time>
      </trkpt>
      <trkpt lat="41.789793" lon="22.968689">
        <ele>1826.8</ele>
        <time>2026-05-06T12:30:34.000Z</time>
      </trkpt>
      <trkpt lat="41.789789" lon="22.968684">
        <ele>1826.8</ele>
        <time>2026-05-06T12:30:35.000Z</time>
      </trkpt>
      <trkpt lat="41.789787" lon="22.968681">
        <ele>1826.8</ele>
        <time>2026-05-06T12:30:36.000Z</time>
      </trkpt>
      <trkpt lat="41.789788" lon="22.968678">
        <ele>1826.8</ele>
        <time>2026-05-06T12:30:37.000Z</time>
      </trkpt>
      <trkpt lat="41.789789" lon="22.968676">
        <ele>1826.6</ele>
        <time>2026-05-06T12:30:38.000Z</time>
      </trkpt>
      <trkpt lat="41.78979" lon="22.968675">
        <ele>1826.6</ele>
        <time>2026-05-06T12:30:39.000Z</time>
      </trkpt>
      <trkpt lat="41.789791" lon="22.968675">
        <ele>1826.6</ele>
        <time>2026-05-06T12:30:40.000Z</time>
      </trkpt>
      <trkpt lat="41.789792" lon="22.968675">
        <ele>1826.6</ele>
        <time>2026-05-06T12:30:41.000Z</time>
      </trkpt>
      <trkpt lat="41.789792" lon="22.968675">
        <ele>1826.6</ele>
        <time>2026-05-06T12:30:42.000Z</time>
      </trkpt>
      <trkpt lat="41.789791" lon="22.968674">
        <ele>1826.6</ele>
        <time>2026-05-06T12:30:43.000Z</time>
      </trkpt>
      <trkpt lat="41.789791" lon="22.968674">
        <ele>1826.6</ele>
        <time>2026-05-06T12:30:44.000Z</time>
      </trkpt>
      <trkpt lat="41.789791" lon="22.968674">
        <ele>1826.6</ele>
        <time>2026-05-06T12:30:45.000Z</time>
      </trkpt>
      <trkpt lat="41.78979" lon="22.968674">
        <ele>1826.6</ele>
        <time>2026-05-06T12:30:46.000Z</time>
      </trkpt>
      <trkpt lat="41.78979" lon="22.968674">
        <ele>1826.6</ele>
        <time>2026-05-06T12:30:47.000Z</time>
      </trkpt>
      <trkpt lat="41.789791" lon="22.968674">
        <ele>1826.8</ele>
        <time>2026-05-06T12:30:48.000Z</time>
      </trkpt>
      <trkpt lat="41.789791" lon="22.968675">
        <ele>1826.8</ele>
        <time>2026-05-06T12:30:49.000Z</time>
      </trkpt>
      <trkpt lat="41.789792" lon="22.968675">
        <ele>1826.8</ele>
        <time>2026-05-06T12:30:50.000Z</time>
      </trkpt>
      <trkpt lat="41.789792" lon="22.968674">
        <ele>1826.8</ele>
        <time>2026-05-06T12:30:51.000Z</time>
      </trkpt>
      <trkpt lat="41.789791" lon="22.968671">
        <ele>1826.8</ele>
        <time>2026-05-06T12:30:52.000Z</time>
      </trkpt>
      <trkpt lat="41.789791" lon="22.968668">
        <ele>1827.2</ele>
        <time>2026-05-06T12:30:53.000Z</time>
      </trkpt>
      <trkpt lat="41.78979" lon="22.968663">
        <ele>1827.2</ele>
        <time>2026-05-06T12:30:54.000Z</time>
      </trkpt>
      <trkpt lat="41.789789" lon="22.968657">
        <ele>1827.2</ele>
        <time>2026-05-06T12:30:55.000Z</time>
      </trkpt>
      <trkpt lat="41.789788" lon="22.96865">
        <ele>1827.2</ele>
        <time>2026-05-06T12:30:56.000Z</time>
      </trkpt>
      <trkpt lat="41.789786" lon="22.968644">
        <ele>1827.2</ele>
        <time>2026-05-06T12:30:57.000Z</time>
      </trkpt>
      <trkpt lat="41.789785" lon="22.968636">
        <ele>1827.4</ele>
        <time>2026-05-06T12:30:58.000Z</time>
      </trkpt>
      <trkpt lat="41.789783" lon="22.968629">
        <ele>1827.4</ele>
        <time>2026-05-06T12:30:59.000Z</time>
      </trkpt>
      <trkpt lat="41.789782" lon="22.968623">
        <ele>1827.4</ele>
        <time>2026-05-06T12:31:00.000Z</time>
      </trkpt>
      <trkpt lat="41.789781" lon="22.968616">
        <ele>1827.4</ele>
        <time>2026-05-06T12:31:01.000Z</time>
      </trkpt>
      <trkpt lat="41.789779" lon="22.968611">
        <ele>1827.4</ele>
        <time>2026-05-06T12:31:02.000Z</time>
      </trkpt>
      <trkpt lat="41.789776" lon="22.968606">
        <ele>1827.5</ele>
        <time>2026-05-06T12:31:03.000Z</time>
      </trkpt>
      <trkpt lat="41.789773" lon="22.9686">
        <ele>1827.5</ele>
        <time>2026-05-06T12:31:04.000Z</time>
      </trkpt>
      <trkpt lat="41.78977" lon="22.968593">
        <ele>1827.5</ele>
        <time>2026-05-06T12:31:05.000Z</time>
      </trkpt>
      <trkpt lat="41.789766" lon="22.968587">
        <ele>1827.5</ele>
        <time>2026-05-06T12:31:06.000Z</time>
      </trkpt>
      <trkpt lat="41.789763" lon="22.968579">
        <ele>1827.5</ele>
        <time>2026-05-06T12:31:07.000Z</time>
      </trkpt>
      <trkpt lat="41.789759" lon="22.968572">
        <ele>1827.9</ele>
        <time>2026-05-06T12:31:08.000Z</time>
      </trkpt>
      <trkpt lat="41.789755" lon="22.968566">
        <ele>1827.9</ele>
        <time>2026-05-06T12:31:09.000Z</time>
      </trkpt>
      <trkpt lat="41.789752" lon="22.96856">
        <ele>1827.9</ele>
        <time>2026-05-06T12:31:10.000Z</time>
      </trkpt>
      <trkpt lat="41.789747" lon="22.968553">
        <ele>1827.9</ele>
        <time>2026-05-06T12:31:11.000Z</time>
      </trkpt>
      <trkpt lat="41.789743" lon="22.968547">
        <ele>1827.9</ele>
        <time>2026-05-06T12:31:12.000Z</time>
      </trkpt>
      <trkpt lat="41.789738" lon="22.968541">
        <ele>1828.7</ele>
        <time>2026-05-06T12:31:13.000Z</time>
      </trkpt>
      <trkpt lat="41.789733" lon="22.968535">
        <ele>1828.7</ele>
        <time>2026-05-06T12:31:14.000Z</time>
      </trkpt>
      <trkpt lat="41.789728" lon="22.968529">
        <ele>1828.7</ele>
        <time>2026-05-06T12:31:15.000Z</time>
      </trkpt>
      <trkpt lat="41.789723" lon="22.968524">
        <ele>1828.7</ele>
        <time>2026-05-06T12:31:16.000Z</time>
      </trkpt>
      <trkpt lat="41.789718" lon="22.968518">
        <ele>1828.7</ele>
        <time>2026-05-06T12:31:17.000Z</time>
      </trkpt>
      <trkpt lat="41.789713" lon="22.968512">
        <ele>1829.1</ele>
        <time>2026-05-06T12:31:18.000Z</time>
      </trkpt>
      <trkpt lat="41.789709" lon="22.968506">
        <ele>1829.1</ele>
        <time>2026-05-06T12:31:19.000Z</time>
      </trkpt>
      <trkpt lat="41.789705" lon="22.968499">
        <ele>1829.1</ele>
        <time>2026-05-06T12:31:20.000Z</time>
      </trkpt>
      <trkpt lat="41.789703" lon="22.968491">
        <ele>1829.1</ele>
        <time>2026-05-06T12:31:21.000Z</time>
      </trkpt>
      <trkpt lat="41.789701" lon="22.968483">
        <ele>1829.1</ele>
        <time>2026-05-06T12:31:22.000Z</time>
      </trkpt>
      <trkpt lat="41.7897" lon="22.968476">
        <ele>1830.1</ele>
        <time>2026-05-06T12:31:23.000Z</time>
      </trkpt>
      <trkpt lat="41.789698" lon="22.968469">
        <ele>1830.1</ele>
        <time>2026-05-06T12:31:24.000Z</time>
      </trkpt>
      <trkpt lat="41.789696" lon="22.968461">
        <ele>1830.1</ele>
        <time>2026-05-06T12:31:25.000Z</time>
      </trkpt>
      <trkpt lat="41.789695" lon="22.968453">
        <ele>1830.1</ele>
        <time>2026-05-06T12:31:26.000Z</time>
      </trkpt>
      <trkpt lat="41.789694" lon="22.968445">
        <ele>1830.1</ele>
        <time>2026-05-06T12:31:27.000Z</time>
      </trkpt>
      <trkpt lat="41.789696" lon="22.968436">
        <ele>1831.2</ele>
        <time>2026-05-06T12:31:28.000Z</time>
      </trkpt>
      <trkpt lat="41.789699" lon="22.968427">
        <ele>1831.2</ele>
        <time>2026-05-06T12:31:29.000Z</time>
      </trkpt>
      <trkpt lat="41.789703" lon="22.96842">
        <ele>1831.2</ele>
        <time>2026-05-06T12:31:30.000Z</time>
      </trkpt>
      <trkpt lat="41.789707" lon="22.968412">
        <ele>1831.2</ele>
        <time>2026-05-06T12:31:31.000Z</time>
      </trkpt>
      <trkpt lat="41.789711" lon="22.968405">
        <ele>1831.2</ele>
        <time>2026-05-06T12:31:32.000Z</time>
      </trkpt>
      <trkpt lat="41.789713" lon="22.968399">
        <ele>1831.8</ele>
        <time>2026-05-06T12:31:33.000Z</time>
      </trkpt>
      <trkpt lat="41.789714" lon="22.968393">
        <ele>1831.8</ele>
        <time>2026-05-06T12:31:34.000Z</time>
      </trkpt>
      <trkpt lat="41.789714" lon="22.968387">
        <ele>1831.8</ele>
        <time>2026-05-06T12:31:35.000Z</time>
      </trkpt>
      <trkpt lat="41.789712" lon="22.968382">
        <ele>1831.8</ele>
        <time>2026-05-06T12:31:36.000Z</time>
      </trkpt>
      <trkpt lat="41.78971" lon="22.968375">
        <ele>1831.8</ele>
        <time>2026-05-06T12:31:37.000Z</time>
      </trkpt>
      <trkpt lat="41.789708" lon="22.968369">
        <ele>1833.1</ele>
        <time>2026-05-06T12:31:38.000Z</time>
      </trkpt>
      <trkpt lat="41.789704" lon="22.968363">
        <ele>1833.1</ele>
        <time>2026-05-06T12:31:39.000Z</time>
      </trkpt>
      <trkpt lat="41.789701" lon="22.968356">
        <ele>1833.1</ele>
        <time>2026-05-06T12:31:40.000Z</time>
      </trkpt>
      <trkpt lat="41.789696" lon="22.96835">
        <ele>1833.1</ele>
        <time>2026-05-06T12:31:41.000Z</time>
      </trkpt>
      <trkpt lat="41.789692" lon="22.968345">
        <ele>1833.1</ele>
        <time>2026-05-06T12:31:42.000Z</time>
      </trkpt>
      <trkpt lat="41.789688" lon="22.968339">
        <ele>1834.3</ele>
        <time>2026-05-06T12:31:43.000Z</time>
      </trkpt>
      <trkpt lat="41.789683" lon="22.968334">
        <ele>1834.3</ele>
        <time>2026-05-06T12:31:44.000Z</time>
      </trkpt>
      <trkpt lat="41.789678" lon="22.968331">
        <ele>1834.3</ele>
        <time>2026-05-06T12:31:45.000Z</time>
      </trkpt>
      <trkpt lat="41.789673" lon="22.968329">
        <ele>1834.3</ele>
        <time>2026-05-06T12:31:46.000Z</time>
      </trkpt>
      <trkpt lat="41.789668" lon="22.968325">
        <ele>1834.3</ele>
        <time>2026-05-06T12:31:47.000Z</time>
      </trkpt>
      <trkpt lat="41.789663" lon="22.968322">
        <ele>1834.9</ele>
        <time>2026-05-06T12:31:48.000Z</time>
      </trkpt>
      <trkpt lat="41.789659" lon="22.96832">
        <ele>1834.9</ele>
        <time>2026-05-06T12:31:49.000Z</time>
      </trkpt>
      <trkpt lat="41.789654" lon="22.968314">
        <ele>1834.9</ele>
        <time>2026-05-06T12:31:50.000Z</time>
      </trkpt>
      <trkpt lat="41.789651" lon="22.968309">
        <ele>1834.9</ele>
        <time>2026-05-06T12:31:51.000Z</time>
      </trkpt>
      <trkpt lat="41.789647" lon="22.968302">
        <ele>1834.9</ele>
        <time>2026-05-06T12:31:52.000Z</time>
      </trkpt>
      <trkpt lat="41.789644" lon="22.968295">
        <ele>1836.1</ele>
        <time>2026-05-06T12:31:53.000Z</time>
      </trkpt>
      <trkpt lat="41.789641" lon="22.968288">
        <ele>1836.1</ele>
        <time>2026-05-06T12:31:54.000Z</time>
      </trkpt>
      <trkpt lat="41.789638" lon="22.968282">
        <ele>1836.1</ele>
        <time>2026-05-06T12:31:55.000Z</time>
      </trkpt>
      <trkpt lat="41.789636" lon="22.968275">
        <ele>1836.1</ele>
        <time>2026-05-06T12:31:56.000Z</time>
      </trkpt>
      <trkpt lat="41.789635" lon="22.96827">
        <ele>1836.1</ele>
        <time>2026-05-06T12:31:57.000Z</time>
      </trkpt>
      <trkpt lat="41.789635" lon="22.968265">
        <ele>1837.3</ele>
        <time>2026-05-06T12:31:58.000Z</time>
      </trkpt>
      <trkpt lat="41.789636" lon="22.968261">
        <ele>1837.3</ele>
        <time>2026-05-06T12:31:59.000Z</time>
      </trkpt>
      <trkpt lat="41.789638" lon="22.968259">
        <ele>1837.3</ele>
        <time>2026-05-06T12:32:00.000Z</time>
      </trkpt>
      <trkpt lat="41.78964" lon="22.968257">
        <ele>1837.3</ele>
        <time>2026-05-06T12:32:01.000Z</time>
      </trkpt>
      <trkpt lat="41.789641" lon="22.968256">
        <ele>1837.3</ele>
        <time>2026-05-06T12:32:02.000Z</time>
      </trkpt>
      <trkpt lat="41.789642" lon="22.968256">
        <ele>1837.9</ele>
        <time>2026-05-06T12:32:03.000Z</time>
      </trkpt>
      <trkpt lat="41.789644" lon="22.968253">
        <ele>1837.9</ele>
        <time>2026-05-06T12:32:04.000Z</time>
      </trkpt>
      <trkpt lat="41.789646" lon="22.968251">
        <ele>1837.9</ele>
        <time>2026-05-06T12:32:05.000Z</time>
      </trkpt>
      <trkpt lat="41.789648" lon="22.968248">
        <ele>1837.9</ele>
        <time>2026-05-06T12:32:06.000Z</time>
      </trkpt>
      <trkpt lat="41.789648" lon="22.968245">
        <ele>1837.9</ele>
        <time>2026-05-06T12:32:07.000Z</time>
      </trkpt>
      <trkpt lat="41.789649" lon="22.968241">
        <ele>1838.9</ele>
        <time>2026-05-06T12:32:08.000Z</time>
      </trkpt>
      <trkpt lat="41.789647" lon="22.968238">
        <ele>1838.9</ele>
        <time>2026-05-06T12:32:09.000Z</time>
      </trkpt>
      <trkpt lat="41.789646" lon="22.968234">
        <ele>1838.9</ele>
        <time>2026-05-06T12:32:10.000Z</time>
      </trkpt>
      <trkpt lat="41.789644" lon="22.968229">
        <ele>1838.9</ele>
        <time>2026-05-06T12:32:11.000Z</time>
      </trkpt>
      <trkpt lat="41.789642" lon="22.968223">
        <ele>1838.9</ele>
        <time>2026-05-06T12:32:12.000Z</time>
      </trkpt>
      <trkpt lat="41.78964" lon="22.968216">
        <ele>1839.8</ele>
        <time>2026-05-06T12:32:13.000Z</time>
      </trkpt>
      <trkpt lat="41.789638" lon="22.968208">
        <ele>1839.8</ele>
        <time>2026-05-06T12:32:14.000Z</time>
      </trkpt>
      <trkpt lat="41.789636" lon="22.968199">
        <ele>1839.8</ele>
        <time>2026-05-06T12:32:15.000Z</time>
      </trkpt>
      <trkpt lat="41.789633" lon="22.96819">
        <ele>1839.8</ele>
        <time>2026-05-06T12:32:16.000Z</time>
      </trkpt>
      <trkpt lat="41.78963" lon="22.96818">
        <ele>1839.8</ele>
        <time>2026-05-06T12:32:17.000Z</time>
      </trkpt>
      <trkpt lat="41.789627" lon="22.968172">
        <ele>1840.1</ele>
        <time>2026-05-06T12:32:18.000Z</time>
      </trkpt>
      <trkpt lat="41.789624" lon="22.968163">
        <ele>1840.1</ele>
        <time>2026-05-06T12:32:19.000Z</time>
      </trkpt>
      <trkpt lat="41.789621" lon="22.968157">
        <ele>1840.1</ele>
        <time>2026-05-06T12:32:20.000Z</time>
      </trkpt>
      <trkpt lat="41.789617" lon="22.96815">
        <ele>1840.1</ele>
        <time>2026-05-06T12:32:21.000Z</time>
      </trkpt>
      <trkpt lat="41.789614" lon="22.968146">
        <ele>1840.1</ele>
        <time>2026-05-06T12:32:22.000Z</time>
      </trkpt>
      <trkpt lat="41.789611" lon="22.968141">
        <ele>1840.7</ele>
        <time>2026-05-06T12:32:23.000Z</time>
      </trkpt>
      <trkpt lat="41.789607" lon="22.968137">
        <ele>1840.7</ele>
        <time>2026-05-06T12:32:24.000Z</time>
      </trkpt>
      <trkpt lat="41.789602" lon="22.968131">
        <ele>1840.7</ele>
        <time>2026-05-06T12:32:25.000Z</time>
      </trkpt>
      <trkpt lat="41.789598" lon="22.968125">
        <ele>1840.7</ele>
        <time>2026-05-06T12:32:26.000Z</time>
      </trkpt>
      <trkpt lat="41.789594" lon="22.96812">
        <ele>1840.7</ele>
        <time>2026-05-06T12:32:27.000Z</time>
      </trkpt>
      <trkpt lat="41.789591" lon="22.968116">
        <ele>1841.7</ele>
        <time>2026-05-06T12:32:28.000Z</time>
      </trkpt>
      <trkpt lat="41.789589" lon="22.968111">
        <ele>1841.7</ele>
        <time>2026-05-06T12:32:29.000Z</time>
      </trkpt>
      <trkpt lat="41.789587" lon="22.968106">
        <ele>1841.7</ele>
        <time>2026-05-06T12:32:30.000Z</time>
      </trkpt>
      <trkpt lat="41.789587" lon="22.968102">
        <ele>1841.7</ele>
        <time>2026-05-06T12:32:31.000Z</time>
      </trkpt>
      <trkpt lat="41.789586" lon="22.968097">
        <ele>1841.7</ele>
        <time>2026-05-06T12:32:32.000Z</time>
      </trkpt>
      <trkpt lat="41.789585" lon="22.968091">
        <ele>1842.3</ele>
        <time>2026-05-06T12:32:33.000Z</time>
      </trkpt>
      <trkpt lat="41.789583" lon="22.968085">
        <ele>1842.3</ele>
        <time>2026-05-06T12:32:34.000Z</time>
      </trkpt>
      <trkpt lat="41.789582" lon="22.968078">
        <ele>1842.3</ele>
        <time>2026-05-06T12:32:35.000Z</time>
      </trkpt>
      <trkpt lat="41.789581" lon="22.968072">
        <ele>1842.3</ele>
        <time>2026-05-06T12:32:36.000Z</time>
      </trkpt>
      <trkpt lat="41.78958" lon="22.968066">
        <ele>1842.3</ele>
        <time>2026-05-06T12:32:37.000Z</time>
      </trkpt>
      <trkpt lat="41.789579" lon="22.968058">
        <ele>1843.4</ele>
        <time>2026-05-06T12:32:38.000Z</time>
      </trkpt>
      <trkpt lat="41.789578" lon="22.968051">
        <ele>1843.4</ele>
        <time>2026-05-06T12:32:39.000Z</time>
      </trkpt>
      <trkpt lat="41.789577" lon="22.968043">
        <ele>1843.4</ele>
        <time>2026-05-06T12:32:40.000Z</time>
      </trkpt>
      <trkpt lat="41.789575" lon="22.968035">
        <ele>1843.4</ele>
        <time>2026-05-06T12:32:41.000Z</time>
      </trkpt>
      <trkpt lat="41.789573" lon="22.968026">
        <ele>1843.4</ele>
        <time>2026-05-06T12:32:42.000Z</time>
      </trkpt>
      <trkpt lat="41.789571" lon="22.968016">
        <ele>1844.3</ele>
        <time>2026-05-06T12:32:43.000Z</time>
      </trkpt>
      <trkpt lat="41.789571" lon="22.968007">
        <ele>1844.3</ele>
        <time>2026-05-06T12:32:44.000Z</time>
      </trkpt>
      <trkpt lat="41.789571" lon="22.967999">
        <ele>1844.3</ele>
        <time>2026-05-06T12:32:45.000Z</time>
      </trkpt>
      <trkpt lat="41.789572" lon="22.967991">
        <ele>1844.3</ele>
        <time>2026-05-06T12:32:46.000Z</time>
      </trkpt>
      <trkpt lat="41.789572" lon="22.967983">
        <ele>1844.3</ele>
        <time>2026-05-06T12:32:47.000Z</time>
      </trkpt>
      <trkpt lat="41.789572" lon="22.967975">
        <ele>1844.6</ele>
        <time>2026-05-06T12:32:48.000Z</time>
      </trkpt>
      <trkpt lat="41.789573" lon="22.967966">
        <ele>1844.6</ele>
        <time>2026-05-06T12:32:49.000Z</time>
      </trkpt>
      <trkpt lat="41.789574" lon="22.967959">
        <ele>1844.6</ele>
        <time>2026-05-06T12:32:50.000Z</time>
      </trkpt>
      <trkpt lat="41.789575" lon="22.967956">
        <ele>1844.6</ele>
        <time>2026-05-06T12:32:51.000Z</time>
      </trkpt>
      <trkpt lat="41.789577" lon="22.967954">
        <ele>1844.6</ele>
        <time>2026-05-06T12:32:52.000Z</time>
      </trkpt>
      <trkpt lat="41.789579" lon="22.967954">
        <ele>1845.1</ele>
        <time>2026-05-06T12:32:53.000Z</time>
      </trkpt>
      <trkpt lat="41.78958" lon="22.967956">
        <ele>1845.1</ele>
        <time>2026-05-06T12:32:54.000Z</time>
      </trkpt>
      <trkpt lat="41.78958" lon="22.967958">
        <ele>1845.1</ele>
        <time>2026-05-06T12:32:55.000Z</time>
      </trkpt>
      <trkpt lat="41.789581" lon="22.967958">
        <ele>1845.1</ele>
        <time>2026-05-06T12:32:56.000Z</time>
      </trkpt>
      <trkpt lat="41.789581" lon="22.967958">
        <ele>1845.1</ele>
        <time>2026-05-06T12:32:57.000Z</time>
      </trkpt>
      <trkpt lat="41.789582" lon="22.967958">
        <ele>1845.7</ele>
        <time>2026-05-06T12:32:58.000Z</time>
      </trkpt>
      <trkpt lat="41.789582" lon="22.967957">
        <ele>1845.7</ele>
        <time>2026-05-06T12:32:59.000Z</time>
      </trkpt>
      <trkpt lat="41.789582" lon="22.967957">
        <ele>1845.7</ele>
        <time>2026-05-06T12:33:00.000Z</time>
      </trkpt>
      <trkpt lat="41.789582" lon="22.967957">
        <ele>1845.7</ele>
        <time>2026-05-06T12:33:01.000Z</time>
      </trkpt>
      <trkpt lat="41.789582" lon="22.967957">
        <ele>1845.7</ele>
        <time>2026-05-06T12:33:02.000Z</time>
      </trkpt>
      <trkpt lat="41.789583" lon="22.967957">
        <ele>1846</ele>
        <time>2026-05-06T12:33:03.000Z</time>
      </trkpt>
      <trkpt lat="41.789583" lon="22.967957">
        <ele>1846</ele>
        <time>2026-05-06T12:33:04.000Z</time>
      </trkpt>
      <trkpt lat="41.789584" lon="22.967957">
        <ele>1846</ele>
        <time>2026-05-06T12:33:05.000Z</time>
      </trkpt>
      <trkpt lat="41.789584" lon="22.967956">
        <ele>1846</ele>
        <time>2026-05-06T12:33:06.000Z</time>
      </trkpt>
      <trkpt lat="41.789585" lon="22.967956">
        <ele>1846</ele>
        <time>2026-05-06T12:33:07.000Z</time>
      </trkpt>
      <trkpt lat="41.789585" lon="22.967956">
        <ele>1846.5</ele>
        <time>2026-05-06T12:33:08.000Z</time>
      </trkpt>
      <trkpt lat="41.789585" lon="22.967956">
        <ele>1846.5</ele>
        <time>2026-05-06T12:33:09.000Z</time>
      </trkpt>
      <trkpt lat="41.789585" lon="22.967956">
        <ele>1846.5</ele>
        <time>2026-05-06T12:33:10.000Z</time>
      </trkpt>
      <trkpt lat="41.789585" lon="22.967956">
        <ele>1846.5</ele>
        <time>2026-05-06T12:33:11.000Z</time>
      </trkpt>
      <trkpt lat="41.789585" lon="22.967956">
        <ele>1846.5</ele>
        <time>2026-05-06T12:33:12.000Z</time>
      </trkpt>
      <trkpt lat="41.789585" lon="22.967956">
        <ele>1846.8</ele>
        <time>2026-05-06T12:33:13.000Z</time>
      </trkpt>
      <trkpt lat="41.789585" lon="22.967956">
        <ele>1846.8</ele>
        <time>2026-05-06T12:33:14.000Z</time>
      </trkpt>
      <trkpt lat="41.789585" lon="22.967956">
        <ele>1846.8</ele>
        <time>2026-05-06T12:33:15.000Z</time>
      </trkpt>
      <trkpt lat="41.789585" lon="22.967956">
        <ele>1846.8</ele>
        <time>2026-05-06T12:33:16.000Z</time>
      </trkpt>
      <trkpt lat="41.789585" lon="22.967956">
        <ele>1846.8</ele>
        <time>2026-05-06T12:33:17.000Z</time>
      </trkpt>
      <trkpt lat="41.789586" lon="22.967956">
        <ele>1846.9</ele>
        <time>2026-05-06T12:33:18.000Z</time>
      </trkpt>
      <trkpt lat="41.789586" lon="22.967956">
        <ele>1846.9</ele>
        <time>2026-05-06T12:33:19.000Z</time>
      </trkpt>
      <trkpt lat="41.789586" lon="22.967956">
        <ele>1846.9</ele>
        <time>2026-05-06T12:33:20.000Z</time>
      </trkpt>
      <trkpt lat="41.789586" lon="22.967956">
        <ele>1846.9</ele>
        <time>2026-05-06T12:33:21.000Z</time>
      </trkpt>
      <trkpt lat="41.789587" lon="22.967956">
        <ele>1846.9</ele>
        <time>2026-05-06T12:33:22.000Z</time>
      </trkpt>
      <trkpt lat="41.789587" lon="22.967956">
        <ele>1847.1</ele>
        <time>2026-05-06T12:33:23.000Z</time>
      </trkpt>
      <trkpt lat="41.789587" lon="22.967956">
        <ele>1847.1</ele>
        <time>2026-05-06T12:33:24.000Z</time>
      </trkpt>
      <trkpt lat="41.789586" lon="22.967956">
        <ele>1847.1</ele>
        <time>2026-05-06T12:33:25.000Z</time>
      </trkpt>
      <trkpt lat="41.789586" lon="22.967956">
        <ele>1847.1</ele>
        <time>2026-05-06T12:33:26.000Z</time>
      </trkpt>
      <trkpt lat="41.789585" lon="22.967956">
        <ele>1847.1</ele>
        <time>2026-05-06T12:33:27.000Z</time>
      </trkpt>
      <trkpt lat="41.789585" lon="22.967956">
        <ele>1847.2</ele>
        <time>2026-05-06T12:33:28.000Z</time>
      </trkpt>
      <trkpt lat="41.789584" lon="22.967955">
        <ele>1847.2</ele>
        <time>2026-05-06T12:33:29.000Z</time>
      </trkpt>
      <trkpt lat="41.789584" lon="22.967955">
        <ele>1847.2</ele>
        <time>2026-05-06T12:33:30.000Z</time>
      </trkpt>
      <trkpt lat="41.789584" lon="22.967955">
        <ele>1847.2</ele>
        <time>2026-05-06T12:33:31.000Z</time>
      </trkpt>
      <trkpt lat="41.789584" lon="22.967955">
        <ele>1847.2</ele>
        <time>2026-05-06T12:33:32.000Z</time>
      </trkpt>
      <trkpt lat="41.789584" lon="22.967955">
        <ele>1847.1</ele>
        <time>2026-05-06T12:33:33.000Z</time>
      </trkpt>
      <trkpt lat="41.789584" lon="22.967955">
        <ele>1847.1</ele>
        <time>2026-05-06T12:33:34.000Z</time>
      </trkpt>
      <trkpt lat="41.789584" lon="22.967956">
        <ele>1847.1</ele>
        <time>2026-05-06T12:33:35.000Z</time>
      </trkpt>
      <trkpt lat="41.789584" lon="22.967956">
        <ele>1847.1</ele>
        <time>2026-05-06T12:33:36.000Z</time>
      </trkpt>
      <trkpt lat="41.789584" lon="22.967957">
        <ele>1847.1</ele>
        <time>2026-05-06T12:33:37.000Z</time>
      </trkpt>
      <trkpt lat="41.789583" lon="22.967957">
        <ele>1847</ele>
        <time>2026-05-06T12:33:38.000Z</time>
      </trkpt>
      <trkpt lat="41.789582" lon="22.967958">
        <ele>1847</ele>
        <time>2026-05-06T12:33:39.000Z</time>
      </trkpt>
      <trkpt lat="41.789582" lon="22.967958">
        <ele>1847</ele>
        <time>2026-05-06T12:33:40.000Z</time>
      </trkpt>
      <trkpt lat="41.789581" lon="22.967959">
        <ele>1847</ele>
        <time>2026-05-06T12:33:41.000Z</time>
      </trkpt>
      <trkpt lat="41.789581" lon="22.967959">
        <ele>1847</ele>
        <time>2026-05-06T12:33:42.000Z</time>
      </trkpt>
      <trkpt lat="41.789581" lon="22.96796">
        <ele>1846.9</ele>
        <time>2026-05-06T12:33:43.000Z</time>
      </trkpt>
      <trkpt lat="41.78958" lon="22.96796">
        <ele>1846.9</ele>
        <time>2026-05-06T12:33:44.000Z</time>
      </trkpt>
      <trkpt lat="41.78958" lon="22.96796">
        <ele>1846.9</ele>
        <time>2026-05-06T12:33:45.000Z</time>
      </trkpt>
      <trkpt lat="41.78958" lon="22.96796">
        <ele>1846.9</ele>
        <time>2026-05-06T12:33:46.000Z</time>
      </trkpt>
      <trkpt lat="41.78958" lon="22.967959">
        <ele>1846.9</ele>
        <time>2026-05-06T12:33:47.000Z</time>
      </trkpt>
      <trkpt lat="41.78958" lon="22.967959">
        <ele>1846.9</ele>
        <time>2026-05-06T12:33:48.000Z</time>
      </trkpt>
      <trkpt lat="41.78958" lon="22.967958">
        <ele>1846.9</ele>
        <time>2026-05-06T12:33:49.000Z</time>
      </trkpt>
      <trkpt lat="41.78958" lon="22.967958">
        <ele>1846.9</ele>
        <time>2026-05-06T12:33:50.000Z</time>
      </trkpt>
      <trkpt lat="41.78958" lon="22.967959">
        <ele>1846.9</ele>
        <time>2026-05-06T12:33:51.000Z</time>
      </trkpt>
      <trkpt lat="41.78958" lon="22.967959">
        <ele>1846.9</ele>
        <time>2026-05-06T12:33:52.000Z</time>
      </trkpt>
      <trkpt lat="41.78958" lon="22.967959">
        <ele>1847</ele>
        <time>2026-05-06T12:33:53.000Z</time>
      </trkpt>
      <trkpt lat="41.78958" lon="22.967959">
        <ele>1847</ele>
        <time>2026-05-06T12:33:54.000Z</time>
      </trkpt>
      <trkpt lat="41.789579" lon="22.967959">
        <ele>1847</ele>
        <time>2026-05-06T12:33:55.000Z</time>
      </trkpt>
      <trkpt lat="41.789579" lon="22.967959">
        <ele>1847</ele>
        <time>2026-05-06T12:33:56.000Z</time>
      </trkpt>
      <trkpt lat="41.789579" lon="22.967959">
        <ele>1847</ele>
        <time>2026-05-06T12:33:57.000Z</time>
      </trkpt>
      <trkpt lat="41.789579" lon="22.967959">
        <ele>1847</ele>
        <time>2026-05-06T12:33:58.000Z</time>
      </trkpt>
      <trkpt lat="41.789579" lon="22.967959">
        <ele>1847</ele>
        <time>2026-05-06T12:33:59.000Z</time>
      </trkpt>
      <trkpt lat="41.789579" lon="22.967959">
        <ele>1847</ele>
        <time>2026-05-06T12:34:00.000Z</time>
      </trkpt>
      <trkpt lat="41.78958" lon="22.967959">
        <ele>1847</ele>
        <time>2026-05-06T12:34:01.000Z</time>
      </trkpt>
      <trkpt lat="41.78958" lon="22.967959">
        <ele>1847</ele>
        <time>2026-05-06T12:34:02.000Z</time>
      </trkpt>
      <trkpt lat="41.78958" lon="22.967959">
        <ele>1847</ele>
        <time>2026-05-06T12:34:03.000Z</time>
      </trkpt>
      <trkpt lat="41.789579" lon="22.967959">
        <ele>1847</ele>
        <time>2026-05-06T12:34:04.000Z</time>
      </trkpt>
      <trkpt lat="41.789579" lon="22.96796">
        <ele>1847</ele>
        <time>2026-05-06T12:34:05.000Z</time>
      </trkpt>
      <trkpt lat="41.789578" lon="22.967959">
        <ele>1847</ele>
        <time>2026-05-06T12:34:06.000Z</time>
      </trkpt>
      <trkpt lat="41.789577" lon="22.967959">
        <ele>1847</ele>
        <time>2026-05-06T12:34:07.000Z</time>
      </trkpt>
      <trkpt lat="41.789577" lon="22.967958">
        <ele>1846.8</ele>
        <time>2026-05-06T12:34:08.000Z</time>
      </trkpt>
      <trkpt lat="41.789576" lon="22.967958">
        <ele>1846.8</ele>
        <time>2026-05-06T12:34:09.000Z</time>
      </trkpt>
      <trkpt lat="41.789576" lon="22.967957">
        <ele>1846.8</ele>
        <time>2026-05-06T12:34:10.000Z</time>
      </trkpt>
      <trkpt lat="41.789576" lon="22.967957">
        <ele>1846.8</ele>
        <time>2026-05-06T12:34:11.000Z</time>
      </trkpt>
      <trkpt lat="41.789576" lon="22.967957">
        <ele>1846.8</ele>
        <time>2026-05-06T12:34:12.000Z</time>
      </trkpt>
      <trkpt lat="41.789576" lon="22.967956">
        <ele>1846.5</ele>
        <time>2026-05-06T12:34:13.000Z</time>
      </trkpt>
      <trkpt lat="41.789576" lon="22.967956">
        <ele>1846.5</ele>
        <time>2026-05-06T12:34:14.000Z</time>
      </trkpt>
      <trkpt lat="41.789576" lon="22.967956">
        <ele>1846.5</ele>
        <time>2026-05-06T12:34:15.000Z</time>
      </trkpt>
      <trkpt lat="41.789576" lon="22.967955">
        <ele>1846.5</ele>
        <time>2026-05-06T12:34:16.000Z</time>
      </trkpt>
      <trkpt lat="41.789576" lon="22.967955">
        <ele>1846.5</ele>
        <time>2026-05-06T12:34:17.000Z</time>
      </trkpt>
      <trkpt lat="41.789576" lon="22.967955">
        <ele>1846.5</ele>
        <time>2026-05-06T12:34:18.000Z</time>
      </trkpt>
      <trkpt lat="41.789576" lon="22.967955">
        <ele>1846.5</ele>
        <time>2026-05-06T12:34:19.000Z</time>
      </trkpt>
      <trkpt lat="41.789578" lon="22.967954">
        <ele>1846.5</ele>
        <time>2026-05-06T12:34:20.000Z</time>
      </trkpt>
      <trkpt lat="41.78958" lon="22.967951">
        <ele>1846.5</ele>
        <time>2026-05-06T12:34:21.000Z</time>
      </trkpt>
      <trkpt lat="41.789581" lon="22.967948">
        <ele>1846.5</ele>
        <time>2026-05-06T12:34:22.000Z</time>
      </trkpt>
      <trkpt lat="41.789581" lon="22.967945">
        <ele>1846.4</ele>
        <time>2026-05-06T12:34:23.000Z</time>
      </trkpt>
      <trkpt lat="41.789582" lon="22.967942">
        <ele>1846.4</ele>
        <time>2026-05-06T12:34:24.000Z</time>
      </trkpt>
      <trkpt lat="41.789581" lon="22.96794">
        <ele>1846.4</ele>
        <time>2026-05-06T12:34:25.000Z</time>
      </trkpt>
      <trkpt lat="41.78958" lon="22.967939">
        <ele>1846.4</ele>
        <time>2026-05-06T12:34:26.000Z</time>
      </trkpt>
      <trkpt lat="41.78958" lon="22.967939">
        <ele>1846.4</ele>
        <time>2026-05-06T12:34:27.000Z</time>
      </trkpt>
      <trkpt lat="41.78958" lon="22.96794">
        <ele>1846.2</ele>
        <time>2026-05-06T12:34:28.000Z</time>
      </trkpt>
      <trkpt lat="41.789579" lon="22.96794">
        <ele>1846.2</ele>
        <time>2026-05-06T12:34:29.000Z</time>
      </trkpt>
      <trkpt lat="41.789579" lon="22.967939">
        <ele>1846.2</ele>
        <time>2026-05-06T12:34:30.000Z</time>
      </trkpt>
      <trkpt lat="41.789579" lon="22.967939">
        <ele>1846.2</ele>
        <time>2026-05-06T12:34:31.000Z</time>
      </trkpt>
      <trkpt lat="41.789579" lon="22.967939">
        <ele>1846.2</ele>
        <time>2026-05-06T12:34:32.000Z</time>
      </trkpt>
      <trkpt lat="41.789579" lon="22.967939">
        <ele>1846.1</ele>
        <time>2026-05-06T12:34:33.000Z</time>
      </trkpt>
      <trkpt lat="41.789579" lon="22.967939">
        <ele>1846.1</ele>
        <time>2026-05-06T12:34:34.000Z</time>
      </trkpt>
      <trkpt lat="41.789579" lon="22.967939">
        <ele>1846.1</ele>
        <time>2026-05-06T12:34:35.000Z</time>
      </trkpt>
      <trkpt lat="41.789579" lon="22.967939">
        <ele>1846.1</ele>
        <time>2026-05-06T12:34:36.000Z</time>
      </trkpt>
      <trkpt lat="41.789579" lon="22.967939">
        <ele>1846.1</ele>
        <time>2026-05-06T12:34:37.000Z</time>
      </trkpt>
      <trkpt lat="41.78958" lon="22.967939">
        <ele>1845.9</ele>
        <time>2026-05-06T12:34:38.000Z</time>
      </trkpt>
      <trkpt lat="41.78958" lon="22.967939">
        <ele>1845.9</ele>
        <time>2026-05-06T12:34:39.000Z</time>
      </trkpt>
      <trkpt lat="41.78958" lon="22.967939">
        <ele>1845.9</ele>
        <time>2026-05-06T12:34:40.000Z</time>
      </trkpt>
      <trkpt lat="41.78958" lon="22.967939">
        <ele>1845.9</ele>
        <time>2026-05-06T12:34:41.000Z</time>
      </trkpt>
      <trkpt lat="41.78958" lon="22.967939">
        <ele>1845.9</ele>
        <time>2026-05-06T12:34:42.000Z</time>
      </trkpt>
      <trkpt lat="41.78958" lon="22.967939">
        <ele>1845.8</ele>
        <time>2026-05-06T12:34:43.000Z</time>
      </trkpt>
      <trkpt lat="41.78958" lon="22.96794">
        <ele>1845.8</ele>
        <time>2026-05-06T12:34:44.000Z</time>
      </trkpt>
      <trkpt lat="41.78958" lon="22.96794">
        <ele>1845.8</ele>
        <time>2026-05-06T12:34:45.000Z</time>
      </trkpt>
      <trkpt lat="41.789581" lon="22.96794">
        <ele>1845.8</ele>
        <time>2026-05-06T12:34:46.000Z</time>
      </trkpt>
      <trkpt lat="41.789581" lon="22.96794">
        <ele>1845.8</ele>
        <time>2026-05-06T12:34:47.000Z</time>
      </trkpt>
      <trkpt lat="41.789581" lon="22.96794">
        <ele>1845.8</ele>
        <time>2026-05-06T12:34:48.000Z</time>
      </trkpt>
      <trkpt lat="41.789581" lon="22.967941">
        <ele>1845.8</ele>
        <time>2026-05-06T12:34:49.000Z</time>
      </trkpt>
      <trkpt lat="41.789581" lon="22.967941">
        <ele>1845.8</ele>
        <time>2026-05-06T12:34:50.000Z</time>
      </trkpt>
      <trkpt lat="41.789581" lon="22.967942">
        <ele>1845.8</ele>
        <time>2026-05-06T12:34:51.000Z</time>
      </trkpt>
      <trkpt lat="41.789581" lon="22.967942">
        <ele>1845.8</ele>
        <time>2026-05-06T12:34:52.000Z</time>
      </trkpt>
      <trkpt lat="41.789581" lon="22.967943">
        <ele>1845.9</ele>
        <time>2026-05-06T12:34:53.000Z</time>
      </trkpt>
      <trkpt lat="41.789581" lon="22.967943">
        <ele>1845.9</ele>
        <time>2026-05-06T12:34:54.000Z</time>
      </trkpt>
      <trkpt lat="41.789581" lon="22.967943">
        <ele>1845.9</ele>
        <time>2026-05-06T12:34:55.000Z</time>
      </trkpt>
      <trkpt lat="41.789581" lon="22.967943">
        <ele>1845.9</ele>
        <time>2026-05-06T12:34:56.000Z</time>
      </trkpt>
      <trkpt lat="41.789581" lon="22.967943">
        <ele>1845.9</ele>
        <time>2026-05-06T12:34:57.000Z</time>
      </trkpt>
      <trkpt lat="41.789581" lon="22.967943">
        <ele>1846.1</ele>
        <time>2026-05-06T12:34:58.000Z</time>
      </trkpt>
      <trkpt lat="41.789581" lon="22.967943">
        <ele>1846.1</ele>
        <time>2026-05-06T12:34:59.000Z</time>
      </trkpt>
      <trkpt lat="41.789581" lon="22.967942">
        <ele>1846.1</ele>
        <time>2026-05-06T12:35:00.000Z</time>
      </trkpt>
      <trkpt lat="41.789581" lon="22.967942">
        <ele>1846.1</ele>
        <time>2026-05-06T12:35:01.000Z</time>
      </trkpt>
      <trkpt lat="41.789581" lon="22.967942">
        <ele>1846.1</ele>
        <time>2026-05-06T12:35:02.000Z</time>
      </trkpt>
      <trkpt lat="41.789581" lon="22.967941">
        <ele>1846.1</ele>
        <time>2026-05-06T12:35:03.000Z</time>
      </trkpt>
      <trkpt lat="41.789581" lon="22.967941">
        <ele>1846.1</ele>
        <time>2026-05-06T12:35:04.000Z</time>
      </trkpt>
      <trkpt lat="41.789581" lon="22.967941">
        <ele>1846.1</ele>
        <time>2026-05-06T12:35:05.000Z</time>
      </trkpt>
      <trkpt lat="41.789581" lon="22.967941">
        <ele>1846.1</ele>
        <time>2026-05-06T12:35:06.000Z</time>
      </trkpt>
      <trkpt lat="41.789581" lon="22.967941">
        <ele>1846.1</ele>
        <time>2026-05-06T12:35:07.000Z</time>
      </trkpt>
      <trkpt lat="41.789581" lon="22.967941">
        <ele>1846.1</ele>
        <time>2026-05-06T12:35:08.000Z</time>
      </trkpt>
      <trkpt lat="41.78958" lon="22.967941">
        <ele>1846.1</ele>
        <time>2026-05-06T12:35:09.000Z</time>
      </trkpt>
      <trkpt lat="41.78958" lon="22.967941">
        <ele>1846.1</ele>
        <time>2026-05-06T12:35:10.000Z</time>
      </trkpt>
      <trkpt lat="41.789579" lon="22.967941">
        <ele>1846.1</ele>
        <time>2026-05-06T12:35:11.000Z</time>
      </trkpt>
      <trkpt lat="41.789579" lon="22.967941">
        <ele>1846.1</ele>
        <time>2026-05-06T12:35:12.000Z</time>
      </trkpt>
      <trkpt lat="41.789579" lon="22.967941">
        <ele>1846</ele>
        <time>2026-05-06T12:35:13.000Z</time>
      </trkpt>
      <trkpt lat="41.789579" lon="22.967941">
        <ele>1846</ele>
        <time>2026-05-06T12:35:14.000Z</time>
      </trkpt>
      <trkpt lat="41.789579" lon="22.967941">
        <ele>1846</ele>
        <time>2026-05-06T12:35:15.000Z</time>
      </trkpt>
      <trkpt lat="41.789579" lon="22.967941">
        <ele>1846</ele>
        <time>2026-05-06T12:35:16.000Z</time>
      </trkpt>
      <trkpt lat="41.789579" lon="22.967942">
        <ele>1846</ele>
        <time>2026-05-06T12:35:17.000Z</time>
      </trkpt>
      <trkpt lat="41.789579" lon="22.967943">
        <ele>1846.1</ele>
        <time>2026-05-06T12:35:18.000Z</time>
      </trkpt>
      <trkpt lat="41.789579" lon="22.967943">
        <ele>1846.1</ele>
        <time>2026-05-06T12:35:19.000Z</time>
      </trkpt>
      <trkpt lat="41.789579" lon="22.967944">
        <ele>1846.1</ele>
        <time>2026-05-06T12:35:20.000Z</time>
      </trkpt>
      <trkpt lat="41.789579" lon="22.967944">
        <ele>1846.1</ele>
        <time>2026-05-06T12:35:21.000Z</time>
      </trkpt>
      <trkpt lat="41.78958" lon="22.967944">
        <ele>1846.1</ele>
        <time>2026-05-06T12:35:22.000Z</time>
      </trkpt>
      <trkpt lat="41.78958" lon="22.967944">
        <ele>1846.6</ele>
        <time>2026-05-06T12:35:23.000Z</time>
      </trkpt>
      <trkpt lat="41.78958" lon="22.967944">
        <ele>1846.6</ele>
        <time>2026-05-06T12:35:24.000Z</time>
      </trkpt>
      <trkpt lat="41.78958" lon="22.967943">
        <ele>1846.6</ele>
        <time>2026-05-06T12:35:25.000Z</time>
      </trkpt>
      <trkpt lat="41.78958" lon="22.967943">
        <ele>1846.6</ele>
        <time>2026-05-06T12:35:26.000Z</time>
      </trkpt>
      <trkpt lat="41.789581" lon="22.967943">
        <ele>1846.6</ele>
        <time>2026-05-06T12:35:27.000Z</time>
      </trkpt>
      <trkpt lat="41.789581" lon="22.967942">
        <ele>1847.2</ele>
        <time>2026-05-06T12:35:28.000Z</time>
      </trkpt>
      <trkpt lat="41.789581" lon="22.967942">
        <ele>1847.2</ele>
        <time>2026-05-06T12:35:29.000Z</time>
      </trkpt>
      <trkpt lat="41.789582" lon="22.967941">
        <ele>1847.2</ele>
        <time>2026-05-06T12:35:30.000Z</time>
      </trkpt>
      <trkpt lat="41.789582" lon="22.967941">
        <ele>1847.2</ele>
        <time>2026-05-06T12:35:31.000Z</time>
      </trkpt>
      <trkpt lat="41.789582" lon="22.967941">
        <ele>1847.2</ele>
        <time>2026-05-06T12:35:32.000Z</time>
      </trkpt>
      <trkpt lat="41.789582" lon="22.967941">
        <ele>1847.3</ele>
        <time>2026-05-06T12:35:33.000Z</time>
      </trkpt>
      <trkpt lat="41.789582" lon="22.967941">
        <ele>1847.3</ele>
        <time>2026-05-06T12:35:34.000Z</time>
      </trkpt>
      <trkpt lat="41.789582" lon="22.967941">
        <ele>1847.3</ele>
        <time>2026-05-06T12:35:35.000Z</time>
      </trkpt>
      <trkpt lat="41.789582" lon="22.967941">
        <ele>1847.3</ele>
        <time>2026-05-06T12:35:36.000Z</time>
      </trkpt>
      <trkpt lat="41.789582" lon="22.967941">
        <ele>1847.3</ele>
        <time>2026-05-06T12:35:37.000Z</time>
      </trkpt>
      <trkpt lat="41.789582" lon="22.967941">
        <ele>1847.2</ele>
        <time>2026-05-06T12:35:38.000Z</time>
      </trkpt>
      <trkpt lat="41.789582" lon="22.967941">
        <ele>1847.2</ele>
        <time>2026-05-06T12:35:39.000Z</time>
      </trkpt>
      <trkpt lat="41.789583" lon="22.967941">
        <ele>1847.2</ele>
        <time>2026-05-06T12:35:40.000Z</time>
      </trkpt>
      <trkpt lat="41.789583" lon="22.967941">
        <ele>1847.2</ele>
        <time>2026-05-06T12:35:41.000Z</time>
      </trkpt>
      <trkpt lat="41.789584" lon="22.96794">
        <ele>1847.2</ele>
        <time>2026-05-06T12:35:42.000Z</time>
      </trkpt>
      <trkpt lat="41.789584" lon="22.96794">
        <ele>1846.8</ele>
        <time>2026-05-06T12:35:43.000Z</time>
      </trkpt>
      <trkpt lat="41.789584" lon="22.96794">
        <ele>1846.8</ele>
        <time>2026-05-06T12:35:44.000Z</time>
      </trkpt>
      <trkpt lat="41.789584" lon="22.967939">
        <ele>1846.8</ele>
        <time>2026-05-06T12:35:45.000Z</time>
      </trkpt>
      <trkpt lat="41.789584" lon="22.967939">
        <ele>1846.8</ele>
        <time>2026-05-06T12:35:46.000Z</time>
      </trkpt>
      <trkpt lat="41.789584" lon="22.967939">
        <ele>1846.8</ele>
        <time>2026-05-06T12:35:47.000Z</time>
      </trkpt>
      <trkpt lat="41.789584" lon="22.967939">
        <ele>1846.7</ele>
        <time>2026-05-06T12:35:48.000Z</time>
      </trkpt>
      <trkpt lat="41.789584" lon="22.967939">
        <ele>1846.7</ele>
        <time>2026-05-06T12:35:49.000Z</time>
      </trkpt>
      <trkpt lat="41.789584" lon="22.967939">
        <ele>1846.7</ele>
        <time>2026-05-06T12:35:50.000Z</time>
      </trkpt>
      <trkpt lat="41.789584" lon="22.967939">
        <ele>1846.7</ele>
        <time>2026-05-06T12:35:51.000Z</time>
      </trkpt>
      <trkpt lat="41.789584" lon="22.967939">
        <ele>1846.7</ele>
        <time>2026-05-06T12:35:52.000Z</time>
      </trkpt>
      <trkpt lat="41.789584" lon="22.967939">
        <ele>1846.6</ele>
        <time>2026-05-06T12:35:53.000Z</time>
      </trkpt>
      <trkpt lat="41.789584" lon="22.967939">
        <ele>1846.6</ele>
        <time>2026-05-06T12:35:54.000Z</time>
      </trkpt>
      <trkpt lat="41.789584" lon="22.967939">
        <ele>1846.6</ele>
        <time>2026-05-06T12:35:55.000Z</time>
      </trkpt>
      <trkpt lat="41.789584" lon="22.967939">
        <ele>1846.6</ele>
        <time>2026-05-06T12:35:56.000Z</time>
      </trkpt>
      <trkpt lat="41.789584" lon="22.967939">
        <ele>1846.6</ele>
        <time>2026-05-06T12:35:57.000Z</time>
      </trkpt>
      <trkpt lat="41.789584" lon="22.96794">
        <ele>1846.7</ele>
        <time>2026-05-06T12:35:58.000Z</time>
      </trkpt>
      <trkpt lat="41.789584" lon="22.96794">
        <ele>1846.7</ele>
        <time>2026-05-06T12:35:59.000Z</time>
      </trkpt>
      <trkpt lat="41.789584" lon="22.96794">
        <ele>1846.7</ele>
        <time>2026-05-06T12:36:00.000Z</time>
      </trkpt>
      <trkpt lat="41.789584" lon="22.96794">
        <ele>1846.7</ele>
        <time>2026-05-06T12:36:01.000Z</time>
      </trkpt>
      <trkpt lat="41.789584" lon="22.96794">
        <ele>1846.7</ele>
        <time>2026-05-06T12:36:02.000Z</time>
      </trkpt>
      <trkpt lat="41.789583" lon="22.96794">
        <ele>1846.7</ele>
        <time>2026-05-06T12:36:03.000Z</time>
      </trkpt>
      <trkpt lat="41.789583" lon="22.96794">
        <ele>1846.7</ele>
        <time>2026-05-06T12:36:04.000Z</time>
      </trkpt>
      <trkpt lat="41.789583" lon="22.967939">
        <ele>1846.7</ele>
        <time>2026-05-06T12:36:05.000Z</time>
      </trkpt>
      <trkpt lat="41.789583" lon="22.967939">
        <ele>1846.7</ele>
        <time>2026-05-06T12:36:06.000Z</time>
      </trkpt>
      <trkpt lat="41.789583" lon="22.967939">
        <ele>1846.7</ele>
        <time>2026-05-06T12:36:07.000Z</time>
      </trkpt>
      <trkpt lat="41.789583" lon="22.967939">
        <ele>1846.6</ele>
        <time>2026-05-06T12:36:08.000Z</time>
      </trkpt>
      <trkpt lat="41.789583" lon="22.967939">
        <ele>1846.6</ele>
        <time>2026-05-06T12:36:09.000Z</time>
      </trkpt>
      <trkpt lat="41.789583" lon="22.967939">
        <ele>1846.6</ele>
        <time>2026-05-06T12:36:10.000Z</time>
      </trkpt>
      <trkpt lat="41.789583" lon="22.967939">
        <ele>1846.6</ele>
        <time>2026-05-06T12:36:11.000Z</time>
      </trkpt>
      <trkpt lat="41.789583" lon="22.967939">
        <ele>1846.6</ele>
        <time>2026-05-06T12:36:12.000Z</time>
      </trkpt>
      <trkpt lat="41.789583" lon="22.967939">
        <ele>1846.5</ele>
        <time>2026-05-06T12:36:13.000Z</time>
      </trkpt>
      <trkpt lat="41.789583" lon="22.967939">
        <ele>1846.5</ele>
        <time>2026-05-06T12:36:14.000Z</time>
      </trkpt>
      <trkpt lat="41.789583" lon="22.96794">
        <ele>1846.5</ele>
        <time>2026-05-06T12:36:15.000Z</time>
      </trkpt>
      <trkpt lat="41.789583" lon="22.96794">
        <ele>1846.5</ele>
        <time>2026-05-06T12:36:16.000Z</time>
      </trkpt>
      <trkpt lat="41.789583" lon="22.96794">
        <ele>1846.5</ele>
        <time>2026-05-06T12:36:17.000Z</time>
      </trkpt>
      <trkpt lat="41.789582" lon="22.96794">
        <ele>1846.4</ele>
        <time>2026-05-06T12:36:18.000Z</time>
      </trkpt>
      <trkpt lat="41.789582" lon="22.96794">
        <ele>1846.4</ele>
        <time>2026-05-06T12:36:19.000Z</time>
      </trkpt>
      <trkpt lat="41.789582" lon="22.96794">
        <ele>1846.4</ele>
        <time>2026-05-06T12:36:20.000Z</time>
      </trkpt>
      <trkpt lat="41.789582" lon="22.96794">
        <ele>1846.4</ele>
        <time>2026-05-06T12:36:21.000Z</time>
      </trkpt>
      <trkpt lat="41.789582" lon="22.96794">
        <ele>1846.4</ele>
        <time>2026-05-06T12:36:22.000Z</time>
      </trkpt>
      <trkpt lat="41.789582" lon="22.96794">
        <ele>1846.4</ele>
        <time>2026-05-06T12:36:23.000Z</time>
      </trkpt>
      <trkpt lat="41.789582" lon="22.96794">
        <ele>1846.4</ele>
        <time>2026-05-06T12:36:24.000Z</time>
      </trkpt>
      <trkpt lat="41.789582" lon="22.96794">
        <ele>1846.4</ele>
        <time>2026-05-06T12:36:25.000Z</time>
      </trkpt>
      <trkpt lat="41.789582" lon="22.96794">
        <ele>1846.4</ele>
        <time>2026-05-06T12:36:26.000Z</time>
      </trkpt>
      <trkpt lat="41.789582" lon="22.96794">
        <ele>1846.4</ele>
        <time>2026-05-06T12:36:27.000Z</time>
      </trkpt>
      <trkpt lat="41.789582" lon="22.96794">
        <ele>1846.4</ele>
        <time>2026-05-06T12:36:28.000Z</time>
      </trkpt>
      <trkpt lat="41.789582" lon="22.96794">
        <ele>1846.4</ele>
        <time>2026-05-06T12:36:29.000Z</time>
      </trkpt>
      <trkpt lat="41.789582" lon="22.96794">
        <ele>1846.4</ele>
        <time>2026-05-06T12:36:30.000Z</time>
      </trkpt>
      <trkpt lat="41.789582" lon="22.96794">
        <ele>1846.4</ele>
        <time>2026-05-06T12:36:31.000Z</time>
      </trkpt>
      <trkpt lat="41.789582" lon="22.96794">
        <ele>1846.4</ele>
        <time>2026-05-06T12:36:32.000Z</time>
      </trkpt>
      <trkpt lat="41.789582" lon="22.96794">
        <ele>1846.4</ele>
        <time>2026-05-06T12:36:33.000Z</time>
      </trkpt>
      <trkpt lat="41.789582" lon="22.96794">
        <ele>1846.4</ele>
        <time>2026-05-06T12:36:34.000Z</time>
      </trkpt>
      <trkpt lat="41.789582" lon="22.96794">
        <ele>1846.4</ele>
        <time>2026-05-06T12:36:35.000Z</time>
      </trkpt>
      <trkpt lat="41.789582" lon="22.96794">
        <ele>1846.4</ele>
        <time>2026-05-06T12:36:36.000Z</time>
      </trkpt>
      <trkpt lat="41.789582" lon="22.96794">
        <ele>1846.4</ele>
        <time>2026-05-06T12:36:37.000Z</time>
      </trkpt>
      <trkpt lat="41.789582" lon="22.96794">
        <ele>1846.4</ele>
        <time>2026-05-06T12:36:38.000Z</time>
      </trkpt>
      <trkpt lat="41.789582" lon="22.96794">
        <ele>1846.4</ele>
        <time>2026-05-06T12:36:39.000Z</time>
      </trkpt>
      <trkpt lat="41.789582" lon="22.96794">
        <ele>1846.4</ele>
        <time>2026-05-06T12:36:40.000Z</time>
      </trkpt>
      <trkpt lat="41.789582" lon="22.96794">
        <ele>1846.4</ele>
        <time>2026-05-06T12:36:41.000Z</time>
      </trkpt>
      <trkpt lat="41.789582" lon="22.96794">
        <ele>1846.4</ele>
        <time>2026-05-06T12:36:42.000Z</time>
      </trkpt>
      <trkpt lat="41.789582" lon="22.96794">
        <ele>1846.5</ele>
        <time>2026-05-06T12:36:43.000Z</time>
      </trkpt>
      <trkpt lat="41.789582" lon="22.96794">
        <ele>1846.5</ele>
        <time>2026-05-06T12:36:44.000Z</time>
      </trkpt>
      <trkpt lat="41.789582" lon="22.96794">
        <ele>1846.5</ele>
        <time>2026-05-06T12:36:45.000Z</time>
      </trkpt>
      <trkpt lat="41.789582" lon="22.96794">
        <ele>1846.5</ele>
        <time>2026-05-06T12:36:46.000Z</time>
      </trkpt>
      <trkpt lat="41.789582" lon="22.96794">
        <ele>1846.5</ele>
        <time>2026-05-06T12:36:47.000Z</time>
      </trkpt>
      <trkpt lat="41.789581" lon="22.96794">
        <ele>1846.6</ele>
        <time>2026-05-06T12:36:48.000Z</time>
      </trkpt>
      <trkpt lat="41.789581" lon="22.96794">
        <ele>1846.6</ele>
        <time>2026-05-06T12:36:49.000Z</time>
      </trkpt>
      <trkpt lat="41.78958" lon="22.96794">
        <ele>1846.6</ele>
        <time>2026-05-06T12:36:50.000Z</time>
      </trkpt>
      <trkpt lat="41.789579" lon="22.96794">
        <ele>1846.6</ele>
        <time>2026-05-06T12:36:51.000Z</time>
      </trkpt>
      <trkpt lat="41.789578" lon="22.967941">
        <ele>1846.6</ele>
        <time>2026-05-06T12:36:52.000Z</time>
      </trkpt>
      <trkpt lat="41.789578" lon="22.967941">
        <ele>1846.8</ele>
        <time>2026-05-06T12:36:53.000Z</time>
      </trkpt>
      <trkpt lat="41.789578" lon="22.967941">
        <ele>1846.8</ele>
        <time>2026-05-06T12:36:54.000Z</time>
      </trkpt>
      <trkpt lat="41.789578" lon="22.967941">
        <ele>1846.8</ele>
        <time>2026-05-06T12:36:55.000Z</time>
      </trkpt>
      <trkpt lat="41.789577" lon="22.967941">
        <ele>1846.8</ele>
        <time>2026-05-06T12:36:56.000Z</time>
      </trkpt>
      <trkpt lat="41.789577" lon="22.967941">
        <ele>1846.8</ele>
        <time>2026-05-06T12:36:57.000Z</time>
      </trkpt>
      <trkpt lat="41.789576" lon="22.967941">
        <ele>1846.8</ele>
        <time>2026-05-06T12:36:58.000Z</time>
      </trkpt>
      <trkpt lat="41.789576" lon="22.967941">
        <ele>1846.8</ele>
        <time>2026-05-06T12:36:59.000Z</time>
      </trkpt>
      <trkpt lat="41.789576" lon="22.967941">
        <ele>1846.8</ele>
        <time>2026-05-06T12:37:00.000Z</time>
      </trkpt>
      <trkpt lat="41.789576" lon="22.967941">
        <ele>1846.8</ele>
        <time>2026-05-06T12:37:01.000Z</time>
      </trkpt>
      <trkpt lat="41.789576" lon="22.967941">
        <ele>1846.8</ele>
        <time>2026-05-06T12:37:02.000Z</time>
      </trkpt>
      <trkpt lat="41.789576" lon="22.967941">
        <ele>1846.7</ele>
        <time>2026-05-06T12:37:03.000Z</time>
      </trkpt>
      <trkpt lat="41.789576" lon="22.967941">
        <ele>1846.7</ele>
        <time>2026-05-06T12:37:04.000Z</time>
      </trkpt>
      <trkpt lat="41.789576" lon="22.967941">
        <ele>1846.7</ele>
        <time>2026-05-06T12:37:05.000Z</time>
      </trkpt>
      <trkpt lat="41.789576" lon="22.967941">
        <ele>1846.7</ele>
        <time>2026-05-06T12:37:06.000Z</time>
      </trkpt>
      <trkpt lat="41.789576" lon="22.967941">
        <ele>1846.7</ele>
        <time>2026-05-06T12:37:07.000Z</time>
      </trkpt>
      <trkpt lat="41.789576" lon="22.967941">
        <ele>1846.4</ele>
        <time>2026-05-06T12:37:08.000Z</time>
      </trkpt>
      <trkpt lat="41.789576" lon="22.967941">
        <ele>1846.4</ele>
        <time>2026-05-06T12:37:09.000Z</time>
      </trkpt>
      <trkpt lat="41.789576" lon="22.967941">
        <ele>1846.4</ele>
        <time>2026-05-06T12:37:10.000Z</time>
      </trkpt>
      <trkpt lat="41.789575" lon="22.967941">
        <ele>1846.4</ele>
        <time>2026-05-06T12:37:11.000Z</time>
      </trkpt>
      <trkpt lat="41.789575" lon="22.967942">
        <ele>1846.4</ele>
        <time>2026-05-06T12:37:12.000Z</time>
      </trkpt>
      <trkpt lat="41.789575" lon="22.967942">
        <ele>1846.2</ele>
        <time>2026-05-06T12:37:13.000Z</time>
      </trkpt>
      <trkpt lat="41.789575" lon="22.967943">
        <ele>1846.2</ele>
        <time>2026-05-06T12:37:14.000Z</time>
      </trkpt>
      <trkpt lat="41.789576" lon="22.967943">
        <ele>1846.2</ele>
        <time>2026-05-06T12:37:15.000Z</time>
      </trkpt>
      <trkpt lat="41.789577" lon="22.967944">
        <ele>1846.2</ele>
        <time>2026-05-06T12:37:16.000Z</time>
      </trkpt>
      <trkpt lat="41.789578" lon="22.967944">
        <ele>1846.2</ele>
        <time>2026-05-06T12:37:17.000Z</time>
      </trkpt>
      <trkpt lat="41.789579" lon="22.967944">
        <ele>1846.2</ele>
        <time>2026-05-06T12:37:18.000Z</time>
      </trkpt>
      <trkpt lat="41.789579" lon="22.967944">
        <ele>1846.2</ele>
        <time>2026-05-06T12:37:19.000Z</time>
      </trkpt>
      <trkpt lat="41.789579" lon="22.967945">
        <ele>1846.2</ele>
        <time>2026-05-06T12:37:20.000Z</time>
      </trkpt>
      <trkpt lat="41.789579" lon="22.967945">
        <ele>1846.2</ele>
        <time>2026-05-06T12:37:21.000Z</time>
      </trkpt>
      <trkpt lat="41.789579" lon="22.967945">
        <ele>1846.2</ele>
        <time>2026-05-06T12:37:22.000Z</time>
      </trkpt>
      <trkpt lat="41.789579" lon="22.967945">
        <ele>1846.4</ele>
        <time>2026-05-06T12:37:23.000Z</time>
      </trkpt>
      <trkpt lat="41.789579" lon="22.967945">
        <ele>1846.4</ele>
        <time>2026-05-06T12:37:24.000Z</time>
      </trkpt>
      <trkpt lat="41.789579" lon="22.967945">
        <ele>1846.4</ele>
        <time>2026-05-06T12:37:25.000Z</time>
      </trkpt>
      <trkpt lat="41.789579" lon="22.967945">
        <ele>1846.4</ele>
        <time>2026-05-06T12:37:26.000Z</time>
      </trkpt>
      <trkpt lat="41.789579" lon="22.967945">
        <ele>1846.4</ele>
        <time>2026-05-06T12:37:27.000Z</time>
      </trkpt>
      <trkpt lat="41.789579" lon="22.967945">
        <ele>1846.5</ele>
        <time>2026-05-06T12:37:28.000Z</time>
      </trkpt>
      <trkpt lat="41.789579" lon="22.967945">
        <ele>1846.5</ele>
        <time>2026-05-06T12:37:29.000Z</time>
      </trkpt>
      <trkpt lat="41.789579" lon="22.967945">
        <ele>1846.5</ele>
        <time>2026-05-06T12:37:30.000Z</time>
      </trkpt>
      <trkpt lat="41.789579" lon="22.967945">
        <ele>1846.5</ele>
        <time>2026-05-06T12:37:31.000Z</time>
      </trkpt>
      <trkpt lat="41.789579" lon="22.967945">
        <ele>1846.5</ele>
        <time>2026-05-06T12:37:32.000Z</time>
      </trkpt>
      <trkpt lat="41.789579" lon="22.967945">
        <ele>1846.5</ele>
        <time>2026-05-06T12:37:33.000Z</time>
      </trkpt>
      <trkpt lat="41.789579" lon="22.967945">
        <ele>1846.5</ele>
        <time>2026-05-06T12:37:34.000Z</time>
      </trkpt>
      <trkpt lat="41.789579" lon="22.967945">
        <ele>1846.5</ele>
        <time>2026-05-06T12:37:35.000Z</time>
      </trkpt>
      <trkpt lat="41.789579" lon="22.967945">
        <ele>1846.5</ele>
        <time>2026-05-06T12:37:36.000Z</time>
      </trkpt>
      <trkpt lat="41.789579" lon="22.967945">
        <ele>1846.5</ele>
        <time>2026-05-06T12:37:37.000Z</time>
      </trkpt>
      <trkpt lat="41.789579" lon="22.967945">
        <ele>1846.4</ele>
        <time>2026-05-06T12:37:38.000Z</time>
      </trkpt>
      <trkpt lat="41.789579" lon="22.967945">
        <ele>1846.4</ele>
        <time>2026-05-06T12:37:39.000Z</time>
      </trkpt>
      <trkpt lat="41.789579" lon="22.967945">
        <ele>1846.4</ele>
        <time>2026-05-06T12:37:40.000Z</time>
      </trkpt>
      <trkpt lat="41.789579" lon="22.967945">
        <ele>1846.4</ele>
        <time>2026-05-06T12:37:41.000Z</time>
      </trkpt>
      <trkpt lat="41.789579" lon="22.967945">
        <ele>1846.4</ele>
        <time>2026-05-06T12:37:42.000Z</time>
      </trkpt>
      <trkpt lat="41.789579" lon="22.967945">
        <ele>1846.1</ele>
        <time>2026-05-06T12:37:43.000Z</time>
      </trkpt>
      <trkpt lat="41.789579" lon="22.967945">
        <ele>1846.1</ele>
        <time>2026-05-06T12:37:44.000Z</time>
      </trkpt>
      <trkpt lat="41.789579" lon="22.967945">
        <ele>1846.1</ele>
        <time>2026-05-06T12:37:45.000Z</time>
      </trkpt>
      <trkpt lat="41.789579" lon="22.967945">
        <ele>1846.1</ele>
        <time>2026-05-06T12:37:46.000Z</time>
      </trkpt>
      <trkpt lat="41.789579" lon="22.967945">
        <ele>1846.1</ele>
        <time>2026-05-06T12:37:47.000Z</time>
      </trkpt>
      <trkpt lat="41.789579" lon="22.967945">
        <ele>1846</ele>
        <time>2026-05-06T12:37:48.000Z</time>
      </trkpt>
      <trkpt lat="41.789579" lon="22.967945">
        <ele>1846</ele>
        <time>2026-05-06T12:37:49.000Z</time>
      </trkpt>
      <trkpt lat="41.789579" lon="22.967945">
        <ele>1846</ele>
        <time>2026-05-06T12:37:50.000Z</time>
      </trkpt>
      <trkpt lat="41.789579" lon="22.967945">
        <ele>1846</ele>
        <time>2026-05-06T12:37:51.000Z</time>
      </trkpt>
      <trkpt lat="41.789579" lon="22.967945">
        <ele>1846</ele>
        <time>2026-05-06T12:37:52.000Z</time>
      </trkpt>
      <trkpt lat="41.789579" lon="22.967945">
        <ele>1845.8</ele>
        <time>2026-05-06T12:37:53.000Z</time>
      </trkpt>
      <trkpt lat="41.789579" lon="22.967945">
        <ele>1845.8</ele>
        <time>2026-05-06T12:37:54.000Z</time>
      </trkpt>
      <trkpt lat="41.789579" lon="22.967945">
        <ele>1845.8</ele>
        <time>2026-05-06T12:37:55.000Z</time>
      </trkpt>
      <trkpt lat="41.789579" lon="22.967945">
        <ele>1845.8</ele>
        <time>2026-05-06T12:37:56.000Z</time>
      </trkpt>
      <trkpt lat="41.789579" lon="22.967945">
        <ele>1845.8</ele>
        <time>2026-05-06T12:37:57.000Z</time>
      </trkpt>
      <trkpt lat="41.789579" lon="22.967945">
        <ele>1846</ele>
        <time>2026-05-06T12:37:58.000Z</time>
      </trkpt>
      <trkpt lat="41.789579" lon="22.967945">
        <ele>1846</ele>
        <time>2026-05-06T12:37:59.000Z</time>
      </trkpt>
      <trkpt lat="41.789579" lon="22.967945">
        <ele>1846</ele>
        <time>2026-05-06T12:38:00.000Z</time>
      </trkpt>
      <trkpt lat="41.789579" lon="22.967945">
        <ele>1846</ele>
        <time>2026-05-06T12:38:01.000Z</time>
      </trkpt>
      <trkpt lat="41.789579" lon="22.967945">
        <ele>1846</ele>
        <time>2026-05-06T12:38:02.000Z</time>
      </trkpt>
      <trkpt lat="41.789579" lon="22.967945">
        <ele>1846.2</ele>
        <time>2026-05-06T12:38:03.000Z</time>
      </trkpt>
      <trkpt lat="41.789579" lon="22.967945">
        <ele>1846.2</ele>
        <time>2026-05-06T12:38:04.000Z</time>
      </trkpt>
      <trkpt lat="41.789579" lon="22.967945">
        <ele>1846.2</ele>
        <time>2026-05-06T12:38:05.000Z</time>
      </trkpt>
      <trkpt lat="41.789579" lon="22.967945">
        <ele>1846.2</ele>
        <time>2026-05-06T12:38:06.000Z</time>
      </trkpt>
      <trkpt lat="41.789579" lon="22.967945">
        <ele>1846.2</ele>
        <time>2026-05-06T12:38:07.000Z</time>
      </trkpt>
      <trkpt lat="41.789579" lon="22.967945">
        <ele>1846.4</ele>
        <time>2026-05-06T12:38:08.000Z</time>
      </trkpt>
      <trkpt lat="41.789579" lon="22.967945">
        <ele>1846.4</ele>
        <time>2026-05-06T12:38:09.000Z</time>
      </trkpt>
      <trkpt lat="41.789579" lon="22.967945">
        <ele>1846.4</ele>
        <time>2026-05-06T12:38:10.000Z</time>
      </trkpt>
      <trkpt lat="41.789579" lon="22.967945">
        <ele>1846.4</ele>
        <time>2026-05-06T12:38:11.000Z</time>
      </trkpt>
      <trkpt lat="41.789579" lon="22.967945">
        <ele>1846.4</ele>
        <time>2026-05-06T12:38:12.000Z</time>
      </trkpt>
      <trkpt lat="41.789579" lon="22.967945">
        <ele>1846.4</ele>
        <time>2026-05-06T12:38:13.000Z</time>
      </trkpt>
      <trkpt lat="41.789579" lon="22.967945">
        <ele>1846.4</ele>
        <time>2026-05-06T12:38:14.000Z</time>
      </trkpt>
      <trkpt lat="41.789579" lon="22.967945">
        <ele>1846.4</ele>
        <time>2026-05-06T12:38:15.000Z</time>
      </trkpt>
      <trkpt lat="41.789579" lon="22.967945">
        <ele>1846.4</ele>
        <time>2026-05-06T12:38:16.000Z</time>
      </trkpt>
      <trkpt lat="41.789579" lon="22.967945">
        <ele>1846.4</ele>
        <time>2026-05-06T12:38:17.000Z</time>
      </trkpt>
      <trkpt lat="41.789579" lon="22.967945">
        <ele>1846.4</ele>
        <time>2026-05-06T12:38:18.000Z</time>
      </trkpt>
      <trkpt lat="41.789579" lon="22.967945">
        <ele>1846.4</ele>
        <time>2026-05-06T12:38:19.000Z</time>
      </trkpt>
      <trkpt lat="41.789579" lon="22.967945">
        <ele>1846.4</ele>
        <time>2026-05-06T12:38:20.000Z</time>
      </trkpt>
      <trkpt lat="41.789579" lon="22.967945">
        <ele>1846.4</ele>
        <time>2026-05-06T12:38:21.000Z</time>
      </trkpt>
      <trkpt lat="41.789579" lon="22.967945">
        <ele>1846.4</ele>
        <time>2026-05-06T12:38:22.000Z</time>
      </trkpt>
      <trkpt lat="41.789579" lon="22.967945">
        <ele>1846.7</ele>
        <time>2026-05-06T12:38:23.000Z</time>
      </trkpt>
      <trkpt lat="41.789579" lon="22.967945">
        <ele>1846.7</ele>
        <time>2026-05-06T12:38:24.000Z</time>
      </trkpt>
      <trkpt lat="41.789579" lon="22.967945">
        <ele>1846.7</ele>
        <time>2026-05-06T12:38:25.000Z</time>
      </trkpt>
      <trkpt lat="41.789579" lon="22.967945">
        <ele>1846.7</ele>
        <time>2026-05-06T12:38:26.000Z</time>
      </trkpt>
      <trkpt lat="41.789579" lon="22.967945">
        <ele>1846.7</ele>
        <time>2026-05-06T12:38:27.000Z</time>
      </trkpt>
      <trkpt lat="41.789579" lon="22.967945">
        <ele>1847</ele>
        <time>2026-05-06T12:38:28.000Z</time>
      </trkpt>
      <trkpt lat="41.789579" lon="22.967945">
        <ele>1847</ele>
        <time>2026-05-06T12:38:29.000Z</time>
      </trkpt>
      <trkpt lat="41.789579" lon="22.967945">
        <ele>1847</ele>
        <time>2026-05-06T12:38:30.000Z</time>
      </trkpt>
      <trkpt lat="41.789579" lon="22.967945">
        <ele>1847</ele>
        <time>2026-05-06T12:38:31.000Z</time>
      </trkpt>
      <trkpt lat="41.789579" lon="22.967945">
        <ele>1847</ele>
        <time>2026-05-06T12:38:32.000Z</time>
      </trkpt>
      <trkpt lat="41.789579" lon="22.967945">
        <ele>1847.1</ele>
        <time>2026-05-06T12:38:33.000Z</time>
      </trkpt>
      <trkpt lat="41.789579" lon="22.967945">
        <ele>1847.1</ele>
        <time>2026-05-06T12:38:34.000Z</time>
      </trkpt>
      <trkpt lat="41.789579" lon="22.967945">
        <ele>1847.1</ele>
        <time>2026-05-06T12:38:35.000Z</time>
      </trkpt>
      <trkpt lat="41.789579" lon="22.967945">
        <ele>1847.1</ele>
        <time>2026-05-06T12:38:36.000Z</time>
      </trkpt>
      <trkpt lat="41.789579" lon="22.967945">
        <ele>1847.1</ele>
        <time>2026-05-06T12:38:37.000Z</time>
      </trkpt>
      <trkpt lat="41.789579" lon="22.967945">
        <ele>1847.1</ele>
        <time>2026-05-06T12:38:38.000Z</time>
      </trkpt>
      <trkpt lat="41.789579" lon="22.967945">
        <ele>1847.1</ele>
        <time>2026-05-06T12:38:39.000Z</time>
      </trkpt>
      <trkpt lat="41.789579" lon="22.967945">
        <ele>1847.1</ele>
        <time>2026-05-06T12:38:40.000Z</time>
      </trkpt>
      <trkpt lat="41.789579" lon="22.967944">
        <ele>1847.1</ele>
        <time>2026-05-06T12:38:41.000Z</time>
      </trkpt>
      <trkpt lat="41.789579" lon="22.967944">
        <ele>1847.1</ele>
        <time>2026-05-06T12:38:42.000Z</time>
      </trkpt>
      <trkpt lat="41.789579" lon="22.967943">
        <ele>1847.1</ele>
        <time>2026-05-06T12:38:43.000Z</time>
      </trkpt>
      <trkpt lat="41.789579" lon="22.967943">
        <ele>1847.1</ele>
        <time>2026-05-06T12:38:44.000Z</time>
      </trkpt>
      <trkpt lat="41.789578" lon="22.967943">
        <ele>1847.1</ele>
        <time>2026-05-06T12:38:45.000Z</time>
      </trkpt>
      <trkpt lat="41.789578" lon="22.967943">
        <ele>1847.1</ele>
        <time>2026-05-06T12:38:46.000Z</time>
      </trkpt>
      <trkpt lat="41.789578" lon="22.967943">
        <ele>1847.1</ele>
        <time>2026-05-06T12:38:47.000Z</time>
      </trkpt>
      <trkpt lat="41.789578" lon="22.967943">
        <ele>1847.2</ele>
        <time>2026-05-06T12:38:48.000Z</time>
      </trkpt>
      <trkpt lat="41.789578" lon="22.967943">
        <ele>1847.2</ele>
        <time>2026-05-06T12:38:49.000Z</time>
      </trkpt>
      <trkpt lat="41.789578" lon="22.967943">
        <ele>1847.2</ele>
        <time>2026-05-06T12:38:50.000Z</time>
      </trkpt>
      <trkpt lat="41.789578" lon="22.967943">
        <ele>1847.2</ele>
        <time>2026-05-06T12:38:51.000Z</time>
      </trkpt>
      <trkpt lat="41.789578" lon="22.967943">
        <ele>1847.2</ele>
        <time>2026-05-06T12:38:52.000Z</time>
      </trkpt>
      <trkpt lat="41.789578" lon="22.967943">
        <ele>1847.4</ele>
        <time>2026-05-06T12:38:53.000Z</time>
      </trkpt>
      <trkpt lat="41.789578" lon="22.967943">
        <ele>1847.4</ele>
        <time>2026-05-06T12:38:54.000Z</time>
      </trkpt>
      <trkpt lat="41.789578" lon="22.967943">
        <ele>1847.4</ele>
        <time>2026-05-06T12:38:55.000Z</time>
      </trkpt>
      <trkpt lat="41.789578" lon="22.967943">
        <ele>1847.4</ele>
        <time>2026-05-06T12:38:56.000Z</time>
      </trkpt>
      <trkpt lat="41.789578" lon="22.967943">
        <ele>1847.4</ele>
        <time>2026-05-06T12:38:57.000Z</time>
      </trkpt>
      <trkpt lat="41.789578" lon="22.967943">
        <ele>1847.6</ele>
        <time>2026-05-06T12:38:58.000Z</time>
      </trkpt>
      <trkpt lat="41.789578" lon="22.967943">
        <ele>1847.6</ele>
        <time>2026-05-06T12:38:59.000Z</time>
      </trkpt>
      <trkpt lat="41.789578" lon="22.967943">
        <ele>1847.6</ele>
        <time>2026-05-06T12:39:00.000Z</time>
      </trkpt>
      <trkpt lat="41.789578" lon="22.967943">
        <ele>1847.6</ele>
        <time>2026-05-06T12:39:01.000Z</time>
      </trkpt>
      <trkpt lat="41.789578" lon="22.967943">
        <ele>1847.6</ele>
        <time>2026-05-06T12:39:02.000Z</time>
      </trkpt>
      <trkpt lat="41.789578" lon="22.967943">
        <ele>1847.7</ele>
        <time>2026-05-06T12:39:03.000Z</time>
      </trkpt>
      <trkpt lat="41.789578" lon="22.967943">
        <ele>1847.7</ele>
        <time>2026-05-06T12:39:04.000Z</time>
      </trkpt>
      <trkpt lat="41.789578" lon="22.967943">
        <ele>1847.7</ele>
        <time>2026-05-06T12:39:05.000Z</time>
      </trkpt>
      <trkpt lat="41.789578" lon="22.967943">
        <ele>1847.7</ele>
        <time>2026-05-06T12:39:06.000Z</time>
      </trkpt>
      <trkpt lat="41.789578" lon="22.967943">
        <ele>1847.7</ele>
        <time>2026-05-06T12:39:07.000Z</time>
      </trkpt>
      <trkpt lat="41.789578" lon="22.967943">
        <ele>1847.8</ele>
        <time>2026-05-06T12:39:08.000Z</time>
      </trkpt>
      <trkpt lat="41.789578" lon="22.967943">
        <ele>1847.8</ele>
        <time>2026-05-06T12:39:09.000Z</time>
      </trkpt>
      <trkpt lat="41.789578" lon="22.967943">
        <ele>1847.8</ele>
        <time>2026-05-06T12:39:10.000Z</time>
      </trkpt>
      <trkpt lat="41.789578" lon="22.967943">
        <ele>1847.8</ele>
        <time>2026-05-06T12:39:11.000Z</time>
      </trkpt>
      <trkpt lat="41.789579" lon="22.967943">
        <ele>1847.8</ele>
        <time>2026-05-06T12:39:12.000Z</time>
      </trkpt>
      <trkpt lat="41.789579" lon="22.967943">
        <ele>1847.7</ele>
        <time>2026-05-06T12:39:13.000Z</time>
      </trkpt>
      <trkpt lat="41.789578" lon="22.967943">
        <ele>1847.7</ele>
        <time>2026-05-06T12:39:14.000Z</time>
      </trkpt>
      <trkpt lat="41.789578" lon="22.967943">
        <ele>1847.7</ele>
        <time>2026-05-06T12:39:15.000Z</time>
      </trkpt>
      <trkpt lat="41.789578" lon="22.967943">
        <ele>1847.7</ele>
        <time>2026-05-06T12:39:16.000Z</time>
      </trkpt>
      <trkpt lat="41.789578" lon="22.967943">
        <ele>1847.7</ele>
        <time>2026-05-06T12:39:17.000Z</time>
      </trkpt>
      <trkpt lat="41.789578" lon="22.967943">
        <ele>1847.7</ele>
        <time>2026-05-06T12:39:18.000Z</time>
      </trkpt>
      <trkpt lat="41.789578" lon="22.967943">
        <ele>1847.7</ele>
        <time>2026-05-06T12:39:19.000Z</time>
      </trkpt>
      <trkpt lat="41.789578" lon="22.967943">
        <ele>1847.7</ele>
        <time>2026-05-06T12:39:20.000Z</time>
      </trkpt>
      <trkpt lat="41.789578" lon="22.967943">
        <ele>1847.7</ele>
        <time>2026-05-06T12:39:21.000Z</time>
      </trkpt>
      <trkpt lat="41.789578" lon="22.967943">
        <ele>1847.7</ele>
        <time>2026-05-06T12:39:22.000Z</time>
      </trkpt>
      <trkpt lat="41.789578" lon="22.967943">
        <ele>1847.6</ele>
        <time>2026-05-06T12:39:23.000Z</time>
      </trkpt>
      <trkpt lat="41.789578" lon="22.967943">
        <ele>1847.6</ele>
        <time>2026-05-06T12:39:24.000Z</time>
      </trkpt>
      <trkpt lat="41.789578" lon="22.967943">
        <ele>1847.6</ele>
        <time>2026-05-06T12:39:25.000Z</time>
      </trkpt>
      <trkpt lat="41.789578" lon="22.967943">
        <ele>1847.6</ele>
        <time>2026-05-06T12:39:26.000Z</time>
      </trkpt>
      <trkpt lat="41.789578" lon="22.967943">
        <ele>1847.6</ele>
        <time>2026-05-06T12:39:27.000Z</time>
      </trkpt>
      <trkpt lat="41.789578" lon="22.967943">
        <ele>1847.5</ele>
        <time>2026-05-06T12:39:28.000Z</time>
      </trkpt>
      <trkpt lat="41.789578" lon="22.967943">
        <ele>1847.5</ele>
        <time>2026-05-06T12:39:29.000Z</time>
      </trkpt>
      <trkpt lat="41.789578" lon="22.967943">
        <ele>1847.5</ele>
        <time>2026-05-06T12:39:30.000Z</time>
      </trkpt>
      <trkpt lat="41.789578" lon="22.967943">
        <ele>1847.5</ele>
        <time>2026-05-06T12:39:31.000Z</time>
      </trkpt>
      <trkpt lat="41.789578" lon="22.967943">
        <ele>1847.5</ele>
        <time>2026-05-06T12:39:32.000Z</time>
      </trkpt>
      <trkpt lat="41.789578" lon="22.967943">
        <ele>1847.5</ele>
        <time>2026-05-06T12:39:33.000Z</time>
      </trkpt>
      <trkpt lat="41.789578" lon="22.967943">
        <ele>1847.5</ele>
        <time>2026-05-06T12:39:34.000Z</time>
      </trkpt>
      <trkpt lat="41.789578" lon="22.967943">
        <ele>1847.5</ele>
        <time>2026-05-06T12:39:35.000Z</time>
      </trkpt>
      <trkpt lat="41.789578" lon="22.967943">
        <ele>1847.5</ele>
        <time>2026-05-06T12:39:36.000Z</time>
      </trkpt>
      <trkpt lat="41.789578" lon="22.967943">
        <ele>1847.5</ele>
        <time>2026-05-06T12:39:37.000Z</time>
      </trkpt>
      <trkpt lat="41.789578" lon="22.967943">
        <ele>1847.5</ele>
        <time>2026-05-06T12:39:38.000Z</time>
      </trkpt>
      <trkpt lat="41.789578" lon="22.967943">
        <ele>1847.5</ele>
        <time>2026-05-06T12:39:39.000Z</time>
      </trkpt>
      <trkpt lat="41.789578" lon="22.967943">
        <ele>1847.5</ele>
        <time>2026-05-06T12:39:40.000Z</time>
      </trkpt>
      <trkpt lat="41.789578" lon="22.967943">
        <ele>1847.5</ele>
        <time>2026-05-06T12:39:41.000Z</time>
      </trkpt>
      <trkpt lat="41.789578" lon="22.967943">
        <ele>1847.5</ele>
        <time>2026-05-06T12:39:42.000Z</time>
      </trkpt>
      <trkpt lat="41.789578" lon="22.967943">
        <ele>1847.5</ele>
        <time>2026-05-06T12:39:43.000Z</time>
      </trkpt>
      <trkpt lat="41.789578" lon="22.967943">
        <ele>1847.5</ele>
        <time>2026-05-06T12:39:44.000Z</time>
      </trkpt>
      <trkpt lat="41.789578" lon="22.967943">
        <ele>1847.5</ele>
        <time>2026-05-06T12:39:45.000Z</time>
      </trkpt>
      <trkpt lat="41.789578" lon="22.967943">
        <ele>1847.5</ele>
        <time>2026-05-06T12:39:46.000Z</time>
      </trkpt>
      <trkpt lat="41.789578" lon="22.967943">
        <ele>1847.5</ele>
        <time>2026-05-06T12:39:47.000Z</time>
      </trkpt>
      <trkpt lat="41.789578" lon="22.967943">
        <ele>1847.6</ele>
        <time>2026-05-06T12:39:48.000Z</time>
      </trkpt>
      <trkpt lat="41.789578" lon="22.967943">
        <ele>1847.6</ele>
        <time>2026-05-06T12:39:49.000Z</time>
      </trkpt>
      <trkpt lat="41.789578" lon="22.967943">
        <ele>1847.6</ele>
        <time>2026-05-06T12:39:50.000Z</time>
      </trkpt>
      <trkpt lat="41.789578" lon="22.967943">
        <ele>1847.6</ele>
        <time>2026-05-06T12:39:51.000Z</time>
      </trkpt>
      <trkpt lat="41.789578" lon="22.967943">
        <ele>1847.6</ele>
        <time>2026-05-06T12:39:52.000Z</time>
      </trkpt>
      <trkpt lat="41.789578" lon="22.967943">
        <ele>1847.6</ele>
        <time>2026-05-06T12:39:53.000Z</time>
      </trkpt>
      <trkpt lat="41.789578" lon="22.967943">
        <ele>1847.6</ele>
        <time>2026-05-06T12:39:54.000Z</time>
      </trkpt>
      <trkpt lat="41.789578" lon="22.967943">
        <ele>1847.6</ele>
        <time>2026-05-06T12:39:55.000Z</time>
      </trkpt>
      <trkpt lat="41.789578" lon="22.967943">
        <ele>1847.6</ele>
        <time>2026-05-06T12:39:56.000Z</time>
      </trkpt>
      <trkpt lat="41.789578" lon="22.967943">
        <ele>1847.6</ele>
        <time>2026-05-06T12:39:57.000Z</time>
      </trkpt>
      <trkpt lat="41.789578" lon="22.967943">
        <ele>1847.5</ele>
        <time>2026-05-06T12:39:58.000Z</time>
      </trkpt>
      <trkpt lat="41.789578" lon="22.967943">
        <ele>1847.5</ele>
        <time>2026-05-06T12:39:59.000Z</time>
      </trkpt>
      <trkpt lat="41.789578" lon="22.967943">
        <ele>1847.5</ele>
        <time>2026-05-06T12:40:00.000Z</time>
      </trkpt>
      <trkpt lat="41.789578" lon="22.967943">
        <ele>1847.5</ele>
        <time>2026-05-06T12:40:01.000Z</time>
      </trkpt>
      <trkpt lat="41.789578" lon="22.967943">
        <ele>1847.5</ele>
        <time>2026-05-06T12:40:02.000Z</time>
      </trkpt>
      <trkpt lat="41.789578" lon="22.967943">
        <ele>1847.4</ele>
        <time>2026-05-06T12:40:03.000Z</time>
      </trkpt>
      <trkpt lat="41.789578" lon="22.967943">
        <ele>1847.4</ele>
        <time>2026-05-06T12:40:04.000Z</time>
      </trkpt>
      <trkpt lat="41.789578" lon="22.967943">
        <ele>1847.4</ele>
        <time>2026-05-06T12:40:05.000Z</time>
      </trkpt>
      <trkpt lat="41.789578" lon="22.967943">
        <ele>1847.4</ele>
        <time>2026-05-06T12:40:06.000Z</time>
      </trkpt>
      <trkpt lat="41.789578" lon="22.967943">
        <ele>1847.4</ele>
        <time>2026-05-06T12:40:07.000Z</time>
      </trkpt>
      <trkpt lat="41.789578" lon="22.967943">
        <ele>1847.3</ele>
        <time>2026-05-06T12:40:08.000Z</time>
      </trkpt>
      <trkpt lat="41.789578" lon="22.967943">
        <ele>1847.3</ele>
        <time>2026-05-06T12:40:09.000Z</time>
      </trkpt>
      <trkpt lat="41.789578" lon="22.967943">
        <ele>1847.3</ele>
        <time>2026-05-06T12:40:10.000Z</time>
      </trkpt>
      <trkpt lat="41.789578" lon="22.967943">
        <ele>1847.3</ele>
        <time>2026-05-06T12:40:11.000Z</time>
      </trkpt>
      <trkpt lat="41.789578" lon="22.967943">
        <ele>1847.3</ele>
        <time>2026-05-06T12:40:12.000Z</time>
      </trkpt>
      <trkpt lat="41.789578" lon="22.967943">
        <ele>1847.2</ele>
        <time>2026-05-06T12:40:13.000Z</time>
      </trkpt>
      <trkpt lat="41.789578" lon="22.967943">
        <ele>1847.2</ele>
        <time>2026-05-06T12:40:14.000Z</time>
      </trkpt>
      <trkpt lat="41.789578" lon="22.967943">
        <ele>1847.2</ele>
        <time>2026-05-06T12:40:15.000Z</time>
      </trkpt>
      <trkpt lat="41.789578" lon="22.967943">
        <ele>1847.2</ele>
        <time>2026-05-06T12:40:16.000Z</time>
      </trkpt>
      <trkpt lat="41.789578" lon="22.967943">
        <ele>1847.2</ele>
        <time>2026-05-06T12:40:17.000Z</time>
      </trkpt>
      <trkpt lat="41.789578" lon="22.967943">
        <ele>1847.2</ele>
        <time>2026-05-06T12:40:18.000Z</time>
      </trkpt>
      <trkpt lat="41.789578" lon="22.967943">
        <ele>1847.2</ele>
        <time>2026-05-06T12:40:19.000Z</time>
      </trkpt>
      <trkpt lat="41.789578" lon="22.967943">
        <ele>1847.2</ele>
        <time>2026-05-06T12:40:20.000Z</time>
      </trkpt>
      <trkpt lat="41.789578" lon="22.967943">
        <ele>1847.2</ele>
        <time>2026-05-06T12:40:21.000Z</time>
      </trkpt>
      <trkpt lat="41.789578" lon="22.967943">
        <ele>1847.2</ele>
        <time>2026-05-06T12:40:22.000Z</time>
      </trkpt>
      <trkpt lat="41.789578" lon="22.967943">
        <ele>1847.3</ele>
        <time>2026-05-06T12:40:23.000Z</time>
      </trkpt>
      <trkpt lat="41.789578" lon="22.967943">
        <ele>1847.3</ele>
        <time>2026-05-06T12:40:24.000Z</time>
      </trkpt>
      <trkpt lat="41.789578" lon="22.967943">
        <ele>1847.3</ele>
        <time>2026-05-06T12:40:25.000Z</time>
      </trkpt>
      <trkpt lat="41.789578" lon="22.967943">
        <ele>1847.3</ele>
        <time>2026-05-06T12:40:26.000Z</time>
      </trkpt>
      <trkpt lat="41.789578" lon="22.967943">
        <ele>1847.3</ele>
        <time>2026-05-06T12:40:27.000Z</time>
      </trkpt>
      <trkpt lat="41.789578" lon="22.967943">
        <ele>1847.4</ele>
        <time>2026-05-06T12:40:28.000Z</time>
      </trkpt>
      <trkpt lat="41.789578" lon="22.967943">
        <ele>1847.4</ele>
        <time>2026-05-06T12:40:29.000Z</time>
      </trkpt>
      <trkpt lat="41.789578" lon="22.967943">
        <ele>1847.4</ele>
        <time>2026-05-06T12:40:30.000Z</time>
      </trkpt>
      <trkpt lat="41.789578" lon="22.967943">
        <ele>1847.4</ele>
        <time>2026-05-06T12:40:31.000Z</time>
      </trkpt>
      <trkpt lat="41.789578" lon="22.967943">
        <ele>1847.4</ele>
        <time>2026-05-06T12:40:32.000Z</time>
      </trkpt>
      <trkpt lat="41.789578" lon="22.967943">
        <ele>1847.3</ele>
        <time>2026-05-06T12:40:33.000Z</time>
      </trkpt>
      <trkpt lat="41.789578" lon="22.967943">
        <ele>1847.3</ele>
        <time>2026-05-06T12:40:34.000Z</time>
      </trkpt>
      <trkpt lat="41.789578" lon="22.967943">
        <ele>1847.3</ele>
        <time>2026-05-06T12:40:35.000Z</time>
      </trkpt>
      <trkpt lat="41.789578" lon="22.967943">
        <ele>1847.3</ele>
        <time>2026-05-06T12:40:36.000Z</time>
      </trkpt>
      <trkpt lat="41.789578" lon="22.967943">
        <ele>1847.3</ele>
        <time>2026-05-06T12:40:37.000Z</time>
      </trkpt>
      <trkpt lat="41.789578" lon="22.967943">
        <ele>1847.2</ele>
        <time>2026-05-06T12:40:38.000Z</time>
      </trkpt>
      <trkpt lat="41.789578" lon="22.967943">
        <ele>1847.2</ele>
        <time>2026-05-06T12:40:39.000Z</time>
      </trkpt>
      <trkpt lat="41.789578" lon="22.967943">
        <ele>1847.2</ele>
        <time>2026-05-06T12:40:40.000Z</time>
      </trkpt>
      <trkpt lat="41.789578" lon="22.967943">
        <ele>1847.2</ele>
        <time>2026-05-06T12:40:41.000Z</time>
      </trkpt>
      <trkpt lat="41.789578" lon="22.967943">
        <ele>1847.2</ele>
        <time>2026-05-06T12:40:42.000Z</time>
      </trkpt>
      <trkpt lat="41.789578" lon="22.967943">
        <ele>1847.2</ele>
        <time>2026-05-06T12:40:43.000Z</time>
      </trkpt>
      <trkpt lat="41.789578" lon="22.967943">
        <ele>1847.2</ele>
        <time>2026-05-06T12:40:44.000Z</time>
      </trkpt>
      <trkpt lat="41.789578" lon="22.967943">
        <ele>1847.2</ele>
        <time>2026-05-06T12:40:45.000Z</time>
      </trkpt>
      <trkpt lat="41.789578" lon="22.967943">
        <ele>1847.2</ele>
        <time>2026-05-06T12:40:46.000Z</time>
      </trkpt>
      <trkpt lat="41.789578" lon="22.967943">
        <ele>1847.2</ele>
        <time>2026-05-06T12:40:47.000Z</time>
      </trkpt>
      <trkpt lat="41.789578" lon="22.967943">
        <ele>1847.3</ele>
        <time>2026-05-06T12:40:48.000Z</time>
      </trkpt>
      <trkpt lat="41.789578" lon="22.967943">
        <ele>1847.3</ele>
        <time>2026-05-06T12:40:49.000Z</time>
      </trkpt>
      <trkpt lat="41.789578" lon="22.967943">
        <ele>1847.3</ele>
        <time>2026-05-06T12:40:50.000Z</time>
      </trkpt>
      <trkpt lat="41.789578" lon="22.967943">
        <ele>1847.3</ele>
        <time>2026-05-06T12:40:51.000Z</time>
      </trkpt>
      <trkpt lat="41.789578" lon="22.967943">
        <ele>1847.3</ele>
        <time>2026-05-06T12:40:52.000Z</time>
      </trkpt>
      <trkpt lat="41.789578" lon="22.967943">
        <ele>1847.5</ele>
        <time>2026-05-06T12:40:53.000Z</time>
      </trkpt>
      <trkpt lat="41.789578" lon="22.967943">
        <ele>1847.5</ele>
        <time>2026-05-06T12:40:54.000Z</time>
      </trkpt>
      <trkpt lat="41.789578" lon="22.967943">
        <ele>1847.5</ele>
        <time>2026-05-06T12:40:55.000Z</time>
      </trkpt>
      <trkpt lat="41.789578" lon="22.967943">
        <ele>1847.5</ele>
        <time>2026-05-06T12:40:56.000Z</time>
      </trkpt>
      <trkpt lat="41.789578" lon="22.967943">
        <ele>1847.5</ele>
        <time>2026-05-06T12:40:57.000Z</time>
      </trkpt>
      <trkpt lat="41.789578" lon="22.967943">
        <ele>1847.5</ele>
        <time>2026-05-06T12:40:58.000Z</time>
      </trkpt>
      <trkpt lat="41.789578" lon="22.967943">
        <ele>1847.5</ele>
        <time>2026-05-06T12:40:59.000Z</time>
      </trkpt>
      <trkpt lat="41.789578" lon="22.967943">
        <ele>1847.5</ele>
        <time>2026-05-06T12:41:00.000Z</time>
      </trkpt>
      <trkpt lat="41.789578" lon="22.967943">
        <ele>1847.5</ele>
        <time>2026-05-06T12:41:01.000Z</time>
      </trkpt>
      <trkpt lat="41.789578" lon="22.967943">
        <ele>1847.5</ele>
        <time>2026-05-06T12:41:02.000Z</time>
      </trkpt>
      <trkpt lat="41.789578" lon="22.967943">
        <ele>1847.5</ele>
        <time>2026-05-06T12:41:03.000Z</time>
      </trkpt>
      <trkpt lat="41.789578" lon="22.967943">
        <ele>1847.5</ele>
        <time>2026-05-06T12:41:04.000Z</time>
      </trkpt>
      <trkpt lat="41.789578" lon="22.967943">
        <ele>1847.5</ele>
        <time>2026-05-06T12:41:05.000Z</time>
      </trkpt>
      <trkpt lat="41.789578" lon="22.967943">
        <ele>1847.5</ele>
        <time>2026-05-06T12:41:06.000Z</time>
      </trkpt>
      <trkpt lat="41.789578" lon="22.967943">
        <ele>1847.5</ele>
        <time>2026-05-06T12:41:07.000Z</time>
      </trkpt>
      <trkpt lat="41.789578" lon="22.967943">
        <ele>1847.4</ele>
        <time>2026-05-06T12:41:08.000Z</time>
      </trkpt>
      <trkpt lat="41.789578" lon="22.967943">
        <ele>1847.4</ele>
        <time>2026-05-06T12:41:09.000Z</time>
      </trkpt>
      <trkpt lat="41.789578" lon="22.967943">
        <ele>1847.4</ele>
        <time>2026-05-06T12:41:10.000Z</time>
      </trkpt>
      <trkpt lat="41.789578" lon="22.967943">
        <ele>1847.4</ele>
        <time>2026-05-06T12:41:11.000Z</time>
      </trkpt>
      <trkpt lat="41.789578" lon="22.967943">
        <ele>1847.4</ele>
        <time>2026-05-06T12:41:12.000Z</time>
      </trkpt>
      <trkpt lat="41.789578" lon="22.967943">
        <ele>1847.1</ele>
        <time>2026-05-06T12:41:13.000Z</time>
      </trkpt>
      <trkpt lat="41.789578" lon="22.967943">
        <ele>1847.1</ele>
        <time>2026-05-06T12:41:14.000Z</time>
      </trkpt>
      <trkpt lat="41.789578" lon="22.967943">
        <ele>1847.1</ele>
        <time>2026-05-06T12:41:15.000Z</time>
      </trkpt>
      <trkpt lat="41.789578" lon="22.967943">
        <ele>1847.1</ele>
        <time>2026-05-06T12:41:16.000Z</time>
      </trkpt>
      <trkpt lat="41.789578" lon="22.967943">
        <ele>1847.1</ele>
        <time>2026-05-06T12:41:17.000Z</time>
      </trkpt>
      <trkpt lat="41.789578" lon="22.967943">
        <ele>1847</ele>
        <time>2026-05-06T12:41:18.000Z</time>
      </trkpt>
      <trkpt lat="41.789578" lon="22.967943">
        <ele>1847</ele>
        <time>2026-05-06T12:41:19.000Z</time>
      </trkpt>
      <trkpt lat="41.789578" lon="22.967943">
        <ele>1847</ele>
        <time>2026-05-06T12:41:20.000Z</time>
      </trkpt>
      <trkpt lat="41.789578" lon="22.967943">
        <ele>1847</ele>
        <time>2026-05-06T12:41:21.000Z</time>
      </trkpt>
      <trkpt lat="41.789578" lon="22.967943">
        <ele>1847</ele>
        <time>2026-05-06T12:41:22.000Z</time>
      </trkpt>
      <trkpt lat="41.789578" lon="22.967943">
        <ele>1846.8</ele>
        <time>2026-05-06T12:41:23.000Z</time>
      </trkpt>
      <trkpt lat="41.789578" lon="22.967943">
        <ele>1846.8</ele>
        <time>2026-05-06T12:41:24.000Z</time>
      </trkpt>
      <trkpt lat="41.789578" lon="22.967944">
        <ele>1846.8</ele>
        <time>2026-05-06T12:41:25.000Z</time>
      </trkpt>
      <trkpt lat="41.789578" lon="22.967943">
        <ele>1846.8</ele>
        <time>2026-05-06T12:41:26.000Z</time>
      </trkpt>
      <trkpt lat="41.789578" lon="22.967943">
        <ele>1846.8</ele>
        <time>2026-05-06T12:41:27.000Z</time>
      </trkpt>
      <trkpt lat="41.789578" lon="22.967943">
        <ele>1846.7</ele>
        <time>2026-05-06T12:41:28.000Z</time>
      </trkpt>
      <trkpt lat="41.789578" lon="22.967943">
        <ele>1846.7</ele>
        <time>2026-05-06T12:41:29.000Z</time>
      </trkpt>
      <trkpt lat="41.789578" lon="22.967942">
        <ele>1846.7</ele>
        <time>2026-05-06T12:41:30.000Z</time>
      </trkpt>
      <trkpt lat="41.789578" lon="22.967943">
        <ele>1846.7</ele>
        <time>2026-05-06T12:41:31.000Z</time>
      </trkpt>
      <trkpt lat="41.789578" lon="22.967943">
        <ele>1846.7</ele>
        <time>2026-05-06T12:41:32.000Z</time>
      </trkpt>
      <trkpt lat="41.789578" lon="22.967943">
        <ele>1846.6</ele>
        <time>2026-05-06T12:41:33.000Z</time>
      </trkpt>
      <trkpt lat="41.789579" lon="22.967943">
        <ele>1846.6</ele>
        <time>2026-05-06T12:41:34.000Z</time>
      </trkpt>
      <trkpt lat="41.789579" lon="22.967944">
        <ele>1846.6</ele>
        <time>2026-05-06T12:41:35.000Z</time>
      </trkpt>
      <trkpt lat="41.78958" lon="22.967944">
        <ele>1846.6</ele>
        <time>2026-05-06T12:41:36.000Z</time>
      </trkpt>
      <trkpt lat="41.78958" lon="22.967944">
        <ele>1846.6</ele>
        <time>2026-05-06T12:41:37.000Z</time>
      </trkpt>
      <trkpt lat="41.78958" lon="22.967944">
        <ele>1846.4</ele>
        <time>2026-05-06T12:41:38.000Z</time>
      </trkpt>
      <trkpt lat="41.78958" lon="22.967944">
        <ele>1846.4</ele>
        <time>2026-05-06T12:41:39.000Z</time>
      </trkpt>
      <trkpt lat="41.78958" lon="22.967944">
        <ele>1846.4</ele>
        <time>2026-05-06T12:41:40.000Z</time>
      </trkpt>
      <trkpt lat="41.78958" lon="22.967944">
        <ele>1846.4</ele>
        <time>2026-05-06T12:41:41.000Z</time>
      </trkpt>
      <trkpt lat="41.78958" lon="22.967945">
        <ele>1846.4</ele>
        <time>2026-05-06T12:41:42.000Z</time>
      </trkpt>
      <trkpt lat="41.789581" lon="22.967945">
        <ele>1846.3</ele>
        <time>2026-05-06T12:41:43.000Z</time>
      </trkpt>
      <trkpt lat="41.789581" lon="22.967945">
        <ele>1846.3</ele>
        <time>2026-05-06T12:41:44.000Z</time>
      </trkpt>
      <trkpt lat="41.789581" lon="22.967945">
        <ele>1846.3</ele>
        <time>2026-05-06T12:41:45.000Z</time>
      </trkpt>
      <trkpt lat="41.789582" lon="22.967944">
        <ele>1846.3</ele>
        <time>2026-05-06T12:41:46.000Z</time>
      </trkpt>
      <trkpt lat="41.789582" lon="22.967944">
        <ele>1846.3</ele>
        <time>2026-05-06T12:41:47.000Z</time>
      </trkpt>
      <trkpt lat="41.789582" lon="22.967943">
        <ele>1846.2</ele>
        <time>2026-05-06T12:41:48.000Z</time>
      </trkpt>
      <trkpt lat="41.789582" lon="22.967942">
        <ele>1846.2</ele>
        <time>2026-05-06T12:41:49.000Z</time>
      </trkpt>
      <trkpt lat="41.789583" lon="22.967941">
        <ele>1846.2</ele>
        <time>2026-05-06T12:41:50.000Z</time>
      </trkpt>
      <trkpt lat="41.789586" lon="22.967938">
        <ele>1846.2</ele>
        <time>2026-05-06T12:41:51.000Z</time>
      </trkpt>
      <trkpt lat="41.789589" lon="22.967936">
        <ele>1846.2</ele>
        <time>2026-05-06T12:41:52.000Z</time>
      </trkpt>
      <trkpt lat="41.789592" lon="22.967931">
        <ele>1846.3</ele>
        <time>2026-05-06T12:41:53.000Z</time>
      </trkpt>
      <trkpt lat="41.789595" lon="22.967925">
        <ele>1846.3</ele>
        <time>2026-05-06T12:41:54.000Z</time>
      </trkpt>
      <trkpt lat="41.789595" lon="22.967917">
        <ele>1846.3</ele>
        <time>2026-05-06T12:41:55.000Z</time>
      </trkpt>
      <trkpt lat="41.789595" lon="22.967908">
        <ele>1846.3</ele>
        <time>2026-05-06T12:41:56.000Z</time>
      </trkpt>
      <trkpt lat="41.789593" lon="22.967899">
        <ele>1846.3</ele>
        <time>2026-05-06T12:41:57.000Z</time>
      </trkpt>
      <trkpt lat="41.789592" lon="22.967889">
        <ele>1846.6</ele>
        <time>2026-05-06T12:41:58.000Z</time>
      </trkpt>
      <trkpt lat="41.789592" lon="22.967879">
        <ele>1846.6</ele>
        <time>2026-05-06T12:41:59.000Z</time>
      </trkpt>
      <trkpt lat="41.789592" lon="22.967869">
        <ele>1846.6</ele>
        <time>2026-05-06T12:42:00.000Z</time>
      </trkpt>
      <trkpt lat="41.789592" lon="22.967861">
        <ele>1846.6</ele>
        <time>2026-05-06T12:42:01.000Z</time>
      </trkpt>
      <trkpt lat="41.789592" lon="22.967853">
        <ele>1846.6</ele>
        <time>2026-05-06T12:42:02.000Z</time>
      </trkpt>
      <trkpt lat="41.789592" lon="22.967847">
        <ele>1847</ele>
        <time>2026-05-06T12:42:03.000Z</time>
      </trkpt>
      <trkpt lat="41.789592" lon="22.967844">
        <ele>1847</ele>
        <time>2026-05-06T12:42:04.000Z</time>
      </trkpt>
      <trkpt lat="41.789592" lon="22.967842">
        <ele>1847</ele>
        <time>2026-05-06T12:42:05.000Z</time>
      </trkpt>
      <trkpt lat="41.789592" lon="22.967839">
        <ele>1847</ele>
        <time>2026-05-06T12:42:06.000Z</time>
      </trkpt>
      <trkpt lat="41.78959" lon="22.967836">
        <ele>1847</ele>
        <time>2026-05-06T12:42:07.000Z</time>
      </trkpt>
      <trkpt lat="41.789588" lon="22.967833">
        <ele>1847.9</ele>
        <time>2026-05-06T12:42:08.000Z</time>
      </trkpt>
      <trkpt lat="41.789586" lon="22.96783">
        <ele>1847.9</ele>
        <time>2026-05-06T12:42:09.000Z</time>
      </trkpt>
      <trkpt lat="41.789582" lon="22.967826">
        <ele>1847.9</ele>
        <time>2026-05-06T12:42:10.000Z</time>
      </trkpt>
      <trkpt lat="41.789578" lon="22.967822">
        <ele>1847.9</ele>
        <time>2026-05-06T12:42:11.000Z</time>
      </trkpt>
      <trkpt lat="41.789573" lon="22.967821">
        <ele>1847.9</ele>
        <time>2026-05-06T12:42:12.000Z</time>
      </trkpt>
      <trkpt lat="41.789568" lon="22.967819">
        <ele>1848.7</ele>
        <time>2026-05-06T12:42:13.000Z</time>
      </trkpt>
      <trkpt lat="41.789562" lon="22.967817">
        <ele>1848.7</ele>
        <time>2026-05-06T12:42:14.000Z</time>
      </trkpt>
      <trkpt lat="41.789557" lon="22.967815">
        <ele>1848.7</ele>
        <time>2026-05-06T12:42:15.000Z</time>
      </trkpt>
      <trkpt lat="41.78955" lon="22.967812">
        <ele>1848.7</ele>
        <time>2026-05-06T12:42:16.000Z</time>
      </trkpt>
      <trkpt lat="41.789544" lon="22.967808">
        <ele>1848.7</ele>
        <time>2026-05-06T12:42:17.000Z</time>
      </trkpt>
      <trkpt lat="41.789538" lon="22.967803">
        <ele>1849.1</ele>
        <time>2026-05-06T12:42:18.000Z</time>
      </trkpt>
      <trkpt lat="41.789531" lon="22.967798">
        <ele>1849.1</ele>
        <time>2026-05-06T12:42:19.000Z</time>
      </trkpt>
      <trkpt lat="41.789525" lon="22.967792">
        <ele>1849.1</ele>
        <time>2026-05-06T12:42:20.000Z</time>
      </trkpt>
      <trkpt lat="41.78952" lon="22.967787">
        <ele>1849.1</ele>
        <time>2026-05-06T12:42:21.000Z</time>
      </trkpt>
      <trkpt lat="41.789515" lon="22.96778">
        <ele>1849.1</ele>
        <time>2026-05-06T12:42:22.000Z</time>
      </trkpt>
      <trkpt lat="41.789512" lon="22.967773">
        <ele>1849.8</ele>
        <time>2026-05-06T12:42:23.000Z</time>
      </trkpt>
      <trkpt lat="41.78951" lon="22.967766">
        <ele>1849.8</ele>
        <time>2026-05-06T12:42:24.000Z</time>
      </trkpt>
      <trkpt lat="41.789508" lon="22.967759">
        <ele>1849.8</ele>
        <time>2026-05-06T12:42:25.000Z</time>
      </trkpt>
      <trkpt lat="41.789506" lon="22.967752">
        <ele>1849.8</ele>
        <time>2026-05-06T12:42:26.000Z</time>
      </trkpt>
      <trkpt lat="41.789504" lon="22.967745">
        <ele>1849.8</ele>
        <time>2026-05-06T12:42:27.000Z</time>
      </trkpt>
      <trkpt lat="41.789501" lon="22.967738">
        <ele>1850.6</ele>
        <time>2026-05-06T12:42:28.000Z</time>
      </trkpt>
      <trkpt lat="41.789498" lon="22.96773">
        <ele>1850.6</ele>
        <time>2026-05-06T12:42:29.000Z</time>
      </trkpt>
      <trkpt lat="41.789494" lon="22.967723">
        <ele>1850.6</ele>
        <time>2026-05-06T12:42:30.000Z</time>
      </trkpt>
      <trkpt lat="41.789491" lon="22.967716">
        <ele>1850.6</ele>
        <time>2026-05-06T12:42:31.000Z</time>
      </trkpt>
      <trkpt lat="41.789487" lon="22.967709">
        <ele>1850.6</ele>
        <time>2026-05-06T12:42:32.000Z</time>
      </trkpt>
      <trkpt lat="41.789483" lon="22.967702">
        <ele>1851.2</ele>
        <time>2026-05-06T12:42:33.000Z</time>
      </trkpt>
      <trkpt lat="41.789481" lon="22.967695">
        <ele>1851.2</ele>
        <time>2026-05-06T12:42:34.000Z</time>
      </trkpt>
      <trkpt lat="41.789479" lon="22.967688">
        <ele>1851.2</ele>
        <time>2026-05-06T12:42:35.000Z</time>
      </trkpt>
      <trkpt lat="41.789477" lon="22.967681">
        <ele>1851.2</ele>
        <time>2026-05-06T12:42:36.000Z</time>
      </trkpt>
      <trkpt lat="41.789475" lon="22.967674">
        <ele>1851.2</ele>
        <time>2026-05-06T12:42:37.000Z</time>
      </trkpt>
      <trkpt lat="41.789473" lon="22.967666">
        <ele>1852.5</ele>
        <time>2026-05-06T12:42:38.000Z</time>
      </trkpt>
      <trkpt lat="41.789471" lon="22.967657">
        <ele>1852.5</ele>
        <time>2026-05-06T12:42:39.000Z</time>
      </trkpt>
      <trkpt lat="41.789468" lon="22.967649">
        <ele>1852.5</ele>
        <time>2026-05-06T12:42:40.000Z</time>
      </trkpt>
      <trkpt lat="41.789466" lon="22.967641">
        <ele>1852.5</ele>
        <time>2026-05-06T12:42:41.000Z</time>
      </trkpt>
      <trkpt lat="41.789464" lon="22.967632">
        <ele>1852.5</ele>
        <time>2026-05-06T12:42:42.000Z</time>
      </trkpt>
      <trkpt lat="41.789463" lon="22.967624">
        <ele>1853.6</ele>
        <time>2026-05-06T12:42:43.000Z</time>
      </trkpt>
      <trkpt lat="41.789461" lon="22.967616">
        <ele>1853.6</ele>
        <time>2026-05-06T12:42:44.000Z</time>
      </trkpt>
      <trkpt lat="41.789458" lon="22.967608">
        <ele>1853.6</ele>
        <time>2026-05-06T12:42:45.000Z</time>
      </trkpt>
      <trkpt lat="41.789455" lon="22.967599">
        <ele>1853.6</ele>
        <time>2026-05-06T12:42:46.000Z</time>
      </trkpt>
      <trkpt lat="41.78945" lon="22.96759">
        <ele>1853.6</ele>
        <time>2026-05-06T12:42:47.000Z</time>
      </trkpt>
      <trkpt lat="41.789445" lon="22.967581">
        <ele>1854</ele>
        <time>2026-05-06T12:42:48.000Z</time>
      </trkpt>
      <trkpt lat="41.789439" lon="22.967572">
        <ele>1854</ele>
        <time>2026-05-06T12:42:49.000Z</time>
      </trkpt>
      <trkpt lat="41.789434" lon="22.967562">
        <ele>1854</ele>
        <time>2026-05-06T12:42:50.000Z</time>
      </trkpt>
      <trkpt lat="41.78943" lon="22.967552">
        <ele>1854</ele>
        <time>2026-05-06T12:42:51.000Z</time>
      </trkpt>
      <trkpt lat="41.789426" lon="22.967542">
        <ele>1854</ele>
        <time>2026-05-06T12:42:52.000Z</time>
      </trkpt>
      <trkpt lat="41.789423" lon="22.967532">
        <ele>1854.6</ele>
        <time>2026-05-06T12:42:53.000Z</time>
      </trkpt>
      <trkpt lat="41.789422" lon="22.967522">
        <ele>1854.6</ele>
        <time>2026-05-06T12:42:54.000Z</time>
      </trkpt>
      <trkpt lat="41.789421" lon="22.967512">
        <ele>1854.6</ele>
        <time>2026-05-06T12:42:55.000Z</time>
      </trkpt>
      <trkpt lat="41.789421" lon="22.967505">
        <ele>1854.6</ele>
        <time>2026-05-06T12:42:56.000Z</time>
      </trkpt>
      <trkpt lat="41.789422" lon="22.967497">
        <ele>1854.6</ele>
        <time>2026-05-06T12:42:57.000Z</time>
      </trkpt>
      <trkpt lat="41.789422" lon="22.96749">
        <ele>1855.6</ele>
        <time>2026-05-06T12:42:58.000Z</time>
      </trkpt>
      <trkpt lat="41.78942" lon="22.967484">
        <ele>1855.6</ele>
        <time>2026-05-06T12:42:59.000Z</time>
      </trkpt>
      <trkpt lat="41.789417" lon="22.967478">
        <ele>1855.6</ele>
        <time>2026-05-06T12:43:00.000Z</time>
      </trkpt>
      <trkpt lat="41.789413" lon="22.967472">
        <ele>1855.6</ele>
        <time>2026-05-06T12:43:01.000Z</time>
      </trkpt>
      <trkpt lat="41.789409" lon="22.967467">
        <ele>1855.6</ele>
        <time>2026-05-06T12:43:02.000Z</time>
      </trkpt>
      <trkpt lat="41.789404" lon="22.967459">
        <ele>1856.3</ele>
        <time>2026-05-06T12:43:03.000Z</time>
      </trkpt>
      <trkpt lat="41.7894" lon="22.967453">
        <ele>1856.3</ele>
        <time>2026-05-06T12:43:04.000Z</time>
      </trkpt>
      <trkpt lat="41.789396" lon="22.967446">
        <ele>1856.3</ele>
        <time>2026-05-06T12:43:05.000Z</time>
      </trkpt>
      <trkpt lat="41.789392" lon="22.967436">
        <ele>1856.3</ele>
        <time>2026-05-06T12:43:06.000Z</time>
      </trkpt>
      <trkpt lat="41.78939" lon="22.967428">
        <ele>1856.3</ele>
        <time>2026-05-06T12:43:07.000Z</time>
      </trkpt>
      <trkpt lat="41.789387" lon="22.967419">
        <ele>1858</ele>
        <time>2026-05-06T12:43:08.000Z</time>
      </trkpt>
      <trkpt lat="41.789384" lon="22.967409">
        <ele>1858</ele>
        <time>2026-05-06T12:43:09.000Z</time>
      </trkpt>
      <trkpt lat="41.789381" lon="22.9674">
        <ele>1858</ele>
        <time>2026-05-06T12:43:10.000Z</time>
      </trkpt>
      <trkpt lat="41.789379" lon="22.967391">
        <ele>1858</ele>
        <time>2026-05-06T12:43:11.000Z</time>
      </trkpt>
      <trkpt lat="41.789376" lon="22.967383">
        <ele>1858</ele>
        <time>2026-05-06T12:43:12.000Z</time>
      </trkpt>
      <trkpt lat="41.789373" lon="22.967376">
        <ele>1859.6</ele>
        <time>2026-05-06T12:43:13.000Z</time>
      </trkpt>
      <trkpt lat="41.789369" lon="22.967369">
        <ele>1859.6</ele>
        <time>2026-05-06T12:43:14.000Z</time>
      </trkpt>
      <trkpt lat="41.789365" lon="22.967362">
        <ele>1859.6</ele>
        <time>2026-05-06T12:43:15.000Z</time>
      </trkpt>
      <trkpt lat="41.789361" lon="22.967355">
        <ele>1859.6</ele>
        <time>2026-05-06T12:43:16.000Z</time>
      </trkpt>
      <trkpt lat="41.789358" lon="22.967349">
        <ele>1859.6</ele>
        <time>2026-05-06T12:43:17.000Z</time>
      </trkpt>
      <trkpt lat="41.789353" lon="22.967341">
        <ele>1860.3</ele>
        <time>2026-05-06T12:43:18.000Z</time>
      </trkpt>
      <trkpt lat="41.78935" lon="22.967333">
        <ele>1860.3</ele>
        <time>2026-05-06T12:43:19.000Z</time>
      </trkpt>
      <trkpt lat="41.789346" lon="22.967326">
        <ele>1860.3</ele>
        <time>2026-05-06T12:43:20.000Z</time>
      </trkpt>
      <trkpt lat="41.78934" lon="22.96732">
        <ele>1860.3</ele>
        <time>2026-05-06T12:43:21.000Z</time>
      </trkpt>
      <trkpt lat="41.789335" lon="22.967312">
        <ele>1860.3</ele>
        <time>2026-05-06T12:43:22.000Z</time>
      </trkpt>
      <trkpt lat="41.789331" lon="22.967306">
        <ele>1861.6</ele>
        <time>2026-05-06T12:43:23.000Z</time>
      </trkpt>
      <trkpt lat="41.789328" lon="22.967299">
        <ele>1861.6</ele>
        <time>2026-05-06T12:43:24.000Z</time>
      </trkpt>
      <trkpt lat="41.789328" lon="22.967292">
        <ele>1861.6</ele>
        <time>2026-05-06T12:43:25.000Z</time>
      </trkpt>
      <trkpt lat="41.789329" lon="22.967287">
        <ele>1861.6</ele>
        <time>2026-05-06T12:43:26.000Z</time>
      </trkpt>
      <trkpt lat="41.789331" lon="22.967281">
        <ele>1861.6</ele>
        <time>2026-05-06T12:43:27.000Z</time>
      </trkpt>
      <trkpt lat="41.789332" lon="22.967277">
        <ele>1862.9</ele>
        <time>2026-05-06T12:43:28.000Z</time>
      </trkpt>
      <trkpt lat="41.789332" lon="22.967271">
        <ele>1862.9</ele>
        <time>2026-05-06T12:43:29.000Z</time>
      </trkpt>
      <trkpt lat="41.789331" lon="22.967264">
        <ele>1862.9</ele>
        <time>2026-05-06T12:43:30.000Z</time>
      </trkpt>
      <trkpt lat="41.78933" lon="22.967255">
        <ele>1862.9</ele>
        <time>2026-05-06T12:43:31.000Z</time>
      </trkpt>
      <trkpt lat="41.789327" lon="22.967245">
        <ele>1862.9</ele>
        <time>2026-05-06T12:43:32.000Z</time>
      </trkpt>
      <trkpt lat="41.789324" lon="22.967233">
        <ele>1863.5</ele>
        <time>2026-05-06T12:43:33.000Z</time>
      </trkpt>
      <trkpt lat="41.789321" lon="22.967221">
        <ele>1863.5</ele>
        <time>2026-05-06T12:43:34.000Z</time>
      </trkpt>
      <trkpt lat="41.789319" lon="22.967209">
        <ele>1863.5</ele>
        <time>2026-05-06T12:43:35.000Z</time>
      </trkpt>
      <trkpt lat="41.789317" lon="22.967199">
        <ele>1863.5</ele>
        <time>2026-05-06T12:43:36.000Z</time>
      </trkpt>
      <trkpt lat="41.789316" lon="22.967188">
        <ele>1863.5</ele>
        <time>2026-05-06T12:43:37.000Z</time>
      </trkpt>
      <trkpt lat="41.789315" lon="22.967179">
        <ele>1864.9</ele>
        <time>2026-05-06T12:43:38.000Z</time>
      </trkpt>
      <trkpt lat="41.789314" lon="22.967171">
        <ele>1864.9</ele>
        <time>2026-05-06T12:43:39.000Z</time>
      </trkpt>
      <trkpt lat="41.789313" lon="22.967164">
        <ele>1864.9</ele>
        <time>2026-05-06T12:43:40.000Z</time>
      </trkpt>
      <trkpt lat="41.78931" lon="22.967157">
        <ele>1864.9</ele>
        <time>2026-05-06T12:43:41.000Z</time>
      </trkpt>
      <trkpt lat="41.789308" lon="22.96715">
        <ele>1864.9</ele>
        <time>2026-05-06T12:43:42.000Z</time>
      </trkpt>
      <trkpt lat="41.789306" lon="22.967142">
        <ele>1866.2</ele>
        <time>2026-05-06T12:43:43.000Z</time>
      </trkpt>
      <trkpt lat="41.789304" lon="22.967136">
        <ele>1866.2</ele>
        <time>2026-05-06T12:43:44.000Z</time>
      </trkpt>
      <trkpt lat="41.789302" lon="22.967128">
        <ele>1866.2</ele>
        <time>2026-05-06T12:43:45.000Z</time>
      </trkpt>
      <trkpt lat="41.789301" lon="22.967121">
        <ele>1866.2</ele>
        <time>2026-05-06T12:43:46.000Z</time>
      </trkpt>
      <trkpt lat="41.789299" lon="22.967115">
        <ele>1866.2</ele>
        <time>2026-05-06T12:43:47.000Z</time>
      </trkpt>
      <trkpt lat="41.789298" lon="22.967108">
        <ele>1866.8</ele>
        <time>2026-05-06T12:43:48.000Z</time>
      </trkpt>
      <trkpt lat="41.789296" lon="22.9671">
        <ele>1866.8</ele>
        <time>2026-05-06T12:43:49.000Z</time>
      </trkpt>
      <trkpt lat="41.789294" lon="22.967093">
        <ele>1866.8</ele>
        <time>2026-05-06T12:43:50.000Z</time>
      </trkpt>
      <trkpt lat="41.789292" lon="22.967086">
        <ele>1866.8</ele>
        <time>2026-05-06T12:43:51.000Z</time>
      </trkpt>
      <trkpt lat="41.789289" lon="22.967079">
        <ele>1866.8</ele>
        <time>2026-05-06T12:43:52.000Z</time>
      </trkpt>
      <trkpt lat="41.789286" lon="22.967073">
        <ele>1868</ele>
        <time>2026-05-06T12:43:53.000Z</time>
      </trkpt>
      <trkpt lat="41.789283" lon="22.967066">
        <ele>1868</ele>
        <time>2026-05-06T12:43:54.000Z</time>
      </trkpt>
      <trkpt lat="41.78928" lon="22.967059">
        <ele>1868</ele>
        <time>2026-05-06T12:43:55.000Z</time>
      </trkpt>
      <trkpt lat="41.789277" lon="22.967052">
        <ele>1868</ele>
        <time>2026-05-06T12:43:56.000Z</time>
      </trkpt>
      <trkpt lat="41.789275" lon="22.967047">
        <ele>1868</ele>
        <time>2026-05-06T12:43:57.000Z</time>
      </trkpt>
      <trkpt lat="41.789275" lon="22.967042">
        <ele>1869.1</ele>
        <time>2026-05-06T12:43:58.000Z</time>
      </trkpt>
      <trkpt lat="41.789277" lon="22.967039">
        <ele>1869.1</ele>
        <time>2026-05-06T12:43:59.000Z</time>
      </trkpt>
      <trkpt lat="41.789279" lon="22.967038">
        <ele>1869.1</ele>
        <time>2026-05-06T12:44:00.000Z</time>
      </trkpt>
      <trkpt lat="41.78928" lon="22.967035">
        <ele>1869.1</ele>
        <time>2026-05-06T12:44:01.000Z</time>
      </trkpt>
      <trkpt lat="41.789281" lon="22.967032">
        <ele>1869.1</ele>
        <time>2026-05-06T12:44:02.000Z</time>
      </trkpt>
      <trkpt lat="41.789282" lon="22.967027">
        <ele>1869.7</ele>
        <time>2026-05-06T12:44:03.000Z</time>
      </trkpt>
      <trkpt lat="41.789282" lon="22.967023">
        <ele>1869.7</ele>
        <time>2026-05-06T12:44:04.000Z</time>
      </trkpt>
      <trkpt lat="41.789282" lon="22.96702">
        <ele>1869.7</ele>
        <time>2026-05-06T12:44:05.000Z</time>
      </trkpt>
      <trkpt lat="41.789284" lon="22.967018">
        <ele>1869.7</ele>
        <time>2026-05-06T12:44:06.000Z</time>
      </trkpt>
      <trkpt lat="41.789285" lon="22.967017">
        <ele>1869.7</ele>
        <time>2026-05-06T12:44:07.000Z</time>
      </trkpt>
      <trkpt lat="41.789286" lon="22.967018">
        <ele>1871</ele>
        <time>2026-05-06T12:44:08.000Z</time>
      </trkpt>
      <trkpt lat="41.789287" lon="22.967018">
        <ele>1871</ele>
        <time>2026-05-06T12:44:09.000Z</time>
      </trkpt>
      <trkpt lat="41.78929" lon="22.967017">
        <ele>1871</ele>
        <time>2026-05-06T12:44:10.000Z</time>
      </trkpt>
      <trkpt lat="41.789293" lon="22.967015">
        <ele>1871</ele>
        <time>2026-05-06T12:44:11.000Z</time>
      </trkpt>
      <trkpt lat="41.789298" lon="22.967012">
        <ele>1871</ele>
        <time>2026-05-06T12:44:12.000Z</time>
      </trkpt>
      <trkpt lat="41.789302" lon="22.967008">
        <ele>1872</ele>
        <time>2026-05-06T12:44:13.000Z</time>
      </trkpt>
      <trkpt lat="41.789305" lon="22.967003">
        <ele>1872</ele>
        <time>2026-05-06T12:44:14.000Z</time>
      </trkpt>
      <trkpt lat="41.789308" lon="22.966999">
        <ele>1872</ele>
        <time>2026-05-06T12:44:15.000Z</time>
      </trkpt>
      <trkpt lat="41.78931" lon="22.966994">
        <ele>1872</ele>
        <time>2026-05-06T12:44:16.000Z</time>
      </trkpt>
      <trkpt lat="41.789312" lon="22.966989">
        <ele>1872</ele>
        <time>2026-05-06T12:44:17.000Z</time>
      </trkpt>
      <trkpt lat="41.789313" lon="22.966984">
        <ele>1872.3</ele>
        <time>2026-05-06T12:44:18.000Z</time>
      </trkpt>
      <trkpt lat="41.789315" lon="22.966977">
        <ele>1872.3</ele>
        <time>2026-05-06T12:44:19.000Z</time>
      </trkpt>
      <trkpt lat="41.789317" lon="22.966971">
        <ele>1872.3</ele>
        <time>2026-05-06T12:44:20.000Z</time>
      </trkpt>
      <trkpt lat="41.789317" lon="22.966964">
        <ele>1872.3</ele>
        <time>2026-05-06T12:44:21.000Z</time>
      </trkpt>
      <trkpt lat="41.789318" lon="22.966955">
        <ele>1872.3</ele>
        <time>2026-05-06T12:44:22.000Z</time>
      </trkpt>
      <trkpt lat="41.789319" lon="22.966945">
        <ele>1872.9</ele>
        <time>2026-05-06T12:44:23.000Z</time>
      </trkpt>
      <trkpt lat="41.78932" lon="22.966936">
        <ele>1872.9</ele>
        <time>2026-05-06T12:44:24.000Z</time>
      </trkpt>
      <trkpt lat="41.78932" lon="22.966927">
        <ele>1872.9</ele>
        <time>2026-05-06T12:44:25.000Z</time>
      </trkpt>
      <trkpt lat="41.78932" lon="22.966918">
        <ele>1872.9</ele>
        <time>2026-05-06T12:44:26.000Z</time>
      </trkpt>
      <trkpt lat="41.78932" lon="22.96691">
        <ele>1872.9</ele>
        <time>2026-05-06T12:44:27.000Z</time>
      </trkpt>
      <trkpt lat="41.789319" lon="22.966902">
        <ele>1873.8</ele>
        <time>2026-05-06T12:44:28.000Z</time>
      </trkpt>
      <trkpt lat="41.789318" lon="22.966894">
        <ele>1873.8</ele>
        <time>2026-05-06T12:44:29.000Z</time>
      </trkpt>
      <trkpt lat="41.789317" lon="22.966886">
        <ele>1873.8</ele>
        <time>2026-05-06T12:44:30.000Z</time>
      </trkpt>
      <trkpt lat="41.789316" lon="22.966878">
        <ele>1873.8</ele>
        <time>2026-05-06T12:44:31.000Z</time>
      </trkpt>
      <trkpt lat="41.789315" lon="22.966869">
        <ele>1873.8</ele>
        <time>2026-05-06T12:44:32.000Z</time>
      </trkpt>
      <trkpt lat="41.789314" lon="22.966861">
        <ele>1874.3</ele>
        <time>2026-05-06T12:44:33.000Z</time>
      </trkpt>
      <trkpt lat="41.789313" lon="22.966851">
        <ele>1874.3</ele>
        <time>2026-05-06T12:44:34.000Z</time>
      </trkpt>
      <trkpt lat="41.789314" lon="22.966842">
        <ele>1874.3</ele>
        <time>2026-05-06T12:44:35.000Z</time>
      </trkpt>
      <trkpt lat="41.789314" lon="22.966833">
        <ele>1874.3</ele>
        <time>2026-05-06T12:44:36.000Z</time>
      </trkpt>
      <trkpt lat="41.789315" lon="22.966825">
        <ele>1874.3</ele>
        <time>2026-05-06T12:44:37.000Z</time>
      </trkpt>
      <trkpt lat="41.789316" lon="22.966818">
        <ele>1875.6</ele>
        <time>2026-05-06T12:44:38.000Z</time>
      </trkpt>
      <trkpt lat="41.789316" lon="22.966812">
        <ele>1875.6</ele>
        <time>2026-05-06T12:44:39.000Z</time>
      </trkpt>
      <trkpt lat="41.789315" lon="22.966806">
        <ele>1875.6</ele>
        <time>2026-05-06T12:44:40.000Z</time>
      </trkpt>
      <trkpt lat="41.789315" lon="22.9668">
        <ele>1875.6</ele>
        <time>2026-05-06T12:44:41.000Z</time>
      </trkpt>
      <trkpt lat="41.789314" lon="22.966793">
        <ele>1875.6</ele>
        <time>2026-05-06T12:44:42.000Z</time>
      </trkpt>
      <trkpt lat="41.789314" lon="22.966785">
        <ele>1876.6</ele>
        <time>2026-05-06T12:44:43.000Z</time>
      </trkpt>
      <trkpt lat="41.789317" lon="22.966777">
        <ele>1876.6</ele>
        <time>2026-05-06T12:44:44.000Z</time>
      </trkpt>
      <trkpt lat="41.789319" lon="22.96677">
        <ele>1876.6</ele>
        <time>2026-05-06T12:44:45.000Z</time>
      </trkpt>
      <trkpt lat="41.789322" lon="22.966763">
        <ele>1876.6</ele>
        <time>2026-05-06T12:44:46.000Z</time>
      </trkpt>
      <trkpt lat="41.789325" lon="22.966757">
        <ele>1876.6</ele>
        <time>2026-05-06T12:44:47.000Z</time>
      </trkpt>
      <trkpt lat="41.789328" lon="22.966751">
        <ele>1877.1</ele>
        <time>2026-05-06T12:44:48.000Z</time>
      </trkpt>
      <trkpt lat="41.789328" lon="22.966745">
        <ele>1877.1</ele>
        <time>2026-05-06T12:44:49.000Z</time>
      </trkpt>
      <trkpt lat="41.789329" lon="22.966738">
        <ele>1877.1</ele>
        <time>2026-05-06T12:44:50.000Z</time>
      </trkpt>
      <trkpt lat="41.789329" lon="22.966731">
        <ele>1877.1</ele>
        <time>2026-05-06T12:44:51.000Z</time>
      </trkpt>
      <trkpt lat="41.789329" lon="22.966725">
        <ele>1877.1</ele>
        <time>2026-05-06T12:44:52.000Z</time>
      </trkpt>
      <trkpt lat="41.78933" lon="22.96672">
        <ele>1878.1</ele>
        <time>2026-05-06T12:44:53.000Z</time>
      </trkpt>
      <trkpt lat="41.789331" lon="22.966716">
        <ele>1878.1</ele>
        <time>2026-05-06T12:44:54.000Z</time>
      </trkpt>
      <trkpt lat="41.789331" lon="22.966714">
        <ele>1878.1</ele>
        <time>2026-05-06T12:44:55.000Z</time>
      </trkpt>
      <trkpt lat="41.78933" lon="22.966714">
        <ele>1878.1</ele>
        <time>2026-05-06T12:44:56.000Z</time>
      </trkpt>
      <trkpt lat="41.78933" lon="22.966714">
        <ele>1878.1</ele>
        <time>2026-05-06T12:44:57.000Z</time>
      </trkpt>
      <trkpt lat="41.789329" lon="22.966714">
        <ele>1879.1</ele>
        <time>2026-05-06T12:44:58.000Z</time>
      </trkpt>
      <trkpt lat="41.789328" lon="22.966714">
        <ele>1879.1</ele>
        <time>2026-05-06T12:44:59.000Z</time>
      </trkpt>
      <trkpt lat="41.789329" lon="22.966714">
        <ele>1879.1</ele>
        <time>2026-05-06T12:45:00.000Z</time>
      </trkpt>
      <trkpt lat="41.78933" lon="22.966715">
        <ele>1879.1</ele>
        <time>2026-05-06T12:45:01.000Z</time>
      </trkpt>
      <trkpt lat="41.78933" lon="22.966715">
        <ele>1879.1</ele>
        <time>2026-05-06T12:45:02.000Z</time>
      </trkpt>
      <trkpt lat="41.789331" lon="22.966715">
        <ele>1879.5</ele>
        <time>2026-05-06T12:45:03.000Z</time>
      </trkpt>
      <trkpt lat="41.789332" lon="22.966716">
        <ele>1879.5</ele>
        <time>2026-05-06T12:45:04.000Z</time>
      </trkpt>
      <trkpt lat="41.789332" lon="22.966716">
        <ele>1879.5</ele>
        <time>2026-05-06T12:45:05.000Z</time>
      </trkpt>
      <trkpt lat="41.789332" lon="22.966716">
        <ele>1879.5</ele>
        <time>2026-05-06T12:45:06.000Z</time>
      </trkpt>
      <trkpt lat="41.789332" lon="22.966716">
        <ele>1879.5</ele>
        <time>2026-05-06T12:45:07.000Z</time>
      </trkpt>
      <trkpt lat="41.789332" lon="22.966716">
        <ele>1880.1</ele>
        <time>2026-05-06T12:45:08.000Z</time>
      </trkpt>
      <trkpt lat="41.789332" lon="22.966716">
        <ele>1880.1</ele>
        <time>2026-05-06T12:45:09.000Z</time>
      </trkpt>
      <trkpt lat="41.789332" lon="22.966716">
        <ele>1880.1</ele>
        <time>2026-05-06T12:45:10.000Z</time>
      </trkpt>
      <trkpt lat="41.789332" lon="22.966714">
        <ele>1880.1</ele>
        <time>2026-05-06T12:45:11.000Z</time>
      </trkpt>
      <trkpt lat="41.789333" lon="22.96671">
        <ele>1880.1</ele>
        <time>2026-05-06T12:45:12.000Z</time>
      </trkpt>
      <trkpt lat="41.789334" lon="22.966706">
        <ele>1880.4</ele>
        <time>2026-05-06T12:45:13.000Z</time>
      </trkpt>
      <trkpt lat="41.789335" lon="22.966699">
        <ele>1880.4</ele>
        <time>2026-05-06T12:45:14.000Z</time>
      </trkpt>
      <trkpt lat="41.789337" lon="22.966691">
        <ele>1880.4</ele>
        <time>2026-05-06T12:45:15.000Z</time>
      </trkpt>
      <trkpt lat="41.789338" lon="22.966684">
        <ele>1880.4</ele>
        <time>2026-05-06T12:45:16.000Z</time>
      </trkpt>
      <trkpt lat="41.789339" lon="22.966676">
        <ele>1880.4</ele>
        <time>2026-05-06T12:45:17.000Z</time>
      </trkpt>
      <trkpt lat="41.78934" lon="22.966667">
        <ele>1880.3</ele>
        <time>2026-05-06T12:45:18.000Z</time>
      </trkpt>
      <trkpt lat="41.789341" lon="22.966659">
        <ele>1880.3</ele>
        <time>2026-05-06T12:45:19.000Z</time>
      </trkpt>
      <trkpt lat="41.789342" lon="22.96665">
        <ele>1880.3</ele>
        <time>2026-05-06T12:45:20.000Z</time>
      </trkpt>
      <trkpt lat="41.789344" lon="22.966641">
        <ele>1880.3</ele>
        <time>2026-05-06T12:45:21.000Z</time>
      </trkpt>
      <trkpt lat="41.789347" lon="22.966634">
        <ele>1880.3</ele>
        <time>2026-05-06T12:45:22.000Z</time>
      </trkpt>
      <trkpt lat="41.789349" lon="22.966626">
        <ele>1880.2</ele>
        <time>2026-05-06T12:45:23.000Z</time>
      </trkpt>
      <trkpt lat="41.789351" lon="22.966618">
        <ele>1880.2</ele>
        <time>2026-05-06T12:45:24.000Z</time>
      </trkpt>
      <trkpt lat="41.789353" lon="22.966611">
        <ele>1880.2</ele>
        <time>2026-05-06T12:45:25.000Z</time>
      </trkpt>
      <trkpt lat="41.789355" lon="22.966604">
        <ele>1880.2</ele>
        <time>2026-05-06T12:45:26.000Z</time>
      </trkpt>
      <trkpt lat="41.789355" lon="22.966597">
        <ele>1880.2</ele>
        <time>2026-05-06T12:45:27.000Z</time>
      </trkpt>
      <trkpt lat="41.789355" lon="22.966589">
        <ele>1880.5</ele>
        <time>2026-05-06T12:45:28.000Z</time>
      </trkpt>
      <trkpt lat="41.789355" lon="22.966582">
        <ele>1880.5</ele>
        <time>2026-05-06T12:45:29.000Z</time>
      </trkpt>
      <trkpt lat="41.789353" lon="22.966574">
        <ele>1880.5</ele>
        <time>2026-05-06T12:45:30.000Z</time>
      </trkpt>
      <trkpt lat="41.789352" lon="22.966566">
        <ele>1880.5</ele>
        <time>2026-05-06T12:45:31.000Z</time>
      </trkpt>
      <trkpt lat="41.789349" lon="22.966556">
        <ele>1880.5</ele>
        <time>2026-05-06T12:45:32.000Z</time>
      </trkpt>
      <trkpt lat="41.789348" lon="22.966547">
        <ele>1881</ele>
        <time>2026-05-06T12:45:33.000Z</time>
      </trkpt>
      <trkpt lat="41.789348" lon="22.966536">
        <ele>1881</ele>
        <time>2026-05-06T12:45:34.000Z</time>
      </trkpt>
      <trkpt lat="41.789349" lon="22.966526">
        <ele>1881</ele>
        <time>2026-05-06T12:45:35.000Z</time>
      </trkpt>
      <trkpt lat="41.789351" lon="22.966516">
        <ele>1881</ele>
        <time>2026-05-06T12:45:36.000Z</time>
      </trkpt>
      <trkpt lat="41.789354" lon="22.966507">
        <ele>1881</ele>
        <time>2026-05-06T12:45:37.000Z</time>
      </trkpt>
      <trkpt lat="41.789356" lon="22.966498">
        <ele>1882.1</ele>
        <time>2026-05-06T12:45:38.000Z</time>
      </trkpt>
      <trkpt lat="41.789358" lon="22.966489">
        <ele>1882.1</ele>
        <time>2026-05-06T12:45:39.000Z</time>
      </trkpt>
      <trkpt lat="41.789357" lon="22.966481">
        <ele>1882.1</ele>
        <time>2026-05-06T12:45:40.000Z</time>
      </trkpt>
      <trkpt lat="41.789357" lon="22.966474">
        <ele>1882.1</ele>
        <time>2026-05-06T12:45:41.000Z</time>
      </trkpt>
      <trkpt lat="41.789355" lon="22.966466">
        <ele>1882.1</ele>
        <time>2026-05-06T12:45:42.000Z</time>
      </trkpt>
      <trkpt lat="41.789354" lon="22.966459">
        <ele>1883.4</ele>
        <time>2026-05-06T12:45:43.000Z</time>
      </trkpt>
      <trkpt lat="41.789353" lon="22.96645">
        <ele>1883.4</ele>
        <time>2026-05-06T12:45:44.000Z</time>
      </trkpt>
      <trkpt lat="41.789352" lon="22.966442">
        <ele>1883.4</ele>
        <time>2026-05-06T12:45:45.000Z</time>
      </trkpt>
      <trkpt lat="41.789351" lon="22.966433">
        <ele>1883.4</ele>
        <time>2026-05-06T12:45:46.000Z</time>
      </trkpt>
      <trkpt lat="41.78935" lon="22.966424">
        <ele>1883.4</ele>
        <time>2026-05-06T12:45:47.000Z</time>
      </trkpt>
      <trkpt lat="41.789349" lon="22.966416">
        <ele>1884.1</ele>
        <time>2026-05-06T12:45:48.000Z</time>
      </trkpt>
      <trkpt lat="41.789348" lon="22.966408">
        <ele>1884.1</ele>
        <time>2026-05-06T12:45:49.000Z</time>
      </trkpt>
      <trkpt lat="41.789347" lon="22.9664">
        <ele>1884.1</ele>
        <time>2026-05-06T12:45:50.000Z</time>
      </trkpt>
      <trkpt lat="41.789347" lon="22.966392">
        <ele>1884.1</ele>
        <time>2026-05-06T12:45:51.000Z</time>
      </trkpt>
      <trkpt lat="41.789347" lon="22.966385">
        <ele>1884.1</ele>
        <time>2026-05-06T12:45:52.000Z</time>
      </trkpt>
      <trkpt lat="41.789346" lon="22.966377">
        <ele>1885.7</ele>
        <time>2026-05-06T12:45:53.000Z</time>
      </trkpt>
      <trkpt lat="41.789346" lon="22.966369">
        <ele>1885.7</ele>
        <time>2026-05-06T12:45:54.000Z</time>
      </trkpt>
      <trkpt lat="41.789347" lon="22.966362">
        <ele>1885.7</ele>
        <time>2026-05-06T12:45:55.000Z</time>
      </trkpt>
      <trkpt lat="41.789348" lon="22.966355">
        <ele>1885.7</ele>
        <time>2026-05-06T12:45:56.000Z</time>
      </trkpt>
      <trkpt lat="41.789348" lon="22.966348">
        <ele>1885.7</ele>
        <time>2026-05-06T12:45:57.000Z</time>
      </trkpt>
      <trkpt lat="41.78935" lon="22.96634">
        <ele>1887.1</ele>
        <time>2026-05-06T12:45:58.000Z</time>
      </trkpt>
      <trkpt lat="41.78935" lon="22.966333">
        <ele>1887.1</ele>
        <time>2026-05-06T12:45:59.000Z</time>
      </trkpt>
      <trkpt lat="41.78935" lon="22.966325">
        <ele>1887.1</ele>
        <time>2026-05-06T12:46:00.000Z</time>
      </trkpt>
      <trkpt lat="41.78935" lon="22.966318">
        <ele>1887.1</ele>
        <time>2026-05-06T12:46:01.000Z</time>
      </trkpt>
      <trkpt lat="41.789349" lon="22.96631">
        <ele>1887.1</ele>
        <time>2026-05-06T12:46:02.000Z</time>
      </trkpt>
      <trkpt lat="41.789349" lon="22.966303">
        <ele>1887.7</ele>
        <time>2026-05-06T12:46:03.000Z</time>
      </trkpt>
      <trkpt lat="41.789348" lon="22.966296">
        <ele>1887.7</ele>
        <time>2026-05-06T12:46:04.000Z</time>
      </trkpt>
      <trkpt lat="41.789348" lon="22.966288">
        <ele>1887.7</ele>
        <time>2026-05-06T12:46:05.000Z</time>
      </trkpt>
      <trkpt lat="41.789348" lon="22.96628">
        <ele>1887.7</ele>
        <time>2026-05-06T12:46:06.000Z</time>
      </trkpt>
      <trkpt lat="41.789349" lon="22.966273">
        <ele>1887.7</ele>
        <time>2026-05-06T12:46:07.000Z</time>
      </trkpt>
      <trkpt lat="41.789349" lon="22.966264">
        <ele>1888.8</ele>
        <time>2026-05-06T12:46:08.000Z</time>
      </trkpt>
      <trkpt lat="41.789348" lon="22.966257">
        <ele>1888.8</ele>
        <time>2026-05-06T12:46:09.000Z</time>
      </trkpt>
      <trkpt lat="41.789348" lon="22.966248">
        <ele>1888.8</ele>
        <time>2026-05-06T12:46:10.000Z</time>
      </trkpt>
      <trkpt lat="41.789346" lon="22.96624">
        <ele>1888.8</ele>
        <time>2026-05-06T12:46:11.000Z</time>
      </trkpt>
      <trkpt lat="41.789345" lon="22.966232">
        <ele>1888.8</ele>
        <time>2026-05-06T12:46:12.000Z</time>
      </trkpt>
      <trkpt lat="41.789343" lon="22.966223">
        <ele>1890.1</ele>
        <time>2026-05-06T12:46:13.000Z</time>
      </trkpt>
      <trkpt lat="41.789341" lon="22.966214">
        <ele>1890.1</ele>
        <time>2026-05-06T12:46:14.000Z</time>
      </trkpt>
      <trkpt lat="41.789339" lon="22.966205">
        <ele>1890.1</ele>
        <time>2026-05-06T12:46:15.000Z</time>
      </trkpt>
      <trkpt lat="41.789336" lon="22.966197">
        <ele>1890.1</ele>
        <time>2026-05-06T12:46:16.000Z</time>
      </trkpt>
      <trkpt lat="41.789334" lon="22.966187">
        <ele>1890.1</ele>
        <time>2026-05-06T12:46:17.000Z</time>
      </trkpt>
      <trkpt lat="41.789332" lon="22.966177">
        <ele>1890.7</ele>
        <time>2026-05-06T12:46:18.000Z</time>
      </trkpt>
      <trkpt lat="41.789331" lon="22.966166">
        <ele>1890.7</ele>
        <time>2026-05-06T12:46:19.000Z</time>
      </trkpt>
      <trkpt lat="41.78933" lon="22.966155">
        <ele>1890.7</ele>
        <time>2026-05-06T12:46:20.000Z</time>
      </trkpt>
      <trkpt lat="41.789329" lon="22.966144">
        <ele>1890.7</ele>
        <time>2026-05-06T12:46:21.000Z</time>
      </trkpt>
      <trkpt lat="41.789329" lon="22.966131">
        <ele>1890.7</ele>
        <time>2026-05-06T12:46:22.000Z</time>
      </trkpt>
      <trkpt lat="41.789329" lon="22.96612">
        <ele>1891.9</ele>
        <time>2026-05-06T12:46:23.000Z</time>
      </trkpt>
      <trkpt lat="41.78933" lon="22.966108">
        <ele>1891.9</ele>
        <time>2026-05-06T12:46:24.000Z</time>
      </trkpt>
      <trkpt lat="41.78933" lon="22.966096">
        <ele>1891.9</ele>
        <time>2026-05-06T12:46:25.000Z</time>
      </trkpt>
      <trkpt lat="41.78933" lon="22.966085">
        <ele>1891.9</ele>
        <time>2026-05-06T12:46:26.000Z</time>
      </trkpt>
      <trkpt lat="41.789329" lon="22.966074">
        <ele>1891.9</ele>
        <time>2026-05-06T12:46:27.000Z</time>
      </trkpt>
      <trkpt lat="41.789328" lon="22.966063">
        <ele>1892.8</ele>
        <time>2026-05-06T12:46:28.000Z</time>
      </trkpt>
      <trkpt lat="41.789328" lon="22.966053">
        <ele>1892.8</ele>
        <time>2026-05-06T12:46:29.000Z</time>
      </trkpt>
      <trkpt lat="41.789328" lon="22.966043">
        <ele>1892.8</ele>
        <time>2026-05-06T12:46:30.000Z</time>
      </trkpt>
      <trkpt lat="41.789327" lon="22.966032">
        <ele>1892.8</ele>
        <time>2026-05-06T12:46:31.000Z</time>
      </trkpt>
      <trkpt lat="41.789327" lon="22.966022">
        <ele>1892.8</ele>
        <time>2026-05-06T12:46:32.000Z</time>
      </trkpt>
      <trkpt lat="41.789327" lon="22.966012">
        <ele>1893.3</ele>
        <time>2026-05-06T12:46:33.000Z</time>
      </trkpt>
      <trkpt lat="41.789326" lon="22.966003">
        <ele>1893.3</ele>
        <time>2026-05-06T12:46:34.000Z</time>
      </trkpt>
      <trkpt lat="41.789325" lon="22.965993">
        <ele>1893.3</ele>
        <time>2026-05-06T12:46:35.000Z</time>
      </trkpt>
      <trkpt lat="41.789325" lon="22.965984">
        <ele>1893.3</ele>
        <time>2026-05-06T12:46:36.000Z</time>
      </trkpt>
      <trkpt lat="41.789324" lon="22.965975">
        <ele>1893.3</ele>
        <time>2026-05-06T12:46:37.000Z</time>
      </trkpt>
      <trkpt lat="41.789325" lon="22.965965">
        <ele>1894.6</ele>
        <time>2026-05-06T12:46:38.000Z</time>
      </trkpt>
      <trkpt lat="41.789325" lon="22.965954">
        <ele>1894.6</ele>
        <time>2026-05-06T12:46:39.000Z</time>
      </trkpt>
      <trkpt lat="41.789326" lon="22.965943">
        <ele>1894.6</ele>
        <time>2026-05-06T12:46:40.000Z</time>
      </trkpt>
      <trkpt lat="41.789327" lon="22.965931">
        <ele>1894.6</ele>
        <time>2026-05-06T12:46:41.000Z</time>
      </trkpt>
      <trkpt lat="41.789329" lon="22.96592">
        <ele>1894.6</ele>
        <time>2026-05-06T12:46:42.000Z</time>
      </trkpt>
      <trkpt lat="41.78933" lon="22.96591">
        <ele>1895.5</ele>
        <time>2026-05-06T12:46:43.000Z</time>
      </trkpt>
      <trkpt lat="41.789331" lon="22.965901">
        <ele>1895.5</ele>
        <time>2026-05-06T12:46:44.000Z</time>
      </trkpt>
      <trkpt lat="41.789331" lon="22.965893">
        <ele>1895.5</ele>
        <time>2026-05-06T12:46:45.000Z</time>
      </trkpt>
      <trkpt lat="41.789331" lon="22.965883">
        <ele>1895.5</ele>
        <time>2026-05-06T12:46:46.000Z</time>
      </trkpt>
      <trkpt lat="41.789331" lon="22.965874">
        <ele>1895.5</ele>
        <time>2026-05-06T12:46:47.000Z</time>
      </trkpt>
      <trkpt lat="41.789332" lon="22.965864">
        <ele>1895.9</ele>
        <time>2026-05-06T12:46:48.000Z</time>
      </trkpt>
      <trkpt lat="41.789333" lon="22.965853">
        <ele>1895.9</ele>
        <time>2026-05-06T12:46:49.000Z</time>
      </trkpt>
      <trkpt lat="41.789334" lon="22.965844">
        <ele>1895.9</ele>
        <time>2026-05-06T12:46:50.000Z</time>
      </trkpt>
      <trkpt lat="41.789335" lon="22.965834">
        <ele>1895.9</ele>
        <time>2026-05-06T12:46:51.000Z</time>
      </trkpt>
      <trkpt lat="41.789337" lon="22.965825">
        <ele>1895.9</ele>
        <time>2026-05-06T12:46:52.000Z</time>
      </trkpt>
      <trkpt lat="41.789338" lon="22.965816">
        <ele>1896.4</ele>
        <time>2026-05-06T12:46:53.000Z</time>
      </trkpt>
      <trkpt lat="41.789339" lon="22.965806">
        <ele>1896.4</ele>
        <time>2026-05-06T12:46:54.000Z</time>
      </trkpt>
      <trkpt lat="41.789339" lon="22.965796">
        <ele>1896.4</ele>
        <time>2026-05-06T12:46:55.000Z</time>
      </trkpt>
      <trkpt lat="41.789339" lon="22.965785">
        <ele>1896.4</ele>
        <time>2026-05-06T12:46:56.000Z</time>
      </trkpt>
      <trkpt lat="41.789338" lon="22.965774">
        <ele>1896.4</ele>
        <time>2026-05-06T12:46:57.000Z</time>
      </trkpt>
      <trkpt lat="41.789335" lon="22.965763">
        <ele>1897</ele>
        <time>2026-05-06T12:46:58.000Z</time>
      </trkpt>
      <trkpt lat="41.789332" lon="22.965753">
        <ele>1897</ele>
        <time>2026-05-06T12:46:59.000Z</time>
      </trkpt>
      <trkpt lat="41.789329" lon="22.965743">
        <ele>1897</ele>
        <time>2026-05-06T12:47:00.000Z</time>
      </trkpt>
      <trkpt lat="41.789326" lon="22.965734">
        <ele>1897</ele>
        <time>2026-05-06T12:47:01.000Z</time>
      </trkpt>
      <trkpt lat="41.789324" lon="22.965725">
        <ele>1897</ele>
        <time>2026-05-06T12:47:02.000Z</time>
      </trkpt>
      <trkpt lat="41.789322" lon="22.965716">
        <ele>1897.4</ele>
        <time>2026-05-06T12:47:03.000Z</time>
      </trkpt>
      <trkpt lat="41.78932" lon="22.965707">
        <ele>1897.4</ele>
        <time>2026-05-06T12:47:04.000Z</time>
      </trkpt>
      <trkpt lat="41.789319" lon="22.965696">
        <ele>1897.4</ele>
        <time>2026-05-06T12:47:05.000Z</time>
      </trkpt>
      <trkpt lat="41.78932" lon="22.965686">
        <ele>1897.4</ele>
        <time>2026-05-06T12:47:06.000Z</time>
      </trkpt>
      <trkpt lat="41.789322" lon="22.965677">
        <ele>1897.4</ele>
        <time>2026-05-06T12:47:07.000Z</time>
      </trkpt>
      <trkpt lat="41.789325" lon="22.965668">
        <ele>1898.2</ele>
        <time>2026-05-06T12:47:08.000Z</time>
      </trkpt>
      <trkpt lat="41.78933" lon="22.965661">
        <ele>1898.2</ele>
        <time>2026-05-06T12:47:09.000Z</time>
      </trkpt>
      <trkpt lat="41.789334" lon="22.965655">
        <ele>1898.2</ele>
        <time>2026-05-06T12:47:10.000Z</time>
      </trkpt>
      <trkpt lat="41.789337" lon="22.965649">
        <ele>1898.2</ele>
        <time>2026-05-06T12:47:11.000Z</time>
      </trkpt>
      <trkpt lat="41.789339" lon="22.965642">
        <ele>1898.2</ele>
        <time>2026-05-06T12:47:12.000Z</time>
      </trkpt>
      <trkpt lat="41.78934" lon="22.965635">
        <ele>1899.1</ele>
        <time>2026-05-06T12:47:13.000Z</time>
      </trkpt>
      <trkpt lat="41.78934" lon="22.965627">
        <ele>1899.1</ele>
        <time>2026-05-06T12:47:14.000Z</time>
      </trkpt>
      <trkpt lat="41.78934" lon="22.965618">
        <ele>1899.1</ele>
        <time>2026-05-06T12:47:15.000Z</time>
      </trkpt>
      <trkpt lat="41.789339" lon="22.965608">
        <ele>1899.1</ele>
        <time>2026-05-06T12:47:16.000Z</time>
      </trkpt>
      <trkpt lat="41.789338" lon="22.965599">
        <ele>1899.1</ele>
        <time>2026-05-06T12:47:17.000Z</time>
      </trkpt>
      <trkpt lat="41.789338" lon="22.96559">
        <ele>1899.6</ele>
        <time>2026-05-06T12:47:18.000Z</time>
      </trkpt>
      <trkpt lat="41.789337" lon="22.965582">
        <ele>1899.6</ele>
        <time>2026-05-06T12:47:19.000Z</time>
      </trkpt>
      <trkpt lat="41.789336" lon="22.965573">
        <ele>1899.6</ele>
        <time>2026-05-06T12:47:20.000Z</time>
      </trkpt>
      <trkpt lat="41.789335" lon="22.965565">
        <ele>1899.6</ele>
        <time>2026-05-06T12:47:21.000Z</time>
      </trkpt>
      <trkpt lat="41.789335" lon="22.965557">
        <ele>1899.6</ele>
        <time>2026-05-06T12:47:22.000Z</time>
      </trkpt>
      <trkpt lat="41.789334" lon="22.965548">
        <ele>1900.5</ele>
        <time>2026-05-06T12:47:23.000Z</time>
      </trkpt>
      <trkpt lat="41.789333" lon="22.96554">
        <ele>1900.5</ele>
        <time>2026-05-06T12:47:24.000Z</time>
      </trkpt>
      <trkpt lat="41.789332" lon="22.965531">
        <ele>1900.5</ele>
        <time>2026-05-06T12:47:25.000Z</time>
      </trkpt>
      <trkpt lat="41.789332" lon="22.965522">
        <ele>1900.5</ele>
        <time>2026-05-06T12:47:26.000Z</time>
      </trkpt>
      <trkpt lat="41.789332" lon="22.965513">
        <ele>1900.5</ele>
        <time>2026-05-06T12:47:27.000Z</time>
      </trkpt>
      <trkpt lat="41.789334" lon="22.965504">
        <ele>1901.3</ele>
        <time>2026-05-06T12:47:28.000Z</time>
      </trkpt>
      <trkpt lat="41.789335" lon="22.965496">
        <ele>1901.3</ele>
        <time>2026-05-06T12:47:29.000Z</time>
      </trkpt>
      <trkpt lat="41.789336" lon="22.965488">
        <ele>1901.3</ele>
        <time>2026-05-06T12:47:30.000Z</time>
      </trkpt>
      <trkpt lat="41.789336" lon="22.965482">
        <ele>1901.3</ele>
        <time>2026-05-06T12:47:31.000Z</time>
      </trkpt>
      <trkpt lat="41.789335" lon="22.965474">
        <ele>1901.3</ele>
        <time>2026-05-06T12:47:32.000Z</time>
      </trkpt>
      <trkpt lat="41.789334" lon="22.965467">
        <ele>1901.8</ele>
        <time>2026-05-06T12:47:33.000Z</time>
      </trkpt>
      <trkpt lat="41.789334" lon="22.965459">
        <ele>1901.8</ele>
        <time>2026-05-06T12:47:34.000Z</time>
      </trkpt>
      <trkpt lat="41.789334" lon="22.965452">
        <ele>1901.8</ele>
        <time>2026-05-06T12:47:35.000Z</time>
      </trkpt>
      <trkpt lat="41.789334" lon="22.965445">
        <ele>1901.8</ele>
        <time>2026-05-06T12:47:36.000Z</time>
      </trkpt>
      <trkpt lat="41.789336" lon="22.965437">
        <ele>1901.8</ele>
        <time>2026-05-06T12:47:37.000Z</time>
      </trkpt>
      <trkpt lat="41.789337" lon="22.965431">
        <ele>1902.9</ele>
        <time>2026-05-06T12:47:38.000Z</time>
      </trkpt>
      <trkpt lat="41.789339" lon="22.965422">
        <ele>1902.9</ele>
        <time>2026-05-06T12:47:39.000Z</time>
      </trkpt>
      <trkpt lat="41.78934" lon="22.965413">
        <ele>1902.9</ele>
        <time>2026-05-06T12:47:40.000Z</time>
      </trkpt>
      <trkpt lat="41.789341" lon="22.965405">
        <ele>1902.9</ele>
        <time>2026-05-06T12:47:41.000Z</time>
      </trkpt>
      <trkpt lat="41.78934" lon="22.965398">
        <ele>1902.9</ele>
        <time>2026-05-06T12:47:42.000Z</time>
      </trkpt>
      <trkpt lat="41.789339" lon="22.96539">
        <ele>1904</ele>
        <time>2026-05-06T12:47:43.000Z</time>
      </trkpt>
      <trkpt lat="41.789338" lon="22.965381">
        <ele>1904</ele>
        <time>2026-05-06T12:47:44.000Z</time>
      </trkpt>
      <trkpt lat="41.789337" lon="22.965373">
        <ele>1904</ele>
        <time>2026-05-06T12:47:45.000Z</time>
      </trkpt>
      <trkpt lat="41.789335" lon="22.965363">
        <ele>1904</ele>
        <time>2026-05-06T12:47:46.000Z</time>
      </trkpt>
      <trkpt lat="41.789334" lon="22.965354">
        <ele>1904</ele>
        <time>2026-05-06T12:47:47.000Z</time>
      </trkpt>
      <trkpt lat="41.789334" lon="22.965346">
        <ele>1904.6</ele>
        <time>2026-05-06T12:47:48.000Z</time>
      </trkpt>
      <trkpt lat="41.789333" lon="22.96534">
        <ele>1904.6</ele>
        <time>2026-05-06T12:47:49.000Z</time>
      </trkpt>
      <trkpt lat="41.789333" lon="22.965336">
        <ele>1904.6</ele>
        <time>2026-05-06T12:47:50.000Z</time>
      </trkpt>
      <trkpt lat="41.789333" lon="22.965334">
        <ele>1904.6</ele>
        <time>2026-05-06T12:47:51.000Z</time>
      </trkpt>
      <trkpt lat="41.789334" lon="22.965333">
        <ele>1904.6</ele>
        <time>2026-05-06T12:47:52.000Z</time>
      </trkpt>
      <trkpt lat="41.789334" lon="22.965334">
        <ele>1905.8</ele>
        <time>2026-05-06T12:47:53.000Z</time>
      </trkpt>
      <trkpt lat="41.789335" lon="22.965334">
        <ele>1905.8</ele>
        <time>2026-05-06T12:47:54.000Z</time>
      </trkpt>
      <trkpt lat="41.789335" lon="22.965335">
        <ele>1905.8</ele>
        <time>2026-05-06T12:47:55.000Z</time>
      </trkpt>
      <trkpt lat="41.789335" lon="22.965336">
        <ele>1905.8</ele>
        <time>2026-05-06T12:47:56.000Z</time>
      </trkpt>
      <trkpt lat="41.789335" lon="22.965336">
        <ele>1905.8</ele>
        <time>2026-05-06T12:47:57.000Z</time>
      </trkpt>
      <trkpt lat="41.789335" lon="22.965336">
        <ele>1907</ele>
        <time>2026-05-06T12:47:58.000Z</time>
      </trkpt>
      <trkpt lat="41.789335" lon="22.965337">
        <ele>1907</ele>
        <time>2026-05-06T12:47:59.000Z</time>
      </trkpt>
      <trkpt lat="41.789335" lon="22.965337">
        <ele>1907</ele>
        <time>2026-05-06T12:48:00.000Z</time>
      </trkpt>
      <trkpt lat="41.789336" lon="22.965337">
        <ele>1907</ele>
        <time>2026-05-06T12:48:01.000Z</time>
      </trkpt>
      <trkpt lat="41.789336" lon="22.965338">
        <ele>1907</ele>
        <time>2026-05-06T12:48:02.000Z</time>
      </trkpt>
      <trkpt lat="41.789337" lon="22.965338">
        <ele>1907.6</ele>
        <time>2026-05-06T12:48:03.000Z</time>
      </trkpt>
      <trkpt lat="41.789337" lon="22.965338">
        <ele>1907.6</ele>
        <time>2026-05-06T12:48:04.000Z</time>
      </trkpt>
      <trkpt lat="41.789337" lon="22.965338">
        <ele>1907.6</ele>
        <time>2026-05-06T12:48:05.000Z</time>
      </trkpt>
      <trkpt lat="41.789337" lon="22.965338">
        <ele>1907.6</ele>
        <time>2026-05-06T12:48:06.000Z</time>
      </trkpt>
      <trkpt lat="41.789337" lon="22.965338">
        <ele>1907.6</ele>
        <time>2026-05-06T12:48:07.000Z</time>
      </trkpt>
      <trkpt lat="41.789337" lon="22.965338">
        <ele>1908.3</ele>
        <time>2026-05-06T12:48:08.000Z</time>
      </trkpt>
      <trkpt lat="41.789337" lon="22.965338">
        <ele>1908.3</ele>
        <time>2026-05-06T12:48:09.000Z</time>
      </trkpt>
      <trkpt lat="41.789337" lon="22.965337">
        <ele>1908.3</ele>
        <time>2026-05-06T12:48:10.000Z</time>
      </trkpt>
      <trkpt lat="41.789336" lon="22.965331">
        <ele>1908.3</ele>
        <time>2026-05-06T12:48:11.000Z</time>
      </trkpt>
      <trkpt lat="41.789334" lon="22.965321">
        <ele>1908.3</ele>
        <time>2026-05-06T12:48:12.000Z</time>
      </trkpt>
      <trkpt lat="41.789333" lon="22.965309">
        <ele>1908.3</ele>
        <time>2026-05-06T12:48:13.000Z</time>
      </trkpt>
      <trkpt lat="41.789332" lon="22.965295">
        <ele>1908.3</ele>
        <time>2026-05-06T12:48:14.000Z</time>
      </trkpt>
      <trkpt lat="41.789331" lon="22.96528">
        <ele>1908.3</ele>
        <time>2026-05-06T12:48:15.000Z</time>
      </trkpt>
      <trkpt lat="41.789331" lon="22.965268">
        <ele>1908.3</ele>
        <time>2026-05-06T12:48:16.000Z</time>
      </trkpt>
      <trkpt lat="41.789331" lon="22.965257">
        <ele>1908.3</ele>
        <time>2026-05-06T12:48:17.000Z</time>
      </trkpt>
      <trkpt lat="41.78933" lon="22.965247">
        <ele>1908.1</ele>
        <time>2026-05-06T12:48:18.000Z</time>
      </trkpt>
      <trkpt lat="41.78933" lon="22.965235">
        <ele>1908.1</ele>
        <time>2026-05-06T12:48:19.000Z</time>
      </trkpt>
      <trkpt lat="41.789329" lon="22.965225">
        <ele>1908.1</ele>
        <time>2026-05-06T12:48:20.000Z</time>
      </trkpt>
      <trkpt lat="41.789328" lon="22.965213">
        <ele>1908.1</ele>
        <time>2026-05-06T12:48:21.000Z</time>
      </trkpt>
      <trkpt lat="41.789328" lon="22.965202">
        <ele>1908.1</ele>
        <time>2026-05-06T12:48:22.000Z</time>
      </trkpt>
      <trkpt lat="41.789328" lon="22.965192">
        <ele>1908.1</ele>
        <time>2026-05-06T12:48:23.000Z</time>
      </trkpt>
      <trkpt lat="41.789329" lon="22.965183">
        <ele>1908.1</ele>
        <time>2026-05-06T12:48:24.000Z</time>
      </trkpt>
      <trkpt lat="41.789329" lon="22.965175">
        <ele>1908.1</ele>
        <time>2026-05-06T12:48:25.000Z</time>
      </trkpt>
      <trkpt lat="41.789329" lon="22.965168">
        <ele>1908.1</ele>
        <time>2026-05-06T12:48:26.000Z</time>
      </trkpt>
      <trkpt lat="41.789329" lon="22.965159">
        <ele>1908.1</ele>
        <time>2026-05-06T12:48:27.000Z</time>
      </trkpt>
      <trkpt lat="41.78933" lon="22.965151">
        <ele>1908.9</ele>
        <time>2026-05-06T12:48:28.000Z</time>
      </trkpt>
      <trkpt lat="41.78933" lon="22.965142">
        <ele>1908.9</ele>
        <time>2026-05-06T12:48:29.000Z</time>
      </trkpt>
      <trkpt lat="41.78933" lon="22.965132">
        <ele>1908.9</ele>
        <time>2026-05-06T12:48:30.000Z</time>
      </trkpt>
      <trkpt lat="41.789329" lon="22.965123">
        <ele>1908.9</ele>
        <time>2026-05-06T12:48:31.000Z</time>
      </trkpt>
      <trkpt lat="41.789327" lon="22.965114">
        <ele>1908.9</ele>
        <time>2026-05-06T12:48:32.000Z</time>
      </trkpt>
      <trkpt lat="41.789324" lon="22.965105">
        <ele>1909.5</ele>
        <time>2026-05-06T12:48:33.000Z</time>
      </trkpt>
      <trkpt lat="41.789321" lon="22.965097">
        <ele>1909.5</ele>
        <time>2026-05-06T12:48:34.000Z</time>
      </trkpt>
      <trkpt lat="41.78932" lon="22.965089">
        <ele>1909.5</ele>
        <time>2026-05-06T12:48:35.000Z</time>
      </trkpt>
      <trkpt lat="41.78932" lon="22.965082">
        <ele>1909.5</ele>
        <time>2026-05-06T12:48:36.000Z</time>
      </trkpt>
      <trkpt lat="41.78932" lon="22.965078">
        <ele>1909.5</ele>
        <time>2026-05-06T12:48:37.000Z</time>
      </trkpt>
      <trkpt lat="41.789321" lon="22.965076">
        <ele>1911.2</ele>
        <time>2026-05-06T12:48:38.000Z</time>
      </trkpt>
      <trkpt lat="41.789321" lon="22.965076">
        <ele>1911.2</ele>
        <time>2026-05-06T12:48:39.000Z</time>
      </trkpt>
      <trkpt lat="41.789321" lon="22.965076">
        <ele>1911.2</ele>
        <time>2026-05-06T12:48:40.000Z</time>
      </trkpt>
      <trkpt lat="41.789321" lon="22.965077">
        <ele>1911.2</ele>
        <time>2026-05-06T12:48:41.000Z</time>
      </trkpt>
      <trkpt lat="41.78932" lon="22.965077">
        <ele>1911.2</ele>
        <time>2026-05-06T12:48:42.000Z</time>
      </trkpt>
      <trkpt lat="41.78932" lon="22.965078">
        <ele>1912.6</ele>
        <time>2026-05-06T12:48:43.000Z</time>
      </trkpt>
      <trkpt lat="41.78932" lon="22.965078">
        <ele>1912.6</ele>
        <time>2026-05-06T12:48:44.000Z</time>
      </trkpt>
      <trkpt lat="41.78932" lon="22.965078">
        <ele>1912.6</ele>
        <time>2026-05-06T12:48:45.000Z</time>
      </trkpt>
      <trkpt lat="41.78932" lon="22.965078">
        <ele>1912.6</ele>
        <time>2026-05-06T12:48:46.000Z</time>
      </trkpt>
      <trkpt lat="41.78932" lon="22.965078">
        <ele>1912.6</ele>
        <time>2026-05-06T12:48:47.000Z</time>
      </trkpt>
      <trkpt lat="41.78932" lon="22.965078">
        <ele>1913.1</ele>
        <time>2026-05-06T12:48:48.000Z</time>
      </trkpt>
      <trkpt lat="41.78932" lon="22.965078">
        <ele>1913.1</ele>
        <time>2026-05-06T12:48:49.000Z</time>
      </trkpt>
      <trkpt lat="41.78932" lon="22.965078">
        <ele>1913.1</ele>
        <time>2026-05-06T12:48:50.000Z</time>
      </trkpt>
      <trkpt lat="41.789319" lon="22.965076">
        <ele>1913.1</ele>
        <time>2026-05-06T12:48:51.000Z</time>
      </trkpt>
      <trkpt lat="41.789318" lon="22.965074">
        <ele>1913.1</ele>
        <time>2026-05-06T12:48:52.000Z</time>
      </trkpt>
      <trkpt lat="41.789317" lon="22.96507">
        <ele>1913.9</ele>
        <time>2026-05-06T12:48:53.000Z</time>
      </trkpt>
      <trkpt lat="41.789314" lon="22.965064">
        <ele>1913.9</ele>
        <time>2026-05-06T12:48:54.000Z</time>
      </trkpt>
      <trkpt lat="41.78931" lon="22.965057">
        <ele>1913.9</ele>
        <time>2026-05-06T12:48:55.000Z</time>
      </trkpt>
      <trkpt lat="41.789306" lon="22.96505">
        <ele>1913.9</ele>
        <time>2026-05-06T12:48:56.000Z</time>
      </trkpt>
      <trkpt lat="41.789303" lon="22.965042">
        <ele>1913.9</ele>
        <time>2026-05-06T12:48:57.000Z</time>
      </trkpt>
      <trkpt lat="41.7893" lon="22.965035">
        <ele>1914.1</ele>
        <time>2026-05-06T12:48:58.000Z</time>
      </trkpt>
      <trkpt lat="41.789301" lon="22.965028">
        <ele>1914.1</ele>
        <time>2026-05-06T12:48:59.000Z</time>
      </trkpt>
      <trkpt lat="41.789301" lon="22.965021">
        <ele>1914.1</ele>
        <time>2026-05-06T12:49:00.000Z</time>
      </trkpt>
      <trkpt lat="41.789303" lon="22.965015">
        <ele>1914.1</ele>
        <time>2026-05-06T12:49:01.000Z</time>
      </trkpt>
      <trkpt lat="41.789306" lon="22.965009">
        <ele>1914.1</ele>
        <time>2026-05-06T12:49:02.000Z</time>
      </trkpt>
      <trkpt lat="41.789308" lon="22.965002">
        <ele>1914.3</ele>
        <time>2026-05-06T12:49:03.000Z</time>
      </trkpt>
      <trkpt lat="41.78931" lon="22.964995">
        <ele>1914.3</ele>
        <time>2026-05-06T12:49:04.000Z</time>
      </trkpt>
      <trkpt lat="41.789313" lon="22.964987">
        <ele>1914.3</ele>
        <time>2026-05-06T12:49:05.000Z</time>
      </trkpt>
      <trkpt lat="41.789314" lon="22.964979">
        <ele>1914.3</ele>
        <time>2026-05-06T12:49:06.000Z</time>
      </trkpt>
      <trkpt lat="41.789313" lon="22.96497">
        <ele>1914.3</ele>
        <time>2026-05-06T12:49:07.000Z</time>
      </trkpt>
      <trkpt lat="41.789312" lon="22.964962">
        <ele>1914.9</ele>
        <time>2026-05-06T12:49:08.000Z</time>
      </trkpt>
      <trkpt lat="41.789308" lon="22.964955">
        <ele>1914.9</ele>
        <time>2026-05-06T12:49:09.000Z</time>
      </trkpt>
      <trkpt lat="41.789304" lon="22.964946">
        <ele>1914.9</ele>
        <time>2026-05-06T12:49:10.000Z</time>
      </trkpt>
      <trkpt lat="41.7893" lon="22.964938">
        <ele>1914.9</ele>
        <time>2026-05-06T12:49:11.000Z</time>
      </trkpt>
      <trkpt lat="41.789295" lon="22.964931">
        <ele>1914.9</ele>
        <time>2026-05-06T12:49:12.000Z</time>
      </trkpt>
      <trkpt lat="41.789289" lon="22.964924">
        <ele>1916.1</ele>
        <time>2026-05-06T12:49:13.000Z</time>
      </trkpt>
      <trkpt lat="41.789282" lon="22.964919">
        <ele>1916.1</ele>
        <time>2026-05-06T12:49:14.000Z</time>
      </trkpt>
      <trkpt lat="41.789276" lon="22.964915">
        <ele>1916.1</ele>
        <time>2026-05-06T12:49:15.000Z</time>
      </trkpt>
      <trkpt lat="41.789269" lon="22.964911">
        <ele>1916.1</ele>
        <time>2026-05-06T12:49:16.000Z</time>
      </trkpt>
      <trkpt lat="41.789262" lon="22.964908">
        <ele>1916.1</ele>
        <time>2026-05-06T12:49:17.000Z</time>
      </trkpt>
      <trkpt lat="41.789257" lon="22.964904">
        <ele>1916.8</ele>
        <time>2026-05-06T12:49:18.000Z</time>
      </trkpt>
      <trkpt lat="41.789251" lon="22.964898">
        <ele>1916.8</ele>
        <time>2026-05-06T12:49:19.000Z</time>
      </trkpt>
      <trkpt lat="41.789247" lon="22.964893">
        <ele>1916.8</ele>
        <time>2026-05-06T12:49:20.000Z</time>
      </trkpt>
      <trkpt lat="41.789243" lon="22.964889">
        <ele>1916.8</ele>
        <time>2026-05-06T12:49:21.000Z</time>
      </trkpt>
      <trkpt lat="41.789239" lon="22.964884">
        <ele>1916.8</ele>
        <time>2026-05-06T12:49:22.000Z</time>
      </trkpt>
      <trkpt lat="41.789236" lon="22.964879">
        <ele>1918.1</ele>
        <time>2026-05-06T12:49:23.000Z</time>
      </trkpt>
      <trkpt lat="41.789233" lon="22.964875">
        <ele>1918.1</ele>
        <time>2026-05-06T12:49:24.000Z</time>
      </trkpt>
      <trkpt lat="41.789232" lon="22.964868">
        <ele>1918.1</ele>
        <time>2026-05-06T12:49:25.000Z</time>
      </trkpt>
      <trkpt lat="41.789233" lon="22.96486">
        <ele>1918.1</ele>
        <time>2026-05-06T12:49:26.000Z</time>
      </trkpt>
      <trkpt lat="41.789235" lon="22.964852">
        <ele>1918.1</ele>
        <time>2026-05-06T12:49:27.000Z</time>
      </trkpt>
      <trkpt lat="41.78924" lon="22.964844">
        <ele>1919.4</ele>
        <time>2026-05-06T12:49:28.000Z</time>
      </trkpt>
      <trkpt lat="41.789245" lon="22.964836">
        <ele>1919.4</ele>
        <time>2026-05-06T12:49:29.000Z</time>
      </trkpt>
      <trkpt lat="41.789251" lon="22.96483">
        <ele>1919.4</ele>
        <time>2026-05-06T12:49:30.000Z</time>
      </trkpt>
      <trkpt lat="41.789257" lon="22.964825">
        <ele>1919.4</ele>
        <time>2026-05-06T12:49:31.000Z</time>
      </trkpt>
      <trkpt lat="41.789264" lon="22.964821">
        <ele>1919.4</ele>
        <time>2026-05-06T12:49:32.000Z</time>
      </trkpt>
      <trkpt lat="41.78927" lon="22.964818">
        <ele>1919.9</ele>
        <time>2026-05-06T12:49:33.000Z</time>
      </trkpt>
      <trkpt lat="41.789275" lon="22.964815">
        <ele>1919.9</ele>
        <time>2026-05-06T12:49:34.000Z</time>
      </trkpt>
      <trkpt lat="41.78928" lon="22.964813">
        <ele>1919.9</ele>
        <time>2026-05-06T12:49:35.000Z</time>
      </trkpt>
      <trkpt lat="41.789286" lon="22.964809">
        <ele>1919.9</ele>
        <time>2026-05-06T12:49:36.000Z</time>
      </trkpt>
      <trkpt lat="41.789292" lon="22.964803">
        <ele>1919.9</ele>
        <time>2026-05-06T12:49:37.000Z</time>
      </trkpt>
      <trkpt lat="41.789298" lon="22.964798">
        <ele>1921.1</ele>
        <time>2026-05-06T12:49:38.000Z</time>
      </trkpt>
      <trkpt lat="41.789306" lon="22.964793">
        <ele>1921.1</ele>
        <time>2026-05-06T12:49:39.000Z</time>
      </trkpt>
      <trkpt lat="41.789314" lon="22.964787">
        <ele>1921.1</ele>
        <time>2026-05-06T12:49:40.000Z</time>
      </trkpt>
      <trkpt lat="41.789321" lon="22.964781">
        <ele>1921.1</ele>
        <time>2026-05-06T12:49:41.000Z</time>
      </trkpt>
      <trkpt lat="41.789329" lon="22.964778">
        <ele>1921.1</ele>
        <time>2026-05-06T12:49:42.000Z</time>
      </trkpt>
      <trkpt lat="41.789336" lon="22.964777">
        <ele>1922.3</ele>
        <time>2026-05-06T12:49:43.000Z</time>
      </trkpt>
      <trkpt lat="41.78934" lon="22.964776">
        <ele>1922.3</ele>
        <time>2026-05-06T12:49:44.000Z</time>
      </trkpt>
      <trkpt lat="41.789342" lon="22.964778">
        <ele>1922.3</ele>
        <time>2026-05-06T12:49:45.000Z</time>
      </trkpt>
      <trkpt lat="41.789343" lon="22.96478">
        <ele>1922.3</ele>
        <time>2026-05-06T12:49:46.000Z</time>
      </trkpt>
      <trkpt lat="41.789342" lon="22.964781">
        <ele>1922.3</ele>
        <time>2026-05-06T12:49:47.000Z</time>
      </trkpt>
      <trkpt lat="41.78934" lon="22.964782">
        <ele>1922.9</ele>
        <time>2026-05-06T12:49:48.000Z</time>
      </trkpt>
      <trkpt lat="41.78934" lon="22.964782">
        <ele>1922.9</ele>
        <time>2026-05-06T12:49:49.000Z</time>
      </trkpt>
      <trkpt lat="41.78934" lon="22.964783">
        <ele>1922.9</ele>
        <time>2026-05-06T12:49:50.000Z</time>
      </trkpt>
      <trkpt lat="41.78934" lon="22.964783">
        <ele>1922.9</ele>
        <time>2026-05-06T12:49:51.000Z</time>
      </trkpt>
      <trkpt lat="41.789341" lon="22.964783">
        <ele>1922.9</ele>
        <time>2026-05-06T12:49:52.000Z</time>
      </trkpt>
      <trkpt lat="41.789341" lon="22.964782">
        <ele>1923.9</ele>
        <time>2026-05-06T12:49:53.000Z</time>
      </trkpt>
      <trkpt lat="41.789342" lon="22.964782">
        <ele>1923.9</ele>
        <time>2026-05-06T12:49:54.000Z</time>
      </trkpt>
      <trkpt lat="41.789343" lon="22.964782">
        <ele>1923.9</ele>
        <time>2026-05-06T12:49:55.000Z</time>
      </trkpt>
      <trkpt lat="41.789345" lon="22.964781">
        <ele>1923.9</ele>
        <time>2026-05-06T12:49:56.000Z</time>
      </trkpt>
      <trkpt lat="41.789346" lon="22.96478">
        <ele>1923.9</ele>
        <time>2026-05-06T12:49:57.000Z</time>
      </trkpt>
      <trkpt lat="41.789349" lon="22.964779">
        <ele>1924.5</ele>
        <time>2026-05-06T12:49:58.000Z</time>
      </trkpt>
      <trkpt lat="41.789351" lon="22.964778">
        <ele>1924.5</ele>
        <time>2026-05-06T12:49:59.000Z</time>
      </trkpt>
      <trkpt lat="41.789353" lon="22.964777">
        <ele>1924.5</ele>
        <time>2026-05-06T12:50:00.000Z</time>
      </trkpt>
      <trkpt lat="41.789356" lon="22.96478">
        <ele>1924.5</ele>
        <time>2026-05-06T12:50:01.000Z</time>
      </trkpt>
      <trkpt lat="41.789357" lon="22.964784">
        <ele>1924.5</ele>
        <time>2026-05-06T12:50:02.000Z</time>
      </trkpt>
      <trkpt lat="41.789357" lon="22.964788">
        <ele>1924.7</ele>
        <time>2026-05-06T12:50:03.000Z</time>
      </trkpt>
      <trkpt lat="41.789357" lon="22.964792">
        <ele>1924.7</ele>
        <time>2026-05-06T12:50:04.000Z</time>
      </trkpt>
      <trkpt lat="41.789357" lon="22.964794">
        <ele>1924.7</ele>
        <time>2026-05-06T12:50:05.000Z</time>
      </trkpt>
      <trkpt lat="41.789356" lon="22.964795">
        <ele>1924.7</ele>
        <time>2026-05-06T12:50:06.000Z</time>
      </trkpt>
      <trkpt lat="41.789357" lon="22.964798">
        <ele>1924.7</ele>
        <time>2026-05-06T12:50:07.000Z</time>
      </trkpt>
      <trkpt lat="41.78936" lon="22.964801">
        <ele>1924.9</ele>
        <time>2026-05-06T12:50:08.000Z</time>
      </trkpt>
      <trkpt lat="41.789362" lon="22.964807">
        <ele>1924.9</ele>
        <time>2026-05-06T12:50:09.000Z</time>
      </trkpt>
      <trkpt lat="41.789364" lon="22.964812">
        <ele>1924.9</ele>
        <time>2026-05-06T12:50:10.000Z</time>
      </trkpt>
      <trkpt lat="41.789367" lon="22.964817">
        <ele>1924.9</ele>
        <time>2026-05-06T12:50:11.000Z</time>
      </trkpt>
      <trkpt lat="41.789367" lon="22.96482">
        <ele>1924.9</ele>
        <time>2026-05-06T12:50:12.000Z</time>
      </trkpt>
      <trkpt lat="41.789366" lon="22.964821">
        <ele>1925.2</ele>
        <time>2026-05-06T12:50:13.000Z</time>
      </trkpt>
      <trkpt lat="41.789366" lon="22.96482">
        <ele>1925.2</ele>
        <time>2026-05-06T12:50:14.000Z</time>
      </trkpt>
      <trkpt lat="41.789365" lon="22.964819">
        <ele>1925.2</ele>
        <time>2026-05-06T12:50:15.000Z</time>
      </trkpt>
      <trkpt lat="41.789364" lon="22.964819">
        <ele>1925.2</ele>
        <time>2026-05-06T12:50:16.000Z</time>
      </trkpt>
      <trkpt lat="41.789363" lon="22.964819">
        <ele>1925.2</ele>
        <time>2026-05-06T12:50:17.000Z</time>
      </trkpt>
      <trkpt lat="41.789362" lon="22.964819">
        <ele>1925.4</ele>
        <time>2026-05-06T12:50:18.000Z</time>
      </trkpt>
      <trkpt lat="41.789361" lon="22.964818">
        <ele>1925.4</ele>
        <time>2026-05-06T12:50:19.000Z</time>
      </trkpt>
      <trkpt lat="41.78936" lon="22.964818">
        <ele>1925.4</ele>
        <time>2026-05-06T12:50:20.000Z</time>
      </trkpt>
      <trkpt lat="41.78936" lon="22.964818">
        <ele>1925.4</ele>
        <time>2026-05-06T12:50:21.000Z</time>
      </trkpt>
      <trkpt lat="41.789361" lon="22.964817">
        <ele>1925.4</ele>
        <time>2026-05-06T12:50:22.000Z</time>
      </trkpt>
      <trkpt lat="41.789361" lon="22.964818">
        <ele>1925.7</ele>
        <time>2026-05-06T12:50:23.000Z</time>
      </trkpt>
      <trkpt lat="41.789362" lon="22.964818">
        <ele>1925.7</ele>
        <time>2026-05-06T12:50:24.000Z</time>
      </trkpt>
      <trkpt lat="41.789362" lon="22.964818">
        <ele>1925.7</ele>
        <time>2026-05-06T12:50:25.000Z</time>
      </trkpt>
      <trkpt lat="41.789363" lon="22.964819">
        <ele>1925.7</ele>
        <time>2026-05-06T12:50:26.000Z</time>
      </trkpt>
      <trkpt lat="41.789363" lon="22.964819">
        <ele>1925.7</ele>
        <time>2026-05-06T12:50:27.000Z</time>
      </trkpt>
      <trkpt lat="41.789363" lon="22.964819">
        <ele>1925.9</ele>
        <time>2026-05-06T12:50:28.000Z</time>
      </trkpt>
      <trkpt lat="41.789363" lon="22.964817">
        <ele>1925.9</ele>
        <time>2026-05-06T12:50:29.000Z</time>
      </trkpt>
      <trkpt lat="41.789364" lon="22.964815">
        <ele>1925.9</ele>
        <time>2026-05-06T12:50:30.000Z</time>
      </trkpt>
      <trkpt lat="41.789365" lon="22.964812">
        <ele>1925.9</ele>
        <time>2026-05-06T12:50:31.000Z</time>
      </trkpt>
      <trkpt lat="41.789367" lon="22.96481">
        <ele>1925.9</ele>
        <time>2026-05-06T12:50:32.000Z</time>
      </trkpt>
      <trkpt lat="41.78937" lon="22.964808">
        <ele>1925.9</ele>
        <time>2026-05-06T12:50:33.000Z</time>
      </trkpt>
      <trkpt lat="41.789374" lon="22.964809">
        <ele>1925.9</ele>
        <time>2026-05-06T12:50:34.000Z</time>
      </trkpt>
      <trkpt lat="41.789378" lon="22.964811">
        <ele>1925.9</ele>
        <time>2026-05-06T12:50:35.000Z</time>
      </trkpt>
      <trkpt lat="41.789382" lon="22.964813">
        <ele>1925.9</ele>
        <time>2026-05-06T12:50:36.000Z</time>
      </trkpt>
      <trkpt lat="41.789385" lon="22.964815">
        <ele>1925.9</ele>
        <time>2026-05-06T12:50:37.000Z</time>
      </trkpt>
      <trkpt lat="41.789386" lon="22.964815">
        <ele>1926</ele>
        <time>2026-05-06T12:50:38.000Z</time>
      </trkpt>
      <trkpt lat="41.789386" lon="22.964813">
        <ele>1926</ele>
        <time>2026-05-06T12:50:39.000Z</time>
      </trkpt>
      <trkpt lat="41.789386" lon="22.964812">
        <ele>1926</ele>
        <time>2026-05-06T12:50:40.000Z</time>
      </trkpt>
      <trkpt lat="41.789386" lon="22.96481">
        <ele>1926</ele>
        <time>2026-05-06T12:50:41.000Z</time>
      </trkpt>
      <trkpt lat="41.789386" lon="22.964809">
        <ele>1926</ele>
        <time>2026-05-06T12:50:42.000Z</time>
      </trkpt>
      <trkpt lat="41.789386" lon="22.964809">
        <ele>1926.2</ele>
        <time>2026-05-06T12:50:43.000Z</time>
      </trkpt>
      <trkpt lat="41.789386" lon="22.964809">
        <ele>1926.2</ele>
        <time>2026-05-06T12:50:44.000Z</time>
      </trkpt>
      <trkpt lat="41.789386" lon="22.964809">
        <ele>1926.2</ele>
        <time>2026-05-06T12:50:45.000Z</time>
      </trkpt>
      <trkpt lat="41.789387" lon="22.96481">
        <ele>1926.2</ele>
        <time>2026-05-06T12:50:46.000Z</time>
      </trkpt>
      <trkpt lat="41.789387" lon="22.964812">
        <ele>1926.2</ele>
        <time>2026-05-06T12:50:47.000Z</time>
      </trkpt>
      <trkpt lat="41.789386" lon="22.964812">
        <ele>1926.2</ele>
        <time>2026-05-06T12:50:48.000Z</time>
      </trkpt>
      <trkpt lat="41.789385" lon="22.964814">
        <ele>1926.2</ele>
        <time>2026-05-06T12:50:49.000Z</time>
      </trkpt>
      <trkpt lat="41.789384" lon="22.964814">
        <ele>1926.2</ele>
        <time>2026-05-06T12:50:50.000Z</time>
      </trkpt>
      <trkpt lat="41.789382" lon="22.964812">
        <ele>1926.2</ele>
        <time>2026-05-06T12:50:51.000Z</time>
      </trkpt>
      <trkpt lat="41.789381" lon="22.964811">
        <ele>1926.2</ele>
        <time>2026-05-06T12:50:52.000Z</time>
      </trkpt>
      <trkpt lat="41.789381" lon="22.96481">
        <ele>1926.4</ele>
        <time>2026-05-06T12:50:53.000Z</time>
      </trkpt>
      <trkpt lat="41.78938" lon="22.964809">
        <ele>1926.4</ele>
        <time>2026-05-06T12:50:54.000Z</time>
      </trkpt>
      <trkpt lat="41.78938" lon="22.964809">
        <ele>1926.4</ele>
        <time>2026-05-06T12:50:55.000Z</time>
      </trkpt>
      <trkpt lat="41.789379" lon="22.964809">
        <ele>1926.4</ele>
        <time>2026-05-06T12:50:56.000Z</time>
      </trkpt>
      <trkpt lat="41.789379" lon="22.964809">
        <ele>1926.4</ele>
        <time>2026-05-06T12:50:57.000Z</time>
      </trkpt>
      <trkpt lat="41.789379" lon="22.964809">
        <ele>1926.4</ele>
        <time>2026-05-06T12:50:58.000Z</time>
      </trkpt>
      <trkpt lat="41.789379" lon="22.964809">
        <ele>1926.4</ele>
        <time>2026-05-06T12:50:59.000Z</time>
      </trkpt>
      <trkpt lat="41.789379" lon="22.964809">
        <ele>1926.4</ele>
        <time>2026-05-06T12:51:00.000Z</time>
      </trkpt>
      <trkpt lat="41.789379" lon="22.964809">
        <ele>1926.4</ele>
        <time>2026-05-06T12:51:01.000Z</time>
      </trkpt>
      <trkpt lat="41.789379" lon="22.964809">
        <ele>1926.4</ele>
        <time>2026-05-06T12:51:02.000Z</time>
      </trkpt>
      <trkpt lat="41.789379" lon="22.964809">
        <ele>1926.4</ele>
        <time>2026-05-06T12:51:03.000Z</time>
      </trkpt>
      <trkpt lat="41.789379" lon="22.964809">
        <ele>1926.4</ele>
        <time>2026-05-06T12:51:04.000Z</time>
      </trkpt>
      <trkpt lat="41.789379" lon="22.964809">
        <ele>1926.4</ele>
        <time>2026-05-06T12:51:05.000Z</time>
      </trkpt>
      <trkpt lat="41.789379" lon="22.96481">
        <ele>1926.4</ele>
        <time>2026-05-06T12:51:06.000Z</time>
      </trkpt>
      <trkpt lat="41.789379" lon="22.96481">
        <ele>1926.4</ele>
        <time>2026-05-06T12:51:07.000Z</time>
      </trkpt>
      <trkpt lat="41.789379" lon="22.96481">
        <ele>1926.1</ele>
        <time>2026-05-06T12:51:08.000Z</time>
      </trkpt>
      <trkpt lat="41.789379" lon="22.96481">
        <ele>1926.1</ele>
        <time>2026-05-06T12:51:09.000Z</time>
      </trkpt>
      <trkpt lat="41.789379" lon="22.96481">
        <ele>1926.1</ele>
        <time>2026-05-06T12:51:10.000Z</time>
      </trkpt>
      <trkpt lat="41.789379" lon="22.96481">
        <ele>1926.1</ele>
        <time>2026-05-06T12:51:11.000Z</time>
      </trkpt>
      <trkpt lat="41.789379" lon="22.964809">
        <ele>1926.1</ele>
        <time>2026-05-06T12:51:12.000Z</time>
      </trkpt>
      <trkpt lat="41.789379" lon="22.964809">
        <ele>1925.8</ele>
        <time>2026-05-06T12:51:13.000Z</time>
      </trkpt>
      <trkpt lat="41.789379" lon="22.964809">
        <ele>1925.8</ele>
        <time>2026-05-06T12:51:14.000Z</time>
      </trkpt>
      <trkpt lat="41.789379" lon="22.964808">
        <ele>1925.8</ele>
        <time>2026-05-06T12:51:15.000Z</time>
      </trkpt>
      <trkpt lat="41.789379" lon="22.964808">
        <ele>1925.8</ele>
        <time>2026-05-06T12:51:16.000Z</time>
      </trkpt>
      <trkpt lat="41.789379" lon="22.964808">
        <ele>1925.8</ele>
        <time>2026-05-06T12:51:17.000Z</time>
      </trkpt>
      <trkpt lat="41.789379" lon="22.964808">
        <ele>1925.7</ele>
        <time>2026-05-06T12:51:18.000Z</time>
      </trkpt>
      <trkpt lat="41.789379" lon="22.964808">
        <ele>1925.7</ele>
        <time>2026-05-06T12:51:19.000Z</time>
      </trkpt>
      <trkpt lat="41.789379" lon="22.964808">
        <ele>1925.7</ele>
        <time>2026-05-06T12:51:20.000Z</time>
      </trkpt>
      <trkpt lat="41.789379" lon="22.964808">
        <ele>1925.7</ele>
        <time>2026-05-06T12:51:21.000Z</time>
      </trkpt>
      <trkpt lat="41.789379" lon="22.964808">
        <ele>1925.7</ele>
        <time>2026-05-06T12:51:22.000Z</time>
      </trkpt>
      <trkpt lat="41.789379" lon="22.964808">
        <ele>1925.6</ele>
        <time>2026-05-06T12:51:23.000Z</time>
      </trkpt>
      <trkpt lat="41.789378" lon="22.964808">
        <ele>1925.6</ele>
        <time>2026-05-06T12:51:24.000Z</time>
      </trkpt>
      <trkpt lat="41.789378" lon="22.964808">
        <ele>1925.6</ele>
        <time>2026-05-06T12:51:25.000Z</time>
      </trkpt>
      <trkpt lat="41.789378" lon="22.964808">
        <ele>1925.6</ele>
        <time>2026-05-06T12:51:26.000Z</time>
      </trkpt>
      <trkpt lat="41.789378" lon="22.964808">
        <ele>1925.6</ele>
        <time>2026-05-06T12:51:27.000Z</time>
      </trkpt>
      <trkpt lat="41.789378" lon="22.964808">
        <ele>1925.6</ele>
        <time>2026-05-06T12:51:28.000Z</time>
      </trkpt>
      <trkpt lat="41.789378" lon="22.964808">
        <ele>1925.6</ele>
        <time>2026-05-06T12:51:29.000Z</time>
      </trkpt>
      <trkpt lat="41.789378" lon="22.964808">
        <ele>1925.6</ele>
        <time>2026-05-06T12:51:30.000Z</time>
      </trkpt>
      <trkpt lat="41.789378" lon="22.964808">
        <ele>1925.6</ele>
        <time>2026-05-06T12:51:31.000Z</time>
      </trkpt>
      <trkpt lat="41.789378" lon="22.964808">
        <ele>1925.6</ele>
        <time>2026-05-06T12:51:32.000Z</time>
      </trkpt>
      <trkpt lat="41.789378" lon="22.964808">
        <ele>1925.6</ele>
        <time>2026-05-06T12:51:33.000Z</time>
      </trkpt>
      <trkpt lat="41.789378" lon="22.964809">
        <ele>1925.6</ele>
        <time>2026-05-06T12:51:34.000Z</time>
      </trkpt>
      <trkpt lat="41.789379" lon="22.964809">
        <ele>1925.6</ele>
        <time>2026-05-06T12:51:35.000Z</time>
      </trkpt>
      <trkpt lat="41.789379" lon="22.96481">
        <ele>1925.6</ele>
        <time>2026-05-06T12:51:36.000Z</time>
      </trkpt>
      <trkpt lat="41.789379" lon="22.96481">
        <ele>1925.6</ele>
        <time>2026-05-06T12:51:37.000Z</time>
      </trkpt>
      <trkpt lat="41.78938" lon="22.964811">
        <ele>1925.6</ele>
        <time>2026-05-06T12:51:38.000Z</time>
      </trkpt>
      <trkpt lat="41.78938" lon="22.964811">
        <ele>1925.6</ele>
        <time>2026-05-06T12:51:39.000Z</time>
      </trkpt>
      <trkpt lat="41.78938" lon="22.964811">
        <ele>1925.6</ele>
        <time>2026-05-06T12:51:40.000Z</time>
      </trkpt>
      <trkpt lat="41.78938" lon="22.964811">
        <ele>1925.6</ele>
        <time>2026-05-06T12:51:41.000Z</time>
      </trkpt>
      <trkpt lat="41.78938" lon="22.964811">
        <ele>1925.6</ele>
        <time>2026-05-06T12:51:42.000Z</time>
      </trkpt>
      <trkpt lat="41.78938" lon="22.964811">
        <ele>1925.7</ele>
        <time>2026-05-06T12:51:43.000Z</time>
      </trkpt>
      <trkpt lat="41.78938" lon="22.964811">
        <ele>1925.7</ele>
        <time>2026-05-06T12:51:44.000Z</time>
      </trkpt>
      <trkpt lat="41.78938" lon="22.964811">
        <ele>1925.7</ele>
        <time>2026-05-06T12:51:45.000Z</time>
      </trkpt>
      <trkpt lat="41.78938" lon="22.964811">
        <ele>1925.7</ele>
        <time>2026-05-06T12:51:46.000Z</time>
      </trkpt>
      <trkpt lat="41.78938" lon="22.964811">
        <ele>1925.7</ele>
        <time>2026-05-06T12:51:47.000Z</time>
      </trkpt>
      <trkpt lat="41.78938" lon="22.964811">
        <ele>1925.7</ele>
        <time>2026-05-06T12:51:48.000Z</time>
      </trkpt>
      <trkpt lat="41.78938" lon="22.964811">
        <ele>1925.7</ele>
        <time>2026-05-06T12:51:49.000Z</time>
      </trkpt>
      <trkpt lat="41.78938" lon="22.964811">
        <ele>1925.7</ele>
        <time>2026-05-06T12:51:50.000Z</time>
      </trkpt>
      <trkpt lat="41.78938" lon="22.964811">
        <ele>1925.7</ele>
        <time>2026-05-06T12:51:51.000Z</time>
      </trkpt>
      <trkpt lat="41.78938" lon="22.96481">
        <ele>1925.7</ele>
        <time>2026-05-06T12:51:52.000Z</time>
      </trkpt>
      <trkpt lat="41.78938" lon="22.96481">
        <ele>1925.7</ele>
        <time>2026-05-06T12:51:53.000Z</time>
      </trkpt>
      <trkpt lat="41.78938" lon="22.96481">
        <ele>1925.7</ele>
        <time>2026-05-06T12:51:54.000Z</time>
      </trkpt>
      <trkpt lat="41.78938" lon="22.964809">
        <ele>1925.7</ele>
        <time>2026-05-06T12:51:55.000Z</time>
      </trkpt>
      <trkpt lat="41.78938" lon="22.964809">
        <ele>1925.7</ele>
        <time>2026-05-06T12:51:56.000Z</time>
      </trkpt>
      <trkpt lat="41.789379" lon="22.964809">
        <ele>1925.7</ele>
        <time>2026-05-06T12:51:57.000Z</time>
      </trkpt>
      <trkpt lat="41.789379" lon="22.964809">
        <ele>1926</ele>
        <time>2026-05-06T12:51:58.000Z</time>
      </trkpt>
      <trkpt lat="41.789379" lon="22.964809">
        <ele>1926</ele>
        <time>2026-05-06T12:51:59.000Z</time>
      </trkpt>
      <trkpt lat="41.789379" lon="22.964809">
        <ele>1926</ele>
        <time>2026-05-06T12:52:00.000Z</time>
      </trkpt>
      <trkpt lat="41.789379" lon="22.964809">
        <ele>1926</ele>
        <time>2026-05-06T12:52:01.000Z</time>
      </trkpt>
      <trkpt lat="41.789379" lon="22.964809">
        <ele>1926</ele>
        <time>2026-05-06T12:52:02.000Z</time>
      </trkpt>
      <trkpt lat="41.789379" lon="22.964809">
        <ele>1926.1</ele>
        <time>2026-05-06T12:52:03.000Z</time>
      </trkpt>
      <trkpt lat="41.789379" lon="22.964809">
        <ele>1926.1</ele>
        <time>2026-05-06T12:52:04.000Z</time>
      </trkpt>
      <trkpt lat="41.789379" lon="22.964809">
        <ele>1926.1</ele>
        <time>2026-05-06T12:52:05.000Z</time>
      </trkpt>
      <trkpt lat="41.789379" lon="22.964809">
        <ele>1926.1</ele>
        <time>2026-05-06T12:52:06.000Z</time>
      </trkpt>
      <trkpt lat="41.789379" lon="22.964809">
        <ele>1926.1</ele>
        <time>2026-05-06T12:52:07.000Z</time>
      </trkpt>
      <trkpt lat="41.789379" lon="22.964809">
        <ele>1926.3</ele>
        <time>2026-05-06T12:52:08.000Z</time>
      </trkpt>
      <trkpt lat="41.789379" lon="22.964809">
        <ele>1926.3</ele>
        <time>2026-05-06T12:52:09.000Z</time>
      </trkpt>
      <trkpt lat="41.789379" lon="22.964809">
        <ele>1926.3</ele>
        <time>2026-05-06T12:52:10.000Z</time>
      </trkpt>
      <trkpt lat="41.789379" lon="22.964809">
        <ele>1926.3</ele>
        <time>2026-05-06T12:52:11.000Z</time>
      </trkpt>
      <trkpt lat="41.789379" lon="22.964809">
        <ele>1926.3</ele>
        <time>2026-05-06T12:52:12.000Z</time>
      </trkpt>
      <trkpt lat="41.789379" lon="22.964809">
        <ele>1926.4</ele>
        <time>2026-05-06T12:52:13.000Z</time>
      </trkpt>
      <trkpt lat="41.789379" lon="22.964809">
        <ele>1926.4</ele>
        <time>2026-05-06T12:52:14.000Z</time>
      </trkpt>
      <trkpt lat="41.789379" lon="22.96481">
        <ele>1926.4</ele>
        <time>2026-05-06T12:52:15.000Z</time>
      </trkpt>
      <trkpt lat="41.789379" lon="22.96481">
        <ele>1926.4</ele>
        <time>2026-05-06T12:52:16.000Z</time>
      </trkpt>
      <trkpt lat="41.789379" lon="22.964811">
        <ele>1926.4</ele>
        <time>2026-05-06T12:52:17.000Z</time>
      </trkpt>
      <trkpt lat="41.789379" lon="22.964811">
        <ele>1926.4</ele>
        <time>2026-05-06T12:52:18.000Z</time>
      </trkpt>
      <trkpt lat="41.789379" lon="22.964811">
        <ele>1926.4</ele>
        <time>2026-05-06T12:52:19.000Z</time>
      </trkpt>
      <trkpt lat="41.789379" lon="22.964811">
        <ele>1926.4</ele>
        <time>2026-05-06T12:52:20.000Z</time>
      </trkpt>
      <trkpt lat="41.789379" lon="22.964811">
        <ele>1926.4</ele>
        <time>2026-05-06T12:52:21.000Z</time>
      </trkpt>
      <trkpt lat="41.789379" lon="22.964811">
        <ele>1926.4</ele>
        <time>2026-05-06T12:52:22.000Z</time>
      </trkpt>
      <trkpt lat="41.789379" lon="22.964811">
        <ele>1926.5</ele>
        <time>2026-05-06T12:52:23.000Z</time>
      </trkpt>
      <trkpt lat="41.789379" lon="22.964811">
        <ele>1926.5</ele>
        <time>2026-05-06T12:52:24.000Z</time>
      </trkpt>
      <trkpt lat="41.789379" lon="22.964811">
        <ele>1926.5</ele>
        <time>2026-05-06T12:52:25.000Z</time>
      </trkpt>
      <trkpt lat="41.789379" lon="22.964811">
        <ele>1926.5</ele>
        <time>2026-05-06T12:52:26.000Z</time>
      </trkpt>
      <trkpt lat="41.789379" lon="22.964811">
        <ele>1926.5</ele>
        <time>2026-05-06T12:52:27.000Z</time>
      </trkpt>
      <trkpt lat="41.789379" lon="22.964811">
        <ele>1926.4</ele>
        <time>2026-05-06T12:52:28.000Z</time>
      </trkpt>
      <trkpt lat="41.789379" lon="22.964811">
        <ele>1926.4</ele>
        <time>2026-05-06T12:52:29.000Z</time>
      </trkpt>
      <trkpt lat="41.789379" lon="22.964811">
        <ele>1926.4</ele>
        <time>2026-05-06T12:52:30.000Z</time>
      </trkpt>
      <trkpt lat="41.789379" lon="22.964811">
        <ele>1926.4</ele>
        <time>2026-05-06T12:52:31.000Z</time>
      </trkpt>
      <trkpt lat="41.789379" lon="22.964811">
        <ele>1926.4</ele>
        <time>2026-05-06T12:52:32.000Z</time>
      </trkpt>
      <trkpt lat="41.789379" lon="22.964811">
        <ele>1926.3</ele>
        <time>2026-05-06T12:52:33.000Z</time>
      </trkpt>
      <trkpt lat="41.789379" lon="22.964811">
        <ele>1926.3</ele>
        <time>2026-05-06T12:52:34.000Z</time>
      </trkpt>
      <trkpt lat="41.789379" lon="22.964811">
        <ele>1926.3</ele>
        <time>2026-05-06T12:52:35.000Z</time>
      </trkpt>
      <trkpt lat="41.789379" lon="22.964811">
        <ele>1926.3</ele>
        <time>2026-05-06T12:52:36.000Z</time>
      </trkpt>
      <trkpt lat="41.789379" lon="22.964811">
        <ele>1926.3</ele>
        <time>2026-05-06T12:52:37.000Z</time>
      </trkpt>
      <trkpt lat="41.789379" lon="22.964811">
        <ele>1926.1</ele>
        <time>2026-05-06T12:52:38.000Z</time>
      </trkpt>
      <trkpt lat="41.789379" lon="22.964811">
        <ele>1926.1</ele>
        <time>2026-05-06T12:52:39.000Z</time>
      </trkpt>
      <trkpt lat="41.789379" lon="22.964811">
        <ele>1926.1</ele>
        <time>2026-05-06T12:52:40.000Z</time>
      </trkpt>
      <trkpt lat="41.789379" lon="22.964811">
        <ele>1926.1</ele>
        <time>2026-05-06T12:52:41.000Z</time>
      </trkpt>
      <trkpt lat="41.789379" lon="22.964811">
        <ele>1926.1</ele>
        <time>2026-05-06T12:52:42.000Z</time>
      </trkpt>
      <trkpt lat="41.789379" lon="22.964811">
        <ele>1926</ele>
        <time>2026-05-06T12:52:43.000Z</time>
      </trkpt>
      <trkpt lat="41.789379" lon="22.964811">
        <ele>1926</ele>
        <time>2026-05-06T12:52:44.000Z</time>
      </trkpt>
      <trkpt lat="41.789378" lon="22.964812">
        <ele>1926</ele>
        <time>2026-05-06T12:52:45.000Z</time>
      </trkpt>
      <trkpt lat="41.789378" lon="22.964812">
        <ele>1926</ele>
        <time>2026-05-06T12:52:46.000Z</time>
      </trkpt>
      <trkpt lat="41.789377" lon="22.964812">
        <ele>1926</ele>
        <time>2026-05-06T12:52:47.000Z</time>
      </trkpt>
      <trkpt lat="41.789375" lon="22.964812">
        <ele>1925.9</ele>
        <time>2026-05-06T12:52:48.000Z</time>
      </trkpt>
      <trkpt lat="41.789375" lon="22.964813">
        <ele>1925.9</ele>
        <time>2026-05-06T12:52:49.000Z</time>
      </trkpt>
      <trkpt lat="41.789374" lon="22.964814">
        <ele>1925.9</ele>
        <time>2026-05-06T12:52:50.000Z</time>
      </trkpt>
      <trkpt lat="41.789374" lon="22.964816">
        <ele>1925.9</ele>
        <time>2026-05-06T12:52:51.000Z</time>
      </trkpt>
      <trkpt lat="41.789374" lon="22.964818">
        <ele>1925.9</ele>
        <time>2026-05-06T12:52:52.000Z</time>
      </trkpt>
      <trkpt lat="41.789375" lon="22.964821">
        <ele>1925.9</ele>
        <time>2026-05-06T12:52:53.000Z</time>
      </trkpt>
      <trkpt lat="41.789375" lon="22.964823">
        <ele>1925.9</ele>
        <time>2026-05-06T12:52:54.000Z</time>
      </trkpt>
      <trkpt lat="41.789375" lon="22.964824">
        <ele>1925.9</ele>
        <time>2026-05-06T12:52:55.000Z</time>
      </trkpt>
      <trkpt lat="41.789376" lon="22.964823">
        <ele>1925.9</ele>
        <time>2026-05-06T12:52:56.000Z</time>
      </trkpt>
      <trkpt lat="41.789376" lon="22.964823">
        <ele>1925.9</ele>
        <time>2026-05-06T12:52:57.000Z</time>
      </trkpt>
      <trkpt lat="41.789375" lon="22.964821">
        <ele>1926.1</ele>
        <time>2026-05-06T12:52:58.000Z</time>
      </trkpt>
      <trkpt lat="41.789376" lon="22.964818">
        <ele>1926.1</ele>
        <time>2026-05-06T12:52:59.000Z</time>
      </trkpt>
      <trkpt lat="41.789378" lon="22.964814">
        <ele>1926.1</ele>
        <time>2026-05-06T12:53:00.000Z</time>
      </trkpt>
      <trkpt lat="41.789379" lon="22.964809">
        <ele>1926.1</ele>
        <time>2026-05-06T12:53:01.000Z</time>
      </trkpt>
      <trkpt lat="41.789382" lon="22.964803">
        <ele>1926.1</ele>
        <time>2026-05-06T12:53:02.000Z</time>
      </trkpt>
      <trkpt lat="41.789384" lon="22.964796">
        <ele>1926.1</ele>
        <time>2026-05-06T12:53:03.000Z</time>
      </trkpt>
      <trkpt lat="41.789384" lon="22.964786">
        <ele>1926.1</ele>
        <time>2026-05-06T12:53:04.000Z</time>
      </trkpt>
      <trkpt lat="41.789381" lon="22.964773">
        <ele>1926.1</ele>
        <time>2026-05-06T12:53:05.000Z</time>
      </trkpt>
      <trkpt lat="41.789379" lon="22.964757">
        <ele>1926.1</ele>
        <time>2026-05-06T12:53:06.000Z</time>
      </trkpt>
      <trkpt lat="41.789377" lon="22.964738">
        <ele>1926.1</ele>
        <time>2026-05-06T12:53:07.000Z</time>
      </trkpt>
      <trkpt lat="41.789376" lon="22.964719">
        <ele>1926</ele>
        <time>2026-05-06T12:53:08.000Z</time>
      </trkpt>
      <trkpt lat="41.789376" lon="22.964699">
        <ele>1926</ele>
        <time>2026-05-06T12:53:09.000Z</time>
      </trkpt>
      <trkpt lat="41.789378" lon="22.964679">
        <ele>1926</ele>
        <time>2026-05-06T12:53:10.000Z</time>
      </trkpt>
      <trkpt lat="41.789379" lon="22.964661">
        <ele>1926</ele>
        <time>2026-05-06T12:53:11.000Z</time>
      </trkpt>
      <trkpt lat="41.78938" lon="22.964644">
        <ele>1926</ele>
        <time>2026-05-06T12:53:12.000Z</time>
      </trkpt>
      <trkpt lat="41.78938" lon="22.964628">
        <ele>1925.4</ele>
        <time>2026-05-06T12:53:13.000Z</time>
      </trkpt>
      <trkpt lat="41.78938" lon="22.964613">
        <ele>1925.4</ele>
        <time>2026-05-06T12:53:14.000Z</time>
      </trkpt>
      <trkpt lat="41.789378" lon="22.964598">
        <ele>1925.4</ele>
        <time>2026-05-06T12:53:15.000Z</time>
      </trkpt>
      <trkpt lat="41.789377" lon="22.964582">
        <ele>1925.4</ele>
        <time>2026-05-06T12:53:16.000Z</time>
      </trkpt>
      <trkpt lat="41.789377" lon="22.964564">
        <ele>1925.4</ele>
        <time>2026-05-06T12:53:17.000Z</time>
      </trkpt>
      <trkpt lat="41.789377" lon="22.964545">
        <ele>1925</ele>
        <time>2026-05-06T12:53:18.000Z</time>
      </trkpt>
      <trkpt lat="41.789377" lon="22.964527">
        <ele>1925</ele>
        <time>2026-05-06T12:53:19.000Z</time>
      </trkpt>
      <trkpt lat="41.789377" lon="22.964509">
        <ele>1925</ele>
        <time>2026-05-06T12:53:20.000Z</time>
      </trkpt>
      <trkpt lat="41.789379" lon="22.964492">
        <ele>1925</ele>
        <time>2026-05-06T12:53:21.000Z</time>
      </trkpt>
      <trkpt lat="41.789383" lon="22.964476">
        <ele>1925</ele>
        <time>2026-05-06T12:53:22.000Z</time>
      </trkpt>
      <trkpt lat="41.789388" lon="22.964461">
        <ele>1924.4</ele>
        <time>2026-05-06T12:53:23.000Z</time>
      </trkpt>
      <trkpt lat="41.789393" lon="22.964446">
        <ele>1924.4</ele>
        <time>2026-05-06T12:53:24.000Z</time>
      </trkpt>
      <trkpt lat="41.789399" lon="22.964431">
        <ele>1924.4</ele>
        <time>2026-05-06T12:53:25.000Z</time>
      </trkpt>
      <trkpt lat="41.789406" lon="22.964416">
        <ele>1924.4</ele>
        <time>2026-05-06T12:53:26.000Z</time>
      </trkpt>
      <trkpt lat="41.789412" lon="22.964402">
        <ele>1924.4</ele>
        <time>2026-05-06T12:53:27.000Z</time>
      </trkpt>
      <trkpt lat="41.789418" lon="22.964387">
        <ele>1924.5</ele>
        <time>2026-05-06T12:53:28.000Z</time>
      </trkpt>
      <trkpt lat="41.789423" lon="22.964372">
        <ele>1924.5</ele>
        <time>2026-05-06T12:53:29.000Z</time>
      </trkpt>
      <trkpt lat="41.789429" lon="22.964356">
        <ele>1924.5</ele>
        <time>2026-05-06T12:53:30.000Z</time>
      </trkpt>
      <trkpt lat="41.789434" lon="22.96434">
        <ele>1924.5</ele>
        <time>2026-05-06T12:53:31.000Z</time>
      </trkpt>
      <trkpt lat="41.78944" lon="22.964323">
        <ele>1924.5</ele>
        <time>2026-05-06T12:53:32.000Z</time>
      </trkpt>
      <trkpt lat="41.789447" lon="22.964306">
        <ele>1924.8</ele>
        <time>2026-05-06T12:53:33.000Z</time>
      </trkpt>
      <trkpt lat="41.789453" lon="22.964288">
        <ele>1924.8</ele>
        <time>2026-05-06T12:53:34.000Z</time>
      </trkpt>
      <trkpt lat="41.789459" lon="22.964271">
        <ele>1924.8</ele>
        <time>2026-05-06T12:53:35.000Z</time>
      </trkpt>
      <trkpt lat="41.789462" lon="22.964253">
        <ele>1924.8</ele>
        <time>2026-05-06T12:53:36.000Z</time>
      </trkpt>
      <trkpt lat="41.789463" lon="22.964235">
        <ele>1924.8</ele>
        <time>2026-05-06T12:53:37.000Z</time>
      </trkpt>
      <trkpt lat="41.789462" lon="22.964217">
        <ele>1924.9</ele>
        <time>2026-05-06T12:53:38.000Z</time>
      </trkpt>
      <trkpt lat="41.789461" lon="22.964199">
        <ele>1924.9</ele>
        <time>2026-05-06T12:53:39.000Z</time>
      </trkpt>
      <trkpt lat="41.789461" lon="22.964181">
        <ele>1924.9</ele>
        <time>2026-05-06T12:53:40.000Z</time>
      </trkpt>
      <trkpt lat="41.789461" lon="22.964163">
        <ele>1924.9</ele>
        <time>2026-05-06T12:53:41.000Z</time>
      </trkpt>
      <trkpt lat="41.789464" lon="22.964146">
        <ele>1924.9</ele>
        <time>2026-05-06T12:53:42.000Z</time>
      </trkpt>
      <trkpt lat="41.789469" lon="22.964128">
        <ele>1924.4</ele>
        <time>2026-05-06T12:53:43.000Z</time>
      </trkpt>
      <trkpt lat="41.789475" lon="22.964111">
        <ele>1924.4</ele>
        <time>2026-05-06T12:53:44.000Z</time>
      </trkpt>
      <trkpt lat="41.789482" lon="22.964095">
        <ele>1924.4</ele>
        <time>2026-05-06T12:53:45.000Z</time>
      </trkpt>
      <trkpt lat="41.789491" lon="22.96408">
        <ele>1924.4</ele>
        <time>2026-05-06T12:53:46.000Z</time>
      </trkpt>
      <trkpt lat="41.789498" lon="22.964065">
        <ele>1924.4</ele>
        <time>2026-05-06T12:53:47.000Z</time>
      </trkpt>
      <trkpt lat="41.789504" lon="22.964051">
        <ele>1924</ele>
        <time>2026-05-06T12:53:48.000Z</time>
      </trkpt>
      <trkpt lat="41.789509" lon="22.964037">
        <ele>1924</ele>
        <time>2026-05-06T12:53:49.000Z</time>
      </trkpt>
      <trkpt lat="41.789513" lon="22.964023">
        <ele>1924</ele>
        <time>2026-05-06T12:53:50.000Z</time>
      </trkpt>
      <trkpt lat="41.789516" lon="22.964006">
        <ele>1924</ele>
        <time>2026-05-06T12:53:51.000Z</time>
      </trkpt>
      <trkpt lat="41.789519" lon="22.96399">
        <ele>1924</ele>
        <time>2026-05-06T12:53:52.000Z</time>
      </trkpt>
      <trkpt lat="41.789522" lon="22.963973">
        <ele>1923.5</ele>
        <time>2026-05-06T12:53:53.000Z</time>
      </trkpt>
      <trkpt lat="41.789524" lon="22.963956">
        <ele>1923.5</ele>
        <time>2026-05-06T12:53:54.000Z</time>
      </trkpt>
      <trkpt lat="41.789526" lon="22.96394">
        <ele>1923.5</ele>
        <time>2026-05-06T12:53:55.000Z</time>
      </trkpt>
      <trkpt lat="41.789527" lon="22.963925">
        <ele>1923.5</ele>
        <time>2026-05-06T12:53:56.000Z</time>
      </trkpt>
      <trkpt lat="41.789529" lon="22.96391">
        <ele>1923.5</ele>
        <time>2026-05-06T12:53:57.000Z</time>
      </trkpt>
      <trkpt lat="41.789529" lon="22.963893">
        <ele>1923.8</ele>
        <time>2026-05-06T12:53:58.000Z</time>
      </trkpt>
      <trkpt lat="41.789529" lon="22.963874">
        <ele>1923.8</ele>
        <time>2026-05-06T12:53:59.000Z</time>
      </trkpt>
      <trkpt lat="41.789529" lon="22.963855">
        <ele>1923.8</ele>
        <time>2026-05-06T12:54:00.000Z</time>
      </trkpt>
      <trkpt lat="41.789529" lon="22.963837">
        <ele>1923.8</ele>
        <time>2026-05-06T12:54:01.000Z</time>
      </trkpt>
      <trkpt lat="41.789528" lon="22.96382">
        <ele>1923.8</ele>
        <time>2026-05-06T12:54:02.000Z</time>
      </trkpt>
      <trkpt lat="41.789528" lon="22.963802">
        <ele>1924.3</ele>
        <time>2026-05-06T12:54:03.000Z</time>
      </trkpt>
      <trkpt lat="41.789528" lon="22.963785">
        <ele>1924.3</ele>
        <time>2026-05-06T12:54:04.000Z</time>
      </trkpt>
      <trkpt lat="41.789528" lon="22.963768">
        <ele>1924.3</ele>
        <time>2026-05-06T12:54:05.000Z</time>
      </trkpt>
      <trkpt lat="41.789528" lon="22.96375">
        <ele>1924.3</ele>
        <time>2026-05-06T12:54:06.000Z</time>
      </trkpt>
      <trkpt lat="41.789529" lon="22.963732">
        <ele>1924.3</ele>
        <time>2026-05-06T12:54:07.000Z</time>
      </trkpt>
      <trkpt lat="41.789528" lon="22.963716">
        <ele>1925.5</ele>
        <time>2026-05-06T12:54:08.000Z</time>
      </trkpt>
      <trkpt lat="41.789527" lon="22.9637">
        <ele>1925.5</ele>
        <time>2026-05-06T12:54:09.000Z</time>
      </trkpt>
      <trkpt lat="41.789524" lon="22.963686">
        <ele>1925.5</ele>
        <time>2026-05-06T12:54:10.000Z</time>
      </trkpt>
      <trkpt lat="41.789521" lon="22.963673">
        <ele>1925.5</ele>
        <time>2026-05-06T12:54:11.000Z</time>
      </trkpt>
      <trkpt lat="41.789517" lon="22.963661">
        <ele>1925.5</ele>
        <time>2026-05-06T12:54:12.000Z</time>
      </trkpt>
      <trkpt lat="41.789511" lon="22.963647">
        <ele>1926.8</ele>
        <time>2026-05-06T12:54:13.000Z</time>
      </trkpt>
      <trkpt lat="41.789504" lon="22.963634">
        <ele>1926.8</ele>
        <time>2026-05-06T12:54:14.000Z</time>
      </trkpt>
      <trkpt lat="41.789497" lon="22.963623">
        <ele>1926.8</ele>
        <time>2026-05-06T12:54:15.000Z</time>
      </trkpt>
      <trkpt lat="41.789488" lon="22.963611">
        <ele>1926.8</ele>
        <time>2026-05-06T12:54:16.000Z</time>
      </trkpt>
      <trkpt lat="41.78948" lon="22.963599">
        <ele>1926.8</ele>
        <time>2026-05-06T12:54:17.000Z</time>
      </trkpt>
      <trkpt lat="41.789473" lon="22.963587">
        <ele>1927.5</ele>
        <time>2026-05-06T12:54:18.000Z</time>
      </trkpt>
      <trkpt lat="41.789467" lon="22.963577">
        <ele>1927.5</ele>
        <time>2026-05-06T12:54:19.000Z</time>
      </trkpt>
      <trkpt lat="41.789461" lon="22.963567">
        <ele>1927.5</ele>
        <time>2026-05-06T12:54:20.000Z</time>
      </trkpt>
      <trkpt lat="41.789455" lon="22.963556">
        <ele>1927.5</ele>
        <time>2026-05-06T12:54:21.000Z</time>
      </trkpt>
      <trkpt lat="41.789449" lon="22.963547">
        <ele>1927.5</ele>
        <time>2026-05-06T12:54:22.000Z</time>
      </trkpt>
      <trkpt lat="41.789443" lon="22.96354">
        <ele>1928.8</ele>
        <time>2026-05-06T12:54:23.000Z</time>
      </trkpt>
      <trkpt lat="41.789438" lon="22.963532">
        <ele>1928.8</ele>
        <time>2026-05-06T12:54:24.000Z</time>
      </trkpt>
      <trkpt lat="41.789432" lon="22.963526">
        <ele>1928.8</ele>
        <time>2026-05-06T12:54:25.000Z</time>
      </trkpt>
      <trkpt lat="41.789426" lon="22.963521">
        <ele>1928.8</ele>
        <time>2026-05-06T12:54:26.000Z</time>
      </trkpt>
      <trkpt lat="41.789421" lon="22.963515">
        <ele>1928.8</ele>
        <time>2026-05-06T12:54:27.000Z</time>
      </trkpt>
      <trkpt lat="41.789416" lon="22.963508">
        <ele>1930.2</ele>
        <time>2026-05-06T12:54:28.000Z</time>
      </trkpt>
      <trkpt lat="41.789412" lon="22.963501">
        <ele>1930.2</ele>
        <time>2026-05-06T12:54:29.000Z</time>
      </trkpt>
      <trkpt lat="41.789409" lon="22.963492">
        <ele>1930.2</ele>
        <time>2026-05-06T12:54:30.000Z</time>
      </trkpt>
      <trkpt lat="41.789407" lon="22.963482">
        <ele>1930.2</ele>
        <time>2026-05-06T12:54:31.000Z</time>
      </trkpt>
      <trkpt lat="41.789406" lon="22.963474">
        <ele>1930.2</ele>
        <time>2026-05-06T12:54:32.000Z</time>
      </trkpt>
      <trkpt lat="41.789406" lon="22.963465">
        <ele>1930.9</ele>
        <time>2026-05-06T12:54:33.000Z</time>
      </trkpt>
      <trkpt lat="41.789406" lon="22.963457">
        <ele>1930.9</ele>
        <time>2026-05-06T12:54:34.000Z</time>
      </trkpt>
      <trkpt lat="41.789406" lon="22.96345">
        <ele>1930.9</ele>
        <time>2026-05-06T12:54:35.000Z</time>
      </trkpt>
      <trkpt lat="41.789405" lon="22.963443">
        <ele>1930.9</ele>
        <time>2026-05-06T12:54:36.000Z</time>
      </trkpt>
      <trkpt lat="41.789404" lon="22.963436">
        <ele>1930.9</ele>
        <time>2026-05-06T12:54:37.000Z</time>
      </trkpt>
      <trkpt lat="41.789402" lon="22.96343">
        <ele>1932.2</ele>
        <time>2026-05-06T12:54:38.000Z</time>
      </trkpt>
      <trkpt lat="41.7894" lon="22.963424">
        <ele>1932.2</ele>
        <time>2026-05-06T12:54:39.000Z</time>
      </trkpt>
      <trkpt lat="41.789397" lon="22.963417">
        <ele>1932.2</ele>
        <time>2026-05-06T12:54:40.000Z</time>
      </trkpt>
      <trkpt lat="41.789396" lon="22.96341">
        <ele>1932.2</ele>
        <time>2026-05-06T12:54:41.000Z</time>
      </trkpt>
      <trkpt lat="41.789396" lon="22.963404">
        <ele>1932.2</ele>
        <time>2026-05-06T12:54:42.000Z</time>
      </trkpt>
      <trkpt lat="41.789396" lon="22.963399">
        <ele>1933.4</ele>
        <time>2026-05-06T12:54:43.000Z</time>
      </trkpt>
      <trkpt lat="41.789395" lon="22.963395">
        <ele>1933.4</ele>
        <time>2026-05-06T12:54:44.000Z</time>
      </trkpt>
      <trkpt lat="41.789395" lon="22.963394">
        <ele>1933.4</ele>
        <time>2026-05-06T12:54:45.000Z</time>
      </trkpt>
      <trkpt lat="41.789394" lon="22.963393">
        <ele>1933.4</ele>
        <time>2026-05-06T12:54:46.000Z</time>
      </trkpt>
      <trkpt lat="41.789392" lon="22.963393">
        <ele>1933.4</ele>
        <time>2026-05-06T12:54:47.000Z</time>
      </trkpt>
      <trkpt lat="41.78939" lon="22.963394">
        <ele>1933.9</ele>
        <time>2026-05-06T12:54:48.000Z</time>
      </trkpt>
      <trkpt lat="41.789388" lon="22.963394">
        <ele>1933.9</ele>
        <time>2026-05-06T12:54:49.000Z</time>
      </trkpt>
      <trkpt lat="41.789386" lon="22.963394">
        <ele>1933.9</ele>
        <time>2026-05-06T12:54:50.000Z</time>
      </trkpt>
      <trkpt lat="41.789385" lon="22.963395">
        <ele>1933.9</ele>
        <time>2026-05-06T12:54:51.000Z</time>
      </trkpt>
      <trkpt lat="41.789384" lon="22.963395">
        <ele>1933.9</ele>
        <time>2026-05-06T12:54:52.000Z</time>
      </trkpt>
      <trkpt lat="41.789384" lon="22.963396">
        <ele>1934.8</ele>
        <time>2026-05-06T12:54:53.000Z</time>
      </trkpt>
      <trkpt lat="41.789384" lon="22.963397">
        <ele>1934.8</ele>
        <time>2026-05-06T12:54:54.000Z</time>
      </trkpt>
      <trkpt lat="41.789384" lon="22.963397">
        <ele>1934.8</ele>
        <time>2026-05-06T12:54:55.000Z</time>
      </trkpt>
      <trkpt lat="41.789384" lon="22.963397">
        <ele>1934.8</ele>
        <time>2026-05-06T12:54:56.000Z</time>
      </trkpt>
      <trkpt lat="41.789383" lon="22.963397">
        <ele>1934.8</ele>
        <time>2026-05-06T12:54:57.000Z</time>
      </trkpt>
      <trkpt lat="41.789382" lon="22.963396">
        <ele>1935.5</ele>
        <time>2026-05-06T12:54:58.000Z</time>
      </trkpt>
      <trkpt lat="41.789382" lon="22.963394">
        <ele>1935.5</ele>
        <time>2026-05-06T12:54:59.000Z</time>
      </trkpt>
      <trkpt lat="41.789382" lon="22.963392">
        <ele>1935.5</ele>
        <time>2026-05-06T12:55:00.000Z</time>
      </trkpt>
      <trkpt lat="41.789382" lon="22.963391">
        <ele>1935.5</ele>
        <time>2026-05-06T12:55:01.000Z</time>
      </trkpt>
      <trkpt lat="41.789383" lon="22.96339">
        <ele>1935.5</ele>
        <time>2026-05-06T12:55:02.000Z</time>
      </trkpt>
      <trkpt lat="41.789385" lon="22.963393">
        <ele>1935.8</ele>
        <time>2026-05-06T12:55:03.000Z</time>
      </trkpt>
      <trkpt lat="41.789388" lon="22.963396">
        <ele>1935.8</ele>
        <time>2026-05-06T12:55:04.000Z</time>
      </trkpt>
      <trkpt lat="41.78939" lon="22.9634">
        <ele>1935.8</ele>
        <time>2026-05-06T12:55:05.000Z</time>
      </trkpt>
      <trkpt lat="41.789392" lon="22.963403">
        <ele>1935.8</ele>
        <time>2026-05-06T12:55:06.000Z</time>
      </trkpt>
      <trkpt lat="41.789393" lon="22.963405">
        <ele>1935.8</ele>
        <time>2026-05-06T12:55:07.000Z</time>
      </trkpt>
      <trkpt lat="41.789394" lon="22.963405">
        <ele>1936.2</ele>
        <time>2026-05-06T12:55:08.000Z</time>
      </trkpt>
      <trkpt lat="41.789394" lon="22.963405">
        <ele>1936.2</ele>
        <time>2026-05-06T12:55:09.000Z</time>
      </trkpt>
      <trkpt lat="41.789393" lon="22.963405">
        <ele>1936.2</ele>
        <time>2026-05-06T12:55:10.000Z</time>
      </trkpt>
      <trkpt lat="41.789392" lon="22.963405">
        <ele>1936.2</ele>
        <time>2026-05-06T12:55:11.000Z</time>
      </trkpt>
      <trkpt lat="41.789392" lon="22.963405">
        <ele>1936.2</ele>
        <time>2026-05-06T12:55:12.000Z</time>
      </trkpt>
      <trkpt lat="41.789392" lon="22.963404">
        <ele>1936.2</ele>
        <time>2026-05-06T12:55:13.000Z</time>
      </trkpt>
      <trkpt lat="41.789392" lon="22.963404">
        <ele>1936.2</ele>
        <time>2026-05-06T12:55:14.000Z</time>
      </trkpt>
      <trkpt lat="41.789392" lon="22.963404">
        <ele>1936.2</ele>
        <time>2026-05-06T12:55:15.000Z</time>
      </trkpt>
      <trkpt lat="41.789393" lon="22.963405">
        <ele>1936.2</ele>
        <time>2026-05-06T12:55:16.000Z</time>
      </trkpt>
      <trkpt lat="41.789395" lon="22.963406">
        <ele>1936.2</ele>
        <time>2026-05-06T12:55:17.000Z</time>
      </trkpt>
      <trkpt lat="41.789396" lon="22.963408">
        <ele>1936.1</ele>
        <time>2026-05-06T12:55:18.000Z</time>
      </trkpt>
      <trkpt lat="41.789397" lon="22.963409">
        <ele>1936.1</ele>
        <time>2026-05-06T12:55:19.000Z</time>
      </trkpt>
      <trkpt lat="41.789399" lon="22.96341">
        <ele>1936.1</ele>
        <time>2026-05-06T12:55:20.000Z</time>
      </trkpt>
      <trkpt lat="41.789401" lon="22.963409">
        <ele>1936.1</ele>
        <time>2026-05-06T12:55:21.000Z</time>
      </trkpt>
      <trkpt lat="41.789402" lon="22.963407">
        <ele>1936.1</ele>
        <time>2026-05-06T12:55:22.000Z</time>
      </trkpt>
      <trkpt lat="41.789403" lon="22.963405">
        <ele>1935.7</ele>
        <time>2026-05-06T12:55:23.000Z</time>
      </trkpt>
      <trkpt lat="41.789404" lon="22.963403">
        <ele>1935.7</ele>
        <time>2026-05-06T12:55:24.000Z</time>
      </trkpt>
      <trkpt lat="41.789405" lon="22.963402">
        <ele>1935.7</ele>
        <time>2026-05-06T12:55:25.000Z</time>
      </trkpt>
      <trkpt lat="41.789405" lon="22.963403">
        <ele>1935.7</ele>
        <time>2026-05-06T12:55:26.000Z</time>
      </trkpt>
      <trkpt lat="41.789404" lon="22.963403">
        <ele>1935.7</ele>
        <time>2026-05-06T12:55:27.000Z</time>
      </trkpt>
      <trkpt lat="41.789404" lon="22.963403">
        <ele>1935.6</ele>
        <time>2026-05-06T12:55:28.000Z</time>
      </trkpt>
      <trkpt lat="41.789403" lon="22.963406">
        <ele>1935.6</ele>
        <time>2026-05-06T12:55:29.000Z</time>
      </trkpt>
      <trkpt lat="41.789401" lon="22.963409">
        <ele>1935.6</ele>
        <time>2026-05-06T12:55:30.000Z</time>
      </trkpt>
      <trkpt lat="41.789398" lon="22.963413">
        <ele>1935.6</ele>
        <time>2026-05-06T12:55:31.000Z</time>
      </trkpt>
      <trkpt lat="41.789394" lon="22.963416">
        <ele>1935.6</ele>
        <time>2026-05-06T12:55:32.000Z</time>
      </trkpt>
      <trkpt lat="41.78939" lon="22.963416">
        <ele>1935.5</ele>
        <time>2026-05-06T12:55:33.000Z</time>
      </trkpt>
      <trkpt lat="41.789386" lon="22.963413">
        <ele>1935.5</ele>
        <time>2026-05-06T12:55:34.000Z</time>
      </trkpt>
      <trkpt lat="41.789383" lon="22.963407">
        <ele>1935.5</ele>
        <time>2026-05-06T12:55:35.000Z</time>
      </trkpt>
      <trkpt lat="41.789382" lon="22.9634">
        <ele>1935.5</ele>
        <time>2026-05-06T12:55:36.000Z</time>
      </trkpt>
      <trkpt lat="41.789381" lon="22.963394">
        <ele>1935.5</ele>
        <time>2026-05-06T12:55:37.000Z</time>
      </trkpt>
      <trkpt lat="41.789381" lon="22.963389">
        <ele>1935.4</ele>
        <time>2026-05-06T12:55:38.000Z</time>
      </trkpt>
      <trkpt lat="41.789382" lon="22.963387">
        <ele>1935.4</ele>
        <time>2026-05-06T12:55:39.000Z</time>
      </trkpt>
      <trkpt lat="41.789382" lon="22.963388">
        <ele>1935.4</ele>
        <time>2026-05-06T12:55:40.000Z</time>
      </trkpt>
      <trkpt lat="41.789383" lon="22.963389">
        <ele>1935.4</ele>
        <time>2026-05-06T12:55:41.000Z</time>
      </trkpt>
      <trkpt lat="41.789384" lon="22.963391">
        <ele>1935.4</ele>
        <time>2026-05-06T12:55:42.000Z</time>
      </trkpt>
      <trkpt lat="41.789385" lon="22.963392">
        <ele>1935.2</ele>
        <time>2026-05-06T12:55:43.000Z</time>
      </trkpt>
      <trkpt lat="41.789386" lon="22.963394">
        <ele>1935.2</ele>
        <time>2026-05-06T12:55:44.000Z</time>
      </trkpt>
      <trkpt lat="41.789388" lon="22.963395">
        <ele>1935.2</ele>
        <time>2026-05-06T12:55:45.000Z</time>
      </trkpt>
      <trkpt lat="41.78939" lon="22.9634">
        <ele>1935.2</ele>
        <time>2026-05-06T12:55:46.000Z</time>
      </trkpt>
      <trkpt lat="41.789392" lon="22.963408">
        <ele>1935.2</ele>
        <time>2026-05-06T12:55:47.000Z</time>
      </trkpt>
      <trkpt lat="41.789393" lon="22.963418">
        <ele>1935.3</ele>
        <time>2026-05-06T12:55:48.000Z</time>
      </trkpt>
      <trkpt lat="41.789393" lon="22.96343">
        <ele>1935.3</ele>
        <time>2026-05-06T12:55:49.000Z</time>
      </trkpt>
      <trkpt lat="41.789392" lon="22.963443">
        <ele>1935.3</ele>
        <time>2026-05-06T12:55:50.000Z</time>
      </trkpt>
      <trkpt lat="41.789392" lon="22.963457">
        <ele>1935.3</ele>
        <time>2026-05-06T12:55:51.000Z</time>
      </trkpt>
      <trkpt lat="41.789391" lon="22.963471">
        <ele>1935.3</ele>
        <time>2026-05-06T12:55:52.000Z</time>
      </trkpt>
      <trkpt lat="41.789391" lon="22.963486">
        <ele>1935.2</ele>
        <time>2026-05-06T12:55:53.000Z</time>
      </trkpt>
      <trkpt lat="41.789392" lon="22.9635">
        <ele>1935.2</ele>
        <time>2026-05-06T12:55:54.000Z</time>
      </trkpt>
      <trkpt lat="41.789394" lon="22.963512">
        <ele>1935.2</ele>
        <time>2026-05-06T12:55:55.000Z</time>
      </trkpt>
      <trkpt lat="41.789398" lon="22.963523">
        <ele>1935.2</ele>
        <time>2026-05-06T12:55:56.000Z</time>
      </trkpt>
      <trkpt lat="41.789403" lon="22.96353">
        <ele>1935.2</ele>
        <time>2026-05-06T12:55:57.000Z</time>
      </trkpt>
      <trkpt lat="41.78941" lon="22.963535">
        <ele>1935.1</ele>
        <time>2026-05-06T12:55:58.000Z</time>
      </trkpt>
      <trkpt lat="41.789417" lon="22.963538">
        <ele>1935.1</ele>
        <time>2026-05-06T12:55:59.000Z</time>
      </trkpt>
      <trkpt lat="41.789422" lon="22.96354">
        <ele>1935.1</ele>
        <time>2026-05-06T12:56:00.000Z</time>
      </trkpt>
      <trkpt lat="41.789425" lon="22.963541">
        <ele>1935.1</ele>
        <time>2026-05-06T12:56:01.000Z</time>
      </trkpt>
      <trkpt lat="41.789425" lon="22.963542">
        <ele>1935.1</ele>
        <time>2026-05-06T12:56:02.000Z</time>
      </trkpt>
      <trkpt lat="41.789423" lon="22.963541">
        <ele>1934.7</ele>
        <time>2026-05-06T12:56:03.000Z</time>
      </trkpt>
      <trkpt lat="41.789418" lon="22.963537">
        <ele>1934.7</ele>
        <time>2026-05-06T12:56:04.000Z</time>
      </trkpt>
      <trkpt lat="41.789412" lon="22.963532">
        <ele>1934.7</ele>
        <time>2026-05-06T12:56:05.000Z</time>
      </trkpt>
      <trkpt lat="41.789406" lon="22.963523">
        <ele>1934.7</ele>
        <time>2026-05-06T12:56:06.000Z</time>
      </trkpt>
      <trkpt lat="41.789402" lon="22.963511">
        <ele>1934.7</ele>
        <time>2026-05-06T12:56:07.000Z</time>
      </trkpt>
      <trkpt lat="41.789398" lon="22.963498">
        <ele>1933.9</ele>
        <time>2026-05-06T12:56:08.000Z</time>
      </trkpt>
      <trkpt lat="41.789395" lon="22.963484">
        <ele>1933.9</ele>
        <time>2026-05-06T12:56:09.000Z</time>
      </trkpt>
      <trkpt lat="41.789393" lon="22.963469">
        <ele>1933.9</ele>
        <time>2026-05-06T12:56:10.000Z</time>
      </trkpt>
      <trkpt lat="41.789392" lon="22.963456">
        <ele>1933.9</ele>
        <time>2026-05-06T12:56:11.000Z</time>
      </trkpt>
      <trkpt lat="41.78939" lon="22.963446">
        <ele>1933.9</ele>
        <time>2026-05-06T12:56:12.000Z</time>
      </trkpt>
      <trkpt lat="41.789389" lon="22.963437">
        <ele>1933.3</ele>
        <time>2026-05-06T12:56:13.000Z</time>
      </trkpt>
      <trkpt lat="41.789387" lon="22.963429">
        <ele>1933.3</ele>
        <time>2026-05-06T12:56:14.000Z</time>
      </trkpt>
      <trkpt lat="41.789386" lon="22.963422">
        <ele>1933.3</ele>
        <time>2026-05-06T12:56:15.000Z</time>
      </trkpt>
      <trkpt lat="41.789385" lon="22.963415">
        <ele>1933.3</ele>
        <time>2026-05-06T12:56:16.000Z</time>
      </trkpt>
      <trkpt lat="41.789385" lon="22.963408">
        <ele>1933.3</ele>
        <time>2026-05-06T12:56:17.000Z</time>
      </trkpt>
      <trkpt lat="41.789386" lon="22.963401">
        <ele>1933.4</ele>
        <time>2026-05-06T12:56:18.000Z</time>
      </trkpt>
      <trkpt lat="41.78939" lon="22.963396">
        <ele>1933.4</ele>
        <time>2026-05-06T12:56:19.000Z</time>
      </trkpt>
      <trkpt lat="41.789395" lon="22.963392">
        <ele>1933.4</ele>
        <time>2026-05-06T12:56:20.000Z</time>
      </trkpt>
      <trkpt lat="41.789402" lon="22.963389">
        <ele>1933.4</ele>
        <time>2026-05-06T12:56:21.000Z</time>
      </trkpt>
      <trkpt lat="41.78941" lon="22.96339">
        <ele>1933.4</ele>
        <time>2026-05-06T12:56:22.000Z</time>
      </trkpt>
      <trkpt lat="41.789415" lon="22.963394">
        <ele>1934.1</ele>
        <time>2026-05-06T12:56:23.000Z</time>
      </trkpt>
      <trkpt lat="41.789419" lon="22.963397">
        <ele>1934.1</ele>
        <time>2026-05-06T12:56:24.000Z</time>
      </trkpt>
      <trkpt lat="41.789421" lon="22.963399">
        <ele>1934.1</ele>
        <time>2026-05-06T12:56:25.000Z</time>
      </trkpt>
      <trkpt lat="41.789421" lon="22.963401">
        <ele>1934.1</ele>
        <time>2026-05-06T12:56:26.000Z</time>
      </trkpt>
      <trkpt lat="41.78942" lon="22.963401">
        <ele>1934.1</ele>
        <time>2026-05-06T12:56:27.000Z</time>
      </trkpt>
      <trkpt lat="41.789421" lon="22.963399">
        <ele>1934.9</ele>
        <time>2026-05-06T12:56:28.000Z</time>
      </trkpt>
      <trkpt lat="41.78942" lon="22.963398">
        <ele>1934.9</ele>
        <time>2026-05-06T12:56:29.000Z</time>
      </trkpt>
      <trkpt lat="41.78942" lon="22.963397">
        <ele>1934.9</ele>
        <time>2026-05-06T12:56:30.000Z</time>
      </trkpt>
      <trkpt lat="41.789419" lon="22.963397">
        <ele>1934.9</ele>
        <time>2026-05-06T12:56:31.000Z</time>
      </trkpt>
      <trkpt lat="41.789419" lon="22.963396">
        <ele>1934.9</ele>
        <time>2026-05-06T12:56:32.000Z</time>
      </trkpt>
      <trkpt lat="41.789418" lon="22.963396">
        <ele>1935</ele>
        <time>2026-05-06T12:56:33.000Z</time>
      </trkpt>
      <trkpt lat="41.789418" lon="22.963396">
        <ele>1935</ele>
        <time>2026-05-06T12:56:34.000Z</time>
      </trkpt>
      <trkpt lat="41.789418" lon="22.963397">
        <ele>1935</ele>
        <time>2026-05-06T12:56:35.000Z</time>
      </trkpt>
      <trkpt lat="41.789418" lon="22.963397">
        <ele>1935</ele>
        <time>2026-05-06T12:56:36.000Z</time>
      </trkpt>
      <trkpt lat="41.789418" lon="22.963398">
        <ele>1935</ele>
        <time>2026-05-06T12:56:37.000Z</time>
      </trkpt>
      <trkpt lat="41.789418" lon="22.963399">
        <ele>1935.1</ele>
        <time>2026-05-06T12:56:38.000Z</time>
      </trkpt>
      <trkpt lat="41.789417" lon="22.963399">
        <ele>1935.1</ele>
        <time>2026-05-06T12:56:39.000Z</time>
      </trkpt>
      <trkpt lat="41.789417" lon="22.9634">
        <ele>1935.1</ele>
        <time>2026-05-06T12:56:40.000Z</time>
      </trkpt>
      <trkpt lat="41.789417" lon="22.9634">
        <ele>1935.1</ele>
        <time>2026-05-06T12:56:41.000Z</time>
      </trkpt>
      <trkpt lat="41.789417" lon="22.963401">
        <ele>1935.1</ele>
        <time>2026-05-06T12:56:42.000Z</time>
      </trkpt>
      <trkpt lat="41.789416" lon="22.963401">
        <ele>1935.4</ele>
        <time>2026-05-06T12:56:43.000Z</time>
      </trkpt>
      <trkpt lat="41.789416" lon="22.963401">
        <ele>1935.4</ele>
        <time>2026-05-06T12:56:44.000Z</time>
      </trkpt>
      <trkpt lat="41.789415" lon="22.963401">
        <ele>1935.4</ele>
        <time>2026-05-06T12:56:45.000Z</time>
      </trkpt>
      <trkpt lat="41.789415" lon="22.963401">
        <ele>1935.4</ele>
        <time>2026-05-06T12:56:46.000Z</time>
      </trkpt>
      <trkpt lat="41.789416" lon="22.963399">
        <ele>1935.4</ele>
        <time>2026-05-06T12:56:47.000Z</time>
      </trkpt>
      <trkpt lat="41.789417" lon="22.963398">
        <ele>1935.6</ele>
        <time>2026-05-06T12:56:48.000Z</time>
      </trkpt>
      <trkpt lat="41.789418" lon="22.963397">
        <ele>1935.6</ele>
        <time>2026-05-06T12:56:49.000Z</time>
      </trkpt>
      <trkpt lat="41.789418" lon="22.963398">
        <ele>1935.6</ele>
        <time>2026-05-06T12:56:50.000Z</time>
      </trkpt>
      <trkpt lat="41.789417" lon="22.9634">
        <ele>1935.6</ele>
        <time>2026-05-06T12:56:51.000Z</time>
      </trkpt>
      <trkpt lat="41.789415" lon="22.963403">
        <ele>1935.6</ele>
        <time>2026-05-06T12:56:52.000Z</time>
      </trkpt>
      <trkpt lat="41.789413" lon="22.963407">
        <ele>1935.6</ele>
        <time>2026-05-06T12:56:53.000Z</time>
      </trkpt>
      <trkpt lat="41.789411" lon="22.96341">
        <ele>1935.6</ele>
        <time>2026-05-06T12:56:54.000Z</time>
      </trkpt>
      <trkpt lat="41.789409" lon="22.963412">
        <ele>1935.6</ele>
        <time>2026-05-06T12:56:55.000Z</time>
      </trkpt>
      <trkpt lat="41.789408" lon="22.963413">
        <ele>1935.6</ele>
        <time>2026-05-06T12:56:56.000Z</time>
      </trkpt>
      <trkpt lat="41.789408" lon="22.963414">
        <ele>1935.6</ele>
        <time>2026-05-06T12:56:57.000Z</time>
      </trkpt>
      <trkpt lat="41.789408" lon="22.963414">
        <ele>1935.6</ele>
        <time>2026-05-06T12:56:58.000Z</time>
      </trkpt>
      <trkpt lat="41.789408" lon="22.963414">
        <ele>1935.6</ele>
        <time>2026-05-06T12:56:59.000Z</time>
      </trkpt>
      <trkpt lat="41.789408" lon="22.963414">
        <ele>1935.6</ele>
        <time>2026-05-06T12:57:00.000Z</time>
      </trkpt>
      <trkpt lat="41.789409" lon="22.963414">
        <ele>1935.6</ele>
        <time>2026-05-06T12:57:01.000Z</time>
      </trkpt>
      <trkpt lat="41.789409" lon="22.963414">
        <ele>1935.6</ele>
        <time>2026-05-06T12:57:02.000Z</time>
      </trkpt>
      <trkpt lat="41.789409" lon="22.963414">
        <ele>1935.5</ele>
        <time>2026-05-06T12:57:03.000Z</time>
      </trkpt>
      <trkpt lat="41.789409" lon="22.963414">
        <ele>1935.5</ele>
        <time>2026-05-06T12:57:04.000Z</time>
      </trkpt>
      <trkpt lat="41.789409" lon="22.963414">
        <ele>1935.5</ele>
        <time>2026-05-06T12:57:05.000Z</time>
      </trkpt>
      <trkpt lat="41.789409" lon="22.963414">
        <ele>1935.5</ele>
        <time>2026-05-06T12:57:06.000Z</time>
      </trkpt>
      <trkpt lat="41.789409" lon="22.963414">
        <ele>1935.5</ele>
        <time>2026-05-06T12:57:07.000Z</time>
      </trkpt>
      <trkpt lat="41.789409" lon="22.963414">
        <ele>1935.3</ele>
        <time>2026-05-06T12:57:08.000Z</time>
      </trkpt>
      <trkpt lat="41.789409" lon="22.963414">
        <ele>1935.3</ele>
        <time>2026-05-06T12:57:09.000Z</time>
      </trkpt>
      <trkpt lat="41.789409" lon="22.963414">
        <ele>1935.3</ele>
        <time>2026-05-06T12:57:10.000Z</time>
      </trkpt>
      <trkpt lat="41.78941" lon="22.963414">
        <ele>1935.3</ele>
        <time>2026-05-06T12:57:11.000Z</time>
      </trkpt>
      <trkpt lat="41.78941" lon="22.963414">
        <ele>1935.3</ele>
        <time>2026-05-06T12:57:12.000Z</time>
      </trkpt>
      <trkpt lat="41.78941" lon="22.963414">
        <ele>1935.1</ele>
        <time>2026-05-06T12:57:13.000Z</time>
      </trkpt>
      <trkpt lat="41.78941" lon="22.963414">
        <ele>1935.1</ele>
        <time>2026-05-06T12:57:14.000Z</time>
      </trkpt>
      <trkpt lat="41.78941" lon="22.963414">
        <ele>1935.1</ele>
        <time>2026-05-06T12:57:15.000Z</time>
      </trkpt>
      <trkpt lat="41.78941" lon="22.963415">
        <ele>1935.1</ele>
        <time>2026-05-06T12:57:16.000Z</time>
      </trkpt>
      <trkpt lat="41.78941" lon="22.963415">
        <ele>1935.1</ele>
        <time>2026-05-06T12:57:17.000Z</time>
      </trkpt>
      <trkpt lat="41.78941" lon="22.963415">
        <ele>1935</ele>
        <time>2026-05-06T12:57:18.000Z</time>
      </trkpt>
      <trkpt lat="41.789409" lon="22.963415">
        <ele>1935</ele>
        <time>2026-05-06T12:57:19.000Z</time>
      </trkpt>
      <trkpt lat="41.789409" lon="22.963415">
        <ele>1935</ele>
        <time>2026-05-06T12:57:20.000Z</time>
      </trkpt>
      <trkpt lat="41.789409" lon="22.963415">
        <ele>1935</ele>
        <time>2026-05-06T12:57:21.000Z</time>
      </trkpt>
      <trkpt lat="41.789409" lon="22.963415">
        <ele>1935</ele>
        <time>2026-05-06T12:57:22.000Z</time>
      </trkpt>
      <trkpt lat="41.789409" lon="22.963415">
        <ele>1935.1</ele>
        <time>2026-05-06T12:57:23.000Z</time>
      </trkpt>
      <trkpt lat="41.789409" lon="22.963415">
        <ele>1935.1</ele>
        <time>2026-05-06T12:57:24.000Z</time>
      </trkpt>
      <trkpt lat="41.789409" lon="22.963415">
        <ele>1935.1</ele>
        <time>2026-05-06T12:57:25.000Z</time>
      </trkpt>
      <trkpt lat="41.789409" lon="22.963415">
        <ele>1935.1</ele>
        <time>2026-05-06T12:57:26.000Z</time>
      </trkpt>
      <trkpt lat="41.789409" lon="22.963415">
        <ele>1935.1</ele>
        <time>2026-05-06T12:57:27.000Z</time>
      </trkpt>
      <trkpt lat="41.789409" lon="22.963415">
        <ele>1935.3</ele>
        <time>2026-05-06T12:57:28.000Z</time>
      </trkpt>
      <trkpt lat="41.789409" lon="22.963415">
        <ele>1935.3</ele>
        <time>2026-05-06T12:57:29.000Z</time>
      </trkpt>
      <trkpt lat="41.789409" lon="22.963415">
        <ele>1935.3</ele>
        <time>2026-05-06T12:57:30.000Z</time>
      </trkpt>
      <trkpt lat="41.789409" lon="22.963415">
        <ele>1935.3</ele>
        <time>2026-05-06T12:57:31.000Z</time>
      </trkpt>
      <trkpt lat="41.789409" lon="22.963415">
        <ele>1935.3</ele>
        <time>2026-05-06T12:57:32.000Z</time>
      </trkpt>
      <trkpt lat="41.789409" lon="22.963415">
        <ele>1935.3</ele>
        <time>2026-05-06T12:57:33.000Z</time>
      </trkpt>
      <trkpt lat="41.789409" lon="22.963415">
        <ele>1935.3</ele>
        <time>2026-05-06T12:57:34.000Z</time>
      </trkpt>
      <trkpt lat="41.789408" lon="22.963415">
        <ele>1935.3</ele>
        <time>2026-05-06T12:57:35.000Z</time>
      </trkpt>
      <trkpt lat="41.789408" lon="22.963415">
        <ele>1935.3</ele>
        <time>2026-05-06T12:57:36.000Z</time>
      </trkpt>
      <trkpt lat="41.789408" lon="22.963415">
        <ele>1935.3</ele>
        <time>2026-05-06T12:57:37.000Z</time>
      </trkpt>
      <trkpt lat="41.789407" lon="22.963415">
        <ele>1935.5</ele>
        <time>2026-05-06T12:57:38.000Z</time>
      </trkpt>
      <trkpt lat="41.789407" lon="22.963415">
        <ele>1935.5</ele>
        <time>2026-05-06T12:57:39.000Z</time>
      </trkpt>
      <trkpt lat="41.789407" lon="22.963416">
        <ele>1935.5</ele>
        <time>2026-05-06T12:57:40.000Z</time>
      </trkpt>
      <trkpt lat="41.789408" lon="22.963416">
        <ele>1935.5</ele>
        <time>2026-05-06T12:57:41.000Z</time>
      </trkpt>
      <trkpt lat="41.789408" lon="22.963416">
        <ele>1935.5</ele>
        <time>2026-05-06T12:57:42.000Z</time>
      </trkpt>
      <trkpt lat="41.789408" lon="22.963415">
        <ele>1935.5</ele>
        <time>2026-05-06T12:57:43.000Z</time>
      </trkpt>
      <trkpt lat="41.789408" lon="22.963415">
        <ele>1935.5</ele>
        <time>2026-05-06T12:57:44.000Z</time>
      </trkpt>
      <trkpt lat="41.789408" lon="22.963414">
        <ele>1935.5</ele>
        <time>2026-05-06T12:57:45.000Z</time>
      </trkpt>
      <trkpt lat="41.789409" lon="22.963413">
        <ele>1935.5</ele>
        <time>2026-05-06T12:57:46.000Z</time>
      </trkpt>
      <trkpt lat="41.789409" lon="22.963413">
        <ele>1935.5</ele>
        <time>2026-05-06T12:57:47.000Z</time>
      </trkpt>
      <trkpt lat="41.789409" lon="22.963413">
        <ele>1935.5</ele>
        <time>2026-05-06T12:57:48.000Z</time>
      </trkpt>
      <trkpt lat="41.789409" lon="22.963413">
        <ele>1935.5</ele>
        <time>2026-05-06T12:57:49.000Z</time>
      </trkpt>
      <trkpt lat="41.789409" lon="22.963414">
        <ele>1935.5</ele>
        <time>2026-05-06T12:57:50.000Z</time>
      </trkpt>
      <trkpt lat="41.789409" lon="22.963414">
        <ele>1935.5</ele>
        <time>2026-05-06T12:57:51.000Z</time>
      </trkpt>
      <trkpt lat="41.789408" lon="22.963414">
        <ele>1935.5</ele>
        <time>2026-05-06T12:57:52.000Z</time>
      </trkpt>
      <trkpt lat="41.789408" lon="22.963414">
        <ele>1935.4</ele>
        <time>2026-05-06T12:57:53.000Z</time>
      </trkpt>
      <trkpt lat="41.789408" lon="22.963414">
        <ele>1935.4</ele>
        <time>2026-05-06T12:57:54.000Z</time>
      </trkpt>
      <trkpt lat="41.789408" lon="22.963414">
        <ele>1935.4</ele>
        <time>2026-05-06T12:57:55.000Z</time>
      </trkpt>
      <trkpt lat="41.789408" lon="22.963414">
        <ele>1935.4</ele>
        <time>2026-05-06T12:57:56.000Z</time>
      </trkpt>
      <trkpt lat="41.789408" lon="22.963414">
        <ele>1935.4</ele>
        <time>2026-05-06T12:57:57.000Z</time>
      </trkpt>
      <trkpt lat="41.789408" lon="22.963413">
        <ele>1935.6</ele>
        <time>2026-05-06T12:57:58.000Z</time>
      </trkpt>
      <trkpt lat="41.789409" lon="22.963412">
        <ele>1935.6</ele>
        <time>2026-05-06T12:57:59.000Z</time>
      </trkpt>
      <trkpt lat="41.789409" lon="22.963411">
        <ele>1935.6</ele>
        <time>2026-05-06T12:58:00.000Z</time>
      </trkpt>
      <trkpt lat="41.789408" lon="22.96341">
        <ele>1935.6</ele>
        <time>2026-05-06T12:58:01.000Z</time>
      </trkpt>
      <trkpt lat="41.789408" lon="22.963409">
        <ele>1935.6</ele>
        <time>2026-05-06T12:58:02.000Z</time>
      </trkpt>
      <trkpt lat="41.789407" lon="22.963409">
        <ele>1935.8</ele>
        <time>2026-05-06T12:58:03.000Z</time>
      </trkpt>
      <trkpt lat="41.789404" lon="22.963409">
        <ele>1935.8</ele>
        <time>2026-05-06T12:58:04.000Z</time>
      </trkpt>
      <trkpt lat="41.789402" lon="22.96341">
        <ele>1935.8</ele>
        <time>2026-05-06T12:58:05.000Z</time>
      </trkpt>
      <trkpt lat="41.789401" lon="22.96341">
        <ele>1935.8</ele>
        <time>2026-05-06T12:58:06.000Z</time>
      </trkpt>
      <trkpt lat="41.789401" lon="22.963412">
        <ele>1935.8</ele>
        <time>2026-05-06T12:58:07.000Z</time>
      </trkpt>
      <trkpt lat="41.7894" lon="22.963413">
        <ele>1936.5</ele>
        <time>2026-05-06T12:58:08.000Z</time>
      </trkpt>
      <trkpt lat="41.7894" lon="22.963414">
        <ele>1936.5</ele>
        <time>2026-05-06T12:58:09.000Z</time>
      </trkpt>
      <trkpt lat="41.789399" lon="22.963415">
        <ele>1936.5</ele>
        <time>2026-05-06T12:58:10.000Z</time>
      </trkpt>
      <trkpt lat="41.789399" lon="22.963415">
        <ele>1936.5</ele>
        <time>2026-05-06T12:58:11.000Z</time>
      </trkpt>
      <trkpt lat="41.789398" lon="22.963416">
        <ele>1936.5</ele>
        <time>2026-05-06T12:58:12.000Z</time>
      </trkpt>
      <trkpt lat="41.789398" lon="22.963416">
        <ele>1937.1</ele>
        <time>2026-05-06T12:58:13.000Z</time>
      </trkpt>
      <trkpt lat="41.789397" lon="22.963416">
        <ele>1937.1</ele>
        <time>2026-05-06T12:58:14.000Z</time>
      </trkpt>
      <trkpt lat="41.789397" lon="22.963416">
        <ele>1937.1</ele>
        <time>2026-05-06T12:58:15.000Z</time>
      </trkpt>
      <trkpt lat="41.789399" lon="22.963416">
        <ele>1937.1</ele>
        <time>2026-05-06T12:58:16.000Z</time>
      </trkpt>
      <trkpt lat="41.7894" lon="22.963414">
        <ele>1937.1</ele>
        <time>2026-05-06T12:58:17.000Z</time>
      </trkpt>
      <trkpt lat="41.789402" lon="22.963412">
        <ele>1937.4</ele>
        <time>2026-05-06T12:58:18.000Z</time>
      </trkpt>
      <trkpt lat="41.789404" lon="22.96341">
        <ele>1937.4</ele>
        <time>2026-05-06T12:58:19.000Z</time>
      </trkpt>
      <trkpt lat="41.789405" lon="22.963408">
        <ele>1937.4</ele>
        <time>2026-05-06T12:58:20.000Z</time>
      </trkpt>
      <trkpt lat="41.789405" lon="22.963405">
        <ele>1937.4</ele>
        <time>2026-05-06T12:58:21.000Z</time>
      </trkpt>
      <trkpt lat="41.789405" lon="22.963403">
        <ele>1937.4</ele>
        <time>2026-05-06T12:58:22.000Z</time>
      </trkpt>
      <trkpt lat="41.789405" lon="22.963404">
        <ele>1937.6</ele>
        <time>2026-05-06T12:58:23.000Z</time>
      </trkpt>
      <trkpt lat="41.789404" lon="22.963407">
        <ele>1937.6</ele>
        <time>2026-05-06T12:58:24.000Z</time>
      </trkpt>
      <trkpt lat="41.789402" lon="22.963413">
        <ele>1937.6</ele>
        <time>2026-05-06T12:58:25.000Z</time>
      </trkpt>
      <trkpt lat="41.789401" lon="22.963423">
        <ele>1937.6</ele>
        <time>2026-05-06T12:58:26.000Z</time>
      </trkpt>
      <trkpt lat="41.789399" lon="22.963435">
        <ele>1937.6</ele>
        <time>2026-05-06T12:58:27.000Z</time>
      </trkpt>
      <trkpt lat="41.789397" lon="22.963447">
        <ele>1937.4</ele>
        <time>2026-05-06T12:58:28.000Z</time>
      </trkpt>
      <trkpt lat="41.789397" lon="22.963459">
        <ele>1937.4</ele>
        <time>2026-05-06T12:58:29.000Z</time>
      </trkpt>
      <trkpt lat="41.789398" lon="22.963471">
        <ele>1937.4</ele>
        <time>2026-05-06T12:58:30.000Z</time>
      </trkpt>
      <trkpt lat="41.789399" lon="22.963484">
        <ele>1937.4</ele>
        <time>2026-05-06T12:58:31.000Z</time>
      </trkpt>
      <trkpt lat="41.789402" lon="22.963497">
        <ele>1937.4</ele>
        <time>2026-05-06T12:58:32.000Z</time>
      </trkpt>
      <trkpt lat="41.789406" lon="22.963509">
        <ele>1937.3</ele>
        <time>2026-05-06T12:58:33.000Z</time>
      </trkpt>
      <trkpt lat="41.789412" lon="22.96352">
        <ele>1937.3</ele>
        <time>2026-05-06T12:58:34.000Z</time>
      </trkpt>
      <trkpt lat="41.78942" lon="22.963531">
        <ele>1937.3</ele>
        <time>2026-05-06T12:58:35.000Z</time>
      </trkpt>
      <trkpt lat="41.789428" lon="22.96354">
        <ele>1937.3</ele>
        <time>2026-05-06T12:58:36.000Z</time>
      </trkpt>
      <trkpt lat="41.789438" lon="22.963548">
        <ele>1937.3</ele>
        <time>2026-05-06T12:58:37.000Z</time>
      </trkpt>
      <trkpt lat="41.789448" lon="22.963558">
        <ele>1936.9</ele>
        <time>2026-05-06T12:58:38.000Z</time>
      </trkpt>
      <trkpt lat="41.789458" lon="22.963567">
        <ele>1936.9</ele>
        <time>2026-05-06T12:58:39.000Z</time>
      </trkpt>
      <trkpt lat="41.789468" lon="22.963576">
        <ele>1936.9</ele>
        <time>2026-05-06T12:58:40.000Z</time>
      </trkpt>
      <trkpt lat="41.789478" lon="22.963587">
        <ele>1936.9</ele>
        <time>2026-05-06T12:58:41.000Z</time>
      </trkpt>
      <trkpt lat="41.789486" lon="22.963599">
        <ele>1936.9</ele>
        <time>2026-05-06T12:58:42.000Z</time>
      </trkpt>
      <trkpt lat="41.789495" lon="22.963611">
        <ele>1936.1</ele>
        <time>2026-05-06T12:58:43.000Z</time>
      </trkpt>
      <trkpt lat="41.789502" lon="22.963624">
        <ele>1936.1</ele>
        <time>2026-05-06T12:58:44.000Z</time>
      </trkpt>
      <trkpt lat="41.78951" lon="22.963638">
        <ele>1936.1</ele>
        <time>2026-05-06T12:58:45.000Z</time>
      </trkpt>
      <trkpt lat="41.789517" lon="22.96365">
        <ele>1936.1</ele>
        <time>2026-05-06T12:58:46.000Z</time>
      </trkpt>
      <trkpt lat="41.789523" lon="22.963664">
        <ele>1936.1</ele>
        <time>2026-05-06T12:58:47.000Z</time>
      </trkpt>
      <trkpt lat="41.789527" lon="22.963679">
        <ele>1935.2</ele>
        <time>2026-05-06T12:58:48.000Z</time>
      </trkpt>
      <trkpt lat="41.789531" lon="22.963694">
        <ele>1935.2</ele>
        <time>2026-05-06T12:58:49.000Z</time>
      </trkpt>
      <trkpt lat="41.789533" lon="22.96371">
        <ele>1935.2</ele>
        <time>2026-05-06T12:58:50.000Z</time>
      </trkpt>
      <trkpt lat="41.789536" lon="22.963727">
        <ele>1935.2</ele>
        <time>2026-05-06T12:58:51.000Z</time>
      </trkpt>
      <trkpt lat="41.789538" lon="22.963745">
        <ele>1935.2</ele>
        <time>2026-05-06T12:58:52.000Z</time>
      </trkpt>
      <trkpt lat="41.78954" lon="22.963764">
        <ele>1933.1</ele>
        <time>2026-05-06T12:58:53.000Z</time>
      </trkpt>
      <trkpt lat="41.789541" lon="22.963784">
        <ele>1933.1</ele>
        <time>2026-05-06T12:58:54.000Z</time>
      </trkpt>
      <trkpt lat="41.789543" lon="22.963806">
        <ele>1933.1</ele>
        <time>2026-05-06T12:58:55.000Z</time>
      </trkpt>
      <trkpt lat="41.789544" lon="22.963826">
        <ele>1933.1</ele>
        <time>2026-05-06T12:58:56.000Z</time>
      </trkpt>
      <trkpt lat="41.789546" lon="22.963847">
        <ele>1933.1</ele>
        <time>2026-05-06T12:58:57.000Z</time>
      </trkpt>
      <trkpt lat="41.789547" lon="22.963867">
        <ele>1931.1</ele>
        <time>2026-05-06T12:58:58.000Z</time>
      </trkpt>
      <trkpt lat="41.789548" lon="22.963887">
        <ele>1931.1</ele>
        <time>2026-05-06T12:58:59.000Z</time>
      </trkpt>
      <trkpt lat="41.789548" lon="22.963905">
        <ele>1931.1</ele>
        <time>2026-05-06T12:59:00.000Z</time>
      </trkpt>
      <trkpt lat="41.789549" lon="22.963923">
        <ele>1931.1</ele>
        <time>2026-05-06T12:59:01.000Z</time>
      </trkpt>
      <trkpt lat="41.789548" lon="22.963942">
        <ele>1931.1</ele>
        <time>2026-05-06T12:59:02.000Z</time>
      </trkpt>
      <trkpt lat="41.789547" lon="22.96396">
        <ele>1930.2</ele>
        <time>2026-05-06T12:59:03.000Z</time>
      </trkpt>
      <trkpt lat="41.789546" lon="22.963978">
        <ele>1930.2</ele>
        <time>2026-05-06T12:59:04.000Z</time>
      </trkpt>
      <trkpt lat="41.789544" lon="22.963998">
        <ele>1930.2</ele>
        <time>2026-05-06T12:59:05.000Z</time>
      </trkpt>
      <trkpt lat="41.789542" lon="22.964018">
        <ele>1930.2</ele>
        <time>2026-05-06T12:59:06.000Z</time>
      </trkpt>
      <trkpt lat="41.789539" lon="22.964038">
        <ele>1930.2</ele>
        <time>2026-05-06T12:59:07.000Z</time>
      </trkpt>
      <trkpt lat="41.789536" lon="22.96406">
        <ele>1928.5</ele>
        <time>2026-05-06T12:59:08.000Z</time>
      </trkpt>
      <trkpt lat="41.789534" lon="22.964082">
        <ele>1928.5</ele>
        <time>2026-05-06T12:59:09.000Z</time>
      </trkpt>
      <trkpt lat="41.78953" lon="22.964103">
        <ele>1928.5</ele>
        <time>2026-05-06T12:59:10.000Z</time>
      </trkpt>
      <trkpt lat="41.789528" lon="22.964124">
        <ele>1928.5</ele>
        <time>2026-05-06T12:59:11.000Z</time>
      </trkpt>
      <trkpt lat="41.789525" lon="22.964144">
        <ele>1928.5</ele>
        <time>2026-05-06T12:59:12.000Z</time>
      </trkpt>
      <trkpt lat="41.78952" lon="22.964163">
        <ele>1927.3</ele>
        <time>2026-05-06T12:59:13.000Z</time>
      </trkpt>
      <trkpt lat="41.789515" lon="22.96418">
        <ele>1927.3</ele>
        <time>2026-05-06T12:59:14.000Z</time>
      </trkpt>
      <trkpt lat="41.78951" lon="22.964197">
        <ele>1927.3</ele>
        <time>2026-05-06T12:59:15.000Z</time>
      </trkpt>
      <trkpt lat="41.789504" lon="22.964213">
        <ele>1927.3</ele>
        <time>2026-05-06T12:59:16.000Z</time>
      </trkpt>
      <trkpt lat="41.789497" lon="22.964229">
        <ele>1927.3</ele>
        <time>2026-05-06T12:59:17.000Z</time>
      </trkpt>
      <trkpt lat="41.789491" lon="22.964245">
        <ele>1926.7</ele>
        <time>2026-05-06T12:59:18.000Z</time>
      </trkpt>
      <trkpt lat="41.789485" lon="22.964262">
        <ele>1926.7</ele>
        <time>2026-05-06T12:59:19.000Z</time>
      </trkpt>
      <trkpt lat="41.789479" lon="22.964279">
        <ele>1926.7</ele>
        <time>2026-05-06T12:59:20.000Z</time>
      </trkpt>
      <trkpt lat="41.789472" lon="22.964297">
        <ele>1926.7</ele>
        <time>2026-05-06T12:59:21.000Z</time>
      </trkpt>
      <trkpt lat="41.789466" lon="22.964315">
        <ele>1926.7</ele>
        <time>2026-05-06T12:59:22.000Z</time>
      </trkpt>
      <trkpt lat="41.78946" lon="22.964332">
        <ele>1925.8</ele>
        <time>2026-05-06T12:59:23.000Z</time>
      </trkpt>
      <trkpt lat="41.789453" lon="22.964348">
        <ele>1925.8</ele>
        <time>2026-05-06T12:59:24.000Z</time>
      </trkpt>
      <trkpt lat="41.789447" lon="22.964363">
        <ele>1925.8</ele>
        <time>2026-05-06T12:59:25.000Z</time>
      </trkpt>
      <trkpt lat="41.78944" lon="22.964377">
        <ele>1925.8</ele>
        <time>2026-05-06T12:59:26.000Z</time>
      </trkpt>
      <trkpt lat="41.789432" lon="22.96439">
        <ele>1925.8</ele>
        <time>2026-05-06T12:59:27.000Z</time>
      </trkpt>
      <trkpt lat="41.789423" lon="22.964404">
        <ele>1925.1</ele>
        <time>2026-05-06T12:59:28.000Z</time>
      </trkpt>
      <trkpt lat="41.789415" lon="22.964418">
        <ele>1925.1</ele>
        <time>2026-05-06T12:59:29.000Z</time>
      </trkpt>
      <trkpt lat="41.789407" lon="22.964432">
        <ele>1925.1</ele>
        <time>2026-05-06T12:59:30.000Z</time>
      </trkpt>
      <trkpt lat="41.789399" lon="22.964446">
        <ele>1925.1</ele>
        <time>2026-05-06T12:59:31.000Z</time>
      </trkpt>
      <trkpt lat="41.789393" lon="22.964459">
        <ele>1925.1</ele>
        <time>2026-05-06T12:59:32.000Z</time>
      </trkpt>
      <trkpt lat="41.789386" lon="22.964472">
        <ele>1925</ele>
        <time>2026-05-06T12:59:33.000Z</time>
      </trkpt>
      <trkpt lat="41.78938" lon="22.964486">
        <ele>1925</ele>
        <time>2026-05-06T12:59:34.000Z</time>
      </trkpt>
      <trkpt lat="41.789374" lon="22.9645">
        <ele>1925</ele>
        <time>2026-05-06T12:59:35.000Z</time>
      </trkpt>
      <trkpt lat="41.789369" lon="22.964516">
        <ele>1925</ele>
        <time>2026-05-06T12:59:36.000Z</time>
      </trkpt>
      <trkpt lat="41.789366" lon="22.964532">
        <ele>1925</ele>
        <time>2026-05-06T12:59:37.000Z</time>
      </trkpt>
      <trkpt lat="41.789365" lon="22.964549">
        <ele>1925.4</ele>
        <time>2026-05-06T12:59:38.000Z</time>
      </trkpt>
      <trkpt lat="41.789366" lon="22.964566">
        <ele>1925.4</ele>
        <time>2026-05-06T12:59:39.000Z</time>
      </trkpt>
      <trkpt lat="41.789368" lon="22.964583">
        <ele>1925.4</ele>
        <time>2026-05-06T12:59:40.000Z</time>
      </trkpt>
      <trkpt lat="41.789371" lon="22.9646">
        <ele>1925.4</ele>
        <time>2026-05-06T12:59:41.000Z</time>
      </trkpt>
      <trkpt lat="41.789373" lon="22.964617">
        <ele>1925.4</ele>
        <time>2026-05-06T12:59:42.000Z</time>
      </trkpt>
      <trkpt lat="41.789375" lon="22.964635">
        <ele>1926.2</ele>
        <time>2026-05-06T12:59:43.000Z</time>
      </trkpt>
      <trkpt lat="41.789377" lon="22.964652">
        <ele>1926.2</ele>
        <time>2026-05-06T12:59:44.000Z</time>
      </trkpt>
      <trkpt lat="41.789378" lon="22.964668">
        <ele>1926.2</ele>
        <time>2026-05-06T12:59:45.000Z</time>
      </trkpt>
      <trkpt lat="41.789378" lon="22.964684">
        <ele>1926.2</ele>
        <time>2026-05-06T12:59:46.000Z</time>
      </trkpt>
      <trkpt lat="41.789378" lon="22.964699">
        <ele>1926.2</ele>
        <time>2026-05-06T12:59:47.000Z</time>
      </trkpt>
      <trkpt lat="41.789378" lon="22.964714">
        <ele>1926.3</ele>
        <time>2026-05-06T12:59:48.000Z</time>
      </trkpt>
      <trkpt lat="41.789377" lon="22.964727">
        <ele>1926.3</ele>
        <time>2026-05-06T12:59:49.000Z</time>
      </trkpt>
      <trkpt lat="41.789377" lon="22.96474">
        <ele>1926.3</ele>
        <time>2026-05-06T12:59:50.000Z</time>
      </trkpt>
      <trkpt lat="41.789376" lon="22.964751">
        <ele>1926.3</ele>
        <time>2026-05-06T12:59:51.000Z</time>
      </trkpt>
      <trkpt lat="41.789375" lon="22.964759">
        <ele>1926.3</ele>
        <time>2026-05-06T12:59:52.000Z</time>
      </trkpt>
      <trkpt lat="41.789373" lon="22.964765">
        <ele>1926.1</ele>
        <time>2026-05-06T12:59:53.000Z</time>
      </trkpt>
      <trkpt lat="41.789372" lon="22.964769">
        <ele>1926.1</ele>
        <time>2026-05-06T12:59:54.000Z</time>
      </trkpt>
      <trkpt lat="41.789371" lon="22.964771">
        <ele>1926.1</ele>
        <time>2026-05-06T12:59:55.000Z</time>
      </trkpt>
      <trkpt lat="41.78937" lon="22.964772">
        <ele>1926.1</ele>
        <time>2026-05-06T12:59:56.000Z</time>
      </trkpt>
      <trkpt lat="41.789369" lon="22.964772">
        <ele>1926.1</ele>
        <time>2026-05-06T12:59:57.000Z</time>
      </trkpt>
      <trkpt lat="41.789369" lon="22.964772">
        <ele>1926.1</ele>
        <time>2026-05-06T12:59:58.000Z</time>
      </trkpt>
      <trkpt lat="41.789369" lon="22.964772">
        <ele>1926.1</ele>
        <time>2026-05-06T12:59:59.000Z</time>
      </trkpt>
      <trkpt lat="41.789369" lon="22.964772">
        <ele>1926.1</ele>
        <time>2026-05-06T13:00:00.000Z</time>
      </trkpt>
      <trkpt lat="41.789369" lon="22.964772">
        <ele>1926.1</ele>
        <time>2026-05-06T13:00:01.000Z</time>
      </trkpt>
      <trkpt lat="41.789369" lon="22.964772">
        <ele>1926.1</ele>
        <time>2026-05-06T13:00:02.000Z</time>
      </trkpt>
      <trkpt lat="41.789369" lon="22.964772">
        <ele>1926.3</ele>
        <time>2026-05-06T13:00:03.000Z</time>
      </trkpt>
      <trkpt lat="41.78937" lon="22.964773">
        <ele>1926.3</ele>
        <time>2026-05-06T13:00:04.000Z</time>
      </trkpt>
      <trkpt lat="41.789371" lon="22.964774">
        <ele>1926.3</ele>
        <time>2026-05-06T13:00:05.000Z</time>
      </trkpt>
      <trkpt lat="41.789371" lon="22.964777">
        <ele>1926.3</ele>
        <time>2026-05-06T13:00:06.000Z</time>
      </trkpt>
      <trkpt lat="41.789371" lon="22.964781">
        <ele>1926.3</ele>
        <time>2026-05-06T13:00:07.000Z</time>
      </trkpt>
      <trkpt lat="41.789371" lon="22.964787">
        <ele>1926.9</ele>
        <time>2026-05-06T13:00:08.000Z</time>
      </trkpt>
      <trkpt lat="41.78937" lon="22.964793">
        <ele>1926.9</ele>
        <time>2026-05-06T13:00:09.000Z</time>
      </trkpt>
      <trkpt lat="41.789369" lon="22.964801">
        <ele>1926.9</ele>
        <time>2026-05-06T13:00:10.000Z</time>
      </trkpt>
      <trkpt lat="41.789369" lon="22.964808">
        <ele>1926.9</ele>
        <time>2026-05-06T13:00:11.000Z</time>
      </trkpt>
      <trkpt lat="41.789369" lon="22.964811">
        <ele>1926.9</ele>
        <time>2026-05-06T13:00:12.000Z</time>
      </trkpt>
      <trkpt lat="41.789369" lon="22.964814">
        <ele>1927.6</ele>
        <time>2026-05-06T13:00:13.000Z</time>
      </trkpt>
      <trkpt lat="41.789369" lon="22.964817">
        <ele>1927.6</ele>
        <time>2026-05-06T13:00:14.000Z</time>
      </trkpt>
      <trkpt lat="41.789368" lon="22.964817">
        <ele>1927.6</ele>
        <time>2026-05-06T13:00:15.000Z</time>
      </trkpt>
      <trkpt lat="41.789367" lon="22.964817">
        <ele>1927.6</ele>
        <time>2026-05-06T13:00:16.000Z</time>
      </trkpt>
      <trkpt lat="41.789367" lon="22.964817">
        <ele>1927.6</ele>
        <time>2026-05-06T13:00:17.000Z</time>
      </trkpt>
      <trkpt lat="41.789365" lon="22.964818">
        <ele>1927.9</ele>
        <time>2026-05-06T13:00:18.000Z</time>
      </trkpt>
      <trkpt lat="41.789364" lon="22.964816">
        <ele>1927.9</ele>
        <time>2026-05-06T13:00:19.000Z</time>
      </trkpt>
      <trkpt lat="41.789364" lon="22.964815">
        <ele>1927.9</ele>
        <time>2026-05-06T13:00:20.000Z</time>
      </trkpt>
      <trkpt lat="41.789364" lon="22.964814">
        <ele>1927.9</ele>
        <time>2026-05-06T13:00:21.000Z</time>
      </trkpt>
      <trkpt lat="41.789364" lon="22.964814">
        <ele>1927.9</ele>
        <time>2026-05-06T13:00:22.000Z</time>
      </trkpt>
      <trkpt lat="41.789365" lon="22.964815">
        <ele>1928.4</ele>
        <time>2026-05-06T13:00:23.000Z</time>
      </trkpt>
      <trkpt lat="41.789365" lon="22.964815">
        <ele>1928.4</ele>
        <time>2026-05-06T13:00:24.000Z</time>
      </trkpt>
      <trkpt lat="41.789365" lon="22.964816">
        <ele>1928.4</ele>
        <time>2026-05-06T13:00:25.000Z</time>
      </trkpt>
      <trkpt lat="41.789365" lon="22.964816">
        <ele>1928.4</ele>
        <time>2026-05-06T13:00:26.000Z</time>
      </trkpt>
      <trkpt lat="41.789364" lon="22.964817">
        <ele>1928.4</ele>
        <time>2026-05-06T13:00:27.000Z</time>
      </trkpt>
      <trkpt lat="41.789363" lon="22.964818">
        <ele>1928.4</ele>
        <time>2026-05-06T13:00:28.000Z</time>
      </trkpt>
      <trkpt lat="41.789363" lon="22.964819">
        <ele>1928.4</ele>
        <time>2026-05-06T13:00:29.000Z</time>
      </trkpt>
      <trkpt lat="41.789362" lon="22.96482">
        <ele>1928.4</ele>
        <time>2026-05-06T13:00:30.000Z</time>
      </trkpt>
      <trkpt lat="41.789361" lon="22.964821">
        <ele>1928.4</ele>
        <time>2026-05-06T13:00:31.000Z</time>
      </trkpt>
      <trkpt lat="41.789361" lon="22.964821">
        <ele>1928.4</ele>
        <time>2026-05-06T13:00:32.000Z</time>
      </trkpt>
      <trkpt lat="41.78936" lon="22.964821">
        <ele>1928.3</ele>
        <time>2026-05-06T13:00:33.000Z</time>
      </trkpt>
      <trkpt lat="41.78936" lon="22.964822">
        <ele>1928.3</ele>
        <time>2026-05-06T13:00:34.000Z</time>
      </trkpt>
      <trkpt lat="41.78936" lon="22.964822">
        <ele>1928.3</ele>
        <time>2026-05-06T13:00:35.000Z</time>
      </trkpt>
      <trkpt lat="41.78936" lon="22.964822">
        <ele>1928.3</ele>
        <time>2026-05-06T13:00:36.000Z</time>
      </trkpt>
      <trkpt lat="41.78936" lon="22.964822">
        <ele>1928.3</ele>
        <time>2026-05-06T13:00:37.000Z</time>
      </trkpt>
      <trkpt lat="41.78936" lon="22.964822">
        <ele>1928.3</ele>
        <time>2026-05-06T13:00:38.000Z</time>
      </trkpt>
      <trkpt lat="41.78936" lon="22.964822">
        <ele>1928.3</ele>
        <time>2026-05-06T13:00:39.000Z</time>
      </trkpt>
      <trkpt lat="41.78936" lon="22.964822">
        <ele>1928.3</ele>
        <time>2026-05-06T13:00:40.000Z</time>
      </trkpt>
      <trkpt lat="41.78936" lon="22.964822">
        <ele>1928.3</ele>
        <time>2026-05-06T13:00:41.000Z</time>
      </trkpt>
      <trkpt lat="41.78936" lon="22.964823">
        <ele>1928.3</ele>
        <time>2026-05-06T13:00:42.000Z</time>
      </trkpt>
      <trkpt lat="41.78936" lon="22.964823">
        <ele>1928.6</ele>
        <time>2026-05-06T13:00:43.000Z</time>
      </trkpt>
      <trkpt lat="41.78936" lon="22.964823">
        <ele>1928.6</ele>
        <time>2026-05-06T13:00:44.000Z</time>
      </trkpt>
      <trkpt lat="41.78936" lon="22.964823">
        <ele>1928.6</ele>
        <time>2026-05-06T13:00:45.000Z</time>
      </trkpt>
      <trkpt lat="41.789361" lon="22.964824">
        <ele>1928.6</ele>
        <time>2026-05-06T13:00:46.000Z</time>
      </trkpt>
      <trkpt lat="41.789363" lon="22.964824">
        <ele>1928.6</ele>
        <time>2026-05-06T13:00:47.000Z</time>
      </trkpt>
      <trkpt lat="41.789365" lon="22.964824">
        <ele>1928.6</ele>
        <time>2026-05-06T13:00:48.000Z</time>
      </trkpt>
      <trkpt lat="41.789368" lon="22.964825">
        <ele>1928.6</ele>
        <time>2026-05-06T13:00:49.000Z</time>
      </trkpt>
      <trkpt lat="41.78937" lon="22.964825">
        <ele>1928.6</ele>
        <time>2026-05-06T13:00:50.000Z</time>
      </trkpt>
      <trkpt lat="41.789372" lon="22.964825">
        <ele>1928.6</ele>
        <time>2026-05-06T13:00:51.000Z</time>
      </trkpt>
      <trkpt lat="41.789373" lon="22.964825">
        <ele>1928.6</ele>
        <time>2026-05-06T13:00:52.000Z</time>
      </trkpt>
      <trkpt lat="41.789373" lon="22.964825">
        <ele>1928.6</ele>
        <time>2026-05-06T13:00:53.000Z</time>
      </trkpt>
      <trkpt lat="41.789374" lon="22.964824">
        <ele>1928.6</ele>
        <time>2026-05-06T13:00:54.000Z</time>
      </trkpt>
      <trkpt lat="41.789377" lon="22.964822">
        <ele>1928.6</ele>
        <time>2026-05-06T13:00:55.000Z</time>
      </trkpt>
      <trkpt lat="41.78938" lon="22.96482">
        <ele>1928.6</ele>
        <time>2026-05-06T13:00:56.000Z</time>
      </trkpt>
      <trkpt lat="41.789383" lon="22.964819">
        <ele>1928.6</ele>
        <time>2026-05-06T13:00:57.000Z</time>
      </trkpt>
      <trkpt lat="41.789386" lon="22.96482">
        <ele>1928.3</ele>
        <time>2026-05-06T13:00:58.000Z</time>
      </trkpt>
      <trkpt lat="41.789389" lon="22.96482">
        <ele>1928.3</ele>
        <time>2026-05-06T13:00:59.000Z</time>
      </trkpt>
      <trkpt lat="41.78939" lon="22.964821">
        <ele>1928.3</ele>
        <time>2026-05-06T13:01:00.000Z</time>
      </trkpt>
      <trkpt lat="41.789391" lon="22.964822">
        <ele>1928.3</ele>
        <time>2026-05-06T13:01:01.000Z</time>
      </trkpt>
      <trkpt lat="41.789391" lon="22.964823">
        <ele>1928.3</ele>
        <time>2026-05-06T13:01:02.000Z</time>
      </trkpt>
      <trkpt lat="41.789391" lon="22.964822">
        <ele>1928.2</ele>
        <time>2026-05-06T13:01:03.000Z</time>
      </trkpt>
      <trkpt lat="41.789392" lon="22.964821">
        <ele>1928.2</ele>
        <time>2026-05-06T13:01:04.000Z</time>
      </trkpt>
      <trkpt lat="41.789391" lon="22.964821">
        <ele>1928.2</ele>
        <time>2026-05-06T13:01:05.000Z</time>
      </trkpt>
      <trkpt lat="41.789391" lon="22.964821">
        <ele>1928.2</ele>
        <time>2026-05-06T13:01:06.000Z</time>
      </trkpt>
      <trkpt lat="41.789391" lon="22.964821">
        <ele>1928.2</ele>
        <time>2026-05-06T13:01:07.000Z</time>
      </trkpt>
      <trkpt lat="41.78939" lon="22.964821">
        <ele>1927.9</ele>
        <time>2026-05-06T13:01:08.000Z</time>
      </trkpt>
      <trkpt lat="41.78939" lon="22.964822">
        <ele>1927.9</ele>
        <time>2026-05-06T13:01:09.000Z</time>
      </trkpt>
      <trkpt lat="41.78939" lon="22.964822">
        <ele>1927.9</ele>
        <time>2026-05-06T13:01:10.000Z</time>
      </trkpt>
      <trkpt lat="41.789389" lon="22.964821">
        <ele>1927.9</ele>
        <time>2026-05-06T13:01:11.000Z</time>
      </trkpt>
      <trkpt lat="41.789389" lon="22.96482">
        <ele>1927.9</ele>
        <time>2026-05-06T13:01:12.000Z</time>
      </trkpt>
      <trkpt lat="41.78939" lon="22.964818">
        <ele>1927.9</ele>
        <time>2026-05-06T13:01:13.000Z</time>
      </trkpt>
      <trkpt lat="41.789392" lon="22.964815">
        <ele>1927.9</ele>
        <time>2026-05-06T13:01:14.000Z</time>
      </trkpt>
      <trkpt lat="41.789392" lon="22.964811">
        <ele>1927.9</ele>
        <time>2026-05-06T13:01:15.000Z</time>
      </trkpt>
      <trkpt lat="41.789395" lon="22.964807">
        <ele>1927.9</ele>
        <time>2026-05-06T13:01:16.000Z</time>
      </trkpt>
      <trkpt lat="41.789398" lon="22.964803">
        <ele>1927.9</ele>
        <time>2026-05-06T13:01:17.000Z</time>
      </trkpt>
      <trkpt lat="41.789401" lon="22.964798">
        <ele>1927.9</ele>
        <time>2026-05-06T13:01:18.000Z</time>
      </trkpt>
      <trkpt lat="41.789405" lon="22.964793">
        <ele>1927.9</ele>
        <time>2026-05-06T13:01:19.000Z</time>
      </trkpt>
      <trkpt lat="41.789408" lon="22.964789">
        <ele>1927.9</ele>
        <time>2026-05-06T13:01:20.000Z</time>
      </trkpt>
      <trkpt lat="41.789411" lon="22.964787">
        <ele>1927.9</ele>
        <time>2026-05-06T13:01:21.000Z</time>
      </trkpt>
      <trkpt lat="41.789412" lon="22.964785">
        <ele>1927.9</ele>
        <time>2026-05-06T13:01:22.000Z</time>
      </trkpt>
      <trkpt lat="41.789412" lon="22.964785">
        <ele>1928</ele>
        <time>2026-05-06T13:01:23.000Z</time>
      </trkpt>
      <trkpt lat="41.789412" lon="22.964784">
        <ele>1928</ele>
        <time>2026-05-06T13:01:24.000Z</time>
      </trkpt>
      <trkpt lat="41.789414" lon="22.964783">
        <ele>1928</ele>
        <time>2026-05-06T13:01:25.000Z</time>
      </trkpt>
      <trkpt lat="41.789417" lon="22.964781">
        <ele>1928</ele>
        <time>2026-05-06T13:01:26.000Z</time>
      </trkpt>
      <trkpt lat="41.789421" lon="22.964781">
        <ele>1928</ele>
        <time>2026-05-06T13:01:27.000Z</time>
      </trkpt>
      <trkpt lat="41.789426" lon="22.964782">
        <ele>1928.3</ele>
        <time>2026-05-06T13:01:28.000Z</time>
      </trkpt>
      <trkpt lat="41.789431" lon="22.964785">
        <ele>1928.3</ele>
        <time>2026-05-06T13:01:29.000Z</time>
      </trkpt>
      <trkpt lat="41.789435" lon="22.96479">
        <ele>1928.3</ele>
        <time>2026-05-06T13:01:30.000Z</time>
      </trkpt>
      <trkpt lat="41.789437" lon="22.964794">
        <ele>1928.3</ele>
        <time>2026-05-06T13:01:31.000Z</time>
      </trkpt>
      <trkpt lat="41.789439" lon="22.964797">
        <ele>1928.3</ele>
        <time>2026-05-06T13:01:32.000Z</time>
      </trkpt>
      <trkpt lat="41.789439" lon="22.964799">
        <ele>1928.4</ele>
        <time>2026-05-06T13:01:33.000Z</time>
      </trkpt>
      <trkpt lat="41.789441" lon="22.964799">
        <ele>1928.4</ele>
        <time>2026-05-06T13:01:34.000Z</time>
      </trkpt>
      <trkpt lat="41.789441" lon="22.964798">
        <ele>1928.4</ele>
        <time>2026-05-06T13:01:35.000Z</time>
      </trkpt>
      <trkpt lat="41.78944" lon="22.964798">
        <ele>1928.4</ele>
        <time>2026-05-06T13:01:36.000Z</time>
      </trkpt>
      <trkpt lat="41.78944" lon="22.964797">
        <ele>1928.4</ele>
        <time>2026-05-06T13:01:37.000Z</time>
      </trkpt>
      <trkpt lat="41.789438" lon="22.964796">
        <ele>1928.1</ele>
        <time>2026-05-06T13:01:38.000Z</time>
      </trkpt>
      <trkpt lat="41.789437" lon="22.964795">
        <ele>1928.1</ele>
        <time>2026-05-06T13:01:39.000Z</time>
      </trkpt>
      <trkpt lat="41.789436" lon="22.964795">
        <ele>1928.1</ele>
        <time>2026-05-06T13:01:40.000Z</time>
      </trkpt>
      <trkpt lat="41.789437" lon="22.964795">
        <ele>1928.1</ele>
        <time>2026-05-06T13:01:41.000Z</time>
      </trkpt>
      <trkpt lat="41.789437" lon="22.964796">
        <ele>1928.1</ele>
        <time>2026-05-06T13:01:42.000Z</time>
      </trkpt>
      <trkpt lat="41.789437" lon="22.964797">
        <ele>1927.2</ele>
        <time>2026-05-06T13:01:43.000Z</time>
      </trkpt>
      <trkpt lat="41.789437" lon="22.964798">
        <ele>1927.2</ele>
        <time>2026-05-06T13:01:44.000Z</time>
      </trkpt>
      <trkpt lat="41.789437" lon="22.964798">
        <ele>1927.2</ele>
        <time>2026-05-06T13:01:45.000Z</time>
      </trkpt>
      <trkpt lat="41.789437" lon="22.964798">
        <ele>1927.2</ele>
        <time>2026-05-06T13:01:46.000Z</time>
      </trkpt>
      <trkpt lat="41.789437" lon="22.964797">
        <ele>1927.2</ele>
        <time>2026-05-06T13:01:47.000Z</time>
      </trkpt>
      <trkpt lat="41.789437" lon="22.964796">
        <ele>1926.7</ele>
        <time>2026-05-06T13:01:48.000Z</time>
      </trkpt>
      <trkpt lat="41.789437" lon="22.964796">
        <ele>1926.7</ele>
        <time>2026-05-06T13:01:49.000Z</time>
      </trkpt>
      <trkpt lat="41.789437" lon="22.964795">
        <ele>1926.7</ele>
        <time>2026-05-06T13:01:50.000Z</time>
      </trkpt>
      <trkpt lat="41.789437" lon="22.964795">
        <ele>1926.7</ele>
        <time>2026-05-06T13:01:51.000Z</time>
      </trkpt>
      <trkpt lat="41.789437" lon="22.964794">
        <ele>1926.7</ele>
        <time>2026-05-06T13:01:52.000Z</time>
      </trkpt>
      <trkpt lat="41.789436" lon="22.964794">
        <ele>1926</ele>
        <time>2026-05-06T13:01:53.000Z</time>
      </trkpt>
      <trkpt lat="41.789436" lon="22.964794">
        <ele>1926</ele>
        <time>2026-05-06T13:01:54.000Z</time>
      </trkpt>
      <trkpt lat="41.789436" lon="22.964793">
        <ele>1926</ele>
        <time>2026-05-06T13:01:55.000Z</time>
      </trkpt>
      <trkpt lat="41.789436" lon="22.964793">
        <ele>1926</ele>
        <time>2026-05-06T13:01:56.000Z</time>
      </trkpt>
      <trkpt lat="41.789436" lon="22.964793">
        <ele>1926</ele>
        <time>2026-05-06T13:01:57.000Z</time>
      </trkpt>
      <trkpt lat="41.789436" lon="22.964793">
        <ele>1925.7</ele>
        <time>2026-05-06T13:01:58.000Z</time>
      </trkpt>
      <trkpt lat="41.789437" lon="22.964793">
        <ele>1925.7</ele>
        <time>2026-05-06T13:01:59.000Z</time>
      </trkpt>
      <trkpt lat="41.789438" lon="22.964793">
        <ele>1925.7</ele>
        <time>2026-05-06T13:02:00.000Z</time>
      </trkpt>
      <trkpt lat="41.789438" lon="22.964793">
        <ele>1925.7</ele>
        <time>2026-05-06T13:02:01.000Z</time>
      </trkpt>
      <trkpt lat="41.789439" lon="22.964794">
        <ele>1925.7</ele>
        <time>2026-05-06T13:02:02.000Z</time>
      </trkpt>
      <trkpt lat="41.78944" lon="22.964794">
        <ele>1925.7</ele>
        <time>2026-05-06T13:02:03.000Z</time>
      </trkpt>
      <trkpt lat="41.78944" lon="22.964795">
        <ele>1925.7</ele>
        <time>2026-05-06T13:02:04.000Z</time>
      </trkpt>
      <trkpt lat="41.78944" lon="22.964796">
        <ele>1925.7</ele>
        <time>2026-05-06T13:02:05.000Z</time>
      </trkpt>
      <trkpt lat="41.789439" lon="22.964795">
        <ele>1925.7</ele>
        <time>2026-05-06T13:02:06.000Z</time>
      </trkpt>
      <trkpt lat="41.789439" lon="22.964795">
        <ele>1925.7</ele>
        <time>2026-05-06T13:02:07.000Z</time>
      </trkpt>
      <trkpt lat="41.789438" lon="22.964795">
        <ele>1925.9</ele>
        <time>2026-05-06T13:02:08.000Z</time>
      </trkpt>
      <trkpt lat="41.789437" lon="22.964795">
        <ele>1925.9</ele>
        <time>2026-05-06T13:02:09.000Z</time>
      </trkpt>
      <trkpt lat="41.789437" lon="22.964794">
        <ele>1925.9</ele>
        <time>2026-05-06T13:02:10.000Z</time>
      </trkpt>
      <trkpt lat="41.789436" lon="22.964794">
        <ele>1925.9</ele>
        <time>2026-05-06T13:02:11.000Z</time>
      </trkpt>
      <trkpt lat="41.789436" lon="22.964794">
        <ele>1925.9</ele>
        <time>2026-05-06T13:02:12.000Z</time>
      </trkpt>
      <trkpt lat="41.789435" lon="22.964793">
        <ele>1926.1</ele>
        <time>2026-05-06T13:02:13.000Z</time>
      </trkpt>
      <trkpt lat="41.789435" lon="22.964793">
        <ele>1926.1</ele>
        <time>2026-05-06T13:02:14.000Z</time>
      </trkpt>
      <trkpt lat="41.789434" lon="22.964794">
        <ele>1926.1</ele>
        <time>2026-05-06T13:02:15.000Z</time>
      </trkpt>
      <trkpt lat="41.789434" lon="22.964795">
        <ele>1926.1</ele>
        <time>2026-05-06T13:02:16.000Z</time>
      </trkpt>
      <trkpt lat="41.789434" lon="22.964795">
        <ele>1926.1</ele>
        <time>2026-05-06T13:02:17.000Z</time>
      </trkpt>
      <trkpt lat="41.789433" lon="22.964795">
        <ele>1926.1</ele>
        <time>2026-05-06T13:02:18.000Z</time>
      </trkpt>
      <trkpt lat="41.789433" lon="22.964796">
        <ele>1926.1</ele>
        <time>2026-05-06T13:02:19.000Z</time>
      </trkpt>
      <trkpt lat="41.789434" lon="22.964796">
        <ele>1926.1</ele>
        <time>2026-05-06T13:02:20.000Z</time>
      </trkpt>
      <trkpt lat="41.789434" lon="22.964795">
        <ele>1926.1</ele>
        <time>2026-05-06T13:02:21.000Z</time>
      </trkpt>
      <trkpt lat="41.789434" lon="22.964794">
        <ele>1926.1</ele>
        <time>2026-05-06T13:02:22.000Z</time>
      </trkpt>
      <trkpt lat="41.789434" lon="22.964792">
        <ele>1926.1</ele>
        <time>2026-05-06T13:02:23.000Z</time>
      </trkpt>
      <trkpt lat="41.789435" lon="22.964789">
        <ele>1926.1</ele>
        <time>2026-05-06T13:02:24.000Z</time>
      </trkpt>
      <trkpt lat="41.789435" lon="22.964786">
        <ele>1926.1</ele>
        <time>2026-05-06T13:02:25.000Z</time>
      </trkpt>
      <trkpt lat="41.789435" lon="22.964783">
        <ele>1926.1</ele>
        <time>2026-05-06T13:02:26.000Z</time>
      </trkpt>
      <trkpt lat="41.789435" lon="22.964782">
        <ele>1926.1</ele>
        <time>2026-05-06T13:02:27.000Z</time>
      </trkpt>
      <trkpt lat="41.789435" lon="22.964782">
        <ele>1926.1</ele>
        <time>2026-05-06T13:02:28.000Z</time>
      </trkpt>
      <trkpt lat="41.789435" lon="22.964782">
        <ele>1926.1</ele>
        <time>2026-05-06T13:02:29.000Z</time>
      </trkpt>
      <trkpt lat="41.789435" lon="22.964782">
        <ele>1926.1</ele>
        <time>2026-05-06T13:02:30.000Z</time>
      </trkpt>
      <trkpt lat="41.789435" lon="22.964782">
        <ele>1926.1</ele>
        <time>2026-05-06T13:02:31.000Z</time>
      </trkpt>
      <trkpt lat="41.789435" lon="22.964783">
        <ele>1926.1</ele>
        <time>2026-05-06T13:02:32.000Z</time>
      </trkpt>
      <trkpt lat="41.789435" lon="22.964782">
        <ele>1926.1</ele>
        <time>2026-05-06T13:02:33.000Z</time>
      </trkpt>
      <trkpt lat="41.789435" lon="22.964783">
        <ele>1926.1</ele>
        <time>2026-05-06T13:02:34.000Z</time>
      </trkpt>
      <trkpt lat="41.789436" lon="22.964783">
        <ele>1926.1</ele>
        <time>2026-05-06T13:02:35.000Z</time>
      </trkpt>
      <trkpt lat="41.789436" lon="22.964783">
        <ele>1926.1</ele>
        <time>2026-05-06T13:02:36.000Z</time>
      </trkpt>
      <trkpt lat="41.789436" lon="22.964783">
        <ele>1926.1</ele>
        <time>2026-05-06T13:02:37.000Z</time>
      </trkpt>
      <trkpt lat="41.789436" lon="22.964783">
        <ele>1925.8</ele>
        <time>2026-05-06T13:02:38.000Z</time>
      </trkpt>
      <trkpt lat="41.789436" lon="22.964784">
        <ele>1925.8</ele>
        <time>2026-05-06T13:02:39.000Z</time>
      </trkpt>
      <trkpt lat="41.789436" lon="22.964784">
        <ele>1925.8</ele>
        <time>2026-05-06T13:02:40.000Z</time>
      </trkpt>
      <trkpt lat="41.789436" lon="22.964785">
        <ele>1925.8</ele>
        <time>2026-05-06T13:02:41.000Z</time>
      </trkpt>
      <trkpt lat="41.789438" lon="22.964785">
        <ele>1925.8</ele>
        <time>2026-05-06T13:02:42.000Z</time>
      </trkpt>
      <trkpt lat="41.789439" lon="22.964785">
        <ele>1925.3</ele>
        <time>2026-05-06T13:02:43.000Z</time>
      </trkpt>
      <trkpt lat="41.78944" lon="22.964785">
        <ele>1925.3</ele>
        <time>2026-05-06T13:02:44.000Z</time>
      </trkpt>
      <trkpt lat="41.789441" lon="22.964784">
        <ele>1925.3</ele>
        <time>2026-05-06T13:02:45.000Z</time>
      </trkpt>
      <trkpt lat="41.789442" lon="22.964783">
        <ele>1925.3</ele>
        <time>2026-05-06T13:02:46.000Z</time>
      </trkpt>
      <trkpt lat="41.789442" lon="22.964782">
        <ele>1925.3</ele>
        <time>2026-05-06T13:02:47.000Z</time>
      </trkpt>
      <trkpt lat="41.789442" lon="22.964781">
        <ele>1925.2</ele>
        <time>2026-05-06T13:02:48.000Z</time>
      </trkpt>
      <trkpt lat="41.789442" lon="22.964781">
        <ele>1925.2</ele>
        <time>2026-05-06T13:02:49.000Z</time>
      </trkpt>
      <trkpt lat="41.789443" lon="22.96478">
        <ele>1925.2</ele>
        <time>2026-05-06T13:02:50.000Z</time>
      </trkpt>
      <trkpt lat="41.789443" lon="22.96478">
        <ele>1925.2</ele>
        <time>2026-05-06T13:02:51.000Z</time>
      </trkpt>
      <trkpt lat="41.789444" lon="22.96478">
        <ele>1925.2</ele>
        <time>2026-05-06T13:02:52.000Z</time>
      </trkpt>
      <trkpt lat="41.789444" lon="22.964781">
        <ele>1925.4</ele>
        <time>2026-05-06T13:02:53.000Z</time>
      </trkpt>
      <trkpt lat="41.789445" lon="22.964781">
        <ele>1925.4</ele>
        <time>2026-05-06T13:02:54.000Z</time>
      </trkpt>
      <trkpt lat="41.789446" lon="22.964781">
        <ele>1925.4</ele>
        <time>2026-05-06T13:02:55.000Z</time>
      </trkpt>
      <trkpt lat="41.789446" lon="22.96478">
        <ele>1925.4</ele>
        <time>2026-05-06T13:02:56.000Z</time>
      </trkpt>
      <trkpt lat="41.789447" lon="22.96478">
        <ele>1925.4</ele>
        <time>2026-05-06T13:02:57.000Z</time>
      </trkpt>
      <trkpt lat="41.789447" lon="22.964779">
        <ele>1925.8</ele>
        <time>2026-05-06T13:02:58.000Z</time>
      </trkpt>
      <trkpt lat="41.789448" lon="22.964779">
        <ele>1925.8</ele>
        <time>2026-05-06T13:02:59.000Z</time>
      </trkpt>
      <trkpt lat="41.789447" lon="22.96478">
        <ele>1925.8</ele>
        <time>2026-05-06T13:03:00.000Z</time>
      </trkpt>
      <trkpt lat="41.789447" lon="22.964782">
        <ele>1925.8</ele>
        <time>2026-05-06T13:03:01.000Z</time>
      </trkpt>
      <trkpt lat="41.789446" lon="22.964783">
        <ele>1925.8</ele>
        <time>2026-05-06T13:03:02.000Z</time>
      </trkpt>
      <trkpt lat="41.789445" lon="22.964786">
        <ele>1925.9</ele>
        <time>2026-05-06T13:03:03.000Z</time>
      </trkpt>
      <trkpt lat="41.789445" lon="22.964788">
        <ele>1925.9</ele>
        <time>2026-05-06T13:03:04.000Z</time>
      </trkpt>
      <trkpt lat="41.789445" lon="22.964789">
        <ele>1925.9</ele>
        <time>2026-05-06T13:03:05.000Z</time>
      </trkpt>
      <trkpt lat="41.789444" lon="22.964789">
        <ele>1925.9</ele>
        <time>2026-05-06T13:03:06.000Z</time>
      </trkpt>
      <trkpt lat="41.789444" lon="22.964789">
        <ele>1925.9</ele>
        <time>2026-05-06T13:03:07.000Z</time>
      </trkpt>
      <trkpt lat="41.789444" lon="22.964789">
        <ele>1926.1</ele>
        <time>2026-05-06T13:03:08.000Z</time>
      </trkpt>
      <trkpt lat="41.789444" lon="22.964788">
        <ele>1926.1</ele>
        <time>2026-05-06T13:03:09.000Z</time>
      </trkpt>
      <trkpt lat="41.789445" lon="22.964788">
        <ele>1926.1</ele>
        <time>2026-05-06T13:03:10.000Z</time>
      </trkpt>
      <trkpt lat="41.789447" lon="22.964787">
        <ele>1926.1</ele>
        <time>2026-05-06T13:03:11.000Z</time>
      </trkpt>
      <trkpt lat="41.789449" lon="22.964787">
        <ele>1926.1</ele>
        <time>2026-05-06T13:03:12.000Z</time>
      </trkpt>
      <trkpt lat="41.78945" lon="22.964787">
        <ele>1926.2</ele>
        <time>2026-05-06T13:03:13.000Z</time>
      </trkpt>
      <trkpt lat="41.789451" lon="22.964787">
        <ele>1926.2</ele>
        <time>2026-05-06T13:03:14.000Z</time>
      </trkpt>
      <trkpt lat="41.789451" lon="22.964789">
        <ele>1926.2</ele>
        <time>2026-05-06T13:03:15.000Z</time>
      </trkpt>
      <trkpt lat="41.78945" lon="22.96479">
        <ele>1926.2</ele>
        <time>2026-05-06T13:03:16.000Z</time>
      </trkpt>
      <trkpt lat="41.789449" lon="22.96479">
        <ele>1926.2</ele>
        <time>2026-05-06T13:03:17.000Z</time>
      </trkpt>
      <trkpt lat="41.789449" lon="22.96479">
        <ele>1926.3</ele>
        <time>2026-05-06T13:03:18.000Z</time>
      </trkpt>
      <trkpt lat="41.789448" lon="22.964789">
        <ele>1926.3</ele>
        <time>2026-05-06T13:03:19.000Z</time>
      </trkpt>
      <trkpt lat="41.789448" lon="22.964789">
        <ele>1926.3</ele>
        <time>2026-05-06T13:03:20.000Z</time>
      </trkpt>
      <trkpt lat="41.789447" lon="22.964788">
        <ele>1926.3</ele>
        <time>2026-05-06T13:03:21.000Z</time>
      </trkpt>
      <trkpt lat="41.789447" lon="22.964788">
        <ele>1926.3</ele>
        <time>2026-05-06T13:03:22.000Z</time>
      </trkpt>
      <trkpt lat="41.789447" lon="22.964788">
        <ele>1926.8</ele>
        <time>2026-05-06T13:03:23.000Z</time>
      </trkpt>
      <trkpt lat="41.789446" lon="22.964788">
        <ele>1926.8</ele>
        <time>2026-05-06T13:03:24.000Z</time>
      </trkpt>
      <trkpt lat="41.789445" lon="22.964788">
        <ele>1926.8</ele>
        <time>2026-05-06T13:03:25.000Z</time>
      </trkpt>
      <trkpt lat="41.789445" lon="22.964789">
        <ele>1926.8</ele>
        <time>2026-05-06T13:03:26.000Z</time>
      </trkpt>
      <trkpt lat="41.789445" lon="22.96479">
        <ele>1926.8</ele>
        <time>2026-05-06T13:03:27.000Z</time>
      </trkpt>
      <trkpt lat="41.789445" lon="22.964792">
        <ele>1927.3</ele>
        <time>2026-05-06T13:03:28.000Z</time>
      </trkpt>
      <trkpt lat="41.789446" lon="22.964793">
        <ele>1927.3</ele>
        <time>2026-05-06T13:03:29.000Z</time>
      </trkpt>
      <trkpt lat="41.789447" lon="22.964794">
        <ele>1927.3</ele>
        <time>2026-05-06T13:03:30.000Z</time>
      </trkpt>
      <trkpt lat="41.789447" lon="22.964793">
        <ele>1927.3</ele>
        <time>2026-05-06T13:03:31.000Z</time>
      </trkpt>
      <trkpt lat="41.789446" lon="22.964793">
        <ele>1927.3</ele>
        <time>2026-05-06T13:03:32.000Z</time>
      </trkpt>
      <trkpt lat="41.789446" lon="22.964793">
        <ele>1927.4</ele>
        <time>2026-05-06T13:03:33.000Z</time>
      </trkpt>
      <trkpt lat="41.789444" lon="22.964794">
        <ele>1927.4</ele>
        <time>2026-05-06T13:03:34.000Z</time>
      </trkpt>
      <trkpt lat="41.789443" lon="22.964794">
        <ele>1927.4</ele>
        <time>2026-05-06T13:03:35.000Z</time>
      </trkpt>
      <trkpt lat="41.789442" lon="22.964795">
        <ele>1927.4</ele>
        <time>2026-05-06T13:03:36.000Z</time>
      </trkpt>
      <trkpt lat="41.789441" lon="22.964796">
        <ele>1927.4</ele>
        <time>2026-05-06T13:03:37.000Z</time>
      </trkpt>
      <trkpt lat="41.789439" lon="22.964796">
        <ele>1927.2</ele>
        <time>2026-05-06T13:03:38.000Z</time>
      </trkpt>
      <trkpt lat="41.78944" lon="22.964796">
        <ele>1927.2</ele>
        <time>2026-05-06T13:03:39.000Z</time>
      </trkpt>
      <trkpt lat="41.789441" lon="22.964796">
        <ele>1927.2</ele>
        <time>2026-05-06T13:03:40.000Z</time>
      </trkpt>
      <trkpt lat="41.789442" lon="22.964796">
        <ele>1927.2</ele>
        <time>2026-05-06T13:03:41.000Z</time>
      </trkpt>
      <trkpt lat="41.789442" lon="22.964794">
        <ele>1927.2</ele>
        <time>2026-05-06T13:03:42.000Z</time>
      </trkpt>
      <trkpt lat="41.789442" lon="22.964792">
        <ele>1926.8</ele>
        <time>2026-05-06T13:03:43.000Z</time>
      </trkpt>
      <trkpt lat="41.789441" lon="22.964791">
        <ele>1926.8</ele>
        <time>2026-05-06T13:03:44.000Z</time>
      </trkpt>
      <trkpt lat="41.789439" lon="22.964789">
        <ele>1926.8</ele>
        <time>2026-05-06T13:03:45.000Z</time>
      </trkpt>
      <trkpt lat="41.789438" lon="22.964787">
        <ele>1926.8</ele>
        <time>2026-05-06T13:03:46.000Z</time>
      </trkpt>
      <trkpt lat="41.789437" lon="22.964787">
        <ele>1926.8</ele>
        <time>2026-05-06T13:03:47.000Z</time>
      </trkpt>
      <trkpt lat="41.789436" lon="22.964787">
        <ele>1926.6</ele>
        <time>2026-05-06T13:03:48.000Z</time>
      </trkpt>
      <trkpt lat="41.789436" lon="22.964786">
        <ele>1926.6</ele>
        <time>2026-05-06T13:03:49.000Z</time>
      </trkpt>
      <trkpt lat="41.789436" lon="22.964786">
        <ele>1926.6</ele>
        <time>2026-05-06T13:03:50.000Z</time>
      </trkpt>
      <trkpt lat="41.789436" lon="22.964786">
        <ele>1926.6</ele>
        <time>2026-05-06T13:03:51.000Z</time>
      </trkpt>
      <trkpt lat="41.789436" lon="22.964785">
        <ele>1926.6</ele>
        <time>2026-05-06T13:03:52.000Z</time>
      </trkpt>
      <trkpt lat="41.789436" lon="22.964784">
        <ele>1926.3</ele>
        <time>2026-05-06T13:03:53.000Z</time>
      </trkpt>
      <trkpt lat="41.789436" lon="22.964784">
        <ele>1926.3</ele>
        <time>2026-05-06T13:03:54.000Z</time>
      </trkpt>
      <trkpt lat="41.789436" lon="22.964784">
        <ele>1926.3</ele>
        <time>2026-05-06T13:03:55.000Z</time>
      </trkpt>
      <trkpt lat="41.789436" lon="22.964783">
        <ele>1926.3</ele>
        <time>2026-05-06T13:03:56.000Z</time>
      </trkpt>
      <trkpt lat="41.789436" lon="22.964783">
        <ele>1926.3</ele>
        <time>2026-05-06T13:03:57.000Z</time>
      </trkpt>
      <trkpt lat="41.789436" lon="22.964783">
        <ele>1926.4</ele>
        <time>2026-05-06T13:03:58.000Z</time>
      </trkpt>
      <trkpt lat="41.789436" lon="22.964783">
        <ele>1926.4</ele>
        <time>2026-05-06T13:03:59.000Z</time>
      </trkpt>
      <trkpt lat="41.789437" lon="22.964784">
        <ele>1926.4</ele>
        <time>2026-05-06T13:04:00.000Z</time>
      </trkpt>
      <trkpt lat="41.789437" lon="22.964784">
        <ele>1926.4</ele>
        <time>2026-05-06T13:04:01.000Z</time>
      </trkpt>
      <trkpt lat="41.789438" lon="22.964784">
        <ele>1926.4</ele>
        <time>2026-05-06T13:04:02.000Z</time>
      </trkpt>
      <trkpt lat="41.789438" lon="22.964785">
        <ele>1926.6</ele>
        <time>2026-05-06T13:04:03.000Z</time>
      </trkpt>
      <trkpt lat="41.789438" lon="22.964785">
        <ele>1926.6</ele>
        <time>2026-05-06T13:04:04.000Z</time>
      </trkpt>
      <trkpt lat="41.789438" lon="22.964785">
        <ele>1926.6</ele>
        <time>2026-05-06T13:04:05.000Z</time>
      </trkpt>
      <trkpt lat="41.789438" lon="22.964785">
        <ele>1926.6</ele>
        <time>2026-05-06T13:04:06.000Z</time>
      </trkpt>
      <trkpt lat="41.789438" lon="22.964785">
        <ele>1926.6</ele>
        <time>2026-05-06T13:04:07.000Z</time>
      </trkpt>
      <trkpt lat="41.789438" lon="22.964785">
        <ele>1927</ele>
        <time>2026-05-06T13:04:08.000Z</time>
      </trkpt>
      <trkpt lat="41.789438" lon="22.964785">
        <ele>1927</ele>
        <time>2026-05-06T13:04:09.000Z</time>
      </trkpt>
      <trkpt lat="41.789438" lon="22.964785">
        <ele>1927</ele>
        <time>2026-05-06T13:04:10.000Z</time>
      </trkpt>
      <trkpt lat="41.789438" lon="22.964785">
        <ele>1927</ele>
        <time>2026-05-06T13:04:11.000Z</time>
      </trkpt>
      <trkpt lat="41.789438" lon="22.964785">
        <ele>1927</ele>
        <time>2026-05-06T13:04:12.000Z</time>
      </trkpt>
      <trkpt lat="41.789438" lon="22.964785">
        <ele>1927</ele>
        <time>2026-05-06T13:04:13.000Z</time>
      </trkpt>
      <trkpt lat="41.789439" lon="22.964787">
        <ele>1927</ele>
        <time>2026-05-06T13:04:14.000Z</time>
      </trkpt>
      <trkpt lat="41.78944" lon="22.96479">
        <ele>1927</ele>
        <time>2026-05-06T13:04:15.000Z</time>
      </trkpt>
      <trkpt lat="41.789442" lon="22.964794">
        <ele>1927</ele>
        <time>2026-05-06T13:04:16.000Z</time>
      </trkpt>
      <trkpt lat="41.789443" lon="22.964801">
        <ele>1927</ele>
        <time>2026-05-06T13:04:17.000Z</time>
      </trkpt>
      <trkpt lat="41.789443" lon="22.964808">
        <ele>1926.9</ele>
        <time>2026-05-06T13:04:18.000Z</time>
      </trkpt>
      <trkpt lat="41.789442" lon="22.964812">
        <ele>1926.9</ele>
        <time>2026-05-06T13:04:19.000Z</time>
      </trkpt>
      <trkpt lat="41.789441" lon="22.964815">
        <ele>1926.9</ele>
        <time>2026-05-06T13:04:20.000Z</time>
      </trkpt>
      <trkpt lat="41.789439" lon="22.964817">
        <ele>1926.9</ele>
        <time>2026-05-06T13:04:21.000Z</time>
      </trkpt>
      <trkpt lat="41.789439" lon="22.964817">
        <ele>1926.9</ele>
        <time>2026-05-06T13:04:22.000Z</time>
      </trkpt>
      <trkpt lat="41.789439" lon="22.964816">
        <ele>1926.7</ele>
        <time>2026-05-06T13:04:23.000Z</time>
      </trkpt>
      <trkpt lat="41.78944" lon="22.964816">
        <ele>1926.7</ele>
        <time>2026-05-06T13:04:24.000Z</time>
      </trkpt>
      <trkpt lat="41.789441" lon="22.964816">
        <ele>1926.7</ele>
        <time>2026-05-06T13:04:25.000Z</time>
      </trkpt>
      <trkpt lat="41.789441" lon="22.964815">
        <ele>1926.7</ele>
        <time>2026-05-06T13:04:26.000Z</time>
      </trkpt>
      <trkpt lat="41.789441" lon="22.964813">
        <ele>1926.7</ele>
        <time>2026-05-06T13:04:27.000Z</time>
      </trkpt>
      <trkpt lat="41.78944" lon="22.964809">
        <ele>1926.2</ele>
        <time>2026-05-06T13:04:28.000Z</time>
      </trkpt>
      <trkpt lat="41.789441" lon="22.964805">
        <ele>1926.2</ele>
        <time>2026-05-06T13:04:29.000Z</time>
      </trkpt>
      <trkpt lat="41.78944" lon="22.964802">
        <ele>1926.2</ele>
        <time>2026-05-06T13:04:30.000Z</time>
      </trkpt>
      <trkpt lat="41.78944" lon="22.964798">
        <ele>1926.2</ele>
        <time>2026-05-06T13:04:31.000Z</time>
      </trkpt>
      <trkpt lat="41.789441" lon="22.964795">
        <ele>1926.2</ele>
        <time>2026-05-06T13:04:32.000Z</time>
      </trkpt>
      <trkpt lat="41.789441" lon="22.964794">
        <ele>1925.9</ele>
        <time>2026-05-06T13:04:33.000Z</time>
      </trkpt>
      <trkpt lat="41.789441" lon="22.964794">
        <ele>1925.9</ele>
        <time>2026-05-06T13:04:34.000Z</time>
      </trkpt>
      <trkpt lat="41.789441" lon="22.964792">
        <ele>1925.9</ele>
        <time>2026-05-06T13:04:35.000Z</time>
      </trkpt>
      <trkpt lat="41.789442" lon="22.964792">
        <ele>1925.9</ele>
        <time>2026-05-06T13:04:36.000Z</time>
      </trkpt>
      <trkpt lat="41.789443" lon="22.964792">
        <ele>1925.9</ele>
        <time>2026-05-06T13:04:37.000Z</time>
      </trkpt>
      <trkpt lat="41.789443" lon="22.964791">
        <ele>1925.6</ele>
        <time>2026-05-06T13:04:38.000Z</time>
      </trkpt>
      <trkpt lat="41.789444" lon="22.964791">
        <ele>1925.6</ele>
        <time>2026-05-06T13:04:39.000Z</time>
      </trkpt>
      <trkpt lat="41.789444" lon="22.964792">
        <ele>1925.6</ele>
        <time>2026-05-06T13:04:40.000Z</time>
      </trkpt>
      <trkpt lat="41.789444" lon="22.964792">
        <ele>1925.6</ele>
        <time>2026-05-06T13:04:41.000Z</time>
      </trkpt>
      <trkpt lat="41.789445" lon="22.964792">
        <ele>1925.6</ele>
        <time>2026-05-06T13:04:42.000Z</time>
      </trkpt>
      <trkpt lat="41.789445" lon="22.964792">
        <ele>1925.6</ele>
        <time>2026-05-06T13:04:43.000Z</time>
      </trkpt>
      <trkpt lat="41.789445" lon="22.964792">
        <ele>1925.6</ele>
        <time>2026-05-06T13:04:44.000Z</time>
      </trkpt>
      <trkpt lat="41.789445" lon="22.964792">
        <ele>1925.6</ele>
        <time>2026-05-06T13:04:45.000Z</time>
      </trkpt>
      <trkpt lat="41.789445" lon="22.964792">
        <ele>1925.6</ele>
        <time>2026-05-06T13:04:46.000Z</time>
      </trkpt>
      <trkpt lat="41.789443" lon="22.964792">
        <ele>1925.6</ele>
        <time>2026-05-06T13:04:47.000Z</time>
      </trkpt>
      <trkpt lat="41.789439" lon="22.964792">
        <ele>1925.6</ele>
        <time>2026-05-06T13:04:48.000Z</time>
      </trkpt>
      <trkpt lat="41.789437" lon="22.964792">
        <ele>1925.6</ele>
        <time>2026-05-06T13:04:49.000Z</time>
      </trkpt>
      <trkpt lat="41.789434" lon="22.964794">
        <ele>1925.6</ele>
        <time>2026-05-06T13:04:50.000Z</time>
      </trkpt>
      <trkpt lat="41.789431" lon="22.964794">
        <ele>1925.6</ele>
        <time>2026-05-06T13:04:51.000Z</time>
      </trkpt>
      <trkpt lat="41.789428" lon="22.964796">
        <ele>1925.6</ele>
        <time>2026-05-06T13:04:52.000Z</time>
      </trkpt>
      <trkpt lat="41.789426" lon="22.964797">
        <ele>1925.4</ele>
        <time>2026-05-06T13:04:53.000Z</time>
      </trkpt>
      <trkpt lat="41.78942" lon="22.964799">
        <ele>1925.4</ele>
        <time>2026-05-06T13:04:54.000Z</time>
      </trkpt>
      <trkpt lat="41.789414" lon="22.964801">
        <ele>1925.4</ele>
        <time>2026-05-06T13:04:55.000Z</time>
      </trkpt>
      <trkpt lat="41.789408" lon="22.964802">
        <ele>1925.4</ele>
        <time>2026-05-06T13:04:56.000Z</time>
      </trkpt>
      <trkpt lat="41.789401" lon="22.964804">
        <ele>1925.4</ele>
        <time>2026-05-06T13:04:57.000Z</time>
      </trkpt>
      <trkpt lat="41.789395" lon="22.964805">
        <ele>1925.4</ele>
        <time>2026-05-06T13:04:58.000Z</time>
      </trkpt>
      <trkpt lat="41.789389" lon="22.964806">
        <ele>1925.4</ele>
        <time>2026-05-06T13:04:59.000Z</time>
      </trkpt>
      <trkpt lat="41.789383" lon="22.964807">
        <ele>1925.4</ele>
        <time>2026-05-06T13:05:00.000Z</time>
      </trkpt>
      <trkpt lat="41.789378" lon="22.964807">
        <ele>1925.4</ele>
        <time>2026-05-06T13:05:01.000Z</time>
      </trkpt>
      <trkpt lat="41.789374" lon="22.964807">
        <ele>1925.4</ele>
        <time>2026-05-06T13:05:02.000Z</time>
      </trkpt>
      <trkpt lat="41.78937" lon="22.964806">
        <ele>1925.7</ele>
        <time>2026-05-06T13:05:03.000Z</time>
      </trkpt>
      <trkpt lat="41.789368" lon="22.964806">
        <ele>1925.7</ele>
        <time>2026-05-06T13:05:04.000Z</time>
      </trkpt>
      <trkpt lat="41.789367" lon="22.964805">
        <ele>1925.7</ele>
        <time>2026-05-06T13:05:05.000Z</time>
      </trkpt>
      <trkpt lat="41.789366" lon="22.964805">
        <ele>1925.7</ele>
        <time>2026-05-06T13:05:06.000Z</time>
      </trkpt>
      <trkpt lat="41.789365" lon="22.964805">
        <ele>1925.7</ele>
        <time>2026-05-06T13:05:07.000Z</time>
      </trkpt>
      <trkpt lat="41.789365" lon="22.964805">
        <ele>1926.6</ele>
        <time>2026-05-06T13:05:08.000Z</time>
      </trkpt>
      <trkpt lat="41.789365" lon="22.964805">
        <ele>1926.6</ele>
        <time>2026-05-06T13:05:09.000Z</time>
      </trkpt>
      <trkpt lat="41.789365" lon="22.964805">
        <ele>1926.6</ele>
        <time>2026-05-06T13:05:10.000Z</time>
      </trkpt>
      <trkpt lat="41.789365" lon="22.964805">
        <ele>1926.6</ele>
        <time>2026-05-06T13:05:11.000Z</time>
      </trkpt>
      <trkpt lat="41.789365" lon="22.964805">
        <ele>1926.6</ele>
        <time>2026-05-06T13:05:12.000Z</time>
      </trkpt>
      <trkpt lat="41.789364" lon="22.964805">
        <ele>1927.5</ele>
        <time>2026-05-06T13:05:13.000Z</time>
      </trkpt>
      <trkpt lat="41.789363" lon="22.964804">
        <ele>1927.5</ele>
        <time>2026-05-06T13:05:14.000Z</time>
      </trkpt>
      <trkpt lat="41.789362" lon="22.964803">
        <ele>1927.5</ele>
        <time>2026-05-06T13:05:15.000Z</time>
      </trkpt>
      <trkpt lat="41.789361" lon="22.964803">
        <ele>1927.5</ele>
        <time>2026-05-06T13:05:16.000Z</time>
      </trkpt>
      <trkpt lat="41.789359" lon="22.964803">
        <ele>1927.5</ele>
        <time>2026-05-06T13:05:17.000Z</time>
      </trkpt>
      <trkpt lat="41.789359" lon="22.964803">
        <ele>1927.9</ele>
        <time>2026-05-06T13:05:18.000Z</time>
      </trkpt>
      <trkpt lat="41.789359" lon="22.964804">
        <ele>1927.9</ele>
        <time>2026-05-06T13:05:19.000Z</time>
      </trkpt>
      <trkpt lat="41.789358" lon="22.964804">
        <ele>1927.9</ele>
        <time>2026-05-06T13:05:20.000Z</time>
      </trkpt>
      <trkpt lat="41.789358" lon="22.964805">
        <ele>1927.9</ele>
        <time>2026-05-06T13:05:21.000Z</time>
      </trkpt>
      <trkpt lat="41.789358" lon="22.964806">
        <ele>1927.9</ele>
        <time>2026-05-06T13:05:22.000Z</time>
      </trkpt>
      <trkpt lat="41.789358" lon="22.964807">
        <ele>1928.3</ele>
        <time>2026-05-06T13:05:23.000Z</time>
      </trkpt>
      <trkpt lat="41.789359" lon="22.964809">
        <ele>1928.3</ele>
        <time>2026-05-06T13:05:24.000Z</time>
      </trkpt>
      <trkpt lat="41.789359" lon="22.964811">
        <ele>1928.3</ele>
        <time>2026-05-06T13:05:25.000Z</time>
      </trkpt>
      <trkpt lat="41.789361" lon="22.964813">
        <ele>1928.3</ele>
        <time>2026-05-06T13:05:26.000Z</time>
      </trkpt>
      <trkpt lat="41.789361" lon="22.964814">
        <ele>1928.3</ele>
        <time>2026-05-06T13:05:27.000Z</time>
      </trkpt>
      <trkpt lat="41.789362" lon="22.964815">
        <ele>1928.3</ele>
        <time>2026-05-06T13:05:28.000Z</time>
      </trkpt>
      <trkpt lat="41.789362" lon="22.964815">
        <ele>1928.3</ele>
        <time>2026-05-06T13:05:29.000Z</time>
      </trkpt>
      <trkpt lat="41.789363" lon="22.964816">
        <ele>1928.3</ele>
        <time>2026-05-06T13:05:30.000Z</time>
      </trkpt>
      <trkpt lat="41.789363" lon="22.964816">
        <ele>1928.3</ele>
        <time>2026-05-06T13:05:31.000Z</time>
      </trkpt>
      <trkpt lat="41.789363" lon="22.964816">
        <ele>1928.3</ele>
        <time>2026-05-06T13:05:32.000Z</time>
      </trkpt>
      <trkpt lat="41.789363" lon="22.964816">
        <ele>1928.3</ele>
        <time>2026-05-06T13:05:33.000Z</time>
      </trkpt>
      <trkpt lat="41.789363" lon="22.964816">
        <ele>1928.3</ele>
        <time>2026-05-06T13:05:34.000Z</time>
      </trkpt>
      <trkpt lat="41.789363" lon="22.964816">
        <ele>1928.3</ele>
        <time>2026-05-06T13:05:35.000Z</time>
      </trkpt>
      <trkpt lat="41.789363" lon="22.964815">
        <ele>1928.3</ele>
        <time>2026-05-06T13:05:36.000Z</time>
      </trkpt>
      <trkpt lat="41.789362" lon="22.964815">
        <ele>1928.3</ele>
        <time>2026-05-06T13:05:37.000Z</time>
      </trkpt>
      <trkpt lat="41.789362" lon="22.964815">
        <ele>1928.3</ele>
        <time>2026-05-06T13:05:38.000Z</time>
      </trkpt>
      <trkpt lat="41.789362" lon="22.964814">
        <ele>1928.3</ele>
        <time>2026-05-06T13:05:39.000Z</time>
      </trkpt>
      <trkpt lat="41.789362" lon="22.964814">
        <ele>1928.3</ele>
        <time>2026-05-06T13:05:40.000Z</time>
      </trkpt>
      <trkpt lat="41.789361" lon="22.964814">
        <ele>1928.3</ele>
        <time>2026-05-06T13:05:41.000Z</time>
      </trkpt>
      <trkpt lat="41.789361" lon="22.964814">
        <ele>1928.3</ele>
        <time>2026-05-06T13:05:42.000Z</time>
      </trkpt>
      <trkpt lat="41.789361" lon="22.964815">
        <ele>1928.2</ele>
        <time>2026-05-06T13:05:43.000Z</time>
      </trkpt>
      <trkpt lat="41.789361" lon="22.964815">
        <ele>1928.2</ele>
        <time>2026-05-06T13:05:44.000Z</time>
      </trkpt>
      <trkpt lat="41.789361" lon="22.964815">
        <ele>1928.2</ele>
        <time>2026-05-06T13:05:45.000Z</time>
      </trkpt>
      <trkpt lat="41.789361" lon="22.964815">
        <ele>1928.2</ele>
        <time>2026-05-06T13:05:46.000Z</time>
      </trkpt>
      <trkpt lat="41.789361" lon="22.964815">
        <ele>1928.2</ele>
        <time>2026-05-06T13:05:47.000Z</time>
      </trkpt>
      <trkpt lat="41.789361" lon="22.964815">
        <ele>1928.2</ele>
        <time>2026-05-06T13:05:48.000Z</time>
      </trkpt>
      <trkpt lat="41.789361" lon="22.964815">
        <ele>1928.2</ele>
        <time>2026-05-06T13:05:49.000Z</time>
      </trkpt>
      <trkpt lat="41.789361" lon="22.964815">
        <ele>1928.2</ele>
        <time>2026-05-06T13:05:50.000Z</time>
      </trkpt>
      <trkpt lat="41.789361" lon="22.964815">
        <ele>1928.2</ele>
        <time>2026-05-06T13:05:51.000Z</time>
      </trkpt>
      <trkpt lat="41.789361" lon="22.964815">
        <ele>1928.2</ele>
        <time>2026-05-06T13:05:52.000Z</time>
      </trkpt>
      <trkpt lat="41.789361" lon="22.964815">
        <ele>1928.3</ele>
        <time>2026-05-06T13:05:53.000Z</time>
      </trkpt>
      <trkpt lat="41.789361" lon="22.964815">
        <ele>1928.3</ele>
        <time>2026-05-06T13:05:54.000Z</time>
      </trkpt>
      <trkpt lat="41.789361" lon="22.964815">
        <ele>1928.3</ele>
        <time>2026-05-06T13:05:55.000Z</time>
      </trkpt>
      <trkpt lat="41.789361" lon="22.964815">
        <ele>1928.3</ele>
        <time>2026-05-06T13:05:56.000Z</time>
      </trkpt>
      <trkpt lat="41.789361" lon="22.964815">
        <ele>1928.3</ele>
        <time>2026-05-06T13:05:57.000Z</time>
      </trkpt>
      <trkpt lat="41.789361" lon="22.964815">
        <ele>1928.3</ele>
        <time>2026-05-06T13:05:58.000Z</time>
      </trkpt>
      <trkpt lat="41.789361" lon="22.964815">
        <ele>1928.3</ele>
        <time>2026-05-06T13:05:59.000Z</time>
      </trkpt>
      <trkpt lat="41.789361" lon="22.964815">
        <ele>1928.3</ele>
        <time>2026-05-06T13:06:00.000Z</time>
      </trkpt>
      <trkpt lat="41.789361" lon="22.964815">
        <ele>1928.3</ele>
        <time>2026-05-06T13:06:01.000Z</time>
      </trkpt>
      <trkpt lat="41.78936" lon="22.964815">
        <ele>1928.3</ele>
        <time>2026-05-06T13:06:02.000Z</time>
      </trkpt>
      <trkpt lat="41.789359" lon="22.964815">
        <ele>1928.3</ele>
        <time>2026-05-06T13:06:03.000Z</time>
      </trkpt>
      <trkpt lat="41.789359" lon="22.964815">
        <ele>1928.3</ele>
        <time>2026-05-06T13:06:04.000Z</time>
      </trkpt>
      <trkpt lat="41.789358" lon="22.964815">
        <ele>1928.3</ele>
        <time>2026-05-06T13:06:05.000Z</time>
      </trkpt>
      <trkpt lat="41.789358" lon="22.964816">
        <ele>1928.3</ele>
        <time>2026-05-06T13:06:06.000Z</time>
      </trkpt>
      <trkpt lat="41.789358" lon="22.964816">
        <ele>1928.3</ele>
        <time>2026-05-06T13:06:07.000Z</time>
      </trkpt>
      <trkpt lat="41.789358" lon="22.964816">
        <ele>1928.4</ele>
        <time>2026-05-06T13:06:08.000Z</time>
      </trkpt>
      <trkpt lat="41.789358" lon="22.964816">
        <ele>1928.4</ele>
        <time>2026-05-06T13:06:09.000Z</time>
      </trkpt>
      <trkpt lat="41.789358" lon="22.964816">
        <ele>1928.4</ele>
        <time>2026-05-06T13:06:10.000Z</time>
      </trkpt>
      <trkpt lat="41.789358" lon="22.964816">
        <ele>1928.4</ele>
        <time>2026-05-06T13:06:11.000Z</time>
      </trkpt>
      <trkpt lat="41.789358" lon="22.964816">
        <ele>1928.4</ele>
        <time>2026-05-06T13:06:12.000Z</time>
      </trkpt>
      <trkpt lat="41.789358" lon="22.964816">
        <ele>1928.2</ele>
        <time>2026-05-06T13:06:13.000Z</time>
      </trkpt>
      <trkpt lat="41.789358" lon="22.964816">
        <ele>1928.2</ele>
        <time>2026-05-06T13:06:14.000Z</time>
      </trkpt>
      <trkpt lat="41.789358" lon="22.964816">
        <ele>1928.2</ele>
        <time>2026-05-06T13:06:15.000Z</time>
      </trkpt>
      <trkpt lat="41.789357" lon="22.964817">
        <ele>1928.2</ele>
        <time>2026-05-06T13:06:16.000Z</time>
      </trkpt>
      <trkpt lat="41.789357" lon="22.964818">
        <ele>1928.2</ele>
        <time>2026-05-06T13:06:17.000Z</time>
      </trkpt>
      <trkpt lat="41.789357" lon="22.964818">
        <ele>1928.1</ele>
        <time>2026-05-06T13:06:18.000Z</time>
      </trkpt>
      <trkpt lat="41.789356" lon="22.964819">
        <ele>1928.1</ele>
        <time>2026-05-06T13:06:19.000Z</time>
      </trkpt>
      <trkpt lat="41.789356" lon="22.96482">
        <ele>1928.1</ele>
        <time>2026-05-06T13:06:20.000Z</time>
      </trkpt>
      <trkpt lat="41.789356" lon="22.96482">
        <ele>1928.1</ele>
        <time>2026-05-06T13:06:21.000Z</time>
      </trkpt>
      <trkpt lat="41.789356" lon="22.96482">
        <ele>1928.1</ele>
        <time>2026-05-06T13:06:22.000Z</time>
      </trkpt>
      <trkpt lat="41.789356" lon="22.96482">
        <ele>1927.9</ele>
        <time>2026-05-06T13:06:23.000Z</time>
      </trkpt>
      <trkpt lat="41.789356" lon="22.96482">
        <ele>1927.9</ele>
        <time>2026-05-06T13:06:24.000Z</time>
      </trkpt>
      <trkpt lat="41.789356" lon="22.96482">
        <ele>1927.9</ele>
        <time>2026-05-06T13:06:25.000Z</time>
      </trkpt>
      <trkpt lat="41.789356" lon="22.96482">
        <ele>1927.9</ele>
        <time>2026-05-06T13:06:26.000Z</time>
      </trkpt>
      <trkpt lat="41.789356" lon="22.96482">
        <ele>1927.9</ele>
        <time>2026-05-06T13:06:27.000Z</time>
      </trkpt>
      <trkpt lat="41.789355" lon="22.96482">
        <ele>1927.8</ele>
        <time>2026-05-06T13:06:28.000Z</time>
      </trkpt>
      <trkpt lat="41.789355" lon="22.96482">
        <ele>1927.8</ele>
        <time>2026-05-06T13:06:29.000Z</time>
      </trkpt>
      <trkpt lat="41.789355" lon="22.964819">
        <ele>1927.8</ele>
        <time>2026-05-06T13:06:30.000Z</time>
      </trkpt>
      <trkpt lat="41.789355" lon="22.964818">
        <ele>1927.8</ele>
        <time>2026-05-06T13:06:31.000Z</time>
      </trkpt>
      <trkpt lat="41.789354" lon="22.964818">
        <ele>1927.8</ele>
        <time>2026-05-06T13:06:32.000Z</time>
      </trkpt>
      <trkpt lat="41.789354" lon="22.964818">
        <ele>1927.8</ele>
        <time>2026-05-06T13:06:33.000Z</time>
      </trkpt>
      <trkpt lat="41.789353" lon="22.964818">
        <ele>1927.8</ele>
        <time>2026-05-06T13:06:34.000Z</time>
      </trkpt>
      <trkpt lat="41.789352" lon="22.964818">
        <ele>1927.8</ele>
        <time>2026-05-06T13:06:35.000Z</time>
      </trkpt>
      <trkpt lat="41.789352" lon="22.964819">
        <ele>1927.8</ele>
        <time>2026-05-06T13:06:36.000Z</time>
      </trkpt>
      <trkpt lat="41.789351" lon="22.964819">
        <ele>1927.8</ele>
        <time>2026-05-06T13:06:37.000Z</time>
      </trkpt>
      <trkpt lat="41.789351" lon="22.964819">
        <ele>1927.5</ele>
        <time>2026-05-06T13:06:38.000Z</time>
      </trkpt>
      <trkpt lat="41.789351" lon="22.964819">
        <ele>1927.5</ele>
        <time>2026-05-06T13:06:39.000Z</time>
      </trkpt>
      <trkpt lat="41.789351" lon="22.964819">
        <ele>1927.5</ele>
        <time>2026-05-06T13:06:40.000Z</time>
      </trkpt>
      <trkpt lat="41.789351" lon="22.964819">
        <ele>1927.5</ele>
        <time>2026-05-06T13:06:41.000Z</time>
      </trkpt>
      <trkpt lat="41.789351" lon="22.964819">
        <ele>1927.5</ele>
        <time>2026-05-06T13:06:42.000Z</time>
      </trkpt>
      <trkpt lat="41.789352" lon="22.964819">
        <ele>1927.5</ele>
        <time>2026-05-06T13:06:43.000Z</time>
      </trkpt>
      <trkpt lat="41.789352" lon="22.964819">
        <ele>1927.5</ele>
        <time>2026-05-06T13:06:44.000Z</time>
      </trkpt>
      <trkpt lat="41.789351" lon="22.96482">
        <ele>1927.5</ele>
        <time>2026-05-06T13:06:45.000Z</time>
      </trkpt>
      <trkpt lat="41.789351" lon="22.96482">
        <ele>1927.5</ele>
        <time>2026-05-06T13:06:46.000Z</time>
      </trkpt>
      <trkpt lat="41.789351" lon="22.964821">
        <ele>1927.5</ele>
        <time>2026-05-06T13:06:47.000Z</time>
      </trkpt>
      <trkpt lat="41.78935" lon="22.964822">
        <ele>1927.5</ele>
        <time>2026-05-06T13:06:48.000Z</time>
      </trkpt>
      <trkpt lat="41.78935" lon="22.964822">
        <ele>1927.5</ele>
        <time>2026-05-06T13:06:49.000Z</time>
      </trkpt>
      <trkpt lat="41.789349" lon="22.964823">
        <ele>1927.5</ele>
        <time>2026-05-06T13:06:50.000Z</time>
      </trkpt>
      <trkpt lat="41.789349" lon="22.964823">
        <ele>1927.5</ele>
        <time>2026-05-06T13:06:51.000Z</time>
      </trkpt>
      <trkpt lat="41.789348" lon="22.964823">
        <ele>1927.5</ele>
        <time>2026-05-06T13:06:52.000Z</time>
      </trkpt>
      <trkpt lat="41.789348" lon="22.964823">
        <ele>1927.7</ele>
        <time>2026-05-06T13:06:53.000Z</time>
      </trkpt>
      <trkpt lat="41.789348" lon="22.964823">
        <ele>1927.7</ele>
        <time>2026-05-06T13:06:54.000Z</time>
      </trkpt>
      <trkpt lat="41.789349" lon="22.964823">
        <ele>1927.7</ele>
        <time>2026-05-06T13:06:55.000Z</time>
      </trkpt>
      <trkpt lat="41.789349" lon="22.964823">
        <ele>1927.7</ele>
        <time>2026-05-06T13:06:56.000Z</time>
      </trkpt>
      <trkpt lat="41.789349" lon="22.964823">
        <ele>1927.7</ele>
        <time>2026-05-06T13:06:57.000Z</time>
      </trkpt>
      <trkpt lat="41.789349" lon="22.964823">
        <ele>1927.8</ele>
        <time>2026-05-06T13:06:58.000Z</time>
      </trkpt>
      <trkpt lat="41.789349" lon="22.964823">
        <ele>1927.8</ele>
        <time>2026-05-06T13:06:59.000Z</time>
      </trkpt>
      <trkpt lat="41.789349" lon="22.964823">
        <ele>1927.8</ele>
        <time>2026-05-06T13:07:00.000Z</time>
      </trkpt>
      <trkpt lat="41.789349" lon="22.964823">
        <ele>1927.8</ele>
        <time>2026-05-06T13:07:01.000Z</time>
      </trkpt>
      <trkpt lat="41.789349" lon="22.964823">
        <ele>1927.8</ele>
        <time>2026-05-06T13:07:02.000Z</time>
      </trkpt>
      <trkpt lat="41.78935" lon="22.964822">
        <ele>1927.8</ele>
        <time>2026-05-06T13:07:03.000Z</time>
      </trkpt>
      <trkpt lat="41.789351" lon="22.96482">
        <ele>1927.8</ele>
        <time>2026-05-06T13:07:04.000Z</time>
      </trkpt>
      <trkpt lat="41.789355" lon="22.964817">
        <ele>1927.8</ele>
        <time>2026-05-06T13:07:05.000Z</time>
      </trkpt>
      <trkpt lat="41.789359" lon="22.964814">
        <ele>1927.8</ele>
        <time>2026-05-06T13:07:06.000Z</time>
      </trkpt>
      <trkpt lat="41.789363" lon="22.96481">
        <ele>1927.8</ele>
        <time>2026-05-06T13:07:07.000Z</time>
      </trkpt>
      <trkpt lat="41.789366" lon="22.964807">
        <ele>1927.8</ele>
        <time>2026-05-06T13:07:08.000Z</time>
      </trkpt>
      <trkpt lat="41.789369" lon="22.964805">
        <ele>1927.8</ele>
        <time>2026-05-06T13:07:09.000Z</time>
      </trkpt>
      <trkpt lat="41.789369" lon="22.964804">
        <ele>1927.8</ele>
        <time>2026-05-06T13:07:10.000Z</time>
      </trkpt>
      <trkpt lat="41.789368" lon="22.964803">
        <ele>1927.8</ele>
        <time>2026-05-06T13:07:11.000Z</time>
      </trkpt>
      <trkpt lat="41.789368" lon="22.964801">
        <ele>1927.8</ele>
        <time>2026-05-06T13:07:12.000Z</time>
      </trkpt>
      <trkpt lat="41.789367" lon="22.964801">
        <ele>1927.5</ele>
        <time>2026-05-06T13:07:13.000Z</time>
      </trkpt>
      <trkpt lat="41.789367" lon="22.9648">
        <ele>1927.5</ele>
        <time>2026-05-06T13:07:14.000Z</time>
      </trkpt>
      <trkpt lat="41.789367" lon="22.964799">
        <ele>1927.5</ele>
        <time>2026-05-06T13:07:15.000Z</time>
      </trkpt>
      <trkpt lat="41.789366" lon="22.964798">
        <ele>1927.5</ele>
        <time>2026-05-06T13:07:16.000Z</time>
      </trkpt>
      <trkpt lat="41.789366" lon="22.964797">
        <ele>1927.5</ele>
        <time>2026-05-06T13:07:17.000Z</time>
      </trkpt>
      <trkpt lat="41.789367" lon="22.964797">
        <ele>1927.4</ele>
        <time>2026-05-06T13:07:18.000Z</time>
      </trkpt>
      <trkpt lat="41.789367" lon="22.964797">
        <ele>1927.4</ele>
        <time>2026-05-06T13:07:19.000Z</time>
      </trkpt>
      <trkpt lat="41.789367" lon="22.964798">
        <ele>1927.4</ele>
        <time>2026-05-06T13:07:20.000Z</time>
      </trkpt>
      <trkpt lat="41.789367" lon="22.964798">
        <ele>1927.4</ele>
        <time>2026-05-06T13:07:21.000Z</time>
      </trkpt>
      <trkpt lat="41.789367" lon="22.964798">
        <ele>1927.4</ele>
        <time>2026-05-06T13:07:22.000Z</time>
      </trkpt>
      <trkpt lat="41.789367" lon="22.964798">
        <ele>1927.3</ele>
        <time>2026-05-06T13:07:23.000Z</time>
      </trkpt>
      <trkpt lat="41.789367" lon="22.964799">
        <ele>1927.3</ele>
        <time>2026-05-06T13:07:24.000Z</time>
      </trkpt>
      <trkpt lat="41.789367" lon="22.964799">
        <ele>1927.3</ele>
        <time>2026-05-06T13:07:25.000Z</time>
      </trkpt>
      <trkpt lat="41.789367" lon="22.9648">
        <ele>1927.3</ele>
        <time>2026-05-06T13:07:26.000Z</time>
      </trkpt>
      <trkpt lat="41.789367" lon="22.964801">
        <ele>1927.3</ele>
        <time>2026-05-06T13:07:27.000Z</time>
      </trkpt>
      <trkpt lat="41.789366" lon="22.964801">
        <ele>1927.1</ele>
        <time>2026-05-06T13:07:28.000Z</time>
      </trkpt>
      <trkpt lat="41.789366" lon="22.964802">
        <ele>1927.1</ele>
        <time>2026-05-06T13:07:29.000Z</time>
      </trkpt>
      <trkpt lat="41.789367" lon="22.964802">
        <ele>1927.1</ele>
        <time>2026-05-06T13:07:30.000Z</time>
      </trkpt>
      <trkpt lat="41.789368" lon="22.964802">
        <ele>1927.1</ele>
        <time>2026-05-06T13:07:31.000Z</time>
      </trkpt>
      <trkpt lat="41.789369" lon="22.964803">
        <ele>1927.1</ele>
        <time>2026-05-06T13:07:32.000Z</time>
      </trkpt>
      <trkpt lat="41.789369" lon="22.964804">
        <ele>1926.9</ele>
        <time>2026-05-06T13:07:33.000Z</time>
      </trkpt>
      <trkpt lat="41.78937" lon="22.964805">
        <ele>1926.9</ele>
        <time>2026-05-06T13:07:34.000Z</time>
      </trkpt>
      <trkpt lat="41.78937" lon="22.964807">
        <ele>1926.9</ele>
        <time>2026-05-06T13:07:35.000Z</time>
      </trkpt>
      <trkpt lat="41.78937" lon="22.964809">
        <ele>1926.9</ele>
        <time>2026-05-06T13:07:36.000Z</time>
      </trkpt>
      <trkpt lat="41.78937" lon="22.96481">
        <ele>1926.9</ele>
        <time>2026-05-06T13:07:37.000Z</time>
      </trkpt>
      <trkpt lat="41.78937" lon="22.964811">
        <ele>1926.6</ele>
        <time>2026-05-06T13:07:38.000Z</time>
      </trkpt>
      <trkpt lat="41.78937" lon="22.964811">
        <ele>1926.6</ele>
        <time>2026-05-06T13:07:39.000Z</time>
      </trkpt>
      <trkpt lat="41.789369" lon="22.964811">
        <ele>1926.6</ele>
        <time>2026-05-06T13:07:40.000Z</time>
      </trkpt>
      <trkpt lat="41.789369" lon="22.964811">
        <ele>1926.6</ele>
        <time>2026-05-06T13:07:41.000Z</time>
      </trkpt>
      <trkpt lat="41.789369" lon="22.964812">
        <ele>1926.6</ele>
        <time>2026-05-06T13:07:42.000Z</time>
      </trkpt>
      <trkpt lat="41.789368" lon="22.964811">
        <ele>1926.3</ele>
        <time>2026-05-06T13:07:43.000Z</time>
      </trkpt>
      <trkpt lat="41.789368" lon="22.96481">
        <ele>1926.3</ele>
        <time>2026-05-06T13:07:44.000Z</time>
      </trkpt>
      <trkpt lat="41.789367" lon="22.96481">
        <ele>1926.3</ele>
        <time>2026-05-06T13:07:45.000Z</time>
      </trkpt>
      <trkpt lat="41.789366" lon="22.964809">
        <ele>1926.3</ele>
        <time>2026-05-06T13:07:46.000Z</time>
      </trkpt>
      <trkpt lat="41.789366" lon="22.964808">
        <ele>1926.3</ele>
        <time>2026-05-06T13:07:47.000Z</time>
      </trkpt>
      <trkpt lat="41.789366" lon="22.964808">
        <ele>1926.2</ele>
        <time>2026-05-06T13:07:48.000Z</time>
      </trkpt>
      <trkpt lat="41.789365" lon="22.964808">
        <ele>1926.2</ele>
        <time>2026-05-06T13:07:49.000Z</time>
      </trkpt>
      <trkpt lat="41.789364" lon="22.964808">
        <ele>1926.2</ele>
        <time>2026-05-06T13:07:50.000Z</time>
      </trkpt>
      <trkpt lat="41.789364" lon="22.964808">
        <ele>1926.2</ele>
        <time>2026-05-06T13:07:51.000Z</time>
      </trkpt>
      <trkpt lat="41.789362" lon="22.964808">
        <ele>1926.2</ele>
        <time>2026-05-06T13:07:52.000Z</time>
      </trkpt>
      <trkpt lat="41.78936" lon="22.964807">
        <ele>1926.6</ele>
        <time>2026-05-06T13:07:53.000Z</time>
      </trkpt>
      <trkpt lat="41.789358" lon="22.964807">
        <ele>1926.6</ele>
        <time>2026-05-06T13:07:54.000Z</time>
      </trkpt>
      <trkpt lat="41.789355" lon="22.964807">
        <ele>1926.6</ele>
        <time>2026-05-06T13:07:55.000Z</time>
      </trkpt>
      <trkpt lat="41.789352" lon="22.964807">
        <ele>1926.6</ele>
        <time>2026-05-06T13:07:56.000Z</time>
      </trkpt>
      <trkpt lat="41.789351" lon="22.964808">
        <ele>1926.6</ele>
        <time>2026-05-06T13:07:57.000Z</time>
      </trkpt>
      <trkpt lat="41.789351" lon="22.964808">
        <ele>1927.5</ele>
        <time>2026-05-06T13:07:58.000Z</time>
      </trkpt>
      <trkpt lat="41.78935" lon="22.964808">
        <ele>1927.5</ele>
        <time>2026-05-06T13:07:59.000Z</time>
      </trkpt>
      <trkpt lat="41.789351" lon="22.964809">
        <ele>1927.5</ele>
        <time>2026-05-06T13:08:00.000Z</time>
      </trkpt>
      <trkpt lat="41.789352" lon="22.96481">
        <ele>1927.5</ele>
        <time>2026-05-06T13:08:01.000Z</time>
      </trkpt>
      <trkpt lat="41.789352" lon="22.964812">
        <ele>1927.5</ele>
        <time>2026-05-06T13:08:02.000Z</time>
      </trkpt>
      <trkpt lat="41.789352" lon="22.964813">
        <ele>1927.9</ele>
        <time>2026-05-06T13:08:03.000Z</time>
      </trkpt>
      <trkpt lat="41.789353" lon="22.964814">
        <ele>1927.9</ele>
        <time>2026-05-06T13:08:04.000Z</time>
      </trkpt>
      <trkpt lat="41.789353" lon="22.964814">
        <ele>1927.9</ele>
        <time>2026-05-06T13:08:05.000Z</time>
      </trkpt>
      <trkpt lat="41.789354" lon="22.964814">
        <ele>1927.9</ele>
        <time>2026-05-06T13:08:06.000Z</time>
      </trkpt>
      <trkpt lat="41.789354" lon="22.964814">
        <ele>1927.9</ele>
        <time>2026-05-06T13:08:07.000Z</time>
      </trkpt>
      <trkpt lat="41.789354" lon="22.964814">
        <ele>1928.3</ele>
        <time>2026-05-06T13:08:08.000Z</time>
      </trkpt>
      <trkpt lat="41.789355" lon="22.964814">
        <ele>1928.3</ele>
        <time>2026-05-06T13:08:09.000Z</time>
      </trkpt>
      <trkpt lat="41.789355" lon="22.964814">
        <ele>1928.3</ele>
        <time>2026-05-06T13:08:10.000Z</time>
      </trkpt>
      <trkpt lat="41.789355" lon="22.964814">
        <ele>1928.3</ele>
        <time>2026-05-06T13:08:11.000Z</time>
      </trkpt>
      <trkpt lat="41.789355" lon="22.964814">
        <ele>1928.3</ele>
        <time>2026-05-06T13:08:12.000Z</time>
      </trkpt>
      <trkpt lat="41.789355" lon="22.964814">
        <ele>1928.3</ele>
        <time>2026-05-06T13:08:13.000Z</time>
      </trkpt>
      <trkpt lat="41.789355" lon="22.964814">
        <ele>1928.3</ele>
        <time>2026-05-06T13:08:14.000Z</time>
      </trkpt>
      <trkpt lat="41.789355" lon="22.964814">
        <ele>1928.3</ele>
        <time>2026-05-06T13:08:15.000Z</time>
      </trkpt>
      <trkpt lat="41.789355" lon="22.964814">
        <ele>1928.3</ele>
        <time>2026-05-06T13:08:16.000Z</time>
      </trkpt>
      <trkpt lat="41.789355" lon="22.964814">
        <ele>1928.3</ele>
        <time>2026-05-06T13:08:17.000Z</time>
      </trkpt>
      <trkpt lat="41.789355" lon="22.964814">
        <ele>1928.3</ele>
        <time>2026-05-06T13:08:18.000Z</time>
      </trkpt>
      <trkpt lat="41.789355" lon="22.964814">
        <ele>1928.3</ele>
        <time>2026-05-06T13:08:19.000Z</time>
      </trkpt>
      <trkpt lat="41.789355" lon="22.964814">
        <ele>1928.3</ele>
        <time>2026-05-06T13:08:20.000Z</time>
      </trkpt>
      <trkpt lat="41.789355" lon="22.964814">
        <ele>1928.3</ele>
        <time>2026-05-06T13:08:21.000Z</time>
      </trkpt>
      <trkpt lat="41.789355" lon="22.964814">
        <ele>1928.3</ele>
        <time>2026-05-06T13:08:22.000Z</time>
      </trkpt>
      <trkpt lat="41.789355" lon="22.964814">
        <ele>1928.6</ele>
        <time>2026-05-06T13:08:23.000Z</time>
      </trkpt>
      <trkpt lat="41.789355" lon="22.964814">
        <ele>1928.6</ele>
        <time>2026-05-06T13:08:24.000Z</time>
      </trkpt>
      <trkpt lat="41.789355" lon="22.964814">
        <ele>1928.6</ele>
        <time>2026-05-06T13:08:25.000Z</time>
      </trkpt>
      <trkpt lat="41.789354" lon="22.964813">
        <ele>1928.6</ele>
        <time>2026-05-06T13:08:26.000Z</time>
      </trkpt>
      <trkpt lat="41.789354" lon="22.964812">
        <ele>1928.6</ele>
        <time>2026-05-06T13:08:27.000Z</time>
      </trkpt>
      <trkpt lat="41.789354" lon="22.964811">
        <ele>1929</ele>
        <time>2026-05-06T13:08:28.000Z</time>
      </trkpt>
      <trkpt lat="41.789354" lon="22.96481">
        <ele>1929</ele>
        <time>2026-05-06T13:08:29.000Z</time>
      </trkpt>
      <trkpt lat="41.789354" lon="22.964809">
        <ele>1929</ele>
        <time>2026-05-06T13:08:30.000Z</time>
      </trkpt>
      <trkpt lat="41.789355" lon="22.96481">
        <ele>1929</ele>
        <time>2026-05-06T13:08:31.000Z</time>
      </trkpt>
      <trkpt lat="41.789357" lon="22.96481">
        <ele>1929</ele>
        <time>2026-05-06T13:08:32.000Z</time>
      </trkpt>
      <trkpt lat="41.789359" lon="22.964811">
        <ele>1929.1</ele>
        <time>2026-05-06T13:08:33.000Z</time>
      </trkpt>
      <trkpt lat="41.789361" lon="22.964811">
        <ele>1929.1</ele>
        <time>2026-05-06T13:08:34.000Z</time>
      </trkpt>
      <trkpt lat="41.789362" lon="22.96481">
        <ele>1929.1</ele>
        <time>2026-05-06T13:08:35.000Z</time>
      </trkpt>
      <trkpt lat="41.789363" lon="22.964809">
        <ele>1929.1</ele>
        <time>2026-05-06T13:08:36.000Z</time>
      </trkpt>
      <trkpt lat="41.789364" lon="22.964808">
        <ele>1929.1</ele>
        <time>2026-05-06T13:08:37.000Z</time>
      </trkpt>
      <trkpt lat="41.789364" lon="22.964806">
        <ele>1928.6</ele>
        <time>2026-05-06T13:08:38.000Z</time>
      </trkpt>
      <trkpt lat="41.789365" lon="22.964805">
        <ele>1928.6</ele>
        <time>2026-05-06T13:08:39.000Z</time>
      </trkpt>
      <trkpt lat="41.789366" lon="22.964805">
        <ele>1928.6</ele>
        <time>2026-05-06T13:08:40.000Z</time>
      </trkpt>
      <trkpt lat="41.789366" lon="22.964805">
        <ele>1928.6</ele>
        <time>2026-05-06T13:08:41.000Z</time>
      </trkpt>
      <trkpt lat="41.789367" lon="22.964804">
        <ele>1928.6</ele>
        <time>2026-05-06T13:08:42.000Z</time>
      </trkpt>
      <trkpt lat="41.789367" lon="22.964804">
        <ele>1927.9</ele>
        <time>2026-05-06T13:08:43.000Z</time>
      </trkpt>
      <trkpt lat="41.789367" lon="22.964804">
        <ele>1927.9</ele>
        <time>2026-05-06T13:08:44.000Z</time>
      </trkpt>
      <trkpt lat="41.789367" lon="22.964804">
        <ele>1927.9</ele>
        <time>2026-05-06T13:08:45.000Z</time>
      </trkpt>
      <trkpt lat="41.789367" lon="22.964804">
        <ele>1927.9</ele>
        <time>2026-05-06T13:08:46.000Z</time>
      </trkpt>
      <trkpt lat="41.789368" lon="22.964804">
        <ele>1927.9</ele>
        <time>2026-05-06T13:08:47.000Z</time>
      </trkpt>
      <trkpt lat="41.789368" lon="22.964804">
        <ele>1928.1</ele>
        <time>2026-05-06T13:08:48.000Z</time>
      </trkpt>
      <trkpt lat="41.789369" lon="22.964803">
        <ele>1928.1</ele>
        <time>2026-05-06T13:08:49.000Z</time>
      </trkpt>
      <trkpt lat="41.789369" lon="22.964803">
        <ele>1928.1</ele>
        <time>2026-05-06T13:08:50.000Z</time>
      </trkpt>
      <trkpt lat="41.78937" lon="22.964802">
        <ele>1928.1</ele>
        <time>2026-05-06T13:08:51.000Z</time>
      </trkpt>
      <trkpt lat="41.789369" lon="22.964802">
        <ele>1928.1</ele>
        <time>2026-05-06T13:08:52.000Z</time>
      </trkpt>
      <trkpt lat="41.789367" lon="22.964803">
        <ele>1929.3</ele>
        <time>2026-05-06T13:08:53.000Z</time>
      </trkpt>
      <trkpt lat="41.789366" lon="22.964803">
        <ele>1929.3</ele>
        <time>2026-05-06T13:08:54.000Z</time>
      </trkpt>
      <trkpt lat="41.789364" lon="22.964803">
        <ele>1929.3</ele>
        <time>2026-05-06T13:08:55.000Z</time>
      </trkpt>
      <trkpt lat="41.789362" lon="22.964802">
        <ele>1929.3</ele>
        <time>2026-05-06T13:08:56.000Z</time>
      </trkpt>
      <trkpt lat="41.789363" lon="22.964799">
        <ele>1929.3</ele>
        <time>2026-05-06T13:08:57.000Z</time>
      </trkpt>
      <trkpt lat="41.789365" lon="22.964795">
        <ele>1930</ele>
        <time>2026-05-06T13:08:58.000Z</time>
      </trkpt>
      <trkpt lat="41.789367" lon="22.964791">
        <ele>1930</ele>
        <time>2026-05-06T13:08:59.000Z</time>
      </trkpt>
      <trkpt lat="41.789371" lon="22.964785">
        <ele>1930</ele>
        <time>2026-05-06T13:09:00.000Z</time>
      </trkpt>
      <trkpt lat="41.789377" lon="22.96478">
        <ele>1930</ele>
        <time>2026-05-06T13:09:01.000Z</time>
      </trkpt>
      <trkpt lat="41.789383" lon="22.964777">
        <ele>1930</ele>
        <time>2026-05-06T13:09:02.000Z</time>
      </trkpt>
      <trkpt lat="41.789391" lon="22.964775">
        <ele>1929.8</ele>
        <time>2026-05-06T13:09:03.000Z</time>
      </trkpt>
      <trkpt lat="41.789399" lon="22.964775">
        <ele>1929.8</ele>
        <time>2026-05-06T13:09:04.000Z</time>
      </trkpt>
      <trkpt lat="41.789406" lon="22.964778">
        <ele>1929.8</ele>
        <time>2026-05-06T13:09:05.000Z</time>
      </trkpt>
      <trkpt lat="41.789412" lon="22.964781">
        <ele>1929.8</ele>
        <time>2026-05-06T13:09:06.000Z</time>
      </trkpt>
      <trkpt lat="41.789415" lon="22.964784">
        <ele>1929.8</ele>
        <time>2026-05-06T13:09:07.000Z</time>
      </trkpt>
      <trkpt lat="41.789418" lon="22.964786">
        <ele>1929</ele>
        <time>2026-05-06T13:09:08.000Z</time>
      </trkpt>
      <trkpt lat="41.78942" lon="22.964786">
        <ele>1929</ele>
        <time>2026-05-06T13:09:09.000Z</time>
      </trkpt>
      <trkpt lat="41.789421" lon="22.964786">
        <ele>1929</ele>
        <time>2026-05-06T13:09:10.000Z</time>
      </trkpt>
      <trkpt lat="41.789423" lon="22.964787">
        <ele>1929</ele>
        <time>2026-05-06T13:09:11.000Z</time>
      </trkpt>
      <trkpt lat="41.789424" lon="22.964788">
        <ele>1929</ele>
        <time>2026-05-06T13:09:12.000Z</time>
      </trkpt>
      <trkpt lat="41.789424" lon="22.964787">
        <ele>1928</ele>
        <time>2026-05-06T13:09:13.000Z</time>
      </trkpt>
      <trkpt lat="41.789424" lon="22.964786">
        <ele>1928</ele>
        <time>2026-05-06T13:09:14.000Z</time>
      </trkpt>
      <trkpt lat="41.789424" lon="22.964786">
        <ele>1928</ele>
        <time>2026-05-06T13:09:15.000Z</time>
      </trkpt>
      <trkpt lat="41.789424" lon="22.964785">
        <ele>1928</ele>
        <time>2026-05-06T13:09:16.000Z</time>
      </trkpt>
      <trkpt lat="41.789424" lon="22.964784">
        <ele>1928</ele>
        <time>2026-05-06T13:09:17.000Z</time>
      </trkpt>
      <trkpt lat="41.789424" lon="22.964783">
        <ele>1927.5</ele>
        <time>2026-05-06T13:09:18.000Z</time>
      </trkpt>
      <trkpt lat="41.789424" lon="22.964783">
        <ele>1927.5</ele>
        <time>2026-05-06T13:09:19.000Z</time>
      </trkpt>
      <trkpt lat="41.789423" lon="22.964783">
        <ele>1927.5</ele>
        <time>2026-05-06T13:09:20.000Z</time>
      </trkpt>
      <trkpt lat="41.789423" lon="22.964783">
        <ele>1927.5</ele>
        <time>2026-05-06T13:09:21.000Z</time>
      </trkpt>
      <trkpt lat="41.789422" lon="22.964783">
        <ele>1927.5</ele>
        <time>2026-05-06T13:09:22.000Z</time>
      </trkpt>
      <trkpt lat="41.789422" lon="22.964783">
        <ele>1926.8</ele>
        <time>2026-05-06T13:09:23.000Z</time>
      </trkpt>
      <trkpt lat="41.789421" lon="22.964782">
        <ele>1926.8</ele>
        <time>2026-05-06T13:09:24.000Z</time>
      </trkpt>
      <trkpt lat="41.789421" lon="22.964782">
        <ele>1926.8</ele>
        <time>2026-05-06T13:09:25.000Z</time>
      </trkpt>
      <trkpt lat="41.789421" lon="22.964782">
        <ele>1926.8</ele>
        <time>2026-05-06T13:09:26.000Z</time>
      </trkpt>
      <trkpt lat="41.789422" lon="22.964782">
        <ele>1926.8</ele>
        <time>2026-05-06T13:09:27.000Z</time>
      </trkpt>
      <trkpt lat="41.789422" lon="22.964783">
        <ele>1926.4</ele>
        <time>2026-05-06T13:09:28.000Z</time>
      </trkpt>
      <trkpt lat="41.789422" lon="22.964784">
        <ele>1926.4</ele>
        <time>2026-05-06T13:09:29.000Z</time>
      </trkpt>
      <trkpt lat="41.789422" lon="22.964784">
        <ele>1926.4</ele>
        <time>2026-05-06T13:09:30.000Z</time>
      </trkpt>
      <trkpt lat="41.789421" lon="22.964784">
        <ele>1926.4</ele>
        <time>2026-05-06T13:09:31.000Z</time>
      </trkpt>
      <trkpt lat="41.789421" lon="22.964784">
        <ele>1926.4</ele>
        <time>2026-05-06T13:09:32.000Z</time>
      </trkpt>
      <trkpt lat="41.789421" lon="22.964783">
        <ele>1926.2</ele>
        <time>2026-05-06T13:09:33.000Z</time>
      </trkpt>
      <trkpt lat="41.789421" lon="22.964782">
        <ele>1926.2</ele>
        <time>2026-05-06T13:09:34.000Z</time>
      </trkpt>
      <trkpt lat="41.78942" lon="22.964782">
        <ele>1926.2</ele>
        <time>2026-05-06T13:09:35.000Z</time>
      </trkpt>
      <trkpt lat="41.78942" lon="22.964781">
        <ele>1926.2</ele>
        <time>2026-05-06T13:09:36.000Z</time>
      </trkpt>
      <trkpt lat="41.78942" lon="22.964781">
        <ele>1926.2</ele>
        <time>2026-05-06T13:09:37.000Z</time>
      </trkpt>
      <trkpt lat="41.78942" lon="22.964781">
        <ele>1926</ele>
        <time>2026-05-06T13:09:38.000Z</time>
      </trkpt>
      <trkpt lat="41.78942" lon="22.964781">
        <ele>1926</ele>
        <time>2026-05-06T13:09:39.000Z</time>
      </trkpt>
      <trkpt lat="41.789421" lon="22.964781">
        <ele>1926</ele>
        <time>2026-05-06T13:09:40.000Z</time>
      </trkpt>
      <trkpt lat="41.789421" lon="22.964781">
        <ele>1926</ele>
        <time>2026-05-06T13:09:41.000Z</time>
      </trkpt>
      <trkpt lat="41.789421" lon="22.964781">
        <ele>1926</ele>
        <time>2026-05-06T13:09:42.000Z</time>
      </trkpt>
      <trkpt lat="41.789421" lon="22.964781">
        <ele>1926</ele>
        <time>2026-05-06T13:09:43.000Z</time>
      </trkpt>
      <trkpt lat="41.789421" lon="22.964781">
        <ele>1926</ele>
        <time>2026-05-06T13:09:44.000Z</time>
      </trkpt>
      <trkpt lat="41.789421" lon="22.964781">
        <ele>1926</ele>
        <time>2026-05-06T13:09:45.000Z</time>
      </trkpt>
      <trkpt lat="41.789421" lon="22.964781">
        <ele>1926</ele>
        <time>2026-05-06T13:09:46.000Z</time>
      </trkpt>
      <trkpt lat="41.789421" lon="22.964781">
        <ele>1926</ele>
        <time>2026-05-06T13:09:47.000Z</time>
      </trkpt>
      <trkpt lat="41.789421" lon="22.964781">
        <ele>1926</ele>
        <time>2026-05-06T13:09:48.000Z</time>
      </trkpt>
      <trkpt lat="41.789421" lon="22.964781">
        <ele>1926</ele>
        <time>2026-05-06T13:09:49.000Z</time>
      </trkpt>
      <trkpt lat="41.789422" lon="22.96478">
        <ele>1926</ele>
        <time>2026-05-06T13:09:50.000Z</time>
      </trkpt>
      <trkpt lat="41.789422" lon="22.96478">
        <ele>1926</ele>
        <time>2026-05-06T13:09:51.000Z</time>
      </trkpt>
      <trkpt lat="41.789422" lon="22.96478">
        <ele>1926</ele>
        <time>2026-05-06T13:09:52.000Z</time>
      </trkpt>
      <trkpt lat="41.789423" lon="22.96478">
        <ele>1925.7</ele>
        <time>2026-05-06T13:09:53.000Z</time>
      </trkpt>
      <trkpt lat="41.789423" lon="22.96478">
        <ele>1925.7</ele>
        <time>2026-05-06T13:09:54.000Z</time>
      </trkpt>
      <trkpt lat="41.789423" lon="22.96478">
        <ele>1925.7</ele>
        <time>2026-05-06T13:09:55.000Z</time>
      </trkpt>
      <trkpt lat="41.789423" lon="22.96478">
        <ele>1925.7</ele>
        <time>2026-05-06T13:09:56.000Z</time>
      </trkpt>
      <trkpt lat="41.789423" lon="22.96478">
        <ele>1925.7</ele>
        <time>2026-05-06T13:09:57.000Z</time>
      </trkpt>
      <trkpt lat="41.789423" lon="22.96478">
        <ele>1925.5</ele>
        <time>2026-05-06T13:09:58.000Z</time>
      </trkpt>
      <trkpt lat="41.789423" lon="22.96478">
        <ele>1925.5</ele>
        <time>2026-05-06T13:09:59.000Z</time>
      </trkpt>
      <trkpt lat="41.789423" lon="22.96478">
        <ele>1925.5</ele>
        <time>2026-05-06T13:10:00.000Z</time>
      </trkpt>
      <trkpt lat="41.789423" lon="22.96478">
        <ele>1925.5</ele>
        <time>2026-05-06T13:10:01.000Z</time>
      </trkpt>
      <trkpt lat="41.789423" lon="22.96478">
        <ele>1925.5</ele>
        <time>2026-05-06T13:10:02.000Z</time>
      </trkpt>
      <trkpt lat="41.789423" lon="22.96478">
        <ele>1925.5</ele>
        <time>2026-05-06T13:10:03.000Z</time>
      </trkpt>
      <trkpt lat="41.789423" lon="22.96478">
        <ele>1925.5</ele>
        <time>2026-05-06T13:10:04.000Z</time>
      </trkpt>
      <trkpt lat="41.789423" lon="22.96478">
        <ele>1925.5</ele>
        <time>2026-05-06T13:10:05.000Z</time>
      </trkpt>
      <trkpt lat="41.789423" lon="22.96478">
        <ele>1925.5</ele>
        <time>2026-05-06T13:10:06.000Z</time>
      </trkpt>
      <trkpt lat="41.789423" lon="22.96478">
        <ele>1925.5</ele>
        <time>2026-05-06T13:10:07.000Z</time>
      </trkpt>
      <trkpt lat="41.789423" lon="22.96478">
        <ele>1925.8</ele>
        <time>2026-05-06T13:10:08.000Z</time>
      </trkpt>
      <trkpt lat="41.789423" lon="22.96478">
        <ele>1925.8</ele>
        <time>2026-05-06T13:10:09.000Z</time>
      </trkpt>
      <trkpt lat="41.789423" lon="22.96478">
        <ele>1925.8</ele>
        <time>2026-05-06T13:10:10.000Z</time>
      </trkpt>
      <trkpt lat="41.789424" lon="22.96478">
        <ele>1925.8</ele>
        <time>2026-05-06T13:10:11.000Z</time>
      </trkpt>
      <trkpt lat="41.789426" lon="22.964779">
        <ele>1925.8</ele>
        <time>2026-05-06T13:10:12.000Z</time>
      </trkpt>
      <trkpt lat="41.789429" lon="22.96478">
        <ele>1926</ele>
        <time>2026-05-06T13:10:13.000Z</time>
      </trkpt>
      <trkpt lat="41.789433" lon="22.964782">
        <ele>1926</ele>
        <time>2026-05-06T13:10:14.000Z</time>
      </trkpt>
      <trkpt lat="41.789438" lon="22.964787">
        <ele>1926</ele>
        <time>2026-05-06T13:10:15.000Z</time>
      </trkpt>
      <trkpt lat="41.789442" lon="22.964794">
        <ele>1926</ele>
        <time>2026-05-06T13:10:16.000Z</time>
      </trkpt>
      <trkpt lat="41.789446" lon="22.964801">
        <ele>1926</ele>
        <time>2026-05-06T13:10:17.000Z</time>
      </trkpt>
      <trkpt lat="41.789448" lon="22.964807">
        <ele>1926</ele>
        <time>2026-05-06T13:10:18.000Z</time>
      </trkpt>
      <trkpt lat="41.789448" lon="22.964812">
        <ele>1926</ele>
        <time>2026-05-06T13:10:19.000Z</time>
      </trkpt>
      <trkpt lat="41.789446" lon="22.964815">
        <ele>1926</ele>
        <time>2026-05-06T13:10:20.000Z</time>
      </trkpt>
      <trkpt lat="41.789445" lon="22.964816">
        <ele>1926</ele>
        <time>2026-05-06T13:10:21.000Z</time>
      </trkpt>
      <trkpt lat="41.789444" lon="22.964816">
        <ele>1926</ele>
        <time>2026-05-06T13:10:22.000Z</time>
      </trkpt>
      <trkpt lat="41.789445" lon="22.964816">
        <ele>1925.9</ele>
        <time>2026-05-06T13:10:23.000Z</time>
      </trkpt>
      <trkpt lat="41.789446" lon="22.964815">
        <ele>1925.9</ele>
        <time>2026-05-06T13:10:24.000Z</time>
      </trkpt>
      <trkpt lat="41.789448" lon="22.964814">
        <ele>1925.9</ele>
        <time>2026-05-06T13:10:25.000Z</time>
      </trkpt>
      <trkpt lat="41.789449" lon="22.964813">
        <ele>1925.9</ele>
        <time>2026-05-06T13:10:26.000Z</time>
      </trkpt>
      <trkpt lat="41.789449" lon="22.964812">
        <ele>1925.9</ele>
        <time>2026-05-06T13:10:27.000Z</time>
      </trkpt>
      <trkpt lat="41.78945" lon="22.964812">
        <ele>1925.5</ele>
        <time>2026-05-06T13:10:28.000Z</time>
      </trkpt>
      <trkpt lat="41.789449" lon="22.964811">
        <ele>1925.5</ele>
        <time>2026-05-06T13:10:29.000Z</time>
      </trkpt>
      <trkpt lat="41.789449" lon="22.964811">
        <ele>1925.5</ele>
        <time>2026-05-06T13:10:30.000Z</time>
      </trkpt>
      <trkpt lat="41.789449" lon="22.964811">
        <ele>1925.5</ele>
        <time>2026-05-06T13:10:31.000Z</time>
      </trkpt>
      <trkpt lat="41.789449" lon="22.964811">
        <ele>1925.5</ele>
        <time>2026-05-06T13:10:32.000Z</time>
      </trkpt>
      <trkpt lat="41.789449" lon="22.964811">
        <ele>1925.4</ele>
        <time>2026-05-06T13:10:33.000Z</time>
      </trkpt>
      <trkpt lat="41.789449" lon="22.964812">
        <ele>1925.4</ele>
        <time>2026-05-06T13:10:34.000Z</time>
      </trkpt>
      <trkpt lat="41.789449" lon="22.964812">
        <ele>1925.4</ele>
        <time>2026-05-06T13:10:35.000Z</time>
      </trkpt>
      <trkpt lat="41.789449" lon="22.964812">
        <ele>1925.4</ele>
        <time>2026-05-06T13:10:36.000Z</time>
      </trkpt>
      <trkpt lat="41.789449" lon="22.964812">
        <ele>1925.4</ele>
        <time>2026-05-06T13:10:37.000Z</time>
      </trkpt>
      <trkpt lat="41.789449" lon="22.964813">
        <ele>1925.2</ele>
        <time>2026-05-06T13:10:38.000Z</time>
      </trkpt>
      <trkpt lat="41.789449" lon="22.964813">
        <ele>1925.2</ele>
        <time>2026-05-06T13:10:39.000Z</time>
      </trkpt>
      <trkpt lat="41.789449" lon="22.964813">
        <ele>1925.2</ele>
        <time>2026-05-06T13:10:40.000Z</time>
      </trkpt>
      <trkpt lat="41.789449" lon="22.964813">
        <ele>1925.2</ele>
        <time>2026-05-06T13:10:41.000Z</time>
      </trkpt>
      <trkpt lat="41.789449" lon="22.964813">
        <ele>1925.2</ele>
        <time>2026-05-06T13:10:42.000Z</time>
      </trkpt>
      <trkpt lat="41.789449" lon="22.964812">
        <ele>1925.3</ele>
        <time>2026-05-06T13:10:43.000Z</time>
      </trkpt>
      <trkpt lat="41.789449" lon="22.964812">
        <ele>1925.3</ele>
        <time>2026-05-06T13:10:44.000Z</time>
      </trkpt>
      <trkpt lat="41.789449" lon="22.964811">
        <ele>1925.3</ele>
        <time>2026-05-06T13:10:45.000Z</time>
      </trkpt>
      <trkpt lat="41.789449" lon="22.96481">
        <ele>1925.3</ele>
        <time>2026-05-06T13:10:46.000Z</time>
      </trkpt>
      <trkpt lat="41.789448" lon="22.96481">
        <ele>1925.3</ele>
        <time>2026-05-06T13:10:47.000Z</time>
      </trkpt>
      <trkpt lat="41.789448" lon="22.964809">
        <ele>1925.4</ele>
        <time>2026-05-06T13:10:48.000Z</time>
      </trkpt>
      <trkpt lat="41.789448" lon="22.964809">
        <ele>1925.4</ele>
        <time>2026-05-06T13:10:49.000Z</time>
      </trkpt>
      <trkpt lat="41.789448" lon="22.964809">
        <ele>1925.4</ele>
        <time>2026-05-06T13:10:50.000Z</time>
      </trkpt>
      <trkpt lat="41.789448" lon="22.964809">
        <ele>1925.4</ele>
        <time>2026-05-06T13:10:51.000Z</time>
      </trkpt>
      <trkpt lat="41.789449" lon="22.964809">
        <ele>1925.4</ele>
        <time>2026-05-06T13:10:52.000Z</time>
      </trkpt>
      <trkpt lat="41.789449" lon="22.964809">
        <ele>1925.4</ele>
        <time>2026-05-06T13:10:53.000Z</time>
      </trkpt>
      <trkpt lat="41.789449" lon="22.964809">
        <ele>1925.4</ele>
        <time>2026-05-06T13:10:54.000Z</time>
      </trkpt>
      <trkpt lat="41.789449" lon="22.964809">
        <ele>1925.4</ele>
        <time>2026-05-06T13:10:55.000Z</time>
      </trkpt>
      <trkpt lat="41.789449" lon="22.964809">
        <ele>1925.4</ele>
        <time>2026-05-06T13:10:56.000Z</time>
      </trkpt>
      <trkpt lat="41.789449" lon="22.964809">
        <ele>1925.4</ele>
        <time>2026-05-06T13:10:57.000Z</time>
      </trkpt>
      <trkpt lat="41.789449" lon="22.964808">
        <ele>1925.4</ele>
        <time>2026-05-06T13:10:58.000Z</time>
      </trkpt>
      <trkpt lat="41.78945" lon="22.964808">
        <ele>1925.4</ele>
        <time>2026-05-06T13:10:59.000Z</time>
      </trkpt>
      <trkpt lat="41.78945" lon="22.964807">
        <ele>1925.4</ele>
        <time>2026-05-06T13:11:00.000Z</time>
      </trkpt>
      <trkpt lat="41.78945" lon="22.964807">
        <ele>1925.4</ele>
        <time>2026-05-06T13:11:01.000Z</time>
      </trkpt>
      <trkpt lat="41.78945" lon="22.964807">
        <ele>1925.4</ele>
        <time>2026-05-06T13:11:02.000Z</time>
      </trkpt>
      <trkpt lat="41.78945" lon="22.964807">
        <ele>1925.4</ele>
        <time>2026-05-06T13:11:03.000Z</time>
      </trkpt>
      <trkpt lat="41.78945" lon="22.964807">
        <ele>1925.4</ele>
        <time>2026-05-06T13:11:04.000Z</time>
      </trkpt>
      <trkpt lat="41.78945" lon="22.964806">
        <ele>1925.4</ele>
        <time>2026-05-06T13:11:05.000Z</time>
      </trkpt>
      <trkpt lat="41.78945" lon="22.964806">
        <ele>1925.4</ele>
        <time>2026-05-06T13:11:06.000Z</time>
      </trkpt>
      <trkpt lat="41.789451" lon="22.964807">
        <ele>1925.4</ele>
        <time>2026-05-06T13:11:07.000Z</time>
      </trkpt>
      <trkpt lat="41.789451" lon="22.964807">
        <ele>1925.4</ele>
        <time>2026-05-06T13:11:08.000Z</time>
      </trkpt>
      <trkpt lat="41.789451" lon="22.964808">
        <ele>1925.4</ele>
        <time>2026-05-06T13:11:09.000Z</time>
      </trkpt>
      <trkpt lat="41.78945" lon="22.964808">
        <ele>1925.4</ele>
        <time>2026-05-06T13:11:10.000Z</time>
      </trkpt>
      <trkpt lat="41.78945" lon="22.964809">
        <ele>1925.4</ele>
        <time>2026-05-06T13:11:11.000Z</time>
      </trkpt>
      <trkpt lat="41.78945" lon="22.964809">
        <ele>1925.4</ele>
        <time>2026-05-06T13:11:12.000Z</time>
      </trkpt>
      <trkpt lat="41.78945" lon="22.964809">
        <ele>1925.3</ele>
        <time>2026-05-06T13:11:13.000Z</time>
      </trkpt>
      <trkpt lat="41.78945" lon="22.96481">
        <ele>1925.3</ele>
        <time>2026-05-06T13:11:14.000Z</time>
      </trkpt>
      <trkpt lat="41.78945" lon="22.964811">
        <ele>1925.3</ele>
        <time>2026-05-06T13:11:15.000Z</time>
      </trkpt>
      <trkpt lat="41.78945" lon="22.964812">
        <ele>1925.3</ele>
        <time>2026-05-06T13:11:16.000Z</time>
      </trkpt>
      <trkpt lat="41.789449" lon="22.964813">
        <ele>1925.3</ele>
        <time>2026-05-06T13:11:17.000Z</time>
      </trkpt>
      <trkpt lat="41.78945" lon="22.964813">
        <ele>1925.2</ele>
        <time>2026-05-06T13:11:18.000Z</time>
      </trkpt>
      <trkpt lat="41.78945" lon="22.964813">
        <ele>1925.2</ele>
        <time>2026-05-06T13:11:19.000Z</time>
      </trkpt>
      <trkpt lat="41.78945" lon="22.964813">
        <ele>1925.2</ele>
        <time>2026-05-06T13:11:20.000Z</time>
      </trkpt>
      <trkpt lat="41.78945" lon="22.964814">
        <ele>1925.2</ele>
        <time>2026-05-06T13:11:21.000Z</time>
      </trkpt>
      <trkpt lat="41.78945" lon="22.964814">
        <ele>1925.2</ele>
        <time>2026-05-06T13:11:22.000Z</time>
      </trkpt>
      <trkpt lat="41.78945" lon="22.964814">
        <ele>1925.3</ele>
        <time>2026-05-06T13:11:23.000Z</time>
      </trkpt>
      <trkpt lat="41.78945" lon="22.964814">
        <ele>1925.3</ele>
        <time>2026-05-06T13:11:24.000Z</time>
      </trkpt>
      <trkpt lat="41.78945" lon="22.964815">
        <ele>1925.3</ele>
        <time>2026-05-06T13:11:25.000Z</time>
      </trkpt>
      <trkpt lat="41.78945" lon="22.964815">
        <ele>1925.3</ele>
        <time>2026-05-06T13:11:26.000Z</time>
      </trkpt>
      <trkpt lat="41.78945" lon="22.964815">
        <ele>1925.3</ele>
        <time>2026-05-06T13:11:27.000Z</time>
      </trkpt>
      <trkpt lat="41.78945" lon="22.964815">
        <ele>1925.2</ele>
        <time>2026-05-06T13:11:28.000Z</time>
      </trkpt>
      <trkpt lat="41.78945" lon="22.964815">
        <ele>1925.2</ele>
        <time>2026-05-06T13:11:29.000Z</time>
      </trkpt>
      <trkpt lat="41.78945" lon="22.964815">
        <ele>1925.2</ele>
        <time>2026-05-06T13:11:30.000Z</time>
      </trkpt>
      <trkpt lat="41.78945" lon="22.964815">
        <ele>1925.2</ele>
        <time>2026-05-06T13:11:31.000Z</time>
      </trkpt>
      <trkpt lat="41.78945" lon="22.964815">
        <ele>1925.2</ele>
        <time>2026-05-06T13:11:32.000Z</time>
      </trkpt>
      <trkpt lat="41.78945" lon="22.964815">
        <ele>1925.2</ele>
        <time>2026-05-06T13:11:33.000Z</time>
      </trkpt>
      <trkpt lat="41.789449" lon="22.964816">
        <ele>1925.2</ele>
        <time>2026-05-06T13:11:34.000Z</time>
      </trkpt>
      <trkpt lat="41.789449" lon="22.964816">
        <ele>1925.2</ele>
        <time>2026-05-06T13:11:35.000Z</time>
      </trkpt>
      <trkpt lat="41.789449" lon="22.964817">
        <ele>1925.2</ele>
        <time>2026-05-06T13:11:36.000Z</time>
      </trkpt>
      <trkpt lat="41.789448" lon="22.964818">
        <ele>1925.2</ele>
        <time>2026-05-06T13:11:37.000Z</time>
      </trkpt>
      <trkpt lat="41.789448" lon="22.964818">
        <ele>1925.2</ele>
        <time>2026-05-06T13:11:38.000Z</time>
      </trkpt>
      <trkpt lat="41.789448" lon="22.964818">
        <ele>1925.2</ele>
        <time>2026-05-06T13:11:39.000Z</time>
      </trkpt>
      <trkpt lat="41.789448" lon="22.964818">
        <ele>1925.2</ele>
        <time>2026-05-06T13:11:40.000Z</time>
      </trkpt>
      <trkpt lat="41.789448" lon="22.964818">
        <ele>1925.2</ele>
        <time>2026-05-06T13:11:41.000Z</time>
      </trkpt>
      <trkpt lat="41.789447" lon="22.964818">
        <ele>1925.2</ele>
        <time>2026-05-06T13:11:42.000Z</time>
      </trkpt>
      <trkpt lat="41.789447" lon="22.964818">
        <ele>1925.2</ele>
        <time>2026-05-06T13:11:43.000Z</time>
      </trkpt>
      <trkpt lat="41.789447" lon="22.964818">
        <ele>1925.2</ele>
        <time>2026-05-06T13:11:44.000Z</time>
      </trkpt>
      <trkpt lat="41.789447" lon="22.964818">
        <ele>1925.2</ele>
        <time>2026-05-06T13:11:45.000Z</time>
      </trkpt>
      <trkpt lat="41.789447" lon="22.964818">
        <ele>1925.2</ele>
        <time>2026-05-06T13:11:46.000Z</time>
      </trkpt>
      <trkpt lat="41.789447" lon="22.964818">
        <ele>1925.2</ele>
        <time>2026-05-06T13:11:47.000Z</time>
      </trkpt>
      <trkpt lat="41.789447" lon="22.964818">
        <ele>1925.2</ele>
        <time>2026-05-06T13:11:48.000Z</time>
      </trkpt>
      <trkpt lat="41.789447" lon="22.964818">
        <ele>1925.2</ele>
        <time>2026-05-06T13:11:49.000Z</time>
      </trkpt>
      <trkpt lat="41.789447" lon="22.964818">
        <ele>1925.2</ele>
        <time>2026-05-06T13:11:50.000Z</time>
      </trkpt>
      <trkpt lat="41.789447" lon="22.964818">
        <ele>1925.2</ele>
        <time>2026-05-06T13:11:51.000Z</time>
      </trkpt>
      <trkpt lat="41.789447" lon="22.964818">
        <ele>1925.2</ele>
        <time>2026-05-06T13:11:52.000Z</time>
      </trkpt>
      <trkpt lat="41.789447" lon="22.964818">
        <ele>1925.2</ele>
        <time>2026-05-06T13:11:53.000Z</time>
      </trkpt>
      <trkpt lat="41.789447" lon="22.964818">
        <ele>1925.2</ele>
        <time>2026-05-06T13:11:54.000Z</time>
      </trkpt>
      <trkpt lat="41.789447" lon="22.964818">
        <ele>1925.2</ele>
        <time>2026-05-06T13:11:55.000Z</time>
      </trkpt>
      <trkpt lat="41.789447" lon="22.964818">
        <ele>1925.2</ele>
        <time>2026-05-06T13:11:56.000Z</time>
      </trkpt>
      <trkpt lat="41.789447" lon="22.964818">
        <ele>1925.2</ele>
        <time>2026-05-06T13:11:57.000Z</time>
      </trkpt>
      <trkpt lat="41.789447" lon="22.964818">
        <ele>1925.1</ele>
        <time>2026-05-06T13:11:58.000Z</time>
      </trkpt>
      <trkpt lat="41.789447" lon="22.964818">
        <ele>1925.1</ele>
        <time>2026-05-06T13:11:59.000Z</time>
      </trkpt>
      <trkpt lat="41.789447" lon="22.964818">
        <ele>1925.1</ele>
        <time>2026-05-06T13:12:00.000Z</time>
      </trkpt>
      <trkpt lat="41.789447" lon="22.964818">
        <ele>1925.1</ele>
        <time>2026-05-06T13:12:01.000Z</time>
      </trkpt>
      <trkpt lat="41.789447" lon="22.964818">
        <ele>1925.1</ele>
        <time>2026-05-06T13:12:02.000Z</time>
      </trkpt>
      <trkpt lat="41.789447" lon="22.964818">
        <ele>1925.1</ele>
        <time>2026-05-06T13:12:03.000Z</time>
      </trkpt>
      <trkpt lat="41.789447" lon="22.964818">
        <ele>1925.1</ele>
        <time>2026-05-06T13:12:04.000Z</time>
      </trkpt>
      <trkpt lat="41.789447" lon="22.964818">
        <ele>1925.1</ele>
        <time>2026-05-06T13:12:05.000Z</time>
      </trkpt>
      <trkpt lat="41.789448" lon="22.964818">
        <ele>1925.1</ele>
        <time>2026-05-06T13:12:06.000Z</time>
      </trkpt>
      <trkpt lat="41.789448" lon="22.964817">
        <ele>1925.1</ele>
        <time>2026-05-06T13:12:07.000Z</time>
      </trkpt>
      <trkpt lat="41.789448" lon="22.964817">
        <ele>1925.1</ele>
        <time>2026-05-06T13:12:08.000Z</time>
      </trkpt>
      <trkpt lat="41.789448" lon="22.964816">
        <ele>1925.1</ele>
        <time>2026-05-06T13:12:09.000Z</time>
      </trkpt>
      <trkpt lat="41.789449" lon="22.964816">
        <ele>1925.1</ele>
        <time>2026-05-06T13:12:10.000Z</time>
      </trkpt>
      <trkpt lat="41.789449" lon="22.964815">
        <ele>1925.1</ele>
        <time>2026-05-06T13:12:11.000Z</time>
      </trkpt>
      <trkpt lat="41.789449" lon="22.964816">
        <ele>1925.1</ele>
        <time>2026-05-06T13:12:12.000Z</time>
      </trkpt>
      <trkpt lat="41.789448" lon="22.964816">
        <ele>1925.4</ele>
        <time>2026-05-06T13:12:13.000Z</time>
      </trkpt>
      <trkpt lat="41.789446" lon="22.964816">
        <ele>1925.4</ele>
        <time>2026-05-06T13:12:14.000Z</time>
      </trkpt>
      <trkpt lat="41.789445" lon="22.964815">
        <ele>1925.4</ele>
        <time>2026-05-06T13:12:15.000Z</time>
      </trkpt>
      <trkpt lat="41.789443" lon="22.964815">
        <ele>1925.4</ele>
        <time>2026-05-06T13:12:16.000Z</time>
      </trkpt>
      <trkpt lat="41.789442" lon="22.964814">
        <ele>1925.4</ele>
        <time>2026-05-06T13:12:17.000Z</time>
      </trkpt>
      <trkpt lat="41.789441" lon="22.964813">
        <ele>1925.5</ele>
        <time>2026-05-06T13:12:18.000Z</time>
      </trkpt>
      <trkpt lat="41.789441" lon="22.964812">
        <ele>1925.5</ele>
        <time>2026-05-06T13:12:19.000Z</time>
      </trkpt>
      <trkpt lat="41.789441" lon="22.96481">
        <ele>1925.5</ele>
        <time>2026-05-06T13:12:20.000Z</time>
      </trkpt>
      <trkpt lat="41.78944" lon="22.964806">
        <ele>1925.5</ele>
        <time>2026-05-06T13:12:21.000Z</time>
      </trkpt>
      <trkpt lat="41.789439" lon="22.964802">
        <ele>1925.5</ele>
        <time>2026-05-06T13:12:22.000Z</time>
      </trkpt>
      <trkpt lat="41.789437" lon="22.964796">
        <ele>1925.5</ele>
        <time>2026-05-06T13:12:23.000Z</time>
      </trkpt>
      <trkpt lat="41.789435" lon="22.964789">
        <ele>1925.5</ele>
        <time>2026-05-06T13:12:24.000Z</time>
      </trkpt>
      <trkpt lat="41.789433" lon="22.964783">
        <ele>1925.5</ele>
        <time>2026-05-06T13:12:25.000Z</time>
      </trkpt>
      <trkpt lat="41.789431" lon="22.964779">
        <ele>1925.5</ele>
        <time>2026-05-06T13:12:26.000Z</time>
      </trkpt>
      <trkpt lat="41.78943" lon="22.964776">
        <ele>1925.5</ele>
        <time>2026-05-06T13:12:27.000Z</time>
      </trkpt>
      <trkpt lat="41.789429" lon="22.964774">
        <ele>1925.4</ele>
        <time>2026-05-06T13:12:28.000Z</time>
      </trkpt>
      <trkpt lat="41.789429" lon="22.964774">
        <ele>1925.4</ele>
        <time>2026-05-06T13:12:29.000Z</time>
      </trkpt>
      <trkpt lat="41.789429" lon="22.964774">
        <ele>1925.4</ele>
        <time>2026-05-06T13:12:30.000Z</time>
      </trkpt>
      <trkpt lat="41.789428" lon="22.964775">
        <ele>1925.4</ele>
        <time>2026-05-06T13:12:31.000Z</time>
      </trkpt>
      <trkpt lat="41.789427" lon="22.964777">
        <ele>1925.4</ele>
        <time>2026-05-06T13:12:32.000Z</time>
      </trkpt>
      <trkpt lat="41.789427" lon="22.964779">
        <ele>1925.5</ele>
        <time>2026-05-06T13:12:33.000Z</time>
      </trkpt>
      <trkpt lat="41.789426" lon="22.964781">
        <ele>1925.5</ele>
        <time>2026-05-06T13:12:34.000Z</time>
      </trkpt>
      <trkpt lat="41.789426" lon="22.964784">
        <ele>1925.5</ele>
        <time>2026-05-06T13:12:35.000Z</time>
      </trkpt>
      <trkpt lat="41.789428" lon="22.964783">
        <ele>1925.5</ele>
        <time>2026-05-06T13:12:36.000Z</time>
      </trkpt>
      <trkpt lat="41.789431" lon="22.964782">
        <ele>1925.5</ele>
        <time>2026-05-06T13:12:37.000Z</time>
      </trkpt>
      <trkpt lat="41.789434" lon="22.964782">
        <ele>1925.8</ele>
        <time>2026-05-06T13:12:38.000Z</time>
      </trkpt>
      <trkpt lat="41.789436" lon="22.964781">
        <ele>1925.8</ele>
        <time>2026-05-06T13:12:39.000Z</time>
      </trkpt>
      <trkpt lat="41.789438" lon="22.964781">
        <ele>1925.8</ele>
        <time>2026-05-06T13:12:40.000Z</time>
      </trkpt>
      <trkpt lat="41.789438" lon="22.964781">
        <ele>1925.8</ele>
        <time>2026-05-06T13:12:41.000Z</time>
      </trkpt>
      <trkpt lat="41.789438" lon="22.964782">
        <ele>1925.8</ele>
        <time>2026-05-06T13:12:42.000Z</time>
      </trkpt>
      <trkpt lat="41.789437" lon="22.964783">
        <ele>1926</ele>
        <time>2026-05-06T13:12:43.000Z</time>
      </trkpt>
      <trkpt lat="41.789437" lon="22.964783">
        <ele>1926</ele>
        <time>2026-05-06T13:12:44.000Z</time>
      </trkpt>
      <trkpt lat="41.789436" lon="22.964784">
        <ele>1926</ele>
        <time>2026-05-06T13:12:45.000Z</time>
      </trkpt>
      <trkpt lat="41.789437" lon="22.964784">
        <ele>1926</ele>
        <time>2026-05-06T13:12:46.000Z</time>
      </trkpt>
      <trkpt lat="41.789437" lon="22.964784">
        <ele>1926</ele>
        <time>2026-05-06T13:12:47.000Z</time>
      </trkpt>
      <trkpt lat="41.789437" lon="22.964784">
        <ele>1926</ele>
        <time>2026-05-06T13:12:48.000Z</time>
      </trkpt>
      <trkpt lat="41.789437" lon="22.964784">
        <ele>1926</ele>
        <time>2026-05-06T13:12:49.000Z</time>
      </trkpt>
      <trkpt lat="41.789436" lon="22.964785">
        <ele>1926</ele>
        <time>2026-05-06T13:12:50.000Z</time>
      </trkpt>
      <trkpt lat="41.789435" lon="22.964786">
        <ele>1926</ele>
        <time>2026-05-06T13:12:51.000Z</time>
      </trkpt>
      <trkpt lat="41.789434" lon="22.964786">
        <ele>1926</ele>
        <time>2026-05-06T13:12:52.000Z</time>
      </trkpt>
      <trkpt lat="41.789433" lon="22.964787">
        <ele>1926.1</ele>
        <time>2026-05-06T13:12:53.000Z</time>
      </trkpt>
      <trkpt lat="41.789432" lon="22.964787">
        <ele>1926.1</ele>
        <time>2026-05-06T13:12:54.000Z</time>
      </trkpt>
      <trkpt lat="41.789432" lon="22.964787">
        <ele>1926.1</ele>
        <time>2026-05-06T13:12:55.000Z</time>
      </trkpt>
      <trkpt lat="41.789433" lon="22.964786">
        <ele>1926.1</ele>
        <time>2026-05-06T13:12:56.000Z</time>
      </trkpt>
      <trkpt lat="41.789433" lon="22.964786">
        <ele>1926.1</ele>
        <time>2026-05-06T13:12:57.000Z</time>
      </trkpt>
      <trkpt lat="41.789433" lon="22.964787">
        <ele>1926</ele>
        <time>2026-05-06T13:12:58.000Z</time>
      </trkpt>
      <trkpt lat="41.789434" lon="22.964787">
        <ele>1926</ele>
        <time>2026-05-06T13:12:59.000Z</time>
      </trkpt>
      <trkpt lat="41.789433" lon="22.964787">
        <ele>1926</ele>
        <time>2026-05-06T13:13:00.000Z</time>
      </trkpt>
      <trkpt lat="41.789434" lon="22.964787">
        <ele>1926</ele>
        <time>2026-05-06T13:13:01.000Z</time>
      </trkpt>
      <trkpt lat="41.789434" lon="22.964787">
        <ele>1926</ele>
        <time>2026-05-06T13:13:02.000Z</time>
      </trkpt>
      <trkpt lat="41.789435" lon="22.964787">
        <ele>1925.9</ele>
        <time>2026-05-06T13:13:03.000Z</time>
      </trkpt>
      <trkpt lat="41.789436" lon="22.964787">
        <ele>1925.9</ele>
        <time>2026-05-06T13:13:04.000Z</time>
      </trkpt>
      <trkpt lat="41.789436" lon="22.964787">
        <ele>1925.9</ele>
        <time>2026-05-06T13:13:05.000Z</time>
      </trkpt>
      <trkpt lat="41.789436" lon="22.964787">
        <ele>1925.9</ele>
        <time>2026-05-06T13:13:06.000Z</time>
      </trkpt>
      <trkpt lat="41.789436" lon="22.964787">
        <ele>1925.9</ele>
        <time>2026-05-06T13:13:07.000Z</time>
      </trkpt>
      <trkpt lat="41.789435" lon="22.964787">
        <ele>1925.6</ele>
        <time>2026-05-06T13:13:08.000Z</time>
      </trkpt>
      <trkpt lat="41.789435" lon="22.964787">
        <ele>1925.6</ele>
        <time>2026-05-06T13:13:09.000Z</time>
      </trkpt>
      <trkpt lat="41.789435" lon="22.964787">
        <ele>1925.6</ele>
        <time>2026-05-06T13:13:10.000Z</time>
      </trkpt>
      <trkpt lat="41.789435" lon="22.964787">
        <ele>1925.6</ele>
        <time>2026-05-06T13:13:11.000Z</time>
      </trkpt>
      <trkpt lat="41.789435" lon="22.964786">
        <ele>1925.6</ele>
        <time>2026-05-06T13:13:12.000Z</time>
      </trkpt>
      <trkpt lat="41.789436" lon="22.964787">
        <ele>1925.4</ele>
        <time>2026-05-06T13:13:13.000Z</time>
      </trkpt>
      <trkpt lat="41.789437" lon="22.964788">
        <ele>1925.4</ele>
        <time>2026-05-06T13:13:14.000Z</time>
      </trkpt>
      <trkpt lat="41.78944" lon="22.964788">
        <ele>1925.4</ele>
        <time>2026-05-06T13:13:15.000Z</time>
      </trkpt>
      <trkpt lat="41.789444" lon="22.964786">
        <ele>1925.4</ele>
        <time>2026-05-06T13:13:16.000Z</time>
      </trkpt>
      <trkpt lat="41.789448" lon="22.964781">
        <ele>1925.4</ele>
        <time>2026-05-06T13:13:17.000Z</time>
      </trkpt>
      <trkpt lat="41.789452" lon="22.964773">
        <ele>1925.4</ele>
        <time>2026-05-06T13:13:18.000Z</time>
      </trkpt>
      <trkpt lat="41.789457" lon="22.964764">
        <ele>1925.4</ele>
        <time>2026-05-06T13:13:19.000Z</time>
      </trkpt>
      <trkpt lat="41.789461" lon="22.964757">
        <ele>1925.4</ele>
        <time>2026-05-06T13:13:20.000Z</time>
      </trkpt>
      <trkpt lat="41.789464" lon="22.964752">
        <ele>1925.4</ele>
        <time>2026-05-06T13:13:21.000Z</time>
      </trkpt>
      <trkpt lat="41.789465" lon="22.964749">
        <ele>1925.4</ele>
        <time>2026-05-06T13:13:22.000Z</time>
      </trkpt>
      <trkpt lat="41.789464" lon="22.964748">
        <ele>1925.5</ele>
        <time>2026-05-06T13:13:23.000Z</time>
      </trkpt>
      <trkpt lat="41.789463" lon="22.964747">
        <ele>1925.5</ele>
        <time>2026-05-06T13:13:24.000Z</time>
      </trkpt>
      <trkpt lat="41.789461" lon="22.964747">
        <ele>1925.5</ele>
        <time>2026-05-06T13:13:25.000Z</time>
      </trkpt>
      <trkpt lat="41.78946" lon="22.964747">
        <ele>1925.5</ele>
        <time>2026-05-06T13:13:26.000Z</time>
      </trkpt>
      <trkpt lat="41.78946" lon="22.964748">
        <ele>1925.5</ele>
        <time>2026-05-06T13:13:27.000Z</time>
      </trkpt>
      <trkpt lat="41.78946" lon="22.964748">
        <ele>1925.3</ele>
        <time>2026-05-06T13:13:28.000Z</time>
      </trkpt>
      <trkpt lat="41.789461" lon="22.964749">
        <ele>1925.3</ele>
        <time>2026-05-06T13:13:29.000Z</time>
      </trkpt>
      <trkpt lat="41.789462" lon="22.96475">
        <ele>1925.3</ele>
        <time>2026-05-06T13:13:30.000Z</time>
      </trkpt>
      <trkpt lat="41.789461" lon="22.96475">
        <ele>1925.3</ele>
        <time>2026-05-06T13:13:31.000Z</time>
      </trkpt>
      <trkpt lat="41.789461" lon="22.96475">
        <ele>1925.3</ele>
        <time>2026-05-06T13:13:32.000Z</time>
      </trkpt>
      <trkpt lat="41.789461" lon="22.964751">
        <ele>1925.2</ele>
        <time>2026-05-06T13:13:33.000Z</time>
      </trkpt>
      <trkpt lat="41.789461" lon="22.964751">
        <ele>1925.2</ele>
        <time>2026-05-06T13:13:34.000Z</time>
      </trkpt>
      <trkpt lat="41.789461" lon="22.964751">
        <ele>1925.2</ele>
        <time>2026-05-06T13:13:35.000Z</time>
      </trkpt>
      <trkpt lat="41.789461" lon="22.964751">
        <ele>1925.2</ele>
        <time>2026-05-06T13:13:36.000Z</time>
      </trkpt>
      <trkpt lat="41.789461" lon="22.964751">
        <ele>1925.2</ele>
        <time>2026-05-06T13:13:37.000Z</time>
      </trkpt>
      <trkpt lat="41.789462" lon="22.96475">
        <ele>1925.2</ele>
        <time>2026-05-06T13:13:38.000Z</time>
      </trkpt>
      <trkpt lat="41.789463" lon="22.964749">
        <ele>1925.2</ele>
        <time>2026-05-06T13:13:39.000Z</time>
      </trkpt>
      <trkpt lat="41.789468" lon="22.964748">
        <ele>1925.2</ele>
        <time>2026-05-06T13:13:40.000Z</time>
      </trkpt>
      <trkpt lat="41.789475" lon="22.96475">
        <ele>1925.2</ele>
        <time>2026-05-06T13:13:41.000Z</time>
      </trkpt>
      <trkpt lat="41.789484" lon="22.964754">
        <ele>1925.2</ele>
        <time>2026-05-06T13:13:42.000Z</time>
      </trkpt>
      <trkpt lat="41.789493" lon="22.964761">
        <ele>1925.4</ele>
        <time>2026-05-06T13:13:43.000Z</time>
      </trkpt>
      <trkpt lat="41.789502" lon="22.964771">
        <ele>1925.4</ele>
        <time>2026-05-06T13:13:44.000Z</time>
      </trkpt>
      <trkpt lat="41.789506" lon="22.964782">
        <ele>1925.4</ele>
        <time>2026-05-06T13:13:45.000Z</time>
      </trkpt>
      <trkpt lat="41.789508" lon="22.964792">
        <ele>1925.4</ele>
        <time>2026-05-06T13:13:46.000Z</time>
      </trkpt>
      <trkpt lat="41.78951" lon="22.964799">
        <ele>1925.4</ele>
        <time>2026-05-06T13:13:47.000Z</time>
      </trkpt>
      <trkpt lat="41.789512" lon="22.964808">
        <ele>1925.4</ele>
        <time>2026-05-06T13:13:48.000Z</time>
      </trkpt>
      <trkpt lat="41.789513" lon="22.96482">
        <ele>1925.4</ele>
        <time>2026-05-06T13:13:49.000Z</time>
      </trkpt>
      <trkpt lat="41.789513" lon="22.964831">
        <ele>1925.4</ele>
        <time>2026-05-06T13:13:50.000Z</time>
      </trkpt>
      <trkpt lat="41.789512" lon="22.964845">
        <ele>1925.4</ele>
        <time>2026-05-06T13:13:51.000Z</time>
      </trkpt>
      <trkpt lat="41.789508" lon="22.96486">
        <ele>1925.4</ele>
        <time>2026-05-06T13:13:52.000Z</time>
      </trkpt>
      <trkpt lat="41.7895" lon="22.964874">
        <ele>1924.7</ele>
        <time>2026-05-06T13:13:53.000Z</time>
      </trkpt>
      <trkpt lat="41.78949" lon="22.964886">
        <ele>1924.7</ele>
        <time>2026-05-06T13:13:54.000Z</time>
      </trkpt>
      <trkpt lat="41.789479" lon="22.964898">
        <ele>1924.7</ele>
        <time>2026-05-06T13:13:55.000Z</time>
      </trkpt>
      <trkpt lat="41.789466" lon="22.96491">
        <ele>1924.7</ele>
        <time>2026-05-06T13:13:56.000Z</time>
      </trkpt>
      <trkpt lat="41.789453" lon="22.964922">
        <ele>1924.7</ele>
        <time>2026-05-06T13:13:57.000Z</time>
      </trkpt>
      <trkpt lat="41.78944" lon="22.964933">
        <ele>1923.5</ele>
        <time>2026-05-06T13:13:58.000Z</time>
      </trkpt>
      <trkpt lat="41.789427" lon="22.964941">
        <ele>1923.5</ele>
        <time>2026-05-06T13:13:59.000Z</time>
      </trkpt>
      <trkpt lat="41.789415" lon="22.964948">
        <ele>1923.5</ele>
        <time>2026-05-06T13:14:00.000Z</time>
      </trkpt>
      <trkpt lat="41.789404" lon="22.964954">
        <ele>1923.5</ele>
        <time>2026-05-06T13:14:01.000Z</time>
      </trkpt>
      <trkpt lat="41.789393" lon="22.96496">
        <ele>1923.5</ele>
        <time>2026-05-06T13:14:02.000Z</time>
      </trkpt>
      <trkpt lat="41.789383" lon="22.964967">
        <ele>1922.7</ele>
        <time>2026-05-06T13:14:03.000Z</time>
      </trkpt>
      <trkpt lat="41.789373" lon="22.964973">
        <ele>1922.7</ele>
        <time>2026-05-06T13:14:04.000Z</time>
      </trkpt>
      <trkpt lat="41.789365" lon="22.964981">
        <ele>1922.7</ele>
        <time>2026-05-06T13:14:05.000Z</time>
      </trkpt>
      <trkpt lat="41.789356" lon="22.964989">
        <ele>1922.7</ele>
        <time>2026-05-06T13:14:06.000Z</time>
      </trkpt>
      <trkpt lat="41.789348" lon="22.964995">
        <ele>1922.7</ele>
        <time>2026-05-06T13:14:07.000Z</time>
      </trkpt>
      <trkpt lat="41.78934" lon="22.965001">
        <ele>1921.4</ele>
        <time>2026-05-06T13:14:08.000Z</time>
      </trkpt>
      <trkpt lat="41.789334" lon="22.965008">
        <ele>1921.4</ele>
        <time>2026-05-06T13:14:09.000Z</time>
      </trkpt>
      <trkpt lat="41.789326" lon="22.965014">
        <ele>1921.4</ele>
        <time>2026-05-06T13:14:10.000Z</time>
      </trkpt>
      <trkpt lat="41.789317" lon="22.965021">
        <ele>1921.4</ele>
        <time>2026-05-06T13:14:11.000Z</time>
      </trkpt>
      <trkpt lat="41.789308" lon="22.965029">
        <ele>1921.4</ele>
        <time>2026-05-06T13:14:12.000Z</time>
      </trkpt>
      <trkpt lat="41.789298" lon="22.965038">
        <ele>1920.1</ele>
        <time>2026-05-06T13:14:13.000Z</time>
      </trkpt>
      <trkpt lat="41.789286" lon="22.965048">
        <ele>1920.1</ele>
        <time>2026-05-06T13:14:14.000Z</time>
      </trkpt>
      <trkpt lat="41.789274" lon="22.965058">
        <ele>1920.1</ele>
        <time>2026-05-06T13:14:15.000Z</time>
      </trkpt>
      <trkpt lat="41.789262" lon="22.965066">
        <ele>1920.1</ele>
        <time>2026-05-06T13:14:16.000Z</time>
      </trkpt>
      <trkpt lat="41.789251" lon="22.965074">
        <ele>1920.1</ele>
        <time>2026-05-06T13:14:17.000Z</time>
      </trkpt>
      <trkpt lat="41.78924" lon="22.96508">
        <ele>1919.5</ele>
        <time>2026-05-06T13:14:18.000Z</time>
      </trkpt>
      <trkpt lat="41.789232" lon="22.965082">
        <ele>1919.5</ele>
        <time>2026-05-06T13:14:19.000Z</time>
      </trkpt>
      <trkpt lat="41.789228" lon="22.965082">
        <ele>1919.5</ele>
        <time>2026-05-06T13:14:20.000Z</time>
      </trkpt>
      <trkpt lat="41.789226" lon="22.965081">
        <ele>1919.5</ele>
        <time>2026-05-06T13:14:21.000Z</time>
      </trkpt>
      <trkpt lat="41.789225" lon="22.965079">
        <ele>1919.5</ele>
        <time>2026-05-06T13:14:22.000Z</time>
      </trkpt>
      <trkpt lat="41.789225" lon="22.965077">
        <ele>1918.1</ele>
        <time>2026-05-06T13:14:23.000Z</time>
      </trkpt>
      <trkpt lat="41.789226" lon="22.965077">
        <ele>1918.1</ele>
        <time>2026-05-06T13:14:24.000Z</time>
      </trkpt>
      <trkpt lat="41.789225" lon="22.965078">
        <ele>1918.1</ele>
        <time>2026-05-06T13:14:25.000Z</time>
      </trkpt>
      <trkpt lat="41.789225" lon="22.965079">
        <ele>1918.1</ele>
        <time>2026-05-06T13:14:26.000Z</time>
      </trkpt>
      <trkpt lat="41.789225" lon="22.96508">
        <ele>1918.1</ele>
        <time>2026-05-06T13:14:27.000Z</time>
      </trkpt>
      <trkpt lat="41.789225" lon="22.965081">
        <ele>1916.8</ele>
        <time>2026-05-06T13:14:28.000Z</time>
      </trkpt>
      <trkpt lat="41.789225" lon="22.96508">
        <ele>1916.8</ele>
        <time>2026-05-06T13:14:29.000Z</time>
      </trkpt>
      <trkpt lat="41.789225" lon="22.96508">
        <ele>1916.8</ele>
        <time>2026-05-06T13:14:30.000Z</time>
      </trkpt>
      <trkpt lat="41.789225" lon="22.96508">
        <ele>1916.8</ele>
        <time>2026-05-06T13:14:31.000Z</time>
      </trkpt>
      <trkpt lat="41.789225" lon="22.965079">
        <ele>1916.8</ele>
        <time>2026-05-06T13:14:32.000Z</time>
      </trkpt>
      <trkpt lat="41.789225" lon="22.965079">
        <ele>1916.4</ele>
        <time>2026-05-06T13:14:33.000Z</time>
      </trkpt>
      <trkpt lat="41.789225" lon="22.965079">
        <ele>1916.4</ele>
        <time>2026-05-06T13:14:34.000Z</time>
      </trkpt>
      <trkpt lat="41.789225" lon="22.965079">
        <ele>1916.4</ele>
        <time>2026-05-06T13:14:35.000Z</time>
      </trkpt>
      <trkpt lat="41.789225" lon="22.965079">
        <ele>1916.4</ele>
        <time>2026-05-06T13:14:36.000Z</time>
      </trkpt>
      <trkpt lat="41.789225" lon="22.965079">
        <ele>1916.4</ele>
        <time>2026-05-06T13:14:37.000Z</time>
      </trkpt>
      <trkpt lat="41.789225" lon="22.965079">
        <ele>1916</ele>
        <time>2026-05-06T13:14:38.000Z</time>
      </trkpt>
      <trkpt lat="41.789225" lon="22.965079">
        <ele>1916</ele>
        <time>2026-05-06T13:14:39.000Z</time>
      </trkpt>
      <trkpt lat="41.789225" lon="22.965079">
        <ele>1916</ele>
        <time>2026-05-06T13:14:40.000Z</time>
      </trkpt>
      <trkpt lat="41.789225" lon="22.965079">
        <ele>1916</ele>
        <time>2026-05-06T13:14:41.000Z</time>
      </trkpt>
      <trkpt lat="41.789225" lon="22.965079">
        <ele>1916</ele>
        <time>2026-05-06T13:14:42.000Z</time>
      </trkpt>
      <trkpt lat="41.789225" lon="22.965079">
        <ele>1916</ele>
        <time>2026-05-06T13:14:43.000Z</time>
      </trkpt>
      <trkpt lat="41.789225" lon="22.965079">
        <ele>1916</ele>
        <time>2026-05-06T13:14:44.000Z</time>
      </trkpt>
      <trkpt lat="41.789226" lon="22.96508">
        <ele>1916</ele>
        <time>2026-05-06T13:14:45.000Z</time>
      </trkpt>
      <trkpt lat="41.789227" lon="22.96508">
        <ele>1916</ele>
        <time>2026-05-06T13:14:46.000Z</time>
      </trkpt>
      <trkpt lat="41.789228" lon="22.96508">
        <ele>1916</ele>
        <time>2026-05-06T13:14:47.000Z</time>
      </trkpt>
      <trkpt lat="41.78923" lon="22.965081">
        <ele>1916</ele>
        <time>2026-05-06T13:14:48.000Z</time>
      </trkpt>
      <trkpt lat="41.78923" lon="22.965082">
        <ele>1916</ele>
        <time>2026-05-06T13:14:49.000Z</time>
      </trkpt>
      <trkpt lat="41.78923" lon="22.965083">
        <ele>1916</ele>
        <time>2026-05-06T13:14:50.000Z</time>
      </trkpt>
      <trkpt lat="41.789229" lon="22.965086">
        <ele>1916</ele>
        <time>2026-05-06T13:14:51.000Z</time>
      </trkpt>
      <trkpt lat="41.789226" lon="22.96509">
        <ele>1916</ele>
        <time>2026-05-06T13:14:52.000Z</time>
      </trkpt>
      <trkpt lat="41.789221" lon="22.965094">
        <ele>1916</ele>
        <time>2026-05-06T13:14:53.000Z</time>
      </trkpt>
      <trkpt lat="41.789218" lon="22.965096">
        <ele>1916</ele>
        <time>2026-05-06T13:14:54.000Z</time>
      </trkpt>
      <trkpt lat="41.789215" lon="22.965097">
        <ele>1916</ele>
        <time>2026-05-06T13:14:55.000Z</time>
      </trkpt>
      <trkpt lat="41.789212" lon="22.965096">
        <ele>1916</ele>
        <time>2026-05-06T13:14:56.000Z</time>
      </trkpt>
      <trkpt lat="41.789212" lon="22.965094">
        <ele>1916</ele>
        <time>2026-05-06T13:14:57.000Z</time>
      </trkpt>
      <trkpt lat="41.789212" lon="22.965093">
        <ele>1916</ele>
        <time>2026-05-06T13:14:58.000Z</time>
      </trkpt>
      <trkpt lat="41.789212" lon="22.965092">
        <ele>1916</ele>
        <time>2026-05-06T13:14:59.000Z</time>
      </trkpt>
      <trkpt lat="41.789212" lon="22.965093">
        <ele>1916</ele>
        <time>2026-05-06T13:15:00.000Z</time>
      </trkpt>
      <trkpt lat="41.789212" lon="22.965092">
        <ele>1916</ele>
        <time>2026-05-06T13:15:01.000Z</time>
      </trkpt>
      <trkpt lat="41.789212" lon="22.965092">
        <ele>1916</ele>
        <time>2026-05-06T13:15:02.000Z</time>
      </trkpt>
      <trkpt lat="41.789211" lon="22.965092">
        <ele>1916.1</ele>
        <time>2026-05-06T13:15:03.000Z</time>
      </trkpt>
      <trkpt lat="41.789211" lon="22.965091">
        <ele>1916.1</ele>
        <time>2026-05-06T13:15:04.000Z</time>
      </trkpt>
      <trkpt lat="41.789213" lon="22.965091">
        <ele>1916.1</ele>
        <time>2026-05-06T13:15:05.000Z</time>
      </trkpt>
      <trkpt lat="41.789216" lon="22.965093">
        <ele>1916.1</ele>
        <time>2026-05-06T13:15:06.000Z</time>
      </trkpt>
      <trkpt lat="41.78922" lon="22.965095">
        <ele>1916.1</ele>
        <time>2026-05-06T13:15:07.000Z</time>
      </trkpt>
      <trkpt lat="41.789225" lon="22.965097">
        <ele>1916.1</ele>
        <time>2026-05-06T13:15:08.000Z</time>
      </trkpt>
      <trkpt lat="41.789229" lon="22.965101">
        <ele>1916.1</ele>
        <time>2026-05-06T13:15:09.000Z</time>
      </trkpt>
      <trkpt lat="41.789233" lon="22.965104">
        <ele>1916.1</ele>
        <time>2026-05-06T13:15:10.000Z</time>
      </trkpt>
      <trkpt lat="41.789235" lon="22.965104">
        <ele>1916.1</ele>
        <time>2026-05-06T13:15:11.000Z</time>
      </trkpt>
      <trkpt lat="41.789237" lon="22.965106">
        <ele>1916.1</ele>
        <time>2026-05-06T13:15:12.000Z</time>
      </trkpt>
      <trkpt lat="41.789238" lon="22.965106">
        <ele>1916</ele>
        <time>2026-05-06T13:15:13.000Z</time>
      </trkpt>
      <trkpt lat="41.789238" lon="22.965104">
        <ele>1916</ele>
        <time>2026-05-06T13:15:14.000Z</time>
      </trkpt>
      <trkpt lat="41.789238" lon="22.965103">
        <ele>1916</ele>
        <time>2026-05-06T13:15:15.000Z</time>
      </trkpt>
      <trkpt lat="41.789238" lon="22.965102">
        <ele>1916</ele>
        <time>2026-05-06T13:15:16.000Z</time>
      </trkpt>
      <trkpt lat="41.789238" lon="22.9651">
        <ele>1916</ele>
        <time>2026-05-06T13:15:17.000Z</time>
      </trkpt>
      <trkpt lat="41.789238" lon="22.9651">
        <ele>1915.9</ele>
        <time>2026-05-06T13:15:18.000Z</time>
      </trkpt>
      <trkpt lat="41.789238" lon="22.965099">
        <ele>1915.9</ele>
        <time>2026-05-06T13:15:19.000Z</time>
      </trkpt>
      <trkpt lat="41.789239" lon="22.965098">
        <ele>1915.9</ele>
        <time>2026-05-06T13:15:20.000Z</time>
      </trkpt>
      <trkpt lat="41.789239" lon="22.965098">
        <ele>1915.9</ele>
        <time>2026-05-06T13:15:21.000Z</time>
      </trkpt>
      <trkpt lat="41.789239" lon="22.965097">
        <ele>1915.9</ele>
        <time>2026-05-06T13:15:22.000Z</time>
      </trkpt>
      <trkpt lat="41.78924" lon="22.965096">
        <ele>1915.6</ele>
        <time>2026-05-06T13:15:23.000Z</time>
      </trkpt>
      <trkpt lat="41.78924" lon="22.965096">
        <ele>1915.6</ele>
        <time>2026-05-06T13:15:24.000Z</time>
      </trkpt>
      <trkpt lat="41.78924" lon="22.965096">
        <ele>1915.6</ele>
        <time>2026-05-06T13:15:25.000Z</time>
      </trkpt>
      <trkpt lat="41.789239" lon="22.965096">
        <ele>1915.6</ele>
        <time>2026-05-06T13:15:26.000Z</time>
      </trkpt>
      <trkpt lat="41.789239" lon="22.965095">
        <ele>1915.6</ele>
        <time>2026-05-06T13:15:27.000Z</time>
      </trkpt>
      <trkpt lat="41.78924" lon="22.965097">
        <ele>1915.6</ele>
        <time>2026-05-06T13:15:28.000Z</time>
      </trkpt>
      <trkpt lat="41.789242" lon="22.965101">
        <ele>1915.6</ele>
        <time>2026-05-06T13:15:29.000Z</time>
      </trkpt>
      <trkpt lat="41.789245" lon="22.965108">
        <ele>1915.6</ele>
        <time>2026-05-06T13:15:30.000Z</time>
      </trkpt>
      <trkpt lat="41.789248" lon="22.965117">
        <ele>1915.6</ele>
        <time>2026-05-06T13:15:31.000Z</time>
      </trkpt>
      <trkpt lat="41.789252" lon="22.965128">
        <ele>1915.6</ele>
        <time>2026-05-06T13:15:32.000Z</time>
      </trkpt>
      <trkpt lat="41.789256" lon="22.965139">
        <ele>1915.7</ele>
        <time>2026-05-06T13:15:33.000Z</time>
      </trkpt>
      <trkpt lat="41.789259" lon="22.96515">
        <ele>1915.7</ele>
        <time>2026-05-06T13:15:34.000Z</time>
      </trkpt>
      <trkpt lat="41.789264" lon="22.965161">
        <ele>1915.7</ele>
        <time>2026-05-06T13:15:35.000Z</time>
      </trkpt>
      <trkpt lat="41.789268" lon="22.965172">
        <ele>1915.7</ele>
        <time>2026-05-06T13:15:36.000Z</time>
      </trkpt>
      <trkpt lat="41.789272" lon="22.965185">
        <ele>1915.7</ele>
        <time>2026-05-06T13:15:37.000Z</time>
      </trkpt>
      <trkpt lat="41.789276" lon="22.9652">
        <ele>1915.7</ele>
        <time>2026-05-06T13:15:38.000Z</time>
      </trkpt>
      <trkpt lat="41.789278" lon="22.965215">
        <ele>1915.7</ele>
        <time>2026-05-06T13:15:39.000Z</time>
      </trkpt>
      <trkpt lat="41.789279" lon="22.96523">
        <ele>1915.7</ele>
        <time>2026-05-06T13:15:40.000Z</time>
      </trkpt>
      <trkpt lat="41.789278" lon="22.965244">
        <ele>1915.7</ele>
        <time>2026-05-06T13:15:41.000Z</time>
      </trkpt>
      <trkpt lat="41.789276" lon="22.965256">
        <ele>1915.7</ele>
        <time>2026-05-06T13:15:42.000Z</time>
      </trkpt>
      <trkpt lat="41.789273" lon="22.965267">
        <ele>1915.3</ele>
        <time>2026-05-06T13:15:43.000Z</time>
      </trkpt>
      <trkpt lat="41.78927" lon="22.965277">
        <ele>1915.3</ele>
        <time>2026-05-06T13:15:44.000Z</time>
      </trkpt>
      <trkpt lat="41.789266" lon="22.965288">
        <ele>1915.3</ele>
        <time>2026-05-06T13:15:45.000Z</time>
      </trkpt>
      <trkpt lat="41.789262" lon="22.965299">
        <ele>1915.3</ele>
        <time>2026-05-06T13:15:46.000Z</time>
      </trkpt>
      <trkpt lat="41.789259" lon="22.965312">
        <ele>1915.3</ele>
        <time>2026-05-06T13:15:47.000Z</time>
      </trkpt>
      <trkpt lat="41.789254" lon="22.965326">
        <ele>1914.8</ele>
        <time>2026-05-06T13:15:48.000Z</time>
      </trkpt>
      <trkpt lat="41.789249" lon="22.965339">
        <ele>1914.8</ele>
        <time>2026-05-06T13:15:49.000Z</time>
      </trkpt>
      <trkpt lat="41.789244" lon="22.965349">
        <ele>1914.8</ele>
        <time>2026-05-06T13:15:50.000Z</time>
      </trkpt>
      <trkpt lat="41.78924" lon="22.965357">
        <ele>1914.8</ele>
        <time>2026-05-06T13:15:51.000Z</time>
      </trkpt>
      <trkpt lat="41.789236" lon="22.965361">
        <ele>1914.8</ele>
        <time>2026-05-06T13:15:52.000Z</time>
      </trkpt>
      <trkpt lat="41.789233" lon="22.965363">
        <ele>1913.7</ele>
        <time>2026-05-06T13:15:53.000Z</time>
      </trkpt>
      <trkpt lat="41.789232" lon="22.965363">
        <ele>1913.7</ele>
        <time>2026-05-06T13:15:54.000Z</time>
      </trkpt>
      <trkpt lat="41.789231" lon="22.965363">
        <ele>1913.7</ele>
        <time>2026-05-06T13:15:55.000Z</time>
      </trkpt>
      <trkpt lat="41.78923" lon="22.965364">
        <ele>1913.7</ele>
        <time>2026-05-06T13:15:56.000Z</time>
      </trkpt>
      <trkpt lat="41.789229" lon="22.965364">
        <ele>1913.7</ele>
        <time>2026-05-06T13:15:57.000Z</time>
      </trkpt>
      <trkpt lat="41.789229" lon="22.965364">
        <ele>1912.8</ele>
        <time>2026-05-06T13:15:58.000Z</time>
      </trkpt>
      <trkpt lat="41.789229" lon="22.965364">
        <ele>1912.8</ele>
        <time>2026-05-06T13:15:59.000Z</time>
      </trkpt>
      <trkpt lat="41.789229" lon="22.965364">
        <ele>1912.8</ele>
        <time>2026-05-06T13:16:00.000Z</time>
      </trkpt>
      <trkpt lat="41.789229" lon="22.965364">
        <ele>1912.8</ele>
        <time>2026-05-06T13:16:01.000Z</time>
      </trkpt>
      <trkpt lat="41.789229" lon="22.965364">
        <ele>1912.8</ele>
        <time>2026-05-06T13:16:02.000Z</time>
      </trkpt>
      <trkpt lat="41.789229" lon="22.965364">
        <ele>1912.3</ele>
        <time>2026-05-06T13:16:03.000Z</time>
      </trkpt>
      <trkpt lat="41.789229" lon="22.965364">
        <ele>1912.3</ele>
        <time>2026-05-06T13:16:04.000Z</time>
      </trkpt>
      <trkpt lat="41.789229" lon="22.965364">
        <ele>1912.3</ele>
        <time>2026-05-06T13:16:05.000Z</time>
      </trkpt>
      <trkpt lat="41.789229" lon="22.965364">
        <ele>1912.3</ele>
        <time>2026-05-06T13:16:06.000Z</time>
      </trkpt>
      <trkpt lat="41.789229" lon="22.965364">
        <ele>1912.3</ele>
        <time>2026-05-06T13:16:07.000Z</time>
      </trkpt>
      <trkpt lat="41.789229" lon="22.965364">
        <ele>1911.9</ele>
        <time>2026-05-06T13:16:08.000Z</time>
      </trkpt>
      <trkpt lat="41.789229" lon="22.965364">
        <ele>1911.9</ele>
        <time>2026-05-06T13:16:09.000Z</time>
      </trkpt>
      <trkpt lat="41.789229" lon="22.965364">
        <ele>1911.9</ele>
        <time>2026-05-06T13:16:10.000Z</time>
      </trkpt>
      <trkpt lat="41.789229" lon="22.965364">
        <ele>1911.9</ele>
        <time>2026-05-06T13:16:11.000Z</time>
      </trkpt>
      <trkpt lat="41.789229" lon="22.965364">
        <ele>1911.9</ele>
        <time>2026-05-06T13:16:12.000Z</time>
      </trkpt>
      <trkpt lat="41.789229" lon="22.965364">
        <ele>1911.8</ele>
        <time>2026-05-06T13:16:13.000Z</time>
      </trkpt>
      <trkpt lat="41.789227" lon="22.965363">
        <ele>1911.8</ele>
        <time>2026-05-06T13:16:14.000Z</time>
      </trkpt>
      <trkpt lat="41.789225" lon="22.965363">
        <ele>1911.8</ele>
        <time>2026-05-06T13:16:15.000Z</time>
      </trkpt>
      <trkpt lat="41.789222" lon="22.965364">
        <ele>1911.8</ele>
        <time>2026-05-06T13:16:16.000Z</time>
      </trkpt>
      <trkpt lat="41.789215" lon="22.965365">
        <ele>1911.8</ele>
        <time>2026-05-06T13:16:17.000Z</time>
      </trkpt>
      <trkpt lat="41.789207" lon="22.965367">
        <ele>1911.9</ele>
        <time>2026-05-06T13:16:18.000Z</time>
      </trkpt>
      <trkpt lat="41.789198" lon="22.965371">
        <ele>1911.9</ele>
        <time>2026-05-06T13:16:19.000Z</time>
      </trkpt>
      <trkpt lat="41.789187" lon="22.965375">
        <ele>1911.9</ele>
        <time>2026-05-06T13:16:20.000Z</time>
      </trkpt>
      <trkpt lat="41.789176" lon="22.96538">
        <ele>1911.9</ele>
        <time>2026-05-06T13:16:21.000Z</time>
      </trkpt>
      <trkpt lat="41.789165" lon="22.965386">
        <ele>1911.9</ele>
        <time>2026-05-06T13:16:22.000Z</time>
      </trkpt>
      <trkpt lat="41.789153" lon="22.965392">
        <ele>1912</ele>
        <time>2026-05-06T13:16:23.000Z</time>
      </trkpt>
      <trkpt lat="41.789142" lon="22.965399">
        <ele>1912</ele>
        <time>2026-05-06T13:16:24.000Z</time>
      </trkpt>
      <trkpt lat="41.789131" lon="22.965405">
        <ele>1912</ele>
        <time>2026-05-06T13:16:25.000Z</time>
      </trkpt>
      <trkpt lat="41.78912" lon="22.965411">
        <ele>1912</ele>
        <time>2026-05-06T13:16:26.000Z</time>
      </trkpt>
      <trkpt lat="41.789109" lon="22.965416">
        <ele>1912</ele>
        <time>2026-05-06T13:16:27.000Z</time>
      </trkpt>
      <trkpt lat="41.789097" lon="22.96542">
        <ele>1912.2</ele>
        <time>2026-05-06T13:16:28.000Z</time>
      </trkpt>
      <trkpt lat="41.789085" lon="22.965423">
        <ele>1912.2</ele>
        <time>2026-05-06T13:16:29.000Z</time>
      </trkpt>
      <trkpt lat="41.789072" lon="22.965427">
        <ele>1912.2</ele>
        <time>2026-05-06T13:16:30.000Z</time>
      </trkpt>
      <trkpt lat="41.78906" lon="22.96543">
        <ele>1912.2</ele>
        <time>2026-05-06T13:16:31.000Z</time>
      </trkpt>
      <trkpt lat="41.789049" lon="22.965433">
        <ele>1912.2</ele>
        <time>2026-05-06T13:16:32.000Z</time>
      </trkpt>
      <trkpt lat="41.789036" lon="22.965437">
        <ele>1912.4</ele>
        <time>2026-05-06T13:16:33.000Z</time>
      </trkpt>
      <trkpt lat="41.789025" lon="22.965443">
        <ele>1912.4</ele>
        <time>2026-05-06T13:16:34.000Z</time>
      </trkpt>
      <trkpt lat="41.789013" lon="22.965448">
        <ele>1912.4</ele>
        <time>2026-05-06T13:16:35.000Z</time>
      </trkpt>
      <trkpt lat="41.789" lon="22.965453">
        <ele>1912.4</ele>
        <time>2026-05-06T13:16:36.000Z</time>
      </trkpt>
      <trkpt lat="41.788987" lon="22.965458">
        <ele>1912.4</ele>
        <time>2026-05-06T13:16:37.000Z</time>
      </trkpt>
      <trkpt lat="41.788974" lon="22.965464">
        <ele>1912.6</ele>
        <time>2026-05-06T13:16:38.000Z</time>
      </trkpt>
      <trkpt lat="41.788962" lon="22.965467">
        <ele>1912.6</ele>
        <time>2026-05-06T13:16:39.000Z</time>
      </trkpt>
      <trkpt lat="41.78895" lon="22.965471">
        <ele>1912.6</ele>
        <time>2026-05-06T13:16:40.000Z</time>
      </trkpt>
      <trkpt lat="41.788938" lon="22.965474">
        <ele>1912.6</ele>
        <time>2026-05-06T13:16:41.000Z</time>
      </trkpt>
      <trkpt lat="41.788927" lon="22.965476">
        <ele>1912.6</ele>
        <time>2026-05-06T13:16:42.000Z</time>
      </trkpt>
      <trkpt lat="41.788917" lon="22.965478">
        <ele>1912.5</ele>
        <time>2026-05-06T13:16:43.000Z</time>
      </trkpt>
      <trkpt lat="41.788906" lon="22.96548">
        <ele>1912.5</ele>
        <time>2026-05-06T13:16:44.000Z</time>
      </trkpt>
      <trkpt lat="41.788894" lon="22.965482">
        <ele>1912.5</ele>
        <time>2026-05-06T13:16:45.000Z</time>
      </trkpt>
      <trkpt lat="41.788884" lon="22.965484">
        <ele>1912.5</ele>
        <time>2026-05-06T13:16:46.000Z</time>
      </trkpt>
      <trkpt lat="41.788873" lon="22.965487">
        <ele>1912.5</ele>
        <time>2026-05-06T13:16:47.000Z</time>
      </trkpt>
      <trkpt lat="41.788864" lon="22.965489">
        <ele>1912.4</ele>
        <time>2026-05-06T13:16:48.000Z</time>
      </trkpt>
      <trkpt lat="41.788856" lon="22.965492">
        <ele>1912.4</ele>
        <time>2026-05-06T13:16:49.000Z</time>
      </trkpt>
      <trkpt lat="41.788848" lon="22.965496">
        <ele>1912.4</ele>
        <time>2026-05-06T13:16:50.000Z</time>
      </trkpt>
      <trkpt lat="41.788839" lon="22.965499">
        <ele>1912.4</ele>
        <time>2026-05-06T13:16:51.000Z</time>
      </trkpt>
      <trkpt lat="41.78883" lon="22.965503">
        <ele>1912.4</ele>
        <time>2026-05-06T13:16:52.000Z</time>
      </trkpt>
      <trkpt lat="41.788821" lon="22.965508">
        <ele>1912.3</ele>
        <time>2026-05-06T13:16:53.000Z</time>
      </trkpt>
      <trkpt lat="41.788812" lon="22.965511">
        <ele>1912.3</ele>
        <time>2026-05-06T13:16:54.000Z</time>
      </trkpt>
      <trkpt lat="41.788803" lon="22.965515">
        <ele>1912.3</ele>
        <time>2026-05-06T13:16:55.000Z</time>
      </trkpt>
      <trkpt lat="41.788793" lon="22.965519">
        <ele>1912.3</ele>
        <time>2026-05-06T13:16:56.000Z</time>
      </trkpt>
      <trkpt lat="41.788782" lon="22.965522">
        <ele>1912.3</ele>
        <time>2026-05-06T13:16:57.000Z</time>
      </trkpt>
      <trkpt lat="41.788772" lon="22.965524">
        <ele>1912.3</ele>
        <time>2026-05-06T13:16:58.000Z</time>
      </trkpt>
      <trkpt lat="41.788761" lon="22.965527">
        <ele>1912.3</ele>
        <time>2026-05-06T13:16:59.000Z</time>
      </trkpt>
      <trkpt lat="41.788751" lon="22.965529">
        <ele>1912.3</ele>
        <time>2026-05-06T13:17:00.000Z</time>
      </trkpt>
      <trkpt lat="41.78874" lon="22.965531">
        <ele>1912.3</ele>
        <time>2026-05-06T13:17:01.000Z</time>
      </trkpt>
      <trkpt lat="41.788731" lon="22.965533">
        <ele>1912.3</ele>
        <time>2026-05-06T13:17:02.000Z</time>
      </trkpt>
      <trkpt lat="41.788721" lon="22.965535">
        <ele>1912.4</ele>
        <time>2026-05-06T13:17:03.000Z</time>
      </trkpt>
      <trkpt lat="41.788712" lon="22.965537">
        <ele>1912.4</ele>
        <time>2026-05-06T13:17:04.000Z</time>
      </trkpt>
      <trkpt lat="41.788702" lon="22.96554">
        <ele>1912.4</ele>
        <time>2026-05-06T13:17:05.000Z</time>
      </trkpt>
      <trkpt lat="41.788693" lon="22.965543">
        <ele>1912.4</ele>
        <time>2026-05-06T13:17:06.000Z</time>
      </trkpt>
      <trkpt lat="41.788683" lon="22.965546">
        <ele>1912.4</ele>
        <time>2026-05-06T13:17:07.000Z</time>
      </trkpt>
      <trkpt lat="41.788674" lon="22.965549">
        <ele>1912.4</ele>
        <time>2026-05-06T13:17:08.000Z</time>
      </trkpt>
      <trkpt lat="41.788664" lon="22.965551">
        <ele>1912.4</ele>
        <time>2026-05-06T13:17:09.000Z</time>
      </trkpt>
      <trkpt lat="41.788654" lon="22.965553">
        <ele>1912.4</ele>
        <time>2026-05-06T13:17:10.000Z</time>
      </trkpt>
      <trkpt lat="41.788646" lon="22.965552">
        <ele>1912.4</ele>
        <time>2026-05-06T13:17:11.000Z</time>
      </trkpt>
      <trkpt lat="41.78864" lon="22.965551">
        <ele>1912.4</ele>
        <time>2026-05-06T13:17:12.000Z</time>
      </trkpt>
      <trkpt lat="41.788636" lon="22.96555">
        <ele>1912.3</ele>
        <time>2026-05-06T13:17:13.000Z</time>
      </trkpt>
      <trkpt lat="41.788634" lon="22.965547">
        <ele>1912.3</ele>
        <time>2026-05-06T13:17:14.000Z</time>
      </trkpt>
      <trkpt lat="41.788635" lon="22.965546">
        <ele>1912.3</ele>
        <time>2026-05-06T13:17:15.000Z</time>
      </trkpt>
      <trkpt lat="41.788636" lon="22.965549">
        <ele>1912.3</ele>
        <time>2026-05-06T13:17:16.000Z</time>
      </trkpt>
      <trkpt lat="41.788636" lon="22.965553">
        <ele>1912.3</ele>
        <time>2026-05-06T13:17:17.000Z</time>
      </trkpt>
      <trkpt lat="41.788636" lon="22.96556">
        <ele>1912.2</ele>
        <time>2026-05-06T13:17:18.000Z</time>
      </trkpt>
      <trkpt lat="41.788637" lon="22.96557">
        <ele>1912.2</ele>
        <time>2026-05-06T13:17:19.000Z</time>
      </trkpt>
      <trkpt lat="41.788637" lon="22.965583">
        <ele>1912.2</ele>
        <time>2026-05-06T13:17:20.000Z</time>
      </trkpt>
      <trkpt lat="41.788639" lon="22.965595">
        <ele>1912.2</ele>
        <time>2026-05-06T13:17:21.000Z</time>
      </trkpt>
      <trkpt lat="41.788642" lon="22.965604">
        <ele>1912.2</ele>
        <time>2026-05-06T13:17:22.000Z</time>
      </trkpt>
      <trkpt lat="41.788644" lon="22.965613">
        <ele>1911.8</ele>
        <time>2026-05-06T13:17:23.000Z</time>
      </trkpt>
      <trkpt lat="41.788645" lon="22.965618">
        <ele>1911.8</ele>
        <time>2026-05-06T13:17:24.000Z</time>
      </trkpt>
      <trkpt lat="41.788646" lon="22.96562">
        <ele>1911.8</ele>
        <time>2026-05-06T13:17:25.000Z</time>
      </trkpt>
      <trkpt lat="41.788645" lon="22.965621">
        <ele>1911.8</ele>
        <time>2026-05-06T13:17:26.000Z</time>
      </trkpt>
      <trkpt lat="41.788645" lon="22.965622">
        <ele>1911.8</ele>
        <time>2026-05-06T13:17:27.000Z</time>
      </trkpt>
      <trkpt lat="41.788645" lon="22.965623">
        <ele>1911.7</ele>
        <time>2026-05-06T13:17:28.000Z</time>
      </trkpt>
      <trkpt lat="41.788644" lon="22.965623">
        <ele>1911.7</ele>
        <time>2026-05-06T13:17:29.000Z</time>
      </trkpt>
      <trkpt lat="41.788644" lon="22.965623">
        <ele>1911.7</ele>
        <time>2026-05-06T13:17:30.000Z</time>
      </trkpt>
      <trkpt lat="41.788644" lon="22.965626">
        <ele>1911.7</ele>
        <time>2026-05-06T13:17:31.000Z</time>
      </trkpt>
      <trkpt lat="41.788645" lon="22.96563">
        <ele>1911.7</ele>
        <time>2026-05-06T13:17:32.000Z</time>
      </trkpt>
      <trkpt lat="41.788647" lon="22.965635">
        <ele>1911.8</ele>
        <time>2026-05-06T13:17:33.000Z</time>
      </trkpt>
      <trkpt lat="41.78865" lon="22.965643">
        <ele>1911.8</ele>
        <time>2026-05-06T13:17:34.000Z</time>
      </trkpt>
      <trkpt lat="41.788654" lon="22.965653">
        <ele>1911.8</ele>
        <time>2026-05-06T13:17:35.000Z</time>
      </trkpt>
      <trkpt lat="41.788657" lon="22.965662">
        <ele>1911.8</ele>
        <time>2026-05-06T13:17:36.000Z</time>
      </trkpt>
      <trkpt lat="41.788661" lon="22.965671">
        <ele>1911.8</ele>
        <time>2026-05-06T13:17:37.000Z</time>
      </trkpt>
      <trkpt lat="41.788664" lon="22.965679">
        <ele>1911.8</ele>
        <time>2026-05-06T13:17:38.000Z</time>
      </trkpt>
      <trkpt lat="41.788666" lon="22.965684">
        <ele>1911.8</ele>
        <time>2026-05-06T13:17:39.000Z</time>
      </trkpt>
      <trkpt lat="41.788668" lon="22.965688">
        <ele>1911.8</ele>
        <time>2026-05-06T13:17:40.000Z</time>
      </trkpt>
      <trkpt lat="41.788671" lon="22.965691">
        <ele>1911.8</ele>
        <time>2026-05-06T13:17:41.000Z</time>
      </trkpt>
      <trkpt lat="41.788675" lon="22.965694">
        <ele>1911.8</ele>
        <time>2026-05-06T13:17:42.000Z</time>
      </trkpt>
      <trkpt lat="41.788681" lon="22.9657">
        <ele>1911.4</ele>
        <time>2026-05-06T13:17:43.000Z</time>
      </trkpt>
      <trkpt lat="41.788687" lon="22.9657">
        <ele>1911.4</ele>
        <time>2026-05-06T13:17:44.000Z</time>
      </trkpt>
      <trkpt lat="41.788734" lon="22.96576">
        <ele>1912</ele>
        <time>2026-05-06T13:18:07.000Z</time>
      </trkpt>
      <trkpt lat="41.788733" lon="22.965759">
        <ele>1912</ele>
        <time>2026-05-06T13:18:08.000Z</time>
      </trkpt>
      <trkpt lat="41.788732" lon="22.965758">
        <ele>1912</ele>
        <time>2026-05-06T13:18:09.000Z</time>
      </trkpt>
      <trkpt lat="41.788731" lon="22.965757">
        <ele>1912</ele>
        <time>2026-05-06T13:18:10.000Z</time>
      </trkpt>
      <trkpt lat="41.78873" lon="22.965757">
        <ele>1912</ele>
        <time>2026-05-06T13:18:11.000Z</time>
      </trkpt>
      <trkpt lat="41.788729" lon="22.965758">
        <ele>1912</ele>
        <time>2026-05-06T13:18:12.000Z</time>
      </trkpt>
      <trkpt lat="41.788728" lon="22.965757">
        <ele>1911.8</ele>
        <time>2026-05-06T13:18:13.000Z</time>
      </trkpt>
      <trkpt lat="41.788728" lon="22.965757">
        <ele>1911.8</ele>
        <time>2026-05-06T13:18:14.000Z</time>
      </trkpt>
      <trkpt lat="41.788727" lon="22.965757">
        <ele>1911.8</ele>
        <time>2026-05-06T13:18:15.000Z</time>
      </trkpt>
      <trkpt lat="41.788726" lon="22.965757">
        <ele>1911.8</ele>
        <time>2026-05-06T13:18:16.000Z</time>
      </trkpt>
      <trkpt lat="41.788725" lon="22.965757">
        <ele>1911.8</ele>
        <time>2026-05-06T13:18:17.000Z</time>
      </trkpt>
      <trkpt lat="41.788725" lon="22.965757">
        <ele>1911.3</ele>
        <time>2026-05-06T13:18:18.000Z</time>
      </trkpt>
      <trkpt lat="41.788724" lon="22.965758">
        <ele>1911.3</ele>
        <time>2026-05-06T13:18:19.000Z</time>
      </trkpt>
      <trkpt lat="41.788724" lon="22.965758">
        <ele>1911.3</ele>
        <time>2026-05-06T13:18:20.000Z</time>
      </trkpt>
      <trkpt lat="41.788725" lon="22.965758">
        <ele>1911.3</ele>
        <time>2026-05-06T13:18:21.000Z</time>
      </trkpt>
      <trkpt lat="41.788726" lon="22.965758">
        <ele>1911.3</ele>
        <time>2026-05-06T13:18:22.000Z</time>
      </trkpt>
      <trkpt lat="41.788727" lon="22.965758">
        <ele>1910.9</ele>
        <time>2026-05-06T13:18:23.000Z</time>
      </trkpt>
      <trkpt lat="41.788727" lon="22.965759">
        <ele>1910.9</ele>
        <time>2026-05-06T13:18:24.000Z</time>
      </trkpt>
      <trkpt lat="41.788728" lon="22.965759">
        <ele>1910.9</ele>
        <time>2026-05-06T13:18:25.000Z</time>
      </trkpt>
      <trkpt lat="41.788728" lon="22.96576">
        <ele>1910.9</ele>
        <time>2026-05-06T13:18:26.000Z</time>
      </trkpt>
      <trkpt lat="41.788727" lon="22.965761">
        <ele>1910.9</ele>
        <time>2026-05-06T13:18:27.000Z</time>
      </trkpt>
      <trkpt lat="41.788726" lon="22.965761">
        <ele>1910.8</ele>
        <time>2026-05-06T13:18:28.000Z</time>
      </trkpt>
      <trkpt lat="41.788724" lon="22.96576">
        <ele>1910.8</ele>
        <time>2026-05-06T13:18:29.000Z</time>
      </trkpt>
      <trkpt lat="41.788723" lon="22.965759">
        <ele>1910.8</ele>
        <time>2026-05-06T13:18:30.000Z</time>
      </trkpt>
      <trkpt lat="41.788721" lon="22.965758">
        <ele>1910.8</ele>
        <time>2026-05-06T13:18:31.000Z</time>
      </trkpt>
      <trkpt lat="41.788721" lon="22.965757">
        <ele>1910.8</ele>
        <time>2026-05-06T13:18:32.000Z</time>
      </trkpt>
      <trkpt lat="41.788719" lon="22.965756">
        <ele>1910.9</ele>
        <time>2026-05-06T13:18:33.000Z</time>
      </trkpt>
      <trkpt lat="41.788718" lon="22.965755">
        <ele>1910.9</ele>
        <time>2026-05-06T13:18:34.000Z</time>
      </trkpt>
      <trkpt lat="41.788717" lon="22.965754">
        <ele>1910.9</ele>
        <time>2026-05-06T13:18:35.000Z</time>
      </trkpt>
      <trkpt lat="41.788716" lon="22.965753">
        <ele>1910.9</ele>
        <time>2026-05-06T13:18:36.000Z</time>
      </trkpt>
      <trkpt lat="41.788715" lon="22.965753">
        <ele>1910.9</ele>
        <time>2026-05-06T13:18:37.000Z</time>
      </trkpt>
      <trkpt lat="41.788714" lon="22.965752">
        <ele>1911</ele>
        <time>2026-05-06T13:18:38.000Z</time>
      </trkpt>
      <trkpt lat="41.788714" lon="22.965753">
        <ele>1911</ele>
        <time>2026-05-06T13:18:39.000Z</time>
      </trkpt>
      <trkpt lat="41.788714" lon="22.965753">
        <ele>1911</ele>
        <time>2026-05-06T13:18:40.000Z</time>
      </trkpt>
      <trkpt lat="41.788714" lon="22.965753">
        <ele>1911</ele>
        <time>2026-05-06T13:18:41.000Z</time>
      </trkpt>
      <trkpt lat="41.788714" lon="22.965753">
        <ele>1911</ele>
        <time>2026-05-06T13:18:42.000Z</time>
      </trkpt>
      <trkpt lat="41.788715" lon="22.965753">
        <ele>1911</ele>
        <time>2026-05-06T13:18:43.000Z</time>
      </trkpt>
      <trkpt lat="41.788716" lon="22.965752">
        <ele>1911</ele>
        <time>2026-05-06T13:18:44.000Z</time>
      </trkpt>
      <trkpt lat="41.788716" lon="22.965752">
        <ele>1911</ele>
        <time>2026-05-06T13:18:45.000Z</time>
      </trkpt>
      <trkpt lat="41.788717" lon="22.965751">
        <ele>1911</ele>
        <time>2026-05-06T13:18:46.000Z</time>
      </trkpt>
      <trkpt lat="41.788717" lon="22.965751">
        <ele>1911</ele>
        <time>2026-05-06T13:18:47.000Z</time>
      </trkpt>
      <trkpt lat="41.788717" lon="22.965751">
        <ele>1910.8</ele>
        <time>2026-05-06T13:18:48.000Z</time>
      </trkpt>
      <trkpt lat="41.788717" lon="22.965751">
        <ele>1910.8</ele>
        <time>2026-05-06T13:18:49.000Z</time>
      </trkpt>
      <trkpt lat="41.788717" lon="22.96575">
        <ele>1910.8</ele>
        <time>2026-05-06T13:18:50.000Z</time>
      </trkpt>
      <trkpt lat="41.788715" lon="22.96575">
        <ele>1910.8</ele>
        <time>2026-05-06T13:18:51.000Z</time>
      </trkpt>
      <trkpt lat="41.788714" lon="22.96575">
        <ele>1910.8</ele>
        <time>2026-05-06T13:18:52.000Z</time>
      </trkpt>
      <trkpt lat="41.788714" lon="22.96575">
        <ele>1910.6</ele>
        <time>2026-05-06T13:18:53.000Z</time>
      </trkpt>
      <trkpt lat="41.788713" lon="22.965751">
        <ele>1910.6</ele>
        <time>2026-05-06T13:18:54.000Z</time>
      </trkpt>
      <trkpt lat="41.788713" lon="22.965751">
        <ele>1910.6</ele>
        <time>2026-05-06T13:18:55.000Z</time>
      </trkpt>
      <trkpt lat="41.788713" lon="22.965751">
        <ele>1910.6</ele>
        <time>2026-05-06T13:18:56.000Z</time>
      </trkpt>
      <trkpt lat="41.788713" lon="22.965751">
        <ele>1910.6</ele>
        <time>2026-05-06T13:18:57.000Z</time>
      </trkpt>
      <trkpt lat="41.788712" lon="22.96575">
        <ele>1910.6</ele>
        <time>2026-05-06T13:18:58.000Z</time>
      </trkpt>
      <trkpt lat="41.788712" lon="22.96575">
        <ele>1910.6</ele>
        <time>2026-05-06T13:18:59.000Z</time>
      </trkpt>
      <trkpt lat="41.788712" lon="22.96575">
        <ele>1910.6</ele>
        <time>2026-05-06T13:19:00.000Z</time>
      </trkpt>
      <trkpt lat="41.788712" lon="22.96575">
        <ele>1910.6</ele>
        <time>2026-05-06T13:19:01.000Z</time>
      </trkpt>
      <trkpt lat="41.788713" lon="22.965749">
        <ele>1910.6</ele>
        <time>2026-05-06T13:19:02.000Z</time>
      </trkpt>
      <trkpt lat="41.788713" lon="22.96575">
        <ele>1910.7</ele>
        <time>2026-05-06T13:19:03.000Z</time>
      </trkpt>
      <trkpt lat="41.788713" lon="22.965751">
        <ele>1910.7</ele>
        <time>2026-05-06T13:19:04.000Z</time>
      </trkpt>
      <trkpt lat="41.788713" lon="22.965752">
        <ele>1910.7</ele>
        <time>2026-05-06T13:19:05.000Z</time>
      </trkpt>
      <trkpt lat="41.788712" lon="22.965753">
        <ele>1910.7</ele>
        <time>2026-05-06T13:19:06.000Z</time>
      </trkpt>
      <trkpt lat="41.788711" lon="22.965754">
        <ele>1910.7</ele>
        <time>2026-05-06T13:19:07.000Z</time>
      </trkpt>
      <trkpt lat="41.78871" lon="22.965755">
        <ele>1910.8</ele>
        <time>2026-05-06T13:19:08.000Z</time>
      </trkpt>
      <trkpt lat="41.78871" lon="22.965755">
        <ele>1910.8</ele>
        <time>2026-05-06T13:19:09.000Z</time>
      </trkpt>
      <trkpt lat="41.788709" lon="22.965755">
        <ele>1910.8</ele>
        <time>2026-05-06T13:19:10.000Z</time>
      </trkpt>
      <trkpt lat="41.788708" lon="22.965755">
        <ele>1910.8</ele>
        <time>2026-05-06T13:19:11.000Z</time>
      </trkpt>
      <trkpt lat="41.788708" lon="22.965756">
        <ele>1910.8</ele>
        <time>2026-05-06T13:19:12.000Z</time>
      </trkpt>
      <trkpt lat="41.788707" lon="22.965755">
        <ele>1910.8</ele>
        <time>2026-05-06T13:19:13.000Z</time>
      </trkpt>
      <trkpt lat="41.788707" lon="22.965755">
        <ele>1910.8</ele>
        <time>2026-05-06T13:19:14.000Z</time>
      </trkpt>
      <trkpt lat="41.788705" lon="22.965755">
        <ele>1910.8</ele>
        <time>2026-05-06T13:19:15.000Z</time>
      </trkpt>
      <trkpt lat="41.788705" lon="22.965755">
        <ele>1910.8</ele>
        <time>2026-05-06T13:19:16.000Z</time>
      </trkpt>
      <trkpt lat="41.788705" lon="22.965755">
        <ele>1910.8</ele>
        <time>2026-05-06T13:19:17.000Z</time>
      </trkpt>
      <trkpt lat="41.788706" lon="22.965754">
        <ele>1910.7</ele>
        <time>2026-05-06T13:19:18.000Z</time>
      </trkpt>
      <trkpt lat="41.788706" lon="22.965754">
        <ele>1910.7</ele>
        <time>2026-05-06T13:19:19.000Z</time>
      </trkpt>
      <trkpt lat="41.788708" lon="22.965754">
        <ele>1910.7</ele>
        <time>2026-05-06T13:19:20.000Z</time>
      </trkpt>
      <trkpt lat="41.788709" lon="22.965754">
        <ele>1910.7</ele>
        <time>2026-05-06T13:19:21.000Z</time>
      </trkpt>
      <trkpt lat="41.788711" lon="22.965753">
        <ele>1910.7</ele>
        <time>2026-05-06T13:19:22.000Z</time>
      </trkpt>
      <trkpt lat="41.788712" lon="22.965752">
        <ele>1910.7</ele>
        <time>2026-05-06T13:19:23.000Z</time>
      </trkpt>
      <trkpt lat="41.788713" lon="22.965752">
        <ele>1910.7</ele>
        <time>2026-05-06T13:19:24.000Z</time>
      </trkpt>
      <trkpt lat="41.788713" lon="22.965751">
        <ele>1910.7</ele>
        <time>2026-05-06T13:19:25.000Z</time>
      </trkpt>
      <trkpt lat="41.788713" lon="22.965751">
        <ele>1910.7</ele>
        <time>2026-05-06T13:19:26.000Z</time>
      </trkpt>
      <trkpt lat="41.788713" lon="22.96575">
        <ele>1910.7</ele>
        <time>2026-05-06T13:19:27.000Z</time>
      </trkpt>
      <trkpt lat="41.788714" lon="22.96575">
        <ele>1910.6</ele>
        <time>2026-05-06T13:19:28.000Z</time>
      </trkpt>
      <trkpt lat="41.788714" lon="22.965751">
        <ele>1910.6</ele>
        <time>2026-05-06T13:19:29.000Z</time>
      </trkpt>
      <trkpt lat="41.788715" lon="22.965751">
        <ele>1910.6</ele>
        <time>2026-05-06T13:19:30.000Z</time>
      </trkpt>
      <trkpt lat="41.788715" lon="22.965752">
        <ele>1910.6</ele>
        <time>2026-05-06T13:19:31.000Z</time>
      </trkpt>
      <trkpt lat="41.788715" lon="22.965753">
        <ele>1910.6</ele>
        <time>2026-05-06T13:19:32.000Z</time>
      </trkpt>
      <trkpt lat="41.788715" lon="22.965753">
        <ele>1910.6</ele>
        <time>2026-05-06T13:19:33.000Z</time>
      </trkpt>
      <trkpt lat="41.788715" lon="22.965754">
        <ele>1910.6</ele>
        <time>2026-05-06T13:19:34.000Z</time>
      </trkpt>
      <trkpt lat="41.788715" lon="22.965754">
        <ele>1910.6</ele>
        <time>2026-05-06T13:19:35.000Z</time>
      </trkpt>
      <trkpt lat="41.788714" lon="22.965754">
        <ele>1910.6</ele>
        <time>2026-05-06T13:19:36.000Z</time>
      </trkpt>
      <trkpt lat="41.788714" lon="22.965754">
        <ele>1910.6</ele>
        <time>2026-05-06T13:19:37.000Z</time>
      </trkpt>
      <trkpt lat="41.788715" lon="22.965754">
        <ele>1910.6</ele>
        <time>2026-05-06T13:19:38.000Z</time>
      </trkpt>
      <trkpt lat="41.788715" lon="22.965753">
        <ele>1910.6</ele>
        <time>2026-05-06T13:19:39.000Z</time>
      </trkpt>
      <trkpt lat="41.788715" lon="22.965753">
        <ele>1910.6</ele>
        <time>2026-05-06T13:19:40.000Z</time>
      </trkpt>
      <trkpt lat="41.788716" lon="22.965752">
        <ele>1910.6</ele>
        <time>2026-05-06T13:19:41.000Z</time>
      </trkpt>
      <trkpt lat="41.788716" lon="22.965751">
        <ele>1910.6</ele>
        <time>2026-05-06T13:19:42.000Z</time>
      </trkpt>
      <trkpt lat="41.788716" lon="22.965751">
        <ele>1910.7</ele>
        <time>2026-05-06T13:19:43.000Z</time>
      </trkpt>
      <trkpt lat="41.788716" lon="22.96575">
        <ele>1910.7</ele>
        <time>2026-05-06T13:19:44.000Z</time>
      </trkpt>
      <trkpt lat="41.788716" lon="22.96575">
        <ele>1910.7</ele>
        <time>2026-05-06T13:19:45.000Z</time>
      </trkpt>
      <trkpt lat="41.788716" lon="22.96575">
        <ele>1910.7</ele>
        <time>2026-05-06T13:19:46.000Z</time>
      </trkpt>
      <trkpt lat="41.788716" lon="22.96575">
        <ele>1910.7</ele>
        <time>2026-05-06T13:19:47.000Z</time>
      </trkpt>
      <trkpt lat="41.788717" lon="22.96575">
        <ele>1911</ele>
        <time>2026-05-06T13:19:48.000Z</time>
      </trkpt>
      <trkpt lat="41.788719" lon="22.965749">
        <ele>1911</ele>
        <time>2026-05-06T13:19:49.000Z</time>
      </trkpt>
      <trkpt lat="41.788721" lon="22.965747">
        <ele>1911</ele>
        <time>2026-05-06T13:19:50.000Z</time>
      </trkpt>
      <trkpt lat="41.788722" lon="22.965746">
        <ele>1911</ele>
        <time>2026-05-06T13:19:51.000Z</time>
      </trkpt>
      <trkpt lat="41.788722" lon="22.965745">
        <ele>1911</ele>
        <time>2026-05-06T13:19:52.000Z</time>
      </trkpt>
      <trkpt lat="41.788722" lon="22.965744">
        <ele>1911.1</ele>
        <time>2026-05-06T13:19:53.000Z</time>
      </trkpt>
      <trkpt lat="41.788722" lon="22.965744">
        <ele>1911.1</ele>
        <time>2026-05-06T13:19:54.000Z</time>
      </trkpt>
      <trkpt lat="41.788722" lon="22.965744">
        <ele>1911.1</ele>
        <time>2026-05-06T13:19:55.000Z</time>
      </trkpt>
      <trkpt lat="41.788722" lon="22.965744">
        <ele>1911.1</ele>
        <time>2026-05-06T13:19:56.000Z</time>
      </trkpt>
      <trkpt lat="41.788723" lon="22.965744">
        <ele>1911.1</ele>
        <time>2026-05-06T13:19:57.000Z</time>
      </trkpt>
      <trkpt lat="41.788723" lon="22.965744">
        <ele>1911.2</ele>
        <time>2026-05-06T13:19:58.000Z</time>
      </trkpt>
      <trkpt lat="41.788723" lon="22.965744">
        <ele>1911.2</ele>
        <time>2026-05-06T13:19:59.000Z</time>
      </trkpt>
      <trkpt lat="41.788723" lon="22.965745">
        <ele>1911.2</ele>
        <time>2026-05-06T13:20:00.000Z</time>
      </trkpt>
      <trkpt lat="41.788723" lon="22.965745">
        <ele>1911.2</ele>
        <time>2026-05-06T13:20:01.000Z</time>
      </trkpt>
      <trkpt lat="41.788722" lon="22.965746">
        <ele>1911.2</ele>
        <time>2026-05-06T13:20:02.000Z</time>
      </trkpt>
      <trkpt lat="41.788722" lon="22.965746">
        <ele>1911.2</ele>
        <time>2026-05-06T13:20:03.000Z</time>
      </trkpt>
      <trkpt lat="41.788722" lon="22.965746">
        <ele>1911.2</ele>
        <time>2026-05-06T13:20:04.000Z</time>
      </trkpt>
      <trkpt lat="41.788722" lon="22.965746">
        <ele>1911.2</ele>
        <time>2026-05-06T13:20:05.000Z</time>
      </trkpt>
      <trkpt lat="41.788721" lon="22.965746">
        <ele>1911.2</ele>
        <time>2026-05-06T13:20:06.000Z</time>
      </trkpt>
      <trkpt lat="41.788721" lon="22.965747">
        <ele>1911.2</ele>
        <time>2026-05-06T13:20:07.000Z</time>
      </trkpt>
      <trkpt lat="41.788722" lon="22.965747">
        <ele>1911.3</ele>
        <time>2026-05-06T13:20:08.000Z</time>
      </trkpt>
      <trkpt lat="41.788723" lon="22.965748">
        <ele>1911.3</ele>
        <time>2026-05-06T13:20:09.000Z</time>
      </trkpt>
      <trkpt lat="41.788727" lon="22.96575">
        <ele>1911.3</ele>
        <time>2026-05-06T13:20:10.000Z</time>
      </trkpt>
      <trkpt lat="41.788731" lon="22.965753">
        <ele>1911.3</ele>
        <time>2026-05-06T13:20:11.000Z</time>
      </trkpt>
      <trkpt lat="41.788736" lon="22.965757">
        <ele>1911.3</ele>
        <time>2026-05-06T13:20:12.000Z</time>
      </trkpt>
      <trkpt lat="41.78874" lon="22.965763">
        <ele>1911.4</ele>
        <time>2026-05-06T13:20:13.000Z</time>
      </trkpt>
      <trkpt lat="41.788743" lon="22.965768">
        <ele>1911.4</ele>
        <time>2026-05-06T13:20:14.000Z</time>
      </trkpt>
      <trkpt lat="41.788744" lon="22.965772">
        <ele>1911.4</ele>
        <time>2026-05-06T13:20:15.000Z</time>
      </trkpt>
      <trkpt lat="41.788745" lon="22.965775">
        <ele>1911.4</ele>
        <time>2026-05-06T13:20:16.000Z</time>
      </trkpt>
      <trkpt lat="41.788744" lon="22.965776">
        <ele>1911.4</ele>
        <time>2026-05-06T13:20:17.000Z</time>
      </trkpt>
      <trkpt lat="41.788742" lon="22.965777">
        <ele>1911.2</ele>
        <time>2026-05-06T13:20:18.000Z</time>
      </trkpt>
      <trkpt lat="41.788741" lon="22.965776">
        <ele>1911.2</ele>
        <time>2026-05-06T13:20:19.000Z</time>
      </trkpt>
      <trkpt lat="41.78874" lon="22.965776">
        <ele>1911.2</ele>
        <time>2026-05-06T13:20:20.000Z</time>
      </trkpt>
      <trkpt lat="41.788739" lon="22.965776">
        <ele>1911.2</ele>
        <time>2026-05-06T13:20:21.000Z</time>
      </trkpt>
      <trkpt lat="41.788738" lon="22.965777">
        <ele>1911.2</ele>
        <time>2026-05-06T13:20:22.000Z</time>
      </trkpt>
      <trkpt lat="41.788738" lon="22.965777">
        <ele>1910.8</ele>
        <time>2026-05-06T13:20:23.000Z</time>
      </trkpt>
      <trkpt lat="41.788737" lon="22.965778">
        <ele>1910.8</ele>
        <time>2026-05-06T13:20:24.000Z</time>
      </trkpt>
      <trkpt lat="41.788737" lon="22.965779">
        <ele>1910.8</ele>
        <time>2026-05-06T13:20:25.000Z</time>
      </trkpt>
      <trkpt lat="41.788737" lon="22.96578">
        <ele>1910.8</ele>
        <time>2026-05-06T13:20:26.000Z</time>
      </trkpt>
      <trkpt lat="41.788737" lon="22.96578">
        <ele>1910.8</ele>
        <time>2026-05-06T13:20:27.000Z</time>
      </trkpt>
      <trkpt lat="41.788738" lon="22.965782">
        <ele>1910.6</ele>
        <time>2026-05-06T13:20:28.000Z</time>
      </trkpt>
      <trkpt lat="41.788739" lon="22.965784">
        <ele>1910.6</ele>
        <time>2026-05-06T13:20:29.000Z</time>
      </trkpt>
      <trkpt lat="41.788742" lon="22.965788">
        <ele>1910.6</ele>
        <time>2026-05-06T13:20:30.000Z</time>
      </trkpt>
      <trkpt lat="41.788748" lon="22.965794">
        <ele>1910.6</ele>
        <time>2026-05-06T13:20:31.000Z</time>
      </trkpt>
      <trkpt lat="41.788755" lon="22.965802">
        <ele>1910.6</ele>
        <time>2026-05-06T13:20:32.000Z</time>
      </trkpt>
      <trkpt lat="41.788763" lon="22.965811">
        <ele>1910.4</ele>
        <time>2026-05-06T13:20:33.000Z</time>
      </trkpt>
      <trkpt lat="41.78877" lon="22.965821">
        <ele>1910.4</ele>
        <time>2026-05-06T13:20:34.000Z</time>
      </trkpt>
      <trkpt lat="41.788776" lon="22.96583">
        <ele>1910.4</ele>
        <time>2026-05-06T13:20:35.000Z</time>
      </trkpt>
      <trkpt lat="41.78878" lon="22.965839">
        <ele>1910.4</ele>
        <time>2026-05-06T13:20:36.000Z</time>
      </trkpt>
      <trkpt lat="41.788783" lon="22.965847">
        <ele>1910.4</ele>
        <time>2026-05-06T13:20:37.000Z</time>
      </trkpt>
      <trkpt lat="41.788784" lon="22.965853">
        <ele>1910.2</ele>
        <time>2026-05-06T13:20:38.000Z</time>
      </trkpt>
      <trkpt lat="41.788784" lon="22.965857">
        <ele>1910.2</ele>
        <time>2026-05-06T13:20:39.000Z</time>
      </trkpt>
      <trkpt lat="41.788784" lon="22.96586">
        <ele>1910.2</ele>
        <time>2026-05-06T13:20:40.000Z</time>
      </trkpt>
      <trkpt lat="41.788782" lon="22.965861">
        <ele>1910.2</ele>
        <time>2026-05-06T13:20:41.000Z</time>
      </trkpt>
      <trkpt lat="41.78878" lon="22.965861">
        <ele>1910.2</ele>
        <time>2026-05-06T13:20:42.000Z</time>
      </trkpt>
      <trkpt lat="41.788778" lon="22.965861">
        <ele>1910</ele>
        <time>2026-05-06T13:20:43.000Z</time>
      </trkpt>
      <trkpt lat="41.788778" lon="22.96586">
        <ele>1910</ele>
        <time>2026-05-06T13:20:44.000Z</time>
      </trkpt>
      <trkpt lat="41.788777" lon="22.96586">
        <ele>1910</ele>
        <time>2026-05-06T13:20:45.000Z</time>
      </trkpt>
      <trkpt lat="41.788776" lon="22.96586">
        <ele>1910</ele>
        <time>2026-05-06T13:20:46.000Z</time>
      </trkpt>
      <trkpt lat="41.788776" lon="22.96586">
        <ele>1910</ele>
        <time>2026-05-06T13:20:47.000Z</time>
      </trkpt>
      <trkpt lat="41.788776" lon="22.96586">
        <ele>1909.2</ele>
        <time>2026-05-06T13:20:48.000Z</time>
      </trkpt>
      <trkpt lat="41.788776" lon="22.96586">
        <ele>1909.2</ele>
        <time>2026-05-06T13:20:49.000Z</time>
      </trkpt>
      <trkpt lat="41.788776" lon="22.96586">
        <ele>1909.2</ele>
        <time>2026-05-06T13:20:50.000Z</time>
      </trkpt>
      <trkpt lat="41.788776" lon="22.96586">
        <ele>1909.2</ele>
        <time>2026-05-06T13:20:51.000Z</time>
      </trkpt>
      <trkpt lat="41.788776" lon="22.96586">
        <ele>1909.2</ele>
        <time>2026-05-06T13:20:52.000Z</time>
      </trkpt>
      <trkpt lat="41.788776" lon="22.96586">
        <ele>1908.7</ele>
        <time>2026-05-06T13:20:53.000Z</time>
      </trkpt>
      <trkpt lat="41.788776" lon="22.965861">
        <ele>1908.7</ele>
        <time>2026-05-06T13:20:54.000Z</time>
      </trkpt>
      <trkpt lat="41.788776" lon="22.965861">
        <ele>1908.7</ele>
        <time>2026-05-06T13:20:55.000Z</time>
      </trkpt>
      <trkpt lat="41.788775" lon="22.965862">
        <ele>1908.7</ele>
        <time>2026-05-06T13:20:56.000Z</time>
      </trkpt>
      <trkpt lat="41.788775" lon="22.965863">
        <ele>1908.7</ele>
        <time>2026-05-06T13:20:57.000Z</time>
      </trkpt>
      <trkpt lat="41.788776" lon="22.965865">
        <ele>1908.6</ele>
        <time>2026-05-06T13:20:58.000Z</time>
      </trkpt>
      <trkpt lat="41.788779" lon="22.96587">
        <ele>1908.6</ele>
        <time>2026-05-06T13:20:59.000Z</time>
      </trkpt>
      <trkpt lat="41.788783" lon="22.965878">
        <ele>1908.6</ele>
        <time>2026-05-06T13:21:00.000Z</time>
      </trkpt>
      <trkpt lat="41.788788" lon="22.96589">
        <ele>1908.6</ele>
        <time>2026-05-06T13:21:01.000Z</time>
      </trkpt>
      <trkpt lat="41.788793" lon="22.965904">
        <ele>1908.6</ele>
        <time>2026-05-06T13:21:02.000Z</time>
      </trkpt>
      <trkpt lat="41.788799" lon="22.965917">
        <ele>1908.5</ele>
        <time>2026-05-06T13:21:03.000Z</time>
      </trkpt>
      <trkpt lat="41.788805" lon="22.96593">
        <ele>1908.5</ele>
        <time>2026-05-06T13:21:04.000Z</time>
      </trkpt>
      <trkpt lat="41.788811" lon="22.96594">
        <ele>1908.5</ele>
        <time>2026-05-06T13:21:05.000Z</time>
      </trkpt>
      <trkpt lat="41.788818" lon="22.965949">
        <ele>1908.5</ele>
        <time>2026-05-06T13:21:06.000Z</time>
      </trkpt>
      <trkpt lat="41.788825" lon="22.965957">
        <ele>1908.5</ele>
        <time>2026-05-06T13:21:07.000Z</time>
      </trkpt>
      <trkpt lat="41.788831" lon="22.965968">
        <ele>1907.8</ele>
        <time>2026-05-06T13:21:08.000Z</time>
      </trkpt>
      <trkpt lat="41.788838" lon="22.965979">
        <ele>1907.8</ele>
        <time>2026-05-06T13:21:09.000Z</time>
      </trkpt>
      <trkpt lat="41.788843" lon="22.965991">
        <ele>1907.8</ele>
        <time>2026-05-06T13:21:10.000Z</time>
      </trkpt>
      <trkpt lat="41.788849" lon="22.966004">
        <ele>1907.8</ele>
        <time>2026-05-06T13:21:11.000Z</time>
      </trkpt>
      <trkpt lat="41.788854" lon="22.966017">
        <ele>1907.8</ele>
        <time>2026-05-06T13:21:12.000Z</time>
      </trkpt>
      <trkpt lat="41.788859" lon="22.966027">
        <ele>1907.2</ele>
        <time>2026-05-06T13:21:13.000Z</time>
      </trkpt>
      <trkpt lat="41.788863" lon="22.966033">
        <ele>1907.2</ele>
        <time>2026-05-06T13:21:14.000Z</time>
      </trkpt>
      <trkpt lat="41.788866" lon="22.966037">
        <ele>1907.2</ele>
        <time>2026-05-06T13:21:15.000Z</time>
      </trkpt>
      <trkpt lat="41.788868" lon="22.966038">
        <ele>1907.2</ele>
        <time>2026-05-06T13:21:16.000Z</time>
      </trkpt>
      <trkpt lat="41.788868" lon="22.966038">
        <ele>1907.2</ele>
        <time>2026-05-06T13:21:17.000Z</time>
      </trkpt>
      <trkpt lat="41.788867" lon="22.966038">
        <ele>1905.7</ele>
        <time>2026-05-06T13:21:18.000Z</time>
      </trkpt>
      <trkpt lat="41.788867" lon="22.966038">
        <ele>1905.7</ele>
        <time>2026-05-06T13:21:19.000Z</time>
      </trkpt>
      <trkpt lat="41.788867" lon="22.966038">
        <ele>1905.7</ele>
        <time>2026-05-06T13:21:20.000Z</time>
      </trkpt>
      <trkpt lat="41.788867" lon="22.966037">
        <ele>1905.7</ele>
        <time>2026-05-06T13:21:21.000Z</time>
      </trkpt>
      <trkpt lat="41.788867" lon="22.966037">
        <ele>1905.7</ele>
        <time>2026-05-06T13:21:22.000Z</time>
      </trkpt>
      <trkpt lat="41.788867" lon="22.966037">
        <ele>1904.2</ele>
        <time>2026-05-06T13:21:23.000Z</time>
      </trkpt>
      <trkpt lat="41.788867" lon="22.966037">
        <ele>1904.2</ele>
        <time>2026-05-06T13:21:24.000Z</time>
      </trkpt>
      <trkpt lat="41.788867" lon="22.966037">
        <ele>1904.2</ele>
        <time>2026-05-06T13:21:25.000Z</time>
      </trkpt>
      <trkpt lat="41.788867" lon="22.966037">
        <ele>1904.2</ele>
        <time>2026-05-06T13:21:26.000Z</time>
      </trkpt>
      <trkpt lat="41.788867" lon="22.966037">
        <ele>1904.2</ele>
        <time>2026-05-06T13:21:27.000Z</time>
      </trkpt>
      <trkpt lat="41.788868" lon="22.966037">
        <ele>1903.6</ele>
        <time>2026-05-06T13:21:28.000Z</time>
      </trkpt>
      <trkpt lat="41.788869" lon="22.966039">
        <ele>1903.6</ele>
        <time>2026-05-06T13:21:29.000Z</time>
      </trkpt>
      <trkpt lat="41.78887" lon="22.966042">
        <ele>1903.6</ele>
        <time>2026-05-06T13:21:30.000Z</time>
      </trkpt>
      <trkpt lat="41.788872" lon="22.966045">
        <ele>1903.6</ele>
        <time>2026-05-06T13:21:31.000Z</time>
      </trkpt>
      <trkpt lat="41.788874" lon="22.966049">
        <ele>1903.6</ele>
        <time>2026-05-06T13:21:32.000Z</time>
      </trkpt>
      <trkpt lat="41.788878" lon="22.966056">
        <ele>1903.2</ele>
        <time>2026-05-06T13:21:33.000Z</time>
      </trkpt>
      <trkpt lat="41.788882" lon="22.966063">
        <ele>1903.2</ele>
        <time>2026-05-06T13:21:34.000Z</time>
      </trkpt>
      <trkpt lat="41.788887" lon="22.966071">
        <ele>1903.2</ele>
        <time>2026-05-06T13:21:35.000Z</time>
      </trkpt>
      <trkpt lat="41.788892" lon="22.966082">
        <ele>1903.2</ele>
        <time>2026-05-06T13:21:36.000Z</time>
      </trkpt>
      <trkpt lat="41.788897" lon="22.966094">
        <ele>1903.2</ele>
        <time>2026-05-06T13:21:37.000Z</time>
      </trkpt>
      <trkpt lat="41.788903" lon="22.966105">
        <ele>1903</ele>
        <time>2026-05-06T13:21:38.000Z</time>
      </trkpt>
      <trkpt lat="41.78891" lon="22.966117">
        <ele>1903</ele>
        <time>2026-05-06T13:21:39.000Z</time>
      </trkpt>
      <trkpt lat="41.788916" lon="22.96613">
        <ele>1903</ele>
        <time>2026-05-06T13:21:40.000Z</time>
      </trkpt>
      <trkpt lat="41.788922" lon="22.966142">
        <ele>1903</ele>
        <time>2026-05-06T13:21:41.000Z</time>
      </trkpt>
      <trkpt lat="41.788926" lon="22.966154">
        <ele>1903</ele>
        <time>2026-05-06T13:21:42.000Z</time>
      </trkpt>
      <trkpt lat="41.78893" lon="22.966167">
        <ele>1902.9</ele>
        <time>2026-05-06T13:21:43.000Z</time>
      </trkpt>
      <trkpt lat="41.788933" lon="22.96618">
        <ele>1902.9</ele>
        <time>2026-05-06T13:21:44.000Z</time>
      </trkpt>
      <trkpt lat="41.788937" lon="22.966194">
        <ele>1902.9</ele>
        <time>2026-05-06T13:21:45.000Z</time>
      </trkpt>
      <trkpt lat="41.788941" lon="22.966208">
        <ele>1902.9</ele>
        <time>2026-05-06T13:21:46.000Z</time>
      </trkpt>
      <trkpt lat="41.788944" lon="22.966223">
        <ele>1902.9</ele>
        <time>2026-05-06T13:21:47.000Z</time>
      </trkpt>
      <trkpt lat="41.788949" lon="22.966238">
        <ele>1902</ele>
        <time>2026-05-06T13:21:48.000Z</time>
      </trkpt>
      <trkpt lat="41.788953" lon="22.966253">
        <ele>1902</ele>
        <time>2026-05-06T13:21:49.000Z</time>
      </trkpt>
      <trkpt lat="41.788956" lon="22.966267">
        <ele>1902</ele>
        <time>2026-05-06T13:21:50.000Z</time>
      </trkpt>
      <trkpt lat="41.788959" lon="22.966282">
        <ele>1902</ele>
        <time>2026-05-06T13:21:51.000Z</time>
      </trkpt>
      <trkpt lat="41.788962" lon="22.966296">
        <ele>1902</ele>
        <time>2026-05-06T13:21:52.000Z</time>
      </trkpt>
      <trkpt lat="41.788963" lon="22.966309">
        <ele>1900.6</ele>
        <time>2026-05-06T13:21:53.000Z</time>
      </trkpt>
      <trkpt lat="41.788963" lon="22.966321">
        <ele>1900.6</ele>
        <time>2026-05-06T13:21:54.000Z</time>
      </trkpt>
      <trkpt lat="41.788963" lon="22.966329">
        <ele>1900.6</ele>
        <time>2026-05-06T13:21:55.000Z</time>
      </trkpt>
      <trkpt lat="41.788963" lon="22.966334">
        <ele>1900.6</ele>
        <time>2026-05-06T13:21:56.000Z</time>
      </trkpt>
      <trkpt lat="41.788962" lon="22.966337">
        <ele>1900.6</ele>
        <time>2026-05-06T13:21:57.000Z</time>
      </trkpt>
      <trkpt lat="41.788962" lon="22.966337">
        <ele>1899.8</ele>
        <time>2026-05-06T13:21:58.000Z</time>
      </trkpt>
      <trkpt lat="41.788962" lon="22.966336">
        <ele>1899.8</ele>
        <time>2026-05-06T13:21:59.000Z</time>
      </trkpt>
      <trkpt lat="41.788962" lon="22.966336">
        <ele>1899.8</ele>
        <time>2026-05-06T13:22:00.000Z</time>
      </trkpt>
      <trkpt lat="41.788962" lon="22.966337">
        <ele>1899.8</ele>
        <time>2026-05-06T13:22:01.000Z</time>
      </trkpt>
      <trkpt lat="41.788962" lon="22.966337">
        <ele>1899.8</ele>
        <time>2026-05-06T13:22:02.000Z</time>
      </trkpt>
      <trkpt lat="41.788962" lon="22.966337">
        <ele>1897.9</ele>
        <time>2026-05-06T13:22:03.000Z</time>
      </trkpt>
      <trkpt lat="41.788961" lon="22.966337">
        <ele>1897.9</ele>
        <time>2026-05-06T13:22:04.000Z</time>
      </trkpt>
      <trkpt lat="41.788961" lon="22.966337">
        <ele>1897.9</ele>
        <time>2026-05-06T13:22:05.000Z</time>
      </trkpt>
      <trkpt lat="41.788963" lon="22.966338">
        <ele>1897.9</ele>
        <time>2026-05-06T13:22:06.000Z</time>
      </trkpt>
      <trkpt lat="41.788964" lon="22.966343">
        <ele>1897.9</ele>
        <time>2026-05-06T13:22:07.000Z</time>
      </trkpt>
      <trkpt lat="41.788967" lon="22.96635">
        <ele>1896.5</ele>
        <time>2026-05-06T13:22:08.000Z</time>
      </trkpt>
      <trkpt lat="41.788971" lon="22.966361">
        <ele>1896.5</ele>
        <time>2026-05-06T13:22:09.000Z</time>
      </trkpt>
      <trkpt lat="41.788976" lon="22.966375">
        <ele>1896.5</ele>
        <time>2026-05-06T13:22:10.000Z</time>
      </trkpt>
      <trkpt lat="41.788981" lon="22.966391">
        <ele>1896.5</ele>
        <time>2026-05-06T13:22:11.000Z</time>
      </trkpt>
      <trkpt lat="41.788986" lon="22.966407">
        <ele>1896.5</ele>
        <time>2026-05-06T13:22:12.000Z</time>
      </trkpt>
      <trkpt lat="41.788991" lon="22.966423">
        <ele>1896.1</ele>
        <time>2026-05-06T13:22:13.000Z</time>
      </trkpt>
      <trkpt lat="41.788994" lon="22.966438">
        <ele>1896.1</ele>
        <time>2026-05-06T13:22:14.000Z</time>
      </trkpt>
      <trkpt lat="41.788996" lon="22.966452">
        <ele>1896.1</ele>
        <time>2026-05-06T13:22:15.000Z</time>
      </trkpt>
      <trkpt lat="41.788998" lon="22.966466">
        <ele>1896.1</ele>
        <time>2026-05-06T13:22:16.000Z</time>
      </trkpt>
      <trkpt lat="41.789001" lon="22.966482">
        <ele>1896.1</ele>
        <time>2026-05-06T13:22:17.000Z</time>
      </trkpt>
      <trkpt lat="41.789005" lon="22.966494">
        <ele>1895.6</ele>
        <time>2026-05-06T13:22:18.000Z</time>
      </trkpt>
      <trkpt lat="41.789011" lon="22.966507">
        <ele>1895.6</ele>
        <time>2026-05-06T13:22:19.000Z</time>
      </trkpt>
      <trkpt lat="41.789019" lon="22.966521">
        <ele>1895.6</ele>
        <time>2026-05-06T13:22:20.000Z</time>
      </trkpt>
      <trkpt lat="41.789028" lon="22.966536">
        <ele>1895.6</ele>
        <time>2026-05-06T13:22:21.000Z</time>
      </trkpt>
      <trkpt lat="41.789036" lon="22.966551">
        <ele>1895.6</ele>
        <time>2026-05-06T13:22:22.000Z</time>
      </trkpt>
      <trkpt lat="41.789045" lon="22.966566">
        <ele>1894.2</ele>
        <time>2026-05-06T13:22:23.000Z</time>
      </trkpt>
      <trkpt lat="41.789052" lon="22.966582">
        <ele>1894.2</ele>
        <time>2026-05-06T13:22:24.000Z</time>
      </trkpt>
      <trkpt lat="41.789058" lon="22.966598">
        <ele>1894.2</ele>
        <time>2026-05-06T13:22:25.000Z</time>
      </trkpt>
      <trkpt lat="41.789064" lon="22.966615">
        <ele>1894.2</ele>
        <time>2026-05-06T13:22:26.000Z</time>
      </trkpt>
      <trkpt lat="41.789068" lon="22.966631">
        <ele>1894.2</ele>
        <time>2026-05-06T13:22:27.000Z</time>
      </trkpt>
      <trkpt lat="41.789072" lon="22.966648">
        <ele>1893.1</ele>
        <time>2026-05-06T13:22:28.000Z</time>
      </trkpt>
      <trkpt lat="41.789075" lon="22.966663">
        <ele>1893.1</ele>
        <time>2026-05-06T13:22:29.000Z</time>
      </trkpt>
      <trkpt lat="41.789076" lon="22.966673">
        <ele>1893.1</ele>
        <time>2026-05-06T13:22:30.000Z</time>
      </trkpt>
      <trkpt lat="41.789076" lon="22.96668">
        <ele>1893.1</ele>
        <time>2026-05-06T13:22:31.000Z</time>
      </trkpt>
      <trkpt lat="41.789076" lon="22.966684">
        <ele>1893.1</ele>
        <time>2026-05-06T13:22:32.000Z</time>
      </trkpt>
      <trkpt lat="41.789075" lon="22.966684">
        <ele>1890.7</ele>
        <time>2026-05-06T13:22:33.000Z</time>
      </trkpt>
      <trkpt lat="41.789074" lon="22.966684">
        <ele>1890.7</ele>
        <time>2026-05-06T13:22:34.000Z</time>
      </trkpt>
      <trkpt lat="41.789073" lon="22.966683">
        <ele>1890.7</ele>
        <time>2026-05-06T13:22:35.000Z</time>
      </trkpt>
      <trkpt lat="41.789073" lon="22.966683">
        <ele>1890.7</ele>
        <time>2026-05-06T13:22:36.000Z</time>
      </trkpt>
      <trkpt lat="41.789073" lon="22.966683">
        <ele>1890.7</ele>
        <time>2026-05-06T13:22:37.000Z</time>
      </trkpt>
      <trkpt lat="41.789073" lon="22.966683">
        <ele>1888.8</ele>
        <time>2026-05-06T13:22:38.000Z</time>
      </trkpt>
      <trkpt lat="41.789073" lon="22.966683">
        <ele>1888.8</ele>
        <time>2026-05-06T13:22:39.000Z</time>
      </trkpt>
      <trkpt lat="41.789073" lon="22.966683">
        <ele>1888.8</ele>
        <time>2026-05-06T13:22:40.000Z</time>
      </trkpt>
      <trkpt lat="41.789073" lon="22.966683">
        <ele>1888.8</ele>
        <time>2026-05-06T13:22:41.000Z</time>
      </trkpt>
      <trkpt lat="41.789074" lon="22.966683">
        <ele>1888.8</ele>
        <time>2026-05-06T13:22:42.000Z</time>
      </trkpt>
      <trkpt lat="41.789078" lon="22.966685">
        <ele>1888.1</ele>
        <time>2026-05-06T13:22:43.000Z</time>
      </trkpt>
      <trkpt lat="41.789083" lon="22.96669">
        <ele>1888.1</ele>
        <time>2026-05-06T13:22:44.000Z</time>
      </trkpt>
      <trkpt lat="41.789091" lon="22.966695">
        <ele>1888.1</ele>
        <time>2026-05-06T13:22:45.000Z</time>
      </trkpt>
      <trkpt lat="41.7891" lon="22.966702">
        <ele>1888.1</ele>
        <time>2026-05-06T13:22:46.000Z</time>
      </trkpt>
      <trkpt lat="41.78911" lon="22.96671">
        <ele>1888.1</ele>
        <time>2026-05-06T13:22:47.000Z</time>
      </trkpt>
      <trkpt lat="41.789119" lon="22.966719">
        <ele>1887.1</ele>
        <time>2026-05-06T13:22:48.000Z</time>
      </trkpt>
      <trkpt lat="41.789127" lon="22.966728">
        <ele>1887.1</ele>
        <time>2026-05-06T13:22:49.000Z</time>
      </trkpt>
      <trkpt lat="41.789133" lon="22.966736">
        <ele>1887.1</ele>
        <time>2026-05-06T13:22:50.000Z</time>
      </trkpt>
      <trkpt lat="41.789139" lon="22.966746">
        <ele>1887.1</ele>
        <time>2026-05-06T13:22:51.000Z</time>
      </trkpt>
      <trkpt lat="41.789146" lon="22.966757">
        <ele>1887.1</ele>
        <time>2026-05-06T13:22:52.000Z</time>
      </trkpt>
      <trkpt lat="41.789151" lon="22.966765">
        <ele>1886.5</ele>
        <time>2026-05-06T13:22:53.000Z</time>
      </trkpt>
      <trkpt lat="41.789157" lon="22.966775">
        <ele>1886.5</ele>
        <time>2026-05-06T13:22:54.000Z</time>
      </trkpt>
      <trkpt lat="41.789163" lon="22.966785">
        <ele>1886.5</ele>
        <time>2026-05-06T13:22:55.000Z</time>
      </trkpt>
      <trkpt lat="41.789167" lon="22.966793">
        <ele>1886.5</ele>
        <time>2026-05-06T13:22:56.000Z</time>
      </trkpt>
      <trkpt lat="41.789172" lon="22.966799">
        <ele>1886.5</ele>
        <time>2026-05-06T13:22:57.000Z</time>
      </trkpt>
      <trkpt lat="41.789177" lon="22.966805">
        <ele>1886.1</ele>
        <time>2026-05-06T13:22:58.000Z</time>
      </trkpt>
      <trkpt lat="41.789183" lon="22.96681">
        <ele>1886.1</ele>
        <time>2026-05-06T13:22:59.000Z</time>
      </trkpt>
      <trkpt lat="41.78919" lon="22.966816">
        <ele>1886.1</ele>
        <time>2026-05-06T13:23:00.000Z</time>
      </trkpt>
      <trkpt lat="41.789196" lon="22.966823">
        <ele>1886.1</ele>
        <time>2026-05-06T13:23:01.000Z</time>
      </trkpt>
      <trkpt lat="41.789204" lon="22.966834">
        <ele>1886.1</ele>
        <time>2026-05-06T13:23:02.000Z</time>
      </trkpt>
      <trkpt lat="41.78921" lon="22.966847">
        <ele>1885</ele>
        <time>2026-05-06T13:23:03.000Z</time>
      </trkpt>
      <trkpt lat="41.789217" lon="22.96686">
        <ele>1885</ele>
        <time>2026-05-06T13:23:04.000Z</time>
      </trkpt>
      <trkpt lat="41.789224" lon="22.966874">
        <ele>1885</ele>
        <time>2026-05-06T13:23:05.000Z</time>
      </trkpt>
      <trkpt lat="41.789231" lon="22.966887">
        <ele>1885</ele>
        <time>2026-05-06T13:23:06.000Z</time>
      </trkpt>
      <trkpt lat="41.789236" lon="22.9669">
        <ele>1885</ele>
        <time>2026-05-06T13:23:07.000Z</time>
      </trkpt>
      <trkpt lat="41.789242" lon="22.96691">
        <ele>1883.8</ele>
        <time>2026-05-06T13:23:08.000Z</time>
      </trkpt>
      <trkpt lat="41.789246" lon="22.966923">
        <ele>1883.8</ele>
        <time>2026-05-06T13:23:09.000Z</time>
      </trkpt>
      <trkpt lat="41.789249" lon="22.966935">
        <ele>1883.8</ele>
        <time>2026-05-06T13:23:10.000Z</time>
      </trkpt>
      <trkpt lat="41.789252" lon="22.966946">
        <ele>1883.8</ele>
        <time>2026-05-06T13:23:11.000Z</time>
      </trkpt>
      <trkpt lat="41.789254" lon="22.966958">
        <ele>1883.8</ele>
        <time>2026-05-06T13:23:12.000Z</time>
      </trkpt>
      <trkpt lat="41.789254" lon="22.96697">
        <ele>1883.3</ele>
        <time>2026-05-06T13:23:13.000Z</time>
      </trkpt>
      <trkpt lat="41.789255" lon="22.96698">
        <ele>1883.3</ele>
        <time>2026-05-06T13:23:14.000Z</time>
      </trkpt>
      <trkpt lat="41.789255" lon="22.966989">
        <ele>1883.3</ele>
        <time>2026-05-06T13:23:15.000Z</time>
      </trkpt>
      <trkpt lat="41.789255" lon="22.966997">
        <ele>1883.3</ele>
        <time>2026-05-06T13:23:16.000Z</time>
      </trkpt>
      <trkpt lat="41.789254" lon="22.967003">
        <ele>1883.3</ele>
        <time>2026-05-06T13:23:17.000Z</time>
      </trkpt>
      <trkpt lat="41.789253" lon="22.967006">
        <ele>1882.4</ele>
        <time>2026-05-06T13:23:18.000Z</time>
      </trkpt>
      <trkpt lat="41.789253" lon="22.967007">
        <ele>1882.4</ele>
        <time>2026-05-06T13:23:19.000Z</time>
      </trkpt>
      <trkpt lat="41.789254" lon="22.967008">
        <ele>1882.4</ele>
        <time>2026-05-06T13:23:20.000Z</time>
      </trkpt>
      <trkpt lat="41.789254" lon="22.96701">
        <ele>1882.4</ele>
        <time>2026-05-06T13:23:21.000Z</time>
      </trkpt>
      <trkpt lat="41.789255" lon="22.967014">
        <ele>1882.4</ele>
        <time>2026-05-06T13:23:22.000Z</time>
      </trkpt>
      <trkpt lat="41.789256" lon="22.967021">
        <ele>1881.3</ele>
        <time>2026-05-06T13:23:23.000Z</time>
      </trkpt>
      <trkpt lat="41.789257" lon="22.96703">
        <ele>1881.3</ele>
        <time>2026-05-06T13:23:24.000Z</time>
      </trkpt>
      <trkpt lat="41.789257" lon="22.967038">
        <ele>1881.3</ele>
        <time>2026-05-06T13:23:25.000Z</time>
      </trkpt>
      <trkpt lat="41.78926" lon="22.967045">
        <ele>1881.3</ele>
        <time>2026-05-06T13:23:26.000Z</time>
      </trkpt>
      <trkpt lat="41.789264" lon="22.967051">
        <ele>1881.3</ele>
        <time>2026-05-06T13:23:27.000Z</time>
      </trkpt>
      <trkpt lat="41.78927" lon="22.967057">
        <ele>1880.6</ele>
        <time>2026-05-06T13:23:28.000Z</time>
      </trkpt>
      <trkpt lat="41.789276" lon="22.967064">
        <ele>1880.6</ele>
        <time>2026-05-06T13:23:29.000Z</time>
      </trkpt>
      <trkpt lat="41.789283" lon="22.967074">
        <ele>1880.6</ele>
        <time>2026-05-06T13:23:30.000Z</time>
      </trkpt>
      <trkpt lat="41.78929" lon="22.967085">
        <ele>1880.6</ele>
        <time>2026-05-06T13:23:31.000Z</time>
      </trkpt>
      <trkpt lat="41.789294" lon="22.967095">
        <ele>1880.6</ele>
        <time>2026-05-06T13:23:32.000Z</time>
      </trkpt>
      <trkpt lat="41.789297" lon="22.967106">
        <ele>1879.2</ele>
        <time>2026-05-06T13:23:33.000Z</time>
      </trkpt>
      <trkpt lat="41.789301" lon="22.967115">
        <ele>1879.2</ele>
        <time>2026-05-06T13:23:34.000Z</time>
      </trkpt>
      <trkpt lat="41.789304" lon="22.967123">
        <ele>1879.2</ele>
        <time>2026-05-06T13:23:35.000Z</time>
      </trkpt>
      <trkpt lat="41.789306" lon="22.967132">
        <ele>1879.2</ele>
        <time>2026-05-06T13:23:36.000Z</time>
      </trkpt>
      <trkpt lat="41.789309" lon="22.967141">
        <ele>1879.2</ele>
        <time>2026-05-06T13:23:37.000Z</time>
      </trkpt>
      <trkpt lat="41.789312" lon="22.96715">
        <ele>1877.9</ele>
        <time>2026-05-06T13:23:38.000Z</time>
      </trkpt>
      <trkpt lat="41.789316" lon="22.967159">
        <ele>1877.9</ele>
        <time>2026-05-06T13:23:39.000Z</time>
      </trkpt>
      <trkpt lat="41.789319" lon="22.967169">
        <ele>1877.9</ele>
        <time>2026-05-06T13:23:40.000Z</time>
      </trkpt>
      <trkpt lat="41.789323" lon="22.967179">
        <ele>1877.9</ele>
        <time>2026-05-06T13:23:41.000Z</time>
      </trkpt>
      <trkpt lat="41.789326" lon="22.96719">
        <ele>1877.9</ele>
        <time>2026-05-06T13:23:42.000Z</time>
      </trkpt>
      <trkpt lat="41.78933" lon="22.967202">
        <ele>1877.3</ele>
        <time>2026-05-06T13:23:43.000Z</time>
      </trkpt>
      <trkpt lat="41.789335" lon="22.967215">
        <ele>1877.3</ele>
        <time>2026-05-06T13:23:44.000Z</time>
      </trkpt>
      <trkpt lat="41.789339" lon="22.967227">
        <ele>1877.3</ele>
        <time>2026-05-06T13:23:45.000Z</time>
      </trkpt>
      <trkpt lat="41.789344" lon="22.96724">
        <ele>1877.3</ele>
        <time>2026-05-06T13:23:46.000Z</time>
      </trkpt>
      <trkpt lat="41.789349" lon="22.967252">
        <ele>1877.3</ele>
        <time>2026-05-06T13:23:47.000Z</time>
      </trkpt>
      <trkpt lat="41.789353" lon="22.967264">
        <ele>1875.7</ele>
        <time>2026-05-06T13:23:48.000Z</time>
      </trkpt>
      <trkpt lat="41.789356" lon="22.967276">
        <ele>1875.7</ele>
        <time>2026-05-06T13:23:49.000Z</time>
      </trkpt>
      <trkpt lat="41.789358" lon="22.967287">
        <ele>1875.7</ele>
        <time>2026-05-06T13:23:50.000Z</time>
      </trkpt>
      <trkpt lat="41.78936" lon="22.967298">
        <ele>1875.7</ele>
        <time>2026-05-06T13:23:51.000Z</time>
      </trkpt>
      <trkpt lat="41.78936" lon="22.96731">
        <ele>1875.7</ele>
        <time>2026-05-06T13:23:52.000Z</time>
      </trkpt>
      <trkpt lat="41.789359" lon="22.967321">
        <ele>1873.8</ele>
        <time>2026-05-06T13:23:53.000Z</time>
      </trkpt>
      <trkpt lat="41.789357" lon="22.967332">
        <ele>1873.8</ele>
        <time>2026-05-06T13:23:54.000Z</time>
      </trkpt>
      <trkpt lat="41.789355" lon="22.967344">
        <ele>1873.8</ele>
        <time>2026-05-06T13:23:55.000Z</time>
      </trkpt>
      <trkpt lat="41.789354" lon="22.967358">
        <ele>1873.8</ele>
        <time>2026-05-06T13:23:56.000Z</time>
      </trkpt>
      <trkpt lat="41.789353" lon="22.967371">
        <ele>1873.8</ele>
        <time>2026-05-06T13:23:57.000Z</time>
      </trkpt>
      <trkpt lat="41.789354" lon="22.967384">
        <ele>1873</ele>
        <time>2026-05-06T13:23:58.000Z</time>
      </trkpt>
      <trkpt lat="41.789356" lon="22.967396">
        <ele>1873</ele>
        <time>2026-05-06T13:23:59.000Z</time>
      </trkpt>
      <trkpt lat="41.789358" lon="22.967409">
        <ele>1873</ele>
        <time>2026-05-06T13:24:00.000Z</time>
      </trkpt>
      <trkpt lat="41.78936" lon="22.967421">
        <ele>1873</ele>
        <time>2026-05-06T13:24:01.000Z</time>
      </trkpt>
      <trkpt lat="41.789361" lon="22.967435">
        <ele>1873</ele>
        <time>2026-05-06T13:24:02.000Z</time>
      </trkpt>
      <trkpt lat="41.789364" lon="22.967448">
        <ele>1871.4</ele>
        <time>2026-05-06T13:24:03.000Z</time>
      </trkpt>
      <trkpt lat="41.789366" lon="22.967463">
        <ele>1871.4</ele>
        <time>2026-05-06T13:24:04.000Z</time>
      </trkpt>
      <trkpt lat="41.789368" lon="22.967478">
        <ele>1871.4</ele>
        <time>2026-05-06T13:24:05.000Z</time>
      </trkpt>
      <trkpt lat="41.78937" lon="22.967493">
        <ele>1871.4</ele>
        <time>2026-05-06T13:24:06.000Z</time>
      </trkpt>
      <trkpt lat="41.789372" lon="22.967508">
        <ele>1871.4</ele>
        <time>2026-05-06T13:24:07.000Z</time>
      </trkpt>
      <trkpt lat="41.789374" lon="22.967523">
        <ele>1869.7</ele>
        <time>2026-05-06T13:24:08.000Z</time>
      </trkpt>
      <trkpt lat="41.789377" lon="22.967538">
        <ele>1869.7</ele>
        <time>2026-05-06T13:24:09.000Z</time>
      </trkpt>
      <trkpt lat="41.78938" lon="22.967553">
        <ele>1869.7</ele>
        <time>2026-05-06T13:24:10.000Z</time>
      </trkpt>
      <trkpt lat="41.789385" lon="22.967568">
        <ele>1869.7</ele>
        <time>2026-05-06T13:24:11.000Z</time>
      </trkpt>
      <trkpt lat="41.789388" lon="22.967584">
        <ele>1869.7</ele>
        <time>2026-05-06T13:24:12.000Z</time>
      </trkpt>
      <trkpt lat="41.789391" lon="22.9676">
        <ele>1868.7</ele>
        <time>2026-05-06T13:24:13.000Z</time>
      </trkpt>
      <trkpt lat="41.789393" lon="22.967616">
        <ele>1868.7</ele>
        <time>2026-05-06T13:24:14.000Z</time>
      </trkpt>
      <trkpt lat="41.789393" lon="22.967632">
        <ele>1868.7</ele>
        <time>2026-05-06T13:24:15.000Z</time>
      </trkpt>
      <trkpt lat="41.789392" lon="22.967648">
        <ele>1868.7</ele>
        <time>2026-05-06T13:24:16.000Z</time>
      </trkpt>
      <trkpt lat="41.789392" lon="22.967662">
        <ele>1868.7</ele>
        <time>2026-05-06T13:24:17.000Z</time>
      </trkpt>
      <trkpt lat="41.789392" lon="22.967675">
        <ele>1866.6</ele>
        <time>2026-05-06T13:24:18.000Z</time>
      </trkpt>
      <trkpt lat="41.789393" lon="22.967688">
        <ele>1866.6</ele>
        <time>2026-05-06T13:24:19.000Z</time>
      </trkpt>
      <trkpt lat="41.789394" lon="22.967701">
        <ele>1866.6</ele>
        <time>2026-05-06T13:24:20.000Z</time>
      </trkpt>
      <trkpt lat="41.789397" lon="22.967715">
        <ele>1866.6</ele>
        <time>2026-05-06T13:24:21.000Z</time>
      </trkpt>
      <trkpt lat="41.7894" lon="22.967729">
        <ele>1866.6</ele>
        <time>2026-05-06T13:24:22.000Z</time>
      </trkpt>
      <trkpt lat="41.789404" lon="22.967743">
        <ele>1864.6</ele>
        <time>2026-05-06T13:24:23.000Z</time>
      </trkpt>
      <trkpt lat="41.789407" lon="22.967756">
        <ele>1864.6</ele>
        <time>2026-05-06T13:24:24.000Z</time>
      </trkpt>
      <trkpt lat="41.789411" lon="22.967769">
        <ele>1864.6</ele>
        <time>2026-05-06T13:24:25.000Z</time>
      </trkpt>
      <trkpt lat="41.789416" lon="22.967781">
        <ele>1864.6</ele>
        <time>2026-05-06T13:24:26.000Z</time>
      </trkpt>
      <trkpt lat="41.78942" lon="22.967793">
        <ele>1864.6</ele>
        <time>2026-05-06T13:24:27.000Z</time>
      </trkpt>
      <trkpt lat="41.789423" lon="22.967803">
        <ele>1863.9</ele>
        <time>2026-05-06T13:24:28.000Z</time>
      </trkpt>
      <trkpt lat="41.789426" lon="22.967811">
        <ele>1863.9</ele>
        <time>2026-05-06T13:24:29.000Z</time>
      </trkpt>
      <trkpt lat="41.789427" lon="22.967815">
        <ele>1863.9</ele>
        <time>2026-05-06T13:24:30.000Z</time>
      </trkpt>
      <trkpt lat="41.789429" lon="22.967817">
        <ele>1863.9</ele>
        <time>2026-05-06T13:24:31.000Z</time>
      </trkpt>
      <trkpt lat="41.789432" lon="22.96782">
        <ele>1863.9</ele>
        <time>2026-05-06T13:24:32.000Z</time>
      </trkpt>
      <trkpt lat="41.789437" lon="22.967824">
        <ele>1862.7</ele>
        <time>2026-05-06T13:24:33.000Z</time>
      </trkpt>
      <trkpt lat="41.789444" lon="22.967832">
        <ele>1862.7</ele>
        <time>2026-05-06T13:24:34.000Z</time>
      </trkpt>
      <trkpt lat="41.789453" lon="22.967843">
        <ele>1862.7</ele>
        <time>2026-05-06T13:24:35.000Z</time>
      </trkpt>
      <trkpt lat="41.789461" lon="22.967855">
        <ele>1862.7</ele>
        <time>2026-05-06T13:24:36.000Z</time>
      </trkpt>
      <trkpt lat="41.789469" lon="22.967868">
        <ele>1862.7</ele>
        <time>2026-05-06T13:24:37.000Z</time>
      </trkpt>
      <trkpt lat="41.789476" lon="22.967881">
        <ele>1861.8</ele>
        <time>2026-05-06T13:24:38.000Z</time>
      </trkpt>
      <trkpt lat="41.789482" lon="22.967895">
        <ele>1861.8</ele>
        <time>2026-05-06T13:24:39.000Z</time>
      </trkpt>
      <trkpt lat="41.789486" lon="22.96791">
        <ele>1861.8</ele>
        <time>2026-05-06T13:24:40.000Z</time>
      </trkpt>
      <trkpt lat="41.789491" lon="22.967925">
        <ele>1861.8</ele>
        <time>2026-05-06T13:24:41.000Z</time>
      </trkpt>
      <trkpt lat="41.789495" lon="22.967941">
        <ele>1861.8</ele>
        <time>2026-05-06T13:24:42.000Z</time>
      </trkpt>
      <trkpt lat="41.7895" lon="22.967957">
        <ele>1861.2</ele>
        <time>2026-05-06T13:24:43.000Z</time>
      </trkpt>
      <trkpt lat="41.789504" lon="22.967972">
        <ele>1861.2</ele>
        <time>2026-05-06T13:24:44.000Z</time>
      </trkpt>
      <trkpt lat="41.78951" lon="22.967985">
        <ele>1861.2</ele>
        <time>2026-05-06T13:24:45.000Z</time>
      </trkpt>
      <trkpt lat="41.789515" lon="22.967996">
        <ele>1861.2</ele>
        <time>2026-05-06T13:24:46.000Z</time>
      </trkpt>
      <trkpt lat="41.789519" lon="22.968006">
        <ele>1861.2</ele>
        <time>2026-05-06T13:24:47.000Z</time>
      </trkpt>
      <trkpt lat="41.789524" lon="22.968013">
        <ele>1859.7</ele>
        <time>2026-05-06T13:24:48.000Z</time>
      </trkpt>
      <trkpt lat="41.789532" lon="22.968019">
        <ele>1859.7</ele>
        <time>2026-05-06T13:24:49.000Z</time>
      </trkpt>
      <trkpt lat="41.78954" lon="22.968023">
        <ele>1859.7</ele>
        <time>2026-05-06T13:24:50.000Z</time>
      </trkpt>
      <trkpt lat="41.789549" lon="22.968026">
        <ele>1859.7</ele>
        <time>2026-05-06T13:24:51.000Z</time>
      </trkpt>
      <trkpt lat="41.789558" lon="22.96803">
        <ele>1859.7</ele>
        <time>2026-05-06T13:24:52.000Z</time>
      </trkpt>
      <trkpt lat="41.789567" lon="22.968035">
        <ele>1857.8</ele>
        <time>2026-05-06T13:24:53.000Z</time>
      </trkpt>
      <trkpt lat="41.789576" lon="22.968042">
        <ele>1857.8</ele>
        <time>2026-05-06T13:24:54.000Z</time>
      </trkpt>
      <trkpt lat="41.789582" lon="22.96805">
        <ele>1857.8</ele>
        <time>2026-05-06T13:24:55.000Z</time>
      </trkpt>
      <trkpt lat="41.789587" lon="22.96806">
        <ele>1857.8</ele>
        <time>2026-05-06T13:24:56.000Z</time>
      </trkpt>
      <trkpt lat="41.789592" lon="22.968069">
        <ele>1857.8</ele>
        <time>2026-05-06T13:24:57.000Z</time>
      </trkpt>
      <trkpt lat="41.789594" lon="22.96808">
        <ele>1856.9</ele>
        <time>2026-05-06T13:24:58.000Z</time>
      </trkpt>
      <trkpt lat="41.789596" lon="22.968091">
        <ele>1856.9</ele>
        <time>2026-05-06T13:24:59.000Z</time>
      </trkpt>
      <trkpt lat="41.789598" lon="22.968102">
        <ele>1856.9</ele>
        <time>2026-05-06T13:25:00.000Z</time>
      </trkpt>
      <trkpt lat="41.789602" lon="22.968112">
        <ele>1856.9</ele>
        <time>2026-05-06T13:25:01.000Z</time>
      </trkpt>
      <trkpt lat="41.789606" lon="22.968125">
        <ele>1856.9</ele>
        <time>2026-05-06T13:25:02.000Z</time>
      </trkpt>
      <trkpt lat="41.789611" lon="22.968139">
        <ele>1855.1</ele>
        <time>2026-05-06T13:25:03.000Z</time>
      </trkpt>
      <trkpt lat="41.789617" lon="22.968155">
        <ele>1855.1</ele>
        <time>2026-05-06T13:25:04.000Z</time>
      </trkpt>
      <trkpt lat="41.789622" lon="22.968172">
        <ele>1855.1</ele>
        <time>2026-05-06T13:25:05.000Z</time>
      </trkpt>
      <trkpt lat="41.789627" lon="22.968189">
        <ele>1855.1</ele>
        <time>2026-05-06T13:25:06.000Z</time>
      </trkpt>
      <trkpt lat="41.789632" lon="22.968205">
        <ele>1855.1</ele>
        <time>2026-05-06T13:25:07.000Z</time>
      </trkpt>
      <trkpt lat="41.789637" lon="22.968217">
        <ele>1853.4</ele>
        <time>2026-05-06T13:25:08.000Z</time>
      </trkpt>
      <trkpt lat="41.78964" lon="22.968226">
        <ele>1853.4</ele>
        <time>2026-05-06T13:25:09.000Z</time>
      </trkpt>
      <trkpt lat="41.789644" lon="22.968234">
        <ele>1853.4</ele>
        <time>2026-05-06T13:25:10.000Z</time>
      </trkpt>
      <trkpt lat="41.789647" lon="22.96824">
        <ele>1853.4</ele>
        <time>2026-05-06T13:25:11.000Z</time>
      </trkpt>
      <trkpt lat="41.78965" lon="22.968248">
        <ele>1853.4</ele>
        <time>2026-05-06T13:25:12.000Z</time>
      </trkpt>
      <trkpt lat="41.789654" lon="22.968256">
        <ele>1852.5</ele>
        <time>2026-05-06T13:25:13.000Z</time>
      </trkpt>
      <trkpt lat="41.789658" lon="22.968267">
        <ele>1852.5</ele>
        <time>2026-05-06T13:25:14.000Z</time>
      </trkpt>
      <trkpt lat="41.789661" lon="22.968279">
        <ele>1852.5</ele>
        <time>2026-05-06T13:25:15.000Z</time>
      </trkpt>
      <trkpt lat="41.789663" lon="22.968291">
        <ele>1852.5</ele>
        <time>2026-05-06T13:25:16.000Z</time>
      </trkpt>
      <trkpt lat="41.789664" lon="22.968305">
        <ele>1852.5</ele>
        <time>2026-05-06T13:25:17.000Z</time>
      </trkpt>
      <trkpt lat="41.789663" lon="22.968318">
        <ele>1850.7</ele>
        <time>2026-05-06T13:25:18.000Z</time>
      </trkpt>
      <trkpt lat="41.789662" lon="22.96833">
        <ele>1850.7</ele>
        <time>2026-05-06T13:25:19.000Z</time>
      </trkpt>
      <trkpt lat="41.789661" lon="22.968342">
        <ele>1850.7</ele>
        <time>2026-05-06T13:25:20.000Z</time>
      </trkpt>
      <trkpt lat="41.789659" lon="22.968355">
        <ele>1850.7</ele>
        <time>2026-05-06T13:25:21.000Z</time>
      </trkpt>
      <trkpt lat="41.789657" lon="22.968365">
        <ele>1850.7</ele>
        <time>2026-05-06T13:25:22.000Z</time>
      </trkpt>
      <trkpt lat="41.789656" lon="22.968371">
        <ele>1849</ele>
        <time>2026-05-06T13:25:23.000Z</time>
      </trkpt>
      <trkpt lat="41.789654" lon="22.968376">
        <ele>1849</ele>
        <time>2026-05-06T13:25:24.000Z</time>
      </trkpt>
      <trkpt lat="41.789654" lon="22.968379">
        <ele>1849</ele>
        <time>2026-05-06T13:25:25.000Z</time>
      </trkpt>
      <trkpt lat="41.789656" lon="22.968382">
        <ele>1849</ele>
        <time>2026-05-06T13:25:26.000Z</time>
      </trkpt>
      <trkpt lat="41.789659" lon="22.968388">
        <ele>1849</ele>
        <time>2026-05-06T13:25:27.000Z</time>
      </trkpt>
      <trkpt lat="41.789663" lon="22.968396">
        <ele>1848.2</ele>
        <time>2026-05-06T13:25:28.000Z</time>
      </trkpt>
      <trkpt lat="41.789668" lon="22.968405">
        <ele>1848.2</ele>
        <time>2026-05-06T13:25:29.000Z</time>
      </trkpt>
      <trkpt lat="41.789674" lon="22.968415">
        <ele>1848.2</ele>
        <time>2026-05-06T13:25:30.000Z</time>
      </trkpt>
      <trkpt lat="41.789678" lon="22.968426">
        <ele>1848.2</ele>
        <time>2026-05-06T13:25:31.000Z</time>
      </trkpt>
      <trkpt lat="41.789683" lon="22.968438">
        <ele>1848.2</ele>
        <time>2026-05-06T13:25:32.000Z</time>
      </trkpt>
      <trkpt lat="41.789686" lon="22.968449">
        <ele>1846.9</ele>
        <time>2026-05-06T13:25:33.000Z</time>
      </trkpt>
      <trkpt lat="41.789687" lon="22.968459">
        <ele>1846.9</ele>
        <time>2026-05-06T13:25:34.000Z</time>
      </trkpt>
      <trkpt lat="41.789688" lon="22.968466">
        <ele>1846.9</ele>
        <time>2026-05-06T13:25:35.000Z</time>
      </trkpt>
      <trkpt lat="41.789689" lon="22.968472">
        <ele>1846.9</ele>
        <time>2026-05-06T13:25:36.000Z</time>
      </trkpt>
      <trkpt lat="41.789689" lon="22.968478">
        <ele>1846.9</ele>
        <time>2026-05-06T13:25:37.000Z</time>
      </trkpt>
      <trkpt lat="41.78969" lon="22.968486">
        <ele>1845.5</ele>
        <time>2026-05-06T13:25:38.000Z</time>
      </trkpt>
      <trkpt lat="41.789692" lon="22.968496">
        <ele>1845.5</ele>
        <time>2026-05-06T13:25:39.000Z</time>
      </trkpt>
      <trkpt lat="41.789693" lon="22.968508">
        <ele>1845.5</ele>
        <time>2026-05-06T13:25:40.000Z</time>
      </trkpt>
      <trkpt lat="41.789693" lon="22.96852">
        <ele>1845.5</ele>
        <time>2026-05-06T13:25:41.000Z</time>
      </trkpt>
      <trkpt lat="41.789693" lon="22.968533">
        <ele>1845.5</ele>
        <time>2026-05-06T13:25:42.000Z</time>
      </trkpt>
      <trkpt lat="41.789692" lon="22.968545">
        <ele>1844.7</ele>
        <time>2026-05-06T13:25:43.000Z</time>
      </trkpt>
      <trkpt lat="41.789691" lon="22.968557">
        <ele>1844.7</ele>
        <time>2026-05-06T13:25:44.000Z</time>
      </trkpt>
      <trkpt lat="41.789692" lon="22.96857">
        <ele>1844.7</ele>
        <time>2026-05-06T13:25:45.000Z</time>
      </trkpt>
      <trkpt lat="41.789693" lon="22.968583">
        <ele>1844.7</ele>
        <time>2026-05-06T13:25:46.000Z</time>
      </trkpt>
      <trkpt lat="41.789695" lon="22.968598">
        <ele>1844.7</ele>
        <time>2026-05-06T13:25:47.000Z</time>
      </trkpt>
      <trkpt lat="41.789697" lon="22.968611">
        <ele>1843.3</ele>
        <time>2026-05-06T13:25:48.000Z</time>
      </trkpt>
      <trkpt lat="41.7897" lon="22.968625">
        <ele>1843.3</ele>
        <time>2026-05-06T13:25:49.000Z</time>
      </trkpt>
      <trkpt lat="41.789703" lon="22.968637">
        <ele>1843.3</ele>
        <time>2026-05-06T13:25:50.000Z</time>
      </trkpt>
      <trkpt lat="41.789706" lon="22.968651">
        <ele>1843.3</ele>
        <time>2026-05-06T13:25:51.000Z</time>
      </trkpt>
      <trkpt lat="41.78971" lon="22.968665">
        <ele>1843.3</ele>
        <time>2026-05-06T13:25:52.000Z</time>
      </trkpt>
      <trkpt lat="41.789715" lon="22.968681">
        <ele>1841.7</ele>
        <time>2026-05-06T13:25:53.000Z</time>
      </trkpt>
      <trkpt lat="41.789721" lon="22.968697">
        <ele>1841.7</ele>
        <time>2026-05-06T13:25:54.000Z</time>
      </trkpt>
      <trkpt lat="41.789728" lon="22.968713">
        <ele>1841.7</ele>
        <time>2026-05-06T13:25:55.000Z</time>
      </trkpt>
      <trkpt lat="41.789734" lon="22.968729">
        <ele>1841.7</ele>
        <time>2026-05-06T13:25:56.000Z</time>
      </trkpt>
      <trkpt lat="41.789739" lon="22.968744">
        <ele>1841.7</ele>
        <time>2026-05-06T13:25:57.000Z</time>
      </trkpt>
      <trkpt lat="41.789744" lon="22.968757">
        <ele>1840.8</ele>
        <time>2026-05-06T13:25:58.000Z</time>
      </trkpt>
      <trkpt lat="41.789749" lon="22.96877">
        <ele>1840.8</ele>
        <time>2026-05-06T13:25:59.000Z</time>
      </trkpt>
      <trkpt lat="41.789753" lon="22.968782">
        <ele>1840.8</ele>
        <time>2026-05-06T13:26:00.000Z</time>
      </trkpt>
      <trkpt lat="41.789757" lon="22.968794">
        <ele>1840.8</ele>
        <time>2026-05-06T13:26:01.000Z</time>
      </trkpt>
      <trkpt lat="41.789761" lon="22.968805">
        <ele>1840.8</ele>
        <time>2026-05-06T13:26:02.000Z</time>
      </trkpt>
      <trkpt lat="41.789765" lon="22.968818">
        <ele>1838.5</ele>
        <time>2026-05-06T13:26:03.000Z</time>
      </trkpt>
      <trkpt lat="41.78977" lon="22.96883">
        <ele>1838.5</ele>
        <time>2026-05-06T13:26:04.000Z</time>
      </trkpt>
      <trkpt lat="41.789775" lon="22.968842">
        <ele>1838.5</ele>
        <time>2026-05-06T13:26:05.000Z</time>
      </trkpt>
      <trkpt lat="41.789781" lon="22.968854">
        <ele>1838.5</ele>
        <time>2026-05-06T13:26:06.000Z</time>
      </trkpt>
      <trkpt lat="41.789788" lon="22.968867">
        <ele>1838.5</ele>
        <time>2026-05-06T13:26:07.000Z</time>
      </trkpt>
      <trkpt lat="41.789795" lon="22.968878">
        <ele>1836.1</ele>
        <time>2026-05-06T13:26:08.000Z</time>
      </trkpt>
      <trkpt lat="41.789802" lon="22.968889">
        <ele>1836.1</ele>
        <time>2026-05-06T13:26:09.000Z</time>
      </trkpt>
      <trkpt lat="41.789809" lon="22.968901">
        <ele>1836.1</ele>
        <time>2026-05-06T13:26:10.000Z</time>
      </trkpt>
      <trkpt lat="41.789817" lon="22.968914">
        <ele>1836.1</ele>
        <time>2026-05-06T13:26:11.000Z</time>
      </trkpt>
      <trkpt lat="41.789825" lon="22.968925">
        <ele>1836.1</ele>
        <time>2026-05-06T13:26:12.000Z</time>
      </trkpt>
      <trkpt lat="41.789833" lon="22.968936">
        <ele>1835.1</ele>
        <time>2026-05-06T13:26:13.000Z</time>
      </trkpt>
      <trkpt lat="41.789841" lon="22.968949">
        <ele>1835.1</ele>
        <time>2026-05-06T13:26:14.000Z</time>
      </trkpt>
      <trkpt lat="41.789847" lon="22.968962">
        <ele>1835.1</ele>
        <time>2026-05-06T13:26:15.000Z</time>
      </trkpt>
      <trkpt lat="41.789854" lon="22.968973">
        <ele>1835.1</ele>
        <time>2026-05-06T13:26:16.000Z</time>
      </trkpt>
      <trkpt lat="41.78986" lon="22.968988">
        <ele>1835.1</ele>
        <time>2026-05-06T13:26:17.000Z</time>
      </trkpt>
      <trkpt lat="41.789864" lon="22.969004">
        <ele>1833.2</ele>
        <time>2026-05-06T13:26:18.000Z</time>
      </trkpt>
      <trkpt lat="41.789869" lon="22.969021">
        <ele>1833.2</ele>
        <time>2026-05-06T13:26:19.000Z</time>
      </trkpt>
      <trkpt lat="41.789873" lon="22.969038">
        <ele>1833.2</ele>
        <time>2026-05-06T13:26:20.000Z</time>
      </trkpt>
      <trkpt lat="41.789876" lon="22.969057">
        <ele>1833.2</ele>
        <time>2026-05-06T13:26:21.000Z</time>
      </trkpt>
      <trkpt lat="41.789878" lon="22.969075">
        <ele>1833.2</ele>
        <time>2026-05-06T13:26:22.000Z</time>
      </trkpt>
      <trkpt lat="41.789881" lon="22.969092">
        <ele>1831.7</ele>
        <time>2026-05-06T13:26:23.000Z</time>
      </trkpt>
      <trkpt lat="41.789885" lon="22.969108">
        <ele>1831.7</ele>
        <time>2026-05-06T13:26:24.000Z</time>
      </trkpt>
      <trkpt lat="41.789889" lon="22.969124">
        <ele>1831.7</ele>
        <time>2026-05-06T13:26:25.000Z</time>
      </trkpt>
      <trkpt lat="41.789894" lon="22.96914">
        <ele>1831.7</ele>
        <time>2026-05-06T13:26:26.000Z</time>
      </trkpt>
      <trkpt lat="41.7899" lon="22.969157">
        <ele>1831.7</ele>
        <time>2026-05-06T13:26:27.000Z</time>
      </trkpt>
      <trkpt lat="41.789904" lon="22.969173">
        <ele>1831.1</ele>
        <time>2026-05-06T13:26:28.000Z</time>
      </trkpt>
      <trkpt lat="41.789909" lon="22.969189">
        <ele>1831.1</ele>
        <time>2026-05-06T13:26:29.000Z</time>
      </trkpt>
      <trkpt lat="41.789914" lon="22.969203">
        <ele>1831.1</ele>
        <time>2026-05-06T13:26:30.000Z</time>
      </trkpt>
      <trkpt lat="41.789919" lon="22.969216">
        <ele>1831.1</ele>
        <time>2026-05-06T13:26:31.000Z</time>
      </trkpt>
      <trkpt lat="41.789924" lon="22.969228">
        <ele>1831.1</ele>
        <time>2026-05-06T13:26:32.000Z</time>
      </trkpt>
      <trkpt lat="41.78993" lon="22.969241">
        <ele>1829.7</ele>
        <time>2026-05-06T13:26:33.000Z</time>
      </trkpt>
      <trkpt lat="41.789934" lon="22.969255">
        <ele>1829.7</ele>
        <time>2026-05-06T13:26:34.000Z</time>
      </trkpt>
      <trkpt lat="41.789938" lon="22.969271">
        <ele>1829.7</ele>
        <time>2026-05-06T13:26:35.000Z</time>
      </trkpt>
      <trkpt lat="41.789942" lon="22.969286">
        <ele>1829.7</ele>
        <time>2026-05-06T13:26:36.000Z</time>
      </trkpt>
      <trkpt lat="41.789946" lon="22.969302">
        <ele>1829.7</ele>
        <time>2026-05-06T13:26:37.000Z</time>
      </trkpt>
      <trkpt lat="41.789949" lon="22.969317">
        <ele>1827.9</ele>
        <time>2026-05-06T13:26:38.000Z</time>
      </trkpt>
      <trkpt lat="41.789952" lon="22.969332">
        <ele>1827.9</ele>
        <time>2026-05-06T13:26:39.000Z</time>
      </trkpt>
      <trkpt lat="41.789955" lon="22.969346">
        <ele>1827.9</ele>
        <time>2026-05-06T13:26:40.000Z</time>
      </trkpt>
      <trkpt lat="41.789956" lon="22.969361">
        <ele>1827.9</ele>
        <time>2026-05-06T13:26:41.000Z</time>
      </trkpt>
      <trkpt lat="41.789957" lon="22.969376">
        <ele>1827.9</ele>
        <time>2026-05-06T13:26:42.000Z</time>
      </trkpt>
      <trkpt lat="41.789957" lon="22.969392">
        <ele>1826.9</ele>
        <time>2026-05-06T13:26:43.000Z</time>
      </trkpt>
      <trkpt lat="41.789958" lon="22.969406">
        <ele>1826.9</ele>
        <time>2026-05-06T13:26:44.000Z</time>
      </trkpt>
      <trkpt lat="41.78996" lon="22.96942">
        <ele>1826.9</ele>
        <time>2026-05-06T13:26:45.000Z</time>
      </trkpt>
      <trkpt lat="41.789962" lon="22.969433">
        <ele>1826.9</ele>
        <time>2026-05-06T13:26:46.000Z</time>
      </trkpt>
      <trkpt lat="41.789964" lon="22.969446">
        <ele>1826.9</ele>
        <time>2026-05-06T13:26:47.000Z</time>
      </trkpt>
      <trkpt lat="41.789967" lon="22.969458">
        <ele>1825</ele>
        <time>2026-05-06T13:26:48.000Z</time>
      </trkpt>
      <trkpt lat="41.789971" lon="22.969471">
        <ele>1825</ele>
        <time>2026-05-06T13:26:49.000Z</time>
      </trkpt>
      <trkpt lat="41.789974" lon="22.969484">
        <ele>1825</ele>
        <time>2026-05-06T13:26:50.000Z</time>
      </trkpt>
      <trkpt lat="41.789977" lon="22.969498">
        <ele>1825</ele>
        <time>2026-05-06T13:26:51.000Z</time>
      </trkpt>
      <trkpt lat="41.789979" lon="22.969511">
        <ele>1825</ele>
        <time>2026-05-06T13:26:52.000Z</time>
      </trkpt>
      <trkpt lat="41.78998" lon="22.969524">
        <ele>1823.1</ele>
        <time>2026-05-06T13:26:53.000Z</time>
      </trkpt>
      <trkpt lat="41.78998" lon="22.969535">
        <ele>1823.1</ele>
        <time>2026-05-06T13:26:54.000Z</time>
      </trkpt>
      <trkpt lat="41.789981" lon="22.969549">
        <ele>1823.1</ele>
        <time>2026-05-06T13:26:55.000Z</time>
      </trkpt>
      <trkpt lat="41.789981" lon="22.969562">
        <ele>1823.1</ele>
        <time>2026-05-06T13:26:56.000Z</time>
      </trkpt>
      <trkpt lat="41.789984" lon="22.969576">
        <ele>1823.1</ele>
        <time>2026-05-06T13:26:57.000Z</time>
      </trkpt>
      <trkpt lat="41.789988" lon="22.96959">
        <ele>1822.2</ele>
        <time>2026-05-06T13:26:58.000Z</time>
      </trkpt>
      <trkpt lat="41.789993" lon="22.969604">
        <ele>1822.2</ele>
        <time>2026-05-06T13:26:59.000Z</time>
      </trkpt>
      <trkpt lat="41.789999" lon="22.969615">
        <ele>1822.2</ele>
        <time>2026-05-06T13:27:00.000Z</time>
      </trkpt>
      <trkpt lat="41.790005" lon="22.969627">
        <ele>1822.2</ele>
        <time>2026-05-06T13:27:01.000Z</time>
      </trkpt>
      <trkpt lat="41.790011" lon="22.969638">
        <ele>1822.2</ele>
        <time>2026-05-06T13:27:02.000Z</time>
      </trkpt>
      <trkpt lat="41.790016" lon="22.969651">
        <ele>1820.4</ele>
        <time>2026-05-06T13:27:03.000Z</time>
      </trkpt>
      <trkpt lat="41.790021" lon="22.969663">
        <ele>1820.4</ele>
        <time>2026-05-06T13:27:04.000Z</time>
      </trkpt>
      <trkpt lat="41.790027" lon="22.969675">
        <ele>1820.4</ele>
        <time>2026-05-06T13:27:05.000Z</time>
      </trkpt>
      <trkpt lat="41.790031" lon="22.969688">
        <ele>1820.4</ele>
        <time>2026-05-06T13:27:06.000Z</time>
      </trkpt>
      <trkpt lat="41.790036" lon="22.969699">
        <ele>1820.4</ele>
        <time>2026-05-06T13:27:07.000Z</time>
      </trkpt>
      <trkpt lat="41.790042" lon="22.96971">
        <ele>1818.6</ele>
        <time>2026-05-06T13:27:08.000Z</time>
      </trkpt>
      <trkpt lat="41.790046" lon="22.969719">
        <ele>1818.6</ele>
        <time>2026-05-06T13:27:09.000Z</time>
      </trkpt>
      <trkpt lat="41.790052" lon="22.969728">
        <ele>1818.6</ele>
        <time>2026-05-06T13:27:10.000Z</time>
      </trkpt>
      <trkpt lat="41.790059" lon="22.969737">
        <ele>1818.6</ele>
        <time>2026-05-06T13:27:11.000Z</time>
      </trkpt>
      <trkpt lat="41.790066" lon="22.969745">
        <ele>1818.6</ele>
        <time>2026-05-06T13:27:12.000Z</time>
      </trkpt>
      <trkpt lat="41.790075" lon="22.969755">
        <ele>1817.6</ele>
        <time>2026-05-06T13:27:13.000Z</time>
      </trkpt>
      <trkpt lat="41.790084" lon="22.969767">
        <ele>1817.6</ele>
        <time>2026-05-06T13:27:14.000Z</time>
      </trkpt>
      <trkpt lat="41.790091" lon="22.969781">
        <ele>1817.6</ele>
        <time>2026-05-06T13:27:15.000Z</time>
      </trkpt>
      <trkpt lat="41.790097" lon="22.969794">
        <ele>1817.6</ele>
        <time>2026-05-06T13:27:16.000Z</time>
      </trkpt>
      <trkpt lat="41.790101" lon="22.969807">
        <ele>1817.6</ele>
        <time>2026-05-06T13:27:17.000Z</time>
      </trkpt>
      <trkpt lat="41.790104" lon="22.969819">
        <ele>1815.6</ele>
        <time>2026-05-06T13:27:18.000Z</time>
      </trkpt>
      <trkpt lat="41.790105" lon="22.96983">
        <ele>1815.6</ele>
        <time>2026-05-06T13:27:19.000Z</time>
      </trkpt>
      <trkpt lat="41.790105" lon="22.969841">
        <ele>1815.6</ele>
        <time>2026-05-06T13:27:20.000Z</time>
      </trkpt>
      <trkpt lat="41.790106" lon="22.969851">
        <ele>1815.6</ele>
        <time>2026-05-06T13:27:21.000Z</time>
      </trkpt>
      <trkpt lat="41.790105" lon="22.969862">
        <ele>1815.6</ele>
        <time>2026-05-06T13:27:22.000Z</time>
      </trkpt>
      <trkpt lat="41.790106" lon="22.969873">
        <ele>1813.6</ele>
        <time>2026-05-06T13:27:23.000Z</time>
      </trkpt>
      <trkpt lat="41.790109" lon="22.969884">
        <ele>1813.6</ele>
        <time>2026-05-06T13:27:24.000Z</time>
      </trkpt>
      <trkpt lat="41.790112" lon="22.969894">
        <ele>1813.6</ele>
        <time>2026-05-06T13:27:25.000Z</time>
      </trkpt>
      <trkpt lat="41.790117" lon="22.969905">
        <ele>1813.6</ele>
        <time>2026-05-06T13:27:26.000Z</time>
      </trkpt>
      <trkpt lat="41.790122" lon="22.969915">
        <ele>1813.6</ele>
        <time>2026-05-06T13:27:27.000Z</time>
      </trkpt>
      <trkpt lat="41.790126" lon="22.969927">
        <ele>1812.7</ele>
        <time>2026-05-06T13:27:28.000Z</time>
      </trkpt>
      <trkpt lat="41.790131" lon="22.969939">
        <ele>1812.7</ele>
        <time>2026-05-06T13:27:29.000Z</time>
      </trkpt>
      <trkpt lat="41.790135" lon="22.969952">
        <ele>1812.7</ele>
        <time>2026-05-06T13:27:30.000Z</time>
      </trkpt>
      <trkpt lat="41.790138" lon="22.969965">
        <ele>1812.7</ele>
        <time>2026-05-06T13:27:31.000Z</time>
      </trkpt>
      <trkpt lat="41.790141" lon="22.969978">
        <ele>1812.7</ele>
        <time>2026-05-06T13:27:32.000Z</time>
      </trkpt>
      <trkpt lat="41.790143" lon="22.969991">
        <ele>1810.9</ele>
        <time>2026-05-06T13:27:33.000Z</time>
      </trkpt>
      <trkpt lat="41.790145" lon="22.970004">
        <ele>1810.9</ele>
        <time>2026-05-06T13:27:34.000Z</time>
      </trkpt>
      <trkpt lat="41.790146" lon="22.970017">
        <ele>1810.9</ele>
        <time>2026-05-06T13:27:35.000Z</time>
      </trkpt>
      <trkpt lat="41.790149" lon="22.970031">
        <ele>1810.9</ele>
        <time>2026-05-06T13:27:36.000Z</time>
      </trkpt>
      <trkpt lat="41.790151" lon="22.970045">
        <ele>1810.9</ele>
        <time>2026-05-06T13:27:37.000Z</time>
      </trkpt>
      <trkpt lat="41.790154" lon="22.970061">
        <ele>1809.2</ele>
        <time>2026-05-06T13:27:38.000Z</time>
      </trkpt>
      <trkpt lat="41.790157" lon="22.970078">
        <ele>1809.2</ele>
        <time>2026-05-06T13:27:39.000Z</time>
      </trkpt>
      <trkpt lat="41.790159" lon="22.970095">
        <ele>1809.2</ele>
        <time>2026-05-06T13:27:40.000Z</time>
      </trkpt>
      <trkpt lat="41.79016" lon="22.970115">
        <ele>1809.2</ele>
        <time>2026-05-06T13:27:41.000Z</time>
      </trkpt>
      <trkpt lat="41.79016" lon="22.970133">
        <ele>1809.2</ele>
        <time>2026-05-06T13:27:42.000Z</time>
      </trkpt>
      <trkpt lat="41.790159" lon="22.970151">
        <ele>1808.3</ele>
        <time>2026-05-06T13:27:43.000Z</time>
      </trkpt>
      <trkpt lat="41.790158" lon="22.970168">
        <ele>1808.3</ele>
        <time>2026-05-06T13:27:44.000Z</time>
      </trkpt>
      <trkpt lat="41.790157" lon="22.970184">
        <ele>1808.3</ele>
        <time>2026-05-06T13:27:45.000Z</time>
      </trkpt>
      <trkpt lat="41.790156" lon="22.9702">
        <ele>1808.3</ele>
        <time>2026-05-06T13:27:46.000Z</time>
      </trkpt>
      <trkpt lat="41.790154" lon="22.970216">
        <ele>1808.3</ele>
        <time>2026-05-06T13:27:47.000Z</time>
      </trkpt>
      <trkpt lat="41.790153" lon="22.970231">
        <ele>1806.2</ele>
        <time>2026-05-06T13:27:48.000Z</time>
      </trkpt>
      <trkpt lat="41.790151" lon="22.970246">
        <ele>1806.2</ele>
        <time>2026-05-06T13:27:49.000Z</time>
      </trkpt>
      <trkpt lat="41.790148" lon="22.970261">
        <ele>1806.2</ele>
        <time>2026-05-06T13:27:50.000Z</time>
      </trkpt>
      <trkpt lat="41.790145" lon="22.970274">
        <ele>1806.2</ele>
        <time>2026-05-06T13:27:51.000Z</time>
      </trkpt>
      <trkpt lat="41.790142" lon="22.970286">
        <ele>1806.2</ele>
        <time>2026-05-06T13:27:52.000Z</time>
      </trkpt>
      <trkpt lat="41.790138" lon="22.970296">
        <ele>1803.5</ele>
        <time>2026-05-06T13:27:53.000Z</time>
      </trkpt>
      <trkpt lat="41.790133" lon="22.970307">
        <ele>1803.5</ele>
        <time>2026-05-06T13:27:54.000Z</time>
      </trkpt>
      <trkpt lat="41.790128" lon="22.970315">
        <ele>1803.5</ele>
        <time>2026-05-06T13:27:55.000Z</time>
      </trkpt>
      <trkpt lat="41.790121" lon="22.970323">
        <ele>1803.5</ele>
        <time>2026-05-06T13:27:56.000Z</time>
      </trkpt>
      <trkpt lat="41.790114" lon="22.970332">
        <ele>1803.5</ele>
        <time>2026-05-06T13:27:57.000Z</time>
      </trkpt>
      <trkpt lat="41.79011" lon="22.970341">
        <ele>1802.1</ele>
        <time>2026-05-06T13:27:58.000Z</time>
      </trkpt>
      <trkpt lat="41.790106" lon="22.97035">
        <ele>1802.1</ele>
        <time>2026-05-06T13:27:59.000Z</time>
      </trkpt>
      <trkpt lat="41.790106" lon="22.97036">
        <ele>1802.1</ele>
        <time>2026-05-06T13:28:00.000Z</time>
      </trkpt>
      <trkpt lat="41.790107" lon="22.97037">
        <ele>1802.1</ele>
        <time>2026-05-06T13:28:01.000Z</time>
      </trkpt>
      <trkpt lat="41.79011" lon="22.970381">
        <ele>1802.1</ele>
        <time>2026-05-06T13:28:02.000Z</time>
      </trkpt>
      <trkpt lat="41.790112" lon="22.970391">
        <ele>1799.5</ele>
        <time>2026-05-06T13:28:03.000Z</time>
      </trkpt>
      <trkpt lat="41.790114" lon="22.9704">
        <ele>1799.5</ele>
        <time>2026-05-06T13:28:04.000Z</time>
      </trkpt>
      <trkpt lat="41.790115" lon="22.970406">
        <ele>1799.5</ele>
        <time>2026-05-06T13:28:05.000Z</time>
      </trkpt>
      <trkpt lat="41.790116" lon="22.97041">
        <ele>1799.5</ele>
        <time>2026-05-06T13:28:06.000Z</time>
      </trkpt>
      <trkpt lat="41.790116" lon="22.970412">
        <ele>1799.5</ele>
        <time>2026-05-06T13:28:07.000Z</time>
      </trkpt>
      <trkpt lat="41.790116" lon="22.970411">
        <ele>1797.7</ele>
        <time>2026-05-06T13:28:08.000Z</time>
      </trkpt>
      <trkpt lat="41.790117" lon="22.970411">
        <ele>1797.7</ele>
        <time>2026-05-06T13:28:09.000Z</time>
      </trkpt>
      <trkpt lat="41.790117" lon="22.970411">
        <ele>1797.7</ele>
        <time>2026-05-06T13:28:10.000Z</time>
      </trkpt>
      <trkpt lat="41.790118" lon="22.970411">
        <ele>1797.7</ele>
        <time>2026-05-06T13:28:11.000Z</time>
      </trkpt>
      <trkpt lat="41.790118" lon="22.970411">
        <ele>1797.7</ele>
        <time>2026-05-06T13:28:12.000Z</time>
      </trkpt>
      <trkpt lat="41.790118" lon="22.970411">
        <ele>1797</ele>
        <time>2026-05-06T13:28:13.000Z</time>
      </trkpt>
      <trkpt lat="41.790118" lon="22.970411">
        <ele>1797</ele>
        <time>2026-05-06T13:28:14.000Z</time>
      </trkpt>
      <trkpt lat="41.790118" lon="22.970411">
        <ele>1797</ele>
        <time>2026-05-06T13:28:15.000Z</time>
      </trkpt>
      <trkpt lat="41.790118" lon="22.970411">
        <ele>1797</ele>
        <time>2026-05-06T13:28:16.000Z</time>
      </trkpt>
      <trkpt lat="41.790118" lon="22.970411">
        <ele>1797</ele>
        <time>2026-05-06T13:28:17.000Z</time>
      </trkpt>
      <trkpt lat="41.790118" lon="22.970411">
        <ele>1795.8</ele>
        <time>2026-05-06T13:28:18.000Z</time>
      </trkpt>
      <trkpt lat="41.790118" lon="22.970411">
        <ele>1795.8</ele>
        <time>2026-05-06T13:28:19.000Z</time>
      </trkpt>
      <trkpt lat="41.790117" lon="22.970411">
        <ele>1795.8</ele>
        <time>2026-05-06T13:28:20.000Z</time>
      </trkpt>
      <trkpt lat="41.790117" lon="22.970411">
        <ele>1795.8</ele>
        <time>2026-05-06T13:28:21.000Z</time>
      </trkpt>
      <trkpt lat="41.790117" lon="22.970411">
        <ele>1795.8</ele>
        <time>2026-05-06T13:28:22.000Z</time>
      </trkpt>
      <trkpt lat="41.790117" lon="22.970411">
        <ele>1795.1</ele>
        <time>2026-05-06T13:28:23.000Z</time>
      </trkpt>
      <trkpt lat="41.790117" lon="22.970411">
        <ele>1795.1</ele>
        <time>2026-05-06T13:28:24.000Z</time>
      </trkpt>
      <trkpt lat="41.790117" lon="22.970411">
        <ele>1795.1</ele>
        <time>2026-05-06T13:28:25.000Z</time>
      </trkpt>
      <trkpt lat="41.790117" lon="22.970411">
        <ele>1795.1</ele>
        <time>2026-05-06T13:28:26.000Z</time>
      </trkpt>
      <trkpt lat="41.790117" lon="22.970411">
        <ele>1795.1</ele>
        <time>2026-05-06T13:28:27.000Z</time>
      </trkpt>
      <trkpt lat="41.790117" lon="22.970411">
        <ele>1794.9</ele>
        <time>2026-05-06T13:28:28.000Z</time>
      </trkpt>
      <trkpt lat="41.790117" lon="22.970411">
        <ele>1794.9</ele>
        <time>2026-05-06T13:28:29.000Z</time>
      </trkpt>
      <trkpt lat="41.790117" lon="22.970411">
        <ele>1794.9</ele>
        <time>2026-05-06T13:28:30.000Z</time>
      </trkpt>
      <trkpt lat="41.790117" lon="22.970411">
        <ele>1794.9</ele>
        <time>2026-05-06T13:28:31.000Z</time>
      </trkpt>
      <trkpt lat="41.790117" lon="22.970411">
        <ele>1794.9</ele>
        <time>2026-05-06T13:28:32.000Z</time>
      </trkpt>
      <trkpt lat="41.790117" lon="22.970411">
        <ele>1795</ele>
        <time>2026-05-06T13:28:33.000Z</time>
      </trkpt>
      <trkpt lat="41.790117" lon="22.970411">
        <ele>1795</ele>
        <time>2026-05-06T13:28:34.000Z</time>
      </trkpt>
      <trkpt lat="41.790117" lon="22.970411">
        <ele>1795</ele>
        <time>2026-05-06T13:28:35.000Z</time>
      </trkpt>
      <trkpt lat="41.790117" lon="22.970411">
        <ele>1795</ele>
        <time>2026-05-06T13:28:36.000Z</time>
      </trkpt>
      <trkpt lat="41.790118" lon="22.970413">
        <ele>1795</ele>
        <time>2026-05-06T13:28:37.000Z</time>
      </trkpt>
      <trkpt lat="41.790118" lon="22.970418">
        <ele>1795</ele>
        <time>2026-05-06T13:28:38.000Z</time>
      </trkpt>
      <trkpt lat="41.790117" lon="22.970425">
        <ele>1795</ele>
        <time>2026-05-06T13:28:39.000Z</time>
      </trkpt>
      <trkpt lat="41.790116" lon="22.970435">
        <ele>1795</ele>
        <time>2026-05-06T13:28:40.000Z</time>
      </trkpt>
      <trkpt lat="41.790114" lon="22.970449">
        <ele>1795</ele>
        <time>2026-05-06T13:28:41.000Z</time>
      </trkpt>
      <trkpt lat="41.79011" lon="22.970463">
        <ele>1795</ele>
        <time>2026-05-06T13:28:42.000Z</time>
      </trkpt>
      <trkpt lat="41.790106" lon="22.970477">
        <ele>1795</ele>
        <time>2026-05-06T13:28:43.000Z</time>
      </trkpt>
      <trkpt lat="41.790104" lon="22.970491">
        <ele>1795</ele>
        <time>2026-05-06T13:28:44.000Z</time>
      </trkpt>
      <trkpt lat="41.790103" lon="22.970505">
        <ele>1795</ele>
        <time>2026-05-06T13:28:45.000Z</time>
      </trkpt>
      <trkpt lat="41.790104" lon="22.970518">
        <ele>1795</ele>
        <time>2026-05-06T13:28:46.000Z</time>
      </trkpt>
      <trkpt lat="41.790105" lon="22.97053">
        <ele>1795</ele>
        <time>2026-05-06T13:28:47.000Z</time>
      </trkpt>
      <trkpt lat="41.790107" lon="22.970542">
        <ele>1794.8</ele>
        <time>2026-05-06T13:28:48.000Z</time>
      </trkpt>
      <trkpt lat="41.79011" lon="22.970553">
        <ele>1794.8</ele>
        <time>2026-05-06T13:28:49.000Z</time>
      </trkpt>
      <trkpt lat="41.790114" lon="22.970565">
        <ele>1794.8</ele>
        <time>2026-05-06T13:28:50.000Z</time>
      </trkpt>
      <trkpt lat="41.790119" lon="22.970578">
        <ele>1794.8</ele>
        <time>2026-05-06T13:28:51.000Z</time>
      </trkpt>
      <trkpt lat="41.790123" lon="22.970592">
        <ele>1794.8</ele>
        <time>2026-05-06T13:28:52.000Z</time>
      </trkpt>
      <trkpt lat="41.790128" lon="22.970606">
        <ele>1793.5</ele>
        <time>2026-05-06T13:28:53.000Z</time>
      </trkpt>
      <trkpt lat="41.79013" lon="22.970621">
        <ele>1793.5</ele>
        <time>2026-05-06T13:28:54.000Z</time>
      </trkpt>
      <trkpt lat="41.790128" lon="22.970636">
        <ele>1793.5</ele>
        <time>2026-05-06T13:28:55.000Z</time>
      </trkpt>
      <trkpt lat="41.790126" lon="22.97065">
        <ele>1793.5</ele>
        <time>2026-05-06T13:28:56.000Z</time>
      </trkpt>
      <trkpt lat="41.790123" lon="22.970662">
        <ele>1793.5</ele>
        <time>2026-05-06T13:28:57.000Z</time>
      </trkpt>
      <trkpt lat="41.790121" lon="22.970674">
        <ele>1792.5</ele>
        <time>2026-05-06T13:28:58.000Z</time>
      </trkpt>
      <trkpt lat="41.790119" lon="22.970686">
        <ele>1792.5</ele>
        <time>2026-05-06T13:28:59.000Z</time>
      </trkpt>
      <trkpt lat="41.790119" lon="22.970699">
        <ele>1792.5</ele>
        <time>2026-05-06T13:29:00.000Z</time>
      </trkpt>
      <trkpt lat="41.790121" lon="22.970713">
        <ele>1792.5</ele>
        <time>2026-05-06T13:29:01.000Z</time>
      </trkpt>
      <trkpt lat="41.790123" lon="22.970728">
        <ele>1792.5</ele>
        <time>2026-05-06T13:29:02.000Z</time>
      </trkpt>
      <trkpt lat="41.790126" lon="22.970745">
        <ele>1790.2</ele>
        <time>2026-05-06T13:29:03.000Z</time>
      </trkpt>
      <trkpt lat="41.790128" lon="22.970761">
        <ele>1790.2</ele>
        <time>2026-05-06T13:29:04.000Z</time>
      </trkpt>
      <trkpt lat="41.790129" lon="22.970778">
        <ele>1790.2</ele>
        <time>2026-05-06T13:29:05.000Z</time>
      </trkpt>
      <trkpt lat="41.790128" lon="22.970794">
        <ele>1790.2</ele>
        <time>2026-05-06T13:29:06.000Z</time>
      </trkpt>
      <trkpt lat="41.790125" lon="22.970811">
        <ele>1790.2</ele>
        <time>2026-05-06T13:29:07.000Z</time>
      </trkpt>
      <trkpt lat="41.790121" lon="22.970828">
        <ele>1787.8</ele>
        <time>2026-05-06T13:29:08.000Z</time>
      </trkpt>
      <trkpt lat="41.790117" lon="22.970845">
        <ele>1787.8</ele>
        <time>2026-05-06T13:29:09.000Z</time>
      </trkpt>
      <trkpt lat="41.790113" lon="22.970861">
        <ele>1787.8</ele>
        <time>2026-05-06T13:29:10.000Z</time>
      </trkpt>
      <trkpt lat="41.790107" lon="22.970877">
        <ele>1787.8</ele>
        <time>2026-05-06T13:29:11.000Z</time>
      </trkpt>
      <trkpt lat="41.790103" lon="22.970892">
        <ele>1787.8</ele>
        <time>2026-05-06T13:29:12.000Z</time>
      </trkpt>
      <trkpt lat="41.790099" lon="22.970906">
        <ele>1786.6</ele>
        <time>2026-05-06T13:29:13.000Z</time>
      </trkpt>
      <trkpt lat="41.790095" lon="22.97092">
        <ele>1786.6</ele>
        <time>2026-05-06T13:29:14.000Z</time>
      </trkpt>
      <trkpt lat="41.790091" lon="22.970934">
        <ele>1786.6</ele>
        <time>2026-05-06T13:29:15.000Z</time>
      </trkpt>
      <trkpt lat="41.790088" lon="22.97095">
        <ele>1786.6</ele>
        <time>2026-05-06T13:29:16.000Z</time>
      </trkpt>
      <trkpt lat="41.790086" lon="22.970965">
        <ele>1786.6</ele>
        <time>2026-05-06T13:29:17.000Z</time>
      </trkpt>
      <trkpt lat="41.790084" lon="22.970981">
        <ele>1784.1</ele>
        <time>2026-05-06T13:29:18.000Z</time>
      </trkpt>
      <trkpt lat="41.790082" lon="22.970997">
        <ele>1784.1</ele>
        <time>2026-05-06T13:29:19.000Z</time>
      </trkpt>
      <trkpt lat="41.790082" lon="22.971013">
        <ele>1784.1</ele>
        <time>2026-05-06T13:29:20.000Z</time>
      </trkpt>
      <trkpt lat="41.790082" lon="22.971028">
        <ele>1784.1</ele>
        <time>2026-05-06T13:29:21.000Z</time>
      </trkpt>
      <trkpt lat="41.790083" lon="22.971047">
        <ele>1784.1</ele>
        <time>2026-05-06T13:29:22.000Z</time>
      </trkpt>
      <trkpt lat="41.790084" lon="22.971065">
        <ele>1781.5</ele>
        <time>2026-05-06T13:29:23.000Z</time>
      </trkpt>
      <trkpt lat="41.790084" lon="22.971083">
        <ele>1781.5</ele>
        <time>2026-05-06T13:29:24.000Z</time>
      </trkpt>
      <trkpt lat="41.790083" lon="22.971102">
        <ele>1781.5</ele>
        <time>2026-05-06T13:29:25.000Z</time>
      </trkpt>
      <trkpt lat="41.790081" lon="22.971121">
        <ele>1781.5</ele>
        <time>2026-05-06T13:29:26.000Z</time>
      </trkpt>
      <trkpt lat="41.790078" lon="22.971138">
        <ele>1781.5</ele>
        <time>2026-05-06T13:29:27.000Z</time>
      </trkpt>
      <trkpt lat="41.790076" lon="22.971154">
        <ele>1780.4</ele>
        <time>2026-05-06T13:29:28.000Z</time>
      </trkpt>
      <trkpt lat="41.790071" lon="22.971171">
        <ele>1780.4</ele>
        <time>2026-05-06T13:29:29.000Z</time>
      </trkpt>
      <trkpt lat="41.790065" lon="22.971189">
        <ele>1780.4</ele>
        <time>2026-05-06T13:29:30.000Z</time>
      </trkpt>
      <trkpt lat="41.790059" lon="22.971205">
        <ele>1780.4</ele>
        <time>2026-05-06T13:29:31.000Z</time>
      </trkpt>
      <trkpt lat="41.790054" lon="22.971221">
        <ele>1780.4</ele>
        <time>2026-05-06T13:29:32.000Z</time>
      </trkpt>
      <trkpt lat="41.790051" lon="22.971237">
        <ele>1778.2</ele>
        <time>2026-05-06T13:29:33.000Z</time>
      </trkpt>
      <trkpt lat="41.79005" lon="22.971254">
        <ele>1778.2</ele>
        <time>2026-05-06T13:29:34.000Z</time>
      </trkpt>
      <trkpt lat="41.79005" lon="22.971269">
        <ele>1778.2</ele>
        <time>2026-05-06T13:29:35.000Z</time>
      </trkpt>
      <trkpt lat="41.790049" lon="22.971284">
        <ele>1778.2</ele>
        <time>2026-05-06T13:29:36.000Z</time>
      </trkpt>
      <trkpt lat="41.790048" lon="22.971299">
        <ele>1778.2</ele>
        <time>2026-05-06T13:29:37.000Z</time>
      </trkpt>
      <trkpt lat="41.790043" lon="22.971314">
        <ele>1776</ele>
        <time>2026-05-06T13:29:38.000Z</time>
      </trkpt>
      <trkpt lat="41.790036" lon="22.971328">
        <ele>1776</ele>
        <time>2026-05-06T13:29:39.000Z</time>
      </trkpt>
      <trkpt lat="41.790029" lon="22.971341">
        <ele>1776</ele>
        <time>2026-05-06T13:29:40.000Z</time>
      </trkpt>
      <trkpt lat="41.790022" lon="22.971356">
        <ele>1776</ele>
        <time>2026-05-06T13:29:41.000Z</time>
      </trkpt>
      <trkpt lat="41.790016" lon="22.971369">
        <ele>1776</ele>
        <time>2026-05-06T13:29:42.000Z</time>
      </trkpt>
      <trkpt lat="41.790012" lon="22.971378">
        <ele>1774.8</ele>
        <time>2026-05-06T13:29:43.000Z</time>
      </trkpt>
      <trkpt lat="41.790009" lon="22.971386">
        <ele>1774.8</ele>
        <time>2026-05-06T13:29:44.000Z</time>
      </trkpt>
      <trkpt lat="41.790008" lon="22.97139">
        <ele>1774.8</ele>
        <time>2026-05-06T13:29:45.000Z</time>
      </trkpt>
      <trkpt lat="41.790007" lon="22.971393">
        <ele>1774.8</ele>
        <time>2026-05-06T13:29:46.000Z</time>
      </trkpt>
      <trkpt lat="41.790007" lon="22.971393">
        <ele>1774.8</ele>
        <time>2026-05-06T13:29:47.000Z</time>
      </trkpt>
      <trkpt lat="41.790007" lon="22.971394">
        <ele>1772.6</ele>
        <time>2026-05-06T13:29:48.000Z</time>
      </trkpt>
      <trkpt lat="41.790007" lon="22.971398">
        <ele>1772.6</ele>
        <time>2026-05-06T13:29:49.000Z</time>
      </trkpt>
      <trkpt lat="41.790007" lon="22.971407">
        <ele>1772.6</ele>
        <time>2026-05-06T13:29:50.000Z</time>
      </trkpt>
      <trkpt lat="41.790007" lon="22.971419">
        <ele>1772.6</ele>
        <time>2026-05-06T13:29:51.000Z</time>
      </trkpt>
      <trkpt lat="41.790006" lon="22.971435">
        <ele>1772.6</ele>
        <time>2026-05-06T13:29:52.000Z</time>
      </trkpt>
      <trkpt lat="41.790005" lon="22.971455">
        <ele>1771.1</ele>
        <time>2026-05-06T13:29:53.000Z</time>
      </trkpt>
      <trkpt lat="41.790003" lon="22.971475">
        <ele>1771.1</ele>
        <time>2026-05-06T13:29:54.000Z</time>
      </trkpt>
      <trkpt lat="41.79" lon="22.971495">
        <ele>1771.1</ele>
        <time>2026-05-06T13:29:55.000Z</time>
      </trkpt>
      <trkpt lat="41.789997" lon="22.971515">
        <ele>1771.1</ele>
        <time>2026-05-06T13:29:56.000Z</time>
      </trkpt>
      <trkpt lat="41.789993" lon="22.971531">
        <ele>1771.1</ele>
        <time>2026-05-06T13:29:57.000Z</time>
      </trkpt>
      <trkpt lat="41.78999" lon="22.971547">
        <ele>1770.5</ele>
        <time>2026-05-06T13:29:58.000Z</time>
      </trkpt>
      <trkpt lat="41.789987" lon="22.971563">
        <ele>1770.5</ele>
        <time>2026-05-06T13:29:59.000Z</time>
      </trkpt>
      <trkpt lat="41.789984" lon="22.971577">
        <ele>1770.5</ele>
        <time>2026-05-06T13:30:00.000Z</time>
      </trkpt>
      <trkpt lat="41.789981" lon="22.971591">
        <ele>1770.5</ele>
        <time>2026-05-06T13:30:01.000Z</time>
      </trkpt>
      <trkpt lat="41.789979" lon="22.971606">
        <ele>1770.5</ele>
        <time>2026-05-06T13:30:02.000Z</time>
      </trkpt>
      <trkpt lat="41.789976" lon="22.971621">
        <ele>1769.5</ele>
        <time>2026-05-06T13:30:03.000Z</time>
      </trkpt>
      <trkpt lat="41.789974" lon="22.971636">
        <ele>1769.5</ele>
        <time>2026-05-06T13:30:04.000Z</time>
      </trkpt>
      <trkpt lat="41.789972" lon="22.971652">
        <ele>1769.5</ele>
        <time>2026-05-06T13:30:05.000Z</time>
      </trkpt>
      <trkpt lat="41.78997" lon="22.971668">
        <ele>1769.5</ele>
        <time>2026-05-06T13:30:06.000Z</time>
      </trkpt>
      <trkpt lat="41.789969" lon="22.971685">
        <ele>1769.5</ele>
        <time>2026-05-06T13:30:07.000Z</time>
      </trkpt>
      <trkpt lat="41.789969" lon="22.971702">
        <ele>1768.3</ele>
        <time>2026-05-06T13:30:08.000Z</time>
      </trkpt>
      <trkpt lat="41.789969" lon="22.971718">
        <ele>1768.3</ele>
        <time>2026-05-06T13:30:09.000Z</time>
      </trkpt>
      <trkpt lat="41.789968" lon="22.971734">
        <ele>1768.3</ele>
        <time>2026-05-06T13:30:10.000Z</time>
      </trkpt>
      <trkpt lat="41.789965" lon="22.97175">
        <ele>1768.3</ele>
        <time>2026-05-06T13:30:11.000Z</time>
      </trkpt>
      <trkpt lat="41.789963" lon="22.971766">
        <ele>1768.3</ele>
        <time>2026-05-06T13:30:12.000Z</time>
      </trkpt>
      <trkpt lat="41.789959" lon="22.971783">
        <ele>1767.8</ele>
        <time>2026-05-06T13:30:13.000Z</time>
      </trkpt>
      <trkpt lat="41.789956" lon="22.971799">
        <ele>1767.8</ele>
        <time>2026-05-06T13:30:14.000Z</time>
      </trkpt>
      <trkpt lat="41.789954" lon="22.971815">
        <ele>1767.8</ele>
        <time>2026-05-06T13:30:15.000Z</time>
      </trkpt>
      <trkpt lat="41.789953" lon="22.971832">
        <ele>1767.8</ele>
        <time>2026-05-06T13:30:16.000Z</time>
      </trkpt>
      <trkpt lat="41.789952" lon="22.971849">
        <ele>1767.8</ele>
        <time>2026-05-06T13:30:17.000Z</time>
      </trkpt>
      <trkpt lat="41.78995" lon="22.971865">
        <ele>1766.7</ele>
        <time>2026-05-06T13:30:18.000Z</time>
      </trkpt>
      <trkpt lat="41.789948" lon="22.97188">
        <ele>1766.7</ele>
        <time>2026-05-06T13:30:19.000Z</time>
      </trkpt>
      <trkpt lat="41.789946" lon="22.971896">
        <ele>1766.7</ele>
        <time>2026-05-06T13:30:20.000Z</time>
      </trkpt>
      <trkpt lat="41.789943" lon="22.97191">
        <ele>1766.7</ele>
        <time>2026-05-06T13:30:21.000Z</time>
      </trkpt>
      <trkpt lat="41.78994" lon="22.971924">
        <ele>1766.7</ele>
        <time>2026-05-06T13:30:22.000Z</time>
      </trkpt>
      <trkpt lat="41.789936" lon="22.971937">
        <ele>1765.2</ele>
        <time>2026-05-06T13:30:23.000Z</time>
      </trkpt>
      <trkpt lat="41.789932" lon="22.971953">
        <ele>1765.2</ele>
        <time>2026-05-06T13:30:24.000Z</time>
      </trkpt>
      <trkpt lat="41.789929" lon="22.971968">
        <ele>1765.2</ele>
        <time>2026-05-06T13:30:25.000Z</time>
      </trkpt>
      <trkpt lat="41.789927" lon="22.971985">
        <ele>1765.2</ele>
        <time>2026-05-06T13:30:26.000Z</time>
      </trkpt>
      <trkpt lat="41.789926" lon="22.972002">
        <ele>1765.2</ele>
        <time>2026-05-06T13:30:27.000Z</time>
      </trkpt>
      <trkpt lat="41.789927" lon="22.972019">
        <ele>1764.2</ele>
        <time>2026-05-06T13:30:28.000Z</time>
      </trkpt>
      <trkpt lat="41.789929" lon="22.972034">
        <ele>1764.2</ele>
        <time>2026-05-06T13:30:29.000Z</time>
      </trkpt>
      <trkpt lat="41.789932" lon="22.972049">
        <ele>1764.2</ele>
        <time>2026-05-06T13:30:30.000Z</time>
      </trkpt>
      <trkpt lat="41.789933" lon="22.972064">
        <ele>1764.2</ele>
        <time>2026-05-06T13:30:31.000Z</time>
      </trkpt>
      <trkpt lat="41.789934" lon="22.972078">
        <ele>1764.2</ele>
        <time>2026-05-06T13:30:32.000Z</time>
      </trkpt>
      <trkpt lat="41.789936" lon="22.97209">
        <ele>1762.1</ele>
        <time>2026-05-06T13:30:33.000Z</time>
      </trkpt>
      <trkpt lat="41.789936" lon="22.972103">
        <ele>1762.1</ele>
        <time>2026-05-06T13:30:34.000Z</time>
      </trkpt>
      <trkpt lat="41.789937" lon="22.972115">
        <ele>1762.1</ele>
        <time>2026-05-06T13:30:35.000Z</time>
      </trkpt>
      <trkpt lat="41.78994" lon="22.972126">
        <ele>1762.1</ele>
        <time>2026-05-06T13:30:36.000Z</time>
      </trkpt>
      <trkpt lat="41.789943" lon="22.972138">
        <ele>1762.1</ele>
        <time>2026-05-06T13:30:37.000Z</time>
      </trkpt>
      <trkpt lat="41.789945" lon="22.972151">
        <ele>1760.3</ele>
        <time>2026-05-06T13:30:38.000Z</time>
      </trkpt>
      <trkpt lat="41.789947" lon="22.972164">
        <ele>1760.3</ele>
        <time>2026-05-06T13:30:39.000Z</time>
      </trkpt>
      <trkpt lat="41.789949" lon="22.972177">
        <ele>1760.3</ele>
        <time>2026-05-06T13:30:40.000Z</time>
      </trkpt>
      <trkpt lat="41.78995" lon="22.97219">
        <ele>1760.3</ele>
        <time>2026-05-06T13:30:41.000Z</time>
      </trkpt>
      <trkpt lat="41.789949" lon="22.972202">
        <ele>1760.3</ele>
        <time>2026-05-06T13:30:42.000Z</time>
      </trkpt>
      <trkpt lat="41.789948" lon="22.972214">
        <ele>1759.5</ele>
        <time>2026-05-06T13:30:43.000Z</time>
      </trkpt>
      <trkpt lat="41.789946" lon="22.972224">
        <ele>1759.5</ele>
        <time>2026-05-06T13:30:44.000Z</time>
      </trkpt>
      <trkpt lat="41.789944" lon="22.972232">
        <ele>1759.5</ele>
        <time>2026-05-06T13:30:45.000Z</time>
      </trkpt>
      <trkpt lat="41.789943" lon="22.972236">
        <ele>1759.5</ele>
        <time>2026-05-06T13:30:46.000Z</time>
      </trkpt>
      <trkpt lat="41.789942" lon="22.972238">
        <ele>1759.5</ele>
        <time>2026-05-06T13:30:47.000Z</time>
      </trkpt>
      <trkpt lat="41.789943" lon="22.972238">
        <ele>1757.7</ele>
        <time>2026-05-06T13:30:48.000Z</time>
      </trkpt>
      <trkpt lat="41.789943" lon="22.972237">
        <ele>1757.7</ele>
        <time>2026-05-06T13:30:49.000Z</time>
      </trkpt>
      <trkpt lat="41.789943" lon="22.972236">
        <ele>1757.7</ele>
        <time>2026-05-06T13:30:50.000Z</time>
      </trkpt>
      <trkpt lat="41.789944" lon="22.972236">
        <ele>1757.7</ele>
        <time>2026-05-06T13:30:51.000Z</time>
      </trkpt>
      <trkpt lat="41.789944" lon="22.972236">
        <ele>1757.7</ele>
        <time>2026-05-06T13:30:52.000Z</time>
      </trkpt>
      <trkpt lat="41.789944" lon="22.972236">
        <ele>1756.1</ele>
        <time>2026-05-06T13:30:53.000Z</time>
      </trkpt>
      <trkpt lat="41.789944" lon="22.972236">
        <ele>1756.1</ele>
        <time>2026-05-06T13:30:54.000Z</time>
      </trkpt>
      <trkpt lat="41.789944" lon="22.972236">
        <ele>1756.1</ele>
        <time>2026-05-06T13:30:55.000Z</time>
      </trkpt>
      <trkpt lat="41.789944" lon="22.972235">
        <ele>1756.1</ele>
        <time>2026-05-06T13:30:56.000Z</time>
      </trkpt>
      <trkpt lat="41.789944" lon="22.972235">
        <ele>1756.1</ele>
        <time>2026-05-06T13:30:57.000Z</time>
      </trkpt>
      <trkpt lat="41.789944" lon="22.972235">
        <ele>1755.5</ele>
        <time>2026-05-06T13:30:58.000Z</time>
      </trkpt>
      <trkpt lat="41.789944" lon="22.972235">
        <ele>1755.5</ele>
        <time>2026-05-06T13:30:59.000Z</time>
      </trkpt>
      <trkpt lat="41.789944" lon="22.972239">
        <ele>1755.5</ele>
        <time>2026-05-06T13:31:00.000Z</time>
      </trkpt>
      <trkpt lat="41.789943" lon="22.972245">
        <ele>1755.5</ele>
        <time>2026-05-06T13:31:01.000Z</time>
      </trkpt>
      <trkpt lat="41.789942" lon="22.972254">
        <ele>1755.5</ele>
        <time>2026-05-06T13:31:02.000Z</time>
      </trkpt>
      <trkpt lat="41.789942" lon="22.972264">
        <ele>1754.8</ele>
        <time>2026-05-06T13:31:03.000Z</time>
      </trkpt>
      <trkpt lat="41.789941" lon="22.972279">
        <ele>1754.8</ele>
        <time>2026-05-06T13:31:04.000Z</time>
      </trkpt>
      <trkpt lat="41.789942" lon="22.972292">
        <ele>1754.8</ele>
        <time>2026-05-06T13:31:05.000Z</time>
      </trkpt>
      <trkpt lat="41.789944" lon="22.972306">
        <ele>1754.8</ele>
        <time>2026-05-06T13:31:06.000Z</time>
      </trkpt>
      <trkpt lat="41.789945" lon="22.97232">
        <ele>1754.8</ele>
        <time>2026-05-06T13:31:07.000Z</time>
      </trkpt>
      <trkpt lat="41.789944" lon="22.972335">
        <ele>1754.5</ele>
        <time>2026-05-06T13:31:08.000Z</time>
      </trkpt>
      <trkpt lat="41.789943" lon="22.97235">
        <ele>1754.5</ele>
        <time>2026-05-06T13:31:09.000Z</time>
      </trkpt>
      <trkpt lat="41.78994" lon="22.972365">
        <ele>1754.5</ele>
        <time>2026-05-06T13:31:10.000Z</time>
      </trkpt>
      <trkpt lat="41.789936" lon="22.972382">
        <ele>1754.5</ele>
        <time>2026-05-06T13:31:11.000Z</time>
      </trkpt>
      <trkpt lat="41.789933" lon="22.972398">
        <ele>1754.5</ele>
        <time>2026-05-06T13:31:12.000Z</time>
      </trkpt>
      <trkpt lat="41.78993" lon="22.972415">
        <ele>1754.3</ele>
        <time>2026-05-06T13:31:13.000Z</time>
      </trkpt>
      <trkpt lat="41.789927" lon="22.972431">
        <ele>1754.3</ele>
        <time>2026-05-06T13:31:14.000Z</time>
      </trkpt>
      <trkpt lat="41.789924" lon="22.972446">
        <ele>1754.3</ele>
        <time>2026-05-06T13:31:15.000Z</time>
      </trkpt>
      <trkpt lat="41.789921" lon="22.972459">
        <ele>1754.3</ele>
        <time>2026-05-06T13:31:16.000Z</time>
      </trkpt>
      <trkpt lat="41.789917" lon="22.972473">
        <ele>1754.3</ele>
        <time>2026-05-06T13:31:17.000Z</time>
      </trkpt>
      <trkpt lat="41.78991" lon="22.972487">
        <ele>1753.6</ele>
        <time>2026-05-06T13:31:18.000Z</time>
      </trkpt>
      <trkpt lat="41.789904" lon="22.9725">
        <ele>1753.6</ele>
        <time>2026-05-06T13:31:19.000Z</time>
      </trkpt>
      <trkpt lat="41.7899" lon="22.972513">
        <ele>1753.6</ele>
        <time>2026-05-06T13:31:20.000Z</time>
      </trkpt>
      <trkpt lat="41.789896" lon="22.972527">
        <ele>1753.6</ele>
        <time>2026-05-06T13:31:21.000Z</time>
      </trkpt>
      <trkpt lat="41.789894" lon="22.97254">
        <ele>1753.6</ele>
        <time>2026-05-06T13:31:22.000Z</time>
      </trkpt>
      <trkpt lat="41.789894" lon="22.972552">
        <ele>1752.8</ele>
        <time>2026-05-06T13:31:23.000Z</time>
      </trkpt>
      <trkpt lat="41.789895" lon="22.972564">
        <ele>1752.8</ele>
        <time>2026-05-06T13:31:24.000Z</time>
      </trkpt>
      <trkpt lat="41.789895" lon="22.972577">
        <ele>1752.8</ele>
        <time>2026-05-06T13:31:25.000Z</time>
      </trkpt>
      <trkpt lat="41.789895" lon="22.97259">
        <ele>1752.8</ele>
        <time>2026-05-06T13:31:26.000Z</time>
      </trkpt>
      <trkpt lat="41.789894" lon="22.972603">
        <ele>1752.8</ele>
        <time>2026-05-06T13:31:27.000Z</time>
      </trkpt>
      <trkpt lat="41.789894" lon="22.972616">
        <ele>1752.5</ele>
        <time>2026-05-06T13:31:28.000Z</time>
      </trkpt>
      <trkpt lat="41.789893" lon="22.972628">
        <ele>1752.5</ele>
        <time>2026-05-06T13:31:29.000Z</time>
      </trkpt>
      <trkpt lat="41.789893" lon="22.972639">
        <ele>1752.5</ele>
        <time>2026-05-06T13:31:30.000Z</time>
      </trkpt>
      <trkpt lat="41.789893" lon="22.972651">
        <ele>1752.5</ele>
        <time>2026-05-06T13:31:31.000Z</time>
      </trkpt>
      <trkpt lat="41.789893" lon="22.972663">
        <ele>1752.5</ele>
        <time>2026-05-06T13:31:32.000Z</time>
      </trkpt>
      <trkpt lat="41.789892" lon="22.972677">
        <ele>1751.9</ele>
        <time>2026-05-06T13:31:33.000Z</time>
      </trkpt>
      <trkpt lat="41.789892" lon="22.972691">
        <ele>1751.9</ele>
        <time>2026-05-06T13:31:34.000Z</time>
      </trkpt>
      <trkpt lat="41.789893" lon="22.972705">
        <ele>1751.9</ele>
        <time>2026-05-06T13:31:35.000Z</time>
      </trkpt>
      <trkpt lat="41.789892" lon="22.972718">
        <ele>1751.9</ele>
        <time>2026-05-06T13:31:36.000Z</time>
      </trkpt>
      <trkpt lat="41.789891" lon="22.972732">
        <ele>1751.9</ele>
        <time>2026-05-06T13:31:37.000Z</time>
      </trkpt>
      <trkpt lat="41.789887" lon="22.972746">
        <ele>1751</ele>
        <time>2026-05-06T13:31:38.000Z</time>
      </trkpt>
      <trkpt lat="41.789883" lon="22.972759">
        <ele>1751</ele>
        <time>2026-05-06T13:31:39.000Z</time>
      </trkpt>
      <trkpt lat="41.789878" lon="22.972774">
        <ele>1751</ele>
        <time>2026-05-06T13:31:40.000Z</time>
      </trkpt>
      <trkpt lat="41.789874" lon="22.97279">
        <ele>1751</ele>
        <time>2026-05-06T13:31:41.000Z</time>
      </trkpt>
      <trkpt lat="41.78987" lon="22.972806">
        <ele>1751</ele>
        <time>2026-05-06T13:31:42.000Z</time>
      </trkpt>
      <trkpt lat="41.789867" lon="22.972823">
        <ele>1750.5</ele>
        <time>2026-05-06T13:31:43.000Z</time>
      </trkpt>
      <trkpt lat="41.789864" lon="22.97284">
        <ele>1750.5</ele>
        <time>2026-05-06T13:31:44.000Z</time>
      </trkpt>
      <trkpt lat="41.789861" lon="22.972856">
        <ele>1750.5</ele>
        <time>2026-05-06T13:31:45.000Z</time>
      </trkpt>
      <trkpt lat="41.78986" lon="22.972872">
        <ele>1750.5</ele>
        <time>2026-05-06T13:31:46.000Z</time>
      </trkpt>
      <trkpt lat="41.789859" lon="22.972888">
        <ele>1750.5</ele>
        <time>2026-05-06T13:31:47.000Z</time>
      </trkpt>
      <trkpt lat="41.78986" lon="22.972903">
        <ele>1749.6</ele>
        <time>2026-05-06T13:31:48.000Z</time>
      </trkpt>
      <trkpt lat="41.789862" lon="22.972916">
        <ele>1749.6</ele>
        <time>2026-05-06T13:31:49.000Z</time>
      </trkpt>
      <trkpt lat="41.789865" lon="22.972927">
        <ele>1749.6</ele>
        <time>2026-05-06T13:31:50.000Z</time>
      </trkpt>
      <trkpt lat="41.78987" lon="22.972938">
        <ele>1749.6</ele>
        <time>2026-05-06T13:31:51.000Z</time>
      </trkpt>
      <trkpt lat="41.789875" lon="22.972949">
        <ele>1749.6</ele>
        <time>2026-05-06T13:31:52.000Z</time>
      </trkpt>
      <trkpt lat="41.789879" lon="22.97296">
        <ele>1748.9</ele>
        <time>2026-05-06T13:31:53.000Z</time>
      </trkpt>
      <trkpt lat="41.789881" lon="22.97297">
        <ele>1748.9</ele>
        <time>2026-05-06T13:31:54.000Z</time>
      </trkpt>
      <trkpt lat="41.789881" lon="22.97298">
        <ele>1748.9</ele>
        <time>2026-05-06T13:31:55.000Z</time>
      </trkpt>
      <trkpt lat="41.78988" lon="22.97299">
        <ele>1748.9</ele>
        <time>2026-05-06T13:31:56.000Z</time>
      </trkpt>
      <trkpt lat="41.789878" lon="22.972998">
        <ele>1748.9</ele>
        <time>2026-05-06T13:31:57.000Z</time>
      </trkpt>
      <trkpt lat="41.789877" lon="22.973004">
        <ele>1748.5</ele>
        <time>2026-05-06T13:31:58.000Z</time>
      </trkpt>
      <trkpt lat="41.789875" lon="22.973012">
        <ele>1748.5</ele>
        <time>2026-05-06T13:31:59.000Z</time>
      </trkpt>
      <trkpt lat="41.789873" lon="22.973018">
        <ele>1748.5</ele>
        <time>2026-05-06T13:32:00.000Z</time>
      </trkpt>
      <trkpt lat="41.78987" lon="22.973022">
        <ele>1748.5</ele>
        <time>2026-05-06T13:32:01.000Z</time>
      </trkpt>
      <trkpt lat="41.789867" lon="22.973025">
        <ele>1748.5</ele>
        <time>2026-05-06T13:32:02.000Z</time>
      </trkpt>
      <trkpt lat="41.789864" lon="22.973027">
        <ele>1747.9</ele>
        <time>2026-05-06T13:32:03.000Z</time>
      </trkpt>
      <trkpt lat="41.789862" lon="22.973027">
        <ele>1747.9</ele>
        <time>2026-05-06T13:32:04.000Z</time>
      </trkpt>
      <trkpt lat="41.789861" lon="22.973028">
        <ele>1747.9</ele>
        <time>2026-05-06T13:32:05.000Z</time>
      </trkpt>
      <trkpt lat="41.78986" lon="22.973028">
        <ele>1747.9</ele>
        <time>2026-05-06T13:32:06.000Z</time>
      </trkpt>
      <trkpt lat="41.789859" lon="22.973028">
        <ele>1747.9</ele>
        <time>2026-05-06T13:32:07.000Z</time>
      </trkpt>
      <trkpt lat="41.789859" lon="22.973028">
        <ele>1747.4</ele>
        <time>2026-05-06T13:32:08.000Z</time>
      </trkpt>
      <trkpt lat="41.789858" lon="22.973027">
        <ele>1747.4</ele>
        <time>2026-05-06T13:32:09.000Z</time>
      </trkpt>
      <trkpt lat="41.789857" lon="22.973026">
        <ele>1747.4</ele>
        <time>2026-05-06T13:32:10.000Z</time>
      </trkpt>
      <trkpt lat="41.789857" lon="22.973026">
        <ele>1747.4</ele>
        <time>2026-05-06T13:32:11.000Z</time>
      </trkpt>
      <trkpt lat="41.789858" lon="22.973027">
        <ele>1747.4</ele>
        <time>2026-05-06T13:32:12.000Z</time>
      </trkpt>
      <trkpt lat="41.789859" lon="22.973028">
        <ele>1747.2</ele>
        <time>2026-05-06T13:32:13.000Z</time>
      </trkpt>
      <trkpt lat="41.789859" lon="22.973029">
        <ele>1747.2</ele>
        <time>2026-05-06T13:32:14.000Z</time>
      </trkpt>
      <trkpt lat="41.789859" lon="22.97303">
        <ele>1747.2</ele>
        <time>2026-05-06T13:32:15.000Z</time>
      </trkpt>
      <trkpt lat="41.789859" lon="22.97303">
        <ele>1747.2</ele>
        <time>2026-05-06T13:32:16.000Z</time>
      </trkpt>
      <trkpt lat="41.789859" lon="22.97303">
        <ele>1747.2</ele>
        <time>2026-05-06T13:32:17.000Z</time>
      </trkpt>
      <trkpt lat="41.789858" lon="22.973031">
        <ele>1746.7</ele>
        <time>2026-05-06T13:32:18.000Z</time>
      </trkpt>
      <trkpt lat="41.789858" lon="22.973031">
        <ele>1746.7</ele>
        <time>2026-05-06T13:32:19.000Z</time>
      </trkpt>
      <trkpt lat="41.789858" lon="22.973032">
        <ele>1746.7</ele>
        <time>2026-05-06T13:32:20.000Z</time>
      </trkpt>
      <trkpt lat="41.789858" lon="22.973032">
        <ele>1746.7</ele>
        <time>2026-05-06T13:32:21.000Z</time>
      </trkpt>
      <trkpt lat="41.789858" lon="22.973032">
        <ele>1746.7</ele>
        <time>2026-05-06T13:32:22.000Z</time>
      </trkpt>
      <trkpt lat="41.789858" lon="22.973032">
        <ele>1746.2</ele>
        <time>2026-05-06T13:32:23.000Z</time>
      </trkpt>
      <trkpt lat="41.789858" lon="22.973032">
        <ele>1746.2</ele>
        <time>2026-05-06T13:32:24.000Z</time>
      </trkpt>
      <trkpt lat="41.789857" lon="22.973032">
        <ele>1746.2</ele>
        <time>2026-05-06T13:32:25.000Z</time>
      </trkpt>
      <trkpt lat="41.789857" lon="22.973032">
        <ele>1746.2</ele>
        <time>2026-05-06T13:32:26.000Z</time>
      </trkpt>
      <trkpt lat="41.789857" lon="22.973032">
        <ele>1746.2</ele>
        <time>2026-05-06T13:32:27.000Z</time>
      </trkpt>
      <trkpt lat="41.789857" lon="22.973032">
        <ele>1745.9</ele>
        <time>2026-05-06T13:32:28.000Z</time>
      </trkpt>
      <trkpt lat="41.789857" lon="22.973032">
        <ele>1745.9</ele>
        <time>2026-05-06T13:32:29.000Z</time>
      </trkpt>
      <trkpt lat="41.789857" lon="22.973032">
        <ele>1745.9</ele>
        <time>2026-05-06T13:32:30.000Z</time>
      </trkpt>
      <trkpt lat="41.789857" lon="22.973032">
        <ele>1745.9</ele>
        <time>2026-05-06T13:32:31.000Z</time>
      </trkpt>
      <trkpt lat="41.789857" lon="22.973032">
        <ele>1745.9</ele>
        <time>2026-05-06T13:32:32.000Z</time>
      </trkpt>
      <trkpt lat="41.789858" lon="22.973034">
        <ele>1745.7</ele>
        <time>2026-05-06T13:32:33.000Z</time>
      </trkpt>
      <trkpt lat="41.789859" lon="22.973037">
        <ele>1745.7</ele>
        <time>2026-05-06T13:32:34.000Z</time>
      </trkpt>
      <trkpt lat="41.78986" lon="22.973041">
        <ele>1745.7</ele>
        <time>2026-05-06T13:32:35.000Z</time>
      </trkpt>
      <trkpt lat="41.789862" lon="22.973048">
        <ele>1745.7</ele>
        <time>2026-05-06T13:32:36.000Z</time>
      </trkpt>
      <trkpt lat="41.789864" lon="22.973061">
        <ele>1745.7</ele>
        <time>2026-05-06T13:32:37.000Z</time>
      </trkpt>
      <trkpt lat="41.789868" lon="22.973075">
        <ele>1745.6</ele>
        <time>2026-05-06T13:32:38.000Z</time>
      </trkpt>
      <trkpt lat="41.789874" lon="22.973091">
        <ele>1745.6</ele>
        <time>2026-05-06T13:32:39.000Z</time>
      </trkpt>
      <trkpt lat="41.78988" lon="22.97311">
        <ele>1745.6</ele>
        <time>2026-05-06T13:32:40.000Z</time>
      </trkpt>
      <trkpt lat="41.789887" lon="22.973129">
        <ele>1745.6</ele>
        <time>2026-05-06T13:32:41.000Z</time>
      </trkpt>
      <trkpt lat="41.789892" lon="22.973146">
        <ele>1745.6</ele>
        <time>2026-05-06T13:32:42.000Z</time>
      </trkpt>
      <trkpt lat="41.789897" lon="22.973164">
        <ele>1745.5</ele>
        <time>2026-05-06T13:32:43.000Z</time>
      </trkpt>
      <trkpt lat="41.7899" lon="22.973183">
        <ele>1745.5</ele>
        <time>2026-05-06T13:32:44.000Z</time>
      </trkpt>
      <trkpt lat="41.789903" lon="22.973201">
        <ele>1745.5</ele>
        <time>2026-05-06T13:32:45.000Z</time>
      </trkpt>
      <trkpt lat="41.789905" lon="22.973218">
        <ele>1745.5</ele>
        <time>2026-05-06T13:32:46.000Z</time>
      </trkpt>
      <trkpt lat="41.789906" lon="22.973235">
        <ele>1745.5</ele>
        <time>2026-05-06T13:32:47.000Z</time>
      </trkpt>
      <trkpt lat="41.789907" lon="22.973251">
        <ele>1745</ele>
        <time>2026-05-06T13:32:48.000Z</time>
      </trkpt>
      <trkpt lat="41.789908" lon="22.973267">
        <ele>1745</ele>
        <time>2026-05-06T13:32:49.000Z</time>
      </trkpt>
      <trkpt lat="41.789908" lon="22.973283">
        <ele>1745</ele>
        <time>2026-05-06T13:32:50.000Z</time>
      </trkpt>
      <trkpt lat="41.789907" lon="22.973299">
        <ele>1745</ele>
        <time>2026-05-06T13:32:51.000Z</time>
      </trkpt>
      <trkpt lat="41.789907" lon="22.973314">
        <ele>1745</ele>
        <time>2026-05-06T13:32:52.000Z</time>
      </trkpt>
      <trkpt lat="41.789909" lon="22.973329">
        <ele>1744.5</ele>
        <time>2026-05-06T13:32:53.000Z</time>
      </trkpt>
      <trkpt lat="41.789911" lon="22.973343">
        <ele>1744.5</ele>
        <time>2026-05-06T13:32:54.000Z</time>
      </trkpt>
      <trkpt lat="41.789913" lon="22.973356">
        <ele>1744.5</ele>
        <time>2026-05-06T13:32:55.000Z</time>
      </trkpt>
      <trkpt lat="41.789915" lon="22.973367">
        <ele>1744.5</ele>
        <time>2026-05-06T13:32:56.000Z</time>
      </trkpt>
      <trkpt lat="41.789916" lon="22.973376">
        <ele>1744.5</ele>
        <time>2026-05-06T13:32:57.000Z</time>
      </trkpt>
      <trkpt lat="41.789916" lon="22.973382">
        <ele>1744.5</ele>
        <time>2026-05-06T13:32:58.000Z</time>
      </trkpt>
      <trkpt lat="41.789915" lon="22.973385">
        <ele>1744.5</ele>
        <time>2026-05-06T13:32:59.000Z</time>
      </trkpt>
      <trkpt lat="41.789914" lon="22.973386">
        <ele>1744.5</ele>
        <time>2026-05-06T13:33:00.000Z</time>
      </trkpt>
      <trkpt lat="41.789914" lon="22.973386">
        <ele>1744.5</ele>
        <time>2026-05-06T13:33:01.000Z</time>
      </trkpt>
      <trkpt lat="41.789914" lon="22.973386">
        <ele>1744.5</ele>
        <time>2026-05-06T13:33:02.000Z</time>
      </trkpt>
      <trkpt lat="41.789914" lon="22.973386">
        <ele>1744.7</ele>
        <time>2026-05-06T13:33:03.000Z</time>
      </trkpt>
      <trkpt lat="41.789915" lon="22.973387">
        <ele>1744.7</ele>
        <time>2026-05-06T13:33:04.000Z</time>
      </trkpt>
      <trkpt lat="41.789916" lon="22.973386">
        <ele>1744.7</ele>
        <time>2026-05-06T13:33:05.000Z</time>
      </trkpt>
      <trkpt lat="41.789917" lon="22.973386">
        <ele>1744.7</ele>
        <time>2026-05-06T13:33:06.000Z</time>
      </trkpt>
      <trkpt lat="41.789917" lon="22.973385">
        <ele>1744.7</ele>
        <time>2026-05-06T13:33:07.000Z</time>
      </trkpt>
      <trkpt lat="41.789918" lon="22.973385">
        <ele>1744.9</ele>
        <time>2026-05-06T13:33:08.000Z</time>
      </trkpt>
      <trkpt lat="41.789919" lon="22.973386">
        <ele>1744.9</ele>
        <time>2026-05-06T13:33:09.000Z</time>
      </trkpt>
      <trkpt lat="41.78992" lon="22.973386">
        <ele>1744.9</ele>
        <time>2026-05-06T13:33:10.000Z</time>
      </trkpt>
      <trkpt lat="41.78992" lon="22.973387">
        <ele>1744.9</ele>
        <time>2026-05-06T13:33:11.000Z</time>
      </trkpt>
      <trkpt lat="41.78992" lon="22.973387">
        <ele>1744.9</ele>
        <time>2026-05-06T13:33:12.000Z</time>
      </trkpt>
      <trkpt lat="41.78992" lon="22.973388">
        <ele>1745</ele>
        <time>2026-05-06T13:33:13.000Z</time>
      </trkpt>
      <trkpt lat="41.789919" lon="22.973387">
        <ele>1745</ele>
        <time>2026-05-06T13:33:14.000Z</time>
      </trkpt>
      <trkpt lat="41.789919" lon="22.973388">
        <ele>1745</ele>
        <time>2026-05-06T13:33:15.000Z</time>
      </trkpt>
      <trkpt lat="41.789919" lon="22.973387">
        <ele>1745</ele>
        <time>2026-05-06T13:33:16.000Z</time>
      </trkpt>
      <trkpt lat="41.78992" lon="22.973386">
        <ele>1745</ele>
        <time>2026-05-06T13:33:17.000Z</time>
      </trkpt>
      <trkpt lat="41.789919" lon="22.973383">
        <ele>1745.1</ele>
        <time>2026-05-06T13:33:18.000Z</time>
      </trkpt>
      <trkpt lat="41.789917" lon="22.973382">
        <ele>1745.1</ele>
        <time>2026-05-06T13:33:19.000Z</time>
      </trkpt>
      <trkpt lat="41.789914" lon="22.973379">
        <ele>1745.1</ele>
        <time>2026-05-06T13:33:20.000Z</time>
      </trkpt>
      <trkpt lat="41.78991" lon="22.973378">
        <ele>1745.1</ele>
        <time>2026-05-06T13:33:21.000Z</time>
      </trkpt>
      <trkpt lat="41.789905" lon="22.973379">
        <ele>1745.1</ele>
        <time>2026-05-06T13:33:22.000Z</time>
      </trkpt>
      <trkpt lat="41.7899" lon="22.973377">
        <ele>1744.9</ele>
        <time>2026-05-06T13:33:23.000Z</time>
      </trkpt>
      <trkpt lat="41.789897" lon="22.973376">
        <ele>1744.9</ele>
        <time>2026-05-06T13:33:24.000Z</time>
      </trkpt>
      <trkpt lat="41.789897" lon="22.973375">
        <ele>1744.9</ele>
        <time>2026-05-06T13:33:25.000Z</time>
      </trkpt>
      <trkpt lat="41.789896" lon="22.973374">
        <ele>1744.9</ele>
        <time>2026-05-06T13:33:26.000Z</time>
      </trkpt>
      <trkpt lat="41.789897" lon="22.973373">
        <ele>1744.9</ele>
        <time>2026-05-06T13:33:27.000Z</time>
      </trkpt>
      <trkpt lat="41.789898" lon="22.973374">
        <ele>1744.9</ele>
        <time>2026-05-06T13:33:28.000Z</time>
      </trkpt>
      <trkpt lat="41.789898" lon="22.973375">
        <ele>1744.9</ele>
        <time>2026-05-06T13:33:29.000Z</time>
      </trkpt>
      <trkpt lat="41.789897" lon="22.973376">
        <ele>1744.9</ele>
        <time>2026-05-06T13:33:30.000Z</time>
      </trkpt>
      <trkpt lat="41.789897" lon="22.973376">
        <ele>1744.9</ele>
        <time>2026-05-06T13:33:31.000Z</time>
      </trkpt>
      <trkpt lat="41.789896" lon="22.973376">
        <ele>1744.9</ele>
        <time>2026-05-06T13:33:32.000Z</time>
      </trkpt>
      <trkpt lat="41.789896" lon="22.973376">
        <ele>1745</ele>
        <time>2026-05-06T13:33:33.000Z</time>
      </trkpt>
      <trkpt lat="41.789896" lon="22.973375">
        <ele>1745</ele>
        <time>2026-05-06T13:33:34.000Z</time>
      </trkpt>
      <trkpt lat="41.789896" lon="22.973374">
        <ele>1745</ele>
        <time>2026-05-06T13:33:35.000Z</time>
      </trkpt>
      <trkpt lat="41.789897" lon="22.973374">
        <ele>1745</ele>
        <time>2026-05-06T13:33:36.000Z</time>
      </trkpt>
      <trkpt lat="41.789897" lon="22.973373">
        <ele>1745</ele>
        <time>2026-05-06T13:33:37.000Z</time>
      </trkpt>
      <trkpt lat="41.789898" lon="22.973373">
        <ele>1745.3</ele>
        <time>2026-05-06T13:33:38.000Z</time>
      </trkpt>
      <trkpt lat="41.789898" lon="22.973373">
        <ele>1745.3</ele>
        <time>2026-05-06T13:33:39.000Z</time>
      </trkpt>
      <trkpt lat="41.789899" lon="22.973373">
        <ele>1745.3</ele>
        <time>2026-05-06T13:33:40.000Z</time>
      </trkpt>
      <trkpt lat="41.789899" lon="22.973373">
        <ele>1745.3</ele>
        <time>2026-05-06T13:33:41.000Z</time>
      </trkpt>
      <trkpt lat="41.789899" lon="22.973373">
        <ele>1745.3</ele>
        <time>2026-05-06T13:33:42.000Z</time>
      </trkpt>
      <trkpt lat="41.789898" lon="22.973374">
        <ele>1745.4</ele>
        <time>2026-05-06T13:33:43.000Z</time>
      </trkpt>
      <trkpt lat="41.789897" lon="22.973373">
        <ele>1745.4</ele>
        <time>2026-05-06T13:33:44.000Z</time>
      </trkpt>
      <trkpt lat="41.789896" lon="22.973373">
        <ele>1745.4</ele>
        <time>2026-05-06T13:33:45.000Z</time>
      </trkpt>
      <trkpt lat="41.789895" lon="22.973373">
        <ele>1745.4</ele>
        <time>2026-05-06T13:33:46.000Z</time>
      </trkpt>
      <trkpt lat="41.789895" lon="22.973372">
        <ele>1745.4</ele>
        <time>2026-05-06T13:33:47.000Z</time>
      </trkpt>
      <trkpt lat="41.789897" lon="22.973371">
        <ele>1745.6</ele>
        <time>2026-05-06T13:33:48.000Z</time>
      </trkpt>
      <trkpt lat="41.789902" lon="22.97337">
        <ele>1745.6</ele>
        <time>2026-05-06T13:33:49.000Z</time>
      </trkpt>
      <trkpt lat="41.789908" lon="22.973371">
        <ele>1745.6</ele>
        <time>2026-05-06T13:33:50.000Z</time>
      </trkpt>
      <trkpt lat="41.789914" lon="22.973374">
        <ele>1745.6</ele>
        <time>2026-05-06T13:33:51.000Z</time>
      </trkpt>
      <trkpt lat="41.78992" lon="22.97338">
        <ele>1745.6</ele>
        <time>2026-05-06T13:33:52.000Z</time>
      </trkpt>
      <trkpt lat="41.789924" lon="22.973387">
        <ele>1745.8</ele>
        <time>2026-05-06T13:33:53.000Z</time>
      </trkpt>
      <trkpt lat="41.789924" lon="22.973392">
        <ele>1745.8</ele>
        <time>2026-05-06T13:33:54.000Z</time>
      </trkpt>
      <trkpt lat="41.789922" lon="22.973395">
        <ele>1745.8</ele>
        <time>2026-05-06T13:33:55.000Z</time>
      </trkpt>
      <trkpt lat="41.78992" lon="22.973397">
        <ele>1745.8</ele>
        <time>2026-05-06T13:33:56.000Z</time>
      </trkpt>
      <trkpt lat="41.789916" lon="22.973395">
        <ele>1745.8</ele>
        <time>2026-05-06T13:33:57.000Z</time>
      </trkpt>
      <trkpt lat="41.789914" lon="22.973392">
        <ele>1745.7</ele>
        <time>2026-05-06T13:33:58.000Z</time>
      </trkpt>
      <trkpt lat="41.789913" lon="22.97339">
        <ele>1745.7</ele>
        <time>2026-05-06T13:33:59.000Z</time>
      </trkpt>
      <trkpt lat="41.789913" lon="22.97339">
        <ele>1745.7</ele>
        <time>2026-05-06T13:34:00.000Z</time>
      </trkpt>
      <trkpt lat="41.789913" lon="22.973391">
        <ele>1745.7</ele>
        <time>2026-05-06T13:34:01.000Z</time>
      </trkpt>
      <trkpt lat="41.789913" lon="22.973391">
        <ele>1745.7</ele>
        <time>2026-05-06T13:34:02.000Z</time>
      </trkpt>
      <trkpt lat="41.789913" lon="22.973392">
        <ele>1745.1</ele>
        <time>2026-05-06T13:34:03.000Z</time>
      </trkpt>
      <trkpt lat="41.789913" lon="22.973393">
        <ele>1745.1</ele>
        <time>2026-05-06T13:34:04.000Z</time>
      </trkpt>
      <trkpt lat="41.789913" lon="22.973394">
        <ele>1745.1</ele>
        <time>2026-05-06T13:34:05.000Z</time>
      </trkpt>
      <trkpt lat="41.789914" lon="22.973394">
        <ele>1745.1</ele>
        <time>2026-05-06T13:34:06.000Z</time>
      </trkpt>
      <trkpt lat="41.789914" lon="22.973395">
        <ele>1745.1</ele>
        <time>2026-05-06T13:34:07.000Z</time>
      </trkpt>
      <trkpt lat="41.789915" lon="22.973396">
        <ele>1744.1</ele>
        <time>2026-05-06T13:34:08.000Z</time>
      </trkpt>
      <trkpt lat="41.789915" lon="22.973396">
        <ele>1744.1</ele>
        <time>2026-05-06T13:34:09.000Z</time>
      </trkpt>
      <trkpt lat="41.789915" lon="22.973397">
        <ele>1744.1</ele>
        <time>2026-05-06T13:34:10.000Z</time>
      </trkpt>
      <trkpt lat="41.789915" lon="22.973397">
        <ele>1744.1</ele>
        <time>2026-05-06T13:34:11.000Z</time>
      </trkpt>
      <trkpt lat="41.789915" lon="22.973397">
        <ele>1744.1</ele>
        <time>2026-05-06T13:34:12.000Z</time>
      </trkpt>
      <trkpt lat="41.789915" lon="22.973397">
        <ele>1743.7</ele>
        <time>2026-05-06T13:34:13.000Z</time>
      </trkpt>
      <trkpt lat="41.789915" lon="22.973397">
        <ele>1743.7</ele>
        <time>2026-05-06T13:34:14.000Z</time>
      </trkpt>
      <trkpt lat="41.789915" lon="22.973397">
        <ele>1743.7</ele>
        <time>2026-05-06T13:34:15.000Z</time>
      </trkpt>
      <trkpt lat="41.789915" lon="22.973397">
        <ele>1743.7</ele>
        <time>2026-05-06T13:34:16.000Z</time>
      </trkpt>
      <trkpt lat="41.789915" lon="22.973397">
        <ele>1743.7</ele>
        <time>2026-05-06T13:34:17.000Z</time>
      </trkpt>
      <trkpt lat="41.789915" lon="22.973397">
        <ele>1743.4</ele>
        <time>2026-05-06T13:34:18.000Z</time>
      </trkpt>
      <trkpt lat="41.789915" lon="22.973397">
        <ele>1743.4</ele>
        <time>2026-05-06T13:34:19.000Z</time>
      </trkpt>
      <trkpt lat="41.789915" lon="22.973397">
        <ele>1743.4</ele>
        <time>2026-05-06T13:34:20.000Z</time>
      </trkpt>
      <trkpt lat="41.789915" lon="22.973397">
        <ele>1743.4</ele>
        <time>2026-05-06T13:34:21.000Z</time>
      </trkpt>
      <trkpt lat="41.789915" lon="22.973397">
        <ele>1743.4</ele>
        <time>2026-05-06T13:34:22.000Z</time>
      </trkpt>
      <trkpt lat="41.789915" lon="22.973397">
        <ele>1743.3</ele>
        <time>2026-05-06T13:34:23.000Z</time>
      </trkpt>
      <trkpt lat="41.789915" lon="22.973397">
        <ele>1743.3</ele>
        <time>2026-05-06T13:34:24.000Z</time>
      </trkpt>
      <trkpt lat="41.789915" lon="22.973397">
        <ele>1743.3</ele>
        <time>2026-05-06T13:34:25.000Z</time>
      </trkpt>
      <trkpt lat="41.789915" lon="22.973397">
        <ele>1743.3</ele>
        <time>2026-05-06T13:34:26.000Z</time>
      </trkpt>
      <trkpt lat="41.789915" lon="22.973397">
        <ele>1743.3</ele>
        <time>2026-05-06T13:34:27.000Z</time>
      </trkpt>
      <trkpt lat="41.789915" lon="22.973397">
        <ele>1743.3</ele>
        <time>2026-05-06T13:34:28.000Z</time>
      </trkpt>
      <trkpt lat="41.789915" lon="22.973397">
        <ele>1743.3</ele>
        <time>2026-05-06T13:34:29.000Z</time>
      </trkpt>
      <trkpt lat="41.789915" lon="22.973397">
        <ele>1743.3</ele>
        <time>2026-05-06T13:34:30.000Z</time>
      </trkpt>
      <trkpt lat="41.789915" lon="22.973397">
        <ele>1743.3</ele>
        <time>2026-05-06T13:34:31.000Z</time>
      </trkpt>
      <trkpt lat="41.789915" lon="22.973397">
        <ele>1743.3</ele>
        <time>2026-05-06T13:34:32.000Z</time>
      </trkpt>
      <trkpt lat="41.789915" lon="22.973397">
        <ele>1743.3</ele>
        <time>2026-05-06T13:34:33.000Z</time>
      </trkpt>
      <trkpt lat="41.789915" lon="22.973397">
        <ele>1743.3</ele>
        <time>2026-05-06T13:34:34.000Z</time>
      </trkpt>
      <trkpt lat="41.789915" lon="22.973397">
        <ele>1743.3</ele>
        <time>2026-05-06T13:34:35.000Z</time>
      </trkpt>
      <trkpt lat="41.789915" lon="22.973397">
        <ele>1743.3</ele>
        <time>2026-05-06T13:34:36.000Z</time>
      </trkpt>
      <trkpt lat="41.789915" lon="22.973397">
        <ele>1743.3</ele>
        <time>2026-05-06T13:34:37.000Z</time>
      </trkpt>
      <trkpt lat="41.789915" lon="22.973397">
        <ele>1743.2</ele>
        <time>2026-05-06T13:34:38.000Z</time>
      </trkpt>
      <trkpt lat="41.789915" lon="22.973397">
        <ele>1743.2</ele>
        <time>2026-05-06T13:34:39.000Z</time>
      </trkpt>
      <trkpt lat="41.789915" lon="22.973396">
        <ele>1743.2</ele>
        <time>2026-05-06T13:34:40.000Z</time>
      </trkpt>
      <trkpt lat="41.789914" lon="22.973396">
        <ele>1743.2</ele>
        <time>2026-05-06T13:34:41.000Z</time>
      </trkpt>
      <trkpt lat="41.789914" lon="22.973396">
        <ele>1743.2</ele>
        <time>2026-05-06T13:34:42.000Z</time>
      </trkpt>
      <trkpt lat="41.789913" lon="22.973396">
        <ele>1743.2</ele>
        <time>2026-05-06T13:34:43.000Z</time>
      </trkpt>
      <trkpt lat="41.789913" lon="22.973395">
        <ele>1743.2</ele>
        <time>2026-05-06T13:34:44.000Z</time>
      </trkpt>
      <trkpt lat="41.789912" lon="22.973395">
        <ele>1743.2</ele>
        <time>2026-05-06T13:34:45.000Z</time>
      </trkpt>
      <trkpt lat="41.789912" lon="22.973395">
        <ele>1743.2</ele>
        <time>2026-05-06T13:34:46.000Z</time>
      </trkpt>
      <trkpt lat="41.789912" lon="22.973395">
        <ele>1743.2</ele>
        <time>2026-05-06T13:34:47.000Z</time>
      </trkpt>
      <trkpt lat="41.789912" lon="22.973395">
        <ele>1743.1</ele>
        <time>2026-05-06T13:34:48.000Z</time>
      </trkpt>
      <trkpt lat="41.789912" lon="22.973395">
        <ele>1743.1</ele>
        <time>2026-05-06T13:34:49.000Z</time>
      </trkpt>
      <trkpt lat="41.789912" lon="22.973395">
        <ele>1743.1</ele>
        <time>2026-05-06T13:34:50.000Z</time>
      </trkpt>
      <trkpt lat="41.789912" lon="22.973395">
        <ele>1743.1</ele>
        <time>2026-05-06T13:34:51.000Z</time>
      </trkpt>
      <trkpt lat="41.789912" lon="22.973395">
        <ele>1743.1</ele>
        <time>2026-05-06T13:34:52.000Z</time>
      </trkpt>
      <trkpt lat="41.789911" lon="22.973395">
        <ele>1743.1</ele>
        <time>2026-05-06T13:34:53.000Z</time>
      </trkpt>
      <trkpt lat="41.789911" lon="22.973395">
        <ele>1743.1</ele>
        <time>2026-05-06T13:34:54.000Z</time>
      </trkpt>
      <trkpt lat="41.789911" lon="22.973395">
        <ele>1743.1</ele>
        <time>2026-05-06T13:34:55.000Z</time>
      </trkpt>
      <trkpt lat="41.789911" lon="22.973395">
        <ele>1743.1</ele>
        <time>2026-05-06T13:34:56.000Z</time>
      </trkpt>
      <trkpt lat="41.78991" lon="22.973395">
        <ele>1743.1</ele>
        <time>2026-05-06T13:34:57.000Z</time>
      </trkpt>
      <trkpt lat="41.78991" lon="22.973395">
        <ele>1743.1</ele>
        <time>2026-05-06T13:34:58.000Z</time>
      </trkpt>
      <trkpt lat="41.78991" lon="22.973395">
        <ele>1743.1</ele>
        <time>2026-05-06T13:34:59.000Z</time>
      </trkpt>
      <trkpt lat="41.78991" lon="22.973395">
        <ele>1743.1</ele>
        <time>2026-05-06T13:35:00.000Z</time>
      </trkpt>
      <trkpt lat="41.78991" lon="22.973395">
        <ele>1743.1</ele>
        <time>2026-05-06T13:35:01.000Z</time>
      </trkpt>
      <trkpt lat="41.78991" lon="22.973395">
        <ele>1743.1</ele>
        <time>2026-05-06T13:35:02.000Z</time>
      </trkpt>
      <trkpt lat="41.78991" lon="22.973395">
        <ele>1743.1</ele>
        <time>2026-05-06T13:35:03.000Z</time>
      </trkpt>
      <trkpt lat="41.78991" lon="22.973395">
        <ele>1743.1</ele>
        <time>2026-05-06T13:35:04.000Z</time>
      </trkpt>
      <trkpt lat="41.78991" lon="22.973395">
        <ele>1743.1</ele>
        <time>2026-05-06T13:35:05.000Z</time>
      </trkpt>
      <trkpt lat="41.789909" lon="22.973395">
        <ele>1743.1</ele>
        <time>2026-05-06T13:35:06.000Z</time>
      </trkpt>
      <trkpt lat="41.789909" lon="22.973394">
        <ele>1743.1</ele>
        <time>2026-05-06T13:35:07.000Z</time>
      </trkpt>
      <trkpt lat="41.789909" lon="22.973394">
        <ele>1743</ele>
        <time>2026-05-06T13:35:08.000Z</time>
      </trkpt>
      <trkpt lat="41.789909" lon="22.973394">
        <ele>1743</ele>
        <time>2026-05-06T13:35:09.000Z</time>
      </trkpt>
      <trkpt lat="41.789909" lon="22.973394">
        <ele>1743</ele>
        <time>2026-05-06T13:35:10.000Z</time>
      </trkpt>
      <trkpt lat="41.789909" lon="22.973393">
        <ele>1743</ele>
        <time>2026-05-06T13:35:11.000Z</time>
      </trkpt>
      <trkpt lat="41.789909" lon="22.973393">
        <ele>1743</ele>
        <time>2026-05-06T13:35:12.000Z</time>
      </trkpt>
      <trkpt lat="41.789909" lon="22.973393">
        <ele>1743</ele>
        <time>2026-05-06T13:35:13.000Z</time>
      </trkpt>
      <trkpt lat="41.789909" lon="22.973392">
        <ele>1743</ele>
        <time>2026-05-06T13:35:14.000Z</time>
      </trkpt>
      <trkpt lat="41.789909" lon="22.973392">
        <ele>1743</ele>
        <time>2026-05-06T13:35:15.000Z</time>
      </trkpt>
      <trkpt lat="41.789909" lon="22.973392">
        <ele>1743</ele>
        <time>2026-05-06T13:35:16.000Z</time>
      </trkpt>
      <trkpt lat="41.789909" lon="22.973392">
        <ele>1743</ele>
        <time>2026-05-06T13:35:17.000Z</time>
      </trkpt>
      <trkpt lat="41.789908" lon="22.973392">
        <ele>1743</ele>
        <time>2026-05-06T13:35:18.000Z</time>
      </trkpt>
      <trkpt lat="41.789908" lon="22.973393">
        <ele>1743</ele>
        <time>2026-05-06T13:35:19.000Z</time>
      </trkpt>
      <trkpt lat="41.789907" lon="22.973393">
        <ele>1743</ele>
        <time>2026-05-06T13:35:20.000Z</time>
      </trkpt>
      <trkpt lat="41.789907" lon="22.973393">
        <ele>1743</ele>
        <time>2026-05-06T13:35:21.000Z</time>
      </trkpt>
      <trkpt lat="41.789907" lon="22.973394">
        <ele>1743</ele>
        <time>2026-05-06T13:35:22.000Z</time>
      </trkpt>
      <trkpt lat="41.789907" lon="22.973394">
        <ele>1742.9</ele>
        <time>2026-05-06T13:35:23.000Z</time>
      </trkpt>
      <trkpt lat="41.789907" lon="22.973394">
        <ele>1742.9</ele>
        <time>2026-05-06T13:35:24.000Z</time>
      </trkpt>
      <trkpt lat="41.789907" lon="22.973394">
        <ele>1742.9</ele>
        <time>2026-05-06T13:35:25.000Z</time>
      </trkpt>
      <trkpt lat="41.789907" lon="22.973394">
        <ele>1742.9</ele>
        <time>2026-05-06T13:35:26.000Z</time>
      </trkpt>
      <trkpt lat="41.789907" lon="22.973394">
        <ele>1742.9</ele>
        <time>2026-05-06T13:35:27.000Z</time>
      </trkpt>
      <trkpt lat="41.789907" lon="22.973394">
        <ele>1742.9</ele>
        <time>2026-05-06T13:35:28.000Z</time>
      </trkpt>
      <trkpt lat="41.789907" lon="22.973394">
        <ele>1742.9</ele>
        <time>2026-05-06T13:35:29.000Z</time>
      </trkpt>
      <trkpt lat="41.789907" lon="22.973394">
        <ele>1742.9</ele>
        <time>2026-05-06T13:35:30.000Z</time>
      </trkpt>
      <trkpt lat="41.789907" lon="22.973394">
        <ele>1742.9</ele>
        <time>2026-05-06T13:35:31.000Z</time>
      </trkpt>
      <trkpt lat="41.789907" lon="22.973394">
        <ele>1742.9</ele>
        <time>2026-05-06T13:35:32.000Z</time>
      </trkpt>
      <trkpt lat="41.789907" lon="22.973394">
        <ele>1743</ele>
        <time>2026-05-06T13:35:33.000Z</time>
      </trkpt>
      <trkpt lat="41.789907" lon="22.973394">
        <ele>1743</ele>
        <time>2026-05-06T13:35:34.000Z</time>
      </trkpt>
      <trkpt lat="41.789907" lon="22.973394">
        <ele>1743</ele>
        <time>2026-05-06T13:35:35.000Z</time>
      </trkpt>
      <trkpt lat="41.789907" lon="22.973393">
        <ele>1743</ele>
        <time>2026-05-06T13:35:36.000Z</time>
      </trkpt>
      <trkpt lat="41.789906" lon="22.973393">
        <ele>1743</ele>
        <time>2026-05-06T13:35:37.000Z</time>
      </trkpt>
      <trkpt lat="41.789906" lon="22.973392">
        <ele>1743.1</ele>
        <time>2026-05-06T13:35:38.000Z</time>
      </trkpt>
      <trkpt lat="41.789906" lon="22.973392">
        <ele>1743.1</ele>
        <time>2026-05-06T13:35:39.000Z</time>
      </trkpt>
      <trkpt lat="41.789906" lon="22.973392">
        <ele>1743.1</ele>
        <time>2026-05-06T13:35:40.000Z</time>
      </trkpt>
      <trkpt lat="41.789907" lon="22.973392">
        <ele>1743.1</ele>
        <time>2026-05-06T13:35:41.000Z</time>
      </trkpt>
      <trkpt lat="41.789907" lon="22.973392">
        <ele>1743.1</ele>
        <time>2026-05-06T13:35:42.000Z</time>
      </trkpt>
      <trkpt lat="41.789907" lon="22.973392">
        <ele>1743.1</ele>
        <time>2026-05-06T13:35:43.000Z</time>
      </trkpt>
      <trkpt lat="41.789906" lon="22.973392">
        <ele>1743.1</ele>
        <time>2026-05-06T13:35:44.000Z</time>
      </trkpt>
      <trkpt lat="41.789906" lon="22.973393">
        <ele>1743.1</ele>
        <time>2026-05-06T13:35:45.000Z</time>
      </trkpt>
      <trkpt lat="41.789906" lon="22.973393">
        <ele>1743.1</ele>
        <time>2026-05-06T13:35:46.000Z</time>
      </trkpt>
      <trkpt lat="41.789906" lon="22.973394">
        <ele>1743.1</ele>
        <time>2026-05-06T13:35:47.000Z</time>
      </trkpt>
      <trkpt lat="41.789906" lon="22.973394">
        <ele>1743.2</ele>
        <time>2026-05-06T13:35:48.000Z</time>
      </trkpt>
      <trkpt lat="41.789906" lon="22.973394">
        <ele>1743.2</ele>
        <time>2026-05-06T13:35:49.000Z</time>
      </trkpt>
      <trkpt lat="41.789906" lon="22.973394">
        <ele>1743.2</ele>
        <time>2026-05-06T13:35:50.000Z</time>
      </trkpt>
      <trkpt lat="41.789906" lon="22.973394">
        <ele>1743.2</ele>
        <time>2026-05-06T13:35:51.000Z</time>
      </trkpt>
      <trkpt lat="41.789906" lon="22.973394">
        <ele>1743.2</ele>
        <time>2026-05-06T13:35:52.000Z</time>
      </trkpt>
      <trkpt lat="41.789906" lon="22.973394">
        <ele>1743.1</ele>
        <time>2026-05-06T13:35:53.000Z</time>
      </trkpt>
      <trkpt lat="41.789906" lon="22.973394">
        <ele>1743.1</ele>
        <time>2026-05-06T13:35:54.000Z</time>
      </trkpt>
      <trkpt lat="41.789906" lon="22.973394">
        <ele>1743.1</ele>
        <time>2026-05-06T13:35:55.000Z</time>
      </trkpt>
      <trkpt lat="41.789906" lon="22.973394">
        <ele>1743.1</ele>
        <time>2026-05-06T13:35:56.000Z</time>
      </trkpt>
      <trkpt lat="41.789906" lon="22.973394">
        <ele>1743.1</ele>
        <time>2026-05-06T13:35:57.000Z</time>
      </trkpt>
      <trkpt lat="41.789906" lon="22.973394">
        <ele>1743.1</ele>
        <time>2026-05-06T13:35:58.000Z</time>
      </trkpt>
      <trkpt lat="41.789905" lon="22.973394">
        <ele>1743.1</ele>
        <time>2026-05-06T13:35:59.000Z</time>
      </trkpt>
      <trkpt lat="41.789905" lon="22.973394">
        <ele>1743.1</ele>
        <time>2026-05-06T13:36:00.000Z</time>
      </trkpt>
      <trkpt lat="41.789905" lon="22.973394">
        <ele>1743.1</ele>
        <time>2026-05-06T13:36:01.000Z</time>
      </trkpt>
      <trkpt lat="41.789905" lon="22.973394">
        <ele>1743.1</ele>
        <time>2026-05-06T13:36:02.000Z</time>
      </trkpt>
      <trkpt lat="41.789905" lon="22.973394">
        <ele>1742.8</ele>
        <time>2026-05-06T13:36:03.000Z</time>
      </trkpt>
      <trkpt lat="41.789906" lon="22.973394">
        <ele>1742.8</ele>
        <time>2026-05-06T13:36:04.000Z</time>
      </trkpt>
      <trkpt lat="41.789906" lon="22.973394">
        <ele>1742.8</ele>
        <time>2026-05-06T13:36:05.000Z</time>
      </trkpt>
      <trkpt lat="41.789906" lon="22.973394">
        <ele>1742.8</ele>
        <time>2026-05-06T13:36:06.000Z</time>
      </trkpt>
      <trkpt lat="41.789906" lon="22.973394">
        <ele>1742.8</ele>
        <time>2026-05-06T13:36:07.000Z</time>
      </trkpt>
      <trkpt lat="41.789906" lon="22.973394">
        <ele>1742.8</ele>
        <time>2026-05-06T13:36:08.000Z</time>
      </trkpt>
      <trkpt lat="41.789906" lon="22.973394">
        <ele>1742.8</ele>
        <time>2026-05-06T13:36:09.000Z</time>
      </trkpt>
      <trkpt lat="41.789906" lon="22.973394">
        <ele>1742.8</ele>
        <time>2026-05-06T13:36:10.000Z</time>
      </trkpt>
      <trkpt lat="41.789906" lon="22.973394">
        <ele>1742.8</ele>
        <time>2026-05-06T13:36:11.000Z</time>
      </trkpt>
      <trkpt lat="41.789906" lon="22.973394">
        <ele>1742.8</ele>
        <time>2026-05-06T13:36:12.000Z</time>
      </trkpt>
      <trkpt lat="41.789906" lon="22.973394">
        <ele>1742.9</ele>
        <time>2026-05-06T13:36:13.000Z</time>
      </trkpt>
      <trkpt lat="41.789906" lon="22.973394">
        <ele>1742.9</ele>
        <time>2026-05-06T13:36:14.000Z</time>
      </trkpt>
      <trkpt lat="41.789906" lon="22.973394">
        <ele>1742.9</ele>
        <time>2026-05-06T13:36:15.000Z</time>
      </trkpt>
      <trkpt lat="41.789906" lon="22.973394">
        <ele>1742.9</ele>
        <time>2026-05-06T13:36:16.000Z</time>
      </trkpt>
      <trkpt lat="41.789906" lon="22.973394">
        <ele>1742.9</ele>
        <time>2026-05-06T13:36:17.000Z</time>
      </trkpt>
      <trkpt lat="41.789905" lon="22.973394">
        <ele>1743.2</ele>
        <time>2026-05-06T13:36:18.000Z</time>
      </trkpt>
      <trkpt lat="41.789905" lon="22.973394">
        <ele>1743.2</ele>
        <time>2026-05-06T13:36:19.000Z</time>
      </trkpt>
      <trkpt lat="41.789905" lon="22.973394">
        <ele>1743.2</ele>
        <time>2026-05-06T13:36:20.000Z</time>
      </trkpt>
      <trkpt lat="41.789904" lon="22.973394">
        <ele>1743.2</ele>
        <time>2026-05-06T13:36:21.000Z</time>
      </trkpt>
      <trkpt lat="41.789904" lon="22.973394">
        <ele>1743.2</ele>
        <time>2026-05-06T13:36:22.000Z</time>
      </trkpt>
      <trkpt lat="41.789904" lon="22.973394">
        <ele>1743.3</ele>
        <time>2026-05-06T13:36:23.000Z</time>
      </trkpt>
      <trkpt lat="41.789904" lon="22.973394">
        <ele>1743.3</ele>
        <time>2026-05-06T13:36:24.000Z</time>
      </trkpt>
      <trkpt lat="41.789904" lon="22.973394">
        <ele>1743.3</ele>
        <time>2026-05-06T13:36:25.000Z</time>
      </trkpt>
      <trkpt lat="41.789904" lon="22.973394">
        <ele>1743.3</ele>
        <time>2026-05-06T13:36:26.000Z</time>
      </trkpt>
      <trkpt lat="41.789904" lon="22.973394">
        <ele>1743.3</ele>
        <time>2026-05-06T13:36:27.000Z</time>
      </trkpt>
      <trkpt lat="41.789904" lon="22.973394">
        <ele>1743.4</ele>
        <time>2026-05-06T13:36:28.000Z</time>
      </trkpt>
      <trkpt lat="41.789904" lon="22.973394">
        <ele>1743.4</ele>
        <time>2026-05-06T13:36:29.000Z</time>
      </trkpt>
      <trkpt lat="41.789904" lon="22.973394">
        <ele>1743.4</ele>
        <time>2026-05-06T13:36:30.000Z</time>
      </trkpt>
      <trkpt lat="41.789904" lon="22.973394">
        <ele>1743.4</ele>
        <time>2026-05-06T13:36:31.000Z</time>
      </trkpt>
      <trkpt lat="41.789904" lon="22.973394">
        <ele>1743.4</ele>
        <time>2026-05-06T13:36:32.000Z</time>
      </trkpt>
      <trkpt lat="41.789904" lon="22.973394">
        <ele>1743.3</ele>
        <time>2026-05-06T13:36:33.000Z</time>
      </trkpt>
      <trkpt lat="41.789904" lon="22.973394">
        <ele>1743.3</ele>
        <time>2026-05-06T13:36:34.000Z</time>
      </trkpt>
      <trkpt lat="41.789904" lon="22.973394">
        <ele>1743.3</ele>
        <time>2026-05-06T13:36:35.000Z</time>
      </trkpt>
      <trkpt lat="41.789904" lon="22.973394">
        <ele>1743.3</ele>
        <time>2026-05-06T13:36:36.000Z</time>
      </trkpt>
      <trkpt lat="41.789904" lon="22.973394">
        <ele>1743.3</ele>
        <time>2026-05-06T13:36:37.000Z</time>
      </trkpt>
      <trkpt lat="41.789904" lon="22.973394">
        <ele>1743.3</ele>
        <time>2026-05-06T13:36:38.000Z</time>
      </trkpt>
      <trkpt lat="41.789904" lon="22.973394">
        <ele>1743.3</ele>
        <time>2026-05-06T13:36:39.000Z</time>
      </trkpt>
      <trkpt lat="41.789904" lon="22.973394">
        <ele>1743.3</ele>
        <time>2026-05-06T13:36:40.000Z</time>
      </trkpt>
      <trkpt lat="41.789904" lon="22.973394">
        <ele>1743.3</ele>
        <time>2026-05-06T13:36:41.000Z</time>
      </trkpt>
      <trkpt lat="41.789904" lon="22.973394">
        <ele>1743.3</ele>
        <time>2026-05-06T13:36:42.000Z</time>
      </trkpt>
      <trkpt lat="41.789904" lon="22.973394">
        <ele>1743.2</ele>
        <time>2026-05-06T13:36:43.000Z</time>
      </trkpt>
      <trkpt lat="41.789904" lon="22.973394">
        <ele>1743.2</ele>
        <time>2026-05-06T13:36:44.000Z</time>
      </trkpt>
      <trkpt lat="41.789904" lon="22.973395">
        <ele>1743.2</ele>
        <time>2026-05-06T13:36:45.000Z</time>
      </trkpt>
      <trkpt lat="41.789904" lon="22.973395">
        <ele>1743.2</ele>
        <time>2026-05-06T13:36:46.000Z</time>
      </trkpt>
      <trkpt lat="41.789904" lon="22.973394">
        <ele>1743.2</ele>
        <time>2026-05-06T13:36:47.000Z</time>
      </trkpt>
      <trkpt lat="41.789905" lon="22.973393">
        <ele>1743.1</ele>
        <time>2026-05-06T13:36:48.000Z</time>
      </trkpt>
      <trkpt lat="41.789907" lon="22.973392">
        <ele>1743.1</ele>
        <time>2026-05-06T13:36:49.000Z</time>
      </trkpt>
      <trkpt lat="41.78991" lon="22.973391">
        <ele>1743.1</ele>
        <time>2026-05-06T13:36:50.000Z</time>
      </trkpt>
      <trkpt lat="41.789915" lon="22.973392">
        <ele>1743.1</ele>
        <time>2026-05-06T13:36:51.000Z</time>
      </trkpt>
      <trkpt lat="41.78992" lon="22.973396">
        <ele>1743.1</ele>
        <time>2026-05-06T13:36:52.000Z</time>
      </trkpt>
      <trkpt lat="41.789923" lon="22.973402">
        <ele>1743.1</ele>
        <time>2026-05-06T13:36:53.000Z</time>
      </trkpt>
      <trkpt lat="41.789927" lon="22.97341">
        <ele>1743.1</ele>
        <time>2026-05-06T13:36:54.000Z</time>
      </trkpt>
      <trkpt lat="41.789932" lon="22.973419">
        <ele>1743.1</ele>
        <time>2026-05-06T13:36:55.000Z</time>
      </trkpt>
      <trkpt lat="41.789935" lon="22.973429">
        <ele>1743.1</ele>
        <time>2026-05-06T13:36:56.000Z</time>
      </trkpt>
      <trkpt lat="41.789939" lon="22.973441">
        <ele>1743.1</ele>
        <time>2026-05-06T13:36:57.000Z</time>
      </trkpt>
      <trkpt lat="41.789943" lon="22.973452">
        <ele>1743.2</ele>
        <time>2026-05-06T13:36:58.000Z</time>
      </trkpt>
      <trkpt lat="41.789947" lon="22.973464">
        <ele>1743.2</ele>
        <time>2026-05-06T13:36:59.000Z</time>
      </trkpt>
      <trkpt lat="41.789949" lon="22.973477">
        <ele>1743.2</ele>
        <time>2026-05-06T13:37:00.000Z</time>
      </trkpt>
      <trkpt lat="41.789951" lon="22.973489">
        <ele>1743.2</ele>
        <time>2026-05-06T13:37:01.000Z</time>
      </trkpt>
      <trkpt lat="41.789952" lon="22.9735">
        <ele>1743.2</ele>
        <time>2026-05-06T13:37:02.000Z</time>
      </trkpt>
      <trkpt lat="41.789953" lon="22.973512">
        <ele>1742.7</ele>
        <time>2026-05-06T13:37:03.000Z</time>
      </trkpt>
      <trkpt lat="41.789955" lon="22.973522">
        <ele>1742.7</ele>
        <time>2026-05-06T13:37:04.000Z</time>
      </trkpt>
      <trkpt lat="41.789957" lon="22.97353">
        <ele>1742.7</ele>
        <time>2026-05-06T13:37:05.000Z</time>
      </trkpt>
      <trkpt lat="41.78996" lon="22.973537">
        <ele>1742.7</ele>
        <time>2026-05-06T13:37:06.000Z</time>
      </trkpt>
      <trkpt lat="41.789963" lon="22.973545">
        <ele>1742.7</ele>
        <time>2026-05-06T13:37:07.000Z</time>
      </trkpt>
      <trkpt lat="41.789965" lon="22.973553">
        <ele>1741.8</ele>
        <time>2026-05-06T13:37:08.000Z</time>
      </trkpt>
      <trkpt lat="41.789966" lon="22.97356">
        <ele>1741.8</ele>
        <time>2026-05-06T13:37:09.000Z</time>
      </trkpt>
      <trkpt lat="41.789965" lon="22.973567">
        <ele>1741.8</ele>
        <time>2026-05-06T13:37:10.000Z</time>
      </trkpt>
      <trkpt lat="41.789963" lon="22.973578">
        <ele>1741.8</ele>
        <time>2026-05-06T13:37:11.000Z</time>
      </trkpt>
      <trkpt lat="41.78996" lon="22.973589">
        <ele>1741.8</ele>
        <time>2026-05-06T13:37:12.000Z</time>
      </trkpt>
      <trkpt lat="41.789958" lon="22.9736">
        <ele>1741.2</ele>
        <time>2026-05-06T13:37:13.000Z</time>
      </trkpt>
      <trkpt lat="41.789959" lon="22.973614">
        <ele>1741.2</ele>
        <time>2026-05-06T13:37:14.000Z</time>
      </trkpt>
      <trkpt lat="41.789961" lon="22.973627">
        <ele>1741.2</ele>
        <time>2026-05-06T13:37:15.000Z</time>
      </trkpt>
      <trkpt lat="41.789965" lon="22.97364">
        <ele>1741.2</ele>
        <time>2026-05-06T13:37:16.000Z</time>
      </trkpt>
      <trkpt lat="41.78997" lon="22.973654">
        <ele>1741.2</ele>
        <time>2026-05-06T13:37:17.000Z</time>
      </trkpt>
      <trkpt lat="41.789975" lon="22.973666">
        <ele>1740.2</ele>
        <time>2026-05-06T13:37:18.000Z</time>
      </trkpt>
      <trkpt lat="41.789979" lon="22.973679">
        <ele>1740.2</ele>
        <time>2026-05-06T13:37:19.000Z</time>
      </trkpt>
      <trkpt lat="41.789983" lon="22.973693">
        <ele>1740.2</ele>
        <time>2026-05-06T13:37:20.000Z</time>
      </trkpt>
      <trkpt lat="41.789988" lon="22.973707">
        <ele>1740.2</ele>
        <time>2026-05-06T13:37:21.000Z</time>
      </trkpt>
      <trkpt lat="41.789991" lon="22.97372">
        <ele>1740.2</ele>
        <time>2026-05-06T13:37:22.000Z</time>
      </trkpt>
      <trkpt lat="41.789995" lon="22.973734">
        <ele>1739.2</ele>
        <time>2026-05-06T13:37:23.000Z</time>
      </trkpt>
      <trkpt lat="41.789998" lon="22.973748">
        <ele>1739.2</ele>
        <time>2026-05-06T13:37:24.000Z</time>
      </trkpt>
      <trkpt lat="41.790002" lon="22.973762">
        <ele>1739.2</ele>
        <time>2026-05-06T13:37:25.000Z</time>
      </trkpt>
      <trkpt lat="41.790006" lon="22.973774">
        <ele>1739.2</ele>
        <time>2026-05-06T13:37:26.000Z</time>
      </trkpt>
      <trkpt lat="41.790012" lon="22.973785">
        <ele>1739.2</ele>
        <time>2026-05-06T13:37:27.000Z</time>
      </trkpt>
      <trkpt lat="41.790017" lon="22.973795">
        <ele>1738.6</ele>
        <time>2026-05-06T13:37:28.000Z</time>
      </trkpt>
      <trkpt lat="41.790022" lon="22.973804">
        <ele>1738.6</ele>
        <time>2026-05-06T13:37:29.000Z</time>
      </trkpt>
      <trkpt lat="41.790026" lon="22.973813">
        <ele>1738.6</ele>
        <time>2026-05-06T13:37:30.000Z</time>
      </trkpt>
      <trkpt lat="41.790029" lon="22.973824">
        <ele>1738.6</ele>
        <time>2026-05-06T13:37:31.000Z</time>
      </trkpt>
      <trkpt lat="41.79003" lon="22.973836">
        <ele>1738.6</ele>
        <time>2026-05-06T13:37:32.000Z</time>
      </trkpt>
      <trkpt lat="41.790031" lon="22.973849">
        <ele>1737.3</ele>
        <time>2026-05-06T13:37:33.000Z</time>
      </trkpt>
      <trkpt lat="41.79003" lon="22.973863">
        <ele>1737.3</ele>
        <time>2026-05-06T13:37:34.000Z</time>
      </trkpt>
      <trkpt lat="41.79003" lon="22.973875">
        <ele>1737.3</ele>
        <time>2026-05-06T13:37:35.000Z</time>
      </trkpt>
      <trkpt lat="41.790029" lon="22.973887">
        <ele>1737.3</ele>
        <time>2026-05-06T13:37:36.000Z</time>
      </trkpt>
      <trkpt lat="41.790028" lon="22.9739">
        <ele>1737.3</ele>
        <time>2026-05-06T13:37:37.000Z</time>
      </trkpt>
      <trkpt lat="41.790028" lon="22.973911">
        <ele>1735.7</ele>
        <time>2026-05-06T13:37:38.000Z</time>
      </trkpt>
      <trkpt lat="41.790029" lon="22.973923">
        <ele>1735.7</ele>
        <time>2026-05-06T13:37:39.000Z</time>
      </trkpt>
      <trkpt lat="41.79003" lon="22.973935">
        <ele>1735.7</ele>
        <time>2026-05-06T13:37:40.000Z</time>
      </trkpt>
      <trkpt lat="41.790031" lon="22.973948">
        <ele>1735.7</ele>
        <time>2026-05-06T13:37:41.000Z</time>
      </trkpt>
      <trkpt lat="41.790032" lon="22.97396">
        <ele>1735.7</ele>
        <time>2026-05-06T13:37:42.000Z</time>
      </trkpt>
      <trkpt lat="41.790032" lon="22.973974">
        <ele>1734.8</ele>
        <time>2026-05-06T13:37:43.000Z</time>
      </trkpt>
      <trkpt lat="41.790033" lon="22.973989">
        <ele>1734.8</ele>
        <time>2026-05-06T13:37:44.000Z</time>
      </trkpt>
      <trkpt lat="41.790032" lon="22.974005">
        <ele>1734.8</ele>
        <time>2026-05-06T13:37:45.000Z</time>
      </trkpt>
      <trkpt lat="41.790033" lon="22.974023">
        <ele>1734.8</ele>
        <time>2026-05-06T13:37:46.000Z</time>
      </trkpt>
      <trkpt lat="41.790035" lon="22.97404">
        <ele>1734.8</ele>
        <time>2026-05-06T13:37:47.000Z</time>
      </trkpt>
      <trkpt lat="41.790037" lon="22.974057">
        <ele>1733</ele>
        <time>2026-05-06T13:37:48.000Z</time>
      </trkpt>
      <trkpt lat="41.790041" lon="22.974075">
        <ele>1733</ele>
        <time>2026-05-06T13:37:49.000Z</time>
      </trkpt>
      <trkpt lat="41.790045" lon="22.974092">
        <ele>1733</ele>
        <time>2026-05-06T13:37:50.000Z</time>
      </trkpt>
      <trkpt lat="41.79005" lon="22.974109">
        <ele>1733</ele>
        <time>2026-05-06T13:37:51.000Z</time>
      </trkpt>
      <trkpt lat="41.790056" lon="22.974125">
        <ele>1733</ele>
        <time>2026-05-06T13:37:52.000Z</time>
      </trkpt>
      <trkpt lat="41.790061" lon="22.974141">
        <ele>1731.2</ele>
        <time>2026-05-06T13:37:53.000Z</time>
      </trkpt>
      <trkpt lat="41.790066" lon="22.974156">
        <ele>1731.2</ele>
        <time>2026-05-06T13:37:54.000Z</time>
      </trkpt>
      <trkpt lat="41.790071" lon="22.974171">
        <ele>1731.2</ele>
        <time>2026-05-06T13:37:55.000Z</time>
      </trkpt>
      <trkpt lat="41.790075" lon="22.974185">
        <ele>1731.2</ele>
        <time>2026-05-06T13:37:56.000Z</time>
      </trkpt>
      <trkpt lat="41.790077" lon="22.9742">
        <ele>1731.2</ele>
        <time>2026-05-06T13:37:57.000Z</time>
      </trkpt>
      <trkpt lat="41.79008" lon="22.974213">
        <ele>1730.3</ele>
        <time>2026-05-06T13:37:58.000Z</time>
      </trkpt>
      <trkpt lat="41.790083" lon="22.974227">
        <ele>1730.3</ele>
        <time>2026-05-06T13:37:59.000Z</time>
      </trkpt>
      <trkpt lat="41.790086" lon="22.974241">
        <ele>1730.3</ele>
        <time>2026-05-06T13:38:00.000Z</time>
      </trkpt>
      <trkpt lat="41.79009" lon="22.974254">
        <ele>1730.3</ele>
        <time>2026-05-06T13:38:01.000Z</time>
      </trkpt>
      <trkpt lat="41.790094" lon="22.974268">
        <ele>1730.3</ele>
        <time>2026-05-06T13:38:02.000Z</time>
      </trkpt>
      <trkpt lat="41.790098" lon="22.974282">
        <ele>1728.8</ele>
        <time>2026-05-06T13:38:03.000Z</time>
      </trkpt>
      <trkpt lat="41.790101" lon="22.974296">
        <ele>1728.8</ele>
        <time>2026-05-06T13:38:04.000Z</time>
      </trkpt>
      <trkpt lat="41.790103" lon="22.97431">
        <ele>1728.8</ele>
        <time>2026-05-06T13:38:05.000Z</time>
      </trkpt>
      <trkpt lat="41.790104" lon="22.974324">
        <ele>1728.8</ele>
        <time>2026-05-06T13:38:06.000Z</time>
      </trkpt>
      <trkpt lat="41.790105" lon="22.974339">
        <ele>1728.8</ele>
        <time>2026-05-06T13:38:07.000Z</time>
      </trkpt>
      <trkpt lat="41.790105" lon="22.974353">
        <ele>1727.3</ele>
        <time>2026-05-06T13:38:08.000Z</time>
      </trkpt>
      <trkpt lat="41.790105" lon="22.974368">
        <ele>1727.3</ele>
        <time>2026-05-06T13:38:09.000Z</time>
      </trkpt>
      <trkpt lat="41.790105" lon="22.974383">
        <ele>1727.3</ele>
        <time>2026-05-06T13:38:10.000Z</time>
      </trkpt>
      <trkpt lat="41.790107" lon="22.974399">
        <ele>1727.3</ele>
        <time>2026-05-06T13:38:11.000Z</time>
      </trkpt>
      <trkpt lat="41.790108" lon="22.974414">
        <ele>1727.3</ele>
        <time>2026-05-06T13:38:12.000Z</time>
      </trkpt>
      <trkpt lat="41.790111" lon="22.974428">
        <ele>1726.5</ele>
        <time>2026-05-06T13:38:13.000Z</time>
      </trkpt>
      <trkpt lat="41.790115" lon="22.974442">
        <ele>1726.5</ele>
        <time>2026-05-06T13:38:14.000Z</time>
      </trkpt>
      <trkpt lat="41.790119" lon="22.974456">
        <ele>1726.5</ele>
        <time>2026-05-06T13:38:15.000Z</time>
      </trkpt>
      <trkpt lat="41.790121" lon="22.974469">
        <ele>1726.5</ele>
        <time>2026-05-06T13:38:16.000Z</time>
      </trkpt>
      <trkpt lat="41.790124" lon="22.974483">
        <ele>1726.5</ele>
        <time>2026-05-06T13:38:17.000Z</time>
      </trkpt>
      <trkpt lat="41.790126" lon="22.974496">
        <ele>1724.8</ele>
        <time>2026-05-06T13:38:18.000Z</time>
      </trkpt>
      <trkpt lat="41.790129" lon="22.974511">
        <ele>1724.8</ele>
        <time>2026-05-06T13:38:19.000Z</time>
      </trkpt>
      <trkpt lat="41.790134" lon="22.974525">
        <ele>1724.8</ele>
        <time>2026-05-06T13:38:20.000Z</time>
      </trkpt>
      <trkpt lat="41.79014" lon="22.974539">
        <ele>1724.8</ele>
        <time>2026-05-06T13:38:21.000Z</time>
      </trkpt>
      <trkpt lat="41.790144" lon="22.97455">
        <ele>1724.8</ele>
        <time>2026-05-06T13:38:22.000Z</time>
      </trkpt>
      <trkpt lat="41.790148" lon="22.974557">
        <ele>1723.3</ele>
        <time>2026-05-06T13:38:23.000Z</time>
      </trkpt>
      <trkpt lat="41.79015" lon="22.974563">
        <ele>1723.3</ele>
        <time>2026-05-06T13:38:24.000Z</time>
      </trkpt>
      <trkpt lat="41.790152" lon="22.974565">
        <ele>1723.3</ele>
        <time>2026-05-06T13:38:25.000Z</time>
      </trkpt>
      <trkpt lat="41.790152" lon="22.974565">
        <ele>1723.3</ele>
        <time>2026-05-06T13:38:26.000Z</time>
      </trkpt>
      <trkpt lat="41.790153" lon="22.974565">
        <ele>1723.3</ele>
        <time>2026-05-06T13:38:27.000Z</time>
      </trkpt>
      <trkpt lat="41.790153" lon="22.974566">
        <ele>1722.5</ele>
        <time>2026-05-06T13:38:28.000Z</time>
      </trkpt>
      <trkpt lat="41.790154" lon="22.974566">
        <ele>1722.5</ele>
        <time>2026-05-06T13:38:29.000Z</time>
      </trkpt>
      <trkpt lat="41.790154" lon="22.974567">
        <ele>1722.5</ele>
        <time>2026-05-06T13:38:30.000Z</time>
      </trkpt>
      <trkpt lat="41.790155" lon="22.974567">
        <ele>1722.5</ele>
        <time>2026-05-06T13:38:31.000Z</time>
      </trkpt>
      <trkpt lat="41.790155" lon="22.974569">
        <ele>1722.5</ele>
        <time>2026-05-06T13:38:32.000Z</time>
      </trkpt>
      <trkpt lat="41.790157" lon="22.974572">
        <ele>1721.3</ele>
        <time>2026-05-06T13:38:33.000Z</time>
      </trkpt>
      <trkpt lat="41.790159" lon="22.974576">
        <ele>1721.3</ele>
        <time>2026-05-06T13:38:34.000Z</time>
      </trkpt>
      <trkpt lat="41.790162" lon="22.974581">
        <ele>1721.3</ele>
        <time>2026-05-06T13:38:35.000Z</time>
      </trkpt>
      <trkpt lat="41.790165" lon="22.97459">
        <ele>1721.3</ele>
        <time>2026-05-06T13:38:36.000Z</time>
      </trkpt>
      <trkpt lat="41.790169" lon="22.974599">
        <ele>1721.3</ele>
        <time>2026-05-06T13:38:37.000Z</time>
      </trkpt>
      <trkpt lat="41.790171" lon="22.974609">
        <ele>1720.4</ele>
        <time>2026-05-06T13:38:38.000Z</time>
      </trkpt>
      <trkpt lat="41.790175" lon="22.97462">
        <ele>1720.4</ele>
        <time>2026-05-06T13:38:39.000Z</time>
      </trkpt>
      <trkpt lat="41.79018" lon="22.974633">
        <ele>1720.4</ele>
        <time>2026-05-06T13:38:40.000Z</time>
      </trkpt>
      <trkpt lat="41.790185" lon="22.974645">
        <ele>1720.4</ele>
        <time>2026-05-06T13:38:41.000Z</time>
      </trkpt>
      <trkpt lat="41.790191" lon="22.974658">
        <ele>1720.4</ele>
        <time>2026-05-06T13:38:42.000Z</time>
      </trkpt>
      <trkpt lat="41.790198" lon="22.974671">
        <ele>1720.1</ele>
        <time>2026-05-06T13:38:43.000Z</time>
      </trkpt>
      <trkpt lat="41.790205" lon="22.974685">
        <ele>1720.1</ele>
        <time>2026-05-06T13:38:44.000Z</time>
      </trkpt>
      <trkpt lat="41.79021" lon="22.974698">
        <ele>1720.1</ele>
        <time>2026-05-06T13:38:45.000Z</time>
      </trkpt>
      <trkpt lat="41.790216" lon="22.974713">
        <ele>1720.1</ele>
        <time>2026-05-06T13:38:46.000Z</time>
      </trkpt>
      <trkpt lat="41.790222" lon="22.974728">
        <ele>1720.1</ele>
        <time>2026-05-06T13:38:47.000Z</time>
      </trkpt>
      <trkpt lat="41.790228" lon="22.974745">
        <ele>1719.2</ele>
        <time>2026-05-06T13:38:48.000Z</time>
      </trkpt>
      <trkpt lat="41.790235" lon="22.974761">
        <ele>1719.2</ele>
        <time>2026-05-06T13:38:49.000Z</time>
      </trkpt>
      <trkpt lat="41.790242" lon="22.974777">
        <ele>1719.2</ele>
        <time>2026-05-06T13:38:50.000Z</time>
      </trkpt>
      <trkpt lat="41.79025" lon="22.974792">
        <ele>1719.2</ele>
        <time>2026-05-06T13:38:51.000Z</time>
      </trkpt>
      <trkpt lat="41.790257" lon="22.974807">
        <ele>1719.2</ele>
        <time>2026-05-06T13:38:52.000Z</time>
      </trkpt>
      <trkpt lat="41.790264" lon="22.974822">
        <ele>1717.4</ele>
        <time>2026-05-06T13:38:53.000Z</time>
      </trkpt>
      <trkpt lat="41.790271" lon="22.974837">
        <ele>1717.4</ele>
        <time>2026-05-06T13:38:54.000Z</time>
      </trkpt>
      <trkpt lat="41.790277" lon="22.974851">
        <ele>1717.4</ele>
        <time>2026-05-06T13:38:55.000Z</time>
      </trkpt>
      <trkpt lat="41.790282" lon="22.974865">
        <ele>1717.4</ele>
        <time>2026-05-06T13:38:56.000Z</time>
      </trkpt>
      <trkpt lat="41.790288" lon="22.974878">
        <ele>1717.4</ele>
        <time>2026-05-06T13:38:57.000Z</time>
      </trkpt>
      <trkpt lat="41.790293" lon="22.974889">
        <ele>1716.3</ele>
        <time>2026-05-06T13:38:58.000Z</time>
      </trkpt>
      <trkpt lat="41.790298" lon="22.974899">
        <ele>1716.3</ele>
        <time>2026-05-06T13:38:59.000Z</time>
      </trkpt>
      <trkpt lat="41.790303" lon="22.974908">
        <ele>1716.3</ele>
        <time>2026-05-06T13:39:00.000Z</time>
      </trkpt>
      <trkpt lat="41.790308" lon="22.974915">
        <ele>1716.3</ele>
        <time>2026-05-06T13:39:01.000Z</time>
      </trkpt>
      <trkpt lat="41.790312" lon="22.974922">
        <ele>1716.3</ele>
        <time>2026-05-06T13:39:02.000Z</time>
      </trkpt>
      <trkpt lat="41.790317" lon="22.974931">
        <ele>1714.1</ele>
        <time>2026-05-06T13:39:03.000Z</time>
      </trkpt>
      <trkpt lat="41.790322" lon="22.974941">
        <ele>1714.1</ele>
        <time>2026-05-06T13:39:04.000Z</time>
      </trkpt>
      <trkpt lat="41.790326" lon="22.974952">
        <ele>1714.1</ele>
        <time>2026-05-06T13:39:05.000Z</time>
      </trkpt>
      <trkpt lat="41.790331" lon="22.974964">
        <ele>1714.1</ele>
        <time>2026-05-06T13:39:06.000Z</time>
      </trkpt>
      <trkpt lat="41.790337" lon="22.974977">
        <ele>1714.1</ele>
        <time>2026-05-06T13:39:07.000Z</time>
      </trkpt>
      <trkpt lat="41.790343" lon="22.974991">
        <ele>1712.3</ele>
        <time>2026-05-06T13:39:08.000Z</time>
      </trkpt>
      <trkpt lat="41.790348" lon="22.975003">
        <ele>1712.3</ele>
        <time>2026-05-06T13:39:09.000Z</time>
      </trkpt>
      <trkpt lat="41.790352" lon="22.975017">
        <ele>1712.3</ele>
        <time>2026-05-06T13:39:10.000Z</time>
      </trkpt>
      <trkpt lat="41.790357" lon="22.97503">
        <ele>1712.3</ele>
        <time>2026-05-06T13:39:11.000Z</time>
      </trkpt>
      <trkpt lat="41.790361" lon="22.975042">
        <ele>1712.3</ele>
        <time>2026-05-06T13:39:12.000Z</time>
      </trkpt>
      <trkpt lat="41.790366" lon="22.975054">
        <ele>1711.4</ele>
        <time>2026-05-06T13:39:13.000Z</time>
      </trkpt>
      <trkpt lat="41.790371" lon="22.975067">
        <ele>1711.4</ele>
        <time>2026-05-06T13:39:14.000Z</time>
      </trkpt>
      <trkpt lat="41.790375" lon="22.975078">
        <ele>1711.4</ele>
        <time>2026-05-06T13:39:15.000Z</time>
      </trkpt>
      <trkpt lat="41.790378" lon="22.975089">
        <ele>1711.4</ele>
        <time>2026-05-06T13:39:16.000Z</time>
      </trkpt>
      <trkpt lat="41.790379" lon="22.9751">
        <ele>1711.4</ele>
        <time>2026-05-06T13:39:17.000Z</time>
      </trkpt>
      <trkpt lat="41.790381" lon="22.975111">
        <ele>1709.8</ele>
        <time>2026-05-06T13:39:18.000Z</time>
      </trkpt>
      <trkpt lat="41.790382" lon="22.975122">
        <ele>1709.8</ele>
        <time>2026-05-06T13:39:19.000Z</time>
      </trkpt>
      <trkpt lat="41.790382" lon="22.975133">
        <ele>1709.8</ele>
        <time>2026-05-06T13:39:20.000Z</time>
      </trkpt>
      <trkpt lat="41.790384" lon="22.975145">
        <ele>1709.8</ele>
        <time>2026-05-06T13:39:21.000Z</time>
      </trkpt>
      <trkpt lat="41.790387" lon="22.975157">
        <ele>1709.8</ele>
        <time>2026-05-06T13:39:22.000Z</time>
      </trkpt>
      <trkpt lat="41.79039" lon="22.975168">
        <ele>1708.3</ele>
        <time>2026-05-06T13:39:23.000Z</time>
      </trkpt>
      <trkpt lat="41.790394" lon="22.975178">
        <ele>1708.3</ele>
        <time>2026-05-06T13:39:24.000Z</time>
      </trkpt>
      <trkpt lat="41.7904" lon="22.975188">
        <ele>1708.3</ele>
        <time>2026-05-06T13:39:25.000Z</time>
      </trkpt>
      <trkpt lat="41.790408" lon="22.975198">
        <ele>1708.3</ele>
        <time>2026-05-06T13:39:26.000Z</time>
      </trkpt>
      <trkpt lat="41.790417" lon="22.975207">
        <ele>1708.3</ele>
        <time>2026-05-06T13:39:27.000Z</time>
      </trkpt>
      <trkpt lat="41.790427" lon="22.975215">
        <ele>1707.6</ele>
        <time>2026-05-06T13:39:28.000Z</time>
      </trkpt>
      <trkpt lat="41.790437" lon="22.975225">
        <ele>1707.6</ele>
        <time>2026-05-06T13:39:29.000Z</time>
      </trkpt>
      <trkpt lat="41.790446" lon="22.975235">
        <ele>1707.6</ele>
        <time>2026-05-06T13:39:30.000Z</time>
      </trkpt>
      <trkpt lat="41.790454" lon="22.975245">
        <ele>1707.6</ele>
        <time>2026-05-06T13:39:31.000Z</time>
      </trkpt>
      <trkpt lat="41.790463" lon="22.975255">
        <ele>1707.6</ele>
        <time>2026-05-06T13:39:32.000Z</time>
      </trkpt>
      <trkpt lat="41.790472" lon="22.975269">
        <ele>1706</ele>
        <time>2026-05-06T13:39:33.000Z</time>
      </trkpt>
      <trkpt lat="41.790479" lon="22.975282">
        <ele>1706</ele>
        <time>2026-05-06T13:39:34.000Z</time>
      </trkpt>
      <trkpt lat="41.790486" lon="22.975296">
        <ele>1706</ele>
        <time>2026-05-06T13:39:35.000Z</time>
      </trkpt>
      <trkpt lat="41.790492" lon="22.97531">
        <ele>1706</ele>
        <time>2026-05-06T13:39:36.000Z</time>
      </trkpt>
      <trkpt lat="41.790495" lon="22.975323">
        <ele>1706</ele>
        <time>2026-05-06T13:39:37.000Z</time>
      </trkpt>
      <trkpt lat="41.790498" lon="22.975336">
        <ele>1703.9</ele>
        <time>2026-05-06T13:39:38.000Z</time>
      </trkpt>
      <trkpt lat="41.7905" lon="22.975347">
        <ele>1703.9</ele>
        <time>2026-05-06T13:39:39.000Z</time>
      </trkpt>
      <trkpt lat="41.790503" lon="22.975358">
        <ele>1703.9</ele>
        <time>2026-05-06T13:39:40.000Z</time>
      </trkpt>
      <trkpt lat="41.790506" lon="22.975369">
        <ele>1703.9</ele>
        <time>2026-05-06T13:39:41.000Z</time>
      </trkpt>
      <trkpt lat="41.79051" lon="22.97538">
        <ele>1703.9</ele>
        <time>2026-05-06T13:39:42.000Z</time>
      </trkpt>
      <trkpt lat="41.790516" lon="22.97539">
        <ele>1702.8</ele>
        <time>2026-05-06T13:39:43.000Z</time>
      </trkpt>
      <trkpt lat="41.790523" lon="22.975401">
        <ele>1702.8</ele>
        <time>2026-05-06T13:39:44.000Z</time>
      </trkpt>
      <trkpt lat="41.790532" lon="22.975412">
        <ele>1702.8</ele>
        <time>2026-05-06T13:39:45.000Z</time>
      </trkpt>
      <trkpt lat="41.790541" lon="22.975423">
        <ele>1702.8</ele>
        <time>2026-05-06T13:39:46.000Z</time>
      </trkpt>
      <trkpt lat="41.790548" lon="22.975435">
        <ele>1702.8</ele>
        <time>2026-05-06T13:39:47.000Z</time>
      </trkpt>
      <trkpt lat="41.790553" lon="22.975447">
        <ele>1700.8</ele>
        <time>2026-05-06T13:39:48.000Z</time>
      </trkpt>
      <trkpt lat="41.790557" lon="22.975459">
        <ele>1700.8</ele>
        <time>2026-05-06T13:39:49.000Z</time>
      </trkpt>
      <trkpt lat="41.790558" lon="22.975472">
        <ele>1700.8</ele>
        <time>2026-05-06T13:39:50.000Z</time>
      </trkpt>
      <trkpt lat="41.790559" lon="22.975484">
        <ele>1700.8</ele>
        <time>2026-05-06T13:39:51.000Z</time>
      </trkpt>
      <trkpt lat="41.790561" lon="22.975497">
        <ele>1700.8</ele>
        <time>2026-05-06T13:39:52.000Z</time>
      </trkpt>
      <trkpt lat="41.790566" lon="22.97551">
        <ele>1699.1</ele>
        <time>2026-05-06T13:39:53.000Z</time>
      </trkpt>
      <trkpt lat="41.790572" lon="22.975522">
        <ele>1699.1</ele>
        <time>2026-05-06T13:39:54.000Z</time>
      </trkpt>
      <trkpt lat="41.790579" lon="22.975533">
        <ele>1699.1</ele>
        <time>2026-05-06T13:39:55.000Z</time>
      </trkpt>
      <trkpt lat="41.790586" lon="22.975543">
        <ele>1699.1</ele>
        <time>2026-05-06T13:39:56.000Z</time>
      </trkpt>
      <trkpt lat="41.790593" lon="22.975552">
        <ele>1699.1</ele>
        <time>2026-05-06T13:39:57.000Z</time>
      </trkpt>
      <trkpt lat="41.790597" lon="22.975562">
        <ele>1698.3</ele>
        <time>2026-05-06T13:39:58.000Z</time>
      </trkpt>
      <trkpt lat="41.790602" lon="22.975569">
        <ele>1698.3</ele>
        <time>2026-05-06T13:39:59.000Z</time>
      </trkpt>
      <trkpt lat="41.790607" lon="22.975576">
        <ele>1698.3</ele>
        <time>2026-05-06T13:40:00.000Z</time>
      </trkpt>
      <trkpt lat="41.790612" lon="22.975585">
        <ele>1698.3</ele>
        <time>2026-05-06T13:40:01.000Z</time>
      </trkpt>
      <trkpt lat="41.790615" lon="22.975592">
        <ele>1698.3</ele>
        <time>2026-05-06T13:40:02.000Z</time>
      </trkpt>
      <trkpt lat="41.790619" lon="22.975597">
        <ele>1696.9</ele>
        <time>2026-05-06T13:40:03.000Z</time>
      </trkpt>
      <trkpt lat="41.79062" lon="22.975601">
        <ele>1696.9</ele>
        <time>2026-05-06T13:40:04.000Z</time>
      </trkpt>
      <trkpt lat="41.79062" lon="22.975603">
        <ele>1696.9</ele>
        <time>2026-05-06T13:40:05.000Z</time>
      </trkpt>
      <trkpt lat="41.790621" lon="22.975604">
        <ele>1696.9</ele>
        <time>2026-05-06T13:40:06.000Z</time>
      </trkpt>
      <trkpt lat="41.790622" lon="22.975604">
        <ele>1696.9</ele>
        <time>2026-05-06T13:40:07.000Z</time>
      </trkpt>
      <trkpt lat="41.790622" lon="22.975605">
        <ele>1695.7</ele>
        <time>2026-05-06T13:40:08.000Z</time>
      </trkpt>
      <trkpt lat="41.790623" lon="22.975607">
        <ele>1695.7</ele>
        <time>2026-05-06T13:40:09.000Z</time>
      </trkpt>
      <trkpt lat="41.790622" lon="22.975608">
        <ele>1695.7</ele>
        <time>2026-05-06T13:40:10.000Z</time>
      </trkpt>
      <trkpt lat="41.790621" lon="22.975608">
        <ele>1695.7</ele>
        <time>2026-05-06T13:40:11.000Z</time>
      </trkpt>
      <trkpt lat="41.79062" lon="22.975608">
        <ele>1695.7</ele>
        <time>2026-05-06T13:40:12.000Z</time>
      </trkpt>
      <trkpt lat="41.790621" lon="22.97561">
        <ele>1695.2</ele>
        <time>2026-05-06T13:40:13.000Z</time>
      </trkpt>
      <trkpt lat="41.790622" lon="22.975612">
        <ele>1695.2</ele>
        <time>2026-05-06T13:40:14.000Z</time>
      </trkpt>
      <trkpt lat="41.790625" lon="22.975616">
        <ele>1695.2</ele>
        <time>2026-05-06T13:40:15.000Z</time>
      </trkpt>
      <trkpt lat="41.79063" lon="22.97562">
        <ele>1695.2</ele>
        <time>2026-05-06T13:40:16.000Z</time>
      </trkpt>
      <trkpt lat="41.790636" lon="22.975624">
        <ele>1695.2</ele>
        <time>2026-05-06T13:40:17.000Z</time>
      </trkpt>
      <trkpt lat="41.790641" lon="22.975627">
        <ele>1694.5</ele>
        <time>2026-05-06T13:40:18.000Z</time>
      </trkpt>
      <trkpt lat="41.790645" lon="22.975629">
        <ele>1694.5</ele>
        <time>2026-05-06T13:40:19.000Z</time>
      </trkpt>
      <trkpt lat="41.790647" lon="22.975631">
        <ele>1694.5</ele>
        <time>2026-05-06T13:40:20.000Z</time>
      </trkpt>
      <trkpt lat="41.790648" lon="22.975632">
        <ele>1694.5</ele>
        <time>2026-05-06T13:40:21.000Z</time>
      </trkpt>
      <trkpt lat="41.790647" lon="22.975633">
        <ele>1694.5</ele>
        <time>2026-05-06T13:40:22.000Z</time>
      </trkpt>
      <trkpt lat="41.790646" lon="22.975634">
        <ele>1694.1</ele>
        <time>2026-05-06T13:40:23.000Z</time>
      </trkpt>
      <trkpt lat="41.790646" lon="22.975634">
        <ele>1694.1</ele>
        <time>2026-05-06T13:40:24.000Z</time>
      </trkpt>
      <trkpt lat="41.790646" lon="22.975635">
        <ele>1694.1</ele>
        <time>2026-05-06T13:40:25.000Z</time>
      </trkpt>
      <trkpt lat="41.790646" lon="22.975635">
        <ele>1694.1</ele>
        <time>2026-05-06T13:40:26.000Z</time>
      </trkpt>
      <trkpt lat="41.790646" lon="22.975635">
        <ele>1694.1</ele>
        <time>2026-05-06T13:40:27.000Z</time>
      </trkpt>
      <trkpt lat="41.790646" lon="22.975635">
        <ele>1693.8</ele>
        <time>2026-05-06T13:40:28.000Z</time>
      </trkpt>
      <trkpt lat="41.790646" lon="22.975635">
        <ele>1693.8</ele>
        <time>2026-05-06T13:40:29.000Z</time>
      </trkpt>
      <trkpt lat="41.790646" lon="22.975635">
        <ele>1693.8</ele>
        <time>2026-05-06T13:40:30.000Z</time>
      </trkpt>
      <trkpt lat="41.790645" lon="22.975636">
        <ele>1693.8</ele>
        <time>2026-05-06T13:40:31.000Z</time>
      </trkpt>
      <trkpt lat="41.790645" lon="22.975637">
        <ele>1693.8</ele>
        <time>2026-05-06T13:40:32.000Z</time>
      </trkpt>
      <trkpt lat="41.790645" lon="22.975639">
        <ele>1693.3</ele>
        <time>2026-05-06T13:40:33.000Z</time>
      </trkpt>
      <trkpt lat="41.790645" lon="22.975643">
        <ele>1693.3</ele>
        <time>2026-05-06T13:40:34.000Z</time>
      </trkpt>
      <trkpt lat="41.790648" lon="22.975648">
        <ele>1693.3</ele>
        <time>2026-05-06T13:40:35.000Z</time>
      </trkpt>
      <trkpt lat="41.79065" lon="22.975654">
        <ele>1693.3</ele>
        <time>2026-05-06T13:40:36.000Z</time>
      </trkpt>
      <trkpt lat="41.790653" lon="22.975663">
        <ele>1693.3</ele>
        <time>2026-05-06T13:40:37.000Z</time>
      </trkpt>
      <trkpt lat="41.790657" lon="22.975672">
        <ele>1692.8</ele>
        <time>2026-05-06T13:40:38.000Z</time>
      </trkpt>
      <trkpt lat="41.79066" lon="22.975679">
        <ele>1692.8</ele>
        <time>2026-05-06T13:40:39.000Z</time>
      </trkpt>
      <trkpt lat="41.79066" lon="22.975685">
        <ele>1692.8</ele>
        <time>2026-05-06T13:40:40.000Z</time>
      </trkpt>
      <trkpt lat="41.79066" lon="22.975692">
        <ele>1692.8</ele>
        <time>2026-05-06T13:40:41.000Z</time>
      </trkpt>
      <trkpt lat="41.79066" lon="22.975695">
        <ele>1692.8</ele>
        <time>2026-05-06T13:40:42.000Z</time>
      </trkpt>
      <trkpt lat="41.790658" lon="22.975699">
        <ele>1692.6</ele>
        <time>2026-05-06T13:40:43.000Z</time>
      </trkpt>
      <trkpt lat="41.790658" lon="22.975702">
        <ele>1692.6</ele>
        <time>2026-05-06T13:40:44.000Z</time>
      </trkpt>
      <trkpt lat="41.790659" lon="22.975705">
        <ele>1692.6</ele>
        <time>2026-05-06T13:40:45.000Z</time>
      </trkpt>
      <trkpt lat="41.790662" lon="22.975708">
        <ele>1692.6</ele>
        <time>2026-05-06T13:40:46.000Z</time>
      </trkpt>
      <trkpt lat="41.790664" lon="22.975712">
        <ele>1692.6</ele>
        <time>2026-05-06T13:40:47.000Z</time>
      </trkpt>
      <trkpt lat="41.790665" lon="22.975715">
        <ele>1691.9</ele>
        <time>2026-05-06T13:40:48.000Z</time>
      </trkpt>
      <trkpt lat="41.790665" lon="22.975718">
        <ele>1691.9</ele>
        <time>2026-05-06T13:40:49.000Z</time>
      </trkpt>
      <trkpt lat="41.790665" lon="22.975721">
        <ele>1691.9</ele>
        <time>2026-05-06T13:40:50.000Z</time>
      </trkpt>
      <trkpt lat="41.790663" lon="22.975722">
        <ele>1691.9</ele>
        <time>2026-05-06T13:40:51.000Z</time>
      </trkpt>
      <trkpt lat="41.790661" lon="22.975722">
        <ele>1691.9</ele>
        <time>2026-05-06T13:40:52.000Z</time>
      </trkpt>
      <trkpt lat="41.79066" lon="22.975722">
        <ele>1691.1</ele>
        <time>2026-05-06T13:40:53.000Z</time>
      </trkpt>
      <trkpt lat="41.790659" lon="22.975723">
        <ele>1691.1</ele>
        <time>2026-05-06T13:40:54.000Z</time>
      </trkpt>
      <trkpt lat="41.790658" lon="22.975723">
        <ele>1691.1</ele>
        <time>2026-05-06T13:40:55.000Z</time>
      </trkpt>
      <trkpt lat="41.790657" lon="22.975723">
        <ele>1691.1</ele>
        <time>2026-05-06T13:40:56.000Z</time>
      </trkpt>
      <trkpt lat="41.790657" lon="22.975725">
        <ele>1691.1</ele>
        <time>2026-05-06T13:40:57.000Z</time>
      </trkpt>
      <trkpt lat="41.790656" lon="22.975726">
        <ele>1690.8</ele>
        <time>2026-05-06T13:40:58.000Z</time>
      </trkpt>
      <trkpt lat="41.790656" lon="22.975729">
        <ele>1690.8</ele>
        <time>2026-05-06T13:40:59.000Z</time>
      </trkpt>
      <trkpt lat="41.790656" lon="22.975731">
        <ele>1690.8</ele>
        <time>2026-05-06T13:41:00.000Z</time>
      </trkpt>
      <trkpt lat="41.790657" lon="22.975733">
        <ele>1690.8</ele>
        <time>2026-05-06T13:41:01.000Z</time>
      </trkpt>
      <trkpt lat="41.790657" lon="22.975736">
        <ele>1690.8</ele>
        <time>2026-05-06T13:41:02.000Z</time>
      </trkpt>
      <trkpt lat="41.790656" lon="22.97574">
        <ele>1690</ele>
        <time>2026-05-06T13:41:03.000Z</time>
      </trkpt>
      <trkpt lat="41.790653" lon="22.975744">
        <ele>1690</ele>
        <time>2026-05-06T13:41:04.000Z</time>
      </trkpt>
      <trkpt lat="41.79065" lon="22.975747">
        <ele>1690</ele>
        <time>2026-05-06T13:41:05.000Z</time>
      </trkpt>
      <trkpt lat="41.790646" lon="22.975751">
        <ele>1690</ele>
        <time>2026-05-06T13:41:06.000Z</time>
      </trkpt>
      <trkpt lat="41.790642" lon="22.975755">
        <ele>1690</ele>
        <time>2026-05-06T13:41:07.000Z</time>
      </trkpt>
      <trkpt lat="41.79064" lon="22.975756">
        <ele>1689.3</ele>
        <time>2026-05-06T13:41:08.000Z</time>
      </trkpt>
      <trkpt lat="41.79064" lon="22.975756">
        <ele>1689.3</ele>
        <time>2026-05-06T13:41:09.000Z</time>
      </trkpt>
      <trkpt lat="41.79064" lon="22.975757">
        <ele>1689.3</ele>
        <time>2026-05-06T13:41:10.000Z</time>
      </trkpt>
      <trkpt lat="41.79064" lon="22.975757">
        <ele>1689.3</ele>
        <time>2026-05-06T13:41:11.000Z</time>
      </trkpt>
      <trkpt lat="41.79064" lon="22.975757">
        <ele>1689.3</ele>
        <time>2026-05-06T13:41:12.000Z</time>
      </trkpt>
      <trkpt lat="41.79064" lon="22.975757">
        <ele>1688.9</ele>
        <time>2026-05-06T13:41:13.000Z</time>
      </trkpt>
      <trkpt lat="41.79064" lon="22.975757">
        <ele>1688.9</ele>
        <time>2026-05-06T13:41:14.000Z</time>
      </trkpt>
      <trkpt lat="41.79064" lon="22.975757">
        <ele>1688.9</ele>
        <time>2026-05-06T13:41:15.000Z</time>
      </trkpt>
      <trkpt lat="41.790641" lon="22.975757">
        <ele>1688.9</ele>
        <time>2026-05-06T13:41:16.000Z</time>
      </trkpt>
      <trkpt lat="41.790642" lon="22.975758">
        <ele>1688.9</ele>
        <time>2026-05-06T13:41:17.000Z</time>
      </trkpt>
      <trkpt lat="41.790646" lon="22.975758">
        <ele>1688.3</ele>
        <time>2026-05-06T13:41:18.000Z</time>
      </trkpt>
      <trkpt lat="41.79065" lon="22.975759">
        <ele>1688.3</ele>
        <time>2026-05-06T13:41:19.000Z</time>
      </trkpt>
      <trkpt lat="41.790654" lon="22.975759">
        <ele>1688.3</ele>
        <time>2026-05-06T13:41:20.000Z</time>
      </trkpt>
      <trkpt lat="41.790657" lon="22.975758">
        <ele>1688.3</ele>
        <time>2026-05-06T13:41:21.000Z</time>
      </trkpt>
      <trkpt lat="41.790662" lon="22.97576">
        <ele>1688.3</ele>
        <time>2026-05-06T13:41:22.000Z</time>
      </trkpt>
      <trkpt lat="41.790666" lon="22.975763">
        <ele>1687.8</ele>
        <time>2026-05-06T13:41:23.000Z</time>
      </trkpt>
      <trkpt lat="41.790668" lon="22.975767">
        <ele>1687.8</ele>
        <time>2026-05-06T13:41:24.000Z</time>
      </trkpt>
      <trkpt lat="41.790671" lon="22.975771">
        <ele>1687.8</ele>
        <time>2026-05-06T13:41:25.000Z</time>
      </trkpt>
      <trkpt lat="41.790675" lon="22.975775">
        <ele>1687.8</ele>
        <time>2026-05-06T13:41:26.000Z</time>
      </trkpt>
      <trkpt lat="41.790679" lon="22.975777">
        <ele>1687.8</ele>
        <time>2026-05-06T13:41:27.000Z</time>
      </trkpt>
      <trkpt lat="41.790681" lon="22.975776">
        <ele>1687.5</ele>
        <time>2026-05-06T13:41:28.000Z</time>
      </trkpt>
      <trkpt lat="41.790684" lon="22.975775">
        <ele>1687.5</ele>
        <time>2026-05-06T13:41:29.000Z</time>
      </trkpt>
      <trkpt lat="41.790686" lon="22.975773">
        <ele>1687.5</ele>
        <time>2026-05-06T13:41:30.000Z</time>
      </trkpt>
      <trkpt lat="41.790687" lon="22.97577">
        <ele>1687.5</ele>
        <time>2026-05-06T13:41:31.000Z</time>
      </trkpt>
      <trkpt lat="41.790687" lon="22.975768">
        <ele>1687.5</ele>
        <time>2026-05-06T13:41:32.000Z</time>
      </trkpt>
      <trkpt lat="41.790687" lon="22.975765">
        <ele>1687</ele>
        <time>2026-05-06T13:41:33.000Z</time>
      </trkpt>
      <trkpt lat="41.790687" lon="22.975763">
        <ele>1687</ele>
        <time>2026-05-06T13:41:34.000Z</time>
      </trkpt>
      <trkpt lat="41.790687" lon="22.975762">
        <ele>1687</ele>
        <time>2026-05-06T13:41:35.000Z</time>
      </trkpt>
      <trkpt lat="41.790687" lon="22.975761">
        <ele>1687</ele>
        <time>2026-05-06T13:41:36.000Z</time>
      </trkpt>
      <trkpt lat="41.790687" lon="22.975761">
        <ele>1687</ele>
        <time>2026-05-06T13:41:37.000Z</time>
      </trkpt>
      <trkpt lat="41.790687" lon="22.975761">
        <ele>1686.7</ele>
        <time>2026-05-06T13:41:38.000Z</time>
      </trkpt>
      <trkpt lat="41.790687" lon="22.975761">
        <ele>1686.7</ele>
        <time>2026-05-06T13:41:39.000Z</time>
      </trkpt>
      <trkpt lat="41.790687" lon="22.975759">
        <ele>1686.7</ele>
        <time>2026-05-06T13:41:40.000Z</time>
      </trkpt>
      <trkpt lat="41.790687" lon="22.975758">
        <ele>1686.7</ele>
        <time>2026-05-06T13:41:41.000Z</time>
      </trkpt>
      <trkpt lat="41.790688" lon="22.97576">
        <ele>1686.7</ele>
        <time>2026-05-06T13:41:42.000Z</time>
      </trkpt>
      <trkpt lat="41.790689" lon="22.975764">
        <ele>1686.7</ele>
        <time>2026-05-06T13:41:43.000Z</time>
      </trkpt>
      <trkpt lat="41.790687" lon="22.975768">
        <ele>1686.7</ele>
        <time>2026-05-06T13:41:44.000Z</time>
      </trkpt>
      <trkpt lat="41.790685" lon="22.975775">
        <ele>1686.7</ele>
        <time>2026-05-06T13:41:45.000Z</time>
      </trkpt>
      <trkpt lat="41.790683" lon="22.975781">
        <ele>1686.7</ele>
        <time>2026-05-06T13:41:46.000Z</time>
      </trkpt>
      <trkpt lat="41.790678" lon="22.975785">
        <ele>1686.7</ele>
        <time>2026-05-06T13:41:47.000Z</time>
      </trkpt>
      <trkpt lat="41.790675" lon="22.975787">
        <ele>1686.8</ele>
        <time>2026-05-06T13:41:48.000Z</time>
      </trkpt>
      <trkpt lat="41.790673" lon="22.97579">
        <ele>1686.8</ele>
        <time>2026-05-06T13:41:49.000Z</time>
      </trkpt>
      <trkpt lat="41.790672" lon="22.975793">
        <ele>1686.8</ele>
        <time>2026-05-06T13:41:50.000Z</time>
      </trkpt>
      <trkpt lat="41.790671" lon="22.975796">
        <ele>1686.8</ele>
        <time>2026-05-06T13:41:51.000Z</time>
      </trkpt>
      <trkpt lat="41.790672" lon="22.975801">
        <ele>1686.8</ele>
        <time>2026-05-06T13:41:52.000Z</time>
      </trkpt>
      <trkpt lat="41.790675" lon="22.975806">
        <ele>1686.5</ele>
        <time>2026-05-06T13:41:53.000Z</time>
      </trkpt>
      <trkpt lat="41.790677" lon="22.975812">
        <ele>1686.5</ele>
        <time>2026-05-06T13:41:54.000Z</time>
      </trkpt>
      <trkpt lat="41.790679" lon="22.975819">
        <ele>1686.5</ele>
        <time>2026-05-06T13:41:55.000Z</time>
      </trkpt>
      <trkpt lat="41.790681" lon="22.975827">
        <ele>1686.5</ele>
        <time>2026-05-06T13:41:56.000Z</time>
      </trkpt>
      <trkpt lat="41.790683" lon="22.975836">
        <ele>1686.5</ele>
        <time>2026-05-06T13:41:57.000Z</time>
      </trkpt>
      <trkpt lat="41.790685" lon="22.975844">
        <ele>1686.1</ele>
        <time>2026-05-06T13:41:58.000Z</time>
      </trkpt>
      <trkpt lat="41.790689" lon="22.975853">
        <ele>1686.1</ele>
        <time>2026-05-06T13:41:59.000Z</time>
      </trkpt>
      <trkpt lat="41.790696" lon="22.975862">
        <ele>1686.1</ele>
        <time>2026-05-06T13:42:00.000Z</time>
      </trkpt>
      <trkpt lat="41.790704" lon="22.975872">
        <ele>1686.1</ele>
        <time>2026-05-06T13:42:01.000Z</time>
      </trkpt>
      <trkpt lat="41.790712" lon="22.975882">
        <ele>1686.1</ele>
        <time>2026-05-06T13:42:02.000Z</time>
      </trkpt>
      <trkpt lat="41.790717" lon="22.975894">
        <ele>1684.8</ele>
        <time>2026-05-06T13:42:03.000Z</time>
      </trkpt>
      <trkpt lat="41.79072" lon="22.975906">
        <ele>1684.8</ele>
        <time>2026-05-06T13:42:04.000Z</time>
      </trkpt>
      <trkpt lat="41.790722" lon="22.975917">
        <ele>1684.8</ele>
        <time>2026-05-06T13:42:05.000Z</time>
      </trkpt>
      <trkpt lat="41.790722" lon="22.975929">
        <ele>1684.8</ele>
        <time>2026-05-06T13:42:06.000Z</time>
      </trkpt>
      <trkpt lat="41.790721" lon="22.975942">
        <ele>1684.8</ele>
        <time>2026-05-06T13:42:07.000Z</time>
      </trkpt>
      <trkpt lat="41.790722" lon="22.975953">
        <ele>1683.3</ele>
        <time>2026-05-06T13:42:08.000Z</time>
      </trkpt>
      <trkpt lat="41.790725" lon="22.975963">
        <ele>1683.3</ele>
        <time>2026-05-06T13:42:09.000Z</time>
      </trkpt>
      <trkpt lat="41.790729" lon="22.975972">
        <ele>1683.3</ele>
        <time>2026-05-06T13:42:10.000Z</time>
      </trkpt>
      <trkpt lat="41.790736" lon="22.975981">
        <ele>1683.3</ele>
        <time>2026-05-06T13:42:11.000Z</time>
      </trkpt>
      <trkpt lat="41.790744" lon="22.975989">
        <ele>1683.3</ele>
        <time>2026-05-06T13:42:12.000Z</time>
      </trkpt>
      <trkpt lat="41.790752" lon="22.975998">
        <ele>1682.6</ele>
        <time>2026-05-06T13:42:13.000Z</time>
      </trkpt>
      <trkpt lat="41.79076" lon="22.976008">
        <ele>1682.6</ele>
        <time>2026-05-06T13:42:14.000Z</time>
      </trkpt>
      <trkpt lat="41.790767" lon="22.97602">
        <ele>1682.6</ele>
        <time>2026-05-06T13:42:15.000Z</time>
      </trkpt>
      <trkpt lat="41.790773" lon="22.976032">
        <ele>1682.6</ele>
        <time>2026-05-06T13:42:16.000Z</time>
      </trkpt>
      <trkpt lat="41.790778" lon="22.976044">
        <ele>1682.6</ele>
        <time>2026-05-06T13:42:17.000Z</time>
      </trkpt>
      <trkpt lat="41.790783" lon="22.976056">
        <ele>1680.9</ele>
        <time>2026-05-06T13:42:18.000Z</time>
      </trkpt>
      <trkpt lat="41.790786" lon="22.976065">
        <ele>1680.9</ele>
        <time>2026-05-06T13:42:19.000Z</time>
      </trkpt>
      <trkpt lat="41.790788" lon="22.976071">
        <ele>1680.9</ele>
        <time>2026-05-06T13:42:20.000Z</time>
      </trkpt>
      <trkpt lat="41.790789" lon="22.976075">
        <ele>1680.9</ele>
        <time>2026-05-06T13:42:21.000Z</time>
      </trkpt>
      <trkpt lat="41.79079" lon="22.976076">
        <ele>1680.9</ele>
        <time>2026-05-06T13:42:22.000Z</time>
      </trkpt>
      <trkpt lat="41.79079" lon="22.976076">
        <ele>1678.9</ele>
        <time>2026-05-06T13:42:23.000Z</time>
      </trkpt>
      <trkpt lat="41.790791" lon="22.976075">
        <ele>1678.9</ele>
        <time>2026-05-06T13:42:24.000Z</time>
      </trkpt>
      <trkpt lat="41.790791" lon="22.976075">
        <ele>1678.9</ele>
        <time>2026-05-06T13:42:25.000Z</time>
      </trkpt>
      <trkpt lat="41.790791" lon="22.976075">
        <ele>1678.9</ele>
        <time>2026-05-06T13:42:26.000Z</time>
      </trkpt>
      <trkpt lat="41.790791" lon="22.976075">
        <ele>1678.9</ele>
        <time>2026-05-06T13:42:27.000Z</time>
      </trkpt>
      <trkpt lat="41.790791" lon="22.976075">
        <ele>1678</ele>
        <time>2026-05-06T13:42:28.000Z</time>
      </trkpt>
      <trkpt lat="41.790791" lon="22.976075">
        <ele>1678</ele>
        <time>2026-05-06T13:42:29.000Z</time>
      </trkpt>
      <trkpt lat="41.790791" lon="22.976076">
        <ele>1678</ele>
        <time>2026-05-06T13:42:30.000Z</time>
      </trkpt>
      <trkpt lat="41.790791" lon="22.976079">
        <ele>1678</ele>
        <time>2026-05-06T13:42:31.000Z</time>
      </trkpt>
      <trkpt lat="41.790792" lon="22.976084">
        <ele>1678</ele>
        <time>2026-05-06T13:42:32.000Z</time>
      </trkpt>
      <trkpt lat="41.790792" lon="22.976092">
        <ele>1676.7</ele>
        <time>2026-05-06T13:42:33.000Z</time>
      </trkpt>
      <trkpt lat="41.790793" lon="22.976101">
        <ele>1676.7</ele>
        <time>2026-05-06T13:42:34.000Z</time>
      </trkpt>
      <trkpt lat="41.790794" lon="22.97611">
        <ele>1676.7</ele>
        <time>2026-05-06T13:42:35.000Z</time>
      </trkpt>
      <trkpt lat="41.790797" lon="22.976117">
        <ele>1676.7</ele>
        <time>2026-05-06T13:42:36.000Z</time>
      </trkpt>
      <trkpt lat="41.7908" lon="22.976122">
        <ele>1676.7</ele>
        <time>2026-05-06T13:42:37.000Z</time>
      </trkpt>
      <trkpt lat="41.790805" lon="22.976127">
        <ele>1676.1</ele>
        <time>2026-05-06T13:42:38.000Z</time>
      </trkpt>
      <trkpt lat="41.79081" lon="22.976132">
        <ele>1676.1</ele>
        <time>2026-05-06T13:42:39.000Z</time>
      </trkpt>
      <trkpt lat="41.790816" lon="22.976138">
        <ele>1676.1</ele>
        <time>2026-05-06T13:42:40.000Z</time>
      </trkpt>
      <trkpt lat="41.790821" lon="22.976145">
        <ele>1676.1</ele>
        <time>2026-05-06T13:42:41.000Z</time>
      </trkpt>
      <trkpt lat="41.790824" lon="22.97615">
        <ele>1676.1</ele>
        <time>2026-05-06T13:42:42.000Z</time>
      </trkpt>
      <trkpt lat="41.790829" lon="22.97615">
        <ele>1675.8</ele>
        <time>2026-05-06T13:42:43.000Z</time>
      </trkpt>
      <trkpt lat="41.790836" lon="22.976149">
        <ele>1675.8</ele>
        <time>2026-05-06T13:42:44.000Z</time>
      </trkpt>
      <trkpt lat="41.790842" lon="22.976148">
        <ele>1675.8</ele>
        <time>2026-05-06T13:42:45.000Z</time>
      </trkpt>
      <trkpt lat="41.79085" lon="22.976149">
        <ele>1675.8</ele>
        <time>2026-05-06T13:42:46.000Z</time>
      </trkpt>
      <trkpt lat="41.790859" lon="22.976154">
        <ele>1675.8</ele>
        <time>2026-05-06T13:42:47.000Z</time>
      </trkpt>
      <trkpt lat="41.790867" lon="22.976163">
        <ele>1674.8</ele>
        <time>2026-05-06T13:42:48.000Z</time>
      </trkpt>
      <trkpt lat="41.790873" lon="22.976174">
        <ele>1674.8</ele>
        <time>2026-05-06T13:42:49.000Z</time>
      </trkpt>
      <trkpt lat="41.790879" lon="22.976184">
        <ele>1674.8</ele>
        <time>2026-05-06T13:42:50.000Z</time>
      </trkpt>
      <trkpt lat="41.790882" lon="22.976197">
        <ele>1674.8</ele>
        <time>2026-05-06T13:42:51.000Z</time>
      </trkpt>
      <trkpt lat="41.790885" lon="22.976209">
        <ele>1674.8</ele>
        <time>2026-05-06T13:42:52.000Z</time>
      </trkpt>
      <trkpt lat="41.790886" lon="22.976221">
        <ele>1673.2</ele>
        <time>2026-05-06T13:42:53.000Z</time>
      </trkpt>
      <trkpt lat="41.790888" lon="22.976231">
        <ele>1673.2</ele>
        <time>2026-05-06T13:42:54.000Z</time>
      </trkpt>
      <trkpt lat="41.79089" lon="22.976242">
        <ele>1673.2</ele>
        <time>2026-05-06T13:42:55.000Z</time>
      </trkpt>
      <trkpt lat="41.790892" lon="22.97625">
        <ele>1673.2</ele>
        <time>2026-05-06T13:42:56.000Z</time>
      </trkpt>
      <trkpt lat="41.790895" lon="22.976258">
        <ele>1673.2</ele>
        <time>2026-05-06T13:42:57.000Z</time>
      </trkpt>
      <trkpt lat="41.790898" lon="22.976269">
        <ele>1672.3</ele>
        <time>2026-05-06T13:42:58.000Z</time>
      </trkpt>
      <trkpt lat="41.790902" lon="22.976282">
        <ele>1672.3</ele>
        <time>2026-05-06T13:42:59.000Z</time>
      </trkpt>
      <trkpt lat="41.790907" lon="22.976297">
        <ele>1672.3</ele>
        <time>2026-05-06T13:43:00.000Z</time>
      </trkpt>
      <trkpt lat="41.790912" lon="22.976314">
        <ele>1672.3</ele>
        <time>2026-05-06T13:43:01.000Z</time>
      </trkpt>
      <trkpt lat="41.790918" lon="22.97633">
        <ele>1672.3</ele>
        <time>2026-05-06T13:43:02.000Z</time>
      </trkpt>
      <trkpt lat="41.790922" lon="22.976345">
        <ele>1670.6</ele>
        <time>2026-05-06T13:43:03.000Z</time>
      </trkpt>
      <trkpt lat="41.790926" lon="22.97636">
        <ele>1670.6</ele>
        <time>2026-05-06T13:43:04.000Z</time>
      </trkpt>
      <trkpt lat="41.790928" lon="22.976373">
        <ele>1670.6</ele>
        <time>2026-05-06T13:43:05.000Z</time>
      </trkpt>
      <trkpt lat="41.79093" lon="22.976385">
        <ele>1670.6</ele>
        <time>2026-05-06T13:43:06.000Z</time>
      </trkpt>
      <trkpt lat="41.790932" lon="22.976396">
        <ele>1670.6</ele>
        <time>2026-05-06T13:43:07.000Z</time>
      </trkpt>
      <trkpt lat="41.790935" lon="22.976408">
        <ele>1669.2</ele>
        <time>2026-05-06T13:43:08.000Z</time>
      </trkpt>
      <trkpt lat="41.790938" lon="22.976419">
        <ele>1669.2</ele>
        <time>2026-05-06T13:43:09.000Z</time>
      </trkpt>
      <trkpt lat="41.79094" lon="22.976429">
        <ele>1669.2</ele>
        <time>2026-05-06T13:43:10.000Z</time>
      </trkpt>
      <trkpt lat="41.790941" lon="22.976439">
        <ele>1669.2</ele>
        <time>2026-05-06T13:43:11.000Z</time>
      </trkpt>
      <trkpt lat="41.790943" lon="22.976449">
        <ele>1669.2</ele>
        <time>2026-05-06T13:43:12.000Z</time>
      </trkpt>
      <trkpt lat="41.790943" lon="22.976457">
        <ele>1668.7</ele>
        <time>2026-05-06T13:43:13.000Z</time>
      </trkpt>
      <trkpt lat="41.790944" lon="22.976463">
        <ele>1668.7</ele>
        <time>2026-05-06T13:43:14.000Z</time>
      </trkpt>
      <trkpt lat="41.790945" lon="22.976469">
        <ele>1668.7</ele>
        <time>2026-05-06T13:43:15.000Z</time>
      </trkpt>
      <trkpt lat="41.790946" lon="22.976474">
        <ele>1668.7</ele>
        <time>2026-05-06T13:43:16.000Z</time>
      </trkpt>
      <trkpt lat="41.790947" lon="22.976479">
        <ele>1668.7</ele>
        <time>2026-05-06T13:43:17.000Z</time>
      </trkpt>
      <trkpt lat="41.790948" lon="22.97648">
        <ele>1668</ele>
        <time>2026-05-06T13:43:18.000Z</time>
      </trkpt>
      <trkpt lat="41.790949" lon="22.976478">
        <ele>1668</ele>
        <time>2026-05-06T13:43:19.000Z</time>
      </trkpt>
      <trkpt lat="41.790954" lon="22.976473">
        <ele>1668</ele>
        <time>2026-05-06T13:43:20.000Z</time>
      </trkpt>
      <trkpt lat="41.790959" lon="22.976469">
        <ele>1668</ele>
        <time>2026-05-06T13:43:21.000Z</time>
      </trkpt>
      <trkpt lat="41.790965" lon="22.976468">
        <ele>1668</ele>
        <time>2026-05-06T13:43:22.000Z</time>
      </trkpt>
      <trkpt lat="41.790972" lon="22.976471">
        <ele>1667.3</ele>
        <time>2026-05-06T13:43:23.000Z</time>
      </trkpt>
      <trkpt lat="41.790979" lon="22.976478">
        <ele>1667.3</ele>
        <time>2026-05-06T13:43:24.000Z</time>
      </trkpt>
      <trkpt lat="41.790984" lon="22.976488">
        <ele>1667.3</ele>
        <time>2026-05-06T13:43:25.000Z</time>
      </trkpt>
      <trkpt lat="41.790989" lon="22.976501">
        <ele>1667.3</ele>
        <time>2026-05-06T13:43:26.000Z</time>
      </trkpt>
      <trkpt lat="41.790994" lon="22.976515">
        <ele>1667.3</ele>
        <time>2026-05-06T13:43:27.000Z</time>
      </trkpt>
      <trkpt lat="41.790998" lon="22.976529">
        <ele>1666.7</ele>
        <time>2026-05-06T13:43:28.000Z</time>
      </trkpt>
      <trkpt lat="41.791003" lon="22.976543">
        <ele>1666.7</ele>
        <time>2026-05-06T13:43:29.000Z</time>
      </trkpt>
      <trkpt lat="41.791006" lon="22.976558">
        <ele>1666.7</ele>
        <time>2026-05-06T13:43:30.000Z</time>
      </trkpt>
      <trkpt lat="41.791008" lon="22.976571">
        <ele>1666.7</ele>
        <time>2026-05-06T13:43:31.000Z</time>
      </trkpt>
      <trkpt lat="41.791008" lon="22.976582">
        <ele>1666.7</ele>
        <time>2026-05-06T13:43:32.000Z</time>
      </trkpt>
      <trkpt lat="41.791009" lon="22.976593">
        <ele>1664.9</ele>
        <time>2026-05-06T13:43:33.000Z</time>
      </trkpt>
      <trkpt lat="41.791009" lon="22.976602">
        <ele>1664.9</ele>
        <time>2026-05-06T13:43:34.000Z</time>
      </trkpt>
      <trkpt lat="41.791009" lon="22.976609">
        <ele>1664.9</ele>
        <time>2026-05-06T13:43:35.000Z</time>
      </trkpt>
      <trkpt lat="41.791009" lon="22.976617">
        <ele>1664.9</ele>
        <time>2026-05-06T13:43:36.000Z</time>
      </trkpt>
      <trkpt lat="41.79101" lon="22.976626">
        <ele>1664.9</ele>
        <time>2026-05-06T13:43:37.000Z</time>
      </trkpt>
      <trkpt lat="41.791012" lon="22.976635">
        <ele>1663</ele>
        <time>2026-05-06T13:43:38.000Z</time>
      </trkpt>
      <trkpt lat="41.791014" lon="22.976647">
        <ele>1663</ele>
        <time>2026-05-06T13:43:39.000Z</time>
      </trkpt>
      <trkpt lat="41.791018" lon="22.976659">
        <ele>1663</ele>
        <time>2026-05-06T13:43:40.000Z</time>
      </trkpt>
      <trkpt lat="41.791022" lon="22.976671">
        <ele>1663</ele>
        <time>2026-05-06T13:43:41.000Z</time>
      </trkpt>
      <trkpt lat="41.791025" lon="22.976682">
        <ele>1663</ele>
        <time>2026-05-06T13:43:42.000Z</time>
      </trkpt>
      <trkpt lat="41.791029" lon="22.97669">
        <ele>1662.1</ele>
        <time>2026-05-06T13:43:43.000Z</time>
      </trkpt>
      <trkpt lat="41.791033" lon="22.976695">
        <ele>1662.1</ele>
        <time>2026-05-06T13:43:44.000Z</time>
      </trkpt>
      <trkpt lat="41.791037" lon="22.976697">
        <ele>1662.1</ele>
        <time>2026-05-06T13:43:45.000Z</time>
      </trkpt>
      <trkpt lat="41.791042" lon="22.976698">
        <ele>1662.1</ele>
        <time>2026-05-06T13:43:46.000Z</time>
      </trkpt>
      <trkpt lat="41.791049" lon="22.976697">
        <ele>1662.1</ele>
        <time>2026-05-06T13:43:47.000Z</time>
      </trkpt>
      <trkpt lat="41.791053" lon="22.976695">
        <ele>1660.5</ele>
        <time>2026-05-06T13:43:48.000Z</time>
      </trkpt>
      <trkpt lat="41.791056" lon="22.976694">
        <ele>1660.5</ele>
        <time>2026-05-06T13:43:49.000Z</time>
      </trkpt>
      <trkpt lat="41.791059" lon="22.976694">
        <ele>1660.5</ele>
        <time>2026-05-06T13:43:50.000Z</time>
      </trkpt>
      <trkpt lat="41.791061" lon="22.976693">
        <ele>1660.5</ele>
        <time>2026-05-06T13:43:51.000Z</time>
      </trkpt>
      <trkpt lat="41.791063" lon="22.976691">
        <ele>1660.5</ele>
        <time>2026-05-06T13:43:52.000Z</time>
      </trkpt>
      <trkpt lat="41.791066" lon="22.97669">
        <ele>1659.1</ele>
        <time>2026-05-06T13:43:53.000Z</time>
      </trkpt>
      <trkpt lat="41.79107" lon="22.976689">
        <ele>1659.1</ele>
        <time>2026-05-06T13:43:54.000Z</time>
      </trkpt>
      <trkpt lat="41.791076" lon="22.976692">
        <ele>1659.1</ele>
        <time>2026-05-06T13:43:55.000Z</time>
      </trkpt>
      <trkpt lat="41.79108" lon="22.976696">
        <ele>1659.1</ele>
        <time>2026-05-06T13:43:56.000Z</time>
      </trkpt>
      <trkpt lat="41.791084" lon="22.976705">
        <ele>1659.1</ele>
        <time>2026-05-06T13:43:57.000Z</time>
      </trkpt>
      <trkpt lat="41.791087" lon="22.976716">
        <ele>1658.5</ele>
        <time>2026-05-06T13:43:58.000Z</time>
      </trkpt>
      <trkpt lat="41.791091" lon="22.976728">
        <ele>1658.5</ele>
        <time>2026-05-06T13:43:59.000Z</time>
      </trkpt>
      <trkpt lat="41.791095" lon="22.97674">
        <ele>1658.5</ele>
        <time>2026-05-06T13:44:00.000Z</time>
      </trkpt>
      <trkpt lat="41.791098" lon="22.97675">
        <ele>1658.5</ele>
        <time>2026-05-06T13:44:01.000Z</time>
      </trkpt>
      <trkpt lat="41.791102" lon="22.97676">
        <ele>1658.5</ele>
        <time>2026-05-06T13:44:02.000Z</time>
      </trkpt>
      <trkpt lat="41.791105" lon="22.976768">
        <ele>1657.4</ele>
        <time>2026-05-06T13:44:03.000Z</time>
      </trkpt>
      <trkpt lat="41.791109" lon="22.976774">
        <ele>1657.4</ele>
        <time>2026-05-06T13:44:04.000Z</time>
      </trkpt>
      <trkpt lat="41.791112" lon="22.976778">
        <ele>1657.4</ele>
        <time>2026-05-06T13:44:05.000Z</time>
      </trkpt>
      <trkpt lat="41.791115" lon="22.976783">
        <ele>1657.4</ele>
        <time>2026-05-06T13:44:06.000Z</time>
      </trkpt>
      <trkpt lat="41.791117" lon="22.976789">
        <ele>1657.4</ele>
        <time>2026-05-06T13:44:07.000Z</time>
      </trkpt>
      <trkpt lat="41.791119" lon="22.976796">
        <ele>1656.2</ele>
        <time>2026-05-06T13:44:08.000Z</time>
      </trkpt>
      <trkpt lat="41.791121" lon="22.976804">
        <ele>1656.2</ele>
        <time>2026-05-06T13:44:09.000Z</time>
      </trkpt>
      <trkpt lat="41.791121" lon="22.97681">
        <ele>1656.2</ele>
        <time>2026-05-06T13:44:10.000Z</time>
      </trkpt>
      <trkpt lat="41.79112" lon="22.976816">
        <ele>1656.2</ele>
        <time>2026-05-06T13:44:11.000Z</time>
      </trkpt>
      <trkpt lat="41.79112" lon="22.976821">
        <ele>1656.2</ele>
        <time>2026-05-06T13:44:12.000Z</time>
      </trkpt>
      <trkpt lat="41.791119" lon="22.976824">
        <ele>1655.6</ele>
        <time>2026-05-06T13:44:13.000Z</time>
      </trkpt>
      <trkpt lat="41.791118" lon="22.976826">
        <ele>1655.6</ele>
        <time>2026-05-06T13:44:14.000Z</time>
      </trkpt>
      <trkpt lat="41.791117" lon="22.976829">
        <ele>1655.6</ele>
        <time>2026-05-06T13:44:15.000Z</time>
      </trkpt>
      <trkpt lat="41.791116" lon="22.976833">
        <ele>1655.6</ele>
        <time>2026-05-06T13:44:16.000Z</time>
      </trkpt>
      <trkpt lat="41.791118" lon="22.976836">
        <ele>1655.6</ele>
        <time>2026-05-06T13:44:17.000Z</time>
      </trkpt>
      <trkpt lat="41.791121" lon="22.976841">
        <ele>1654.3</ele>
        <time>2026-05-06T13:44:18.000Z</time>
      </trkpt>
      <trkpt lat="41.791125" lon="22.976846">
        <ele>1654.3</ele>
        <time>2026-05-06T13:44:19.000Z</time>
      </trkpt>
      <trkpt lat="41.791129" lon="22.976851">
        <ele>1654.3</ele>
        <time>2026-05-06T13:44:20.000Z</time>
      </trkpt>
      <trkpt lat="41.791134" lon="22.976855">
        <ele>1654.3</ele>
        <time>2026-05-06T13:44:21.000Z</time>
      </trkpt>
      <trkpt lat="41.79114" lon="22.97686">
        <ele>1654.3</ele>
        <time>2026-05-06T13:44:22.000Z</time>
      </trkpt>
      <trkpt lat="41.791143" lon="22.976865">
        <ele>1653.1</ele>
        <time>2026-05-06T13:44:23.000Z</time>
      </trkpt>
      <trkpt lat="41.791148" lon="22.976872">
        <ele>1653.1</ele>
        <time>2026-05-06T13:44:24.000Z</time>
      </trkpt>
      <trkpt lat="41.791153" lon="22.976879">
        <ele>1653.1</ele>
        <time>2026-05-06T13:44:25.000Z</time>
      </trkpt>
      <trkpt lat="41.791158" lon="22.976885">
        <ele>1653.1</ele>
        <time>2026-05-06T13:44:26.000Z</time>
      </trkpt>
      <trkpt lat="41.791161" lon="22.97689">
        <ele>1653.1</ele>
        <time>2026-05-06T13:44:27.000Z</time>
      </trkpt>
      <trkpt lat="41.791166" lon="22.976893">
        <ele>1652.4</ele>
        <time>2026-05-06T13:44:28.000Z</time>
      </trkpt>
      <trkpt lat="41.79117" lon="22.976895">
        <ele>1652.4</ele>
        <time>2026-05-06T13:44:29.000Z</time>
      </trkpt>
      <trkpt lat="41.791175" lon="22.976898">
        <ele>1652.4</ele>
        <time>2026-05-06T13:44:30.000Z</time>
      </trkpt>
      <trkpt lat="41.791179" lon="22.976901">
        <ele>1652.4</ele>
        <time>2026-05-06T13:44:31.000Z</time>
      </trkpt>
      <trkpt lat="41.791183" lon="22.976905">
        <ele>1652.4</ele>
        <time>2026-05-06T13:44:32.000Z</time>
      </trkpt>
      <trkpt lat="41.791187" lon="22.976909">
        <ele>1650.6</ele>
        <time>2026-05-06T13:44:33.000Z</time>
      </trkpt>
      <trkpt lat="41.791189" lon="22.976911">
        <ele>1650.6</ele>
        <time>2026-05-06T13:44:34.000Z</time>
      </trkpt>
      <trkpt lat="41.791191" lon="22.976913">
        <ele>1650.6</ele>
        <time>2026-05-06T13:44:35.000Z</time>
      </trkpt>
      <trkpt lat="41.791195" lon="22.976914">
        <ele>1650.6</ele>
        <time>2026-05-06T13:44:36.000Z</time>
      </trkpt>
      <trkpt lat="41.791198" lon="22.976913">
        <ele>1650.6</ele>
        <time>2026-05-06T13:44:37.000Z</time>
      </trkpt>
      <trkpt lat="41.791202" lon="22.976913">
        <ele>1649</ele>
        <time>2026-05-06T13:44:38.000Z</time>
      </trkpt>
      <trkpt lat="41.791206" lon="22.976913">
        <ele>1649</ele>
        <time>2026-05-06T13:44:39.000Z</time>
      </trkpt>
      <trkpt lat="41.791208" lon="22.97691">
        <ele>1649</ele>
        <time>2026-05-06T13:44:40.000Z</time>
      </trkpt>
      <trkpt lat="41.791209" lon="22.976906">
        <ele>1649</ele>
        <time>2026-05-06T13:44:41.000Z</time>
      </trkpt>
      <trkpt lat="41.79121" lon="22.976902">
        <ele>1649</ele>
        <time>2026-05-06T13:44:42.000Z</time>
      </trkpt>
      <trkpt lat="41.791211" lon="22.976895">
        <ele>1648.4</ele>
        <time>2026-05-06T13:44:43.000Z</time>
      </trkpt>
      <trkpt lat="41.791213" lon="22.976888">
        <ele>1648.4</ele>
        <time>2026-05-06T13:44:44.000Z</time>
      </trkpt>
      <trkpt lat="41.791216" lon="22.976885">
        <ele>1648.4</ele>
        <time>2026-05-06T13:44:45.000Z</time>
      </trkpt>
      <trkpt lat="41.79122" lon="22.976883">
        <ele>1648.4</ele>
        <time>2026-05-06T13:44:46.000Z</time>
      </trkpt>
      <trkpt lat="41.791224" lon="22.976883">
        <ele>1648.4</ele>
        <time>2026-05-06T13:44:47.000Z</time>
      </trkpt>
      <trkpt lat="41.791228" lon="22.976887">
        <ele>1647.5</ele>
        <time>2026-05-06T13:44:48.000Z</time>
      </trkpt>
      <trkpt lat="41.791232" lon="22.976892">
        <ele>1647.5</ele>
        <time>2026-05-06T13:44:49.000Z</time>
      </trkpt>
      <trkpt lat="41.791235" lon="22.976898">
        <ele>1647.5</ele>
        <time>2026-05-06T13:44:50.000Z</time>
      </trkpt>
      <trkpt lat="41.791237" lon="22.976904">
        <ele>1647.5</ele>
        <time>2026-05-06T13:44:51.000Z</time>
      </trkpt>
      <trkpt lat="41.791238" lon="22.976913">
        <ele>1647.5</ele>
        <time>2026-05-06T13:44:52.000Z</time>
      </trkpt>
      <trkpt lat="41.791239" lon="22.976923">
        <ele>1646.4</ele>
        <time>2026-05-06T13:44:53.000Z</time>
      </trkpt>
      <trkpt lat="41.791239" lon="22.976932">
        <ele>1646.4</ele>
        <time>2026-05-06T13:44:54.000Z</time>
      </trkpt>
      <trkpt lat="41.791237" lon="22.97694">
        <ele>1646.4</ele>
        <time>2026-05-06T13:44:55.000Z</time>
      </trkpt>
      <trkpt lat="41.791236" lon="22.976947">
        <ele>1646.4</ele>
        <time>2026-05-06T13:44:56.000Z</time>
      </trkpt>
      <trkpt lat="41.791236" lon="22.976949">
        <ele>1646.4</ele>
        <time>2026-05-06T13:44:57.000Z</time>
      </trkpt>
      <trkpt lat="41.791236" lon="22.976947">
        <ele>1645.8</ele>
        <time>2026-05-06T13:44:58.000Z</time>
      </trkpt>
      <trkpt lat="41.791237" lon="22.976942">
        <ele>1645.8</ele>
        <time>2026-05-06T13:44:59.000Z</time>
      </trkpt>
      <trkpt lat="41.79124" lon="22.976935">
        <ele>1645.8</ele>
        <time>2026-05-06T13:45:00.000Z</time>
      </trkpt>
      <trkpt lat="41.791245" lon="22.976929">
        <ele>1645.8</ele>
        <time>2026-05-06T13:45:01.000Z</time>
      </trkpt>
      <trkpt lat="41.791251" lon="22.976923">
        <ele>1645.8</ele>
        <time>2026-05-06T13:45:02.000Z</time>
      </trkpt>
      <trkpt lat="41.791256" lon="22.97692">
        <ele>1644.6</ele>
        <time>2026-05-06T13:45:03.000Z</time>
      </trkpt>
      <trkpt lat="41.791261" lon="22.976918">
        <ele>1644.6</ele>
        <time>2026-05-06T13:45:04.000Z</time>
      </trkpt>
      <trkpt lat="41.791265" lon="22.976915">
        <ele>1644.6</ele>
        <time>2026-05-06T13:45:05.000Z</time>
      </trkpt>
      <trkpt lat="41.791267" lon="22.976912">
        <ele>1644.6</ele>
        <time>2026-05-06T13:45:06.000Z</time>
      </trkpt>
      <trkpt lat="41.791269" lon="22.976909">
        <ele>1644.6</ele>
        <time>2026-05-06T13:45:07.000Z</time>
      </trkpt>
      <trkpt lat="41.79127" lon="22.976905">
        <ele>1643.8</ele>
        <time>2026-05-06T13:45:08.000Z</time>
      </trkpt>
      <trkpt lat="41.791271" lon="22.976903">
        <ele>1643.8</ele>
        <time>2026-05-06T13:45:09.000Z</time>
      </trkpt>
      <trkpt lat="41.791272" lon="22.976902">
        <ele>1643.8</ele>
        <time>2026-05-06T13:45:10.000Z</time>
      </trkpt>
      <trkpt lat="41.791274" lon="22.976901">
        <ele>1643.8</ele>
        <time>2026-05-06T13:45:11.000Z</time>
      </trkpt>
      <trkpt lat="41.791276" lon="22.976901">
        <ele>1643.8</ele>
        <time>2026-05-06T13:45:12.000Z</time>
      </trkpt>
      <trkpt lat="41.791278" lon="22.976902">
        <ele>1643.5</ele>
        <time>2026-05-06T13:45:13.000Z</time>
      </trkpt>
      <trkpt lat="41.79128" lon="22.976902">
        <ele>1643.5</ele>
        <time>2026-05-06T13:45:14.000Z</time>
      </trkpt>
      <trkpt lat="41.79128" lon="22.976901">
        <ele>1643.5</ele>
        <time>2026-05-06T13:45:15.000Z</time>
      </trkpt>
      <trkpt lat="41.791281" lon="22.976901">
        <ele>1643.5</ele>
        <time>2026-05-06T13:45:16.000Z</time>
      </trkpt>
      <trkpt lat="41.791281" lon="22.976901">
        <ele>1643.5</ele>
        <time>2026-05-06T13:45:17.000Z</time>
      </trkpt>
      <trkpt lat="41.791279" lon="22.976899">
        <ele>1642.9</ele>
        <time>2026-05-06T13:45:18.000Z</time>
      </trkpt>
      <trkpt lat="41.791278" lon="22.976897">
        <ele>1642.9</ele>
        <time>2026-05-06T13:45:19.000Z</time>
      </trkpt>
      <trkpt lat="41.791277" lon="22.976897">
        <ele>1642.9</ele>
        <time>2026-05-06T13:45:20.000Z</time>
      </trkpt>
      <trkpt lat="41.791275" lon="22.976895">
        <ele>1642.9</ele>
        <time>2026-05-06T13:45:21.000Z</time>
      </trkpt>
      <trkpt lat="41.791274" lon="22.976894">
        <ele>1642.9</ele>
        <time>2026-05-06T13:45:22.000Z</time>
      </trkpt>
      <trkpt lat="41.791274" lon="22.976892">
        <ele>1642.2</ele>
        <time>2026-05-06T13:45:23.000Z</time>
      </trkpt>
      <trkpt lat="41.791275" lon="22.976891">
        <ele>1642.2</ele>
        <time>2026-05-06T13:45:24.000Z</time>
      </trkpt>
      <trkpt lat="41.791275" lon="22.976889">
        <ele>1642.2</ele>
        <time>2026-05-06T13:45:25.000Z</time>
      </trkpt>
      <trkpt lat="41.791276" lon="22.976889">
        <ele>1642.2</ele>
        <time>2026-05-06T13:45:26.000Z</time>
      </trkpt>
      <trkpt lat="41.791278" lon="22.976888">
        <ele>1642.2</ele>
        <time>2026-05-06T13:45:27.000Z</time>
      </trkpt>
      <trkpt lat="41.791279" lon="22.976889">
        <ele>1641.9</ele>
        <time>2026-05-06T13:45:28.000Z</time>
      </trkpt>
      <trkpt lat="41.791279" lon="22.976888">
        <ele>1641.9</ele>
        <time>2026-05-06T13:45:29.000Z</time>
      </trkpt>
      <trkpt lat="41.791278" lon="22.976889">
        <ele>1641.9</ele>
        <time>2026-05-06T13:45:30.000Z</time>
      </trkpt>
      <trkpt lat="41.791278" lon="22.976889">
        <ele>1641.9</ele>
        <time>2026-05-06T13:45:31.000Z</time>
      </trkpt>
      <trkpt lat="41.791277" lon="22.976889">
        <ele>1641.9</ele>
        <time>2026-05-06T13:45:32.000Z</time>
      </trkpt>
      <trkpt lat="41.791276" lon="22.976888">
        <ele>1641.7</ele>
        <time>2026-05-06T13:45:33.000Z</time>
      </trkpt>
      <trkpt lat="41.791276" lon="22.976889">
        <ele>1641.7</ele>
        <time>2026-05-06T13:45:34.000Z</time>
      </trkpt>
      <trkpt lat="41.791276" lon="22.976888">
        <ele>1641.7</ele>
        <time>2026-05-06T13:45:35.000Z</time>
      </trkpt>
      <trkpt lat="41.791277" lon="22.976888">
        <ele>1641.7</ele>
        <time>2026-05-06T13:45:36.000Z</time>
      </trkpt>
      <trkpt lat="41.791277" lon="22.976888">
        <ele>1641.7</ele>
        <time>2026-05-06T13:45:37.000Z</time>
      </trkpt>
      <trkpt lat="41.791277" lon="22.976888">
        <ele>1641.7</ele>
        <time>2026-05-06T13:45:38.000Z</time>
      </trkpt>
      <trkpt lat="41.791277" lon="22.976888">
        <ele>1641.7</ele>
        <time>2026-05-06T13:45:39.000Z</time>
      </trkpt>
      <trkpt lat="41.791277" lon="22.976889">
        <ele>1641.7</ele>
        <time>2026-05-06T13:45:40.000Z</time>
      </trkpt>
      <trkpt lat="41.791278" lon="22.976889">
        <ele>1641.7</ele>
        <time>2026-05-06T13:45:41.000Z</time>
      </trkpt>
      <trkpt lat="41.791279" lon="22.976889">
        <ele>1641.7</ele>
        <time>2026-05-06T13:45:42.000Z</time>
      </trkpt>
      <trkpt lat="41.791282" lon="22.976889">
        <ele>1641.6</ele>
        <time>2026-05-06T13:45:43.000Z</time>
      </trkpt>
      <trkpt lat="41.791284" lon="22.976891">
        <ele>1641.6</ele>
        <time>2026-05-06T13:45:44.000Z</time>
      </trkpt>
      <trkpt lat="41.791287" lon="22.976891">
        <ele>1641.6</ele>
        <time>2026-05-06T13:45:45.000Z</time>
      </trkpt>
      <trkpt lat="41.791291" lon="22.976889">
        <ele>1641.6</ele>
        <time>2026-05-06T13:45:46.000Z</time>
      </trkpt>
      <trkpt lat="41.791295" lon="22.976887">
        <ele>1641.6</ele>
        <time>2026-05-06T13:45:47.000Z</time>
      </trkpt>
      <trkpt lat="41.791298" lon="22.976885">
        <ele>1641.4</ele>
        <time>2026-05-06T13:45:48.000Z</time>
      </trkpt>
      <trkpt lat="41.791301" lon="22.976881">
        <ele>1641.4</ele>
        <time>2026-05-06T13:45:49.000Z</time>
      </trkpt>
      <trkpt lat="41.791304" lon="22.976879">
        <ele>1641.4</ele>
        <time>2026-05-06T13:45:50.000Z</time>
      </trkpt>
      <trkpt lat="41.791307" lon="22.976878">
        <ele>1641.4</ele>
        <time>2026-05-06T13:45:51.000Z</time>
      </trkpt>
      <trkpt lat="41.791311" lon="22.976877">
        <ele>1641.4</ele>
        <time>2026-05-06T13:45:52.000Z</time>
      </trkpt>
      <trkpt lat="41.791316" lon="22.976877">
        <ele>1641</ele>
        <time>2026-05-06T13:45:53.000Z</time>
      </trkpt>
      <trkpt lat="41.791322" lon="22.976879">
        <ele>1641</ele>
        <time>2026-05-06T13:45:54.000Z</time>
      </trkpt>
      <trkpt lat="41.791327" lon="22.976883">
        <ele>1641</ele>
        <time>2026-05-06T13:45:55.000Z</time>
      </trkpt>
      <trkpt lat="41.791332" lon="22.976889">
        <ele>1641</ele>
        <time>2026-05-06T13:45:56.000Z</time>
      </trkpt>
      <trkpt lat="41.791336" lon="22.976897">
        <ele>1641</ele>
        <time>2026-05-06T13:45:57.000Z</time>
      </trkpt>
      <trkpt lat="41.791338" lon="22.976906">
        <ele>1640.6</ele>
        <time>2026-05-06T13:45:58.000Z</time>
      </trkpt>
      <trkpt lat="41.79134" lon="22.976915">
        <ele>1640.6</ele>
        <time>2026-05-06T13:45:59.000Z</time>
      </trkpt>
      <trkpt lat="41.791341" lon="22.976924">
        <ele>1640.6</ele>
        <time>2026-05-06T13:46:00.000Z</time>
      </trkpt>
      <trkpt lat="41.791342" lon="22.976932">
        <ele>1640.6</ele>
        <time>2026-05-06T13:46:01.000Z</time>
      </trkpt>
      <trkpt lat="41.791344" lon="22.97694">
        <ele>1640.6</ele>
        <time>2026-05-06T13:46:02.000Z</time>
      </trkpt>
      <trkpt lat="41.791346" lon="22.976948">
        <ele>1639.5</ele>
        <time>2026-05-06T13:46:03.000Z</time>
      </trkpt>
      <trkpt lat="41.791347" lon="22.976955">
        <ele>1639.5</ele>
        <time>2026-05-06T13:46:04.000Z</time>
      </trkpt>
      <trkpt lat="41.791348" lon="22.976963">
        <ele>1639.5</ele>
        <time>2026-05-06T13:46:05.000Z</time>
      </trkpt>
      <trkpt lat="41.79135" lon="22.976971">
        <ele>1639.5</ele>
        <time>2026-05-06T13:46:06.000Z</time>
      </trkpt>
      <trkpt lat="41.79135" lon="22.976979">
        <ele>1639.5</ele>
        <time>2026-05-06T13:46:07.000Z</time>
      </trkpt>
      <trkpt lat="41.79135" lon="22.976988">
        <ele>1638.2</ele>
        <time>2026-05-06T13:46:08.000Z</time>
      </trkpt>
      <trkpt lat="41.791352" lon="22.976996">
        <ele>1638.2</ele>
        <time>2026-05-06T13:46:09.000Z</time>
      </trkpt>
      <trkpt lat="41.791352" lon="22.977005">
        <ele>1638.2</ele>
        <time>2026-05-06T13:46:10.000Z</time>
      </trkpt>
      <trkpt lat="41.791354" lon="22.977015">
        <ele>1638.2</ele>
        <time>2026-05-06T13:46:11.000Z</time>
      </trkpt>
      <trkpt lat="41.791356" lon="22.977025">
        <ele>1638.2</ele>
        <time>2026-05-06T13:46:12.000Z</time>
      </trkpt>
      <trkpt lat="41.791358" lon="22.977034">
        <ele>1637.4</ele>
        <time>2026-05-06T13:46:13.000Z</time>
      </trkpt>
      <trkpt lat="41.791359" lon="22.977044">
        <ele>1637.4</ele>
        <time>2026-05-06T13:46:14.000Z</time>
      </trkpt>
      <trkpt lat="41.791359" lon="22.977053">
        <ele>1637.4</ele>
        <time>2026-05-06T13:46:15.000Z</time>
      </trkpt>
      <trkpt lat="41.791357" lon="22.977061">
        <ele>1637.4</ele>
        <time>2026-05-06T13:46:16.000Z</time>
      </trkpt>
      <trkpt lat="41.791355" lon="22.977068">
        <ele>1637.4</ele>
        <time>2026-05-06T13:46:17.000Z</time>
      </trkpt>
      <trkpt lat="41.791353" lon="22.977073">
        <ele>1636</ele>
        <time>2026-05-06T13:46:18.000Z</time>
      </trkpt>
      <trkpt lat="41.791351" lon="22.977078">
        <ele>1636</ele>
        <time>2026-05-06T13:46:19.000Z</time>
      </trkpt>
      <trkpt lat="41.79135" lon="22.977083">
        <ele>1636</ele>
        <time>2026-05-06T13:46:20.000Z</time>
      </trkpt>
      <trkpt lat="41.791351" lon="22.977089">
        <ele>1636</ele>
        <time>2026-05-06T13:46:21.000Z</time>
      </trkpt>
      <trkpt lat="41.791352" lon="22.977097">
        <ele>1636</ele>
        <time>2026-05-06T13:46:22.000Z</time>
      </trkpt>
      <trkpt lat="41.791354" lon="22.977106">
        <ele>1634.7</ele>
        <time>2026-05-06T13:46:23.000Z</time>
      </trkpt>
      <trkpt lat="41.791356" lon="22.977114">
        <ele>1634.7</ele>
        <time>2026-05-06T13:46:24.000Z</time>
      </trkpt>
      <trkpt lat="41.791358" lon="22.977123">
        <ele>1634.7</ele>
        <time>2026-05-06T13:46:25.000Z</time>
      </trkpt>
      <trkpt lat="41.791359" lon="22.977131">
        <ele>1634.7</ele>
        <time>2026-05-06T13:46:26.000Z</time>
      </trkpt>
      <trkpt lat="41.791361" lon="22.977139">
        <ele>1634.7</ele>
        <time>2026-05-06T13:46:27.000Z</time>
      </trkpt>
      <trkpt lat="41.791361" lon="22.977145">
        <ele>1634</ele>
        <time>2026-05-06T13:46:28.000Z</time>
      </trkpt>
      <trkpt lat="41.791361" lon="22.977152">
        <ele>1634</ele>
        <time>2026-05-06T13:46:29.000Z</time>
      </trkpt>
      <trkpt lat="41.79136" lon="22.977157">
        <ele>1634</ele>
        <time>2026-05-06T13:46:30.000Z</time>
      </trkpt>
      <trkpt lat="41.791359" lon="22.977162">
        <ele>1634</ele>
        <time>2026-05-06T13:46:31.000Z</time>
      </trkpt>
      <trkpt lat="41.791357" lon="22.977168">
        <ele>1634</ele>
        <time>2026-05-06T13:46:32.000Z</time>
      </trkpt>
      <trkpt lat="41.791355" lon="22.977174">
        <ele>1632.7</ele>
        <time>2026-05-06T13:46:33.000Z</time>
      </trkpt>
      <trkpt lat="41.791352" lon="22.97718">
        <ele>1632.7</ele>
        <time>2026-05-06T13:46:34.000Z</time>
      </trkpt>
      <trkpt lat="41.791349" lon="22.977186">
        <ele>1632.7</ele>
        <time>2026-05-06T13:46:35.000Z</time>
      </trkpt>
      <trkpt lat="41.791346" lon="22.977191">
        <ele>1632.7</ele>
        <time>2026-05-06T13:46:36.000Z</time>
      </trkpt>
      <trkpt lat="41.791342" lon="22.977195">
        <ele>1632.7</ele>
        <time>2026-05-06T13:46:37.000Z</time>
      </trkpt>
      <trkpt lat="41.791338" lon="22.977199">
        <ele>1631.2</ele>
        <time>2026-05-06T13:46:38.000Z</time>
      </trkpt>
      <trkpt lat="41.791337" lon="22.977202">
        <ele>1631.2</ele>
        <time>2026-05-06T13:46:39.000Z</time>
      </trkpt>
      <trkpt lat="41.791336" lon="22.977205">
        <ele>1631.2</ele>
        <time>2026-05-06T13:46:40.000Z</time>
      </trkpt>
      <trkpt lat="41.791336" lon="22.977208">
        <ele>1631.2</ele>
        <time>2026-05-06T13:46:41.000Z</time>
      </trkpt>
      <trkpt lat="41.791335" lon="22.977213">
        <ele>1631.2</ele>
        <time>2026-05-06T13:46:42.000Z</time>
      </trkpt>
      <trkpt lat="41.791335" lon="22.977218">
        <ele>1630.4</ele>
        <time>2026-05-06T13:46:43.000Z</time>
      </trkpt>
      <trkpt lat="41.791332" lon="22.977224">
        <ele>1630.4</ele>
        <time>2026-05-06T13:46:44.000Z</time>
      </trkpt>
      <trkpt lat="41.791328" lon="22.977232">
        <ele>1630.4</ele>
        <time>2026-05-06T13:46:45.000Z</time>
      </trkpt>
      <trkpt lat="41.791324" lon="22.977239">
        <ele>1630.4</ele>
        <time>2026-05-06T13:46:46.000Z</time>
      </trkpt>
      <trkpt lat="41.79132" lon="22.977244">
        <ele>1630.4</ele>
        <time>2026-05-06T13:46:47.000Z</time>
      </trkpt>
      <trkpt lat="41.791317" lon="22.977248">
        <ele>1629.1</ele>
        <time>2026-05-06T13:46:48.000Z</time>
      </trkpt>
      <trkpt lat="41.791313" lon="22.977253">
        <ele>1629.1</ele>
        <time>2026-05-06T13:46:49.000Z</time>
      </trkpt>
      <trkpt lat="41.791311" lon="22.977257">
        <ele>1629.1</ele>
        <time>2026-05-06T13:46:50.000Z</time>
      </trkpt>
      <trkpt lat="41.791308" lon="22.977262">
        <ele>1629.1</ele>
        <time>2026-05-06T13:46:51.000Z</time>
      </trkpt>
      <trkpt lat="41.791303" lon="22.977268">
        <ele>1629.1</ele>
        <time>2026-05-06T13:46:52.000Z</time>
      </trkpt>
      <trkpt lat="41.791296" lon="22.977274">
        <ele>1628.5</ele>
        <time>2026-05-06T13:46:53.000Z</time>
      </trkpt>
      <trkpt lat="41.79129" lon="22.977279">
        <ele>1628.5</ele>
        <time>2026-05-06T13:46:54.000Z</time>
      </trkpt>
      <trkpt lat="41.791282" lon="22.977286">
        <ele>1628.5</ele>
        <time>2026-05-06T13:46:55.000Z</time>
      </trkpt>
      <trkpt lat="41.791275" lon="22.977294">
        <ele>1628.5</ele>
        <time>2026-05-06T13:46:56.000Z</time>
      </trkpt>
      <trkpt lat="41.791268" lon="22.977303">
        <ele>1628.5</ele>
        <time>2026-05-06T13:46:57.000Z</time>
      </trkpt>
      <trkpt lat="41.791262" lon="22.977314">
        <ele>1628.4</ele>
        <time>2026-05-06T13:46:58.000Z</time>
      </trkpt>
      <trkpt lat="41.791255" lon="22.977324">
        <ele>1628.4</ele>
        <time>2026-05-06T13:46:59.000Z</time>
      </trkpt>
      <trkpt lat="41.791249" lon="22.977333">
        <ele>1628.4</ele>
        <time>2026-05-06T13:47:00.000Z</time>
      </trkpt>
      <trkpt lat="41.791244" lon="22.977339">
        <ele>1628.4</ele>
        <time>2026-05-06T13:47:01.000Z</time>
      </trkpt>
      <trkpt lat="41.79124" lon="22.977345">
        <ele>1628.4</ele>
        <time>2026-05-06T13:47:02.000Z</time>
      </trkpt>
      <trkpt lat="41.791237" lon="22.977351">
        <ele>1628</ele>
        <time>2026-05-06T13:47:03.000Z</time>
      </trkpt>
      <trkpt lat="41.791235" lon="22.977356">
        <ele>1628</ele>
        <time>2026-05-06T13:47:04.000Z</time>
      </trkpt>
      <trkpt lat="41.791233" lon="22.977358">
        <ele>1628</ele>
        <time>2026-05-06T13:47:05.000Z</time>
      </trkpt>
      <trkpt lat="41.791232" lon="22.977362">
        <ele>1628</ele>
        <time>2026-05-06T13:47:06.000Z</time>
      </trkpt>
      <trkpt lat="41.791232" lon="22.977366">
        <ele>1628</ele>
        <time>2026-05-06T13:47:07.000Z</time>
      </trkpt>
      <trkpt lat="41.791232" lon="22.977369">
        <ele>1626.9</ele>
        <time>2026-05-06T13:47:08.000Z</time>
      </trkpt>
      <trkpt lat="41.791231" lon="22.977373">
        <ele>1626.9</ele>
        <time>2026-05-06T13:47:09.000Z</time>
      </trkpt>
      <trkpt lat="41.791231" lon="22.977379">
        <ele>1626.9</ele>
        <time>2026-05-06T13:47:10.000Z</time>
      </trkpt>
      <trkpt lat="41.791231" lon="22.977384">
        <ele>1626.9</ele>
        <time>2026-05-06T13:47:11.000Z</time>
      </trkpt>
      <trkpt lat="41.791232" lon="22.97739">
        <ele>1626.9</ele>
        <time>2026-05-06T13:47:12.000Z</time>
      </trkpt>
      <trkpt lat="41.791232" lon="22.977398">
        <ele>1626.3</ele>
        <time>2026-05-06T13:47:13.000Z</time>
      </trkpt>
      <trkpt lat="41.791233" lon="22.977405">
        <ele>1626.3</ele>
        <time>2026-05-06T13:47:14.000Z</time>
      </trkpt>
      <trkpt lat="41.791234" lon="22.977413">
        <ele>1626.3</ele>
        <time>2026-05-06T13:47:15.000Z</time>
      </trkpt>
      <trkpt lat="41.791235" lon="22.977422">
        <ele>1626.3</ele>
        <time>2026-05-06T13:47:16.000Z</time>
      </trkpt>
      <trkpt lat="41.791234" lon="22.977431">
        <ele>1626.3</ele>
        <time>2026-05-06T13:47:17.000Z</time>
      </trkpt>
      <trkpt lat="41.791233" lon="22.977437">
        <ele>1624.9</ele>
        <time>2026-05-06T13:47:18.000Z</time>
      </trkpt>
      <trkpt lat="41.791231" lon="22.977446">
        <ele>1624.9</ele>
        <time>2026-05-06T13:47:19.000Z</time>
      </trkpt>
      <trkpt lat="41.791229" lon="22.977456">
        <ele>1624.9</ele>
        <time>2026-05-06T13:47:20.000Z</time>
      </trkpt>
      <trkpt lat="41.791226" lon="22.977464">
        <ele>1624.9</ele>
        <time>2026-05-06T13:47:21.000Z</time>
      </trkpt>
      <trkpt lat="41.791224" lon="22.977472">
        <ele>1624.9</ele>
        <time>2026-05-06T13:47:22.000Z</time>
      </trkpt>
      <trkpt lat="41.791222" lon="22.977479">
        <ele>1623.5</ele>
        <time>2026-05-06T13:47:23.000Z</time>
      </trkpt>
      <trkpt lat="41.79122" lon="22.977485">
        <ele>1623.5</ele>
        <time>2026-05-06T13:47:24.000Z</time>
      </trkpt>
      <trkpt lat="41.791218" lon="22.977491">
        <ele>1623.5</ele>
        <time>2026-05-06T13:47:25.000Z</time>
      </trkpt>
      <trkpt lat="41.791216" lon="22.977498">
        <ele>1623.5</ele>
        <time>2026-05-06T13:47:26.000Z</time>
      </trkpt>
      <trkpt lat="41.791215" lon="22.977504">
        <ele>1623.5</ele>
        <time>2026-05-06T13:47:27.000Z</time>
      </trkpt>
      <trkpt lat="41.791214" lon="22.977509">
        <ele>1622.7</ele>
        <time>2026-05-06T13:47:28.000Z</time>
      </trkpt>
      <trkpt lat="41.791214" lon="22.977512">
        <ele>1622.7</ele>
        <time>2026-05-06T13:47:29.000Z</time>
      </trkpt>
      <trkpt lat="41.791215" lon="22.977515">
        <ele>1622.7</ele>
        <time>2026-05-06T13:47:30.000Z</time>
      </trkpt>
      <trkpt lat="41.791217" lon="22.977518">
        <ele>1622.7</ele>
        <time>2026-05-06T13:47:31.000Z</time>
      </trkpt>
      <trkpt lat="41.791219" lon="22.97752">
        <ele>1622.7</ele>
        <time>2026-05-06T13:47:32.000Z</time>
      </trkpt>
      <trkpt lat="41.791221" lon="22.977524">
        <ele>1620.9</ele>
        <time>2026-05-06T13:47:33.000Z</time>
      </trkpt>
      <trkpt lat="41.791222" lon="22.977528">
        <ele>1620.9</ele>
        <time>2026-05-06T13:47:34.000Z</time>
      </trkpt>
      <trkpt lat="41.791221" lon="22.977533">
        <ele>1620.9</ele>
        <time>2026-05-06T13:47:35.000Z</time>
      </trkpt>
      <trkpt lat="41.79122" lon="22.977539">
        <ele>1620.9</ele>
        <time>2026-05-06T13:47:36.000Z</time>
      </trkpt>
      <trkpt lat="41.791219" lon="22.977545">
        <ele>1620.9</ele>
        <time>2026-05-06T13:47:37.000Z</time>
      </trkpt>
      <trkpt lat="41.79122" lon="22.977551">
        <ele>1619.3</ele>
        <time>2026-05-06T13:47:38.000Z</time>
      </trkpt>
      <trkpt lat="41.791221" lon="22.977557">
        <ele>1619.3</ele>
        <time>2026-05-06T13:47:39.000Z</time>
      </trkpt>
      <trkpt lat="41.791224" lon="22.977562">
        <ele>1619.3</ele>
        <time>2026-05-06T13:47:40.000Z</time>
      </trkpt>
      <trkpt lat="41.791227" lon="22.977565">
        <ele>1619.3</ele>
        <time>2026-05-06T13:47:41.000Z</time>
      </trkpt>
      <trkpt lat="41.791228" lon="22.977569">
        <ele>1619.3</ele>
        <time>2026-05-06T13:47:42.000Z</time>
      </trkpt>
      <trkpt lat="41.791229" lon="22.977573">
        <ele>1618.6</ele>
        <time>2026-05-06T13:47:43.000Z</time>
      </trkpt>
      <trkpt lat="41.791229" lon="22.977577">
        <ele>1618.6</ele>
        <time>2026-05-06T13:47:44.000Z</time>
      </trkpt>
      <trkpt lat="41.791229" lon="22.977581">
        <ele>1618.6</ele>
        <time>2026-05-06T13:47:45.000Z</time>
      </trkpt>
      <trkpt lat="41.791229" lon="22.977586">
        <ele>1618.6</ele>
        <time>2026-05-06T13:47:46.000Z</time>
      </trkpt>
      <trkpt lat="41.79123" lon="22.97759">
        <ele>1618.6</ele>
        <time>2026-05-06T13:47:47.000Z</time>
      </trkpt>
      <trkpt lat="41.791232" lon="22.977595">
        <ele>1617.4</ele>
        <time>2026-05-06T13:47:48.000Z</time>
      </trkpt>
      <trkpt lat="41.791236" lon="22.977599">
        <ele>1617.4</ele>
        <time>2026-05-06T13:47:49.000Z</time>
      </trkpt>
      <trkpt lat="41.791238" lon="22.977603">
        <ele>1617.4</ele>
        <time>2026-05-06T13:47:50.000Z</time>
      </trkpt>
      <trkpt lat="41.79124" lon="22.977607">
        <ele>1617.4</ele>
        <time>2026-05-06T13:47:51.000Z</time>
      </trkpt>
      <trkpt lat="41.791242" lon="22.97761">
        <ele>1617.4</ele>
        <time>2026-05-06T13:47:52.000Z</time>
      </trkpt>
      <trkpt lat="41.791243" lon="22.977612">
        <ele>1616.4</ele>
        <time>2026-05-06T13:47:53.000Z</time>
      </trkpt>
      <trkpt lat="41.791246" lon="22.977614">
        <ele>1616.4</ele>
        <time>2026-05-06T13:47:54.000Z</time>
      </trkpt>
      <trkpt lat="41.791249" lon="22.977615">
        <ele>1616.4</ele>
        <time>2026-05-06T13:47:55.000Z</time>
      </trkpt>
      <trkpt lat="41.791253" lon="22.977616">
        <ele>1616.4</ele>
        <time>2026-05-06T13:47:56.000Z</time>
      </trkpt>
      <trkpt lat="41.791257" lon="22.977616">
        <ele>1616.4</ele>
        <time>2026-05-06T13:47:57.000Z</time>
      </trkpt>
      <trkpt lat="41.79126" lon="22.977615">
        <ele>1616</ele>
        <time>2026-05-06T13:47:58.000Z</time>
      </trkpt>
      <trkpt lat="41.791261" lon="22.977614">
        <ele>1616</ele>
        <time>2026-05-06T13:47:59.000Z</time>
      </trkpt>
      <trkpt lat="41.791261" lon="22.977612">
        <ele>1616</ele>
        <time>2026-05-06T13:48:00.000Z</time>
      </trkpt>
      <trkpt lat="41.791261" lon="22.977611">
        <ele>1616</ele>
        <time>2026-05-06T13:48:01.000Z</time>
      </trkpt>
      <trkpt lat="41.79126" lon="22.977609">
        <ele>1616</ele>
        <time>2026-05-06T13:48:02.000Z</time>
      </trkpt>
      <trkpt lat="41.79126" lon="22.977608">
        <ele>1615</ele>
        <time>2026-05-06T13:48:03.000Z</time>
      </trkpt>
      <trkpt lat="41.79126" lon="22.977607">
        <ele>1615</ele>
        <time>2026-05-06T13:48:04.000Z</time>
      </trkpt>
      <trkpt lat="41.79126" lon="22.977606">
        <ele>1615</ele>
        <time>2026-05-06T13:48:05.000Z</time>
      </trkpt>
      <trkpt lat="41.791261" lon="22.977606">
        <ele>1615</ele>
        <time>2026-05-06T13:48:06.000Z</time>
      </trkpt>
      <trkpt lat="41.791262" lon="22.977606">
        <ele>1615</ele>
        <time>2026-05-06T13:48:07.000Z</time>
      </trkpt>
      <trkpt lat="41.791264" lon="22.977607">
        <ele>1613.7</ele>
        <time>2026-05-06T13:48:08.000Z</time>
      </trkpt>
      <trkpt lat="41.791265" lon="22.977608">
        <ele>1613.7</ele>
        <time>2026-05-06T13:48:09.000Z</time>
      </trkpt>
      <trkpt lat="41.791267" lon="22.97761">
        <ele>1613.7</ele>
        <time>2026-05-06T13:48:10.000Z</time>
      </trkpt>
      <trkpt lat="41.79127" lon="22.977613">
        <ele>1613.7</ele>
        <time>2026-05-06T13:48:11.000Z</time>
      </trkpt>
      <trkpt lat="41.791272" lon="22.977614">
        <ele>1613.7</ele>
        <time>2026-05-06T13:48:12.000Z</time>
      </trkpt>
      <trkpt lat="41.791273" lon="22.977615">
        <ele>1613.3</ele>
        <time>2026-05-06T13:48:13.000Z</time>
      </trkpt>
      <trkpt lat="41.791274" lon="22.977616">
        <ele>1613.3</ele>
        <time>2026-05-06T13:48:14.000Z</time>
      </trkpt>
      <trkpt lat="41.791274" lon="22.977615">
        <ele>1613.3</ele>
        <time>2026-05-06T13:48:15.000Z</time>
      </trkpt>
      <trkpt lat="41.791274" lon="22.977614">
        <ele>1613.3</ele>
        <time>2026-05-06T13:48:16.000Z</time>
      </trkpt>
      <trkpt lat="41.791273" lon="22.977616">
        <ele>1613.3</ele>
        <time>2026-05-06T13:48:17.000Z</time>
      </trkpt>
      <trkpt lat="41.791275" lon="22.977618">
        <ele>1612.7</ele>
        <time>2026-05-06T13:48:18.000Z</time>
      </trkpt>
      <trkpt lat="41.791276" lon="22.977621">
        <ele>1612.7</ele>
        <time>2026-05-06T13:48:19.000Z</time>
      </trkpt>
      <trkpt lat="41.791278" lon="22.977626">
        <ele>1612.7</ele>
        <time>2026-05-06T13:48:20.000Z</time>
      </trkpt>
      <trkpt lat="41.791281" lon="22.977631">
        <ele>1612.7</ele>
        <time>2026-05-06T13:48:21.000Z</time>
      </trkpt>
      <trkpt lat="41.791284" lon="22.977635">
        <ele>1612.7</ele>
        <time>2026-05-06T13:48:22.000Z</time>
      </trkpt>
      <trkpt lat="41.791288" lon="22.977641">
        <ele>1612.3</ele>
        <time>2026-05-06T13:48:23.000Z</time>
      </trkpt>
      <trkpt lat="41.791292" lon="22.977647">
        <ele>1612.3</ele>
        <time>2026-05-06T13:48:24.000Z</time>
      </trkpt>
      <trkpt lat="41.791298" lon="22.977652">
        <ele>1612.3</ele>
        <time>2026-05-06T13:48:25.000Z</time>
      </trkpt>
      <trkpt lat="41.791304" lon="22.977658">
        <ele>1612.3</ele>
        <time>2026-05-06T13:48:26.000Z</time>
      </trkpt>
      <trkpt lat="41.79131" lon="22.977663">
        <ele>1612.3</ele>
        <time>2026-05-06T13:48:27.000Z</time>
      </trkpt>
      <trkpt lat="41.791316" lon="22.977666">
        <ele>1612</ele>
        <time>2026-05-06T13:48:28.000Z</time>
      </trkpt>
      <trkpt lat="41.791321" lon="22.977667">
        <ele>1612</ele>
        <time>2026-05-06T13:48:29.000Z</time>
      </trkpt>
      <trkpt lat="41.791326" lon="22.977668">
        <ele>1612</ele>
        <time>2026-05-06T13:48:30.000Z</time>
      </trkpt>
      <trkpt lat="41.791332" lon="22.977668">
        <ele>1612</ele>
        <time>2026-05-06T13:48:31.000Z</time>
      </trkpt>
      <trkpt lat="41.791338" lon="22.977667">
        <ele>1612</ele>
        <time>2026-05-06T13:48:32.000Z</time>
      </trkpt>
      <trkpt lat="41.791344" lon="22.977666">
        <ele>1611.1</ele>
        <time>2026-05-06T13:48:33.000Z</time>
      </trkpt>
      <trkpt lat="41.79135" lon="22.977664">
        <ele>1611.1</ele>
        <time>2026-05-06T13:48:34.000Z</time>
      </trkpt>
      <trkpt lat="41.791354" lon="22.977663">
        <ele>1611.1</ele>
        <time>2026-05-06T13:48:35.000Z</time>
      </trkpt>
      <trkpt lat="41.79136" lon="22.97766">
        <ele>1611.1</ele>
        <time>2026-05-06T13:48:36.000Z</time>
      </trkpt>
      <trkpt lat="41.791366" lon="22.977659">
        <ele>1611.1</ele>
        <time>2026-05-06T13:48:37.000Z</time>
      </trkpt>
      <trkpt lat="41.791372" lon="22.977658">
        <ele>1610.2</ele>
        <time>2026-05-06T13:48:38.000Z</time>
      </trkpt>
      <trkpt lat="41.791378" lon="22.977658">
        <ele>1610.2</ele>
        <time>2026-05-06T13:48:39.000Z</time>
      </trkpt>
      <trkpt lat="41.791385" lon="22.977657">
        <ele>1610.2</ele>
        <time>2026-05-06T13:48:40.000Z</time>
      </trkpt>
      <trkpt lat="41.791389" lon="22.977658">
        <ele>1610.2</ele>
        <time>2026-05-06T13:48:41.000Z</time>
      </trkpt>
      <trkpt lat="41.791391" lon="22.977658">
        <ele>1610.2</ele>
        <time>2026-05-06T13:48:42.000Z</time>
      </trkpt>
      <trkpt lat="41.791393" lon="22.977658">
        <ele>1609.8</ele>
        <time>2026-05-06T13:48:43.000Z</time>
      </trkpt>
      <trkpt lat="41.791393" lon="22.977657">
        <ele>1609.8</ele>
        <time>2026-05-06T13:48:44.000Z</time>
      </trkpt>
      <trkpt lat="41.791393" lon="22.977656">
        <ele>1609.8</ele>
        <time>2026-05-06T13:48:45.000Z</time>
      </trkpt>
      <trkpt lat="41.791392" lon="22.977654">
        <ele>1609.8</ele>
        <time>2026-05-06T13:48:46.000Z</time>
      </trkpt>
      <trkpt lat="41.791392" lon="22.977651">
        <ele>1609.8</ele>
        <time>2026-05-06T13:48:47.000Z</time>
      </trkpt>
      <trkpt lat="41.791393" lon="22.977647">
        <ele>1609.3</ele>
        <time>2026-05-06T13:48:48.000Z</time>
      </trkpt>
      <trkpt lat="41.791395" lon="22.977644">
        <ele>1609.3</ele>
        <time>2026-05-06T13:48:49.000Z</time>
      </trkpt>
      <trkpt lat="41.791397" lon="22.977643">
        <ele>1609.3</ele>
        <time>2026-05-06T13:48:50.000Z</time>
      </trkpt>
      <trkpt lat="41.791399" lon="22.97764">
        <ele>1609.3</ele>
        <time>2026-05-06T13:48:51.000Z</time>
      </trkpt>
      <trkpt lat="41.791401" lon="22.977639">
        <ele>1609.3</ele>
        <time>2026-05-06T13:48:52.000Z</time>
      </trkpt>
      <trkpt lat="41.791405" lon="22.977638">
        <ele>1609.1</ele>
        <time>2026-05-06T13:48:53.000Z</time>
      </trkpt>
      <trkpt lat="41.791408" lon="22.977638">
        <ele>1609.1</ele>
        <time>2026-05-06T13:48:54.000Z</time>
      </trkpt>
      <trkpt lat="41.791412" lon="22.977637">
        <ele>1609.1</ele>
        <time>2026-05-06T13:48:55.000Z</time>
      </trkpt>
      <trkpt lat="41.791418" lon="22.977638">
        <ele>1609.1</ele>
        <time>2026-05-06T13:48:56.000Z</time>
      </trkpt>
      <trkpt lat="41.791425" lon="22.97764">
        <ele>1609.1</ele>
        <time>2026-05-06T13:48:57.000Z</time>
      </trkpt>
      <trkpt lat="41.791431" lon="22.977643">
        <ele>1609</ele>
        <time>2026-05-06T13:48:58.000Z</time>
      </trkpt>
      <trkpt lat="41.791437" lon="22.977647">
        <ele>1609</ele>
        <time>2026-05-06T13:48:59.000Z</time>
      </trkpt>
      <trkpt lat="41.791442" lon="22.97765">
        <ele>1609</ele>
        <time>2026-05-06T13:49:00.000Z</time>
      </trkpt>
      <trkpt lat="41.791446" lon="22.977653">
        <ele>1609</ele>
        <time>2026-05-06T13:49:01.000Z</time>
      </trkpt>
      <trkpt lat="41.791449" lon="22.977655">
        <ele>1609</ele>
        <time>2026-05-06T13:49:02.000Z</time>
      </trkpt>
      <trkpt lat="41.791452" lon="22.977657">
        <ele>1608.6</ele>
        <time>2026-05-06T13:49:03.000Z</time>
      </trkpt>
      <trkpt lat="41.791455" lon="22.977659">
        <ele>1608.6</ele>
        <time>2026-05-06T13:49:04.000Z</time>
      </trkpt>
      <trkpt lat="41.791459" lon="22.977663">
        <ele>1608.6</ele>
        <time>2026-05-06T13:49:05.000Z</time>
      </trkpt>
      <trkpt lat="41.791464" lon="22.977668">
        <ele>1608.6</ele>
        <time>2026-05-06T13:49:06.000Z</time>
      </trkpt>
      <trkpt lat="41.79147" lon="22.977674">
        <ele>1608.6</ele>
        <time>2026-05-06T13:49:07.000Z</time>
      </trkpt>
      <trkpt lat="41.791475" lon="22.977681">
        <ele>1607.8</ele>
        <time>2026-05-06T13:49:08.000Z</time>
      </trkpt>
      <trkpt lat="41.791479" lon="22.977687">
        <ele>1607.8</ele>
        <time>2026-05-06T13:49:09.000Z</time>
      </trkpt>
      <trkpt lat="41.791484" lon="22.977693">
        <ele>1607.8</ele>
        <time>2026-05-06T13:49:10.000Z</time>
      </trkpt>
      <trkpt lat="41.791489" lon="22.977697">
        <ele>1607.8</ele>
        <time>2026-05-06T13:49:11.000Z</time>
      </trkpt>
      <trkpt lat="41.791493" lon="22.9777">
        <ele>1607.8</ele>
        <time>2026-05-06T13:49:12.000Z</time>
      </trkpt>
      <trkpt lat="41.791498" lon="22.977701">
        <ele>1607.4</ele>
        <time>2026-05-06T13:49:13.000Z</time>
      </trkpt>
      <trkpt lat="41.791504" lon="22.977702">
        <ele>1607.4</ele>
        <time>2026-05-06T13:49:14.000Z</time>
      </trkpt>
      <trkpt lat="41.791509" lon="22.977701">
        <ele>1607.4</ele>
        <time>2026-05-06T13:49:15.000Z</time>
      </trkpt>
      <trkpt lat="41.791515" lon="22.977699">
        <ele>1607.4</ele>
        <time>2026-05-06T13:49:16.000Z</time>
      </trkpt>
      <trkpt lat="41.791523" lon="22.977698">
        <ele>1607.4</ele>
        <time>2026-05-06T13:49:17.000Z</time>
      </trkpt>
      <trkpt lat="41.79153" lon="22.977696">
        <ele>1606.4</ele>
        <time>2026-05-06T13:49:18.000Z</time>
      </trkpt>
      <trkpt lat="41.791539" lon="22.977691">
        <ele>1606.4</ele>
        <time>2026-05-06T13:49:19.000Z</time>
      </trkpt>
      <trkpt lat="41.791549" lon="22.977686">
        <ele>1606.4</ele>
        <time>2026-05-06T13:49:20.000Z</time>
      </trkpt>
      <trkpt lat="41.79156" lon="22.977682">
        <ele>1606.4</ele>
        <time>2026-05-06T13:49:21.000Z</time>
      </trkpt>
      <trkpt lat="41.791571" lon="22.977677">
        <ele>1606.4</ele>
        <time>2026-05-06T13:49:22.000Z</time>
      </trkpt>
      <trkpt lat="41.791581" lon="22.977675">
        <ele>1605.4</ele>
        <time>2026-05-06T13:49:23.000Z</time>
      </trkpt>
      <trkpt lat="41.791588" lon="22.977677">
        <ele>1605.4</ele>
        <time>2026-05-06T13:49:24.000Z</time>
      </trkpt>
      <trkpt lat="41.791595" lon="22.977679">
        <ele>1605.4</ele>
        <time>2026-05-06T13:49:25.000Z</time>
      </trkpt>
      <trkpt lat="41.791602" lon="22.977684">
        <ele>1605.4</ele>
        <time>2026-05-06T13:49:26.000Z</time>
      </trkpt>
      <trkpt lat="41.791608" lon="22.977688">
        <ele>1605.4</ele>
        <time>2026-05-06T13:49:27.000Z</time>
      </trkpt>
      <trkpt lat="41.791613" lon="22.977691">
        <ele>1604.8</ele>
        <time>2026-05-06T13:49:28.000Z</time>
      </trkpt>
      <trkpt lat="41.79162" lon="22.977694">
        <ele>1604.8</ele>
        <time>2026-05-06T13:49:29.000Z</time>
      </trkpt>
      <trkpt lat="41.791626" lon="22.977697">
        <ele>1604.8</ele>
        <time>2026-05-06T13:49:30.000Z</time>
      </trkpt>
      <trkpt lat="41.791633" lon="22.9777">
        <ele>1604.8</ele>
        <time>2026-05-06T13:49:31.000Z</time>
      </trkpt>
      <trkpt lat="41.791641" lon="22.977703">
        <ele>1604.8</ele>
        <time>2026-05-06T13:49:32.000Z</time>
      </trkpt>
      <trkpt lat="41.791651" lon="22.977706">
        <ele>1603.7</ele>
        <time>2026-05-06T13:49:33.000Z</time>
      </trkpt>
      <trkpt lat="41.79166" lon="22.977709">
        <ele>1603.7</ele>
        <time>2026-05-06T13:49:34.000Z</time>
      </trkpt>
      <trkpt lat="41.791668" lon="22.977712">
        <ele>1603.7</ele>
        <time>2026-05-06T13:49:35.000Z</time>
      </trkpt>
      <trkpt lat="41.791676" lon="22.977714">
        <ele>1603.7</ele>
        <time>2026-05-06T13:49:36.000Z</time>
      </trkpt>
      <trkpt lat="41.791684" lon="22.977717">
        <ele>1603.7</ele>
        <time>2026-05-06T13:49:37.000Z</time>
      </trkpt>
      <trkpt lat="41.791691" lon="22.977721">
        <ele>1602.4</ele>
        <time>2026-05-06T13:49:38.000Z</time>
      </trkpt>
      <trkpt lat="41.791699" lon="22.977725">
        <ele>1602.4</ele>
        <time>2026-05-06T13:49:39.000Z</time>
      </trkpt>
      <trkpt lat="41.791708" lon="22.977729">
        <ele>1602.4</ele>
        <time>2026-05-06T13:49:40.000Z</time>
      </trkpt>
      <trkpt lat="41.791715" lon="22.977733">
        <ele>1602.4</ele>
        <time>2026-05-06T13:49:41.000Z</time>
      </trkpt>
      <trkpt lat="41.791724" lon="22.977738">
        <ele>1602.4</ele>
        <time>2026-05-06T13:49:42.000Z</time>
      </trkpt>
      <trkpt lat="41.791731" lon="22.977741">
        <ele>1601.7</ele>
        <time>2026-05-06T13:49:43.000Z</time>
      </trkpt>
      <trkpt lat="41.791738" lon="22.977745">
        <ele>1601.7</ele>
        <time>2026-05-06T13:49:44.000Z</time>
      </trkpt>
      <trkpt lat="41.791744" lon="22.97775">
        <ele>1601.7</ele>
        <time>2026-05-06T13:49:45.000Z</time>
      </trkpt>
      <trkpt lat="41.791749" lon="22.977752">
        <ele>1601.7</ele>
        <time>2026-05-06T13:49:46.000Z</time>
      </trkpt>
      <trkpt lat="41.791752" lon="22.977755">
        <ele>1601.7</ele>
        <time>2026-05-06T13:49:47.000Z</time>
      </trkpt>
      <trkpt lat="41.791756" lon="22.977756">
        <ele>1600.2</ele>
        <time>2026-05-06T13:49:48.000Z</time>
      </trkpt>
      <trkpt lat="41.791762" lon="22.977757">
        <ele>1600.2</ele>
        <time>2026-05-06T13:49:49.000Z</time>
      </trkpt>
      <trkpt lat="41.791769" lon="22.977757">
        <ele>1600.2</ele>
        <time>2026-05-06T13:49:50.000Z</time>
      </trkpt>
      <trkpt lat="41.791777" lon="22.977758">
        <ele>1600.2</ele>
        <time>2026-05-06T13:49:51.000Z</time>
      </trkpt>
      <trkpt lat="41.791786" lon="22.977758">
        <ele>1600.2</ele>
        <time>2026-05-06T13:49:52.000Z</time>
      </trkpt>
      <trkpt lat="41.791794" lon="22.977758">
        <ele>1599</ele>
        <time>2026-05-06T13:49:53.000Z</time>
      </trkpt>
      <trkpt lat="41.791801" lon="22.97776">
        <ele>1599</ele>
        <time>2026-05-06T13:49:54.000Z</time>
      </trkpt>
      <trkpt lat="41.791807" lon="22.977764">
        <ele>1599</ele>
        <time>2026-05-06T13:49:55.000Z</time>
      </trkpt>
      <trkpt lat="41.79181" lon="22.977769">
        <ele>1599</ele>
        <time>2026-05-06T13:49:56.000Z</time>
      </trkpt>
      <trkpt lat="41.791812" lon="22.977776">
        <ele>1599</ele>
        <time>2026-05-06T13:49:57.000Z</time>
      </trkpt>
      <trkpt lat="41.791814" lon="22.977784">
        <ele>1598.3</ele>
        <time>2026-05-06T13:49:58.000Z</time>
      </trkpt>
      <trkpt lat="41.791815" lon="22.977791">
        <ele>1598.3</ele>
        <time>2026-05-06T13:49:59.000Z</time>
      </trkpt>
      <trkpt lat="41.791817" lon="22.977796">
        <ele>1598.3</ele>
        <time>2026-05-06T13:50:00.000Z</time>
      </trkpt>
      <trkpt lat="41.79182" lon="22.9778">
        <ele>1598.3</ele>
        <time>2026-05-06T13:50:01.000Z</time>
      </trkpt>
      <trkpt lat="41.791825" lon="22.977801">
        <ele>1598.3</ele>
        <time>2026-05-06T13:50:02.000Z</time>
      </trkpt>
      <trkpt lat="41.791829" lon="22.977803">
        <ele>1597.1</ele>
        <time>2026-05-06T13:50:03.000Z</time>
      </trkpt>
      <trkpt lat="41.791835" lon="22.977805">
        <ele>1597.1</ele>
        <time>2026-05-06T13:50:04.000Z</time>
      </trkpt>
      <trkpt lat="41.791839" lon="22.977808">
        <ele>1597.1</ele>
        <time>2026-05-06T13:50:05.000Z</time>
      </trkpt>
      <trkpt lat="41.791845" lon="22.97781">
        <ele>1597.1</ele>
        <time>2026-05-06T13:50:06.000Z</time>
      </trkpt>
      <trkpt lat="41.79185" lon="22.977812">
        <ele>1597.1</ele>
        <time>2026-05-06T13:50:07.000Z</time>
      </trkpt>
      <trkpt lat="41.791856" lon="22.977815">
        <ele>1595.9</ele>
        <time>2026-05-06T13:50:08.000Z</time>
      </trkpt>
      <trkpt lat="41.791862" lon="22.977816">
        <ele>1595.9</ele>
        <time>2026-05-06T13:50:09.000Z</time>
      </trkpt>
      <trkpt lat="41.791868" lon="22.977817">
        <ele>1595.9</ele>
        <time>2026-05-06T13:50:10.000Z</time>
      </trkpt>
      <trkpt lat="41.791875" lon="22.977819">
        <ele>1595.9</ele>
        <time>2026-05-06T13:50:11.000Z</time>
      </trkpt>
      <trkpt lat="41.791882" lon="22.977823">
        <ele>1595.9</ele>
        <time>2026-05-06T13:50:12.000Z</time>
      </trkpt>
      <trkpt lat="41.791888" lon="22.977827">
        <ele>1595.4</ele>
        <time>2026-05-06T13:50:13.000Z</time>
      </trkpt>
      <trkpt lat="41.791894" lon="22.977834">
        <ele>1595.4</ele>
        <time>2026-05-06T13:50:14.000Z</time>
      </trkpt>
      <trkpt lat="41.791898" lon="22.977842">
        <ele>1595.4</ele>
        <time>2026-05-06T13:50:15.000Z</time>
      </trkpt>
      <trkpt lat="41.791899" lon="22.97785">
        <ele>1595.4</ele>
        <time>2026-05-06T13:50:16.000Z</time>
      </trkpt>
      <trkpt lat="41.791901" lon="22.977857">
        <ele>1595.4</ele>
        <time>2026-05-06T13:50:17.000Z</time>
      </trkpt>
      <trkpt lat="41.791903" lon="22.977863">
        <ele>1594.4</ele>
        <time>2026-05-06T13:50:18.000Z</time>
      </trkpt>
      <trkpt lat="41.791904" lon="22.977865">
        <ele>1594.4</ele>
        <time>2026-05-06T13:50:19.000Z</time>
      </trkpt>
      <trkpt lat="41.791905" lon="22.977866">
        <ele>1594.4</ele>
        <time>2026-05-06T13:50:20.000Z</time>
      </trkpt>
      <trkpt lat="41.791906" lon="22.977866">
        <ele>1594.4</ele>
        <time>2026-05-06T13:50:21.000Z</time>
      </trkpt>
      <trkpt lat="41.791905" lon="22.977864">
        <ele>1594.4</ele>
        <time>2026-05-06T13:50:22.000Z</time>
      </trkpt>
      <trkpt lat="41.791904" lon="22.977863">
        <ele>1593.3</ele>
        <time>2026-05-06T13:50:23.000Z</time>
      </trkpt>
      <trkpt lat="41.791903" lon="22.977863">
        <ele>1593.3</ele>
        <time>2026-05-06T13:50:24.000Z</time>
      </trkpt>
      <trkpt lat="41.791904" lon="22.977864">
        <ele>1593.3</ele>
        <time>2026-05-06T13:50:25.000Z</time>
      </trkpt>
      <trkpt lat="41.791906" lon="22.977867">
        <ele>1593.3</ele>
        <time>2026-05-06T13:50:26.000Z</time>
      </trkpt>
      <trkpt lat="41.79191" lon="22.977871">
        <ele>1593.3</ele>
        <time>2026-05-06T13:50:27.000Z</time>
      </trkpt>
      <trkpt lat="41.791915" lon="22.977875">
        <ele>1592.9</ele>
        <time>2026-05-06T13:50:28.000Z</time>
      </trkpt>
      <trkpt lat="41.791923" lon="22.97788">
        <ele>1592.9</ele>
        <time>2026-05-06T13:50:29.000Z</time>
      </trkpt>
      <trkpt lat="41.79193" lon="22.977884">
        <ele>1592.9</ele>
        <time>2026-05-06T13:50:30.000Z</time>
      </trkpt>
      <trkpt lat="41.791937" lon="22.977888">
        <ele>1592.9</ele>
        <time>2026-05-06T13:50:31.000Z</time>
      </trkpt>
      <trkpt lat="41.791944" lon="22.977892">
        <ele>1592.9</ele>
        <time>2026-05-06T13:50:32.000Z</time>
      </trkpt>
      <trkpt lat="41.79195" lon="22.977897">
        <ele>1592</ele>
        <time>2026-05-06T13:50:33.000Z</time>
      </trkpt>
      <trkpt lat="41.791956" lon="22.977902">
        <ele>1592</ele>
        <time>2026-05-06T13:50:34.000Z</time>
      </trkpt>
      <trkpt lat="41.791963" lon="22.977906">
        <ele>1592</ele>
        <time>2026-05-06T13:50:35.000Z</time>
      </trkpt>
      <trkpt lat="41.79197" lon="22.977911">
        <ele>1592</ele>
        <time>2026-05-06T13:50:36.000Z</time>
      </trkpt>
      <trkpt lat="41.791978" lon="22.977914">
        <ele>1592</ele>
        <time>2026-05-06T13:50:37.000Z</time>
      </trkpt>
      <trkpt lat="41.791986" lon="22.977915">
        <ele>1590.9</ele>
        <time>2026-05-06T13:50:38.000Z</time>
      </trkpt>
      <trkpt lat="41.791993" lon="22.977915">
        <ele>1590.9</ele>
        <time>2026-05-06T13:50:39.000Z</time>
      </trkpt>
      <trkpt lat="41.791999" lon="22.977916">
        <ele>1590.9</ele>
        <time>2026-05-06T13:50:40.000Z</time>
      </trkpt>
      <trkpt lat="41.792004" lon="22.977917">
        <ele>1590.9</ele>
        <time>2026-05-06T13:50:41.000Z</time>
      </trkpt>
      <trkpt lat="41.792008" lon="22.97792">
        <ele>1590.9</ele>
        <time>2026-05-06T13:50:42.000Z</time>
      </trkpt>
      <trkpt lat="41.792011" lon="22.977922">
        <ele>1590.2</ele>
        <time>2026-05-06T13:50:43.000Z</time>
      </trkpt>
      <trkpt lat="41.792015" lon="22.977926">
        <ele>1590.2</ele>
        <time>2026-05-06T13:50:44.000Z</time>
      </trkpt>
      <trkpt lat="41.79202" lon="22.977932">
        <ele>1590.2</ele>
        <time>2026-05-06T13:50:45.000Z</time>
      </trkpt>
      <trkpt lat="41.792025" lon="22.977938">
        <ele>1590.2</ele>
        <time>2026-05-06T13:50:46.000Z</time>
      </trkpt>
      <trkpt lat="41.79203" lon="22.977945">
        <ele>1590.2</ele>
        <time>2026-05-06T13:50:47.000Z</time>
      </trkpt>
      <trkpt lat="41.792035" lon="22.977952">
        <ele>1588.5</ele>
        <time>2026-05-06T13:50:48.000Z</time>
      </trkpt>
      <trkpt lat="41.792041" lon="22.977959">
        <ele>1588.5</ele>
        <time>2026-05-06T13:50:49.000Z</time>
      </trkpt>
      <trkpt lat="41.792047" lon="22.977964">
        <ele>1588.5</ele>
        <time>2026-05-06T13:50:50.000Z</time>
      </trkpt>
      <trkpt lat="41.792053" lon="22.977966">
        <ele>1588.5</ele>
        <time>2026-05-06T13:50:51.000Z</time>
      </trkpt>
      <trkpt lat="41.792061" lon="22.977969">
        <ele>1588.5</ele>
        <time>2026-05-06T13:50:52.000Z</time>
      </trkpt>
      <trkpt lat="41.79207" lon="22.97797">
        <ele>1586.8</ele>
        <time>2026-05-06T13:50:53.000Z</time>
      </trkpt>
      <trkpt lat="41.792078" lon="22.97797">
        <ele>1586.8</ele>
        <time>2026-05-06T13:50:54.000Z</time>
      </trkpt>
      <trkpt lat="41.792087" lon="22.977971">
        <ele>1586.8</ele>
        <time>2026-05-06T13:50:55.000Z</time>
      </trkpt>
      <trkpt lat="41.792096" lon="22.977972">
        <ele>1586.8</ele>
        <time>2026-05-06T13:50:56.000Z</time>
      </trkpt>
      <trkpt lat="41.792102" lon="22.977973">
        <ele>1586.8</ele>
        <time>2026-05-06T13:50:57.000Z</time>
      </trkpt>
      <trkpt lat="41.792107" lon="22.977972">
        <ele>1586</ele>
        <time>2026-05-06T13:50:58.000Z</time>
      </trkpt>
      <trkpt lat="41.792112" lon="22.977968">
        <ele>1586</ele>
        <time>2026-05-06T13:50:59.000Z</time>
      </trkpt>
      <trkpt lat="41.792119" lon="22.977965">
        <ele>1586</ele>
        <time>2026-05-06T13:51:00.000Z</time>
      </trkpt>
      <trkpt lat="41.792125" lon="22.977961">
        <ele>1586</ele>
        <time>2026-05-06T13:51:01.000Z</time>
      </trkpt>
      <trkpt lat="41.792131" lon="22.97796">
        <ele>1586</ele>
        <time>2026-05-06T13:51:02.000Z</time>
      </trkpt>
      <trkpt lat="41.792137" lon="22.97796">
        <ele>1584.4</ele>
        <time>2026-05-06T13:51:03.000Z</time>
      </trkpt>
      <trkpt lat="41.792143" lon="22.977963">
        <ele>1584.4</ele>
        <time>2026-05-06T13:51:04.000Z</time>
      </trkpt>
      <trkpt lat="41.792147" lon="22.977967">
        <ele>1584.4</ele>
        <time>2026-05-06T13:51:05.000Z</time>
      </trkpt>
      <trkpt lat="41.79215" lon="22.97797">
        <ele>1584.4</ele>
        <time>2026-05-06T13:51:06.000Z</time>
      </trkpt>
      <trkpt lat="41.792154" lon="22.97797">
        <ele>1584.4</ele>
        <time>2026-05-06T13:51:07.000Z</time>
      </trkpt>
      <trkpt lat="41.79216" lon="22.977967">
        <ele>1583.1</ele>
        <time>2026-05-06T13:51:08.000Z</time>
      </trkpt>
      <trkpt lat="41.792166" lon="22.977963">
        <ele>1583.1</ele>
        <time>2026-05-06T13:51:09.000Z</time>
      </trkpt>
      <trkpt lat="41.792173" lon="22.977959">
        <ele>1583.1</ele>
        <time>2026-05-06T13:51:10.000Z</time>
      </trkpt>
      <trkpt lat="41.79218" lon="22.977957">
        <ele>1583.1</ele>
        <time>2026-05-06T13:51:11.000Z</time>
      </trkpt>
      <trkpt lat="41.792188" lon="22.977957">
        <ele>1583.1</ele>
        <time>2026-05-06T13:51:12.000Z</time>
      </trkpt>
      <trkpt lat="41.792194" lon="22.977961">
        <ele>1582.4</ele>
        <time>2026-05-06T13:51:13.000Z</time>
      </trkpt>
      <trkpt lat="41.792198" lon="22.977967">
        <ele>1582.4</ele>
        <time>2026-05-06T13:51:14.000Z</time>
      </trkpt>
      <trkpt lat="41.792201" lon="22.977974">
        <ele>1582.4</ele>
        <time>2026-05-06T13:51:15.000Z</time>
      </trkpt>
      <trkpt lat="41.792203" lon="22.977981">
        <ele>1582.4</ele>
        <time>2026-05-06T13:51:16.000Z</time>
      </trkpt>
      <trkpt lat="41.792206" lon="22.977988">
        <ele>1582.4</ele>
        <time>2026-05-06T13:51:17.000Z</time>
      </trkpt>
      <trkpt lat="41.792209" lon="22.977994">
        <ele>1581</ele>
        <time>2026-05-06T13:51:18.000Z</time>
      </trkpt>
      <trkpt lat="41.792212" lon="22.977998">
        <ele>1581</ele>
        <time>2026-05-06T13:51:19.000Z</time>
      </trkpt>
      <trkpt lat="41.792216" lon="22.978003">
        <ele>1581</ele>
        <time>2026-05-06T13:51:20.000Z</time>
      </trkpt>
      <trkpt lat="41.792219" lon="22.978006">
        <ele>1581</ele>
        <time>2026-05-06T13:51:21.000Z</time>
      </trkpt>
      <trkpt lat="41.792221" lon="22.978007">
        <ele>1581</ele>
        <time>2026-05-06T13:51:22.000Z</time>
      </trkpt>
      <trkpt lat="41.792223" lon="22.978009">
        <ele>1579.6</ele>
        <time>2026-05-06T13:51:23.000Z</time>
      </trkpt>
      <trkpt lat="41.792226" lon="22.97801">
        <ele>1579.6</ele>
        <time>2026-05-06T13:51:24.000Z</time>
      </trkpt>
      <trkpt lat="41.792229" lon="22.978011">
        <ele>1579.6</ele>
        <time>2026-05-06T13:51:25.000Z</time>
      </trkpt>
      <trkpt lat="41.792236" lon="22.978012">
        <ele>1579.6</ele>
        <time>2026-05-06T13:51:26.000Z</time>
      </trkpt>
      <trkpt lat="41.792243" lon="22.978012">
        <ele>1579.6</ele>
        <time>2026-05-06T13:51:27.000Z</time>
      </trkpt>
      <trkpt lat="41.792251" lon="22.978013">
        <ele>1578.9</ele>
        <time>2026-05-06T13:51:28.000Z</time>
      </trkpt>
      <trkpt lat="41.792259" lon="22.978015">
        <ele>1578.9</ele>
        <time>2026-05-06T13:51:29.000Z</time>
      </trkpt>
      <trkpt lat="41.792266" lon="22.978018">
        <ele>1578.9</ele>
        <time>2026-05-06T13:51:30.000Z</time>
      </trkpt>
      <trkpt lat="41.792272" lon="22.978024">
        <ele>1578.9</ele>
        <time>2026-05-06T13:51:31.000Z</time>
      </trkpt>
      <trkpt lat="41.792276" lon="22.978032">
        <ele>1578.9</ele>
        <time>2026-05-06T13:51:32.000Z</time>
      </trkpt>
      <trkpt lat="41.792278" lon="22.978041">
        <ele>1577.7</ele>
        <time>2026-05-06T13:51:33.000Z</time>
      </trkpt>
      <trkpt lat="41.79228" lon="22.978049">
        <ele>1577.7</ele>
        <time>2026-05-06T13:51:34.000Z</time>
      </trkpt>
      <trkpt lat="41.792281" lon="22.978055">
        <ele>1577.7</ele>
        <time>2026-05-06T13:51:35.000Z</time>
      </trkpt>
      <trkpt lat="41.792282" lon="22.978058">
        <ele>1577.7</ele>
        <time>2026-05-06T13:51:36.000Z</time>
      </trkpt>
      <trkpt lat="41.792283" lon="22.97806">
        <ele>1577.7</ele>
        <time>2026-05-06T13:51:37.000Z</time>
      </trkpt>
      <trkpt lat="41.792285" lon="22.978061">
        <ele>1576.6</ele>
        <time>2026-05-06T13:51:38.000Z</time>
      </trkpt>
      <trkpt lat="41.792286" lon="22.978061">
        <ele>1576.6</ele>
        <time>2026-05-06T13:51:39.000Z</time>
      </trkpt>
      <trkpt lat="41.792289" lon="22.978062">
        <ele>1576.6</ele>
        <time>2026-05-06T13:51:40.000Z</time>
      </trkpt>
      <trkpt lat="41.792292" lon="22.978062">
        <ele>1576.6</ele>
        <time>2026-05-06T13:51:41.000Z</time>
      </trkpt>
      <trkpt lat="41.792295" lon="22.978061">
        <ele>1576.6</ele>
        <time>2026-05-06T13:51:42.000Z</time>
      </trkpt>
      <trkpt lat="41.792298" lon="22.978057">
        <ele>1576</ele>
        <time>2026-05-06T13:51:43.000Z</time>
      </trkpt>
      <trkpt lat="41.792303" lon="22.978053">
        <ele>1576</ele>
        <time>2026-05-06T13:51:44.000Z</time>
      </trkpt>
      <trkpt lat="41.792309" lon="22.978046">
        <ele>1576</ele>
        <time>2026-05-06T13:51:45.000Z</time>
      </trkpt>
      <trkpt lat="41.792313" lon="22.978038">
        <ele>1576</ele>
        <time>2026-05-06T13:51:46.000Z</time>
      </trkpt>
      <trkpt lat="41.792317" lon="22.97803">
        <ele>1576</ele>
        <time>2026-05-06T13:51:47.000Z</time>
      </trkpt>
      <trkpt lat="41.79232" lon="22.978023">
        <ele>1575</ele>
        <time>2026-05-06T13:51:48.000Z</time>
      </trkpt>
      <trkpt lat="41.792322" lon="22.978017">
        <ele>1575</ele>
        <time>2026-05-06T13:51:49.000Z</time>
      </trkpt>
      <trkpt lat="41.792322" lon="22.978013">
        <ele>1575</ele>
        <time>2026-05-06T13:51:50.000Z</time>
      </trkpt>
      <trkpt lat="41.792322" lon="22.978012">
        <ele>1575</ele>
        <time>2026-05-06T13:51:51.000Z</time>
      </trkpt>
      <trkpt lat="41.792325" lon="22.978013">
        <ele>1575</ele>
        <time>2026-05-06T13:51:52.000Z</time>
      </trkpt>
      <trkpt lat="41.792328" lon="22.978017">
        <ele>1574</ele>
        <time>2026-05-06T13:51:53.000Z</time>
      </trkpt>
      <trkpt lat="41.792331" lon="22.978023">
        <ele>1574</ele>
        <time>2026-05-06T13:51:54.000Z</time>
      </trkpt>
      <trkpt lat="41.792334" lon="22.97803">
        <ele>1574</ele>
        <time>2026-05-06T13:51:55.000Z</time>
      </trkpt>
      <trkpt lat="41.792337" lon="22.978037">
        <ele>1574</ele>
        <time>2026-05-06T13:51:56.000Z</time>
      </trkpt>
      <trkpt lat="41.792337" lon="22.978042">
        <ele>1574</ele>
        <time>2026-05-06T13:51:57.000Z</time>
      </trkpt>
      <trkpt lat="41.792339" lon="22.978045">
        <ele>1573.6</ele>
        <time>2026-05-06T13:51:58.000Z</time>
      </trkpt>
      <trkpt lat="41.792342" lon="22.978047">
        <ele>1573.6</ele>
        <time>2026-05-06T13:51:59.000Z</time>
      </trkpt>
      <trkpt lat="41.792346" lon="22.978047">
        <ele>1573.6</ele>
        <time>2026-05-06T13:52:00.000Z</time>
      </trkpt>
      <trkpt lat="41.792351" lon="22.978045">
        <ele>1573.6</ele>
        <time>2026-05-06T13:52:01.000Z</time>
      </trkpt>
      <trkpt lat="41.792358" lon="22.978043">
        <ele>1573.6</ele>
        <time>2026-05-06T13:52:02.000Z</time>
      </trkpt>
      <trkpt lat="41.792364" lon="22.978039">
        <ele>1572.9</ele>
        <time>2026-05-06T13:52:03.000Z</time>
      </trkpt>
      <trkpt lat="41.792368" lon="22.978035">
        <ele>1572.9</ele>
        <time>2026-05-06T13:52:04.000Z</time>
      </trkpt>
      <trkpt lat="41.792373" lon="22.978031">
        <ele>1572.9</ele>
        <time>2026-05-06T13:52:05.000Z</time>
      </trkpt>
      <trkpt lat="41.792377" lon="22.978029">
        <ele>1572.9</ele>
        <time>2026-05-06T13:52:06.000Z</time>
      </trkpt>
      <trkpt lat="41.79238" lon="22.978028">
        <ele>1572.9</ele>
        <time>2026-05-06T13:52:07.000Z</time>
      </trkpt>
      <trkpt lat="41.792382" lon="22.978027">
        <ele>1571.9</ele>
        <time>2026-05-06T13:52:08.000Z</time>
      </trkpt>
      <trkpt lat="41.792383" lon="22.978028">
        <ele>1571.9</ele>
        <time>2026-05-06T13:52:09.000Z</time>
      </trkpt>
      <trkpt lat="41.792383" lon="22.978029">
        <ele>1571.9</ele>
        <time>2026-05-06T13:52:10.000Z</time>
      </trkpt>
      <trkpt lat="41.792384" lon="22.97803">
        <ele>1571.9</ele>
        <time>2026-05-06T13:52:11.000Z</time>
      </trkpt>
      <trkpt lat="41.792387" lon="22.978031">
        <ele>1571.9</ele>
        <time>2026-05-06T13:52:12.000Z</time>
      </trkpt>
      <trkpt lat="41.79239" lon="22.978032">
        <ele>1571.3</ele>
        <time>2026-05-06T13:52:13.000Z</time>
      </trkpt>
      <trkpt lat="41.792394" lon="22.978034">
        <ele>1571.3</ele>
        <time>2026-05-06T13:52:14.000Z</time>
      </trkpt>
      <trkpt lat="41.792398" lon="22.978032">
        <ele>1571.3</ele>
        <time>2026-05-06T13:52:15.000Z</time>
      </trkpt>
      <trkpt lat="41.792402" lon="22.978031">
        <ele>1571.3</ele>
        <time>2026-05-06T13:52:16.000Z</time>
      </trkpt>
      <trkpt lat="41.792406" lon="22.978031">
        <ele>1571.3</ele>
        <time>2026-05-06T13:52:17.000Z</time>
      </trkpt>
      <trkpt lat="41.792411" lon="22.978034">
        <ele>1570.2</ele>
        <time>2026-05-06T13:52:18.000Z</time>
      </trkpt>
      <trkpt lat="41.792417" lon="22.978039">
        <ele>1570.2</ele>
        <time>2026-05-06T13:52:19.000Z</time>
      </trkpt>
      <trkpt lat="41.792422" lon="22.97805">
        <ele>1570.2</ele>
        <time>2026-05-06T13:52:20.000Z</time>
      </trkpt>
      <trkpt lat="41.792427" lon="22.978062">
        <ele>1570.2</ele>
        <time>2026-05-06T13:52:21.000Z</time>
      </trkpt>
      <trkpt lat="41.792431" lon="22.978076">
        <ele>1570.2</ele>
        <time>2026-05-06T13:52:22.000Z</time>
      </trkpt>
      <trkpt lat="41.792433" lon="22.97809">
        <ele>1569.3</ele>
        <time>2026-05-06T13:52:23.000Z</time>
      </trkpt>
      <trkpt lat="41.792435" lon="22.978101">
        <ele>1569.3</ele>
        <time>2026-05-06T13:52:24.000Z</time>
      </trkpt>
      <trkpt lat="41.792437" lon="22.97811">
        <ele>1569.3</ele>
        <time>2026-05-06T13:52:25.000Z</time>
      </trkpt>
      <trkpt lat="41.792439" lon="22.978117">
        <ele>1569.3</ele>
        <time>2026-05-06T13:52:26.000Z</time>
      </trkpt>
      <trkpt lat="41.792442" lon="22.978121">
        <ele>1569.3</ele>
        <time>2026-05-06T13:52:27.000Z</time>
      </trkpt>
      <trkpt lat="41.792446" lon="22.978124">
        <ele>1568.7</ele>
        <time>2026-05-06T13:52:28.000Z</time>
      </trkpt>
      <trkpt lat="41.792452" lon="22.978126">
        <ele>1568.7</ele>
        <time>2026-05-06T13:52:29.000Z</time>
      </trkpt>
      <trkpt lat="41.792459" lon="22.97813">
        <ele>1568.7</ele>
        <time>2026-05-06T13:52:30.000Z</time>
      </trkpt>
      <trkpt lat="41.792467" lon="22.978134">
        <ele>1568.7</ele>
        <time>2026-05-06T13:52:31.000Z</time>
      </trkpt>
      <trkpt lat="41.792473" lon="22.978142">
        <ele>1568.7</ele>
        <time>2026-05-06T13:52:32.000Z</time>
      </trkpt>
      <trkpt lat="41.792478" lon="22.978151">
        <ele>1567.5</ele>
        <time>2026-05-06T13:52:33.000Z</time>
      </trkpt>
      <trkpt lat="41.792483" lon="22.978163">
        <ele>1567.5</ele>
        <time>2026-05-06T13:52:34.000Z</time>
      </trkpt>
      <trkpt lat="41.792487" lon="22.978176">
        <ele>1567.5</ele>
        <time>2026-05-06T13:52:35.000Z</time>
      </trkpt>
      <trkpt lat="41.792492" lon="22.97819">
        <ele>1567.5</ele>
        <time>2026-05-06T13:52:36.000Z</time>
      </trkpt>
      <trkpt lat="41.792496" lon="22.978201">
        <ele>1567.5</ele>
        <time>2026-05-06T13:52:37.000Z</time>
      </trkpt>
      <trkpt lat="41.7925" lon="22.97821">
        <ele>1566</ele>
        <time>2026-05-06T13:52:38.000Z</time>
      </trkpt>
      <trkpt lat="41.792503" lon="22.978216">
        <ele>1566</ele>
        <time>2026-05-06T13:52:39.000Z</time>
      </trkpt>
      <trkpt lat="41.792506" lon="22.978218">
        <ele>1566</ele>
        <time>2026-05-06T13:52:40.000Z</time>
      </trkpt>
      <trkpt lat="41.792508" lon="22.978217">
        <ele>1566</ele>
        <time>2026-05-06T13:52:41.000Z</time>
      </trkpt>
      <trkpt lat="41.792511" lon="22.978215">
        <ele>1566</ele>
        <time>2026-05-06T13:52:42.000Z</time>
      </trkpt>
      <trkpt lat="41.792515" lon="22.978214">
        <ele>1565.2</ele>
        <time>2026-05-06T13:52:43.000Z</time>
      </trkpt>
      <trkpt lat="41.79252" lon="22.978212">
        <ele>1565.2</ele>
        <time>2026-05-06T13:52:44.000Z</time>
      </trkpt>
      <trkpt lat="41.792524" lon="22.978212">
        <ele>1565.2</ele>
        <time>2026-05-06T13:52:45.000Z</time>
      </trkpt>
      <trkpt lat="41.792529" lon="22.978214">
        <ele>1565.2</ele>
        <time>2026-05-06T13:52:46.000Z</time>
      </trkpt>
      <trkpt lat="41.792534" lon="22.978219">
        <ele>1565.2</ele>
        <time>2026-05-06T13:52:47.000Z</time>
      </trkpt>
      <trkpt lat="41.792539" lon="22.978227">
        <ele>1563.7</ele>
        <time>2026-05-06T13:52:48.000Z</time>
      </trkpt>
      <trkpt lat="41.792542" lon="22.978234">
        <ele>1563.7</ele>
        <time>2026-05-06T13:52:49.000Z</time>
      </trkpt>
      <trkpt lat="41.792546" lon="22.978241">
        <ele>1563.7</ele>
        <time>2026-05-06T13:52:50.000Z</time>
      </trkpt>
      <trkpt lat="41.79255" lon="22.978248">
        <ele>1563.7</ele>
        <time>2026-05-06T13:52:51.000Z</time>
      </trkpt>
      <trkpt lat="41.792554" lon="22.978253">
        <ele>1563.7</ele>
        <time>2026-05-06T13:52:52.000Z</time>
      </trkpt>
      <trkpt lat="41.792559" lon="22.978258">
        <ele>1562.4</ele>
        <time>2026-05-06T13:52:53.000Z</time>
      </trkpt>
      <trkpt lat="41.792564" lon="22.978263">
        <ele>1562.4</ele>
        <time>2026-05-06T13:52:54.000Z</time>
      </trkpt>
      <trkpt lat="41.79257" lon="22.978269">
        <ele>1562.4</ele>
        <time>2026-05-06T13:52:55.000Z</time>
      </trkpt>
      <trkpt lat="41.792575" lon="22.978275">
        <ele>1562.4</ele>
        <time>2026-05-06T13:52:56.000Z</time>
      </trkpt>
      <trkpt lat="41.792581" lon="22.97828">
        <ele>1562.4</ele>
        <time>2026-05-06T13:52:57.000Z</time>
      </trkpt>
      <trkpt lat="41.792585" lon="22.978283">
        <ele>1561.8</ele>
        <time>2026-05-06T13:52:58.000Z</time>
      </trkpt>
      <trkpt lat="41.792589" lon="22.978285">
        <ele>1561.8</ele>
        <time>2026-05-06T13:52:59.000Z</time>
      </trkpt>
      <trkpt lat="41.792592" lon="22.978284">
        <ele>1561.8</ele>
        <time>2026-05-06T13:53:00.000Z</time>
      </trkpt>
      <trkpt lat="41.792592" lon="22.978282">
        <ele>1561.8</ele>
        <time>2026-05-06T13:53:01.000Z</time>
      </trkpt>
      <trkpt lat="41.792592" lon="22.978281">
        <ele>1561.8</ele>
        <time>2026-05-06T13:53:02.000Z</time>
      </trkpt>
      <trkpt lat="41.792592" lon="22.978279">
        <ele>1560.4</ele>
        <time>2026-05-06T13:53:03.000Z</time>
      </trkpt>
      <trkpt lat="41.792591" lon="22.978279">
        <ele>1560.4</ele>
        <time>2026-05-06T13:53:04.000Z</time>
      </trkpt>
      <trkpt lat="41.792591" lon="22.978281">
        <ele>1560.4</ele>
        <time>2026-05-06T13:53:05.000Z</time>
      </trkpt>
      <trkpt lat="41.792591" lon="22.978286">
        <ele>1560.4</ele>
        <time>2026-05-06T13:53:06.000Z</time>
      </trkpt>
      <trkpt lat="41.792592" lon="22.978293">
        <ele>1560.4</ele>
        <time>2026-05-06T13:53:07.000Z</time>
      </trkpt>
      <trkpt lat="41.792594" lon="22.9783">
        <ele>1559.2</ele>
        <time>2026-05-06T13:53:08.000Z</time>
      </trkpt>
      <trkpt lat="41.792596" lon="22.978306">
        <ele>1559.2</ele>
        <time>2026-05-06T13:53:09.000Z</time>
      </trkpt>
      <trkpt lat="41.792601" lon="22.978309">
        <ele>1559.2</ele>
        <time>2026-05-06T13:53:10.000Z</time>
      </trkpt>
      <trkpt lat="41.792606" lon="22.978311">
        <ele>1559.2</ele>
        <time>2026-05-06T13:53:11.000Z</time>
      </trkpt>
      <trkpt lat="41.792611" lon="22.97831">
        <ele>1559.2</ele>
        <time>2026-05-06T13:53:12.000Z</time>
      </trkpt>
      <trkpt lat="41.792616" lon="22.97831">
        <ele>1558.7</ele>
        <time>2026-05-06T13:53:13.000Z</time>
      </trkpt>
      <trkpt lat="41.79262" lon="22.978309">
        <ele>1558.7</ele>
        <time>2026-05-06T13:53:14.000Z</time>
      </trkpt>
      <trkpt lat="41.792624" lon="22.978309">
        <ele>1558.7</ele>
        <time>2026-05-06T13:53:15.000Z</time>
      </trkpt>
      <trkpt lat="41.792628" lon="22.978308">
        <ele>1558.7</ele>
        <time>2026-05-06T13:53:16.000Z</time>
      </trkpt>
      <trkpt lat="41.792632" lon="22.978308">
        <ele>1558.7</ele>
        <time>2026-05-06T13:53:17.000Z</time>
      </trkpt>
      <trkpt lat="41.792636" lon="22.978309">
        <ele>1557.9</ele>
        <time>2026-05-06T13:53:18.000Z</time>
      </trkpt>
      <trkpt lat="41.792639" lon="22.978311">
        <ele>1557.9</ele>
        <time>2026-05-06T13:53:19.000Z</time>
      </trkpt>
      <trkpt lat="41.792641" lon="22.978315">
        <ele>1557.9</ele>
        <time>2026-05-06T13:53:20.000Z</time>
      </trkpt>
      <trkpt lat="41.792641" lon="22.978318">
        <ele>1557.9</ele>
        <time>2026-05-06T13:53:21.000Z</time>
      </trkpt>
      <trkpt lat="41.79264" lon="22.978321">
        <ele>1557.9</ele>
        <time>2026-05-06T13:53:22.000Z</time>
      </trkpt>
      <trkpt lat="41.792639" lon="22.978323">
        <ele>1557.1</ele>
        <time>2026-05-06T13:53:23.000Z</time>
      </trkpt>
      <trkpt lat="41.792638" lon="22.978323">
        <ele>1557.1</ele>
        <time>2026-05-06T13:53:24.000Z</time>
      </trkpt>
      <trkpt lat="41.792639" lon="22.978321">
        <ele>1557.1</ele>
        <time>2026-05-06T13:53:25.000Z</time>
      </trkpt>
      <trkpt lat="41.79264" lon="22.978322">
        <ele>1557.1</ele>
        <time>2026-05-06T13:53:26.000Z</time>
      </trkpt>
      <trkpt lat="41.792643" lon="22.978322">
        <ele>1557.1</ele>
        <time>2026-05-06T13:53:27.000Z</time>
      </trkpt>
      <trkpt lat="41.792647" lon="22.978323">
        <ele>1556.7</ele>
        <time>2026-05-06T13:53:28.000Z</time>
      </trkpt>
      <trkpt lat="41.792652" lon="22.978325">
        <ele>1556.7</ele>
        <time>2026-05-06T13:53:29.000Z</time>
      </trkpt>
      <trkpt lat="41.792656" lon="22.978328">
        <ele>1556.7</ele>
        <time>2026-05-06T13:53:30.000Z</time>
      </trkpt>
      <trkpt lat="41.792656" lon="22.978328">
        <ele>1556.7</ele>
        <time>2026-05-06T13:53:31.000Z</time>
      </trkpt>
      <trkpt lat="41.792656" lon="22.978329">
        <ele>1556.7</ele>
        <time>2026-05-06T13:53:32.000Z</time>
      </trkpt>
      <trkpt lat="41.792655" lon="22.978328">
        <ele>1555.9</ele>
        <time>2026-05-06T13:53:33.000Z</time>
      </trkpt>
      <trkpt lat="41.792652" lon="22.978327">
        <ele>1555.9</ele>
        <time>2026-05-06T13:53:34.000Z</time>
      </trkpt>
      <trkpt lat="41.792651" lon="22.978327">
        <ele>1555.9</ele>
        <time>2026-05-06T13:53:35.000Z</time>
      </trkpt>
      <trkpt lat="41.792651" lon="22.978329">
        <ele>1555.9</ele>
        <time>2026-05-06T13:53:36.000Z</time>
      </trkpt>
      <trkpt lat="41.792651" lon="22.978331">
        <ele>1555.9</ele>
        <time>2026-05-06T13:53:37.000Z</time>
      </trkpt>
      <trkpt lat="41.792652" lon="22.978334">
        <ele>1555.5</ele>
        <time>2026-05-06T13:53:38.000Z</time>
      </trkpt>
      <trkpt lat="41.792653" lon="22.978337">
        <ele>1555.5</ele>
        <time>2026-05-06T13:53:39.000Z</time>
      </trkpt>
      <trkpt lat="41.792655" lon="22.978339">
        <ele>1555.5</ele>
        <time>2026-05-06T13:53:40.000Z</time>
      </trkpt>
      <trkpt lat="41.792656" lon="22.978342">
        <ele>1555.5</ele>
        <time>2026-05-06T13:53:41.000Z</time>
      </trkpt>
      <trkpt lat="41.792656" lon="22.978343">
        <ele>1555.5</ele>
        <time>2026-05-06T13:53:42.000Z</time>
      </trkpt>
      <trkpt lat="41.792657" lon="22.978345">
        <ele>1555.5</ele>
        <time>2026-05-06T13:53:43.000Z</time>
      </trkpt>
      <trkpt lat="41.792658" lon="22.978345">
        <ele>1555.5</ele>
        <time>2026-05-06T13:53:44.000Z</time>
      </trkpt>
      <trkpt lat="41.792657" lon="22.978345">
        <ele>1555.5</ele>
        <time>2026-05-06T13:53:45.000Z</time>
      </trkpt>
      <trkpt lat="41.792658" lon="22.978345">
        <ele>1555.5</ele>
        <time>2026-05-06T13:53:46.000Z</time>
      </trkpt>
      <trkpt lat="41.792658" lon="22.978343">
        <ele>1555.5</ele>
        <time>2026-05-06T13:53:47.000Z</time>
      </trkpt>
      <trkpt lat="41.792657" lon="22.978342">
        <ele>1555.5</ele>
        <time>2026-05-06T13:53:48.000Z</time>
      </trkpt>
      <trkpt lat="41.792658" lon="22.978339">
        <ele>1555.5</ele>
        <time>2026-05-06T13:53:49.000Z</time>
      </trkpt>
      <trkpt lat="41.792658" lon="22.978336">
        <ele>1555.5</ele>
        <time>2026-05-06T13:53:50.000Z</time>
      </trkpt>
      <trkpt lat="41.792659" lon="22.978333">
        <ele>1555.5</ele>
        <time>2026-05-06T13:53:51.000Z</time>
      </trkpt>
      <trkpt lat="41.79266" lon="22.978329">
        <ele>1555.5</ele>
        <time>2026-05-06T13:53:52.000Z</time>
      </trkpt>
      <trkpt lat="41.792662" lon="22.978326">
        <ele>1555.1</ele>
        <time>2026-05-06T13:53:53.000Z</time>
      </trkpt>
      <trkpt lat="41.792664" lon="22.978323">
        <ele>1555.1</ele>
        <time>2026-05-06T13:53:54.000Z</time>
      </trkpt>
      <trkpt lat="41.792665" lon="22.978321">
        <ele>1555.1</ele>
        <time>2026-05-06T13:53:55.000Z</time>
      </trkpt>
      <trkpt lat="41.792667" lon="22.97832">
        <ele>1555.1</ele>
        <time>2026-05-06T13:53:56.000Z</time>
      </trkpt>
      <trkpt lat="41.79267" lon="22.97832">
        <ele>1555.1</ele>
        <time>2026-05-06T13:53:57.000Z</time>
      </trkpt>
      <trkpt lat="41.792673" lon="22.978321">
        <ele>1554.7</ele>
        <time>2026-05-06T13:53:58.000Z</time>
      </trkpt>
      <trkpt lat="41.792677" lon="22.978323">
        <ele>1554.7</ele>
        <time>2026-05-06T13:53:59.000Z</time>
      </trkpt>
      <trkpt lat="41.792682" lon="22.978326">
        <ele>1554.7</ele>
        <time>2026-05-06T13:54:00.000Z</time>
      </trkpt>
      <trkpt lat="41.792688" lon="22.978331">
        <ele>1554.7</ele>
        <time>2026-05-06T13:54:01.000Z</time>
      </trkpt>
      <trkpt lat="41.792694" lon="22.978337">
        <ele>1554.7</ele>
        <time>2026-05-06T13:54:02.000Z</time>
      </trkpt>
      <trkpt lat="41.792698" lon="22.978344">
        <ele>1553.7</ele>
        <time>2026-05-06T13:54:03.000Z</time>
      </trkpt>
      <trkpt lat="41.792703" lon="22.978352">
        <ele>1553.7</ele>
        <time>2026-05-06T13:54:04.000Z</time>
      </trkpt>
      <trkpt lat="41.792707" lon="22.978361">
        <ele>1553.7</ele>
        <time>2026-05-06T13:54:05.000Z</time>
      </trkpt>
      <trkpt lat="41.792711" lon="22.978368">
        <ele>1553.7</ele>
        <time>2026-05-06T13:54:06.000Z</time>
      </trkpt>
      <trkpt lat="41.792716" lon="22.978376">
        <ele>1553.7</ele>
        <time>2026-05-06T13:54:07.000Z</time>
      </trkpt>
      <trkpt lat="41.792724" lon="22.978382">
        <ele>1552.8</ele>
        <time>2026-05-06T13:54:08.000Z</time>
      </trkpt>
      <trkpt lat="41.792732" lon="22.978386">
        <ele>1552.8</ele>
        <time>2026-05-06T13:54:09.000Z</time>
      </trkpt>
      <trkpt lat="41.792742" lon="22.978388">
        <ele>1552.8</ele>
        <time>2026-05-06T13:54:10.000Z</time>
      </trkpt>
      <trkpt lat="41.792751" lon="22.978391">
        <ele>1552.8</ele>
        <time>2026-05-06T13:54:11.000Z</time>
      </trkpt>
      <trkpt lat="41.792759" lon="22.978394">
        <ele>1552.8</ele>
        <time>2026-05-06T13:54:12.000Z</time>
      </trkpt>
      <trkpt lat="41.792766" lon="22.978399">
        <ele>1552.3</ele>
        <time>2026-05-06T13:54:13.000Z</time>
      </trkpt>
      <trkpt lat="41.792772" lon="22.978405">
        <ele>1552.3</ele>
        <time>2026-05-06T13:54:14.000Z</time>
      </trkpt>
      <trkpt lat="41.792776" lon="22.978412">
        <ele>1552.3</ele>
        <time>2026-05-06T13:54:15.000Z</time>
      </trkpt>
      <trkpt lat="41.792781" lon="22.978418">
        <ele>1552.3</ele>
        <time>2026-05-06T13:54:16.000Z</time>
      </trkpt>
      <trkpt lat="41.792786" lon="22.978426">
        <ele>1552.3</ele>
        <time>2026-05-06T13:54:17.000Z</time>
      </trkpt>
      <trkpt lat="41.792789" lon="22.978432">
        <ele>1551.1</ele>
        <time>2026-05-06T13:54:18.000Z</time>
      </trkpt>
      <trkpt lat="41.792793" lon="22.978438">
        <ele>1551.1</ele>
        <time>2026-05-06T13:54:19.000Z</time>
      </trkpt>
      <trkpt lat="41.792795" lon="22.978445">
        <ele>1551.1</ele>
        <time>2026-05-06T13:54:20.000Z</time>
      </trkpt>
      <trkpt lat="41.792798" lon="22.978451">
        <ele>1551.1</ele>
        <time>2026-05-06T13:54:21.000Z</time>
      </trkpt>
      <trkpt lat="41.792801" lon="22.978457">
        <ele>1551.1</ele>
        <time>2026-05-06T13:54:22.000Z</time>
      </trkpt>
      <trkpt lat="41.792805" lon="22.978463">
        <ele>1549.9</ele>
        <time>2026-05-06T13:54:23.000Z</time>
      </trkpt>
      <trkpt lat="41.792809" lon="22.978467">
        <ele>1549.9</ele>
        <time>2026-05-06T13:54:24.000Z</time>
      </trkpt>
      <trkpt lat="41.792815" lon="22.97847">
        <ele>1549.9</ele>
        <time>2026-05-06T13:54:25.000Z</time>
      </trkpt>
      <trkpt lat="41.792822" lon="22.978472">
        <ele>1549.9</ele>
        <time>2026-05-06T13:54:26.000Z</time>
      </trkpt>
      <trkpt lat="41.792827" lon="22.978473">
        <ele>1549.9</ele>
        <time>2026-05-06T13:54:27.000Z</time>
      </trkpt>
      <trkpt lat="41.792832" lon="22.978474">
        <ele>1549.3</ele>
        <time>2026-05-06T13:54:28.000Z</time>
      </trkpt>
      <trkpt lat="41.792836" lon="22.978473">
        <ele>1549.3</ele>
        <time>2026-05-06T13:54:29.000Z</time>
      </trkpt>
      <trkpt lat="41.792839" lon="22.978472">
        <ele>1549.3</ele>
        <time>2026-05-06T13:54:30.000Z</time>
      </trkpt>
      <trkpt lat="41.792842" lon="22.97847">
        <ele>1549.3</ele>
        <time>2026-05-06T13:54:31.000Z</time>
      </trkpt>
      <trkpt lat="41.792846" lon="22.978468">
        <ele>1549.3</ele>
        <time>2026-05-06T13:54:32.000Z</time>
      </trkpt>
      <trkpt lat="41.792852" lon="22.978466">
        <ele>1548.2</ele>
        <time>2026-05-06T13:54:33.000Z</time>
      </trkpt>
      <trkpt lat="41.792857" lon="22.978466">
        <ele>1548.2</ele>
        <time>2026-05-06T13:54:34.000Z</time>
      </trkpt>
      <trkpt lat="41.792862" lon="22.978466">
        <ele>1548.2</ele>
        <time>2026-05-06T13:54:35.000Z</time>
      </trkpt>
      <trkpt lat="41.792866" lon="22.978468">
        <ele>1548.2</ele>
        <time>2026-05-06T13:54:36.000Z</time>
      </trkpt>
      <trkpt lat="41.792867" lon="22.978468">
        <ele>1548.2</ele>
        <time>2026-05-06T13:54:37.000Z</time>
      </trkpt>
      <trkpt lat="41.792867" lon="22.978469">
        <ele>1547</ele>
        <time>2026-05-06T13:54:38.000Z</time>
      </trkpt>
      <trkpt lat="41.792867" lon="22.978469">
        <ele>1547</ele>
        <time>2026-05-06T13:54:39.000Z</time>
      </trkpt>
      <trkpt lat="41.792866" lon="22.97847">
        <ele>1547</ele>
        <time>2026-05-06T13:54:40.000Z</time>
      </trkpt>
      <trkpt lat="41.792867" lon="22.978471">
        <ele>1547</ele>
        <time>2026-05-06T13:54:41.000Z</time>
      </trkpt>
      <trkpt lat="41.79287" lon="22.978472">
        <ele>1547</ele>
        <time>2026-05-06T13:54:42.000Z</time>
      </trkpt>
      <trkpt lat="41.792873" lon="22.978473">
        <ele>1546.4</ele>
        <time>2026-05-06T13:54:43.000Z</time>
      </trkpt>
      <trkpt lat="41.792876" lon="22.978475">
        <ele>1546.4</ele>
        <time>2026-05-06T13:54:44.000Z</time>
      </trkpt>
      <trkpt lat="41.792877" lon="22.978475">
        <ele>1546.4</ele>
        <time>2026-05-06T13:54:45.000Z</time>
      </trkpt>
      <trkpt lat="41.792878" lon="22.978475">
        <ele>1546.4</ele>
        <time>2026-05-06T13:54:46.000Z</time>
      </trkpt>
      <trkpt lat="41.792878" lon="22.978475">
        <ele>1546.4</ele>
        <time>2026-05-06T13:54:47.000Z</time>
      </trkpt>
      <trkpt lat="41.792879" lon="22.978475">
        <ele>1545.2</ele>
        <time>2026-05-06T13:54:48.000Z</time>
      </trkpt>
      <trkpt lat="41.79288" lon="22.978474">
        <ele>1545.2</ele>
        <time>2026-05-06T13:54:49.000Z</time>
      </trkpt>
      <trkpt lat="41.792883" lon="22.978472">
        <ele>1545.2</ele>
        <time>2026-05-06T13:54:50.000Z</time>
      </trkpt>
      <trkpt lat="41.792887" lon="22.978469">
        <ele>1545.2</ele>
        <time>2026-05-06T13:54:51.000Z</time>
      </trkpt>
      <trkpt lat="41.79289" lon="22.978466">
        <ele>1545.2</ele>
        <time>2026-05-06T13:54:52.000Z</time>
      </trkpt>
      <trkpt lat="41.792895" lon="22.978462">
        <ele>1544.4</ele>
        <time>2026-05-06T13:54:53.000Z</time>
      </trkpt>
      <trkpt lat="41.792899" lon="22.978458">
        <ele>1544.4</ele>
        <time>2026-05-06T13:54:54.000Z</time>
      </trkpt>
      <trkpt lat="41.792904" lon="22.978456">
        <ele>1544.4</ele>
        <time>2026-05-06T13:54:55.000Z</time>
      </trkpt>
      <trkpt lat="41.792909" lon="22.978455">
        <ele>1544.4</ele>
        <time>2026-05-06T13:54:56.000Z</time>
      </trkpt>
      <trkpt lat="41.792913" lon="22.978454">
        <ele>1544.4</ele>
        <time>2026-05-06T13:54:57.000Z</time>
      </trkpt>
      <trkpt lat="41.792918" lon="22.978456">
        <ele>1544.2</ele>
        <time>2026-05-06T13:54:58.000Z</time>
      </trkpt>
      <trkpt lat="41.792923" lon="22.978457">
        <ele>1544.2</ele>
        <time>2026-05-06T13:54:59.000Z</time>
      </trkpt>
      <trkpt lat="41.792926" lon="22.978459">
        <ele>1544.2</ele>
        <time>2026-05-06T13:55:00.000Z</time>
      </trkpt>
      <trkpt lat="41.79293" lon="22.978463">
        <ele>1544.2</ele>
        <time>2026-05-06T13:55:01.000Z</time>
      </trkpt>
      <trkpt lat="41.792935" lon="22.978468">
        <ele>1544.2</ele>
        <time>2026-05-06T13:55:02.000Z</time>
      </trkpt>
      <trkpt lat="41.792939" lon="22.978471">
        <ele>1543.5</ele>
        <time>2026-05-06T13:55:03.000Z</time>
      </trkpt>
      <trkpt lat="41.792942" lon="22.978477">
        <ele>1543.5</ele>
        <time>2026-05-06T13:55:04.000Z</time>
      </trkpt>
      <trkpt lat="41.792946" lon="22.978482">
        <ele>1543.5</ele>
        <time>2026-05-06T13:55:05.000Z</time>
      </trkpt>
      <trkpt lat="41.792949" lon="22.978487">
        <ele>1543.5</ele>
        <time>2026-05-06T13:55:06.000Z</time>
      </trkpt>
      <trkpt lat="41.792953" lon="22.978491">
        <ele>1543.5</ele>
        <time>2026-05-06T13:55:07.000Z</time>
      </trkpt>
      <trkpt lat="41.792959" lon="22.978496">
        <ele>1542.4</ele>
        <time>2026-05-06T13:55:08.000Z</time>
      </trkpt>
      <trkpt lat="41.792964" lon="22.9785">
        <ele>1542.4</ele>
        <time>2026-05-06T13:55:09.000Z</time>
      </trkpt>
      <trkpt lat="41.792969" lon="22.978503">
        <ele>1542.4</ele>
        <time>2026-05-06T13:55:10.000Z</time>
      </trkpt>
      <trkpt lat="41.792972" lon="22.978505">
        <ele>1542.4</ele>
        <time>2026-05-06T13:55:11.000Z</time>
      </trkpt>
      <trkpt lat="41.792973" lon="22.978506">
        <ele>1542.4</ele>
        <time>2026-05-06T13:55:12.000Z</time>
      </trkpt>
      <trkpt lat="41.792973" lon="22.978505">
        <ele>1541.7</ele>
        <time>2026-05-06T13:55:13.000Z</time>
      </trkpt>
      <trkpt lat="41.792972" lon="22.978503">
        <ele>1541.7</ele>
        <time>2026-05-06T13:55:14.000Z</time>
      </trkpt>
      <trkpt lat="41.792971" lon="22.978501">
        <ele>1541.7</ele>
        <time>2026-05-06T13:55:15.000Z</time>
      </trkpt>
      <trkpt lat="41.792971" lon="22.978499">
        <ele>1541.7</ele>
        <time>2026-05-06T13:55:16.000Z</time>
      </trkpt>
      <trkpt lat="41.792971" lon="22.978498">
        <ele>1541.7</ele>
        <time>2026-05-06T13:55:17.000Z</time>
      </trkpt>
      <trkpt lat="41.792971" lon="22.978498">
        <ele>1540.6</ele>
        <time>2026-05-06T13:55:18.000Z</time>
      </trkpt>
      <trkpt lat="41.79297" lon="22.978497">
        <ele>1540.6</ele>
        <time>2026-05-06T13:55:19.000Z</time>
      </trkpt>
      <trkpt lat="41.792969" lon="22.978496">
        <ele>1540.6</ele>
        <time>2026-05-06T13:55:20.000Z</time>
      </trkpt>
      <trkpt lat="41.792967" lon="22.978494">
        <ele>1540.6</ele>
        <time>2026-05-06T13:55:21.000Z</time>
      </trkpt>
      <trkpt lat="41.792965" lon="22.978492">
        <ele>1540.6</ele>
        <time>2026-05-06T13:55:22.000Z</time>
      </trkpt>
      <trkpt lat="41.792962" lon="22.97849">
        <ele>1539.9</ele>
        <time>2026-05-06T13:55:23.000Z</time>
      </trkpt>
      <trkpt lat="41.792961" lon="22.978489">
        <ele>1539.9</ele>
        <time>2026-05-06T13:55:24.000Z</time>
      </trkpt>
      <trkpt lat="41.79296" lon="22.978488">
        <ele>1539.9</ele>
        <time>2026-05-06T13:55:25.000Z</time>
      </trkpt>
      <trkpt lat="41.79296" lon="22.978488">
        <ele>1539.9</ele>
        <time>2026-05-06T13:55:26.000Z</time>
      </trkpt>
      <trkpt lat="41.79296" lon="22.978488">
        <ele>1539.9</ele>
        <time>2026-05-06T13:55:27.000Z</time>
      </trkpt>
      <trkpt lat="41.79296" lon="22.978488">
        <ele>1539.8</ele>
        <time>2026-05-06T13:55:28.000Z</time>
      </trkpt>
      <trkpt lat="41.79296" lon="22.978488">
        <ele>1539.8</ele>
        <time>2026-05-06T13:55:29.000Z</time>
      </trkpt>
      <trkpt lat="41.79296" lon="22.978488">
        <ele>1539.8</ele>
        <time>2026-05-06T13:55:30.000Z</time>
      </trkpt>
      <trkpt lat="41.79296" lon="22.978488">
        <ele>1539.8</ele>
        <time>2026-05-06T13:55:31.000Z</time>
      </trkpt>
      <trkpt lat="41.79296" lon="22.978488">
        <ele>1539.8</ele>
        <time>2026-05-06T13:55:32.000Z</time>
      </trkpt>
      <trkpt lat="41.79296" lon="22.978488">
        <ele>1539.8</ele>
        <time>2026-05-06T13:55:33.000Z</time>
      </trkpt>
      <trkpt lat="41.79296" lon="22.978488">
        <ele>1539.8</ele>
        <time>2026-05-06T13:55:34.000Z</time>
      </trkpt>
      <trkpt lat="41.79296" lon="22.978488">
        <ele>1539.8</ele>
        <time>2026-05-06T13:55:35.000Z</time>
      </trkpt>
      <trkpt lat="41.79296" lon="22.978488">
        <ele>1539.8</ele>
        <time>2026-05-06T13:55:36.000Z</time>
      </trkpt>
      <trkpt lat="41.79296" lon="22.978488">
        <ele>1539.8</ele>
        <time>2026-05-06T13:55:37.000Z</time>
      </trkpt>
      <trkpt lat="41.79296" lon="22.978488">
        <ele>1539.8</ele>
        <time>2026-05-06T13:55:38.000Z</time>
      </trkpt>
      <trkpt lat="41.79296" lon="22.978488">
        <ele>1539.8</ele>
        <time>2026-05-06T13:55:39.000Z</time>
      </trkpt>
      <trkpt lat="41.79296" lon="22.978488">
        <ele>1539.8</ele>
        <time>2026-05-06T13:55:40.000Z</time>
      </trkpt>
      <trkpt lat="41.79296" lon="22.978488">
        <ele>1539.8</ele>
        <time>2026-05-06T13:55:41.000Z</time>
      </trkpt>
      <trkpt lat="41.79296" lon="22.978488">
        <ele>1539.8</ele>
        <time>2026-05-06T13:55:42.000Z</time>
      </trkpt>
      <trkpt lat="41.79296" lon="22.978488">
        <ele>1539.8</ele>
        <time>2026-05-06T13:55:43.000Z</time>
      </trkpt>
      <trkpt lat="41.79296" lon="22.978488">
        <ele>1539.8</ele>
        <time>2026-05-06T13:55:44.000Z</time>
      </trkpt>
      <trkpt lat="41.79296" lon="22.978488">
        <ele>1539.8</ele>
        <time>2026-05-06T13:55:45.000Z</time>
      </trkpt>
      <trkpt lat="41.79296" lon="22.978488">
        <ele>1539.8</ele>
        <time>2026-05-06T13:55:46.000Z</time>
      </trkpt>
      <trkpt lat="41.79296" lon="22.978487">
        <ele>1539.8</ele>
        <time>2026-05-06T13:55:47.000Z</time>
      </trkpt>
      <trkpt lat="41.79296" lon="22.978486">
        <ele>1539.9</ele>
        <time>2026-05-06T13:55:48.000Z</time>
      </trkpt>
      <trkpt lat="41.792959" lon="22.978484">
        <ele>1539.9</ele>
        <time>2026-05-06T13:55:49.000Z</time>
      </trkpt>
      <trkpt lat="41.792959" lon="22.978482">
        <ele>1539.9</ele>
        <time>2026-05-06T13:55:50.000Z</time>
      </trkpt>
      <trkpt lat="41.792958" lon="22.97848">
        <ele>1539.9</ele>
        <time>2026-05-06T13:55:51.000Z</time>
      </trkpt>
      <trkpt lat="41.792958" lon="22.978478">
        <ele>1539.9</ele>
        <time>2026-05-06T13:55:52.000Z</time>
      </trkpt>
      <trkpt lat="41.792957" lon="22.978478">
        <ele>1540</ele>
        <time>2026-05-06T13:55:53.000Z</time>
      </trkpt>
      <trkpt lat="41.792956" lon="22.978478">
        <ele>1540</ele>
        <time>2026-05-06T13:55:54.000Z</time>
      </trkpt>
      <trkpt lat="41.792956" lon="22.978478">
        <ele>1540</ele>
        <time>2026-05-06T13:55:55.000Z</time>
      </trkpt>
      <trkpt lat="41.792955" lon="22.978477">
        <ele>1540</ele>
        <time>2026-05-06T13:55:56.000Z</time>
      </trkpt>
      <trkpt lat="41.792957" lon="22.978477">
        <ele>1540</ele>
        <time>2026-05-06T13:55:57.000Z</time>
      </trkpt>
      <trkpt lat="41.792959" lon="22.978476">
        <ele>1539.9</ele>
        <time>2026-05-06T13:55:58.000Z</time>
      </trkpt>
      <trkpt lat="41.792962" lon="22.978476">
        <ele>1539.9</ele>
        <time>2026-05-06T13:55:59.000Z</time>
      </trkpt>
      <trkpt lat="41.792965" lon="22.978476">
        <ele>1539.9</ele>
        <time>2026-05-06T13:56:00.000Z</time>
      </trkpt>
      <trkpt lat="41.792969" lon="22.978478">
        <ele>1539.9</ele>
        <time>2026-05-06T13:56:01.000Z</time>
      </trkpt>
      <trkpt lat="41.792972" lon="22.97848">
        <ele>1539.9</ele>
        <time>2026-05-06T13:56:02.000Z</time>
      </trkpt>
      <trkpt lat="41.792973" lon="22.978481">
        <ele>1539.7</ele>
        <time>2026-05-06T13:56:03.000Z</time>
      </trkpt>
      <trkpt lat="41.792975" lon="22.978482">
        <ele>1539.7</ele>
        <time>2026-05-06T13:56:04.000Z</time>
      </trkpt>
      <trkpt lat="41.792978" lon="22.97848">
        <ele>1539.7</ele>
        <time>2026-05-06T13:56:05.000Z</time>
      </trkpt>
      <trkpt lat="41.79298" lon="22.978475">
        <ele>1539.7</ele>
        <time>2026-05-06T13:56:06.000Z</time>
      </trkpt>
      <trkpt lat="41.792982" lon="22.97847">
        <ele>1539.7</ele>
        <time>2026-05-06T13:56:07.000Z</time>
      </trkpt>
      <trkpt lat="41.792985" lon="22.978467">
        <ele>1539.1</ele>
        <time>2026-05-06T13:56:08.000Z</time>
      </trkpt>
      <trkpt lat="41.792989" lon="22.978465">
        <ele>1539.1</ele>
        <time>2026-05-06T13:56:09.000Z</time>
      </trkpt>
      <trkpt lat="41.792992" lon="22.978464">
        <ele>1539.1</ele>
        <time>2026-05-06T13:56:10.000Z</time>
      </trkpt>
      <trkpt lat="41.792995" lon="22.978464">
        <ele>1539.1</ele>
        <time>2026-05-06T13:56:11.000Z</time>
      </trkpt>
      <trkpt lat="41.792998" lon="22.978464">
        <ele>1539.1</ele>
        <time>2026-05-06T13:56:12.000Z</time>
      </trkpt>
      <trkpt lat="41.792999" lon="22.978462">
        <ele>1538.7</ele>
        <time>2026-05-06T13:56:13.000Z</time>
      </trkpt>
      <trkpt lat="41.793" lon="22.97846">
        <ele>1538.7</ele>
        <time>2026-05-06T13:56:14.000Z</time>
      </trkpt>
      <trkpt lat="41.793" lon="22.978458">
        <ele>1538.7</ele>
        <time>2026-05-06T13:56:15.000Z</time>
      </trkpt>
      <trkpt lat="41.792999" lon="22.978457">
        <ele>1538.7</ele>
        <time>2026-05-06T13:56:16.000Z</time>
      </trkpt>
      <trkpt lat="41.792998" lon="22.978457">
        <ele>1538.7</ele>
        <time>2026-05-06T13:56:17.000Z</time>
      </trkpt>
      <trkpt lat="41.792997" lon="22.978457">
        <ele>1537.6</ele>
        <time>2026-05-06T13:56:18.000Z</time>
      </trkpt>
      <trkpt lat="41.792997" lon="22.978457">
        <ele>1537.6</ele>
        <time>2026-05-06T13:56:19.000Z</time>
      </trkpt>
      <trkpt lat="41.792997" lon="22.978457">
        <ele>1537.6</ele>
        <time>2026-05-06T13:56:20.000Z</time>
      </trkpt>
      <trkpt lat="41.792997" lon="22.978458">
        <ele>1537.6</ele>
        <time>2026-05-06T13:56:21.000Z</time>
      </trkpt>
      <trkpt lat="41.792998" lon="22.978458">
        <ele>1537.6</ele>
        <time>2026-05-06T13:56:22.000Z</time>
      </trkpt>
      <trkpt lat="41.792999" lon="22.978457">
        <ele>1536.5</ele>
        <time>2026-05-06T13:56:23.000Z</time>
      </trkpt>
      <trkpt lat="41.793" lon="22.978458">
        <ele>1536.5</ele>
        <time>2026-05-06T13:56:24.000Z</time>
      </trkpt>
      <trkpt lat="41.793003" lon="22.978458">
        <ele>1536.5</ele>
        <time>2026-05-06T13:56:25.000Z</time>
      </trkpt>
      <trkpt lat="41.793005" lon="22.978458">
        <ele>1536.5</ele>
        <time>2026-05-06T13:56:26.000Z</time>
      </trkpt>
      <trkpt lat="41.793006" lon="22.978458">
        <ele>1536.5</ele>
        <time>2026-05-06T13:56:27.000Z</time>
      </trkpt>
      <trkpt lat="41.793008" lon="22.978457">
        <ele>1536.3</ele>
        <time>2026-05-06T13:56:28.000Z</time>
      </trkpt>
      <trkpt lat="41.79301" lon="22.978456">
        <ele>1536.3</ele>
        <time>2026-05-06T13:56:29.000Z</time>
      </trkpt>
      <trkpt lat="41.793011" lon="22.978456">
        <ele>1536.3</ele>
        <time>2026-05-06T13:56:30.000Z</time>
      </trkpt>
      <trkpt lat="41.793012" lon="22.978457">
        <ele>1536.3</ele>
        <time>2026-05-06T13:56:31.000Z</time>
      </trkpt>
      <trkpt lat="41.793014" lon="22.978459">
        <ele>1536.3</ele>
        <time>2026-05-06T13:56:32.000Z</time>
      </trkpt>
      <trkpt lat="41.793017" lon="22.978464">
        <ele>1536</ele>
        <time>2026-05-06T13:56:33.000Z</time>
      </trkpt>
      <trkpt lat="41.793021" lon="22.97847">
        <ele>1536</ele>
        <time>2026-05-06T13:56:34.000Z</time>
      </trkpt>
      <trkpt lat="41.793025" lon="22.978474">
        <ele>1536</ele>
        <time>2026-05-06T13:56:35.000Z</time>
      </trkpt>
      <trkpt lat="41.793028" lon="22.978476">
        <ele>1536</ele>
        <time>2026-05-06T13:56:36.000Z</time>
      </trkpt>
      <trkpt lat="41.793031" lon="22.978476">
        <ele>1536</ele>
        <time>2026-05-06T13:56:37.000Z</time>
      </trkpt>
      <trkpt lat="41.793033" lon="22.978474">
        <ele>1535.8</ele>
        <time>2026-05-06T13:56:38.000Z</time>
      </trkpt>
      <trkpt lat="41.793034" lon="22.978473">
        <ele>1535.8</ele>
        <time>2026-05-06T13:56:39.000Z</time>
      </trkpt>
      <trkpt lat="41.793034" lon="22.97847">
        <ele>1535.8</ele>
        <time>2026-05-06T13:56:40.000Z</time>
      </trkpt>
      <trkpt lat="41.793034" lon="22.978469">
        <ele>1535.8</ele>
        <time>2026-05-06T13:56:41.000Z</time>
      </trkpt>
      <trkpt lat="41.793034" lon="22.978469">
        <ele>1535.8</ele>
        <time>2026-05-06T13:56:42.000Z</time>
      </trkpt>
      <trkpt lat="41.793034" lon="22.978467">
        <ele>1535.5</ele>
        <time>2026-05-06T13:56:43.000Z</time>
      </trkpt>
      <trkpt lat="41.793035" lon="22.978464">
        <ele>1535.5</ele>
        <time>2026-05-06T13:56:44.000Z</time>
      </trkpt>
      <trkpt lat="41.793037" lon="22.97846">
        <ele>1535.5</ele>
        <time>2026-05-06T13:56:45.000Z</time>
      </trkpt>
      <trkpt lat="41.793038" lon="22.978455">
        <ele>1535.5</ele>
        <time>2026-05-06T13:56:46.000Z</time>
      </trkpt>
      <trkpt lat="41.793039" lon="22.97845">
        <ele>1535.5</ele>
        <time>2026-05-06T13:56:47.000Z</time>
      </trkpt>
      <trkpt lat="41.793039" lon="22.978447">
        <ele>1534.7</ele>
        <time>2026-05-06T13:56:48.000Z</time>
      </trkpt>
      <trkpt lat="41.793038" lon="22.978446">
        <ele>1534.7</ele>
        <time>2026-05-06T13:56:49.000Z</time>
      </trkpt>
      <trkpt lat="41.793037" lon="22.978445">
        <ele>1534.7</ele>
        <time>2026-05-06T13:56:50.000Z</time>
      </trkpt>
      <trkpt lat="41.793036" lon="22.978446">
        <ele>1534.7</ele>
        <time>2026-05-06T13:56:51.000Z</time>
      </trkpt>
      <trkpt lat="41.793037" lon="22.978447">
        <ele>1534.7</ele>
        <time>2026-05-06T13:56:52.000Z</time>
      </trkpt>
      <trkpt lat="41.793037" lon="22.978448">
        <ele>1534</ele>
        <time>2026-05-06T13:56:53.000Z</time>
      </trkpt>
      <trkpt lat="41.793037" lon="22.978448">
        <ele>1534</ele>
        <time>2026-05-06T13:56:54.000Z</time>
      </trkpt>
      <trkpt lat="41.793036" lon="22.978447">
        <ele>1534</ele>
        <time>2026-05-06T13:56:55.000Z</time>
      </trkpt>
      <trkpt lat="41.793036" lon="22.978444">
        <ele>1534</ele>
        <time>2026-05-06T13:56:56.000Z</time>
      </trkpt>
      <trkpt lat="41.793036" lon="22.978441">
        <ele>1534</ele>
        <time>2026-05-06T13:56:57.000Z</time>
      </trkpt>
      <trkpt lat="41.793036" lon="22.978438">
        <ele>1533.8</ele>
        <time>2026-05-06T13:56:58.000Z</time>
      </trkpt>
      <trkpt lat="41.793037" lon="22.978434">
        <ele>1533.8</ele>
        <time>2026-05-06T13:56:59.000Z</time>
      </trkpt>
      <trkpt lat="41.793037" lon="22.978432">
        <ele>1533.8</ele>
        <time>2026-05-06T13:57:00.000Z</time>
      </trkpt>
      <trkpt lat="41.793036" lon="22.978432">
        <ele>1533.8</ele>
        <time>2026-05-06T13:57:01.000Z</time>
      </trkpt>
      <trkpt lat="41.793035" lon="22.978431">
        <ele>1533.8</ele>
        <time>2026-05-06T13:57:02.000Z</time>
      </trkpt>
      <trkpt lat="41.793033" lon="22.978431">
        <ele>1533.7</ele>
        <time>2026-05-06T13:57:03.000Z</time>
      </trkpt>
      <trkpt lat="41.793031" lon="22.97843">
        <ele>1533.7</ele>
        <time>2026-05-06T13:57:04.000Z</time>
      </trkpt>
      <trkpt lat="41.79303" lon="22.978428">
        <ele>1533.7</ele>
        <time>2026-05-06T13:57:05.000Z</time>
      </trkpt>
      <trkpt lat="41.79303" lon="22.978427">
        <ele>1533.7</ele>
        <time>2026-05-06T13:57:06.000Z</time>
      </trkpt>
      <trkpt lat="41.79303" lon="22.978425">
        <ele>1533.7</ele>
        <time>2026-05-06T13:57:07.000Z</time>
      </trkpt>
      <trkpt lat="41.79303" lon="22.978424">
        <ele>1533.6</ele>
        <time>2026-05-06T13:57:08.000Z</time>
      </trkpt>
      <trkpt lat="41.793031" lon="22.978423">
        <ele>1533.6</ele>
        <time>2026-05-06T13:57:09.000Z</time>
      </trkpt>
      <trkpt lat="41.793031" lon="22.978422">
        <ele>1533.6</ele>
        <time>2026-05-06T13:57:10.000Z</time>
      </trkpt>
      <trkpt lat="41.793031" lon="22.978421">
        <ele>1533.6</ele>
        <time>2026-05-06T13:57:11.000Z</time>
      </trkpt>
      <trkpt lat="41.793032" lon="22.97842">
        <ele>1533.6</ele>
        <time>2026-05-06T13:57:12.000Z</time>
      </trkpt>
      <trkpt lat="41.793033" lon="22.978418">
        <ele>1533.6</ele>
        <time>2026-05-06T13:57:13.000Z</time>
      </trkpt>
      <trkpt lat="41.793033" lon="22.978418">
        <ele>1533.6</ele>
        <time>2026-05-06T13:57:14.000Z</time>
      </trkpt>
      <trkpt lat="41.793033" lon="22.978417">
        <ele>1533.6</ele>
        <time>2026-05-06T13:57:15.000Z</time>
      </trkpt>
      <trkpt lat="41.793033" lon="22.978416">
        <ele>1533.6</ele>
        <time>2026-05-06T13:57:16.000Z</time>
      </trkpt>
      <trkpt lat="41.793033" lon="22.978415">
        <ele>1533.6</ele>
        <time>2026-05-06T13:57:17.000Z</time>
      </trkpt>
      <trkpt lat="41.793033" lon="22.978413">
        <ele>1533.7</ele>
        <time>2026-05-06T13:57:18.000Z</time>
      </trkpt>
      <trkpt lat="41.793032" lon="22.978408">
        <ele>1533.7</ele>
        <time>2026-05-06T13:57:19.000Z</time>
      </trkpt>
      <trkpt lat="41.793033" lon="22.978403">
        <ele>1533.7</ele>
        <time>2026-05-06T13:57:20.000Z</time>
      </trkpt>
      <trkpt lat="41.793034" lon="22.978398">
        <ele>1533.7</ele>
        <time>2026-05-06T13:57:21.000Z</time>
      </trkpt>
      <trkpt lat="41.793035" lon="22.978393">
        <ele>1533.7</ele>
        <time>2026-05-06T13:57:22.000Z</time>
      </trkpt>
      <trkpt lat="41.793037" lon="22.978391">
        <ele>1533.7</ele>
        <time>2026-05-06T13:57:23.000Z</time>
      </trkpt>
      <trkpt lat="41.793038" lon="22.97839">
        <ele>1533.7</ele>
        <time>2026-05-06T13:57:24.000Z</time>
      </trkpt>
      <trkpt lat="41.793037" lon="22.978389">
        <ele>1533.7</ele>
        <time>2026-05-06T13:57:25.000Z</time>
      </trkpt>
      <trkpt lat="41.793037" lon="22.978388">
        <ele>1533.7</ele>
        <time>2026-05-06T13:57:26.000Z</time>
      </trkpt>
      <trkpt lat="41.793037" lon="22.978387">
        <ele>1533.7</ele>
        <time>2026-05-06T13:57:27.000Z</time>
      </trkpt>
      <trkpt lat="41.793036" lon="22.978387">
        <ele>1533.5</ele>
        <time>2026-05-06T13:57:28.000Z</time>
      </trkpt>
      <trkpt lat="41.793037" lon="22.978386">
        <ele>1533.5</ele>
        <time>2026-05-06T13:57:29.000Z</time>
      </trkpt>
      <trkpt lat="41.79304" lon="22.978387">
        <ele>1533.5</ele>
        <time>2026-05-06T13:57:30.000Z</time>
      </trkpt>
      <trkpt lat="41.793043" lon="22.978388">
        <ele>1533.5</ele>
        <time>2026-05-06T13:57:31.000Z</time>
      </trkpt>
      <trkpt lat="41.793046" lon="22.978389">
        <ele>1533.5</ele>
        <time>2026-05-06T13:57:32.000Z</time>
      </trkpt>
      <trkpt lat="41.793051" lon="22.978391">
        <ele>1533</ele>
        <time>2026-05-06T13:57:33.000Z</time>
      </trkpt>
      <trkpt lat="41.793055" lon="22.978395">
        <ele>1533</ele>
        <time>2026-05-06T13:57:34.000Z</time>
      </trkpt>
      <trkpt lat="41.79306" lon="22.978398">
        <ele>1533</ele>
        <time>2026-05-06T13:57:35.000Z</time>
      </trkpt>
      <trkpt lat="41.793065" lon="22.978403">
        <ele>1533</ele>
        <time>2026-05-06T13:57:36.000Z</time>
      </trkpt>
      <trkpt lat="41.79307" lon="22.978407">
        <ele>1533</ele>
        <time>2026-05-06T13:57:37.000Z</time>
      </trkpt>
      <trkpt lat="41.793076" lon="22.978412">
        <ele>1532.4</ele>
        <time>2026-05-06T13:57:38.000Z</time>
      </trkpt>
      <trkpt lat="41.793081" lon="22.978417">
        <ele>1532.4</ele>
        <time>2026-05-06T13:57:39.000Z</time>
      </trkpt>
      <trkpt lat="41.793086" lon="22.978422">
        <ele>1532.4</ele>
        <time>2026-05-06T13:57:40.000Z</time>
      </trkpt>
      <trkpt lat="41.79309" lon="22.978426">
        <ele>1532.4</ele>
        <time>2026-05-06T13:57:41.000Z</time>
      </trkpt>
      <trkpt lat="41.793094" lon="22.978431">
        <ele>1532.4</ele>
        <time>2026-05-06T13:57:42.000Z</time>
      </trkpt>
      <trkpt lat="41.793096" lon="22.978434">
        <ele>1532.1</ele>
        <time>2026-05-06T13:57:43.000Z</time>
      </trkpt>
      <trkpt lat="41.793098" lon="22.978437">
        <ele>1532.1</ele>
        <time>2026-05-06T13:57:44.000Z</time>
      </trkpt>
      <trkpt lat="41.793099" lon="22.978439">
        <ele>1532.1</ele>
        <time>2026-05-06T13:57:45.000Z</time>
      </trkpt>
      <trkpt lat="41.7931" lon="22.97844">
        <ele>1532.1</ele>
        <time>2026-05-06T13:57:46.000Z</time>
      </trkpt>
      <trkpt lat="41.793101" lon="22.97844">
        <ele>1532.1</ele>
        <time>2026-05-06T13:57:47.000Z</time>
      </trkpt>
      <trkpt lat="41.793101" lon="22.978441">
        <ele>1531.4</ele>
        <time>2026-05-06T13:57:48.000Z</time>
      </trkpt>
      <trkpt lat="41.793102" lon="22.978441">
        <ele>1531.4</ele>
        <time>2026-05-06T13:57:49.000Z</time>
      </trkpt>
      <trkpt lat="41.793104" lon="22.978442">
        <ele>1531.4</ele>
        <time>2026-05-06T13:57:50.000Z</time>
      </trkpt>
      <trkpt lat="41.793108" lon="22.978444">
        <ele>1531.4</ele>
        <time>2026-05-06T13:57:51.000Z</time>
      </trkpt>
      <trkpt lat="41.793113" lon="22.978446">
        <ele>1531.4</ele>
        <time>2026-05-06T13:57:52.000Z</time>
      </trkpt>
      <trkpt lat="41.793119" lon="22.978448">
        <ele>1530.6</ele>
        <time>2026-05-06T13:57:53.000Z</time>
      </trkpt>
      <trkpt lat="41.793125" lon="22.978451">
        <ele>1530.6</ele>
        <time>2026-05-06T13:57:54.000Z</time>
      </trkpt>
      <trkpt lat="41.793132" lon="22.978455">
        <ele>1530.6</ele>
        <time>2026-05-06T13:57:55.000Z</time>
      </trkpt>
      <trkpt lat="41.793137" lon="22.978459">
        <ele>1530.6</ele>
        <time>2026-05-06T13:57:56.000Z</time>
      </trkpt>
      <trkpt lat="41.793142" lon="22.978465">
        <ele>1530.6</ele>
        <time>2026-05-06T13:57:57.000Z</time>
      </trkpt>
      <trkpt lat="41.793148" lon="22.978471">
        <ele>1530.3</ele>
        <time>2026-05-06T13:57:58.000Z</time>
      </trkpt>
      <trkpt lat="41.793153" lon="22.978476">
        <ele>1530.3</ele>
        <time>2026-05-06T13:57:59.000Z</time>
      </trkpt>
      <trkpt lat="41.793158" lon="22.978481">
        <ele>1530.3</ele>
        <time>2026-05-06T13:58:00.000Z</time>
      </trkpt>
      <trkpt lat="41.793164" lon="22.978486">
        <ele>1530.3</ele>
        <time>2026-05-06T13:58:01.000Z</time>
      </trkpt>
      <trkpt lat="41.793169" lon="22.978491">
        <ele>1530.3</ele>
        <time>2026-05-06T13:58:02.000Z</time>
      </trkpt>
      <trkpt lat="41.793174" lon="22.978495">
        <ele>1529.5</ele>
        <time>2026-05-06T13:58:03.000Z</time>
      </trkpt>
      <trkpt lat="41.793179" lon="22.9785">
        <ele>1529.5</ele>
        <time>2026-05-06T13:58:04.000Z</time>
      </trkpt>
      <trkpt lat="41.793183" lon="22.978504">
        <ele>1529.5</ele>
        <time>2026-05-06T13:58:05.000Z</time>
      </trkpt>
      <trkpt lat="41.793187" lon="22.978509">
        <ele>1529.5</ele>
        <time>2026-05-06T13:58:06.000Z</time>
      </trkpt>
      <trkpt lat="41.793191" lon="22.978515">
        <ele>1529.5</ele>
        <time>2026-05-06T13:58:07.000Z</time>
      </trkpt>
      <trkpt lat="41.793197" lon="22.978521">
        <ele>1528.4</ele>
        <time>2026-05-06T13:58:08.000Z</time>
      </trkpt>
      <trkpt lat="41.793202" lon="22.978528">
        <ele>1528.4</ele>
        <time>2026-05-06T13:58:09.000Z</time>
      </trkpt>
      <trkpt lat="41.793208" lon="22.978534">
        <ele>1528.4</ele>
        <time>2026-05-06T13:58:10.000Z</time>
      </trkpt>
      <trkpt lat="41.793214" lon="22.978539">
        <ele>1528.4</ele>
        <time>2026-05-06T13:58:11.000Z</time>
      </trkpt>
      <trkpt lat="41.79322" lon="22.978545">
        <ele>1528.4</ele>
        <time>2026-05-06T13:58:12.000Z</time>
      </trkpt>
      <trkpt lat="41.793226" lon="22.97855">
        <ele>1527.8</ele>
        <time>2026-05-06T13:58:13.000Z</time>
      </trkpt>
      <trkpt lat="41.793231" lon="22.978555">
        <ele>1527.8</ele>
        <time>2026-05-06T13:58:14.000Z</time>
      </trkpt>
      <trkpt lat="41.793235" lon="22.978561">
        <ele>1527.8</ele>
        <time>2026-05-06T13:58:15.000Z</time>
      </trkpt>
      <trkpt lat="41.79324" lon="22.978568">
        <ele>1527.8</ele>
        <time>2026-05-06T13:58:16.000Z</time>
      </trkpt>
      <trkpt lat="41.793244" lon="22.978574">
        <ele>1527.8</ele>
        <time>2026-05-06T13:58:17.000Z</time>
      </trkpt>
      <trkpt lat="41.79325" lon="22.978581">
        <ele>1526.6</ele>
        <time>2026-05-06T13:58:18.000Z</time>
      </trkpt>
      <trkpt lat="41.793256" lon="22.978587">
        <ele>1526.6</ele>
        <time>2026-05-06T13:58:19.000Z</time>
      </trkpt>
      <trkpt lat="41.793261" lon="22.978592">
        <ele>1526.6</ele>
        <time>2026-05-06T13:58:20.000Z</time>
      </trkpt>
      <trkpt lat="41.793267" lon="22.978596">
        <ele>1526.6</ele>
        <time>2026-05-06T13:58:21.000Z</time>
      </trkpt>
      <trkpt lat="41.79327" lon="22.9786">
        <ele>1526.6</ele>
        <time>2026-05-06T13:58:22.000Z</time>
      </trkpt>
      <trkpt lat="41.793272" lon="22.978602">
        <ele>1525.4</ele>
        <time>2026-05-06T13:58:23.000Z</time>
      </trkpt>
      <trkpt lat="41.793274" lon="22.978602">
        <ele>1525.4</ele>
        <time>2026-05-06T13:58:24.000Z</time>
      </trkpt>
      <trkpt lat="41.793276" lon="22.978599">
        <ele>1525.4</ele>
        <time>2026-05-06T13:58:25.000Z</time>
      </trkpt>
      <trkpt lat="41.79328" lon="22.978594">
        <ele>1525.4</ele>
        <time>2026-05-06T13:58:26.000Z</time>
      </trkpt>
      <trkpt lat="41.793285" lon="22.97859">
        <ele>1525.4</ele>
        <time>2026-05-06T13:58:27.000Z</time>
      </trkpt>
      <trkpt lat="41.79329" lon="22.978589">
        <ele>1524.8</ele>
        <time>2026-05-06T13:58:28.000Z</time>
      </trkpt>
      <trkpt lat="41.793295" lon="22.97859">
        <ele>1524.8</ele>
        <time>2026-05-06T13:58:29.000Z</time>
      </trkpt>
      <trkpt lat="41.793298" lon="22.978592">
        <ele>1524.8</ele>
        <time>2026-05-06T13:58:30.000Z</time>
      </trkpt>
      <trkpt lat="41.793301" lon="22.978594">
        <ele>1524.8</ele>
        <time>2026-05-06T13:58:31.000Z</time>
      </trkpt>
      <trkpt lat="41.793303" lon="22.978594">
        <ele>1524.8</ele>
        <time>2026-05-06T13:58:32.000Z</time>
      </trkpt>
      <trkpt lat="41.793304" lon="22.978593">
        <ele>1523.6</ele>
        <time>2026-05-06T13:58:33.000Z</time>
      </trkpt>
      <trkpt lat="41.793306" lon="22.978592">
        <ele>1523.6</ele>
        <time>2026-05-06T13:58:34.000Z</time>
      </trkpt>
      <trkpt lat="41.793308" lon="22.978591">
        <ele>1523.6</ele>
        <time>2026-05-06T13:58:35.000Z</time>
      </trkpt>
      <trkpt lat="41.793309" lon="22.978591">
        <ele>1523.6</ele>
        <time>2026-05-06T13:58:36.000Z</time>
      </trkpt>
      <trkpt lat="41.793311" lon="22.97859">
        <ele>1523.6</ele>
        <time>2026-05-06T13:58:37.000Z</time>
      </trkpt>
      <trkpt lat="41.793312" lon="22.978588">
        <ele>1522.3</ele>
        <time>2026-05-06T13:58:38.000Z</time>
      </trkpt>
      <trkpt lat="41.793315" lon="22.978587">
        <ele>1522.3</ele>
        <time>2026-05-06T13:58:39.000Z</time>
      </trkpt>
      <trkpt lat="41.793318" lon="22.978586">
        <ele>1522.3</ele>
        <time>2026-05-06T13:58:40.000Z</time>
      </trkpt>
      <trkpt lat="41.793322" lon="22.978584">
        <ele>1522.3</ele>
        <time>2026-05-06T13:58:41.000Z</time>
      </trkpt>
      <trkpt lat="41.793327" lon="22.978585">
        <ele>1522.3</ele>
        <time>2026-05-06T13:58:42.000Z</time>
      </trkpt>
      <trkpt lat="41.793333" lon="22.978587">
        <ele>1521.8</ele>
        <time>2026-05-06T13:58:43.000Z</time>
      </trkpt>
      <trkpt lat="41.793339" lon="22.978589">
        <ele>1521.8</ele>
        <time>2026-05-06T13:58:44.000Z</time>
      </trkpt>
      <trkpt lat="41.793346" lon="22.978592">
        <ele>1521.8</ele>
        <time>2026-05-06T13:58:45.000Z</time>
      </trkpt>
      <trkpt lat="41.793354" lon="22.978595">
        <ele>1521.8</ele>
        <time>2026-05-06T13:58:46.000Z</time>
      </trkpt>
      <trkpt lat="41.793362" lon="22.9786">
        <ele>1521.8</ele>
        <time>2026-05-06T13:58:47.000Z</time>
      </trkpt>
      <trkpt lat="41.793369" lon="22.978603">
        <ele>1520.8</ele>
        <time>2026-05-06T13:58:48.000Z</time>
      </trkpt>
      <trkpt lat="41.793376" lon="22.978604">
        <ele>1520.8</ele>
        <time>2026-05-06T13:58:49.000Z</time>
      </trkpt>
      <trkpt lat="41.793383" lon="22.978602">
        <ele>1520.8</ele>
        <time>2026-05-06T13:58:50.000Z</time>
      </trkpt>
      <trkpt lat="41.79339" lon="22.978598">
        <ele>1520.8</ele>
        <time>2026-05-06T13:58:51.000Z</time>
      </trkpt>
      <trkpt lat="41.793397" lon="22.978592">
        <ele>1520.8</ele>
        <time>2026-05-06T13:58:52.000Z</time>
      </trkpt>
      <trkpt lat="41.793404" lon="22.978585">
        <ele>1519.5</ele>
        <time>2026-05-06T13:58:53.000Z</time>
      </trkpt>
      <trkpt lat="41.793412" lon="22.978581">
        <ele>1519.5</ele>
        <time>2026-05-06T13:58:54.000Z</time>
      </trkpt>
      <trkpt lat="41.793418" lon="22.978579">
        <ele>1519.5</ele>
        <time>2026-05-06T13:58:55.000Z</time>
      </trkpt>
      <trkpt lat="41.793423" lon="22.978579">
        <ele>1519.5</ele>
        <time>2026-05-06T13:58:56.000Z</time>
      </trkpt>
      <trkpt lat="41.793428" lon="22.97858">
        <ele>1519.5</ele>
        <time>2026-05-06T13:58:57.000Z</time>
      </trkpt>
      <trkpt lat="41.793433" lon="22.978582">
        <ele>1518.7</ele>
        <time>2026-05-06T13:58:58.000Z</time>
      </trkpt>
      <trkpt lat="41.793437" lon="22.978584">
        <ele>1518.7</ele>
        <time>2026-05-06T13:58:59.000Z</time>
      </trkpt>
      <trkpt lat="41.793439" lon="22.978587">
        <ele>1518.7</ele>
        <time>2026-05-06T13:59:00.000Z</time>
      </trkpt>
      <trkpt lat="41.79344" lon="22.978589">
        <ele>1518.7</ele>
        <time>2026-05-06T13:59:01.000Z</time>
      </trkpt>
      <trkpt lat="41.793443" lon="22.978591">
        <ele>1518.7</ele>
        <time>2026-05-06T13:59:02.000Z</time>
      </trkpt>
      <trkpt lat="41.793446" lon="22.978594">
        <ele>1516.8</ele>
        <time>2026-05-06T13:59:03.000Z</time>
      </trkpt>
      <trkpt lat="41.793452" lon="22.978599">
        <ele>1516.8</ele>
        <time>2026-05-06T13:59:04.000Z</time>
      </trkpt>
      <trkpt lat="41.793461" lon="22.978606">
        <ele>1516.8</ele>
        <time>2026-05-06T13:59:05.000Z</time>
      </trkpt>
      <trkpt lat="41.79347" lon="22.978613">
        <ele>1516.8</ele>
        <time>2026-05-06T13:59:06.000Z</time>
      </trkpt>
      <trkpt lat="41.793478" lon="22.978621">
        <ele>1516.8</ele>
        <time>2026-05-06T13:59:07.000Z</time>
      </trkpt>
      <trkpt lat="41.793485" lon="22.978628">
        <ele>1515.1</ele>
        <time>2026-05-06T13:59:08.000Z</time>
      </trkpt>
      <trkpt lat="41.793492" lon="22.978631">
        <ele>1515.1</ele>
        <time>2026-05-06T13:59:09.000Z</time>
      </trkpt>
      <trkpt lat="41.793496" lon="22.978633">
        <ele>1515.1</ele>
        <time>2026-05-06T13:59:10.000Z</time>
      </trkpt>
      <trkpt lat="41.793502" lon="22.978633">
        <ele>1515.1</ele>
        <time>2026-05-06T13:59:11.000Z</time>
      </trkpt>
      <trkpt lat="41.793508" lon="22.978631">
        <ele>1515.1</ele>
        <time>2026-05-06T13:59:12.000Z</time>
      </trkpt>
      <trkpt lat="41.793516" lon="22.978631">
        <ele>1514.5</ele>
        <time>2026-05-06T13:59:13.000Z</time>
      </trkpt>
      <trkpt lat="41.793522" lon="22.978632">
        <ele>1514.5</ele>
        <time>2026-05-06T13:59:14.000Z</time>
      </trkpt>
      <trkpt lat="41.79353" lon="22.978633">
        <ele>1514.5</ele>
        <time>2026-05-06T13:59:15.000Z</time>
      </trkpt>
      <trkpt lat="41.793536" lon="22.978636">
        <ele>1514.5</ele>
        <time>2026-05-06T13:59:16.000Z</time>
      </trkpt>
      <trkpt lat="41.793541" lon="22.97864">
        <ele>1514.5</ele>
        <time>2026-05-06T13:59:17.000Z</time>
      </trkpt>
      <trkpt lat="41.793546" lon="22.978643">
        <ele>1513.3</ele>
        <time>2026-05-06T13:59:18.000Z</time>
      </trkpt>
      <trkpt lat="41.793551" lon="22.978647">
        <ele>1513.3</ele>
        <time>2026-05-06T13:59:19.000Z</time>
      </trkpt>
      <trkpt lat="41.793557" lon="22.978653">
        <ele>1513.3</ele>
        <time>2026-05-06T13:59:20.000Z</time>
      </trkpt>
      <trkpt lat="41.793562" lon="22.978658">
        <ele>1513.3</ele>
        <time>2026-05-06T13:59:21.000Z</time>
      </trkpt>
      <trkpt lat="41.793569" lon="22.978663">
        <ele>1513.3</ele>
        <time>2026-05-06T13:59:22.000Z</time>
      </trkpt>
      <trkpt lat="41.793574" lon="22.978668">
        <ele>1512.2</ele>
        <time>2026-05-06T13:59:23.000Z</time>
      </trkpt>
      <trkpt lat="41.793578" lon="22.978672">
        <ele>1512.2</ele>
        <time>2026-05-06T13:59:24.000Z</time>
      </trkpt>
      <trkpt lat="41.793584" lon="22.978675">
        <ele>1512.2</ele>
        <time>2026-05-06T13:59:25.000Z</time>
      </trkpt>
      <trkpt lat="41.79359" lon="22.978677">
        <ele>1512.2</ele>
        <time>2026-05-06T13:59:26.000Z</time>
      </trkpt>
      <trkpt lat="41.793597" lon="22.978679">
        <ele>1512.2</ele>
        <time>2026-05-06T13:59:27.000Z</time>
      </trkpt>
      <trkpt lat="41.793605" lon="22.978682">
        <ele>1511.6</ele>
        <time>2026-05-06T13:59:28.000Z</time>
      </trkpt>
      <trkpt lat="41.793613" lon="22.978684">
        <ele>1511.6</ele>
        <time>2026-05-06T13:59:29.000Z</time>
      </trkpt>
      <trkpt lat="41.793621" lon="22.978685">
        <ele>1511.6</ele>
        <time>2026-05-06T13:59:30.000Z</time>
      </trkpt>
      <trkpt lat="41.793629" lon="22.978684">
        <ele>1511.6</ele>
        <time>2026-05-06T13:59:31.000Z</time>
      </trkpt>
      <trkpt lat="41.793636" lon="22.978683">
        <ele>1511.6</ele>
        <time>2026-05-06T13:59:32.000Z</time>
      </trkpt>
      <trkpt lat="41.793643" lon="22.978683">
        <ele>1510.1</ele>
        <time>2026-05-06T13:59:33.000Z</time>
      </trkpt>
      <trkpt lat="41.793649" lon="22.978684">
        <ele>1510.1</ele>
        <time>2026-05-06T13:59:34.000Z</time>
      </trkpt>
      <trkpt lat="41.793654" lon="22.978688">
        <ele>1510.1</ele>
        <time>2026-05-06T13:59:35.000Z</time>
      </trkpt>
      <trkpt lat="41.79366" lon="22.978693">
        <ele>1510.1</ele>
        <time>2026-05-06T13:59:36.000Z</time>
      </trkpt>
      <trkpt lat="41.793665" lon="22.978698">
        <ele>1510.1</ele>
        <time>2026-05-06T13:59:37.000Z</time>
      </trkpt>
      <trkpt lat="41.793673" lon="22.9787">
        <ele>1508.3</ele>
        <time>2026-05-06T13:59:38.000Z</time>
      </trkpt>
      <trkpt lat="41.793681" lon="22.978701">
        <ele>1508.3</ele>
        <time>2026-05-06T13:59:39.000Z</time>
      </trkpt>
      <trkpt lat="41.79369" lon="22.978701">
        <ele>1508.3</ele>
        <time>2026-05-06T13:59:40.000Z</time>
      </trkpt>
      <trkpt lat="41.793697" lon="22.978702">
        <ele>1508.3</ele>
        <time>2026-05-06T13:59:41.000Z</time>
      </trkpt>
      <trkpt lat="41.793706" lon="22.978703">
        <ele>1508.3</ele>
        <time>2026-05-06T13:59:42.000Z</time>
      </trkpt>
      <trkpt lat="41.793712" lon="22.978706">
        <ele>1507.4</ele>
        <time>2026-05-06T13:59:43.000Z</time>
      </trkpt>
      <trkpt lat="41.793717" lon="22.978708">
        <ele>1507.4</ele>
        <time>2026-05-06T13:59:44.000Z</time>
      </trkpt>
      <trkpt lat="41.79372" lon="22.97871">
        <ele>1507.4</ele>
        <time>2026-05-06T13:59:45.000Z</time>
      </trkpt>
      <trkpt lat="41.793724" lon="22.978712">
        <ele>1507.4</ele>
        <time>2026-05-06T13:59:46.000Z</time>
      </trkpt>
      <trkpt lat="41.793726" lon="22.978713">
        <ele>1507.4</ele>
        <time>2026-05-06T13:59:47.000Z</time>
      </trkpt>
      <trkpt lat="41.793727" lon="22.978713">
        <ele>1505.4</ele>
        <time>2026-05-06T13:59:48.000Z</time>
      </trkpt>
      <trkpt lat="41.793728" lon="22.978714">
        <ele>1505.4</ele>
        <time>2026-05-06T13:59:49.000Z</time>
      </trkpt>
      <trkpt lat="41.79373" lon="22.978714">
        <ele>1505.4</ele>
        <time>2026-05-06T13:59:50.000Z</time>
      </trkpt>
      <trkpt lat="41.793733" lon="22.978715">
        <ele>1505.4</ele>
        <time>2026-05-06T13:59:51.000Z</time>
      </trkpt>
      <trkpt lat="41.793736" lon="22.978717">
        <ele>1505.4</ele>
        <time>2026-05-06T13:59:52.000Z</time>
      </trkpt>
      <trkpt lat="41.793741" lon="22.97872">
        <ele>1503.7</ele>
        <time>2026-05-06T13:59:53.000Z</time>
      </trkpt>
      <trkpt lat="41.793745" lon="22.978724">
        <ele>1503.7</ele>
        <time>2026-05-06T13:59:54.000Z</time>
      </trkpt>
      <trkpt lat="41.79375" lon="22.978728">
        <ele>1503.7</ele>
        <time>2026-05-06T13:59:55.000Z</time>
      </trkpt>
      <trkpt lat="41.793754" lon="22.978731">
        <ele>1503.7</ele>
        <time>2026-05-06T13:59:56.000Z</time>
      </trkpt>
      <trkpt lat="41.793758" lon="22.978734">
        <ele>1503.7</ele>
        <time>2026-05-06T13:59:57.000Z</time>
      </trkpt>
      <trkpt lat="41.793762" lon="22.978735">
        <ele>1502.9</ele>
        <time>2026-05-06T13:59:58.000Z</time>
      </trkpt>
      <trkpt lat="41.793768" lon="22.978736">
        <ele>1502.9</ele>
        <time>2026-05-06T13:59:59.000Z</time>
      </trkpt>
      <trkpt lat="41.793773" lon="22.978739">
        <ele>1502.9</ele>
        <time>2026-05-06T14:00:00.000Z</time>
      </trkpt>
      <trkpt lat="41.793779" lon="22.978744">
        <ele>1502.9</ele>
        <time>2026-05-06T14:00:01.000Z</time>
      </trkpt>
      <trkpt lat="41.793784" lon="22.978748">
        <ele>1502.9</ele>
        <time>2026-05-06T14:00:02.000Z</time>
      </trkpt>
      <trkpt lat="41.79379" lon="22.978754">
        <ele>1501.6</ele>
        <time>2026-05-06T14:00:03.000Z</time>
      </trkpt>
      <trkpt lat="41.793794" lon="22.978759">
        <ele>1501.6</ele>
        <time>2026-05-06T14:00:04.000Z</time>
      </trkpt>
      <trkpt lat="41.793798" lon="22.97876">
        <ele>1501.6</ele>
        <time>2026-05-06T14:00:05.000Z</time>
      </trkpt>
      <trkpt lat="41.793801" lon="22.978759">
        <ele>1501.6</ele>
        <time>2026-05-06T14:00:06.000Z</time>
      </trkpt>
      <trkpt lat="41.793804" lon="22.978756">
        <ele>1501.6</ele>
        <time>2026-05-06T14:00:07.000Z</time>
      </trkpt>
      <trkpt lat="41.793807" lon="22.978751">
        <ele>1500.4</ele>
        <time>2026-05-06T14:00:08.000Z</time>
      </trkpt>
      <trkpt lat="41.79381" lon="22.978746">
        <ele>1500.4</ele>
        <time>2026-05-06T14:00:09.000Z</time>
      </trkpt>
      <trkpt lat="41.793813" lon="22.978743">
        <ele>1500.4</ele>
        <time>2026-05-06T14:00:10.000Z</time>
      </trkpt>
      <trkpt lat="41.793817" lon="22.97874">
        <ele>1500.4</ele>
        <time>2026-05-06T14:00:11.000Z</time>
      </trkpt>
      <trkpt lat="41.793818" lon="22.978739">
        <ele>1500.4</ele>
        <time>2026-05-06T14:00:12.000Z</time>
      </trkpt>
      <trkpt lat="41.79382" lon="22.978739">
        <ele>1499.8</ele>
        <time>2026-05-06T14:00:13.000Z</time>
      </trkpt>
      <trkpt lat="41.793823" lon="22.978739">
        <ele>1499.8</ele>
        <time>2026-05-06T14:00:14.000Z</time>
      </trkpt>
      <trkpt lat="41.793827" lon="22.978739">
        <ele>1499.8</ele>
        <time>2026-05-06T14:00:15.000Z</time>
      </trkpt>
      <trkpt lat="41.793832" lon="22.978739">
        <ele>1499.8</ele>
        <time>2026-05-06T14:00:16.000Z</time>
      </trkpt>
      <trkpt lat="41.793837" lon="22.97874">
        <ele>1499.8</ele>
        <time>2026-05-06T14:00:17.000Z</time>
      </trkpt>
      <trkpt lat="41.793843" lon="22.978742">
        <ele>1498.6</ele>
        <time>2026-05-06T14:00:18.000Z</time>
      </trkpt>
      <trkpt lat="41.793849" lon="22.978744">
        <ele>1498.6</ele>
        <time>2026-05-06T14:00:19.000Z</time>
      </trkpt>
      <trkpt lat="41.793854" lon="22.978747">
        <ele>1498.6</ele>
        <time>2026-05-06T14:00:20.000Z</time>
      </trkpt>
      <trkpt lat="41.793858" lon="22.97875">
        <ele>1498.6</ele>
        <time>2026-05-06T14:00:21.000Z</time>
      </trkpt>
      <trkpt lat="41.793862" lon="22.978752">
        <ele>1498.6</ele>
        <time>2026-05-06T14:00:22.000Z</time>
      </trkpt>
      <trkpt lat="41.793864" lon="22.978754">
        <ele>1497.3</ele>
        <time>2026-05-06T14:00:23.000Z</time>
      </trkpt>
      <trkpt lat="41.793864" lon="22.978757">
        <ele>1497.3</ele>
        <time>2026-05-06T14:00:24.000Z</time>
      </trkpt>
      <trkpt lat="41.793865" lon="22.978759">
        <ele>1497.3</ele>
        <time>2026-05-06T14:00:25.000Z</time>
      </trkpt>
      <trkpt lat="41.793866" lon="22.978761">
        <ele>1497.3</ele>
        <time>2026-05-06T14:00:26.000Z</time>
      </trkpt>
      <trkpt lat="41.793867" lon="22.978763">
        <ele>1497.3</ele>
        <time>2026-05-06T14:00:27.000Z</time>
      </trkpt>
      <trkpt lat="41.79387" lon="22.978765">
        <ele>1496.7</ele>
        <time>2026-05-06T14:00:28.000Z</time>
      </trkpt>
      <trkpt lat="41.793872" lon="22.978766">
        <ele>1496.7</ele>
        <time>2026-05-06T14:00:29.000Z</time>
      </trkpt>
      <trkpt lat="41.793874" lon="22.978766">
        <ele>1496.7</ele>
        <time>2026-05-06T14:00:30.000Z</time>
      </trkpt>
      <trkpt lat="41.793876" lon="22.978766">
        <ele>1496.7</ele>
        <time>2026-05-06T14:00:31.000Z</time>
      </trkpt>
      <trkpt lat="41.793878" lon="22.978766">
        <ele>1496.7</ele>
        <time>2026-05-06T14:00:32.000Z</time>
      </trkpt>
      <trkpt lat="41.793879" lon="22.978766">
        <ele>1495.7</ele>
        <time>2026-05-06T14:00:33.000Z</time>
      </trkpt>
      <trkpt lat="41.79388" lon="22.978765">
        <ele>1495.7</ele>
        <time>2026-05-06T14:00:34.000Z</time>
      </trkpt>
      <trkpt lat="41.79388" lon="22.978765">
        <ele>1495.7</ele>
        <time>2026-05-06T14:00:35.000Z</time>
      </trkpt>
      <trkpt lat="41.79388" lon="22.978765">
        <ele>1495.7</ele>
        <time>2026-05-06T14:00:36.000Z</time>
      </trkpt>
      <trkpt lat="41.79388" lon="22.978765">
        <ele>1495.7</ele>
        <time>2026-05-06T14:00:37.000Z</time>
      </trkpt>
      <trkpt lat="41.793881" lon="22.978766">
        <ele>1495.2</ele>
        <time>2026-05-06T14:00:38.000Z</time>
      </trkpt>
      <trkpt lat="41.793883" lon="22.978767">
        <ele>1495.2</ele>
        <time>2026-05-06T14:00:39.000Z</time>
      </trkpt>
      <trkpt lat="41.793886" lon="22.978769">
        <ele>1495.2</ele>
        <time>2026-05-06T14:00:40.000Z</time>
      </trkpt>
      <trkpt lat="41.793889" lon="22.978771">
        <ele>1495.2</ele>
        <time>2026-05-06T14:00:41.000Z</time>
      </trkpt>
      <trkpt lat="41.793894" lon="22.978772">
        <ele>1495.2</ele>
        <time>2026-05-06T14:00:42.000Z</time>
      </trkpt>
      <trkpt lat="41.793899" lon="22.978774">
        <ele>1495.1</ele>
        <time>2026-05-06T14:00:43.000Z</time>
      </trkpt>
      <trkpt lat="41.793905" lon="22.978773">
        <ele>1495.1</ele>
        <time>2026-05-06T14:00:44.000Z</time>
      </trkpt>
      <trkpt lat="41.793911" lon="22.978771">
        <ele>1495.1</ele>
        <time>2026-05-06T14:00:45.000Z</time>
      </trkpt>
      <trkpt lat="41.793918" lon="22.978769">
        <ele>1495.1</ele>
        <time>2026-05-06T14:00:46.000Z</time>
      </trkpt>
      <trkpt lat="41.793924" lon="22.978766">
        <ele>1495.1</ele>
        <time>2026-05-06T14:00:47.000Z</time>
      </trkpt>
      <trkpt lat="41.793933" lon="22.978764">
        <ele>1494.7</ele>
        <time>2026-05-06T14:00:48.000Z</time>
      </trkpt>
      <trkpt lat="41.79394" lon="22.978764">
        <ele>1494.7</ele>
        <time>2026-05-06T14:00:49.000Z</time>
      </trkpt>
      <trkpt lat="41.793947" lon="22.978764">
        <ele>1494.7</ele>
        <time>2026-05-06T14:00:50.000Z</time>
      </trkpt>
      <trkpt lat="41.793955" lon="22.978765">
        <ele>1494.7</ele>
        <time>2026-05-06T14:00:51.000Z</time>
      </trkpt>
      <trkpt lat="41.793961" lon="22.978767">
        <ele>1494.7</ele>
        <time>2026-05-06T14:00:52.000Z</time>
      </trkpt>
      <trkpt lat="41.793966" lon="22.978768">
        <ele>1493.7</ele>
        <time>2026-05-06T14:00:53.000Z</time>
      </trkpt>
      <trkpt lat="41.793969" lon="22.978767">
        <ele>1493.7</ele>
        <time>2026-05-06T14:00:54.000Z</time>
      </trkpt>
      <trkpt lat="41.793972" lon="22.978766">
        <ele>1493.7</ele>
        <time>2026-05-06T14:00:55.000Z</time>
      </trkpt>
      <trkpt lat="41.793974" lon="22.978765">
        <ele>1493.7</ele>
        <time>2026-05-06T14:00:56.000Z</time>
      </trkpt>
      <trkpt lat="41.793976" lon="22.978763">
        <ele>1493.7</ele>
        <time>2026-05-06T14:00:57.000Z</time>
      </trkpt>
      <trkpt lat="41.793977" lon="22.978762">
        <ele>1493</ele>
        <time>2026-05-06T14:00:58.000Z</time>
      </trkpt>
      <trkpt lat="41.793978" lon="22.978761">
        <ele>1493</ele>
        <time>2026-05-06T14:00:59.000Z</time>
      </trkpt>
      <trkpt lat="41.79398" lon="22.97876">
        <ele>1493</ele>
        <time>2026-05-06T14:01:00.000Z</time>
      </trkpt>
      <trkpt lat="41.793982" lon="22.978758">
        <ele>1493</ele>
        <time>2026-05-06T14:01:01.000Z</time>
      </trkpt>
      <trkpt lat="41.793984" lon="22.978757">
        <ele>1493</ele>
        <time>2026-05-06T14:01:02.000Z</time>
      </trkpt>
      <trkpt lat="41.793987" lon="22.978756">
        <ele>1491.8</ele>
        <time>2026-05-06T14:01:03.000Z</time>
      </trkpt>
      <trkpt lat="41.793989" lon="22.978755">
        <ele>1491.8</ele>
        <time>2026-05-06T14:01:04.000Z</time>
      </trkpt>
      <trkpt lat="41.793991" lon="22.978754">
        <ele>1491.8</ele>
        <time>2026-05-06T14:01:05.000Z</time>
      </trkpt>
      <trkpt lat="41.793994" lon="22.978755">
        <ele>1491.8</ele>
        <time>2026-05-06T14:01:06.000Z</time>
      </trkpt>
      <trkpt lat="41.793997" lon="22.978755">
        <ele>1491.8</ele>
        <time>2026-05-06T14:01:07.000Z</time>
      </trkpt>
      <trkpt lat="41.794002" lon="22.978755">
        <ele>1490.9</ele>
        <time>2026-05-06T14:01:08.000Z</time>
      </trkpt>
      <trkpt lat="41.794008" lon="22.978754">
        <ele>1490.9</ele>
        <time>2026-05-06T14:01:09.000Z</time>
      </trkpt>
      <trkpt lat="41.794015" lon="22.978754">
        <ele>1490.9</ele>
        <time>2026-05-06T14:01:10.000Z</time>
      </trkpt>
      <trkpt lat="41.794021" lon="22.978752">
        <ele>1490.9</ele>
        <time>2026-05-06T14:01:11.000Z</time>
      </trkpt>
      <trkpt lat="41.794028" lon="22.978749">
        <ele>1490.9</ele>
        <time>2026-05-06T14:01:12.000Z</time>
      </trkpt>
      <trkpt lat="41.794033" lon="22.978748">
        <ele>1490.6</ele>
        <time>2026-05-06T14:01:13.000Z</time>
      </trkpt>
      <trkpt lat="41.794038" lon="22.978747">
        <ele>1490.6</ele>
        <time>2026-05-06T14:01:14.000Z</time>
      </trkpt>
      <trkpt lat="41.794044" lon="22.978745">
        <ele>1490.6</ele>
        <time>2026-05-06T14:01:15.000Z</time>
      </trkpt>
      <trkpt lat="41.79405" lon="22.978743">
        <ele>1490.6</ele>
        <time>2026-05-06T14:01:16.000Z</time>
      </trkpt>
      <trkpt lat="41.794057" lon="22.978741">
        <ele>1490.6</ele>
        <time>2026-05-06T14:01:17.000Z</time>
      </trkpt>
      <trkpt lat="41.794065" lon="22.97874">
        <ele>1489.9</ele>
        <time>2026-05-06T14:01:18.000Z</time>
      </trkpt>
      <trkpt lat="41.794072" lon="22.978741">
        <ele>1489.9</ele>
        <time>2026-05-06T14:01:19.000Z</time>
      </trkpt>
      <trkpt lat="41.794082" lon="22.978742">
        <ele>1489.9</ele>
        <time>2026-05-06T14:01:20.000Z</time>
      </trkpt>
      <trkpt lat="41.794092" lon="22.978746">
        <ele>1489.9</ele>
        <time>2026-05-06T14:01:21.000Z</time>
      </trkpt>
      <trkpt lat="41.794102" lon="22.978753">
        <ele>1489.9</ele>
        <time>2026-05-06T14:01:22.000Z</time>
      </trkpt>
      <trkpt lat="41.794112" lon="22.978759">
        <ele>1488.6</ele>
        <time>2026-05-06T14:01:23.000Z</time>
      </trkpt>
      <trkpt lat="41.794123" lon="22.978764">
        <ele>1488.6</ele>
        <time>2026-05-06T14:01:24.000Z</time>
      </trkpt>
      <trkpt lat="41.794132" lon="22.978768">
        <ele>1488.6</ele>
        <time>2026-05-06T14:01:25.000Z</time>
      </trkpt>
      <trkpt lat="41.794141" lon="22.978772">
        <ele>1488.6</ele>
        <time>2026-05-06T14:01:26.000Z</time>
      </trkpt>
      <trkpt lat="41.79415" lon="22.978775">
        <ele>1488.6</ele>
        <time>2026-05-06T14:01:27.000Z</time>
      </trkpt>
      <trkpt lat="41.794158" lon="22.978779">
        <ele>1487.8</ele>
        <time>2026-05-06T14:01:28.000Z</time>
      </trkpt>
      <trkpt lat="41.794163" lon="22.978783">
        <ele>1487.8</ele>
        <time>2026-05-06T14:01:29.000Z</time>
      </trkpt>
      <trkpt lat="41.794167" lon="22.97879">
        <ele>1487.8</ele>
        <time>2026-05-06T14:01:30.000Z</time>
      </trkpt>
      <trkpt lat="41.79417" lon="22.978797">
        <ele>1487.8</ele>
        <time>2026-05-06T14:01:31.000Z</time>
      </trkpt>
      <trkpt lat="41.794173" lon="22.978802">
        <ele>1487.8</ele>
        <time>2026-05-06T14:01:32.000Z</time>
      </trkpt>
      <trkpt lat="41.794177" lon="22.978806">
        <ele>1486</ele>
        <time>2026-05-06T14:01:33.000Z</time>
      </trkpt>
      <trkpt lat="41.794181" lon="22.97881">
        <ele>1486</ele>
        <time>2026-05-06T14:01:34.000Z</time>
      </trkpt>
      <trkpt lat="41.794184" lon="22.978813">
        <ele>1486</ele>
        <time>2026-05-06T14:01:35.000Z</time>
      </trkpt>
      <trkpt lat="41.794186" lon="22.978815">
        <ele>1486</ele>
        <time>2026-05-06T14:01:36.000Z</time>
      </trkpt>
      <trkpt lat="41.794186" lon="22.978818">
        <ele>1486</ele>
        <time>2026-05-06T14:01:37.000Z</time>
      </trkpt>
      <trkpt lat="41.794186" lon="22.978819">
        <ele>1484.5</ele>
        <time>2026-05-06T14:01:38.000Z</time>
      </trkpt>
      <trkpt lat="41.794186" lon="22.978819">
        <ele>1484.5</ele>
        <time>2026-05-06T14:01:39.000Z</time>
      </trkpt>
      <trkpt lat="41.794187" lon="22.978815">
        <ele>1484.5</ele>
        <time>2026-05-06T14:01:40.000Z</time>
      </trkpt>
      <trkpt lat="41.794189" lon="22.97881">
        <ele>1484.5</ele>
        <time>2026-05-06T14:01:41.000Z</time>
      </trkpt>
      <trkpt lat="41.794192" lon="22.978805">
        <ele>1484.5</ele>
        <time>2026-05-06T14:01:42.000Z</time>
      </trkpt>
      <trkpt lat="41.794195" lon="22.978799">
        <ele>1483.8</ele>
        <time>2026-05-06T14:01:43.000Z</time>
      </trkpt>
      <trkpt lat="41.794199" lon="22.978795">
        <ele>1483.8</ele>
        <time>2026-05-06T14:01:44.000Z</time>
      </trkpt>
      <trkpt lat="41.794204" lon="22.978797">
        <ele>1483.8</ele>
        <time>2026-05-06T14:01:45.000Z</time>
      </trkpt>
      <trkpt lat="41.79421" lon="22.978804">
        <ele>1483.8</ele>
        <time>2026-05-06T14:01:46.000Z</time>
      </trkpt>
      <trkpt lat="41.794214" lon="22.978812">
        <ele>1483.8</ele>
        <time>2026-05-06T14:01:47.000Z</time>
      </trkpt>
      <trkpt lat="41.794219" lon="22.978824">
        <ele>1482.7</ele>
        <time>2026-05-06T14:01:48.000Z</time>
      </trkpt>
      <trkpt lat="41.794224" lon="22.978837">
        <ele>1482.7</ele>
        <time>2026-05-06T14:01:49.000Z</time>
      </trkpt>
      <trkpt lat="41.794229" lon="22.978849">
        <ele>1482.7</ele>
        <time>2026-05-06T14:01:50.000Z</time>
      </trkpt>
      <trkpt lat="41.794234" lon="22.978856">
        <ele>1482.7</ele>
        <time>2026-05-06T14:01:51.000Z</time>
      </trkpt>
      <trkpt lat="41.79424" lon="22.978862">
        <ele>1482.7</ele>
        <time>2026-05-06T14:01:52.000Z</time>
      </trkpt>
      <trkpt lat="41.794245" lon="22.978865">
        <ele>1481.6</ele>
        <time>2026-05-06T14:01:53.000Z</time>
      </trkpt>
      <trkpt lat="41.794252" lon="22.978868">
        <ele>1481.6</ele>
        <time>2026-05-06T14:01:54.000Z</time>
      </trkpt>
      <trkpt lat="41.794257" lon="22.978869">
        <ele>1481.6</ele>
        <time>2026-05-06T14:01:55.000Z</time>
      </trkpt>
      <trkpt lat="41.794262" lon="22.97887">
        <ele>1481.6</ele>
        <time>2026-05-06T14:01:56.000Z</time>
      </trkpt>
      <trkpt lat="41.794267" lon="22.978873">
        <ele>1481.6</ele>
        <time>2026-05-06T14:01:57.000Z</time>
      </trkpt>
      <trkpt lat="41.79427" lon="22.978876">
        <ele>1481</ele>
        <time>2026-05-06T14:01:58.000Z</time>
      </trkpt>
      <trkpt lat="41.794272" lon="22.97888">
        <ele>1481</ele>
        <time>2026-05-06T14:01:59.000Z</time>
      </trkpt>
      <trkpt lat="41.794274" lon="22.978885">
        <ele>1481</ele>
        <time>2026-05-06T14:02:00.000Z</time>
      </trkpt>
      <trkpt lat="41.794275" lon="22.978893">
        <ele>1481</ele>
        <time>2026-05-06T14:02:01.000Z</time>
      </trkpt>
      <trkpt lat="41.794276" lon="22.9789">
        <ele>1481</ele>
        <time>2026-05-06T14:02:02.000Z</time>
      </trkpt>
      <trkpt lat="41.794277" lon="22.978906">
        <ele>1479.6</ele>
        <time>2026-05-06T14:02:03.000Z</time>
      </trkpt>
      <trkpt lat="41.794279" lon="22.97891">
        <ele>1479.6</ele>
        <time>2026-05-06T14:02:04.000Z</time>
      </trkpt>
      <trkpt lat="41.79428" lon="22.978913">
        <ele>1479.6</ele>
        <time>2026-05-06T14:02:05.000Z</time>
      </trkpt>
      <trkpt lat="41.794282" lon="22.978915">
        <ele>1479.6</ele>
        <time>2026-05-06T14:02:06.000Z</time>
      </trkpt>
      <trkpt lat="41.794286" lon="22.978917">
        <ele>1479.6</ele>
        <time>2026-05-06T14:02:07.000Z</time>
      </trkpt>
      <trkpt lat="41.794288" lon="22.978919">
        <ele>1478.1</ele>
        <time>2026-05-06T14:02:08.000Z</time>
      </trkpt>
      <trkpt lat="41.794291" lon="22.978921">
        <ele>1478.1</ele>
        <time>2026-05-06T14:02:09.000Z</time>
      </trkpt>
      <trkpt lat="41.794294" lon="22.978923">
        <ele>1478.1</ele>
        <time>2026-05-06T14:02:10.000Z</time>
      </trkpt>
      <trkpt lat="41.794297" lon="22.978925">
        <ele>1478.1</ele>
        <time>2026-05-06T14:02:11.000Z</time>
      </trkpt>
      <trkpt lat="41.794297" lon="22.978927">
        <ele>1478.1</ele>
        <time>2026-05-06T14:02:12.000Z</time>
      </trkpt>
      <trkpt lat="41.794298" lon="22.978929">
        <ele>1477.4</ele>
        <time>2026-05-06T14:02:13.000Z</time>
      </trkpt>
      <trkpt lat="41.7943" lon="22.978931">
        <ele>1477.4</ele>
        <time>2026-05-06T14:02:14.000Z</time>
      </trkpt>
      <trkpt lat="41.794302" lon="22.978932">
        <ele>1477.4</ele>
        <time>2026-05-06T14:02:15.000Z</time>
      </trkpt>
      <trkpt lat="41.794305" lon="22.978932">
        <ele>1477.4</ele>
        <time>2026-05-06T14:02:16.000Z</time>
      </trkpt>
      <trkpt lat="41.794311" lon="22.978934">
        <ele>1477.4</ele>
        <time>2026-05-06T14:02:17.000Z</time>
      </trkpt>
      <trkpt lat="41.794318" lon="22.978935">
        <ele>1476.4</ele>
        <time>2026-05-06T14:02:18.000Z</time>
      </trkpt>
      <trkpt lat="41.794323" lon="22.978937">
        <ele>1476.4</ele>
        <time>2026-05-06T14:02:19.000Z</time>
      </trkpt>
      <trkpt lat="41.794327" lon="22.978938">
        <ele>1476.4</ele>
        <time>2026-05-06T14:02:20.000Z</time>
      </trkpt>
      <trkpt lat="41.79433" lon="22.978938">
        <ele>1476.4</ele>
        <time>2026-05-06T14:02:21.000Z</time>
      </trkpt>
      <trkpt lat="41.79433" lon="22.978938">
        <ele>1476.4</ele>
        <time>2026-05-06T14:02:22.000Z</time>
      </trkpt>
      <trkpt lat="41.79433" lon="22.978937">
        <ele>1475.9</ele>
        <time>2026-05-06T14:02:23.000Z</time>
      </trkpt>
      <trkpt lat="41.794329" lon="22.978936">
        <ele>1475.9</ele>
        <time>2026-05-06T14:02:24.000Z</time>
      </trkpt>
      <trkpt lat="41.794328" lon="22.978936">
        <ele>1475.9</ele>
        <time>2026-05-06T14:02:25.000Z</time>
      </trkpt>
      <trkpt lat="41.794327" lon="22.978937">
        <ele>1475.9</ele>
        <time>2026-05-06T14:02:26.000Z</time>
      </trkpt>
      <trkpt lat="41.794326" lon="22.978937">
        <ele>1475.9</ele>
        <time>2026-05-06T14:02:27.000Z</time>
      </trkpt>
      <trkpt lat="41.794326" lon="22.978938">
        <ele>1475.6</ele>
        <time>2026-05-06T14:02:28.000Z</time>
      </trkpt>
      <trkpt lat="41.794325" lon="22.978939">
        <ele>1475.6</ele>
        <time>2026-05-06T14:02:29.000Z</time>
      </trkpt>
      <trkpt lat="41.794326" lon="22.978938">
        <ele>1475.6</ele>
        <time>2026-05-06T14:02:30.000Z</time>
      </trkpt>
      <trkpt lat="41.794326" lon="22.978938">
        <ele>1475.6</ele>
        <time>2026-05-06T14:02:31.000Z</time>
      </trkpt>
      <trkpt lat="41.794325" lon="22.978937">
        <ele>1475.6</ele>
        <time>2026-05-06T14:02:32.000Z</time>
      </trkpt>
      <trkpt lat="41.794324" lon="22.978937">
        <ele>1475.2</ele>
        <time>2026-05-06T14:02:33.000Z</time>
      </trkpt>
      <trkpt lat="41.794324" lon="22.978936">
        <ele>1475.2</ele>
        <time>2026-05-06T14:02:34.000Z</time>
      </trkpt>
      <trkpt lat="41.794323" lon="22.978936">
        <ele>1475.2</ele>
        <time>2026-05-06T14:02:35.000Z</time>
      </trkpt>
      <trkpt lat="41.794323" lon="22.978936">
        <ele>1475.2</ele>
        <time>2026-05-06T14:02:36.000Z</time>
      </trkpt>
      <trkpt lat="41.794322" lon="22.978936">
        <ele>1475.2</ele>
        <time>2026-05-06T14:02:37.000Z</time>
      </trkpt>
      <trkpt lat="41.794322" lon="22.978936">
        <ele>1475</ele>
        <time>2026-05-06T14:02:38.000Z</time>
      </trkpt>
      <trkpt lat="41.794323" lon="22.978937">
        <ele>1475</ele>
        <time>2026-05-06T14:02:39.000Z</time>
      </trkpt>
      <trkpt lat="41.794323" lon="22.978937">
        <ele>1475</ele>
        <time>2026-05-06T14:02:40.000Z</time>
      </trkpt>
      <trkpt lat="41.794322" lon="22.978937">
        <ele>1475</ele>
        <time>2026-05-06T14:02:41.000Z</time>
      </trkpt>
      <trkpt lat="41.794322" lon="22.978937">
        <ele>1475</ele>
        <time>2026-05-06T14:02:42.000Z</time>
      </trkpt>
      <trkpt lat="41.794322" lon="22.978937">
        <ele>1475</ele>
        <time>2026-05-06T14:02:43.000Z</time>
      </trkpt>
      <trkpt lat="41.794322" lon="22.978938">
        <ele>1475</ele>
        <time>2026-05-06T14:02:44.000Z</time>
      </trkpt>
      <trkpt lat="41.794322" lon="22.978938">
        <ele>1475</ele>
        <time>2026-05-06T14:02:45.000Z</time>
      </trkpt>
      <trkpt lat="41.794322" lon="22.978938">
        <ele>1475</ele>
        <time>2026-05-06T14:02:46.000Z</time>
      </trkpt>
      <trkpt lat="41.794322" lon="22.978938">
        <ele>1475</ele>
        <time>2026-05-06T14:02:47.000Z</time>
      </trkpt>
      <trkpt lat="41.794322" lon="22.978938">
        <ele>1475.1</ele>
        <time>2026-05-06T14:02:48.000Z</time>
      </trkpt>
      <trkpt lat="41.794322" lon="22.978937">
        <ele>1475.1</ele>
        <time>2026-05-06T14:02:49.000Z</time>
      </trkpt>
      <trkpt lat="41.794321" lon="22.978937">
        <ele>1475.1</ele>
        <time>2026-05-06T14:02:50.000Z</time>
      </trkpt>
      <trkpt lat="41.794321" lon="22.978937">
        <ele>1475.1</ele>
        <time>2026-05-06T14:02:51.000Z</time>
      </trkpt>
      <trkpt lat="41.794321" lon="22.978937">
        <ele>1475.1</ele>
        <time>2026-05-06T14:02:52.000Z</time>
      </trkpt>
      <trkpt lat="41.794319" lon="22.978937">
        <ele>1475.1</ele>
        <time>2026-05-06T14:02:53.000Z</time>
      </trkpt>
      <trkpt lat="41.794318" lon="22.978937">
        <ele>1475.1</ele>
        <time>2026-05-06T14:02:54.000Z</time>
      </trkpt>
      <trkpt lat="41.794317" lon="22.978936">
        <ele>1475.1</ele>
        <time>2026-05-06T14:02:55.000Z</time>
      </trkpt>
      <trkpt lat="41.794315" lon="22.978937">
        <ele>1475.1</ele>
        <time>2026-05-06T14:02:56.000Z</time>
      </trkpt>
      <trkpt lat="41.794313" lon="22.978937">
        <ele>1475.1</ele>
        <time>2026-05-06T14:02:57.000Z</time>
      </trkpt>
      <trkpt lat="41.794312" lon="22.978937">
        <ele>1475.1</ele>
        <time>2026-05-06T14:02:58.000Z</time>
      </trkpt>
      <trkpt lat="41.794311" lon="22.978938">
        <ele>1475.1</ele>
        <time>2026-05-06T14:02:59.000Z</time>
      </trkpt>
      <trkpt lat="41.79431" lon="22.978939">
        <ele>1475.1</ele>
        <time>2026-05-06T14:03:00.000Z</time>
      </trkpt>
      <trkpt lat="41.79431" lon="22.97894">
        <ele>1475.1</ele>
        <time>2026-05-06T14:03:01.000Z</time>
      </trkpt>
      <trkpt lat="41.79431" lon="22.978941">
        <ele>1475.1</ele>
        <time>2026-05-06T14:03:02.000Z</time>
      </trkpt>
      <trkpt lat="41.79431" lon="22.978944">
        <ele>1475.3</ele>
        <time>2026-05-06T14:03:03.000Z</time>
      </trkpt>
      <trkpt lat="41.794309" lon="22.978947">
        <ele>1475.3</ele>
        <time>2026-05-06T14:03:04.000Z</time>
      </trkpt>
      <trkpt lat="41.794309" lon="22.978949">
        <ele>1475.3</ele>
        <time>2026-05-06T14:03:05.000Z</time>
      </trkpt>
      <trkpt lat="41.794308" lon="22.978952">
        <ele>1475.3</ele>
        <time>2026-05-06T14:03:06.000Z</time>
      </trkpt>
      <trkpt lat="41.794308" lon="22.978954">
        <ele>1475.3</ele>
        <time>2026-05-06T14:03:07.000Z</time>
      </trkpt>
      <trkpt lat="41.794308" lon="22.978954">
        <ele>1475.3</ele>
        <time>2026-05-06T14:03:08.000Z</time>
      </trkpt>
      <trkpt lat="41.79431" lon="22.978955">
        <ele>1475.3</ele>
        <time>2026-05-06T14:03:09.000Z</time>
      </trkpt>
      <trkpt lat="41.794311" lon="22.978958">
        <ele>1475.3</ele>
        <time>2026-05-06T14:03:10.000Z</time>
      </trkpt>
      <trkpt lat="41.794313" lon="22.978961">
        <ele>1475.3</ele>
        <time>2026-05-06T14:03:11.000Z</time>
      </trkpt>
      <trkpt lat="41.794315" lon="22.978965">
        <ele>1475.3</ele>
        <time>2026-05-06T14:03:12.000Z</time>
      </trkpt>
      <trkpt lat="41.794318" lon="22.97897">
        <ele>1475.3</ele>
        <time>2026-05-06T14:03:13.000Z</time>
      </trkpt>
      <trkpt lat="41.79432" lon="22.978975">
        <ele>1475.3</ele>
        <time>2026-05-06T14:03:14.000Z</time>
      </trkpt>
      <trkpt lat="41.794322" lon="22.978981">
        <ele>1475.3</ele>
        <time>2026-05-06T14:03:15.000Z</time>
      </trkpt>
      <trkpt lat="41.794323" lon="22.978988">
        <ele>1475.3</ele>
        <time>2026-05-06T14:03:16.000Z</time>
      </trkpt>
      <trkpt lat="41.794325" lon="22.978993">
        <ele>1475.3</ele>
        <time>2026-05-06T14:03:17.000Z</time>
      </trkpt>
      <trkpt lat="41.794326" lon="22.978998">
        <ele>1474.9</ele>
        <time>2026-05-06T14:03:18.000Z</time>
      </trkpt>
      <trkpt lat="41.794327" lon="22.979002">
        <ele>1474.9</ele>
        <time>2026-05-06T14:03:19.000Z</time>
      </trkpt>
      <trkpt lat="41.794327" lon="22.979005">
        <ele>1474.9</ele>
        <time>2026-05-06T14:03:20.000Z</time>
      </trkpt>
      <trkpt lat="41.794327" lon="22.979006">
        <ele>1474.9</ele>
        <time>2026-05-06T14:03:21.000Z</time>
      </trkpt>
      <trkpt lat="41.794327" lon="22.979007">
        <ele>1474.9</ele>
        <time>2026-05-06T14:03:22.000Z</time>
      </trkpt>
      <trkpt lat="41.794327" lon="22.979008">
        <ele>1473.9</ele>
        <time>2026-05-06T14:03:23.000Z</time>
      </trkpt>
      <trkpt lat="41.794327" lon="22.979009">
        <ele>1473.9</ele>
        <time>2026-05-06T14:03:24.000Z</time>
      </trkpt>
      <trkpt lat="41.794326" lon="22.97901">
        <ele>1473.9</ele>
        <time>2026-05-06T14:03:25.000Z</time>
      </trkpt>
      <trkpt lat="41.794326" lon="22.979012">
        <ele>1473.9</ele>
        <time>2026-05-06T14:03:26.000Z</time>
      </trkpt>
      <trkpt lat="41.794326" lon="22.979015">
        <ele>1473.9</ele>
        <time>2026-05-06T14:03:27.000Z</time>
      </trkpt>
      <trkpt lat="41.794327" lon="22.97902">
        <ele>1473.4</ele>
        <time>2026-05-06T14:03:28.000Z</time>
      </trkpt>
      <trkpt lat="41.794329" lon="22.979026">
        <ele>1473.4</ele>
        <time>2026-05-06T14:03:29.000Z</time>
      </trkpt>
      <trkpt lat="41.794332" lon="22.979033">
        <ele>1473.4</ele>
        <time>2026-05-06T14:03:30.000Z</time>
      </trkpt>
      <trkpt lat="41.794335" lon="22.97904">
        <ele>1473.4</ele>
        <time>2026-05-06T14:03:31.000Z</time>
      </trkpt>
      <trkpt lat="41.794338" lon="22.979046">
        <ele>1473.4</ele>
        <time>2026-05-06T14:03:32.000Z</time>
      </trkpt>
      <trkpt lat="41.79434" lon="22.979052">
        <ele>1472.6</ele>
        <time>2026-05-06T14:03:33.000Z</time>
      </trkpt>
      <trkpt lat="41.794343" lon="22.979058">
        <ele>1472.6</ele>
        <time>2026-05-06T14:03:34.000Z</time>
      </trkpt>
      <trkpt lat="41.794346" lon="22.979062">
        <ele>1472.6</ele>
        <time>2026-05-06T14:03:35.000Z</time>
      </trkpt>
      <trkpt lat="41.794349" lon="22.979066">
        <ele>1472.6</ele>
        <time>2026-05-06T14:03:36.000Z</time>
      </trkpt>
      <trkpt lat="41.794352" lon="22.97907">
        <ele>1472.6</ele>
        <time>2026-05-06T14:03:37.000Z</time>
      </trkpt>
      <trkpt lat="41.794356" lon="22.979071">
        <ele>1472.2</ele>
        <time>2026-05-06T14:03:38.000Z</time>
      </trkpt>
      <trkpt lat="41.794359" lon="22.979073">
        <ele>1472.2</ele>
        <time>2026-05-06T14:03:39.000Z</time>
      </trkpt>
      <trkpt lat="41.794361" lon="22.979072">
        <ele>1472.2</ele>
        <time>2026-05-06T14:03:40.000Z</time>
      </trkpt>
      <trkpt lat="41.794362" lon="22.97907">
        <ele>1472.2</ele>
        <time>2026-05-06T14:03:41.000Z</time>
      </trkpt>
      <trkpt lat="41.794364" lon="22.979066">
        <ele>1472.2</ele>
        <time>2026-05-06T14:03:42.000Z</time>
      </trkpt>
      <trkpt lat="41.794365" lon="22.979062">
        <ele>1471.9</ele>
        <time>2026-05-06T14:03:43.000Z</time>
      </trkpt>
      <trkpt lat="41.794367" lon="22.979058">
        <ele>1471.9</ele>
        <time>2026-05-06T14:03:44.000Z</time>
      </trkpt>
      <trkpt lat="41.794368" lon="22.979056">
        <ele>1471.9</ele>
        <time>2026-05-06T14:03:45.000Z</time>
      </trkpt>
      <trkpt lat="41.794369" lon="22.979055">
        <ele>1471.9</ele>
        <time>2026-05-06T14:03:46.000Z</time>
      </trkpt>
      <trkpt lat="41.79437" lon="22.979055">
        <ele>1471.9</ele>
        <time>2026-05-06T14:03:47.000Z</time>
      </trkpt>
      <trkpt lat="41.794369" lon="22.979055">
        <ele>1470.9</ele>
        <time>2026-05-06T14:03:48.000Z</time>
      </trkpt>
      <trkpt lat="41.794368" lon="22.979054">
        <ele>1470.9</ele>
        <time>2026-05-06T14:03:49.000Z</time>
      </trkpt>
      <trkpt lat="41.794366" lon="22.979054">
        <ele>1470.9</ele>
        <time>2026-05-06T14:03:50.000Z</time>
      </trkpt>
      <trkpt lat="41.794366" lon="22.979052">
        <ele>1470.9</ele>
        <time>2026-05-06T14:03:51.000Z</time>
      </trkpt>
      <trkpt lat="41.794366" lon="22.97905">
        <ele>1470.9</ele>
        <time>2026-05-06T14:03:52.000Z</time>
      </trkpt>
      <trkpt lat="41.794367" lon="22.979047">
        <ele>1469.7</ele>
        <time>2026-05-06T14:03:53.000Z</time>
      </trkpt>
      <trkpt lat="41.794369" lon="22.979042">
        <ele>1469.7</ele>
        <time>2026-05-06T14:03:54.000Z</time>
      </trkpt>
      <trkpt lat="41.794372" lon="22.979037">
        <ele>1469.7</ele>
        <time>2026-05-06T14:03:55.000Z</time>
      </trkpt>
      <trkpt lat="41.794373" lon="22.979032">
        <ele>1469.7</ele>
        <time>2026-05-06T14:03:56.000Z</time>
      </trkpt>
      <trkpt lat="41.794374" lon="22.979028">
        <ele>1469.7</ele>
        <time>2026-05-06T14:03:57.000Z</time>
      </trkpt>
      <trkpt lat="41.794375" lon="22.979024">
        <ele>1469.2</ele>
        <time>2026-05-06T14:03:58.000Z</time>
      </trkpt>
      <trkpt lat="41.794375" lon="22.979022">
        <ele>1469.2</ele>
        <time>2026-05-06T14:03:59.000Z</time>
      </trkpt>
      <trkpt lat="41.794375" lon="22.97902">
        <ele>1469.2</ele>
        <time>2026-05-06T14:04:00.000Z</time>
      </trkpt>
      <trkpt lat="41.794375" lon="22.979019">
        <ele>1469.2</ele>
        <time>2026-05-06T14:04:01.000Z</time>
      </trkpt>
      <trkpt lat="41.794375" lon="22.979019">
        <ele>1469.2</ele>
        <time>2026-05-06T14:04:02.000Z</time>
      </trkpt>
      <trkpt lat="41.794375" lon="22.979018">
        <ele>1468.4</ele>
        <time>2026-05-06T14:04:03.000Z</time>
      </trkpt>
      <trkpt lat="41.794375" lon="22.979018">
        <ele>1468.4</ele>
        <time>2026-05-06T14:04:04.000Z</time>
      </trkpt>
      <trkpt lat="41.794375" lon="22.979018">
        <ele>1468.4</ele>
        <time>2026-05-06T14:04:05.000Z</time>
      </trkpt>
      <trkpt lat="41.794375" lon="22.979018">
        <ele>1468.4</ele>
        <time>2026-05-06T14:04:06.000Z</time>
      </trkpt>
      <trkpt lat="41.794375" lon="22.979018">
        <ele>1468.4</ele>
        <time>2026-05-06T14:04:07.000Z</time>
      </trkpt>
      <trkpt lat="41.794376" lon="22.979019">
        <ele>1468</ele>
        <time>2026-05-06T14:04:08.000Z</time>
      </trkpt>
      <trkpt lat="41.794377" lon="22.979018">
        <ele>1468</ele>
        <time>2026-05-06T14:04:09.000Z</time>
      </trkpt>
      <trkpt lat="41.794378" lon="22.979018">
        <ele>1468</ele>
        <time>2026-05-06T14:04:10.000Z</time>
      </trkpt>
      <trkpt lat="41.794379" lon="22.979018">
        <ele>1468</ele>
        <time>2026-05-06T14:04:11.000Z</time>
      </trkpt>
      <trkpt lat="41.79438" lon="22.979017">
        <ele>1468</ele>
        <time>2026-05-06T14:04:12.000Z</time>
      </trkpt>
      <trkpt lat="41.79438" lon="22.979016">
        <ele>1468</ele>
        <time>2026-05-06T14:04:13.000Z</time>
      </trkpt>
      <trkpt lat="41.794381" lon="22.979016">
        <ele>1468</ele>
        <time>2026-05-06T14:04:14.000Z</time>
      </trkpt>
      <trkpt lat="41.794381" lon="22.979015">
        <ele>1468</ele>
        <time>2026-05-06T14:04:15.000Z</time>
      </trkpt>
      <trkpt lat="41.794382" lon="22.979014">
        <ele>1468</ele>
        <time>2026-05-06T14:04:16.000Z</time>
      </trkpt>
      <trkpt lat="41.794382" lon="22.979013">
        <ele>1468</ele>
        <time>2026-05-06T14:04:17.000Z</time>
      </trkpt>
      <trkpt lat="41.794383" lon="22.979012">
        <ele>1468</ele>
        <time>2026-05-06T14:04:18.000Z</time>
      </trkpt>
      <trkpt lat="41.794384" lon="22.979011">
        <ele>1468</ele>
        <time>2026-05-06T14:04:19.000Z</time>
      </trkpt>
      <trkpt lat="41.794385" lon="22.979011">
        <ele>1468</ele>
        <time>2026-05-06T14:04:20.000Z</time>
      </trkpt>
      <trkpt lat="41.794386" lon="22.979012">
        <ele>1468</ele>
        <time>2026-05-06T14:04:21.000Z</time>
      </trkpt>
      <trkpt lat="41.794387" lon="22.979011">
        <ele>1468</ele>
        <time>2026-05-06T14:04:22.000Z</time>
      </trkpt>
      <trkpt lat="41.794389" lon="22.979009">
        <ele>1468.1</ele>
        <time>2026-05-06T14:04:23.000Z</time>
      </trkpt>
      <trkpt lat="41.794391" lon="22.979006">
        <ele>1468.1</ele>
        <time>2026-05-06T14:04:24.000Z</time>
      </trkpt>
      <trkpt lat="41.794395" lon="22.979002">
        <ele>1468.1</ele>
        <time>2026-05-06T14:04:25.000Z</time>
      </trkpt>
      <trkpt lat="41.794401" lon="22.978998">
        <ele>1468.1</ele>
        <time>2026-05-06T14:04:26.000Z</time>
      </trkpt>
      <trkpt lat="41.794409" lon="22.978997">
        <ele>1468.1</ele>
        <time>2026-05-06T14:04:27.000Z</time>
      </trkpt>
      <trkpt lat="41.794416" lon="22.978998">
        <ele>1467.9</ele>
        <time>2026-05-06T14:04:28.000Z</time>
      </trkpt>
      <trkpt lat="41.794423" lon="22.979001">
        <ele>1467.9</ele>
        <time>2026-05-06T14:04:29.000Z</time>
      </trkpt>
      <trkpt lat="41.794428" lon="22.979004">
        <ele>1467.9</ele>
        <time>2026-05-06T14:04:30.000Z</time>
      </trkpt>
      <trkpt lat="41.79443" lon="22.979007">
        <ele>1467.9</ele>
        <time>2026-05-06T14:04:31.000Z</time>
      </trkpt>
      <trkpt lat="41.794432" lon="22.979006">
        <ele>1467.9</ele>
        <time>2026-05-06T14:04:32.000Z</time>
      </trkpt>
      <trkpt lat="41.794434" lon="22.979004">
        <ele>1467</ele>
        <time>2026-05-06T14:04:33.000Z</time>
      </trkpt>
      <trkpt lat="41.794436" lon="22.978998">
        <ele>1467</ele>
        <time>2026-05-06T14:04:34.000Z</time>
      </trkpt>
      <trkpt lat="41.794439" lon="22.978992">
        <ele>1467</ele>
        <time>2026-05-06T14:04:35.000Z</time>
      </trkpt>
      <trkpt lat="41.794444" lon="22.978984">
        <ele>1467</ele>
        <time>2026-05-06T14:04:36.000Z</time>
      </trkpt>
      <trkpt lat="41.794449" lon="22.978975">
        <ele>1467</ele>
        <time>2026-05-06T14:04:37.000Z</time>
      </trkpt>
      <trkpt lat="41.794454" lon="22.97897">
        <ele>1465.5</ele>
        <time>2026-05-06T14:04:38.000Z</time>
      </trkpt>
      <trkpt lat="41.794458" lon="22.978968">
        <ele>1465.5</ele>
        <time>2026-05-06T14:04:39.000Z</time>
      </trkpt>
      <trkpt lat="41.794462" lon="22.978968">
        <ele>1465.5</ele>
        <time>2026-05-06T14:04:40.000Z</time>
      </trkpt>
      <trkpt lat="41.794465" lon="22.978971">
        <ele>1465.5</ele>
        <time>2026-05-06T14:04:41.000Z</time>
      </trkpt>
      <trkpt lat="41.794467" lon="22.978974">
        <ele>1465.5</ele>
        <time>2026-05-06T14:04:42.000Z</time>
      </trkpt>
      <trkpt lat="41.794469" lon="22.978979">
        <ele>1464.7</ele>
        <time>2026-05-06T14:04:43.000Z</time>
      </trkpt>
      <trkpt lat="41.794471" lon="22.978983">
        <ele>1464.7</ele>
        <time>2026-05-06T14:04:44.000Z</time>
      </trkpt>
      <trkpt lat="41.794473" lon="22.978987">
        <ele>1464.7</ele>
        <time>2026-05-06T14:04:45.000Z</time>
      </trkpt>
      <trkpt lat="41.794476" lon="22.978992">
        <ele>1464.7</ele>
        <time>2026-05-06T14:04:46.000Z</time>
      </trkpt>
      <trkpt lat="41.794477" lon="22.978997">
        <ele>1464.7</ele>
        <time>2026-05-06T14:04:47.000Z</time>
      </trkpt>
      <trkpt lat="41.794479" lon="22.979002">
        <ele>1463.2</ele>
        <time>2026-05-06T14:04:48.000Z</time>
      </trkpt>
      <trkpt lat="41.794482" lon="22.979006">
        <ele>1463.2</ele>
        <time>2026-05-06T14:04:49.000Z</time>
      </trkpt>
      <trkpt lat="41.794484" lon="22.979012">
        <ele>1463.2</ele>
        <time>2026-05-06T14:04:50.000Z</time>
      </trkpt>
      <trkpt lat="41.794487" lon="22.979018">
        <ele>1463.2</ele>
        <time>2026-05-06T14:04:51.000Z</time>
      </trkpt>
      <trkpt lat="41.794489" lon="22.979023">
        <ele>1463.2</ele>
        <time>2026-05-06T14:04:52.000Z</time>
      </trkpt>
      <trkpt lat="41.794492" lon="22.979027">
        <ele>1462.1</ele>
        <time>2026-05-06T14:04:53.000Z</time>
      </trkpt>
      <trkpt lat="41.794495" lon="22.979029">
        <ele>1462.1</ele>
        <time>2026-05-06T14:04:54.000Z</time>
      </trkpt>
      <trkpt lat="41.794499" lon="22.979029">
        <ele>1462.1</ele>
        <time>2026-05-06T14:04:55.000Z</time>
      </trkpt>
      <trkpt lat="41.794503" lon="22.97903">
        <ele>1462.1</ele>
        <time>2026-05-06T14:04:56.000Z</time>
      </trkpt>
      <trkpt lat="41.794507" lon="22.979031">
        <ele>1462.1</ele>
        <time>2026-05-06T14:04:57.000Z</time>
      </trkpt>
      <trkpt lat="41.794511" lon="22.979031">
        <ele>1461.4</ele>
        <time>2026-05-06T14:04:58.000Z</time>
      </trkpt>
      <trkpt lat="41.794514" lon="22.979033">
        <ele>1461.4</ele>
        <time>2026-05-06T14:04:59.000Z</time>
      </trkpt>
      <trkpt lat="41.794515" lon="22.979033">
        <ele>1461.4</ele>
        <time>2026-05-06T14:05:00.000Z</time>
      </trkpt>
      <trkpt lat="41.794517" lon="22.979031">
        <ele>1461.4</ele>
        <time>2026-05-06T14:05:01.000Z</time>
      </trkpt>
      <trkpt lat="41.794518" lon="22.979029">
        <ele>1461.4</ele>
        <time>2026-05-06T14:05:02.000Z</time>
      </trkpt>
      <trkpt lat="41.794522" lon="22.979027">
        <ele>1460.2</ele>
        <time>2026-05-06T14:05:03.000Z</time>
      </trkpt>
      <trkpt lat="41.794526" lon="22.979026">
        <ele>1460.2</ele>
        <time>2026-05-06T14:05:04.000Z</time>
      </trkpt>
      <trkpt lat="41.79453" lon="22.979026">
        <ele>1460.2</ele>
        <time>2026-05-06T14:05:05.000Z</time>
      </trkpt>
      <trkpt lat="41.794534" lon="22.979027">
        <ele>1460.2</ele>
        <time>2026-05-06T14:05:06.000Z</time>
      </trkpt>
      <trkpt lat="41.794539" lon="22.979028">
        <ele>1460.2</ele>
        <time>2026-05-06T14:05:07.000Z</time>
      </trkpt>
      <trkpt lat="41.794541" lon="22.97903">
        <ele>1458.9</ele>
        <time>2026-05-06T14:05:08.000Z</time>
      </trkpt>
      <trkpt lat="41.794544" lon="22.97903">
        <ele>1458.9</ele>
        <time>2026-05-06T14:05:09.000Z</time>
      </trkpt>
      <trkpt lat="41.794545" lon="22.979031">
        <ele>1458.9</ele>
        <time>2026-05-06T14:05:10.000Z</time>
      </trkpt>
      <trkpt lat="41.794547" lon="22.979031">
        <ele>1458.9</ele>
        <time>2026-05-06T14:05:11.000Z</time>
      </trkpt>
      <trkpt lat="41.794548" lon="22.979034">
        <ele>1458.9</ele>
        <time>2026-05-06T14:05:12.000Z</time>
      </trkpt>
      <trkpt lat="41.794549" lon="22.979036">
        <ele>1458.3</ele>
        <time>2026-05-06T14:05:13.000Z</time>
      </trkpt>
      <trkpt lat="41.794552" lon="22.979039">
        <ele>1458.3</ele>
        <time>2026-05-06T14:05:14.000Z</time>
      </trkpt>
      <trkpt lat="41.794555" lon="22.979042">
        <ele>1458.3</ele>
        <time>2026-05-06T14:05:15.000Z</time>
      </trkpt>
      <trkpt lat="41.794559" lon="22.979047">
        <ele>1458.3</ele>
        <time>2026-05-06T14:05:16.000Z</time>
      </trkpt>
      <trkpt lat="41.794564" lon="22.979051">
        <ele>1458.3</ele>
        <time>2026-05-06T14:05:17.000Z</time>
      </trkpt>
      <trkpt lat="41.794568" lon="22.979054">
        <ele>1456.9</ele>
        <time>2026-05-06T14:05:18.000Z</time>
      </trkpt>
      <trkpt lat="41.794572" lon="22.979059">
        <ele>1456.9</ele>
        <time>2026-05-06T14:05:19.000Z</time>
      </trkpt>
      <trkpt lat="41.794575" lon="22.979063">
        <ele>1456.9</ele>
        <time>2026-05-06T14:05:20.000Z</time>
      </trkpt>
      <trkpt lat="41.794578" lon="22.979067">
        <ele>1456.9</ele>
        <time>2026-05-06T14:05:21.000Z</time>
      </trkpt>
      <trkpt lat="41.79458" lon="22.979071">
        <ele>1456.9</ele>
        <time>2026-05-06T14:05:22.000Z</time>
      </trkpt>
      <trkpt lat="41.794581" lon="22.979074">
        <ele>1455.5</ele>
        <time>2026-05-06T14:05:23.000Z</time>
      </trkpt>
      <trkpt lat="41.794584" lon="22.979077">
        <ele>1455.5</ele>
        <time>2026-05-06T14:05:24.000Z</time>
      </trkpt>
      <trkpt lat="41.794586" lon="22.979079">
        <ele>1455.5</ele>
        <time>2026-05-06T14:05:25.000Z</time>
      </trkpt>
      <trkpt lat="41.794591" lon="22.979081">
        <ele>1455.5</ele>
        <time>2026-05-06T14:05:26.000Z</time>
      </trkpt>
      <trkpt lat="41.794595" lon="22.979082">
        <ele>1455.5</ele>
        <time>2026-05-06T14:05:27.000Z</time>
      </trkpt>
      <trkpt lat="41.794601" lon="22.979082">
        <ele>1454.8</ele>
        <time>2026-05-06T14:05:28.000Z</time>
      </trkpt>
      <trkpt lat="41.794606" lon="22.979082">
        <ele>1454.8</ele>
        <time>2026-05-06T14:05:29.000Z</time>
      </trkpt>
      <trkpt lat="41.794609" lon="22.979083">
        <ele>1454.8</ele>
        <time>2026-05-06T14:05:30.000Z</time>
      </trkpt>
      <trkpt lat="41.794609" lon="22.979083">
        <ele>1454.8</ele>
        <time>2026-05-06T14:05:31.000Z</time>
      </trkpt>
      <trkpt lat="41.79461" lon="22.979082">
        <ele>1454.8</ele>
        <time>2026-05-06T14:05:32.000Z</time>
      </trkpt>
      <trkpt lat="41.794609" lon="22.979082">
        <ele>1453.6</ele>
        <time>2026-05-06T14:05:33.000Z</time>
      </trkpt>
      <trkpt lat="41.794608" lon="22.97908">
        <ele>1453.6</ele>
        <time>2026-05-06T14:05:34.000Z</time>
      </trkpt>
      <trkpt lat="41.79461" lon="22.979078">
        <ele>1453.6</ele>
        <time>2026-05-06T14:05:35.000Z</time>
      </trkpt>
      <trkpt lat="41.794611" lon="22.979075">
        <ele>1453.6</ele>
        <time>2026-05-06T14:05:36.000Z</time>
      </trkpt>
      <trkpt lat="41.794611" lon="22.979074">
        <ele>1453.6</ele>
        <time>2026-05-06T14:05:37.000Z</time>
      </trkpt>
      <trkpt lat="41.794613" lon="22.979073">
        <ele>1452.4</ele>
        <time>2026-05-06T14:05:38.000Z</time>
      </trkpt>
      <trkpt lat="41.794614" lon="22.979072">
        <ele>1452.4</ele>
        <time>2026-05-06T14:05:39.000Z</time>
      </trkpt>
      <trkpt lat="41.794615" lon="22.979072">
        <ele>1452.4</ele>
        <time>2026-05-06T14:05:40.000Z</time>
      </trkpt>
      <trkpt lat="41.794619" lon="22.979072">
        <ele>1452.4</ele>
        <time>2026-05-06T14:05:41.000Z</time>
      </trkpt>
      <trkpt lat="41.794622" lon="22.979073">
        <ele>1452.4</ele>
        <time>2026-05-06T14:05:42.000Z</time>
      </trkpt>
      <trkpt lat="41.794625" lon="22.979076">
        <ele>1451.8</ele>
        <time>2026-05-06T14:05:43.000Z</time>
      </trkpt>
      <trkpt lat="41.794629" lon="22.97908">
        <ele>1451.8</ele>
        <time>2026-05-06T14:05:44.000Z</time>
      </trkpt>
      <trkpt lat="41.794633" lon="22.979084">
        <ele>1451.8</ele>
        <time>2026-05-06T14:05:45.000Z</time>
      </trkpt>
      <trkpt lat="41.794636" lon="22.979089">
        <ele>1451.8</ele>
        <time>2026-05-06T14:05:46.000Z</time>
      </trkpt>
      <trkpt lat="41.794639" lon="22.979094">
        <ele>1451.8</ele>
        <time>2026-05-06T14:05:47.000Z</time>
      </trkpt>
      <trkpt lat="41.794643" lon="22.979097">
        <ele>1450.7</ele>
        <time>2026-05-06T14:05:48.000Z</time>
      </trkpt>
      <trkpt lat="41.794646" lon="22.979099">
        <ele>1450.7</ele>
        <time>2026-05-06T14:05:49.000Z</time>
      </trkpt>
      <trkpt lat="41.794648" lon="22.979101">
        <ele>1450.7</ele>
        <time>2026-05-06T14:05:50.000Z</time>
      </trkpt>
      <trkpt lat="41.794649" lon="22.979101">
        <ele>1450.7</ele>
        <time>2026-05-06T14:05:51.000Z</time>
      </trkpt>
      <trkpt lat="41.79465" lon="22.979103">
        <ele>1450.7</ele>
        <time>2026-05-06T14:05:52.000Z</time>
      </trkpt>
      <trkpt lat="41.794652" lon="22.979104">
        <ele>1449.4</ele>
        <time>2026-05-06T14:05:53.000Z</time>
      </trkpt>
      <trkpt lat="41.794652" lon="22.979107">
        <ele>1449.4</ele>
        <time>2026-05-06T14:05:54.000Z</time>
      </trkpt>
      <trkpt lat="41.794654" lon="22.97911">
        <ele>1449.4</ele>
        <time>2026-05-06T14:05:55.000Z</time>
      </trkpt>
      <trkpt lat="41.794654" lon="22.979112">
        <ele>1449.4</ele>
        <time>2026-05-06T14:05:56.000Z</time>
      </trkpt>
      <trkpt lat="41.794654" lon="22.979113">
        <ele>1449.4</ele>
        <time>2026-05-06T14:05:57.000Z</time>
      </trkpt>
      <trkpt lat="41.794653" lon="22.979113">
        <ele>1448.8</ele>
        <time>2026-05-06T14:05:58.000Z</time>
      </trkpt>
      <trkpt lat="41.794653" lon="22.979113">
        <ele>1448.8</ele>
        <time>2026-05-06T14:05:59.000Z</time>
      </trkpt>
      <trkpt lat="41.794652" lon="22.979112">
        <ele>1448.8</ele>
        <time>2026-05-06T14:06:00.000Z</time>
      </trkpt>
      <trkpt lat="41.794651" lon="22.979113">
        <ele>1448.8</ele>
        <time>2026-05-06T14:06:01.000Z</time>
      </trkpt>
      <trkpt lat="41.794651" lon="22.979113">
        <ele>1448.8</ele>
        <time>2026-05-06T14:06:02.000Z</time>
      </trkpt>
      <trkpt lat="41.79465" lon="22.979113">
        <ele>1447.8</ele>
        <time>2026-05-06T14:06:03.000Z</time>
      </trkpt>
      <trkpt lat="41.794649" lon="22.979115">
        <ele>1447.8</ele>
        <time>2026-05-06T14:06:04.000Z</time>
      </trkpt>
      <trkpt lat="41.794647" lon="22.979116">
        <ele>1447.8</ele>
        <time>2026-05-06T14:06:05.000Z</time>
      </trkpt>
      <trkpt lat="41.794646" lon="22.979118">
        <ele>1447.8</ele>
        <time>2026-05-06T14:06:06.000Z</time>
      </trkpt>
      <trkpt lat="41.794645" lon="22.979121">
        <ele>1447.8</ele>
        <time>2026-05-06T14:06:07.000Z</time>
      </trkpt>
      <trkpt lat="41.794644" lon="22.979124">
        <ele>1447.4</ele>
        <time>2026-05-06T14:06:08.000Z</time>
      </trkpt>
      <trkpt lat="41.794645" lon="22.979125">
        <ele>1447.4</ele>
        <time>2026-05-06T14:06:09.000Z</time>
      </trkpt>
      <trkpt lat="41.794646" lon="22.979127">
        <ele>1447.4</ele>
        <time>2026-05-06T14:06:10.000Z</time>
      </trkpt>
      <trkpt lat="41.794647" lon="22.979128">
        <ele>1447.4</ele>
        <time>2026-05-06T14:06:11.000Z</time>
      </trkpt>
      <trkpt lat="41.794649" lon="22.979128">
        <ele>1447.4</ele>
        <time>2026-05-06T14:06:12.000Z</time>
      </trkpt>
      <trkpt lat="41.79465" lon="22.979128">
        <ele>1447.4</ele>
        <time>2026-05-06T14:06:13.000Z</time>
      </trkpt>
      <trkpt lat="41.794652" lon="22.979127">
        <ele>1447.4</ele>
        <time>2026-05-06T14:06:14.000Z</time>
      </trkpt>
      <trkpt lat="41.794652" lon="22.979127">
        <ele>1447.4</ele>
        <time>2026-05-06T14:06:15.000Z</time>
      </trkpt>
      <trkpt lat="41.794653" lon="22.979127">
        <ele>1447.4</ele>
        <time>2026-05-06T14:06:16.000Z</time>
      </trkpt>
      <trkpt lat="41.794652" lon="22.979127">
        <ele>1447.4</ele>
        <time>2026-05-06T14:06:17.000Z</time>
      </trkpt>
      <trkpt lat="41.794651" lon="22.979126">
        <ele>1447.3</ele>
        <time>2026-05-06T14:06:18.000Z</time>
      </trkpt>
      <trkpt lat="41.79465" lon="22.979125">
        <ele>1447.3</ele>
        <time>2026-05-06T14:06:19.000Z</time>
      </trkpt>
      <trkpt lat="41.79465" lon="22.979125">
        <ele>1447.3</ele>
        <time>2026-05-06T14:06:20.000Z</time>
      </trkpt>
      <trkpt lat="41.794649" lon="22.979124">
        <ele>1447.3</ele>
        <time>2026-05-06T14:06:21.000Z</time>
      </trkpt>
      <trkpt lat="41.794649" lon="22.979123">
        <ele>1447.3</ele>
        <time>2026-05-06T14:06:22.000Z</time>
      </trkpt>
      <trkpt lat="41.794648" lon="22.979123">
        <ele>1447.1</ele>
        <time>2026-05-06T14:06:23.000Z</time>
      </trkpt>
      <trkpt lat="41.794648" lon="22.979123">
        <ele>1447.1</ele>
        <time>2026-05-06T14:06:24.000Z</time>
      </trkpt>
      <trkpt lat="41.794647" lon="22.979123">
        <ele>1447.1</ele>
        <time>2026-05-06T14:06:25.000Z</time>
      </trkpt>
      <trkpt lat="41.794647" lon="22.979123">
        <ele>1447.1</ele>
        <time>2026-05-06T14:06:26.000Z</time>
      </trkpt>
      <trkpt lat="41.794647" lon="22.979124">
        <ele>1447.1</ele>
        <time>2026-05-06T14:06:27.000Z</time>
      </trkpt>
      <trkpt lat="41.794647" lon="22.979124">
        <ele>1447</ele>
        <time>2026-05-06T14:06:28.000Z</time>
      </trkpt>
      <trkpt lat="41.794647" lon="22.979124">
        <ele>1447</ele>
        <time>2026-05-06T14:06:29.000Z</time>
      </trkpt>
      <trkpt lat="41.794647" lon="22.979124">
        <ele>1447</ele>
        <time>2026-05-06T14:06:30.000Z</time>
      </trkpt>
      <trkpt lat="41.794647" lon="22.979125">
        <ele>1447</ele>
        <time>2026-05-06T14:06:31.000Z</time>
      </trkpt>
      <trkpt lat="41.794646" lon="22.979126">
        <ele>1447</ele>
        <time>2026-05-06T14:06:32.000Z</time>
      </trkpt>
      <trkpt lat="41.794646" lon="22.979126">
        <ele>1446.9</ele>
        <time>2026-05-06T14:06:33.000Z</time>
      </trkpt>
      <trkpt lat="41.794646" lon="22.979127">
        <ele>1446.9</ele>
        <time>2026-05-06T14:06:34.000Z</time>
      </trkpt>
      <trkpt lat="41.794646" lon="22.979127">
        <ele>1446.9</ele>
        <time>2026-05-06T14:06:35.000Z</time>
      </trkpt>
      <trkpt lat="41.794647" lon="22.979127">
        <ele>1446.9</ele>
        <time>2026-05-06T14:06:36.000Z</time>
      </trkpt>
      <trkpt lat="41.794647" lon="22.979126">
        <ele>1446.9</ele>
        <time>2026-05-06T14:06:37.000Z</time>
      </trkpt>
      <trkpt lat="41.794647" lon="22.979125">
        <ele>1446.8</ele>
        <time>2026-05-06T14:06:38.000Z</time>
      </trkpt>
      <trkpt lat="41.794647" lon="22.979123">
        <ele>1446.8</ele>
        <time>2026-05-06T14:06:39.000Z</time>
      </trkpt>
      <trkpt lat="41.794647" lon="22.979121">
        <ele>1446.8</ele>
        <time>2026-05-06T14:06:40.000Z</time>
      </trkpt>
      <trkpt lat="41.794647" lon="22.979119">
        <ele>1446.8</ele>
        <time>2026-05-06T14:06:41.000Z</time>
      </trkpt>
      <trkpt lat="41.794648" lon="22.979118">
        <ele>1446.8</ele>
        <time>2026-05-06T14:06:42.000Z</time>
      </trkpt>
      <trkpt lat="41.79465" lon="22.979117">
        <ele>1446.7</ele>
        <time>2026-05-06T14:06:43.000Z</time>
      </trkpt>
      <trkpt lat="41.794651" lon="22.979116">
        <ele>1446.7</ele>
        <time>2026-05-06T14:06:44.000Z</time>
      </trkpt>
      <trkpt lat="41.794653" lon="22.979115">
        <ele>1446.7</ele>
        <time>2026-05-06T14:06:45.000Z</time>
      </trkpt>
      <trkpt lat="41.794654" lon="22.979115">
        <ele>1446.7</ele>
        <time>2026-05-06T14:06:46.000Z</time>
      </trkpt>
      <trkpt lat="41.794655" lon="22.979115">
        <ele>1446.7</ele>
        <time>2026-05-06T14:06:47.000Z</time>
      </trkpt>
      <trkpt lat="41.794655" lon="22.979116">
        <ele>1446.7</ele>
        <time>2026-05-06T14:06:48.000Z</time>
      </trkpt>
      <trkpt lat="41.794655" lon="22.979116">
        <ele>1446.7</ele>
        <time>2026-05-06T14:06:49.000Z</time>
      </trkpt>
      <trkpt lat="41.794655" lon="22.979116">
        <ele>1446.7</ele>
        <time>2026-05-06T14:06:50.000Z</time>
      </trkpt>
      <trkpt lat="41.794655" lon="22.979117">
        <ele>1446.7</ele>
        <time>2026-05-06T14:06:51.000Z</time>
      </trkpt>
      <trkpt lat="41.794655" lon="22.979117">
        <ele>1446.7</ele>
        <time>2026-05-06T14:06:52.000Z</time>
      </trkpt>
      <trkpt lat="41.794656" lon="22.979116">
        <ele>1446.6</ele>
        <time>2026-05-06T14:06:53.000Z</time>
      </trkpt>
      <trkpt lat="41.794656" lon="22.979116">
        <ele>1446.6</ele>
        <time>2026-05-06T14:06:54.000Z</time>
      </trkpt>
      <trkpt lat="41.794658" lon="22.979117">
        <ele>1446.6</ele>
        <time>2026-05-06T14:06:55.000Z</time>
      </trkpt>
      <trkpt lat="41.794661" lon="22.979118">
        <ele>1446.6</ele>
        <time>2026-05-06T14:06:56.000Z</time>
      </trkpt>
      <trkpt lat="41.794663" lon="22.979121">
        <ele>1446.6</ele>
        <time>2026-05-06T14:06:57.000Z</time>
      </trkpt>
      <trkpt lat="41.794665" lon="22.979123">
        <ele>1446.5</ele>
        <time>2026-05-06T14:06:58.000Z</time>
      </trkpt>
      <trkpt lat="41.794666" lon="22.979125">
        <ele>1446.5</ele>
        <time>2026-05-06T14:06:59.000Z</time>
      </trkpt>
      <trkpt lat="41.794667" lon="22.979127">
        <ele>1446.5</ele>
        <time>2026-05-06T14:07:00.000Z</time>
      </trkpt>
      <trkpt lat="41.794666" lon="22.979127">
        <ele>1446.5</ele>
        <time>2026-05-06T14:07:01.000Z</time>
      </trkpt>
      <trkpt lat="41.794666" lon="22.979127">
        <ele>1446.5</ele>
        <time>2026-05-06T14:07:02.000Z</time>
      </trkpt>
      <trkpt lat="41.794666" lon="22.979128">
        <ele>1446</ele>
        <time>2026-05-06T14:07:03.000Z</time>
      </trkpt>
      <trkpt lat="41.794667" lon="22.979126">
        <ele>1446</ele>
        <time>2026-05-06T14:07:04.000Z</time>
      </trkpt>
      <trkpt lat="41.794668" lon="22.979124">
        <ele>1446</ele>
        <time>2026-05-06T14:07:05.000Z</time>
      </trkpt>
      <trkpt lat="41.794669" lon="22.97912">
        <ele>1446</ele>
        <time>2026-05-06T14:07:06.000Z</time>
      </trkpt>
      <trkpt lat="41.794672" lon="22.979114">
        <ele>1446</ele>
        <time>2026-05-06T14:07:07.000Z</time>
      </trkpt>
      <trkpt lat="41.794676" lon="22.979107">
        <ele>1445.3</ele>
        <time>2026-05-06T14:07:08.000Z</time>
      </trkpt>
      <trkpt lat="41.794682" lon="22.979103">
        <ele>1445.3</ele>
        <time>2026-05-06T14:07:09.000Z</time>
      </trkpt>
      <trkpt lat="41.794687" lon="22.979099">
        <ele>1445.3</ele>
        <time>2026-05-06T14:07:10.000Z</time>
      </trkpt>
      <trkpt lat="41.794692" lon="22.979098">
        <ele>1445.3</ele>
        <time>2026-05-06T14:07:11.000Z</time>
      </trkpt>
      <trkpt lat="41.794697" lon="22.979102">
        <ele>1445.3</ele>
        <time>2026-05-06T14:07:12.000Z</time>
      </trkpt>
      <trkpt lat="41.794698" lon="22.979108">
        <ele>1444.9</ele>
        <time>2026-05-06T14:07:13.000Z</time>
      </trkpt>
      <trkpt lat="41.794698" lon="22.979114">
        <ele>1444.9</ele>
        <time>2026-05-06T14:07:14.000Z</time>
      </trkpt>
      <trkpt lat="41.794698" lon="22.97912">
        <ele>1444.9</ele>
        <time>2026-05-06T14:07:15.000Z</time>
      </trkpt>
      <trkpt lat="41.794697" lon="22.979124">
        <ele>1444.9</ele>
        <time>2026-05-06T14:07:16.000Z</time>
      </trkpt>
      <trkpt lat="41.794696" lon="22.979125">
        <ele>1444.9</ele>
        <time>2026-05-06T14:07:17.000Z</time>
      </trkpt>
      <trkpt lat="41.794695" lon="22.979124">
        <ele>1444</ele>
        <time>2026-05-06T14:07:18.000Z</time>
      </trkpt>
      <trkpt lat="41.794695" lon="22.979125">
        <ele>1444</ele>
        <time>2026-05-06T14:07:19.000Z</time>
      </trkpt>
      <trkpt lat="41.794696" lon="22.979126">
        <ele>1444</ele>
        <time>2026-05-06T14:07:20.000Z</time>
      </trkpt>
      <trkpt lat="41.794699" lon="22.979129">
        <ele>1444</ele>
        <time>2026-05-06T14:07:21.000Z</time>
      </trkpt>
      <trkpt lat="41.794701" lon="22.979132">
        <ele>1444</ele>
        <time>2026-05-06T14:07:22.000Z</time>
      </trkpt>
      <trkpt lat="41.794703" lon="22.979135">
        <ele>1443.2</ele>
        <time>2026-05-06T14:07:23.000Z</time>
      </trkpt>
      <trkpt lat="41.794706" lon="22.979137">
        <ele>1443.2</ele>
        <time>2026-05-06T14:07:24.000Z</time>
      </trkpt>
      <trkpt lat="41.794712" lon="22.97914">
        <ele>1443.2</ele>
        <time>2026-05-06T14:07:25.000Z</time>
      </trkpt>
      <trkpt lat="41.794716" lon="22.979145">
        <ele>1443.2</ele>
        <time>2026-05-06T14:07:26.000Z</time>
      </trkpt>
      <trkpt lat="41.794719" lon="22.979153">
        <ele>1443.2</ele>
        <time>2026-05-06T14:07:27.000Z</time>
      </trkpt>
      <trkpt lat="41.794723" lon="22.979163">
        <ele>1442.9</ele>
        <time>2026-05-06T14:07:28.000Z</time>
      </trkpt>
      <trkpt lat="41.794726" lon="22.979175">
        <ele>1442.9</ele>
        <time>2026-05-06T14:07:29.000Z</time>
      </trkpt>
      <trkpt lat="41.794728" lon="22.979187">
        <ele>1442.9</ele>
        <time>2026-05-06T14:07:30.000Z</time>
      </trkpt>
      <trkpt lat="41.79473" lon="22.979197">
        <ele>1442.9</ele>
        <time>2026-05-06T14:07:31.000Z</time>
      </trkpt>
      <trkpt lat="41.794733" lon="22.979207">
        <ele>1442.9</ele>
        <time>2026-05-06T14:07:32.000Z</time>
      </trkpt>
      <trkpt lat="41.794736" lon="22.979219">
        <ele>1442.2</ele>
        <time>2026-05-06T14:07:33.000Z</time>
      </trkpt>
      <trkpt lat="41.79474" lon="22.97923">
        <ele>1442.2</ele>
        <time>2026-05-06T14:07:34.000Z</time>
      </trkpt>
      <trkpt lat="41.794742" lon="22.979244">
        <ele>1442.2</ele>
        <time>2026-05-06T14:07:35.000Z</time>
      </trkpt>
      <trkpt lat="41.794744" lon="22.979257">
        <ele>1442.2</ele>
        <time>2026-05-06T14:07:36.000Z</time>
      </trkpt>
      <trkpt lat="41.794746" lon="22.979271">
        <ele>1442.2</ele>
        <time>2026-05-06T14:07:37.000Z</time>
      </trkpt>
      <trkpt lat="41.794747" lon="22.979284">
        <ele>1441.4</ele>
        <time>2026-05-06T14:07:38.000Z</time>
      </trkpt>
      <trkpt lat="41.794746" lon="22.979298">
        <ele>1441.4</ele>
        <time>2026-05-06T14:07:39.000Z</time>
      </trkpt>
      <trkpt lat="41.794747" lon="22.979311">
        <ele>1441.4</ele>
        <time>2026-05-06T14:07:40.000Z</time>
      </trkpt>
      <trkpt lat="41.794747" lon="22.979323">
        <ele>1441.4</ele>
        <time>2026-05-06T14:07:41.000Z</time>
      </trkpt>
      <trkpt lat="41.794748" lon="22.979334">
        <ele>1441.4</ele>
        <time>2026-05-06T14:07:42.000Z</time>
      </trkpt>
      <trkpt lat="41.79475" lon="22.979344">
        <ele>1440.8</ele>
        <time>2026-05-06T14:07:43.000Z</time>
      </trkpt>
      <trkpt lat="41.794752" lon="22.979354">
        <ele>1440.8</ele>
        <time>2026-05-06T14:07:44.000Z</time>
      </trkpt>
      <trkpt lat="41.794753" lon="22.979361">
        <ele>1440.8</ele>
        <time>2026-05-06T14:07:45.000Z</time>
      </trkpt>
      <trkpt lat="41.794755" lon="22.979366">
        <ele>1440.8</ele>
        <time>2026-05-06T14:07:46.000Z</time>
      </trkpt>
      <trkpt lat="41.794756" lon="22.97937">
        <ele>1440.8</ele>
        <time>2026-05-06T14:07:47.000Z</time>
      </trkpt>
      <trkpt lat="41.794757" lon="22.979371">
        <ele>1439.5</ele>
        <time>2026-05-06T14:07:48.000Z</time>
      </trkpt>
      <trkpt lat="41.794758" lon="22.979369">
        <ele>1439.5</ele>
        <time>2026-05-06T14:07:49.000Z</time>
      </trkpt>
      <trkpt lat="41.794758" lon="22.979367">
        <ele>1439.5</ele>
        <time>2026-05-06T14:07:50.000Z</time>
      </trkpt>
      <trkpt lat="41.794759" lon="22.979366">
        <ele>1439.5</ele>
        <time>2026-05-06T14:07:51.000Z</time>
      </trkpt>
      <trkpt lat="41.794758" lon="22.979365">
        <ele>1439.5</ele>
        <time>2026-05-06T14:07:52.000Z</time>
      </trkpt>
      <trkpt lat="41.794757" lon="22.979364">
        <ele>1438.2</ele>
        <time>2026-05-06T14:07:53.000Z</time>
      </trkpt>
      <trkpt lat="41.794756" lon="22.979364">
        <ele>1438.2</ele>
        <time>2026-05-06T14:07:54.000Z</time>
      </trkpt>
      <trkpt lat="41.794755" lon="22.979364">
        <ele>1438.2</ele>
        <time>2026-05-06T14:07:55.000Z</time>
      </trkpt>
      <trkpt lat="41.794754" lon="22.979365">
        <ele>1438.2</ele>
        <time>2026-05-06T14:07:56.000Z</time>
      </trkpt>
      <trkpt lat="41.794752" lon="22.979365">
        <ele>1438.2</ele>
        <time>2026-05-06T14:07:57.000Z</time>
      </trkpt>
      <trkpt lat="41.794751" lon="22.979366">
        <ele>1437.7</ele>
        <time>2026-05-06T14:07:58.000Z</time>
      </trkpt>
      <trkpt lat="41.794751" lon="22.979366">
        <ele>1437.7</ele>
        <time>2026-05-06T14:07:59.000Z</time>
      </trkpt>
      <trkpt lat="41.79475" lon="22.979366">
        <ele>1437.7</ele>
        <time>2026-05-06T14:08:00.000Z</time>
      </trkpt>
      <trkpt lat="41.79475" lon="22.979366">
        <ele>1437.7</ele>
        <time>2026-05-06T14:08:01.000Z</time>
      </trkpt>
      <trkpt lat="41.79475" lon="22.979366">
        <ele>1437.7</ele>
        <time>2026-05-06T14:08:02.000Z</time>
      </trkpt>
      <trkpt lat="41.794751" lon="22.979367">
        <ele>1437.1</ele>
        <time>2026-05-06T14:08:03.000Z</time>
      </trkpt>
      <trkpt lat="41.794751" lon="22.979368">
        <ele>1437.1</ele>
        <time>2026-05-06T14:08:04.000Z</time>
      </trkpt>
      <trkpt lat="41.794751" lon="22.97937">
        <ele>1437.1</ele>
        <time>2026-05-06T14:08:05.000Z</time>
      </trkpt>
      <trkpt lat="41.79475" lon="22.979374">
        <ele>1437.1</ele>
        <time>2026-05-06T14:08:06.000Z</time>
      </trkpt>
      <trkpt lat="41.794748" lon="22.979379">
        <ele>1437.1</ele>
        <time>2026-05-06T14:08:07.000Z</time>
      </trkpt>
      <trkpt lat="41.794746" lon="22.979385">
        <ele>1436.9</ele>
        <time>2026-05-06T14:08:08.000Z</time>
      </trkpt>
      <trkpt lat="41.794744" lon="22.979394">
        <ele>1436.9</ele>
        <time>2026-05-06T14:08:09.000Z</time>
      </trkpt>
      <trkpt lat="41.794742" lon="22.979406">
        <ele>1436.9</ele>
        <time>2026-05-06T14:08:10.000Z</time>
      </trkpt>
      <trkpt lat="41.794739" lon="22.979419">
        <ele>1436.9</ele>
        <time>2026-05-06T14:08:11.000Z</time>
      </trkpt>
      <trkpt lat="41.794738" lon="22.979432">
        <ele>1436.9</ele>
        <time>2026-05-06T14:08:12.000Z</time>
      </trkpt>
      <trkpt lat="41.794736" lon="22.979445">
        <ele>1436.8</ele>
        <time>2026-05-06T14:08:13.000Z</time>
      </trkpt>
      <trkpt lat="41.794735" lon="22.979457">
        <ele>1436.8</ele>
        <time>2026-05-06T14:08:14.000Z</time>
      </trkpt>
      <trkpt lat="41.794735" lon="22.979466">
        <ele>1436.8</ele>
        <time>2026-05-06T14:08:15.000Z</time>
      </trkpt>
      <trkpt lat="41.794735" lon="22.979472">
        <ele>1436.8</ele>
        <time>2026-05-06T14:08:16.000Z</time>
      </trkpt>
      <trkpt lat="41.794736" lon="22.979477">
        <ele>1436.8</ele>
        <time>2026-05-06T14:08:17.000Z</time>
      </trkpt>
      <trkpt lat="41.794739" lon="22.979482">
        <ele>1436.5</ele>
        <time>2026-05-06T14:08:18.000Z</time>
      </trkpt>
      <trkpt lat="41.794744" lon="22.979487">
        <ele>1436.5</ele>
        <time>2026-05-06T14:08:19.000Z</time>
      </trkpt>
      <trkpt lat="41.794749" lon="22.979493">
        <ele>1436.5</ele>
        <time>2026-05-06T14:08:20.000Z</time>
      </trkpt>
      <trkpt lat="41.794753" lon="22.979499">
        <ele>1436.5</ele>
        <time>2026-05-06T14:08:21.000Z</time>
      </trkpt>
      <trkpt lat="41.794758" lon="22.979505">
        <ele>1436.5</ele>
        <time>2026-05-06T14:08:22.000Z</time>
      </trkpt>
      <trkpt lat="41.794762" lon="22.97951">
        <ele>1436</ele>
        <time>2026-05-06T14:08:23.000Z</time>
      </trkpt>
      <trkpt lat="41.794763" lon="22.979515">
        <ele>1436</ele>
        <time>2026-05-06T14:08:24.000Z</time>
      </trkpt>
      <trkpt lat="41.794763" lon="22.979521">
        <ele>1436</ele>
        <time>2026-05-06T14:08:25.000Z</time>
      </trkpt>
      <trkpt lat="41.794766" lon="22.979527">
        <ele>1436</ele>
        <time>2026-05-06T14:08:26.000Z</time>
      </trkpt>
      <trkpt lat="41.794769" lon="22.979534">
        <ele>1436</ele>
        <time>2026-05-06T14:08:27.000Z</time>
      </trkpt>
      <trkpt lat="41.794772" lon="22.979542">
        <ele>1435.6</ele>
        <time>2026-05-06T14:08:28.000Z</time>
      </trkpt>
      <trkpt lat="41.794776" lon="22.979547">
        <ele>1435.6</ele>
        <time>2026-05-06T14:08:29.000Z</time>
      </trkpt>
      <trkpt lat="41.794779" lon="22.979548">
        <ele>1435.6</ele>
        <time>2026-05-06T14:08:30.000Z</time>
      </trkpt>
      <trkpt lat="41.794782" lon="22.979549">
        <ele>1435.6</ele>
        <time>2026-05-06T14:08:31.000Z</time>
      </trkpt>
      <trkpt lat="41.794783" lon="22.979549">
        <ele>1435.6</ele>
        <time>2026-05-06T14:08:32.000Z</time>
      </trkpt>
      <trkpt lat="41.794784" lon="22.979546">
        <ele>1434.8</ele>
        <time>2026-05-06T14:08:33.000Z</time>
      </trkpt>
      <trkpt lat="41.794784" lon="22.979544">
        <ele>1434.8</ele>
        <time>2026-05-06T14:08:34.000Z</time>
      </trkpt>
      <trkpt lat="41.794785" lon="22.979542">
        <ele>1434.8</ele>
        <time>2026-05-06T14:08:35.000Z</time>
      </trkpt>
      <trkpt lat="41.794785" lon="22.979541">
        <ele>1434.8</ele>
        <time>2026-05-06T14:08:36.000Z</time>
      </trkpt>
      <trkpt lat="41.794786" lon="22.979543">
        <ele>1434.8</ele>
        <time>2026-05-06T14:08:37.000Z</time>
      </trkpt>
      <trkpt lat="41.794786" lon="22.979549">
        <ele>1434</ele>
        <time>2026-05-06T14:08:38.000Z</time>
      </trkpt>
      <trkpt lat="41.794785" lon="22.979556">
        <ele>1434</ele>
        <time>2026-05-06T14:08:39.000Z</time>
      </trkpt>
      <trkpt lat="41.794784" lon="22.979566">
        <ele>1434</ele>
        <time>2026-05-06T14:08:40.000Z</time>
      </trkpt>
      <trkpt lat="41.79478" lon="22.979577">
        <ele>1434</ele>
        <time>2026-05-06T14:08:41.000Z</time>
      </trkpt>
      <trkpt lat="41.794776" lon="22.979587">
        <ele>1434</ele>
        <time>2026-05-06T14:08:42.000Z</time>
      </trkpt>
      <trkpt lat="41.794773" lon="22.979596">
        <ele>1433.7</ele>
        <time>2026-05-06T14:08:43.000Z</time>
      </trkpt>
      <trkpt lat="41.79477" lon="22.979606">
        <ele>1433.7</ele>
        <time>2026-05-06T14:08:44.000Z</time>
      </trkpt>
      <trkpt lat="41.794768" lon="22.979617">
        <ele>1433.7</ele>
        <time>2026-05-06T14:08:45.000Z</time>
      </trkpt>
      <trkpt lat="41.794768" lon="22.979626">
        <ele>1433.7</ele>
        <time>2026-05-06T14:08:46.000Z</time>
      </trkpt>
      <trkpt lat="41.794768" lon="22.979634">
        <ele>1433.7</ele>
        <time>2026-05-06T14:08:47.000Z</time>
      </trkpt>
      <trkpt lat="41.79477" lon="22.979642">
        <ele>1433</ele>
        <time>2026-05-06T14:08:48.000Z</time>
      </trkpt>
      <trkpt lat="41.794772" lon="22.97965">
        <ele>1433</ele>
        <time>2026-05-06T14:08:49.000Z</time>
      </trkpt>
      <trkpt lat="41.794777" lon="22.979655">
        <ele>1433</ele>
        <time>2026-05-06T14:08:50.000Z</time>
      </trkpt>
      <trkpt lat="41.794782" lon="22.979663">
        <ele>1433</ele>
        <time>2026-05-06T14:08:51.000Z</time>
      </trkpt>
      <trkpt lat="41.794788" lon="22.979672">
        <ele>1433</ele>
        <time>2026-05-06T14:08:52.000Z</time>
      </trkpt>
      <trkpt lat="41.794791" lon="22.97968">
        <ele>1432.3</ele>
        <time>2026-05-06T14:08:53.000Z</time>
      </trkpt>
      <trkpt lat="41.794793" lon="22.97969">
        <ele>1432.3</ele>
        <time>2026-05-06T14:08:54.000Z</time>
      </trkpt>
      <trkpt lat="41.794793" lon="22.979699">
        <ele>1432.3</ele>
        <time>2026-05-06T14:08:55.000Z</time>
      </trkpt>
      <trkpt lat="41.794792" lon="22.979707">
        <ele>1432.3</ele>
        <time>2026-05-06T14:08:56.000Z</time>
      </trkpt>
      <trkpt lat="41.79479" lon="22.979717">
        <ele>1432.3</ele>
        <time>2026-05-06T14:08:57.000Z</time>
      </trkpt>
      <trkpt lat="41.794788" lon="22.979727">
        <ele>1431.8</ele>
        <time>2026-05-06T14:08:58.000Z</time>
      </trkpt>
      <trkpt lat="41.794787" lon="22.979738">
        <ele>1431.8</ele>
        <time>2026-05-06T14:08:59.000Z</time>
      </trkpt>
      <trkpt lat="41.794787" lon="22.979752">
        <ele>1431.8</ele>
        <time>2026-05-06T14:09:00.000Z</time>
      </trkpt>
      <trkpt lat="41.794789" lon="22.979767">
        <ele>1431.8</ele>
        <time>2026-05-06T14:09:01.000Z</time>
      </trkpt>
      <trkpt lat="41.794792" lon="22.979782">
        <ele>1431.8</ele>
        <time>2026-05-06T14:09:02.000Z</time>
      </trkpt>
      <trkpt lat="41.794795" lon="22.979797">
        <ele>1430.7</ele>
        <time>2026-05-06T14:09:03.000Z</time>
      </trkpt>
      <trkpt lat="41.794797" lon="22.979812">
        <ele>1430.7</ele>
        <time>2026-05-06T14:09:04.000Z</time>
      </trkpt>
      <trkpt lat="41.7948" lon="22.979825">
        <ele>1430.7</ele>
        <time>2026-05-06T14:09:05.000Z</time>
      </trkpt>
      <trkpt lat="41.794802" lon="22.979838">
        <ele>1430.7</ele>
        <time>2026-05-06T14:09:06.000Z</time>
      </trkpt>
      <trkpt lat="41.794804" lon="22.979852">
        <ele>1430.7</ele>
        <time>2026-05-06T14:09:07.000Z</time>
      </trkpt>
      <trkpt lat="41.794805" lon="22.979866">
        <ele>1429.6</ele>
        <time>2026-05-06T14:09:08.000Z</time>
      </trkpt>
      <trkpt lat="41.794807" lon="22.97988">
        <ele>1429.6</ele>
        <time>2026-05-06T14:09:09.000Z</time>
      </trkpt>
      <trkpt lat="41.794809" lon="22.979895">
        <ele>1429.6</ele>
        <time>2026-05-06T14:09:10.000Z</time>
      </trkpt>
      <trkpt lat="41.79481" lon="22.979907">
        <ele>1429.6</ele>
        <time>2026-05-06T14:09:11.000Z</time>
      </trkpt>
      <trkpt lat="41.794811" lon="22.979916">
        <ele>1429.6</ele>
        <time>2026-05-06T14:09:12.000Z</time>
      </trkpt>
      <trkpt lat="41.794812" lon="22.979923">
        <ele>1429</ele>
        <time>2026-05-06T14:09:13.000Z</time>
      </trkpt>
      <trkpt lat="41.794811" lon="22.97993">
        <ele>1429</ele>
        <time>2026-05-06T14:09:14.000Z</time>
      </trkpt>
      <trkpt lat="41.79481" lon="22.979933">
        <ele>1429</ele>
        <time>2026-05-06T14:09:15.000Z</time>
      </trkpt>
      <trkpt lat="41.794808" lon="22.979939">
        <ele>1429</ele>
        <time>2026-05-06T14:09:16.000Z</time>
      </trkpt>
      <trkpt lat="41.794805" lon="22.979949">
        <ele>1429</ele>
        <time>2026-05-06T14:09:17.000Z</time>
      </trkpt>
      <trkpt lat="41.794801" lon="22.979961">
        <ele>1427.6</ele>
        <time>2026-05-06T14:09:18.000Z</time>
      </trkpt>
      <trkpt lat="41.794799" lon="22.979974">
        <ele>1427.6</ele>
        <time>2026-05-06T14:09:19.000Z</time>
      </trkpt>
      <trkpt lat="41.794797" lon="22.979991">
        <ele>1427.6</ele>
        <time>2026-05-06T14:09:20.000Z</time>
      </trkpt>
      <trkpt lat="41.794797" lon="22.980009">
        <ele>1427.6</ele>
        <time>2026-05-06T14:09:21.000Z</time>
      </trkpt>
      <trkpt lat="41.794798" lon="22.980026">
        <ele>1427.6</ele>
        <time>2026-05-06T14:09:22.000Z</time>
      </trkpt>
      <trkpt lat="41.794801" lon="22.980042">
        <ele>1426.2</ele>
        <time>2026-05-06T14:09:23.000Z</time>
      </trkpt>
      <trkpt lat="41.794805" lon="22.980058">
        <ele>1426.2</ele>
        <time>2026-05-06T14:09:24.000Z</time>
      </trkpt>
      <trkpt lat="41.794809" lon="22.980073">
        <ele>1426.2</ele>
        <time>2026-05-06T14:09:25.000Z</time>
      </trkpt>
      <trkpt lat="41.794813" lon="22.980088">
        <ele>1426.2</ele>
        <time>2026-05-06T14:09:26.000Z</time>
      </trkpt>
      <trkpt lat="41.794817" lon="22.980104">
        <ele>1426.2</ele>
        <time>2026-05-06T14:09:27.000Z</time>
      </trkpt>
      <trkpt lat="41.794821" lon="22.980121">
        <ele>1425.6</ele>
        <time>2026-05-06T14:09:28.000Z</time>
      </trkpt>
      <trkpt lat="41.794824" lon="22.980139">
        <ele>1425.6</ele>
        <time>2026-05-06T14:09:29.000Z</time>
      </trkpt>
      <trkpt lat="41.794828" lon="22.980157">
        <ele>1425.6</ele>
        <time>2026-05-06T14:09:30.000Z</time>
      </trkpt>
      <trkpt lat="41.794831" lon="22.980175">
        <ele>1425.6</ele>
        <time>2026-05-06T14:09:31.000Z</time>
      </trkpt>
      <trkpt lat="41.794835" lon="22.980193">
        <ele>1425.6</ele>
        <time>2026-05-06T14:09:32.000Z</time>
      </trkpt>
      <trkpt lat="41.794838" lon="22.98021">
        <ele>1424.4</ele>
        <time>2026-05-06T14:09:33.000Z</time>
      </trkpt>
      <trkpt lat="41.794842" lon="22.980228">
        <ele>1424.4</ele>
        <time>2026-05-06T14:09:34.000Z</time>
      </trkpt>
      <trkpt lat="41.794844" lon="22.980245">
        <ele>1424.4</ele>
        <time>2026-05-06T14:09:35.000Z</time>
      </trkpt>
      <trkpt lat="41.794847" lon="22.980262">
        <ele>1424.4</ele>
        <time>2026-05-06T14:09:36.000Z</time>
      </trkpt>
      <trkpt lat="41.794849" lon="22.980278">
        <ele>1424.4</ele>
        <time>2026-05-06T14:09:37.000Z</time>
      </trkpt>
      <trkpt lat="41.79485" lon="22.98029">
        <ele>1423.1</ele>
        <time>2026-05-06T14:09:38.000Z</time>
      </trkpt>
      <trkpt lat="41.79485" lon="22.980298">
        <ele>1423.1</ele>
        <time>2026-05-06T14:09:39.000Z</time>
      </trkpt>
      <trkpt lat="41.79485" lon="22.980303">
        <ele>1423.1</ele>
        <time>2026-05-06T14:09:40.000Z</time>
      </trkpt>
      <trkpt lat="41.794849" lon="22.980305">
        <ele>1423.1</ele>
        <time>2026-05-06T14:09:41.000Z</time>
      </trkpt>
      <trkpt lat="41.794849" lon="22.980306">
        <ele>1423.1</ele>
        <time>2026-05-06T14:09:42.000Z</time>
      </trkpt>
      <trkpt lat="41.794848" lon="22.980307">
        <ele>1422.5</ele>
        <time>2026-05-06T14:09:43.000Z</time>
      </trkpt>
      <trkpt lat="41.794848" lon="22.980307">
        <ele>1422.5</ele>
        <time>2026-05-06T14:09:44.000Z</time>
      </trkpt>
      <trkpt lat="41.794849" lon="22.980308">
        <ele>1422.5</ele>
        <time>2026-05-06T14:09:45.000Z</time>
      </trkpt>
      <trkpt lat="41.79485" lon="22.980309">
        <ele>1422.5</ele>
        <time>2026-05-06T14:09:46.000Z</time>
      </trkpt>
      <trkpt lat="41.79485" lon="22.980309">
        <ele>1422.5</ele>
        <time>2026-05-06T14:09:47.000Z</time>
      </trkpt>
      <trkpt lat="41.79485" lon="22.980309">
        <ele>1421.5</ele>
        <time>2026-05-06T14:09:48.000Z</time>
      </trkpt>
      <trkpt lat="41.79485" lon="22.980309">
        <ele>1421.5</ele>
        <time>2026-05-06T14:09:49.000Z</time>
      </trkpt>
      <trkpt lat="41.794852" lon="22.98031">
        <ele>1421.5</ele>
        <time>2026-05-06T14:09:50.000Z</time>
      </trkpt>
      <trkpt lat="41.794853" lon="22.980312">
        <ele>1421.5</ele>
        <time>2026-05-06T14:09:51.000Z</time>
      </trkpt>
      <trkpt lat="41.794855" lon="22.980315">
        <ele>1421.5</ele>
        <time>2026-05-06T14:09:52.000Z</time>
      </trkpt>
      <trkpt lat="41.794856" lon="22.980321">
        <ele>1421.1</ele>
        <time>2026-05-06T14:09:53.000Z</time>
      </trkpt>
      <trkpt lat="41.794857" lon="22.980329">
        <ele>1421.1</ele>
        <time>2026-05-06T14:09:54.000Z</time>
      </trkpt>
      <trkpt lat="41.794858" lon="22.980339">
        <ele>1421.1</ele>
        <time>2026-05-06T14:09:55.000Z</time>
      </trkpt>
      <trkpt lat="41.794859" lon="22.980351">
        <ele>1421.1</ele>
        <time>2026-05-06T14:09:56.000Z</time>
      </trkpt>
      <trkpt lat="41.79486" lon="22.980365">
        <ele>1421.1</ele>
        <time>2026-05-06T14:09:57.000Z</time>
      </trkpt>
      <trkpt lat="41.794862" lon="22.98038">
        <ele>1421</ele>
        <time>2026-05-06T14:09:58.000Z</time>
      </trkpt>
      <trkpt lat="41.794864" lon="22.980396">
        <ele>1421</ele>
        <time>2026-05-06T14:09:59.000Z</time>
      </trkpt>
      <trkpt lat="41.794865" lon="22.980412">
        <ele>1421</ele>
        <time>2026-05-06T14:10:00.000Z</time>
      </trkpt>
      <trkpt lat="41.794866" lon="22.980427">
        <ele>1421</ele>
        <time>2026-05-06T14:10:01.000Z</time>
      </trkpt>
      <trkpt lat="41.794866" lon="22.980442">
        <ele>1421</ele>
        <time>2026-05-06T14:10:02.000Z</time>
      </trkpt>
      <trkpt lat="41.794865" lon="22.980455">
        <ele>1421</ele>
        <time>2026-05-06T14:10:03.000Z</time>
      </trkpt>
      <trkpt lat="41.794864" lon="22.980465">
        <ele>1421</ele>
        <time>2026-05-06T14:10:04.000Z</time>
      </trkpt>
      <trkpt lat="41.794862" lon="22.980472">
        <ele>1421</ele>
        <time>2026-05-06T14:10:05.000Z</time>
      </trkpt>
      <trkpt lat="41.79486" lon="22.980475">
        <ele>1421</ele>
        <time>2026-05-06T14:10:06.000Z</time>
      </trkpt>
      <trkpt lat="41.794857" lon="22.980476">
        <ele>1421</ele>
        <time>2026-05-06T14:10:07.000Z</time>
      </trkpt>
      <trkpt lat="41.794856" lon="22.980475">
        <ele>1420.9</ele>
        <time>2026-05-06T14:10:08.000Z</time>
      </trkpt>
      <trkpt lat="41.794855" lon="22.980474">
        <ele>1420.9</ele>
        <time>2026-05-06T14:10:09.000Z</time>
      </trkpt>
      <trkpt lat="41.794855" lon="22.980473">
        <ele>1420.9</ele>
        <time>2026-05-06T14:10:10.000Z</time>
      </trkpt>
      <trkpt lat="41.794856" lon="22.980474">
        <ele>1420.9</ele>
        <time>2026-05-06T14:10:11.000Z</time>
      </trkpt>
      <trkpt lat="41.794856" lon="22.980475">
        <ele>1420.9</ele>
        <time>2026-05-06T14:10:12.000Z</time>
      </trkpt>
      <trkpt lat="41.794857" lon="22.980475">
        <ele>1420.8</ele>
        <time>2026-05-06T14:10:13.000Z</time>
      </trkpt>
      <trkpt lat="41.794858" lon="22.980476">
        <ele>1420.8</ele>
        <time>2026-05-06T14:10:14.000Z</time>
      </trkpt>
      <trkpt lat="41.794858" lon="22.980476">
        <ele>1420.8</ele>
        <time>2026-05-06T14:10:15.000Z</time>
      </trkpt>
      <trkpt lat="41.794858" lon="22.980476">
        <ele>1420.8</ele>
        <time>2026-05-06T14:10:16.000Z</time>
      </trkpt>
      <trkpt lat="41.794858" lon="22.980475">
        <ele>1420.8</ele>
        <time>2026-05-06T14:10:17.000Z</time>
      </trkpt>
      <trkpt lat="41.794858" lon="22.980474">
        <ele>1420.8</ele>
        <time>2026-05-06T14:10:18.000Z</time>
      </trkpt>
      <trkpt lat="41.794857" lon="22.980474">
        <ele>1420.8</ele>
        <time>2026-05-06T14:10:19.000Z</time>
      </trkpt>
      <trkpt lat="41.794857" lon="22.980474">
        <ele>1420.8</ele>
        <time>2026-05-06T14:10:20.000Z</time>
      </trkpt>
      <trkpt lat="41.794857" lon="22.980474">
        <ele>1420.8</ele>
        <time>2026-05-06T14:10:21.000Z</time>
      </trkpt>
      <trkpt lat="41.794857" lon="22.980474">
        <ele>1420.8</ele>
        <time>2026-05-06T14:10:22.000Z</time>
      </trkpt>
      <trkpt lat="41.794858" lon="22.980475">
        <ele>1420.8</ele>
        <time>2026-05-06T14:10:23.000Z</time>
      </trkpt>
      <trkpt lat="41.794858" lon="22.980475">
        <ele>1420.8</ele>
        <time>2026-05-06T14:10:24.000Z</time>
      </trkpt>
      <trkpt lat="41.794858" lon="22.980476">
        <ele>1420.8</ele>
        <time>2026-05-06T14:10:25.000Z</time>
      </trkpt>
      <trkpt lat="41.794858" lon="22.980476">
        <ele>1420.8</ele>
        <time>2026-05-06T14:10:26.000Z</time>
      </trkpt>
      <trkpt lat="41.794858" lon="22.980476">
        <ele>1420.8</ele>
        <time>2026-05-06T14:10:27.000Z</time>
      </trkpt>
      <trkpt lat="41.794858" lon="22.980476">
        <ele>1420.8</ele>
        <time>2026-05-06T14:10:28.000Z</time>
      </trkpt>
      <trkpt lat="41.794858" lon="22.980475">
        <ele>1420.8</ele>
        <time>2026-05-06T14:10:29.000Z</time>
      </trkpt>
      <trkpt lat="41.794859" lon="22.980474">
        <ele>1420.8</ele>
        <time>2026-05-06T14:10:30.000Z</time>
      </trkpt>
      <trkpt lat="41.794859" lon="22.980473">
        <ele>1420.8</ele>
        <time>2026-05-06T14:10:31.000Z</time>
      </trkpt>
      <trkpt lat="41.794858" lon="22.980474">
        <ele>1420.8</ele>
        <time>2026-05-06T14:10:32.000Z</time>
      </trkpt>
      <trkpt lat="41.794857" lon="22.980475">
        <ele>1420.9</ele>
        <time>2026-05-06T14:10:33.000Z</time>
      </trkpt>
      <trkpt lat="41.794856" lon="22.980476">
        <ele>1420.9</ele>
        <time>2026-05-06T14:10:34.000Z</time>
      </trkpt>
      <trkpt lat="41.794855" lon="22.980477">
        <ele>1420.9</ele>
        <time>2026-05-06T14:10:35.000Z</time>
      </trkpt>
      <trkpt lat="41.794853" lon="22.980477">
        <ele>1420.9</ele>
        <time>2026-05-06T14:10:36.000Z</time>
      </trkpt>
      <trkpt lat="41.794853" lon="22.980476">
        <ele>1420.9</ele>
        <time>2026-05-06T14:10:37.000Z</time>
      </trkpt>
      <trkpt lat="41.794853" lon="22.980475">
        <ele>1420.9</ele>
        <time>2026-05-06T14:10:38.000Z</time>
      </trkpt>
      <trkpt lat="41.794853" lon="22.980474">
        <ele>1420.9</ele>
        <time>2026-05-06T14:10:39.000Z</time>
      </trkpt>
      <trkpt lat="41.794853" lon="22.980473">
        <ele>1420.9</ele>
        <time>2026-05-06T14:10:40.000Z</time>
      </trkpt>
      <trkpt lat="41.794852" lon="22.980471">
        <ele>1420.9</ele>
        <time>2026-05-06T14:10:41.000Z</time>
      </trkpt>
      <trkpt lat="41.794852" lon="22.98047">
        <ele>1420.9</ele>
        <time>2026-05-06T14:10:42.000Z</time>
      </trkpt>
      <trkpt lat="41.794852" lon="22.980469">
        <ele>1420.9</ele>
        <time>2026-05-06T14:10:43.000Z</time>
      </trkpt>
      <trkpt lat="41.794851" lon="22.980468">
        <ele>1420.9</ele>
        <time>2026-05-06T14:10:44.000Z</time>
      </trkpt>
      <trkpt lat="41.794851" lon="22.980468">
        <ele>1420.9</ele>
        <time>2026-05-06T14:10:45.000Z</time>
      </trkpt>
      <trkpt lat="41.794851" lon="22.980467">
        <ele>1420.9</ele>
        <time>2026-05-06T14:10:46.000Z</time>
      </trkpt>
      <trkpt lat="41.794851" lon="22.980467">
        <ele>1420.9</ele>
        <time>2026-05-06T14:10:47.000Z</time>
      </trkpt>
      <trkpt lat="41.794851" lon="22.980467">
        <ele>1420.9</ele>
        <time>2026-05-06T14:10:48.000Z</time>
      </trkpt>
      <trkpt lat="41.794851" lon="22.980467">
        <ele>1420.9</ele>
        <time>2026-05-06T14:10:49.000Z</time>
      </trkpt>
      <trkpt lat="41.794851" lon="22.980468">
        <ele>1420.9</ele>
        <time>2026-05-06T14:10:50.000Z</time>
      </trkpt>
      <trkpt lat="41.79485" lon="22.980468">
        <ele>1420.9</ele>
        <time>2026-05-06T14:10:51.000Z</time>
      </trkpt>
      <trkpt lat="41.794849" lon="22.980469">
        <ele>1420.9</ele>
        <time>2026-05-06T14:10:52.000Z</time>
      </trkpt>
      <trkpt lat="41.79485" lon="22.98047">
        <ele>1420.9</ele>
        <time>2026-05-06T14:10:53.000Z</time>
      </trkpt>
      <trkpt lat="41.794851" lon="22.980471">
        <ele>1420.9</ele>
        <time>2026-05-06T14:10:54.000Z</time>
      </trkpt>
      <trkpt lat="41.794852" lon="22.980472">
        <ele>1420.9</ele>
        <time>2026-05-06T14:10:55.000Z</time>
      </trkpt>
      <trkpt lat="41.794853" lon="22.980473">
        <ele>1420.9</ele>
        <time>2026-05-06T14:10:56.000Z</time>
      </trkpt>
      <trkpt lat="41.794855" lon="22.980474">
        <ele>1420.9</ele>
        <time>2026-05-06T14:10:57.000Z</time>
      </trkpt>
      <trkpt lat="41.794856" lon="22.980475">
        <ele>1420.9</ele>
        <time>2026-05-06T14:10:58.000Z</time>
      </trkpt>
      <trkpt lat="41.794856" lon="22.980476">
        <ele>1420.9</ele>
        <time>2026-05-06T14:10:59.000Z</time>
      </trkpt>
      <trkpt lat="41.794857" lon="22.980476">
        <ele>1420.9</ele>
        <time>2026-05-06T14:11:00.000Z</time>
      </trkpt>
      <trkpt lat="41.794857" lon="22.980476">
        <ele>1420.9</ele>
        <time>2026-05-06T14:11:01.000Z</time>
      </trkpt>
      <trkpt lat="41.794857" lon="22.980475">
        <ele>1420.9</ele>
        <time>2026-05-06T14:11:02.000Z</time>
      </trkpt>
      <trkpt lat="41.794857" lon="22.980475">
        <ele>1420.8</ele>
        <time>2026-05-06T14:11:03.000Z</time>
      </trkpt>
      <trkpt lat="41.794857" lon="22.980474">
        <ele>1420.8</ele>
        <time>2026-05-06T14:11:04.000Z</time>
      </trkpt>
      <trkpt lat="41.794857" lon="22.980474">
        <ele>1420.8</ele>
        <time>2026-05-06T14:11:05.000Z</time>
      </trkpt>
      <trkpt lat="41.794857" lon="22.980474">
        <ele>1420.8</ele>
        <time>2026-05-06T14:11:06.000Z</time>
      </trkpt>
      <trkpt lat="41.794857" lon="22.980474">
        <ele>1420.8</ele>
        <time>2026-05-06T14:11:07.000Z</time>
      </trkpt>
      <trkpt lat="41.794857" lon="22.980474">
        <ele>1420.5</ele>
        <time>2026-05-06T14:11:08.000Z</time>
      </trkpt>
      <trkpt lat="41.794857" lon="22.980474">
        <ele>1420.5</ele>
        <time>2026-05-06T14:11:09.000Z</time>
      </trkpt>
      <trkpt lat="41.794857" lon="22.980474">
        <ele>1420.5</ele>
        <time>2026-05-06T14:11:10.000Z</time>
      </trkpt>
      <trkpt lat="41.794856" lon="22.980474">
        <ele>1420.5</ele>
        <time>2026-05-06T14:11:11.000Z</time>
      </trkpt>
      <trkpt lat="41.794856" lon="22.980474">
        <ele>1420.5</ele>
        <time>2026-05-06T14:11:12.000Z</time>
      </trkpt>
      <trkpt lat="41.794856" lon="22.980475">
        <ele>1420.4</ele>
        <time>2026-05-06T14:11:13.000Z</time>
      </trkpt>
      <trkpt lat="41.794856" lon="22.980475">
        <ele>1420.4</ele>
        <time>2026-05-06T14:11:14.000Z</time>
      </trkpt>
      <trkpt lat="41.794856" lon="22.980476">
        <ele>1420.4</ele>
        <time>2026-05-06T14:11:15.000Z</time>
      </trkpt>
      <trkpt lat="41.794855" lon="22.980476">
        <ele>1420.4</ele>
        <time>2026-05-06T14:11:16.000Z</time>
      </trkpt>
      <trkpt lat="41.794855" lon="22.980477">
        <ele>1420.4</ele>
        <time>2026-05-06T14:11:17.000Z</time>
      </trkpt>
      <trkpt lat="41.794854" lon="22.980478">
        <ele>1420.5</ele>
        <time>2026-05-06T14:11:18.000Z</time>
      </trkpt>
      <trkpt lat="41.794854" lon="22.980478">
        <ele>1420.5</ele>
        <time>2026-05-06T14:11:19.000Z</time>
      </trkpt>
      <trkpt lat="41.794853" lon="22.980479">
        <ele>1420.5</ele>
        <time>2026-05-06T14:11:20.000Z</time>
      </trkpt>
      <trkpt lat="41.794853" lon="22.980479">
        <ele>1420.5</ele>
        <time>2026-05-06T14:11:21.000Z</time>
      </trkpt>
      <trkpt lat="41.794853" lon="22.980479">
        <ele>1420.5</ele>
        <time>2026-05-06T14:11:22.000Z</time>
      </trkpt>
      <trkpt lat="41.794853" lon="22.980479">
        <ele>1420.7</ele>
        <time>2026-05-06T14:11:23.000Z</time>
      </trkpt>
      <trkpt lat="41.794853" lon="22.980479">
        <ele>1420.7</ele>
        <time>2026-05-06T14:11:24.000Z</time>
      </trkpt>
      <trkpt lat="41.794853" lon="22.980479">
        <ele>1420.7</ele>
        <time>2026-05-06T14:11:25.000Z</time>
      </trkpt>
      <trkpt lat="41.794852" lon="22.980478">
        <ele>1420.7</ele>
        <time>2026-05-06T14:11:26.000Z</time>
      </trkpt>
      <trkpt lat="41.794852" lon="22.980476">
        <ele>1420.7</ele>
        <time>2026-05-06T14:11:27.000Z</time>
      </trkpt>
      <trkpt lat="41.794852" lon="22.980475">
        <ele>1420.8</ele>
        <time>2026-05-06T14:11:28.000Z</time>
      </trkpt>
      <trkpt lat="41.794853" lon="22.980474">
        <ele>1420.8</ele>
        <time>2026-05-06T14:11:29.000Z</time>
      </trkpt>
      <trkpt lat="41.794853" lon="22.980474">
        <ele>1420.8</ele>
        <time>2026-05-06T14:11:30.000Z</time>
      </trkpt>
      <trkpt lat="41.794854" lon="22.980473">
        <ele>1420.8</ele>
        <time>2026-05-06T14:11:31.000Z</time>
      </trkpt>
      <trkpt lat="41.794854" lon="22.980473">
        <ele>1420.8</ele>
        <time>2026-05-06T14:11:32.000Z</time>
      </trkpt>
      <trkpt lat="41.794855" lon="22.980472">
        <ele>1421.1</ele>
        <time>2026-05-06T14:11:33.000Z</time>
      </trkpt>
      <trkpt lat="41.794856" lon="22.980472">
        <ele>1421.1</ele>
        <time>2026-05-06T14:11:34.000Z</time>
      </trkpt>
      <trkpt lat="41.794856" lon="22.980471">
        <ele>1421.1</ele>
        <time>2026-05-06T14:11:35.000Z</time>
      </trkpt>
      <trkpt lat="41.794856" lon="22.980471">
        <ele>1421.1</ele>
        <time>2026-05-06T14:11:36.000Z</time>
      </trkpt>
      <trkpt lat="41.794856" lon="22.98047">
        <ele>1421.1</ele>
        <time>2026-05-06T14:11:37.000Z</time>
      </trkpt>
      <trkpt lat="41.794856" lon="22.98047">
        <ele>1421.1</ele>
        <time>2026-05-06T14:11:38.000Z</time>
      </trkpt>
      <trkpt lat="41.794856" lon="22.980469">
        <ele>1421.1</ele>
        <time>2026-05-06T14:11:39.000Z</time>
      </trkpt>
      <trkpt lat="41.794855" lon="22.98047">
        <ele>1421.1</ele>
        <time>2026-05-06T14:11:40.000Z</time>
      </trkpt>
      <trkpt lat="41.794855" lon="22.98047">
        <ele>1421.1</ele>
        <time>2026-05-06T14:11:41.000Z</time>
      </trkpt>
      <trkpt lat="41.794855" lon="22.980471">
        <ele>1421.1</ele>
        <time>2026-05-06T14:11:42.000Z</time>
      </trkpt>
      <trkpt lat="41.794855" lon="22.980471">
        <ele>1421.1</ele>
        <time>2026-05-06T14:11:43.000Z</time>
      </trkpt>
      <trkpt lat="41.794855" lon="22.980471">
        <ele>1421.1</ele>
        <time>2026-05-06T14:11:44.000Z</time>
      </trkpt>
      <trkpt lat="41.794855" lon="22.980472">
        <ele>1421.1</ele>
        <time>2026-05-06T14:11:45.000Z</time>
      </trkpt>
      <trkpt lat="41.794856" lon="22.980472">
        <ele>1421.1</ele>
        <time>2026-05-06T14:11:46.000Z</time>
      </trkpt>
      <trkpt lat="41.794857" lon="22.980473">
        <ele>1421.1</ele>
        <time>2026-05-06T14:11:47.000Z</time>
      </trkpt>
      <trkpt lat="41.794857" lon="22.980473">
        <ele>1420.6</ele>
        <time>2026-05-06T14:11:48.000Z</time>
      </trkpt>
      <trkpt lat="41.794858" lon="22.980473">
        <ele>1420.6</ele>
        <time>2026-05-06T14:11:49.000Z</time>
      </trkpt>
      <trkpt lat="41.794857" lon="22.980473">
        <ele>1420.6</ele>
        <time>2026-05-06T14:11:50.000Z</time>
      </trkpt>
      <trkpt lat="41.794855" lon="22.980472">
        <ele>1420.6</ele>
        <time>2026-05-06T14:11:51.000Z</time>
      </trkpt>
      <trkpt lat="41.794854" lon="22.98047">
        <ele>1420.6</ele>
        <time>2026-05-06T14:11:52.000Z</time>
      </trkpt>
      <trkpt lat="41.794853" lon="22.980468">
        <ele>1420.6</ele>
        <time>2026-05-06T14:11:53.000Z</time>
      </trkpt>
      <trkpt lat="41.794852" lon="22.980467">
        <ele>1420.6</ele>
        <time>2026-05-06T14:11:54.000Z</time>
      </trkpt>
      <trkpt lat="41.794852" lon="22.980466">
        <ele>1420.6</ele>
        <time>2026-05-06T14:11:55.000Z</time>
      </trkpt>
      <trkpt lat="41.794852" lon="22.980465">
        <ele>1420.6</ele>
        <time>2026-05-06T14:11:56.000Z</time>
      </trkpt>
      <trkpt lat="41.794853" lon="22.980464">
        <ele>1420.6</ele>
        <time>2026-05-06T14:11:57.000Z</time>
      </trkpt>
      <trkpt lat="41.794854" lon="22.980463">
        <ele>1420.7</ele>
        <time>2026-05-06T14:11:58.000Z</time>
      </trkpt>
      <trkpt lat="41.794855" lon="22.980462">
        <ele>1420.7</ele>
        <time>2026-05-06T14:11:59.000Z</time>
      </trkpt>
      <trkpt lat="41.794856" lon="22.980461">
        <ele>1420.7</ele>
        <time>2026-05-06T14:12:00.000Z</time>
      </trkpt>
      <trkpt lat="41.794857" lon="22.98046">
        <ele>1420.7</ele>
        <time>2026-05-06T14:12:01.000Z</time>
      </trkpt>
      <trkpt lat="41.794859" lon="22.98046">
        <ele>1420.7</ele>
        <time>2026-05-06T14:12:02.000Z</time>
      </trkpt>
      <trkpt lat="41.79486" lon="22.98046">
        <ele>1421</ele>
        <time>2026-05-06T14:12:03.000Z</time>
      </trkpt>
      <trkpt lat="41.79486" lon="22.98046">
        <ele>1421</ele>
        <time>2026-05-06T14:12:04.000Z</time>
      </trkpt>
      <trkpt lat="41.794861" lon="22.98046">
        <ele>1421</ele>
        <time>2026-05-06T14:12:05.000Z</time>
      </trkpt>
      <trkpt lat="41.794861" lon="22.98046">
        <ele>1421</ele>
        <time>2026-05-06T14:12:06.000Z</time>
      </trkpt>
      <trkpt lat="41.794861" lon="22.98046">
        <ele>1421</ele>
        <time>2026-05-06T14:12:07.000Z</time>
      </trkpt>
      <trkpt lat="41.794861" lon="22.980461">
        <ele>1420.9</ele>
        <time>2026-05-06T14:12:08.000Z</time>
      </trkpt>
      <trkpt lat="41.79486" lon="22.980462">
        <ele>1420.9</ele>
        <time>2026-05-06T14:12:09.000Z</time>
      </trkpt>
      <trkpt lat="41.79486" lon="22.980462">
        <ele>1420.9</ele>
        <time>2026-05-06T14:12:10.000Z</time>
      </trkpt>
      <trkpt lat="41.794859" lon="22.980463">
        <ele>1420.9</ele>
        <time>2026-05-06T14:12:11.000Z</time>
      </trkpt>
      <trkpt lat="41.794858" lon="22.980464">
        <ele>1420.9</ele>
        <time>2026-05-06T14:12:12.000Z</time>
      </trkpt>
      <trkpt lat="41.794858" lon="22.980465">
        <ele>1420.9</ele>
        <time>2026-05-06T14:12:13.000Z</time>
      </trkpt>
      <trkpt lat="41.794857" lon="22.980465">
        <ele>1420.9</ele>
        <time>2026-05-06T14:12:14.000Z</time>
      </trkpt>
      <trkpt lat="41.794857" lon="22.980466">
        <ele>1420.9</ele>
        <time>2026-05-06T14:12:15.000Z</time>
      </trkpt>
      <trkpt lat="41.794858" lon="22.980466">
        <ele>1420.9</ele>
        <time>2026-05-06T14:12:16.000Z</time>
      </trkpt>
      <trkpt lat="41.794858" lon="22.980466">
        <ele>1420.9</ele>
        <time>2026-05-06T14:12:17.000Z</time>
      </trkpt>
      <trkpt lat="41.794859" lon="22.980466">
        <ele>1420.7</ele>
        <time>2026-05-06T14:12:18.000Z</time>
      </trkpt>
      <trkpt lat="41.794859" lon="22.980466">
        <ele>1420.7</ele>
        <time>2026-05-06T14:12:19.000Z</time>
      </trkpt>
      <trkpt lat="41.794859" lon="22.980466">
        <ele>1420.7</ele>
        <time>2026-05-06T14:12:20.000Z</time>
      </trkpt>
      <trkpt lat="41.79486" lon="22.980465">
        <ele>1420.7</ele>
        <time>2026-05-06T14:12:21.000Z</time>
      </trkpt>
      <trkpt lat="41.79486" lon="22.980464">
        <ele>1420.7</ele>
        <time>2026-05-06T14:12:22.000Z</time>
      </trkpt>
      <trkpt lat="41.79486" lon="22.980464">
        <ele>1420.3</ele>
        <time>2026-05-06T14:12:23.000Z</time>
      </trkpt>
      <trkpt lat="41.79486" lon="22.980464">
        <ele>1420.3</ele>
        <time>2026-05-06T14:12:24.000Z</time>
      </trkpt>
      <trkpt lat="41.794861" lon="22.980463">
        <ele>1420.3</ele>
        <time>2026-05-06T14:12:25.000Z</time>
      </trkpt>
      <trkpt lat="41.79486" lon="22.980463">
        <ele>1420.3</ele>
        <time>2026-05-06T14:12:26.000Z</time>
      </trkpt>
      <trkpt lat="41.79486" lon="22.980463">
        <ele>1420.3</ele>
        <time>2026-05-06T14:12:27.000Z</time>
      </trkpt>
      <trkpt lat="41.79486" lon="22.980463">
        <ele>1420.1</ele>
        <time>2026-05-06T14:12:28.000Z</time>
      </trkpt>
      <trkpt lat="41.794859" lon="22.980463">
        <ele>1420.1</ele>
        <time>2026-05-06T14:12:29.000Z</time>
      </trkpt>
      <trkpt lat="41.794858" lon="22.980463">
        <ele>1420.1</ele>
        <time>2026-05-06T14:12:30.000Z</time>
      </trkpt>
      <trkpt lat="41.794858" lon="22.980463">
        <ele>1420.1</ele>
        <time>2026-05-06T14:12:31.000Z</time>
      </trkpt>
      <trkpt lat="41.794858" lon="22.980463">
        <ele>1420.1</ele>
        <time>2026-05-06T14:12:32.000Z</time>
      </trkpt>
      <trkpt lat="41.794858" lon="22.980465">
        <ele>1419.9</ele>
        <time>2026-05-06T14:12:33.000Z</time>
      </trkpt>
      <trkpt lat="41.79486" lon="22.980469">
        <ele>1419.9</ele>
        <time>2026-05-06T14:12:34.000Z</time>
      </trkpt>
      <trkpt lat="41.794863" lon="22.980475">
        <ele>1419.9</ele>
        <time>2026-05-06T14:12:35.000Z</time>
      </trkpt>
      <trkpt lat="41.794867" lon="22.980484">
        <ele>1419.9</ele>
        <time>2026-05-06T14:12:36.000Z</time>
      </trkpt>
      <trkpt lat="41.79487" lon="22.980495">
        <ele>1419.9</ele>
        <time>2026-05-06T14:12:37.000Z</time>
      </trkpt>
      <trkpt lat="41.794871" lon="22.980506">
        <ele>1420</ele>
        <time>2026-05-06T14:12:38.000Z</time>
      </trkpt>
      <trkpt lat="41.79487" lon="22.980517">
        <ele>1420</ele>
        <time>2026-05-06T14:12:39.000Z</time>
      </trkpt>
      <trkpt lat="41.794868" lon="22.980528">
        <ele>1420</ele>
        <time>2026-05-06T14:12:40.000Z</time>
      </trkpt>
      <trkpt lat="41.794865" lon="22.980539">
        <ele>1420</ele>
        <time>2026-05-06T14:12:41.000Z</time>
      </trkpt>
      <trkpt lat="41.794864" lon="22.980551">
        <ele>1420</ele>
        <time>2026-05-06T14:12:42.000Z</time>
      </trkpt>
      <trkpt lat="41.794864" lon="22.980564">
        <ele>1420</ele>
        <time>2026-05-06T14:12:43.000Z</time>
      </trkpt>
      <trkpt lat="41.794865" lon="22.980577">
        <ele>1420</ele>
        <time>2026-05-06T14:12:44.000Z</time>
      </trkpt>
      <trkpt lat="41.794866" lon="22.980591">
        <ele>1420</ele>
        <time>2026-05-06T14:12:45.000Z</time>
      </trkpt>
      <trkpt lat="41.794867" lon="22.980605">
        <ele>1420</ele>
        <time>2026-05-06T14:12:46.000Z</time>
      </trkpt>
      <trkpt lat="41.794868" lon="22.980619">
        <ele>1420</ele>
        <time>2026-05-06T14:12:47.000Z</time>
      </trkpt>
      <trkpt lat="41.794868" lon="22.980634">
        <ele>1420</ele>
        <time>2026-05-06T14:12:48.000Z</time>
      </trkpt>
      <trkpt lat="41.794868" lon="22.980649">
        <ele>1420</ele>
        <time>2026-05-06T14:12:49.000Z</time>
      </trkpt>
      <trkpt lat="41.794868" lon="22.980665">
        <ele>1420</ele>
        <time>2026-05-06T14:12:50.000Z</time>
      </trkpt>
      <trkpt lat="41.794868" lon="22.980682">
        <ele>1420</ele>
        <time>2026-05-06T14:12:51.000Z</time>
      </trkpt>
      <trkpt lat="41.794868" lon="22.9807">
        <ele>1420</ele>
        <time>2026-05-06T14:12:52.000Z</time>
      </trkpt>
      <trkpt lat="41.794868" lon="22.980717">
        <ele>1420.1</ele>
        <time>2026-05-06T14:12:53.000Z</time>
      </trkpt>
      <trkpt lat="41.794868" lon="22.980733">
        <ele>1420.1</ele>
        <time>2026-05-06T14:12:54.000Z</time>
      </trkpt>
      <trkpt lat="41.794867" lon="22.98075">
        <ele>1420.1</ele>
        <time>2026-05-06T14:12:55.000Z</time>
      </trkpt>
      <trkpt lat="41.794867" lon="22.980766">
        <ele>1420.1</ele>
        <time>2026-05-06T14:12:56.000Z</time>
      </trkpt>
      <trkpt lat="41.794866" lon="22.980782">
        <ele>1420.1</ele>
        <time>2026-05-06T14:12:57.000Z</time>
      </trkpt>
      <trkpt lat="41.794865" lon="22.980797">
        <ele>1420.2</ele>
        <time>2026-05-06T14:12:58.000Z</time>
      </trkpt>
      <trkpt lat="41.794863" lon="22.980813">
        <ele>1420.2</ele>
        <time>2026-05-06T14:12:59.000Z</time>
      </trkpt>
      <trkpt lat="41.794862" lon="22.980829">
        <ele>1420.2</ele>
        <time>2026-05-06T14:13:00.000Z</time>
      </trkpt>
      <trkpt lat="41.794861" lon="22.980844">
        <ele>1420.2</ele>
        <time>2026-05-06T14:13:01.000Z</time>
      </trkpt>
      <trkpt lat="41.794861" lon="22.980859">
        <ele>1420.2</ele>
        <time>2026-05-06T14:13:02.000Z</time>
      </trkpt>
      <trkpt lat="41.794861" lon="22.980874">
        <ele>1420.5</ele>
        <time>2026-05-06T14:13:03.000Z</time>
      </trkpt>
      <trkpt lat="41.794862" lon="22.980889">
        <ele>1420.5</ele>
        <time>2026-05-06T14:13:04.000Z</time>
      </trkpt>
      <trkpt lat="41.794863" lon="22.980903">
        <ele>1420.5</ele>
        <time>2026-05-06T14:13:05.000Z</time>
      </trkpt>
      <trkpt lat="41.794866" lon="22.980918">
        <ele>1420.5</ele>
        <time>2026-05-06T14:13:06.000Z</time>
      </trkpt>
      <trkpt lat="41.794867" lon="22.980932">
        <ele>1420.5</ele>
        <time>2026-05-06T14:13:07.000Z</time>
      </trkpt>
      <trkpt lat="41.79487" lon="22.980946">
        <ele>1420.6</ele>
        <time>2026-05-06T14:13:08.000Z</time>
      </trkpt>
      <trkpt lat="41.794872" lon="22.98096">
        <ele>1420.6</ele>
        <time>2026-05-06T14:13:09.000Z</time>
      </trkpt>
      <trkpt lat="41.794874" lon="22.980975">
        <ele>1420.6</ele>
        <time>2026-05-06T14:13:10.000Z</time>
      </trkpt>
      <trkpt lat="41.794875" lon="22.98099">
        <ele>1420.6</ele>
        <time>2026-05-06T14:13:11.000Z</time>
      </trkpt>
      <trkpt lat="41.794878" lon="22.981004">
        <ele>1420.6</ele>
        <time>2026-05-06T14:13:12.000Z</time>
      </trkpt>
      <trkpt lat="41.794879" lon="22.981019">
        <ele>1420.6</ele>
        <time>2026-05-06T14:13:13.000Z</time>
      </trkpt>
      <trkpt lat="41.794881" lon="22.981033">
        <ele>1420.6</ele>
        <time>2026-05-06T14:13:14.000Z</time>
      </trkpt>
      <trkpt lat="41.794882" lon="22.981048">
        <ele>1420.6</ele>
        <time>2026-05-06T14:13:15.000Z</time>
      </trkpt>
      <trkpt lat="41.794884" lon="22.981063">
        <ele>1420.6</ele>
        <time>2026-05-06T14:13:16.000Z</time>
      </trkpt>
      <trkpt lat="41.794885" lon="22.981079">
        <ele>1420.6</ele>
        <time>2026-05-06T14:13:17.000Z</time>
      </trkpt>
      <trkpt lat="41.794887" lon="22.981095">
        <ele>1420.3</ele>
        <time>2026-05-06T14:13:18.000Z</time>
      </trkpt>
      <trkpt lat="41.794889" lon="22.981111">
        <ele>1420.3</ele>
        <time>2026-05-06T14:13:19.000Z</time>
      </trkpt>
      <trkpt lat="41.794892" lon="22.981126">
        <ele>1420.3</ele>
        <time>2026-05-06T14:13:20.000Z</time>
      </trkpt>
      <trkpt lat="41.794895" lon="22.98114">
        <ele>1420.3</ele>
        <time>2026-05-06T14:13:21.000Z</time>
      </trkpt>
      <trkpt lat="41.794898" lon="22.981154">
        <ele>1420.3</ele>
        <time>2026-05-06T14:13:22.000Z</time>
      </trkpt>
      <trkpt lat="41.7949" lon="22.981168">
        <ele>1420.1</ele>
        <time>2026-05-06T14:13:23.000Z</time>
      </trkpt>
      <trkpt lat="41.794902" lon="22.981182">
        <ele>1420.1</ele>
        <time>2026-05-06T14:13:24.000Z</time>
      </trkpt>
      <trkpt lat="41.794903" lon="22.981198">
        <ele>1420.1</ele>
        <time>2026-05-06T14:13:25.000Z</time>
      </trkpt>
      <trkpt lat="41.794905" lon="22.981215">
        <ele>1420.1</ele>
        <time>2026-05-06T14:13:26.000Z</time>
      </trkpt>
      <trkpt lat="41.794906" lon="22.981232">
        <ele>1420.1</ele>
        <time>2026-05-06T14:13:27.000Z</time>
      </trkpt>
      <trkpt lat="41.794909" lon="22.981248">
        <ele>1419.9</ele>
        <time>2026-05-06T14:13:28.000Z</time>
      </trkpt>
      <trkpt lat="41.794912" lon="22.981264">
        <ele>1419.9</ele>
        <time>2026-05-06T14:13:29.000Z</time>
      </trkpt>
      <trkpt lat="41.794915" lon="22.98128">
        <ele>1419.9</ele>
        <time>2026-05-06T14:13:30.000Z</time>
      </trkpt>
      <trkpt lat="41.794917" lon="22.981296">
        <ele>1419.9</ele>
        <time>2026-05-06T14:13:31.000Z</time>
      </trkpt>
      <trkpt lat="41.794919" lon="22.981311">
        <ele>1419.9</ele>
        <time>2026-05-06T14:13:32.000Z</time>
      </trkpt>
      <trkpt lat="41.794921" lon="22.981327">
        <ele>1419.3</ele>
        <time>2026-05-06T14:13:33.000Z</time>
      </trkpt>
      <trkpt lat="41.794923" lon="22.981341">
        <ele>1419.3</ele>
        <time>2026-05-06T14:13:34.000Z</time>
      </trkpt>
      <trkpt lat="41.794925" lon="22.981355">
        <ele>1419.3</ele>
        <time>2026-05-06T14:13:35.000Z</time>
      </trkpt>
      <trkpt lat="41.794927" lon="22.98137">
        <ele>1419.3</ele>
        <time>2026-05-06T14:13:36.000Z</time>
      </trkpt>
      <trkpt lat="41.79493" lon="22.981384">
        <ele>1419.3</ele>
        <time>2026-05-06T14:13:37.000Z</time>
      </trkpt>
      <trkpt lat="41.794932" lon="22.981399">
        <ele>1418.5</ele>
        <time>2026-05-06T14:13:38.000Z</time>
      </trkpt>
      <trkpt lat="41.794935" lon="22.981415">
        <ele>1418.5</ele>
        <time>2026-05-06T14:13:39.000Z</time>
      </trkpt>
      <trkpt lat="41.794937" lon="22.981433">
        <ele>1418.5</ele>
        <time>2026-05-06T14:13:40.000Z</time>
      </trkpt>
      <trkpt lat="41.794939" lon="22.98145">
        <ele>1418.5</ele>
        <time>2026-05-06T14:13:41.000Z</time>
      </trkpt>
      <trkpt lat="41.794941" lon="22.981467">
        <ele>1418.5</ele>
        <time>2026-05-06T14:13:42.000Z</time>
      </trkpt>
      <trkpt lat="41.794941" lon="22.981485">
        <ele>1418.1</ele>
        <time>2026-05-06T14:13:43.000Z</time>
      </trkpt>
      <trkpt lat="41.794941" lon="22.981501">
        <ele>1418.1</ele>
        <time>2026-05-06T14:13:44.000Z</time>
      </trkpt>
      <trkpt lat="41.794942" lon="22.981517">
        <ele>1418.1</ele>
        <time>2026-05-06T14:13:45.000Z</time>
      </trkpt>
      <trkpt lat="41.794944" lon="22.981532">
        <ele>1418.1</ele>
        <time>2026-05-06T14:13:46.000Z</time>
      </trkpt>
      <trkpt lat="41.794946" lon="22.981546">
        <ele>1418.1</ele>
        <time>2026-05-06T14:13:47.000Z</time>
      </trkpt>
      <trkpt lat="41.794951" lon="22.981561">
        <ele>1417.3</ele>
        <time>2026-05-06T14:13:48.000Z</time>
      </trkpt>
      <trkpt lat="41.794955" lon="22.981576">
        <ele>1417.3</ele>
        <time>2026-05-06T14:13:49.000Z</time>
      </trkpt>
      <trkpt lat="41.794957" lon="22.98159">
        <ele>1417.3</ele>
        <time>2026-05-06T14:13:50.000Z</time>
      </trkpt>
      <trkpt lat="41.79496" lon="22.981604">
        <ele>1417.3</ele>
        <time>2026-05-06T14:13:51.000Z</time>
      </trkpt>
      <trkpt lat="41.794962" lon="22.981618">
        <ele>1417.3</ele>
        <time>2026-05-06T14:13:52.000Z</time>
      </trkpt>
      <trkpt lat="41.794963" lon="22.981632">
        <ele>1416.4</ele>
        <time>2026-05-06T14:13:53.000Z</time>
      </trkpt>
      <trkpt lat="41.794965" lon="22.981647">
        <ele>1416.4</ele>
        <time>2026-05-06T14:13:54.000Z</time>
      </trkpt>
      <trkpt lat="41.794966" lon="22.981662">
        <ele>1416.4</ele>
        <time>2026-05-06T14:13:55.000Z</time>
      </trkpt>
      <trkpt lat="41.794966" lon="22.981678">
        <ele>1416.4</ele>
        <time>2026-05-06T14:13:56.000Z</time>
      </trkpt>
      <trkpt lat="41.794967" lon="22.981694">
        <ele>1416.4</ele>
        <time>2026-05-06T14:13:57.000Z</time>
      </trkpt>
      <trkpt lat="41.794969" lon="22.98171">
        <ele>1416</ele>
        <time>2026-05-06T14:13:58.000Z</time>
      </trkpt>
      <trkpt lat="41.794971" lon="22.981726">
        <ele>1416</ele>
        <time>2026-05-06T14:13:59.000Z</time>
      </trkpt>
      <trkpt lat="41.794973" lon="22.981742">
        <ele>1416</ele>
        <time>2026-05-06T14:14:00.000Z</time>
      </trkpt>
      <trkpt lat="41.794975" lon="22.981758">
        <ele>1416</ele>
        <time>2026-05-06T14:14:01.000Z</time>
      </trkpt>
      <trkpt lat="41.794976" lon="22.981775">
        <ele>1416</ele>
        <time>2026-05-06T14:14:02.000Z</time>
      </trkpt>
      <trkpt lat="41.794977" lon="22.981792">
        <ele>1415</ele>
        <time>2026-05-06T14:14:03.000Z</time>
      </trkpt>
      <trkpt lat="41.794976" lon="22.981808">
        <ele>1415</ele>
        <time>2026-05-06T14:14:04.000Z</time>
      </trkpt>
      <trkpt lat="41.794977" lon="22.981825">
        <ele>1415</ele>
        <time>2026-05-06T14:14:05.000Z</time>
      </trkpt>
      <trkpt lat="41.794977" lon="22.981841">
        <ele>1415</ele>
        <time>2026-05-06T14:14:06.000Z</time>
      </trkpt>
      <trkpt lat="41.794978" lon="22.981858">
        <ele>1415</ele>
        <time>2026-05-06T14:14:07.000Z</time>
      </trkpt>
      <trkpt lat="41.794979" lon="22.981875">
        <ele>1413.9</ele>
        <time>2026-05-06T14:14:08.000Z</time>
      </trkpt>
      <trkpt lat="41.794979" lon="22.981894">
        <ele>1413.9</ele>
        <time>2026-05-06T14:14:09.000Z</time>
      </trkpt>
      <trkpt lat="41.794978" lon="22.981912">
        <ele>1413.9</ele>
        <time>2026-05-06T14:14:10.000Z</time>
      </trkpt>
      <trkpt lat="41.794979" lon="22.98193">
        <ele>1413.9</ele>
        <time>2026-05-06T14:14:11.000Z</time>
      </trkpt>
      <trkpt lat="41.794978" lon="22.981948">
        <ele>1413.9</ele>
        <time>2026-05-06T14:14:12.000Z</time>
      </trkpt>
      <trkpt lat="41.794978" lon="22.981964">
        <ele>1413.2</ele>
        <time>2026-05-06T14:14:13.000Z</time>
      </trkpt>
      <trkpt lat="41.794979" lon="22.981981">
        <ele>1413.2</ele>
        <time>2026-05-06T14:14:14.000Z</time>
      </trkpt>
      <trkpt lat="41.79498" lon="22.981998">
        <ele>1413.2</ele>
        <time>2026-05-06T14:14:15.000Z</time>
      </trkpt>
      <trkpt lat="41.794979" lon="22.982015">
        <ele>1413.2</ele>
        <time>2026-05-06T14:14:16.000Z</time>
      </trkpt>
      <trkpt lat="41.794981" lon="22.982033">
        <ele>1413.2</ele>
        <time>2026-05-06T14:14:17.000Z</time>
      </trkpt>
      <trkpt lat="41.794983" lon="22.982048">
        <ele>1411.9</ele>
        <time>2026-05-06T14:14:18.000Z</time>
      </trkpt>
      <trkpt lat="41.794986" lon="22.982063">
        <ele>1411.9</ele>
        <time>2026-05-06T14:14:19.000Z</time>
      </trkpt>
      <trkpt lat="41.79499" lon="22.982077">
        <ele>1411.9</ele>
        <time>2026-05-06T14:14:20.000Z</time>
      </trkpt>
      <trkpt lat="41.794994" lon="22.982091">
        <ele>1411.9</ele>
        <time>2026-05-06T14:14:21.000Z</time>
      </trkpt>
      <trkpt lat="41.794999" lon="22.982105">
        <ele>1411.9</ele>
        <time>2026-05-06T14:14:22.000Z</time>
      </trkpt>
      <trkpt lat="41.795004" lon="22.982121">
        <ele>1410.5</ele>
        <time>2026-05-06T14:14:23.000Z</time>
      </trkpt>
      <trkpt lat="41.79501" lon="22.982137">
        <ele>1410.5</ele>
        <time>2026-05-06T14:14:24.000Z</time>
      </trkpt>
      <trkpt lat="41.795016" lon="22.982154">
        <ele>1410.5</ele>
        <time>2026-05-06T14:14:25.000Z</time>
      </trkpt>
      <trkpt lat="41.795022" lon="22.982171">
        <ele>1410.5</ele>
        <time>2026-05-06T14:14:26.000Z</time>
      </trkpt>
      <trkpt lat="41.795028" lon="22.982188">
        <ele>1410.5</ele>
        <time>2026-05-06T14:14:27.000Z</time>
      </trkpt>
      <trkpt lat="41.795032" lon="22.982204">
        <ele>1409.7</ele>
        <time>2026-05-06T14:14:28.000Z</time>
      </trkpt>
      <trkpt lat="41.795035" lon="22.982222">
        <ele>1409.7</ele>
        <time>2026-05-06T14:14:29.000Z</time>
      </trkpt>
      <trkpt lat="41.795036" lon="22.982239">
        <ele>1409.7</ele>
        <time>2026-05-06T14:14:30.000Z</time>
      </trkpt>
      <trkpt lat="41.795035" lon="22.982256">
        <ele>1409.7</ele>
        <time>2026-05-06T14:14:31.000Z</time>
      </trkpt>
      <trkpt lat="41.795035" lon="22.982272">
        <ele>1409.7</ele>
        <time>2026-05-06T14:14:32.000Z</time>
      </trkpt>
      <trkpt lat="41.795036" lon="22.982288">
        <ele>1408.1</ele>
        <time>2026-05-06T14:14:33.000Z</time>
      </trkpt>
      <trkpt lat="41.795036" lon="22.982305">
        <ele>1408.1</ele>
        <time>2026-05-06T14:14:34.000Z</time>
      </trkpt>
      <trkpt lat="41.795037" lon="22.982322">
        <ele>1408.1</ele>
        <time>2026-05-06T14:14:35.000Z</time>
      </trkpt>
      <trkpt lat="41.795039" lon="22.98234">
        <ele>1408.1</ele>
        <time>2026-05-06T14:14:36.000Z</time>
      </trkpt>
      <trkpt lat="41.795041" lon="22.982359">
        <ele>1408.1</ele>
        <time>2026-05-06T14:14:37.000Z</time>
      </trkpt>
      <trkpt lat="41.795044" lon="22.982379">
        <ele>1406.4</ele>
        <time>2026-05-06T14:14:38.000Z</time>
      </trkpt>
      <trkpt lat="41.795046" lon="22.982397">
        <ele>1406.4</ele>
        <time>2026-05-06T14:14:39.000Z</time>
      </trkpt>
      <trkpt lat="41.795047" lon="22.982415">
        <ele>1406.4</ele>
        <time>2026-05-06T14:14:40.000Z</time>
      </trkpt>
      <trkpt lat="41.795048" lon="22.982432">
        <ele>1406.4</ele>
        <time>2026-05-06T14:14:41.000Z</time>
      </trkpt>
      <trkpt lat="41.795049" lon="22.98245">
        <ele>1406.4</ele>
        <time>2026-05-06T14:14:42.000Z</time>
      </trkpt>
      <trkpt lat="41.79505" lon="22.982468">
        <ele>1405.6</ele>
        <time>2026-05-06T14:14:43.000Z</time>
      </trkpt>
      <trkpt lat="41.795052" lon="22.982487">
        <ele>1405.6</ele>
        <time>2026-05-06T14:14:44.000Z</time>
      </trkpt>
      <trkpt lat="41.795053" lon="22.982507">
        <ele>1405.6</ele>
        <time>2026-05-06T14:14:45.000Z</time>
      </trkpt>
      <trkpt lat="41.795054" lon="22.982526">
        <ele>1405.6</ele>
        <time>2026-05-06T14:14:46.000Z</time>
      </trkpt>
      <trkpt lat="41.795056" lon="22.982544">
        <ele>1405.6</ele>
        <time>2026-05-06T14:14:47.000Z</time>
      </trkpt>
      <trkpt lat="41.795057" lon="22.982561">
        <ele>1404</ele>
        <time>2026-05-06T14:14:48.000Z</time>
      </trkpt>
      <trkpt lat="41.795059" lon="22.982578">
        <ele>1404</ele>
        <time>2026-05-06T14:14:49.000Z</time>
      </trkpt>
      <trkpt lat="41.795061" lon="22.982593">
        <ele>1404</ele>
        <time>2026-05-06T14:14:50.000Z</time>
      </trkpt>
      <trkpt lat="41.795063" lon="22.982608">
        <ele>1404</ele>
        <time>2026-05-06T14:14:51.000Z</time>
      </trkpt>
      <trkpt lat="41.795064" lon="22.982623">
        <ele>1404</ele>
        <time>2026-05-06T14:14:52.000Z</time>
      </trkpt>
      <trkpt lat="41.795064" lon="22.982636">
        <ele>1402.4</ele>
        <time>2026-05-06T14:14:53.000Z</time>
      </trkpt>
      <trkpt lat="41.795062" lon="22.982646">
        <ele>1402.4</ele>
        <time>2026-05-06T14:14:54.000Z</time>
      </trkpt>
      <trkpt lat="41.795062" lon="22.982654">
        <ele>1402.4</ele>
        <time>2026-05-06T14:14:55.000Z</time>
      </trkpt>
      <trkpt lat="41.795062" lon="22.982661">
        <ele>1402.4</ele>
        <time>2026-05-06T14:14:56.000Z</time>
      </trkpt>
      <trkpt lat="41.795064" lon="22.982668">
        <ele>1402.4</ele>
        <time>2026-05-06T14:14:57.000Z</time>
      </trkpt>
      <trkpt lat="41.795068" lon="22.982679">
        <ele>1401.6</ele>
        <time>2026-05-06T14:14:58.000Z</time>
      </trkpt>
      <trkpt lat="41.795073" lon="22.982693">
        <ele>1401.6</ele>
        <time>2026-05-06T14:14:59.000Z</time>
      </trkpt>
      <trkpt lat="41.795076" lon="22.98271">
        <ele>1401.6</ele>
        <time>2026-05-06T14:15:00.000Z</time>
      </trkpt>
      <trkpt lat="41.795078" lon="22.982728">
        <ele>1401.6</ele>
        <time>2026-05-06T14:15:01.000Z</time>
      </trkpt>
      <trkpt lat="41.795079" lon="22.982746">
        <ele>1401.6</ele>
        <time>2026-05-06T14:15:02.000Z</time>
      </trkpt>
      <trkpt lat="41.795078" lon="22.982764">
        <ele>1400</ele>
        <time>2026-05-06T14:15:03.000Z</time>
      </trkpt>
      <trkpt lat="41.795077" lon="22.982783">
        <ele>1400</ele>
        <time>2026-05-06T14:15:04.000Z</time>
      </trkpt>
      <trkpt lat="41.795075" lon="22.982799">
        <ele>1400</ele>
        <time>2026-05-06T14:15:05.000Z</time>
      </trkpt>
      <trkpt lat="41.795075" lon="22.982815">
        <ele>1400</ele>
        <time>2026-05-06T14:15:06.000Z</time>
      </trkpt>
      <trkpt lat="41.795076" lon="22.982831">
        <ele>1400</ele>
        <time>2026-05-06T14:15:07.000Z</time>
      </trkpt>
      <trkpt lat="41.795077" lon="22.982847">
        <ele>1398.7</ele>
        <time>2026-05-06T14:15:08.000Z</time>
      </trkpt>
      <trkpt lat="41.795079" lon="22.982863">
        <ele>1398.7</ele>
        <time>2026-05-06T14:15:09.000Z</time>
      </trkpt>
      <trkpt lat="41.795083" lon="22.982878">
        <ele>1398.7</ele>
        <time>2026-05-06T14:15:10.000Z</time>
      </trkpt>
      <trkpt lat="41.795088" lon="22.982893">
        <ele>1398.7</ele>
        <time>2026-05-06T14:15:11.000Z</time>
      </trkpt>
      <trkpt lat="41.795093" lon="22.982907">
        <ele>1398.7</ele>
        <time>2026-05-06T14:15:12.000Z</time>
      </trkpt>
      <trkpt lat="41.7951" lon="22.982921">
        <ele>1398.1</ele>
        <time>2026-05-06T14:15:13.000Z</time>
      </trkpt>
      <trkpt lat="41.795106" lon="22.982934">
        <ele>1398.1</ele>
        <time>2026-05-06T14:15:14.000Z</time>
      </trkpt>
      <trkpt lat="41.795111" lon="22.982948">
        <ele>1398.1</ele>
        <time>2026-05-06T14:15:15.000Z</time>
      </trkpt>
      <trkpt lat="41.795117" lon="22.982962">
        <ele>1398.1</ele>
        <time>2026-05-06T14:15:16.000Z</time>
      </trkpt>
      <trkpt lat="41.795122" lon="22.982976">
        <ele>1398.1</ele>
        <time>2026-05-06T14:15:17.000Z</time>
      </trkpt>
      <trkpt lat="41.795128" lon="22.98299">
        <ele>1396.7</ele>
        <time>2026-05-06T14:15:18.000Z</time>
      </trkpt>
      <trkpt lat="41.795134" lon="22.983003">
        <ele>1396.7</ele>
        <time>2026-05-06T14:15:19.000Z</time>
      </trkpt>
      <trkpt lat="41.79514" lon="22.983016">
        <ele>1396.7</ele>
        <time>2026-05-06T14:15:20.000Z</time>
      </trkpt>
      <trkpt lat="41.795146" lon="22.983029">
        <ele>1396.7</ele>
        <time>2026-05-06T14:15:21.000Z</time>
      </trkpt>
      <trkpt lat="41.795153" lon="22.983043">
        <ele>1396.7</ele>
        <time>2026-05-06T14:15:22.000Z</time>
      </trkpt>
      <trkpt lat="41.795159" lon="22.983057">
        <ele>1395.1</ele>
        <time>2026-05-06T14:15:23.000Z</time>
      </trkpt>
      <trkpt lat="41.795166" lon="22.983072">
        <ele>1395.1</ele>
        <time>2026-05-06T14:15:24.000Z</time>
      </trkpt>
      <trkpt lat="41.795172" lon="22.983085">
        <ele>1395.1</ele>
        <time>2026-05-06T14:15:25.000Z</time>
      </trkpt>
      <trkpt lat="41.795178" lon="22.983098">
        <ele>1395.1</ele>
        <time>2026-05-06T14:15:26.000Z</time>
      </trkpt>
      <trkpt lat="41.795184" lon="22.98311">
        <ele>1395.1</ele>
        <time>2026-05-06T14:15:27.000Z</time>
      </trkpt>
      <trkpt lat="41.79519" lon="22.983121">
        <ele>1394.3</ele>
        <time>2026-05-06T14:15:28.000Z</time>
      </trkpt>
      <trkpt lat="41.795198" lon="22.983133">
        <ele>1394.3</ele>
        <time>2026-05-06T14:15:29.000Z</time>
      </trkpt>
      <trkpt lat="41.795205" lon="22.983145">
        <ele>1394.3</ele>
        <time>2026-05-06T14:15:30.000Z</time>
      </trkpt>
      <trkpt lat="41.795213" lon="22.983157">
        <ele>1394.3</ele>
        <time>2026-05-06T14:15:31.000Z</time>
      </trkpt>
      <trkpt lat="41.795222" lon="22.983168">
        <ele>1394.3</ele>
        <time>2026-05-06T14:15:32.000Z</time>
      </trkpt>
      <trkpt lat="41.79523" lon="22.983178">
        <ele>1392.5</ele>
        <time>2026-05-06T14:15:33.000Z</time>
      </trkpt>
      <trkpt lat="41.795238" lon="22.983188">
        <ele>1392.5</ele>
        <time>2026-05-06T14:15:34.000Z</time>
      </trkpt>
      <trkpt lat="41.795248" lon="22.983197">
        <ele>1392.5</ele>
        <time>2026-05-06T14:15:35.000Z</time>
      </trkpt>
      <trkpt lat="41.795257" lon="22.983207">
        <ele>1392.5</ele>
        <time>2026-05-06T14:15:36.000Z</time>
      </trkpt>
      <trkpt lat="41.795267" lon="22.983216">
        <ele>1392.5</ele>
        <time>2026-05-06T14:15:37.000Z</time>
      </trkpt>
      <trkpt lat="41.795277" lon="22.983224">
        <ele>1390.8</ele>
        <time>2026-05-06T14:15:38.000Z</time>
      </trkpt>
      <trkpt lat="41.795288" lon="22.983232">
        <ele>1390.8</ele>
        <time>2026-05-06T14:15:39.000Z</time>
      </trkpt>
      <trkpt lat="41.795299" lon="22.98324">
        <ele>1390.8</ele>
        <time>2026-05-06T14:15:40.000Z</time>
      </trkpt>
      <trkpt lat="41.795309" lon="22.983247">
        <ele>1390.8</ele>
        <time>2026-05-06T14:15:41.000Z</time>
      </trkpt>
      <trkpt lat="41.795317" lon="22.983255">
        <ele>1390.8</ele>
        <time>2026-05-06T14:15:42.000Z</time>
      </trkpt>
      <trkpt lat="41.795327" lon="22.983264">
        <ele>1389.9</ele>
        <time>2026-05-06T14:15:43.000Z</time>
      </trkpt>
      <trkpt lat="41.795337" lon="22.983274">
        <ele>1389.9</ele>
        <time>2026-05-06T14:15:44.000Z</time>
      </trkpt>
      <trkpt lat="41.795345" lon="22.983283">
        <ele>1389.9</ele>
        <time>2026-05-06T14:15:45.000Z</time>
      </trkpt>
      <trkpt lat="41.795353" lon="22.983293">
        <ele>1389.9</ele>
        <time>2026-05-06T14:15:46.000Z</time>
      </trkpt>
      <trkpt lat="41.795364" lon="22.983303">
        <ele>1389.9</ele>
        <time>2026-05-06T14:15:47.000Z</time>
      </trkpt>
      <trkpt lat="41.795375" lon="22.983312">
        <ele>1388.3</ele>
        <time>2026-05-06T14:15:48.000Z</time>
      </trkpt>
      <trkpt lat="41.795384" lon="22.983319">
        <ele>1388.3</ele>
        <time>2026-05-06T14:15:49.000Z</time>
      </trkpt>
      <trkpt lat="41.795394" lon="22.983325">
        <ele>1388.3</ele>
        <time>2026-05-06T14:15:50.000Z</time>
      </trkpt>
      <trkpt lat="41.795404" lon="22.983329">
        <ele>1388.3</ele>
        <time>2026-05-06T14:15:51.000Z</time>
      </trkpt>
      <trkpt lat="41.795414" lon="22.983334">
        <ele>1388.3</ele>
        <time>2026-05-06T14:15:52.000Z</time>
      </trkpt>
      <trkpt lat="41.795424" lon="22.983338">
        <ele>1386.7</ele>
        <time>2026-05-06T14:15:53.000Z</time>
      </trkpt>
      <trkpt lat="41.795434" lon="22.983343">
        <ele>1386.7</ele>
        <time>2026-05-06T14:15:54.000Z</time>
      </trkpt>
      <trkpt lat="41.795445" lon="22.983348">
        <ele>1386.7</ele>
        <time>2026-05-06T14:15:55.000Z</time>
      </trkpt>
      <trkpt lat="41.795455" lon="22.983354">
        <ele>1386.7</ele>
        <time>2026-05-06T14:15:56.000Z</time>
      </trkpt>
      <trkpt lat="41.795466" lon="22.98336">
        <ele>1386.7</ele>
        <time>2026-05-06T14:15:57.000Z</time>
      </trkpt>
      <trkpt lat="41.795476" lon="22.983368">
        <ele>1386</ele>
        <time>2026-05-06T14:15:58.000Z</time>
      </trkpt>
      <trkpt lat="41.795488" lon="22.983376">
        <ele>1386</ele>
        <time>2026-05-06T14:15:59.000Z</time>
      </trkpt>
      <trkpt lat="41.795499" lon="22.983384">
        <ele>1386</ele>
        <time>2026-05-06T14:16:00.000Z</time>
      </trkpt>
      <trkpt lat="41.795508" lon="22.983392">
        <ele>1386</ele>
        <time>2026-05-06T14:16:01.000Z</time>
      </trkpt>
      <trkpt lat="41.795517" lon="22.983401">
        <ele>1386</ele>
        <time>2026-05-06T14:16:02.000Z</time>
      </trkpt>
      <trkpt lat="41.795525" lon="22.98341">
        <ele>1384.2</ele>
        <time>2026-05-06T14:16:03.000Z</time>
      </trkpt>
      <trkpt lat="41.795533" lon="22.983419">
        <ele>1384.2</ele>
        <time>2026-05-06T14:16:04.000Z</time>
      </trkpt>
      <trkpt lat="41.795541" lon="22.983431">
        <ele>1384.2</ele>
        <time>2026-05-06T14:16:05.000Z</time>
      </trkpt>
      <trkpt lat="41.795549" lon="22.983443">
        <ele>1384.2</ele>
        <time>2026-05-06T14:16:06.000Z</time>
      </trkpt>
      <trkpt lat="41.795558" lon="22.983456">
        <ele>1384.2</ele>
        <time>2026-05-06T14:16:07.000Z</time>
      </trkpt>
      <trkpt lat="41.795568" lon="22.983468">
        <ele>1382.4</ele>
        <time>2026-05-06T14:16:08.000Z</time>
      </trkpt>
      <trkpt lat="41.795577" lon="22.983481">
        <ele>1382.4</ele>
        <time>2026-05-06T14:16:09.000Z</time>
      </trkpt>
      <trkpt lat="41.795588" lon="22.983492">
        <ele>1382.4</ele>
        <time>2026-05-06T14:16:10.000Z</time>
      </trkpt>
      <trkpt lat="41.795599" lon="22.983501">
        <ele>1382.4</ele>
        <time>2026-05-06T14:16:11.000Z</time>
      </trkpt>
      <trkpt lat="41.795611" lon="22.983512">
        <ele>1382.4</ele>
        <time>2026-05-06T14:16:12.000Z</time>
      </trkpt>
      <trkpt lat="41.795622" lon="22.983524">
        <ele>1381.5</ele>
        <time>2026-05-06T14:16:13.000Z</time>
      </trkpt>
      <trkpt lat="41.795633" lon="22.983536">
        <ele>1381.5</ele>
        <time>2026-05-06T14:16:14.000Z</time>
      </trkpt>
      <trkpt lat="41.795644" lon="22.983548">
        <ele>1381.5</ele>
        <time>2026-05-06T14:16:15.000Z</time>
      </trkpt>
      <trkpt lat="41.795655" lon="22.983561">
        <ele>1381.5</ele>
        <time>2026-05-06T14:16:16.000Z</time>
      </trkpt>
      <trkpt lat="41.795664" lon="22.983573">
        <ele>1381.5</ele>
        <time>2026-05-06T14:16:17.000Z</time>
      </trkpt>
      <trkpt lat="41.795674" lon="22.983584">
        <ele>1379.8</ele>
        <time>2026-05-06T14:16:18.000Z</time>
      </trkpt>
      <trkpt lat="41.795684" lon="22.983596">
        <ele>1379.8</ele>
        <time>2026-05-06T14:16:19.000Z</time>
      </trkpt>
      <trkpt lat="41.795695" lon="22.983608">
        <ele>1379.8</ele>
        <time>2026-05-06T14:16:20.000Z</time>
      </trkpt>
      <trkpt lat="41.795706" lon="22.983621">
        <ele>1379.8</ele>
        <time>2026-05-06T14:16:21.000Z</time>
      </trkpt>
      <trkpt lat="41.795717" lon="22.983634">
        <ele>1379.8</ele>
        <time>2026-05-06T14:16:22.000Z</time>
      </trkpt>
      <trkpt lat="41.795726" lon="22.983648">
        <ele>1378.4</ele>
        <time>2026-05-06T14:16:23.000Z</time>
      </trkpt>
      <trkpt lat="41.795734" lon="22.983662">
        <ele>1378.4</ele>
        <time>2026-05-06T14:16:24.000Z</time>
      </trkpt>
      <trkpt lat="41.795741" lon="22.983676">
        <ele>1378.4</ele>
        <time>2026-05-06T14:16:25.000Z</time>
      </trkpt>
      <trkpt lat="41.795748" lon="22.98369">
        <ele>1378.4</ele>
        <time>2026-05-06T14:16:26.000Z</time>
      </trkpt>
      <trkpt lat="41.795755" lon="22.983704">
        <ele>1378.4</ele>
        <time>2026-05-06T14:16:27.000Z</time>
      </trkpt>
      <trkpt lat="41.795763" lon="22.983719">
        <ele>1377.8</ele>
        <time>2026-05-06T14:16:28.000Z</time>
      </trkpt>
      <trkpt lat="41.795771" lon="22.983734">
        <ele>1377.8</ele>
        <time>2026-05-06T14:16:29.000Z</time>
      </trkpt>
      <trkpt lat="41.795778" lon="22.98375">
        <ele>1377.8</ele>
        <time>2026-05-06T14:16:30.000Z</time>
      </trkpt>
      <trkpt lat="41.795786" lon="22.983765">
        <ele>1377.8</ele>
        <time>2026-05-06T14:16:31.000Z</time>
      </trkpt>
      <trkpt lat="41.795793" lon="22.98378">
        <ele>1377.8</ele>
        <time>2026-05-06T14:16:32.000Z</time>
      </trkpt>
      <trkpt lat="41.795799" lon="22.983795">
        <ele>1377</ele>
        <time>2026-05-06T14:16:33.000Z</time>
      </trkpt>
      <trkpt lat="41.795805" lon="22.983809">
        <ele>1377</ele>
        <time>2026-05-06T14:16:34.000Z</time>
      </trkpt>
      <trkpt lat="41.795811" lon="22.983822">
        <ele>1377</ele>
        <time>2026-05-06T14:16:35.000Z</time>
      </trkpt>
      <trkpt lat="41.795817" lon="22.983837">
        <ele>1377</ele>
        <time>2026-05-06T14:16:36.000Z</time>
      </trkpt>
      <trkpt lat="41.795821" lon="22.983853">
        <ele>1377</ele>
        <time>2026-05-06T14:16:37.000Z</time>
      </trkpt>
      <trkpt lat="41.795827" lon="22.98387">
        <ele>1376.1</ele>
        <time>2026-05-06T14:16:38.000Z</time>
      </trkpt>
      <trkpt lat="41.795832" lon="22.983888">
        <ele>1376.1</ele>
        <time>2026-05-06T14:16:39.000Z</time>
      </trkpt>
      <trkpt lat="41.795838" lon="22.983907">
        <ele>1376.1</ele>
        <time>2026-05-06T14:16:40.000Z</time>
      </trkpt>
      <trkpt lat="41.795843" lon="22.983926">
        <ele>1376.1</ele>
        <time>2026-05-06T14:16:41.000Z</time>
      </trkpt>
      <trkpt lat="41.79585" lon="22.983943">
        <ele>1376.1</ele>
        <time>2026-05-06T14:16:42.000Z</time>
      </trkpt>
      <trkpt lat="41.795856" lon="22.983959">
        <ele>1375.6</ele>
        <time>2026-05-06T14:16:43.000Z</time>
      </trkpt>
      <trkpt lat="41.795861" lon="22.983976">
        <ele>1375.6</ele>
        <time>2026-05-06T14:16:44.000Z</time>
      </trkpt>
      <trkpt lat="41.795865" lon="22.983992">
        <ele>1375.6</ele>
        <time>2026-05-06T14:16:45.000Z</time>
      </trkpt>
      <trkpt lat="41.795869" lon="22.984009">
        <ele>1375.6</ele>
        <time>2026-05-06T14:16:46.000Z</time>
      </trkpt>
      <trkpt lat="41.795871" lon="22.984025">
        <ele>1375.6</ele>
        <time>2026-05-06T14:16:47.000Z</time>
      </trkpt>
      <trkpt lat="41.795874" lon="22.984041">
        <ele>1374.2</ele>
        <time>2026-05-06T14:16:48.000Z</time>
      </trkpt>
      <trkpt lat="41.795876" lon="22.984057">
        <ele>1374.2</ele>
        <time>2026-05-06T14:16:49.000Z</time>
      </trkpt>
      <trkpt lat="41.795879" lon="22.984073">
        <ele>1374.2</ele>
        <time>2026-05-06T14:16:50.000Z</time>
      </trkpt>
      <trkpt lat="41.795879" lon="22.984088">
        <ele>1374.2</ele>
        <time>2026-05-06T14:16:51.000Z</time>
      </trkpt>
      <trkpt lat="41.795879" lon="22.984104">
        <ele>1374.2</ele>
        <time>2026-05-06T14:16:52.000Z</time>
      </trkpt>
      <trkpt lat="41.795878" lon="22.98412">
        <ele>1372.8</ele>
        <time>2026-05-06T14:16:53.000Z</time>
      </trkpt>
      <trkpt lat="41.795877" lon="22.984135">
        <ele>1372.8</ele>
        <time>2026-05-06T14:16:54.000Z</time>
      </trkpt>
      <trkpt lat="41.795877" lon="22.984148">
        <ele>1372.8</ele>
        <time>2026-05-06T14:16:55.000Z</time>
      </trkpt>
      <trkpt lat="41.795879" lon="22.984161">
        <ele>1372.8</ele>
        <time>2026-05-06T14:16:56.000Z</time>
      </trkpt>
      <trkpt lat="41.795882" lon="22.984173">
        <ele>1372.8</ele>
        <time>2026-05-06T14:16:57.000Z</time>
      </trkpt>
      <trkpt lat="41.795885" lon="22.984185">
        <ele>1372.1</ele>
        <time>2026-05-06T14:16:58.000Z</time>
      </trkpt>
      <trkpt lat="41.795887" lon="22.984197">
        <ele>1372.1</ele>
        <time>2026-05-06T14:16:59.000Z</time>
      </trkpt>
      <trkpt lat="41.795889" lon="22.984211">
        <ele>1372.1</ele>
        <time>2026-05-06T14:17:00.000Z</time>
      </trkpt>
      <trkpt lat="41.795892" lon="22.984226">
        <ele>1372.1</ele>
        <time>2026-05-06T14:17:01.000Z</time>
      </trkpt>
      <trkpt lat="41.795895" lon="22.984241">
        <ele>1372.1</ele>
        <time>2026-05-06T14:17:02.000Z</time>
      </trkpt>
      <trkpt lat="41.7959" lon="22.984256">
        <ele>1370.7</ele>
        <time>2026-05-06T14:17:03.000Z</time>
      </trkpt>
      <trkpt lat="41.795905" lon="22.984272">
        <ele>1370.7</ele>
        <time>2026-05-06T14:17:04.000Z</time>
      </trkpt>
      <trkpt lat="41.79591" lon="22.984288">
        <ele>1370.7</ele>
        <time>2026-05-06T14:17:05.000Z</time>
      </trkpt>
      <trkpt lat="41.795914" lon="22.984305">
        <ele>1370.7</ele>
        <time>2026-05-06T14:17:06.000Z</time>
      </trkpt>
      <trkpt lat="41.795917" lon="22.984322">
        <ele>1370.7</ele>
        <time>2026-05-06T14:17:07.000Z</time>
      </trkpt>
      <trkpt lat="41.795919" lon="22.984339">
        <ele>1369.4</ele>
        <time>2026-05-06T14:17:08.000Z</time>
      </trkpt>
      <trkpt lat="41.79592" lon="22.984356">
        <ele>1369.4</ele>
        <time>2026-05-06T14:17:09.000Z</time>
      </trkpt>
      <trkpt lat="41.795921" lon="22.984372">
        <ele>1369.4</ele>
        <time>2026-05-06T14:17:10.000Z</time>
      </trkpt>
      <trkpt lat="41.795922" lon="22.984384">
        <ele>1369.4</ele>
        <time>2026-05-06T14:17:11.000Z</time>
      </trkpt>
      <trkpt lat="41.795923" lon="22.984392">
        <ele>1369.4</ele>
        <time>2026-05-06T14:17:12.000Z</time>
      </trkpt>
      <trkpt lat="41.795923" lon="22.984398">
        <ele>1368.8</ele>
        <time>2026-05-06T14:17:13.000Z</time>
      </trkpt>
      <trkpt lat="41.795922" lon="22.9844">
        <ele>1368.8</ele>
        <time>2026-05-06T14:17:14.000Z</time>
      </trkpt>
      <trkpt lat="41.79592" lon="22.9844">
        <ele>1368.8</ele>
        <time>2026-05-06T14:17:15.000Z</time>
      </trkpt>
      <trkpt lat="41.79592" lon="22.984399">
        <ele>1368.8</ele>
        <time>2026-05-06T14:17:16.000Z</time>
      </trkpt>
      <trkpt lat="41.79592" lon="22.984398">
        <ele>1368.8</ele>
        <time>2026-05-06T14:17:17.000Z</time>
      </trkpt>
      <trkpt lat="41.79592" lon="22.984398">
        <ele>1367.5</ele>
        <time>2026-05-06T14:17:18.000Z</time>
      </trkpt>
      <trkpt lat="41.79592" lon="22.984398">
        <ele>1367.5</ele>
        <time>2026-05-06T14:17:19.000Z</time>
      </trkpt>
      <trkpt lat="41.79592" lon="22.984398">
        <ele>1367.5</ele>
        <time>2026-05-06T14:17:20.000Z</time>
      </trkpt>
      <trkpt lat="41.79592" lon="22.984398">
        <ele>1367.5</ele>
        <time>2026-05-06T14:17:21.000Z</time>
      </trkpt>
      <trkpt lat="41.79592" lon="22.984398">
        <ele>1367.5</ele>
        <time>2026-05-06T14:17:22.000Z</time>
      </trkpt>
      <trkpt lat="41.79592" lon="22.984398">
        <ele>1366.7</ele>
        <time>2026-05-06T14:17:23.000Z</time>
      </trkpt>
      <trkpt lat="41.795919" lon="22.984398">
        <ele>1366.7</ele>
        <time>2026-05-06T14:17:24.000Z</time>
      </trkpt>
      <trkpt lat="41.795919" lon="22.984398">
        <ele>1366.7</ele>
        <time>2026-05-06T14:17:25.000Z</time>
      </trkpt>
      <trkpt lat="41.795919" lon="22.984398">
        <ele>1366.7</ele>
        <time>2026-05-06T14:17:26.000Z</time>
      </trkpt>
      <trkpt lat="41.79592" lon="22.984399">
        <ele>1366.7</ele>
        <time>2026-05-06T14:17:27.000Z</time>
      </trkpt>
      <trkpt lat="41.795921" lon="22.984399">
        <ele>1366.5</ele>
        <time>2026-05-06T14:17:28.000Z</time>
      </trkpt>
      <trkpt lat="41.795922" lon="22.984399">
        <ele>1366.5</ele>
        <time>2026-05-06T14:17:29.000Z</time>
      </trkpt>
      <trkpt lat="41.795922" lon="22.984399">
        <ele>1366.5</ele>
        <time>2026-05-06T14:17:30.000Z</time>
      </trkpt>
      <trkpt lat="41.795922" lon="22.9844">
        <ele>1366.5</ele>
        <time>2026-05-06T14:17:31.000Z</time>
      </trkpt>
      <trkpt lat="41.795921" lon="22.984401">
        <ele>1366.5</ele>
        <time>2026-05-06T14:17:32.000Z</time>
      </trkpt>
      <trkpt lat="41.79592" lon="22.984404">
        <ele>1366.5</ele>
        <time>2026-05-06T14:17:33.000Z</time>
      </trkpt>
      <trkpt lat="41.795918" lon="22.984407">
        <ele>1366.5</ele>
        <time>2026-05-06T14:17:34.000Z</time>
      </trkpt>
      <trkpt lat="41.795916" lon="22.984412">
        <ele>1366.5</ele>
        <time>2026-05-06T14:17:35.000Z</time>
      </trkpt>
      <trkpt lat="41.795917" lon="22.984417">
        <ele>1366.5</ele>
        <time>2026-05-06T14:17:36.000Z</time>
      </trkpt>
      <trkpt lat="41.795918" lon="22.984423">
        <ele>1366.5</ele>
        <time>2026-05-06T14:17:37.000Z</time>
      </trkpt>
      <trkpt lat="41.79592" lon="22.984429">
        <ele>1366.6</ele>
        <time>2026-05-06T14:17:38.000Z</time>
      </trkpt>
      <trkpt lat="41.795923" lon="22.984435">
        <ele>1366.6</ele>
        <time>2026-05-06T14:17:39.000Z</time>
      </trkpt>
      <trkpt lat="41.795926" lon="22.984439">
        <ele>1366.6</ele>
        <time>2026-05-06T14:17:40.000Z</time>
      </trkpt>
      <trkpt lat="41.795929" lon="22.984441">
        <ele>1366.6</ele>
        <time>2026-05-06T14:17:41.000Z</time>
      </trkpt>
      <trkpt lat="41.79593" lon="22.984443">
        <ele>1366.6</ele>
        <time>2026-05-06T14:17:42.000Z</time>
      </trkpt>
      <trkpt lat="41.795931" lon="22.984442">
        <ele>1366.6</ele>
        <time>2026-05-06T14:17:43.000Z</time>
      </trkpt>
      <trkpt lat="41.795932" lon="22.984442">
        <ele>1366.6</ele>
        <time>2026-05-06T14:17:44.000Z</time>
      </trkpt>
      <trkpt lat="41.795932" lon="22.984443">
        <ele>1366.6</ele>
        <time>2026-05-06T14:17:45.000Z</time>
      </trkpt>
      <trkpt lat="41.795931" lon="22.984446">
        <ele>1366.6</ele>
        <time>2026-05-06T14:17:46.000Z</time>
      </trkpt>
      <trkpt lat="41.795928" lon="22.98445">
        <ele>1366.6</ele>
        <time>2026-05-06T14:17:47.000Z</time>
      </trkpt>
      <trkpt lat="41.795924" lon="22.984456">
        <ele>1366.4</ele>
        <time>2026-05-06T14:17:48.000Z</time>
      </trkpt>
      <trkpt lat="41.795919" lon="22.984463">
        <ele>1366.4</ele>
        <time>2026-05-06T14:17:49.000Z</time>
      </trkpt>
      <trkpt lat="41.795914" lon="22.984471">
        <ele>1366.4</ele>
        <time>2026-05-06T14:17:50.000Z</time>
      </trkpt>
      <trkpt lat="41.795908" lon="22.984479">
        <ele>1366.4</ele>
        <time>2026-05-06T14:17:51.000Z</time>
      </trkpt>
      <trkpt lat="41.795902" lon="22.984488">
        <ele>1366.4</ele>
        <time>2026-05-06T14:17:52.000Z</time>
      </trkpt>
      <trkpt lat="41.795897" lon="22.984498">
        <ele>1366</ele>
        <time>2026-05-06T14:17:53.000Z</time>
      </trkpt>
      <trkpt lat="41.795891" lon="22.984509">
        <ele>1366</ele>
        <time>2026-05-06T14:17:54.000Z</time>
      </trkpt>
      <trkpt lat="41.795887" lon="22.984519">
        <ele>1366</ele>
        <time>2026-05-06T14:17:55.000Z</time>
      </trkpt>
      <trkpt lat="41.795883" lon="22.984527">
        <ele>1366</ele>
        <time>2026-05-06T14:17:56.000Z</time>
      </trkpt>
      <trkpt lat="41.795881" lon="22.984532">
        <ele>1366</ele>
        <time>2026-05-06T14:17:57.000Z</time>
      </trkpt>
      <trkpt lat="41.79588" lon="22.984535">
        <ele>1365.7</ele>
        <time>2026-05-06T14:17:58.000Z</time>
      </trkpt>
      <trkpt lat="41.795879" lon="22.984537">
        <ele>1365.7</ele>
        <time>2026-05-06T14:17:59.000Z</time>
      </trkpt>
      <trkpt lat="41.795879" lon="22.984538">
        <ele>1365.7</ele>
        <time>2026-05-06T14:18:00.000Z</time>
      </trkpt>
      <trkpt lat="41.795878" lon="22.984539">
        <ele>1365.7</ele>
        <time>2026-05-06T14:18:01.000Z</time>
      </trkpt>
      <trkpt lat="41.795877" lon="22.98454">
        <ele>1365.7</ele>
        <time>2026-05-06T14:18:02.000Z</time>
      </trkpt>
      <trkpt lat="41.795877" lon="22.984542">
        <ele>1365</ele>
        <time>2026-05-06T14:18:03.000Z</time>
      </trkpt>
      <trkpt lat="41.795877" lon="22.984543">
        <ele>1365</ele>
        <time>2026-05-06T14:18:04.000Z</time>
      </trkpt>
      <trkpt lat="41.795876" lon="22.984544">
        <ele>1365</ele>
        <time>2026-05-06T14:18:05.000Z</time>
      </trkpt>
      <trkpt lat="41.795876" lon="22.984545">
        <ele>1365</ele>
        <time>2026-05-06T14:18:06.000Z</time>
      </trkpt>
      <trkpt lat="41.795876" lon="22.984546">
        <ele>1365</ele>
        <time>2026-05-06T14:18:07.000Z</time>
      </trkpt>
      <trkpt lat="41.795876" lon="22.984548">
        <ele>1364.3</ele>
        <time>2026-05-06T14:18:08.000Z</time>
      </trkpt>
      <trkpt lat="41.795874" lon="22.984553">
        <ele>1364.3</ele>
        <time>2026-05-06T14:18:09.000Z</time>
      </trkpt>
      <trkpt lat="41.795874" lon="22.984554">
        <ele>1364.3</ele>
        <time>2026-05-06T14:18:10.000Z</time>
      </trkpt>
      <trkpt lat="41.795872" lon="22.984556">
        <ele>1364.3</ele>
        <time>2026-05-06T14:18:11.000Z</time>
      </trkpt>
      <trkpt lat="41.79587" lon="22.984562">
        <ele>1364.3</ele>
        <time>2026-05-06T14:18:12.000Z</time>
      </trkpt>
      <trkpt lat="41.795866" lon="22.984569">
        <ele>1364</ele>
        <time>2026-05-06T14:18:13.000Z</time>
      </trkpt>
      <trkpt lat="41.79586" lon="22.984578">
        <ele>1364</ele>
        <time>2026-05-06T14:18:14.000Z</time>
      </trkpt>
      <trkpt lat="41.795851" lon="22.984592">
        <ele>1364</ele>
        <time>2026-05-06T14:18:15.000Z</time>
      </trkpt>
      <trkpt lat="41.795842" lon="22.984608">
        <ele>1364</ele>
        <time>2026-05-06T14:18:16.000Z</time>
      </trkpt>
      <trkpt lat="41.795832" lon="22.984621">
        <ele>1364</ele>
        <time>2026-05-06T14:18:17.000Z</time>
      </trkpt>
      <trkpt lat="41.795822" lon="22.984633">
        <ele>1363.7</ele>
        <time>2026-05-06T14:18:18.000Z</time>
      </trkpt>
      <trkpt lat="41.795813" lon="22.984644">
        <ele>1363.7</ele>
        <time>2026-05-06T14:18:19.000Z</time>
      </trkpt>
      <trkpt lat="41.795803" lon="22.984655">
        <ele>1363.7</ele>
        <time>2026-05-06T14:18:20.000Z</time>
      </trkpt>
      <trkpt lat="41.795793" lon="22.984664">
        <ele>1363.7</ele>
        <time>2026-05-06T14:18:21.000Z</time>
      </trkpt>
      <trkpt lat="41.795784" lon="22.984674">
        <ele>1363.7</ele>
        <time>2026-05-06T14:18:22.000Z</time>
      </trkpt>
      <trkpt lat="41.795776" lon="22.984683">
        <ele>1363.2</ele>
        <time>2026-05-06T14:18:23.000Z</time>
      </trkpt>
      <trkpt lat="41.795769" lon="22.984693">
        <ele>1363.2</ele>
        <time>2026-05-06T14:18:24.000Z</time>
      </trkpt>
      <trkpt lat="41.795762" lon="22.984702">
        <ele>1363.2</ele>
        <time>2026-05-06T14:18:25.000Z</time>
      </trkpt>
      <trkpt lat="41.795757" lon="22.984712">
        <ele>1363.2</ele>
        <time>2026-05-06T14:18:26.000Z</time>
      </trkpt>
      <trkpt lat="41.795753" lon="22.984721">
        <ele>1363.2</ele>
        <time>2026-05-06T14:18:27.000Z</time>
      </trkpt>
      <trkpt lat="41.795748" lon="22.984732">
        <ele>1362.7</ele>
        <time>2026-05-06T14:18:28.000Z</time>
      </trkpt>
      <trkpt lat="41.795741" lon="22.984741">
        <ele>1362.7</ele>
        <time>2026-05-06T14:18:29.000Z</time>
      </trkpt>
      <trkpt lat="41.795733" lon="22.984751">
        <ele>1362.7</ele>
        <time>2026-05-06T14:18:30.000Z</time>
      </trkpt>
      <trkpt lat="41.795724" lon="22.984759">
        <ele>1362.7</ele>
        <time>2026-05-06T14:18:31.000Z</time>
      </trkpt>
      <trkpt lat="41.795714" lon="22.984767">
        <ele>1362.7</ele>
        <time>2026-05-06T14:18:32.000Z</time>
      </trkpt>
      <trkpt lat="41.795704" lon="22.984775">
        <ele>1361.4</ele>
        <time>2026-05-06T14:18:33.000Z</time>
      </trkpt>
      <trkpt lat="41.795696" lon="22.984785">
        <ele>1361.4</ele>
        <time>2026-05-06T14:18:34.000Z</time>
      </trkpt>
      <trkpt lat="41.795688" lon="22.984794">
        <ele>1361.4</ele>
        <time>2026-05-06T14:18:35.000Z</time>
      </trkpt>
      <trkpt lat="41.795681" lon="22.984804">
        <ele>1361.4</ele>
        <time>2026-05-06T14:18:36.000Z</time>
      </trkpt>
      <trkpt lat="41.795674" lon="22.984814">
        <ele>1361.4</ele>
        <time>2026-05-06T14:18:37.000Z</time>
      </trkpt>
      <trkpt lat="41.795667" lon="22.984821">
        <ele>1360.2</ele>
        <time>2026-05-06T14:18:38.000Z</time>
      </trkpt>
      <trkpt lat="41.795659" lon="22.984829">
        <ele>1360.2</ele>
        <time>2026-05-06T14:18:39.000Z</time>
      </trkpt>
      <trkpt lat="41.795651" lon="22.984838">
        <ele>1360.2</ele>
        <time>2026-05-06T14:18:40.000Z</time>
      </trkpt>
      <trkpt lat="41.795642" lon="22.984846">
        <ele>1360.2</ele>
        <time>2026-05-06T14:18:41.000Z</time>
      </trkpt>
      <trkpt lat="41.795631" lon="22.984854">
        <ele>1360.2</ele>
        <time>2026-05-06T14:18:42.000Z</time>
      </trkpt>
      <trkpt lat="41.795618" lon="22.984863">
        <ele>1359.7</ele>
        <time>2026-05-06T14:18:43.000Z</time>
      </trkpt>
      <trkpt lat="41.795606" lon="22.984871">
        <ele>1359.7</ele>
        <time>2026-05-06T14:18:44.000Z</time>
      </trkpt>
      <trkpt lat="41.795596" lon="22.984877">
        <ele>1359.7</ele>
        <time>2026-05-06T14:18:45.000Z</time>
      </trkpt>
      <trkpt lat="41.795586" lon="22.984883">
        <ele>1359.7</ele>
        <time>2026-05-06T14:18:46.000Z</time>
      </trkpt>
      <trkpt lat="41.795576" lon="22.98489">
        <ele>1359.7</ele>
        <time>2026-05-06T14:18:47.000Z</time>
      </trkpt>
      <trkpt lat="41.795566" lon="22.984895">
        <ele>1359</ele>
        <time>2026-05-06T14:18:48.000Z</time>
      </trkpt>
      <trkpt lat="41.795553" lon="22.984898">
        <ele>1359</ele>
        <time>2026-05-06T14:18:49.000Z</time>
      </trkpt>
      <trkpt lat="41.79554" lon="22.984901">
        <ele>1359</ele>
        <time>2026-05-06T14:18:50.000Z</time>
      </trkpt>
      <trkpt lat="41.795526" lon="22.984902">
        <ele>1359</ele>
        <time>2026-05-06T14:18:51.000Z</time>
      </trkpt>
      <trkpt lat="41.795514" lon="22.984903">
        <ele>1359</ele>
        <time>2026-05-06T14:18:52.000Z</time>
      </trkpt>
      <trkpt lat="41.795502" lon="22.984904">
        <ele>1358.6</ele>
        <time>2026-05-06T14:18:53.000Z</time>
      </trkpt>
      <trkpt lat="41.795491" lon="22.984905">
        <ele>1358.6</ele>
        <time>2026-05-06T14:18:54.000Z</time>
      </trkpt>
      <trkpt lat="41.79548" lon="22.984908">
        <ele>1358.6</ele>
        <time>2026-05-06T14:18:55.000Z</time>
      </trkpt>
      <trkpt lat="41.795469" lon="22.984911">
        <ele>1358.6</ele>
        <time>2026-05-06T14:18:56.000Z</time>
      </trkpt>
      <trkpt lat="41.795458" lon="22.984913">
        <ele>1358.6</ele>
        <time>2026-05-06T14:18:57.000Z</time>
      </trkpt>
      <trkpt lat="41.795448" lon="22.984915">
        <ele>1358.4</ele>
        <time>2026-05-06T14:18:58.000Z</time>
      </trkpt>
      <trkpt lat="41.795439" lon="22.984916">
        <ele>1358.4</ele>
        <time>2026-05-06T14:18:59.000Z</time>
      </trkpt>
      <trkpt lat="41.79543" lon="22.984918">
        <ele>1358.4</ele>
        <time>2026-05-06T14:19:00.000Z</time>
      </trkpt>
      <trkpt lat="41.79542" lon="22.98492">
        <ele>1358.4</ele>
        <time>2026-05-06T14:19:01.000Z</time>
      </trkpt>
      <trkpt lat="41.79541" lon="22.984922">
        <ele>1358.4</ele>
        <time>2026-05-06T14:19:02.000Z</time>
      </trkpt>
      <trkpt lat="41.795399" lon="22.984925">
        <ele>1358.2</ele>
        <time>2026-05-06T14:19:03.000Z</time>
      </trkpt>
      <trkpt lat="41.795388" lon="22.984927">
        <ele>1358.2</ele>
        <time>2026-05-06T14:19:04.000Z</time>
      </trkpt>
      <trkpt lat="41.795378" lon="22.98493">
        <ele>1358.2</ele>
        <time>2026-05-06T14:19:05.000Z</time>
      </trkpt>
      <trkpt lat="41.795367" lon="22.984933">
        <ele>1358.2</ele>
        <time>2026-05-06T14:19:06.000Z</time>
      </trkpt>
      <trkpt lat="41.795356" lon="22.984937">
        <ele>1358.2</ele>
        <time>2026-05-06T14:19:07.000Z</time>
      </trkpt>
      <trkpt lat="41.795345" lon="22.98494">
        <ele>1358.3</ele>
        <time>2026-05-06T14:19:08.000Z</time>
      </trkpt>
      <trkpt lat="41.795333" lon="22.984945">
        <ele>1358.3</ele>
        <time>2026-05-06T14:19:09.000Z</time>
      </trkpt>
      <trkpt lat="41.795321" lon="22.984948">
        <ele>1358.3</ele>
        <time>2026-05-06T14:19:10.000Z</time>
      </trkpt>
      <trkpt lat="41.795309" lon="22.984951">
        <ele>1358.3</ele>
        <time>2026-05-06T14:19:11.000Z</time>
      </trkpt>
      <trkpt lat="41.795296" lon="22.984955">
        <ele>1358.3</ele>
        <time>2026-05-06T14:19:12.000Z</time>
      </trkpt>
      <trkpt lat="41.795284" lon="22.984958">
        <ele>1358.3</ele>
        <time>2026-05-06T14:19:13.000Z</time>
      </trkpt>
      <trkpt lat="41.795273" lon="22.984961">
        <ele>1358.3</ele>
        <time>2026-05-06T14:19:14.000Z</time>
      </trkpt>
      <trkpt lat="41.795261" lon="22.984964">
        <ele>1358.3</ele>
        <time>2026-05-06T14:19:15.000Z</time>
      </trkpt>
      <trkpt lat="41.79525" lon="22.984967">
        <ele>1358.3</ele>
        <time>2026-05-06T14:19:16.000Z</time>
      </trkpt>
      <trkpt lat="41.79524" lon="22.984968">
        <ele>1358.3</ele>
        <time>2026-05-06T14:19:17.000Z</time>
      </trkpt>
      <trkpt lat="41.79523" lon="22.984969">
        <ele>1358.2</ele>
        <time>2026-05-06T14:19:18.000Z</time>
      </trkpt>
      <trkpt lat="41.795223" lon="22.984968">
        <ele>1358.2</ele>
        <time>2026-05-06T14:19:19.000Z</time>
      </trkpt>
      <trkpt lat="41.795217" lon="22.984967">
        <ele>1358.2</ele>
        <time>2026-05-06T14:19:20.000Z</time>
      </trkpt>
      <trkpt lat="41.795213" lon="22.984966">
        <ele>1358.2</ele>
        <time>2026-05-06T14:19:21.000Z</time>
      </trkpt>
      <trkpt lat="41.795212" lon="22.984965">
        <ele>1358.2</ele>
        <time>2026-05-06T14:19:22.000Z</time>
      </trkpt>
      <trkpt lat="41.795212" lon="22.984965">
        <ele>1357.8</ele>
        <time>2026-05-06T14:19:23.000Z</time>
      </trkpt>
      <trkpt lat="41.795212" lon="22.984965">
        <ele>1357.8</ele>
        <time>2026-05-06T14:19:24.000Z</time>
      </trkpt>
      <trkpt lat="41.795212" lon="22.984964">
        <ele>1357.8</ele>
        <time>2026-05-06T14:19:25.000Z</time>
      </trkpt>
      <trkpt lat="41.795212" lon="22.984964">
        <ele>1357.8</ele>
        <time>2026-05-06T14:19:26.000Z</time>
      </trkpt>
      <trkpt lat="41.795212" lon="22.984965">
        <ele>1357.8</ele>
        <time>2026-05-06T14:19:27.000Z</time>
      </trkpt>
      <trkpt lat="41.795212" lon="22.984965">
        <ele>1357.5</ele>
        <time>2026-05-06T14:19:28.000Z</time>
      </trkpt>
      <trkpt lat="41.795212" lon="22.984963">
        <ele>1357.5</ele>
        <time>2026-05-06T14:19:29.000Z</time>
      </trkpt>
      <trkpt lat="41.79521" lon="22.984962">
        <ele>1357.5</ele>
        <time>2026-05-06T14:19:30.000Z</time>
      </trkpt>
      <trkpt lat="41.795204" lon="22.984962">
        <ele>1357.5</ele>
        <time>2026-05-06T14:19:31.000Z</time>
      </trkpt>
      <trkpt lat="41.795197" lon="22.984961">
        <ele>1357.5</ele>
        <time>2026-05-06T14:19:32.000Z</time>
      </trkpt>
      <trkpt lat="41.795187" lon="22.984961">
        <ele>1356.8</ele>
        <time>2026-05-06T14:19:33.000Z</time>
      </trkpt>
      <trkpt lat="41.795175" lon="22.984961">
        <ele>1356.8</ele>
        <time>2026-05-06T14:19:34.000Z</time>
      </trkpt>
      <trkpt lat="41.795163" lon="22.98496">
        <ele>1356.8</ele>
        <time>2026-05-06T14:19:35.000Z</time>
      </trkpt>
      <trkpt lat="41.795153" lon="22.984958">
        <ele>1356.8</ele>
        <time>2026-05-06T14:19:36.000Z</time>
      </trkpt>
      <trkpt lat="41.795142" lon="22.984956">
        <ele>1356.8</ele>
        <time>2026-05-06T14:19:37.000Z</time>
      </trkpt>
      <trkpt lat="41.795131" lon="22.984955">
        <ele>1356.7</ele>
        <time>2026-05-06T14:19:38.000Z</time>
      </trkpt>
      <trkpt lat="41.795121" lon="22.984955">
        <ele>1356.7</ele>
        <time>2026-05-06T14:19:39.000Z</time>
      </trkpt>
      <trkpt lat="41.795112" lon="22.984959">
        <ele>1356.7</ele>
        <time>2026-05-06T14:19:40.000Z</time>
      </trkpt>
      <trkpt lat="41.795103" lon="22.984965">
        <ele>1356.7</ele>
        <time>2026-05-06T14:19:41.000Z</time>
      </trkpt>
      <trkpt lat="41.795093" lon="22.98497">
        <ele>1356.7</ele>
        <time>2026-05-06T14:19:42.000Z</time>
      </trkpt>
      <trkpt lat="41.795083" lon="22.984975">
        <ele>1356.7</ele>
        <time>2026-05-06T14:19:43.000Z</time>
      </trkpt>
      <trkpt lat="41.795072" lon="22.98498">
        <ele>1356.7</ele>
        <time>2026-05-06T14:19:44.000Z</time>
      </trkpt>
      <trkpt lat="41.795059" lon="22.984983">
        <ele>1356.7</ele>
        <time>2026-05-06T14:19:45.000Z</time>
      </trkpt>
      <trkpt lat="41.795047" lon="22.984986">
        <ele>1356.7</ele>
        <time>2026-05-06T14:19:46.000Z</time>
      </trkpt>
      <trkpt lat="41.795034" lon="22.984991">
        <ele>1356.7</ele>
        <time>2026-05-06T14:19:47.000Z</time>
      </trkpt>
      <trkpt lat="41.795021" lon="22.984998">
        <ele>1356.5</ele>
        <time>2026-05-06T14:19:48.000Z</time>
      </trkpt>
      <trkpt lat="41.795008" lon="22.985006">
        <ele>1356.5</ele>
        <time>2026-05-06T14:19:49.000Z</time>
      </trkpt>
      <trkpt lat="41.794996" lon="22.985014">
        <ele>1356.5</ele>
        <time>2026-05-06T14:19:50.000Z</time>
      </trkpt>
      <trkpt lat="41.794984" lon="22.985023">
        <ele>1356.5</ele>
        <time>2026-05-06T14:19:51.000Z</time>
      </trkpt>
      <trkpt lat="41.794973" lon="22.985033">
        <ele>1356.5</ele>
        <time>2026-05-06T14:19:52.000Z</time>
      </trkpt>
      <trkpt lat="41.794964" lon="22.985043">
        <ele>1355.6</ele>
        <time>2026-05-06T14:19:53.000Z</time>
      </trkpt>
      <trkpt lat="41.794955" lon="22.985054">
        <ele>1355.6</ele>
        <time>2026-05-06T14:19:54.000Z</time>
      </trkpt>
      <trkpt lat="41.794945" lon="22.985067">
        <ele>1355.6</ele>
        <time>2026-05-06T14:19:55.000Z</time>
      </trkpt>
      <trkpt lat="41.794937" lon="22.985081">
        <ele>1355.6</ele>
        <time>2026-05-06T14:19:56.000Z</time>
      </trkpt>
      <trkpt lat="41.794928" lon="22.985094">
        <ele>1355.6</ele>
        <time>2026-05-06T14:19:57.000Z</time>
      </trkpt>
      <trkpt lat="41.794919" lon="22.985108">
        <ele>1355</ele>
        <time>2026-05-06T14:19:58.000Z</time>
      </trkpt>
      <trkpt lat="41.79491" lon="22.985122">
        <ele>1355</ele>
        <time>2026-05-06T14:19:59.000Z</time>
      </trkpt>
      <trkpt lat="41.794902" lon="22.985136">
        <ele>1355</ele>
        <time>2026-05-06T14:20:00.000Z</time>
      </trkpt>
      <trkpt lat="41.794894" lon="22.98515">
        <ele>1355</ele>
        <time>2026-05-06T14:20:01.000Z</time>
      </trkpt>
      <trkpt lat="41.794886" lon="22.985162">
        <ele>1355</ele>
        <time>2026-05-06T14:20:02.000Z</time>
      </trkpt>
      <trkpt lat="41.794878" lon="22.985175">
        <ele>1353.8</ele>
        <time>2026-05-06T14:20:03.000Z</time>
      </trkpt>
      <trkpt lat="41.79487" lon="22.985189">
        <ele>1353.8</ele>
        <time>2026-05-06T14:20:04.000Z</time>
      </trkpt>
      <trkpt lat="41.794862" lon="22.985203">
        <ele>1353.8</ele>
        <time>2026-05-06T14:20:05.000Z</time>
      </trkpt>
      <trkpt lat="41.794853" lon="22.985216">
        <ele>1353.8</ele>
        <time>2026-05-06T14:20:06.000Z</time>
      </trkpt>
      <trkpt lat="41.794844" lon="22.98523">
        <ele>1353.8</ele>
        <time>2026-05-06T14:20:07.000Z</time>
      </trkpt>
      <trkpt lat="41.794835" lon="22.985243">
        <ele>1352.7</ele>
        <time>2026-05-06T14:20:08.000Z</time>
      </trkpt>
      <trkpt lat="41.794826" lon="22.985255">
        <ele>1352.7</ele>
        <time>2026-05-06T14:20:09.000Z</time>
      </trkpt>
      <trkpt lat="41.794817" lon="22.985266">
        <ele>1352.7</ele>
        <time>2026-05-06T14:20:10.000Z</time>
      </trkpt>
      <trkpt lat="41.794808" lon="22.985278">
        <ele>1352.7</ele>
        <time>2026-05-06T14:20:11.000Z</time>
      </trkpt>
      <trkpt lat="41.794799" lon="22.985291">
        <ele>1352.7</ele>
        <time>2026-05-06T14:20:12.000Z</time>
      </trkpt>
      <trkpt lat="41.794789" lon="22.985304">
        <ele>1352.1</ele>
        <time>2026-05-06T14:20:13.000Z</time>
      </trkpt>
      <trkpt lat="41.794779" lon="22.985316">
        <ele>1352.1</ele>
        <time>2026-05-06T14:20:14.000Z</time>
      </trkpt>
      <trkpt lat="41.794769" lon="22.985329">
        <ele>1352.1</ele>
        <time>2026-05-06T14:20:15.000Z</time>
      </trkpt>
      <trkpt lat="41.794758" lon="22.985341">
        <ele>1352.1</ele>
        <time>2026-05-06T14:20:16.000Z</time>
      </trkpt>
      <trkpt lat="41.794748" lon="22.985351">
        <ele>1352.1</ele>
        <time>2026-05-06T14:20:17.000Z</time>
      </trkpt>
      <trkpt lat="41.794737" lon="22.98536">
        <ele>1351.1</ele>
        <time>2026-05-06T14:20:18.000Z</time>
      </trkpt>
      <trkpt lat="41.794725" lon="22.985369">
        <ele>1351.1</ele>
        <time>2026-05-06T14:20:19.000Z</time>
      </trkpt>
      <trkpt lat="41.794713" lon="22.985378">
        <ele>1351.1</ele>
        <time>2026-05-06T14:20:20.000Z</time>
      </trkpt>
      <trkpt lat="41.794699" lon="22.985386">
        <ele>1351.1</ele>
        <time>2026-05-06T14:20:21.000Z</time>
      </trkpt>
      <trkpt lat="41.794686" lon="22.985394">
        <ele>1351.1</ele>
        <time>2026-05-06T14:20:22.000Z</time>
      </trkpt>
      <trkpt lat="41.794672" lon="22.985401">
        <ele>1350.1</ele>
        <time>2026-05-06T14:20:23.000Z</time>
      </trkpt>
      <trkpt lat="41.794658" lon="22.985405">
        <ele>1350.1</ele>
        <time>2026-05-06T14:20:24.000Z</time>
      </trkpt>
      <trkpt lat="41.794645" lon="22.985408">
        <ele>1350.1</ele>
        <time>2026-05-06T14:20:25.000Z</time>
      </trkpt>
      <trkpt lat="41.794632" lon="22.985411">
        <ele>1350.1</ele>
        <time>2026-05-06T14:20:26.000Z</time>
      </trkpt>
      <trkpt lat="41.794619" lon="22.985412">
        <ele>1350.1</ele>
        <time>2026-05-06T14:20:27.000Z</time>
      </trkpt>
      <trkpt lat="41.794608" lon="22.985414">
        <ele>1349.6</ele>
        <time>2026-05-06T14:20:28.000Z</time>
      </trkpt>
      <trkpt lat="41.794597" lon="22.985416">
        <ele>1349.6</ele>
        <time>2026-05-06T14:20:29.000Z</time>
      </trkpt>
      <trkpt lat="41.794587" lon="22.985418">
        <ele>1349.6</ele>
        <time>2026-05-06T14:20:30.000Z</time>
      </trkpt>
      <trkpt lat="41.794577" lon="22.985419">
        <ele>1349.6</ele>
        <time>2026-05-06T14:20:31.000Z</time>
      </trkpt>
      <trkpt lat="41.794566" lon="22.98542">
        <ele>1349.6</ele>
        <time>2026-05-06T14:20:32.000Z</time>
      </trkpt>
      <trkpt lat="41.794555" lon="22.985421">
        <ele>1348.6</ele>
        <time>2026-05-06T14:20:33.000Z</time>
      </trkpt>
      <trkpt lat="41.794545" lon="22.985421">
        <ele>1348.6</ele>
        <time>2026-05-06T14:20:34.000Z</time>
      </trkpt>
      <trkpt lat="41.794533" lon="22.98542">
        <ele>1348.6</ele>
        <time>2026-05-06T14:20:35.000Z</time>
      </trkpt>
      <trkpt lat="41.794524" lon="22.985419">
        <ele>1348.6</ele>
        <time>2026-05-06T14:20:36.000Z</time>
      </trkpt>
      <trkpt lat="41.794514" lon="22.985416">
        <ele>1348.6</ele>
        <time>2026-05-06T14:20:37.000Z</time>
      </trkpt>
      <trkpt lat="41.794505" lon="22.985414">
        <ele>1347.1</ele>
        <time>2026-05-06T14:20:38.000Z</time>
      </trkpt>
      <trkpt lat="41.794495" lon="22.985413">
        <ele>1347.1</ele>
        <time>2026-05-06T14:20:39.000Z</time>
      </trkpt>
      <trkpt lat="41.794483" lon="22.985411">
        <ele>1347.1</ele>
        <time>2026-05-06T14:20:40.000Z</time>
      </trkpt>
      <trkpt lat="41.794471" lon="22.985408">
        <ele>1347.1</ele>
        <time>2026-05-06T14:20:41.000Z</time>
      </trkpt>
      <trkpt lat="41.794458" lon="22.985405">
        <ele>1347.1</ele>
        <time>2026-05-06T14:20:42.000Z</time>
      </trkpt>
      <trkpt lat="41.794446" lon="22.9854">
        <ele>1346.2</ele>
        <time>2026-05-06T14:20:43.000Z</time>
      </trkpt>
      <trkpt lat="41.794433" lon="22.985394">
        <ele>1346.2</ele>
        <time>2026-05-06T14:20:44.000Z</time>
      </trkpt>
      <trkpt lat="41.794423" lon="22.985389">
        <ele>1346.2</ele>
        <time>2026-05-06T14:20:45.000Z</time>
      </trkpt>
      <trkpt lat="41.794412" lon="22.985382">
        <ele>1346.2</ele>
        <time>2026-05-06T14:20:46.000Z</time>
      </trkpt>
      <trkpt lat="41.794403" lon="22.985374">
        <ele>1346.2</ele>
        <time>2026-05-06T14:20:47.000Z</time>
      </trkpt>
      <trkpt lat="41.794393" lon="22.985367">
        <ele>1344.3</ele>
        <time>2026-05-06T14:20:48.000Z</time>
      </trkpt>
      <trkpt lat="41.794384" lon="22.985359">
        <ele>1344.3</ele>
        <time>2026-05-06T14:20:49.000Z</time>
      </trkpt>
      <trkpt lat="41.794376" lon="22.98535">
        <ele>1344.3</ele>
        <time>2026-05-06T14:20:50.000Z</time>
      </trkpt>
      <trkpt lat="41.794366" lon="22.985342">
        <ele>1344.3</ele>
        <time>2026-05-06T14:20:51.000Z</time>
      </trkpt>
      <trkpt lat="41.794356" lon="22.985334">
        <ele>1344.3</ele>
        <time>2026-05-06T14:20:52.000Z</time>
      </trkpt>
      <trkpt lat="41.794345" lon="22.985325">
        <ele>1342.6</ele>
        <time>2026-05-06T14:20:53.000Z</time>
      </trkpt>
      <trkpt lat="41.794335" lon="22.985315">
        <ele>1342.6</ele>
        <time>2026-05-06T14:20:54.000Z</time>
      </trkpt>
      <trkpt lat="41.794326" lon="22.985307">
        <ele>1342.6</ele>
        <time>2026-05-06T14:20:55.000Z</time>
      </trkpt>
      <trkpt lat="41.794317" lon="22.985298">
        <ele>1342.6</ele>
        <time>2026-05-06T14:20:56.000Z</time>
      </trkpt>
      <trkpt lat="41.794309" lon="22.98529">
        <ele>1342.6</ele>
        <time>2026-05-06T14:20:57.000Z</time>
      </trkpt>
      <trkpt lat="41.794301" lon="22.985283">
        <ele>1341.9</ele>
        <time>2026-05-06T14:20:58.000Z</time>
      </trkpt>
      <trkpt lat="41.794293" lon="22.985277">
        <ele>1341.9</ele>
        <time>2026-05-06T14:20:59.000Z</time>
      </trkpt>
      <trkpt lat="41.794285" lon="22.98527">
        <ele>1341.9</ele>
        <time>2026-05-06T14:21:00.000Z</time>
      </trkpt>
      <trkpt lat="41.794276" lon="22.985262">
        <ele>1341.9</ele>
        <time>2026-05-06T14:21:01.000Z</time>
      </trkpt>
      <trkpt lat="41.794268" lon="22.985253">
        <ele>1341.9</ele>
        <time>2026-05-06T14:21:02.000Z</time>
      </trkpt>
      <trkpt lat="41.794259" lon="22.985244">
        <ele>1340.7</ele>
        <time>2026-05-06T14:21:03.000Z</time>
      </trkpt>
      <trkpt lat="41.79425" lon="22.985234">
        <ele>1340.7</ele>
        <time>2026-05-06T14:21:04.000Z</time>
      </trkpt>
      <trkpt lat="41.794242" lon="22.985224">
        <ele>1340.7</ele>
        <time>2026-05-06T14:21:05.000Z</time>
      </trkpt>
      <trkpt lat="41.794234" lon="22.985214">
        <ele>1340.7</ele>
        <time>2026-05-06T14:21:06.000Z</time>
      </trkpt>
      <trkpt lat="41.794226" lon="22.985207">
        <ele>1340.7</ele>
        <time>2026-05-06T14:21:07.000Z</time>
      </trkpt>
      <trkpt lat="41.794219" lon="22.9852">
        <ele>1339.5</ele>
        <time>2026-05-06T14:21:08.000Z</time>
      </trkpt>
      <trkpt lat="41.794211" lon="22.985193">
        <ele>1339.5</ele>
        <time>2026-05-06T14:21:09.000Z</time>
      </trkpt>
      <trkpt lat="41.794202" lon="22.985186">
        <ele>1339.5</ele>
        <time>2026-05-06T14:21:10.000Z</time>
      </trkpt>
      <trkpt lat="41.794191" lon="22.985181">
        <ele>1339.5</ele>
        <time>2026-05-06T14:21:11.000Z</time>
      </trkpt>
      <trkpt lat="41.794178" lon="22.985174">
        <ele>1339.5</ele>
        <time>2026-05-06T14:21:12.000Z</time>
      </trkpt>
      <trkpt lat="41.794165" lon="22.985166">
        <ele>1338.9</ele>
        <time>2026-05-06T14:21:13.000Z</time>
      </trkpt>
      <trkpt lat="41.794151" lon="22.985158">
        <ele>1338.9</ele>
        <time>2026-05-06T14:21:14.000Z</time>
      </trkpt>
      <trkpt lat="41.794137" lon="22.98515">
        <ele>1338.9</ele>
        <time>2026-05-06T14:21:15.000Z</time>
      </trkpt>
      <trkpt lat="41.794123" lon="22.985143">
        <ele>1338.9</ele>
        <time>2026-05-06T14:21:16.000Z</time>
      </trkpt>
      <trkpt lat="41.794109" lon="22.985136">
        <ele>1338.9</ele>
        <time>2026-05-06T14:21:17.000Z</time>
      </trkpt>
      <trkpt lat="41.794096" lon="22.985129">
        <ele>1337.5</ele>
        <time>2026-05-06T14:21:18.000Z</time>
      </trkpt>
      <trkpt lat="41.794084" lon="22.985122">
        <ele>1337.5</ele>
        <time>2026-05-06T14:21:19.000Z</time>
      </trkpt>
      <trkpt lat="41.794072" lon="22.985115">
        <ele>1337.5</ele>
        <time>2026-05-06T14:21:20.000Z</time>
      </trkpt>
      <trkpt lat="41.794061" lon="22.985108">
        <ele>1337.5</ele>
        <time>2026-05-06T14:21:21.000Z</time>
      </trkpt>
      <trkpt lat="41.794051" lon="22.9851">
        <ele>1337.5</ele>
        <time>2026-05-06T14:21:22.000Z</time>
      </trkpt>
      <trkpt lat="41.794041" lon="22.985095">
        <ele>1336.3</ele>
        <time>2026-05-06T14:21:23.000Z</time>
      </trkpt>
      <trkpt lat="41.794031" lon="22.98509">
        <ele>1336.3</ele>
        <time>2026-05-06T14:21:24.000Z</time>
      </trkpt>
      <trkpt lat="41.794021" lon="22.985086">
        <ele>1336.3</ele>
        <time>2026-05-06T14:21:25.000Z</time>
      </trkpt>
      <trkpt lat="41.79401" lon="22.98508">
        <ele>1336.3</ele>
        <time>2026-05-06T14:21:26.000Z</time>
      </trkpt>
      <trkpt lat="41.793999" lon="22.985075">
        <ele>1336.3</ele>
        <time>2026-05-06T14:21:27.000Z</time>
      </trkpt>
      <trkpt lat="41.793987" lon="22.985068">
        <ele>1335.6</ele>
        <time>2026-05-06T14:21:28.000Z</time>
      </trkpt>
      <trkpt lat="41.793976" lon="22.985061">
        <ele>1335.6</ele>
        <time>2026-05-06T14:21:29.000Z</time>
      </trkpt>
      <trkpt lat="41.793965" lon="22.985053">
        <ele>1335.6</ele>
        <time>2026-05-06T14:21:30.000Z</time>
      </trkpt>
      <trkpt lat="41.793954" lon="22.985046">
        <ele>1335.6</ele>
        <time>2026-05-06T14:21:31.000Z</time>
      </trkpt>
      <trkpt lat="41.793944" lon="22.98504">
        <ele>1335.6</ele>
        <time>2026-05-06T14:21:32.000Z</time>
      </trkpt>
      <trkpt lat="41.793934" lon="22.985034">
        <ele>1334.4</ele>
        <time>2026-05-06T14:21:33.000Z</time>
      </trkpt>
      <trkpt lat="41.793924" lon="22.985028">
        <ele>1334.4</ele>
        <time>2026-05-06T14:21:34.000Z</time>
      </trkpt>
      <trkpt lat="41.793913" lon="22.985023">
        <ele>1334.4</ele>
        <time>2026-05-06T14:21:35.000Z</time>
      </trkpt>
      <trkpt lat="41.793903" lon="22.985017">
        <ele>1334.4</ele>
        <time>2026-05-06T14:21:36.000Z</time>
      </trkpt>
      <trkpt lat="41.793893" lon="22.985011">
        <ele>1334.4</ele>
        <time>2026-05-06T14:21:37.000Z</time>
      </trkpt>
      <trkpt lat="41.793882" lon="22.985005">
        <ele>1333.2</ele>
        <time>2026-05-06T14:21:38.000Z</time>
      </trkpt>
      <trkpt lat="41.793874" lon="22.985001">
        <ele>1333.2</ele>
        <time>2026-05-06T14:21:39.000Z</time>
      </trkpt>
      <trkpt lat="41.793866" lon="22.984997">
        <ele>1333.2</ele>
        <time>2026-05-06T14:21:40.000Z</time>
      </trkpt>
      <trkpt lat="41.793858" lon="22.984994">
        <ele>1333.2</ele>
        <time>2026-05-06T14:21:41.000Z</time>
      </trkpt>
      <trkpt lat="41.79385" lon="22.984992">
        <ele>1333.2</ele>
        <time>2026-05-06T14:21:42.000Z</time>
      </trkpt>
      <trkpt lat="41.793842" lon="22.984989">
        <ele>1332.7</ele>
        <time>2026-05-06T14:21:43.000Z</time>
      </trkpt>
      <trkpt lat="41.793834" lon="22.984984">
        <ele>1332.7</ele>
        <time>2026-05-06T14:21:44.000Z</time>
      </trkpt>
      <trkpt lat="41.793825" lon="22.984981">
        <ele>1332.7</ele>
        <time>2026-05-06T14:21:45.000Z</time>
      </trkpt>
      <trkpt lat="41.793816" lon="22.984977">
        <ele>1332.7</ele>
        <time>2026-05-06T14:21:46.000Z</time>
      </trkpt>
      <trkpt lat="41.793807" lon="22.984973">
        <ele>1332.7</ele>
        <time>2026-05-06T14:21:47.000Z</time>
      </trkpt>
      <trkpt lat="41.793799" lon="22.984971">
        <ele>1331.7</ele>
        <time>2026-05-06T14:21:48.000Z</time>
      </trkpt>
      <trkpt lat="41.79379" lon="22.984969">
        <ele>1331.7</ele>
        <time>2026-05-06T14:21:49.000Z</time>
      </trkpt>
      <trkpt lat="41.793782" lon="22.984966">
        <ele>1331.7</ele>
        <time>2026-05-06T14:21:50.000Z</time>
      </trkpt>
      <trkpt lat="41.793775" lon="22.984964">
        <ele>1331.7</ele>
        <time>2026-05-06T14:21:51.000Z</time>
      </trkpt>
      <trkpt lat="41.793768" lon="22.984962">
        <ele>1331.7</ele>
        <time>2026-05-06T14:21:52.000Z</time>
      </trkpt>
      <trkpt lat="41.79376" lon="22.984959">
        <ele>1330.9</ele>
        <time>2026-05-06T14:21:53.000Z</time>
      </trkpt>
      <trkpt lat="41.793752" lon="22.984955">
        <ele>1330.9</ele>
        <time>2026-05-06T14:21:54.000Z</time>
      </trkpt>
      <trkpt lat="41.793744" lon="22.984951">
        <ele>1330.9</ele>
        <time>2026-05-06T14:21:55.000Z</time>
      </trkpt>
      <trkpt lat="41.793736" lon="22.984947">
        <ele>1330.9</ele>
        <time>2026-05-06T14:21:56.000Z</time>
      </trkpt>
      <trkpt lat="41.793725" lon="22.98494">
        <ele>1330.9</ele>
        <time>2026-05-06T14:21:57.000Z</time>
      </trkpt>
      <trkpt lat="41.793714" lon="22.984934">
        <ele>1330.4</ele>
        <time>2026-05-06T14:21:58.000Z</time>
      </trkpt>
      <trkpt lat="41.793701" lon="22.984929">
        <ele>1330.4</ele>
        <time>2026-05-06T14:21:59.000Z</time>
      </trkpt>
      <trkpt lat="41.793686" lon="22.984926">
        <ele>1330.4</ele>
        <time>2026-05-06T14:22:00.000Z</time>
      </trkpt>
      <trkpt lat="41.793669" lon="22.984924">
        <ele>1330.4</ele>
        <time>2026-05-06T14:22:01.000Z</time>
      </trkpt>
      <trkpt lat="41.793652" lon="22.984924">
        <ele>1330.4</ele>
        <time>2026-05-06T14:22:02.000Z</time>
      </trkpt>
      <trkpt lat="41.793635" lon="22.984924">
        <ele>1329.5</ele>
        <time>2026-05-06T14:22:03.000Z</time>
      </trkpt>
      <trkpt lat="41.79362" lon="22.984924">
        <ele>1329.5</ele>
        <time>2026-05-06T14:22:04.000Z</time>
      </trkpt>
      <trkpt lat="41.793606" lon="22.984923">
        <ele>1329.5</ele>
        <time>2026-05-06T14:22:05.000Z</time>
      </trkpt>
      <trkpt lat="41.793594" lon="22.984922">
        <ele>1329.5</ele>
        <time>2026-05-06T14:22:06.000Z</time>
      </trkpt>
      <trkpt lat="41.793582" lon="22.984922">
        <ele>1329.5</ele>
        <time>2026-05-06T14:22:07.000Z</time>
      </trkpt>
      <trkpt lat="41.793569" lon="22.984922">
        <ele>1328.8</ele>
        <time>2026-05-06T14:22:08.000Z</time>
      </trkpt>
      <trkpt lat="41.793556" lon="22.984922">
        <ele>1328.8</ele>
        <time>2026-05-06T14:22:09.000Z</time>
      </trkpt>
      <trkpt lat="41.793541" lon="22.98492">
        <ele>1328.8</ele>
        <time>2026-05-06T14:22:10.000Z</time>
      </trkpt>
      <trkpt lat="41.793526" lon="22.984919">
        <ele>1328.8</ele>
        <time>2026-05-06T14:22:11.000Z</time>
      </trkpt>
      <trkpt lat="41.79351" lon="22.984916">
        <ele>1328.8</ele>
        <time>2026-05-06T14:22:12.000Z</time>
      </trkpt>
      <trkpt lat="41.793494" lon="22.984914">
        <ele>1328.5</ele>
        <time>2026-05-06T14:22:13.000Z</time>
      </trkpt>
      <trkpt lat="41.793478" lon="22.984911">
        <ele>1328.5</ele>
        <time>2026-05-06T14:22:14.000Z</time>
      </trkpt>
      <trkpt lat="41.793462" lon="22.984909">
        <ele>1328.5</ele>
        <time>2026-05-06T14:22:15.000Z</time>
      </trkpt>
      <trkpt lat="41.793446" lon="22.984906">
        <ele>1328.5</ele>
        <time>2026-05-06T14:22:16.000Z</time>
      </trkpt>
      <trkpt lat="41.793432" lon="22.984903">
        <ele>1328.5</ele>
        <time>2026-05-06T14:22:17.000Z</time>
      </trkpt>
      <trkpt lat="41.793419" lon="22.9849">
        <ele>1328</ele>
        <time>2026-05-06T14:22:18.000Z</time>
      </trkpt>
      <trkpt lat="41.793406" lon="22.984897">
        <ele>1328</ele>
        <time>2026-05-06T14:22:19.000Z</time>
      </trkpt>
      <trkpt lat="41.793392" lon="22.984895">
        <ele>1328</ele>
        <time>2026-05-06T14:22:20.000Z</time>
      </trkpt>
      <trkpt lat="41.793379" lon="22.984893">
        <ele>1328</ele>
        <time>2026-05-06T14:22:21.000Z</time>
      </trkpt>
      <trkpt lat="41.793366" lon="22.984891">
        <ele>1328</ele>
        <time>2026-05-06T14:22:22.000Z</time>
      </trkpt>
      <trkpt lat="41.793354" lon="22.984888">
        <ele>1327.6</ele>
        <time>2026-05-06T14:22:23.000Z</time>
      </trkpt>
      <trkpt lat="41.793342" lon="22.984884">
        <ele>1327.6</ele>
        <time>2026-05-06T14:22:24.000Z</time>
      </trkpt>
      <trkpt lat="41.79333" lon="22.984881">
        <ele>1327.6</ele>
        <time>2026-05-06T14:22:25.000Z</time>
      </trkpt>
      <trkpt lat="41.793319" lon="22.984876">
        <ele>1327.6</ele>
        <time>2026-05-06T14:22:26.000Z</time>
      </trkpt>
      <trkpt lat="41.793307" lon="22.984871">
        <ele>1327.6</ele>
        <time>2026-05-06T14:22:27.000Z</time>
      </trkpt>
      <trkpt lat="41.793295" lon="22.984866">
        <ele>1327.5</ele>
        <time>2026-05-06T14:22:28.000Z</time>
      </trkpt>
      <trkpt lat="41.793282" lon="22.984863">
        <ele>1327.5</ele>
        <time>2026-05-06T14:22:29.000Z</time>
      </trkpt>
      <trkpt lat="41.793271" lon="22.984859">
        <ele>1327.5</ele>
        <time>2026-05-06T14:22:30.000Z</time>
      </trkpt>
      <trkpt lat="41.79326" lon="22.984856">
        <ele>1327.5</ele>
        <time>2026-05-06T14:22:31.000Z</time>
      </trkpt>
      <trkpt lat="41.793249" lon="22.984854">
        <ele>1327.5</ele>
        <time>2026-05-06T14:22:32.000Z</time>
      </trkpt>
      <trkpt lat="41.793237" lon="22.98485">
        <ele>1327.5</ele>
        <time>2026-05-06T14:22:33.000Z</time>
      </trkpt>
      <trkpt lat="41.793225" lon="22.984847">
        <ele>1327.5</ele>
        <time>2026-05-06T14:22:34.000Z</time>
      </trkpt>
      <trkpt lat="41.793213" lon="22.984843">
        <ele>1327.5</ele>
        <time>2026-05-06T14:22:35.000Z</time>
      </trkpt>
      <trkpt lat="41.793199" lon="22.98484">
        <ele>1327.5</ele>
        <time>2026-05-06T14:22:36.000Z</time>
      </trkpt>
      <trkpt lat="41.793186" lon="22.984837">
        <ele>1327.5</ele>
        <time>2026-05-06T14:22:37.000Z</time>
      </trkpt>
      <trkpt lat="41.793173" lon="22.984834">
        <ele>1327.5</ele>
        <time>2026-05-06T14:22:38.000Z</time>
      </trkpt>
      <trkpt lat="41.793161" lon="22.984831">
        <ele>1327.5</ele>
        <time>2026-05-06T14:22:39.000Z</time>
      </trkpt>
      <trkpt lat="41.793149" lon="22.984829">
        <ele>1327.5</ele>
        <time>2026-05-06T14:22:40.000Z</time>
      </trkpt>
      <trkpt lat="41.793138" lon="22.984825">
        <ele>1327.5</ele>
        <time>2026-05-06T14:22:41.000Z</time>
      </trkpt>
      <trkpt lat="41.793128" lon="22.984821">
        <ele>1327.5</ele>
        <time>2026-05-06T14:22:42.000Z</time>
      </trkpt>
      <trkpt lat="41.793117" lon="22.984816">
        <ele>1327.5</ele>
        <time>2026-05-06T14:22:43.000Z</time>
      </trkpt>
      <trkpt lat="41.793105" lon="22.984812">
        <ele>1327.5</ele>
        <time>2026-05-06T14:22:44.000Z</time>
      </trkpt>
      <trkpt lat="41.793093" lon="22.984806">
        <ele>1327.5</ele>
        <time>2026-05-06T14:22:45.000Z</time>
      </trkpt>
      <trkpt lat="41.79308" lon="22.984802">
        <ele>1327.5</ele>
        <time>2026-05-06T14:22:46.000Z</time>
      </trkpt>
      <trkpt lat="41.793067" lon="22.984798">
        <ele>1327.5</ele>
        <time>2026-05-06T14:22:47.000Z</time>
      </trkpt>
      <trkpt lat="41.793055" lon="22.984794">
        <ele>1327.3</ele>
        <time>2026-05-06T14:22:48.000Z</time>
      </trkpt>
      <trkpt lat="41.793043" lon="22.984789">
        <ele>1327.3</ele>
        <time>2026-05-06T14:22:49.000Z</time>
      </trkpt>
      <trkpt lat="41.793034" lon="22.984784">
        <ele>1327.3</ele>
        <time>2026-05-06T14:22:50.000Z</time>
      </trkpt>
      <trkpt lat="41.793024" lon="22.984779">
        <ele>1327.3</ele>
        <time>2026-05-06T14:22:51.000Z</time>
      </trkpt>
      <trkpt lat="41.793015" lon="22.984773">
        <ele>1327.3</ele>
        <time>2026-05-06T14:22:52.000Z</time>
      </trkpt>
      <trkpt lat="41.793005" lon="22.984769">
        <ele>1326.9</ele>
        <time>2026-05-06T14:22:53.000Z</time>
      </trkpt>
      <trkpt lat="41.792996" lon="22.984764">
        <ele>1326.9</ele>
        <time>2026-05-06T14:22:54.000Z</time>
      </trkpt>
      <trkpt lat="41.792985" lon="22.984757">
        <ele>1326.9</ele>
        <time>2026-05-06T14:22:55.000Z</time>
      </trkpt>
      <trkpt lat="41.792976" lon="22.984749">
        <ele>1326.9</ele>
        <time>2026-05-06T14:22:56.000Z</time>
      </trkpt>
      <trkpt lat="41.792966" lon="22.98474">
        <ele>1326.9</ele>
        <time>2026-05-06T14:22:57.000Z</time>
      </trkpt>
      <trkpt lat="41.792957" lon="22.98473">
        <ele>1326.6</ele>
        <time>2026-05-06T14:22:58.000Z</time>
      </trkpt>
      <trkpt lat="41.792948" lon="22.98472">
        <ele>1326.6</ele>
        <time>2026-05-06T14:22:59.000Z</time>
      </trkpt>
      <trkpt lat="41.792939" lon="22.984713">
        <ele>1326.6</ele>
        <time>2026-05-06T14:23:00.000Z</time>
      </trkpt>
      <trkpt lat="41.792931" lon="22.984706">
        <ele>1326.6</ele>
        <time>2026-05-06T14:23:01.000Z</time>
      </trkpt>
      <trkpt lat="41.792923" lon="22.984701">
        <ele>1326.6</ele>
        <time>2026-05-06T14:23:02.000Z</time>
      </trkpt>
      <trkpt lat="41.792916" lon="22.984694">
        <ele>1325.8</ele>
        <time>2026-05-06T14:23:03.000Z</time>
      </trkpt>
      <trkpt lat="41.792909" lon="22.984688">
        <ele>1325.8</ele>
        <time>2026-05-06T14:23:04.000Z</time>
      </trkpt>
      <trkpt lat="41.792904" lon="22.984681">
        <ele>1325.8</ele>
        <time>2026-05-06T14:23:05.000Z</time>
      </trkpt>
      <trkpt lat="41.792899" lon="22.984674">
        <ele>1325.8</ele>
        <time>2026-05-06T14:23:06.000Z</time>
      </trkpt>
      <trkpt lat="41.792894" lon="22.984666">
        <ele>1325.8</ele>
        <time>2026-05-06T14:23:07.000Z</time>
      </trkpt>
      <trkpt lat="41.792889" lon="22.98466">
        <ele>1324.7</ele>
        <time>2026-05-06T14:23:08.000Z</time>
      </trkpt>
      <trkpt lat="41.792883" lon="22.984654">
        <ele>1324.7</ele>
        <time>2026-05-06T14:23:09.000Z</time>
      </trkpt>
      <trkpt lat="41.792877" lon="22.984648">
        <ele>1324.7</ele>
        <time>2026-05-06T14:23:10.000Z</time>
      </trkpt>
      <trkpt lat="41.792871" lon="22.984643">
        <ele>1324.7</ele>
        <time>2026-05-06T14:23:11.000Z</time>
      </trkpt>
      <trkpt lat="41.792865" lon="22.984637">
        <ele>1324.7</ele>
        <time>2026-05-06T14:23:12.000Z</time>
      </trkpt>
      <trkpt lat="41.792858" lon="22.984632">
        <ele>1324.1</ele>
        <time>2026-05-06T14:23:13.000Z</time>
      </trkpt>
      <trkpt lat="41.792853" lon="22.984625">
        <ele>1324.1</ele>
        <time>2026-05-06T14:23:14.000Z</time>
      </trkpt>
      <trkpt lat="41.792847" lon="22.984616">
        <ele>1324.1</ele>
        <time>2026-05-06T14:23:15.000Z</time>
      </trkpt>
      <trkpt lat="41.792841" lon="22.984607">
        <ele>1324.1</ele>
        <time>2026-05-06T14:23:16.000Z</time>
      </trkpt>
      <trkpt lat="41.792836" lon="22.984599">
        <ele>1324.1</ele>
        <time>2026-05-06T14:23:17.000Z</time>
      </trkpt>
      <trkpt lat="41.79283" lon="22.98459">
        <ele>1322.8</ele>
        <time>2026-05-06T14:23:18.000Z</time>
      </trkpt>
      <trkpt lat="41.792823" lon="22.984582">
        <ele>1322.8</ele>
        <time>2026-05-06T14:23:19.000Z</time>
      </trkpt>
      <trkpt lat="41.792815" lon="22.984574">
        <ele>1322.8</ele>
        <time>2026-05-06T14:23:20.000Z</time>
      </trkpt>
      <trkpt lat="41.792807" lon="22.984565">
        <ele>1322.8</ele>
        <time>2026-05-06T14:23:21.000Z</time>
      </trkpt>
      <trkpt lat="41.7928" lon="22.984556">
        <ele>1322.8</ele>
        <time>2026-05-06T14:23:22.000Z</time>
      </trkpt>
      <trkpt lat="41.792794" lon="22.984546">
        <ele>1321.6</ele>
        <time>2026-05-06T14:23:23.000Z</time>
      </trkpt>
      <trkpt lat="41.792787" lon="22.984536">
        <ele>1321.6</ele>
        <time>2026-05-06T14:23:24.000Z</time>
      </trkpt>
      <trkpt lat="41.792782" lon="22.984525">
        <ele>1321.6</ele>
        <time>2026-05-06T14:23:25.000Z</time>
      </trkpt>
      <trkpt lat="41.792776" lon="22.984515">
        <ele>1321.6</ele>
        <time>2026-05-06T14:23:26.000Z</time>
      </trkpt>
      <trkpt lat="41.792769" lon="22.984505">
        <ele>1321.6</ele>
        <time>2026-05-06T14:23:27.000Z</time>
      </trkpt>
      <trkpt lat="41.792761" lon="22.984495">
        <ele>1321</ele>
        <time>2026-05-06T14:23:28.000Z</time>
      </trkpt>
      <trkpt lat="41.792754" lon="22.984484">
        <ele>1321</ele>
        <time>2026-05-06T14:23:29.000Z</time>
      </trkpt>
      <trkpt lat="41.792747" lon="22.984473">
        <ele>1321</ele>
        <time>2026-05-06T14:23:30.000Z</time>
      </trkpt>
      <trkpt lat="41.79274" lon="22.984462">
        <ele>1321</ele>
        <time>2026-05-06T14:23:31.000Z</time>
      </trkpt>
      <trkpt lat="41.792732" lon="22.98445">
        <ele>1321</ele>
        <time>2026-05-06T14:23:32.000Z</time>
      </trkpt>
      <trkpt lat="41.792724" lon="22.984438">
        <ele>1319.8</ele>
        <time>2026-05-06T14:23:33.000Z</time>
      </trkpt>
      <trkpt lat="41.792716" lon="22.984427">
        <ele>1319.8</ele>
        <time>2026-05-06T14:23:34.000Z</time>
      </trkpt>
      <trkpt lat="41.792709" lon="22.984418">
        <ele>1319.8</ele>
        <time>2026-05-06T14:23:35.000Z</time>
      </trkpt>
      <trkpt lat="41.792702" lon="22.984409">
        <ele>1319.8</ele>
        <time>2026-05-06T14:23:36.000Z</time>
      </trkpt>
      <trkpt lat="41.792695" lon="22.984401">
        <ele>1319.8</ele>
        <time>2026-05-06T14:23:37.000Z</time>
      </trkpt>
      <trkpt lat="41.792688" lon="22.984393">
        <ele>1318.5</ele>
        <time>2026-05-06T14:23:38.000Z</time>
      </trkpt>
      <trkpt lat="41.79268" lon="22.984383">
        <ele>1318.5</ele>
        <time>2026-05-06T14:23:39.000Z</time>
      </trkpt>
      <trkpt lat="41.792671" lon="22.984372">
        <ele>1318.5</ele>
        <time>2026-05-06T14:23:40.000Z</time>
      </trkpt>
      <trkpt lat="41.792663" lon="22.984361">
        <ele>1318.5</ele>
        <time>2026-05-06T14:23:41.000Z</time>
      </trkpt>
      <trkpt lat="41.792657" lon="22.98435">
        <ele>1318.5</ele>
        <time>2026-05-06T14:23:42.000Z</time>
      </trkpt>
      <trkpt lat="41.792655" lon="22.984338">
        <ele>1317.8</ele>
        <time>2026-05-06T14:23:43.000Z</time>
      </trkpt>
      <trkpt lat="41.792654" lon="22.984331">
        <ele>1317.8</ele>
        <time>2026-05-06T14:23:44.000Z</time>
      </trkpt>
      <trkpt lat="41.792655" lon="22.984326">
        <ele>1317.8</ele>
        <time>2026-05-06T14:23:45.000Z</time>
      </trkpt>
      <trkpt lat="41.792656" lon="22.984324">
        <ele>1317.8</ele>
        <time>2026-05-06T14:23:46.000Z</time>
      </trkpt>
      <trkpt lat="41.792657" lon="22.984323">
        <ele>1317.8</ele>
        <time>2026-05-06T14:23:47.000Z</time>
      </trkpt>
      <trkpt lat="41.792657" lon="22.984324">
        <ele>1316.9</ele>
        <time>2026-05-06T14:23:48.000Z</time>
      </trkpt>
      <trkpt lat="41.792655" lon="22.984326">
        <ele>1316.9</ele>
        <time>2026-05-06T14:23:49.000Z</time>
      </trkpt>
      <trkpt lat="41.792654" lon="22.984326">
        <ele>1316.9</ele>
        <time>2026-05-06T14:23:50.000Z</time>
      </trkpt>
      <trkpt lat="41.792653" lon="22.984327">
        <ele>1316.9</ele>
        <time>2026-05-06T14:23:51.000Z</time>
      </trkpt>
      <trkpt lat="41.792652" lon="22.984327">
        <ele>1316.9</ele>
        <time>2026-05-06T14:23:52.000Z</time>
      </trkpt>
      <trkpt lat="41.792651" lon="22.984327">
        <ele>1316.6</ele>
        <time>2026-05-06T14:23:53.000Z</time>
      </trkpt>
      <trkpt lat="41.792651" lon="22.984327">
        <ele>1316.6</ele>
        <time>2026-05-06T14:23:54.000Z</time>
      </trkpt>
      <trkpt lat="41.792651" lon="22.984327">
        <ele>1316.6</ele>
        <time>2026-05-06T14:23:55.000Z</time>
      </trkpt>
      <trkpt lat="41.79265" lon="22.984327">
        <ele>1316.6</ele>
        <time>2026-05-06T14:23:56.000Z</time>
      </trkpt>
      <trkpt lat="41.792649" lon="22.984327">
        <ele>1316.6</ele>
        <time>2026-05-06T14:23:57.000Z</time>
      </trkpt>
      <trkpt lat="41.792648" lon="22.984328">
        <ele>1316.6</ele>
        <time>2026-05-06T14:23:58.000Z</time>
      </trkpt>
      <trkpt lat="41.792648" lon="22.98433">
        <ele>1316.6</ele>
        <time>2026-05-06T14:23:59.000Z</time>
      </trkpt>
      <trkpt lat="41.792647" lon="22.984334">
        <ele>1316.6</ele>
        <time>2026-05-06T14:24:00.000Z</time>
      </trkpt>
      <trkpt lat="41.792646" lon="22.98434">
        <ele>1316.6</ele>
        <time>2026-05-06T14:24:01.000Z</time>
      </trkpt>
      <trkpt lat="41.792643" lon="22.984349">
        <ele>1316.6</ele>
        <time>2026-05-06T14:24:02.000Z</time>
      </trkpt>
      <trkpt lat="41.792638" lon="22.984358">
        <ele>1316.7</ele>
        <time>2026-05-06T14:24:03.000Z</time>
      </trkpt>
      <trkpt lat="41.792631" lon="22.984369">
        <ele>1316.7</ele>
        <time>2026-05-06T14:24:04.000Z</time>
      </trkpt>
      <trkpt lat="41.792622" lon="22.984379">
        <ele>1316.7</ele>
        <time>2026-05-06T14:24:05.000Z</time>
      </trkpt>
      <trkpt lat="41.792614" lon="22.984391">
        <ele>1316.7</ele>
        <time>2026-05-06T14:24:06.000Z</time>
      </trkpt>
      <trkpt lat="41.792607" lon="22.984403">
        <ele>1316.7</ele>
        <time>2026-05-06T14:24:07.000Z</time>
      </trkpt>
      <trkpt lat="41.792601" lon="22.984415">
        <ele>1316.8</ele>
        <time>2026-05-06T14:24:08.000Z</time>
      </trkpt>
      <trkpt lat="41.792596" lon="22.984427">
        <ele>1316.8</ele>
        <time>2026-05-06T14:24:09.000Z</time>
      </trkpt>
      <trkpt lat="41.792592" lon="22.98444">
        <ele>1316.8</ele>
        <time>2026-05-06T14:24:10.000Z</time>
      </trkpt>
      <trkpt lat="41.792589" lon="22.984453">
        <ele>1316.8</ele>
        <time>2026-05-06T14:24:11.000Z</time>
      </trkpt>
      <trkpt lat="41.792587" lon="22.984467">
        <ele>1316.8</ele>
        <time>2026-05-06T14:24:12.000Z</time>
      </trkpt>
      <trkpt lat="41.792586" lon="22.984483">
        <ele>1316.8</ele>
        <time>2026-05-06T14:24:13.000Z</time>
      </trkpt>
      <trkpt lat="41.792587" lon="22.984499">
        <ele>1316.8</ele>
        <time>2026-05-06T14:24:14.000Z</time>
      </trkpt>
      <trkpt lat="41.792587" lon="22.984516">
        <ele>1316.8</ele>
        <time>2026-05-06T14:24:15.000Z</time>
      </trkpt>
      <trkpt lat="41.792588" lon="22.984533">
        <ele>1316.8</ele>
        <time>2026-05-06T14:24:16.000Z</time>
      </trkpt>
      <trkpt lat="41.792588" lon="22.984548">
        <ele>1316.8</ele>
        <time>2026-05-06T14:24:17.000Z</time>
      </trkpt>
      <trkpt lat="41.792588" lon="22.984562">
        <ele>1316.7</ele>
        <time>2026-05-06T14:24:18.000Z</time>
      </trkpt>
      <trkpt lat="41.792587" lon="22.984577">
        <ele>1316.7</ele>
        <time>2026-05-06T14:24:19.000Z</time>
      </trkpt>
      <trkpt lat="41.792586" lon="22.984592">
        <ele>1316.7</ele>
        <time>2026-05-06T14:24:20.000Z</time>
      </trkpt>
      <trkpt lat="41.792586" lon="22.984607">
        <ele>1316.7</ele>
        <time>2026-05-06T14:24:21.000Z</time>
      </trkpt>
      <trkpt lat="41.792587" lon="22.984625">
        <ele>1316.7</ele>
        <time>2026-05-06T14:24:22.000Z</time>
      </trkpt>
      <trkpt lat="41.792587" lon="22.984642">
        <ele>1316.4</ele>
        <time>2026-05-06T14:24:23.000Z</time>
      </trkpt>
      <trkpt lat="41.792587" lon="22.98466">
        <ele>1316.4</ele>
        <time>2026-05-06T14:24:24.000Z</time>
      </trkpt>
      <trkpt lat="41.792587" lon="22.984678">
        <ele>1316.4</ele>
        <time>2026-05-06T14:24:25.000Z</time>
      </trkpt>
      <trkpt lat="41.792586" lon="22.984696">
        <ele>1316.4</ele>
        <time>2026-05-06T14:24:26.000Z</time>
      </trkpt>
      <trkpt lat="41.792586" lon="22.984712">
        <ele>1316.4</ele>
        <time>2026-05-06T14:24:27.000Z</time>
      </trkpt>
      <trkpt lat="41.792587" lon="22.984727">
        <ele>1316.2</ele>
        <time>2026-05-06T14:24:28.000Z</time>
      </trkpt>
      <trkpt lat="41.79259" lon="22.984741">
        <ele>1316.2</ele>
        <time>2026-05-06T14:24:29.000Z</time>
      </trkpt>
      <trkpt lat="41.792593" lon="22.984754">
        <ele>1316.2</ele>
        <time>2026-05-06T14:24:30.000Z</time>
      </trkpt>
      <trkpt lat="41.792598" lon="22.984767">
        <ele>1316.2</ele>
        <time>2026-05-06T14:24:31.000Z</time>
      </trkpt>
      <trkpt lat="41.792604" lon="22.984779">
        <ele>1316.2</ele>
        <time>2026-05-06T14:24:32.000Z</time>
      </trkpt>
      <trkpt lat="41.79261" lon="22.984792">
        <ele>1315.5</ele>
        <time>2026-05-06T14:24:33.000Z</time>
      </trkpt>
      <trkpt lat="41.792616" lon="22.984804">
        <ele>1315.5</ele>
        <time>2026-05-06T14:24:34.000Z</time>
      </trkpt>
      <trkpt lat="41.792622" lon="22.984816">
        <ele>1315.5</ele>
        <time>2026-05-06T14:24:35.000Z</time>
      </trkpt>
      <trkpt lat="41.792628" lon="22.984828">
        <ele>1315.5</ele>
        <time>2026-05-06T14:24:36.000Z</time>
      </trkpt>
      <trkpt lat="41.792634" lon="22.984841">
        <ele>1315.5</ele>
        <time>2026-05-06T14:24:37.000Z</time>
      </trkpt>
      <trkpt lat="41.792639" lon="22.984853">
        <ele>1314.7</ele>
        <time>2026-05-06T14:24:38.000Z</time>
      </trkpt>
      <trkpt lat="41.792645" lon="22.984864">
        <ele>1314.7</ele>
        <time>2026-05-06T14:24:39.000Z</time>
      </trkpt>
      <trkpt lat="41.792652" lon="22.984872">
        <ele>1314.7</ele>
        <time>2026-05-06T14:24:40.000Z</time>
      </trkpt>
      <trkpt lat="41.792659" lon="22.98488">
        <ele>1314.7</ele>
        <time>2026-05-06T14:24:41.000Z</time>
      </trkpt>
      <trkpt lat="41.792666" lon="22.984887">
        <ele>1314.7</ele>
        <time>2026-05-06T14:24:42.000Z</time>
      </trkpt>
      <trkpt lat="41.792673" lon="22.984895">
        <ele>1314.3</ele>
        <time>2026-05-06T14:24:43.000Z</time>
      </trkpt>
      <trkpt lat="41.79268" lon="22.984906">
        <ele>1314.3</ele>
        <time>2026-05-06T14:24:44.000Z</time>
      </trkpt>
      <trkpt lat="41.792686" lon="22.984918">
        <ele>1314.3</ele>
        <time>2026-05-06T14:24:45.000Z</time>
      </trkpt>
      <trkpt lat="41.792693" lon="22.984932">
        <ele>1314.3</ele>
        <time>2026-05-06T14:24:46.000Z</time>
      </trkpt>
      <trkpt lat="41.792699" lon="22.984944">
        <ele>1314.3</ele>
        <time>2026-05-06T14:24:47.000Z</time>
      </trkpt>
      <trkpt lat="41.792705" lon="22.984954">
        <ele>1313.3</ele>
        <time>2026-05-06T14:24:48.000Z</time>
      </trkpt>
      <trkpt lat="41.792712" lon="22.984961">
        <ele>1313.3</ele>
        <time>2026-05-06T14:24:49.000Z</time>
      </trkpt>
      <trkpt lat="41.792718" lon="22.984967">
        <ele>1313.3</ele>
        <time>2026-05-06T14:24:50.000Z</time>
      </trkpt>
      <trkpt lat="41.792725" lon="22.984971">
        <ele>1313.3</ele>
        <time>2026-05-06T14:24:51.000Z</time>
      </trkpt>
      <trkpt lat="41.792732" lon="22.984976">
        <ele>1313.3</ele>
        <time>2026-05-06T14:24:52.000Z</time>
      </trkpt>
      <trkpt lat="41.792739" lon="22.984982">
        <ele>1312</ele>
        <time>2026-05-06T14:24:53.000Z</time>
      </trkpt>
      <trkpt lat="41.792744" lon="22.984989">
        <ele>1312</ele>
        <time>2026-05-06T14:24:54.000Z</time>
      </trkpt>
      <trkpt lat="41.792751" lon="22.984995">
        <ele>1312</ele>
        <time>2026-05-06T14:24:55.000Z</time>
      </trkpt>
      <trkpt lat="41.792757" lon="22.985">
        <ele>1312</ele>
        <time>2026-05-06T14:24:56.000Z</time>
      </trkpt>
      <trkpt lat="41.792764" lon="22.985003">
        <ele>1312</ele>
        <time>2026-05-06T14:24:57.000Z</time>
      </trkpt>
      <trkpt lat="41.792771" lon="22.985005">
        <ele>1311.4</ele>
        <time>2026-05-06T14:24:58.000Z</time>
      </trkpt>
      <trkpt lat="41.792778" lon="22.985007">
        <ele>1311.4</ele>
        <time>2026-05-06T14:24:59.000Z</time>
      </trkpt>
      <trkpt lat="41.792784" lon="22.98501">
        <ele>1311.4</ele>
        <time>2026-05-06T14:25:00.000Z</time>
      </trkpt>
      <trkpt lat="41.79279" lon="22.985013">
        <ele>1311.4</ele>
        <time>2026-05-06T14:25:01.000Z</time>
      </trkpt>
      <trkpt lat="41.792795" lon="22.985015">
        <ele>1311.4</ele>
        <time>2026-05-06T14:25:02.000Z</time>
      </trkpt>
      <trkpt lat="41.792798" lon="22.985016">
        <ele>1310.4</ele>
        <time>2026-05-06T14:25:03.000Z</time>
      </trkpt>
      <trkpt lat="41.792801" lon="22.985015">
        <ele>1310.4</ele>
        <time>2026-05-06T14:25:04.000Z</time>
      </trkpt>
      <trkpt lat="41.792803" lon="22.985014">
        <ele>1310.4</ele>
        <time>2026-05-06T14:25:05.000Z</time>
      </trkpt>
      <trkpt lat="41.792804" lon="22.985011">
        <ele>1310.4</ele>
        <time>2026-05-06T14:25:06.000Z</time>
      </trkpt>
      <trkpt lat="41.792805" lon="22.985007">
        <ele>1310.4</ele>
        <time>2026-05-06T14:25:07.000Z</time>
      </trkpt>
      <trkpt lat="41.792808" lon="22.985001">
        <ele>1309.8</ele>
        <time>2026-05-06T14:25:08.000Z</time>
      </trkpt>
      <trkpt lat="41.792812" lon="22.984992">
        <ele>1309.8</ele>
        <time>2026-05-06T14:25:09.000Z</time>
      </trkpt>
      <trkpt lat="41.792815" lon="22.984983">
        <ele>1309.8</ele>
        <time>2026-05-06T14:25:10.000Z</time>
      </trkpt>
      <trkpt lat="41.792817" lon="22.984977">
        <ele>1309.8</ele>
        <time>2026-05-06T14:25:11.000Z</time>
      </trkpt>
      <trkpt lat="41.792818" lon="22.984973">
        <ele>1309.8</ele>
        <time>2026-05-06T14:25:12.000Z</time>
      </trkpt>
      <trkpt lat="41.792819" lon="22.984973">
        <ele>1309.6</ele>
        <time>2026-05-06T14:25:13.000Z</time>
      </trkpt>
      <trkpt lat="41.792819" lon="22.984974">
        <ele>1309.6</ele>
        <time>2026-05-06T14:25:14.000Z</time>
      </trkpt>
      <trkpt lat="41.792819" lon="22.984977">
        <ele>1309.6</ele>
        <time>2026-05-06T14:25:15.000Z</time>
      </trkpt>
      <trkpt lat="41.79282" lon="22.98498">
        <ele>1309.6</ele>
        <time>2026-05-06T14:25:16.000Z</time>
      </trkpt>
      <trkpt lat="41.792821" lon="22.984983">
        <ele>1309.6</ele>
        <time>2026-05-06T14:25:17.000Z</time>
      </trkpt>
      <trkpt lat="41.792822" lon="22.984986">
        <ele>1309.4</ele>
        <time>2026-05-06T14:25:18.000Z</time>
      </trkpt>
      <trkpt lat="41.792823" lon="22.984989">
        <ele>1309.4</ele>
        <time>2026-05-06T14:25:19.000Z</time>
      </trkpt>
      <trkpt lat="41.792823" lon="22.98499">
        <ele>1309.4</ele>
        <time>2026-05-06T14:25:20.000Z</time>
      </trkpt>
      <trkpt lat="41.792824" lon="22.984989">
        <ele>1309.4</ele>
        <time>2026-05-06T14:25:21.000Z</time>
      </trkpt>
      <trkpt lat="41.792825" lon="22.984986">
        <ele>1309.4</ele>
        <time>2026-05-06T14:25:22.000Z</time>
      </trkpt>
      <trkpt lat="41.792826" lon="22.984984">
        <ele>1309.5</ele>
        <time>2026-05-06T14:25:23.000Z</time>
      </trkpt>
      <trkpt lat="41.792828" lon="22.984982">
        <ele>1309.5</ele>
        <time>2026-05-06T14:25:24.000Z</time>
      </trkpt>
      <trkpt lat="41.792828" lon="22.984982">
        <ele>1309.5</ele>
        <time>2026-05-06T14:25:25.000Z</time>
      </trkpt>
      <trkpt lat="41.792829" lon="22.984984">
        <ele>1309.5</ele>
        <time>2026-05-06T14:25:26.000Z</time>
      </trkpt>
      <trkpt lat="41.792829" lon="22.984987">
        <ele>1309.5</ele>
        <time>2026-05-06T14:25:27.000Z</time>
      </trkpt>
      <trkpt lat="41.792829" lon="22.98499">
        <ele>1309.5</ele>
        <time>2026-05-06T14:25:28.000Z</time>
      </trkpt>
      <trkpt lat="41.79283" lon="22.984991">
        <ele>1309.5</ele>
        <time>2026-05-06T14:25:29.000Z</time>
      </trkpt>
      <trkpt lat="41.792832" lon="22.984991">
        <ele>1309.5</ele>
        <time>2026-05-06T14:25:30.000Z</time>
      </trkpt>
      <trkpt lat="41.792837" lon="22.98499">
        <ele>1309.5</ele>
        <time>2026-05-06T14:25:31.000Z</time>
      </trkpt>
      <trkpt lat="41.792844" lon="22.984991">
        <ele>1309.5</ele>
        <time>2026-05-06T14:25:32.000Z</time>
      </trkpt>
      <trkpt lat="41.792853" lon="22.984993">
        <ele>1309.4</ele>
        <time>2026-05-06T14:25:33.000Z</time>
      </trkpt>
      <trkpt lat="41.792861" lon="22.984998">
        <ele>1309.4</ele>
        <time>2026-05-06T14:25:34.000Z</time>
      </trkpt>
      <trkpt lat="41.79287" lon="22.985004">
        <ele>1309.4</ele>
        <time>2026-05-06T14:25:35.000Z</time>
      </trkpt>
      <trkpt lat="41.792878" lon="22.98501">
        <ele>1309.4</ele>
        <time>2026-05-06T14:25:36.000Z</time>
      </trkpt>
      <trkpt lat="41.792886" lon="22.985016">
        <ele>1309.4</ele>
        <time>2026-05-06T14:25:37.000Z</time>
      </trkpt>
      <trkpt lat="41.792892" lon="22.98502">
        <ele>1309.3</ele>
        <time>2026-05-06T14:25:38.000Z</time>
      </trkpt>
      <trkpt lat="41.7929" lon="22.985023">
        <ele>1309.3</ele>
        <time>2026-05-06T14:25:39.000Z</time>
      </trkpt>
      <trkpt lat="41.792908" lon="22.985027">
        <ele>1309.3</ele>
        <time>2026-05-06T14:25:40.000Z</time>
      </trkpt>
      <trkpt lat="41.792916" lon="22.985029">
        <ele>1309.3</ele>
        <time>2026-05-06T14:25:41.000Z</time>
      </trkpt>
      <trkpt lat="41.792924" lon="22.985032">
        <ele>1309.3</ele>
        <time>2026-05-06T14:25:42.000Z</time>
      </trkpt>
      <trkpt lat="41.792935" lon="22.985034">
        <ele>1309.3</ele>
        <time>2026-05-06T14:25:43.000Z</time>
      </trkpt>
      <trkpt lat="41.792947" lon="22.985038">
        <ele>1309.3</ele>
        <time>2026-05-06T14:25:44.000Z</time>
      </trkpt>
      <trkpt lat="41.792958" lon="22.985041">
        <ele>1309.3</ele>
        <time>2026-05-06T14:25:45.000Z</time>
      </trkpt>
      <trkpt lat="41.79297" lon="22.985044">
        <ele>1309.3</ele>
        <time>2026-05-06T14:25:46.000Z</time>
      </trkpt>
      <trkpt lat="41.792983" lon="22.985048">
        <ele>1309.3</ele>
        <time>2026-05-06T14:25:47.000Z</time>
      </trkpt>
      <trkpt lat="41.792994" lon="22.985051">
        <ele>1309.9</ele>
        <time>2026-05-06T14:25:48.000Z</time>
      </trkpt>
      <trkpt lat="41.793005" lon="22.985053">
        <ele>1309.9</ele>
        <time>2026-05-06T14:25:49.000Z</time>
      </trkpt>
      <trkpt lat="41.793015" lon="22.985056">
        <ele>1309.9</ele>
        <time>2026-05-06T14:25:50.000Z</time>
      </trkpt>
      <trkpt lat="41.793025" lon="22.985059">
        <ele>1309.9</ele>
        <time>2026-05-06T14:25:51.000Z</time>
      </trkpt>
      <trkpt lat="41.793036" lon="22.985062">
        <ele>1309.9</ele>
        <time>2026-05-06T14:25:52.000Z</time>
      </trkpt>
      <trkpt lat="41.793049" lon="22.985064">
        <ele>1310.8</ele>
        <time>2026-05-06T14:25:53.000Z</time>
      </trkpt>
      <trkpt lat="41.793062" lon="22.985066">
        <ele>1310.8</ele>
        <time>2026-05-06T14:25:54.000Z</time>
      </trkpt>
      <trkpt lat="41.793074" lon="22.985068">
        <ele>1310.8</ele>
        <time>2026-05-06T14:25:55.000Z</time>
      </trkpt>
      <trkpt lat="41.793087" lon="22.985072">
        <ele>1310.8</ele>
        <time>2026-05-06T14:25:56.000Z</time>
      </trkpt>
      <trkpt lat="41.793099" lon="22.985075">
        <ele>1310.8</ele>
        <time>2026-05-06T14:25:57.000Z</time>
      </trkpt>
      <trkpt lat="41.793109" lon="22.98508">
        <ele>1311.2</ele>
        <time>2026-05-06T14:25:58.000Z</time>
      </trkpt>
      <trkpt lat="41.79312" lon="22.985085">
        <ele>1311.2</ele>
        <time>2026-05-06T14:25:59.000Z</time>
      </trkpt>
      <trkpt lat="41.793131" lon="22.985089">
        <ele>1311.2</ele>
        <time>2026-05-06T14:26:00.000Z</time>
      </trkpt>
      <trkpt lat="41.793141" lon="22.985093">
        <ele>1311.2</ele>
        <time>2026-05-06T14:26:01.000Z</time>
      </trkpt>
      <trkpt lat="41.793151" lon="22.985098">
        <ele>1311.2</ele>
        <time>2026-05-06T14:26:02.000Z</time>
      </trkpt>
      <trkpt lat="41.793163" lon="22.985102">
        <ele>1311.8</ele>
        <time>2026-05-06T14:26:03.000Z</time>
      </trkpt>
      <trkpt lat="41.793173" lon="22.985107">
        <ele>1311.8</ele>
        <time>2026-05-06T14:26:04.000Z</time>
      </trkpt>
      <trkpt lat="41.793183" lon="22.985113">
        <ele>1311.8</ele>
        <time>2026-05-06T14:26:05.000Z</time>
      </trkpt>
      <trkpt lat="41.793194" lon="22.985119">
        <ele>1311.8</ele>
        <time>2026-05-06T14:26:06.000Z</time>
      </trkpt>
      <trkpt lat="41.793205" lon="22.985124">
        <ele>1311.8</ele>
        <time>2026-05-06T14:26:07.000Z</time>
      </trkpt>
      <trkpt lat="41.793218" lon="22.985128">
        <ele>1311.9</ele>
        <time>2026-05-06T14:26:08.000Z</time>
      </trkpt>
      <trkpt lat="41.79323" lon="22.985132">
        <ele>1311.9</ele>
        <time>2026-05-06T14:26:09.000Z</time>
      </trkpt>
      <trkpt lat="41.793243" lon="22.985135">
        <ele>1311.9</ele>
        <time>2026-05-06T14:26:10.000Z</time>
      </trkpt>
      <trkpt lat="41.793255" lon="22.985139">
        <ele>1311.9</ele>
        <time>2026-05-06T14:26:11.000Z</time>
      </trkpt>
      <trkpt lat="41.793267" lon="22.985144">
        <ele>1311.9</ele>
        <time>2026-05-06T14:26:12.000Z</time>
      </trkpt>
      <trkpt lat="41.793277" lon="22.985149">
        <ele>1311.8</ele>
        <time>2026-05-06T14:26:13.000Z</time>
      </trkpt>
      <trkpt lat="41.793286" lon="22.985157">
        <ele>1311.8</ele>
        <time>2026-05-06T14:26:14.000Z</time>
      </trkpt>
      <trkpt lat="41.793297" lon="22.985163">
        <ele>1311.8</ele>
        <time>2026-05-06T14:26:15.000Z</time>
      </trkpt>
      <trkpt lat="41.793307" lon="22.98517">
        <ele>1311.8</ele>
        <time>2026-05-06T14:26:16.000Z</time>
      </trkpt>
      <trkpt lat="41.793316" lon="22.985176">
        <ele>1311.8</ele>
        <time>2026-05-06T14:26:17.000Z</time>
      </trkpt>
      <trkpt lat="41.793327" lon="22.985182">
        <ele>1311.2</ele>
        <time>2026-05-06T14:26:18.000Z</time>
      </trkpt>
      <trkpt lat="41.793337" lon="22.985187">
        <ele>1311.2</ele>
        <time>2026-05-06T14:26:19.000Z</time>
      </trkpt>
      <trkpt lat="41.793346" lon="22.985192">
        <ele>1311.2</ele>
        <time>2026-05-06T14:26:20.000Z</time>
      </trkpt>
      <trkpt lat="41.793356" lon="22.985198">
        <ele>1311.2</ele>
        <time>2026-05-06T14:26:21.000Z</time>
      </trkpt>
      <trkpt lat="41.793366" lon="22.985205">
        <ele>1311.2</ele>
        <time>2026-05-06T14:26:22.000Z</time>
      </trkpt>
      <trkpt lat="41.793375" lon="22.985212">
        <ele>1310.2</ele>
        <time>2026-05-06T14:26:23.000Z</time>
      </trkpt>
      <trkpt lat="41.793383" lon="22.985221">
        <ele>1310.2</ele>
        <time>2026-05-06T14:26:24.000Z</time>
      </trkpt>
      <trkpt lat="41.793393" lon="22.98523">
        <ele>1310.2</ele>
        <time>2026-05-06T14:26:25.000Z</time>
      </trkpt>
      <trkpt lat="41.793402" lon="22.98524">
        <ele>1310.2</ele>
        <time>2026-05-06T14:26:26.000Z</time>
      </trkpt>
      <trkpt lat="41.79341" lon="22.985252">
        <ele>1310.2</ele>
        <time>2026-05-06T14:26:27.000Z</time>
      </trkpt>
      <trkpt lat="41.793419" lon="22.985263">
        <ele>1309.5</ele>
        <time>2026-05-06T14:26:28.000Z</time>
      </trkpt>
      <trkpt lat="41.793428" lon="22.985275">
        <ele>1309.5</ele>
        <time>2026-05-06T14:26:29.000Z</time>
      </trkpt>
      <trkpt lat="41.793437" lon="22.985287">
        <ele>1309.5</ele>
        <time>2026-05-06T14:26:30.000Z</time>
      </trkpt>
      <trkpt lat="41.793446" lon="22.985297">
        <ele>1309.5</ele>
        <time>2026-05-06T14:26:31.000Z</time>
      </trkpt>
      <trkpt lat="41.793457" lon="22.985306">
        <ele>1309.5</ele>
        <time>2026-05-06T14:26:32.000Z</time>
      </trkpt>
      <trkpt lat="41.793465" lon="22.985315">
        <ele>1307.7</ele>
        <time>2026-05-06T14:26:33.000Z</time>
      </trkpt>
      <trkpt lat="41.793474" lon="22.985323">
        <ele>1307.7</ele>
        <time>2026-05-06T14:26:34.000Z</time>
      </trkpt>
      <trkpt lat="41.793481" lon="22.985331">
        <ele>1307.7</ele>
        <time>2026-05-06T14:26:35.000Z</time>
      </trkpt>
      <trkpt lat="41.793488" lon="22.985339">
        <ele>1307.7</ele>
        <time>2026-05-06T14:26:36.000Z</time>
      </trkpt>
      <trkpt lat="41.793496" lon="22.985348">
        <ele>1307.7</ele>
        <time>2026-05-06T14:26:37.000Z</time>
      </trkpt>
      <trkpt lat="41.793505" lon="22.985357">
        <ele>1305.8</ele>
        <time>2026-05-06T14:26:38.000Z</time>
      </trkpt>
      <trkpt lat="41.793512" lon="22.985365">
        <ele>1305.8</ele>
        <time>2026-05-06T14:26:39.000Z</time>
      </trkpt>
      <trkpt lat="41.793522" lon="22.985372">
        <ele>1305.8</ele>
        <time>2026-05-06T14:26:40.000Z</time>
      </trkpt>
      <trkpt lat="41.793531" lon="22.985379">
        <ele>1305.8</ele>
        <time>2026-05-06T14:26:41.000Z</time>
      </trkpt>
      <trkpt lat="41.793541" lon="22.985386">
        <ele>1305.8</ele>
        <time>2026-05-06T14:26:42.000Z</time>
      </trkpt>
      <trkpt lat="41.793551" lon="22.985394">
        <ele>1304.9</ele>
        <time>2026-05-06T14:26:43.000Z</time>
      </trkpt>
      <trkpt lat="41.793561" lon="22.985403">
        <ele>1304.9</ele>
        <time>2026-05-06T14:26:44.000Z</time>
      </trkpt>
      <trkpt lat="41.79357" lon="22.985413">
        <ele>1304.9</ele>
        <time>2026-05-06T14:26:45.000Z</time>
      </trkpt>
      <trkpt lat="41.793578" lon="22.985424">
        <ele>1304.9</ele>
        <time>2026-05-06T14:26:46.000Z</time>
      </trkpt>
      <trkpt lat="41.793585" lon="22.985434">
        <ele>1304.9</ele>
        <time>2026-05-06T14:26:47.000Z</time>
      </trkpt>
      <trkpt lat="41.793592" lon="22.985444">
        <ele>1303.3</ele>
        <time>2026-05-06T14:26:48.000Z</time>
      </trkpt>
      <trkpt lat="41.793598" lon="22.985452">
        <ele>1303.3</ele>
        <time>2026-05-06T14:26:49.000Z</time>
      </trkpt>
      <trkpt lat="41.793605" lon="22.985462">
        <ele>1303.3</ele>
        <time>2026-05-06T14:26:50.000Z</time>
      </trkpt>
      <trkpt lat="41.79361" lon="22.985473">
        <ele>1303.3</ele>
        <time>2026-05-06T14:26:51.000Z</time>
      </trkpt>
      <trkpt lat="41.793617" lon="22.985485">
        <ele>1303.3</ele>
        <time>2026-05-06T14:26:52.000Z</time>
      </trkpt>
      <trkpt lat="41.793622" lon="22.985498">
        <ele>1301.7</ele>
        <time>2026-05-06T14:26:53.000Z</time>
      </trkpt>
      <trkpt lat="41.793628" lon="22.98551">
        <ele>1301.7</ele>
        <time>2026-05-06T14:26:54.000Z</time>
      </trkpt>
      <trkpt lat="41.793633" lon="22.985523">
        <ele>1301.7</ele>
        <time>2026-05-06T14:26:55.000Z</time>
      </trkpt>
      <trkpt lat="41.793638" lon="22.985536">
        <ele>1301.7</ele>
        <time>2026-05-06T14:26:56.000Z</time>
      </trkpt>
      <trkpt lat="41.793643" lon="22.985547">
        <ele>1301.7</ele>
        <time>2026-05-06T14:26:57.000Z</time>
      </trkpt>
      <trkpt lat="41.79365" lon="22.985554">
        <ele>1300.9</ele>
        <time>2026-05-06T14:26:58.000Z</time>
      </trkpt>
      <trkpt lat="41.793655" lon="22.98556">
        <ele>1300.9</ele>
        <time>2026-05-06T14:26:59.000Z</time>
      </trkpt>
      <trkpt lat="41.793663" lon="22.985562">
        <ele>1300.9</ele>
        <time>2026-05-06T14:27:00.000Z</time>
      </trkpt>
      <trkpt lat="41.79367" lon="22.985562">
        <ele>1300.9</ele>
        <time>2026-05-06T14:27:01.000Z</time>
      </trkpt>
      <trkpt lat="41.793679" lon="22.985564">
        <ele>1300.9</ele>
        <time>2026-05-06T14:27:02.000Z</time>
      </trkpt>
      <trkpt lat="41.793689" lon="22.98557">
        <ele>1299.2</ele>
        <time>2026-05-06T14:27:03.000Z</time>
      </trkpt>
      <trkpt lat="41.793698" lon="22.985582">
        <ele>1299.2</ele>
        <time>2026-05-06T14:27:04.000Z</time>
      </trkpt>
      <trkpt lat="41.793707" lon="22.985596">
        <ele>1299.2</ele>
        <time>2026-05-06T14:27:05.000Z</time>
      </trkpt>
      <trkpt lat="41.793716" lon="22.985612">
        <ele>1299.2</ele>
        <time>2026-05-06T14:27:06.000Z</time>
      </trkpt>
      <trkpt lat="41.793724" lon="22.985628">
        <ele>1299.2</ele>
        <time>2026-05-06T14:27:07.000Z</time>
      </trkpt>
      <trkpt lat="41.793732" lon="22.985643">
        <ele>1297.9</ele>
        <time>2026-05-06T14:27:08.000Z</time>
      </trkpt>
      <trkpt lat="41.793742" lon="22.985655">
        <ele>1297.9</ele>
        <time>2026-05-06T14:27:09.000Z</time>
      </trkpt>
      <trkpt lat="41.79375" lon="22.985668">
        <ele>1297.9</ele>
        <time>2026-05-06T14:27:10.000Z</time>
      </trkpt>
      <trkpt lat="41.793757" lon="22.985681">
        <ele>1297.9</ele>
        <time>2026-05-06T14:27:11.000Z</time>
      </trkpt>
      <trkpt lat="41.793762" lon="22.985695">
        <ele>1297.9</ele>
        <time>2026-05-06T14:27:12.000Z</time>
      </trkpt>
      <trkpt lat="41.793767" lon="22.985708">
        <ele>1297.3</ele>
        <time>2026-05-06T14:27:13.000Z</time>
      </trkpt>
      <trkpt lat="41.79377" lon="22.985722">
        <ele>1297.3</ele>
        <time>2026-05-06T14:27:14.000Z</time>
      </trkpt>
      <trkpt lat="41.793772" lon="22.985733">
        <ele>1297.3</ele>
        <time>2026-05-06T14:27:15.000Z</time>
      </trkpt>
      <trkpt lat="41.793773" lon="22.985741">
        <ele>1297.3</ele>
        <time>2026-05-06T14:27:16.000Z</time>
      </trkpt>
      <trkpt lat="41.793774" lon="22.985748">
        <ele>1297.3</ele>
        <time>2026-05-06T14:27:17.000Z</time>
      </trkpt>
      <trkpt lat="41.793772" lon="22.985756">
        <ele>1296.2</ele>
        <time>2026-05-06T14:27:18.000Z</time>
      </trkpt>
      <trkpt lat="41.793768" lon="22.985759">
        <ele>1296.2</ele>
        <time>2026-05-06T14:27:19.000Z</time>
      </trkpt>
      <trkpt lat="41.793764" lon="22.985764">
        <ele>1296.2</ele>
        <time>2026-05-06T14:27:20.000Z</time>
      </trkpt>
      <trkpt lat="41.79376" lon="22.985769">
        <ele>1296.2</ele>
        <time>2026-05-06T14:27:21.000Z</time>
      </trkpt>
      <trkpt lat="41.793756" lon="22.98577">
        <ele>1296.2</ele>
        <time>2026-05-06T14:27:22.000Z</time>
      </trkpt>
      <trkpt lat="41.793755" lon="22.985769">
        <ele>1295</ele>
        <time>2026-05-06T14:27:23.000Z</time>
      </trkpt>
      <trkpt lat="41.793757" lon="22.985771">
        <ele>1295</ele>
        <time>2026-05-06T14:27:24.000Z</time>
      </trkpt>
      <trkpt lat="41.79376" lon="22.985775">
        <ele>1295</ele>
        <time>2026-05-06T14:27:25.000Z</time>
      </trkpt>
      <trkpt lat="41.793764" lon="22.985782">
        <ele>1295</ele>
        <time>2026-05-06T14:27:26.000Z</time>
      </trkpt>
      <trkpt lat="41.793768" lon="22.985791">
        <ele>1295</ele>
        <time>2026-05-06T14:27:27.000Z</time>
      </trkpt>
      <trkpt lat="41.793774" lon="22.985802">
        <ele>1294.5</ele>
        <time>2026-05-06T14:27:28.000Z</time>
      </trkpt>
      <trkpt lat="41.793779" lon="22.985816">
        <ele>1294.5</ele>
        <time>2026-05-06T14:27:29.000Z</time>
      </trkpt>
      <trkpt lat="41.793783" lon="22.98583">
        <ele>1294.5</ele>
        <time>2026-05-06T14:27:30.000Z</time>
      </trkpt>
      <trkpt lat="41.793787" lon="22.985843">
        <ele>1294.5</ele>
        <time>2026-05-06T14:27:31.000Z</time>
      </trkpt>
      <trkpt lat="41.79379" lon="22.985857">
        <ele>1294.5</ele>
        <time>2026-05-06T14:27:32.000Z</time>
      </trkpt>
      <trkpt lat="41.793793" lon="22.985872">
        <ele>1293.9</ele>
        <time>2026-05-06T14:27:33.000Z</time>
      </trkpt>
      <trkpt lat="41.793796" lon="22.985889">
        <ele>1293.9</ele>
        <time>2026-05-06T14:27:34.000Z</time>
      </trkpt>
      <trkpt lat="41.793798" lon="22.985905">
        <ele>1293.9</ele>
        <time>2026-05-06T14:27:35.000Z</time>
      </trkpt>
      <trkpt lat="41.793799" lon="22.985922">
        <ele>1293.9</ele>
        <time>2026-05-06T14:27:36.000Z</time>
      </trkpt>
      <trkpt lat="41.7938" lon="22.985938">
        <ele>1293.9</ele>
        <time>2026-05-06T14:27:37.000Z</time>
      </trkpt>
      <trkpt lat="41.793799" lon="22.985952">
        <ele>1293.6</ele>
        <time>2026-05-06T14:27:38.000Z</time>
      </trkpt>
      <trkpt lat="41.793799" lon="22.98596">
        <ele>1293.6</ele>
        <time>2026-05-06T14:27:39.000Z</time>
      </trkpt>
      <trkpt lat="41.793801" lon="22.985964">
        <ele>1293.6</ele>
        <time>2026-05-06T14:27:40.000Z</time>
      </trkpt>
      <trkpt lat="41.793802" lon="22.985965">
        <ele>1293.6</ele>
        <time>2026-05-06T14:27:41.000Z</time>
      </trkpt>
      <trkpt lat="41.793805" lon="22.985964">
        <ele>1293.6</ele>
        <time>2026-05-06T14:27:42.000Z</time>
      </trkpt>
      <trkpt lat="41.793808" lon="22.985962">
        <ele>1293.2</ele>
        <time>2026-05-06T14:27:43.000Z</time>
      </trkpt>
      <trkpt lat="41.793809" lon="22.985962">
        <ele>1293.2</ele>
        <time>2026-05-06T14:27:44.000Z</time>
      </trkpt>
      <trkpt lat="41.793811" lon="22.985964">
        <ele>1293.2</ele>
        <time>2026-05-06T14:27:45.000Z</time>
      </trkpt>
      <trkpt lat="41.793812" lon="22.985966">
        <ele>1293.2</ele>
        <time>2026-05-06T14:27:46.000Z</time>
      </trkpt>
      <trkpt lat="41.793813" lon="22.985968">
        <ele>1293.2</ele>
        <time>2026-05-06T14:27:47.000Z</time>
      </trkpt>
      <trkpt lat="41.793815" lon="22.98597">
        <ele>1292.2</ele>
        <time>2026-05-06T14:27:48.000Z</time>
      </trkpt>
      <trkpt lat="41.793816" lon="22.985971">
        <ele>1292.2</ele>
        <time>2026-05-06T14:27:49.000Z</time>
      </trkpt>
      <trkpt lat="41.793818" lon="22.985971">
        <ele>1292.2</ele>
        <time>2026-05-06T14:27:50.000Z</time>
      </trkpt>
      <trkpt lat="41.79382" lon="22.985971">
        <ele>1292.2</ele>
        <time>2026-05-06T14:27:51.000Z</time>
      </trkpt>
      <trkpt lat="41.793822" lon="22.985971">
        <ele>1292.2</ele>
        <time>2026-05-06T14:27:52.000Z</time>
      </trkpt>
      <trkpt lat="41.793823" lon="22.985972">
        <ele>1291.3</ele>
        <time>2026-05-06T14:27:53.000Z</time>
      </trkpt>
      <trkpt lat="41.793825" lon="22.985974">
        <ele>1291.3</ele>
        <time>2026-05-06T14:27:54.000Z</time>
      </trkpt>
      <trkpt lat="41.793827" lon="22.985978">
        <ele>1291.3</ele>
        <time>2026-05-06T14:27:55.000Z</time>
      </trkpt>
      <trkpt lat="41.793829" lon="22.985984">
        <ele>1291.3</ele>
        <time>2026-05-06T14:27:56.000Z</time>
      </trkpt>
      <trkpt lat="41.79383" lon="22.985993">
        <ele>1291.3</ele>
        <time>2026-05-06T14:27:57.000Z</time>
      </trkpt>
      <trkpt lat="41.793832" lon="22.986002">
        <ele>1291.2</ele>
        <time>2026-05-06T14:27:58.000Z</time>
      </trkpt>
      <trkpt lat="41.793833" lon="22.986012">
        <ele>1291.2</ele>
        <time>2026-05-06T14:27:59.000Z</time>
      </trkpt>
      <trkpt lat="41.793833" lon="22.986022">
        <ele>1291.2</ele>
        <time>2026-05-06T14:28:00.000Z</time>
      </trkpt>
      <trkpt lat="41.793833" lon="22.986031">
        <ele>1291.2</ele>
        <time>2026-05-06T14:28:01.000Z</time>
      </trkpt>
      <trkpt lat="41.793832" lon="22.986037">
        <ele>1291.2</ele>
        <time>2026-05-06T14:28:02.000Z</time>
      </trkpt>
      <trkpt lat="41.793831" lon="22.986041">
        <ele>1291</ele>
        <time>2026-05-06T14:28:03.000Z</time>
      </trkpt>
      <trkpt lat="41.79383" lon="22.986045">
        <ele>1291</ele>
        <time>2026-05-06T14:28:04.000Z</time>
      </trkpt>
      <trkpt lat="41.793829" lon="22.986048">
        <ele>1291</ele>
        <time>2026-05-06T14:28:05.000Z</time>
      </trkpt>
      <trkpt lat="41.793826" lon="22.986051">
        <ele>1291</ele>
        <time>2026-05-06T14:28:06.000Z</time>
      </trkpt>
      <trkpt lat="41.793823" lon="22.986055">
        <ele>1291</ele>
        <time>2026-05-06T14:28:07.000Z</time>
      </trkpt>
      <trkpt lat="41.793819" lon="22.986062">
        <ele>1290.8</ele>
        <time>2026-05-06T14:28:08.000Z</time>
      </trkpt>
      <trkpt lat="41.793816" lon="22.986071">
        <ele>1290.8</ele>
        <time>2026-05-06T14:28:09.000Z</time>
      </trkpt>
      <trkpt lat="41.793816" lon="22.98608">
        <ele>1290.8</ele>
        <time>2026-05-06T14:28:10.000Z</time>
      </trkpt>
      <trkpt lat="41.793817" lon="22.986092">
        <ele>1290.8</ele>
        <time>2026-05-06T14:28:11.000Z</time>
      </trkpt>
      <trkpt lat="41.793819" lon="22.986105">
        <ele>1290.8</ele>
        <time>2026-05-06T14:28:12.000Z</time>
      </trkpt>
      <trkpt lat="41.793822" lon="22.986118">
        <ele>1290.7</ele>
        <time>2026-05-06T14:28:13.000Z</time>
      </trkpt>
      <trkpt lat="41.793824" lon="22.986132">
        <ele>1290.7</ele>
        <time>2026-05-06T14:28:14.000Z</time>
      </trkpt>
      <trkpt lat="41.793826" lon="22.986145">
        <ele>1290.7</ele>
        <time>2026-05-06T14:28:15.000Z</time>
      </trkpt>
      <trkpt lat="41.793826" lon="22.986157">
        <ele>1290.7</ele>
        <time>2026-05-06T14:28:16.000Z</time>
      </trkpt>
      <trkpt lat="41.793828" lon="22.986164">
        <ele>1290.7</ele>
        <time>2026-05-06T14:28:17.000Z</time>
      </trkpt>
      <trkpt lat="41.793831" lon="22.986171">
        <ele>1290.5</ele>
        <time>2026-05-06T14:28:18.000Z</time>
      </trkpt>
      <trkpt lat="41.793835" lon="22.986177">
        <ele>1290.5</ele>
        <time>2026-05-06T14:28:19.000Z</time>
      </trkpt>
      <trkpt lat="41.793839" lon="22.986183">
        <ele>1290.5</ele>
        <time>2026-05-06T14:28:20.000Z</time>
      </trkpt>
      <trkpt lat="41.793844" lon="22.986192">
        <ele>1290.5</ele>
        <time>2026-05-06T14:28:21.000Z</time>
      </trkpt>
      <trkpt lat="41.793849" lon="22.986203">
        <ele>1290.5</ele>
        <time>2026-05-06T14:28:22.000Z</time>
      </trkpt>
      <trkpt lat="41.793855" lon="22.986217">
        <ele>1290.2</ele>
        <time>2026-05-06T14:28:23.000Z</time>
      </trkpt>
      <trkpt lat="41.793861" lon="22.986229">
        <ele>1290.2</ele>
        <time>2026-05-06T14:28:24.000Z</time>
      </trkpt>
      <trkpt lat="41.793866" lon="22.986243">
        <ele>1290.2</ele>
        <time>2026-05-06T14:28:25.000Z</time>
      </trkpt>
      <trkpt lat="41.79387" lon="22.986256">
        <ele>1290.2</ele>
        <time>2026-05-06T14:28:26.000Z</time>
      </trkpt>
      <trkpt lat="41.793873" lon="22.986268">
        <ele>1290.2</ele>
        <time>2026-05-06T14:28:27.000Z</time>
      </trkpt>
      <trkpt lat="41.793876" lon="22.986279">
        <ele>1289.9</ele>
        <time>2026-05-06T14:28:28.000Z</time>
      </trkpt>
      <trkpt lat="41.793877" lon="22.98629">
        <ele>1289.9</ele>
        <time>2026-05-06T14:28:29.000Z</time>
      </trkpt>
      <trkpt lat="41.793878" lon="22.9863">
        <ele>1289.9</ele>
        <time>2026-05-06T14:28:30.000Z</time>
      </trkpt>
      <trkpt lat="41.793878" lon="22.986307">
        <ele>1289.9</ele>
        <time>2026-05-06T14:28:31.000Z</time>
      </trkpt>
      <trkpt lat="41.79388" lon="22.986314">
        <ele>1289.9</ele>
        <time>2026-05-06T14:28:32.000Z</time>
      </trkpt>
      <trkpt lat="41.793881" lon="22.986321">
        <ele>1288.8</ele>
        <time>2026-05-06T14:28:33.000Z</time>
      </trkpt>
      <trkpt lat="41.793884" lon="22.986328">
        <ele>1288.8</ele>
        <time>2026-05-06T14:28:34.000Z</time>
      </trkpt>
      <trkpt lat="41.793889" lon="22.986336">
        <ele>1288.8</ele>
        <time>2026-05-06T14:28:35.000Z</time>
      </trkpt>
      <trkpt lat="41.793895" lon="22.986346">
        <ele>1288.8</ele>
        <time>2026-05-06T14:28:36.000Z</time>
      </trkpt>
      <trkpt lat="41.793901" lon="22.986358">
        <ele>1288.8</ele>
        <time>2026-05-06T14:28:37.000Z</time>
      </trkpt>
      <trkpt lat="41.793906" lon="22.986369">
        <ele>1287.7</ele>
        <time>2026-05-06T14:28:38.000Z</time>
      </trkpt>
      <trkpt lat="41.793913" lon="22.986381">
        <ele>1287.7</ele>
        <time>2026-05-06T14:28:39.000Z</time>
      </trkpt>
      <trkpt lat="41.793917" lon="22.986392">
        <ele>1287.7</ele>
        <time>2026-05-06T14:28:40.000Z</time>
      </trkpt>
      <trkpt lat="41.793922" lon="22.986402">
        <ele>1287.7</ele>
        <time>2026-05-06T14:28:41.000Z</time>
      </trkpt>
      <trkpt lat="41.793924" lon="22.986413">
        <ele>1287.7</ele>
        <time>2026-05-06T14:28:42.000Z</time>
      </trkpt>
      <trkpt lat="41.793928" lon="22.986425">
        <ele>1287.3</ele>
        <time>2026-05-06T14:28:43.000Z</time>
      </trkpt>
      <trkpt lat="41.79393" lon="22.986436">
        <ele>1287.3</ele>
        <time>2026-05-06T14:28:44.000Z</time>
      </trkpt>
      <trkpt lat="41.793934" lon="22.986448">
        <ele>1287.3</ele>
        <time>2026-05-06T14:28:45.000Z</time>
      </trkpt>
      <trkpt lat="41.793938" lon="22.986462">
        <ele>1287.3</ele>
        <time>2026-05-06T14:28:46.000Z</time>
      </trkpt>
      <trkpt lat="41.793943" lon="22.986474">
        <ele>1287.3</ele>
        <time>2026-05-06T14:28:47.000Z</time>
      </trkpt>
      <trkpt lat="41.793946" lon="22.986487">
        <ele>1286.5</ele>
        <time>2026-05-06T14:28:48.000Z</time>
      </trkpt>
      <trkpt lat="41.793948" lon="22.986501">
        <ele>1286.5</ele>
        <time>2026-05-06T14:28:49.000Z</time>
      </trkpt>
      <trkpt lat="41.793946" lon="22.986516">
        <ele>1286.5</ele>
        <time>2026-05-06T14:28:50.000Z</time>
      </trkpt>
      <trkpt lat="41.793943" lon="22.98653">
        <ele>1286.5</ele>
        <time>2026-05-06T14:28:51.000Z</time>
      </trkpt>
      <trkpt lat="41.793939" lon="22.986546">
        <ele>1286.5</ele>
        <time>2026-05-06T14:28:52.000Z</time>
      </trkpt>
      <trkpt lat="41.793935" lon="22.986561">
        <ele>1285.9</ele>
        <time>2026-05-06T14:28:53.000Z</time>
      </trkpt>
      <trkpt lat="41.793932" lon="22.986576">
        <ele>1285.9</ele>
        <time>2026-05-06T14:28:54.000Z</time>
      </trkpt>
      <trkpt lat="41.793932" lon="22.986591">
        <ele>1285.9</ele>
        <time>2026-05-06T14:28:55.000Z</time>
      </trkpt>
      <trkpt lat="41.793932" lon="22.986605">
        <ele>1285.9</ele>
        <time>2026-05-06T14:28:56.000Z</time>
      </trkpt>
      <trkpt lat="41.793934" lon="22.986619">
        <ele>1285.9</ele>
        <time>2026-05-06T14:28:57.000Z</time>
      </trkpt>
      <trkpt lat="41.793936" lon="22.986634">
        <ele>1285.6</ele>
        <time>2026-05-06T14:28:58.000Z</time>
      </trkpt>
      <trkpt lat="41.793938" lon="22.986651">
        <ele>1285.6</ele>
        <time>2026-05-06T14:28:59.000Z</time>
      </trkpt>
      <trkpt lat="41.793937" lon="22.986667">
        <ele>1285.6</ele>
        <time>2026-05-06T14:29:00.000Z</time>
      </trkpt>
      <trkpt lat="41.793936" lon="22.986685">
        <ele>1285.6</ele>
        <time>2026-05-06T14:29:01.000Z</time>
      </trkpt>
      <trkpt lat="41.793934" lon="22.986701">
        <ele>1285.6</ele>
        <time>2026-05-06T14:29:02.000Z</time>
      </trkpt>
      <trkpt lat="41.793933" lon="22.986716">
        <ele>1284.8</ele>
        <time>2026-05-06T14:29:03.000Z</time>
      </trkpt>
      <trkpt lat="41.793933" lon="22.986732">
        <ele>1284.8</ele>
        <time>2026-05-06T14:29:04.000Z</time>
      </trkpt>
      <trkpt lat="41.793934" lon="22.986748">
        <ele>1284.8</ele>
        <time>2026-05-06T14:29:05.000Z</time>
      </trkpt>
      <trkpt lat="41.793935" lon="22.986765">
        <ele>1284.8</ele>
        <time>2026-05-06T14:29:06.000Z</time>
      </trkpt>
      <trkpt lat="41.793936" lon="22.986783">
        <ele>1284.8</ele>
        <time>2026-05-06T14:29:07.000Z</time>
      </trkpt>
      <trkpt lat="41.793936" lon="22.986802">
        <ele>1284.1</ele>
        <time>2026-05-06T14:29:08.000Z</time>
      </trkpt>
      <trkpt lat="41.793936" lon="22.98682">
        <ele>1284.1</ele>
        <time>2026-05-06T14:29:09.000Z</time>
      </trkpt>
      <trkpt lat="41.793937" lon="22.986839">
        <ele>1284.1</ele>
        <time>2026-05-06T14:29:10.000Z</time>
      </trkpt>
      <trkpt lat="41.793938" lon="22.986857">
        <ele>1284.1</ele>
        <time>2026-05-06T14:29:11.000Z</time>
      </trkpt>
      <trkpt lat="41.79394" lon="22.986874">
        <ele>1284.1</ele>
        <time>2026-05-06T14:29:12.000Z</time>
      </trkpt>
      <trkpt lat="41.793941" lon="22.986888">
        <ele>1283.8</ele>
        <time>2026-05-06T14:29:13.000Z</time>
      </trkpt>
      <trkpt lat="41.793942" lon="22.986897">
        <ele>1283.8</ele>
        <time>2026-05-06T14:29:14.000Z</time>
      </trkpt>
      <trkpt lat="41.793942" lon="22.986903">
        <ele>1283.8</ele>
        <time>2026-05-06T14:29:15.000Z</time>
      </trkpt>
      <trkpt lat="41.793944" lon="22.986909">
        <ele>1283.8</ele>
        <time>2026-05-06T14:29:16.000Z</time>
      </trkpt>
      <trkpt lat="41.793945" lon="22.986913">
        <ele>1283.8</ele>
        <time>2026-05-06T14:29:17.000Z</time>
      </trkpt>
      <trkpt lat="41.793948" lon="22.986919">
        <ele>1283</ele>
        <time>2026-05-06T14:29:18.000Z</time>
      </trkpt>
      <trkpt lat="41.793952" lon="22.986928">
        <ele>1283</ele>
        <time>2026-05-06T14:29:19.000Z</time>
      </trkpt>
      <trkpt lat="41.793956" lon="22.986936">
        <ele>1283</ele>
        <time>2026-05-06T14:29:20.000Z</time>
      </trkpt>
      <trkpt lat="41.793959" lon="22.986943">
        <ele>1283</ele>
        <time>2026-05-06T14:29:21.000Z</time>
      </trkpt>
      <trkpt lat="41.793962" lon="22.986948">
        <ele>1283</ele>
        <time>2026-05-06T14:29:22.000Z</time>
      </trkpt>
      <trkpt lat="41.793963" lon="22.986951">
        <ele>1282.1</ele>
        <time>2026-05-06T14:29:23.000Z</time>
      </trkpt>
      <trkpt lat="41.793963" lon="22.986951">
        <ele>1282.1</ele>
        <time>2026-05-06T14:29:24.000Z</time>
      </trkpt>
      <trkpt lat="41.793963" lon="22.986952">
        <ele>1282.1</ele>
        <time>2026-05-06T14:29:25.000Z</time>
      </trkpt>
      <trkpt lat="41.793963" lon="22.986951">
        <ele>1282.1</ele>
        <time>2026-05-06T14:29:26.000Z</time>
      </trkpt>
      <trkpt lat="41.793963" lon="22.986951">
        <ele>1282.1</ele>
        <time>2026-05-06T14:29:27.000Z</time>
      </trkpt>
      <trkpt lat="41.793963" lon="22.98695">
        <ele>1281.7</ele>
        <time>2026-05-06T14:29:28.000Z</time>
      </trkpt>
      <trkpt lat="41.793963" lon="22.98695">
        <ele>1281.7</ele>
        <time>2026-05-06T14:29:29.000Z</time>
      </trkpt>
      <trkpt lat="41.793962" lon="22.98695">
        <ele>1281.7</ele>
        <time>2026-05-06T14:29:30.000Z</time>
      </trkpt>
      <trkpt lat="41.793961" lon="22.986948">
        <ele>1281.7</ele>
        <time>2026-05-06T14:29:31.000Z</time>
      </trkpt>
      <trkpt lat="41.793962" lon="22.986946">
        <ele>1281.7</ele>
        <time>2026-05-06T14:29:32.000Z</time>
      </trkpt>
      <trkpt lat="41.793962" lon="22.986944">
        <ele>1281.2</ele>
        <time>2026-05-06T14:29:33.000Z</time>
      </trkpt>
      <trkpt lat="41.793962" lon="22.986942">
        <ele>1281.2</ele>
        <time>2026-05-06T14:29:34.000Z</time>
      </trkpt>
      <trkpt lat="41.793963" lon="22.986941">
        <ele>1281.2</ele>
        <time>2026-05-06T14:29:35.000Z</time>
      </trkpt>
      <trkpt lat="41.793965" lon="22.986942">
        <ele>1281.2</ele>
        <time>2026-05-06T14:29:36.000Z</time>
      </trkpt>
      <trkpt lat="41.793967" lon="22.986945">
        <ele>1281.2</ele>
        <time>2026-05-06T14:29:37.000Z</time>
      </trkpt>
      <trkpt lat="41.79397" lon="22.986949">
        <ele>1281</ele>
        <time>2026-05-06T14:29:38.000Z</time>
      </trkpt>
      <trkpt lat="41.793973" lon="22.986955">
        <ele>1281</ele>
        <time>2026-05-06T14:29:39.000Z</time>
      </trkpt>
      <trkpt lat="41.793977" lon="22.986963">
        <ele>1281</ele>
        <time>2026-05-06T14:29:40.000Z</time>
      </trkpt>
      <trkpt lat="41.793981" lon="22.986972">
        <ele>1281</ele>
        <time>2026-05-06T14:29:41.000Z</time>
      </trkpt>
      <trkpt lat="41.793984" lon="22.986983">
        <ele>1281</ele>
        <time>2026-05-06T14:29:42.000Z</time>
      </trkpt>
      <trkpt lat="41.793987" lon="22.986994">
        <ele>1280.9</ele>
        <time>2026-05-06T14:29:43.000Z</time>
      </trkpt>
      <trkpt lat="41.793991" lon="22.987004">
        <ele>1280.9</ele>
        <time>2026-05-06T14:29:44.000Z</time>
      </trkpt>
      <trkpt lat="41.793995" lon="22.987014">
        <ele>1280.9</ele>
        <time>2026-05-06T14:29:45.000Z</time>
      </trkpt>
      <trkpt lat="41.794" lon="22.987021">
        <ele>1280.9</ele>
        <time>2026-05-06T14:29:46.000Z</time>
      </trkpt>
      <trkpt lat="41.794005" lon="22.987027">
        <ele>1280.9</ele>
        <time>2026-05-06T14:29:47.000Z</time>
      </trkpt>
      <trkpt lat="41.794011" lon="22.987032">
        <ele>1280.4</ele>
        <time>2026-05-06T14:29:48.000Z</time>
      </trkpt>
      <trkpt lat="41.794018" lon="22.987037">
        <ele>1280.4</ele>
        <time>2026-05-06T14:29:49.000Z</time>
      </trkpt>
      <trkpt lat="41.794025" lon="22.987041">
        <ele>1280.4</ele>
        <time>2026-05-06T14:29:50.000Z</time>
      </trkpt>
      <trkpt lat="41.794033" lon="22.987043">
        <ele>1280.4</ele>
        <time>2026-05-06T14:29:51.000Z</time>
      </trkpt>
      <trkpt lat="41.794041" lon="22.987045">
        <ele>1280.4</ele>
        <time>2026-05-06T14:29:52.000Z</time>
      </trkpt>
      <trkpt lat="41.794049" lon="22.987049">
        <ele>1279.5</ele>
        <time>2026-05-06T14:29:53.000Z</time>
      </trkpt>
      <trkpt lat="41.794054" lon="22.987052">
        <ele>1279.5</ele>
        <time>2026-05-06T14:29:54.000Z</time>
      </trkpt>
      <trkpt lat="41.794057" lon="22.987057">
        <ele>1279.5</ele>
        <time>2026-05-06T14:29:55.000Z</time>
      </trkpt>
      <trkpt lat="41.794055" lon="22.987065">
        <ele>1279.5</ele>
        <time>2026-05-06T14:29:56.000Z</time>
      </trkpt>
      <trkpt lat="41.794051" lon="22.987072">
        <ele>1279.5</ele>
        <time>2026-05-06T14:29:57.000Z</time>
      </trkpt>
      <trkpt lat="41.794046" lon="22.987077">
        <ele>1279</ele>
        <time>2026-05-06T14:29:58.000Z</time>
      </trkpt>
      <trkpt lat="41.79404" lon="22.987084">
        <ele>1279</ele>
        <time>2026-05-06T14:29:59.000Z</time>
      </trkpt>
      <trkpt lat="41.794034" lon="22.987088">
        <ele>1279</ele>
        <time>2026-05-06T14:30:00.000Z</time>
      </trkpt>
      <trkpt lat="41.794031" lon="22.987092">
        <ele>1279</ele>
        <time>2026-05-06T14:30:01.000Z</time>
      </trkpt>
      <trkpt lat="41.794029" lon="22.987095">
        <ele>1279</ele>
        <time>2026-05-06T14:30:02.000Z</time>
      </trkpt>
      <trkpt lat="41.794027" lon="22.987098">
        <ele>1277.9</ele>
        <time>2026-05-06T14:30:03.000Z</time>
      </trkpt>
      <trkpt lat="41.794025" lon="22.9871">
        <ele>1277.9</ele>
        <time>2026-05-06T14:30:04.000Z</time>
      </trkpt>
      <trkpt lat="41.794025" lon="22.987103">
        <ele>1277.9</ele>
        <time>2026-05-06T14:30:05.000Z</time>
      </trkpt>
      <trkpt lat="41.794024" lon="22.987104">
        <ele>1277.9</ele>
        <time>2026-05-06T14:30:06.000Z</time>
      </trkpt>
      <trkpt lat="41.794022" lon="22.987106">
        <ele>1277.9</ele>
        <time>2026-05-06T14:30:07.000Z</time>
      </trkpt>
      <trkpt lat="41.794022" lon="22.987106">
        <ele>1277.4</ele>
        <time>2026-05-06T14:30:08.000Z</time>
      </trkpt>
      <trkpt lat="41.794022" lon="22.987107">
        <ele>1277.4</ele>
        <time>2026-05-06T14:30:09.000Z</time>
      </trkpt>
      <trkpt lat="41.794023" lon="22.987108">
        <ele>1277.4</ele>
        <time>2026-05-06T14:30:10.000Z</time>
      </trkpt>
      <trkpt lat="41.794025" lon="22.98711">
        <ele>1277.4</ele>
        <time>2026-05-06T14:30:11.000Z</time>
      </trkpt>
      <trkpt lat="41.794027" lon="22.987112">
        <ele>1277.4</ele>
        <time>2026-05-06T14:30:12.000Z</time>
      </trkpt>
      <trkpt lat="41.794029" lon="22.987115">
        <ele>1277.3</ele>
        <time>2026-05-06T14:30:13.000Z</time>
      </trkpt>
      <trkpt lat="41.794031" lon="22.987117">
        <ele>1277.3</ele>
        <time>2026-05-06T14:30:14.000Z</time>
      </trkpt>
      <trkpt lat="41.794032" lon="22.987119">
        <ele>1277.3</ele>
        <time>2026-05-06T14:30:15.000Z</time>
      </trkpt>
      <trkpt lat="41.794033" lon="22.987119">
        <ele>1277.3</ele>
        <time>2026-05-06T14:30:16.000Z</time>
      </trkpt>
      <trkpt lat="41.794033" lon="22.98712">
        <ele>1277.3</ele>
        <time>2026-05-06T14:30:17.000Z</time>
      </trkpt>
      <trkpt lat="41.794033" lon="22.98712">
        <ele>1277.5</ele>
        <time>2026-05-06T14:30:18.000Z</time>
      </trkpt>
      <trkpt lat="41.794032" lon="22.987119">
        <ele>1277.5</ele>
        <time>2026-05-06T14:30:19.000Z</time>
      </trkpt>
      <trkpt lat="41.794032" lon="22.987119">
        <ele>1277.5</ele>
        <time>2026-05-06T14:30:20.000Z</time>
      </trkpt>
      <trkpt lat="41.794031" lon="22.987119">
        <ele>1277.5</ele>
        <time>2026-05-06T14:30:21.000Z</time>
      </trkpt>
      <trkpt lat="41.794031" lon="22.987119">
        <ele>1277.5</ele>
        <time>2026-05-06T14:30:22.000Z</time>
      </trkpt>
      <trkpt lat="41.794031" lon="22.987119">
        <ele>1277.5</ele>
        <time>2026-05-06T14:30:23.000Z</time>
      </trkpt>
      <trkpt lat="41.794031" lon="22.987119">
        <ele>1277.5</ele>
        <time>2026-05-06T14:30:24.000Z</time>
      </trkpt>
      <trkpt lat="41.794031" lon="22.987119">
        <ele>1277.5</ele>
        <time>2026-05-06T14:30:25.000Z</time>
      </trkpt>
      <trkpt lat="41.794031" lon="22.987119">
        <ele>1277.5</ele>
        <time>2026-05-06T14:30:26.000Z</time>
      </trkpt>
      <trkpt lat="41.794031" lon="22.987119">
        <ele>1277.5</ele>
        <time>2026-05-06T14:30:27.000Z</time>
      </trkpt>
      <trkpt lat="41.794031" lon="22.987119">
        <ele>1277.5</ele>
        <time>2026-05-06T14:30:28.000Z</time>
      </trkpt>
      <trkpt lat="41.794031" lon="22.987119">
        <ele>1277.5</ele>
        <time>2026-05-06T14:30:29.000Z</time>
      </trkpt>
      <trkpt lat="41.794031" lon="22.987119">
        <ele>1277.5</ele>
        <time>2026-05-06T14:30:30.000Z</time>
      </trkpt>
      <trkpt lat="41.794031" lon="22.987119">
        <ele>1277.5</ele>
        <time>2026-05-06T14:30:31.000Z</time>
      </trkpt>
      <trkpt lat="41.794031" lon="22.987119">
        <ele>1277.5</ele>
        <time>2026-05-06T14:30:32.000Z</time>
      </trkpt>
      <trkpt lat="41.794031" lon="22.987119">
        <ele>1277.2</ele>
        <time>2026-05-06T14:30:33.000Z</time>
      </trkpt>
      <trkpt lat="41.794031" lon="22.987119">
        <ele>1277.2</ele>
        <time>2026-05-06T14:30:34.000Z</time>
      </trkpt>
      <trkpt lat="41.794031" lon="22.987119">
        <ele>1277.2</ele>
        <time>2026-05-06T14:30:35.000Z</time>
      </trkpt>
      <trkpt lat="41.794031" lon="22.987119">
        <ele>1277.2</ele>
        <time>2026-05-06T14:30:36.000Z</time>
      </trkpt>
      <trkpt lat="41.794031" lon="22.987119">
        <ele>1277.2</ele>
        <time>2026-05-06T14:30:37.000Z</time>
      </trkpt>
      <trkpt lat="41.794032" lon="22.987118">
        <ele>1277</ele>
        <time>2026-05-06T14:30:38.000Z</time>
      </trkpt>
      <trkpt lat="41.794032" lon="22.987117">
        <ele>1277</ele>
        <time>2026-05-06T14:30:39.000Z</time>
      </trkpt>
      <trkpt lat="41.794032" lon="22.987116">
        <ele>1277</ele>
        <time>2026-05-06T14:30:40.000Z</time>
      </trkpt>
      <trkpt lat="41.794032" lon="22.987115">
        <ele>1277</ele>
        <time>2026-05-06T14:30:41.000Z</time>
      </trkpt>
      <trkpt lat="41.794032" lon="22.987114">
        <ele>1277</ele>
        <time>2026-05-06T14:30:42.000Z</time>
      </trkpt>
      <trkpt lat="41.794032" lon="22.987113">
        <ele>1277</ele>
        <time>2026-05-06T14:30:43.000Z</time>
      </trkpt>
      <trkpt lat="41.794032" lon="22.987113">
        <ele>1277</ele>
        <time>2026-05-06T14:30:44.000Z</time>
      </trkpt>
      <trkpt lat="41.794032" lon="22.987113">
        <ele>1277</ele>
        <time>2026-05-06T14:30:45.000Z</time>
      </trkpt>
      <trkpt lat="41.794032" lon="22.987113">
        <ele>1277</ele>
        <time>2026-05-06T14:30:46.000Z</time>
      </trkpt>
      <trkpt lat="41.794032" lon="22.987113">
        <ele>1277</ele>
        <time>2026-05-06T14:30:47.000Z</time>
      </trkpt>
      <trkpt lat="41.794032" lon="22.987113">
        <ele>1277.1</ele>
        <time>2026-05-06T14:30:48.000Z</time>
      </trkpt>
      <trkpt lat="41.794032" lon="22.987113">
        <ele>1277.1</ele>
        <time>2026-05-06T14:30:49.000Z</time>
      </trkpt>
      <trkpt lat="41.794032" lon="22.987113">
        <ele>1277.1</ele>
        <time>2026-05-06T14:30:50.000Z</time>
      </trkpt>
      <trkpt lat="41.794032" lon="22.987113">
        <ele>1277.1</ele>
        <time>2026-05-06T14:30:51.000Z</time>
      </trkpt>
      <trkpt lat="41.794032" lon="22.987113">
        <ele>1277.1</ele>
        <time>2026-05-06T14:30:52.000Z</time>
      </trkpt>
      <trkpt lat="41.794032" lon="22.987113">
        <ele>1277.3</ele>
        <time>2026-05-06T14:30:53.000Z</time>
      </trkpt>
      <trkpt lat="41.794032" lon="22.987113">
        <ele>1277.3</ele>
        <time>2026-05-06T14:30:54.000Z</time>
      </trkpt>
      <trkpt lat="41.794033" lon="22.987113">
        <ele>1277.3</ele>
        <time>2026-05-06T14:30:55.000Z</time>
      </trkpt>
      <trkpt lat="41.794033" lon="22.987113">
        <ele>1277.3</ele>
        <time>2026-05-06T14:30:56.000Z</time>
      </trkpt>
      <trkpt lat="41.794034" lon="22.987113">
        <ele>1277.3</ele>
        <time>2026-05-06T14:30:57.000Z</time>
      </trkpt>
      <trkpt lat="41.794034" lon="22.987113">
        <ele>1277.3</ele>
        <time>2026-05-06T14:30:58.000Z</time>
      </trkpt>
      <trkpt lat="41.794034" lon="22.987113">
        <ele>1277.3</ele>
        <time>2026-05-06T14:30:59.000Z</time>
      </trkpt>
      <trkpt lat="41.794034" lon="22.987113">
        <ele>1277.3</ele>
        <time>2026-05-06T14:31:00.000Z</time>
      </trkpt>
      <trkpt lat="41.794034" lon="22.987112">
        <ele>1277.3</ele>
        <time>2026-05-06T14:31:01.000Z</time>
      </trkpt>
      <trkpt lat="41.794035" lon="22.987112">
        <ele>1277.3</ele>
        <time>2026-05-06T14:31:02.000Z</time>
      </trkpt>
      <trkpt lat="41.794035" lon="22.987112">
        <ele>1277.3</ele>
        <time>2026-05-06T14:31:03.000Z</time>
      </trkpt>
      <trkpt lat="41.794035" lon="22.987112">
        <ele>1277.3</ele>
        <time>2026-05-06T14:31:04.000Z</time>
      </trkpt>
      <trkpt lat="41.794035" lon="22.987112">
        <ele>1277.3</ele>
        <time>2026-05-06T14:31:05.000Z</time>
      </trkpt>
      <trkpt lat="41.794035" lon="22.987112">
        <ele>1277.3</ele>
        <time>2026-05-06T14:31:06.000Z</time>
      </trkpt>
      <trkpt lat="41.794035" lon="22.987112">
        <ele>1277.3</ele>
        <time>2026-05-06T14:31:07.000Z</time>
      </trkpt>
      <trkpt lat="41.794035" lon="22.987112">
        <ele>1277.4</ele>
        <time>2026-05-06T14:31:08.000Z</time>
      </trkpt>
      <trkpt lat="41.794035" lon="22.987112">
        <ele>1277.4</ele>
        <time>2026-05-06T14:31:09.000Z</time>
      </trkpt>
      <trkpt lat="41.794035" lon="22.987112">
        <ele>1277.4</ele>
        <time>2026-05-06T14:31:10.000Z</time>
      </trkpt>
      <trkpt lat="41.794036" lon="22.987111">
        <ele>1277.4</ele>
        <time>2026-05-06T14:31:11.000Z</time>
      </trkpt>
      <trkpt lat="41.794038" lon="22.987111">
        <ele>1277.4</ele>
        <time>2026-05-06T14:31:12.000Z</time>
      </trkpt>
      <trkpt lat="41.794041" lon="22.987113">
        <ele>1277.4</ele>
        <time>2026-05-06T14:31:13.000Z</time>
      </trkpt>
      <trkpt lat="41.794046" lon="22.987114">
        <ele>1277.4</ele>
        <time>2026-05-06T14:31:14.000Z</time>
      </trkpt>
      <trkpt lat="41.794054" lon="22.987115">
        <ele>1277.4</ele>
        <time>2026-05-06T14:31:15.000Z</time>
      </trkpt>
      <trkpt lat="41.794063" lon="22.987118">
        <ele>1277.4</ele>
        <time>2026-05-06T14:31:16.000Z</time>
      </trkpt>
      <trkpt lat="41.794073" lon="22.987119">
        <ele>1277.4</ele>
        <time>2026-05-06T14:31:17.000Z</time>
      </trkpt>
      <trkpt lat="41.794082" lon="22.987118">
        <ele>1277.4</ele>
        <time>2026-05-06T14:31:18.000Z</time>
      </trkpt>
      <trkpt lat="41.794091" lon="22.987119">
        <ele>1277.4</ele>
        <time>2026-05-06T14:31:19.000Z</time>
      </trkpt>
      <trkpt lat="41.7941" lon="22.98712">
        <ele>1277.4</ele>
        <time>2026-05-06T14:31:20.000Z</time>
      </trkpt>
      <trkpt lat="41.794108" lon="22.987122">
        <ele>1277.4</ele>
        <time>2026-05-06T14:31:21.000Z</time>
      </trkpt>
      <trkpt lat="41.794118" lon="22.987123">
        <ele>1277.4</ele>
        <time>2026-05-06T14:31:22.000Z</time>
      </trkpt>
      <trkpt lat="41.794128" lon="22.987122">
        <ele>1277.2</ele>
        <time>2026-05-06T14:31:23.000Z</time>
      </trkpt>
      <trkpt lat="41.794138" lon="22.98712">
        <ele>1277.2</ele>
        <time>2026-05-06T14:31:24.000Z</time>
      </trkpt>
      <trkpt lat="41.794147" lon="22.987116">
        <ele>1277.2</ele>
        <time>2026-05-06T14:31:25.000Z</time>
      </trkpt>
      <trkpt lat="41.794156" lon="22.987112">
        <ele>1277.2</ele>
        <time>2026-05-06T14:31:26.000Z</time>
      </trkpt>
      <trkpt lat="41.794164" lon="22.987108">
        <ele>1277.2</ele>
        <time>2026-05-06T14:31:27.000Z</time>
      </trkpt>
      <trkpt lat="41.794172" lon="22.987105">
        <ele>1277</ele>
        <time>2026-05-06T14:31:28.000Z</time>
      </trkpt>
      <trkpt lat="41.794177" lon="22.987103">
        <ele>1277</ele>
        <time>2026-05-06T14:31:29.000Z</time>
      </trkpt>
      <trkpt lat="41.794182" lon="22.987101">
        <ele>1277</ele>
        <time>2026-05-06T14:31:30.000Z</time>
      </trkpt>
      <trkpt lat="41.794184" lon="22.987101">
        <ele>1277</ele>
        <time>2026-05-06T14:31:31.000Z</time>
      </trkpt>
      <trkpt lat="41.794185" lon="22.987101">
        <ele>1277</ele>
        <time>2026-05-06T14:31:32.000Z</time>
      </trkpt>
      <trkpt lat="41.794185" lon="22.987101">
        <ele>1276.6</ele>
        <time>2026-05-06T14:31:33.000Z</time>
      </trkpt>
      <trkpt lat="41.794184" lon="22.987102">
        <ele>1276.6</ele>
        <time>2026-05-06T14:31:34.000Z</time>
      </trkpt>
      <trkpt lat="41.794183" lon="22.987107">
        <ele>1276.6</ele>
        <time>2026-05-06T14:31:35.000Z</time>
      </trkpt>
      <trkpt lat="41.794183" lon="22.98711">
        <ele>1276.6</ele>
        <time>2026-05-06T14:31:36.000Z</time>
      </trkpt>
      <trkpt lat="41.794184" lon="22.987111">
        <ele>1276.6</ele>
        <time>2026-05-06T14:31:37.000Z</time>
      </trkpt>
      <trkpt lat="41.794186" lon="22.987112">
        <ele>1276.2</ele>
        <time>2026-05-06T14:31:38.000Z</time>
      </trkpt>
      <trkpt lat="41.794189" lon="22.987111">
        <ele>1276.2</ele>
        <time>2026-05-06T14:31:39.000Z</time>
      </trkpt>
      <trkpt lat="41.794191" lon="22.987109">
        <ele>1276.2</ele>
        <time>2026-05-06T14:31:40.000Z</time>
      </trkpt>
      <trkpt lat="41.794194" lon="22.987106">
        <ele>1276.2</ele>
        <time>2026-05-06T14:31:41.000Z</time>
      </trkpt>
      <trkpt lat="41.794196" lon="22.987106">
        <ele>1276.2</ele>
        <time>2026-05-06T14:31:42.000Z</time>
      </trkpt>
      <trkpt lat="41.794198" lon="22.987107">
        <ele>1276.1</ele>
        <time>2026-05-06T14:31:43.000Z</time>
      </trkpt>
      <trkpt lat="41.7942" lon="22.98711">
        <ele>1276.1</ele>
        <time>2026-05-06T14:31:44.000Z</time>
      </trkpt>
      <trkpt lat="41.7942" lon="22.987112">
        <ele>1276.1</ele>
        <time>2026-05-06T14:31:45.000Z</time>
      </trkpt>
      <trkpt lat="41.7942" lon="22.987115">
        <ele>1276.1</ele>
        <time>2026-05-06T14:31:46.000Z</time>
      </trkpt>
      <trkpt lat="41.794199" lon="22.987119">
        <ele>1276.1</ele>
        <time>2026-05-06T14:31:47.000Z</time>
      </trkpt>
      <trkpt lat="41.794198" lon="22.987121">
        <ele>1276.1</ele>
        <time>2026-05-06T14:31:48.000Z</time>
      </trkpt>
      <trkpt lat="41.794198" lon="22.98712">
        <ele>1276.1</ele>
        <time>2026-05-06T14:31:49.000Z</time>
      </trkpt>
      <trkpt lat="41.794199" lon="22.98712">
        <ele>1276.1</ele>
        <time>2026-05-06T14:31:50.000Z</time>
      </trkpt>
      <trkpt lat="41.794201" lon="22.987119">
        <ele>1276.1</ele>
        <time>2026-05-06T14:31:51.000Z</time>
      </trkpt>
      <trkpt lat="41.794203" lon="22.987117">
        <ele>1276.1</ele>
        <time>2026-05-06T14:31:52.000Z</time>
      </trkpt>
      <trkpt lat="41.794206" lon="22.987114">
        <ele>1276.3</ele>
        <time>2026-05-06T14:31:53.000Z</time>
      </trkpt>
      <trkpt lat="41.794208" lon="22.987109">
        <ele>1276.3</ele>
        <time>2026-05-06T14:31:54.000Z</time>
      </trkpt>
      <trkpt lat="41.794211" lon="22.987105">
        <ele>1276.3</ele>
        <time>2026-05-06T14:31:55.000Z</time>
      </trkpt>
      <trkpt lat="41.794212" lon="22.987102">
        <ele>1276.3</ele>
        <time>2026-05-06T14:31:56.000Z</time>
      </trkpt>
      <trkpt lat="41.794212" lon="22.987099">
        <ele>1276.3</ele>
        <time>2026-05-06T14:31:57.000Z</time>
      </trkpt>
      <trkpt lat="41.794213" lon="22.987098">
        <ele>1276.3</ele>
        <time>2026-05-06T14:31:58.000Z</time>
      </trkpt>
      <trkpt lat="41.794214" lon="22.987099">
        <ele>1276.3</ele>
        <time>2026-05-06T14:31:59.000Z</time>
      </trkpt>
      <trkpt lat="41.794214" lon="22.987099">
        <ele>1276.3</ele>
        <time>2026-05-06T14:32:00.000Z</time>
      </trkpt>
      <trkpt lat="41.794215" lon="22.987098">
        <ele>1276.3</ele>
        <time>2026-05-06T14:32:01.000Z</time>
      </trkpt>
      <trkpt lat="41.794216" lon="22.987097">
        <ele>1276.3</ele>
        <time>2026-05-06T14:32:02.000Z</time>
      </trkpt>
      <trkpt lat="41.794217" lon="22.987095">
        <ele>1276.1</ele>
        <time>2026-05-06T14:32:03.000Z</time>
      </trkpt>
      <trkpt lat="41.794218" lon="22.987094">
        <ele>1276.1</ele>
        <time>2026-05-06T14:32:04.000Z</time>
      </trkpt>
      <trkpt lat="41.794219" lon="22.987093">
        <ele>1276.1</ele>
        <time>2026-05-06T14:32:05.000Z</time>
      </trkpt>
      <trkpt lat="41.794218" lon="22.987092">
        <ele>1276.1</ele>
        <time>2026-05-06T14:32:06.000Z</time>
      </trkpt>
      <trkpt lat="41.794214" lon="22.987092">
        <ele>1276.1</ele>
        <time>2026-05-06T14:32:07.000Z</time>
      </trkpt>
      <trkpt lat="41.794208" lon="22.987091">
        <ele>1275.9</ele>
        <time>2026-05-06T14:32:08.000Z</time>
      </trkpt>
      <trkpt lat="41.7942" lon="22.987089">
        <ele>1275.9</ele>
        <time>2026-05-06T14:32:09.000Z</time>
      </trkpt>
      <trkpt lat="41.794192" lon="22.987085">
        <ele>1275.9</ele>
        <time>2026-05-06T14:32:10.000Z</time>
      </trkpt>
      <trkpt lat="41.794185" lon="22.987081">
        <ele>1275.9</ele>
        <time>2026-05-06T14:32:11.000Z</time>
      </trkpt>
      <trkpt lat="41.794181" lon="22.987078">
        <ele>1275.9</ele>
        <time>2026-05-06T14:32:12.000Z</time>
      </trkpt>
      <trkpt lat="41.79418" lon="22.987079">
        <ele>1275.8</ele>
        <time>2026-05-06T14:32:13.000Z</time>
      </trkpt>
      <trkpt lat="41.794182" lon="22.987082">
        <ele>1275.8</ele>
        <time>2026-05-06T14:32:14.000Z</time>
      </trkpt>
      <trkpt lat="41.794185" lon="22.987088">
        <ele>1275.8</ele>
        <time>2026-05-06T14:32:15.000Z</time>
      </trkpt>
      <trkpt lat="41.794188" lon="22.987094">
        <ele>1275.8</ele>
        <time>2026-05-06T14:32:16.000Z</time>
      </trkpt>
      <trkpt lat="41.794189" lon="22.987099">
        <ele>1275.8</ele>
        <time>2026-05-06T14:32:17.000Z</time>
      </trkpt>
      <trkpt lat="41.79419" lon="22.987103">
        <ele>1275.8</ele>
        <time>2026-05-06T14:32:18.000Z</time>
      </trkpt>
      <trkpt lat="41.794189" lon="22.987106">
        <ele>1275.8</ele>
        <time>2026-05-06T14:32:19.000Z</time>
      </trkpt>
      <trkpt lat="41.794187" lon="22.987109">
        <ele>1275.8</ele>
        <time>2026-05-06T14:32:20.000Z</time>
      </trkpt>
      <trkpt lat="41.794186" lon="22.987113">
        <ele>1275.8</ele>
        <time>2026-05-06T14:32:21.000Z</time>
      </trkpt>
      <trkpt lat="41.794187" lon="22.987115">
        <ele>1275.8</ele>
        <time>2026-05-06T14:32:22.000Z</time>
      </trkpt>
      <trkpt lat="41.794188" lon="22.987115">
        <ele>1276</ele>
        <time>2026-05-06T14:32:23.000Z</time>
      </trkpt>
      <trkpt lat="41.794189" lon="22.987114">
        <ele>1276</ele>
        <time>2026-05-06T14:32:24.000Z</time>
      </trkpt>
      <trkpt lat="41.79419" lon="22.987114">
        <ele>1276</ele>
        <time>2026-05-06T14:32:25.000Z</time>
      </trkpt>
      <trkpt lat="41.794189" lon="22.987113">
        <ele>1276</ele>
        <time>2026-05-06T14:32:26.000Z</time>
      </trkpt>
      <trkpt lat="41.794187" lon="22.987112">
        <ele>1276</ele>
        <time>2026-05-06T14:32:27.000Z</time>
      </trkpt>
      <trkpt lat="41.794184" lon="22.987111">
        <ele>1276.1</ele>
        <time>2026-05-06T14:32:28.000Z</time>
      </trkpt>
      <trkpt lat="41.794182" lon="22.987112">
        <ele>1276.1</ele>
        <time>2026-05-06T14:32:29.000Z</time>
      </trkpt>
      <trkpt lat="41.794181" lon="22.987112">
        <ele>1276.1</ele>
        <time>2026-05-06T14:32:30.000Z</time>
      </trkpt>
      <trkpt lat="41.794182" lon="22.987114">
        <ele>1276.1</ele>
        <time>2026-05-06T14:32:31.000Z</time>
      </trkpt>
      <trkpt lat="41.794185" lon="22.987118">
        <ele>1276.1</ele>
        <time>2026-05-06T14:32:32.000Z</time>
      </trkpt>
      <trkpt lat="41.794189" lon="22.987122">
        <ele>1276.2</ele>
        <time>2026-05-06T14:32:33.000Z</time>
      </trkpt>
      <trkpt lat="41.794192" lon="22.987124">
        <ele>1276.2</ele>
        <time>2026-05-06T14:32:34.000Z</time>
      </trkpt>
      <trkpt lat="41.794194" lon="22.987125">
        <ele>1276.2</ele>
        <time>2026-05-06T14:32:35.000Z</time>
      </trkpt>
      <trkpt lat="41.794195" lon="22.987122">
        <ele>1276.2</ele>
        <time>2026-05-06T14:32:36.000Z</time>
      </trkpt>
      <trkpt lat="41.794195" lon="22.987119">
        <ele>1276.2</ele>
        <time>2026-05-06T14:32:37.000Z</time>
      </trkpt>
      <trkpt lat="41.794194" lon="22.987113">
        <ele>1276.1</ele>
        <time>2026-05-06T14:32:38.000Z</time>
      </trkpt>
      <trkpt lat="41.794193" lon="22.987106">
        <ele>1276.1</ele>
        <time>2026-05-06T14:32:39.000Z</time>
      </trkpt>
      <trkpt lat="41.794191" lon="22.987097">
        <ele>1276.1</ele>
        <time>2026-05-06T14:32:40.000Z</time>
      </trkpt>
      <trkpt lat="41.794189" lon="22.987089">
        <ele>1276.1</ele>
        <time>2026-05-06T14:32:41.000Z</time>
      </trkpt>
      <trkpt lat="41.794187" lon="22.987081">
        <ele>1276.1</ele>
        <time>2026-05-06T14:32:42.000Z</time>
      </trkpt>
      <trkpt lat="41.794187" lon="22.987074">
        <ele>1276.1</ele>
        <time>2026-05-06T14:32:43.000Z</time>
      </trkpt>
      <trkpt lat="41.794187" lon="22.987069">
        <ele>1276.1</ele>
        <time>2026-05-06T14:32:44.000Z</time>
      </trkpt>
      <trkpt lat="41.794189" lon="22.987068">
        <ele>1276.1</ele>
        <time>2026-05-06T14:32:45.000Z</time>
      </trkpt>
      <trkpt lat="41.794189" lon="22.987066">
        <ele>1276.1</ele>
        <time>2026-05-06T14:32:46.000Z</time>
      </trkpt>
      <trkpt lat="41.794189" lon="22.987066">
        <ele>1276.1</ele>
        <time>2026-05-06T14:32:47.000Z</time>
      </trkpt>
      <trkpt lat="41.794189" lon="22.987066">
        <ele>1276.1</ele>
        <time>2026-05-06T14:32:48.000Z</time>
      </trkpt>
      <trkpt lat="41.794189" lon="22.987066">
        <ele>1276.1</ele>
        <time>2026-05-06T14:32:49.000Z</time>
      </trkpt>
      <trkpt lat="41.794189" lon="22.987065">
        <ele>1276.1</ele>
        <time>2026-05-06T14:32:50.000Z</time>
      </trkpt>
      <trkpt lat="41.79419" lon="22.987065">
        <ele>1276.1</ele>
        <time>2026-05-06T14:32:51.000Z</time>
      </trkpt>
      <trkpt lat="41.794192" lon="22.987065">
        <ele>1276.1</ele>
        <time>2026-05-06T14:32:52.000Z</time>
      </trkpt>
      <trkpt lat="41.794194" lon="22.987065">
        <ele>1276.1</ele>
        <time>2026-05-06T14:32:53.000Z</time>
      </trkpt>
      <trkpt lat="41.794196" lon="22.987066">
        <ele>1276.1</ele>
        <time>2026-05-06T14:32:54.000Z</time>
      </trkpt>
      <trkpt lat="41.794197" lon="22.987066">
        <ele>1276.1</ele>
        <time>2026-05-06T14:32:55.000Z</time>
      </trkpt>
      <trkpt lat="41.794198" lon="22.987068">
        <ele>1276.1</ele>
        <time>2026-05-06T14:32:56.000Z</time>
      </trkpt>
      <trkpt lat="41.794198" lon="22.987069">
        <ele>1276.1</ele>
        <time>2026-05-06T14:32:57.000Z</time>
      </trkpt>
      <trkpt lat="41.794197" lon="22.98707">
        <ele>1276</ele>
        <time>2026-05-06T14:32:58.000Z</time>
      </trkpt>
      <trkpt lat="41.794196" lon="22.987071">
        <ele>1276</ele>
        <time>2026-05-06T14:32:59.000Z</time>
      </trkpt>
      <trkpt lat="41.794196" lon="22.987072">
        <ele>1276</ele>
        <time>2026-05-06T14:33:00.000Z</time>
      </trkpt>
      <trkpt lat="41.794196" lon="22.987072">
        <ele>1276</ele>
        <time>2026-05-06T14:33:01.000Z</time>
      </trkpt>
      <trkpt lat="41.794196" lon="22.987073">
        <ele>1276</ele>
        <time>2026-05-06T14:33:02.000Z</time>
      </trkpt>
      <trkpt lat="41.794196" lon="22.987073">
        <ele>1276</ele>
        <time>2026-05-06T14:33:03.000Z</time>
      </trkpt>
      <trkpt lat="41.794196" lon="22.987073">
        <ele>1276</ele>
        <time>2026-05-06T14:33:04.000Z</time>
      </trkpt>
      <trkpt lat="41.794197" lon="22.987074">
        <ele>1276</ele>
        <time>2026-05-06T14:33:05.000Z</time>
      </trkpt>
      <trkpt lat="41.7942" lon="22.987075">
        <ele>1276</ele>
        <time>2026-05-06T14:33:06.000Z</time>
      </trkpt>
      <trkpt lat="41.794204" lon="22.987076">
        <ele>1276</ele>
        <time>2026-05-06T14:33:07.000Z</time>
      </trkpt>
      <trkpt lat="41.794209" lon="22.987078">
        <ele>1276.1</ele>
        <time>2026-05-06T14:33:08.000Z</time>
      </trkpt>
      <trkpt lat="41.794213" lon="22.987079">
        <ele>1276.1</ele>
        <time>2026-05-06T14:33:09.000Z</time>
      </trkpt>
      <trkpt lat="41.794217" lon="22.98708">
        <ele>1276.1</ele>
        <time>2026-05-06T14:33:10.000Z</time>
      </trkpt>
      <trkpt lat="41.794219" lon="22.98708">
        <ele>1276.1</ele>
        <time>2026-05-06T14:33:11.000Z</time>
      </trkpt>
      <trkpt lat="41.794218" lon="22.987079">
        <ele>1276.1</ele>
        <time>2026-05-06T14:33:12.000Z</time>
      </trkpt>
      <trkpt lat="41.794218" lon="22.987077">
        <ele>1276.2</ele>
        <time>2026-05-06T14:33:13.000Z</time>
      </trkpt>
      <trkpt lat="41.794217" lon="22.987076">
        <ele>1276.2</ele>
        <time>2026-05-06T14:33:14.000Z</time>
      </trkpt>
      <trkpt lat="41.794216" lon="22.987076">
        <ele>1276.2</ele>
        <time>2026-05-06T14:33:15.000Z</time>
      </trkpt>
      <trkpt lat="41.794216" lon="22.987075">
        <ele>1276.2</ele>
        <time>2026-05-06T14:33:16.000Z</time>
      </trkpt>
      <trkpt lat="41.794216" lon="22.987075">
        <ele>1276.2</ele>
        <time>2026-05-06T14:33:17.000Z</time>
      </trkpt>
      <trkpt lat="41.794216" lon="22.987075">
        <ele>1276.2</ele>
        <time>2026-05-06T14:33:18.000Z</time>
      </trkpt>
      <trkpt lat="41.794216" lon="22.987076">
        <ele>1276.2</ele>
        <time>2026-05-06T14:33:19.000Z</time>
      </trkpt>
      <trkpt lat="41.794215" lon="22.987076">
        <ele>1276.2</ele>
        <time>2026-05-06T14:33:20.000Z</time>
      </trkpt>
      <trkpt lat="41.794215" lon="22.987076">
        <ele>1276.2</ele>
        <time>2026-05-06T14:33:21.000Z</time>
      </trkpt>
      <trkpt lat="41.794214" lon="22.987075">
        <ele>1276.2</ele>
        <time>2026-05-06T14:33:22.000Z</time>
      </trkpt>
      <trkpt lat="41.794213" lon="22.987074">
        <ele>1276.2</ele>
        <time>2026-05-06T14:33:23.000Z</time>
      </trkpt>
      <trkpt lat="41.794212" lon="22.987072">
        <ele>1276.2</ele>
        <time>2026-05-06T14:33:24.000Z</time>
      </trkpt>
      <trkpt lat="41.794213" lon="22.98707">
        <ele>1276.2</ele>
        <time>2026-05-06T14:33:25.000Z</time>
      </trkpt>
      <trkpt lat="41.794213" lon="22.987067">
        <ele>1276.2</ele>
        <time>2026-05-06T14:33:26.000Z</time>
      </trkpt>
      <trkpt lat="41.794214" lon="22.987066">
        <ele>1276.2</ele>
        <time>2026-05-06T14:33:27.000Z</time>
      </trkpt>
      <trkpt lat="41.794216" lon="22.987066">
        <ele>1276.2</ele>
        <time>2026-05-06T14:33:28.000Z</time>
      </trkpt>
      <trkpt lat="41.794217" lon="22.987065">
        <ele>1276.2</ele>
        <time>2026-05-06T14:33:29.000Z</time>
      </trkpt>
      <trkpt lat="41.794218" lon="22.987065">
        <ele>1276.2</ele>
        <time>2026-05-06T14:33:30.000Z</time>
      </trkpt>
      <trkpt lat="41.794218" lon="22.987065">
        <ele>1276.2</ele>
        <time>2026-05-06T14:33:31.000Z</time>
      </trkpt>
      <trkpt lat="41.794219" lon="22.987064">
        <ele>1276.2</ele>
        <time>2026-05-06T14:33:32.000Z</time>
      </trkpt>
      <trkpt lat="41.794219" lon="22.987062">
        <ele>1276.1</ele>
        <time>2026-05-06T14:33:33.000Z</time>
      </trkpt>
      <trkpt lat="41.794219" lon="22.987061">
        <ele>1276.1</ele>
        <time>2026-05-06T14:33:34.000Z</time>
      </trkpt>
      <trkpt lat="41.794219" lon="22.987059">
        <ele>1276.1</ele>
        <time>2026-05-06T14:33:35.000Z</time>
      </trkpt>
      <trkpt lat="41.79422" lon="22.987058">
        <ele>1276.1</ele>
        <time>2026-05-06T14:33:36.000Z</time>
      </trkpt>
      <trkpt lat="41.794221" lon="22.987057">
        <ele>1276.1</ele>
        <time>2026-05-06T14:33:37.000Z</time>
      </trkpt>
      <trkpt lat="41.794221" lon="22.987056">
        <ele>1276.1</ele>
        <time>2026-05-06T14:33:38.000Z</time>
      </trkpt>
      <trkpt lat="41.794222" lon="22.987055">
        <ele>1276.1</ele>
        <time>2026-05-06T14:33:39.000Z</time>
      </trkpt>
      <trkpt lat="41.794223" lon="22.987054">
        <ele>1276.1</ele>
        <time>2026-05-06T14:33:40.000Z</time>
      </trkpt>
      <trkpt lat="41.794223" lon="22.987053">
        <ele>1276.1</ele>
        <time>2026-05-06T14:33:41.000Z</time>
      </trkpt>
      <trkpt lat="41.794223" lon="22.987053">
        <ele>1276.1</ele>
        <time>2026-05-06T14:33:42.000Z</time>
      </trkpt>
      <trkpt lat="41.794223" lon="22.987053">
        <ele>1276</ele>
        <time>2026-05-06T14:33:43.000Z</time>
      </trkpt>
      <trkpt lat="41.794223" lon="22.987052">
        <ele>1276</ele>
        <time>2026-05-06T14:33:44.000Z</time>
      </trkpt>
      <trkpt lat="41.794223" lon="22.987052">
        <ele>1276</ele>
        <time>2026-05-06T14:33:45.000Z</time>
      </trkpt>
      <trkpt lat="41.794222" lon="22.987051">
        <ele>1276</ele>
        <time>2026-05-06T14:33:46.000Z</time>
      </trkpt>
      <trkpt lat="41.79422" lon="22.98705">
        <ele>1276</ele>
        <time>2026-05-06T14:33:47.000Z</time>
      </trkpt>
      <trkpt lat="41.794219" lon="22.987049">
        <ele>1275.9</ele>
        <time>2026-05-06T14:33:48.000Z</time>
      </trkpt>
      <trkpt lat="41.794218" lon="22.987049">
        <ele>1275.9</ele>
        <time>2026-05-06T14:33:49.000Z</time>
      </trkpt>
      <trkpt lat="41.794217" lon="22.987048">
        <ele>1275.9</ele>
        <time>2026-05-06T14:33:50.000Z</time>
      </trkpt>
      <trkpt lat="41.794217" lon="22.987049">
        <ele>1275.9</ele>
        <time>2026-05-06T14:33:51.000Z</time>
      </trkpt>
      <trkpt lat="41.794218" lon="22.98705">
        <ele>1275.9</ele>
        <time>2026-05-06T14:33:52.000Z</time>
      </trkpt>
      <trkpt lat="41.794219" lon="22.98705">
        <ele>1275.7</ele>
        <time>2026-05-06T14:33:53.000Z</time>
      </trkpt>
      <trkpt lat="41.79422" lon="22.98705">
        <ele>1275.7</ele>
        <time>2026-05-06T14:33:54.000Z</time>
      </trkpt>
      <trkpt lat="41.794221" lon="22.987051">
        <ele>1275.7</ele>
        <time>2026-05-06T14:33:55.000Z</time>
      </trkpt>
      <trkpt lat="41.794221" lon="22.987051">
        <ele>1275.7</ele>
        <time>2026-05-06T14:33:56.000Z</time>
      </trkpt>
      <trkpt lat="41.794221" lon="22.98705">
        <ele>1275.7</ele>
        <time>2026-05-06T14:33:57.000Z</time>
      </trkpt>
      <trkpt lat="41.794222" lon="22.98705">
        <ele>1275.7</ele>
        <time>2026-05-06T14:33:58.000Z</time>
      </trkpt>
      <trkpt lat="41.794222" lon="22.98705">
        <ele>1275.7</ele>
        <time>2026-05-06T14:33:59.000Z</time>
      </trkpt>
      <trkpt lat="41.794222" lon="22.98705">
        <ele>1275.7</ele>
        <time>2026-05-06T14:34:00.000Z</time>
      </trkpt>
      <trkpt lat="41.794222" lon="22.98705">
        <ele>1275.7</ele>
        <time>2026-05-06T14:34:01.000Z</time>
      </trkpt>
      <trkpt lat="41.794221" lon="22.98705">
        <ele>1275.7</ele>
        <time>2026-05-06T14:34:02.000Z</time>
      </trkpt>
      <trkpt lat="41.794221" lon="22.987051">
        <ele>1275.8</ele>
        <time>2026-05-06T14:34:03.000Z</time>
      </trkpt>
      <trkpt lat="41.794221" lon="22.987051">
        <ele>1275.8</ele>
        <time>2026-05-06T14:34:04.000Z</time>
      </trkpt>
      <trkpt lat="41.794221" lon="22.987052">
        <ele>1275.8</ele>
        <time>2026-05-06T14:34:05.000Z</time>
      </trkpt>
      <trkpt lat="41.794222" lon="22.987053">
        <ele>1275.8</ele>
        <time>2026-05-06T14:34:06.000Z</time>
      </trkpt>
      <trkpt lat="41.794222" lon="22.987053">
        <ele>1275.8</ele>
        <time>2026-05-06T14:34:07.000Z</time>
      </trkpt>
      <trkpt lat="41.794221" lon="22.987053">
        <ele>1275.9</ele>
        <time>2026-05-06T14:34:08.000Z</time>
      </trkpt>
      <trkpt lat="41.794221" lon="22.987053">
        <ele>1275.9</ele>
        <time>2026-05-06T14:34:09.000Z</time>
      </trkpt>
      <trkpt lat="41.794221" lon="22.987053">
        <ele>1275.9</ele>
        <time>2026-05-06T14:34:10.000Z</time>
      </trkpt>
      <trkpt lat="41.79422" lon="22.987055">
        <ele>1275.9</ele>
        <time>2026-05-06T14:34:11.000Z</time>
      </trkpt>
      <trkpt lat="41.79422" lon="22.987057">
        <ele>1275.9</ele>
        <time>2026-05-06T14:34:12.000Z</time>
      </trkpt>
      <trkpt lat="41.79422" lon="22.987058">
        <ele>1275.9</ele>
        <time>2026-05-06T14:34:13.000Z</time>
      </trkpt>
      <trkpt lat="41.79422" lon="22.98706">
        <ele>1275.9</ele>
        <time>2026-05-06T14:34:14.000Z</time>
      </trkpt>
      <trkpt lat="41.794222" lon="22.987062">
        <ele>1275.9</ele>
        <time>2026-05-06T14:34:15.000Z</time>
      </trkpt>
      <trkpt lat="41.794224" lon="22.987064">
        <ele>1275.9</ele>
        <time>2026-05-06T14:34:16.000Z</time>
      </trkpt>
      <trkpt lat="41.794227" lon="22.987065">
        <ele>1275.9</ele>
        <time>2026-05-06T14:34:17.000Z</time>
      </trkpt>
      <trkpt lat="41.794229" lon="22.987066">
        <ele>1275.9</ele>
        <time>2026-05-06T14:34:18.000Z</time>
      </trkpt>
      <trkpt lat="41.794231" lon="22.987067">
        <ele>1275.9</ele>
        <time>2026-05-06T14:34:19.000Z</time>
      </trkpt>
      <trkpt lat="41.794232" lon="22.987067">
        <ele>1275.9</ele>
        <time>2026-05-06T14:34:20.000Z</time>
      </trkpt>
      <trkpt lat="41.794232" lon="22.987066">
        <ele>1275.9</ele>
        <time>2026-05-06T14:34:21.000Z</time>
      </trkpt>
      <trkpt lat="41.794231" lon="22.987065">
        <ele>1275.9</ele>
        <time>2026-05-06T14:34:22.000Z</time>
      </trkpt>
      <trkpt lat="41.79423" lon="22.987063">
        <ele>1275.9</ele>
        <time>2026-05-06T14:34:23.000Z</time>
      </trkpt>
      <trkpt lat="41.794226" lon="22.987062">
        <ele>1275.9</ele>
        <time>2026-05-06T14:34:24.000Z</time>
      </trkpt>
      <trkpt lat="41.794224" lon="22.987061">
        <ele>1275.9</ele>
        <time>2026-05-06T14:34:25.000Z</time>
      </trkpt>
      <trkpt lat="41.79422" lon="22.98706">
        <ele>1275.9</ele>
        <time>2026-05-06T14:34:26.000Z</time>
      </trkpt>
      <trkpt lat="41.794219" lon="22.98706">
        <ele>1275.9</ele>
        <time>2026-05-06T14:34:27.000Z</time>
      </trkpt>
      <trkpt lat="41.794219" lon="22.98706">
        <ele>1275.8</ele>
        <time>2026-05-06T14:34:28.000Z</time>
      </trkpt>
      <trkpt lat="41.79422" lon="22.98706">
        <ele>1275.8</ele>
        <time>2026-05-06T14:34:29.000Z</time>
      </trkpt>
      <trkpt lat="41.794221" lon="22.98706">
        <ele>1275.8</ele>
        <time>2026-05-06T14:34:30.000Z</time>
      </trkpt>
      <trkpt lat="41.794223" lon="22.98706">
        <ele>1275.8</ele>
        <time>2026-05-06T14:34:31.000Z</time>
      </trkpt>
      <trkpt lat="41.794225" lon="22.98706">
        <ele>1275.8</ele>
        <time>2026-05-06T14:34:32.000Z</time>
      </trkpt>
      <trkpt lat="41.794227" lon="22.987061">
        <ele>1275.7</ele>
        <time>2026-05-06T14:34:33.000Z</time>
      </trkpt>
      <trkpt lat="41.794228" lon="22.987061">
        <ele>1275.7</ele>
        <time>2026-05-06T14:34:34.000Z</time>
      </trkpt>
      <trkpt lat="41.794229" lon="22.987061">
        <ele>1275.7</ele>
        <time>2026-05-06T14:34:35.000Z</time>
      </trkpt>
      <trkpt lat="41.79423" lon="22.987062">
        <ele>1275.7</ele>
        <time>2026-05-06T14:34:36.000Z</time>
      </trkpt>
      <trkpt lat="41.79423" lon="22.987062">
        <ele>1275.7</ele>
        <time>2026-05-06T14:34:37.000Z</time>
      </trkpt>
      <trkpt lat="41.794228" lon="22.987062">
        <ele>1275.7</ele>
        <time>2026-05-06T14:34:38.000Z</time>
      </trkpt>
      <trkpt lat="41.794227" lon="22.987062">
        <ele>1275.7</ele>
        <time>2026-05-06T14:34:39.000Z</time>
      </trkpt>
      <trkpt lat="41.794226" lon="22.987062">
        <ele>1275.7</ele>
        <time>2026-05-06T14:34:40.000Z</time>
      </trkpt>
      <trkpt lat="41.794224" lon="22.987059">
        <ele>1275.7</ele>
        <time>2026-05-06T14:34:41.000Z</time>
      </trkpt>
      <trkpt lat="41.794223" lon="22.987057">
        <ele>1275.7</ele>
        <time>2026-05-06T14:34:42.000Z</time>
      </trkpt>
      <trkpt lat="41.794222" lon="22.987056">
        <ele>1275.7</ele>
        <time>2026-05-06T14:34:43.000Z</time>
      </trkpt>
      <trkpt lat="41.794221" lon="22.987055">
        <ele>1275.7</ele>
        <time>2026-05-06T14:34:44.000Z</time>
      </trkpt>
      <trkpt lat="41.794219" lon="22.987054">
        <ele>1275.7</ele>
        <time>2026-05-06T14:34:45.000Z</time>
      </trkpt>
      <trkpt lat="41.79422" lon="22.987055">
        <ele>1275.7</ele>
        <time>2026-05-06T14:34:46.000Z</time>
      </trkpt>
      <trkpt lat="41.794221" lon="22.987056">
        <ele>1275.7</ele>
        <time>2026-05-06T14:34:47.000Z</time>
      </trkpt>
      <trkpt lat="41.794221" lon="22.987056">
        <ele>1275.9</ele>
        <time>2026-05-06T14:34:48.000Z</time>
      </trkpt>
      <trkpt lat="41.794222" lon="22.987058">
        <ele>1275.9</ele>
        <time>2026-05-06T14:34:49.000Z</time>
      </trkpt>
      <trkpt lat="41.794224" lon="22.98706">
        <ele>1275.9</ele>
        <time>2026-05-06T14:34:50.000Z</time>
      </trkpt>
      <trkpt lat="41.794225" lon="22.987061">
        <ele>1275.9</ele>
        <time>2026-05-06T14:34:51.000Z</time>
      </trkpt>
      <trkpt lat="41.794225" lon="22.987062">
        <ele>1275.9</ele>
        <time>2026-05-06T14:34:52.000Z</time>
      </trkpt>
      <trkpt lat="41.794225" lon="22.987064">
        <ele>1275.8</ele>
        <time>2026-05-06T14:34:53.000Z</time>
      </trkpt>
      <trkpt lat="41.794225" lon="22.987064">
        <ele>1275.8</ele>
        <time>2026-05-06T14:34:54.000Z</time>
      </trkpt>
      <trkpt lat="41.794225" lon="22.987065">
        <ele>1275.8</ele>
        <time>2026-05-06T14:34:55.000Z</time>
      </trkpt>
      <trkpt lat="41.794225" lon="22.987066">
        <ele>1275.8</ele>
        <time>2026-05-06T14:34:56.000Z</time>
      </trkpt>
      <trkpt lat="41.794226" lon="22.987066">
        <ele>1275.8</ele>
        <time>2026-05-06T14:34:57.000Z</time>
      </trkpt>
      <trkpt lat="41.794227" lon="22.987067">
        <ele>1275.7</ele>
        <time>2026-05-06T14:34:58.000Z</time>
      </trkpt>
      <trkpt lat="41.794227" lon="22.98707">
        <ele>1275.7</ele>
        <time>2026-05-06T14:34:59.000Z</time>
      </trkpt>
      <trkpt lat="41.794227" lon="22.987072">
        <ele>1275.7</ele>
        <time>2026-05-06T14:35:00.000Z</time>
      </trkpt>
      <trkpt lat="41.794227" lon="22.987074">
        <ele>1275.7</ele>
        <time>2026-05-06T14:35:01.000Z</time>
      </trkpt>
      <trkpt lat="41.794228" lon="22.987077">
        <ele>1275.7</ele>
        <time>2026-05-06T14:35:02.000Z</time>
      </trkpt>
      <trkpt lat="41.794229" lon="22.987079">
        <ele>1275.6</ele>
        <time>2026-05-06T14:35:03.000Z</time>
      </trkpt>
      <trkpt lat="41.794231" lon="22.98708">
        <ele>1275.6</ele>
        <time>2026-05-06T14:35:04.000Z</time>
      </trkpt>
      <trkpt lat="41.794233" lon="22.987081">
        <ele>1275.6</ele>
        <time>2026-05-06T14:35:05.000Z</time>
      </trkpt>
      <trkpt lat="41.794235" lon="22.987082">
        <ele>1275.6</ele>
        <time>2026-05-06T14:35:06.000Z</time>
      </trkpt>
      <trkpt lat="41.794237" lon="22.987084">
        <ele>1275.6</ele>
        <time>2026-05-06T14:35:07.000Z</time>
      </trkpt>
      <trkpt lat="41.794238" lon="22.987086">
        <ele>1275.9</ele>
        <time>2026-05-06T14:35:08.000Z</time>
      </trkpt>
      <trkpt lat="41.794239" lon="22.987089">
        <ele>1275.9</ele>
        <time>2026-05-06T14:35:09.000Z</time>
      </trkpt>
      <trkpt lat="41.794241" lon="22.987093">
        <ele>1275.9</ele>
        <time>2026-05-06T14:35:10.000Z</time>
      </trkpt>
      <trkpt lat="41.794244" lon="22.9871">
        <ele>1275.9</ele>
        <time>2026-05-06T14:35:11.000Z</time>
      </trkpt>
      <trkpt lat="41.794247" lon="22.987106">
        <ele>1275.9</ele>
        <time>2026-05-06T14:35:12.000Z</time>
      </trkpt>
      <trkpt lat="41.794251" lon="22.987114">
        <ele>1276</ele>
        <time>2026-05-06T14:35:13.000Z</time>
      </trkpt>
      <trkpt lat="41.794255" lon="22.98712">
        <ele>1276</ele>
        <time>2026-05-06T14:35:14.000Z</time>
      </trkpt>
      <trkpt lat="41.794259" lon="22.987126">
        <ele>1276</ele>
        <time>2026-05-06T14:35:15.000Z</time>
      </trkpt>
      <trkpt lat="41.794262" lon="22.987127">
        <ele>1276</ele>
        <time>2026-05-06T14:35:16.000Z</time>
      </trkpt>
      <trkpt lat="41.794266" lon="22.987126">
        <ele>1276</ele>
        <time>2026-05-06T14:35:17.000Z</time>
      </trkpt>
      <trkpt lat="41.79427" lon="22.98712">
        <ele>1276</ele>
        <time>2026-05-06T14:35:18.000Z</time>
      </trkpt>
      <trkpt lat="41.794274" lon="22.987116">
        <ele>1276</ele>
        <time>2026-05-06T14:35:19.000Z</time>
      </trkpt>
      <trkpt lat="41.794279" lon="22.987111">
        <ele>1276</ele>
        <time>2026-05-06T14:35:20.000Z</time>
      </trkpt>
      <trkpt lat="41.794284" lon="22.987109">
        <ele>1276</ele>
        <time>2026-05-06T14:35:21.000Z</time>
      </trkpt>
      <trkpt lat="41.794289" lon="22.987108">
        <ele>1276</ele>
        <time>2026-05-06T14:35:22.000Z</time>
      </trkpt>
      <trkpt lat="41.794293" lon="22.987108">
        <ele>1276</ele>
        <time>2026-05-06T14:35:23.000Z</time>
      </trkpt>
      <trkpt lat="41.794297" lon="22.987108">
        <ele>1276</ele>
        <time>2026-05-06T14:35:24.000Z</time>
      </trkpt>
      <trkpt lat="41.794299" lon="22.987109">
        <ele>1276</ele>
        <time>2026-05-06T14:35:25.000Z</time>
      </trkpt>
      <trkpt lat="41.794301" lon="22.987108">
        <ele>1276</ele>
        <time>2026-05-06T14:35:26.000Z</time>
      </trkpt>
      <trkpt lat="41.7943" lon="22.987106">
        <ele>1276</ele>
        <time>2026-05-06T14:35:27.000Z</time>
      </trkpt>
      <trkpt lat="41.794298" lon="22.987105">
        <ele>1276.1</ele>
        <time>2026-05-06T14:35:28.000Z</time>
      </trkpt>
      <trkpt lat="41.794295" lon="22.987105">
        <ele>1276.1</ele>
        <time>2026-05-06T14:35:29.000Z</time>
      </trkpt>
      <trkpt lat="41.794293" lon="22.987104">
        <ele>1276.1</ele>
        <time>2026-05-06T14:35:30.000Z</time>
      </trkpt>
      <trkpt lat="41.794293" lon="22.987105">
        <ele>1276.1</ele>
        <time>2026-05-06T14:35:31.000Z</time>
      </trkpt>
      <trkpt lat="41.794293" lon="22.987104">
        <ele>1276.1</ele>
        <time>2026-05-06T14:35:32.000Z</time>
      </trkpt>
      <trkpt lat="41.794294" lon="22.987103">
        <ele>1276.7</ele>
        <time>2026-05-06T14:35:33.000Z</time>
      </trkpt>
      <trkpt lat="41.794295" lon="22.987102">
        <ele>1276.7</ele>
        <time>2026-05-06T14:35:34.000Z</time>
      </trkpt>
      <trkpt lat="41.794296" lon="22.987101">
        <ele>1276.7</ele>
        <time>2026-05-06T14:35:35.000Z</time>
      </trkpt>
      <trkpt lat="41.794295" lon="22.9871">
        <ele>1276.7</ele>
        <time>2026-05-06T14:35:36.000Z</time>
      </trkpt>
      <trkpt lat="41.794295" lon="22.9871">
        <ele>1276.7</ele>
        <time>2026-05-06T14:35:37.000Z</time>
      </trkpt>
      <trkpt lat="41.794294" lon="22.987101">
        <ele>1276.9</ele>
        <time>2026-05-06T14:35:38.000Z</time>
      </trkpt>
      <trkpt lat="41.794293" lon="22.987101">
        <ele>1276.9</ele>
        <time>2026-05-06T14:35:39.000Z</time>
      </trkpt>
      <trkpt lat="41.794292" lon="22.987101">
        <ele>1276.9</ele>
        <time>2026-05-06T14:35:40.000Z</time>
      </trkpt>
      <trkpt lat="41.794291" lon="22.987101">
        <ele>1276.9</ele>
        <time>2026-05-06T14:35:41.000Z</time>
      </trkpt>
      <trkpt lat="41.79429" lon="22.9871">
        <ele>1276.9</ele>
        <time>2026-05-06T14:35:42.000Z</time>
      </trkpt>
      <trkpt lat="41.794289" lon="22.987099">
        <ele>1276.9</ele>
        <time>2026-05-06T14:35:43.000Z</time>
      </trkpt>
      <trkpt lat="41.794289" lon="22.987096">
        <ele>1276.9</ele>
        <time>2026-05-06T14:35:44.000Z</time>
      </trkpt>
      <trkpt lat="41.794289" lon="22.987092">
        <ele>1276.9</ele>
        <time>2026-05-06T14:35:45.000Z</time>
      </trkpt>
      <trkpt lat="41.794292" lon="22.987088">
        <ele>1276.9</ele>
        <time>2026-05-06T14:35:46.000Z</time>
      </trkpt>
      <trkpt lat="41.794296" lon="22.987083">
        <ele>1276.9</ele>
        <time>2026-05-06T14:35:47.000Z</time>
      </trkpt>
      <trkpt lat="41.794301" lon="22.987077">
        <ele>1276.9</ele>
        <time>2026-05-06T14:35:48.000Z</time>
      </trkpt>
      <trkpt lat="41.794308" lon="22.987072">
        <ele>1276.9</ele>
        <time>2026-05-06T14:35:49.000Z</time>
      </trkpt>
      <trkpt lat="41.794315" lon="22.987067">
        <ele>1276.9</ele>
        <time>2026-05-06T14:35:50.000Z</time>
      </trkpt>
      <trkpt lat="41.794322" lon="22.987062">
        <ele>1276.9</ele>
        <time>2026-05-06T14:35:51.000Z</time>
      </trkpt>
      <trkpt lat="41.794329" lon="22.987058">
        <ele>1276.9</ele>
        <time>2026-05-06T14:35:52.000Z</time>
      </trkpt>
      <trkpt lat="41.794337" lon="22.987054">
        <ele>1276.6</ele>
        <time>2026-05-06T14:35:53.000Z</time>
      </trkpt>
      <trkpt lat="41.794344" lon="22.987048">
        <ele>1276.6</ele>
        <time>2026-05-06T14:35:54.000Z</time>
      </trkpt>
      <trkpt lat="41.794352" lon="22.987043">
        <ele>1276.6</ele>
        <time>2026-05-06T14:35:55.000Z</time>
      </trkpt>
      <trkpt lat="41.794362" lon="22.987038">
        <ele>1276.6</ele>
        <time>2026-05-06T14:35:56.000Z</time>
      </trkpt>
      <trkpt lat="41.794374" lon="22.987035">
        <ele>1276.6</ele>
        <time>2026-05-06T14:35:57.000Z</time>
      </trkpt>
      <trkpt lat="41.794388" lon="22.987032">
        <ele>1276.4</ele>
        <time>2026-05-06T14:35:58.000Z</time>
      </trkpt>
      <trkpt lat="41.794404" lon="22.987029">
        <ele>1276.4</ele>
        <time>2026-05-06T14:35:59.000Z</time>
      </trkpt>
      <trkpt lat="41.794418" lon="22.987027">
        <ele>1276.4</ele>
        <time>2026-05-06T14:36:00.000Z</time>
      </trkpt>
      <trkpt lat="41.794433" lon="22.987024">
        <ele>1276.4</ele>
        <time>2026-05-06T14:36:01.000Z</time>
      </trkpt>
      <trkpt lat="41.794447" lon="22.987021">
        <ele>1276.4</ele>
        <time>2026-05-06T14:36:02.000Z</time>
      </trkpt>
      <trkpt lat="41.794461" lon="22.987019">
        <ele>1275.7</ele>
        <time>2026-05-06T14:36:03.000Z</time>
      </trkpt>
      <trkpt lat="41.794474" lon="22.987018">
        <ele>1275.7</ele>
        <time>2026-05-06T14:36:04.000Z</time>
      </trkpt>
      <trkpt lat="41.794488" lon="22.987019">
        <ele>1275.7</ele>
        <time>2026-05-06T14:36:05.000Z</time>
      </trkpt>
      <trkpt lat="41.794503" lon="22.987019">
        <ele>1275.7</ele>
        <time>2026-05-06T14:36:06.000Z</time>
      </trkpt>
      <trkpt lat="41.794517" lon="22.987021">
        <ele>1275.7</ele>
        <time>2026-05-06T14:36:07.000Z</time>
      </trkpt>
      <trkpt lat="41.794531" lon="22.987023">
        <ele>1274.8</ele>
        <time>2026-05-06T14:36:08.000Z</time>
      </trkpt>
      <trkpt lat="41.794546" lon="22.987026">
        <ele>1274.8</ele>
        <time>2026-05-06T14:36:09.000Z</time>
      </trkpt>
      <trkpt lat="41.79456" lon="22.987028">
        <ele>1274.8</ele>
        <time>2026-05-06T14:36:10.000Z</time>
      </trkpt>
      <trkpt lat="41.794574" lon="22.987031">
        <ele>1274.8</ele>
        <time>2026-05-06T14:36:11.000Z</time>
      </trkpt>
      <trkpt lat="41.794587" lon="22.987034">
        <ele>1274.8</ele>
        <time>2026-05-06T14:36:12.000Z</time>
      </trkpt>
      <trkpt lat="41.794599" lon="22.987037">
        <ele>1274.3</ele>
        <time>2026-05-06T14:36:13.000Z</time>
      </trkpt>
      <trkpt lat="41.794611" lon="22.987041">
        <ele>1274.3</ele>
        <time>2026-05-06T14:36:14.000Z</time>
      </trkpt>
      <trkpt lat="41.794621" lon="22.987046">
        <ele>1274.3</ele>
        <time>2026-05-06T14:36:15.000Z</time>
      </trkpt>
      <trkpt lat="41.794632" lon="22.987049">
        <ele>1274.3</ele>
        <time>2026-05-06T14:36:16.000Z</time>
      </trkpt>
      <trkpt lat="41.794642" lon="22.987053">
        <ele>1274.3</ele>
        <time>2026-05-06T14:36:17.000Z</time>
      </trkpt>
      <trkpt lat="41.794653" lon="22.987056">
        <ele>1273.4</ele>
        <time>2026-05-06T14:36:18.000Z</time>
      </trkpt>
      <trkpt lat="41.794663" lon="22.987056">
        <ele>1273.4</ele>
        <time>2026-05-06T14:36:19.000Z</time>
      </trkpt>
      <trkpt lat="41.794674" lon="22.987056">
        <ele>1273.4</ele>
        <time>2026-05-06T14:36:20.000Z</time>
      </trkpt>
      <trkpt lat="41.794685" lon="22.987055">
        <ele>1273.4</ele>
        <time>2026-05-06T14:36:21.000Z</time>
      </trkpt>
      <trkpt lat="41.794697" lon="22.987052">
        <ele>1273.4</ele>
        <time>2026-05-06T14:36:22.000Z</time>
      </trkpt>
      <trkpt lat="41.79471" lon="22.987048">
        <ele>1272.5</ele>
        <time>2026-05-06T14:36:23.000Z</time>
      </trkpt>
      <trkpt lat="41.794723" lon="22.987043">
        <ele>1272.5</ele>
        <time>2026-05-06T14:36:24.000Z</time>
      </trkpt>
      <trkpt lat="41.794738" lon="22.987039">
        <ele>1272.5</ele>
        <time>2026-05-06T14:36:25.000Z</time>
      </trkpt>
      <trkpt lat="41.794753" lon="22.987035">
        <ele>1272.5</ele>
        <time>2026-05-06T14:36:26.000Z</time>
      </trkpt>
      <trkpt lat="41.794769" lon="22.987031">
        <ele>1272.5</ele>
        <time>2026-05-06T14:36:27.000Z</time>
      </trkpt>
      <trkpt lat="41.794784" lon="22.987028">
        <ele>1271.9</ele>
        <time>2026-05-06T14:36:28.000Z</time>
      </trkpt>
      <trkpt lat="41.794798" lon="22.987024">
        <ele>1271.9</ele>
        <time>2026-05-06T14:36:29.000Z</time>
      </trkpt>
      <trkpt lat="41.794811" lon="22.98702">
        <ele>1271.9</ele>
        <time>2026-05-06T14:36:30.000Z</time>
      </trkpt>
      <trkpt lat="41.794823" lon="22.987016">
        <ele>1271.9</ele>
        <time>2026-05-06T14:36:31.000Z</time>
      </trkpt>
      <trkpt lat="41.794835" lon="22.987012">
        <ele>1271.9</ele>
        <time>2026-05-06T14:36:32.000Z</time>
      </trkpt>
      <trkpt lat="41.794846" lon="22.987008">
        <ele>1270.9</ele>
        <time>2026-05-06T14:36:33.000Z</time>
      </trkpt>
      <trkpt lat="41.794858" lon="22.987005">
        <ele>1270.9</ele>
        <time>2026-05-06T14:36:34.000Z</time>
      </trkpt>
      <trkpt lat="41.79487" lon="22.987">
        <ele>1270.9</ele>
        <time>2026-05-06T14:36:35.000Z</time>
      </trkpt>
      <trkpt lat="41.794882" lon="22.986994">
        <ele>1270.9</ele>
        <time>2026-05-06T14:36:36.000Z</time>
      </trkpt>
      <trkpt lat="41.794894" lon="22.986988">
        <ele>1270.9</ele>
        <time>2026-05-06T14:36:37.000Z</time>
      </trkpt>
      <trkpt lat="41.794906" lon="22.986981">
        <ele>1270.2</ele>
        <time>2026-05-06T14:36:38.000Z</time>
      </trkpt>
      <trkpt lat="41.794917" lon="22.986973">
        <ele>1270.2</ele>
        <time>2026-05-06T14:36:39.000Z</time>
      </trkpt>
      <trkpt lat="41.79493" lon="22.986965">
        <ele>1270.2</ele>
        <time>2026-05-06T14:36:40.000Z</time>
      </trkpt>
      <trkpt lat="41.794941" lon="22.986956">
        <ele>1270.2</ele>
        <time>2026-05-06T14:36:41.000Z</time>
      </trkpt>
      <trkpt lat="41.794953" lon="22.986947">
        <ele>1270.2</ele>
        <time>2026-05-06T14:36:42.000Z</time>
      </trkpt>
      <trkpt lat="41.794963" lon="22.986935">
        <ele>1270</ele>
        <time>2026-05-06T14:36:43.000Z</time>
      </trkpt>
      <trkpt lat="41.794973" lon="22.986923">
        <ele>1270</ele>
        <time>2026-05-06T14:36:44.000Z</time>
      </trkpt>
      <trkpt lat="41.794983" lon="22.98691">
        <ele>1270</ele>
        <time>2026-05-06T14:36:45.000Z</time>
      </trkpt>
      <trkpt lat="41.794993" lon="22.986896">
        <ele>1270</ele>
        <time>2026-05-06T14:36:46.000Z</time>
      </trkpt>
      <trkpt lat="41.795003" lon="22.986883">
        <ele>1270</ele>
        <time>2026-05-06T14:36:47.000Z</time>
      </trkpt>
      <trkpt lat="41.795015" lon="22.98687">
        <ele>1269.5</ele>
        <time>2026-05-06T14:36:48.000Z</time>
      </trkpt>
      <trkpt lat="41.795026" lon="22.986857">
        <ele>1269.5</ele>
        <time>2026-05-06T14:36:49.000Z</time>
      </trkpt>
      <trkpt lat="41.795036" lon="22.986845">
        <ele>1269.5</ele>
        <time>2026-05-06T14:36:50.000Z</time>
      </trkpt>
      <trkpt lat="41.795046" lon="22.986833">
        <ele>1269.5</ele>
        <time>2026-05-06T14:36:51.000Z</time>
      </trkpt>
      <trkpt lat="41.795056" lon="22.986821">
        <ele>1269.5</ele>
        <time>2026-05-06T14:36:52.000Z</time>
      </trkpt>
      <trkpt lat="41.795065" lon="22.986811">
        <ele>1268.5</ele>
        <time>2026-05-06T14:36:53.000Z</time>
      </trkpt>
      <trkpt lat="41.795074" lon="22.986803">
        <ele>1268.5</ele>
        <time>2026-05-06T14:36:54.000Z</time>
      </trkpt>
      <trkpt lat="41.795083" lon="22.986795">
        <ele>1268.5</ele>
        <time>2026-05-06T14:36:55.000Z</time>
      </trkpt>
      <trkpt lat="41.795091" lon="22.986787">
        <ele>1268.5</ele>
        <time>2026-05-06T14:36:56.000Z</time>
      </trkpt>
      <trkpt lat="41.795098" lon="22.986779">
        <ele>1268.5</ele>
        <time>2026-05-06T14:36:57.000Z</time>
      </trkpt>
      <trkpt lat="41.795104" lon="22.98677">
        <ele>1267.7</ele>
        <time>2026-05-06T14:36:58.000Z</time>
      </trkpt>
      <trkpt lat="41.79511" lon="22.986762">
        <ele>1267.7</ele>
        <time>2026-05-06T14:36:59.000Z</time>
      </trkpt>
      <trkpt lat="41.795116" lon="22.986753">
        <ele>1267.7</ele>
        <time>2026-05-06T14:37:00.000Z</time>
      </trkpt>
      <trkpt lat="41.795123" lon="22.986742">
        <ele>1267.7</ele>
        <time>2026-05-06T14:37:01.000Z</time>
      </trkpt>
      <trkpt lat="41.795131" lon="22.986732">
        <ele>1267.7</ele>
        <time>2026-05-06T14:37:02.000Z</time>
      </trkpt>
      <trkpt lat="41.795141" lon="22.986721">
        <ele>1266.3</ele>
        <time>2026-05-06T14:37:03.000Z</time>
      </trkpt>
      <trkpt lat="41.795151" lon="22.986708">
        <ele>1266.3</ele>
        <time>2026-05-06T14:37:04.000Z</time>
      </trkpt>
      <trkpt lat="41.795162" lon="22.986695">
        <ele>1266.3</ele>
        <time>2026-05-06T14:37:05.000Z</time>
      </trkpt>
      <trkpt lat="41.795174" lon="22.986683">
        <ele>1266.3</ele>
        <time>2026-05-06T14:37:06.000Z</time>
      </trkpt>
      <trkpt lat="41.795187" lon="22.986671">
        <ele>1266.3</ele>
        <time>2026-05-06T14:37:07.000Z</time>
      </trkpt>
      <trkpt lat="41.795199" lon="22.98666">
        <ele>1265</ele>
        <time>2026-05-06T14:37:08.000Z</time>
      </trkpt>
      <trkpt lat="41.795211" lon="22.986649">
        <ele>1265</ele>
        <time>2026-05-06T14:37:09.000Z</time>
      </trkpt>
      <trkpt lat="41.795222" lon="22.986641">
        <ele>1265</ele>
        <time>2026-05-06T14:37:10.000Z</time>
      </trkpt>
      <trkpt lat="41.795233" lon="22.986632">
        <ele>1265</ele>
        <time>2026-05-06T14:37:11.000Z</time>
      </trkpt>
      <trkpt lat="41.795244" lon="22.986624">
        <ele>1265</ele>
        <time>2026-05-06T14:37:12.000Z</time>
      </trkpt>
      <trkpt lat="41.795255" lon="22.986616">
        <ele>1264.3</ele>
        <time>2026-05-06T14:37:13.000Z</time>
      </trkpt>
      <trkpt lat="41.795266" lon="22.986609">
        <ele>1264.3</ele>
        <time>2026-05-06T14:37:14.000Z</time>
      </trkpt>
      <trkpt lat="41.795276" lon="22.986601">
        <ele>1264.3</ele>
        <time>2026-05-06T14:37:15.000Z</time>
      </trkpt>
      <trkpt lat="41.795286" lon="22.986594">
        <ele>1264.3</ele>
        <time>2026-05-06T14:37:16.000Z</time>
      </trkpt>
      <trkpt lat="41.795296" lon="22.986586">
        <ele>1264.3</ele>
        <time>2026-05-06T14:37:17.000Z</time>
      </trkpt>
      <trkpt lat="41.795306" lon="22.986578">
        <ele>1263.1</ele>
        <time>2026-05-06T14:37:18.000Z</time>
      </trkpt>
      <trkpt lat="41.795315" lon="22.986571">
        <ele>1263.1</ele>
        <time>2026-05-06T14:37:19.000Z</time>
      </trkpt>
      <trkpt lat="41.795324" lon="22.986564">
        <ele>1263.1</ele>
        <time>2026-05-06T14:37:20.000Z</time>
      </trkpt>
      <trkpt lat="41.795332" lon="22.98656">
        <ele>1263.1</ele>
        <time>2026-05-06T14:37:21.000Z</time>
      </trkpt>
      <trkpt lat="41.795339" lon="22.986556">
        <ele>1263.1</ele>
        <time>2026-05-06T14:37:22.000Z</time>
      </trkpt>
      <trkpt lat="41.795344" lon="22.986554">
        <ele>1261.8</ele>
        <time>2026-05-06T14:37:23.000Z</time>
      </trkpt>
      <trkpt lat="41.795347" lon="22.986553">
        <ele>1261.8</ele>
        <time>2026-05-06T14:37:24.000Z</time>
      </trkpt>
      <trkpt lat="41.795349" lon="22.986552">
        <ele>1261.8</ele>
        <time>2026-05-06T14:37:25.000Z</time>
      </trkpt>
      <trkpt lat="41.795351" lon="22.98655">
        <ele>1261.8</ele>
        <time>2026-05-06T14:37:26.000Z</time>
      </trkpt>
      <trkpt lat="41.795352" lon="22.986548">
        <ele>1261.8</ele>
        <time>2026-05-06T14:37:27.000Z</time>
      </trkpt>
      <trkpt lat="41.795353" lon="22.986546">
        <ele>1261.1</ele>
        <time>2026-05-06T14:37:28.000Z</time>
      </trkpt>
      <trkpt lat="41.795354" lon="22.986544">
        <ele>1261.1</ele>
        <time>2026-05-06T14:37:29.000Z</time>
      </trkpt>
      <trkpt lat="41.795354" lon="22.986542">
        <ele>1261.1</ele>
        <time>2026-05-06T14:37:30.000Z</time>
      </trkpt>
      <trkpt lat="41.795354" lon="22.98654">
        <ele>1261.1</ele>
        <time>2026-05-06T14:37:31.000Z</time>
      </trkpt>
      <trkpt lat="41.795354" lon="22.986538">
        <ele>1261.1</ele>
        <time>2026-05-06T14:37:32.000Z</time>
      </trkpt>
      <trkpt lat="41.795354" lon="22.986537">
        <ele>1260.1</ele>
        <time>2026-05-06T14:37:33.000Z</time>
      </trkpt>
      <trkpt lat="41.795356" lon="22.986535">
        <ele>1260.1</ele>
        <time>2026-05-06T14:37:34.000Z</time>
      </trkpt>
      <trkpt lat="41.795359" lon="22.986536">
        <ele>1260.1</ele>
        <time>2026-05-06T14:37:35.000Z</time>
      </trkpt>
      <trkpt lat="41.795363" lon="22.986537">
        <ele>1260.1</ele>
        <time>2026-05-06T14:37:36.000Z</time>
      </trkpt>
      <trkpt lat="41.795367" lon="22.986538">
        <ele>1260.1</ele>
        <time>2026-05-06T14:37:37.000Z</time>
      </trkpt>
      <trkpt lat="41.795371" lon="22.98654">
        <ele>1259.5</ele>
        <time>2026-05-06T14:37:38.000Z</time>
      </trkpt>
      <trkpt lat="41.795374" lon="22.98654">
        <ele>1259.5</ele>
        <time>2026-05-06T14:37:39.000Z</time>
      </trkpt>
      <trkpt lat="41.795374" lon="22.986539">
        <ele>1259.5</ele>
        <time>2026-05-06T14:37:40.000Z</time>
      </trkpt>
      <trkpt lat="41.795373" lon="22.986537">
        <ele>1259.5</ele>
        <time>2026-05-06T14:37:41.000Z</time>
      </trkpt>
      <trkpt lat="41.795373" lon="22.986536">
        <ele>1259.5</ele>
        <time>2026-05-06T14:37:42.000Z</time>
      </trkpt>
      <trkpt lat="41.795371" lon="22.986536">
        <ele>1259.3</ele>
        <time>2026-05-06T14:37:43.000Z</time>
      </trkpt>
      <trkpt lat="41.795371" lon="22.986538">
        <ele>1259.3</ele>
        <time>2026-05-06T14:37:44.000Z</time>
      </trkpt>
      <trkpt lat="41.79537" lon="22.986543">
        <ele>1259.3</ele>
        <time>2026-05-06T14:37:45.000Z</time>
      </trkpt>
      <trkpt lat="41.795369" lon="22.986549">
        <ele>1259.3</ele>
        <time>2026-05-06T14:37:46.000Z</time>
      </trkpt>
      <trkpt lat="41.795367" lon="22.986555">
        <ele>1259.3</ele>
        <time>2026-05-06T14:37:47.000Z</time>
      </trkpt>
      <trkpt lat="41.795367" lon="22.98656">
        <ele>1258.7</ele>
        <time>2026-05-06T14:37:48.000Z</time>
      </trkpt>
      <trkpt lat="41.795366" lon="22.986567">
        <ele>1258.7</ele>
        <time>2026-05-06T14:37:49.000Z</time>
      </trkpt>
      <trkpt lat="41.795367" lon="22.98657">
        <ele>1258.7</ele>
        <time>2026-05-06T14:37:50.000Z</time>
      </trkpt>
      <trkpt lat="41.795367" lon="22.986572">
        <ele>1258.7</ele>
        <time>2026-05-06T14:37:51.000Z</time>
      </trkpt>
      <trkpt lat="41.795366" lon="22.986574">
        <ele>1258.7</ele>
        <time>2026-05-06T14:37:52.000Z</time>
      </trkpt>
      <trkpt lat="41.795367" lon="22.986572">
        <ele>1258.2</ele>
        <time>2026-05-06T14:37:53.000Z</time>
      </trkpt>
      <trkpt lat="41.795368" lon="22.986568">
        <ele>1258.2</ele>
        <time>2026-05-06T14:37:54.000Z</time>
      </trkpt>
      <trkpt lat="41.795372" lon="22.986563">
        <ele>1258.2</ele>
        <time>2026-05-06T14:37:55.000Z</time>
      </trkpt>
      <trkpt lat="41.795377" lon="22.986558">
        <ele>1258.2</ele>
        <time>2026-05-06T14:37:56.000Z</time>
      </trkpt>
      <trkpt lat="41.795383" lon="22.986555">
        <ele>1258.2</ele>
        <time>2026-05-06T14:37:57.000Z</time>
      </trkpt>
      <trkpt lat="41.795388" lon="22.986555">
        <ele>1258.1</ele>
        <time>2026-05-06T14:37:58.000Z</time>
      </trkpt>
      <trkpt lat="41.795393" lon="22.98656">
        <ele>1258.1</ele>
        <time>2026-05-06T14:37:59.000Z</time>
      </trkpt>
      <trkpt lat="41.795397" lon="22.986567">
        <ele>1258.1</ele>
        <time>2026-05-06T14:38:00.000Z</time>
      </trkpt>
      <trkpt lat="41.795401" lon="22.986575">
        <ele>1258.1</ele>
        <time>2026-05-06T14:38:01.000Z</time>
      </trkpt>
      <trkpt lat="41.795408" lon="22.986579">
        <ele>1258.1</ele>
        <time>2026-05-06T14:38:02.000Z</time>
      </trkpt>
      <trkpt lat="41.795417" lon="22.986582">
        <ele>1258.1</ele>
        <time>2026-05-06T14:38:03.000Z</time>
      </trkpt>
      <trkpt lat="41.795426" lon="22.986582">
        <ele>1258.1</ele>
        <time>2026-05-06T14:38:04.000Z</time>
      </trkpt>
      <trkpt lat="41.795436" lon="22.98658">
        <ele>1258.1</ele>
        <time>2026-05-06T14:38:05.000Z</time>
      </trkpt>
      <trkpt lat="41.795443" lon="22.986578">
        <ele>1258.1</ele>
        <time>2026-05-06T14:38:06.000Z</time>
      </trkpt>
      <trkpt lat="41.795448" lon="22.986578">
        <ele>1258.1</ele>
        <time>2026-05-06T14:38:07.000Z</time>
      </trkpt>
      <trkpt lat="41.795451" lon="22.986579">
        <ele>1258.1</ele>
        <time>2026-05-06T14:38:08.000Z</time>
      </trkpt>
      <trkpt lat="41.795451" lon="22.986579">
        <ele>1258.1</ele>
        <time>2026-05-06T14:38:09.000Z</time>
      </trkpt>
      <trkpt lat="41.795451" lon="22.98658">
        <ele>1258.1</ele>
        <time>2026-05-06T14:38:10.000Z</time>
      </trkpt>
      <trkpt lat="41.795452" lon="22.98658">
        <ele>1258.1</ele>
        <time>2026-05-06T14:38:11.000Z</time>
      </trkpt>
      <trkpt lat="41.795452" lon="22.986582">
        <ele>1258.1</ele>
        <time>2026-05-06T14:38:12.000Z</time>
      </trkpt>
      <trkpt lat="41.795452" lon="22.986583">
        <ele>1258.2</ele>
        <time>2026-05-06T14:38:13.000Z</time>
      </trkpt>
      <trkpt lat="41.795452" lon="22.986581">
        <ele>1258.2</ele>
        <time>2026-05-06T14:38:14.000Z</time>
      </trkpt>
      <trkpt lat="41.795453" lon="22.986579">
        <ele>1258.2</ele>
        <time>2026-05-06T14:38:15.000Z</time>
      </trkpt>
      <trkpt lat="41.795455" lon="22.986579">
        <ele>1258.2</ele>
        <time>2026-05-06T14:38:16.000Z</time>
      </trkpt>
      <trkpt lat="41.795459" lon="22.986579">
        <ele>1258.2</ele>
        <time>2026-05-06T14:38:17.000Z</time>
      </trkpt>
      <trkpt lat="41.795464" lon="22.986579">
        <ele>1258.6</ele>
        <time>2026-05-06T14:38:18.000Z</time>
      </trkpt>
      <trkpt lat="41.795471" lon="22.986582">
        <ele>1258.6</ele>
        <time>2026-05-06T14:38:19.000Z</time>
      </trkpt>
      <trkpt lat="41.795478" lon="22.986585">
        <ele>1258.6</ele>
        <time>2026-05-06T14:38:20.000Z</time>
      </trkpt>
      <trkpt lat="41.795484" lon="22.986585">
        <ele>1258.6</ele>
        <time>2026-05-06T14:38:21.000Z</time>
      </trkpt>
      <trkpt lat="41.795489" lon="22.986586">
        <ele>1258.6</ele>
        <time>2026-05-06T14:38:22.000Z</time>
      </trkpt>
      <trkpt lat="41.795492" lon="22.986585">
        <ele>1259</ele>
        <time>2026-05-06T14:38:23.000Z</time>
      </trkpt>
      <trkpt lat="41.795494" lon="22.986586">
        <ele>1259</ele>
        <time>2026-05-06T14:38:24.000Z</time>
      </trkpt>
      <trkpt lat="41.795496" lon="22.986586">
        <ele>1259</ele>
        <time>2026-05-06T14:38:25.000Z</time>
      </trkpt>
      <trkpt lat="41.795498" lon="22.986587">
        <ele>1259</ele>
        <time>2026-05-06T14:38:26.000Z</time>
      </trkpt>
      <trkpt lat="41.795499" lon="22.986587">
        <ele>1259</ele>
        <time>2026-05-06T14:38:27.000Z</time>
      </trkpt>
      <trkpt lat="41.795501" lon="22.986586">
        <ele>1259.1</ele>
        <time>2026-05-06T14:38:28.000Z</time>
      </trkpt>
      <trkpt lat="41.795504" lon="22.986584">
        <ele>1259.1</ele>
        <time>2026-05-06T14:38:29.000Z</time>
      </trkpt>
      <trkpt lat="41.795506" lon="22.986579">
        <ele>1259.1</ele>
        <time>2026-05-06T14:38:30.000Z</time>
      </trkpt>
      <trkpt lat="41.795509" lon="22.986574">
        <ele>1259.1</ele>
        <time>2026-05-06T14:38:31.000Z</time>
      </trkpt>
      <trkpt lat="41.795514" lon="22.986569">
        <ele>1259.1</ele>
        <time>2026-05-06T14:38:32.000Z</time>
      </trkpt>
      <trkpt lat="41.795518" lon="22.986565">
        <ele>1259.2</ele>
        <time>2026-05-06T14:38:33.000Z</time>
      </trkpt>
      <trkpt lat="41.795523" lon="22.986561">
        <ele>1259.2</ele>
        <time>2026-05-06T14:38:34.000Z</time>
      </trkpt>
      <trkpt lat="41.795528" lon="22.986561">
        <ele>1259.2</ele>
        <time>2026-05-06T14:38:35.000Z</time>
      </trkpt>
      <trkpt lat="41.795534" lon="22.986563">
        <ele>1259.2</ele>
        <time>2026-05-06T14:38:36.000Z</time>
      </trkpt>
      <trkpt lat="41.795538" lon="22.986568">
        <ele>1259.2</ele>
        <time>2026-05-06T14:38:37.000Z</time>
      </trkpt>
      <trkpt lat="41.795542" lon="22.986572">
        <ele>1259.1</ele>
        <time>2026-05-06T14:38:38.000Z</time>
      </trkpt>
      <trkpt lat="41.795545" lon="22.986577">
        <ele>1259.1</ele>
        <time>2026-05-06T14:38:39.000Z</time>
      </trkpt>
      <trkpt lat="41.795549" lon="22.98658">
        <ele>1259.1</ele>
        <time>2026-05-06T14:38:40.000Z</time>
      </trkpt>
      <trkpt lat="41.795551" lon="22.986582">
        <ele>1259.1</ele>
        <time>2026-05-06T14:38:41.000Z</time>
      </trkpt>
      <trkpt lat="41.795553" lon="22.986584">
        <ele>1259.1</ele>
        <time>2026-05-06T14:38:42.000Z</time>
      </trkpt>
      <trkpt lat="41.795555" lon="22.986585">
        <ele>1258.9</ele>
        <time>2026-05-06T14:38:43.000Z</time>
      </trkpt>
      <trkpt lat="41.795559" lon="22.986588">
        <ele>1258.9</ele>
        <time>2026-05-06T14:38:44.000Z</time>
      </trkpt>
      <trkpt lat="41.795561" lon="22.986591">
        <ele>1258.9</ele>
        <time>2026-05-06T14:38:45.000Z</time>
      </trkpt>
      <trkpt lat="41.795564" lon="22.986595">
        <ele>1258.9</ele>
        <time>2026-05-06T14:38:46.000Z</time>
      </trkpt>
      <trkpt lat="41.795568" lon="22.986598">
        <ele>1258.9</ele>
        <time>2026-05-06T14:38:47.000Z</time>
      </trkpt>
      <trkpt lat="41.79557" lon="22.986601">
        <ele>1258.6</ele>
        <time>2026-05-06T14:38:48.000Z</time>
      </trkpt>
      <trkpt lat="41.795572" lon="22.986603">
        <ele>1258.6</ele>
        <time>2026-05-06T14:38:49.000Z</time>
      </trkpt>
      <trkpt lat="41.795574" lon="22.986605">
        <ele>1258.6</ele>
        <time>2026-05-06T14:38:50.000Z</time>
      </trkpt>
      <trkpt lat="41.795575" lon="22.986607">
        <ele>1258.6</ele>
        <time>2026-05-06T14:38:51.000Z</time>
      </trkpt>
      <trkpt lat="41.795576" lon="22.986609">
        <ele>1258.6</ele>
        <time>2026-05-06T14:38:52.000Z</time>
      </trkpt>
      <trkpt lat="41.795577" lon="22.98661">
        <ele>1258.6</ele>
        <time>2026-05-06T14:38:53.000Z</time>
      </trkpt>
      <trkpt lat="41.795578" lon="22.986611">
        <ele>1258.6</ele>
        <time>2026-05-06T14:38:54.000Z</time>
      </trkpt>
      <trkpt lat="41.795579" lon="22.986612">
        <ele>1258.6</ele>
        <time>2026-05-06T14:38:55.000Z</time>
      </trkpt>
      <trkpt lat="41.795581" lon="22.986613">
        <ele>1258.6</ele>
        <time>2026-05-06T14:38:56.000Z</time>
      </trkpt>
      <trkpt lat="41.795584" lon="22.986614">
        <ele>1258.6</ele>
        <time>2026-05-06T14:38:57.000Z</time>
      </trkpt>
      <trkpt lat="41.795585" lon="22.986613">
        <ele>1258.7</ele>
        <time>2026-05-06T14:38:58.000Z</time>
      </trkpt>
      <trkpt lat="41.795585" lon="22.986612">
        <ele>1258.7</ele>
        <time>2026-05-06T14:38:59.000Z</time>
      </trkpt>
      <trkpt lat="41.795585" lon="22.986611">
        <ele>1258.7</ele>
        <time>2026-05-06T14:39:00.000Z</time>
      </trkpt>
      <trkpt lat="41.795583" lon="22.986609">
        <ele>1258.7</ele>
        <time>2026-05-06T14:39:01.000Z</time>
      </trkpt>
      <trkpt lat="41.795581" lon="22.986607">
        <ele>1258.7</ele>
        <time>2026-05-06T14:39:02.000Z</time>
      </trkpt>
      <trkpt lat="41.79558" lon="22.986608">
        <ele>1258.8</ele>
        <time>2026-05-06T14:39:03.000Z</time>
      </trkpt>
      <trkpt lat="41.79558" lon="22.986608">
        <ele>1258.8</ele>
        <time>2026-05-06T14:39:04.000Z</time>
      </trkpt>
      <trkpt lat="41.795579" lon="22.986608">
        <ele>1258.8</ele>
        <time>2026-05-06T14:39:05.000Z</time>
      </trkpt>
      <trkpt lat="41.795578" lon="22.986608">
        <ele>1258.8</ele>
        <time>2026-05-06T14:39:06.000Z</time>
      </trkpt>
      <trkpt lat="41.795577" lon="22.986608">
        <ele>1258.8</ele>
        <time>2026-05-06T14:39:07.000Z</time>
      </trkpt>
      <trkpt lat="41.795576" lon="22.986608">
        <ele>1258.8</ele>
        <time>2026-05-06T14:39:08.000Z</time>
      </trkpt>
      <trkpt lat="41.795575" lon="22.986607">
        <ele>1258.8</ele>
        <time>2026-05-06T14:39:09.000Z</time>
      </trkpt>
      <trkpt lat="41.795573" lon="22.986607">
        <ele>1258.8</ele>
        <time>2026-05-06T14:39:10.000Z</time>
      </trkpt>
      <trkpt lat="41.795571" lon="22.986606">
        <ele>1258.8</ele>
        <time>2026-05-06T14:39:11.000Z</time>
      </trkpt>
      <trkpt lat="41.79557" lon="22.986605">
        <ele>1258.8</ele>
        <time>2026-05-06T14:39:12.000Z</time>
      </trkpt>
      <trkpt lat="41.795571" lon="22.986603">
        <ele>1258.9</ele>
        <time>2026-05-06T14:39:13.000Z</time>
      </trkpt>
      <trkpt lat="41.795573" lon="22.986605">
        <ele>1258.9</ele>
        <time>2026-05-06T14:39:14.000Z</time>
      </trkpt>
      <trkpt lat="41.795574" lon="22.986605">
        <ele>1258.9</ele>
        <time>2026-05-06T14:39:15.000Z</time>
      </trkpt>
      <trkpt lat="41.795577" lon="22.986606">
        <ele>1258.9</ele>
        <time>2026-05-06T14:39:16.000Z</time>
      </trkpt>
      <trkpt lat="41.795579" lon="22.986607">
        <ele>1258.9</ele>
        <time>2026-05-06T14:39:17.000Z</time>
      </trkpt>
      <trkpt lat="41.795579" lon="22.986608">
        <ele>1258.8</ele>
        <time>2026-05-06T14:39:18.000Z</time>
      </trkpt>
      <trkpt lat="41.795578" lon="22.986607">
        <ele>1258.8</ele>
        <time>2026-05-06T14:39:19.000Z</time>
      </trkpt>
      <trkpt lat="41.795578" lon="22.986607">
        <ele>1258.8</ele>
        <time>2026-05-06T14:39:20.000Z</time>
      </trkpt>
      <trkpt lat="41.795577" lon="22.986607">
        <ele>1258.8</ele>
        <time>2026-05-06T14:39:21.000Z</time>
      </trkpt>
      <trkpt lat="41.795575" lon="22.986606">
        <ele>1258.8</ele>
        <time>2026-05-06T14:39:22.000Z</time>
      </trkpt>
      <trkpt lat="41.795573" lon="22.986606">
        <ele>1258.5</ele>
        <time>2026-05-06T14:39:23.000Z</time>
      </trkpt>
      <trkpt lat="41.795571" lon="22.986605">
        <ele>1258.5</ele>
        <time>2026-05-06T14:39:24.000Z</time>
      </trkpt>
      <trkpt lat="41.795571" lon="22.986605">
        <ele>1258.5</ele>
        <time>2026-05-06T14:39:25.000Z</time>
      </trkpt>
      <trkpt lat="41.795572" lon="22.986604">
        <ele>1258.5</ele>
        <time>2026-05-06T14:39:26.000Z</time>
      </trkpt>
      <trkpt lat="41.795574" lon="22.986604">
        <ele>1258.5</ele>
        <time>2026-05-06T14:39:27.000Z</time>
      </trkpt>
      <trkpt lat="41.795576" lon="22.986602">
        <ele>1258.4</ele>
        <time>2026-05-06T14:39:28.000Z</time>
      </trkpt>
      <trkpt lat="41.795577" lon="22.9866">
        <ele>1258.4</ele>
        <time>2026-05-06T14:39:29.000Z</time>
      </trkpt>
      <trkpt lat="41.795577" lon="22.986598">
        <ele>1258.4</ele>
        <time>2026-05-06T14:39:30.000Z</time>
      </trkpt>
      <trkpt lat="41.795577" lon="22.986599">
        <ele>1258.4</ele>
        <time>2026-05-06T14:39:31.000Z</time>
      </trkpt>
      <trkpt lat="41.795577" lon="22.986599">
        <ele>1258.4</ele>
        <time>2026-05-06T14:39:32.000Z</time>
      </trkpt>
      <trkpt lat="41.795577" lon="22.986599">
        <ele>1258.4</ele>
        <time>2026-05-06T14:39:33.000Z</time>
      </trkpt>
      <trkpt lat="41.795579" lon="22.986602">
        <ele>1258.4</ele>
        <time>2026-05-06T14:39:34.000Z</time>
      </trkpt>
      <trkpt lat="41.795581" lon="22.986604">
        <ele>1258.4</ele>
        <time>2026-05-06T14:39:35.000Z</time>
      </trkpt>
      <trkpt lat="41.795582" lon="22.986604">
        <ele>1258.4</ele>
        <time>2026-05-06T14:39:36.000Z</time>
      </trkpt>
      <trkpt lat="41.795585" lon="22.986605">
        <ele>1258.4</ele>
        <time>2026-05-06T14:39:37.000Z</time>
      </trkpt>
      <trkpt lat="41.795587" lon="22.986606">
        <ele>1258.6</ele>
        <time>2026-05-06T14:39:38.000Z</time>
      </trkpt>
      <trkpt lat="41.79559" lon="22.986606">
        <ele>1258.6</ele>
        <time>2026-05-06T14:39:39.000Z</time>
      </trkpt>
      <trkpt lat="41.795592" lon="22.986605">
        <ele>1258.6</ele>
        <time>2026-05-06T14:39:40.000Z</time>
      </trkpt>
      <trkpt lat="41.795593" lon="22.986606">
        <ele>1258.6</ele>
        <time>2026-05-06T14:39:41.000Z</time>
      </trkpt>
      <trkpt lat="41.795594" lon="22.986606">
        <ele>1258.6</ele>
        <time>2026-05-06T14:39:42.000Z</time>
      </trkpt>
      <trkpt lat="41.795593" lon="22.986606">
        <ele>1258.8</ele>
        <time>2026-05-06T14:39:43.000Z</time>
      </trkpt>
      <trkpt lat="41.795593" lon="22.986606">
        <ele>1258.8</ele>
        <time>2026-05-06T14:39:44.000Z</time>
      </trkpt>
      <trkpt lat="41.795592" lon="22.986606">
        <ele>1258.8</ele>
        <time>2026-05-06T14:39:45.000Z</time>
      </trkpt>
      <trkpt lat="41.795592" lon="22.986606">
        <ele>1258.8</ele>
        <time>2026-05-06T14:39:46.000Z</time>
      </trkpt>
      <trkpt lat="41.795592" lon="22.986606">
        <ele>1258.8</ele>
        <time>2026-05-06T14:39:47.000Z</time>
      </trkpt>
      <trkpt lat="41.795594" lon="22.986607">
        <ele>1259</ele>
        <time>2026-05-06T14:39:48.000Z</time>
      </trkpt>
      <trkpt lat="41.795596" lon="22.986609">
        <ele>1259</ele>
        <time>2026-05-06T14:39:49.000Z</time>
      </trkpt>
      <trkpt lat="41.795598" lon="22.986609">
        <ele>1259</ele>
        <time>2026-05-06T14:39:50.000Z</time>
      </trkpt>
      <trkpt lat="41.7956" lon="22.98661">
        <ele>1259</ele>
        <time>2026-05-06T14:39:51.000Z</time>
      </trkpt>
      <trkpt lat="41.795602" lon="22.986611">
        <ele>1259</ele>
        <time>2026-05-06T14:39:52.000Z</time>
      </trkpt>
      <trkpt lat="41.795603" lon="22.986611">
        <ele>1259.2</ele>
        <time>2026-05-06T14:39:53.000Z</time>
      </trkpt>
      <trkpt lat="41.795604" lon="22.986612">
        <ele>1259.2</ele>
        <time>2026-05-06T14:39:54.000Z</time>
      </trkpt>
      <trkpt lat="41.795605" lon="22.986612">
        <ele>1259.2</ele>
        <time>2026-05-06T14:39:55.000Z</time>
      </trkpt>
      <trkpt lat="41.795606" lon="22.986613">
        <ele>1259.2</ele>
        <time>2026-05-06T14:39:56.000Z</time>
      </trkpt>
      <trkpt lat="41.795606" lon="22.986614">
        <ele>1259.2</ele>
        <time>2026-05-06T14:39:57.000Z</time>
      </trkpt>
      <trkpt lat="41.795607" lon="22.986615">
        <ele>1259.3</ele>
        <time>2026-05-06T14:39:58.000Z</time>
      </trkpt>
      <trkpt lat="41.795608" lon="22.986616">
        <ele>1259.3</ele>
        <time>2026-05-06T14:39:59.000Z</time>
      </trkpt>
      <trkpt lat="41.795609" lon="22.986617">
        <ele>1259.3</ele>
        <time>2026-05-06T14:40:00.000Z</time>
      </trkpt>
      <trkpt lat="41.795609" lon="22.986618">
        <ele>1259.3</ele>
        <time>2026-05-06T14:40:01.000Z</time>
      </trkpt>
      <trkpt lat="41.795609" lon="22.986619">
        <ele>1259.3</ele>
        <time>2026-05-06T14:40:02.000Z</time>
      </trkpt>
      <trkpt lat="41.79561" lon="22.986619">
        <ele>1259.5</ele>
        <time>2026-05-06T14:40:03.000Z</time>
      </trkpt>
      <trkpt lat="41.79561" lon="22.986619">
        <ele>1259.5</ele>
        <time>2026-05-06T14:40:04.000Z</time>
      </trkpt>
      <trkpt lat="41.79561" lon="22.986619">
        <ele>1259.5</ele>
        <time>2026-05-06T14:40:05.000Z</time>
      </trkpt>
      <trkpt lat="41.79561" lon="22.986619">
        <ele>1259.5</ele>
        <time>2026-05-06T14:40:06.000Z</time>
      </trkpt>
      <trkpt lat="41.795609" lon="22.986618">
        <ele>1259.5</ele>
        <time>2026-05-06T14:40:07.000Z</time>
      </trkpt>
      <trkpt lat="41.795609" lon="22.986618">
        <ele>1259.6</ele>
        <time>2026-05-06T14:40:08.000Z</time>
      </trkpt>
      <trkpt lat="41.795609" lon="22.986619">
        <ele>1259.6</ele>
        <time>2026-05-06T14:40:09.000Z</time>
      </trkpt>
      <trkpt lat="41.795608" lon="22.98662">
        <ele>1259.6</ele>
        <time>2026-05-06T14:40:10.000Z</time>
      </trkpt>
      <trkpt lat="41.795607" lon="22.986621">
        <ele>1259.6</ele>
        <time>2026-05-06T14:40:11.000Z</time>
      </trkpt>
      <trkpt lat="41.795607" lon="22.986622">
        <ele>1259.6</ele>
        <time>2026-05-06T14:40:12.000Z</time>
      </trkpt>
      <trkpt lat="41.795606" lon="22.986623">
        <ele>1259.6</ele>
        <time>2026-05-06T14:40:13.000Z</time>
      </trkpt>
      <trkpt lat="41.795606" lon="22.986625">
        <ele>1259.6</ele>
        <time>2026-05-06T14:40:14.000Z</time>
      </trkpt>
      <trkpt lat="41.795606" lon="22.986625">
        <ele>1259.6</ele>
        <time>2026-05-06T14:40:15.000Z</time>
      </trkpt>
      <trkpt lat="41.795606" lon="22.986625">
        <ele>1259.6</ele>
        <time>2026-05-06T14:40:16.000Z</time>
      </trkpt>
      <trkpt lat="41.795607" lon="22.986625">
        <ele>1259.6</ele>
        <time>2026-05-06T14:40:17.000Z</time>
      </trkpt>
      <trkpt lat="41.795607" lon="22.986623">
        <ele>1259.6</ele>
        <time>2026-05-06T14:40:18.000Z</time>
      </trkpt>
      <trkpt lat="41.795607" lon="22.98662">
        <ele>1259.6</ele>
        <time>2026-05-06T14:40:19.000Z</time>
      </trkpt>
      <trkpt lat="41.795606" lon="22.986618">
        <ele>1259.6</ele>
        <time>2026-05-06T14:40:20.000Z</time>
      </trkpt>
      <trkpt lat="41.795606" lon="22.986615">
        <ele>1259.6</ele>
        <time>2026-05-06T14:40:21.000Z</time>
      </trkpt>
      <trkpt lat="41.795605" lon="22.986613">
        <ele>1259.6</ele>
        <time>2026-05-06T14:40:22.000Z</time>
      </trkpt>
      <trkpt lat="41.795605" lon="22.986612">
        <ele>1259.5</ele>
        <time>2026-05-06T14:40:23.000Z</time>
      </trkpt>
      <trkpt lat="41.795605" lon="22.986612">
        <ele>1259.5</ele>
        <time>2026-05-06T14:40:24.000Z</time>
      </trkpt>
      <trkpt lat="41.795605" lon="22.986612">
        <ele>1259.5</ele>
        <time>2026-05-06T14:40:25.000Z</time>
      </trkpt>
      <trkpt lat="41.795607" lon="22.986611">
        <ele>1259.5</ele>
        <time>2026-05-06T14:40:26.000Z</time>
      </trkpt>
      <trkpt lat="41.795608" lon="22.98661">
        <ele>1259.5</ele>
        <time>2026-05-06T14:40:27.000Z</time>
      </trkpt>
      <trkpt lat="41.79561" lon="22.986609">
        <ele>1259.5</ele>
        <time>2026-05-06T14:40:28.000Z</time>
      </trkpt>
      <trkpt lat="41.795611" lon="22.986609">
        <ele>1259.5</ele>
        <time>2026-05-06T14:40:29.000Z</time>
      </trkpt>
      <trkpt lat="41.795614" lon="22.986608">
        <ele>1259.5</ele>
        <time>2026-05-06T14:40:30.000Z</time>
      </trkpt>
      <trkpt lat="41.795616" lon="22.986607">
        <ele>1259.5</ele>
        <time>2026-05-06T14:40:31.000Z</time>
      </trkpt>
      <trkpt lat="41.79562" lon="22.986605">
        <ele>1259.5</ele>
        <time>2026-05-06T14:40:32.000Z</time>
      </trkpt>
      <trkpt lat="41.795626" lon="22.986603">
        <ele>1259.3</ele>
        <time>2026-05-06T14:40:33.000Z</time>
      </trkpt>
      <trkpt lat="41.795632" lon="22.9866">
        <ele>1259.3</ele>
        <time>2026-05-06T14:40:34.000Z</time>
      </trkpt>
      <trkpt lat="41.795637" lon="22.986599">
        <ele>1259.3</ele>
        <time>2026-05-06T14:40:35.000Z</time>
      </trkpt>
      <trkpt lat="41.795642" lon="22.986596">
        <ele>1259.3</ele>
        <time>2026-05-06T14:40:36.000Z</time>
      </trkpt>
      <trkpt lat="41.795648" lon="22.986595">
        <ele>1259.3</ele>
        <time>2026-05-06T14:40:37.000Z</time>
      </trkpt>
      <trkpt lat="41.795654" lon="22.986595">
        <ele>1259.1</ele>
        <time>2026-05-06T14:40:38.000Z</time>
      </trkpt>
      <trkpt lat="41.795661" lon="22.986594">
        <ele>1259.1</ele>
        <time>2026-05-06T14:40:39.000Z</time>
      </trkpt>
      <trkpt lat="41.79567" lon="22.986593">
        <ele>1259.1</ele>
        <time>2026-05-06T14:40:40.000Z</time>
      </trkpt>
      <trkpt lat="41.79568" lon="22.986596">
        <ele>1259.1</ele>
        <time>2026-05-06T14:40:41.000Z</time>
      </trkpt>
      <trkpt lat="41.795688" lon="22.986599">
        <ele>1259.1</ele>
        <time>2026-05-06T14:40:42.000Z</time>
      </trkpt>
      <trkpt lat="41.795697" lon="22.986603">
        <ele>1258.8</ele>
        <time>2026-05-06T14:40:43.000Z</time>
      </trkpt>
      <trkpt lat="41.795704" lon="22.986606">
        <ele>1258.8</ele>
        <time>2026-05-06T14:40:44.000Z</time>
      </trkpt>
      <trkpt lat="41.795712" lon="22.986609">
        <ele>1258.8</ele>
        <time>2026-05-06T14:40:45.000Z</time>
      </trkpt>
      <trkpt lat="41.79572" lon="22.986612">
        <ele>1258.8</ele>
        <time>2026-05-06T14:40:46.000Z</time>
      </trkpt>
      <trkpt lat="41.795726" lon="22.986614">
        <ele>1258.8</ele>
        <time>2026-05-06T14:40:47.000Z</time>
      </trkpt>
      <trkpt lat="41.795732" lon="22.986615">
        <ele>1258.4</ele>
        <time>2026-05-06T14:40:48.000Z</time>
      </trkpt>
      <trkpt lat="41.795739" lon="22.986618">
        <ele>1258.4</ele>
        <time>2026-05-06T14:40:49.000Z</time>
      </trkpt>
      <trkpt lat="41.795747" lon="22.98662">
        <ele>1258.4</ele>
        <time>2026-05-06T14:40:50.000Z</time>
      </trkpt>
      <trkpt lat="41.795755" lon="22.986622">
        <ele>1258.4</ele>
        <time>2026-05-06T14:40:51.000Z</time>
      </trkpt>
      <trkpt lat="41.795764" lon="22.986624">
        <ele>1258.4</ele>
        <time>2026-05-06T14:40:52.000Z</time>
      </trkpt>
      <trkpt lat="41.795773" lon="22.986627">
        <ele>1258.3</ele>
        <time>2026-05-06T14:40:53.000Z</time>
      </trkpt>
      <trkpt lat="41.795781" lon="22.98663">
        <ele>1258.3</ele>
        <time>2026-05-06T14:40:54.000Z</time>
      </trkpt>
      <trkpt lat="41.79579" lon="22.986632">
        <ele>1258.3</ele>
        <time>2026-05-06T14:40:55.000Z</time>
      </trkpt>
      <trkpt lat="41.7958" lon="22.986633">
        <ele>1258.3</ele>
        <time>2026-05-06T14:40:56.000Z</time>
      </trkpt>
      <trkpt lat="41.79581" lon="22.986634">
        <ele>1258.3</ele>
        <time>2026-05-06T14:40:57.000Z</time>
      </trkpt>
      <trkpt lat="41.795821" lon="22.986633">
        <ele>1258.5</ele>
        <time>2026-05-06T14:40:58.000Z</time>
      </trkpt>
      <trkpt lat="41.795833" lon="22.986632">
        <ele>1258.5</ele>
        <time>2026-05-06T14:40:59.000Z</time>
      </trkpt>
      <trkpt lat="41.795844" lon="22.986631">
        <ele>1258.5</ele>
        <time>2026-05-06T14:41:00.000Z</time>
      </trkpt>
      <trkpt lat="41.795856" lon="22.98663">
        <ele>1258.5</ele>
        <time>2026-05-06T14:41:01.000Z</time>
      </trkpt>
      <trkpt lat="41.795868" lon="22.98663">
        <ele>1258.5</ele>
        <time>2026-05-06T14:41:02.000Z</time>
      </trkpt>
      <trkpt lat="41.79588" lon="22.986627">
        <ele>1258.8</ele>
        <time>2026-05-06T14:41:03.000Z</time>
      </trkpt>
      <trkpt lat="41.795892" lon="22.986623">
        <ele>1258.8</ele>
        <time>2026-05-06T14:41:04.000Z</time>
      </trkpt>
      <trkpt lat="41.795905" lon="22.986619">
        <ele>1258.8</ele>
        <time>2026-05-06T14:41:05.000Z</time>
      </trkpt>
      <trkpt lat="41.795918" lon="22.986614">
        <ele>1258.8</ele>
        <time>2026-05-06T14:41:06.000Z</time>
      </trkpt>
      <trkpt lat="41.79593" lon="22.986609">
        <ele>1258.8</ele>
        <time>2026-05-06T14:41:07.000Z</time>
      </trkpt>
      <trkpt lat="41.795942" lon="22.986604">
        <ele>1259</ele>
        <time>2026-05-06T14:41:08.000Z</time>
      </trkpt>
      <trkpt lat="41.795954" lon="22.9866">
        <ele>1259</ele>
        <time>2026-05-06T14:41:09.000Z</time>
      </trkpt>
      <trkpt lat="41.795965" lon="22.986595">
        <ele>1259</ele>
        <time>2026-05-06T14:41:10.000Z</time>
      </trkpt>
      <trkpt lat="41.795974" lon="22.986589">
        <ele>1259</ele>
        <time>2026-05-06T14:41:11.000Z</time>
      </trkpt>
      <trkpt lat="41.795984" lon="22.986582">
        <ele>1259</ele>
        <time>2026-05-06T14:41:12.000Z</time>
      </trkpt>
      <trkpt lat="41.795995" lon="22.986576">
        <ele>1259</ele>
        <time>2026-05-06T14:41:13.000Z</time>
      </trkpt>
      <trkpt lat="41.796005" lon="22.986568">
        <ele>1259</ele>
        <time>2026-05-06T14:41:14.000Z</time>
      </trkpt>
      <trkpt lat="41.796016" lon="22.986561">
        <ele>1259</ele>
        <time>2026-05-06T14:41:15.000Z</time>
      </trkpt>
      <trkpt lat="41.796029" lon="22.986555">
        <ele>1259</ele>
        <time>2026-05-06T14:41:16.000Z</time>
      </trkpt>
      <trkpt lat="41.796041" lon="22.986549">
        <ele>1259</ele>
        <time>2026-05-06T14:41:17.000Z</time>
      </trkpt>
      <trkpt lat="41.796052" lon="22.986543">
        <ele>1258.9</ele>
        <time>2026-05-06T14:41:18.000Z</time>
      </trkpt>
      <trkpt lat="41.796065" lon="22.986536">
        <ele>1258.9</ele>
        <time>2026-05-06T14:41:19.000Z</time>
      </trkpt>
      <trkpt lat="41.796079" lon="22.98653">
        <ele>1258.9</ele>
        <time>2026-05-06T14:41:20.000Z</time>
      </trkpt>
      <trkpt lat="41.796091" lon="22.986523">
        <ele>1258.9</ele>
        <time>2026-05-06T14:41:21.000Z</time>
      </trkpt>
      <trkpt lat="41.796105" lon="22.986514">
        <ele>1258.9</ele>
        <time>2026-05-06T14:41:22.000Z</time>
      </trkpt>
      <trkpt lat="41.796118" lon="22.986506">
        <ele>1258.7</ele>
        <time>2026-05-06T14:41:23.000Z</time>
      </trkpt>
      <trkpt lat="41.79613" lon="22.9865">
        <ele>1258.7</ele>
        <time>2026-05-06T14:41:24.000Z</time>
      </trkpt>
      <trkpt lat="41.796143" lon="22.986495">
        <ele>1258.7</ele>
        <time>2026-05-06T14:41:25.000Z</time>
      </trkpt>
      <trkpt lat="41.796155" lon="22.986491">
        <ele>1258.7</ele>
        <time>2026-05-06T14:41:26.000Z</time>
      </trkpt>
      <trkpt lat="41.796166" lon="22.986488">
        <ele>1258.7</ele>
        <time>2026-05-06T14:41:27.000Z</time>
      </trkpt>
      <trkpt lat="41.796177" lon="22.986484">
        <ele>1258.4</ele>
        <time>2026-05-06T14:41:28.000Z</time>
      </trkpt>
      <trkpt lat="41.796188" lon="22.986481">
        <ele>1258.4</ele>
        <time>2026-05-06T14:41:29.000Z</time>
      </trkpt>
      <trkpt lat="41.796199" lon="22.986476">
        <ele>1258.4</ele>
        <time>2026-05-06T14:41:30.000Z</time>
      </trkpt>
      <trkpt lat="41.796212" lon="22.986471">
        <ele>1258.4</ele>
        <time>2026-05-06T14:41:31.000Z</time>
      </trkpt>
      <trkpt lat="41.796225" lon="22.986467">
        <ele>1258.4</ele>
        <time>2026-05-06T14:41:32.000Z</time>
      </trkpt>
      <trkpt lat="41.796239" lon="22.986463">
        <ele>1257.7</ele>
        <time>2026-05-06T14:41:33.000Z</time>
      </trkpt>
      <trkpt lat="41.796254" lon="22.98646">
        <ele>1257.7</ele>
        <time>2026-05-06T14:41:34.000Z</time>
      </trkpt>
      <trkpt lat="41.796269" lon="22.986457">
        <ele>1257.7</ele>
        <time>2026-05-06T14:41:35.000Z</time>
      </trkpt>
      <trkpt lat="41.796283" lon="22.986455">
        <ele>1257.7</ele>
        <time>2026-05-06T14:41:36.000Z</time>
      </trkpt>
      <trkpt lat="41.796297" lon="22.986453">
        <ele>1257.7</ele>
        <time>2026-05-06T14:41:37.000Z</time>
      </trkpt>
      <trkpt lat="41.796311" lon="22.986452">
        <ele>1256.8</ele>
        <time>2026-05-06T14:41:38.000Z</time>
      </trkpt>
      <trkpt lat="41.796325" lon="22.986451">
        <ele>1256.8</ele>
        <time>2026-05-06T14:41:39.000Z</time>
      </trkpt>
      <trkpt lat="41.796338" lon="22.986449">
        <ele>1256.8</ele>
        <time>2026-05-06T14:41:40.000Z</time>
      </trkpt>
      <trkpt lat="41.796351" lon="22.986449">
        <ele>1256.8</ele>
        <time>2026-05-06T14:41:41.000Z</time>
      </trkpt>
      <trkpt lat="41.796364" lon="22.986448">
        <ele>1256.8</ele>
        <time>2026-05-06T14:41:42.000Z</time>
      </trkpt>
      <trkpt lat="41.796378" lon="22.986448">
        <ele>1256.4</ele>
        <time>2026-05-06T14:41:43.000Z</time>
      </trkpt>
      <trkpt lat="41.796392" lon="22.986446">
        <ele>1256.4</ele>
        <time>2026-05-06T14:41:44.000Z</time>
      </trkpt>
      <trkpt lat="41.796405" lon="22.986444">
        <ele>1256.4</ele>
        <time>2026-05-06T14:41:45.000Z</time>
      </trkpt>
      <trkpt lat="41.796419" lon="22.986442">
        <ele>1256.4</ele>
        <time>2026-05-06T14:41:46.000Z</time>
      </trkpt>
      <trkpt lat="41.796433" lon="22.986438">
        <ele>1256.4</ele>
        <time>2026-05-06T14:41:47.000Z</time>
      </trkpt>
      <trkpt lat="41.796447" lon="22.986436">
        <ele>1255.8</ele>
        <time>2026-05-06T14:41:48.000Z</time>
      </trkpt>
      <trkpt lat="41.796461" lon="22.986434">
        <ele>1255.8</ele>
        <time>2026-05-06T14:41:49.000Z</time>
      </trkpt>
      <trkpt lat="41.796476" lon="22.986433">
        <ele>1255.8</ele>
        <time>2026-05-06T14:41:50.000Z</time>
      </trkpt>
      <trkpt lat="41.796491" lon="22.986432">
        <ele>1255.8</ele>
        <time>2026-05-06T14:41:51.000Z</time>
      </trkpt>
      <trkpt lat="41.796507" lon="22.986432">
        <ele>1255.8</ele>
        <time>2026-05-06T14:41:52.000Z</time>
      </trkpt>
      <trkpt lat="41.796523" lon="22.986432">
        <ele>1255.2</ele>
        <time>2026-05-06T14:41:53.000Z</time>
      </trkpt>
      <trkpt lat="41.796539" lon="22.986431">
        <ele>1255.2</ele>
        <time>2026-05-06T14:41:54.000Z</time>
      </trkpt>
      <trkpt lat="41.796555" lon="22.98643">
        <ele>1255.2</ele>
        <time>2026-05-06T14:41:55.000Z</time>
      </trkpt>
      <trkpt lat="41.79657" lon="22.986429">
        <ele>1255.2</ele>
        <time>2026-05-06T14:41:56.000Z</time>
      </trkpt>
      <trkpt lat="41.796584" lon="22.986429">
        <ele>1255.2</ele>
        <time>2026-05-06T14:41:57.000Z</time>
      </trkpt>
      <trkpt lat="41.796598" lon="22.986428">
        <ele>1254.9</ele>
        <time>2026-05-06T14:41:58.000Z</time>
      </trkpt>
      <trkpt lat="41.796613" lon="22.986429">
        <ele>1254.9</ele>
        <time>2026-05-06T14:41:59.000Z</time>
      </trkpt>
      <trkpt lat="41.796628" lon="22.986431">
        <ele>1254.9</ele>
        <time>2026-05-06T14:42:00.000Z</time>
      </trkpt>
      <trkpt lat="41.796643" lon="22.986433">
        <ele>1254.9</ele>
        <time>2026-05-06T14:42:01.000Z</time>
      </trkpt>
      <trkpt lat="41.796659" lon="22.986436">
        <ele>1254.9</ele>
        <time>2026-05-06T14:42:02.000Z</time>
      </trkpt>
      <trkpt lat="41.796674" lon="22.98644">
        <ele>1254.3</ele>
        <time>2026-05-06T14:42:03.000Z</time>
      </trkpt>
      <trkpt lat="41.796689" lon="22.986444">
        <ele>1254.3</ele>
        <time>2026-05-06T14:42:04.000Z</time>
      </trkpt>
      <trkpt lat="41.796705" lon="22.986447">
        <ele>1254.3</ele>
        <time>2026-05-06T14:42:05.000Z</time>
      </trkpt>
      <trkpt lat="41.796719" lon="22.986451">
        <ele>1254.3</ele>
        <time>2026-05-06T14:42:06.000Z</time>
      </trkpt>
      <trkpt lat="41.796733" lon="22.986455">
        <ele>1254.3</ele>
        <time>2026-05-06T14:42:07.000Z</time>
      </trkpt>
      <trkpt lat="41.796747" lon="22.986459">
        <ele>1253.4</ele>
        <time>2026-05-06T14:42:08.000Z</time>
      </trkpt>
      <trkpt lat="41.79676" lon="22.986463">
        <ele>1253.4</ele>
        <time>2026-05-06T14:42:09.000Z</time>
      </trkpt>
      <trkpt lat="41.796774" lon="22.986469">
        <ele>1253.4</ele>
        <time>2026-05-06T14:42:10.000Z</time>
      </trkpt>
      <trkpt lat="41.796788" lon="22.986475">
        <ele>1253.4</ele>
        <time>2026-05-06T14:42:11.000Z</time>
      </trkpt>
      <trkpt lat="41.796802" lon="22.986482">
        <ele>1253.4</ele>
        <time>2026-05-06T14:42:12.000Z</time>
      </trkpt>
      <trkpt lat="41.796815" lon="22.986489">
        <ele>1252.8</ele>
        <time>2026-05-06T14:42:13.000Z</time>
      </trkpt>
      <trkpt lat="41.796829" lon="22.986495">
        <ele>1252.8</ele>
        <time>2026-05-06T14:42:14.000Z</time>
      </trkpt>
      <trkpt lat="41.796842" lon="22.986501">
        <ele>1252.8</ele>
        <time>2026-05-06T14:42:15.000Z</time>
      </trkpt>
      <trkpt lat="41.796855" lon="22.986505">
        <ele>1252.8</ele>
        <time>2026-05-06T14:42:16.000Z</time>
      </trkpt>
      <trkpt lat="41.796867" lon="22.986509">
        <ele>1252.8</ele>
        <time>2026-05-06T14:42:17.000Z</time>
      </trkpt>
      <trkpt lat="41.796881" lon="22.986512">
        <ele>1251.3</ele>
        <time>2026-05-06T14:42:18.000Z</time>
      </trkpt>
      <trkpt lat="41.796894" lon="22.986515">
        <ele>1251.3</ele>
        <time>2026-05-06T14:42:19.000Z</time>
      </trkpt>
      <trkpt lat="41.796908" lon="22.986518">
        <ele>1251.3</ele>
        <time>2026-05-06T14:42:20.000Z</time>
      </trkpt>
      <trkpt lat="41.796921" lon="22.986522">
        <ele>1251.3</ele>
        <time>2026-05-06T14:42:21.000Z</time>
      </trkpt>
      <trkpt lat="41.796936" lon="22.986526">
        <ele>1251.3</ele>
        <time>2026-05-06T14:42:22.000Z</time>
      </trkpt>
      <trkpt lat="41.79695" lon="22.986531">
        <ele>1249.6</ele>
        <time>2026-05-06T14:42:23.000Z</time>
      </trkpt>
      <trkpt lat="41.796964" lon="22.986535">
        <ele>1249.6</ele>
        <time>2026-05-06T14:42:24.000Z</time>
      </trkpt>
      <trkpt lat="41.79698" lon="22.986539">
        <ele>1249.6</ele>
        <time>2026-05-06T14:42:25.000Z</time>
      </trkpt>
      <trkpt lat="41.796997" lon="22.986542">
        <ele>1249.6</ele>
        <time>2026-05-06T14:42:26.000Z</time>
      </trkpt>
      <trkpt lat="41.797011" lon="22.986543">
        <ele>1249.6</ele>
        <time>2026-05-06T14:42:27.000Z</time>
      </trkpt>
      <trkpt lat="41.797026" lon="22.986546">
        <ele>1248.8</ele>
        <time>2026-05-06T14:42:28.000Z</time>
      </trkpt>
      <trkpt lat="41.797039" lon="22.986549">
        <ele>1248.8</ele>
        <time>2026-05-06T14:42:29.000Z</time>
      </trkpt>
      <trkpt lat="41.797051" lon="22.986552">
        <ele>1248.8</ele>
        <time>2026-05-06T14:42:30.000Z</time>
      </trkpt>
      <trkpt lat="41.797063" lon="22.986556">
        <ele>1248.8</ele>
        <time>2026-05-06T14:42:31.000Z</time>
      </trkpt>
      <trkpt lat="41.797075" lon="22.986561">
        <ele>1248.8</ele>
        <time>2026-05-06T14:42:32.000Z</time>
      </trkpt>
      <trkpt lat="41.797086" lon="22.986565">
        <ele>1246.9</ele>
        <time>2026-05-06T14:42:33.000Z</time>
      </trkpt>
      <trkpt lat="41.797098" lon="22.986569">
        <ele>1246.9</ele>
        <time>2026-05-06T14:42:34.000Z</time>
      </trkpt>
      <trkpt lat="41.797109" lon="22.986574">
        <ele>1246.9</ele>
        <time>2026-05-06T14:42:35.000Z</time>
      </trkpt>
      <trkpt lat="41.797121" lon="22.98658">
        <ele>1246.9</ele>
        <time>2026-05-06T14:42:36.000Z</time>
      </trkpt>
      <trkpt lat="41.797133" lon="22.986585">
        <ele>1246.9</ele>
        <time>2026-05-06T14:42:37.000Z</time>
      </trkpt>
      <trkpt lat="41.797146" lon="22.986591">
        <ele>1244.9</ele>
        <time>2026-05-06T14:42:38.000Z</time>
      </trkpt>
      <trkpt lat="41.797159" lon="22.986594">
        <ele>1244.9</ele>
        <time>2026-05-06T14:42:39.000Z</time>
      </trkpt>
      <trkpt lat="41.797173" lon="22.986596">
        <ele>1244.9</ele>
        <time>2026-05-06T14:42:40.000Z</time>
      </trkpt>
      <trkpt lat="41.797188" lon="22.986599">
        <ele>1244.9</ele>
        <time>2026-05-06T14:42:41.000Z</time>
      </trkpt>
      <trkpt lat="41.797202" lon="22.9866">
        <ele>1244.9</ele>
        <time>2026-05-06T14:42:42.000Z</time>
      </trkpt>
      <trkpt lat="41.797216" lon="22.986601">
        <ele>1244</ele>
        <time>2026-05-06T14:42:43.000Z</time>
      </trkpt>
      <trkpt lat="41.79723" lon="22.986603">
        <ele>1244</ele>
        <time>2026-05-06T14:42:44.000Z</time>
      </trkpt>
      <trkpt lat="41.797243" lon="22.986605">
        <ele>1244</ele>
        <time>2026-05-06T14:42:45.000Z</time>
      </trkpt>
      <trkpt lat="41.797254" lon="22.986606">
        <ele>1244</ele>
        <time>2026-05-06T14:42:46.000Z</time>
      </trkpt>
      <trkpt lat="41.797265" lon="22.986609">
        <ele>1244</ele>
        <time>2026-05-06T14:42:47.000Z</time>
      </trkpt>
      <trkpt lat="41.797275" lon="22.986611">
        <ele>1242.3</ele>
        <time>2026-05-06T14:42:48.000Z</time>
      </trkpt>
      <trkpt lat="41.797282" lon="22.986613">
        <ele>1242.3</ele>
        <time>2026-05-06T14:42:49.000Z</time>
      </trkpt>
      <trkpt lat="41.797287" lon="22.986615">
        <ele>1242.3</ele>
        <time>2026-05-06T14:42:50.000Z</time>
      </trkpt>
      <trkpt lat="41.79729" lon="22.986616">
        <ele>1242.3</ele>
        <time>2026-05-06T14:42:51.000Z</time>
      </trkpt>
      <trkpt lat="41.797291" lon="22.986615">
        <ele>1242.3</ele>
        <time>2026-05-06T14:42:52.000Z</time>
      </trkpt>
      <trkpt lat="41.797292" lon="22.986615">
        <ele>1240.6</ele>
        <time>2026-05-06T14:42:53.000Z</time>
      </trkpt>
      <trkpt lat="41.797292" lon="22.986615">
        <ele>1240.6</ele>
        <time>2026-05-06T14:42:54.000Z</time>
      </trkpt>
      <trkpt lat="41.797292" lon="22.986614">
        <ele>1240.6</ele>
        <time>2026-05-06T14:42:55.000Z</time>
      </trkpt>
      <trkpt lat="41.797292" lon="22.986615">
        <ele>1240.6</ele>
        <time>2026-05-06T14:42:56.000Z</time>
      </trkpt>
      <trkpt lat="41.797293" lon="22.986615">
        <ele>1240.6</ele>
        <time>2026-05-06T14:42:57.000Z</time>
      </trkpt>
      <trkpt lat="41.797292" lon="22.986616">
        <ele>1239.9</ele>
        <time>2026-05-06T14:42:58.000Z</time>
      </trkpt>
      <trkpt lat="41.797292" lon="22.986617">
        <ele>1239.9</ele>
        <time>2026-05-06T14:42:59.000Z</time>
      </trkpt>
      <trkpt lat="41.797292" lon="22.986617">
        <ele>1239.9</ele>
        <time>2026-05-06T14:43:00.000Z</time>
      </trkpt>
      <trkpt lat="41.797291" lon="22.986617">
        <ele>1239.9</ele>
        <time>2026-05-06T14:43:01.000Z</time>
      </trkpt>
      <trkpt lat="41.797291" lon="22.986617">
        <ele>1239.9</ele>
        <time>2026-05-06T14:43:02.000Z</time>
      </trkpt>
      <trkpt lat="41.797291" lon="22.986617">
        <ele>1238.7</ele>
        <time>2026-05-06T14:43:03.000Z</time>
      </trkpt>
      <trkpt lat="41.797291" lon="22.986617">
        <ele>1238.7</ele>
        <time>2026-05-06T14:43:04.000Z</time>
      </trkpt>
      <trkpt lat="41.797291" lon="22.986618">
        <ele>1238.7</ele>
        <time>2026-05-06T14:43:05.000Z</time>
      </trkpt>
      <trkpt lat="41.797291" lon="22.986618">
        <ele>1238.7</ele>
        <time>2026-05-06T14:43:06.000Z</time>
      </trkpt>
      <trkpt lat="41.797291" lon="22.986619">
        <ele>1238.7</ele>
        <time>2026-05-06T14:43:07.000Z</time>
      </trkpt>
      <trkpt lat="41.797291" lon="22.98662">
        <ele>1238.1</ele>
        <time>2026-05-06T14:43:08.000Z</time>
      </trkpt>
      <trkpt lat="41.797291" lon="22.98662">
        <ele>1238.1</ele>
        <time>2026-05-06T14:43:09.000Z</time>
      </trkpt>
      <trkpt lat="41.797291" lon="22.986621">
        <ele>1238.1</ele>
        <time>2026-05-06T14:43:10.000Z</time>
      </trkpt>
      <trkpt lat="41.797291" lon="22.986621">
        <ele>1238.1</ele>
        <time>2026-05-06T14:43:11.000Z</time>
      </trkpt>
      <trkpt lat="41.797291" lon="22.986622">
        <ele>1238.1</ele>
        <time>2026-05-06T14:43:12.000Z</time>
      </trkpt>
      <trkpt lat="41.79729" lon="22.986623">
        <ele>1238.1</ele>
        <time>2026-05-06T14:43:13.000Z</time>
      </trkpt>
      <trkpt lat="41.797289" lon="22.986624">
        <ele>1238.1</ele>
        <time>2026-05-06T14:43:14.000Z</time>
      </trkpt>
      <trkpt lat="41.797286" lon="22.986624">
        <ele>1238.1</ele>
        <time>2026-05-06T14:43:15.000Z</time>
      </trkpt>
      <trkpt lat="41.797282" lon="22.986623">
        <ele>1238.1</ele>
        <time>2026-05-06T14:43:16.000Z</time>
      </trkpt>
      <trkpt lat="41.797275" lon="22.986622">
        <ele>1238.1</ele>
        <time>2026-05-06T14:43:17.000Z</time>
      </trkpt>
      <trkpt lat="41.797269" lon="22.98662">
        <ele>1238.1</ele>
        <time>2026-05-06T14:43:18.000Z</time>
      </trkpt>
      <trkpt lat="41.797262" lon="22.986618">
        <ele>1238.1</ele>
        <time>2026-05-06T14:43:19.000Z</time>
      </trkpt>
      <trkpt lat="41.797256" lon="22.986616">
        <ele>1238.1</ele>
        <time>2026-05-06T14:43:20.000Z</time>
      </trkpt>
      <trkpt lat="41.797252" lon="22.986616">
        <ele>1238.1</ele>
        <time>2026-05-06T14:43:21.000Z</time>
      </trkpt>
      <trkpt lat="41.797249" lon="22.986617">
        <ele>1238.1</ele>
        <time>2026-05-06T14:43:22.000Z</time>
      </trkpt>
      <trkpt lat="41.797248" lon="22.986618">
        <ele>1238.1</ele>
        <time>2026-05-06T14:43:23.000Z</time>
      </trkpt>
      <trkpt lat="41.797248" lon="22.98662">
        <ele>1238.1</ele>
        <time>2026-05-06T14:43:24.000Z</time>
      </trkpt>
      <trkpt lat="41.797247" lon="22.986623">
        <ele>1238.1</ele>
        <time>2026-05-06T14:43:25.000Z</time>
      </trkpt>
      <trkpt lat="41.797245" lon="22.986624">
        <ele>1238.1</ele>
        <time>2026-05-06T14:43:26.000Z</time>
      </trkpt>
      <trkpt lat="41.797245" lon="22.986626">
        <ele>1238.1</ele>
        <time>2026-05-06T14:43:27.000Z</time>
      </trkpt>
      <trkpt lat="41.797246" lon="22.98663">
        <ele>1238.1</ele>
        <time>2026-05-06T14:43:28.000Z</time>
      </trkpt>
      <trkpt lat="41.797248" lon="22.986634">
        <ele>1238.1</ele>
        <time>2026-05-06T14:43:29.000Z</time>
      </trkpt>
      <trkpt lat="41.79725" lon="22.986637">
        <ele>1238.1</ele>
        <time>2026-05-06T14:43:30.000Z</time>
      </trkpt>
      <trkpt lat="41.797252" lon="22.986641">
        <ele>1238.1</ele>
        <time>2026-05-06T14:43:31.000Z</time>
      </trkpt>
      <trkpt lat="41.797253" lon="22.986639">
        <ele>1238.1</ele>
        <time>2026-05-06T14:43:32.000Z</time>
      </trkpt>
      <trkpt lat="41.797252" lon="22.986635">
        <ele>1238.3</ele>
        <time>2026-05-06T14:43:33.000Z</time>
      </trkpt>
      <trkpt lat="41.797252" lon="22.986631">
        <ele>1238.3</ele>
        <time>2026-05-06T14:43:34.000Z</time>
      </trkpt>
      <trkpt lat="41.797251" lon="22.986626">
        <ele>1238.3</ele>
        <time>2026-05-06T14:43:35.000Z</time>
      </trkpt>
      <trkpt lat="41.79725" lon="22.986622">
        <ele>1238.3</ele>
        <time>2026-05-06T14:43:36.000Z</time>
      </trkpt>
      <trkpt lat="41.79725" lon="22.986624">
        <ele>1238.3</ele>
        <time>2026-05-06T14:43:37.000Z</time>
      </trkpt>
      <trkpt lat="41.797249" lon="22.986629">
        <ele>1238.6</ele>
        <time>2026-05-06T14:43:38.000Z</time>
      </trkpt>
      <trkpt lat="41.797249" lon="22.986633">
        <ele>1238.6</ele>
        <time>2026-05-06T14:43:39.000Z</time>
      </trkpt>
      <trkpt lat="41.797248" lon="22.986639">
        <ele>1238.6</ele>
        <time>2026-05-06T14:43:40.000Z</time>
      </trkpt>
      <trkpt lat="41.797247" lon="22.986643">
        <ele>1238.6</ele>
        <time>2026-05-06T14:43:41.000Z</time>
      </trkpt>
      <trkpt lat="41.797246" lon="22.986642">
        <ele>1238.6</ele>
        <time>2026-05-06T14:43:42.000Z</time>
      </trkpt>
      <trkpt lat="41.797246" lon="22.986639">
        <ele>1238.7</ele>
        <time>2026-05-06T14:43:43.000Z</time>
      </trkpt>
      <trkpt lat="41.797245" lon="22.986637">
        <ele>1238.7</ele>
        <time>2026-05-06T14:43:44.000Z</time>
      </trkpt>
      <trkpt lat="41.797245" lon="22.986636">
        <ele>1238.7</ele>
        <time>2026-05-06T14:43:45.000Z</time>
      </trkpt>
      <trkpt lat="41.797246" lon="22.986633">
        <ele>1238.7</ele>
        <time>2026-05-06T14:43:46.000Z</time>
      </trkpt>
      <trkpt lat="41.797247" lon="22.98663">
        <ele>1238.7</ele>
        <time>2026-05-06T14:43:47.000Z</time>
      </trkpt>
      <trkpt lat="41.797247" lon="22.986629">
        <ele>1238.8</ele>
        <time>2026-05-06T14:43:48.000Z</time>
      </trkpt>
      <trkpt lat="41.797248" lon="22.986625">
        <ele>1238.8</ele>
        <time>2026-05-06T14:43:49.000Z</time>
      </trkpt>
      <trkpt lat="41.797249" lon="22.986619">
        <ele>1238.8</ele>
        <time>2026-05-06T14:43:50.000Z</time>
      </trkpt>
      <trkpt lat="41.797249" lon="22.986616">
        <ele>1238.8</ele>
        <time>2026-05-06T14:43:51.000Z</time>
      </trkpt>
      <trkpt lat="41.797249" lon="22.986615">
        <ele>1238.8</ele>
        <time>2026-05-06T14:43:52.000Z</time>
      </trkpt>
      <trkpt lat="41.797248" lon="22.986614">
        <ele>1238.8</ele>
        <time>2026-05-06T14:43:53.000Z</time>
      </trkpt>
      <trkpt lat="41.797248" lon="22.986614">
        <ele>1238.8</ele>
        <time>2026-05-06T14:43:54.000Z</time>
      </trkpt>
      <trkpt lat="41.797248" lon="22.986615">
        <ele>1238.8</ele>
        <time>2026-05-06T14:43:55.000Z</time>
      </trkpt>
      <trkpt lat="41.797248" lon="22.986615">
        <ele>1238.8</ele>
        <time>2026-05-06T14:43:56.000Z</time>
      </trkpt>
      <trkpt lat="41.797247" lon="22.986616">
        <ele>1238.8</ele>
        <time>2026-05-06T14:43:57.000Z</time>
      </trkpt>
      <trkpt lat="41.797247" lon="22.986616">
        <ele>1238.8</ele>
        <time>2026-05-06T14:43:58.000Z</time>
      </trkpt>
      <trkpt lat="41.797247" lon="22.986616">
        <ele>1238.8</ele>
        <time>2026-05-06T14:43:59.000Z</time>
      </trkpt>
      <trkpt lat="41.797247" lon="22.986616">
        <ele>1238.8</ele>
        <time>2026-05-06T14:44:00.000Z</time>
      </trkpt>
      <trkpt lat="41.797247" lon="22.986618">
        <ele>1238.8</ele>
        <time>2026-05-06T14:44:01.000Z</time>
      </trkpt>
      <trkpt lat="41.797247" lon="22.986621">
        <ele>1238.8</ele>
        <time>2026-05-06T14:44:02.000Z</time>
      </trkpt>
      <trkpt lat="41.797248" lon="22.986622">
        <ele>1238.6</ele>
        <time>2026-05-06T14:44:03.000Z</time>
      </trkpt>
      <trkpt lat="41.797248" lon="22.986617">
        <ele>1238.6</ele>
        <time>2026-05-06T14:44:04.000Z</time>
      </trkpt>
      <trkpt lat="41.797253" lon="22.986608">
        <ele>1238.6</ele>
        <time>2026-05-06T14:44:05.000Z</time>
      </trkpt>
      <trkpt lat="41.797261" lon="22.986598">
        <ele>1238.6</ele>
        <time>2026-05-06T14:44:06.000Z</time>
      </trkpt>
      <trkpt lat="41.797271" lon="22.986589">
        <ele>1238.6</ele>
        <time>2026-05-06T14:44:07.000Z</time>
      </trkpt>
      <trkpt lat="41.797283" lon="22.986582">
        <ele>1238.5</ele>
        <time>2026-05-06T14:44:08.000Z</time>
      </trkpt>
      <trkpt lat="41.797298" lon="22.986577">
        <ele>1238.5</ele>
        <time>2026-05-06T14:44:09.000Z</time>
      </trkpt>
      <trkpt lat="41.797311" lon="22.986571">
        <ele>1238.5</ele>
        <time>2026-05-06T14:44:10.000Z</time>
      </trkpt>
      <trkpt lat="41.797324" lon="22.986561">
        <ele>1238.5</ele>
        <time>2026-05-06T14:44:11.000Z</time>
      </trkpt>
      <trkpt lat="41.797336" lon="22.986548">
        <ele>1238.5</ele>
        <time>2026-05-06T14:44:12.000Z</time>
      </trkpt>
      <trkpt lat="41.797346" lon="22.986533">
        <ele>1238.5</ele>
        <time>2026-05-06T14:44:13.000Z</time>
      </trkpt>
      <trkpt lat="41.797356" lon="22.986522">
        <ele>1238.5</ele>
        <time>2026-05-06T14:44:14.000Z</time>
      </trkpt>
      <trkpt lat="41.797365" lon="22.986517">
        <ele>1238.5</ele>
        <time>2026-05-06T14:44:15.000Z</time>
      </trkpt>
      <trkpt lat="41.797373" lon="22.986516">
        <ele>1238.5</ele>
        <time>2026-05-06T14:44:16.000Z</time>
      </trkpt>
      <trkpt lat="41.797383" lon="22.986516">
        <ele>1238.5</ele>
        <time>2026-05-06T14:44:17.000Z</time>
      </trkpt>
      <trkpt lat="41.797393" lon="22.986518">
        <ele>1238.4</ele>
        <time>2026-05-06T14:44:18.000Z</time>
      </trkpt>
      <trkpt lat="41.797405" lon="22.986521">
        <ele>1238.4</ele>
        <time>2026-05-06T14:44:19.000Z</time>
      </trkpt>
      <trkpt lat="41.797416" lon="22.986525">
        <ele>1238.4</ele>
        <time>2026-05-06T14:44:20.000Z</time>
      </trkpt>
      <trkpt lat="41.797428" lon="22.986529">
        <ele>1238.4</ele>
        <time>2026-05-06T14:44:21.000Z</time>
      </trkpt>
      <trkpt lat="41.797439" lon="22.986535">
        <ele>1238.4</ele>
        <time>2026-05-06T14:44:22.000Z</time>
      </trkpt>
      <trkpt lat="41.797451" lon="22.986541">
        <ele>1238.1</ele>
        <time>2026-05-06T14:44:23.000Z</time>
      </trkpt>
      <trkpt lat="41.797461" lon="22.986546">
        <ele>1238.1</ele>
        <time>2026-05-06T14:44:24.000Z</time>
      </trkpt>
      <trkpt lat="41.797473" lon="22.986552">
        <ele>1238.1</ele>
        <time>2026-05-06T14:44:25.000Z</time>
      </trkpt>
      <trkpt lat="41.797484" lon="22.986557">
        <ele>1238.1</ele>
        <time>2026-05-06T14:44:26.000Z</time>
      </trkpt>
      <trkpt lat="41.797495" lon="22.986561">
        <ele>1238.1</ele>
        <time>2026-05-06T14:44:27.000Z</time>
      </trkpt>
      <trkpt lat="41.797507" lon="22.986563">
        <ele>1237.9</ele>
        <time>2026-05-06T14:44:28.000Z</time>
      </trkpt>
      <trkpt lat="41.797521" lon="22.986566">
        <ele>1237.9</ele>
        <time>2026-05-06T14:44:29.000Z</time>
      </trkpt>
      <trkpt lat="41.797534" lon="22.986569">
        <ele>1237.9</ele>
        <time>2026-05-06T14:44:30.000Z</time>
      </trkpt>
      <trkpt lat="41.797547" lon="22.986572">
        <ele>1237.9</ele>
        <time>2026-05-06T14:44:31.000Z</time>
      </trkpt>
      <trkpt lat="41.797561" lon="22.986576">
        <ele>1237.9</ele>
        <time>2026-05-06T14:44:32.000Z</time>
      </trkpt>
      <trkpt lat="41.797576" lon="22.986581">
        <ele>1237.6</ele>
        <time>2026-05-06T14:44:33.000Z</time>
      </trkpt>
      <trkpt lat="41.797591" lon="22.986587">
        <ele>1237.6</ele>
        <time>2026-05-06T14:44:34.000Z</time>
      </trkpt>
      <trkpt lat="41.797606" lon="22.986594">
        <ele>1237.6</ele>
        <time>2026-05-06T14:44:35.000Z</time>
      </trkpt>
      <trkpt lat="41.797622" lon="22.986602">
        <ele>1237.6</ele>
        <time>2026-05-06T14:44:36.000Z</time>
      </trkpt>
      <trkpt lat="41.797634" lon="22.986608">
        <ele>1237.6</ele>
        <time>2026-05-06T14:44:37.000Z</time>
      </trkpt>
      <trkpt lat="41.797643" lon="22.986612">
        <ele>1237.4</ele>
        <time>2026-05-06T14:44:38.000Z</time>
      </trkpt>
      <trkpt lat="41.797651" lon="22.986615">
        <ele>1237.4</ele>
        <time>2026-05-06T14:44:39.000Z</time>
      </trkpt>
      <trkpt lat="41.79766" lon="22.986615">
        <ele>1237.4</ele>
        <time>2026-05-06T14:44:40.000Z</time>
      </trkpt>
      <trkpt lat="41.797669" lon="22.986616">
        <ele>1237.4</ele>
        <time>2026-05-06T14:44:41.000Z</time>
      </trkpt>
      <trkpt lat="41.797679" lon="22.986615">
        <ele>1237.4</ele>
        <time>2026-05-06T14:44:42.000Z</time>
      </trkpt>
      <trkpt lat="41.79769" lon="22.986614">
        <ele>1237.2</ele>
        <time>2026-05-06T14:44:43.000Z</time>
      </trkpt>
      <trkpt lat="41.797701" lon="22.986613">
        <ele>1237.2</ele>
        <time>2026-05-06T14:44:44.000Z</time>
      </trkpt>
      <trkpt lat="41.797711" lon="22.986611">
        <ele>1237.2</ele>
        <time>2026-05-06T14:44:45.000Z</time>
      </trkpt>
      <trkpt lat="41.797722" lon="22.986607">
        <ele>1237.2</ele>
        <time>2026-05-06T14:44:46.000Z</time>
      </trkpt>
      <trkpt lat="41.797733" lon="22.986602">
        <ele>1237.2</ele>
        <time>2026-05-06T14:44:47.000Z</time>
      </trkpt>
      <trkpt lat="41.797745" lon="22.986597">
        <ele>1236.8</ele>
        <time>2026-05-06T14:44:48.000Z</time>
      </trkpt>
      <trkpt lat="41.797757" lon="22.98659">
        <ele>1236.8</ele>
        <time>2026-05-06T14:44:49.000Z</time>
      </trkpt>
      <trkpt lat="41.797769" lon="22.986584">
        <ele>1236.8</ele>
        <time>2026-05-06T14:44:50.000Z</time>
      </trkpt>
      <trkpt lat="41.797781" lon="22.986577">
        <ele>1236.8</ele>
        <time>2026-05-06T14:44:51.000Z</time>
      </trkpt>
      <trkpt lat="41.797793" lon="22.986571">
        <ele>1236.8</ele>
        <time>2026-05-06T14:44:52.000Z</time>
      </trkpt>
      <trkpt lat="41.797805" lon="22.986565">
        <ele>1236.4</ele>
        <time>2026-05-06T14:44:53.000Z</time>
      </trkpt>
      <trkpt lat="41.797818" lon="22.98656">
        <ele>1236.4</ele>
        <time>2026-05-06T14:44:54.000Z</time>
      </trkpt>
      <trkpt lat="41.797831" lon="22.986554">
        <ele>1236.4</ele>
        <time>2026-05-06T14:44:55.000Z</time>
      </trkpt>
      <trkpt lat="41.797844" lon="22.986548">
        <ele>1236.4</ele>
        <time>2026-05-06T14:44:56.000Z</time>
      </trkpt>
      <trkpt lat="41.797857" lon="22.986542">
        <ele>1236.4</ele>
        <time>2026-05-06T14:44:57.000Z</time>
      </trkpt>
      <trkpt lat="41.79787" lon="22.986534">
        <ele>1236.2</ele>
        <time>2026-05-06T14:44:58.000Z</time>
      </trkpt>
      <trkpt lat="41.797884" lon="22.986525">
        <ele>1236.2</ele>
        <time>2026-05-06T14:44:59.000Z</time>
      </trkpt>
      <trkpt lat="41.797898" lon="22.986517">
        <ele>1236.2</ele>
        <time>2026-05-06T14:45:00.000Z</time>
      </trkpt>
      <trkpt lat="41.797913" lon="22.986508">
        <ele>1236.2</ele>
        <time>2026-05-06T14:45:01.000Z</time>
      </trkpt>
      <trkpt lat="41.797927" lon="22.986501">
        <ele>1236.2</ele>
        <time>2026-05-06T14:45:02.000Z</time>
      </trkpt>
      <trkpt lat="41.797942" lon="22.986494">
        <ele>1236.1</ele>
        <time>2026-05-06T14:45:03.000Z</time>
      </trkpt>
      <trkpt lat="41.797956" lon="22.986488">
        <ele>1236.1</ele>
        <time>2026-05-06T14:45:04.000Z</time>
      </trkpt>
      <trkpt lat="41.797969" lon="22.986482">
        <ele>1236.1</ele>
        <time>2026-05-06T14:45:05.000Z</time>
      </trkpt>
      <trkpt lat="41.797981" lon="22.986474">
        <ele>1236.1</ele>
        <time>2026-05-06T14:45:06.000Z</time>
      </trkpt>
      <trkpt lat="41.797992" lon="22.986466">
        <ele>1236.1</ele>
        <time>2026-05-06T14:45:07.000Z</time>
      </trkpt>
      <trkpt lat="41.798002" lon="22.986459">
        <ele>1236</ele>
        <time>2026-05-06T14:45:08.000Z</time>
      </trkpt>
      <trkpt lat="41.798013" lon="22.986451">
        <ele>1236</ele>
        <time>2026-05-06T14:45:09.000Z</time>
      </trkpt>
      <trkpt lat="41.798024" lon="22.986444">
        <ele>1236</ele>
        <time>2026-05-06T14:45:10.000Z</time>
      </trkpt>
      <trkpt lat="41.798035" lon="22.986436">
        <ele>1236</ele>
        <time>2026-05-06T14:45:11.000Z</time>
      </trkpt>
      <trkpt lat="41.798047" lon="22.986427">
        <ele>1236</ele>
        <time>2026-05-06T14:45:12.000Z</time>
      </trkpt>
      <trkpt lat="41.798059" lon="22.986418">
        <ele>1235.9</ele>
        <time>2026-05-06T14:45:13.000Z</time>
      </trkpt>
      <trkpt lat="41.798072" lon="22.986408">
        <ele>1235.9</ele>
        <time>2026-05-06T14:45:14.000Z</time>
      </trkpt>
      <trkpt lat="41.798084" lon="22.986399">
        <ele>1235.9</ele>
        <time>2026-05-06T14:45:15.000Z</time>
      </trkpt>
      <trkpt lat="41.798097" lon="22.986391">
        <ele>1235.9</ele>
        <time>2026-05-06T14:45:16.000Z</time>
      </trkpt>
      <trkpt lat="41.798109" lon="22.986383">
        <ele>1235.9</ele>
        <time>2026-05-06T14:45:17.000Z</time>
      </trkpt>
      <trkpt lat="41.798122" lon="22.986374">
        <ele>1235.6</ele>
        <time>2026-05-06T14:45:18.000Z</time>
      </trkpt>
      <trkpt lat="41.798133" lon="22.986366">
        <ele>1235.6</ele>
        <time>2026-05-06T14:45:19.000Z</time>
      </trkpt>
      <trkpt lat="41.798144" lon="22.986357">
        <ele>1235.6</ele>
        <time>2026-05-06T14:45:20.000Z</time>
      </trkpt>
      <trkpt lat="41.798155" lon="22.986347">
        <ele>1235.6</ele>
        <time>2026-05-06T14:45:21.000Z</time>
      </trkpt>
      <trkpt lat="41.798166" lon="22.986338">
        <ele>1235.6</ele>
        <time>2026-05-06T14:45:22.000Z</time>
      </trkpt>
      <trkpt lat="41.798178" lon="22.98633">
        <ele>1235.2</ele>
        <time>2026-05-06T14:45:23.000Z</time>
      </trkpt>
      <trkpt lat="41.79819" lon="22.986321">
        <ele>1235.2</ele>
        <time>2026-05-06T14:45:24.000Z</time>
      </trkpt>
      <trkpt lat="41.798201" lon="22.986311">
        <ele>1235.2</ele>
        <time>2026-05-06T14:45:25.000Z</time>
      </trkpt>
      <trkpt lat="41.798211" lon="22.986299">
        <ele>1235.2</ele>
        <time>2026-05-06T14:45:26.000Z</time>
      </trkpt>
      <trkpt lat="41.79822" lon="22.986286">
        <ele>1235.2</ele>
        <time>2026-05-06T14:45:27.000Z</time>
      </trkpt>
      <trkpt lat="41.798228" lon="22.986272">
        <ele>1235</ele>
        <time>2026-05-06T14:45:28.000Z</time>
      </trkpt>
      <trkpt lat="41.798237" lon="22.986258">
        <ele>1235</ele>
        <time>2026-05-06T14:45:29.000Z</time>
      </trkpt>
      <trkpt lat="41.798246" lon="22.986244">
        <ele>1235</ele>
        <time>2026-05-06T14:45:30.000Z</time>
      </trkpt>
      <trkpt lat="41.798256" lon="22.98623">
        <ele>1235</ele>
        <time>2026-05-06T14:45:31.000Z</time>
      </trkpt>
      <trkpt lat="41.798267" lon="22.986217">
        <ele>1235</ele>
        <time>2026-05-06T14:45:32.000Z</time>
      </trkpt>
      <trkpt lat="41.798277" lon="22.986202">
        <ele>1234.5</ele>
        <time>2026-05-06T14:45:33.000Z</time>
      </trkpt>
      <trkpt lat="41.798287" lon="22.986187">
        <ele>1234.5</ele>
        <time>2026-05-06T14:45:34.000Z</time>
      </trkpt>
      <trkpt lat="41.798297" lon="22.986172">
        <ele>1234.5</ele>
        <time>2026-05-06T14:45:35.000Z</time>
      </trkpt>
      <trkpt lat="41.798307" lon="22.986156">
        <ele>1234.5</ele>
        <time>2026-05-06T14:45:36.000Z</time>
      </trkpt>
      <trkpt lat="41.798317" lon="22.986139">
        <ele>1234.5</ele>
        <time>2026-05-06T14:45:37.000Z</time>
      </trkpt>
      <trkpt lat="41.798328" lon="22.986122">
        <ele>1234</ele>
        <time>2026-05-06T14:45:38.000Z</time>
      </trkpt>
      <trkpt lat="41.798338" lon="22.986104">
        <ele>1234</ele>
        <time>2026-05-06T14:45:39.000Z</time>
      </trkpt>
      <trkpt lat="41.798349" lon="22.986085">
        <ele>1234</ele>
        <time>2026-05-06T14:45:40.000Z</time>
      </trkpt>
      <trkpt lat="41.798359" lon="22.986066">
        <ele>1234</ele>
        <time>2026-05-06T14:45:41.000Z</time>
      </trkpt>
      <trkpt lat="41.798367" lon="22.986047">
        <ele>1234</ele>
        <time>2026-05-06T14:45:42.000Z</time>
      </trkpt>
      <trkpt lat="41.798374" lon="22.986028">
        <ele>1233.8</ele>
        <time>2026-05-06T14:45:43.000Z</time>
      </trkpt>
      <trkpt lat="41.79838" lon="22.98601">
        <ele>1233.8</ele>
        <time>2026-05-06T14:45:44.000Z</time>
      </trkpt>
      <trkpt lat="41.798386" lon="22.985992">
        <ele>1233.8</ele>
        <time>2026-05-06T14:45:45.000Z</time>
      </trkpt>
      <trkpt lat="41.798391" lon="22.985973">
        <ele>1233.8</ele>
        <time>2026-05-06T14:45:46.000Z</time>
      </trkpt>
      <trkpt lat="41.798396" lon="22.985955">
        <ele>1233.8</ele>
        <time>2026-05-06T14:45:47.000Z</time>
      </trkpt>
      <trkpt lat="41.798401" lon="22.985936">
        <ele>1233.1</ele>
        <time>2026-05-06T14:45:48.000Z</time>
      </trkpt>
      <trkpt lat="41.798408" lon="22.985918">
        <ele>1233.1</ele>
        <time>2026-05-06T14:45:49.000Z</time>
      </trkpt>
      <trkpt lat="41.798416" lon="22.985899">
        <ele>1233.1</ele>
        <time>2026-05-06T14:45:50.000Z</time>
      </trkpt>
      <trkpt lat="41.798424" lon="22.985882">
        <ele>1233.1</ele>
        <time>2026-05-06T14:45:51.000Z</time>
      </trkpt>
      <trkpt lat="41.798432" lon="22.985864">
        <ele>1233.1</ele>
        <time>2026-05-06T14:45:52.000Z</time>
      </trkpt>
      <trkpt lat="41.798441" lon="22.985847">
        <ele>1232.4</ele>
        <time>2026-05-06T14:45:53.000Z</time>
      </trkpt>
      <trkpt lat="41.79845" lon="22.985831">
        <ele>1232.4</ele>
        <time>2026-05-06T14:45:54.000Z</time>
      </trkpt>
      <trkpt lat="41.798458" lon="22.985815">
        <ele>1232.4</ele>
        <time>2026-05-06T14:45:55.000Z</time>
      </trkpt>
      <trkpt lat="41.798466" lon="22.985799">
        <ele>1232.4</ele>
        <time>2026-05-06T14:45:56.000Z</time>
      </trkpt>
      <trkpt lat="41.798476" lon="22.985784">
        <ele>1232.4</ele>
        <time>2026-05-06T14:45:57.000Z</time>
      </trkpt>
      <trkpt lat="41.798486" lon="22.985768">
        <ele>1232</ele>
        <time>2026-05-06T14:45:58.000Z</time>
      </trkpt>
      <trkpt lat="41.798496" lon="22.985751">
        <ele>1232</ele>
        <time>2026-05-06T14:45:59.000Z</time>
      </trkpt>
      <trkpt lat="41.798508" lon="22.985734">
        <ele>1232</ele>
        <time>2026-05-06T14:46:00.000Z</time>
      </trkpt>
      <trkpt lat="41.79852" lon="22.985718">
        <ele>1232</ele>
        <time>2026-05-06T14:46:01.000Z</time>
      </trkpt>
      <trkpt lat="41.798533" lon="22.985702">
        <ele>1232</ele>
        <time>2026-05-06T14:46:02.000Z</time>
      </trkpt>
      <trkpt lat="41.798545" lon="22.985688">
        <ele>1231.3</ele>
        <time>2026-05-06T14:46:03.000Z</time>
      </trkpt>
      <trkpt lat="41.798559" lon="22.985675">
        <ele>1231.3</ele>
        <time>2026-05-06T14:46:04.000Z</time>
      </trkpt>
      <trkpt lat="41.798573" lon="22.985661">
        <ele>1231.3</ele>
        <time>2026-05-06T14:46:05.000Z</time>
      </trkpt>
      <trkpt lat="41.798586" lon="22.985648">
        <ele>1231.3</ele>
        <time>2026-05-06T14:46:06.000Z</time>
      </trkpt>
      <trkpt lat="41.798599" lon="22.985633">
        <ele>1231.3</ele>
        <time>2026-05-06T14:46:07.000Z</time>
      </trkpt>
      <trkpt lat="41.798611" lon="22.985618">
        <ele>1230.5</ele>
        <time>2026-05-06T14:46:08.000Z</time>
      </trkpt>
      <trkpt lat="41.798621" lon="22.985602">
        <ele>1230.5</ele>
        <time>2026-05-06T14:46:09.000Z</time>
      </trkpt>
      <trkpt lat="41.798629" lon="22.985586">
        <ele>1230.5</ele>
        <time>2026-05-06T14:46:10.000Z</time>
      </trkpt>
      <trkpt lat="41.798638" lon="22.98557">
        <ele>1230.5</ele>
        <time>2026-05-06T14:46:11.000Z</time>
      </trkpt>
      <trkpt lat="41.798646" lon="22.985555">
        <ele>1230.5</ele>
        <time>2026-05-06T14:46:12.000Z</time>
      </trkpt>
      <trkpt lat="41.798655" lon="22.98554">
        <ele>1230</ele>
        <time>2026-05-06T14:46:13.000Z</time>
      </trkpt>
      <trkpt lat="41.798666" lon="22.985526">
        <ele>1230</ele>
        <time>2026-05-06T14:46:14.000Z</time>
      </trkpt>
      <trkpt lat="41.798677" lon="22.985514">
        <ele>1230</ele>
        <time>2026-05-06T14:46:15.000Z</time>
      </trkpt>
      <trkpt lat="41.798689" lon="22.9855">
        <ele>1230</ele>
        <time>2026-05-06T14:46:16.000Z</time>
      </trkpt>
      <trkpt lat="41.7987" lon="22.985486">
        <ele>1230</ele>
        <time>2026-05-06T14:46:17.000Z</time>
      </trkpt>
      <trkpt lat="41.798712" lon="22.985471">
        <ele>1229</ele>
        <time>2026-05-06T14:46:18.000Z</time>
      </trkpt>
      <trkpt lat="41.798724" lon="22.985456">
        <ele>1229</ele>
        <time>2026-05-06T14:46:19.000Z</time>
      </trkpt>
      <trkpt lat="41.798735" lon="22.985441">
        <ele>1229</ele>
        <time>2026-05-06T14:46:20.000Z</time>
      </trkpt>
      <trkpt lat="41.798746" lon="22.985426">
        <ele>1229</ele>
        <time>2026-05-06T14:46:21.000Z</time>
      </trkpt>
      <trkpt lat="41.798757" lon="22.985413">
        <ele>1229</ele>
        <time>2026-05-06T14:46:22.000Z</time>
      </trkpt>
      <trkpt lat="41.798766" lon="22.985399">
        <ele>1227.8</ele>
        <time>2026-05-06T14:46:23.000Z</time>
      </trkpt>
      <trkpt lat="41.798775" lon="22.985386">
        <ele>1227.8</ele>
        <time>2026-05-06T14:46:24.000Z</time>
      </trkpt>
      <trkpt lat="41.798785" lon="22.985373">
        <ele>1227.8</ele>
        <time>2026-05-06T14:46:25.000Z</time>
      </trkpt>
      <trkpt lat="41.798794" lon="22.98536">
        <ele>1227.8</ele>
        <time>2026-05-06T14:46:26.000Z</time>
      </trkpt>
      <trkpt lat="41.798803" lon="22.985348">
        <ele>1227.8</ele>
        <time>2026-05-06T14:46:27.000Z</time>
      </trkpt>
      <trkpt lat="41.798815" lon="22.985336">
        <ele>1227.2</ele>
        <time>2026-05-06T14:46:28.000Z</time>
      </trkpt>
      <trkpt lat="41.798826" lon="22.985324">
        <ele>1227.2</ele>
        <time>2026-05-06T14:46:29.000Z</time>
      </trkpt>
      <trkpt lat="41.798836" lon="22.985312">
        <ele>1227.2</ele>
        <time>2026-05-06T14:46:30.000Z</time>
      </trkpt>
      <trkpt lat="41.798847" lon="22.9853">
        <ele>1227.2</ele>
        <time>2026-05-06T14:46:31.000Z</time>
      </trkpt>
      <trkpt lat="41.798857" lon="22.985288">
        <ele>1227.2</ele>
        <time>2026-05-06T14:46:32.000Z</time>
      </trkpt>
      <trkpt lat="41.798867" lon="22.985276">
        <ele>1226.1</ele>
        <time>2026-05-06T14:46:33.000Z</time>
      </trkpt>
      <trkpt lat="41.798876" lon="22.985264">
        <ele>1226.1</ele>
        <time>2026-05-06T14:46:34.000Z</time>
      </trkpt>
      <trkpt lat="41.798886" lon="22.985252">
        <ele>1226.1</ele>
        <time>2026-05-06T14:46:35.000Z</time>
      </trkpt>
      <trkpt lat="41.798897" lon="22.985241">
        <ele>1226.1</ele>
        <time>2026-05-06T14:46:36.000Z</time>
      </trkpt>
      <trkpt lat="41.79891" lon="22.985231">
        <ele>1226.1</ele>
        <time>2026-05-06T14:46:37.000Z</time>
      </trkpt>
      <trkpt lat="41.798923" lon="22.985222">
        <ele>1225.2</ele>
        <time>2026-05-06T14:46:38.000Z</time>
      </trkpt>
      <trkpt lat="41.798936" lon="22.985212">
        <ele>1225.2</ele>
        <time>2026-05-06T14:46:39.000Z</time>
      </trkpt>
      <trkpt lat="41.79895" lon="22.985205">
        <ele>1225.2</ele>
        <time>2026-05-06T14:46:40.000Z</time>
      </trkpt>
      <trkpt lat="41.798961" lon="22.985196">
        <ele>1225.2</ele>
        <time>2026-05-06T14:46:41.000Z</time>
      </trkpt>
      <trkpt lat="41.798972" lon="22.985186">
        <ele>1225.2</ele>
        <time>2026-05-06T14:46:42.000Z</time>
      </trkpt>
      <trkpt lat="41.798981" lon="22.985178">
        <ele>1224.8</ele>
        <time>2026-05-06T14:46:43.000Z</time>
      </trkpt>
      <trkpt lat="41.798991" lon="22.985171">
        <ele>1224.8</ele>
        <time>2026-05-06T14:46:44.000Z</time>
      </trkpt>
      <trkpt lat="41.799" lon="22.985161">
        <ele>1224.8</ele>
        <time>2026-05-06T14:46:45.000Z</time>
      </trkpt>
      <trkpt lat="41.79901" lon="22.985151">
        <ele>1224.8</ele>
        <time>2026-05-06T14:46:46.000Z</time>
      </trkpt>
      <trkpt lat="41.799022" lon="22.985143">
        <ele>1224.8</ele>
        <time>2026-05-06T14:46:47.000Z</time>
      </trkpt>
      <trkpt lat="41.79903" lon="22.985136">
        <ele>1224.2</ele>
        <time>2026-05-06T14:46:48.000Z</time>
      </trkpt>
      <trkpt lat="41.799038" lon="22.98513">
        <ele>1224.2</ele>
        <time>2026-05-06T14:46:49.000Z</time>
      </trkpt>
      <trkpt lat="41.799044" lon="22.985127">
        <ele>1224.2</ele>
        <time>2026-05-06T14:46:50.000Z</time>
      </trkpt>
      <trkpt lat="41.799047" lon="22.985125">
        <ele>1224.2</ele>
        <time>2026-05-06T14:46:51.000Z</time>
      </trkpt>
      <trkpt lat="41.799047" lon="22.985123">
        <ele>1224.2</ele>
        <time>2026-05-06T14:46:52.000Z</time>
      </trkpt>
      <trkpt lat="41.799046" lon="22.98512">
        <ele>1223.4</ele>
        <time>2026-05-06T14:46:53.000Z</time>
      </trkpt>
      <trkpt lat="41.799045" lon="22.985118">
        <ele>1223.4</ele>
        <time>2026-05-06T14:46:54.000Z</time>
      </trkpt>
      <trkpt lat="41.799045" lon="22.985115">
        <ele>1223.4</ele>
        <time>2026-05-06T14:46:55.000Z</time>
      </trkpt>
      <trkpt lat="41.799047" lon="22.98511">
        <ele>1223.4</ele>
        <time>2026-05-06T14:46:56.000Z</time>
      </trkpt>
      <trkpt lat="41.799052" lon="22.985104">
        <ele>1223.4</ele>
        <time>2026-05-06T14:46:57.000Z</time>
      </trkpt>
      <trkpt lat="41.79906" lon="22.985097">
        <ele>1223</ele>
        <time>2026-05-06T14:46:58.000Z</time>
      </trkpt>
      <trkpt lat="41.79907" lon="22.985088">
        <ele>1223</ele>
        <time>2026-05-06T14:46:59.000Z</time>
      </trkpt>
      <trkpt lat="41.799081" lon="22.985079">
        <ele>1223</ele>
        <time>2026-05-06T14:47:00.000Z</time>
      </trkpt>
      <trkpt lat="41.799094" lon="22.985072">
        <ele>1223</ele>
        <time>2026-05-06T14:47:01.000Z</time>
      </trkpt>
      <trkpt lat="41.799106" lon="22.985065">
        <ele>1223</ele>
        <time>2026-05-06T14:47:02.000Z</time>
      </trkpt>
      <trkpt lat="41.799119" lon="22.985059">
        <ele>1222.3</ele>
        <time>2026-05-06T14:47:03.000Z</time>
      </trkpt>
      <trkpt lat="41.799132" lon="22.985053">
        <ele>1222.3</ele>
        <time>2026-05-06T14:47:04.000Z</time>
      </trkpt>
      <trkpt lat="41.799145" lon="22.985045">
        <ele>1222.3</ele>
        <time>2026-05-06T14:47:05.000Z</time>
      </trkpt>
      <trkpt lat="41.799158" lon="22.985035">
        <ele>1222.3</ele>
        <time>2026-05-06T14:47:06.000Z</time>
      </trkpt>
      <trkpt lat="41.799172" lon="22.985023">
        <ele>1222.3</ele>
        <time>2026-05-06T14:47:07.000Z</time>
      </trkpt>
      <trkpt lat="41.799185" lon="22.985012">
        <ele>1222.1</ele>
        <time>2026-05-06T14:47:08.000Z</time>
      </trkpt>
      <trkpt lat="41.799199" lon="22.985001">
        <ele>1222.1</ele>
        <time>2026-05-06T14:47:09.000Z</time>
      </trkpt>
      <trkpt lat="41.799212" lon="22.984991">
        <ele>1222.1</ele>
        <time>2026-05-06T14:47:10.000Z</time>
      </trkpt>
      <trkpt lat="41.799223" lon="22.984983">
        <ele>1222.1</ele>
        <time>2026-05-06T14:47:11.000Z</time>
      </trkpt>
      <trkpt lat="41.799234" lon="22.984974">
        <ele>1222.1</ele>
        <time>2026-05-06T14:47:12.000Z</time>
      </trkpt>
      <trkpt lat="41.799244" lon="22.984966">
        <ele>1221.8</ele>
        <time>2026-05-06T14:47:13.000Z</time>
      </trkpt>
      <trkpt lat="41.799254" lon="22.984958">
        <ele>1221.8</ele>
        <time>2026-05-06T14:47:14.000Z</time>
      </trkpt>
      <trkpt lat="41.799265" lon="22.984951">
        <ele>1221.8</ele>
        <time>2026-05-06T14:47:15.000Z</time>
      </trkpt>
      <trkpt lat="41.799275" lon="22.984944">
        <ele>1221.8</ele>
        <time>2026-05-06T14:47:16.000Z</time>
      </trkpt>
      <trkpt lat="41.799286" lon="22.984937">
        <ele>1221.8</ele>
        <time>2026-05-06T14:47:17.000Z</time>
      </trkpt>
      <trkpt lat="41.799298" lon="22.984929">
        <ele>1221.2</ele>
        <time>2026-05-06T14:47:18.000Z</time>
      </trkpt>
      <trkpt lat="41.799309" lon="22.984921">
        <ele>1221.2</ele>
        <time>2026-05-06T14:47:19.000Z</time>
      </trkpt>
      <trkpt lat="41.799321" lon="22.984912">
        <ele>1221.2</ele>
        <time>2026-05-06T14:47:20.000Z</time>
      </trkpt>
      <trkpt lat="41.799334" lon="22.984902">
        <ele>1221.2</ele>
        <time>2026-05-06T14:47:21.000Z</time>
      </trkpt>
      <trkpt lat="41.799347" lon="22.984892">
        <ele>1221.2</ele>
        <time>2026-05-06T14:47:22.000Z</time>
      </trkpt>
      <trkpt lat="41.799361" lon="22.984881">
        <ele>1220.6</ele>
        <time>2026-05-06T14:47:23.000Z</time>
      </trkpt>
      <trkpt lat="41.799374" lon="22.984871">
        <ele>1220.6</ele>
        <time>2026-05-06T14:47:24.000Z</time>
      </trkpt>
      <trkpt lat="41.799387" lon="22.984861">
        <ele>1220.6</ele>
        <time>2026-05-06T14:47:25.000Z</time>
      </trkpt>
      <trkpt lat="41.7994" lon="22.984852">
        <ele>1220.6</ele>
        <time>2026-05-06T14:47:26.000Z</time>
      </trkpt>
      <trkpt lat="41.799411" lon="22.984842">
        <ele>1220.6</ele>
        <time>2026-05-06T14:47:27.000Z</time>
      </trkpt>
      <trkpt lat="41.799422" lon="22.984834">
        <ele>1220.3</ele>
        <time>2026-05-06T14:47:28.000Z</time>
      </trkpt>
      <trkpt lat="41.799434" lon="22.984826">
        <ele>1220.3</ele>
        <time>2026-05-06T14:47:29.000Z</time>
      </trkpt>
      <trkpt lat="41.799446" lon="22.984818">
        <ele>1220.3</ele>
        <time>2026-05-06T14:47:30.000Z</time>
      </trkpt>
      <trkpt lat="41.799458" lon="22.98481">
        <ele>1220.3</ele>
        <time>2026-05-06T14:47:31.000Z</time>
      </trkpt>
      <trkpt lat="41.799471" lon="22.984801">
        <ele>1220.3</ele>
        <time>2026-05-06T14:47:32.000Z</time>
      </trkpt>
      <trkpt lat="41.799483" lon="22.984792">
        <ele>1219.4</ele>
        <time>2026-05-06T14:47:33.000Z</time>
      </trkpt>
      <trkpt lat="41.799496" lon="22.984782">
        <ele>1219.4</ele>
        <time>2026-05-06T14:47:34.000Z</time>
      </trkpt>
      <trkpt lat="41.79951" lon="22.984772">
        <ele>1219.4</ele>
        <time>2026-05-06T14:47:35.000Z</time>
      </trkpt>
      <trkpt lat="41.799524" lon="22.984761">
        <ele>1219.4</ele>
        <time>2026-05-06T14:47:36.000Z</time>
      </trkpt>
      <trkpt lat="41.799538" lon="22.98475">
        <ele>1219.4</ele>
        <time>2026-05-06T14:47:37.000Z</time>
      </trkpt>
      <trkpt lat="41.799552" lon="22.984739">
        <ele>1218.3</ele>
        <time>2026-05-06T14:47:38.000Z</time>
      </trkpt>
      <trkpt lat="41.799565" lon="22.984729">
        <ele>1218.3</ele>
        <time>2026-05-06T14:47:39.000Z</time>
      </trkpt>
      <trkpt lat="41.799578" lon="22.984718">
        <ele>1218.3</ele>
        <time>2026-05-06T14:47:40.000Z</time>
      </trkpt>
      <trkpt lat="41.799589" lon="22.98471">
        <ele>1218.3</ele>
        <time>2026-05-06T14:47:41.000Z</time>
      </trkpt>
      <trkpt lat="41.7996" lon="22.984702">
        <ele>1218.3</ele>
        <time>2026-05-06T14:47:42.000Z</time>
      </trkpt>
      <trkpt lat="41.799611" lon="22.984695">
        <ele>1217.8</ele>
        <time>2026-05-06T14:47:43.000Z</time>
      </trkpt>
      <trkpt lat="41.799623" lon="22.984687">
        <ele>1217.8</ele>
        <time>2026-05-06T14:47:44.000Z</time>
      </trkpt>
      <trkpt lat="41.799635" lon="22.98468">
        <ele>1217.8</ele>
        <time>2026-05-06T14:47:45.000Z</time>
      </trkpt>
      <trkpt lat="41.799647" lon="22.984674">
        <ele>1217.8</ele>
        <time>2026-05-06T14:47:46.000Z</time>
      </trkpt>
      <trkpt lat="41.799659" lon="22.984667">
        <ele>1217.8</ele>
        <time>2026-05-06T14:47:47.000Z</time>
      </trkpt>
      <trkpt lat="41.799669" lon="22.984658">
        <ele>1216.9</ele>
        <time>2026-05-06T14:47:48.000Z</time>
      </trkpt>
      <trkpt lat="41.799679" lon="22.98465">
        <ele>1216.9</ele>
        <time>2026-05-06T14:47:49.000Z</time>
      </trkpt>
      <trkpt lat="41.799689" lon="22.984642">
        <ele>1216.9</ele>
        <time>2026-05-06T14:47:50.000Z</time>
      </trkpt>
      <trkpt lat="41.799699" lon="22.984633">
        <ele>1216.9</ele>
        <time>2026-05-06T14:47:51.000Z</time>
      </trkpt>
      <trkpt lat="41.79971" lon="22.984626">
        <ele>1216.9</ele>
        <time>2026-05-06T14:47:52.000Z</time>
      </trkpt>
      <trkpt lat="41.799722" lon="22.984619">
        <ele>1216.2</ele>
        <time>2026-05-06T14:47:53.000Z</time>
      </trkpt>
      <trkpt lat="41.799732" lon="22.984612">
        <ele>1216.2</ele>
        <time>2026-05-06T14:47:54.000Z</time>
      </trkpt>
      <trkpt lat="41.799744" lon="22.984606">
        <ele>1216.2</ele>
        <time>2026-05-06T14:47:55.000Z</time>
      </trkpt>
      <trkpt lat="41.799755" lon="22.984599">
        <ele>1216.2</ele>
        <time>2026-05-06T14:47:56.000Z</time>
      </trkpt>
      <trkpt lat="41.799766" lon="22.984593">
        <ele>1216.2</ele>
        <time>2026-05-06T14:47:57.000Z</time>
      </trkpt>
      <trkpt lat="41.799778" lon="22.984587">
        <ele>1215.8</ele>
        <time>2026-05-06T14:47:58.000Z</time>
      </trkpt>
      <trkpt lat="41.799789" lon="22.98458">
        <ele>1215.8</ele>
        <time>2026-05-06T14:47:59.000Z</time>
      </trkpt>
      <trkpt lat="41.799801" lon="22.984574">
        <ele>1215.8</ele>
        <time>2026-05-06T14:48:00.000Z</time>
      </trkpt>
      <trkpt lat="41.799813" lon="22.984568">
        <ele>1215.8</ele>
        <time>2026-05-06T14:48:01.000Z</time>
      </trkpt>
      <trkpt lat="41.799824" lon="22.984562">
        <ele>1215.8</ele>
        <time>2026-05-06T14:48:02.000Z</time>
      </trkpt>
      <trkpt lat="41.799835" lon="22.984555">
        <ele>1215.2</ele>
        <time>2026-05-06T14:48:03.000Z</time>
      </trkpt>
      <trkpt lat="41.799846" lon="22.98455">
        <ele>1215.2</ele>
        <time>2026-05-06T14:48:04.000Z</time>
      </trkpt>
      <trkpt lat="41.799858" lon="22.984543">
        <ele>1215.2</ele>
        <time>2026-05-06T14:48:05.000Z</time>
      </trkpt>
      <trkpt lat="41.799868" lon="22.984536">
        <ele>1215.2</ele>
        <time>2026-05-06T14:48:06.000Z</time>
      </trkpt>
      <trkpt lat="41.79988" lon="22.98453">
        <ele>1215.2</ele>
        <time>2026-05-06T14:48:07.000Z</time>
      </trkpt>
      <trkpt lat="41.799891" lon="22.984523">
        <ele>1214.4</ele>
        <time>2026-05-06T14:48:08.000Z</time>
      </trkpt>
      <trkpt lat="41.799903" lon="22.984516">
        <ele>1214.4</ele>
        <time>2026-05-06T14:48:09.000Z</time>
      </trkpt>
      <trkpt lat="41.799914" lon="22.984508">
        <ele>1214.4</ele>
        <time>2026-05-06T14:48:10.000Z</time>
      </trkpt>
      <trkpt lat="41.799926" lon="22.984501">
        <ele>1214.4</ele>
        <time>2026-05-06T14:48:11.000Z</time>
      </trkpt>
      <trkpt lat="41.799937" lon="22.984494">
        <ele>1214.4</ele>
        <time>2026-05-06T14:48:12.000Z</time>
      </trkpt>
      <trkpt lat="41.79995" lon="22.984487">
        <ele>1213.9</ele>
        <time>2026-05-06T14:48:13.000Z</time>
      </trkpt>
      <trkpt lat="41.799962" lon="22.98448">
        <ele>1213.9</ele>
        <time>2026-05-06T14:48:14.000Z</time>
      </trkpt>
      <trkpt lat="41.799974" lon="22.984475">
        <ele>1213.9</ele>
        <time>2026-05-06T14:48:15.000Z</time>
      </trkpt>
      <trkpt lat="41.799985" lon="22.984468">
        <ele>1213.9</ele>
        <time>2026-05-06T14:48:16.000Z</time>
      </trkpt>
      <trkpt lat="41.799997" lon="22.984463">
        <ele>1213.9</ele>
        <time>2026-05-06T14:48:17.000Z</time>
      </trkpt>
      <trkpt lat="41.800008" lon="22.984457">
        <ele>1213</ele>
        <time>2026-05-06T14:48:18.000Z</time>
      </trkpt>
      <trkpt lat="41.800018" lon="22.984449">
        <ele>1213</ele>
        <time>2026-05-06T14:48:19.000Z</time>
      </trkpt>
      <trkpt lat="41.800029" lon="22.984442">
        <ele>1213</ele>
        <time>2026-05-06T14:48:20.000Z</time>
      </trkpt>
      <trkpt lat="41.800042" lon="22.984435">
        <ele>1213</ele>
        <time>2026-05-06T14:48:21.000Z</time>
      </trkpt>
      <trkpt lat="41.800054" lon="22.984428">
        <ele>1213</ele>
        <time>2026-05-06T14:48:22.000Z</time>
      </trkpt>
      <trkpt lat="41.800066" lon="22.984421">
        <ele>1212.4</ele>
        <time>2026-05-06T14:48:23.000Z</time>
      </trkpt>
      <trkpt lat="41.80008" lon="22.984414">
        <ele>1212.4</ele>
        <time>2026-05-06T14:48:24.000Z</time>
      </trkpt>
      <trkpt lat="41.800091" lon="22.984408">
        <ele>1212.4</ele>
        <time>2026-05-06T14:48:25.000Z</time>
      </trkpt>
      <trkpt lat="41.800101" lon="22.9844">
        <ele>1212.4</ele>
        <time>2026-05-06T14:48:26.000Z</time>
      </trkpt>
      <trkpt lat="41.800112" lon="22.984394">
        <ele>1212.4</ele>
        <time>2026-05-06T14:48:27.000Z</time>
      </trkpt>
      <trkpt lat="41.800122" lon="22.984387">
        <ele>1212.1</ele>
        <time>2026-05-06T14:48:28.000Z</time>
      </trkpt>
      <trkpt lat="41.800132" lon="22.984378">
        <ele>1212.1</ele>
        <time>2026-05-06T14:48:29.000Z</time>
      </trkpt>
      <trkpt lat="41.800144" lon="22.984368">
        <ele>1212.1</ele>
        <time>2026-05-06T14:48:30.000Z</time>
      </trkpt>
      <trkpt lat="41.800158" lon="22.984358">
        <ele>1212.1</ele>
        <time>2026-05-06T14:48:31.000Z</time>
      </trkpt>
      <trkpt lat="41.80017" lon="22.984348">
        <ele>1212.1</ele>
        <time>2026-05-06T14:48:32.000Z</time>
      </trkpt>
      <trkpt lat="41.800182" lon="22.984338">
        <ele>1211.7</ele>
        <time>2026-05-06T14:48:33.000Z</time>
      </trkpt>
      <trkpt lat="41.800194" lon="22.984328">
        <ele>1211.7</ele>
        <time>2026-05-06T14:48:34.000Z</time>
      </trkpt>
      <trkpt lat="41.800205" lon="22.984318">
        <ele>1211.7</ele>
        <time>2026-05-06T14:48:35.000Z</time>
      </trkpt>
      <trkpt lat="41.800214" lon="22.984308">
        <ele>1211.7</ele>
        <time>2026-05-06T14:48:36.000Z</time>
      </trkpt>
      <trkpt lat="41.800224" lon="22.984296">
        <ele>1211.7</ele>
        <time>2026-05-06T14:48:37.000Z</time>
      </trkpt>
      <trkpt lat="41.800233" lon="22.984284">
        <ele>1211.4</ele>
        <time>2026-05-06T14:48:38.000Z</time>
      </trkpt>
      <trkpt lat="41.800242" lon="22.984273">
        <ele>1211.4</ele>
        <time>2026-05-06T14:48:39.000Z</time>
      </trkpt>
      <trkpt lat="41.800251" lon="22.984262">
        <ele>1211.4</ele>
        <time>2026-05-06T14:48:40.000Z</time>
      </trkpt>
      <trkpt lat="41.80026" lon="22.984251">
        <ele>1211.4</ele>
        <time>2026-05-06T14:48:41.000Z</time>
      </trkpt>
      <trkpt lat="41.80027" lon="22.984241">
        <ele>1211.4</ele>
        <time>2026-05-06T14:48:42.000Z</time>
      </trkpt>
      <trkpt lat="41.800279" lon="22.984229">
        <ele>1211.2</ele>
        <time>2026-05-06T14:48:43.000Z</time>
      </trkpt>
      <trkpt lat="41.800289" lon="22.984218">
        <ele>1211.2</ele>
        <time>2026-05-06T14:48:44.000Z</time>
      </trkpt>
      <trkpt lat="41.800299" lon="22.984208">
        <ele>1211.2</ele>
        <time>2026-05-06T14:48:45.000Z</time>
      </trkpt>
      <trkpt lat="41.800309" lon="22.984198">
        <ele>1211.2</ele>
        <time>2026-05-06T14:48:46.000Z</time>
      </trkpt>
      <trkpt lat="41.800317" lon="22.984187">
        <ele>1211.2</ele>
        <time>2026-05-06T14:48:47.000Z</time>
      </trkpt>
      <trkpt lat="41.800327" lon="22.984177">
        <ele>1210.7</ele>
        <time>2026-05-06T14:48:48.000Z</time>
      </trkpt>
      <trkpt lat="41.800337" lon="22.984165">
        <ele>1210.7</ele>
        <time>2026-05-06T14:48:49.000Z</time>
      </trkpt>
      <trkpt lat="41.800347" lon="22.984153">
        <ele>1210.7</ele>
        <time>2026-05-06T14:48:50.000Z</time>
      </trkpt>
      <trkpt lat="41.800357" lon="22.98414">
        <ele>1210.7</ele>
        <time>2026-05-06T14:48:51.000Z</time>
      </trkpt>
      <trkpt lat="41.800367" lon="22.984128">
        <ele>1210.7</ele>
        <time>2026-05-06T14:48:52.000Z</time>
      </trkpt>
      <trkpt lat="41.800377" lon="22.984115">
        <ele>1209.8</ele>
        <time>2026-05-06T14:48:53.000Z</time>
      </trkpt>
      <trkpt lat="41.800386" lon="22.984102">
        <ele>1209.8</ele>
        <time>2026-05-06T14:48:54.000Z</time>
      </trkpt>
      <trkpt lat="41.800394" lon="22.98409">
        <ele>1209.8</ele>
        <time>2026-05-06T14:48:55.000Z</time>
      </trkpt>
      <trkpt lat="41.800403" lon="22.984077">
        <ele>1209.8</ele>
        <time>2026-05-06T14:48:56.000Z</time>
      </trkpt>
      <trkpt lat="41.800412" lon="22.984064">
        <ele>1209.8</ele>
        <time>2026-05-06T14:48:57.000Z</time>
      </trkpt>
      <trkpt lat="41.800418" lon="22.984051">
        <ele>1209.3</ele>
        <time>2026-05-06T14:48:58.000Z</time>
      </trkpt>
      <trkpt lat="41.800425" lon="22.984037">
        <ele>1209.3</ele>
        <time>2026-05-06T14:48:59.000Z</time>
      </trkpt>
      <trkpt lat="41.800434" lon="22.984023">
        <ele>1209.3</ele>
        <time>2026-05-06T14:49:00.000Z</time>
      </trkpt>
      <trkpt lat="41.800443" lon="22.984009">
        <ele>1209.3</ele>
        <time>2026-05-06T14:49:01.000Z</time>
      </trkpt>
      <trkpt lat="41.800452" lon="22.983996">
        <ele>1209.3</ele>
        <time>2026-05-06T14:49:02.000Z</time>
      </trkpt>
      <trkpt lat="41.800465" lon="22.983984">
        <ele>1208.3</ele>
        <time>2026-05-06T14:49:03.000Z</time>
      </trkpt>
      <trkpt lat="41.800478" lon="22.983972">
        <ele>1208.3</ele>
        <time>2026-05-06T14:49:04.000Z</time>
      </trkpt>
      <trkpt lat="41.80049" lon="22.983959">
        <ele>1208.3</ele>
        <time>2026-05-06T14:49:05.000Z</time>
      </trkpt>
      <trkpt lat="41.800503" lon="22.983948">
        <ele>1208.3</ele>
        <time>2026-05-06T14:49:06.000Z</time>
      </trkpt>
      <trkpt lat="41.800515" lon="22.983937">
        <ele>1208.3</ele>
        <time>2026-05-06T14:49:07.000Z</time>
      </trkpt>
      <trkpt lat="41.800525" lon="22.983925">
        <ele>1207.4</ele>
        <time>2026-05-06T14:49:08.000Z</time>
      </trkpt>
      <trkpt lat="41.800535" lon="22.983915">
        <ele>1207.4</ele>
        <time>2026-05-06T14:49:09.000Z</time>
      </trkpt>
      <trkpt lat="41.800544" lon="22.983903">
        <ele>1207.4</ele>
        <time>2026-05-06T14:49:10.000Z</time>
      </trkpt>
      <trkpt lat="41.800555" lon="22.983891">
        <ele>1207.4</ele>
        <time>2026-05-06T14:49:11.000Z</time>
      </trkpt>
      <trkpt lat="41.800565" lon="22.983879">
        <ele>1207.4</ele>
        <time>2026-05-06T14:49:12.000Z</time>
      </trkpt>
      <trkpt lat="41.800577" lon="22.983866">
        <ele>1207.1</ele>
        <time>2026-05-06T14:49:13.000Z</time>
      </trkpt>
      <trkpt lat="41.800589" lon="22.983854">
        <ele>1207.1</ele>
        <time>2026-05-06T14:49:14.000Z</time>
      </trkpt>
      <trkpt lat="41.800602" lon="22.983841">
        <ele>1207.1</ele>
        <time>2026-05-06T14:49:15.000Z</time>
      </trkpt>
      <trkpt lat="41.800615" lon="22.98383">
        <ele>1207.1</ele>
        <time>2026-05-06T14:49:16.000Z</time>
      </trkpt>
      <trkpt lat="41.800626" lon="22.98382">
        <ele>1207.1</ele>
        <time>2026-05-06T14:49:17.000Z</time>
      </trkpt>
      <trkpt lat="41.800638" lon="22.98381">
        <ele>1206.5</ele>
        <time>2026-05-06T14:49:18.000Z</time>
      </trkpt>
      <trkpt lat="41.800649" lon="22.9838">
        <ele>1206.5</ele>
        <time>2026-05-06T14:49:19.000Z</time>
      </trkpt>
      <trkpt lat="41.800659" lon="22.983792">
        <ele>1206.5</ele>
        <time>2026-05-06T14:49:20.000Z</time>
      </trkpt>
      <trkpt lat="41.800667" lon="22.983782">
        <ele>1206.5</ele>
        <time>2026-05-06T14:49:21.000Z</time>
      </trkpt>
      <trkpt lat="41.800676" lon="22.983772">
        <ele>1206.5</ele>
        <time>2026-05-06T14:49:22.000Z</time>
      </trkpt>
      <trkpt lat="41.800683" lon="22.983763">
        <ele>1205.9</ele>
        <time>2026-05-06T14:49:23.000Z</time>
      </trkpt>
      <trkpt lat="41.800691" lon="22.983752">
        <ele>1205.9</ele>
        <time>2026-05-06T14:49:24.000Z</time>
      </trkpt>
      <trkpt lat="41.800701" lon="22.983741">
        <ele>1205.9</ele>
        <time>2026-05-06T14:49:25.000Z</time>
      </trkpt>
      <trkpt lat="41.800711" lon="22.98373">
        <ele>1205.9</ele>
        <time>2026-05-06T14:49:26.000Z</time>
      </trkpt>
      <trkpt lat="41.800722" lon="22.983718">
        <ele>1205.9</ele>
        <time>2026-05-06T14:49:27.000Z</time>
      </trkpt>
      <trkpt lat="41.800732" lon="22.983706">
        <ele>1205.6</ele>
        <time>2026-05-06T14:49:28.000Z</time>
      </trkpt>
      <trkpt lat="41.800742" lon="22.983693">
        <ele>1205.6</ele>
        <time>2026-05-06T14:49:29.000Z</time>
      </trkpt>
      <trkpt lat="41.800751" lon="22.98368">
        <ele>1205.6</ele>
        <time>2026-05-06T14:49:30.000Z</time>
      </trkpt>
      <trkpt lat="41.80076" lon="22.983666">
        <ele>1205.6</ele>
        <time>2026-05-06T14:49:31.000Z</time>
      </trkpt>
      <trkpt lat="41.800769" lon="22.983652">
        <ele>1205.6</ele>
        <time>2026-05-06T14:49:32.000Z</time>
      </trkpt>
      <trkpt lat="41.800778" lon="22.983638">
        <ele>1205.1</ele>
        <time>2026-05-06T14:49:33.000Z</time>
      </trkpt>
      <trkpt lat="41.800785" lon="22.983623">
        <ele>1205.1</ele>
        <time>2026-05-06T14:49:34.000Z</time>
      </trkpt>
      <trkpt lat="41.800791" lon="22.983607">
        <ele>1205.1</ele>
        <time>2026-05-06T14:49:35.000Z</time>
      </trkpt>
      <trkpt lat="41.800797" lon="22.983591">
        <ele>1205.1</ele>
        <time>2026-05-06T14:49:36.000Z</time>
      </trkpt>
      <trkpt lat="41.800801" lon="22.983575">
        <ele>1205.1</ele>
        <time>2026-05-06T14:49:37.000Z</time>
      </trkpt>
      <trkpt lat="41.800805" lon="22.983558">
        <ele>1204.5</ele>
        <time>2026-05-06T14:49:38.000Z</time>
      </trkpt>
      <trkpt lat="41.80081" lon="22.983541">
        <ele>1204.5</ele>
        <time>2026-05-06T14:49:39.000Z</time>
      </trkpt>
      <trkpt lat="41.800816" lon="22.983524">
        <ele>1204.5</ele>
        <time>2026-05-06T14:49:40.000Z</time>
      </trkpt>
      <trkpt lat="41.800821" lon="22.983507">
        <ele>1204.5</ele>
        <time>2026-05-06T14:49:41.000Z</time>
      </trkpt>
      <trkpt lat="41.800826" lon="22.98349">
        <ele>1204.5</ele>
        <time>2026-05-06T14:49:42.000Z</time>
      </trkpt>
      <trkpt lat="41.800834" lon="22.983475">
        <ele>1204.2</ele>
        <time>2026-05-06T14:49:43.000Z</time>
      </trkpt>
      <trkpt lat="41.80084" lon="22.983459">
        <ele>1204.2</ele>
        <time>2026-05-06T14:49:44.000Z</time>
      </trkpt>
      <trkpt lat="41.800847" lon="22.983444">
        <ele>1204.2</ele>
        <time>2026-05-06T14:49:45.000Z</time>
      </trkpt>
      <trkpt lat="41.800853" lon="22.983429">
        <ele>1204.2</ele>
        <time>2026-05-06T14:49:46.000Z</time>
      </trkpt>
      <trkpt lat="41.80086" lon="22.983413">
        <ele>1204.2</ele>
        <time>2026-05-06T14:49:47.000Z</time>
      </trkpt>
      <trkpt lat="41.800866" lon="22.983397">
        <ele>1203.6</ele>
        <time>2026-05-06T14:49:48.000Z</time>
      </trkpt>
      <trkpt lat="41.800872" lon="22.983381">
        <ele>1203.6</ele>
        <time>2026-05-06T14:49:49.000Z</time>
      </trkpt>
      <trkpt lat="41.800878" lon="22.983365">
        <ele>1203.6</ele>
        <time>2026-05-06T14:49:50.000Z</time>
      </trkpt>
      <trkpt lat="41.800885" lon="22.98335">
        <ele>1203.6</ele>
        <time>2026-05-06T14:49:51.000Z</time>
      </trkpt>
      <trkpt lat="41.800893" lon="22.983336">
        <ele>1203.6</ele>
        <time>2026-05-06T14:49:52.000Z</time>
      </trkpt>
      <trkpt lat="41.8009" lon="22.983321">
        <ele>1203</ele>
        <time>2026-05-06T14:49:53.000Z</time>
      </trkpt>
      <trkpt lat="41.800908" lon="22.983306">
        <ele>1203</ele>
        <time>2026-05-06T14:49:54.000Z</time>
      </trkpt>
      <trkpt lat="41.800916" lon="22.983291">
        <ele>1203</ele>
        <time>2026-05-06T14:49:55.000Z</time>
      </trkpt>
      <trkpt lat="41.800924" lon="22.983276">
        <ele>1203</ele>
        <time>2026-05-06T14:49:56.000Z</time>
      </trkpt>
      <trkpt lat="41.800931" lon="22.983261">
        <ele>1203</ele>
        <time>2026-05-06T14:49:57.000Z</time>
      </trkpt>
      <trkpt lat="41.800938" lon="22.983246">
        <ele>1202.6</ele>
        <time>2026-05-06T14:49:58.000Z</time>
      </trkpt>
      <trkpt lat="41.800944" lon="22.98323">
        <ele>1202.6</ele>
        <time>2026-05-06T14:49:59.000Z</time>
      </trkpt>
      <trkpt lat="41.80095" lon="22.983214">
        <ele>1202.6</ele>
        <time>2026-05-06T14:50:00.000Z</time>
      </trkpt>
      <trkpt lat="41.800956" lon="22.983198">
        <ele>1202.6</ele>
        <time>2026-05-06T14:50:01.000Z</time>
      </trkpt>
      <trkpt lat="41.800963" lon="22.98318">
        <ele>1202.6</ele>
        <time>2026-05-06T14:50:02.000Z</time>
      </trkpt>
      <trkpt lat="41.800971" lon="22.983162">
        <ele>1201.9</ele>
        <time>2026-05-06T14:50:03.000Z</time>
      </trkpt>
      <trkpt lat="41.800978" lon="22.983144">
        <ele>1201.9</ele>
        <time>2026-05-06T14:50:04.000Z</time>
      </trkpt>
      <trkpt lat="41.800987" lon="22.983126">
        <ele>1201.9</ele>
        <time>2026-05-06T14:50:05.000Z</time>
      </trkpt>
      <trkpt lat="41.800996" lon="22.983108">
        <ele>1201.9</ele>
        <time>2026-05-06T14:50:06.000Z</time>
      </trkpt>
      <trkpt lat="41.801004" lon="22.983092">
        <ele>1201.9</ele>
        <time>2026-05-06T14:50:07.000Z</time>
      </trkpt>
      <trkpt lat="41.801013" lon="22.983078">
        <ele>1201.2</ele>
        <time>2026-05-06T14:50:08.000Z</time>
      </trkpt>
      <trkpt lat="41.801022" lon="22.983066">
        <ele>1201.2</ele>
        <time>2026-05-06T14:50:09.000Z</time>
      </trkpt>
      <trkpt lat="41.801033" lon="22.983055">
        <ele>1201.2</ele>
        <time>2026-05-06T14:50:10.000Z</time>
      </trkpt>
      <trkpt lat="41.801045" lon="22.983046">
        <ele>1201.2</ele>
        <time>2026-05-06T14:50:11.000Z</time>
      </trkpt>
      <trkpt lat="41.801056" lon="22.983036">
        <ele>1201.2</ele>
        <time>2026-05-06T14:50:12.000Z</time>
      </trkpt>
      <trkpt lat="41.801066" lon="22.983025">
        <ele>1201</ele>
        <time>2026-05-06T14:50:13.000Z</time>
      </trkpt>
      <trkpt lat="41.801077" lon="22.983013">
        <ele>1201</ele>
        <time>2026-05-06T14:50:14.000Z</time>
      </trkpt>
      <trkpt lat="41.801086" lon="22.983">
        <ele>1201</ele>
        <time>2026-05-06T14:50:15.000Z</time>
      </trkpt>
      <trkpt lat="41.801096" lon="22.982987">
        <ele>1201</ele>
        <time>2026-05-06T14:50:16.000Z</time>
      </trkpt>
      <trkpt lat="41.801107" lon="22.982975">
        <ele>1201</ele>
        <time>2026-05-06T14:50:17.000Z</time>
      </trkpt>
      <trkpt lat="41.801119" lon="22.982964">
        <ele>1200.5</ele>
        <time>2026-05-06T14:50:18.000Z</time>
      </trkpt>
      <trkpt lat="41.801132" lon="22.982954">
        <ele>1200.5</ele>
        <time>2026-05-06T14:50:19.000Z</time>
      </trkpt>
      <trkpt lat="41.801145" lon="22.982944">
        <ele>1200.5</ele>
        <time>2026-05-06T14:50:20.000Z</time>
      </trkpt>
      <trkpt lat="41.801156" lon="22.982933">
        <ele>1200.5</ele>
        <time>2026-05-06T14:50:21.000Z</time>
      </trkpt>
      <trkpt lat="41.801167" lon="22.982921">
        <ele>1200.5</ele>
        <time>2026-05-06T14:50:22.000Z</time>
      </trkpt>
      <trkpt lat="41.801177" lon="22.982911">
        <ele>1200</ele>
        <time>2026-05-06T14:50:23.000Z</time>
      </trkpt>
      <trkpt lat="41.801188" lon="22.982902">
        <ele>1200</ele>
        <time>2026-05-06T14:50:24.000Z</time>
      </trkpt>
      <trkpt lat="41.801198" lon="22.982893">
        <ele>1200</ele>
        <time>2026-05-06T14:50:25.000Z</time>
      </trkpt>
      <trkpt lat="41.801209" lon="22.982886">
        <ele>1200</ele>
        <time>2026-05-06T14:50:26.000Z</time>
      </trkpt>
      <trkpt lat="41.80122" lon="22.982882">
        <ele>1200</ele>
        <time>2026-05-06T14:50:27.000Z</time>
      </trkpt>
      <trkpt lat="41.801232" lon="22.982878">
        <ele>1199.7</ele>
        <time>2026-05-06T14:50:28.000Z</time>
      </trkpt>
      <trkpt lat="41.801242" lon="22.982875">
        <ele>1199.7</ele>
        <time>2026-05-06T14:50:29.000Z</time>
      </trkpt>
      <trkpt lat="41.801252" lon="22.982872">
        <ele>1199.7</ele>
        <time>2026-05-06T14:50:30.000Z</time>
      </trkpt>
      <trkpt lat="41.801262" lon="22.98287">
        <ele>1199.7</ele>
        <time>2026-05-06T14:50:31.000Z</time>
      </trkpt>
      <trkpt lat="41.801273" lon="22.982868">
        <ele>1199.7</ele>
        <time>2026-05-06T14:50:32.000Z</time>
      </trkpt>
      <trkpt lat="41.801285" lon="22.982866">
        <ele>1199.1</ele>
        <time>2026-05-06T14:50:33.000Z</time>
      </trkpt>
      <trkpt lat="41.801297" lon="22.982864">
        <ele>1199.1</ele>
        <time>2026-05-06T14:50:34.000Z</time>
      </trkpt>
      <trkpt lat="41.80131" lon="22.982862">
        <ele>1199.1</ele>
        <time>2026-05-06T14:50:35.000Z</time>
      </trkpt>
      <trkpt lat="41.801324" lon="22.982861">
        <ele>1199.1</ele>
        <time>2026-05-06T14:50:36.000Z</time>
      </trkpt>
      <trkpt lat="41.801339" lon="22.98286">
        <ele>1199.1</ele>
        <time>2026-05-06T14:50:37.000Z</time>
      </trkpt>
      <trkpt lat="41.801354" lon="22.982861">
        <ele>1198.4</ele>
        <time>2026-05-06T14:50:38.000Z</time>
      </trkpt>
      <trkpt lat="41.801368" lon="22.982862">
        <ele>1198.4</ele>
        <time>2026-05-06T14:50:39.000Z</time>
      </trkpt>
      <trkpt lat="41.801383" lon="22.982862">
        <ele>1198.4</ele>
        <time>2026-05-06T14:50:40.000Z</time>
      </trkpt>
      <trkpt lat="41.801397" lon="22.982862">
        <ele>1198.4</ele>
        <time>2026-05-06T14:50:41.000Z</time>
      </trkpt>
      <trkpt lat="41.80141" lon="22.982862">
        <ele>1198.4</ele>
        <time>2026-05-06T14:50:42.000Z</time>
      </trkpt>
      <trkpt lat="41.801424" lon="22.98286">
        <ele>1198</ele>
        <time>2026-05-06T14:50:43.000Z</time>
      </trkpt>
      <trkpt lat="41.801437" lon="22.982858">
        <ele>1198</ele>
        <time>2026-05-06T14:50:44.000Z</time>
      </trkpt>
      <trkpt lat="41.801451" lon="22.982856">
        <ele>1198</ele>
        <time>2026-05-06T14:50:45.000Z</time>
      </trkpt>
      <trkpt lat="41.801464" lon="22.982855">
        <ele>1198</ele>
        <time>2026-05-06T14:50:46.000Z</time>
      </trkpt>
      <trkpt lat="41.801476" lon="22.982854">
        <ele>1198</ele>
        <time>2026-05-06T14:50:47.000Z</time>
      </trkpt>
      <trkpt lat="41.801487" lon="22.982854">
        <ele>1197.3</ele>
        <time>2026-05-06T14:50:48.000Z</time>
      </trkpt>
      <trkpt lat="41.8015" lon="22.982856">
        <ele>1197.3</ele>
        <time>2026-05-06T14:50:49.000Z</time>
      </trkpt>
      <trkpt lat="41.801512" lon="22.982858">
        <ele>1197.3</ele>
        <time>2026-05-06T14:50:50.000Z</time>
      </trkpt>
      <trkpt lat="41.801526" lon="22.982858">
        <ele>1197.3</ele>
        <time>2026-05-06T14:50:51.000Z</time>
      </trkpt>
      <trkpt lat="41.80154" lon="22.982858">
        <ele>1197.3</ele>
        <time>2026-05-06T14:50:52.000Z</time>
      </trkpt>
      <trkpt lat="41.801555" lon="22.982857">
        <ele>1196.5</ele>
        <time>2026-05-06T14:50:53.000Z</time>
      </trkpt>
      <trkpt lat="41.801568" lon="22.982855">
        <ele>1196.5</ele>
        <time>2026-05-06T14:50:54.000Z</time>
      </trkpt>
      <trkpt lat="41.801581" lon="22.982853">
        <ele>1196.5</ele>
        <time>2026-05-06T14:50:55.000Z</time>
      </trkpt>
      <trkpt lat="41.801593" lon="22.98285">
        <ele>1196.5</ele>
        <time>2026-05-06T14:50:56.000Z</time>
      </trkpt>
      <trkpt lat="41.801604" lon="22.982847">
        <ele>1196.5</ele>
        <time>2026-05-06T14:50:57.000Z</time>
      </trkpt>
      <trkpt lat="41.801616" lon="22.982843">
        <ele>1196.1</ele>
        <time>2026-05-06T14:50:58.000Z</time>
      </trkpt>
      <trkpt lat="41.801629" lon="22.98284">
        <ele>1196.1</ele>
        <time>2026-05-06T14:50:59.000Z</time>
      </trkpt>
      <trkpt lat="41.801641" lon="22.982839">
        <ele>1196.1</ele>
        <time>2026-05-06T14:51:00.000Z</time>
      </trkpt>
      <trkpt lat="41.801655" lon="22.982838">
        <ele>1196.1</ele>
        <time>2026-05-06T14:51:01.000Z</time>
      </trkpt>
      <trkpt lat="41.801668" lon="22.982838">
        <ele>1196.1</ele>
        <time>2026-05-06T14:51:02.000Z</time>
      </trkpt>
      <trkpt lat="41.801682" lon="22.982839">
        <ele>1195.4</ele>
        <time>2026-05-06T14:51:03.000Z</time>
      </trkpt>
      <trkpt lat="41.801696" lon="22.982837">
        <ele>1195.4</ele>
        <time>2026-05-06T14:51:04.000Z</time>
      </trkpt>
      <trkpt lat="41.80171" lon="22.982834">
        <ele>1195.4</ele>
        <time>2026-05-06T14:51:05.000Z</time>
      </trkpt>
      <trkpt lat="41.801723" lon="22.982832">
        <ele>1195.4</ele>
        <time>2026-05-06T14:51:06.000Z</time>
      </trkpt>
      <trkpt lat="41.801735" lon="22.982828">
        <ele>1195.4</ele>
        <time>2026-05-06T14:51:07.000Z</time>
      </trkpt>
      <trkpt lat="41.801746" lon="22.982825">
        <ele>1194.6</ele>
        <time>2026-05-06T14:51:08.000Z</time>
      </trkpt>
      <trkpt lat="41.801756" lon="22.982822">
        <ele>1194.6</ele>
        <time>2026-05-06T14:51:09.000Z</time>
      </trkpt>
      <trkpt lat="41.801764" lon="22.98282">
        <ele>1194.6</ele>
        <time>2026-05-06T14:51:10.000Z</time>
      </trkpt>
      <trkpt lat="41.801774" lon="22.982817">
        <ele>1194.6</ele>
        <time>2026-05-06T14:51:11.000Z</time>
      </trkpt>
      <trkpt lat="41.801783" lon="22.982816">
        <ele>1194.6</ele>
        <time>2026-05-06T14:51:12.000Z</time>
      </trkpt>
      <trkpt lat="41.801792" lon="22.982815">
        <ele>1194.3</ele>
        <time>2026-05-06T14:51:13.000Z</time>
      </trkpt>
      <trkpt lat="41.801803" lon="22.982818">
        <ele>1194.3</ele>
        <time>2026-05-06T14:51:14.000Z</time>
      </trkpt>
      <trkpt lat="41.801812" lon="22.982819">
        <ele>1194.3</ele>
        <time>2026-05-06T14:51:15.000Z</time>
      </trkpt>
      <trkpt lat="41.801821" lon="22.982821">
        <ele>1194.3</ele>
        <time>2026-05-06T14:51:16.000Z</time>
      </trkpt>
      <trkpt lat="41.801829" lon="22.982821">
        <ele>1194.3</ele>
        <time>2026-05-06T14:51:17.000Z</time>
      </trkpt>
      <trkpt lat="41.801837" lon="22.982819">
        <ele>1193.6</ele>
        <time>2026-05-06T14:51:18.000Z</time>
      </trkpt>
      <trkpt lat="41.801846" lon="22.982814">
        <ele>1193.6</ele>
        <time>2026-05-06T14:51:19.000Z</time>
      </trkpt>
      <trkpt lat="41.801856" lon="22.982807">
        <ele>1193.6</ele>
        <time>2026-05-06T14:51:20.000Z</time>
      </trkpt>
      <trkpt lat="41.801867" lon="22.982798">
        <ele>1193.6</ele>
        <time>2026-05-06T14:51:21.000Z</time>
      </trkpt>
      <trkpt lat="41.801878" lon="22.982789">
        <ele>1193.6</ele>
        <time>2026-05-06T14:51:22.000Z</time>
      </trkpt>
      <trkpt lat="41.801889" lon="22.982779">
        <ele>1192.9</ele>
        <time>2026-05-06T14:51:23.000Z</time>
      </trkpt>
      <trkpt lat="41.8019" lon="22.982768">
        <ele>1192.9</ele>
        <time>2026-05-06T14:51:24.000Z</time>
      </trkpt>
      <trkpt lat="41.80191" lon="22.982761">
        <ele>1192.9</ele>
        <time>2026-05-06T14:51:25.000Z</time>
      </trkpt>
      <trkpt lat="41.801918" lon="22.982755">
        <ele>1192.9</ele>
        <time>2026-05-06T14:51:26.000Z</time>
      </trkpt>
      <trkpt lat="41.801925" lon="22.982751">
        <ele>1192.9</ele>
        <time>2026-05-06T14:51:27.000Z</time>
      </trkpt>
      <trkpt lat="41.801931" lon="22.982748">
        <ele>1192.6</ele>
        <time>2026-05-06T14:51:28.000Z</time>
      </trkpt>
      <trkpt lat="41.801937" lon="22.982746">
        <ele>1192.6</ele>
        <time>2026-05-06T14:51:29.000Z</time>
      </trkpt>
      <trkpt lat="41.801945" lon="22.982743">
        <ele>1192.6</ele>
        <time>2026-05-06T14:51:30.000Z</time>
      </trkpt>
      <trkpt lat="41.801958" lon="22.98274">
        <ele>1192.6</ele>
        <time>2026-05-06T14:51:31.000Z</time>
      </trkpt>
      <trkpt lat="41.801972" lon="22.982735">
        <ele>1192.6</ele>
        <time>2026-05-06T14:51:32.000Z</time>
      </trkpt>
      <trkpt lat="41.801989" lon="22.982732">
        <ele>1192</ele>
        <time>2026-05-06T14:51:33.000Z</time>
      </trkpt>
      <trkpt lat="41.802005" lon="22.982728">
        <ele>1192</ele>
        <time>2026-05-06T14:51:34.000Z</time>
      </trkpt>
      <trkpt lat="41.80202" lon="22.982724">
        <ele>1192</ele>
        <time>2026-05-06T14:51:35.000Z</time>
      </trkpt>
      <trkpt lat="41.802033" lon="22.982719">
        <ele>1192</ele>
        <time>2026-05-06T14:51:36.000Z</time>
      </trkpt>
      <trkpt lat="41.802046" lon="22.982714">
        <ele>1192</ele>
        <time>2026-05-06T14:51:37.000Z</time>
      </trkpt>
      <trkpt lat="41.802058" lon="22.982706">
        <ele>1191.4</ele>
        <time>2026-05-06T14:51:38.000Z</time>
      </trkpt>
      <trkpt lat="41.80207" lon="22.982697">
        <ele>1191.4</ele>
        <time>2026-05-06T14:51:39.000Z</time>
      </trkpt>
      <trkpt lat="41.802081" lon="22.982686">
        <ele>1191.4</ele>
        <time>2026-05-06T14:51:40.000Z</time>
      </trkpt>
      <trkpt lat="41.802093" lon="22.982677">
        <ele>1191.4</ele>
        <time>2026-05-06T14:51:41.000Z</time>
      </trkpt>
      <trkpt lat="41.802105" lon="22.982667">
        <ele>1191.4</ele>
        <time>2026-05-06T14:51:42.000Z</time>
      </trkpt>
      <trkpt lat="41.802117" lon="22.982658">
        <ele>1191.1</ele>
        <time>2026-05-06T14:51:43.000Z</time>
      </trkpt>
      <trkpt lat="41.802129" lon="22.982649">
        <ele>1191.1</ele>
        <time>2026-05-06T14:51:44.000Z</time>
      </trkpt>
      <trkpt lat="41.802142" lon="22.98264">
        <ele>1191.1</ele>
        <time>2026-05-06T14:51:45.000Z</time>
      </trkpt>
      <trkpt lat="41.802153" lon="22.982628">
        <ele>1191.1</ele>
        <time>2026-05-06T14:51:46.000Z</time>
      </trkpt>
      <trkpt lat="41.802165" lon="22.982617">
        <ele>1191.1</ele>
        <time>2026-05-06T14:51:47.000Z</time>
      </trkpt>
      <trkpt lat="41.802177" lon="22.982606">
        <ele>1190.5</ele>
        <time>2026-05-06T14:51:48.000Z</time>
      </trkpt>
      <trkpt lat="41.802187" lon="22.982592">
        <ele>1190.5</ele>
        <time>2026-05-06T14:51:49.000Z</time>
      </trkpt>
      <trkpt lat="41.802197" lon="22.982579">
        <ele>1190.5</ele>
        <time>2026-05-06T14:51:50.000Z</time>
      </trkpt>
      <trkpt lat="41.802207" lon="22.982567">
        <ele>1190.5</ele>
        <time>2026-05-06T14:51:51.000Z</time>
      </trkpt>
      <trkpt lat="41.802217" lon="22.982553">
        <ele>1190.5</ele>
        <time>2026-05-06T14:51:52.000Z</time>
      </trkpt>
      <trkpt lat="41.802225" lon="22.982539">
        <ele>1189.7</ele>
        <time>2026-05-06T14:51:53.000Z</time>
      </trkpt>
      <trkpt lat="41.802235" lon="22.982526">
        <ele>1189.7</ele>
        <time>2026-05-06T14:51:54.000Z</time>
      </trkpt>
      <trkpt lat="41.802245" lon="22.982512">
        <ele>1189.7</ele>
        <time>2026-05-06T14:51:55.000Z</time>
      </trkpt>
      <trkpt lat="41.802255" lon="22.982498">
        <ele>1189.7</ele>
        <time>2026-05-06T14:51:56.000Z</time>
      </trkpt>
      <trkpt lat="41.802266" lon="22.982483">
        <ele>1189.7</ele>
        <time>2026-05-06T14:51:57.000Z</time>
      </trkpt>
      <trkpt lat="41.802278" lon="22.982468">
        <ele>1189.3</ele>
        <time>2026-05-06T14:51:58.000Z</time>
      </trkpt>
      <trkpt lat="41.802289" lon="22.982453">
        <ele>1189.3</ele>
        <time>2026-05-06T14:51:59.000Z</time>
      </trkpt>
      <trkpt lat="41.802301" lon="22.982439">
        <ele>1189.3</ele>
        <time>2026-05-06T14:52:00.000Z</time>
      </trkpt>
      <trkpt lat="41.802312" lon="22.982425">
        <ele>1189.3</ele>
        <time>2026-05-06T14:52:01.000Z</time>
      </trkpt>
      <trkpt lat="41.802323" lon="22.982411">
        <ele>1189.3</ele>
        <time>2026-05-06T14:52:02.000Z</time>
      </trkpt>
      <trkpt lat="41.802334" lon="22.982398">
        <ele>1188.5</ele>
        <time>2026-05-06T14:52:03.000Z</time>
      </trkpt>
      <trkpt lat="41.802345" lon="22.982386">
        <ele>1188.5</ele>
        <time>2026-05-06T14:52:04.000Z</time>
      </trkpt>
      <trkpt lat="41.802355" lon="22.982375">
        <ele>1188.5</ele>
        <time>2026-05-06T14:52:05.000Z</time>
      </trkpt>
      <trkpt lat="41.802365" lon="22.982365">
        <ele>1188.5</ele>
        <time>2026-05-06T14:52:06.000Z</time>
      </trkpt>
      <trkpt lat="41.802375" lon="22.982355">
        <ele>1188.5</ele>
        <time>2026-05-06T14:52:07.000Z</time>
      </trkpt>
      <trkpt lat="41.802384" lon="22.982345">
        <ele>1187.9</ele>
        <time>2026-05-06T14:52:08.000Z</time>
      </trkpt>
      <trkpt lat="41.802395" lon="22.982336">
        <ele>1187.9</ele>
        <time>2026-05-06T14:52:09.000Z</time>
      </trkpt>
      <trkpt lat="41.802405" lon="22.982326">
        <ele>1187.9</ele>
        <time>2026-05-06T14:52:10.000Z</time>
      </trkpt>
      <trkpt lat="41.802415" lon="22.982316">
        <ele>1187.9</ele>
        <time>2026-05-06T14:52:11.000Z</time>
      </trkpt>
      <trkpt lat="41.802425" lon="22.982307">
        <ele>1187.9</ele>
        <time>2026-05-06T14:52:12.000Z</time>
      </trkpt>
      <trkpt lat="41.802436" lon="22.982297">
        <ele>1187.7</ele>
        <time>2026-05-06T14:52:13.000Z</time>
      </trkpt>
      <trkpt lat="41.802447" lon="22.982289">
        <ele>1187.7</ele>
        <time>2026-05-06T14:52:14.000Z</time>
      </trkpt>
      <trkpt lat="41.802457" lon="22.982281">
        <ele>1187.7</ele>
        <time>2026-05-06T14:52:15.000Z</time>
      </trkpt>
      <trkpt lat="41.802468" lon="22.982272">
        <ele>1187.7</ele>
        <time>2026-05-06T14:52:16.000Z</time>
      </trkpt>
      <trkpt lat="41.802479" lon="22.982265">
        <ele>1187.7</ele>
        <time>2026-05-06T14:52:17.000Z</time>
      </trkpt>
      <trkpt lat="41.802489" lon="22.982259">
        <ele>1187.1</ele>
        <time>2026-05-06T14:52:18.000Z</time>
      </trkpt>
      <trkpt lat="41.8025" lon="22.982253">
        <ele>1187.1</ele>
        <time>2026-05-06T14:52:19.000Z</time>
      </trkpt>
      <trkpt lat="41.802511" lon="22.982248">
        <ele>1187.1</ele>
        <time>2026-05-06T14:52:20.000Z</time>
      </trkpt>
      <trkpt lat="41.802524" lon="22.982243">
        <ele>1187.1</ele>
        <time>2026-05-06T14:52:21.000Z</time>
      </trkpt>
      <trkpt lat="41.802536" lon="22.982238">
        <ele>1187.1</ele>
        <time>2026-05-06T14:52:22.000Z</time>
      </trkpt>
      <trkpt lat="41.802549" lon="22.982234">
        <ele>1186.5</ele>
        <time>2026-05-06T14:52:23.000Z</time>
      </trkpt>
      <trkpt lat="41.802562" lon="22.98223">
        <ele>1186.5</ele>
        <time>2026-05-06T14:52:24.000Z</time>
      </trkpt>
      <trkpt lat="41.802574" lon="22.982225">
        <ele>1186.5</ele>
        <time>2026-05-06T14:52:25.000Z</time>
      </trkpt>
      <trkpt lat="41.802586" lon="22.98222">
        <ele>1186.5</ele>
        <time>2026-05-06T14:52:26.000Z</time>
      </trkpt>
      <trkpt lat="41.802599" lon="22.982215">
        <ele>1186.5</ele>
        <time>2026-05-06T14:52:27.000Z</time>
      </trkpt>
      <trkpt lat="41.802612" lon="22.982211">
        <ele>1186.2</ele>
        <time>2026-05-06T14:52:28.000Z</time>
      </trkpt>
      <trkpt lat="41.802627" lon="22.982207">
        <ele>1186.2</ele>
        <time>2026-05-06T14:52:29.000Z</time>
      </trkpt>
      <trkpt lat="41.802643" lon="22.982204">
        <ele>1186.2</ele>
        <time>2026-05-06T14:52:30.000Z</time>
      </trkpt>
      <trkpt lat="41.802658" lon="22.982201">
        <ele>1186.2</ele>
        <time>2026-05-06T14:52:31.000Z</time>
      </trkpt>
      <trkpt lat="41.802671" lon="22.982197">
        <ele>1186.2</ele>
        <time>2026-05-06T14:52:32.000Z</time>
      </trkpt>
      <trkpt lat="41.802685" lon="22.982191">
        <ele>1185.5</ele>
        <time>2026-05-06T14:52:33.000Z</time>
      </trkpt>
      <trkpt lat="41.802698" lon="22.982185">
        <ele>1185.5</ele>
        <time>2026-05-06T14:52:34.000Z</time>
      </trkpt>
      <trkpt lat="41.802711" lon="22.982178">
        <ele>1185.5</ele>
        <time>2026-05-06T14:52:35.000Z</time>
      </trkpt>
      <trkpt lat="41.802724" lon="22.982171">
        <ele>1185.5</ele>
        <time>2026-05-06T14:52:36.000Z</time>
      </trkpt>
      <trkpt lat="41.802737" lon="22.982163">
        <ele>1185.5</ele>
        <time>2026-05-06T14:52:37.000Z</time>
      </trkpt>
      <trkpt lat="41.802749" lon="22.982155">
        <ele>1184.8</ele>
        <time>2026-05-06T14:52:38.000Z</time>
      </trkpt>
      <trkpt lat="41.802761" lon="22.982149">
        <ele>1184.8</ele>
        <time>2026-05-06T14:52:39.000Z</time>
      </trkpt>
      <trkpt lat="41.802773" lon="22.982142">
        <ele>1184.8</ele>
        <time>2026-05-06T14:52:40.000Z</time>
      </trkpt>
      <trkpt lat="41.802786" lon="22.982136">
        <ele>1184.8</ele>
        <time>2026-05-06T14:52:41.000Z</time>
      </trkpt>
      <trkpt lat="41.802799" lon="22.982129">
        <ele>1184.8</ele>
        <time>2026-05-06T14:52:42.000Z</time>
      </trkpt>
      <trkpt lat="41.802811" lon="22.982123">
        <ele>1184.6</ele>
        <time>2026-05-06T14:52:43.000Z</time>
      </trkpt>
      <trkpt lat="41.802824" lon="22.982116">
        <ele>1184.6</ele>
        <time>2026-05-06T14:52:44.000Z</time>
      </trkpt>
      <trkpt lat="41.802835" lon="22.982108">
        <ele>1184.6</ele>
        <time>2026-05-06T14:52:45.000Z</time>
      </trkpt>
      <trkpt lat="41.802845" lon="22.982099">
        <ele>1184.6</ele>
        <time>2026-05-06T14:52:46.000Z</time>
      </trkpt>
      <trkpt lat="41.802855" lon="22.98209">
        <ele>1184.6</ele>
        <time>2026-05-06T14:52:47.000Z</time>
      </trkpt>
      <trkpt lat="41.802865" lon="22.982082">
        <ele>1184</ele>
        <time>2026-05-06T14:52:48.000Z</time>
      </trkpt>
      <trkpt lat="41.802875" lon="22.982073">
        <ele>1184</ele>
        <time>2026-05-06T14:52:49.000Z</time>
      </trkpt>
      <trkpt lat="41.802886" lon="22.982065">
        <ele>1184</ele>
        <time>2026-05-06T14:52:50.000Z</time>
      </trkpt>
      <trkpt lat="41.802896" lon="22.982055">
        <ele>1184</ele>
        <time>2026-05-06T14:52:51.000Z</time>
      </trkpt>
      <trkpt lat="41.802907" lon="22.982044">
        <ele>1184</ele>
        <time>2026-05-06T14:52:52.000Z</time>
      </trkpt>
      <trkpt lat="41.802918" lon="22.982032">
        <ele>1183.5</ele>
        <time>2026-05-06T14:52:53.000Z</time>
      </trkpt>
      <trkpt lat="41.802929" lon="22.98202">
        <ele>1183.5</ele>
        <time>2026-05-06T14:52:54.000Z</time>
      </trkpt>
      <trkpt lat="41.802941" lon="22.982007">
        <ele>1183.5</ele>
        <time>2026-05-06T14:52:55.000Z</time>
      </trkpt>
      <trkpt lat="41.802955" lon="22.981998">
        <ele>1183.5</ele>
        <time>2026-05-06T14:52:56.000Z</time>
      </trkpt>
      <trkpt lat="41.802968" lon="22.981988">
        <ele>1183.5</ele>
        <time>2026-05-06T14:52:57.000Z</time>
      </trkpt>
      <trkpt lat="41.80298" lon="22.981978">
        <ele>1183.3</ele>
        <time>2026-05-06T14:52:58.000Z</time>
      </trkpt>
      <trkpt lat="41.802992" lon="22.98197">
        <ele>1183.3</ele>
        <time>2026-05-06T14:52:59.000Z</time>
      </trkpt>
      <trkpt lat="41.803003" lon="22.981961">
        <ele>1183.3</ele>
        <time>2026-05-06T14:53:00.000Z</time>
      </trkpt>
      <trkpt lat="41.803013" lon="22.981953">
        <ele>1183.3</ele>
        <time>2026-05-06T14:53:01.000Z</time>
      </trkpt>
      <trkpt lat="41.803023" lon="22.981944">
        <ele>1183.3</ele>
        <time>2026-05-06T14:53:02.000Z</time>
      </trkpt>
      <trkpt lat="41.803034" lon="22.981935">
        <ele>1182.8</ele>
        <time>2026-05-06T14:53:03.000Z</time>
      </trkpt>
      <trkpt lat="41.803043" lon="22.981925">
        <ele>1182.8</ele>
        <time>2026-05-06T14:53:04.000Z</time>
      </trkpt>
      <trkpt lat="41.803053" lon="22.981915">
        <ele>1182.8</ele>
        <time>2026-05-06T14:53:05.000Z</time>
      </trkpt>
      <trkpt lat="41.803064" lon="22.981903">
        <ele>1182.8</ele>
        <time>2026-05-06T14:53:06.000Z</time>
      </trkpt>
      <trkpt lat="41.803074" lon="22.981892">
        <ele>1182.8</ele>
        <time>2026-05-06T14:53:07.000Z</time>
      </trkpt>
      <trkpt lat="41.803085" lon="22.981881">
        <ele>1182.1</ele>
        <time>2026-05-06T14:53:08.000Z</time>
      </trkpt>
      <trkpt lat="41.803097" lon="22.981868">
        <ele>1182.1</ele>
        <time>2026-05-06T14:53:09.000Z</time>
      </trkpt>
      <trkpt lat="41.803108" lon="22.981855">
        <ele>1182.1</ele>
        <time>2026-05-06T14:53:10.000Z</time>
      </trkpt>
      <trkpt lat="41.803119" lon="22.98184">
        <ele>1182.1</ele>
        <time>2026-05-06T14:53:11.000Z</time>
      </trkpt>
      <trkpt lat="41.80313" lon="22.981826">
        <ele>1182.1</ele>
        <time>2026-05-06T14:53:12.000Z</time>
      </trkpt>
      <trkpt lat="41.803142" lon="22.981812">
        <ele>1181.6</ele>
        <time>2026-05-06T14:53:13.000Z</time>
      </trkpt>
      <trkpt lat="41.803153" lon="22.981799">
        <ele>1181.6</ele>
        <time>2026-05-06T14:53:14.000Z</time>
      </trkpt>
      <trkpt lat="41.803164" lon="22.981787">
        <ele>1181.6</ele>
        <time>2026-05-06T14:53:15.000Z</time>
      </trkpt>
      <trkpt lat="41.803175" lon="22.981777">
        <ele>1181.6</ele>
        <time>2026-05-06T14:53:16.000Z</time>
      </trkpt>
      <trkpt lat="41.803186" lon="22.981765">
        <ele>1181.6</ele>
        <time>2026-05-06T14:53:17.000Z</time>
      </trkpt>
      <trkpt lat="41.803198" lon="22.981754">
        <ele>1180.7</ele>
        <time>2026-05-06T14:53:18.000Z</time>
      </trkpt>
      <trkpt lat="41.803209" lon="22.981743">
        <ele>1180.7</ele>
        <time>2026-05-06T14:53:19.000Z</time>
      </trkpt>
      <trkpt lat="41.803221" lon="22.981733">
        <ele>1180.7</ele>
        <time>2026-05-06T14:53:20.000Z</time>
      </trkpt>
      <trkpt lat="41.803234" lon="22.981725">
        <ele>1180.7</ele>
        <time>2026-05-06T14:53:21.000Z</time>
      </trkpt>
      <trkpt lat="41.803246" lon="22.981719">
        <ele>1180.7</ele>
        <time>2026-05-06T14:53:22.000Z</time>
      </trkpt>
      <trkpt lat="41.80326" lon="22.981716">
        <ele>1179.9</ele>
        <time>2026-05-06T14:53:23.000Z</time>
      </trkpt>
      <trkpt lat="41.803273" lon="22.981714">
        <ele>1179.9</ele>
        <time>2026-05-06T14:53:24.000Z</time>
      </trkpt>
      <trkpt lat="41.803286" lon="22.981713">
        <ele>1179.9</ele>
        <time>2026-05-06T14:53:25.000Z</time>
      </trkpt>
      <trkpt lat="41.803299" lon="22.981713">
        <ele>1179.9</ele>
        <time>2026-05-06T14:53:26.000Z</time>
      </trkpt>
      <trkpt lat="41.803312" lon="22.981714">
        <ele>1179.9</ele>
        <time>2026-05-06T14:53:27.000Z</time>
      </trkpt>
      <trkpt lat="41.803324" lon="22.981714">
        <ele>1179.5</ele>
        <time>2026-05-06T14:53:28.000Z</time>
      </trkpt>
      <trkpt lat="41.803337" lon="22.981712">
        <ele>1179.5</ele>
        <time>2026-05-06T14:53:29.000Z</time>
      </trkpt>
      <trkpt lat="41.803348" lon="22.981709">
        <ele>1179.5</ele>
        <time>2026-05-06T14:53:30.000Z</time>
      </trkpt>
      <trkpt lat="41.80336" lon="22.981705">
        <ele>1179.5</ele>
        <time>2026-05-06T14:53:31.000Z</time>
      </trkpt>
      <trkpt lat="41.803372" lon="22.981701">
        <ele>1179.5</ele>
        <time>2026-05-06T14:53:32.000Z</time>
      </trkpt>
      <trkpt lat="41.803383" lon="22.981699">
        <ele>1178.7</ele>
        <time>2026-05-06T14:53:33.000Z</time>
      </trkpt>
      <trkpt lat="41.803394" lon="22.9817">
        <ele>1178.7</ele>
        <time>2026-05-06T14:53:34.000Z</time>
      </trkpt>
      <trkpt lat="41.803407" lon="22.981703">
        <ele>1178.7</ele>
        <time>2026-05-06T14:53:35.000Z</time>
      </trkpt>
      <trkpt lat="41.803418" lon="22.981707">
        <ele>1178.7</ele>
        <time>2026-05-06T14:53:36.000Z</time>
      </trkpt>
      <trkpt lat="41.803431" lon="22.981712">
        <ele>1178.7</ele>
        <time>2026-05-06T14:53:37.000Z</time>
      </trkpt>
      <trkpt lat="41.803444" lon="22.981716">
        <ele>1177.9</ele>
        <time>2026-05-06T14:53:38.000Z</time>
      </trkpt>
      <trkpt lat="41.803458" lon="22.98172">
        <ele>1177.9</ele>
        <time>2026-05-06T14:53:39.000Z</time>
      </trkpt>
      <trkpt lat="41.803471" lon="22.981723">
        <ele>1177.9</ele>
        <time>2026-05-06T14:53:40.000Z</time>
      </trkpt>
      <trkpt lat="41.803486" lon="22.981725">
        <ele>1177.9</ele>
        <time>2026-05-06T14:53:41.000Z</time>
      </trkpt>
      <trkpt lat="41.8035" lon="22.981726">
        <ele>1177.9</ele>
        <time>2026-05-06T14:53:42.000Z</time>
      </trkpt>
      <trkpt lat="41.803514" lon="22.981727">
        <ele>1177.5</ele>
        <time>2026-05-06T14:53:43.000Z</time>
      </trkpt>
      <trkpt lat="41.803529" lon="22.981727">
        <ele>1177.5</ele>
        <time>2026-05-06T14:53:44.000Z</time>
      </trkpt>
      <trkpt lat="41.803544" lon="22.981728">
        <ele>1177.5</ele>
        <time>2026-05-06T14:53:45.000Z</time>
      </trkpt>
      <trkpt lat="41.803559" lon="22.981727">
        <ele>1177.5</ele>
        <time>2026-05-06T14:53:46.000Z</time>
      </trkpt>
      <trkpt lat="41.803575" lon="22.981723">
        <ele>1177.5</ele>
        <time>2026-05-06T14:53:47.000Z</time>
      </trkpt>
      <trkpt lat="41.80359" lon="22.981717">
        <ele>1176.9</ele>
        <time>2026-05-06T14:53:48.000Z</time>
      </trkpt>
      <trkpt lat="41.803604" lon="22.98171">
        <ele>1176.9</ele>
        <time>2026-05-06T14:53:49.000Z</time>
      </trkpt>
      <trkpt lat="41.803618" lon="22.981703">
        <ele>1176.9</ele>
        <time>2026-05-06T14:53:50.000Z</time>
      </trkpt>
      <trkpt lat="41.803632" lon="22.981697">
        <ele>1176.9</ele>
        <time>2026-05-06T14:53:51.000Z</time>
      </trkpt>
      <trkpt lat="41.803644" lon="22.981694">
        <ele>1176.9</ele>
        <time>2026-05-06T14:53:52.000Z</time>
      </trkpt>
      <trkpt lat="41.803656" lon="22.981693">
        <ele>1176.4</ele>
        <time>2026-05-06T14:53:53.000Z</time>
      </trkpt>
      <trkpt lat="41.803668" lon="22.981691">
        <ele>1176.4</ele>
        <time>2026-05-06T14:53:54.000Z</time>
      </trkpt>
      <trkpt lat="41.803681" lon="22.981686">
        <ele>1176.4</ele>
        <time>2026-05-06T14:53:55.000Z</time>
      </trkpt>
      <trkpt lat="41.803694" lon="22.981681">
        <ele>1176.4</ele>
        <time>2026-05-06T14:53:56.000Z</time>
      </trkpt>
      <trkpt lat="41.803707" lon="22.981675">
        <ele>1176.4</ele>
        <time>2026-05-06T14:53:57.000Z</time>
      </trkpt>
      <trkpt lat="41.803721" lon="22.981669">
        <ele>1176.2</ele>
        <time>2026-05-06T14:53:58.000Z</time>
      </trkpt>
      <trkpt lat="41.803735" lon="22.981663">
        <ele>1176.2</ele>
        <time>2026-05-06T14:53:59.000Z</time>
      </trkpt>
      <trkpt lat="41.803749" lon="22.981658">
        <ele>1176.2</ele>
        <time>2026-05-06T14:54:00.000Z</time>
      </trkpt>
      <trkpt lat="41.803762" lon="22.981653">
        <ele>1176.2</ele>
        <time>2026-05-06T14:54:01.000Z</time>
      </trkpt>
      <trkpt lat="41.803775" lon="22.981646">
        <ele>1176.2</ele>
        <time>2026-05-06T14:54:02.000Z</time>
      </trkpt>
      <trkpt lat="41.803787" lon="22.981639">
        <ele>1175.9</ele>
        <time>2026-05-06T14:54:03.000Z</time>
      </trkpt>
      <trkpt lat="41.8038" lon="22.981633">
        <ele>1175.9</ele>
        <time>2026-05-06T14:54:04.000Z</time>
      </trkpt>
      <trkpt lat="41.803812" lon="22.981625">
        <ele>1175.9</ele>
        <time>2026-05-06T14:54:05.000Z</time>
      </trkpt>
      <trkpt lat="41.803823" lon="22.981616">
        <ele>1175.9</ele>
        <time>2026-05-06T14:54:06.000Z</time>
      </trkpt>
      <trkpt lat="41.803835" lon="22.981608">
        <ele>1175.9</ele>
        <time>2026-05-06T14:54:07.000Z</time>
      </trkpt>
      <trkpt lat="41.803846" lon="22.981599">
        <ele>1175.4</ele>
        <time>2026-05-06T14:54:08.000Z</time>
      </trkpt>
      <trkpt lat="41.803858" lon="22.981589">
        <ele>1175.4</ele>
        <time>2026-05-06T14:54:09.000Z</time>
      </trkpt>
      <trkpt lat="41.80387" lon="22.98158">
        <ele>1175.4</ele>
        <time>2026-05-06T14:54:10.000Z</time>
      </trkpt>
      <trkpt lat="41.803882" lon="22.98157">
        <ele>1175.4</ele>
        <time>2026-05-06T14:54:11.000Z</time>
      </trkpt>
      <trkpt lat="41.803894" lon="22.981559">
        <ele>1175.4</ele>
        <time>2026-05-06T14:54:12.000Z</time>
      </trkpt>
      <trkpt lat="41.803905" lon="22.981547">
        <ele>1175.1</ele>
        <time>2026-05-06T14:54:13.000Z</time>
      </trkpt>
      <trkpt lat="41.803916" lon="22.981535">
        <ele>1175.1</ele>
        <time>2026-05-06T14:54:14.000Z</time>
      </trkpt>
      <trkpt lat="41.803927" lon="22.981522">
        <ele>1175.1</ele>
        <time>2026-05-06T14:54:15.000Z</time>
      </trkpt>
      <trkpt lat="41.803936" lon="22.981508">
        <ele>1175.1</ele>
        <time>2026-05-06T14:54:16.000Z</time>
      </trkpt>
      <trkpt lat="41.803947" lon="22.981495">
        <ele>1175.1</ele>
        <time>2026-05-06T14:54:17.000Z</time>
      </trkpt>
      <trkpt lat="41.803956" lon="22.981482">
        <ele>1174.6</ele>
        <time>2026-05-06T14:54:18.000Z</time>
      </trkpt>
      <trkpt lat="41.803965" lon="22.981469">
        <ele>1174.6</ele>
        <time>2026-05-06T14:54:19.000Z</time>
      </trkpt>
      <trkpt lat="41.803971" lon="22.981454">
        <ele>1174.6</ele>
        <time>2026-05-06T14:54:20.000Z</time>
      </trkpt>
      <trkpt lat="41.803978" lon="22.981439">
        <ele>1174.6</ele>
        <time>2026-05-06T14:54:21.000Z</time>
      </trkpt>
      <trkpt lat="41.803984" lon="22.981423">
        <ele>1174.6</ele>
        <time>2026-05-06T14:54:22.000Z</time>
      </trkpt>
      <trkpt lat="41.80399" lon="22.981405">
        <ele>1174.1</ele>
        <time>2026-05-06T14:54:23.000Z</time>
      </trkpt>
      <trkpt lat="41.803997" lon="22.981387">
        <ele>1174.1</ele>
        <time>2026-05-06T14:54:24.000Z</time>
      </trkpt>
      <trkpt lat="41.804005" lon="22.98137">
        <ele>1174.1</ele>
        <time>2026-05-06T14:54:25.000Z</time>
      </trkpt>
      <trkpt lat="41.804013" lon="22.981352">
        <ele>1174.1</ele>
        <time>2026-05-06T14:54:26.000Z</time>
      </trkpt>
      <trkpt lat="41.804022" lon="22.981335">
        <ele>1174.1</ele>
        <time>2026-05-06T14:54:27.000Z</time>
      </trkpt>
      <trkpt lat="41.80403" lon="22.981318">
        <ele>1173.8</ele>
        <time>2026-05-06T14:54:28.000Z</time>
      </trkpt>
      <trkpt lat="41.804038" lon="22.981302">
        <ele>1173.8</ele>
        <time>2026-05-06T14:54:29.000Z</time>
      </trkpt>
      <trkpt lat="41.804046" lon="22.981285">
        <ele>1173.8</ele>
        <time>2026-05-06T14:54:30.000Z</time>
      </trkpt>
      <trkpt lat="41.804054" lon="22.981267">
        <ele>1173.8</ele>
        <time>2026-05-06T14:54:31.000Z</time>
      </trkpt>
      <trkpt lat="41.804061" lon="22.98125">
        <ele>1173.8</ele>
        <time>2026-05-06T14:54:32.000Z</time>
      </trkpt>
      <trkpt lat="41.804069" lon="22.981232">
        <ele>1173.3</ele>
        <time>2026-05-06T14:54:33.000Z</time>
      </trkpt>
      <trkpt lat="41.804077" lon="22.981214">
        <ele>1173.3</ele>
        <time>2026-05-06T14:54:34.000Z</time>
      </trkpt>
      <trkpt lat="41.804084" lon="22.981197">
        <ele>1173.3</ele>
        <time>2026-05-06T14:54:35.000Z</time>
      </trkpt>
      <trkpt lat="41.804092" lon="22.981181">
        <ele>1173.3</ele>
        <time>2026-05-06T14:54:36.000Z</time>
      </trkpt>
      <trkpt lat="41.804099" lon="22.981164">
        <ele>1173.3</ele>
        <time>2026-05-06T14:54:37.000Z</time>
      </trkpt>
      <trkpt lat="41.804104" lon="22.981148">
        <ele>1172.5</ele>
        <time>2026-05-06T14:54:38.000Z</time>
      </trkpt>
      <trkpt lat="41.804108" lon="22.981132">
        <ele>1172.5</ele>
        <time>2026-05-06T14:54:39.000Z</time>
      </trkpt>
      <trkpt lat="41.80411" lon="22.981115">
        <ele>1172.5</ele>
        <time>2026-05-06T14:54:40.000Z</time>
      </trkpt>
      <trkpt lat="41.804111" lon="22.981098">
        <ele>1172.5</ele>
        <time>2026-05-06T14:54:41.000Z</time>
      </trkpt>
      <trkpt lat="41.804114" lon="22.98108">
        <ele>1172.5</ele>
        <time>2026-05-06T14:54:42.000Z</time>
      </trkpt>
      <trkpt lat="41.804117" lon="22.981063">
        <ele>1172.1</ele>
        <time>2026-05-06T14:54:43.000Z</time>
      </trkpt>
      <trkpt lat="41.804122" lon="22.981046">
        <ele>1172.1</ele>
        <time>2026-05-06T14:54:44.000Z</time>
      </trkpt>
      <trkpt lat="41.804127" lon="22.981028">
        <ele>1172.1</ele>
        <time>2026-05-06T14:54:45.000Z</time>
      </trkpt>
      <trkpt lat="41.804133" lon="22.981011">
        <ele>1172.1</ele>
        <time>2026-05-06T14:54:46.000Z</time>
      </trkpt>
      <trkpt lat="41.80414" lon="22.980993">
        <ele>1172.1</ele>
        <time>2026-05-06T14:54:47.000Z</time>
      </trkpt>
      <trkpt lat="41.804146" lon="22.980974">
        <ele>1171.3</ele>
        <time>2026-05-06T14:54:48.000Z</time>
      </trkpt>
      <trkpt lat="41.804152" lon="22.980956">
        <ele>1171.3</ele>
        <time>2026-05-06T14:54:49.000Z</time>
      </trkpt>
      <trkpt lat="41.804159" lon="22.980937">
        <ele>1171.3</ele>
        <time>2026-05-06T14:54:50.000Z</time>
      </trkpt>
      <trkpt lat="41.804166" lon="22.980918">
        <ele>1171.3</ele>
        <time>2026-05-06T14:54:51.000Z</time>
      </trkpt>
      <trkpt lat="41.804173" lon="22.980901">
        <ele>1171.3</ele>
        <time>2026-05-06T14:54:52.000Z</time>
      </trkpt>
      <trkpt lat="41.804181" lon="22.980883">
        <ele>1170.7</ele>
        <time>2026-05-06T14:54:53.000Z</time>
      </trkpt>
      <trkpt lat="41.804189" lon="22.980866">
        <ele>1170.7</ele>
        <time>2026-05-06T14:54:54.000Z</time>
      </trkpt>
      <trkpt lat="41.804198" lon="22.98085">
        <ele>1170.7</ele>
        <time>2026-05-06T14:54:55.000Z</time>
      </trkpt>
      <trkpt lat="41.804207" lon="22.980835">
        <ele>1170.7</ele>
        <time>2026-05-06T14:54:56.000Z</time>
      </trkpt>
      <trkpt lat="41.804214" lon="22.980819">
        <ele>1170.7</ele>
        <time>2026-05-06T14:54:57.000Z</time>
      </trkpt>
      <trkpt lat="41.804222" lon="22.980804">
        <ele>1170.4</ele>
        <time>2026-05-06T14:54:58.000Z</time>
      </trkpt>
      <trkpt lat="41.804232" lon="22.980791">
        <ele>1170.4</ele>
        <time>2026-05-06T14:54:59.000Z</time>
      </trkpt>
      <trkpt lat="41.804241" lon="22.980778">
        <ele>1170.4</ele>
        <time>2026-05-06T14:55:00.000Z</time>
      </trkpt>
      <trkpt lat="41.804251" lon="22.980765">
        <ele>1170.4</ele>
        <time>2026-05-06T14:55:01.000Z</time>
      </trkpt>
      <trkpt lat="41.804261" lon="22.980753">
        <ele>1170.4</ele>
        <time>2026-05-06T14:55:02.000Z</time>
      </trkpt>
      <trkpt lat="41.804272" lon="22.980742">
        <ele>1169.9</ele>
        <time>2026-05-06T14:55:03.000Z</time>
      </trkpt>
      <trkpt lat="41.804283" lon="22.980729">
        <ele>1169.9</ele>
        <time>2026-05-06T14:55:04.000Z</time>
      </trkpt>
      <trkpt lat="41.804293" lon="22.980717">
        <ele>1169.9</ele>
        <time>2026-05-06T14:55:05.000Z</time>
      </trkpt>
      <trkpt lat="41.804303" lon="22.980705">
        <ele>1169.9</ele>
        <time>2026-05-06T14:55:06.000Z</time>
      </trkpt>
      <trkpt lat="41.804313" lon="22.980693">
        <ele>1169.9</ele>
        <time>2026-05-06T14:55:07.000Z</time>
      </trkpt>
      <trkpt lat="41.804324" lon="22.980681">
        <ele>1169.4</ele>
        <time>2026-05-06T14:55:08.000Z</time>
      </trkpt>
      <trkpt lat="41.804333" lon="22.980669">
        <ele>1169.4</ele>
        <time>2026-05-06T14:55:09.000Z</time>
      </trkpt>
      <trkpt lat="41.804343" lon="22.980658">
        <ele>1169.4</ele>
        <time>2026-05-06T14:55:10.000Z</time>
      </trkpt>
      <trkpt lat="41.804353" lon="22.980645">
        <ele>1169.4</ele>
        <time>2026-05-06T14:55:11.000Z</time>
      </trkpt>
      <trkpt lat="41.804363" lon="22.980633">
        <ele>1169.4</ele>
        <time>2026-05-06T14:55:12.000Z</time>
      </trkpt>
      <trkpt lat="41.804373" lon="22.98062">
        <ele>1169.2</ele>
        <time>2026-05-06T14:55:13.000Z</time>
      </trkpt>
      <trkpt lat="41.804383" lon="22.980607">
        <ele>1169.2</ele>
        <time>2026-05-06T14:55:14.000Z</time>
      </trkpt>
      <trkpt lat="41.804393" lon="22.980593">
        <ele>1169.2</ele>
        <time>2026-05-06T14:55:15.000Z</time>
      </trkpt>
      <trkpt lat="41.804403" lon="22.980579">
        <ele>1169.2</ele>
        <time>2026-05-06T14:55:16.000Z</time>
      </trkpt>
      <trkpt lat="41.804413" lon="22.980565">
        <ele>1169.2</ele>
        <time>2026-05-06T14:55:17.000Z</time>
      </trkpt>
      <trkpt lat="41.804423" lon="22.980551">
        <ele>1168.9</ele>
        <time>2026-05-06T14:55:18.000Z</time>
      </trkpt>
      <trkpt lat="41.804432" lon="22.980537">
        <ele>1168.9</ele>
        <time>2026-05-06T14:55:19.000Z</time>
      </trkpt>
      <trkpt lat="41.80444" lon="22.980523">
        <ele>1168.9</ele>
        <time>2026-05-06T14:55:20.000Z</time>
      </trkpt>
      <trkpt lat="41.804446" lon="22.980508">
        <ele>1168.9</ele>
        <time>2026-05-06T14:55:21.000Z</time>
      </trkpt>
      <trkpt lat="41.804452" lon="22.980492">
        <ele>1168.9</ele>
        <time>2026-05-06T14:55:22.000Z</time>
      </trkpt>
      <trkpt lat="41.804459" lon="22.980476">
        <ele>1168.6</ele>
        <time>2026-05-06T14:55:23.000Z</time>
      </trkpt>
      <trkpt lat="41.804465" lon="22.980461">
        <ele>1168.6</ele>
        <time>2026-05-06T14:55:24.000Z</time>
      </trkpt>
      <trkpt lat="41.804473" lon="22.980447">
        <ele>1168.6</ele>
        <time>2026-05-06T14:55:25.000Z</time>
      </trkpt>
      <trkpt lat="41.804481" lon="22.980433">
        <ele>1168.6</ele>
        <time>2026-05-06T14:55:26.000Z</time>
      </trkpt>
      <trkpt lat="41.80449" lon="22.980418">
        <ele>1168.6</ele>
        <time>2026-05-06T14:55:27.000Z</time>
      </trkpt>
      <trkpt lat="41.8045" lon="22.980405">
        <ele>1168.3</ele>
        <time>2026-05-06T14:55:28.000Z</time>
      </trkpt>
      <trkpt lat="41.80451" lon="22.980391">
        <ele>1168.3</ele>
        <time>2026-05-06T14:55:29.000Z</time>
      </trkpt>
      <trkpt lat="41.804521" lon="22.980376">
        <ele>1168.3</ele>
        <time>2026-05-06T14:55:30.000Z</time>
      </trkpt>
      <trkpt lat="41.80453" lon="22.98036">
        <ele>1168.3</ele>
        <time>2026-05-06T14:55:31.000Z</time>
      </trkpt>
      <trkpt lat="41.80454" lon="22.980346">
        <ele>1168.3</ele>
        <time>2026-05-06T14:55:32.000Z</time>
      </trkpt>
      <trkpt lat="41.804547" lon="22.98033">
        <ele>1167.6</ele>
        <time>2026-05-06T14:55:33.000Z</time>
      </trkpt>
      <trkpt lat="41.804554" lon="22.980313">
        <ele>1167.6</ele>
        <time>2026-05-06T14:55:34.000Z</time>
      </trkpt>
      <trkpt lat="41.804559" lon="22.980297">
        <ele>1167.6</ele>
        <time>2026-05-06T14:55:35.000Z</time>
      </trkpt>
      <trkpt lat="41.804564" lon="22.980279">
        <ele>1167.6</ele>
        <time>2026-05-06T14:55:36.000Z</time>
      </trkpt>
      <trkpt lat="41.804569" lon="22.980262">
        <ele>1167.6</ele>
        <time>2026-05-06T14:55:37.000Z</time>
      </trkpt>
      <trkpt lat="41.804575" lon="22.980246">
        <ele>1167</ele>
        <time>2026-05-06T14:55:38.000Z</time>
      </trkpt>
      <trkpt lat="41.80458" lon="22.980231">
        <ele>1167</ele>
        <time>2026-05-06T14:55:39.000Z</time>
      </trkpt>
      <trkpt lat="41.804586" lon="22.980216">
        <ele>1167</ele>
        <time>2026-05-06T14:55:40.000Z</time>
      </trkpt>
      <trkpt lat="41.804592" lon="22.980201">
        <ele>1167</ele>
        <time>2026-05-06T14:55:41.000Z</time>
      </trkpt>
      <trkpt lat="41.804596" lon="22.980184">
        <ele>1167</ele>
        <time>2026-05-06T14:55:42.000Z</time>
      </trkpt>
      <trkpt lat="41.8046" lon="22.980168">
        <ele>1166.7</ele>
        <time>2026-05-06T14:55:43.000Z</time>
      </trkpt>
      <trkpt lat="41.804605" lon="22.980153">
        <ele>1166.7</ele>
        <time>2026-05-06T14:55:44.000Z</time>
      </trkpt>
      <trkpt lat="41.804609" lon="22.980137">
        <ele>1166.7</ele>
        <time>2026-05-06T14:55:45.000Z</time>
      </trkpt>
      <trkpt lat="41.804612" lon="22.98012">
        <ele>1166.7</ele>
        <time>2026-05-06T14:55:46.000Z</time>
      </trkpt>
      <trkpt lat="41.804616" lon="22.980103">
        <ele>1166.7</ele>
        <time>2026-05-06T14:55:47.000Z</time>
      </trkpt>
      <trkpt lat="41.804619" lon="22.980087">
        <ele>1166.1</ele>
        <time>2026-05-06T14:55:48.000Z</time>
      </trkpt>
      <trkpt lat="41.804623" lon="22.980068">
        <ele>1166.1</ele>
        <time>2026-05-06T14:55:49.000Z</time>
      </trkpt>
      <trkpt lat="41.804627" lon="22.980049">
        <ele>1166.1</ele>
        <time>2026-05-06T14:55:50.000Z</time>
      </trkpt>
      <trkpt lat="41.804633" lon="22.98003">
        <ele>1166.1</ele>
        <time>2026-05-06T14:55:51.000Z</time>
      </trkpt>
      <trkpt lat="41.804638" lon="22.980011">
        <ele>1166.1</ele>
        <time>2026-05-06T14:55:52.000Z</time>
      </trkpt>
      <trkpt lat="41.804644" lon="22.979993">
        <ele>1165.5</ele>
        <time>2026-05-06T14:55:53.000Z</time>
      </trkpt>
      <trkpt lat="41.804652" lon="22.979977">
        <ele>1165.5</ele>
        <time>2026-05-06T14:55:54.000Z</time>
      </trkpt>
      <trkpt lat="41.804661" lon="22.979961">
        <ele>1165.5</ele>
        <time>2026-05-06T14:55:55.000Z</time>
      </trkpt>
      <trkpt lat="41.80467" lon="22.979946">
        <ele>1165.5</ele>
        <time>2026-05-06T14:55:56.000Z</time>
      </trkpt>
      <trkpt lat="41.80468" lon="22.979932">
        <ele>1165.5</ele>
        <time>2026-05-06T14:55:57.000Z</time>
      </trkpt>
      <trkpt lat="41.804689" lon="22.979917">
        <ele>1165.1</ele>
        <time>2026-05-06T14:55:58.000Z</time>
      </trkpt>
      <trkpt lat="41.804698" lon="22.979902">
        <ele>1165.1</ele>
        <time>2026-05-06T14:55:59.000Z</time>
      </trkpt>
      <trkpt lat="41.804706" lon="22.979888">
        <ele>1165.1</ele>
        <time>2026-05-06T14:56:00.000Z</time>
      </trkpt>
      <trkpt lat="41.804716" lon="22.979876">
        <ele>1165.1</ele>
        <time>2026-05-06T14:56:01.000Z</time>
      </trkpt>
      <trkpt lat="41.804727" lon="22.979865">
        <ele>1165.1</ele>
        <time>2026-05-06T14:56:02.000Z</time>
      </trkpt>
      <trkpt lat="41.804739" lon="22.979856">
        <ele>1164.2</ele>
        <time>2026-05-06T14:56:03.000Z</time>
      </trkpt>
      <trkpt lat="41.80475" lon="22.979848">
        <ele>1164.2</ele>
        <time>2026-05-06T14:56:04.000Z</time>
      </trkpt>
      <trkpt lat="41.804761" lon="22.979841">
        <ele>1164.2</ele>
        <time>2026-05-06T14:56:05.000Z</time>
      </trkpt>
      <trkpt lat="41.804772" lon="22.979834">
        <ele>1164.2</ele>
        <time>2026-05-06T14:56:06.000Z</time>
      </trkpt>
      <trkpt lat="41.804782" lon="22.979826">
        <ele>1164.2</ele>
        <time>2026-05-06T14:56:07.000Z</time>
      </trkpt>
      <trkpt lat="41.804792" lon="22.979819">
        <ele>1163.3</ele>
        <time>2026-05-06T14:56:08.000Z</time>
      </trkpt>
      <trkpt lat="41.804803" lon="22.979812">
        <ele>1163.3</ele>
        <time>2026-05-06T14:56:09.000Z</time>
      </trkpt>
      <trkpt lat="41.804815" lon="22.979805">
        <ele>1163.3</ele>
        <time>2026-05-06T14:56:10.000Z</time>
      </trkpt>
      <trkpt lat="41.804828" lon="22.9798">
        <ele>1163.3</ele>
        <time>2026-05-06T14:56:11.000Z</time>
      </trkpt>
      <trkpt lat="41.804841" lon="22.979795">
        <ele>1163.3</ele>
        <time>2026-05-06T14:56:12.000Z</time>
      </trkpt>
      <trkpt lat="41.804854" lon="22.979789">
        <ele>1162.9</ele>
        <time>2026-05-06T14:56:13.000Z</time>
      </trkpt>
      <trkpt lat="41.804866" lon="22.979784">
        <ele>1162.9</ele>
        <time>2026-05-06T14:56:14.000Z</time>
      </trkpt>
      <trkpt lat="41.804877" lon="22.97978">
        <ele>1162.9</ele>
        <time>2026-05-06T14:56:15.000Z</time>
      </trkpt>
      <trkpt lat="41.804889" lon="22.979778">
        <ele>1162.9</ele>
        <time>2026-05-06T14:56:16.000Z</time>
      </trkpt>
      <trkpt lat="41.804902" lon="22.979779">
        <ele>1162.9</ele>
        <time>2026-05-06T14:56:17.000Z</time>
      </trkpt>
      <trkpt lat="41.804915" lon="22.979784">
        <ele>1162.3</ele>
        <time>2026-05-06T14:56:18.000Z</time>
      </trkpt>
      <trkpt lat="41.804929" lon="22.979791">
        <ele>1162.3</ele>
        <time>2026-05-06T14:56:19.000Z</time>
      </trkpt>
      <trkpt lat="41.804942" lon="22.9798">
        <ele>1162.3</ele>
        <time>2026-05-06T14:56:20.000Z</time>
      </trkpt>
      <trkpt lat="41.804955" lon="22.979806">
        <ele>1162.3</ele>
        <time>2026-05-06T14:56:21.000Z</time>
      </trkpt>
      <trkpt lat="41.804967" lon="22.979811">
        <ele>1162.3</ele>
        <time>2026-05-06T14:56:22.000Z</time>
      </trkpt>
      <trkpt lat="41.80498" lon="22.979814">
        <ele>1161.8</ele>
        <time>2026-05-06T14:56:23.000Z</time>
      </trkpt>
      <trkpt lat="41.804993" lon="22.979814">
        <ele>1161.8</ele>
        <time>2026-05-06T14:56:24.000Z</time>
      </trkpt>
      <trkpt lat="41.805006" lon="22.979812">
        <ele>1161.8</ele>
        <time>2026-05-06T14:56:25.000Z</time>
      </trkpt>
      <trkpt lat="41.80502" lon="22.979809">
        <ele>1161.8</ele>
        <time>2026-05-06T14:56:26.000Z</time>
      </trkpt>
      <trkpt lat="41.805033" lon="22.979807">
        <ele>1161.8</ele>
        <time>2026-05-06T14:56:27.000Z</time>
      </trkpt>
      <trkpt lat="41.805045" lon="22.979805">
        <ele>1161.5</ele>
        <time>2026-05-06T14:56:28.000Z</time>
      </trkpt>
      <trkpt lat="41.805058" lon="22.979803">
        <ele>1161.5</ele>
        <time>2026-05-06T14:56:29.000Z</time>
      </trkpt>
      <trkpt lat="41.805072" lon="22.979804">
        <ele>1161.5</ele>
        <time>2026-05-06T14:56:30.000Z</time>
      </trkpt>
      <trkpt lat="41.805086" lon="22.979807">
        <ele>1161.5</ele>
        <time>2026-05-06T14:56:31.000Z</time>
      </trkpt>
      <trkpt lat="41.8051" lon="22.97981">
        <ele>1161.5</ele>
        <time>2026-05-06T14:56:32.000Z</time>
      </trkpt>
      <trkpt lat="41.805114" lon="22.979814">
        <ele>1160.8</ele>
        <time>2026-05-06T14:56:33.000Z</time>
      </trkpt>
      <trkpt lat="41.805128" lon="22.979817">
        <ele>1160.8</ele>
        <time>2026-05-06T14:56:34.000Z</time>
      </trkpt>
      <trkpt lat="41.805142" lon="22.97982">
        <ele>1160.8</ele>
        <time>2026-05-06T14:56:35.000Z</time>
      </trkpt>
      <trkpt lat="41.805157" lon="22.979822">
        <ele>1160.8</ele>
        <time>2026-05-06T14:56:36.000Z</time>
      </trkpt>
      <trkpt lat="41.805172" lon="22.979822">
        <ele>1160.8</ele>
        <time>2026-05-06T14:56:37.000Z</time>
      </trkpt>
      <trkpt lat="41.805189" lon="22.979821">
        <ele>1159.8</ele>
        <time>2026-05-06T14:56:38.000Z</time>
      </trkpt>
      <trkpt lat="41.805205" lon="22.97982">
        <ele>1159.8</ele>
        <time>2026-05-06T14:56:39.000Z</time>
      </trkpt>
      <trkpt lat="41.80522" lon="22.979818">
        <ele>1159.8</ele>
        <time>2026-05-06T14:56:40.000Z</time>
      </trkpt>
      <trkpt lat="41.805235" lon="22.979816">
        <ele>1159.8</ele>
        <time>2026-05-06T14:56:41.000Z</time>
      </trkpt>
      <trkpt lat="41.805249" lon="22.979814">
        <ele>1159.8</ele>
        <time>2026-05-06T14:56:42.000Z</time>
      </trkpt>
      <trkpt lat="41.805262" lon="22.979812">
        <ele>1159.3</ele>
        <time>2026-05-06T14:56:43.000Z</time>
      </trkpt>
      <trkpt lat="41.805277" lon="22.979809">
        <ele>1159.3</ele>
        <time>2026-05-06T14:56:44.000Z</time>
      </trkpt>
      <trkpt lat="41.805291" lon="22.979807">
        <ele>1159.3</ele>
        <time>2026-05-06T14:56:45.000Z</time>
      </trkpt>
      <trkpt lat="41.805305" lon="22.979803">
        <ele>1159.3</ele>
        <time>2026-05-06T14:56:46.000Z</time>
      </trkpt>
      <trkpt lat="41.80532" lon="22.979799">
        <ele>1159.3</ele>
        <time>2026-05-06T14:56:47.000Z</time>
      </trkpt>
      <trkpt lat="41.805335" lon="22.979795">
        <ele>1158.4</ele>
        <time>2026-05-06T14:56:48.000Z</time>
      </trkpt>
      <trkpt lat="41.805349" lon="22.97979">
        <ele>1158.4</ele>
        <time>2026-05-06T14:56:49.000Z</time>
      </trkpt>
      <trkpt lat="41.805363" lon="22.979785">
        <ele>1158.4</ele>
        <time>2026-05-06T14:56:50.000Z</time>
      </trkpt>
      <trkpt lat="41.805379" lon="22.97978">
        <ele>1158.4</ele>
        <time>2026-05-06T14:56:51.000Z</time>
      </trkpt>
      <trkpt lat="41.805395" lon="22.979775">
        <ele>1158.4</ele>
        <time>2026-05-06T14:56:52.000Z</time>
      </trkpt>
      <trkpt lat="41.805411" lon="22.97977">
        <ele>1157.8</ele>
        <time>2026-05-06T14:56:53.000Z</time>
      </trkpt>
      <trkpt lat="41.805427" lon="22.979765">
        <ele>1157.8</ele>
        <time>2026-05-06T14:56:54.000Z</time>
      </trkpt>
      <trkpt lat="41.805442" lon="22.97976">
        <ele>1157.8</ele>
        <time>2026-05-06T14:56:55.000Z</time>
      </trkpt>
      <trkpt lat="41.805456" lon="22.979753">
        <ele>1157.8</ele>
        <time>2026-05-06T14:56:56.000Z</time>
      </trkpt>
      <trkpt lat="41.805468" lon="22.979745">
        <ele>1157.8</ele>
        <time>2026-05-06T14:56:57.000Z</time>
      </trkpt>
      <trkpt lat="41.805481" lon="22.979735">
        <ele>1157.5</ele>
        <time>2026-05-06T14:56:58.000Z</time>
      </trkpt>
      <trkpt lat="41.805493" lon="22.979726">
        <ele>1157.5</ele>
        <time>2026-05-06T14:56:59.000Z</time>
      </trkpt>
      <trkpt lat="41.805506" lon="22.979717">
        <ele>1157.5</ele>
        <time>2026-05-06T14:57:00.000Z</time>
      </trkpt>
      <trkpt lat="41.805519" lon="22.979708">
        <ele>1157.5</ele>
        <time>2026-05-06T14:57:01.000Z</time>
      </trkpt>
      <trkpt lat="41.805532" lon="22.979701">
        <ele>1157.5</ele>
        <time>2026-05-06T14:57:02.000Z</time>
      </trkpt>
      <trkpt lat="41.805546" lon="22.979694">
        <ele>1156.9</ele>
        <time>2026-05-06T14:57:03.000Z</time>
      </trkpt>
      <trkpt lat="41.80556" lon="22.979687">
        <ele>1156.9</ele>
        <time>2026-05-06T14:57:04.000Z</time>
      </trkpt>
      <trkpt lat="41.805571" lon="22.979679">
        <ele>1156.9</ele>
        <time>2026-05-06T14:57:05.000Z</time>
      </trkpt>
      <trkpt lat="41.805582" lon="22.97967">
        <ele>1156.9</ele>
        <time>2026-05-06T14:57:06.000Z</time>
      </trkpt>
      <trkpt lat="41.805591" lon="22.97966">
        <ele>1156.9</ele>
        <time>2026-05-06T14:57:07.000Z</time>
      </trkpt>
      <trkpt lat="41.8056" lon="22.979649">
        <ele>1156.3</ele>
        <time>2026-05-06T14:57:08.000Z</time>
      </trkpt>
      <trkpt lat="41.805608" lon="22.979637">
        <ele>1156.3</ele>
        <time>2026-05-06T14:57:09.000Z</time>
      </trkpt>
      <trkpt lat="41.805618" lon="22.979625">
        <ele>1156.3</ele>
        <time>2026-05-06T14:57:10.000Z</time>
      </trkpt>
      <trkpt lat="41.805628" lon="22.979614">
        <ele>1156.3</ele>
        <time>2026-05-06T14:57:11.000Z</time>
      </trkpt>
      <trkpt lat="41.80564" lon="22.979602">
        <ele>1156.3</ele>
        <time>2026-05-06T14:57:12.000Z</time>
      </trkpt>
      <trkpt lat="41.80565" lon="22.97959">
        <ele>1156</ele>
        <time>2026-05-06T14:57:13.000Z</time>
      </trkpt>
      <trkpt lat="41.80566" lon="22.979578">
        <ele>1156</ele>
        <time>2026-05-06T14:57:14.000Z</time>
      </trkpt>
      <trkpt lat="41.805669" lon="22.979565">
        <ele>1156</ele>
        <time>2026-05-06T14:57:15.000Z</time>
      </trkpt>
      <trkpt lat="41.805677" lon="22.979552">
        <ele>1156</ele>
        <time>2026-05-06T14:57:16.000Z</time>
      </trkpt>
      <trkpt lat="41.805684" lon="22.979538">
        <ele>1156</ele>
        <time>2026-05-06T14:57:17.000Z</time>
      </trkpt>
      <trkpt lat="41.805691" lon="22.979525">
        <ele>1155.6</ele>
        <time>2026-05-06T14:57:18.000Z</time>
      </trkpt>
      <trkpt lat="41.805698" lon="22.979511">
        <ele>1155.6</ele>
        <time>2026-05-06T14:57:19.000Z</time>
      </trkpt>
      <trkpt lat="41.805705" lon="22.979496">
        <ele>1155.6</ele>
        <time>2026-05-06T14:57:20.000Z</time>
      </trkpt>
      <trkpt lat="41.805713" lon="22.979483">
        <ele>1155.6</ele>
        <time>2026-05-06T14:57:21.000Z</time>
      </trkpt>
      <trkpt lat="41.805721" lon="22.979468">
        <ele>1155.6</ele>
        <time>2026-05-06T14:57:22.000Z</time>
      </trkpt>
      <trkpt lat="41.805729" lon="22.979452">
        <ele>1155.3</ele>
        <time>2026-05-06T14:57:23.000Z</time>
      </trkpt>
      <trkpt lat="41.805739" lon="22.979437">
        <ele>1155.3</ele>
        <time>2026-05-06T14:57:24.000Z</time>
      </trkpt>
      <trkpt lat="41.80575" lon="22.979422">
        <ele>1155.3</ele>
        <time>2026-05-06T14:57:25.000Z</time>
      </trkpt>
      <trkpt lat="41.805762" lon="22.979407">
        <ele>1155.3</ele>
        <time>2026-05-06T14:57:26.000Z</time>
      </trkpt>
      <trkpt lat="41.805774" lon="22.979393">
        <ele>1155.3</ele>
        <time>2026-05-06T14:57:27.000Z</time>
      </trkpt>
      <trkpt lat="41.805786" lon="22.979379">
        <ele>1155.1</ele>
        <time>2026-05-06T14:57:28.000Z</time>
      </trkpt>
      <trkpt lat="41.805799" lon="22.979365">
        <ele>1155.1</ele>
        <time>2026-05-06T14:57:29.000Z</time>
      </trkpt>
      <trkpt lat="41.805811" lon="22.979351">
        <ele>1155.1</ele>
        <time>2026-05-06T14:57:30.000Z</time>
      </trkpt>
      <trkpt lat="41.805822" lon="22.979336">
        <ele>1155.1</ele>
        <time>2026-05-06T14:57:31.000Z</time>
      </trkpt>
      <trkpt lat="41.805835" lon="22.979322">
        <ele>1155.1</ele>
        <time>2026-05-06T14:57:32.000Z</time>
      </trkpt>
      <trkpt lat="41.805849" lon="22.979307">
        <ele>1154.2</ele>
        <time>2026-05-06T14:57:33.000Z</time>
      </trkpt>
      <trkpt lat="41.805863" lon="22.979294">
        <ele>1154.2</ele>
        <time>2026-05-06T14:57:34.000Z</time>
      </trkpt>
      <trkpt lat="41.805877" lon="22.979282">
        <ele>1154.2</ele>
        <time>2026-05-06T14:57:35.000Z</time>
      </trkpt>
      <trkpt lat="41.805889" lon="22.979271">
        <ele>1154.2</ele>
        <time>2026-05-06T14:57:36.000Z</time>
      </trkpt>
      <trkpt lat="41.8059" lon="22.979262">
        <ele>1154.2</ele>
        <time>2026-05-06T14:57:37.000Z</time>
      </trkpt>
      <trkpt lat="41.80591" lon="22.979253">
        <ele>1153.1</ele>
        <time>2026-05-06T14:57:38.000Z</time>
      </trkpt>
      <trkpt lat="41.80592" lon="22.979245">
        <ele>1153.1</ele>
        <time>2026-05-06T14:57:39.000Z</time>
      </trkpt>
      <trkpt lat="41.805931" lon="22.979237">
        <ele>1153.1</ele>
        <time>2026-05-06T14:57:40.000Z</time>
      </trkpt>
      <trkpt lat="41.805942" lon="22.979228">
        <ele>1153.1</ele>
        <time>2026-05-06T14:57:41.000Z</time>
      </trkpt>
      <trkpt lat="41.805955" lon="22.97922">
        <ele>1153.1</ele>
        <time>2026-05-06T14:57:42.000Z</time>
      </trkpt>
      <trkpt lat="41.805967" lon="22.97921">
        <ele>1152.5</ele>
        <time>2026-05-06T14:57:43.000Z</time>
      </trkpt>
      <trkpt lat="41.805978" lon="22.979199">
        <ele>1152.5</ele>
        <time>2026-05-06T14:57:44.000Z</time>
      </trkpt>
      <trkpt lat="41.805989" lon="22.979189">
        <ele>1152.5</ele>
        <time>2026-05-06T14:57:45.000Z</time>
      </trkpt>
      <trkpt lat="41.805999" lon="22.979178">
        <ele>1152.5</ele>
        <time>2026-05-06T14:57:46.000Z</time>
      </trkpt>
      <trkpt lat="41.80601" lon="22.979168">
        <ele>1152.5</ele>
        <time>2026-05-06T14:57:47.000Z</time>
      </trkpt>
      <trkpt lat="41.806019" lon="22.979157">
        <ele>1151.7</ele>
        <time>2026-05-06T14:57:48.000Z</time>
      </trkpt>
      <trkpt lat="41.806029" lon="22.979147">
        <ele>1151.7</ele>
        <time>2026-05-06T14:57:49.000Z</time>
      </trkpt>
      <trkpt lat="41.80604" lon="22.979136">
        <ele>1151.7</ele>
        <time>2026-05-06T14:57:50.000Z</time>
      </trkpt>
      <trkpt lat="41.806051" lon="22.979127">
        <ele>1151.7</ele>
        <time>2026-05-06T14:57:51.000Z</time>
      </trkpt>
      <trkpt lat="41.806064" lon="22.979118">
        <ele>1151.7</ele>
        <time>2026-05-06T14:57:52.000Z</time>
      </trkpt>
      <trkpt lat="41.806077" lon="22.979109">
        <ele>1151.2</ele>
        <time>2026-05-06T14:57:53.000Z</time>
      </trkpt>
      <trkpt lat="41.80609" lon="22.979102">
        <ele>1151.2</ele>
        <time>2026-05-06T14:57:54.000Z</time>
      </trkpt>
      <trkpt lat="41.806102" lon="22.979093">
        <ele>1151.2</ele>
        <time>2026-05-06T14:57:55.000Z</time>
      </trkpt>
      <trkpt lat="41.806115" lon="22.979085">
        <ele>1151.2</ele>
        <time>2026-05-06T14:57:56.000Z</time>
      </trkpt>
      <trkpt lat="41.806128" lon="22.979076">
        <ele>1151.2</ele>
        <time>2026-05-06T14:57:57.000Z</time>
      </trkpt>
      <trkpt lat="41.806141" lon="22.979067">
        <ele>1151</ele>
        <time>2026-05-06T14:57:58.000Z</time>
      </trkpt>
      <trkpt lat="41.806154" lon="22.979058">
        <ele>1151</ele>
        <time>2026-05-06T14:57:59.000Z</time>
      </trkpt>
      <trkpt lat="41.806167" lon="22.97905">
        <ele>1151</ele>
        <time>2026-05-06T14:58:00.000Z</time>
      </trkpt>
      <trkpt lat="41.80618" lon="22.979042">
        <ele>1151</ele>
        <time>2026-05-06T14:58:01.000Z</time>
      </trkpt>
      <trkpt lat="41.806192" lon="22.979035">
        <ele>1151</ele>
        <time>2026-05-06T14:58:02.000Z</time>
      </trkpt>
      <trkpt lat="41.806204" lon="22.979028">
        <ele>1150.7</ele>
        <time>2026-05-06T14:58:03.000Z</time>
      </trkpt>
      <trkpt lat="41.806217" lon="22.979022">
        <ele>1150.7</ele>
        <time>2026-05-06T14:58:04.000Z</time>
      </trkpt>
      <trkpt lat="41.80623" lon="22.979017">
        <ele>1150.7</ele>
        <time>2026-05-06T14:58:05.000Z</time>
      </trkpt>
      <trkpt lat="41.806243" lon="22.97901">
        <ele>1150.7</ele>
        <time>2026-05-06T14:58:06.000Z</time>
      </trkpt>
      <trkpt lat="41.806257" lon="22.979004">
        <ele>1150.7</ele>
        <time>2026-05-06T14:58:07.000Z</time>
      </trkpt>
      <trkpt lat="41.80627" lon="22.978996">
        <ele>1150.4</ele>
        <time>2026-05-06T14:58:08.000Z</time>
      </trkpt>
      <trkpt lat="41.806282" lon="22.978988">
        <ele>1150.4</ele>
        <time>2026-05-06T14:58:09.000Z</time>
      </trkpt>
      <trkpt lat="41.806294" lon="22.978979">
        <ele>1150.4</ele>
        <time>2026-05-06T14:58:10.000Z</time>
      </trkpt>
      <trkpt lat="41.806306" lon="22.978971">
        <ele>1150.4</ele>
        <time>2026-05-06T14:58:11.000Z</time>
      </trkpt>
      <trkpt lat="41.806317" lon="22.978963">
        <ele>1150.4</ele>
        <time>2026-05-06T14:58:12.000Z</time>
      </trkpt>
      <trkpt lat="41.806329" lon="22.978956">
        <ele>1150.3</ele>
        <time>2026-05-06T14:58:13.000Z</time>
      </trkpt>
      <trkpt lat="41.806342" lon="22.978947">
        <ele>1150.3</ele>
        <time>2026-05-06T14:58:14.000Z</time>
      </trkpt>
      <trkpt lat="41.806354" lon="22.978938">
        <ele>1150.3</ele>
        <time>2026-05-06T14:58:15.000Z</time>
      </trkpt>
      <trkpt lat="41.806365" lon="22.978928">
        <ele>1150.3</ele>
        <time>2026-05-06T14:58:16.000Z</time>
      </trkpt>
      <trkpt lat="41.806377" lon="22.978916">
        <ele>1150.3</ele>
        <time>2026-05-06T14:58:17.000Z</time>
      </trkpt>
      <trkpt lat="41.806389" lon="22.978904">
        <ele>1150</ele>
        <time>2026-05-06T14:58:18.000Z</time>
      </trkpt>
      <trkpt lat="41.806399" lon="22.978892">
        <ele>1150</ele>
        <time>2026-05-06T14:58:19.000Z</time>
      </trkpt>
      <trkpt lat="41.80641" lon="22.97888">
        <ele>1150</ele>
        <time>2026-05-06T14:58:20.000Z</time>
      </trkpt>
      <trkpt lat="41.80642" lon="22.978868">
        <ele>1150</ele>
        <time>2026-05-06T14:58:21.000Z</time>
      </trkpt>
      <trkpt lat="41.806431" lon="22.978856">
        <ele>1150</ele>
        <time>2026-05-06T14:58:22.000Z</time>
      </trkpt>
      <trkpt lat="41.806442" lon="22.978845">
        <ele>1149.5</ele>
        <time>2026-05-06T14:58:23.000Z</time>
      </trkpt>
      <trkpt lat="41.806453" lon="22.978833">
        <ele>1149.5</ele>
        <time>2026-05-06T14:58:24.000Z</time>
      </trkpt>
      <trkpt lat="41.806464" lon="22.978821">
        <ele>1149.5</ele>
        <time>2026-05-06T14:58:25.000Z</time>
      </trkpt>
      <trkpt lat="41.806475" lon="22.978808">
        <ele>1149.5</ele>
        <time>2026-05-06T14:58:26.000Z</time>
      </trkpt>
      <trkpt lat="41.806485" lon="22.978794">
        <ele>1149.5</ele>
        <time>2026-05-06T14:58:27.000Z</time>
      </trkpt>
      <trkpt lat="41.806496" lon="22.978779">
        <ele>1149.3</ele>
        <time>2026-05-06T14:58:28.000Z</time>
      </trkpt>
      <trkpt lat="41.806507" lon="22.978764">
        <ele>1149.3</ele>
        <time>2026-05-06T14:58:29.000Z</time>
      </trkpt>
      <trkpt lat="41.806517" lon="22.978749">
        <ele>1149.3</ele>
        <time>2026-05-06T14:58:30.000Z</time>
      </trkpt>
      <trkpt lat="41.806527" lon="22.978735">
        <ele>1149.3</ele>
        <time>2026-05-06T14:58:31.000Z</time>
      </trkpt>
      <trkpt lat="41.806538" lon="22.978721">
        <ele>1149.3</ele>
        <time>2026-05-06T14:58:32.000Z</time>
      </trkpt>
      <trkpt lat="41.806548" lon="22.978708">
        <ele>1148.7</ele>
        <time>2026-05-06T14:58:33.000Z</time>
      </trkpt>
      <trkpt lat="41.806558" lon="22.978694">
        <ele>1148.7</ele>
        <time>2026-05-06T14:58:34.000Z</time>
      </trkpt>
      <trkpt lat="41.806568" lon="22.97868">
        <ele>1148.7</ele>
        <time>2026-05-06T14:58:35.000Z</time>
      </trkpt>
      <trkpt lat="41.806577" lon="22.978667">
        <ele>1148.7</ele>
        <time>2026-05-06T14:58:36.000Z</time>
      </trkpt>
      <trkpt lat="41.806587" lon="22.978655">
        <ele>1148.7</ele>
        <time>2026-05-06T14:58:37.000Z</time>
      </trkpt>
      <trkpt lat="41.806597" lon="22.978643">
        <ele>1148.2</ele>
        <time>2026-05-06T14:58:38.000Z</time>
      </trkpt>
      <trkpt lat="41.806607" lon="22.978631">
        <ele>1148.2</ele>
        <time>2026-05-06T14:58:39.000Z</time>
      </trkpt>
      <trkpt lat="41.806618" lon="22.978619">
        <ele>1148.2</ele>
        <time>2026-05-06T14:58:40.000Z</time>
      </trkpt>
      <trkpt lat="41.806629" lon="22.978606">
        <ele>1148.2</ele>
        <time>2026-05-06T14:58:41.000Z</time>
      </trkpt>
      <trkpt lat="41.80664" lon="22.978594">
        <ele>1148.2</ele>
        <time>2026-05-06T14:58:42.000Z</time>
      </trkpt>
      <trkpt lat="41.806652" lon="22.978582">
        <ele>1148</ele>
        <time>2026-05-06T14:58:43.000Z</time>
      </trkpt>
      <trkpt lat="41.806663" lon="22.97857">
        <ele>1148</ele>
        <time>2026-05-06T14:58:44.000Z</time>
      </trkpt>
      <trkpt lat="41.806674" lon="22.978559">
        <ele>1148</ele>
        <time>2026-05-06T14:58:45.000Z</time>
      </trkpt>
      <trkpt lat="41.806686" lon="22.978549">
        <ele>1148</ele>
        <time>2026-05-06T14:58:46.000Z</time>
      </trkpt>
      <trkpt lat="41.806697" lon="22.978539">
        <ele>1148</ele>
        <time>2026-05-06T14:58:47.000Z</time>
      </trkpt>
      <trkpt lat="41.806708" lon="22.978531">
        <ele>1147.3</ele>
        <time>2026-05-06T14:58:48.000Z</time>
      </trkpt>
      <trkpt lat="41.80672" lon="22.978523">
        <ele>1147.3</ele>
        <time>2026-05-06T14:58:49.000Z</time>
      </trkpt>
      <trkpt lat="41.806732" lon="22.978515">
        <ele>1147.3</ele>
        <time>2026-05-06T14:58:50.000Z</time>
      </trkpt>
      <trkpt lat="41.806745" lon="22.978506">
        <ele>1147.3</ele>
        <time>2026-05-06T14:58:51.000Z</time>
      </trkpt>
      <trkpt lat="41.806757" lon="22.978497">
        <ele>1147.3</ele>
        <time>2026-05-06T14:58:52.000Z</time>
      </trkpt>
      <trkpt lat="41.806771" lon="22.978488">
        <ele>1146.6</ele>
        <time>2026-05-06T14:58:53.000Z</time>
      </trkpt>
      <trkpt lat="41.806784" lon="22.978479">
        <ele>1146.6</ele>
        <time>2026-05-06T14:58:54.000Z</time>
      </trkpt>
      <trkpt lat="41.806797" lon="22.97847">
        <ele>1146.6</ele>
        <time>2026-05-06T14:58:55.000Z</time>
      </trkpt>
      <trkpt lat="41.80681" lon="22.978463">
        <ele>1146.6</ele>
        <time>2026-05-06T14:58:56.000Z</time>
      </trkpt>
      <trkpt lat="41.806824" lon="22.978455">
        <ele>1146.6</ele>
        <time>2026-05-06T14:58:57.000Z</time>
      </trkpt>
      <trkpt lat="41.806837" lon="22.978447">
        <ele>1146.3</ele>
        <time>2026-05-06T14:58:58.000Z</time>
      </trkpt>
      <trkpt lat="41.806851" lon="22.978438">
        <ele>1146.3</ele>
        <time>2026-05-06T14:58:59.000Z</time>
      </trkpt>
      <trkpt lat="41.806865" lon="22.978429">
        <ele>1146.3</ele>
        <time>2026-05-06T14:59:00.000Z</time>
      </trkpt>
      <trkpt lat="41.806879" lon="22.978418">
        <ele>1146.3</ele>
        <time>2026-05-06T14:59:01.000Z</time>
      </trkpt>
      <trkpt lat="41.806893" lon="22.978408">
        <ele>1146.3</ele>
        <time>2026-05-06T14:59:02.000Z</time>
      </trkpt>
      <trkpt lat="41.806907" lon="22.978398">
        <ele>1145.6</ele>
        <time>2026-05-06T14:59:03.000Z</time>
      </trkpt>
      <trkpt lat="41.806921" lon="22.978388">
        <ele>1145.6</ele>
        <time>2026-05-06T14:59:04.000Z</time>
      </trkpt>
      <trkpt lat="41.806932" lon="22.978379">
        <ele>1145.6</ele>
        <time>2026-05-06T14:59:05.000Z</time>
      </trkpt>
      <trkpt lat="41.806944" lon="22.978371">
        <ele>1145.6</ele>
        <time>2026-05-06T14:59:06.000Z</time>
      </trkpt>
      <trkpt lat="41.806956" lon="22.978364">
        <ele>1145.6</ele>
        <time>2026-05-06T14:59:07.000Z</time>
      </trkpt>
      <trkpt lat="41.806968" lon="22.978357">
        <ele>1145.1</ele>
        <time>2026-05-06T14:59:08.000Z</time>
      </trkpt>
      <trkpt lat="41.806981" lon="22.978351">
        <ele>1145.1</ele>
        <time>2026-05-06T14:59:09.000Z</time>
      </trkpt>
      <trkpt lat="41.806994" lon="22.978344">
        <ele>1145.1</ele>
        <time>2026-05-06T14:59:10.000Z</time>
      </trkpt>
      <trkpt lat="41.807007" lon="22.978338">
        <ele>1145.1</ele>
        <time>2026-05-06T14:59:11.000Z</time>
      </trkpt>
      <trkpt lat="41.80702" lon="22.97833">
        <ele>1145.1</ele>
        <time>2026-05-06T14:59:12.000Z</time>
      </trkpt>
      <trkpt lat="41.807033" lon="22.978322">
        <ele>1144.8</ele>
        <time>2026-05-06T14:59:13.000Z</time>
      </trkpt>
      <trkpt lat="41.807046" lon="22.978313">
        <ele>1144.8</ele>
        <time>2026-05-06T14:59:14.000Z</time>
      </trkpt>
      <trkpt lat="41.807059" lon="22.978303">
        <ele>1144.8</ele>
        <time>2026-05-06T14:59:15.000Z</time>
      </trkpt>
      <trkpt lat="41.807071" lon="22.978295">
        <ele>1144.8</ele>
        <time>2026-05-06T14:59:16.000Z</time>
      </trkpt>
      <trkpt lat="41.807085" lon="22.978287">
        <ele>1144.8</ele>
        <time>2026-05-06T14:59:17.000Z</time>
      </trkpt>
      <trkpt lat="41.807097" lon="22.978279">
        <ele>1144.3</ele>
        <time>2026-05-06T14:59:18.000Z</time>
      </trkpt>
      <trkpt lat="41.80711" lon="22.978272">
        <ele>1144.3</ele>
        <time>2026-05-06T14:59:19.000Z</time>
      </trkpt>
      <trkpt lat="41.807123" lon="22.978265">
        <ele>1144.3</ele>
        <time>2026-05-06T14:59:20.000Z</time>
      </trkpt>
      <trkpt lat="41.807135" lon="22.978259">
        <ele>1144.3</ele>
        <time>2026-05-06T14:59:21.000Z</time>
      </trkpt>
      <trkpt lat="41.807143" lon="22.978252">
        <ele>1144.3</ele>
        <time>2026-05-06T14:59:22.000Z</time>
      </trkpt>
      <trkpt lat="41.807148" lon="22.978246">
        <ele>1143.8</ele>
        <time>2026-05-06T14:59:23.000Z</time>
      </trkpt>
      <trkpt lat="41.807153" lon="22.978239">
        <ele>1143.8</ele>
        <time>2026-05-06T14:59:24.000Z</time>
      </trkpt>
      <trkpt lat="41.807159" lon="22.978233">
        <ele>1143.8</ele>
        <time>2026-05-06T14:59:25.000Z</time>
      </trkpt>
      <trkpt lat="41.807166" lon="22.978225">
        <ele>1143.8</ele>
        <time>2026-05-06T14:59:26.000Z</time>
      </trkpt>
      <trkpt lat="41.807177" lon="22.978218">
        <ele>1143.8</ele>
        <time>2026-05-06T14:59:27.000Z</time>
      </trkpt>
      <trkpt lat="41.807189" lon="22.978212">
        <ele>1143.6</ele>
        <time>2026-05-06T14:59:28.000Z</time>
      </trkpt>
      <trkpt lat="41.807201" lon="22.978205">
        <ele>1143.6</ele>
        <time>2026-05-06T14:59:29.000Z</time>
      </trkpt>
      <trkpt lat="41.807214" lon="22.978199">
        <ele>1143.6</ele>
        <time>2026-05-06T14:59:30.000Z</time>
      </trkpt>
      <trkpt lat="41.807226" lon="22.978193">
        <ele>1143.6</ele>
        <time>2026-05-06T14:59:31.000Z</time>
      </trkpt>
      <trkpt lat="41.80724" lon="22.978187">
        <ele>1143.6</ele>
        <time>2026-05-06T14:59:32.000Z</time>
      </trkpt>
      <trkpt lat="41.807253" lon="22.978182">
        <ele>1143.3</ele>
        <time>2026-05-06T14:59:33.000Z</time>
      </trkpt>
      <trkpt lat="41.807267" lon="22.978178">
        <ele>1143.3</ele>
        <time>2026-05-06T14:59:34.000Z</time>
      </trkpt>
      <trkpt lat="41.80728" lon="22.978172">
        <ele>1143.3</ele>
        <time>2026-05-06T14:59:35.000Z</time>
      </trkpt>
      <trkpt lat="41.807293" lon="22.978167">
        <ele>1143.3</ele>
        <time>2026-05-06T14:59:36.000Z</time>
      </trkpt>
      <trkpt lat="41.807306" lon="22.978162">
        <ele>1143.3</ele>
        <time>2026-05-06T14:59:37.000Z</time>
      </trkpt>
      <trkpt lat="41.807319" lon="22.978158">
        <ele>1142.8</ele>
        <time>2026-05-06T14:59:38.000Z</time>
      </trkpt>
      <trkpt lat="41.807333" lon="22.978155">
        <ele>1142.8</ele>
        <time>2026-05-06T14:59:39.000Z</time>
      </trkpt>
      <trkpt lat="41.807346" lon="22.978153">
        <ele>1142.8</ele>
        <time>2026-05-06T14:59:40.000Z</time>
      </trkpt>
      <trkpt lat="41.807359" lon="22.978152">
        <ele>1142.8</ele>
        <time>2026-05-06T14:59:41.000Z</time>
      </trkpt>
      <trkpt lat="41.807372" lon="22.978149">
        <ele>1142.8</ele>
        <time>2026-05-06T14:59:42.000Z</time>
      </trkpt>
      <trkpt lat="41.807384" lon="22.978147">
        <ele>1142.6</ele>
        <time>2026-05-06T14:59:43.000Z</time>
      </trkpt>
      <trkpt lat="41.807397" lon="22.978145">
        <ele>1142.6</ele>
        <time>2026-05-06T14:59:44.000Z</time>
      </trkpt>
      <trkpt lat="41.807409" lon="22.978143">
        <ele>1142.6</ele>
        <time>2026-05-06T14:59:45.000Z</time>
      </trkpt>
      <trkpt lat="41.807422" lon="22.978142">
        <ele>1142.6</ele>
        <time>2026-05-06T14:59:46.000Z</time>
      </trkpt>
      <trkpt lat="41.807436" lon="22.978142">
        <ele>1142.6</ele>
        <time>2026-05-06T14:59:47.000Z</time>
      </trkpt>
      <trkpt lat="41.807449" lon="22.978144">
        <ele>1142</ele>
        <time>2026-05-06T14:59:48.000Z</time>
      </trkpt>
      <trkpt lat="41.807462" lon="22.978147">
        <ele>1142</ele>
        <time>2026-05-06T14:59:49.000Z</time>
      </trkpt>
      <trkpt lat="41.807476" lon="22.978151">
        <ele>1142</ele>
        <time>2026-05-06T14:59:50.000Z</time>
      </trkpt>
      <trkpt lat="41.807488" lon="22.978158">
        <ele>1142</ele>
        <time>2026-05-06T14:59:51.000Z</time>
      </trkpt>
      <trkpt lat="41.8075" lon="22.978167">
        <ele>1142</ele>
        <time>2026-05-06T14:59:52.000Z</time>
      </trkpt>
      <trkpt lat="41.807513" lon="22.978175">
        <ele>1141.5</ele>
        <time>2026-05-06T14:59:53.000Z</time>
      </trkpt>
      <trkpt lat="41.807525" lon="22.978184">
        <ele>1141.5</ele>
        <time>2026-05-06T14:59:54.000Z</time>
      </trkpt>
      <trkpt lat="41.807535" lon="22.978195">
        <ele>1141.5</ele>
        <time>2026-05-06T14:59:55.000Z</time>
      </trkpt>
      <trkpt lat="41.807545" lon="22.978205">
        <ele>1141.5</ele>
        <time>2026-05-06T14:59:56.000Z</time>
      </trkpt>
      <trkpt lat="41.807554" lon="22.978214">
        <ele>1141.5</ele>
        <time>2026-05-06T14:59:57.000Z</time>
      </trkpt>
      <trkpt lat="41.807563" lon="22.978224">
        <ele>1141.2</ele>
        <time>2026-05-06T14:59:58.000Z</time>
      </trkpt>
      <trkpt lat="41.807572" lon="22.978232">
        <ele>1141.2</ele>
        <time>2026-05-06T14:59:59.000Z</time>
      </trkpt>
      <trkpt lat="41.807582" lon="22.978239">
        <ele>1141.2</ele>
        <time>2026-05-06T15:00:00.000Z</time>
      </trkpt>
      <trkpt lat="41.807593" lon="22.978247">
        <ele>1141.2</ele>
        <time>2026-05-06T15:00:01.000Z</time>
      </trkpt>
      <trkpt lat="41.807604" lon="22.978257">
        <ele>1141.2</ele>
        <time>2026-05-06T15:00:02.000Z</time>
      </trkpt>
      <trkpt lat="41.807616" lon="22.978268">
        <ele>1140.7</ele>
        <time>2026-05-06T15:00:03.000Z</time>
      </trkpt>
      <trkpt lat="41.807628" lon="22.978281">
        <ele>1140.7</ele>
        <time>2026-05-06T15:00:04.000Z</time>
      </trkpt>
      <trkpt lat="41.807641" lon="22.978295">
        <ele>1140.7</ele>
        <time>2026-05-06T15:00:05.000Z</time>
      </trkpt>
      <trkpt lat="41.807653" lon="22.97831">
        <ele>1140.7</ele>
        <time>2026-05-06T15:00:06.000Z</time>
      </trkpt>
      <trkpt lat="41.807665" lon="22.978324">
        <ele>1140.7</ele>
        <time>2026-05-06T15:00:07.000Z</time>
      </trkpt>
      <trkpt lat="41.807677" lon="22.978338">
        <ele>1140.2</ele>
        <time>2026-05-06T15:00:08.000Z</time>
      </trkpt>
      <trkpt lat="41.807687" lon="22.978352">
        <ele>1140.2</ele>
        <time>2026-05-06T15:00:09.000Z</time>
      </trkpt>
      <trkpt lat="41.807696" lon="22.978366">
        <ele>1140.2</ele>
        <time>2026-05-06T15:00:10.000Z</time>
      </trkpt>
      <trkpt lat="41.807704" lon="22.978381">
        <ele>1140.2</ele>
        <time>2026-05-06T15:00:11.000Z</time>
      </trkpt>
      <trkpt lat="41.807712" lon="22.978395">
        <ele>1140.2</ele>
        <time>2026-05-06T15:00:12.000Z</time>
      </trkpt>
      <trkpt lat="41.807719" lon="22.978411">
        <ele>1140</ele>
        <time>2026-05-06T15:00:13.000Z</time>
      </trkpt>
      <trkpt lat="41.807726" lon="22.978427">
        <ele>1140</ele>
        <time>2026-05-06T15:00:14.000Z</time>
      </trkpt>
      <trkpt lat="41.807732" lon="22.978444">
        <ele>1140</ele>
        <time>2026-05-06T15:00:15.000Z</time>
      </trkpt>
      <trkpt lat="41.807738" lon="22.97846">
        <ele>1140</ele>
        <time>2026-05-06T15:00:16.000Z</time>
      </trkpt>
      <trkpt lat="41.807743" lon="22.978477">
        <ele>1140</ele>
        <time>2026-05-06T15:00:17.000Z</time>
      </trkpt>
      <trkpt lat="41.807747" lon="22.978493">
        <ele>1139.7</ele>
        <time>2026-05-06T15:00:18.000Z</time>
      </trkpt>
      <trkpt lat="41.807752" lon="22.978508">
        <ele>1139.7</ele>
        <time>2026-05-06T15:00:19.000Z</time>
      </trkpt>
      <trkpt lat="41.807757" lon="22.978524">
        <ele>1139.7</ele>
        <time>2026-05-06T15:00:20.000Z</time>
      </trkpt>
      <trkpt lat="41.807763" lon="22.97854">
        <ele>1139.7</ele>
        <time>2026-05-06T15:00:21.000Z</time>
      </trkpt>
      <trkpt lat="41.80777" lon="22.978556">
        <ele>1139.7</ele>
        <time>2026-05-06T15:00:22.000Z</time>
      </trkpt>
      <trkpt lat="41.807777" lon="22.978573">
        <ele>1139.4</ele>
        <time>2026-05-06T15:00:23.000Z</time>
      </trkpt>
      <trkpt lat="41.807783" lon="22.97859">
        <ele>1139.4</ele>
        <time>2026-05-06T15:00:24.000Z</time>
      </trkpt>
      <trkpt lat="41.807787" lon="22.978607">
        <ele>1139.4</ele>
        <time>2026-05-06T15:00:25.000Z</time>
      </trkpt>
      <trkpt lat="41.807792" lon="22.978625">
        <ele>1139.4</ele>
        <time>2026-05-06T15:00:26.000Z</time>
      </trkpt>
      <trkpt lat="41.807795" lon="22.978642">
        <ele>1139.4</ele>
        <time>2026-05-06T15:00:27.000Z</time>
      </trkpt>
      <trkpt lat="41.807797" lon="22.978658">
        <ele>1139.2</ele>
        <time>2026-05-06T15:00:28.000Z</time>
      </trkpt>
      <trkpt lat="41.807798" lon="22.978674">
        <ele>1139.2</ele>
        <time>2026-05-06T15:00:29.000Z</time>
      </trkpt>
      <trkpt lat="41.8078" lon="22.97869">
        <ele>1139.2</ele>
        <time>2026-05-06T15:00:30.000Z</time>
      </trkpt>
      <trkpt lat="41.807802" lon="22.978707">
        <ele>1139.2</ele>
        <time>2026-05-06T15:00:31.000Z</time>
      </trkpt>
      <trkpt lat="41.807805" lon="22.978725">
        <ele>1139.2</ele>
        <time>2026-05-06T15:00:32.000Z</time>
      </trkpt>
      <trkpt lat="41.807808" lon="22.978744">
        <ele>1138.7</ele>
        <time>2026-05-06T15:00:33.000Z</time>
      </trkpt>
      <trkpt lat="41.807812" lon="22.978763">
        <ele>1138.7</ele>
        <time>2026-05-06T15:00:34.000Z</time>
      </trkpt>
      <trkpt lat="41.807816" lon="22.978782">
        <ele>1138.7</ele>
        <time>2026-05-06T15:00:35.000Z</time>
      </trkpt>
      <trkpt lat="41.80782" lon="22.978803">
        <ele>1138.7</ele>
        <time>2026-05-06T15:00:36.000Z</time>
      </trkpt>
      <trkpt lat="41.807824" lon="22.978823">
        <ele>1138.7</ele>
        <time>2026-05-06T15:00:37.000Z</time>
      </trkpt>
      <trkpt lat="41.807829" lon="22.978843">
        <ele>1138.1</ele>
        <time>2026-05-06T15:00:38.000Z</time>
      </trkpt>
      <trkpt lat="41.807833" lon="22.978864">
        <ele>1138.1</ele>
        <time>2026-05-06T15:00:39.000Z</time>
      </trkpt>
      <trkpt lat="41.807837" lon="22.978883">
        <ele>1138.1</ele>
        <time>2026-05-06T15:00:40.000Z</time>
      </trkpt>
      <trkpt lat="41.807841" lon="22.978902">
        <ele>1138.1</ele>
        <time>2026-05-06T15:00:41.000Z</time>
      </trkpt>
      <trkpt lat="41.807843" lon="22.97892">
        <ele>1138.1</ele>
        <time>2026-05-06T15:00:42.000Z</time>
      </trkpt>
      <trkpt lat="41.807847" lon="22.978939">
        <ele>1137.8</ele>
        <time>2026-05-06T15:00:43.000Z</time>
      </trkpt>
      <trkpt lat="41.80785" lon="22.978957">
        <ele>1137.8</ele>
        <time>2026-05-06T15:00:44.000Z</time>
      </trkpt>
      <trkpt lat="41.807853" lon="22.978976">
        <ele>1137.8</ele>
        <time>2026-05-06T15:00:45.000Z</time>
      </trkpt>
      <trkpt lat="41.807855" lon="22.978995">
        <ele>1137.8</ele>
        <time>2026-05-06T15:00:46.000Z</time>
      </trkpt>
      <trkpt lat="41.807858" lon="22.979014">
        <ele>1137.8</ele>
        <time>2026-05-06T15:00:47.000Z</time>
      </trkpt>
      <trkpt lat="41.80786" lon="22.979033">
        <ele>1137.1</ele>
        <time>2026-05-06T15:00:48.000Z</time>
      </trkpt>
      <trkpt lat="41.807862" lon="22.979051">
        <ele>1137.1</ele>
        <time>2026-05-06T15:00:49.000Z</time>
      </trkpt>
      <trkpt lat="41.807864" lon="22.979069">
        <ele>1137.1</ele>
        <time>2026-05-06T15:00:50.000Z</time>
      </trkpt>
      <trkpt lat="41.807866" lon="22.979088">
        <ele>1137.1</ele>
        <time>2026-05-06T15:00:51.000Z</time>
      </trkpt>
      <trkpt lat="41.807869" lon="22.979105">
        <ele>1137.1</ele>
        <time>2026-05-06T15:00:52.000Z</time>
      </trkpt>
      <trkpt lat="41.807873" lon="22.979122">
        <ele>1136.5</ele>
        <time>2026-05-06T15:00:53.000Z</time>
      </trkpt>
      <trkpt lat="41.807877" lon="22.979139">
        <ele>1136.5</ele>
        <time>2026-05-06T15:00:54.000Z</time>
      </trkpt>
      <trkpt lat="41.807883" lon="22.979156">
        <ele>1136.5</ele>
        <time>2026-05-06T15:00:55.000Z</time>
      </trkpt>
      <trkpt lat="41.807888" lon="22.979172">
        <ele>1136.5</ele>
        <time>2026-05-06T15:00:56.000Z</time>
      </trkpt>
      <trkpt lat="41.807894" lon="22.979189">
        <ele>1136.5</ele>
        <time>2026-05-06T15:00:57.000Z</time>
      </trkpt>
      <trkpt lat="41.807901" lon="22.979205">
        <ele>1136.3</ele>
        <time>2026-05-06T15:00:58.000Z</time>
      </trkpt>
      <trkpt lat="41.807907" lon="22.979222">
        <ele>1136.3</ele>
        <time>2026-05-06T15:00:59.000Z</time>
      </trkpt>
      <trkpt lat="41.807914" lon="22.97924">
        <ele>1136.3</ele>
        <time>2026-05-06T15:01:00.000Z</time>
      </trkpt>
      <trkpt lat="41.807919" lon="22.979257">
        <ele>1136.3</ele>
        <time>2026-05-06T15:01:01.000Z</time>
      </trkpt>
      <trkpt lat="41.807925" lon="22.979275">
        <ele>1136.3</ele>
        <time>2026-05-06T15:01:02.000Z</time>
      </trkpt>
      <trkpt lat="41.807932" lon="22.979293">
        <ele>1135.6</ele>
        <time>2026-05-06T15:01:03.000Z</time>
      </trkpt>
      <trkpt lat="41.807939" lon="22.97931">
        <ele>1135.6</ele>
        <time>2026-05-06T15:01:04.000Z</time>
      </trkpt>
      <trkpt lat="41.807947" lon="22.979328">
        <ele>1135.6</ele>
        <time>2026-05-06T15:01:05.000Z</time>
      </trkpt>
      <trkpt lat="41.807955" lon="22.979345">
        <ele>1135.6</ele>
        <time>2026-05-06T15:01:06.000Z</time>
      </trkpt>
      <trkpt lat="41.807963" lon="22.979363">
        <ele>1135.6</ele>
        <time>2026-05-06T15:01:07.000Z</time>
      </trkpt>
      <trkpt lat="41.80797" lon="22.979381">
        <ele>1134.9</ele>
        <time>2026-05-06T15:01:08.000Z</time>
      </trkpt>
      <trkpt lat="41.807977" lon="22.979398">
        <ele>1134.9</ele>
        <time>2026-05-06T15:01:09.000Z</time>
      </trkpt>
      <trkpt lat="41.807985" lon="22.979414">
        <ele>1134.9</ele>
        <time>2026-05-06T15:01:10.000Z</time>
      </trkpt>
      <trkpt lat="41.807993" lon="22.979429">
        <ele>1134.9</ele>
        <time>2026-05-06T15:01:11.000Z</time>
      </trkpt>
      <trkpt lat="41.808003" lon="22.979443">
        <ele>1134.9</ele>
        <time>2026-05-06T15:01:12.000Z</time>
      </trkpt>
      <trkpt lat="41.808012" lon="22.979459">
        <ele>1134.5</ele>
        <time>2026-05-06T15:01:13.000Z</time>
      </trkpt>
      <trkpt lat="41.808021" lon="22.979476">
        <ele>1134.5</ele>
        <time>2026-05-06T15:01:14.000Z</time>
      </trkpt>
      <trkpt lat="41.80803" lon="22.979492">
        <ele>1134.5</ele>
        <time>2026-05-06T15:01:15.000Z</time>
      </trkpt>
      <trkpt lat="41.808038" lon="22.979507">
        <ele>1134.5</ele>
        <time>2026-05-06T15:01:16.000Z</time>
      </trkpt>
      <trkpt lat="41.808045" lon="22.979521">
        <ele>1134.5</ele>
        <time>2026-05-06T15:01:17.000Z</time>
      </trkpt>
      <trkpt lat="41.80805" lon="22.979531">
        <ele>1133.6</ele>
        <time>2026-05-06T15:01:18.000Z</time>
      </trkpt>
      <trkpt lat="41.808055" lon="22.979539">
        <ele>1133.6</ele>
        <time>2026-05-06T15:01:19.000Z</time>
      </trkpt>
      <trkpt lat="41.808059" lon="22.97955">
        <ele>1133.6</ele>
        <time>2026-05-06T15:01:20.000Z</time>
      </trkpt>
      <trkpt lat="41.808061" lon="22.979562">
        <ele>1133.6</ele>
        <time>2026-05-06T15:01:21.000Z</time>
      </trkpt>
      <trkpt lat="41.808062" lon="22.979574">
        <ele>1133.6</ele>
        <time>2026-05-06T15:01:22.000Z</time>
      </trkpt>
      <trkpt lat="41.808064" lon="22.979588">
        <ele>1132.9</ele>
        <time>2026-05-06T15:01:23.000Z</time>
      </trkpt>
      <trkpt lat="41.808066" lon="22.979603">
        <ele>1132.9</ele>
        <time>2026-05-06T15:01:24.000Z</time>
      </trkpt>
      <trkpt lat="41.808067" lon="22.979617">
        <ele>1132.9</ele>
        <time>2026-05-06T15:01:25.000Z</time>
      </trkpt>
      <trkpt lat="41.80807" lon="22.97963">
        <ele>1132.9</ele>
        <time>2026-05-06T15:01:26.000Z</time>
      </trkpt>
      <trkpt lat="41.808075" lon="22.979645">
        <ele>1132.9</ele>
        <time>2026-05-06T15:01:27.000Z</time>
      </trkpt>
      <trkpt lat="41.808079" lon="22.979659">
        <ele>1132.6</ele>
        <time>2026-05-06T15:01:28.000Z</time>
      </trkpt>
      <trkpt lat="41.808085" lon="22.979673">
        <ele>1132.6</ele>
        <time>2026-05-06T15:01:29.000Z</time>
      </trkpt>
      <trkpt lat="41.808092" lon="22.979687">
        <ele>1132.6</ele>
        <time>2026-05-06T15:01:30.000Z</time>
      </trkpt>
      <trkpt lat="41.8081" lon="22.979699">
        <ele>1132.6</ele>
        <time>2026-05-06T15:01:31.000Z</time>
      </trkpt>
      <trkpt lat="41.808108" lon="22.979711">
        <ele>1132.6</ele>
        <time>2026-05-06T15:01:32.000Z</time>
      </trkpt>
      <trkpt lat="41.808118" lon="22.979723">
        <ele>1132</ele>
        <time>2026-05-06T15:01:33.000Z</time>
      </trkpt>
      <trkpt lat="41.808128" lon="22.979735">
        <ele>1132</ele>
        <time>2026-05-06T15:01:34.000Z</time>
      </trkpt>
      <trkpt lat="41.808139" lon="22.979746">
        <ele>1132</ele>
        <time>2026-05-06T15:01:35.000Z</time>
      </trkpt>
      <trkpt lat="41.808151" lon="22.979757">
        <ele>1132</ele>
        <time>2026-05-06T15:01:36.000Z</time>
      </trkpt>
      <trkpt lat="41.808164" lon="22.979767">
        <ele>1132</ele>
        <time>2026-05-06T15:01:37.000Z</time>
      </trkpt>
      <trkpt lat="41.808177" lon="22.979776">
        <ele>1131.3</ele>
        <time>2026-05-06T15:01:38.000Z</time>
      </trkpt>
      <trkpt lat="41.80819" lon="22.979785">
        <ele>1131.3</ele>
        <time>2026-05-06T15:01:39.000Z</time>
      </trkpt>
      <trkpt lat="41.808202" lon="22.979793">
        <ele>1131.3</ele>
        <time>2026-05-06T15:01:40.000Z</time>
      </trkpt>
      <trkpt lat="41.808214" lon="22.9798">
        <ele>1131.3</ele>
        <time>2026-05-06T15:01:41.000Z</time>
      </trkpt>
      <trkpt lat="41.808224" lon="22.979806">
        <ele>1131.3</ele>
        <time>2026-05-06T15:01:42.000Z</time>
      </trkpt>
      <trkpt lat="41.808234" lon="22.979812">
        <ele>1130.9</ele>
        <time>2026-05-06T15:01:43.000Z</time>
      </trkpt>
      <trkpt lat="41.808243" lon="22.979814">
        <ele>1130.9</ele>
        <time>2026-05-06T15:01:44.000Z</time>
      </trkpt>
      <trkpt lat="41.80825" lon="22.979816">
        <ele>1130.9</ele>
        <time>2026-05-06T15:01:45.000Z</time>
      </trkpt>
      <trkpt lat="41.808258" lon="22.979816">
        <ele>1130.9</ele>
        <time>2026-05-06T15:01:46.000Z</time>
      </trkpt>
      <trkpt lat="41.808267" lon="22.979818">
        <ele>1130.9</ele>
        <time>2026-05-06T15:01:47.000Z</time>
      </trkpt>
      <trkpt lat="41.808274" lon="22.979821">
        <ele>1130.3</ele>
        <time>2026-05-06T15:01:48.000Z</time>
      </trkpt>
      <trkpt lat="41.808281" lon="22.979824">
        <ele>1130.3</ele>
        <time>2026-05-06T15:01:49.000Z</time>
      </trkpt>
      <trkpt lat="41.808288" lon="22.979828">
        <ele>1130.3</ele>
        <time>2026-05-06T15:01:50.000Z</time>
      </trkpt>
      <trkpt lat="41.808291" lon="22.979832">
        <ele>1130.3</ele>
        <time>2026-05-06T15:01:51.000Z</time>
      </trkpt>
      <trkpt lat="41.808294" lon="22.979834">
        <ele>1130.3</ele>
        <time>2026-05-06T15:01:52.000Z</time>
      </trkpt>
      <trkpt lat="41.8083" lon="22.979837">
        <ele>1129.8</ele>
        <time>2026-05-06T15:01:53.000Z</time>
      </trkpt>
      <trkpt lat="41.808308" lon="22.979841">
        <ele>1129.8</ele>
        <time>2026-05-06T15:01:54.000Z</time>
      </trkpt>
      <trkpt lat="41.808318" lon="22.979846">
        <ele>1129.8</ele>
        <time>2026-05-06T15:01:55.000Z</time>
      </trkpt>
      <trkpt lat="41.808331" lon="22.979851">
        <ele>1129.8</ele>
        <time>2026-05-06T15:01:56.000Z</time>
      </trkpt>
      <trkpt lat="41.808343" lon="22.979856">
        <ele>1129.8</ele>
        <time>2026-05-06T15:01:57.000Z</time>
      </trkpt>
      <trkpt lat="41.808353" lon="22.979861">
        <ele>1129.6</ele>
        <time>2026-05-06T15:01:58.000Z</time>
      </trkpt>
      <trkpt lat="41.808361" lon="22.979865">
        <ele>1129.6</ele>
        <time>2026-05-06T15:01:59.000Z</time>
      </trkpt>
      <trkpt lat="41.808368" lon="22.979867">
        <ele>1129.6</ele>
        <time>2026-05-06T15:02:00.000Z</time>
      </trkpt>
      <trkpt lat="41.808376" lon="22.979868">
        <ele>1129.6</ele>
        <time>2026-05-06T15:02:01.000Z</time>
      </trkpt>
      <trkpt lat="41.808385" lon="22.979869">
        <ele>1129.6</ele>
        <time>2026-05-06T15:02:02.000Z</time>
      </trkpt>
      <trkpt lat="41.808396" lon="22.979869">
        <ele>1129.4</ele>
        <time>2026-05-06T15:02:03.000Z</time>
      </trkpt>
      <trkpt lat="41.808408" lon="22.979871">
        <ele>1129.4</ele>
        <time>2026-05-06T15:02:04.000Z</time>
      </trkpt>
      <trkpt lat="41.808421" lon="22.979873">
        <ele>1129.4</ele>
        <time>2026-05-06T15:02:05.000Z</time>
      </trkpt>
      <trkpt lat="41.808435" lon="22.979876">
        <ele>1129.4</ele>
        <time>2026-05-06T15:02:06.000Z</time>
      </trkpt>
      <trkpt lat="41.808449" lon="22.979878">
        <ele>1129.4</ele>
        <time>2026-05-06T15:02:07.000Z</time>
      </trkpt>
      <trkpt lat="41.808463" lon="22.97988">
        <ele>1129.4</ele>
        <time>2026-05-06T15:02:08.000Z</time>
      </trkpt>
      <trkpt lat="41.808478" lon="22.979882">
        <ele>1129.4</ele>
        <time>2026-05-06T15:02:09.000Z</time>
      </trkpt>
      <trkpt lat="41.808492" lon="22.979884">
        <ele>1129.4</ele>
        <time>2026-05-06T15:02:10.000Z</time>
      </trkpt>
      <trkpt lat="41.808507" lon="22.979886">
        <ele>1129.4</ele>
        <time>2026-05-06T15:02:11.000Z</time>
      </trkpt>
      <trkpt lat="41.808521" lon="22.979887">
        <ele>1129.4</ele>
        <time>2026-05-06T15:02:12.000Z</time>
      </trkpt>
      <trkpt lat="41.808534" lon="22.97989">
        <ele>1129.4</ele>
        <time>2026-05-06T15:02:13.000Z</time>
      </trkpt>
      <trkpt lat="41.808545" lon="22.979894">
        <ele>1129.4</ele>
        <time>2026-05-06T15:02:14.000Z</time>
      </trkpt>
      <trkpt lat="41.808552" lon="22.979896">
        <ele>1129.4</ele>
        <time>2026-05-06T15:02:15.000Z</time>
      </trkpt>
      <trkpt lat="41.808557" lon="22.979899">
        <ele>1129.4</ele>
        <time>2026-05-06T15:02:16.000Z</time>
      </trkpt>
      <trkpt lat="41.80856" lon="22.979902">
        <ele>1129.4</ele>
        <time>2026-05-06T15:02:17.000Z</time>
      </trkpt>
      <trkpt lat="41.80856" lon="22.979903">
        <ele>1129.4</ele>
        <time>2026-05-06T15:02:18.000Z</time>
      </trkpt>
      <trkpt lat="41.808562" lon="22.979902">
        <ele>1129.4</ele>
        <time>2026-05-06T15:02:19.000Z</time>
      </trkpt>
      <trkpt lat="41.808563" lon="22.979904">
        <ele>1129.4</ele>
        <time>2026-05-06T15:02:20.000Z</time>
      </trkpt>
      <trkpt lat="41.808563" lon="22.979904">
        <ele>1129.4</ele>
        <time>2026-05-06T15:02:21.000Z</time>
      </trkpt>
      <trkpt lat="41.808564" lon="22.979905">
        <ele>1129.4</ele>
        <time>2026-05-06T15:02:22.000Z</time>
      </trkpt>
      <trkpt lat="41.808565" lon="22.979906">
        <ele>1129.5</ele>
        <time>2026-05-06T15:02:23.000Z</time>
      </trkpt>
      <trkpt lat="41.808565" lon="22.979908">
        <ele>1129.5</ele>
        <time>2026-05-06T15:02:24.000Z</time>
      </trkpt>
      <trkpt lat="41.808565" lon="22.979908">
        <ele>1129.5</ele>
        <time>2026-05-06T15:02:25.000Z</time>
      </trkpt>
      <trkpt lat="41.808566" lon="22.979909">
        <ele>1129.5</ele>
        <time>2026-05-06T15:02:26.000Z</time>
      </trkpt>
      <trkpt lat="41.808566" lon="22.97991">
        <ele>1129.5</ele>
        <time>2026-05-06T15:02:27.000Z</time>
      </trkpt>
      <trkpt lat="41.808566" lon="22.97991">
        <ele>1129.6</ele>
        <time>2026-05-06T15:02:28.000Z</time>
      </trkpt>
      <trkpt lat="41.808566" lon="22.97991">
        <ele>1129.6</ele>
        <time>2026-05-06T15:02:29.000Z</time>
      </trkpt>
      <trkpt lat="41.808565" lon="22.979909">
        <ele>1129.6</ele>
        <time>2026-05-06T15:02:30.000Z</time>
      </trkpt>
      <trkpt lat="41.808563" lon="22.979909">
        <ele>1129.6</ele>
        <time>2026-05-06T15:02:31.000Z</time>
      </trkpt>
      <trkpt lat="41.808561" lon="22.979909">
        <ele>1129.6</ele>
        <time>2026-05-06T15:02:32.000Z</time>
      </trkpt>
      <trkpt lat="41.808559" lon="22.97991">
        <ele>1129.7</ele>
        <time>2026-05-06T15:02:33.000Z</time>
      </trkpt>
      <trkpt lat="41.80856" lon="22.97991">
        <ele>1129.7</ele>
        <time>2026-05-06T15:02:34.000Z</time>
      </trkpt>
      <trkpt lat="41.808562" lon="22.97991">
        <ele>1129.7</ele>
        <time>2026-05-06T15:02:35.000Z</time>
      </trkpt>
      <trkpt lat="41.808568" lon="22.979911">
        <ele>1129.7</ele>
        <time>2026-05-06T15:02:36.000Z</time>
      </trkpt>
      <trkpt lat="41.808576" lon="22.979912">
        <ele>1129.7</ele>
        <time>2026-05-06T15:02:37.000Z</time>
      </trkpt>
      <trkpt lat="41.808587" lon="22.979913">
        <ele>1129.7</ele>
        <time>2026-05-06T15:02:38.000Z</time>
      </trkpt>
      <trkpt lat="41.808599" lon="22.979915">
        <ele>1129.7</ele>
        <time>2026-05-06T15:02:39.000Z</time>
      </trkpt>
      <trkpt lat="41.808612" lon="22.979916">
        <ele>1129.7</ele>
        <time>2026-05-06T15:02:40.000Z</time>
      </trkpt>
      <trkpt lat="41.808625" lon="22.979918">
        <ele>1129.7</ele>
        <time>2026-05-06T15:02:41.000Z</time>
      </trkpt>
      <trkpt lat="41.808638" lon="22.97992">
        <ele>1129.7</ele>
        <time>2026-05-06T15:02:42.000Z</time>
      </trkpt>
      <trkpt lat="41.808652" lon="22.979922">
        <ele>1129.7</ele>
        <time>2026-05-06T15:02:43.000Z</time>
      </trkpt>
      <trkpt lat="41.808666" lon="22.979924">
        <ele>1129.7</ele>
        <time>2026-05-06T15:02:44.000Z</time>
      </trkpt>
      <trkpt lat="41.80868" lon="22.979926">
        <ele>1129.7</ele>
        <time>2026-05-06T15:02:45.000Z</time>
      </trkpt>
      <trkpt lat="41.808695" lon="22.979927">
        <ele>1129.7</ele>
        <time>2026-05-06T15:02:46.000Z</time>
      </trkpt>
      <trkpt lat="41.80871" lon="22.979929">
        <ele>1129.7</ele>
        <time>2026-05-06T15:02:47.000Z</time>
      </trkpt>
      <trkpt lat="41.808724" lon="22.97993">
        <ele>1129.6</ele>
        <time>2026-05-06T15:02:48.000Z</time>
      </trkpt>
      <trkpt lat="41.808739" lon="22.979933">
        <ele>1129.6</ele>
        <time>2026-05-06T15:02:49.000Z</time>
      </trkpt>
      <trkpt lat="41.808753" lon="22.979936">
        <ele>1129.6</ele>
        <time>2026-05-06T15:02:50.000Z</time>
      </trkpt>
      <trkpt lat="41.808767" lon="22.97994">
        <ele>1129.6</ele>
        <time>2026-05-06T15:02:51.000Z</time>
      </trkpt>
      <trkpt lat="41.808782" lon="22.979942">
        <ele>1129.6</ele>
        <time>2026-05-06T15:02:52.000Z</time>
      </trkpt>
      <trkpt lat="41.808797" lon="22.979945">
        <ele>1129.5</ele>
        <time>2026-05-06T15:02:53.000Z</time>
      </trkpt>
      <trkpt lat="41.808812" lon="22.979947">
        <ele>1129.5</ele>
        <time>2026-05-06T15:02:54.000Z</time>
      </trkpt>
      <trkpt lat="41.808825" lon="22.979949">
        <ele>1129.5</ele>
        <time>2026-05-06T15:02:55.000Z</time>
      </trkpt>
      <trkpt lat="41.808838" lon="22.979952">
        <ele>1129.5</ele>
        <time>2026-05-06T15:02:56.000Z</time>
      </trkpt>
      <trkpt lat="41.808851" lon="22.979956">
        <ele>1129.5</ele>
        <time>2026-05-06T15:02:57.000Z</time>
      </trkpt>
      <trkpt lat="41.808863" lon="22.97996">
        <ele>1129.5</ele>
        <time>2026-05-06T15:02:58.000Z</time>
      </trkpt>
      <trkpt lat="41.808875" lon="22.979964">
        <ele>1129.5</ele>
        <time>2026-05-06T15:02:59.000Z</time>
      </trkpt>
      <trkpt lat="41.808889" lon="22.979968">
        <ele>1129.5</ele>
        <time>2026-05-06T15:03:00.000Z</time>
      </trkpt>
      <trkpt lat="41.808902" lon="22.979971">
        <ele>1129.5</ele>
        <time>2026-05-06T15:03:01.000Z</time>
      </trkpt>
      <trkpt lat="41.808916" lon="22.979974">
        <ele>1129.5</ele>
        <time>2026-05-06T15:03:02.000Z</time>
      </trkpt>
      <trkpt lat="41.80893" lon="22.979976">
        <ele>1129.6</ele>
        <time>2026-05-06T15:03:03.000Z</time>
      </trkpt>
      <trkpt lat="41.808944" lon="22.979977">
        <ele>1129.6</ele>
        <time>2026-05-06T15:03:04.000Z</time>
      </trkpt>
      <trkpt lat="41.808958" lon="22.979978">
        <ele>1129.6</ele>
        <time>2026-05-06T15:03:05.000Z</time>
      </trkpt>
      <trkpt lat="41.808971" lon="22.979977">
        <ele>1129.6</ele>
        <time>2026-05-06T15:03:06.000Z</time>
      </trkpt>
      <trkpt lat="41.808984" lon="22.979974">
        <ele>1129.6</ele>
        <time>2026-05-06T15:03:07.000Z</time>
      </trkpt>
      <trkpt lat="41.808996" lon="22.979972">
        <ele>1129.8</ele>
        <time>2026-05-06T15:03:08.000Z</time>
      </trkpt>
      <trkpt lat="41.809009" lon="22.979968">
        <ele>1129.8</ele>
        <time>2026-05-06T15:03:09.000Z</time>
      </trkpt>
      <trkpt lat="41.809022" lon="22.979964">
        <ele>1129.8</ele>
        <time>2026-05-06T15:03:10.000Z</time>
      </trkpt>
      <trkpt lat="41.809037" lon="22.97996">
        <ele>1129.8</ele>
        <time>2026-05-06T15:03:11.000Z</time>
      </trkpt>
      <trkpt lat="41.809052" lon="22.979958">
        <ele>1129.8</ele>
        <time>2026-05-06T15:03:12.000Z</time>
      </trkpt>
      <trkpt lat="41.809066" lon="22.979956">
        <ele>1130</ele>
        <time>2026-05-06T15:03:13.000Z</time>
      </trkpt>
      <trkpt lat="41.80908" lon="22.979953">
        <ele>1130</ele>
        <time>2026-05-06T15:03:14.000Z</time>
      </trkpt>
      <trkpt lat="41.809095" lon="22.979949">
        <ele>1130</ele>
        <time>2026-05-06T15:03:15.000Z</time>
      </trkpt>
      <trkpt lat="41.809108" lon="22.979944">
        <ele>1130</ele>
        <time>2026-05-06T15:03:16.000Z</time>
      </trkpt>
      <trkpt lat="41.809122" lon="22.979938">
        <ele>1130</ele>
        <time>2026-05-06T15:03:17.000Z</time>
      </trkpt>
      <trkpt lat="41.809136" lon="22.979932">
        <ele>1130.4</ele>
        <time>2026-05-06T15:03:18.000Z</time>
      </trkpt>
      <trkpt lat="41.80915" lon="22.979927">
        <ele>1130.4</ele>
        <time>2026-05-06T15:03:19.000Z</time>
      </trkpt>
      <trkpt lat="41.809163" lon="22.979923">
        <ele>1130.4</ele>
        <time>2026-05-06T15:03:20.000Z</time>
      </trkpt>
      <trkpt lat="41.809176" lon="22.979918">
        <ele>1130.4</ele>
        <time>2026-05-06T15:03:21.000Z</time>
      </trkpt>
      <trkpt lat="41.809189" lon="22.979914">
        <ele>1130.4</ele>
        <time>2026-05-06T15:03:22.000Z</time>
      </trkpt>
      <trkpt lat="41.809202" lon="22.979909">
        <ele>1130.9</ele>
        <time>2026-05-06T15:03:23.000Z</time>
      </trkpt>
      <trkpt lat="41.809215" lon="22.979905">
        <ele>1130.9</ele>
        <time>2026-05-06T15:03:24.000Z</time>
      </trkpt>
      <trkpt lat="41.809228" lon="22.979902">
        <ele>1130.9</ele>
        <time>2026-05-06T15:03:25.000Z</time>
      </trkpt>
      <trkpt lat="41.80924" lon="22.979898">
        <ele>1130.9</ele>
        <time>2026-05-06T15:03:26.000Z</time>
      </trkpt>
      <trkpt lat="41.809253" lon="22.979895">
        <ele>1130.9</ele>
        <time>2026-05-06T15:03:27.000Z</time>
      </trkpt>
      <trkpt lat="41.809265" lon="22.97989">
        <ele>1131.2</ele>
        <time>2026-05-06T15:03:28.000Z</time>
      </trkpt>
      <trkpt lat="41.809277" lon="22.979886">
        <ele>1131.2</ele>
        <time>2026-05-06T15:03:29.000Z</time>
      </trkpt>
      <trkpt lat="41.809289" lon="22.979881">
        <ele>1131.2</ele>
        <time>2026-05-06T15:03:30.000Z</time>
      </trkpt>
      <trkpt lat="41.809301" lon="22.979876">
        <ele>1131.2</ele>
        <time>2026-05-06T15:03:31.000Z</time>
      </trkpt>
      <trkpt lat="41.809312" lon="22.97987">
        <ele>1131.2</ele>
        <time>2026-05-06T15:03:32.000Z</time>
      </trkpt>
      <trkpt lat="41.809323" lon="22.979865">
        <ele>1131.7</ele>
        <time>2026-05-06T15:03:33.000Z</time>
      </trkpt>
      <trkpt lat="41.809334" lon="22.979858">
        <ele>1131.7</ele>
        <time>2026-05-06T15:03:34.000Z</time>
      </trkpt>
      <trkpt lat="41.809345" lon="22.979853">
        <ele>1131.7</ele>
        <time>2026-05-06T15:03:35.000Z</time>
      </trkpt>
      <trkpt lat="41.809355" lon="22.979849">
        <ele>1131.7</ele>
        <time>2026-05-06T15:03:36.000Z</time>
      </trkpt>
      <trkpt lat="41.809366" lon="22.979843">
        <ele>1131.7</ele>
        <time>2026-05-06T15:03:37.000Z</time>
      </trkpt>
      <trkpt lat="41.809376" lon="22.979835">
        <ele>1132.2</ele>
        <time>2026-05-06T15:03:38.000Z</time>
      </trkpt>
      <trkpt lat="41.809387" lon="22.979827">
        <ele>1132.2</ele>
        <time>2026-05-06T15:03:39.000Z</time>
      </trkpt>
      <trkpt lat="41.809399" lon="22.979818">
        <ele>1132.2</ele>
        <time>2026-05-06T15:03:40.000Z</time>
      </trkpt>
      <trkpt lat="41.809413" lon="22.97981">
        <ele>1132.2</ele>
        <time>2026-05-06T15:03:41.000Z</time>
      </trkpt>
      <trkpt lat="41.809427" lon="22.979803">
        <ele>1132.2</ele>
        <time>2026-05-06T15:03:42.000Z</time>
      </trkpt>
      <trkpt lat="41.80944" lon="22.979796">
        <ele>1132.5</ele>
        <time>2026-05-06T15:03:43.000Z</time>
      </trkpt>
      <trkpt lat="41.809452" lon="22.979788">
        <ele>1132.5</ele>
        <time>2026-05-06T15:03:44.000Z</time>
      </trkpt>
      <trkpt lat="41.809463" lon="22.979781">
        <ele>1132.5</ele>
        <time>2026-05-06T15:03:45.000Z</time>
      </trkpt>
      <trkpt lat="41.809473" lon="22.979772">
        <ele>1132.5</ele>
        <time>2026-05-06T15:03:46.000Z</time>
      </trkpt>
      <trkpt lat="41.809484" lon="22.979763">
        <ele>1132.5</ele>
        <time>2026-05-06T15:03:47.000Z</time>
      </trkpt>
      <trkpt lat="41.809495" lon="22.979754">
        <ele>1133</ele>
        <time>2026-05-06T15:03:48.000Z</time>
      </trkpt>
      <trkpt lat="41.809506" lon="22.979744">
        <ele>1133</ele>
        <time>2026-05-06T15:03:49.000Z</time>
      </trkpt>
      <trkpt lat="41.809518" lon="22.979735">
        <ele>1133</ele>
        <time>2026-05-06T15:03:50.000Z</time>
      </trkpt>
      <trkpt lat="41.809529" lon="22.979725">
        <ele>1133</ele>
        <time>2026-05-06T15:03:51.000Z</time>
      </trkpt>
      <trkpt lat="41.809539" lon="22.979715">
        <ele>1133</ele>
        <time>2026-05-06T15:03:52.000Z</time>
      </trkpt>
      <trkpt lat="41.809549" lon="22.979705">
        <ele>1133.4</ele>
        <time>2026-05-06T15:03:53.000Z</time>
      </trkpt>
      <trkpt lat="41.809558" lon="22.979696">
        <ele>1133.4</ele>
        <time>2026-05-06T15:03:54.000Z</time>
      </trkpt>
      <trkpt lat="41.809568" lon="22.979685">
        <ele>1133.4</ele>
        <time>2026-05-06T15:03:55.000Z</time>
      </trkpt>
      <trkpt lat="41.809579" lon="22.979673">
        <ele>1133.4</ele>
        <time>2026-05-06T15:03:56.000Z</time>
      </trkpt>
      <trkpt lat="41.809591" lon="22.979661">
        <ele>1133.4</ele>
        <time>2026-05-06T15:03:57.000Z</time>
      </trkpt>
      <trkpt lat="41.809603" lon="22.97965">
        <ele>1133.7</ele>
        <time>2026-05-06T15:03:58.000Z</time>
      </trkpt>
      <trkpt lat="41.809614" lon="22.979641">
        <ele>1133.7</ele>
        <time>2026-05-06T15:03:59.000Z</time>
      </trkpt>
      <trkpt lat="41.809625" lon="22.979631">
        <ele>1133.7</ele>
        <time>2026-05-06T15:04:00.000Z</time>
      </trkpt>
      <trkpt lat="41.809636" lon="22.979622">
        <ele>1133.7</ele>
        <time>2026-05-06T15:04:01.000Z</time>
      </trkpt>
      <trkpt lat="41.809647" lon="22.979613">
        <ele>1133.7</ele>
        <time>2026-05-06T15:04:02.000Z</time>
      </trkpt>
      <trkpt lat="41.809657" lon="22.979604">
        <ele>1134.4</ele>
        <time>2026-05-06T15:04:03.000Z</time>
      </trkpt>
      <trkpt lat="41.809669" lon="22.979596">
        <ele>1134.4</ele>
        <time>2026-05-06T15:04:04.000Z</time>
      </trkpt>
      <trkpt lat="41.809681" lon="22.979589">
        <ele>1134.4</ele>
        <time>2026-05-06T15:04:05.000Z</time>
      </trkpt>
      <trkpt lat="41.809692" lon="22.979581">
        <ele>1134.4</ele>
        <time>2026-05-06T15:04:06.000Z</time>
      </trkpt>
      <trkpt lat="41.809702" lon="22.979574">
        <ele>1134.4</ele>
        <time>2026-05-06T15:04:07.000Z</time>
      </trkpt>
      <trkpt lat="41.809711" lon="22.979566">
        <ele>1135.2</ele>
        <time>2026-05-06T15:04:08.000Z</time>
      </trkpt>
      <trkpt lat="41.809721" lon="22.979557">
        <ele>1135.2</ele>
        <time>2026-05-06T15:04:09.000Z</time>
      </trkpt>
      <trkpt lat="41.809731" lon="22.979549">
        <ele>1135.2</ele>
        <time>2026-05-06T15:04:10.000Z</time>
      </trkpt>
      <trkpt lat="41.809743" lon="22.979543">
        <ele>1135.2</ele>
        <time>2026-05-06T15:04:11.000Z</time>
      </trkpt>
      <trkpt lat="41.809755" lon="22.979535">
        <ele>1135.2</ele>
        <time>2026-05-06T15:04:12.000Z</time>
      </trkpt>
      <trkpt lat="41.809767" lon="22.979527">
        <ele>1135.6</ele>
        <time>2026-05-06T15:04:13.000Z</time>
      </trkpt>
      <trkpt lat="41.809779" lon="22.979521">
        <ele>1135.6</ele>
        <time>2026-05-06T15:04:14.000Z</time>
      </trkpt>
      <trkpt lat="41.809789" lon="22.979512">
        <ele>1135.6</ele>
        <time>2026-05-06T15:04:15.000Z</time>
      </trkpt>
      <trkpt lat="41.809799" lon="22.979504">
        <ele>1135.6</ele>
        <time>2026-05-06T15:04:16.000Z</time>
      </trkpt>
      <trkpt lat="41.809809" lon="22.979495">
        <ele>1135.6</ele>
        <time>2026-05-06T15:04:17.000Z</time>
      </trkpt>
      <trkpt lat="41.809819" lon="22.979487">
        <ele>1136.3</ele>
        <time>2026-05-06T15:04:18.000Z</time>
      </trkpt>
      <trkpt lat="41.809829" lon="22.979479">
        <ele>1136.3</ele>
        <time>2026-05-06T15:04:19.000Z</time>
      </trkpt>
      <trkpt lat="41.809839" lon="22.979471">
        <ele>1136.3</ele>
        <time>2026-05-06T15:04:20.000Z</time>
      </trkpt>
      <trkpt lat="41.80985" lon="22.979464">
        <ele>1136.3</ele>
        <time>2026-05-06T15:04:21.000Z</time>
      </trkpt>
      <trkpt lat="41.80986" lon="22.979456">
        <ele>1136.3</ele>
        <time>2026-05-06T15:04:22.000Z</time>
      </trkpt>
      <trkpt lat="41.809871" lon="22.979447">
        <ele>1137.2</ele>
        <time>2026-05-06T15:04:23.000Z</time>
      </trkpt>
      <trkpt lat="41.809882" lon="22.979438">
        <ele>1137.2</ele>
        <time>2026-05-06T15:04:24.000Z</time>
      </trkpt>
      <trkpt lat="41.809894" lon="22.979428">
        <ele>1137.2</ele>
        <time>2026-05-06T15:04:25.000Z</time>
      </trkpt>
      <trkpt lat="41.809905" lon="22.979419">
        <ele>1137.2</ele>
        <time>2026-05-06T15:04:26.000Z</time>
      </trkpt>
      <trkpt lat="41.809916" lon="22.979413">
        <ele>1137.2</ele>
        <time>2026-05-06T15:04:27.000Z</time>
      </trkpt>
      <trkpt lat="41.809927" lon="22.979406">
        <ele>1137.5</ele>
        <time>2026-05-06T15:04:28.000Z</time>
      </trkpt>
      <trkpt lat="41.809938" lon="22.9794">
        <ele>1137.5</ele>
        <time>2026-05-06T15:04:29.000Z</time>
      </trkpt>
      <trkpt lat="41.80995" lon="22.979394">
        <ele>1137.5</ele>
        <time>2026-05-06T15:04:30.000Z</time>
      </trkpt>
      <trkpt lat="41.809962" lon="22.979386">
        <ele>1137.5</ele>
        <time>2026-05-06T15:04:31.000Z</time>
      </trkpt>
      <trkpt lat="41.809975" lon="22.979377">
        <ele>1137.5</ele>
        <time>2026-05-06T15:04:32.000Z</time>
      </trkpt>
      <trkpt lat="41.809988" lon="22.979369">
        <ele>1138.3</ele>
        <time>2026-05-06T15:04:33.000Z</time>
      </trkpt>
      <trkpt lat="41.809999" lon="22.97936">
        <ele>1138.3</ele>
        <time>2026-05-06T15:04:34.000Z</time>
      </trkpt>
      <trkpt lat="41.810009" lon="22.979349">
        <ele>1138.3</ele>
        <time>2026-05-06T15:04:35.000Z</time>
      </trkpt>
      <trkpt lat="41.810019" lon="22.979338">
        <ele>1138.3</ele>
        <time>2026-05-06T15:04:36.000Z</time>
      </trkpt>
      <trkpt lat="41.810028" lon="22.979325">
        <ele>1138.3</ele>
        <time>2026-05-06T15:04:37.000Z</time>
      </trkpt>
      <trkpt lat="41.810038" lon="22.979312">
        <ele>1139</ele>
        <time>2026-05-06T15:04:38.000Z</time>
      </trkpt>
      <trkpt lat="41.810048" lon="22.9793">
        <ele>1139</ele>
        <time>2026-05-06T15:04:39.000Z</time>
      </trkpt>
      <trkpt lat="41.810058" lon="22.979288">
        <ele>1139</ele>
        <time>2026-05-06T15:04:40.000Z</time>
      </trkpt>
      <trkpt lat="41.810068" lon="22.979278">
        <ele>1139</ele>
        <time>2026-05-06T15:04:41.000Z</time>
      </trkpt>
      <trkpt lat="41.810078" lon="22.979268">
        <ele>1139</ele>
        <time>2026-05-06T15:04:42.000Z</time>
      </trkpt>
      <trkpt lat="41.810088" lon="22.979259">
        <ele>1139.4</ele>
        <time>2026-05-06T15:04:43.000Z</time>
      </trkpt>
      <trkpt lat="41.810099" lon="22.97925">
        <ele>1139.4</ele>
        <time>2026-05-06T15:04:44.000Z</time>
      </trkpt>
      <trkpt lat="41.81011" lon="22.979242">
        <ele>1139.4</ele>
        <time>2026-05-06T15:04:45.000Z</time>
      </trkpt>
      <trkpt lat="41.81012" lon="22.979233">
        <ele>1139.4</ele>
        <time>2026-05-06T15:04:46.000Z</time>
      </trkpt>
      <trkpt lat="41.81013" lon="22.979225">
        <ele>1139.4</ele>
        <time>2026-05-06T15:04:47.000Z</time>
      </trkpt>
      <trkpt lat="41.810139" lon="22.979217">
        <ele>1140.2</ele>
        <time>2026-05-06T15:04:48.000Z</time>
      </trkpt>
      <trkpt lat="41.810149" lon="22.979208">
        <ele>1140.2</ele>
        <time>2026-05-06T15:04:49.000Z</time>
      </trkpt>
      <trkpt lat="41.810159" lon="22.979198">
        <ele>1140.2</ele>
        <time>2026-05-06T15:04:50.000Z</time>
      </trkpt>
      <trkpt lat="41.81017" lon="22.979188">
        <ele>1140.2</ele>
        <time>2026-05-06T15:04:51.000Z</time>
      </trkpt>
      <trkpt lat="41.810182" lon="22.979178">
        <ele>1140.2</ele>
        <time>2026-05-06T15:04:52.000Z</time>
      </trkpt>
      <trkpt lat="41.810193" lon="22.979168">
        <ele>1141</ele>
        <time>2026-05-06T15:04:53.000Z</time>
      </trkpt>
      <trkpt lat="41.810203" lon="22.979159">
        <ele>1141</ele>
        <time>2026-05-06T15:04:54.000Z</time>
      </trkpt>
      <trkpt lat="41.810214" lon="22.97915">
        <ele>1141</ele>
        <time>2026-05-06T15:04:55.000Z</time>
      </trkpt>
      <trkpt lat="41.810225" lon="22.979141">
        <ele>1141</ele>
        <time>2026-05-06T15:04:56.000Z</time>
      </trkpt>
      <trkpt lat="41.810236" lon="22.979131">
        <ele>1141</ele>
        <time>2026-05-06T15:04:57.000Z</time>
      </trkpt>
      <trkpt lat="41.810247" lon="22.979122">
        <ele>1141.5</ele>
        <time>2026-05-06T15:04:58.000Z</time>
      </trkpt>
      <trkpt lat="41.810258" lon="22.979113">
        <ele>1141.5</ele>
        <time>2026-05-06T15:04:59.000Z</time>
      </trkpt>
      <trkpt lat="41.81027" lon="22.979105">
        <ele>1141.5</ele>
        <time>2026-05-06T15:05:00.000Z</time>
      </trkpt>
      <trkpt lat="41.810281" lon="22.979098">
        <ele>1141.5</ele>
        <time>2026-05-06T15:05:01.000Z</time>
      </trkpt>
      <trkpt lat="41.810292" lon="22.979092">
        <ele>1141.5</ele>
        <time>2026-05-06T15:05:02.000Z</time>
      </trkpt>
      <trkpt lat="41.810304" lon="22.979086">
        <ele>1142.1</ele>
        <time>2026-05-06T15:05:03.000Z</time>
      </trkpt>
      <trkpt lat="41.810318" lon="22.979081">
        <ele>1142.1</ele>
        <time>2026-05-06T15:05:04.000Z</time>
      </trkpt>
      <trkpt lat="41.810332" lon="22.979077">
        <ele>1142.1</ele>
        <time>2026-05-06T15:05:05.000Z</time>
      </trkpt>
      <trkpt lat="41.810345" lon="22.979072">
        <ele>1142.1</ele>
        <time>2026-05-06T15:05:06.000Z</time>
      </trkpt>
      <trkpt lat="41.810357" lon="22.979067">
        <ele>1142.1</ele>
        <time>2026-05-06T15:05:07.000Z</time>
      </trkpt>
      <trkpt lat="41.810369" lon="22.979062">
        <ele>1142.6</ele>
        <time>2026-05-06T15:05:08.000Z</time>
      </trkpt>
      <trkpt lat="41.81038" lon="22.979057">
        <ele>1142.6</ele>
        <time>2026-05-06T15:05:09.000Z</time>
      </trkpt>
      <trkpt lat="41.810392" lon="22.979053">
        <ele>1142.6</ele>
        <time>2026-05-06T15:05:10.000Z</time>
      </trkpt>
      <trkpt lat="41.810404" lon="22.979049">
        <ele>1142.6</ele>
        <time>2026-05-06T15:05:11.000Z</time>
      </trkpt>
      <trkpt lat="41.810415" lon="22.979045">
        <ele>1142.6</ele>
        <time>2026-05-06T15:05:12.000Z</time>
      </trkpt>
      <trkpt lat="41.810425" lon="22.979043">
        <ele>1142.9</ele>
        <time>2026-05-06T15:05:13.000Z</time>
      </trkpt>
      <trkpt lat="41.810435" lon="22.979042">
        <ele>1142.9</ele>
        <time>2026-05-06T15:05:14.000Z</time>
      </trkpt>
      <trkpt lat="41.810444" lon="22.97904">
        <ele>1142.9</ele>
        <time>2026-05-06T15:05:15.000Z</time>
      </trkpt>
      <trkpt lat="41.810453" lon="22.979037">
        <ele>1142.9</ele>
        <time>2026-05-06T15:05:16.000Z</time>
      </trkpt>
      <trkpt lat="41.810462" lon="22.979033">
        <ele>1142.9</ele>
        <time>2026-05-06T15:05:17.000Z</time>
      </trkpt>
      <trkpt lat="41.810473" lon="22.979028">
        <ele>1143.6</ele>
        <time>2026-05-06T15:05:18.000Z</time>
      </trkpt>
      <trkpt lat="41.810485" lon="22.979022">
        <ele>1143.6</ele>
        <time>2026-05-06T15:05:19.000Z</time>
      </trkpt>
      <trkpt lat="41.810497" lon="22.979016">
        <ele>1143.6</ele>
        <time>2026-05-06T15:05:20.000Z</time>
      </trkpt>
      <trkpt lat="41.81051" lon="22.979011">
        <ele>1143.6</ele>
        <time>2026-05-06T15:05:21.000Z</time>
      </trkpt>
      <trkpt lat="41.810523" lon="22.979007">
        <ele>1143.6</ele>
        <time>2026-05-06T15:05:22.000Z</time>
      </trkpt>
      <trkpt lat="41.810536" lon="22.979004">
        <ele>1144.3</ele>
        <time>2026-05-06T15:05:23.000Z</time>
      </trkpt>
      <trkpt lat="41.810547" lon="22.979002">
        <ele>1144.3</ele>
        <time>2026-05-06T15:05:24.000Z</time>
      </trkpt>
      <trkpt lat="41.810559" lon="22.979001">
        <ele>1144.3</ele>
        <time>2026-05-06T15:05:25.000Z</time>
      </trkpt>
      <trkpt lat="41.810571" lon="22.979">
        <ele>1144.3</ele>
        <time>2026-05-06T15:05:26.000Z</time>
      </trkpt>
      <trkpt lat="41.810583" lon="22.978998">
        <ele>1144.3</ele>
        <time>2026-05-06T15:05:27.000Z</time>
      </trkpt>
      <trkpt lat="41.810595" lon="22.978996">
        <ele>1144.7</ele>
        <time>2026-05-06T15:05:28.000Z</time>
      </trkpt>
      <trkpt lat="41.810607" lon="22.978993">
        <ele>1144.7</ele>
        <time>2026-05-06T15:05:29.000Z</time>
      </trkpt>
      <trkpt lat="41.810618" lon="22.97899">
        <ele>1144.7</ele>
        <time>2026-05-06T15:05:30.000Z</time>
      </trkpt>
      <trkpt lat="41.81063" lon="22.978988">
        <ele>1144.7</ele>
        <time>2026-05-06T15:05:31.000Z</time>
      </trkpt>
      <trkpt lat="41.810642" lon="22.978985">
        <ele>1144.7</ele>
        <time>2026-05-06T15:05:32.000Z</time>
      </trkpt>
      <trkpt lat="41.810654" lon="22.978983">
        <ele>1145.4</ele>
        <time>2026-05-06T15:05:33.000Z</time>
      </trkpt>
      <trkpt lat="41.810668" lon="22.978981">
        <ele>1145.4</ele>
        <time>2026-05-06T15:05:34.000Z</time>
      </trkpt>
      <trkpt lat="41.810681" lon="22.97898">
        <ele>1145.4</ele>
        <time>2026-05-06T15:05:35.000Z</time>
      </trkpt>
      <trkpt lat="41.810693" lon="22.97898">
        <ele>1145.4</ele>
        <time>2026-05-06T15:05:36.000Z</time>
      </trkpt>
      <trkpt lat="41.810705" lon="22.97898">
        <ele>1145.4</ele>
        <time>2026-05-06T15:05:37.000Z</time>
      </trkpt>
      <trkpt lat="41.810718" lon="22.97898">
        <ele>1146.2</ele>
        <time>2026-05-06T15:05:38.000Z</time>
      </trkpt>
      <trkpt lat="41.810732" lon="22.978981">
        <ele>1146.2</ele>
        <time>2026-05-06T15:05:39.000Z</time>
      </trkpt>
      <trkpt lat="41.810745" lon="22.978979">
        <ele>1146.2</ele>
        <time>2026-05-06T15:05:40.000Z</time>
      </trkpt>
      <trkpt lat="41.810759" lon="22.978976">
        <ele>1146.2</ele>
        <time>2026-05-06T15:05:41.000Z</time>
      </trkpt>
      <trkpt lat="41.810773" lon="22.978972">
        <ele>1146.2</ele>
        <time>2026-05-06T15:05:42.000Z</time>
      </trkpt>
      <trkpt lat="41.810785" lon="22.978969">
        <ele>1146.5</ele>
        <time>2026-05-06T15:05:43.000Z</time>
      </trkpt>
      <trkpt lat="41.810797" lon="22.978966">
        <ele>1146.5</ele>
        <time>2026-05-06T15:05:44.000Z</time>
      </trkpt>
      <trkpt lat="41.810809" lon="22.978963">
        <ele>1146.5</ele>
        <time>2026-05-06T15:05:45.000Z</time>
      </trkpt>
      <trkpt lat="41.810821" lon="22.978961">
        <ele>1146.5</ele>
        <time>2026-05-06T15:05:46.000Z</time>
      </trkpt>
      <trkpt lat="41.810834" lon="22.978958">
        <ele>1146.5</ele>
        <time>2026-05-06T15:05:47.000Z</time>
      </trkpt>
      <trkpt lat="41.810847" lon="22.978954">
        <ele>1147.1</ele>
        <time>2026-05-06T15:05:48.000Z</time>
      </trkpt>
      <trkpt lat="41.81086" lon="22.97895">
        <ele>1147.1</ele>
        <time>2026-05-06T15:05:49.000Z</time>
      </trkpt>
      <trkpt lat="41.810871" lon="22.978946">
        <ele>1147.1</ele>
        <time>2026-05-06T15:05:50.000Z</time>
      </trkpt>
      <trkpt lat="41.810883" lon="22.978942">
        <ele>1147.1</ele>
        <time>2026-05-06T15:05:51.000Z</time>
      </trkpt>
      <trkpt lat="41.810895" lon="22.978938">
        <ele>1147.1</ele>
        <time>2026-05-06T15:05:52.000Z</time>
      </trkpt>
      <trkpt lat="41.810907" lon="22.978933">
        <ele>1147.6</ele>
        <time>2026-05-06T15:05:53.000Z</time>
      </trkpt>
      <trkpt lat="41.810919" lon="22.978927">
        <ele>1147.6</ele>
        <time>2026-05-06T15:05:54.000Z</time>
      </trkpt>
      <trkpt lat="41.81093" lon="22.97892">
        <ele>1147.6</ele>
        <time>2026-05-06T15:05:55.000Z</time>
      </trkpt>
      <trkpt lat="41.810941" lon="22.978913">
        <ele>1147.6</ele>
        <time>2026-05-06T15:05:56.000Z</time>
      </trkpt>
      <trkpt lat="41.810952" lon="22.978903">
        <ele>1147.6</ele>
        <time>2026-05-06T15:05:57.000Z</time>
      </trkpt>
      <trkpt lat="41.810963" lon="22.978892">
        <ele>1147.9</ele>
        <time>2026-05-06T15:05:58.000Z</time>
      </trkpt>
      <trkpt lat="41.810974" lon="22.978881">
        <ele>1147.9</ele>
        <time>2026-05-06T15:05:59.000Z</time>
      </trkpt>
      <trkpt lat="41.810985" lon="22.97887">
        <ele>1147.9</ele>
        <time>2026-05-06T15:06:00.000Z</time>
      </trkpt>
      <trkpt lat="41.810996" lon="22.978859">
        <ele>1147.9</ele>
        <time>2026-05-06T15:06:01.000Z</time>
      </trkpt>
      <trkpt lat="41.811007" lon="22.97885">
        <ele>1147.9</ele>
        <time>2026-05-06T15:06:02.000Z</time>
      </trkpt>
      <trkpt lat="41.811016" lon="22.978839">
        <ele>1148.5</ele>
        <time>2026-05-06T15:06:03.000Z</time>
      </trkpt>
      <trkpt lat="41.811026" lon="22.978828">
        <ele>1148.5</ele>
        <time>2026-05-06T15:06:04.000Z</time>
      </trkpt>
      <trkpt lat="41.811035" lon="22.978816">
        <ele>1148.5</ele>
        <time>2026-05-06T15:06:05.000Z</time>
      </trkpt>
      <trkpt lat="41.811044" lon="22.978804">
        <ele>1148.5</ele>
        <time>2026-05-06T15:06:06.000Z</time>
      </trkpt>
      <trkpt lat="41.811054" lon="22.978791">
        <ele>1148.5</ele>
        <time>2026-05-06T15:06:07.000Z</time>
      </trkpt>
      <trkpt lat="41.811063" lon="22.978779">
        <ele>1149.3</ele>
        <time>2026-05-06T15:06:08.000Z</time>
      </trkpt>
      <trkpt lat="41.811072" lon="22.978768">
        <ele>1149.3</ele>
        <time>2026-05-06T15:06:09.000Z</time>
      </trkpt>
      <trkpt lat="41.81108" lon="22.978758">
        <ele>1149.3</ele>
        <time>2026-05-06T15:06:10.000Z</time>
      </trkpt>
      <trkpt lat="41.811089" lon="22.978746">
        <ele>1149.3</ele>
        <time>2026-05-06T15:06:11.000Z</time>
      </trkpt>
      <trkpt lat="41.811099" lon="22.978735">
        <ele>1149.3</ele>
        <time>2026-05-06T15:06:12.000Z</time>
      </trkpt>
      <trkpt lat="41.811108" lon="22.978724">
        <ele>1149.7</ele>
        <time>2026-05-06T15:06:13.000Z</time>
      </trkpt>
      <trkpt lat="41.811117" lon="22.978714">
        <ele>1149.7</ele>
        <time>2026-05-06T15:06:14.000Z</time>
      </trkpt>
      <trkpt lat="41.811127" lon="22.978703">
        <ele>1149.7</ele>
        <time>2026-05-06T15:06:15.000Z</time>
      </trkpt>
      <trkpt lat="41.811136" lon="22.978694">
        <ele>1149.7</ele>
        <time>2026-05-06T15:06:16.000Z</time>
      </trkpt>
      <trkpt lat="41.811147" lon="22.978684">
        <ele>1149.7</ele>
        <time>2026-05-06T15:06:17.000Z</time>
      </trkpt>
      <trkpt lat="41.811158" lon="22.978674">
        <ele>1150.4</ele>
        <time>2026-05-06T15:06:18.000Z</time>
      </trkpt>
      <trkpt lat="41.811169" lon="22.978664">
        <ele>1150.4</ele>
        <time>2026-05-06T15:06:19.000Z</time>
      </trkpt>
      <trkpt lat="41.81118" lon="22.978655">
        <ele>1150.4</ele>
        <time>2026-05-06T15:06:20.000Z</time>
      </trkpt>
      <trkpt lat="41.811191" lon="22.978645">
        <ele>1150.4</ele>
        <time>2026-05-06T15:06:21.000Z</time>
      </trkpt>
      <trkpt lat="41.811201" lon="22.978637">
        <ele>1150.4</ele>
        <time>2026-05-06T15:06:22.000Z</time>
      </trkpt>
      <trkpt lat="41.811213" lon="22.97863">
        <ele>1151</ele>
        <time>2026-05-06T15:06:23.000Z</time>
      </trkpt>
      <trkpt lat="41.811224" lon="22.978622">
        <ele>1151</ele>
        <time>2026-05-06T15:06:24.000Z</time>
      </trkpt>
      <trkpt lat="41.811237" lon="22.978615">
        <ele>1151</ele>
        <time>2026-05-06T15:06:25.000Z</time>
      </trkpt>
      <trkpt lat="41.81125" lon="22.978608">
        <ele>1151</ele>
        <time>2026-05-06T15:06:26.000Z</time>
      </trkpt>
      <trkpt lat="41.811262" lon="22.978601">
        <ele>1151</ele>
        <time>2026-05-06T15:06:27.000Z</time>
      </trkpt>
      <trkpt lat="41.811274" lon="22.978594">
        <ele>1151.3</ele>
        <time>2026-05-06T15:06:28.000Z</time>
      </trkpt>
      <trkpt lat="41.811284" lon="22.978585">
        <ele>1151.3</ele>
        <time>2026-05-06T15:06:29.000Z</time>
      </trkpt>
      <trkpt lat="41.811295" lon="22.978577">
        <ele>1151.3</ele>
        <time>2026-05-06T15:06:30.000Z</time>
      </trkpt>
      <trkpt lat="41.811305" lon="22.978568">
        <ele>1151.3</ele>
        <time>2026-05-06T15:06:31.000Z</time>
      </trkpt>
      <trkpt lat="41.811315" lon="22.978559">
        <ele>1151.3</ele>
        <time>2026-05-06T15:06:32.000Z</time>
      </trkpt>
      <trkpt lat="41.811327" lon="22.978548">
        <ele>1151.9</ele>
        <time>2026-05-06T15:06:33.000Z</time>
      </trkpt>
      <trkpt lat="41.811339" lon="22.978539">
        <ele>1151.9</ele>
        <time>2026-05-06T15:06:34.000Z</time>
      </trkpt>
      <trkpt lat="41.811352" lon="22.978531">
        <ele>1151.9</ele>
        <time>2026-05-06T15:06:35.000Z</time>
      </trkpt>
      <trkpt lat="41.811364" lon="22.978522">
        <ele>1151.9</ele>
        <time>2026-05-06T15:06:36.000Z</time>
      </trkpt>
      <trkpt lat="41.811375" lon="22.978515">
        <ele>1151.9</ele>
        <time>2026-05-06T15:06:37.000Z</time>
      </trkpt>
      <trkpt lat="41.811387" lon="22.978507">
        <ele>1152.4</ele>
        <time>2026-05-06T15:06:38.000Z</time>
      </trkpt>
      <trkpt lat="41.811398" lon="22.9785">
        <ele>1152.4</ele>
        <time>2026-05-06T15:06:39.000Z</time>
      </trkpt>
      <trkpt lat="41.811409" lon="22.978493">
        <ele>1152.4</ele>
        <time>2026-05-06T15:06:40.000Z</time>
      </trkpt>
      <trkpt lat="41.811421" lon="22.978487">
        <ele>1152.4</ele>
        <time>2026-05-06T15:06:41.000Z</time>
      </trkpt>
      <trkpt lat="41.811434" lon="22.978481">
        <ele>1152.4</ele>
        <time>2026-05-06T15:06:42.000Z</time>
      </trkpt>
      <trkpt lat="41.811447" lon="22.978476">
        <ele>1152.6</ele>
        <time>2026-05-06T15:06:43.000Z</time>
      </trkpt>
      <trkpt lat="41.81146" lon="22.978471">
        <ele>1152.6</ele>
        <time>2026-05-06T15:06:44.000Z</time>
      </trkpt>
      <trkpt lat="41.811472" lon="22.978466">
        <ele>1152.6</ele>
        <time>2026-05-06T15:06:45.000Z</time>
      </trkpt>
      <trkpt lat="41.811485" lon="22.978461">
        <ele>1152.6</ele>
        <time>2026-05-06T15:06:46.000Z</time>
      </trkpt>
      <trkpt lat="41.811496" lon="22.978457">
        <ele>1152.6</ele>
        <time>2026-05-06T15:06:47.000Z</time>
      </trkpt>
      <trkpt lat="41.81151" lon="22.978453">
        <ele>1152.9</ele>
        <time>2026-05-06T15:06:48.000Z</time>
      </trkpt>
      <trkpt lat="41.811523" lon="22.978449">
        <ele>1152.9</ele>
        <time>2026-05-06T15:06:49.000Z</time>
      </trkpt>
      <trkpt lat="41.811536" lon="22.978443">
        <ele>1152.9</ele>
        <time>2026-05-06T15:06:50.000Z</time>
      </trkpt>
      <trkpt lat="41.811549" lon="22.978437">
        <ele>1152.9</ele>
        <time>2026-05-06T15:06:51.000Z</time>
      </trkpt>
      <trkpt lat="41.811562" lon="22.978431">
        <ele>1152.9</ele>
        <time>2026-05-06T15:06:52.000Z</time>
      </trkpt>
      <trkpt lat="41.811575" lon="22.978425">
        <ele>1153.1</ele>
        <time>2026-05-06T15:06:53.000Z</time>
      </trkpt>
      <trkpt lat="41.811589" lon="22.978419">
        <ele>1153.1</ele>
        <time>2026-05-06T15:06:54.000Z</time>
      </trkpt>
      <trkpt lat="41.811605" lon="22.978417">
        <ele>1153.1</ele>
        <time>2026-05-06T15:06:55.000Z</time>
      </trkpt>
      <trkpt lat="41.811621" lon="22.978415">
        <ele>1153.1</ele>
        <time>2026-05-06T15:06:56.000Z</time>
      </trkpt>
      <trkpt lat="41.811636" lon="22.978413">
        <ele>1153.1</ele>
        <time>2026-05-06T15:06:57.000Z</time>
      </trkpt>
      <trkpt lat="41.811651" lon="22.978411">
        <ele>1153.3</ele>
        <time>2026-05-06T15:06:58.000Z</time>
      </trkpt>
      <trkpt lat="41.811666" lon="22.97841">
        <ele>1153.3</ele>
        <time>2026-05-06T15:06:59.000Z</time>
      </trkpt>
      <trkpt lat="41.81168" lon="22.978407">
        <ele>1153.3</ele>
        <time>2026-05-06T15:07:00.000Z</time>
      </trkpt>
      <trkpt lat="41.811695" lon="22.978406">
        <ele>1153.3</ele>
        <time>2026-05-06T15:07:01.000Z</time>
      </trkpt>
      <trkpt lat="41.81171" lon="22.978406">
        <ele>1153.3</ele>
        <time>2026-05-06T15:07:02.000Z</time>
      </trkpt>
      <trkpt lat="41.811723" lon="22.978406">
        <ele>1153.8</ele>
        <time>2026-05-06T15:07:03.000Z</time>
      </trkpt>
      <trkpt lat="41.811736" lon="22.978407">
        <ele>1153.8</ele>
        <time>2026-05-06T15:07:04.000Z</time>
      </trkpt>
      <trkpt lat="41.811748" lon="22.978408">
        <ele>1153.8</ele>
        <time>2026-05-06T15:07:05.000Z</time>
      </trkpt>
      <trkpt lat="41.81176" lon="22.978408">
        <ele>1153.8</ele>
        <time>2026-05-06T15:07:06.000Z</time>
      </trkpt>
      <trkpt lat="41.811772" lon="22.978408">
        <ele>1153.8</ele>
        <time>2026-05-06T15:07:07.000Z</time>
      </trkpt>
      <trkpt lat="41.811784" lon="22.978409">
        <ele>1154.4</ele>
        <time>2026-05-06T15:07:08.000Z</time>
      </trkpt>
      <trkpt lat="41.811795" lon="22.978411">
        <ele>1154.4</ele>
        <time>2026-05-06T15:07:09.000Z</time>
      </trkpt>
      <trkpt lat="41.811806" lon="22.978413">
        <ele>1154.4</ele>
        <time>2026-05-06T15:07:10.000Z</time>
      </trkpt>
      <trkpt lat="41.811816" lon="22.978414">
        <ele>1154.4</ele>
        <time>2026-05-06T15:07:11.000Z</time>
      </trkpt>
      <trkpt lat="41.811828" lon="22.978414">
        <ele>1154.4</ele>
        <time>2026-05-06T15:07:12.000Z</time>
      </trkpt>
      <trkpt lat="41.811841" lon="22.978413">
        <ele>1154.6</ele>
        <time>2026-05-06T15:07:13.000Z</time>
      </trkpt>
      <trkpt lat="41.811855" lon="22.97841">
        <ele>1154.6</ele>
        <time>2026-05-06T15:07:14.000Z</time>
      </trkpt>
      <trkpt lat="41.81187" lon="22.978408">
        <ele>1154.6</ele>
        <time>2026-05-06T15:07:15.000Z</time>
      </trkpt>
      <trkpt lat="41.811885" lon="22.978406">
        <ele>1154.6</ele>
        <time>2026-05-06T15:07:16.000Z</time>
      </trkpt>
      <trkpt lat="41.811899" lon="22.978405">
        <ele>1154.6</ele>
        <time>2026-05-06T15:07:17.000Z</time>
      </trkpt>
      <trkpt lat="41.811911" lon="22.978405">
        <ele>1154.7</ele>
        <time>2026-05-06T15:07:18.000Z</time>
      </trkpt>
      <trkpt lat="41.811921" lon="22.978405">
        <ele>1154.7</ele>
        <time>2026-05-06T15:07:19.000Z</time>
      </trkpt>
      <trkpt lat="41.811928" lon="22.978407">
        <ele>1154.7</ele>
        <time>2026-05-06T15:07:20.000Z</time>
      </trkpt>
      <trkpt lat="41.811933" lon="22.97841">
        <ele>1154.7</ele>
        <time>2026-05-06T15:07:21.000Z</time>
      </trkpt>
      <trkpt lat="41.811936" lon="22.978415">
        <ele>1154.7</ele>
        <time>2026-05-06T15:07:22.000Z</time>
      </trkpt>
      <trkpt lat="41.811938" lon="22.978419">
        <ele>1154.8</ele>
        <time>2026-05-06T15:07:23.000Z</time>
      </trkpt>
      <trkpt lat="41.811941" lon="22.978422">
        <ele>1154.8</ele>
        <time>2026-05-06T15:07:24.000Z</time>
      </trkpt>
      <trkpt lat="41.811943" lon="22.978424">
        <ele>1154.8</ele>
        <time>2026-05-06T15:07:25.000Z</time>
      </trkpt>
      <trkpt lat="41.811947" lon="22.978424">
        <ele>1154.8</ele>
        <time>2026-05-06T15:07:26.000Z</time>
      </trkpt>
      <trkpt lat="41.811951" lon="22.978421">
        <ele>1154.8</ele>
        <time>2026-05-06T15:07:27.000Z</time>
      </trkpt>
      <trkpt lat="41.811953" lon="22.978418">
        <ele>1154.8</ele>
        <time>2026-05-06T15:07:28.000Z</time>
      </trkpt>
      <trkpt lat="41.811956" lon="22.978416">
        <ele>1154.8</ele>
        <time>2026-05-06T15:07:29.000Z</time>
      </trkpt>
      <trkpt lat="41.811958" lon="22.978414">
        <ele>1154.8</ele>
        <time>2026-05-06T15:07:30.000Z</time>
      </trkpt>
      <trkpt lat="41.811959" lon="22.978413">
        <ele>1154.8</ele>
        <time>2026-05-06T15:07:31.000Z</time>
      </trkpt>
      <trkpt lat="41.811959" lon="22.978413">
        <ele>1154.8</ele>
        <time>2026-05-06T15:07:32.000Z</time>
      </trkpt>
      <trkpt lat="41.811959" lon="22.978412">
        <ele>1155</ele>
        <time>2026-05-06T15:07:33.000Z</time>
      </trkpt>
      <trkpt lat="41.811959" lon="22.978412">
        <ele>1155</ele>
        <time>2026-05-06T15:07:34.000Z</time>
      </trkpt>
      <trkpt lat="41.811958" lon="22.978412">
        <ele>1155</ele>
        <time>2026-05-06T15:07:35.000Z</time>
      </trkpt>
      <trkpt lat="41.811957" lon="22.978412">
        <ele>1155</ele>
        <time>2026-05-06T15:07:36.000Z</time>
      </trkpt>
      <trkpt lat="41.811956" lon="22.978412">
        <ele>1155</ele>
        <time>2026-05-06T15:07:37.000Z</time>
      </trkpt>
      <trkpt lat="41.811955" lon="22.978412">
        <ele>1155.1</ele>
        <time>2026-05-06T15:07:38.000Z</time>
      </trkpt>
      <trkpt lat="41.811955" lon="22.978412">
        <ele>1155.1</ele>
        <time>2026-05-06T15:07:39.000Z</time>
      </trkpt>
      <trkpt lat="41.811955" lon="22.978412">
        <ele>1155.1</ele>
        <time>2026-05-06T15:07:40.000Z</time>
      </trkpt>
      <trkpt lat="41.811955" lon="22.978412">
        <ele>1155.1</ele>
        <time>2026-05-06T15:07:41.000Z</time>
      </trkpt>
      <trkpt lat="41.811955" lon="22.978412">
        <ele>1155.1</ele>
        <time>2026-05-06T15:07:42.000Z</time>
      </trkpt>
      <trkpt lat="41.811955" lon="22.978412">
        <ele>1155.1</ele>
        <time>2026-05-06T15:07:43.000Z</time>
      </trkpt>
      <trkpt lat="41.811955" lon="22.978412">
        <ele>1155.1</ele>
        <time>2026-05-06T15:07:44.000Z</time>
      </trkpt>
      <trkpt lat="41.811955" lon="22.978412">
        <ele>1155.1</ele>
        <time>2026-05-06T15:07:45.000Z</time>
      </trkpt>
      <trkpt lat="41.811955" lon="22.978412">
        <ele>1155.1</ele>
        <time>2026-05-06T15:07:46.000Z</time>
      </trkpt>
      <trkpt lat="41.811955" lon="22.97841">
        <ele>1155.1</ele>
        <time>2026-05-06T15:07:47.000Z</time>
      </trkpt>
      <trkpt lat="41.811955" lon="22.978407">
        <ele>1155.1</ele>
        <time>2026-05-06T15:07:48.000Z</time>
      </trkpt>
      <trkpt lat="41.811956" lon="22.978403">
        <ele>1155.1</ele>
        <time>2026-05-06T15:07:49.000Z</time>
      </trkpt>
      <trkpt lat="41.811956" lon="22.9784">
        <ele>1155.1</ele>
        <time>2026-05-06T15:07:50.000Z</time>
      </trkpt>
      <trkpt lat="41.811956" lon="22.978396">
        <ele>1155.1</ele>
        <time>2026-05-06T15:07:51.000Z</time>
      </trkpt>
      <trkpt lat="41.811958" lon="22.978394">
        <ele>1155.1</ele>
        <time>2026-05-06T15:07:52.000Z</time>
      </trkpt>
      <trkpt lat="41.811961" lon="22.978394">
        <ele>1155.1</ele>
        <time>2026-05-06T15:07:53.000Z</time>
      </trkpt>
      <trkpt lat="41.811965" lon="22.978395">
        <ele>1155.1</ele>
        <time>2026-05-06T15:07:54.000Z</time>
      </trkpt>
      <trkpt lat="41.811971" lon="22.978396">
        <ele>1155.1</ele>
        <time>2026-05-06T15:07:55.000Z</time>
      </trkpt>
      <trkpt lat="41.81198" lon="22.978398">
        <ele>1155.1</ele>
        <time>2026-05-06T15:07:56.000Z</time>
      </trkpt>
      <trkpt lat="41.81199" lon="22.9784">
        <ele>1155.1</ele>
        <time>2026-05-06T15:07:57.000Z</time>
      </trkpt>
      <trkpt lat="41.812002" lon="22.978402">
        <ele>1155.1</ele>
        <time>2026-05-06T15:07:58.000Z</time>
      </trkpt>
      <trkpt lat="41.812014" lon="22.978404">
        <ele>1155.1</ele>
        <time>2026-05-06T15:07:59.000Z</time>
      </trkpt>
      <trkpt lat="41.812027" lon="22.978405">
        <ele>1155.1</ele>
        <time>2026-05-06T15:08:00.000Z</time>
      </trkpt>
      <trkpt lat="41.812039" lon="22.978406">
        <ele>1155.1</ele>
        <time>2026-05-06T15:08:01.000Z</time>
      </trkpt>
      <trkpt lat="41.812051" lon="22.978406">
        <ele>1155.1</ele>
        <time>2026-05-06T15:08:02.000Z</time>
      </trkpt>
      <trkpt lat="41.812063" lon="22.978404">
        <ele>1155.1</ele>
        <time>2026-05-06T15:08:03.000Z</time>
      </trkpt>
      <trkpt lat="41.812075" lon="22.978401">
        <ele>1155.1</ele>
        <time>2026-05-06T15:08:04.000Z</time>
      </trkpt>
      <trkpt lat="41.812088" lon="22.978396">
        <ele>1155.1</ele>
        <time>2026-05-06T15:08:05.000Z</time>
      </trkpt>
      <trkpt lat="41.8121" lon="22.978392">
        <ele>1155.1</ele>
        <time>2026-05-06T15:08:06.000Z</time>
      </trkpt>
      <trkpt lat="41.812112" lon="22.978387">
        <ele>1155.1</ele>
        <time>2026-05-06T15:08:07.000Z</time>
      </trkpt>
      <trkpt lat="41.812123" lon="22.978383">
        <ele>1155.2</ele>
        <time>2026-05-06T15:08:08.000Z</time>
      </trkpt>
      <trkpt lat="41.812134" lon="22.97838">
        <ele>1155.2</ele>
        <time>2026-05-06T15:08:09.000Z</time>
      </trkpt>
      <trkpt lat="41.812145" lon="22.978378">
        <ele>1155.2</ele>
        <time>2026-05-06T15:08:10.000Z</time>
      </trkpt>
      <trkpt lat="41.812157" lon="22.978374">
        <ele>1155.2</ele>
        <time>2026-05-06T15:08:11.000Z</time>
      </trkpt>
      <trkpt lat="41.81217" lon="22.97837">
        <ele>1155.2</ele>
        <time>2026-05-06T15:08:12.000Z</time>
      </trkpt>
      <trkpt lat="41.812183" lon="22.978365">
        <ele>1155.3</ele>
        <time>2026-05-06T15:08:13.000Z</time>
      </trkpt>
      <trkpt lat="41.812196" lon="22.97836">
        <ele>1155.3</ele>
        <time>2026-05-06T15:08:14.000Z</time>
      </trkpt>
      <trkpt lat="41.812209" lon="22.978355">
        <ele>1155.3</ele>
        <time>2026-05-06T15:08:15.000Z</time>
      </trkpt>
      <trkpt lat="41.812221" lon="22.97835">
        <ele>1155.3</ele>
        <time>2026-05-06T15:08:16.000Z</time>
      </trkpt>
      <trkpt lat="41.812233" lon="22.978347">
        <ele>1155.3</ele>
        <time>2026-05-06T15:08:17.000Z</time>
      </trkpt>
      <trkpt lat="41.812244" lon="22.978343">
        <ele>1155.9</ele>
        <time>2026-05-06T15:08:18.000Z</time>
      </trkpt>
      <trkpt lat="41.812256" lon="22.978339">
        <ele>1155.9</ele>
        <time>2026-05-06T15:08:19.000Z</time>
      </trkpt>
      <trkpt lat="41.812267" lon="22.978335">
        <ele>1155.9</ele>
        <time>2026-05-06T15:08:20.000Z</time>
      </trkpt>
      <trkpt lat="41.812278" lon="22.978331">
        <ele>1155.9</ele>
        <time>2026-05-06T15:08:21.000Z</time>
      </trkpt>
      <trkpt lat="41.812289" lon="22.978325">
        <ele>1155.9</ele>
        <time>2026-05-06T15:08:22.000Z</time>
      </trkpt>
      <trkpt lat="41.812299" lon="22.978318">
        <ele>1156.7</ele>
        <time>2026-05-06T15:08:23.000Z</time>
      </trkpt>
      <trkpt lat="41.812309" lon="22.978309">
        <ele>1156.7</ele>
        <time>2026-05-06T15:08:24.000Z</time>
      </trkpt>
      <trkpt lat="41.81232" lon="22.978301">
        <ele>1156.7</ele>
        <time>2026-05-06T15:08:25.000Z</time>
      </trkpt>
      <trkpt lat="41.812331" lon="22.978293">
        <ele>1156.7</ele>
        <time>2026-05-06T15:08:26.000Z</time>
      </trkpt>
      <trkpt lat="41.812343" lon="22.978285">
        <ele>1156.7</ele>
        <time>2026-05-06T15:08:27.000Z</time>
      </trkpt>
      <trkpt lat="41.812356" lon="22.97828">
        <ele>1157.1</ele>
        <time>2026-05-06T15:08:28.000Z</time>
      </trkpt>
      <trkpt lat="41.812368" lon="22.978275">
        <ele>1157.1</ele>
        <time>2026-05-06T15:08:29.000Z</time>
      </trkpt>
      <trkpt lat="41.812379" lon="22.978271">
        <ele>1157.1</ele>
        <time>2026-05-06T15:08:30.000Z</time>
      </trkpt>
      <trkpt lat="41.81239" lon="22.978267">
        <ele>1157.1</ele>
        <time>2026-05-06T15:08:31.000Z</time>
      </trkpt>
      <trkpt lat="41.812402" lon="22.978262">
        <ele>1157.1</ele>
        <time>2026-05-06T15:08:32.000Z</time>
      </trkpt>
      <trkpt lat="41.812414" lon="22.978258">
        <ele>1157.9</ele>
        <time>2026-05-06T15:08:33.000Z</time>
      </trkpt>
      <trkpt lat="41.812427" lon="22.978253">
        <ele>1157.9</ele>
        <time>2026-05-06T15:08:34.000Z</time>
      </trkpt>
      <trkpt lat="41.81244" lon="22.978248">
        <ele>1157.9</ele>
        <time>2026-05-06T15:08:35.000Z</time>
      </trkpt>
      <trkpt lat="41.812454" lon="22.978243">
        <ele>1157.9</ele>
        <time>2026-05-06T15:08:36.000Z</time>
      </trkpt>
      <trkpt lat="41.812466" lon="22.978237">
        <ele>1157.9</ele>
        <time>2026-05-06T15:08:37.000Z</time>
      </trkpt>
      <trkpt lat="41.812478" lon="22.97823">
        <ele>1158.9</ele>
        <time>2026-05-06T15:08:38.000Z</time>
      </trkpt>
      <trkpt lat="41.812491" lon="22.978223">
        <ele>1158.9</ele>
        <time>2026-05-06T15:08:39.000Z</time>
      </trkpt>
      <trkpt lat="41.812504" lon="22.978216">
        <ele>1158.9</ele>
        <time>2026-05-06T15:08:40.000Z</time>
      </trkpt>
      <trkpt lat="41.812517" lon="22.978209">
        <ele>1158.9</ele>
        <time>2026-05-06T15:08:41.000Z</time>
      </trkpt>
      <trkpt lat="41.81253" lon="22.978201">
        <ele>1158.9</ele>
        <time>2026-05-06T15:08:42.000Z</time>
      </trkpt>
      <trkpt lat="41.812541" lon="22.978195">
        <ele>1159.4</ele>
        <time>2026-05-06T15:08:43.000Z</time>
      </trkpt>
      <trkpt lat="41.812552" lon="22.978188">
        <ele>1159.4</ele>
        <time>2026-05-06T15:08:44.000Z</time>
      </trkpt>
      <trkpt lat="41.812563" lon="22.978182">
        <ele>1159.4</ele>
        <time>2026-05-06T15:08:45.000Z</time>
      </trkpt>
      <trkpt lat="41.812574" lon="22.978177">
        <ele>1159.4</ele>
        <time>2026-05-06T15:08:46.000Z</time>
      </trkpt>
      <trkpt lat="41.812586" lon="22.978172">
        <ele>1159.4</ele>
        <time>2026-05-06T15:08:47.000Z</time>
      </trkpt>
      <trkpt lat="41.8126" lon="22.978167">
        <ele>1160.3</ele>
        <time>2026-05-06T15:08:48.000Z</time>
      </trkpt>
      <trkpt lat="41.812614" lon="22.978163">
        <ele>1160.3</ele>
        <time>2026-05-06T15:08:49.000Z</time>
      </trkpt>
      <trkpt lat="41.812627" lon="22.978158">
        <ele>1160.3</ele>
        <time>2026-05-06T15:08:50.000Z</time>
      </trkpt>
      <trkpt lat="41.812639" lon="22.978152">
        <ele>1160.3</ele>
        <time>2026-05-06T15:08:51.000Z</time>
      </trkpt>
      <trkpt lat="41.812651" lon="22.978147">
        <ele>1160.3</ele>
        <time>2026-05-06T15:08:52.000Z</time>
      </trkpt>
      <trkpt lat="41.812663" lon="22.978141">
        <ele>1160.8</ele>
        <time>2026-05-06T15:08:53.000Z</time>
      </trkpt>
      <trkpt lat="41.812675" lon="22.978136">
        <ele>1160.8</ele>
        <time>2026-05-06T15:08:54.000Z</time>
      </trkpt>
      <trkpt lat="41.812688" lon="22.978132">
        <ele>1160.8</ele>
        <time>2026-05-06T15:08:55.000Z</time>
      </trkpt>
      <trkpt lat="41.8127" lon="22.978128">
        <ele>1160.8</ele>
        <time>2026-05-06T15:08:56.000Z</time>
      </trkpt>
      <trkpt lat="41.812713" lon="22.978125">
        <ele>1160.8</ele>
        <time>2026-05-06T15:08:57.000Z</time>
      </trkpt>
      <trkpt lat="41.812725" lon="22.978121">
        <ele>1161</ele>
        <time>2026-05-06T15:08:58.000Z</time>
      </trkpt>
      <trkpt lat="41.812737" lon="22.978118">
        <ele>1161</ele>
        <time>2026-05-06T15:08:59.000Z</time>
      </trkpt>
      <trkpt lat="41.812748" lon="22.978115">
        <ele>1161</ele>
        <time>2026-05-06T15:09:00.000Z</time>
      </trkpt>
      <trkpt lat="41.812761" lon="22.978112">
        <ele>1161</ele>
        <time>2026-05-06T15:09:01.000Z</time>
      </trkpt>
      <trkpt lat="41.812774" lon="22.978111">
        <ele>1161</ele>
        <time>2026-05-06T15:09:02.000Z</time>
      </trkpt>
      <trkpt lat="41.812787" lon="22.97811">
        <ele>1161.3</ele>
        <time>2026-05-06T15:09:03.000Z</time>
      </trkpt>
      <trkpt lat="41.8128" lon="22.978108">
        <ele>1161.3</ele>
        <time>2026-05-06T15:09:04.000Z</time>
      </trkpt>
      <trkpt lat="41.812813" lon="22.978107">
        <ele>1161.3</ele>
        <time>2026-05-06T15:09:05.000Z</time>
      </trkpt>
      <trkpt lat="41.812825" lon="22.978108">
        <ele>1161.3</ele>
        <time>2026-05-06T15:09:06.000Z</time>
      </trkpt>
      <trkpt lat="41.812838" lon="22.978108">
        <ele>1161.3</ele>
        <time>2026-05-06T15:09:07.000Z</time>
      </trkpt>
      <trkpt lat="41.812851" lon="22.978109">
        <ele>1161.6</ele>
        <time>2026-05-06T15:09:08.000Z</time>
      </trkpt>
      <trkpt lat="41.812865" lon="22.978111">
        <ele>1161.6</ele>
        <time>2026-05-06T15:09:09.000Z</time>
      </trkpt>
      <trkpt lat="41.812878" lon="22.978112">
        <ele>1161.6</ele>
        <time>2026-05-06T15:09:10.000Z</time>
      </trkpt>
      <trkpt lat="41.812892" lon="22.978112">
        <ele>1161.6</ele>
        <time>2026-05-06T15:09:11.000Z</time>
      </trkpt>
      <trkpt lat="41.812905" lon="22.978113">
        <ele>1161.6</ele>
        <time>2026-05-06T15:09:12.000Z</time>
      </trkpt>
      <trkpt lat="41.812918" lon="22.978114">
        <ele>1161.8</ele>
        <time>2026-05-06T15:09:13.000Z</time>
      </trkpt>
      <trkpt lat="41.812931" lon="22.978115">
        <ele>1161.8</ele>
        <time>2026-05-06T15:09:14.000Z</time>
      </trkpt>
      <trkpt lat="41.812945" lon="22.978118">
        <ele>1161.8</ele>
        <time>2026-05-06T15:09:15.000Z</time>
      </trkpt>
      <trkpt lat="41.812959" lon="22.978121">
        <ele>1161.8</ele>
        <time>2026-05-06T15:09:16.000Z</time>
      </trkpt>
      <trkpt lat="41.812973" lon="22.978123">
        <ele>1161.8</ele>
        <time>2026-05-06T15:09:17.000Z</time>
      </trkpt>
      <trkpt lat="41.812986" lon="22.978124">
        <ele>1162.3</ele>
        <time>2026-05-06T15:09:18.000Z</time>
      </trkpt>
      <trkpt lat="41.812998" lon="22.978125">
        <ele>1162.3</ele>
        <time>2026-05-06T15:09:19.000Z</time>
      </trkpt>
      <trkpt lat="41.81301" lon="22.978126">
        <ele>1162.3</ele>
        <time>2026-05-06T15:09:20.000Z</time>
      </trkpt>
      <trkpt lat="41.813022" lon="22.978129">
        <ele>1162.3</ele>
        <time>2026-05-06T15:09:21.000Z</time>
      </trkpt>
      <trkpt lat="41.813034" lon="22.978133">
        <ele>1162.3</ele>
        <time>2026-05-06T15:09:22.000Z</time>
      </trkpt>
      <trkpt lat="41.813045" lon="22.978138">
        <ele>1162.8</ele>
        <time>2026-05-06T15:09:23.000Z</time>
      </trkpt>
      <trkpt lat="41.813053" lon="22.978142">
        <ele>1162.8</ele>
        <time>2026-05-06T15:09:24.000Z</time>
      </trkpt>
      <trkpt lat="41.813059" lon="22.978146">
        <ele>1162.8</ele>
        <time>2026-05-06T15:09:25.000Z</time>
      </trkpt>
      <trkpt lat="41.813062" lon="22.978146">
        <ele>1162.8</ele>
        <time>2026-05-06T15:09:26.000Z</time>
      </trkpt>
      <trkpt lat="41.813065" lon="22.978145">
        <ele>1162.8</ele>
        <time>2026-05-06T15:09:27.000Z</time>
      </trkpt>
      <trkpt lat="41.81307" lon="22.978143">
        <ele>1163.1</ele>
        <time>2026-05-06T15:09:28.000Z</time>
      </trkpt>
      <trkpt lat="41.813077" lon="22.97814">
        <ele>1163.1</ele>
        <time>2026-05-06T15:09:29.000Z</time>
      </trkpt>
      <trkpt lat="41.813086" lon="22.978138">
        <ele>1163.1</ele>
        <time>2026-05-06T15:09:30.000Z</time>
      </trkpt>
      <trkpt lat="41.813097" lon="22.978137">
        <ele>1163.1</ele>
        <time>2026-05-06T15:09:31.000Z</time>
      </trkpt>
      <trkpt lat="41.813109" lon="22.978137">
        <ele>1163.1</ele>
        <time>2026-05-06T15:09:32.000Z</time>
      </trkpt>
      <trkpt lat="41.813121" lon="22.978135">
        <ele>1163.6</ele>
        <time>2026-05-06T15:09:33.000Z</time>
      </trkpt>
      <trkpt lat="41.813134" lon="22.978133">
        <ele>1163.6</ele>
        <time>2026-05-06T15:09:34.000Z</time>
      </trkpt>
      <trkpt lat="41.813146" lon="22.978131">
        <ele>1163.6</ele>
        <time>2026-05-06T15:09:35.000Z</time>
      </trkpt>
      <trkpt lat="41.813158" lon="22.978128">
        <ele>1163.6</ele>
        <time>2026-05-06T15:09:36.000Z</time>
      </trkpt>
      <trkpt lat="41.813169" lon="22.978125">
        <ele>1163.6</ele>
        <time>2026-05-06T15:09:37.000Z</time>
      </trkpt>
      <trkpt lat="41.813181" lon="22.978122">
        <ele>1164</ele>
        <time>2026-05-06T15:09:38.000Z</time>
      </trkpt>
      <trkpt lat="41.813192" lon="22.97812">
        <ele>1164</ele>
        <time>2026-05-06T15:09:39.000Z</time>
      </trkpt>
      <trkpt lat="41.813204" lon="22.978117">
        <ele>1164</ele>
        <time>2026-05-06T15:09:40.000Z</time>
      </trkpt>
      <trkpt lat="41.813215" lon="22.978114">
        <ele>1164</ele>
        <time>2026-05-06T15:09:41.000Z</time>
      </trkpt>
      <trkpt lat="41.813226" lon="22.978111">
        <ele>1164</ele>
        <time>2026-05-06T15:09:42.000Z</time>
      </trkpt>
      <trkpt lat="41.813237" lon="22.978107">
        <ele>1164.1</ele>
        <time>2026-05-06T15:09:43.000Z</time>
      </trkpt>
      <trkpt lat="41.813249" lon="22.978104">
        <ele>1164.1</ele>
        <time>2026-05-06T15:09:44.000Z</time>
      </trkpt>
      <trkpt lat="41.81326" lon="22.978101">
        <ele>1164.1</ele>
        <time>2026-05-06T15:09:45.000Z</time>
      </trkpt>
      <trkpt lat="41.813272" lon="22.978097">
        <ele>1164.1</ele>
        <time>2026-05-06T15:09:46.000Z</time>
      </trkpt>
      <trkpt lat="41.813284" lon="22.978094">
        <ele>1164.1</ele>
        <time>2026-05-06T15:09:47.000Z</time>
      </trkpt>
      <trkpt lat="41.813295" lon="22.97809">
        <ele>1164.7</ele>
        <time>2026-05-06T15:09:48.000Z</time>
      </trkpt>
      <trkpt lat="41.813306" lon="22.978086">
        <ele>1164.7</ele>
        <time>2026-05-06T15:09:49.000Z</time>
      </trkpt>
      <trkpt lat="41.813317" lon="22.978082">
        <ele>1164.7</ele>
        <time>2026-05-06T15:09:50.000Z</time>
      </trkpt>
      <trkpt lat="41.813328" lon="22.978076">
        <ele>1164.7</ele>
        <time>2026-05-06T15:09:51.000Z</time>
      </trkpt>
      <trkpt lat="41.81334" lon="22.978071">
        <ele>1164.7</ele>
        <time>2026-05-06T15:09:52.000Z</time>
      </trkpt>
      <trkpt lat="41.813352" lon="22.978066">
        <ele>1165.5</ele>
        <time>2026-05-06T15:09:53.000Z</time>
      </trkpt>
      <trkpt lat="41.813365" lon="22.978062">
        <ele>1165.5</ele>
        <time>2026-05-06T15:09:54.000Z</time>
      </trkpt>
      <trkpt lat="41.813377" lon="22.978058">
        <ele>1165.5</ele>
        <time>2026-05-06T15:09:55.000Z</time>
      </trkpt>
      <trkpt lat="41.813389" lon="22.978055">
        <ele>1165.5</ele>
        <time>2026-05-06T15:09:56.000Z</time>
      </trkpt>
      <trkpt lat="41.813401" lon="22.978052">
        <ele>1165.5</ele>
        <time>2026-05-06T15:09:57.000Z</time>
      </trkpt>
      <trkpt lat="41.813413" lon="22.978047">
        <ele>1165.9</ele>
        <time>2026-05-06T15:09:58.000Z</time>
      </trkpt>
      <trkpt lat="41.813425" lon="22.978043">
        <ele>1165.9</ele>
        <time>2026-05-06T15:09:59.000Z</time>
      </trkpt>
      <trkpt lat="41.813438" lon="22.978038">
        <ele>1165.9</ele>
        <time>2026-05-06T15:10:00.000Z</time>
      </trkpt>
      <trkpt lat="41.813451" lon="22.978033">
        <ele>1165.9</ele>
        <time>2026-05-06T15:10:01.000Z</time>
      </trkpt>
      <trkpt lat="41.813464" lon="22.978029">
        <ele>1165.9</ele>
        <time>2026-05-06T15:10:02.000Z</time>
      </trkpt>
      <trkpt lat="41.813477" lon="22.978025">
        <ele>1166.7</ele>
        <time>2026-05-06T15:10:03.000Z</time>
      </trkpt>
      <trkpt lat="41.813489" lon="22.978022">
        <ele>1166.7</ele>
        <time>2026-05-06T15:10:04.000Z</time>
      </trkpt>
      <trkpt lat="41.813502" lon="22.978021">
        <ele>1166.7</ele>
        <time>2026-05-06T15:10:05.000Z</time>
      </trkpt>
      <trkpt lat="41.813515" lon="22.97802">
        <ele>1166.7</ele>
        <time>2026-05-06T15:10:06.000Z</time>
      </trkpt>
      <trkpt lat="41.813528" lon="22.97802">
        <ele>1166.7</ele>
        <time>2026-05-06T15:10:07.000Z</time>
      </trkpt>
      <trkpt lat="41.81354" lon="22.978019">
        <ele>1167.3</ele>
        <time>2026-05-06T15:10:08.000Z</time>
      </trkpt>
      <trkpt lat="41.813553" lon="22.978019">
        <ele>1167.3</ele>
        <time>2026-05-06T15:10:09.000Z</time>
      </trkpt>
      <trkpt lat="41.813565" lon="22.978019">
        <ele>1167.3</ele>
        <time>2026-05-06T15:10:10.000Z</time>
      </trkpt>
      <trkpt lat="41.813576" lon="22.978018">
        <ele>1167.3</ele>
        <time>2026-05-06T15:10:11.000Z</time>
      </trkpt>
      <trkpt lat="41.813588" lon="22.978016">
        <ele>1167.3</ele>
        <time>2026-05-06T15:10:12.000Z</time>
      </trkpt>
      <trkpt lat="41.8136" lon="22.978017">
        <ele>1167.5</ele>
        <time>2026-05-06T15:10:13.000Z</time>
      </trkpt>
      <trkpt lat="41.813613" lon="22.978018">
        <ele>1167.5</ele>
        <time>2026-05-06T15:10:14.000Z</time>
      </trkpt>
      <trkpt lat="41.813624" lon="22.978019">
        <ele>1167.5</ele>
        <time>2026-05-06T15:10:15.000Z</time>
      </trkpt>
      <trkpt lat="41.813636" lon="22.978019">
        <ele>1167.5</ele>
        <time>2026-05-06T15:10:16.000Z</time>
      </trkpt>
      <trkpt lat="41.813647" lon="22.978021">
        <ele>1167.5</ele>
        <time>2026-05-06T15:10:17.000Z</time>
      </trkpt>
      <trkpt lat="41.813658" lon="22.978021">
        <ele>1167.8</ele>
        <time>2026-05-06T15:10:18.000Z</time>
      </trkpt>
      <trkpt lat="41.81367" lon="22.978022">
        <ele>1167.8</ele>
        <time>2026-05-06T15:10:19.000Z</time>
      </trkpt>
      <trkpt lat="41.813683" lon="22.978023">
        <ele>1167.8</ele>
        <time>2026-05-06T15:10:20.000Z</time>
      </trkpt>
      <trkpt lat="41.813696" lon="22.978024">
        <ele>1167.8</ele>
        <time>2026-05-06T15:10:21.000Z</time>
      </trkpt>
      <trkpt lat="41.813709" lon="22.978023">
        <ele>1167.8</ele>
        <time>2026-05-06T15:10:22.000Z</time>
      </trkpt>
      <trkpt lat="41.813723" lon="22.978023">
        <ele>1168.3</ele>
        <time>2026-05-06T15:10:23.000Z</time>
      </trkpt>
      <trkpt lat="41.813736" lon="22.978024">
        <ele>1168.3</ele>
        <time>2026-05-06T15:10:24.000Z</time>
      </trkpt>
      <trkpt lat="41.813748" lon="22.978024">
        <ele>1168.3</ele>
        <time>2026-05-06T15:10:25.000Z</time>
      </trkpt>
      <trkpt lat="41.81376" lon="22.978026">
        <ele>1168.3</ele>
        <time>2026-05-06T15:10:26.000Z</time>
      </trkpt>
      <trkpt lat="41.813773" lon="22.97803">
        <ele>1168.3</ele>
        <time>2026-05-06T15:10:27.000Z</time>
      </trkpt>
      <trkpt lat="41.813786" lon="22.978034">
        <ele>1168.6</ele>
        <time>2026-05-06T15:10:28.000Z</time>
      </trkpt>
      <trkpt lat="41.8138" lon="22.978037">
        <ele>1168.6</ele>
        <time>2026-05-06T15:10:29.000Z</time>
      </trkpt>
      <trkpt lat="41.813813" lon="22.978041">
        <ele>1168.6</ele>
        <time>2026-05-06T15:10:30.000Z</time>
      </trkpt>
      <trkpt lat="41.813827" lon="22.978045">
        <ele>1168.6</ele>
        <time>2026-05-06T15:10:31.000Z</time>
      </trkpt>
      <trkpt lat="41.813841" lon="22.978048">
        <ele>1168.6</ele>
        <time>2026-05-06T15:10:32.000Z</time>
      </trkpt>
      <trkpt lat="41.813854" lon="22.978051">
        <ele>1169.2</ele>
        <time>2026-05-06T15:10:33.000Z</time>
      </trkpt>
      <trkpt lat="41.813867" lon="22.978054">
        <ele>1169.2</ele>
        <time>2026-05-06T15:10:34.000Z</time>
      </trkpt>
      <trkpt lat="41.813879" lon="22.978057">
        <ele>1169.2</ele>
        <time>2026-05-06T15:10:35.000Z</time>
      </trkpt>
      <trkpt lat="41.813892" lon="22.97806">
        <ele>1169.2</ele>
        <time>2026-05-06T15:10:36.000Z</time>
      </trkpt>
      <trkpt lat="41.813906" lon="22.978063">
        <ele>1169.2</ele>
        <time>2026-05-06T15:10:37.000Z</time>
      </trkpt>
      <trkpt lat="41.813919" lon="22.978066">
        <ele>1169.7</ele>
        <time>2026-05-06T15:10:38.000Z</time>
      </trkpt>
      <trkpt lat="41.813932" lon="22.978068">
        <ele>1169.7</ele>
        <time>2026-05-06T15:10:39.000Z</time>
      </trkpt>
      <trkpt lat="41.813945" lon="22.97807">
        <ele>1169.7</ele>
        <time>2026-05-06T15:10:40.000Z</time>
      </trkpt>
      <trkpt lat="41.813959" lon="22.978072">
        <ele>1169.7</ele>
        <time>2026-05-06T15:10:41.000Z</time>
      </trkpt>
      <trkpt lat="41.813972" lon="22.978073">
        <ele>1169.7</ele>
        <time>2026-05-06T15:10:42.000Z</time>
      </trkpt>
      <trkpt lat="41.813984" lon="22.978075">
        <ele>1169.8</ele>
        <time>2026-05-06T15:10:43.000Z</time>
      </trkpt>
      <trkpt lat="41.813998" lon="22.978076">
        <ele>1169.8</ele>
        <time>2026-05-06T15:10:44.000Z</time>
      </trkpt>
      <trkpt lat="41.814012" lon="22.978076">
        <ele>1169.8</ele>
        <time>2026-05-06T15:10:45.000Z</time>
      </trkpt>
      <trkpt lat="41.814026" lon="22.978075">
        <ele>1169.8</ele>
        <time>2026-05-06T15:10:46.000Z</time>
      </trkpt>
      <trkpt lat="41.81404" lon="22.978073">
        <ele>1169.8</ele>
        <time>2026-05-06T15:10:47.000Z</time>
      </trkpt>
      <trkpt lat="41.814055" lon="22.978072">
        <ele>1170</ele>
        <time>2026-05-06T15:10:48.000Z</time>
      </trkpt>
      <trkpt lat="41.81407" lon="22.97807">
        <ele>1170</ele>
        <time>2026-05-06T15:10:49.000Z</time>
      </trkpt>
      <trkpt lat="41.814084" lon="22.97807">
        <ele>1170</ele>
        <time>2026-05-06T15:10:50.000Z</time>
      </trkpt>
      <trkpt lat="41.814099" lon="22.97807">
        <ele>1170</ele>
        <time>2026-05-06T15:10:51.000Z</time>
      </trkpt>
      <trkpt lat="41.814114" lon="22.978071">
        <ele>1170</ele>
        <time>2026-05-06T15:10:52.000Z</time>
      </trkpt>
      <trkpt lat="41.814129" lon="22.978071">
        <ele>1170.4</ele>
        <time>2026-05-06T15:10:53.000Z</time>
      </trkpt>
      <trkpt lat="41.814142" lon="22.978071">
        <ele>1170.4</ele>
        <time>2026-05-06T15:10:54.000Z</time>
      </trkpt>
      <trkpt lat="41.814157" lon="22.978069">
        <ele>1170.4</ele>
        <time>2026-05-06T15:10:55.000Z</time>
      </trkpt>
      <trkpt lat="41.814172" lon="22.978068">
        <ele>1170.4</ele>
        <time>2026-05-06T15:10:56.000Z</time>
      </trkpt>
      <trkpt lat="41.814186" lon="22.978066">
        <ele>1170.4</ele>
        <time>2026-05-06T15:10:57.000Z</time>
      </trkpt>
      <trkpt lat="41.8142" lon="22.978063">
        <ele>1170.6</ele>
        <time>2026-05-06T15:10:58.000Z</time>
      </trkpt>
      <trkpt lat="41.814214" lon="22.97806">
        <ele>1170.6</ele>
        <time>2026-05-06T15:10:59.000Z</time>
      </trkpt>
      <trkpt lat="41.814227" lon="22.978057">
        <ele>1170.6</ele>
        <time>2026-05-06T15:11:00.000Z</time>
      </trkpt>
      <trkpt lat="41.81424" lon="22.978052">
        <ele>1170.6</ele>
        <time>2026-05-06T15:11:01.000Z</time>
      </trkpt>
      <trkpt lat="41.814254" lon="22.978048">
        <ele>1170.6</ele>
        <time>2026-05-06T15:11:02.000Z</time>
      </trkpt>
      <trkpt lat="41.814268" lon="22.978044">
        <ele>1171.2</ele>
        <time>2026-05-06T15:11:03.000Z</time>
      </trkpt>
      <trkpt lat="41.814282" lon="22.978039">
        <ele>1171.2</ele>
        <time>2026-05-06T15:11:04.000Z</time>
      </trkpt>
      <trkpt lat="41.814297" lon="22.978036">
        <ele>1171.2</ele>
        <time>2026-05-06T15:11:05.000Z</time>
      </trkpt>
      <trkpt lat="41.814312" lon="22.978032">
        <ele>1171.2</ele>
        <time>2026-05-06T15:11:06.000Z</time>
      </trkpt>
      <trkpt lat="41.814326" lon="22.978028">
        <ele>1171.2</ele>
        <time>2026-05-06T15:11:07.000Z</time>
      </trkpt>
      <trkpt lat="41.814339" lon="22.978025">
        <ele>1171.7</ele>
        <time>2026-05-06T15:11:08.000Z</time>
      </trkpt>
      <trkpt lat="41.814352" lon="22.97802">
        <ele>1171.7</ele>
        <time>2026-05-06T15:11:09.000Z</time>
      </trkpt>
      <trkpt lat="41.814365" lon="22.978016">
        <ele>1171.7</ele>
        <time>2026-05-06T15:11:10.000Z</time>
      </trkpt>
      <trkpt lat="41.814377" lon="22.97801">
        <ele>1171.7</ele>
        <time>2026-05-06T15:11:11.000Z</time>
      </trkpt>
      <trkpt lat="41.81439" lon="22.978004">
        <ele>1171.7</ele>
        <time>2026-05-06T15:11:12.000Z</time>
      </trkpt>
      <trkpt lat="41.814403" lon="22.977996">
        <ele>1171.9</ele>
        <time>2026-05-06T15:11:13.000Z</time>
      </trkpt>
      <trkpt lat="41.814417" lon="22.97799">
        <ele>1171.9</ele>
        <time>2026-05-06T15:11:14.000Z</time>
      </trkpt>
      <trkpt lat="41.814432" lon="22.977984">
        <ele>1171.9</ele>
        <time>2026-05-06T15:11:15.000Z</time>
      </trkpt>
      <trkpt lat="41.814447" lon="22.977979">
        <ele>1171.9</ele>
        <time>2026-05-06T15:11:16.000Z</time>
      </trkpt>
      <trkpt lat="41.814462" lon="22.977976">
        <ele>1171.9</ele>
        <time>2026-05-06T15:11:17.000Z</time>
      </trkpt>
      <trkpt lat="41.814477" lon="22.977974">
        <ele>1172</ele>
        <time>2026-05-06T15:11:18.000Z</time>
      </trkpt>
      <trkpt lat="41.814492" lon="22.977971">
        <ele>1172</ele>
        <time>2026-05-06T15:11:19.000Z</time>
      </trkpt>
      <trkpt lat="41.814507" lon="22.977969">
        <ele>1172</ele>
        <time>2026-05-06T15:11:20.000Z</time>
      </trkpt>
      <trkpt lat="41.814522" lon="22.977966">
        <ele>1172</ele>
        <time>2026-05-06T15:11:21.000Z</time>
      </trkpt>
      <trkpt lat="41.814537" lon="22.977963">
        <ele>1172</ele>
        <time>2026-05-06T15:11:22.000Z</time>
      </trkpt>
      <trkpt lat="41.814552" lon="22.977959">
        <ele>1172.2</ele>
        <time>2026-05-06T15:11:23.000Z</time>
      </trkpt>
      <trkpt lat="41.814566" lon="22.977955">
        <ele>1172.2</ele>
        <time>2026-05-06T15:11:24.000Z</time>
      </trkpt>
      <trkpt lat="41.814579" lon="22.977953">
        <ele>1172.2</ele>
        <time>2026-05-06T15:11:25.000Z</time>
      </trkpt>
      <trkpt lat="41.814591" lon="22.97795">
        <ele>1172.2</ele>
        <time>2026-05-06T15:11:26.000Z</time>
      </trkpt>
      <trkpt lat="41.814603" lon="22.977948">
        <ele>1172.2</ele>
        <time>2026-05-06T15:11:27.000Z</time>
      </trkpt>
      <trkpt lat="41.814615" lon="22.977947">
        <ele>1172.5</ele>
        <time>2026-05-06T15:11:28.000Z</time>
      </trkpt>
      <trkpt lat="41.814627" lon="22.977944">
        <ele>1172.5</ele>
        <time>2026-05-06T15:11:29.000Z</time>
      </trkpt>
      <trkpt lat="41.814638" lon="22.977943">
        <ele>1172.5</ele>
        <time>2026-05-06T15:11:30.000Z</time>
      </trkpt>
      <trkpt lat="41.814651" lon="22.977943">
        <ele>1172.5</ele>
        <time>2026-05-06T15:11:31.000Z</time>
      </trkpt>
      <trkpt lat="41.814663" lon="22.977944">
        <ele>1172.5</ele>
        <time>2026-05-06T15:11:32.000Z</time>
      </trkpt>
      <trkpt lat="41.814676" lon="22.977945">
        <ele>1173</ele>
        <time>2026-05-06T15:11:33.000Z</time>
      </trkpt>
      <trkpt lat="41.81469" lon="22.977947">
        <ele>1173</ele>
        <time>2026-05-06T15:11:34.000Z</time>
      </trkpt>
      <trkpt lat="41.814704" lon="22.97795">
        <ele>1173</ele>
        <time>2026-05-06T15:11:35.000Z</time>
      </trkpt>
      <trkpt lat="41.814717" lon="22.977952">
        <ele>1173</ele>
        <time>2026-05-06T15:11:36.000Z</time>
      </trkpt>
      <trkpt lat="41.814731" lon="22.977955">
        <ele>1173</ele>
        <time>2026-05-06T15:11:37.000Z</time>
      </trkpt>
      <trkpt lat="41.814744" lon="22.977957">
        <ele>1173.4</ele>
        <time>2026-05-06T15:11:38.000Z</time>
      </trkpt>
      <trkpt lat="41.814756" lon="22.977961">
        <ele>1173.4</ele>
        <time>2026-05-06T15:11:39.000Z</time>
      </trkpt>
      <trkpt lat="41.814769" lon="22.977964">
        <ele>1173.4</ele>
        <time>2026-05-06T15:11:40.000Z</time>
      </trkpt>
      <trkpt lat="41.814783" lon="22.977968">
        <ele>1173.4</ele>
        <time>2026-05-06T15:11:41.000Z</time>
      </trkpt>
      <trkpt lat="41.814797" lon="22.977973">
        <ele>1173.4</ele>
        <time>2026-05-06T15:11:42.000Z</time>
      </trkpt>
      <trkpt lat="41.814812" lon="22.977978">
        <ele>1173.5</ele>
        <time>2026-05-06T15:11:43.000Z</time>
      </trkpt>
      <trkpt lat="41.814826" lon="22.977985">
        <ele>1173.5</ele>
        <time>2026-05-06T15:11:44.000Z</time>
      </trkpt>
      <trkpt lat="41.814839" lon="22.977993">
        <ele>1173.5</ele>
        <time>2026-05-06T15:11:45.000Z</time>
      </trkpt>
      <trkpt lat="41.81485" lon="22.977999">
        <ele>1173.5</ele>
        <time>2026-05-06T15:11:46.000Z</time>
      </trkpt>
      <trkpt lat="41.814861" lon="22.978007">
        <ele>1173.5</ele>
        <time>2026-05-06T15:11:47.000Z</time>
      </trkpt>
      <trkpt lat="41.814872" lon="22.978015">
        <ele>1174</ele>
        <time>2026-05-06T15:11:48.000Z</time>
      </trkpt>
      <trkpt lat="41.814884" lon="22.978022">
        <ele>1174</ele>
        <time>2026-05-06T15:11:49.000Z</time>
      </trkpt>
      <trkpt lat="41.814894" lon="22.97803">
        <ele>1174</ele>
        <time>2026-05-06T15:11:50.000Z</time>
      </trkpt>
      <trkpt lat="41.814906" lon="22.97804">
        <ele>1174</ele>
        <time>2026-05-06T15:11:51.000Z</time>
      </trkpt>
      <trkpt lat="41.814917" lon="22.97805">
        <ele>1174</ele>
        <time>2026-05-06T15:11:52.000Z</time>
      </trkpt>
      <trkpt lat="41.814927" lon="22.97806">
        <ele>1174.6</ele>
        <time>2026-05-06T15:11:53.000Z</time>
      </trkpt>
      <trkpt lat="41.814935" lon="22.978069">
        <ele>1174.6</ele>
        <time>2026-05-06T15:11:54.000Z</time>
      </trkpt>
      <trkpt lat="41.814943" lon="22.978076">
        <ele>1174.6</ele>
        <time>2026-05-06T15:11:55.000Z</time>
      </trkpt>
      <trkpt lat="41.814949" lon="22.978081">
        <ele>1174.6</ele>
        <time>2026-05-06T15:11:56.000Z</time>
      </trkpt>
      <trkpt lat="41.814957" lon="22.978083">
        <ele>1174.6</ele>
        <time>2026-05-06T15:11:57.000Z</time>
      </trkpt>
      <trkpt lat="41.814964" lon="22.978084">
        <ele>1174.9</ele>
        <time>2026-05-06T15:11:58.000Z</time>
      </trkpt>
      <trkpt lat="41.81497" lon="22.978084">
        <ele>1174.9</ele>
        <time>2026-05-06T15:11:59.000Z</time>
      </trkpt>
      <trkpt lat="41.814975" lon="22.978084">
        <ele>1174.9</ele>
        <time>2026-05-06T15:12:00.000Z</time>
      </trkpt>
      <trkpt lat="41.814979" lon="22.978084">
        <ele>1174.9</ele>
        <time>2026-05-06T15:12:01.000Z</time>
      </trkpt>
      <trkpt lat="41.814981" lon="22.978083">
        <ele>1174.9</ele>
        <time>2026-05-06T15:12:02.000Z</time>
      </trkpt>
      <trkpt lat="41.814983" lon="22.978082">
        <ele>1175.3</ele>
        <time>2026-05-06T15:12:03.000Z</time>
      </trkpt>
      <trkpt lat="41.814984" lon="22.97808">
        <ele>1175.3</ele>
        <time>2026-05-06T15:12:04.000Z</time>
      </trkpt>
      <trkpt lat="41.814986" lon="22.978079">
        <ele>1175.3</ele>
        <time>2026-05-06T15:12:05.000Z</time>
      </trkpt>
      <trkpt lat="41.814987" lon="22.978079">
        <ele>1175.3</ele>
        <time>2026-05-06T15:12:06.000Z</time>
      </trkpt>
      <trkpt lat="41.814987" lon="22.978079">
        <ele>1175.3</ele>
        <time>2026-05-06T15:12:07.000Z</time>
      </trkpt>
      <trkpt lat="41.814987" lon="22.978079">
        <ele>1175.5</ele>
        <time>2026-05-06T15:12:08.000Z</time>
      </trkpt>
      <trkpt lat="41.814988" lon="22.978076">
        <ele>1175.5</ele>
        <time>2026-05-06T15:12:09.000Z</time>
      </trkpt>
      <trkpt lat="41.814989" lon="22.978073">
        <ele>1175.5</ele>
        <time>2026-05-06T15:12:10.000Z</time>
      </trkpt>
      <trkpt lat="41.814989" lon="22.978071">
        <ele>1175.5</ele>
        <time>2026-05-06T15:12:11.000Z</time>
      </trkpt>
      <trkpt lat="41.814991" lon="22.978068">
        <ele>1175.5</ele>
        <time>2026-05-06T15:12:12.000Z</time>
      </trkpt>
      <trkpt lat="41.814993" lon="22.978062">
        <ele>1175.5</ele>
        <time>2026-05-06T15:12:13.000Z</time>
      </trkpt>
      <trkpt lat="41.814994" lon="22.978058">
        <ele>1175.5</ele>
        <time>2026-05-06T15:12:14.000Z</time>
      </trkpt>
      <trkpt lat="41.814995" lon="22.978054">
        <ele>1175.5</ele>
        <time>2026-05-06T15:12:15.000Z</time>
      </trkpt>
      <trkpt lat="41.814997" lon="22.978049">
        <ele>1175.5</ele>
        <time>2026-05-06T15:12:16.000Z</time>
      </trkpt>
      <trkpt lat="41.814998" lon="22.978044">
        <ele>1175.5</ele>
        <time>2026-05-06T15:12:17.000Z</time>
      </trkpt>
      <trkpt lat="41.814997" lon="22.978043">
        <ele>1175.7</ele>
        <time>2026-05-06T15:12:18.000Z</time>
      </trkpt>
      <trkpt lat="41.814997" lon="22.978042">
        <ele>1175.7</ele>
        <time>2026-05-06T15:12:19.000Z</time>
      </trkpt>
      <trkpt lat="41.814998" lon="22.978041">
        <ele>1175.7</ele>
        <time>2026-05-06T15:12:20.000Z</time>
      </trkpt>
      <trkpt lat="41.814998" lon="22.978043">
        <ele>1175.7</ele>
        <time>2026-05-06T15:12:21.000Z</time>
      </trkpt>
      <trkpt lat="41.814999" lon="22.978044">
        <ele>1175.7</ele>
        <time>2026-05-06T15:12:22.000Z</time>
      </trkpt>
      <trkpt lat="41.814999" lon="22.978044">
        <ele>1175.9</ele>
        <time>2026-05-06T15:12:23.000Z</time>
      </trkpt>
      <trkpt lat="41.815" lon="22.978045">
        <ele>1175.9</ele>
        <time>2026-05-06T15:12:24.000Z</time>
      </trkpt>
      <trkpt lat="41.815001" lon="22.978044">
        <ele>1175.9</ele>
        <time>2026-05-06T15:12:25.000Z</time>
      </trkpt>
      <trkpt lat="41.815001" lon="22.978043">
        <ele>1175.9</ele>
        <time>2026-05-06T15:12:26.000Z</time>
      </trkpt>
      <trkpt lat="41.815001" lon="22.978044">
        <ele>1175.9</ele>
        <time>2026-05-06T15:12:27.000Z</time>
      </trkpt>
      <trkpt lat="41.815003" lon="22.978045">
        <ele>1175.9</ele>
        <time>2026-05-06T15:12:28.000Z</time>
      </trkpt>
      <trkpt lat="41.815005" lon="22.978047">
        <ele>1175.9</ele>
        <time>2026-05-06T15:12:29.000Z</time>
      </trkpt>
      <trkpt lat="41.815007" lon="22.978049">
        <ele>1175.9</ele>
        <time>2026-05-06T15:12:30.000Z</time>
      </trkpt>
      <trkpt lat="41.815008" lon="22.978052">
        <ele>1175.9</ele>
        <time>2026-05-06T15:12:31.000Z</time>
      </trkpt>
      <trkpt lat="41.815009" lon="22.978054">
        <ele>1175.9</ele>
        <time>2026-05-06T15:12:32.000Z</time>
      </trkpt>
      <trkpt lat="41.815009" lon="22.978055">
        <ele>1175.6</ele>
        <time>2026-05-06T15:12:33.000Z</time>
      </trkpt>
      <trkpt lat="41.815008" lon="22.978056">
        <ele>1175.6</ele>
        <time>2026-05-06T15:12:34.000Z</time>
      </trkpt>
      <trkpt lat="41.815007" lon="22.978058">
        <ele>1175.6</ele>
        <time>2026-05-06T15:12:35.000Z</time>
      </trkpt>
      <trkpt lat="41.815005" lon="22.978058">
        <ele>1175.6</ele>
        <time>2026-05-06T15:12:36.000Z</time>
      </trkpt>
      <trkpt lat="41.815002" lon="22.978058">
        <ele>1175.6</ele>
        <time>2026-05-06T15:12:37.000Z</time>
      </trkpt>
      <trkpt lat="41.814999" lon="22.978057">
        <ele>1175.7</ele>
        <time>2026-05-06T15:12:38.000Z</time>
      </trkpt>
      <trkpt lat="41.814997" lon="22.978056">
        <ele>1175.7</ele>
        <time>2026-05-06T15:12:39.000Z</time>
      </trkpt>
      <trkpt lat="41.814995" lon="22.978056">
        <ele>1175.7</ele>
        <time>2026-05-06T15:12:40.000Z</time>
      </trkpt>
      <trkpt lat="41.814993" lon="22.978054">
        <ele>1175.7</ele>
        <time>2026-05-06T15:12:41.000Z</time>
      </trkpt>
      <trkpt lat="41.814993" lon="22.978054">
        <ele>1175.7</ele>
        <time>2026-05-06T15:12:42.000Z</time>
      </trkpt>
      <trkpt lat="41.814992" lon="22.978053">
        <ele>1175.8</ele>
        <time>2026-05-06T15:12:43.000Z</time>
      </trkpt>
      <trkpt lat="41.814992" lon="22.978052">
        <ele>1175.8</ele>
        <time>2026-05-06T15:12:44.000Z</time>
      </trkpt>
      <trkpt lat="41.814992" lon="22.978051">
        <ele>1175.8</ele>
        <time>2026-05-06T15:12:45.000Z</time>
      </trkpt>
      <trkpt lat="41.814993" lon="22.978051">
        <ele>1175.8</ele>
        <time>2026-05-06T15:12:46.000Z</time>
      </trkpt>
      <trkpt lat="41.814993" lon="22.978049">
        <ele>1175.8</ele>
        <time>2026-05-06T15:12:47.000Z</time>
      </trkpt>
      <trkpt lat="41.814993" lon="22.978049">
        <ele>1176.1</ele>
        <time>2026-05-06T15:12:48.000Z</time>
      </trkpt>
      <trkpt lat="41.814994" lon="22.978049">
        <ele>1176.1</ele>
        <time>2026-05-06T15:12:49.000Z</time>
      </trkpt>
      <trkpt lat="41.814995" lon="22.97805">
        <ele>1176.1</ele>
        <time>2026-05-06T15:12:50.000Z</time>
      </trkpt>
      <trkpt lat="41.814996" lon="22.978051">
        <ele>1176.1</ele>
        <time>2026-05-06T15:12:51.000Z</time>
      </trkpt>
      <trkpt lat="41.814997" lon="22.978053">
        <ele>1176.1</ele>
        <time>2026-05-06T15:12:52.000Z</time>
      </trkpt>
      <trkpt lat="41.814997" lon="22.978055">
        <ele>1176.1</ele>
        <time>2026-05-06T15:12:53.000Z</time>
      </trkpt>
      <trkpt lat="41.814996" lon="22.978059">
        <ele>1176.1</ele>
        <time>2026-05-06T15:12:54.000Z</time>
      </trkpt>
      <trkpt lat="41.814996" lon="22.978065">
        <ele>1176.1</ele>
        <time>2026-05-06T15:12:55.000Z</time>
      </trkpt>
      <trkpt lat="41.814997" lon="22.978072">
        <ele>1176.1</ele>
        <time>2026-05-06T15:12:56.000Z</time>
      </trkpt>
      <trkpt lat="41.814997" lon="22.978082">
        <ele>1176.1</ele>
        <time>2026-05-06T15:12:57.000Z</time>
      </trkpt>
      <trkpt lat="41.815" lon="22.978093">
        <ele>1176</ele>
        <time>2026-05-06T15:12:58.000Z</time>
      </trkpt>
      <trkpt lat="41.815005" lon="22.978105">
        <ele>1176</ele>
        <time>2026-05-06T15:12:59.000Z</time>
      </trkpt>
      <trkpt lat="41.815012" lon="22.978114">
        <ele>1176</ele>
        <time>2026-05-06T15:13:00.000Z</time>
      </trkpt>
      <trkpt lat="41.81502" lon="22.978123">
        <ele>1176</ele>
        <time>2026-05-06T15:13:01.000Z</time>
      </trkpt>
      <trkpt lat="41.815031" lon="22.978131">
        <ele>1176</ele>
        <time>2026-05-06T15:13:02.000Z</time>
      </trkpt>
      <trkpt lat="41.815045" lon="22.978139">
        <ele>1175.8</ele>
        <time>2026-05-06T15:13:03.000Z</time>
      </trkpt>
      <trkpt lat="41.815058" lon="22.978148">
        <ele>1175.8</ele>
        <time>2026-05-06T15:13:04.000Z</time>
      </trkpt>
      <trkpt lat="41.815072" lon="22.978159">
        <ele>1175.8</ele>
        <time>2026-05-06T15:13:05.000Z</time>
      </trkpt>
      <trkpt lat="41.815085" lon="22.978171">
        <ele>1175.8</ele>
        <time>2026-05-06T15:13:06.000Z</time>
      </trkpt>
      <trkpt lat="41.815097" lon="22.978183">
        <ele>1175.8</ele>
        <time>2026-05-06T15:13:07.000Z</time>
      </trkpt>
      <trkpt lat="41.815106" lon="22.978194">
        <ele>1175.8</ele>
        <time>2026-05-06T15:13:08.000Z</time>
      </trkpt>
      <trkpt lat="41.815115" lon="22.978206">
        <ele>1175.8</ele>
        <time>2026-05-06T15:13:09.000Z</time>
      </trkpt>
      <trkpt lat="41.815123" lon="22.978216">
        <ele>1175.8</ele>
        <time>2026-05-06T15:13:10.000Z</time>
      </trkpt>
      <trkpt lat="41.81513" lon="22.978225">
        <ele>1175.8</ele>
        <time>2026-05-06T15:13:11.000Z</time>
      </trkpt>
      <trkpt lat="41.815134" lon="22.978233">
        <ele>1175.8</ele>
        <time>2026-05-06T15:13:12.000Z</time>
      </trkpt>
      <trkpt lat="41.815137" lon="22.978239">
        <ele>1175.9</ele>
        <time>2026-05-06T15:13:13.000Z</time>
      </trkpt>
      <trkpt lat="41.815139" lon="22.978243">
        <ele>1175.9</ele>
        <time>2026-05-06T15:13:14.000Z</time>
      </trkpt>
      <trkpt lat="41.81514" lon="22.978246">
        <ele>1175.9</ele>
        <time>2026-05-06T15:13:15.000Z</time>
      </trkpt>
      <trkpt lat="41.815142" lon="22.978249">
        <ele>1175.9</ele>
        <time>2026-05-06T15:13:16.000Z</time>
      </trkpt>
      <trkpt lat="41.815144" lon="22.978255">
        <ele>1175.9</ele>
        <time>2026-05-06T15:13:17.000Z</time>
      </trkpt>
      <trkpt lat="41.815147" lon="22.978264">
        <ele>1176.4</ele>
        <time>2026-05-06T15:13:18.000Z</time>
      </trkpt>
      <trkpt lat="41.815149" lon="22.978274">
        <ele>1176.4</ele>
        <time>2026-05-06T15:13:19.000Z</time>
      </trkpt>
      <trkpt lat="41.815154" lon="22.978286">
        <ele>1176.4</ele>
        <time>2026-05-06T15:13:20.000Z</time>
      </trkpt>
      <trkpt lat="41.81516" lon="22.978297">
        <ele>1176.4</ele>
        <time>2026-05-06T15:13:21.000Z</time>
      </trkpt>
      <trkpt lat="41.815168" lon="22.978308">
        <ele>1176.4</ele>
        <time>2026-05-06T15:13:22.000Z</time>
      </trkpt>
      <trkpt lat="41.815177" lon="22.97832">
        <ele>1176.8</ele>
        <time>2026-05-06T15:13:23.000Z</time>
      </trkpt>
      <trkpt lat="41.815187" lon="22.978331">
        <ele>1176.8</ele>
        <time>2026-05-06T15:13:24.000Z</time>
      </trkpt>
      <trkpt lat="41.815197" lon="22.978341">
        <ele>1176.8</ele>
        <time>2026-05-06T15:13:25.000Z</time>
      </trkpt>
      <trkpt lat="41.815207" lon="22.978351">
        <ele>1176.8</ele>
        <time>2026-05-06T15:13:26.000Z</time>
      </trkpt>
      <trkpt lat="41.815217" lon="22.978358">
        <ele>1176.8</ele>
        <time>2026-05-06T15:13:27.000Z</time>
      </trkpt>
      <trkpt lat="41.815227" lon="22.978364">
        <ele>1176.9</ele>
        <time>2026-05-06T15:13:28.000Z</time>
      </trkpt>
      <trkpt lat="41.815238" lon="22.97837">
        <ele>1176.9</ele>
        <time>2026-05-06T15:13:29.000Z</time>
      </trkpt>
      <trkpt lat="41.815249" lon="22.978374">
        <ele>1176.9</ele>
        <time>2026-05-06T15:13:30.000Z</time>
      </trkpt>
      <trkpt lat="41.815259" lon="22.978376">
        <ele>1176.9</ele>
        <time>2026-05-06T15:13:31.000Z</time>
      </trkpt>
      <trkpt lat="41.815269" lon="22.978378">
        <ele>1176.9</ele>
        <time>2026-05-06T15:13:32.000Z</time>
      </trkpt>
      <trkpt lat="41.815278" lon="22.97838">
        <ele>1177</ele>
        <time>2026-05-06T15:13:33.000Z</time>
      </trkpt>
      <trkpt lat="41.815287" lon="22.978381">
        <ele>1177</ele>
        <time>2026-05-06T15:13:34.000Z</time>
      </trkpt>
      <trkpt lat="41.815295" lon="22.97838">
        <ele>1177</ele>
        <time>2026-05-06T15:13:35.000Z</time>
      </trkpt>
      <trkpt lat="41.815304" lon="22.97838">
        <ele>1177</ele>
        <time>2026-05-06T15:13:36.000Z</time>
      </trkpt>
      <trkpt lat="41.815314" lon="22.97838">
        <ele>1177</ele>
        <time>2026-05-06T15:13:37.000Z</time>
      </trkpt>
      <trkpt lat="41.815324" lon="22.978377">
        <ele>1177.3</ele>
        <time>2026-05-06T15:13:38.000Z</time>
      </trkpt>
      <trkpt lat="41.815333" lon="22.978374">
        <ele>1177.3</ele>
        <time>2026-05-06T15:13:39.000Z</time>
      </trkpt>
      <trkpt lat="41.815342" lon="22.978372">
        <ele>1177.3</ele>
        <time>2026-05-06T15:13:40.000Z</time>
      </trkpt>
      <trkpt lat="41.815352" lon="22.978369">
        <ele>1177.3</ele>
        <time>2026-05-06T15:13:41.000Z</time>
      </trkpt>
      <trkpt lat="41.815362" lon="22.978365">
        <ele>1177.3</ele>
        <time>2026-05-06T15:13:42.000Z</time>
      </trkpt>
      <trkpt lat="41.815372" lon="22.97836">
        <ele>1177.7</ele>
        <time>2026-05-06T15:13:43.000Z</time>
      </trkpt>
      <trkpt lat="41.815382" lon="22.978356">
        <ele>1177.7</ele>
        <time>2026-05-06T15:13:44.000Z</time>
      </trkpt>
      <trkpt lat="41.815393" lon="22.97835">
        <ele>1177.7</ele>
        <time>2026-05-06T15:13:45.000Z</time>
      </trkpt>
      <trkpt lat="41.815404" lon="22.978344">
        <ele>1177.7</ele>
        <time>2026-05-06T15:13:46.000Z</time>
      </trkpt>
      <trkpt lat="41.815415" lon="22.978337">
        <ele>1177.7</ele>
        <time>2026-05-06T15:13:47.000Z</time>
      </trkpt>
      <trkpt lat="41.815427" lon="22.978329">
        <ele>1178.4</ele>
        <time>2026-05-06T15:13:48.000Z</time>
      </trkpt>
      <trkpt lat="41.815439" lon="22.978322">
        <ele>1178.4</ele>
        <time>2026-05-06T15:13:49.000Z</time>
      </trkpt>
      <trkpt lat="41.815449" lon="22.978315">
        <ele>1178.4</ele>
        <time>2026-05-06T15:13:50.000Z</time>
      </trkpt>
      <trkpt lat="41.815457" lon="22.978309">
        <ele>1178.4</ele>
        <time>2026-05-06T15:13:51.000Z</time>
      </trkpt>
      <trkpt lat="41.815462" lon="22.978305">
        <ele>1178.4</ele>
        <time>2026-05-06T15:13:52.000Z</time>
      </trkpt>
      <trkpt lat="41.815467" lon="22.978302">
        <ele>1179.2</ele>
        <time>2026-05-06T15:13:53.000Z</time>
      </trkpt>
      <trkpt lat="41.815472" lon="22.9783">
        <ele>1179.2</ele>
        <time>2026-05-06T15:13:54.000Z</time>
      </trkpt>
      <trkpt lat="41.815478" lon="22.978297">
        <ele>1179.2</ele>
        <time>2026-05-06T15:13:55.000Z</time>
      </trkpt>
      <trkpt lat="41.815486" lon="22.978294">
        <ele>1179.2</ele>
        <time>2026-05-06T15:13:56.000Z</time>
      </trkpt>
      <trkpt lat="41.815495" lon="22.978292">
        <ele>1179.2</ele>
        <time>2026-05-06T15:13:57.000Z</time>
      </trkpt>
      <trkpt lat="41.815504" lon="22.97829">
        <ele>1179.5</ele>
        <time>2026-05-06T15:13:58.000Z</time>
      </trkpt>
      <trkpt lat="41.815512" lon="22.978288">
        <ele>1179.5</ele>
        <time>2026-05-06T15:13:59.000Z</time>
      </trkpt>
      <trkpt lat="41.81552" lon="22.978287">
        <ele>1179.5</ele>
        <time>2026-05-06T15:14:00.000Z</time>
      </trkpt>
      <trkpt lat="41.815526" lon="22.978284">
        <ele>1179.5</ele>
        <time>2026-05-06T15:14:01.000Z</time>
      </trkpt>
      <trkpt lat="41.815534" lon="22.978279">
        <ele>1179.5</ele>
        <time>2026-05-06T15:14:02.000Z</time>
      </trkpt>
      <trkpt lat="41.815541" lon="22.978274">
        <ele>1180.1</ele>
        <time>2026-05-06T15:14:03.000Z</time>
      </trkpt>
      <trkpt lat="41.815548" lon="22.978268">
        <ele>1180.1</ele>
        <time>2026-05-06T15:14:04.000Z</time>
      </trkpt>
      <trkpt lat="41.815557" lon="22.978262">
        <ele>1180.1</ele>
        <time>2026-05-06T15:14:05.000Z</time>
      </trkpt>
      <trkpt lat="41.815567" lon="22.978257">
        <ele>1180.1</ele>
        <time>2026-05-06T15:14:06.000Z</time>
      </trkpt>
      <trkpt lat="41.815577" lon="22.978255">
        <ele>1180.1</ele>
        <time>2026-05-06T15:14:07.000Z</time>
      </trkpt>
      <trkpt lat="41.815588" lon="22.978254">
        <ele>1180.7</ele>
        <time>2026-05-06T15:14:08.000Z</time>
      </trkpt>
      <trkpt lat="41.815598" lon="22.978252">
        <ele>1180.7</ele>
        <time>2026-05-06T15:14:09.000Z</time>
      </trkpt>
      <trkpt lat="41.815608" lon="22.978252">
        <ele>1180.7</ele>
        <time>2026-05-06T15:14:10.000Z</time>
      </trkpt>
      <trkpt lat="41.815617" lon="22.978251">
        <ele>1180.7</ele>
        <time>2026-05-06T15:14:11.000Z</time>
      </trkpt>
      <trkpt lat="41.815626" lon="22.978249">
        <ele>1180.7</ele>
        <time>2026-05-06T15:14:12.000Z</time>
      </trkpt>
      <trkpt lat="41.815636" lon="22.978247">
        <ele>1181</ele>
        <time>2026-05-06T15:14:13.000Z</time>
      </trkpt>
      <trkpt lat="41.815647" lon="22.978245">
        <ele>1181</ele>
        <time>2026-05-06T15:14:14.000Z</time>
      </trkpt>
      <trkpt lat="41.815657" lon="22.978242">
        <ele>1181</ele>
        <time>2026-05-06T15:14:15.000Z</time>
      </trkpt>
      <trkpt lat="41.815666" lon="22.978239">
        <ele>1181</ele>
        <time>2026-05-06T15:14:16.000Z</time>
      </trkpt>
      <trkpt lat="41.815675" lon="22.978237">
        <ele>1181</ele>
        <time>2026-05-06T15:14:17.000Z</time>
      </trkpt>
      <trkpt lat="41.815685" lon="22.978235">
        <ele>1181.4</ele>
        <time>2026-05-06T15:14:18.000Z</time>
      </trkpt>
      <trkpt lat="41.815695" lon="22.978232">
        <ele>1181.4</ele>
        <time>2026-05-06T15:14:19.000Z</time>
      </trkpt>
      <trkpt lat="41.815705" lon="22.97823">
        <ele>1181.4</ele>
        <time>2026-05-06T15:14:20.000Z</time>
      </trkpt>
      <trkpt lat="41.815715" lon="22.978227">
        <ele>1181.4</ele>
        <time>2026-05-06T15:14:21.000Z</time>
      </trkpt>
      <trkpt lat="41.815726" lon="22.978224">
        <ele>1181.4</ele>
        <time>2026-05-06T15:14:22.000Z</time>
      </trkpt>
      <trkpt lat="41.815737" lon="22.97822">
        <ele>1181.9</ele>
        <time>2026-05-06T15:14:23.000Z</time>
      </trkpt>
      <trkpt lat="41.815748" lon="22.978216">
        <ele>1181.9</ele>
        <time>2026-05-06T15:14:24.000Z</time>
      </trkpt>
      <trkpt lat="41.815759" lon="22.978213">
        <ele>1181.9</ele>
        <time>2026-05-06T15:14:25.000Z</time>
      </trkpt>
      <trkpt lat="41.81577" lon="22.97821">
        <ele>1181.9</ele>
        <time>2026-05-06T15:14:26.000Z</time>
      </trkpt>
      <trkpt lat="41.815781" lon="22.978208">
        <ele>1181.9</ele>
        <time>2026-05-06T15:14:27.000Z</time>
      </trkpt>
      <trkpt lat="41.815792" lon="22.978206">
        <ele>1182.1</ele>
        <time>2026-05-06T15:14:28.000Z</time>
      </trkpt>
      <trkpt lat="41.815803" lon="22.978205">
        <ele>1182.1</ele>
        <time>2026-05-06T15:14:29.000Z</time>
      </trkpt>
      <trkpt lat="41.815814" lon="22.978204">
        <ele>1182.1</ele>
        <time>2026-05-06T15:14:30.000Z</time>
      </trkpt>
      <trkpt lat="41.815826" lon="22.978203">
        <ele>1182.1</ele>
        <time>2026-05-06T15:14:31.000Z</time>
      </trkpt>
      <trkpt lat="41.815838" lon="22.978201">
        <ele>1182.1</ele>
        <time>2026-05-06T15:14:32.000Z</time>
      </trkpt>
      <trkpt lat="41.81585" lon="22.978198">
        <ele>1182.5</ele>
        <time>2026-05-06T15:14:33.000Z</time>
      </trkpt>
      <trkpt lat="41.815861" lon="22.978194">
        <ele>1182.5</ele>
        <time>2026-05-06T15:14:34.000Z</time>
      </trkpt>
      <trkpt lat="41.815874" lon="22.97819">
        <ele>1182.5</ele>
        <time>2026-05-06T15:14:35.000Z</time>
      </trkpt>
      <trkpt lat="41.815886" lon="22.978185">
        <ele>1182.5</ele>
        <time>2026-05-06T15:14:36.000Z</time>
      </trkpt>
      <trkpt lat="41.815897" lon="22.978179">
        <ele>1182.5</ele>
        <time>2026-05-06T15:14:37.000Z</time>
      </trkpt>
      <trkpt lat="41.815909" lon="22.978172">
        <ele>1182.8</ele>
        <time>2026-05-06T15:14:38.000Z</time>
      </trkpt>
      <trkpt lat="41.815921" lon="22.978164">
        <ele>1182.8</ele>
        <time>2026-05-06T15:14:39.000Z</time>
      </trkpt>
      <trkpt lat="41.815932" lon="22.978156">
        <ele>1182.8</ele>
        <time>2026-05-06T15:14:40.000Z</time>
      </trkpt>
      <trkpt lat="41.815944" lon="22.978148">
        <ele>1182.8</ele>
        <time>2026-05-06T15:14:41.000Z</time>
      </trkpt>
      <trkpt lat="41.815954" lon="22.978142">
        <ele>1182.8</ele>
        <time>2026-05-06T15:14:42.000Z</time>
      </trkpt>
      <trkpt lat="41.815964" lon="22.978138">
        <ele>1182.9</ele>
        <time>2026-05-06T15:14:43.000Z</time>
      </trkpt>
      <trkpt lat="41.815974" lon="22.978135">
        <ele>1182.9</ele>
        <time>2026-05-06T15:14:44.000Z</time>
      </trkpt>
      <trkpt lat="41.815983" lon="22.978131">
        <ele>1182.9</ele>
        <time>2026-05-06T15:14:45.000Z</time>
      </trkpt>
      <trkpt lat="41.815992" lon="22.978128">
        <ele>1182.9</ele>
        <time>2026-05-06T15:14:46.000Z</time>
      </trkpt>
      <trkpt lat="41.816002" lon="22.978123">
        <ele>1182.9</ele>
        <time>2026-05-06T15:14:47.000Z</time>
      </trkpt>
      <trkpt lat="41.816013" lon="22.978117">
        <ele>1183.4</ele>
        <time>2026-05-06T15:14:48.000Z</time>
      </trkpt>
      <trkpt lat="41.816023" lon="22.978111">
        <ele>1183.4</ele>
        <time>2026-05-06T15:14:49.000Z</time>
      </trkpt>
      <trkpt lat="41.816033" lon="22.978104">
        <ele>1183.4</ele>
        <time>2026-05-06T15:14:50.000Z</time>
      </trkpt>
      <trkpt lat="41.816043" lon="22.978099">
        <ele>1183.4</ele>
        <time>2026-05-06T15:14:51.000Z</time>
      </trkpt>
      <trkpt lat="41.816052" lon="22.978095">
        <ele>1183.4</ele>
        <time>2026-05-06T15:14:52.000Z</time>
      </trkpt>
      <trkpt lat="41.816059" lon="22.978092">
        <ele>1184</ele>
        <time>2026-05-06T15:14:53.000Z</time>
      </trkpt>
      <trkpt lat="41.816066" lon="22.978089">
        <ele>1184</ele>
        <time>2026-05-06T15:14:54.000Z</time>
      </trkpt>
      <trkpt lat="41.816074" lon="22.978087">
        <ele>1184</ele>
        <time>2026-05-06T15:14:55.000Z</time>
      </trkpt>
      <trkpt lat="41.816083" lon="22.978084">
        <ele>1184</ele>
        <time>2026-05-06T15:14:56.000Z</time>
      </trkpt>
      <trkpt lat="41.816093" lon="22.978081">
        <ele>1184</ele>
        <time>2026-05-06T15:14:57.000Z</time>
      </trkpt>
      <trkpt lat="41.816104" lon="22.978079">
        <ele>1184.2</ele>
        <time>2026-05-06T15:14:58.000Z</time>
      </trkpt>
      <trkpt lat="41.816116" lon="22.978078">
        <ele>1184.2</ele>
        <time>2026-05-06T15:14:59.000Z</time>
      </trkpt>
      <trkpt lat="41.816128" lon="22.97808">
        <ele>1184.2</ele>
        <time>2026-05-06T15:15:00.000Z</time>
      </trkpt>
      <trkpt lat="41.81614" lon="22.978084">
        <ele>1184.2</ele>
        <time>2026-05-06T15:15:01.000Z</time>
      </trkpt>
      <trkpt lat="41.81615" lon="22.978089">
        <ele>1184.2</ele>
        <time>2026-05-06T15:15:02.000Z</time>
      </trkpt>
      <trkpt lat="41.816158" lon="22.978093">
        <ele>1184.7</ele>
        <time>2026-05-06T15:15:03.000Z</time>
      </trkpt>
      <trkpt lat="41.816164" lon="22.978096">
        <ele>1184.7</ele>
        <time>2026-05-06T15:15:04.000Z</time>
      </trkpt>
      <trkpt lat="41.81617" lon="22.978098">
        <ele>1184.7</ele>
        <time>2026-05-06T15:15:05.000Z</time>
      </trkpt>
      <trkpt lat="41.816175" lon="22.9781">
        <ele>1184.7</ele>
        <time>2026-05-06T15:15:06.000Z</time>
      </trkpt>
      <trkpt lat="41.816182" lon="22.978102">
        <ele>1184.7</ele>
        <time>2026-05-06T15:15:07.000Z</time>
      </trkpt>
      <trkpt lat="41.816191" lon="22.978106">
        <ele>1185.3</ele>
        <time>2026-05-06T15:15:08.000Z</time>
      </trkpt>
      <trkpt lat="41.816202" lon="22.978109">
        <ele>1185.3</ele>
        <time>2026-05-06T15:15:09.000Z</time>
      </trkpt>
      <trkpt lat="41.816213" lon="22.978113">
        <ele>1185.3</ele>
        <time>2026-05-06T15:15:10.000Z</time>
      </trkpt>
      <trkpt lat="41.816223" lon="22.978118">
        <ele>1185.3</ele>
        <time>2026-05-06T15:15:11.000Z</time>
      </trkpt>
      <trkpt lat="41.816234" lon="22.978124">
        <ele>1185.3</ele>
        <time>2026-05-06T15:15:12.000Z</time>
      </trkpt>
      <trkpt lat="41.816245" lon="22.978131">
        <ele>1185.6</ele>
        <time>2026-05-06T15:15:13.000Z</time>
      </trkpt>
      <trkpt lat="41.816254" lon="22.978136">
        <ele>1185.6</ele>
        <time>2026-05-06T15:15:14.000Z</time>
      </trkpt>
      <trkpt lat="41.816262" lon="22.978139">
        <ele>1185.6</ele>
        <time>2026-05-06T15:15:15.000Z</time>
      </trkpt>
      <trkpt lat="41.816269" lon="22.978138">
        <ele>1185.6</ele>
        <time>2026-05-06T15:15:16.000Z</time>
      </trkpt>
      <trkpt lat="41.816275" lon="22.978134">
        <ele>1185.6</ele>
        <time>2026-05-06T15:15:17.000Z</time>
      </trkpt>
      <trkpt lat="41.816279" lon="22.978129">
        <ele>1186.2</ele>
        <time>2026-05-06T15:15:18.000Z</time>
      </trkpt>
      <trkpt lat="41.816285" lon="22.978124">
        <ele>1186.2</ele>
        <time>2026-05-06T15:15:19.000Z</time>
      </trkpt>
      <trkpt lat="41.81629" lon="22.978121">
        <ele>1186.2</ele>
        <time>2026-05-06T15:15:20.000Z</time>
      </trkpt>
      <trkpt lat="41.816294" lon="22.978119">
        <ele>1186.2</ele>
        <time>2026-05-06T15:15:21.000Z</time>
      </trkpt>
      <trkpt lat="41.816295" lon="22.978118">
        <ele>1186.2</ele>
        <time>2026-05-06T15:15:22.000Z</time>
      </trkpt>
      <trkpt lat="41.816296" lon="22.978117">
        <ele>1186.9</ele>
        <time>2026-05-06T15:15:23.000Z</time>
      </trkpt>
      <trkpt lat="41.816295" lon="22.978117">
        <ele>1186.9</ele>
        <time>2026-05-06T15:15:24.000Z</time>
      </trkpt>
      <trkpt lat="41.816293" lon="22.978119">
        <ele>1186.9</ele>
        <time>2026-05-06T15:15:25.000Z</time>
      </trkpt>
      <trkpt lat="41.816293" lon="22.978123">
        <ele>1186.9</ele>
        <time>2026-05-06T15:15:26.000Z</time>
      </trkpt>
      <trkpt lat="41.816295" lon="22.97813">
        <ele>1186.9</ele>
        <time>2026-05-06T15:15:27.000Z</time>
      </trkpt>
      <trkpt lat="41.8163" lon="22.978138">
        <ele>1187.2</ele>
        <time>2026-05-06T15:15:28.000Z</time>
      </trkpt>
      <trkpt lat="41.816305" lon="22.978146">
        <ele>1187.2</ele>
        <time>2026-05-06T15:15:29.000Z</time>
      </trkpt>
      <trkpt lat="41.816311" lon="22.978154">
        <ele>1187.2</ele>
        <time>2026-05-06T15:15:30.000Z</time>
      </trkpt>
      <trkpt lat="41.816319" lon="22.978162">
        <ele>1187.2</ele>
        <time>2026-05-06T15:15:31.000Z</time>
      </trkpt>
      <trkpt lat="41.816327" lon="22.97817">
        <ele>1187.2</ele>
        <time>2026-05-06T15:15:32.000Z</time>
      </trkpt>
      <trkpt lat="41.816335" lon="22.978177">
        <ele>1187.7</ele>
        <time>2026-05-06T15:15:33.000Z</time>
      </trkpt>
      <trkpt lat="41.816344" lon="22.978186">
        <ele>1187.7</ele>
        <time>2026-05-06T15:15:34.000Z</time>
      </trkpt>
      <trkpt lat="41.816351" lon="22.978197">
        <ele>1187.7</ele>
        <time>2026-05-06T15:15:35.000Z</time>
      </trkpt>
      <trkpt lat="41.816359" lon="22.978209">
        <ele>1187.7</ele>
        <time>2026-05-06T15:15:36.000Z</time>
      </trkpt>
      <trkpt lat="41.816367" lon="22.978221">
        <ele>1187.7</ele>
        <time>2026-05-06T15:15:37.000Z</time>
      </trkpt>
      <trkpt lat="41.816374" lon="22.978231">
        <ele>1188</ele>
        <time>2026-05-06T15:15:38.000Z</time>
      </trkpt>
      <trkpt lat="41.816383" lon="22.978241">
        <ele>1188</ele>
        <time>2026-05-06T15:15:39.000Z</time>
      </trkpt>
      <trkpt lat="41.816394" lon="22.978249">
        <ele>1188</ele>
        <time>2026-05-06T15:15:40.000Z</time>
      </trkpt>
      <trkpt lat="41.816404" lon="22.978256">
        <ele>1188</ele>
        <time>2026-05-06T15:15:41.000Z</time>
      </trkpt>
      <trkpt lat="41.816415" lon="22.978264">
        <ele>1188</ele>
        <time>2026-05-06T15:15:42.000Z</time>
      </trkpt>
      <trkpt lat="41.816426" lon="22.978272">
        <ele>1188.2</ele>
        <time>2026-05-06T15:15:43.000Z</time>
      </trkpt>
      <trkpt lat="41.816436" lon="22.978279">
        <ele>1188.2</ele>
        <time>2026-05-06T15:15:44.000Z</time>
      </trkpt>
      <trkpt lat="41.816445" lon="22.978286">
        <ele>1188.2</ele>
        <time>2026-05-06T15:15:45.000Z</time>
      </trkpt>
      <trkpt lat="41.816455" lon="22.978293">
        <ele>1188.2</ele>
        <time>2026-05-06T15:15:46.000Z</time>
      </trkpt>
      <trkpt lat="41.816464" lon="22.978298">
        <ele>1188.2</ele>
        <time>2026-05-06T15:15:47.000Z</time>
      </trkpt>
      <trkpt lat="41.816474" lon="22.978305">
        <ele>1188.9</ele>
        <time>2026-05-06T15:15:48.000Z</time>
      </trkpt>
      <trkpt lat="41.816484" lon="22.978312">
        <ele>1188.9</ele>
        <time>2026-05-06T15:15:49.000Z</time>
      </trkpt>
      <trkpt lat="41.816493" lon="22.978319">
        <ele>1188.9</ele>
        <time>2026-05-06T15:15:50.000Z</time>
      </trkpt>
      <trkpt lat="41.816501" lon="22.978325">
        <ele>1188.9</ele>
        <time>2026-05-06T15:15:51.000Z</time>
      </trkpt>
      <trkpt lat="41.816509" lon="22.978331">
        <ele>1188.9</ele>
        <time>2026-05-06T15:15:52.000Z</time>
      </trkpt>
      <trkpt lat="41.816517" lon="22.978338">
        <ele>1189.7</ele>
        <time>2026-05-06T15:15:53.000Z</time>
      </trkpt>
      <trkpt lat="41.816526" lon="22.978345">
        <ele>1189.7</ele>
        <time>2026-05-06T15:15:54.000Z</time>
      </trkpt>
      <trkpt lat="41.816534" lon="22.978353">
        <ele>1189.7</ele>
        <time>2026-05-06T15:15:55.000Z</time>
      </trkpt>
      <trkpt lat="41.816542" lon="22.97836">
        <ele>1189.7</ele>
        <time>2026-05-06T15:15:56.000Z</time>
      </trkpt>
      <trkpt lat="41.816552" lon="22.978368">
        <ele>1189.7</ele>
        <time>2026-05-06T15:15:57.000Z</time>
      </trkpt>
      <trkpt lat="41.816562" lon="22.978375">
        <ele>1190.1</ele>
        <time>2026-05-06T15:15:58.000Z</time>
      </trkpt>
      <trkpt lat="41.816572" lon="22.978382">
        <ele>1190.1</ele>
        <time>2026-05-06T15:15:59.000Z</time>
      </trkpt>
      <trkpt lat="41.816583" lon="22.978389">
        <ele>1190.1</ele>
        <time>2026-05-06T15:16:00.000Z</time>
      </trkpt>
      <trkpt lat="41.816593" lon="22.978398">
        <ele>1190.1</ele>
        <time>2026-05-06T15:16:01.000Z</time>
      </trkpt>
      <trkpt lat="41.816603" lon="22.978406">
        <ele>1190.1</ele>
        <time>2026-05-06T15:16:02.000Z</time>
      </trkpt>
      <trkpt lat="41.816611" lon="22.978415">
        <ele>1190.8</ele>
        <time>2026-05-06T15:16:03.000Z</time>
      </trkpt>
      <trkpt lat="41.81662" lon="22.978425">
        <ele>1190.8</ele>
        <time>2026-05-06T15:16:04.000Z</time>
      </trkpt>
      <trkpt lat="41.816628" lon="22.978435">
        <ele>1190.8</ele>
        <time>2026-05-06T15:16:05.000Z</time>
      </trkpt>
      <trkpt lat="41.816637" lon="22.978445">
        <ele>1190.8</ele>
        <time>2026-05-06T15:16:06.000Z</time>
      </trkpt>
      <trkpt lat="41.816646" lon="22.978455">
        <ele>1190.8</ele>
        <time>2026-05-06T15:16:07.000Z</time>
      </trkpt>
      <trkpt lat="41.816655" lon="22.978465">
        <ele>1191.4</ele>
        <time>2026-05-06T15:16:08.000Z</time>
      </trkpt>
      <trkpt lat="41.816665" lon="22.978475">
        <ele>1191.4</ele>
        <time>2026-05-06T15:16:09.000Z</time>
      </trkpt>
      <trkpt lat="41.816674" lon="22.978486">
        <ele>1191.4</ele>
        <time>2026-05-06T15:16:10.000Z</time>
      </trkpt>
      <trkpt lat="41.816684" lon="22.978497">
        <ele>1191.4</ele>
        <time>2026-05-06T15:16:11.000Z</time>
      </trkpt>
      <trkpt lat="41.816694" lon="22.97851">
        <ele>1191.4</ele>
        <time>2026-05-06T15:16:12.000Z</time>
      </trkpt>
      <trkpt lat="41.816705" lon="22.978523">
        <ele>1191.7</ele>
        <time>2026-05-06T15:16:13.000Z</time>
      </trkpt>
      <trkpt lat="41.816714" lon="22.978536">
        <ele>1191.7</ele>
        <time>2026-05-06T15:16:14.000Z</time>
      </trkpt>
      <trkpt lat="41.816721" lon="22.978548">
        <ele>1191.7</ele>
        <time>2026-05-06T15:16:15.000Z</time>
      </trkpt>
      <trkpt lat="41.816726" lon="22.978559">
        <ele>1191.7</ele>
        <time>2026-05-06T15:16:16.000Z</time>
      </trkpt>
      <trkpt lat="41.816731" lon="22.97857">
        <ele>1191.7</ele>
        <time>2026-05-06T15:16:17.000Z</time>
      </trkpt>
      <trkpt lat="41.816734" lon="22.978579">
        <ele>1192.3</ele>
        <time>2026-05-06T15:16:18.000Z</time>
      </trkpt>
      <trkpt lat="41.816736" lon="22.978585">
        <ele>1192.3</ele>
        <time>2026-05-06T15:16:19.000Z</time>
      </trkpt>
      <trkpt lat="41.81674" lon="22.978592">
        <ele>1192.3</ele>
        <time>2026-05-06T15:16:20.000Z</time>
      </trkpt>
      <trkpt lat="41.816746" lon="22.978601">
        <ele>1192.3</ele>
        <time>2026-05-06T15:16:21.000Z</time>
      </trkpt>
      <trkpt lat="41.816753" lon="22.978609">
        <ele>1192.3</ele>
        <time>2026-05-06T15:16:22.000Z</time>
      </trkpt>
      <trkpt lat="41.816759" lon="22.978617">
        <ele>1192.9</ele>
        <time>2026-05-06T15:16:23.000Z</time>
      </trkpt>
      <trkpt lat="41.816765" lon="22.978625">
        <ele>1192.9</ele>
        <time>2026-05-06T15:16:24.000Z</time>
      </trkpt>
      <trkpt lat="41.81677" lon="22.97863">
        <ele>1192.9</ele>
        <time>2026-05-06T15:16:25.000Z</time>
      </trkpt>
      <trkpt lat="41.816773" lon="22.978634">
        <ele>1192.9</ele>
        <time>2026-05-06T15:16:26.000Z</time>
      </trkpt>
      <trkpt lat="41.816776" lon="22.978639">
        <ele>1192.9</ele>
        <time>2026-05-06T15:16:27.000Z</time>
      </trkpt>
      <trkpt lat="41.816781" lon="22.978645">
        <ele>1193.2</ele>
        <time>2026-05-06T15:16:28.000Z</time>
      </trkpt>
      <trkpt lat="41.816788" lon="22.978656">
        <ele>1193.2</ele>
        <time>2026-05-06T15:16:29.000Z</time>
      </trkpt>
      <trkpt lat="41.816796" lon="22.97867">
        <ele>1193.2</ele>
        <time>2026-05-06T15:16:30.000Z</time>
      </trkpt>
      <trkpt lat="41.816805" lon="22.978685">
        <ele>1193.2</ele>
        <time>2026-05-06T15:16:31.000Z</time>
      </trkpt>
      <trkpt lat="41.816813" lon="22.978698">
        <ele>1193.2</ele>
        <time>2026-05-06T15:16:32.000Z</time>
      </trkpt>
      <trkpt lat="41.81682" lon="22.978711">
        <ele>1193.8</ele>
        <time>2026-05-06T15:16:33.000Z</time>
      </trkpt>
      <trkpt lat="41.816827" lon="22.978722">
        <ele>1193.8</ele>
        <time>2026-05-06T15:16:34.000Z</time>
      </trkpt>
      <trkpt lat="41.816832" lon="22.978732">
        <ele>1193.8</ele>
        <time>2026-05-06T15:16:35.000Z</time>
      </trkpt>
      <trkpt lat="41.816836" lon="22.978743">
        <ele>1193.8</ele>
        <time>2026-05-06T15:16:36.000Z</time>
      </trkpt>
      <trkpt lat="41.81684" lon="22.978755">
        <ele>1193.8</ele>
        <time>2026-05-06T15:16:37.000Z</time>
      </trkpt>
      <trkpt lat="41.816842" lon="22.978767">
        <ele>1194.1</ele>
        <time>2026-05-06T15:16:38.000Z</time>
      </trkpt>
      <trkpt lat="41.816845" lon="22.978778">
        <ele>1194.1</ele>
        <time>2026-05-06T15:16:39.000Z</time>
      </trkpt>
      <trkpt lat="41.816849" lon="22.97879">
        <ele>1194.1</ele>
        <time>2026-05-06T15:16:40.000Z</time>
      </trkpt>
      <trkpt lat="41.816855" lon="22.9788">
        <ele>1194.1</ele>
        <time>2026-05-06T15:16:41.000Z</time>
      </trkpt>
      <trkpt lat="41.816861" lon="22.978812">
        <ele>1194.1</ele>
        <time>2026-05-06T15:16:42.000Z</time>
      </trkpt>
      <trkpt lat="41.81687" lon="22.978824">
        <ele>1194.3</ele>
        <time>2026-05-06T15:16:43.000Z</time>
      </trkpt>
      <trkpt lat="41.816878" lon="22.978835">
        <ele>1194.3</ele>
        <time>2026-05-06T15:16:44.000Z</time>
      </trkpt>
      <trkpt lat="41.816885" lon="22.978846">
        <ele>1194.3</ele>
        <time>2026-05-06T15:16:45.000Z</time>
      </trkpt>
      <trkpt lat="41.816892" lon="22.978857">
        <ele>1194.3</ele>
        <time>2026-05-06T15:16:46.000Z</time>
      </trkpt>
      <trkpt lat="41.816896" lon="22.978866">
        <ele>1194.3</ele>
        <time>2026-05-06T15:16:47.000Z</time>
      </trkpt>
      <trkpt lat="41.816901" lon="22.978875">
        <ele>1194.6</ele>
        <time>2026-05-06T15:16:48.000Z</time>
      </trkpt>
      <trkpt lat="41.816906" lon="22.978884">
        <ele>1194.6</ele>
        <time>2026-05-06T15:16:49.000Z</time>
      </trkpt>
      <trkpt lat="41.81691" lon="22.978894">
        <ele>1194.6</ele>
        <time>2026-05-06T15:16:50.000Z</time>
      </trkpt>
      <trkpt lat="41.816915" lon="22.978905">
        <ele>1194.6</ele>
        <time>2026-05-06T15:16:51.000Z</time>
      </trkpt>
      <trkpt lat="41.816921" lon="22.978916">
        <ele>1194.6</ele>
        <time>2026-05-06T15:16:52.000Z</time>
      </trkpt>
      <trkpt lat="41.816929" lon="22.978929">
        <ele>1195.1</ele>
        <time>2026-05-06T15:16:53.000Z</time>
      </trkpt>
      <trkpt lat="41.816936" lon="22.978942">
        <ele>1195.1</ele>
        <time>2026-05-06T15:16:54.000Z</time>
      </trkpt>
      <trkpt lat="41.816945" lon="22.978956">
        <ele>1195.1</ele>
        <time>2026-05-06T15:16:55.000Z</time>
      </trkpt>
      <trkpt lat="41.816956" lon="22.978971">
        <ele>1195.1</ele>
        <time>2026-05-06T15:16:56.000Z</time>
      </trkpt>
      <trkpt lat="41.816965" lon="22.978984">
        <ele>1195.1</ele>
        <time>2026-05-06T15:16:57.000Z</time>
      </trkpt>
      <trkpt lat="41.816974" lon="22.978995">
        <ele>1195.3</ele>
        <time>2026-05-06T15:16:58.000Z</time>
      </trkpt>
      <trkpt lat="41.816983" lon="22.979003">
        <ele>1195.3</ele>
        <time>2026-05-06T15:16:59.000Z</time>
      </trkpt>
      <trkpt lat="41.816991" lon="22.979009">
        <ele>1195.3</ele>
        <time>2026-05-06T15:17:00.000Z</time>
      </trkpt>
      <trkpt lat="41.816997" lon="22.979013">
        <ele>1195.3</ele>
        <time>2026-05-06T15:17:01.000Z</time>
      </trkpt>
      <trkpt lat="41.817003" lon="22.979017">
        <ele>1195.3</ele>
        <time>2026-05-06T15:17:02.000Z</time>
      </trkpt>
      <trkpt lat="41.817009" lon="22.979021">
        <ele>1195.8</ele>
        <time>2026-05-06T15:17:03.000Z</time>
      </trkpt>
      <trkpt lat="41.817016" lon="22.979025">
        <ele>1195.8</ele>
        <time>2026-05-06T15:17:04.000Z</time>
      </trkpt>
      <trkpt lat="41.817024" lon="22.979029">
        <ele>1195.8</ele>
        <time>2026-05-06T15:17:05.000Z</time>
      </trkpt>
      <trkpt lat="41.817033" lon="22.979036">
        <ele>1195.8</ele>
        <time>2026-05-06T15:17:06.000Z</time>
      </trkpt>
      <trkpt lat="41.817044" lon="22.979044">
        <ele>1195.8</ele>
        <time>2026-05-06T15:17:07.000Z</time>
      </trkpt>
      <trkpt lat="41.817056" lon="22.979051">
        <ele>1196.2</ele>
        <time>2026-05-06T15:17:08.000Z</time>
      </trkpt>
      <trkpt lat="41.817067" lon="22.97906">
        <ele>1196.2</ele>
        <time>2026-05-06T15:17:09.000Z</time>
      </trkpt>
      <trkpt lat="41.817078" lon="22.979069">
        <ele>1196.2</ele>
        <time>2026-05-06T15:17:10.000Z</time>
      </trkpt>
      <trkpt lat="41.817088" lon="22.979078">
        <ele>1196.2</ele>
        <time>2026-05-06T15:17:11.000Z</time>
      </trkpt>
      <trkpt lat="41.817097" lon="22.979086">
        <ele>1196.2</ele>
        <time>2026-05-06T15:17:12.000Z</time>
      </trkpt>
      <trkpt lat="41.817106" lon="22.979093">
        <ele>1196.4</ele>
        <time>2026-05-06T15:17:13.000Z</time>
      </trkpt>
      <trkpt lat="41.817116" lon="22.979098">
        <ele>1196.4</ele>
        <time>2026-05-06T15:17:14.000Z</time>
      </trkpt>
      <trkpt lat="41.817126" lon="22.979105">
        <ele>1196.4</ele>
        <time>2026-05-06T15:17:15.000Z</time>
      </trkpt>
      <trkpt lat="41.817135" lon="22.979111">
        <ele>1196.4</ele>
        <time>2026-05-06T15:17:16.000Z</time>
      </trkpt>
      <trkpt lat="41.817144" lon="22.979116">
        <ele>1196.4</ele>
        <time>2026-05-06T15:17:17.000Z</time>
      </trkpt>
      <trkpt lat="41.817152" lon="22.979122">
        <ele>1197</ele>
        <time>2026-05-06T15:17:18.000Z</time>
      </trkpt>
      <trkpt lat="41.817159" lon="22.979128">
        <ele>1197</ele>
        <time>2026-05-06T15:17:19.000Z</time>
      </trkpt>
      <trkpt lat="41.817167" lon="22.979134">
        <ele>1197</ele>
        <time>2026-05-06T15:17:20.000Z</time>
      </trkpt>
      <trkpt lat="41.817177" lon="22.979138">
        <ele>1197</ele>
        <time>2026-05-06T15:17:21.000Z</time>
      </trkpt>
      <trkpt lat="41.817187" lon="22.979143">
        <ele>1197</ele>
        <time>2026-05-06T15:17:22.000Z</time>
      </trkpt>
      <trkpt lat="41.817197" lon="22.979151">
        <ele>1197.7</ele>
        <time>2026-05-06T15:17:23.000Z</time>
      </trkpt>
      <trkpt lat="41.817207" lon="22.97916">
        <ele>1197.7</ele>
        <time>2026-05-06T15:17:24.000Z</time>
      </trkpt>
      <trkpt lat="41.817217" lon="22.979167">
        <ele>1197.7</ele>
        <time>2026-05-06T15:17:25.000Z</time>
      </trkpt>
      <trkpt lat="41.817227" lon="22.979175">
        <ele>1197.7</ele>
        <time>2026-05-06T15:17:26.000Z</time>
      </trkpt>
      <trkpt lat="41.817236" lon="22.979183">
        <ele>1197.7</ele>
        <time>2026-05-06T15:17:27.000Z</time>
      </trkpt>
      <trkpt lat="41.817245" lon="22.979189">
        <ele>1198</ele>
        <time>2026-05-06T15:17:28.000Z</time>
      </trkpt>
      <trkpt lat="41.817255" lon="22.979194">
        <ele>1198</ele>
        <time>2026-05-06T15:17:29.000Z</time>
      </trkpt>
      <trkpt lat="41.817265" lon="22.9792">
        <ele>1198</ele>
        <time>2026-05-06T15:17:30.000Z</time>
      </trkpt>
      <trkpt lat="41.817276" lon="22.979204">
        <ele>1198</ele>
        <time>2026-05-06T15:17:31.000Z</time>
      </trkpt>
      <trkpt lat="41.817287" lon="22.979209">
        <ele>1198</ele>
        <time>2026-05-06T15:17:32.000Z</time>
      </trkpt>
      <trkpt lat="41.817299" lon="22.979213">
        <ele>1198.7</ele>
        <time>2026-05-06T15:17:33.000Z</time>
      </trkpt>
      <trkpt lat="41.817311" lon="22.979218">
        <ele>1198.7</ele>
        <time>2026-05-06T15:17:34.000Z</time>
      </trkpt>
      <trkpt lat="41.817322" lon="22.979222">
        <ele>1198.7</ele>
        <time>2026-05-06T15:17:35.000Z</time>
      </trkpt>
      <trkpt lat="41.817334" lon="22.979227">
        <ele>1198.7</ele>
        <time>2026-05-06T15:17:36.000Z</time>
      </trkpt>
      <trkpt lat="41.817345" lon="22.979233">
        <ele>1198.7</ele>
        <time>2026-05-06T15:17:37.000Z</time>
      </trkpt>
      <trkpt lat="41.817355" lon="22.979241">
        <ele>1199.3</ele>
        <time>2026-05-06T15:17:38.000Z</time>
      </trkpt>
      <trkpt lat="41.817366" lon="22.979249">
        <ele>1199.3</ele>
        <time>2026-05-06T15:17:39.000Z</time>
      </trkpt>
      <trkpt lat="41.817375" lon="22.979256">
        <ele>1199.3</ele>
        <time>2026-05-06T15:17:40.000Z</time>
      </trkpt>
      <trkpt lat="41.817385" lon="22.979265">
        <ele>1199.3</ele>
        <time>2026-05-06T15:17:41.000Z</time>
      </trkpt>
      <trkpt lat="41.817394" lon="22.979272">
        <ele>1199.3</ele>
        <time>2026-05-06T15:17:42.000Z</time>
      </trkpt>
      <trkpt lat="41.817404" lon="22.979281">
        <ele>1199.5</ele>
        <time>2026-05-06T15:17:43.000Z</time>
      </trkpt>
      <trkpt lat="41.817414" lon="22.979291">
        <ele>1199.5</ele>
        <time>2026-05-06T15:17:44.000Z</time>
      </trkpt>
      <trkpt lat="41.817424" lon="22.979302">
        <ele>1199.5</ele>
        <time>2026-05-06T15:17:45.000Z</time>
      </trkpt>
      <trkpt lat="41.817434" lon="22.979313">
        <ele>1199.5</ele>
        <time>2026-05-06T15:17:46.000Z</time>
      </trkpt>
      <trkpt lat="41.817443" lon="22.979325">
        <ele>1199.5</ele>
        <time>2026-05-06T15:17:47.000Z</time>
      </trkpt>
      <trkpt lat="41.817452" lon="22.979336">
        <ele>1199.9</ele>
        <time>2026-05-06T15:17:48.000Z</time>
      </trkpt>
      <trkpt lat="41.817461" lon="22.979347">
        <ele>1199.9</ele>
        <time>2026-05-06T15:17:49.000Z</time>
      </trkpt>
      <trkpt lat="41.81747" lon="22.979358">
        <ele>1199.9</ele>
        <time>2026-05-06T15:17:50.000Z</time>
      </trkpt>
      <trkpt lat="41.817478" lon="22.979367">
        <ele>1199.9</ele>
        <time>2026-05-06T15:17:51.000Z</time>
      </trkpt>
      <trkpt lat="41.817486" lon="22.979376">
        <ele>1199.9</ele>
        <time>2026-05-06T15:17:52.000Z</time>
      </trkpt>
      <trkpt lat="41.817493" lon="22.979386">
        <ele>1200.4</ele>
        <time>2026-05-06T15:17:53.000Z</time>
      </trkpt>
      <trkpt lat="41.8175" lon="22.979395">
        <ele>1200.4</ele>
        <time>2026-05-06T15:17:54.000Z</time>
      </trkpt>
      <trkpt lat="41.817506" lon="22.979405">
        <ele>1200.4</ele>
        <time>2026-05-06T15:17:55.000Z</time>
      </trkpt>
      <trkpt lat="41.817513" lon="22.979415">
        <ele>1200.4</ele>
        <time>2026-05-06T15:17:56.000Z</time>
      </trkpt>
      <trkpt lat="41.81752" lon="22.979426">
        <ele>1200.4</ele>
        <time>2026-05-06T15:17:57.000Z</time>
      </trkpt>
      <trkpt lat="41.817527" lon="22.979437">
        <ele>1200.6</ele>
        <time>2026-05-06T15:17:58.000Z</time>
      </trkpt>
      <trkpt lat="41.817535" lon="22.979448">
        <ele>1200.6</ele>
        <time>2026-05-06T15:17:59.000Z</time>
      </trkpt>
      <trkpt lat="41.817542" lon="22.979459">
        <ele>1200.6</ele>
        <time>2026-05-06T15:18:00.000Z</time>
      </trkpt>
      <trkpt lat="41.817549" lon="22.979469">
        <ele>1200.6</ele>
        <time>2026-05-06T15:18:01.000Z</time>
      </trkpt>
      <trkpt lat="41.817555" lon="22.97948">
        <ele>1200.6</ele>
        <time>2026-05-06T15:18:02.000Z</time>
      </trkpt>
      <trkpt lat="41.817561" lon="22.979492">
        <ele>1200.9</ele>
        <time>2026-05-06T15:18:03.000Z</time>
      </trkpt>
      <trkpt lat="41.817566" lon="22.979503">
        <ele>1200.9</ele>
        <time>2026-05-06T15:18:04.000Z</time>
      </trkpt>
      <trkpt lat="41.817572" lon="22.979515">
        <ele>1200.9</ele>
        <time>2026-05-06T15:18:05.000Z</time>
      </trkpt>
      <trkpt lat="41.817578" lon="22.979527">
        <ele>1200.9</ele>
        <time>2026-05-06T15:18:06.000Z</time>
      </trkpt>
      <trkpt lat="41.817584" lon="22.97954">
        <ele>1200.9</ele>
        <time>2026-05-06T15:18:07.000Z</time>
      </trkpt>
      <trkpt lat="41.817591" lon="22.979553">
        <ele>1201.3</ele>
        <time>2026-05-06T15:18:08.000Z</time>
      </trkpt>
      <trkpt lat="41.817597" lon="22.979566">
        <ele>1201.3</ele>
        <time>2026-05-06T15:18:09.000Z</time>
      </trkpt>
      <trkpt lat="41.817603" lon="22.97958">
        <ele>1201.3</ele>
        <time>2026-05-06T15:18:10.000Z</time>
      </trkpt>
      <trkpt lat="41.817609" lon="22.979593">
        <ele>1201.3</ele>
        <time>2026-05-06T15:18:11.000Z</time>
      </trkpt>
      <trkpt lat="41.817615" lon="22.979606">
        <ele>1201.3</ele>
        <time>2026-05-06T15:18:12.000Z</time>
      </trkpt>
      <trkpt lat="41.817622" lon="22.97962">
        <ele>1201.5</ele>
        <time>2026-05-06T15:18:13.000Z</time>
      </trkpt>
      <trkpt lat="41.817627" lon="22.979634">
        <ele>1201.5</ele>
        <time>2026-05-06T15:18:14.000Z</time>
      </trkpt>
      <trkpt lat="41.817634" lon="22.979646">
        <ele>1201.5</ele>
        <time>2026-05-06T15:18:15.000Z</time>
      </trkpt>
      <trkpt lat="41.817639" lon="22.97966">
        <ele>1201.5</ele>
        <time>2026-05-06T15:18:16.000Z</time>
      </trkpt>
      <trkpt lat="41.817644" lon="22.979673">
        <ele>1201.5</ele>
        <time>2026-05-06T15:18:17.000Z</time>
      </trkpt>
      <trkpt lat="41.81765" lon="22.979685">
        <ele>1202.1</ele>
        <time>2026-05-06T15:18:18.000Z</time>
      </trkpt>
      <trkpt lat="41.817657" lon="22.979697">
        <ele>1202.1</ele>
        <time>2026-05-06T15:18:19.000Z</time>
      </trkpt>
      <trkpt lat="41.817664" lon="22.979708">
        <ele>1202.1</ele>
        <time>2026-05-06T15:18:20.000Z</time>
      </trkpt>
      <trkpt lat="41.817672" lon="22.97972">
        <ele>1202.1</ele>
        <time>2026-05-06T15:18:21.000Z</time>
      </trkpt>
      <trkpt lat="41.817679" lon="22.979732">
        <ele>1202.1</ele>
        <time>2026-05-06T15:18:22.000Z</time>
      </trkpt>
      <trkpt lat="41.817686" lon="22.979744">
        <ele>1202.7</ele>
        <time>2026-05-06T15:18:23.000Z</time>
      </trkpt>
      <trkpt lat="41.817693" lon="22.979757">
        <ele>1202.7</ele>
        <time>2026-05-06T15:18:24.000Z</time>
      </trkpt>
      <trkpt lat="41.817699" lon="22.979769">
        <ele>1202.7</ele>
        <time>2026-05-06T15:18:25.000Z</time>
      </trkpt>
      <trkpt lat="41.817705" lon="22.97978">
        <ele>1202.7</ele>
        <time>2026-05-06T15:18:26.000Z</time>
      </trkpt>
      <trkpt lat="41.817712" lon="22.979792">
        <ele>1202.7</ele>
        <time>2026-05-06T15:18:27.000Z</time>
      </trkpt>
      <trkpt lat="41.817718" lon="22.979803">
        <ele>1203.1</ele>
        <time>2026-05-06T15:18:28.000Z</time>
      </trkpt>
      <trkpt lat="41.817725" lon="22.979815">
        <ele>1203.1</ele>
        <time>2026-05-06T15:18:29.000Z</time>
      </trkpt>
      <trkpt lat="41.817731" lon="22.979826">
        <ele>1203.1</ele>
        <time>2026-05-06T15:18:30.000Z</time>
      </trkpt>
      <trkpt lat="41.817738" lon="22.979838">
        <ele>1203.1</ele>
        <time>2026-05-06T15:18:31.000Z</time>
      </trkpt>
      <trkpt lat="41.817745" lon="22.979849">
        <ele>1203.1</ele>
        <time>2026-05-06T15:18:32.000Z</time>
      </trkpt>
      <trkpt lat="41.817752" lon="22.97986">
        <ele>1203.7</ele>
        <time>2026-05-06T15:18:33.000Z</time>
      </trkpt>
      <trkpt lat="41.817761" lon="22.979869">
        <ele>1203.7</ele>
        <time>2026-05-06T15:18:34.000Z</time>
      </trkpt>
      <trkpt lat="41.817769" lon="22.97988">
        <ele>1203.7</ele>
        <time>2026-05-06T15:18:35.000Z</time>
      </trkpt>
      <trkpt lat="41.817778" lon="22.979891">
        <ele>1203.7</ele>
        <time>2026-05-06T15:18:36.000Z</time>
      </trkpt>
      <trkpt lat="41.817786" lon="22.979902">
        <ele>1203.7</ele>
        <time>2026-05-06T15:18:37.000Z</time>
      </trkpt>
      <trkpt lat="41.817794" lon="22.979913">
        <ele>1204.2</ele>
        <time>2026-05-06T15:18:38.000Z</time>
      </trkpt>
      <trkpt lat="41.817802" lon="22.979922">
        <ele>1204.2</ele>
        <time>2026-05-06T15:18:39.000Z</time>
      </trkpt>
      <trkpt lat="41.81781" lon="22.979931">
        <ele>1204.2</ele>
        <time>2026-05-06T15:18:40.000Z</time>
      </trkpt>
      <trkpt lat="41.817818" lon="22.979938">
        <ele>1204.2</ele>
        <time>2026-05-06T15:18:41.000Z</time>
      </trkpt>
      <trkpt lat="41.817826" lon="22.979945">
        <ele>1204.2</ele>
        <time>2026-05-06T15:18:42.000Z</time>
      </trkpt>
      <trkpt lat="41.817837" lon="22.979952">
        <ele>1204.5</ele>
        <time>2026-05-06T15:18:43.000Z</time>
      </trkpt>
      <trkpt lat="41.817846" lon="22.97996">
        <ele>1204.5</ele>
        <time>2026-05-06T15:18:44.000Z</time>
      </trkpt>
      <trkpt lat="41.817855" lon="22.979966">
        <ele>1204.5</ele>
        <time>2026-05-06T15:18:45.000Z</time>
      </trkpt>
      <trkpt lat="41.817865" lon="22.97997">
        <ele>1204.5</ele>
        <time>2026-05-06T15:18:46.000Z</time>
      </trkpt>
      <trkpt lat="41.817876" lon="22.979974">
        <ele>1204.5</ele>
        <time>2026-05-06T15:18:47.000Z</time>
      </trkpt>
      <trkpt lat="41.817887" lon="22.979977">
        <ele>1205</ele>
        <time>2026-05-06T15:18:48.000Z</time>
      </trkpt>
      <trkpt lat="41.817899" lon="22.979979">
        <ele>1205</ele>
        <time>2026-05-06T15:18:49.000Z</time>
      </trkpt>
      <trkpt lat="41.817911" lon="22.979983">
        <ele>1205</ele>
        <time>2026-05-06T15:18:50.000Z</time>
      </trkpt>
      <trkpt lat="41.817924" lon="22.979987">
        <ele>1205</ele>
        <time>2026-05-06T15:18:51.000Z</time>
      </trkpt>
      <trkpt lat="41.817935" lon="22.979992">
        <ele>1205</ele>
        <time>2026-05-06T15:18:52.000Z</time>
      </trkpt>
      <trkpt lat="41.817946" lon="22.979997">
        <ele>1205.5</ele>
        <time>2026-05-06T15:18:53.000Z</time>
      </trkpt>
      <trkpt lat="41.817958" lon="22.980002">
        <ele>1205.5</ele>
        <time>2026-05-06T15:18:54.000Z</time>
      </trkpt>
      <trkpt lat="41.817969" lon="22.980006">
        <ele>1205.5</ele>
        <time>2026-05-06T15:18:55.000Z</time>
      </trkpt>
      <trkpt lat="41.817981" lon="22.980009">
        <ele>1205.5</ele>
        <time>2026-05-06T15:18:56.000Z</time>
      </trkpt>
      <trkpt lat="41.817993" lon="22.980012">
        <ele>1205.5</ele>
        <time>2026-05-06T15:18:57.000Z</time>
      </trkpt>
      <trkpt lat="41.818004" lon="22.980014">
        <ele>1205.8</ele>
        <time>2026-05-06T15:18:58.000Z</time>
      </trkpt>
      <trkpt lat="41.818016" lon="22.980016">
        <ele>1205.8</ele>
        <time>2026-05-06T15:18:59.000Z</time>
      </trkpt>
      <trkpt lat="41.818027" lon="22.980017">
        <ele>1205.8</ele>
        <time>2026-05-06T15:19:00.000Z</time>
      </trkpt>
      <trkpt lat="41.818039" lon="22.980019">
        <ele>1205.8</ele>
        <time>2026-05-06T15:19:01.000Z</time>
      </trkpt>
      <trkpt lat="41.818051" lon="22.980022">
        <ele>1205.8</ele>
        <time>2026-05-06T15:19:02.000Z</time>
      </trkpt>
      <trkpt lat="41.818063" lon="22.980024">
        <ele>1206.3</ele>
        <time>2026-05-06T15:19:03.000Z</time>
      </trkpt>
      <trkpt lat="41.818075" lon="22.980026">
        <ele>1206.3</ele>
        <time>2026-05-06T15:19:04.000Z</time>
      </trkpt>
      <trkpt lat="41.818087" lon="22.980028">
        <ele>1206.3</ele>
        <time>2026-05-06T15:19:05.000Z</time>
      </trkpt>
      <trkpt lat="41.818099" lon="22.98003">
        <ele>1206.3</ele>
        <time>2026-05-06T15:19:06.000Z</time>
      </trkpt>
      <trkpt lat="41.818111" lon="22.980033">
        <ele>1206.3</ele>
        <time>2026-05-06T15:19:07.000Z</time>
      </trkpt>
      <trkpt lat="41.818123" lon="22.980034">
        <ele>1206.9</ele>
        <time>2026-05-06T15:19:08.000Z</time>
      </trkpt>
      <trkpt lat="41.818134" lon="22.980036">
        <ele>1206.9</ele>
        <time>2026-05-06T15:19:09.000Z</time>
      </trkpt>
      <trkpt lat="41.818145" lon="22.980039">
        <ele>1206.9</ele>
        <time>2026-05-06T15:19:10.000Z</time>
      </trkpt>
      <trkpt lat="41.818156" lon="22.980042">
        <ele>1206.9</ele>
        <time>2026-05-06T15:19:11.000Z</time>
      </trkpt>
      <trkpt lat="41.818168" lon="22.980046">
        <ele>1206.9</ele>
        <time>2026-05-06T15:19:12.000Z</time>
      </trkpt>
      <trkpt lat="41.818181" lon="22.980052">
        <ele>1207.1</ele>
        <time>2026-05-06T15:19:13.000Z</time>
      </trkpt>
      <trkpt lat="41.818194" lon="22.980057">
        <ele>1207.1</ele>
        <time>2026-05-06T15:19:14.000Z</time>
      </trkpt>
      <trkpt lat="41.818207" lon="22.980062">
        <ele>1207.1</ele>
        <time>2026-05-06T15:19:15.000Z</time>
      </trkpt>
      <trkpt lat="41.818219" lon="22.980067">
        <ele>1207.1</ele>
        <time>2026-05-06T15:19:16.000Z</time>
      </trkpt>
      <trkpt lat="41.818231" lon="22.980072">
        <ele>1207.1</ele>
        <time>2026-05-06T15:19:17.000Z</time>
      </trkpt>
      <trkpt lat="41.818243" lon="22.980077">
        <ele>1207.6</ele>
        <time>2026-05-06T15:19:18.000Z</time>
      </trkpt>
      <trkpt lat="41.818255" lon="22.980083">
        <ele>1207.6</ele>
        <time>2026-05-06T15:19:19.000Z</time>
      </trkpt>
      <trkpt lat="41.818267" lon="22.980088">
        <ele>1207.6</ele>
        <time>2026-05-06T15:19:20.000Z</time>
      </trkpt>
      <trkpt lat="41.818279" lon="22.980094">
        <ele>1207.6</ele>
        <time>2026-05-06T15:19:21.000Z</time>
      </trkpt>
      <trkpt lat="41.818291" lon="22.9801">
        <ele>1207.6</ele>
        <time>2026-05-06T15:19:22.000Z</time>
      </trkpt>
      <trkpt lat="41.818302" lon="22.980108">
        <ele>1207.9</ele>
        <time>2026-05-06T15:19:23.000Z</time>
      </trkpt>
      <trkpt lat="41.818313" lon="22.980117">
        <ele>1207.9</ele>
        <time>2026-05-06T15:19:24.000Z</time>
      </trkpt>
      <trkpt lat="41.818324" lon="22.980127">
        <ele>1207.9</ele>
        <time>2026-05-06T15:19:25.000Z</time>
      </trkpt>
      <trkpt lat="41.818335" lon="22.980136">
        <ele>1207.9</ele>
        <time>2026-05-06T15:19:26.000Z</time>
      </trkpt>
      <trkpt lat="41.818345" lon="22.980144">
        <ele>1207.9</ele>
        <time>2026-05-06T15:19:27.000Z</time>
      </trkpt>
      <trkpt lat="41.818355" lon="22.980151">
        <ele>1208.1</ele>
        <time>2026-05-06T15:19:28.000Z</time>
      </trkpt>
      <trkpt lat="41.818364" lon="22.980158">
        <ele>1208.1</ele>
        <time>2026-05-06T15:19:29.000Z</time>
      </trkpt>
      <trkpt lat="41.818374" lon="22.980166">
        <ele>1208.1</ele>
        <time>2026-05-06T15:19:30.000Z</time>
      </trkpt>
      <trkpt lat="41.818384" lon="22.980175">
        <ele>1208.1</ele>
        <time>2026-05-06T15:19:31.000Z</time>
      </trkpt>
      <trkpt lat="41.818394" lon="22.980184">
        <ele>1208.1</ele>
        <time>2026-05-06T15:19:32.000Z</time>
      </trkpt>
      <trkpt lat="41.818404" lon="22.980193">
        <ele>1208.6</ele>
        <time>2026-05-06T15:19:33.000Z</time>
      </trkpt>
      <trkpt lat="41.818414" lon="22.980202">
        <ele>1208.6</ele>
        <time>2026-05-06T15:19:34.000Z</time>
      </trkpt>
      <trkpt lat="41.818422" lon="22.980211">
        <ele>1208.6</ele>
        <time>2026-05-06T15:19:35.000Z</time>
      </trkpt>
      <trkpt lat="41.81843" lon="22.98022">
        <ele>1208.6</ele>
        <time>2026-05-06T15:19:36.000Z</time>
      </trkpt>
      <trkpt lat="41.818437" lon="22.980229">
        <ele>1208.6</ele>
        <time>2026-05-06T15:19:37.000Z</time>
      </trkpt>
      <trkpt lat="41.818445" lon="22.980239">
        <ele>1209</ele>
        <time>2026-05-06T15:19:38.000Z</time>
      </trkpt>
      <trkpt lat="41.818451" lon="22.980249">
        <ele>1209</ele>
        <time>2026-05-06T15:19:39.000Z</time>
      </trkpt>
      <trkpt lat="41.818457" lon="22.980258">
        <ele>1209</ele>
        <time>2026-05-06T15:19:40.000Z</time>
      </trkpt>
      <trkpt lat="41.818463" lon="22.980268">
        <ele>1209</ele>
        <time>2026-05-06T15:19:41.000Z</time>
      </trkpt>
      <trkpt lat="41.818468" lon="22.980277">
        <ele>1209</ele>
        <time>2026-05-06T15:19:42.000Z</time>
      </trkpt>
      <trkpt lat="41.818473" lon="22.980287">
        <ele>1209.2</ele>
        <time>2026-05-06T15:19:43.000Z</time>
      </trkpt>
      <trkpt lat="41.81848" lon="22.980296">
        <ele>1209.2</ele>
        <time>2026-05-06T15:19:44.000Z</time>
      </trkpt>
      <trkpt lat="41.818488" lon="22.980306">
        <ele>1209.2</ele>
        <time>2026-05-06T15:19:45.000Z</time>
      </trkpt>
      <trkpt lat="41.818497" lon="22.980315">
        <ele>1209.2</ele>
        <time>2026-05-06T15:19:46.000Z</time>
      </trkpt>
      <trkpt lat="41.818509" lon="22.980324">
        <ele>1209.2</ele>
        <time>2026-05-06T15:19:47.000Z</time>
      </trkpt>
      <trkpt lat="41.81852" lon="22.980333">
        <ele>1209.6</ele>
        <time>2026-05-06T15:19:48.000Z</time>
      </trkpt>
      <trkpt lat="41.818532" lon="22.980343">
        <ele>1209.6</ele>
        <time>2026-05-06T15:19:49.000Z</time>
      </trkpt>
      <trkpt lat="41.818544" lon="22.980353">
        <ele>1209.6</ele>
        <time>2026-05-06T15:19:50.000Z</time>
      </trkpt>
      <trkpt lat="41.818555" lon="22.980363">
        <ele>1209.6</ele>
        <time>2026-05-06T15:19:51.000Z</time>
      </trkpt>
      <trkpt lat="41.818565" lon="22.980374">
        <ele>1209.6</ele>
        <time>2026-05-06T15:19:52.000Z</time>
      </trkpt>
      <trkpt lat="41.818574" lon="22.980385">
        <ele>1210</ele>
        <time>2026-05-06T15:19:53.000Z</time>
      </trkpt>
      <trkpt lat="41.818583" lon="22.980395">
        <ele>1210</ele>
        <time>2026-05-06T15:19:54.000Z</time>
      </trkpt>
      <trkpt lat="41.818591" lon="22.980406">
        <ele>1210</ele>
        <time>2026-05-06T15:19:55.000Z</time>
      </trkpt>
      <trkpt lat="41.8186" lon="22.980418">
        <ele>1210</ele>
        <time>2026-05-06T15:19:56.000Z</time>
      </trkpt>
      <trkpt lat="41.818609" lon="22.980428">
        <ele>1210</ele>
        <time>2026-05-06T15:19:57.000Z</time>
      </trkpt>
      <trkpt lat="41.818619" lon="22.980438">
        <ele>1210.2</ele>
        <time>2026-05-06T15:19:58.000Z</time>
      </trkpt>
      <trkpt lat="41.818629" lon="22.980449">
        <ele>1210.2</ele>
        <time>2026-05-06T15:19:59.000Z</time>
      </trkpt>
      <trkpt lat="41.81864" lon="22.980458">
        <ele>1210.2</ele>
        <time>2026-05-06T15:20:00.000Z</time>
      </trkpt>
      <trkpt lat="41.818652" lon="22.980467">
        <ele>1210.2</ele>
        <time>2026-05-06T15:20:01.000Z</time>
      </trkpt>
      <trkpt lat="41.818662" lon="22.980476">
        <ele>1210.2</ele>
        <time>2026-05-06T15:20:02.000Z</time>
      </trkpt>
      <trkpt lat="41.818672" lon="22.980487">
        <ele>1210.6</ele>
        <time>2026-05-06T15:20:03.000Z</time>
      </trkpt>
      <trkpt lat="41.818683" lon="22.980498">
        <ele>1210.6</ele>
        <time>2026-05-06T15:20:04.000Z</time>
      </trkpt>
      <trkpt lat="41.818693" lon="22.980509">
        <ele>1210.6</ele>
        <time>2026-05-06T15:20:05.000Z</time>
      </trkpt>
      <trkpt lat="41.818704" lon="22.98052">
        <ele>1210.6</ele>
        <time>2026-05-06T15:20:06.000Z</time>
      </trkpt>
      <trkpt lat="41.818714" lon="22.980532">
        <ele>1210.6</ele>
        <time>2026-05-06T15:20:07.000Z</time>
      </trkpt>
      <trkpt lat="41.818724" lon="22.980542">
        <ele>1210.9</ele>
        <time>2026-05-06T15:20:08.000Z</time>
      </trkpt>
      <trkpt lat="41.818733" lon="22.980553">
        <ele>1210.9</ele>
        <time>2026-05-06T15:20:09.000Z</time>
      </trkpt>
      <trkpt lat="41.818741" lon="22.980563">
        <ele>1210.9</ele>
        <time>2026-05-06T15:20:10.000Z</time>
      </trkpt>
      <trkpt lat="41.81875" lon="22.980573">
        <ele>1210.9</ele>
        <time>2026-05-06T15:20:11.000Z</time>
      </trkpt>
      <trkpt lat="41.818759" lon="22.980583">
        <ele>1210.9</ele>
        <time>2026-05-06T15:20:12.000Z</time>
      </trkpt>
      <trkpt lat="41.818768" lon="22.980594">
        <ele>1211</ele>
        <time>2026-05-06T15:20:13.000Z</time>
      </trkpt>
      <trkpt lat="41.818776" lon="22.980603">
        <ele>1211</ele>
        <time>2026-05-06T15:20:14.000Z</time>
      </trkpt>
      <trkpt lat="41.818785" lon="22.980612">
        <ele>1211</ele>
        <time>2026-05-06T15:20:15.000Z</time>
      </trkpt>
      <trkpt lat="41.818793" lon="22.980621">
        <ele>1211</ele>
        <time>2026-05-06T15:20:16.000Z</time>
      </trkpt>
      <trkpt lat="41.818801" lon="22.98063">
        <ele>1211</ele>
        <time>2026-05-06T15:20:17.000Z</time>
      </trkpt>
      <trkpt lat="41.818811" lon="22.98064">
        <ele>1211.4</ele>
        <time>2026-05-06T15:20:18.000Z</time>
      </trkpt>
      <trkpt lat="41.818821" lon="22.98065">
        <ele>1211.4</ele>
        <time>2026-05-06T15:20:19.000Z</time>
      </trkpt>
      <trkpt lat="41.818831" lon="22.980659">
        <ele>1211.4</ele>
        <time>2026-05-06T15:20:20.000Z</time>
      </trkpt>
      <trkpt lat="41.818842" lon="22.980668">
        <ele>1211.4</ele>
        <time>2026-05-06T15:20:21.000Z</time>
      </trkpt>
      <trkpt lat="41.818852" lon="22.980675">
        <ele>1211.4</ele>
        <time>2026-05-06T15:20:22.000Z</time>
      </trkpt>
      <trkpt lat="41.818863" lon="22.980682">
        <ele>1211.7</ele>
        <time>2026-05-06T15:20:23.000Z</time>
      </trkpt>
      <trkpt lat="41.818873" lon="22.980688">
        <ele>1211.7</ele>
        <time>2026-05-06T15:20:24.000Z</time>
      </trkpt>
      <trkpt lat="41.818884" lon="22.980693">
        <ele>1211.7</ele>
        <time>2026-05-06T15:20:25.000Z</time>
      </trkpt>
      <trkpt lat="41.818895" lon="22.980699">
        <ele>1211.7</ele>
        <time>2026-05-06T15:20:26.000Z</time>
      </trkpt>
      <trkpt lat="41.818905" lon="22.980704">
        <ele>1211.7</ele>
        <time>2026-05-06T15:20:27.000Z</time>
      </trkpt>
      <trkpt lat="41.818916" lon="22.980709">
        <ele>1211.9</ele>
        <time>2026-05-06T15:20:28.000Z</time>
      </trkpt>
      <trkpt lat="41.818927" lon="22.980714">
        <ele>1211.9</ele>
        <time>2026-05-06T15:20:29.000Z</time>
      </trkpt>
      <trkpt lat="41.818939" lon="22.980719">
        <ele>1211.9</ele>
        <time>2026-05-06T15:20:30.000Z</time>
      </trkpt>
      <trkpt lat="41.818952" lon="22.980724">
        <ele>1211.9</ele>
        <time>2026-05-06T15:20:31.000Z</time>
      </trkpt>
      <trkpt lat="41.818965" lon="22.980729">
        <ele>1211.9</ele>
        <time>2026-05-06T15:20:32.000Z</time>
      </trkpt>
      <trkpt lat="41.818978" lon="22.980733">
        <ele>1212.2</ele>
        <time>2026-05-06T15:20:33.000Z</time>
      </trkpt>
      <trkpt lat="41.81899" lon="22.980737">
        <ele>1212.2</ele>
        <time>2026-05-06T15:20:34.000Z</time>
      </trkpt>
      <trkpt lat="41.819002" lon="22.980742">
        <ele>1212.2</ele>
        <time>2026-05-06T15:20:35.000Z</time>
      </trkpt>
      <trkpt lat="41.819014" lon="22.980746">
        <ele>1212.2</ele>
        <time>2026-05-06T15:20:36.000Z</time>
      </trkpt>
      <trkpt lat="41.819026" lon="22.980751">
        <ele>1212.2</ele>
        <time>2026-05-06T15:20:37.000Z</time>
      </trkpt>
      <trkpt lat="41.819038" lon="22.980755">
        <ele>1212.4</ele>
        <time>2026-05-06T15:20:38.000Z</time>
      </trkpt>
      <trkpt lat="41.81905" lon="22.980759">
        <ele>1212.4</ele>
        <time>2026-05-06T15:20:39.000Z</time>
      </trkpt>
      <trkpt lat="41.819061" lon="22.980761">
        <ele>1212.4</ele>
        <time>2026-05-06T15:20:40.000Z</time>
      </trkpt>
      <trkpt lat="41.819073" lon="22.980763">
        <ele>1212.4</ele>
        <time>2026-05-06T15:20:41.000Z</time>
      </trkpt>
      <trkpt lat="41.819084" lon="22.980767">
        <ele>1212.4</ele>
        <time>2026-05-06T15:20:42.000Z</time>
      </trkpt>
      <trkpt lat="41.819097" lon="22.980771">
        <ele>1212.6</ele>
        <time>2026-05-06T15:20:43.000Z</time>
      </trkpt>
      <trkpt lat="41.819109" lon="22.980775">
        <ele>1212.6</ele>
        <time>2026-05-06T15:20:44.000Z</time>
      </trkpt>
      <trkpt lat="41.819122" lon="22.980778">
        <ele>1212.6</ele>
        <time>2026-05-06T15:20:45.000Z</time>
      </trkpt>
      <trkpt lat="41.819134" lon="22.980781">
        <ele>1212.6</ele>
        <time>2026-05-06T15:20:46.000Z</time>
      </trkpt>
      <trkpt lat="41.819146" lon="22.980782">
        <ele>1212.6</ele>
        <time>2026-05-06T15:20:47.000Z</time>
      </trkpt>
      <trkpt lat="41.819157" lon="22.980785">
        <ele>1213.1</ele>
        <time>2026-05-06T15:20:48.000Z</time>
      </trkpt>
      <trkpt lat="41.819169" lon="22.980788">
        <ele>1213.1</ele>
        <time>2026-05-06T15:20:49.000Z</time>
      </trkpt>
      <trkpt lat="41.819181" lon="22.980792">
        <ele>1213.1</ele>
        <time>2026-05-06T15:20:50.000Z</time>
      </trkpt>
      <trkpt lat="41.819193" lon="22.980796">
        <ele>1213.1</ele>
        <time>2026-05-06T15:20:51.000Z</time>
      </trkpt>
      <trkpt lat="41.819204" lon="22.980799">
        <ele>1213.1</ele>
        <time>2026-05-06T15:20:52.000Z</time>
      </trkpt>
      <trkpt lat="41.819215" lon="22.9808">
        <ele>1213.8</ele>
        <time>2026-05-06T15:20:53.000Z</time>
      </trkpt>
      <trkpt lat="41.819226" lon="22.980802">
        <ele>1213.8</ele>
        <time>2026-05-06T15:20:54.000Z</time>
      </trkpt>
      <trkpt lat="41.819237" lon="22.980803">
        <ele>1213.8</ele>
        <time>2026-05-06T15:20:55.000Z</time>
      </trkpt>
      <trkpt lat="41.81925" lon="22.980805">
        <ele>1213.8</ele>
        <time>2026-05-06T15:20:56.000Z</time>
      </trkpt>
      <trkpt lat="41.819263" lon="22.980808">
        <ele>1213.8</ele>
        <time>2026-05-06T15:20:57.000Z</time>
      </trkpt>
      <trkpt lat="41.819276" lon="22.980811">
        <ele>1214.2</ele>
        <time>2026-05-06T15:20:58.000Z</time>
      </trkpt>
      <trkpt lat="41.819288" lon="22.980814">
        <ele>1214.2</ele>
        <time>2026-05-06T15:20:59.000Z</time>
      </trkpt>
      <trkpt lat="41.819299" lon="22.980818">
        <ele>1214.2</ele>
        <time>2026-05-06T15:21:00.000Z</time>
      </trkpt>
      <trkpt lat="41.81931" lon="22.980822">
        <ele>1214.2</ele>
        <time>2026-05-06T15:21:01.000Z</time>
      </trkpt>
      <trkpt lat="41.819321" lon="22.980826">
        <ele>1214.2</ele>
        <time>2026-05-06T15:21:02.000Z</time>
      </trkpt>
      <trkpt lat="41.819331" lon="22.980831">
        <ele>1214.8</ele>
        <time>2026-05-06T15:21:03.000Z</time>
      </trkpt>
      <trkpt lat="41.819343" lon="22.980838">
        <ele>1214.8</ele>
        <time>2026-05-06T15:21:04.000Z</time>
      </trkpt>
      <trkpt lat="41.819353" lon="22.980844">
        <ele>1214.8</ele>
        <time>2026-05-06T15:21:05.000Z</time>
      </trkpt>
      <trkpt lat="41.819363" lon="22.980851">
        <ele>1214.8</ele>
        <time>2026-05-06T15:21:06.000Z</time>
      </trkpt>
      <trkpt lat="41.819374" lon="22.980859">
        <ele>1214.8</ele>
        <time>2026-05-06T15:21:07.000Z</time>
      </trkpt>
      <trkpt lat="41.819384" lon="22.980866">
        <ele>1215.4</ele>
        <time>2026-05-06T15:21:08.000Z</time>
      </trkpt>
      <trkpt lat="41.819395" lon="22.980875">
        <ele>1215.4</ele>
        <time>2026-05-06T15:21:09.000Z</time>
      </trkpt>
      <trkpt lat="41.819407" lon="22.980883">
        <ele>1215.4</ele>
        <time>2026-05-06T15:21:10.000Z</time>
      </trkpt>
      <trkpt lat="41.819418" lon="22.980891">
        <ele>1215.4</ele>
        <time>2026-05-06T15:21:11.000Z</time>
      </trkpt>
      <trkpt lat="41.819428" lon="22.980898">
        <ele>1215.4</ele>
        <time>2026-05-06T15:21:12.000Z</time>
      </trkpt>
      <trkpt lat="41.819439" lon="22.980905">
        <ele>1215.6</ele>
        <time>2026-05-06T15:21:13.000Z</time>
      </trkpt>
      <trkpt lat="41.819449" lon="22.980912">
        <ele>1215.6</ele>
        <time>2026-05-06T15:21:14.000Z</time>
      </trkpt>
      <trkpt lat="41.819459" lon="22.980919">
        <ele>1215.6</ele>
        <time>2026-05-06T15:21:15.000Z</time>
      </trkpt>
      <trkpt lat="41.81947" lon="22.980927">
        <ele>1215.6</ele>
        <time>2026-05-06T15:21:16.000Z</time>
      </trkpt>
      <trkpt lat="41.81948" lon="22.980935">
        <ele>1215.6</ele>
        <time>2026-05-06T15:21:17.000Z</time>
      </trkpt>
      <trkpt lat="41.819491" lon="22.980942">
        <ele>1216.2</ele>
        <time>2026-05-06T15:21:18.000Z</time>
      </trkpt>
      <trkpt lat="41.819502" lon="22.980949">
        <ele>1216.2</ele>
        <time>2026-05-06T15:21:19.000Z</time>
      </trkpt>
      <trkpt lat="41.819513" lon="22.980957">
        <ele>1216.2</ele>
        <time>2026-05-06T15:21:20.000Z</time>
      </trkpt>
      <trkpt lat="41.819524" lon="22.980963">
        <ele>1216.2</ele>
        <time>2026-05-06T15:21:21.000Z</time>
      </trkpt>
      <trkpt lat="41.819536" lon="22.98097">
        <ele>1216.2</ele>
        <time>2026-05-06T15:21:22.000Z</time>
      </trkpt>
      <trkpt lat="41.819547" lon="22.980976">
        <ele>1216.8</ele>
        <time>2026-05-06T15:21:23.000Z</time>
      </trkpt>
      <trkpt lat="41.819558" lon="22.980981">
        <ele>1216.8</ele>
        <time>2026-05-06T15:21:24.000Z</time>
      </trkpt>
      <trkpt lat="41.81957" lon="22.980987">
        <ele>1216.8</ele>
        <time>2026-05-06T15:21:25.000Z</time>
      </trkpt>
      <trkpt lat="41.819581" lon="22.980993">
        <ele>1216.8</ele>
        <time>2026-05-06T15:21:26.000Z</time>
      </trkpt>
      <trkpt lat="41.819592" lon="22.981">
        <ele>1216.8</ele>
        <time>2026-05-06T15:21:27.000Z</time>
      </trkpt>
      <trkpt lat="41.819605" lon="22.981008">
        <ele>1217.2</ele>
        <time>2026-05-06T15:21:28.000Z</time>
      </trkpt>
      <trkpt lat="41.819617" lon="22.981015">
        <ele>1217.2</ele>
        <time>2026-05-06T15:21:29.000Z</time>
      </trkpt>
      <trkpt lat="41.819629" lon="22.981022">
        <ele>1217.2</ele>
        <time>2026-05-06T15:21:30.000Z</time>
      </trkpt>
      <trkpt lat="41.819641" lon="22.981029">
        <ele>1217.2</ele>
        <time>2026-05-06T15:21:31.000Z</time>
      </trkpt>
      <trkpt lat="41.819652" lon="22.981035">
        <ele>1217.2</ele>
        <time>2026-05-06T15:21:32.000Z</time>
      </trkpt>
      <trkpt lat="41.819663" lon="22.981042">
        <ele>1217.9</ele>
        <time>2026-05-06T15:21:33.000Z</time>
      </trkpt>
      <trkpt lat="41.819673" lon="22.98105">
        <ele>1217.9</ele>
        <time>2026-05-06T15:21:34.000Z</time>
      </trkpt>
      <trkpt lat="41.819684" lon="22.981058">
        <ele>1217.9</ele>
        <time>2026-05-06T15:21:35.000Z</time>
      </trkpt>
      <trkpt lat="41.819695" lon="22.981066">
        <ele>1217.9</ele>
        <time>2026-05-06T15:21:36.000Z</time>
      </trkpt>
      <trkpt lat="41.819706" lon="22.981074">
        <ele>1217.9</ele>
        <time>2026-05-06T15:21:37.000Z</time>
      </trkpt>
      <trkpt lat="41.819718" lon="22.981082">
        <ele>1218.8</ele>
        <time>2026-05-06T15:21:38.000Z</time>
      </trkpt>
      <trkpt lat="41.81973" lon="22.98109">
        <ele>1218.8</ele>
        <time>2026-05-06T15:21:39.000Z</time>
      </trkpt>
      <trkpt lat="41.819742" lon="22.981098">
        <ele>1218.8</ele>
        <time>2026-05-06T15:21:40.000Z</time>
      </trkpt>
      <trkpt lat="41.819753" lon="22.981107">
        <ele>1218.8</ele>
        <time>2026-05-06T15:21:41.000Z</time>
      </trkpt>
      <trkpt lat="41.819765" lon="22.981117">
        <ele>1218.8</ele>
        <time>2026-05-06T15:21:42.000Z</time>
      </trkpt>
      <trkpt lat="41.819775" lon="22.981128">
        <ele>1219.1</ele>
        <time>2026-05-06T15:21:43.000Z</time>
      </trkpt>
      <trkpt lat="41.819786" lon="22.981138">
        <ele>1219.1</ele>
        <time>2026-05-06T15:21:44.000Z</time>
      </trkpt>
      <trkpt lat="41.819795" lon="22.98115">
        <ele>1219.1</ele>
        <time>2026-05-06T15:21:45.000Z</time>
      </trkpt>
      <trkpt lat="41.819803" lon="22.981161">
        <ele>1219.1</ele>
        <time>2026-05-06T15:21:46.000Z</time>
      </trkpt>
      <trkpt lat="41.81981" lon="22.981174">
        <ele>1219.1</ele>
        <time>2026-05-06T15:21:47.000Z</time>
      </trkpt>
      <trkpt lat="41.819818" lon="22.981188">
        <ele>1219.9</ele>
        <time>2026-05-06T15:21:48.000Z</time>
      </trkpt>
      <trkpt lat="41.819825" lon="22.981203">
        <ele>1219.9</ele>
        <time>2026-05-06T15:21:49.000Z</time>
      </trkpt>
      <trkpt lat="41.819832" lon="22.981219">
        <ele>1219.9</ele>
        <time>2026-05-06T15:21:50.000Z</time>
      </trkpt>
      <trkpt lat="41.81984" lon="22.981235">
        <ele>1219.9</ele>
        <time>2026-05-06T15:21:51.000Z</time>
      </trkpt>
      <trkpt lat="41.819848" lon="22.981251">
        <ele>1219.9</ele>
        <time>2026-05-06T15:21:52.000Z</time>
      </trkpt>
      <trkpt lat="41.819856" lon="22.981267">
        <ele>1220.6</ele>
        <time>2026-05-06T15:21:53.000Z</time>
      </trkpt>
      <trkpt lat="41.819865" lon="22.981284">
        <ele>1220.6</ele>
        <time>2026-05-06T15:21:54.000Z</time>
      </trkpt>
      <trkpt lat="41.819873" lon="22.981302">
        <ele>1220.6</ele>
        <time>2026-05-06T15:21:55.000Z</time>
      </trkpt>
      <trkpt lat="41.819881" lon="22.98132">
        <ele>1220.6</ele>
        <time>2026-05-06T15:21:56.000Z</time>
      </trkpt>
      <trkpt lat="41.819889" lon="22.981339">
        <ele>1220.6</ele>
        <time>2026-05-06T15:21:57.000Z</time>
      </trkpt>
      <trkpt lat="41.819897" lon="22.981355">
        <ele>1220.9</ele>
        <time>2026-05-06T15:21:58.000Z</time>
      </trkpt>
      <trkpt lat="41.819903" lon="22.981369">
        <ele>1220.9</ele>
        <time>2026-05-06T15:21:59.000Z</time>
      </trkpt>
      <trkpt lat="41.81991" lon="22.981383">
        <ele>1220.9</ele>
        <time>2026-05-06T15:22:00.000Z</time>
      </trkpt>
      <trkpt lat="41.819916" lon="22.981397">
        <ele>1220.9</ele>
        <time>2026-05-06T15:22:01.000Z</time>
      </trkpt>
      <trkpt lat="41.819921" lon="22.981411">
        <ele>1220.9</ele>
        <time>2026-05-06T15:22:02.000Z</time>
      </trkpt>
      <trkpt lat="41.819925" lon="22.981427">
        <ele>1221.6</ele>
        <time>2026-05-06T15:22:03.000Z</time>
      </trkpt>
      <trkpt lat="41.81993" lon="22.981444">
        <ele>1221.6</ele>
        <time>2026-05-06T15:22:04.000Z</time>
      </trkpt>
      <trkpt lat="41.819934" lon="22.98146">
        <ele>1221.6</ele>
        <time>2026-05-06T15:22:05.000Z</time>
      </trkpt>
      <trkpt lat="41.819939" lon="22.981476">
        <ele>1221.6</ele>
        <time>2026-05-06T15:22:06.000Z</time>
      </trkpt>
      <trkpt lat="41.819944" lon="22.981493">
        <ele>1221.6</ele>
        <time>2026-05-06T15:22:07.000Z</time>
      </trkpt>
      <trkpt lat="41.81995" lon="22.981509">
        <ele>1222.4</ele>
        <time>2026-05-06T15:22:08.000Z</time>
      </trkpt>
      <trkpt lat="41.819955" lon="22.981525">
        <ele>1222.4</ele>
        <time>2026-05-06T15:22:09.000Z</time>
      </trkpt>
      <trkpt lat="41.819961" lon="22.981542">
        <ele>1222.4</ele>
        <time>2026-05-06T15:22:10.000Z</time>
      </trkpt>
      <trkpt lat="41.819965" lon="22.981558">
        <ele>1222.4</ele>
        <time>2026-05-06T15:22:11.000Z</time>
      </trkpt>
      <trkpt lat="41.819969" lon="22.981572">
        <ele>1222.4</ele>
        <time>2026-05-06T15:22:12.000Z</time>
      </trkpt>
      <trkpt lat="41.819973" lon="22.981587">
        <ele>1222.8</ele>
        <time>2026-05-06T15:22:13.000Z</time>
      </trkpt>
      <trkpt lat="41.819976" lon="22.981601">
        <ele>1222.8</ele>
        <time>2026-05-06T15:22:14.000Z</time>
      </trkpt>
      <trkpt lat="41.819979" lon="22.981613">
        <ele>1222.8</ele>
        <time>2026-05-06T15:22:15.000Z</time>
      </trkpt>
      <trkpt lat="41.819981" lon="22.981627">
        <ele>1222.8</ele>
        <time>2026-05-06T15:22:16.000Z</time>
      </trkpt>
      <trkpt lat="41.819983" lon="22.981641">
        <ele>1222.8</ele>
        <time>2026-05-06T15:22:17.000Z</time>
      </trkpt>
      <trkpt lat="41.819983" lon="22.981655">
        <ele>1223.6</ele>
        <time>2026-05-06T15:22:18.000Z</time>
      </trkpt>
      <trkpt lat="41.819982" lon="22.981671">
        <ele>1223.6</ele>
        <time>2026-05-06T15:22:19.000Z</time>
      </trkpt>
      <trkpt lat="41.819981" lon="22.981688">
        <ele>1223.6</ele>
        <time>2026-05-06T15:22:20.000Z</time>
      </trkpt>
      <trkpt lat="41.81998" lon="22.981705">
        <ele>1223.6</ele>
        <time>2026-05-06T15:22:21.000Z</time>
      </trkpt>
      <trkpt lat="41.819979" lon="22.981723">
        <ele>1223.6</ele>
        <time>2026-05-06T15:22:22.000Z</time>
      </trkpt>
      <trkpt lat="41.819978" lon="22.981741">
        <ele>1224.4</ele>
        <time>2026-05-06T15:22:23.000Z</time>
      </trkpt>
      <trkpt lat="41.819978" lon="22.98176">
        <ele>1224.4</ele>
        <time>2026-05-06T15:22:24.000Z</time>
      </trkpt>
      <trkpt lat="41.819978" lon="22.98178">
        <ele>1224.4</ele>
        <time>2026-05-06T15:22:25.000Z</time>
      </trkpt>
      <trkpt lat="41.819978" lon="22.981798">
        <ele>1224.4</ele>
        <time>2026-05-06T15:22:26.000Z</time>
      </trkpt>
      <trkpt lat="41.819977" lon="22.981816">
        <ele>1224.4</ele>
        <time>2026-05-06T15:22:27.000Z</time>
      </trkpt>
      <trkpt lat="41.819977" lon="22.981832">
        <ele>1224.7</ele>
        <time>2026-05-06T15:22:28.000Z</time>
      </trkpt>
      <trkpt lat="41.819977" lon="22.981849">
        <ele>1224.7</ele>
        <time>2026-05-06T15:22:29.000Z</time>
      </trkpt>
      <trkpt lat="41.819977" lon="22.981866">
        <ele>1224.7</ele>
        <time>2026-05-06T15:22:30.000Z</time>
      </trkpt>
      <trkpt lat="41.819978" lon="22.981883">
        <ele>1224.7</ele>
        <time>2026-05-06T15:22:31.000Z</time>
      </trkpt>
      <trkpt lat="41.819977" lon="22.981901">
        <ele>1224.7</ele>
        <time>2026-05-06T15:22:32.000Z</time>
      </trkpt>
      <trkpt lat="41.819977" lon="22.981919">
        <ele>1225.3</ele>
        <time>2026-05-06T15:22:33.000Z</time>
      </trkpt>
      <trkpt lat="41.819976" lon="22.981937">
        <ele>1225.3</ele>
        <time>2026-05-06T15:22:34.000Z</time>
      </trkpt>
      <trkpt lat="41.819976" lon="22.981953">
        <ele>1225.3</ele>
        <time>2026-05-06T15:22:35.000Z</time>
      </trkpt>
      <trkpt lat="41.819976" lon="22.98197">
        <ele>1225.3</ele>
        <time>2026-05-06T15:22:36.000Z</time>
      </trkpt>
      <trkpt lat="41.819976" lon="22.981987">
        <ele>1225.3</ele>
        <time>2026-05-06T15:22:37.000Z</time>
      </trkpt>
      <trkpt lat="41.819978" lon="22.982005">
        <ele>1225.9</ele>
        <time>2026-05-06T15:22:38.000Z</time>
      </trkpt>
      <trkpt lat="41.819978" lon="22.982023">
        <ele>1225.9</ele>
        <time>2026-05-06T15:22:39.000Z</time>
      </trkpt>
      <trkpt lat="41.819979" lon="22.982041">
        <ele>1225.9</ele>
        <time>2026-05-06T15:22:40.000Z</time>
      </trkpt>
      <trkpt lat="41.81998" lon="22.982059">
        <ele>1225.9</ele>
        <time>2026-05-06T15:22:41.000Z</time>
      </trkpt>
      <trkpt lat="41.81998" lon="22.982076">
        <ele>1225.9</ele>
        <time>2026-05-06T15:22:42.000Z</time>
      </trkpt>
      <trkpt lat="41.81998" lon="22.982092">
        <ele>1226.3</ele>
        <time>2026-05-06T15:22:43.000Z</time>
      </trkpt>
      <trkpt lat="41.819981" lon="22.982108">
        <ele>1226.3</ele>
        <time>2026-05-06T15:22:44.000Z</time>
      </trkpt>
      <trkpt lat="41.819981" lon="22.982124">
        <ele>1226.3</ele>
        <time>2026-05-06T15:22:45.000Z</time>
      </trkpt>
      <trkpt lat="41.819981" lon="22.982142">
        <ele>1226.3</ele>
        <time>2026-05-06T15:22:46.000Z</time>
      </trkpt>
      <trkpt lat="41.819982" lon="22.982159">
        <ele>1226.3</ele>
        <time>2026-05-06T15:22:47.000Z</time>
      </trkpt>
      <trkpt lat="41.819983" lon="22.982178">
        <ele>1227.1</ele>
        <time>2026-05-06T15:22:48.000Z</time>
      </trkpt>
      <trkpt lat="41.819984" lon="22.982196">
        <ele>1227.1</ele>
        <time>2026-05-06T15:22:49.000Z</time>
      </trkpt>
      <trkpt lat="41.819986" lon="22.982214">
        <ele>1227.1</ele>
        <time>2026-05-06T15:22:50.000Z</time>
      </trkpt>
      <trkpt lat="41.819987" lon="22.982232">
        <ele>1227.1</ele>
        <time>2026-05-06T15:22:51.000Z</time>
      </trkpt>
      <trkpt lat="41.819989" lon="22.982249">
        <ele>1227.1</ele>
        <time>2026-05-06T15:22:52.000Z</time>
      </trkpt>
      <trkpt lat="41.81999" lon="22.982266">
        <ele>1227.9</ele>
        <time>2026-05-06T15:22:53.000Z</time>
      </trkpt>
      <trkpt lat="41.819993" lon="22.982284">
        <ele>1227.9</ele>
        <time>2026-05-06T15:22:54.000Z</time>
      </trkpt>
      <trkpt lat="41.819993" lon="22.982301">
        <ele>1227.9</ele>
        <time>2026-05-06T15:22:55.000Z</time>
      </trkpt>
      <trkpt lat="41.819993" lon="22.982317">
        <ele>1227.9</ele>
        <time>2026-05-06T15:22:56.000Z</time>
      </trkpt>
      <trkpt lat="41.819992" lon="22.982334">
        <ele>1227.9</ele>
        <time>2026-05-06T15:22:57.000Z</time>
      </trkpt>
      <trkpt lat="41.819991" lon="22.98235">
        <ele>1228.3</ele>
        <time>2026-05-06T15:22:58.000Z</time>
      </trkpt>
      <trkpt lat="41.819989" lon="22.982366">
        <ele>1228.3</ele>
        <time>2026-05-06T15:22:59.000Z</time>
      </trkpt>
      <trkpt lat="41.819986" lon="22.982382">
        <ele>1228.3</ele>
        <time>2026-05-06T15:23:00.000Z</time>
      </trkpt>
      <trkpt lat="41.819984" lon="22.982398">
        <ele>1228.3</ele>
        <time>2026-05-06T15:23:01.000Z</time>
      </trkpt>
      <trkpt lat="41.819981" lon="22.982414">
        <ele>1228.3</ele>
        <time>2026-05-06T15:23:02.000Z</time>
      </trkpt>
      <trkpt lat="41.819979" lon="22.982429">
        <ele>1229.1</ele>
        <time>2026-05-06T15:23:03.000Z</time>
      </trkpt>
      <trkpt lat="41.819976" lon="22.982443">
        <ele>1229.1</ele>
        <time>2026-05-06T15:23:04.000Z</time>
      </trkpt>
      <trkpt lat="41.819974" lon="22.982456">
        <ele>1229.1</ele>
        <time>2026-05-06T15:23:05.000Z</time>
      </trkpt>
      <trkpt lat="41.819973" lon="22.982471">
        <ele>1229.1</ele>
        <time>2026-05-06T15:23:06.000Z</time>
      </trkpt>
      <trkpt lat="41.819972" lon="22.982487">
        <ele>1229.1</ele>
        <time>2026-05-06T15:23:07.000Z</time>
      </trkpt>
      <trkpt lat="41.81997" lon="22.982506">
        <ele>1230.1</ele>
        <time>2026-05-06T15:23:08.000Z</time>
      </trkpt>
      <trkpt lat="41.81997" lon="22.982524">
        <ele>1230.1</ele>
        <time>2026-05-06T15:23:09.000Z</time>
      </trkpt>
      <trkpt lat="41.819969" lon="22.982543">
        <ele>1230.1</ele>
        <time>2026-05-06T15:23:10.000Z</time>
      </trkpt>
      <trkpt lat="41.819968" lon="22.982559">
        <ele>1230.1</ele>
        <time>2026-05-06T15:23:11.000Z</time>
      </trkpt>
      <trkpt lat="41.819967" lon="22.982575">
        <ele>1230.1</ele>
        <time>2026-05-06T15:23:12.000Z</time>
      </trkpt>
      <trkpt lat="41.819967" lon="22.98259">
        <ele>1230.7</ele>
        <time>2026-05-06T15:23:13.000Z</time>
      </trkpt>
      <trkpt lat="41.819966" lon="22.982606">
        <ele>1230.7</ele>
        <time>2026-05-06T15:23:14.000Z</time>
      </trkpt>
      <trkpt lat="41.819964" lon="22.982623">
        <ele>1230.7</ele>
        <time>2026-05-06T15:23:15.000Z</time>
      </trkpt>
      <trkpt lat="41.819962" lon="22.98264">
        <ele>1230.7</ele>
        <time>2026-05-06T15:23:16.000Z</time>
      </trkpt>
      <trkpt lat="41.819961" lon="22.982657">
        <ele>1230.7</ele>
        <time>2026-05-06T15:23:17.000Z</time>
      </trkpt>
      <trkpt lat="41.819959" lon="22.982673">
        <ele>1231.5</ele>
        <time>2026-05-06T15:23:18.000Z</time>
      </trkpt>
      <trkpt lat="41.819959" lon="22.982688">
        <ele>1231.5</ele>
        <time>2026-05-06T15:23:19.000Z</time>
      </trkpt>
      <trkpt lat="41.819958" lon="22.982704">
        <ele>1231.5</ele>
        <time>2026-05-06T15:23:20.000Z</time>
      </trkpt>
      <trkpt lat="41.819957" lon="22.982721">
        <ele>1231.5</ele>
        <time>2026-05-06T15:23:21.000Z</time>
      </trkpt>
      <trkpt lat="41.819956" lon="22.982738">
        <ele>1231.5</ele>
        <time>2026-05-06T15:23:22.000Z</time>
      </trkpt>
      <trkpt lat="41.819954" lon="22.982756">
        <ele>1232.1</ele>
        <time>2026-05-06T15:23:23.000Z</time>
      </trkpt>
      <trkpt lat="41.819953" lon="22.982774">
        <ele>1232.1</ele>
        <time>2026-05-06T15:23:24.000Z</time>
      </trkpt>
      <trkpt lat="41.819952" lon="22.982791">
        <ele>1232.1</ele>
        <time>2026-05-06T15:23:25.000Z</time>
      </trkpt>
      <trkpt lat="41.819952" lon="22.982807">
        <ele>1232.1</ele>
        <time>2026-05-06T15:23:26.000Z</time>
      </trkpt>
      <trkpt lat="41.819953" lon="22.982822">
        <ele>1232.1</ele>
        <time>2026-05-06T15:23:27.000Z</time>
      </trkpt>
      <trkpt lat="41.819954" lon="22.982838">
        <ele>1232.3</ele>
        <time>2026-05-06T15:23:28.000Z</time>
      </trkpt>
      <trkpt lat="41.819955" lon="22.982856">
        <ele>1232.3</ele>
        <time>2026-05-06T15:23:29.000Z</time>
      </trkpt>
      <trkpt lat="41.819956" lon="22.982874">
        <ele>1232.3</ele>
        <time>2026-05-06T15:23:30.000Z</time>
      </trkpt>
      <trkpt lat="41.819956" lon="22.982893">
        <ele>1232.3</ele>
        <time>2026-05-06T15:23:31.000Z</time>
      </trkpt>
      <trkpt lat="41.819956" lon="22.982913">
        <ele>1232.3</ele>
        <time>2026-05-06T15:23:32.000Z</time>
      </trkpt>
      <trkpt lat="41.819955" lon="22.982933">
        <ele>1233</ele>
        <time>2026-05-06T15:23:33.000Z</time>
      </trkpt>
      <trkpt lat="41.819954" lon="22.982951">
        <ele>1233</ele>
        <time>2026-05-06T15:23:34.000Z</time>
      </trkpt>
      <trkpt lat="41.819953" lon="22.982971">
        <ele>1233</ele>
        <time>2026-05-06T15:23:35.000Z</time>
      </trkpt>
      <trkpt lat="41.819952" lon="22.98299">
        <ele>1233</ele>
        <time>2026-05-06T15:23:36.000Z</time>
      </trkpt>
      <trkpt lat="41.819951" lon="22.983009">
        <ele>1233</ele>
        <time>2026-05-06T15:23:37.000Z</time>
      </trkpt>
      <trkpt lat="41.819949" lon="22.983028">
        <ele>1233.6</ele>
        <time>2026-05-06T15:23:38.000Z</time>
      </trkpt>
      <trkpt lat="41.819946" lon="22.983046">
        <ele>1233.6</ele>
        <time>2026-05-06T15:23:39.000Z</time>
      </trkpt>
      <trkpt lat="41.819944" lon="22.983062">
        <ele>1233.6</ele>
        <time>2026-05-06T15:23:40.000Z</time>
      </trkpt>
      <trkpt lat="41.819942" lon="22.983078">
        <ele>1233.6</ele>
        <time>2026-05-06T15:23:41.000Z</time>
      </trkpt>
      <trkpt lat="41.819941" lon="22.983094">
        <ele>1233.6</ele>
        <time>2026-05-06T15:23:42.000Z</time>
      </trkpt>
      <trkpt lat="41.819939" lon="22.983111">
        <ele>1233.8</ele>
        <time>2026-05-06T15:23:43.000Z</time>
      </trkpt>
      <trkpt lat="41.819939" lon="22.983129">
        <ele>1233.8</ele>
        <time>2026-05-06T15:23:44.000Z</time>
      </trkpt>
      <trkpt lat="41.819938" lon="22.983147">
        <ele>1233.8</ele>
        <time>2026-05-06T15:23:45.000Z</time>
      </trkpt>
      <trkpt lat="41.819936" lon="22.983165">
        <ele>1233.8</ele>
        <time>2026-05-06T15:23:46.000Z</time>
      </trkpt>
      <trkpt lat="41.819933" lon="22.983182">
        <ele>1233.8</ele>
        <time>2026-05-06T15:23:47.000Z</time>
      </trkpt>
      <trkpt lat="41.819929" lon="22.983198">
        <ele>1234.3</ele>
        <time>2026-05-06T15:23:48.000Z</time>
      </trkpt>
      <trkpt lat="41.819926" lon="22.983214">
        <ele>1234.3</ele>
        <time>2026-05-06T15:23:49.000Z</time>
      </trkpt>
      <trkpt lat="41.819923" lon="22.98323">
        <ele>1234.3</ele>
        <time>2026-05-06T15:23:50.000Z</time>
      </trkpt>
      <trkpt lat="41.81992" lon="22.983246">
        <ele>1234.3</ele>
        <time>2026-05-06T15:23:51.000Z</time>
      </trkpt>
      <trkpt lat="41.819917" lon="22.983263">
        <ele>1234.3</ele>
        <time>2026-05-06T15:23:52.000Z</time>
      </trkpt>
      <trkpt lat="41.819915" lon="22.983278">
        <ele>1234.9</ele>
        <time>2026-05-06T15:23:53.000Z</time>
      </trkpt>
      <trkpt lat="41.819913" lon="22.983294">
        <ele>1234.9</ele>
        <time>2026-05-06T15:23:54.000Z</time>
      </trkpt>
      <trkpt lat="41.819912" lon="22.98331">
        <ele>1234.9</ele>
        <time>2026-05-06T15:23:55.000Z</time>
      </trkpt>
      <trkpt lat="41.819911" lon="22.983327">
        <ele>1234.9</ele>
        <time>2026-05-06T15:23:56.000Z</time>
      </trkpt>
      <trkpt lat="41.819911" lon="22.983346">
        <ele>1234.9</ele>
        <time>2026-05-06T15:23:57.000Z</time>
      </trkpt>
      <trkpt lat="41.819911" lon="22.983363">
        <ele>1235.3</ele>
        <time>2026-05-06T15:23:58.000Z</time>
      </trkpt>
      <trkpt lat="41.819912" lon="22.983381">
        <ele>1235.3</ele>
        <time>2026-05-06T15:23:59.000Z</time>
      </trkpt>
      <trkpt lat="41.819913" lon="22.983397">
        <ele>1235.3</ele>
        <time>2026-05-06T15:24:00.000Z</time>
      </trkpt>
      <trkpt lat="41.819914" lon="22.983413">
        <ele>1235.3</ele>
        <time>2026-05-06T15:24:01.000Z</time>
      </trkpt>
      <trkpt lat="41.819915" lon="22.983429">
        <ele>1235.3</ele>
        <time>2026-05-06T15:24:02.000Z</time>
      </trkpt>
      <trkpt lat="41.819916" lon="22.983446">
        <ele>1236.2</ele>
        <time>2026-05-06T15:24:03.000Z</time>
      </trkpt>
      <trkpt lat="41.819916" lon="22.983463">
        <ele>1236.2</ele>
        <time>2026-05-06T15:24:04.000Z</time>
      </trkpt>
      <trkpt lat="41.819916" lon="22.983481">
        <ele>1236.2</ele>
        <time>2026-05-06T15:24:05.000Z</time>
      </trkpt>
      <trkpt lat="41.819917" lon="22.983498">
        <ele>1236.2</ele>
        <time>2026-05-06T15:24:06.000Z</time>
      </trkpt>
      <trkpt lat="41.819917" lon="22.983515">
        <ele>1236.2</ele>
        <time>2026-05-06T15:24:07.000Z</time>
      </trkpt>
      <trkpt lat="41.819916" lon="22.983532">
        <ele>1237</ele>
        <time>2026-05-06T15:24:08.000Z</time>
      </trkpt>
      <trkpt lat="41.819916" lon="22.983548">
        <ele>1237</ele>
        <time>2026-05-06T15:24:09.000Z</time>
      </trkpt>
      <trkpt lat="41.819914" lon="22.983565">
        <ele>1237</ele>
        <time>2026-05-06T15:24:10.000Z</time>
      </trkpt>
      <trkpt lat="41.81991" lon="22.98358">
        <ele>1237</ele>
        <time>2026-05-06T15:24:11.000Z</time>
      </trkpt>
      <trkpt lat="41.819906" lon="22.983594">
        <ele>1237</ele>
        <time>2026-05-06T15:24:12.000Z</time>
      </trkpt>
      <trkpt lat="41.819903" lon="22.983607">
        <ele>1237.4</ele>
        <time>2026-05-06T15:24:13.000Z</time>
      </trkpt>
      <trkpt lat="41.819899" lon="22.983621">
        <ele>1237.4</ele>
        <time>2026-05-06T15:24:14.000Z</time>
      </trkpt>
      <trkpt lat="41.819897" lon="22.983634">
        <ele>1237.4</ele>
        <time>2026-05-06T15:24:15.000Z</time>
      </trkpt>
      <trkpt lat="41.819896" lon="22.983648">
        <ele>1237.4</ele>
        <time>2026-05-06T15:24:16.000Z</time>
      </trkpt>
      <trkpt lat="41.819896" lon="22.983663">
        <ele>1237.4</ele>
        <time>2026-05-06T15:24:17.000Z</time>
      </trkpt>
      <trkpt lat="41.819897" lon="22.983678">
        <ele>1238.1</ele>
        <time>2026-05-06T15:24:18.000Z</time>
      </trkpt>
      <trkpt lat="41.819899" lon="22.983695">
        <ele>1238.1</ele>
        <time>2026-05-06T15:24:19.000Z</time>
      </trkpt>
      <trkpt lat="41.819901" lon="22.983712">
        <ele>1238.1</ele>
        <time>2026-05-06T15:24:20.000Z</time>
      </trkpt>
      <trkpt lat="41.819901" lon="22.983729">
        <ele>1238.1</ele>
        <time>2026-05-06T15:24:21.000Z</time>
      </trkpt>
      <trkpt lat="41.8199" lon="22.983747">
        <ele>1238.1</ele>
        <time>2026-05-06T15:24:22.000Z</time>
      </trkpt>
      <trkpt lat="41.819901" lon="22.983765">
        <ele>1239.1</ele>
        <time>2026-05-06T15:24:23.000Z</time>
      </trkpt>
      <trkpt lat="41.8199" lon="22.983784">
        <ele>1239.1</ele>
        <time>2026-05-06T15:24:24.000Z</time>
      </trkpt>
      <trkpt lat="41.8199" lon="22.983804">
        <ele>1239.1</ele>
        <time>2026-05-06T15:24:25.000Z</time>
      </trkpt>
      <trkpt lat="41.8199" lon="22.983822">
        <ele>1239.1</ele>
        <time>2026-05-06T15:24:26.000Z</time>
      </trkpt>
      <trkpt lat="41.819901" lon="22.983841">
        <ele>1239.1</ele>
        <time>2026-05-06T15:24:27.000Z</time>
      </trkpt>
      <trkpt lat="41.819901" lon="22.983859">
        <ele>1239.6</ele>
        <time>2026-05-06T15:24:28.000Z</time>
      </trkpt>
      <trkpt lat="41.8199" lon="22.983875">
        <ele>1239.6</ele>
        <time>2026-05-06T15:24:29.000Z</time>
      </trkpt>
      <trkpt lat="41.819899" lon="22.98389">
        <ele>1239.6</ele>
        <time>2026-05-06T15:24:30.000Z</time>
      </trkpt>
      <trkpt lat="41.819897" lon="22.983906">
        <ele>1239.6</ele>
        <time>2026-05-06T15:24:31.000Z</time>
      </trkpt>
      <trkpt lat="41.819893" lon="22.98392">
        <ele>1239.6</ele>
        <time>2026-05-06T15:24:32.000Z</time>
      </trkpt>
      <trkpt lat="41.819886" lon="22.983935">
        <ele>1240.4</ele>
        <time>2026-05-06T15:24:33.000Z</time>
      </trkpt>
      <trkpt lat="41.819879" lon="22.983951">
        <ele>1240.4</ele>
        <time>2026-05-06T15:24:34.000Z</time>
      </trkpt>
      <trkpt lat="41.81987" lon="22.983966">
        <ele>1240.4</ele>
        <time>2026-05-06T15:24:35.000Z</time>
      </trkpt>
      <trkpt lat="41.81986" lon="22.983981">
        <ele>1240.4</ele>
        <time>2026-05-06T15:24:36.000Z</time>
      </trkpt>
      <trkpt lat="41.819851" lon="22.983996">
        <ele>1240.4</ele>
        <time>2026-05-06T15:24:37.000Z</time>
      </trkpt>
      <trkpt lat="41.819843" lon="22.984011">
        <ele>1240.9</ele>
        <time>2026-05-06T15:24:38.000Z</time>
      </trkpt>
      <trkpt lat="41.819836" lon="22.984024">
        <ele>1240.9</ele>
        <time>2026-05-06T15:24:39.000Z</time>
      </trkpt>
      <trkpt lat="41.81983" lon="22.984039">
        <ele>1240.9</ele>
        <time>2026-05-06T15:24:40.000Z</time>
      </trkpt>
      <trkpt lat="41.819825" lon="22.984055">
        <ele>1240.9</ele>
        <time>2026-05-06T15:24:41.000Z</time>
      </trkpt>
      <trkpt lat="41.819819" lon="22.984071">
        <ele>1240.9</ele>
        <time>2026-05-06T15:24:42.000Z</time>
      </trkpt>
      <trkpt lat="41.819814" lon="22.984089">
        <ele>1241.2</ele>
        <time>2026-05-06T15:24:43.000Z</time>
      </trkpt>
      <trkpt lat="41.81981" lon="22.984106">
        <ele>1241.2</ele>
        <time>2026-05-06T15:24:44.000Z</time>
      </trkpt>
      <trkpt lat="41.819804" lon="22.984121">
        <ele>1241.2</ele>
        <time>2026-05-06T15:24:45.000Z</time>
      </trkpt>
      <trkpt lat="41.819797" lon="22.984134">
        <ele>1241.2</ele>
        <time>2026-05-06T15:24:46.000Z</time>
      </trkpt>
      <trkpt lat="41.819791" lon="22.984146">
        <ele>1241.2</ele>
        <time>2026-05-06T15:24:47.000Z</time>
      </trkpt>
      <trkpt lat="41.819783" lon="22.984157">
        <ele>1241.5</ele>
        <time>2026-05-06T15:24:48.000Z</time>
      </trkpt>
      <trkpt lat="41.819777" lon="22.984169">
        <ele>1241.5</ele>
        <time>2026-05-06T15:24:49.000Z</time>
      </trkpt>
      <trkpt lat="41.81977" lon="22.984184">
        <ele>1241.5</ele>
        <time>2026-05-06T15:24:50.000Z</time>
      </trkpt>
      <trkpt lat="41.819764" lon="22.984201">
        <ele>1241.5</ele>
        <time>2026-05-06T15:24:51.000Z</time>
      </trkpt>
      <trkpt lat="41.819759" lon="22.984218">
        <ele>1241.5</ele>
        <time>2026-05-06T15:24:52.000Z</time>
      </trkpt>
      <trkpt lat="41.819754" lon="22.984235">
        <ele>1241.6</ele>
        <time>2026-05-06T15:24:53.000Z</time>
      </trkpt>
      <trkpt lat="41.819749" lon="22.98425">
        <ele>1241.6</ele>
        <time>2026-05-06T15:24:54.000Z</time>
      </trkpt>
      <trkpt lat="41.819744" lon="22.984262">
        <ele>1241.6</ele>
        <time>2026-05-06T15:24:55.000Z</time>
      </trkpt>
      <trkpt lat="41.81974" lon="22.984275">
        <ele>1241.6</ele>
        <time>2026-05-06T15:24:56.000Z</time>
      </trkpt>
      <trkpt lat="41.819735" lon="22.984287">
        <ele>1241.6</ele>
        <time>2026-05-06T15:24:57.000Z</time>
      </trkpt>
      <trkpt lat="41.819729" lon="22.984297">
        <ele>1241.4</ele>
        <time>2026-05-06T15:24:58.000Z</time>
      </trkpt>
      <trkpt lat="41.819723" lon="22.984307">
        <ele>1241.4</ele>
        <time>2026-05-06T15:24:59.000Z</time>
      </trkpt>
      <trkpt lat="41.819717" lon="22.984317">
        <ele>1241.4</ele>
        <time>2026-05-06T15:25:00.000Z</time>
      </trkpt>
      <trkpt lat="41.819713" lon="22.984325">
        <ele>1241.4</ele>
        <time>2026-05-06T15:25:01.000Z</time>
      </trkpt>
      <trkpt lat="41.819708" lon="22.984331">
        <ele>1241.4</ele>
        <time>2026-05-06T15:25:02.000Z</time>
      </trkpt>
      <trkpt lat="41.819707" lon="22.984337">
        <ele>1241.2</ele>
        <time>2026-05-06T15:25:03.000Z</time>
      </trkpt>
      <trkpt lat="41.819707" lon="22.984342">
        <ele>1241.2</ele>
        <time>2026-05-06T15:25:04.000Z</time>
      </trkpt>
      <trkpt lat="41.819708" lon="22.984346">
        <ele>1241.2</ele>
        <time>2026-05-06T15:25:05.000Z</time>
      </trkpt>
      <trkpt lat="41.819709" lon="22.98435">
        <ele>1241.2</ele>
        <time>2026-05-06T15:25:06.000Z</time>
      </trkpt>
      <trkpt lat="41.819709" lon="22.984355">
        <ele>1241.2</ele>
        <time>2026-05-06T15:25:07.000Z</time>
      </trkpt>
      <trkpt lat="41.819709" lon="22.984357">
        <ele>1240.7</ele>
        <time>2026-05-06T15:25:08.000Z</time>
      </trkpt>
      <trkpt lat="41.819708" lon="22.984359">
        <ele>1240.7</ele>
        <time>2026-05-06T15:25:09.000Z</time>
      </trkpt>
      <trkpt lat="41.819706" lon="22.98436">
        <ele>1240.7</ele>
        <time>2026-05-06T15:25:10.000Z</time>
      </trkpt>
      <trkpt lat="41.819705" lon="22.984359">
        <ele>1240.7</ele>
        <time>2026-05-06T15:25:11.000Z</time>
      </trkpt>
      <trkpt lat="41.819705" lon="22.984358">
        <ele>1240.7</ele>
        <time>2026-05-06T15:25:12.000Z</time>
      </trkpt>
      <trkpt lat="41.819705" lon="22.984357">
        <ele>1240.7</ele>
        <time>2026-05-06T15:25:13.000Z</time>
      </trkpt>
      <trkpt lat="41.819705" lon="22.984358">
        <ele>1240.7</ele>
        <time>2026-05-06T15:25:14.000Z</time>
      </trkpt>
      <trkpt lat="41.819705" lon="22.984357">
        <ele>1240.7</ele>
        <time>2026-05-06T15:25:15.000Z</time>
      </trkpt>
      <trkpt lat="41.819704" lon="22.984356">
        <ele>1240.7</ele>
        <time>2026-05-06T15:25:16.000Z</time>
      </trkpt>
      <trkpt lat="41.819701" lon="22.984356">
        <ele>1240.7</ele>
        <time>2026-05-06T15:25:17.000Z</time>
      </trkpt>
      <trkpt lat="41.819697" lon="22.984356">
        <ele>1240.5</ele>
        <time>2026-05-06T15:25:18.000Z</time>
      </trkpt>
      <trkpt lat="41.819694" lon="22.984356">
        <ele>1240.5</ele>
        <time>2026-05-06T15:25:19.000Z</time>
      </trkpt>
      <trkpt lat="41.819691" lon="22.984356">
        <ele>1240.5</ele>
        <time>2026-05-06T15:25:20.000Z</time>
      </trkpt>
      <trkpt lat="41.819688" lon="22.984356">
        <ele>1240.5</ele>
        <time>2026-05-06T15:25:21.000Z</time>
      </trkpt>
      <trkpt lat="41.819686" lon="22.984356">
        <ele>1240.5</ele>
        <time>2026-05-06T15:25:22.000Z</time>
      </trkpt>
      <trkpt lat="41.819685" lon="22.984355">
        <ele>1240.3</ele>
        <time>2026-05-06T15:25:23.000Z</time>
      </trkpt>
      <trkpt lat="41.819683" lon="22.984354">
        <ele>1240.3</ele>
        <time>2026-05-06T15:25:24.000Z</time>
      </trkpt>
      <trkpt lat="41.819681" lon="22.984354">
        <ele>1240.3</ele>
        <time>2026-05-06T15:25:25.000Z</time>
      </trkpt>
      <trkpt lat="41.819679" lon="22.984354">
        <ele>1240.3</ele>
        <time>2026-05-06T15:25:26.000Z</time>
      </trkpt>
      <trkpt lat="41.819677" lon="22.984352">
        <ele>1240.3</ele>
        <time>2026-05-06T15:25:27.000Z</time>
      </trkpt>
      <trkpt lat="41.819676" lon="22.984351">
        <ele>1240.2</ele>
        <time>2026-05-06T15:25:28.000Z</time>
      </trkpt>
      <trkpt lat="41.819674" lon="22.98435">
        <ele>1240.2</ele>
        <time>2026-05-06T15:25:29.000Z</time>
      </trkpt>
      <trkpt lat="41.819673" lon="22.984349">
        <ele>1240.2</ele>
        <time>2026-05-06T15:25:30.000Z</time>
      </trkpt>
      <trkpt lat="41.819672" lon="22.984347">
        <ele>1240.2</ele>
        <time>2026-05-06T15:25:31.000Z</time>
      </trkpt>
      <trkpt lat="41.819671" lon="22.984347">
        <ele>1240.2</ele>
        <time>2026-05-06T15:25:32.000Z</time>
      </trkpt>
      <trkpt lat="41.819671" lon="22.984346">
        <ele>1239.9</ele>
        <time>2026-05-06T15:25:33.000Z</time>
      </trkpt>
      <trkpt lat="41.819672" lon="22.984346">
        <ele>1239.9</ele>
        <time>2026-05-06T15:25:34.000Z</time>
      </trkpt>
      <trkpt lat="41.819672" lon="22.984346">
        <ele>1239.9</ele>
        <time>2026-05-06T15:25:35.000Z</time>
      </trkpt>
      <trkpt lat="41.819672" lon="22.984346">
        <ele>1239.9</ele>
        <time>2026-05-06T15:25:36.000Z</time>
      </trkpt>
      <trkpt lat="41.819673" lon="22.984346">
        <ele>1239.9</ele>
        <time>2026-05-06T15:25:37.000Z</time>
      </trkpt>
      <trkpt lat="41.819673" lon="22.984346">
        <ele>1239.9</ele>
        <time>2026-05-06T15:25:38.000Z</time>
      </trkpt>
      <trkpt lat="41.819673" lon="22.984346">
        <ele>1239.9</ele>
        <time>2026-05-06T15:25:39.000Z</time>
      </trkpt>
      <trkpt lat="41.819674" lon="22.984347">
        <ele>1239.9</ele>
        <time>2026-05-06T15:25:40.000Z</time>
      </trkpt>
      <trkpt lat="41.819674" lon="22.984347">
        <ele>1239.9</ele>
        <time>2026-05-06T15:25:41.000Z</time>
      </trkpt>
      <trkpt lat="41.819674" lon="22.984347">
        <ele>1239.9</ele>
        <time>2026-05-06T15:25:42.000Z</time>
      </trkpt>
      <trkpt lat="41.819674" lon="22.984347">
        <ele>1240</ele>
        <time>2026-05-06T15:25:43.000Z</time>
      </trkpt>
      <trkpt lat="41.819674" lon="22.984347">
        <ele>1240</ele>
        <time>2026-05-06T15:25:44.000Z</time>
      </trkpt>
      <trkpt lat="41.819674" lon="22.984347">
        <ele>1240</ele>
        <time>2026-05-06T15:25:45.000Z</time>
      </trkpt>
      <trkpt lat="41.819674" lon="22.984347">
        <ele>1240</ele>
        <time>2026-05-06T15:25:46.000Z</time>
      </trkpt>
      <trkpt lat="41.819674" lon="22.984347">
        <ele>1240</ele>
        <time>2026-05-06T15:25:47.000Z</time>
      </trkpt>
      <trkpt lat="41.819675" lon="22.984347">
        <ele>1240.1</ele>
        <time>2026-05-06T15:25:48.000Z</time>
      </trkpt>
      <trkpt lat="41.819675" lon="22.984346">
        <ele>1240.1</ele>
        <time>2026-05-06T15:25:49.000Z</time>
      </trkpt>
      <trkpt lat="41.819675" lon="22.984346">
        <ele>1240.1</ele>
        <time>2026-05-06T15:25:50.000Z</time>
      </trkpt>
      <trkpt lat="41.819675" lon="22.984346">
        <ele>1240.1</ele>
        <time>2026-05-06T15:25:51.000Z</time>
      </trkpt>
      <trkpt lat="41.819675" lon="22.984345">
        <ele>1240.1</ele>
        <time>2026-05-06T15:25:52.000Z</time>
      </trkpt>
      <trkpt lat="41.819675" lon="22.984345">
        <ele>1240.1</ele>
        <time>2026-05-06T15:25:53.000Z</time>
      </trkpt>
      <trkpt lat="41.819675" lon="22.984345">
        <ele>1240.1</ele>
        <time>2026-05-06T15:25:54.000Z</time>
      </trkpt>
      <trkpt lat="41.819675" lon="22.984345">
        <ele>1240.1</ele>
        <time>2026-05-06T15:25:55.000Z</time>
      </trkpt>
      <trkpt lat="41.819675" lon="22.984345">
        <ele>1240.1</ele>
        <time>2026-05-06T15:25:56.000Z</time>
      </trkpt>
      <trkpt lat="41.819675" lon="22.984345">
        <ele>1240.1</ele>
        <time>2026-05-06T15:25:57.000Z</time>
      </trkpt>
      <trkpt lat="41.819675" lon="22.984345">
        <ele>1240</ele>
        <time>2026-05-06T15:25:58.000Z</time>
      </trkpt>
      <trkpt lat="41.819675" lon="22.984345">
        <ele>1240</ele>
        <time>2026-05-06T15:25:59.000Z</time>
      </trkpt>
      <trkpt lat="41.819675" lon="22.984345">
        <ele>1240</ele>
        <time>2026-05-06T15:26:00.000Z</time>
      </trkpt>
      <trkpt lat="41.819675" lon="22.984345">
        <ele>1240</ele>
        <time>2026-05-06T15:26:01.000Z</time>
      </trkpt>
      <trkpt lat="41.819674" lon="22.984344">
        <ele>1240</ele>
        <time>2026-05-06T15:26:02.000Z</time>
      </trkpt>
      <trkpt lat="41.819674" lon="22.984343">
        <ele>1239.8</ele>
        <time>2026-05-06T15:26:03.000Z</time>
      </trkpt>
      <trkpt lat="41.819674" lon="22.984343">
        <ele>1239.8</ele>
        <time>2026-05-06T15:26:04.000Z</time>
      </trkpt>
      <trkpt lat="41.819674" lon="22.984342">
        <ele>1239.8</ele>
        <time>2026-05-06T15:26:05.000Z</time>
      </trkpt>
      <trkpt lat="41.819674" lon="22.984342">
        <ele>1239.8</ele>
        <time>2026-05-06T15:26:06.000Z</time>
      </trkpt>
      <trkpt lat="41.819674" lon="22.984342">
        <ele>1239.8</ele>
        <time>2026-05-06T15:26:07.000Z</time>
      </trkpt>
      <trkpt lat="41.819673" lon="22.984342">
        <ele>1239.7</ele>
        <time>2026-05-06T15:26:08.000Z</time>
      </trkpt>
      <trkpt lat="41.819672" lon="22.984341">
        <ele>1239.7</ele>
        <time>2026-05-06T15:26:09.000Z</time>
      </trkpt>
      <trkpt lat="41.819672" lon="22.984341">
        <ele>1239.7</ele>
        <time>2026-05-06T15:26:10.000Z</time>
      </trkpt>
      <trkpt lat="41.819671" lon="22.98434">
        <ele>1239.7</ele>
        <time>2026-05-06T15:26:11.000Z</time>
      </trkpt>
      <trkpt lat="41.81967" lon="22.984338">
        <ele>1239.7</ele>
        <time>2026-05-06T15:26:12.000Z</time>
      </trkpt>
      <trkpt lat="41.819669" lon="22.984337">
        <ele>1239.7</ele>
        <time>2026-05-06T15:26:13.000Z</time>
      </trkpt>
      <trkpt lat="41.819668" lon="22.984335">
        <ele>1239.7</ele>
        <time>2026-05-06T15:26:14.000Z</time>
      </trkpt>
      <trkpt lat="41.819667" lon="22.984334">
        <ele>1239.7</ele>
        <time>2026-05-06T15:26:15.000Z</time>
      </trkpt>
      <trkpt lat="41.819666" lon="22.984333">
        <ele>1239.7</ele>
        <time>2026-05-06T15:26:16.000Z</time>
      </trkpt>
      <trkpt lat="41.819665" lon="22.984333">
        <ele>1239.7</ele>
        <time>2026-05-06T15:26:17.000Z</time>
      </trkpt>
      <trkpt lat="41.819666" lon="22.984335">
        <ele>1239.9</ele>
        <time>2026-05-06T15:26:18.000Z</time>
      </trkpt>
      <trkpt lat="41.819667" lon="22.984337">
        <ele>1239.9</ele>
        <time>2026-05-06T15:26:19.000Z</time>
      </trkpt>
      <trkpt lat="41.819669" lon="22.98434">
        <ele>1239.9</ele>
        <time>2026-05-06T15:26:20.000Z</time>
      </trkpt>
      <trkpt lat="41.81967" lon="22.984344">
        <ele>1239.9</ele>
        <time>2026-05-06T15:26:21.000Z</time>
      </trkpt>
      <trkpt lat="41.819671" lon="22.984347">
        <ele>1239.9</ele>
        <time>2026-05-06T15:26:22.000Z</time>
      </trkpt>
      <trkpt lat="41.819672" lon="22.984348">
        <ele>1240.1</ele>
        <time>2026-05-06T15:26:23.000Z</time>
      </trkpt>
      <trkpt lat="41.819672" lon="22.98435">
        <ele>1240.1</ele>
        <time>2026-05-06T15:26:24.000Z</time>
      </trkpt>
      <trkpt lat="41.819672" lon="22.98435">
        <ele>1240.1</ele>
        <time>2026-05-06T15:26:25.000Z</time>
      </trkpt>
      <trkpt lat="41.819672" lon="22.984347">
        <ele>1240.1</ele>
        <time>2026-05-06T15:26:26.000Z</time>
      </trkpt>
      <trkpt lat="41.819671" lon="22.984343">
        <ele>1240.1</ele>
        <time>2026-05-06T15:26:27.000Z</time>
      </trkpt>
      <trkpt lat="41.81967" lon="22.984339">
        <ele>1240.3</ele>
        <time>2026-05-06T15:26:28.000Z</time>
      </trkpt>
      <trkpt lat="41.81967" lon="22.984336">
        <ele>1240.3</ele>
        <time>2026-05-06T15:26:29.000Z</time>
      </trkpt>
      <trkpt lat="41.81967" lon="22.984334">
        <ele>1240.3</ele>
        <time>2026-05-06T15:26:30.000Z</time>
      </trkpt>
      <trkpt lat="41.819669" lon="22.984333">
        <ele>1240.3</ele>
        <time>2026-05-06T15:26:31.000Z</time>
      </trkpt>
      <trkpt lat="41.819669" lon="22.984335">
        <ele>1240.3</ele>
        <time>2026-05-06T15:26:32.000Z</time>
      </trkpt>
      <trkpt lat="41.819668" lon="22.984335">
        <ele>1240.4</ele>
        <time>2026-05-06T15:26:33.000Z</time>
      </trkpt>
      <trkpt lat="41.819668" lon="22.984336">
        <ele>1240.4</ele>
        <time>2026-05-06T15:26:34.000Z</time>
      </trkpt>
      <trkpt lat="41.819667" lon="22.984336">
        <ele>1240.4</ele>
        <time>2026-05-06T15:26:35.000Z</time>
      </trkpt>
      <trkpt lat="41.819667" lon="22.984335">
        <ele>1240.4</ele>
        <time>2026-05-06T15:26:36.000Z</time>
      </trkpt>
      <trkpt lat="41.819668" lon="22.984335">
        <ele>1240.4</ele>
        <time>2026-05-06T15:26:37.000Z</time>
      </trkpt>
      <trkpt lat="41.819668" lon="22.984334">
        <ele>1240.3</ele>
        <time>2026-05-06T15:26:38.000Z</time>
      </trkpt>
      <trkpt lat="41.819668" lon="22.984334">
        <ele>1240.3</ele>
        <time>2026-05-06T15:26:39.000Z</time>
      </trkpt>
      <trkpt lat="41.819668" lon="22.984334">
        <ele>1240.3</ele>
        <time>2026-05-06T15:26:40.000Z</time>
      </trkpt>
      <trkpt lat="41.819668" lon="22.984334">
        <ele>1240.3</ele>
        <time>2026-05-06T15:26:41.000Z</time>
      </trkpt>
      <trkpt lat="41.819667" lon="22.984334">
        <ele>1240.3</ele>
        <time>2026-05-06T15:26:42.000Z</time>
      </trkpt>
      <trkpt lat="41.819665" lon="22.984335">
        <ele>1240.2</ele>
        <time>2026-05-06T15:26:43.000Z</time>
      </trkpt>
      <trkpt lat="41.819663" lon="22.984334">
        <ele>1240.2</ele>
        <time>2026-05-06T15:26:44.000Z</time>
      </trkpt>
      <trkpt lat="41.819661" lon="22.984334">
        <ele>1240.2</ele>
        <time>2026-05-06T15:26:45.000Z</time>
      </trkpt>
      <trkpt lat="41.819661" lon="22.984333">
        <ele>1240.2</ele>
        <time>2026-05-06T15:26:46.000Z</time>
      </trkpt>
      <trkpt lat="41.819662" lon="22.98433">
        <ele>1240.2</ele>
        <time>2026-05-06T15:26:47.000Z</time>
      </trkpt>
      <trkpt lat="41.819664" lon="22.984327">
        <ele>1240.1</ele>
        <time>2026-05-06T15:26:48.000Z</time>
      </trkpt>
      <trkpt lat="41.819667" lon="22.984325">
        <ele>1240.1</ele>
        <time>2026-05-06T15:26:49.000Z</time>
      </trkpt>
      <trkpt lat="41.819669" lon="22.984324">
        <ele>1240.1</ele>
        <time>2026-05-06T15:26:50.000Z</time>
      </trkpt>
      <trkpt lat="41.819671" lon="22.984323">
        <ele>1240.1</ele>
        <time>2026-05-06T15:26:51.000Z</time>
      </trkpt>
      <trkpt lat="41.819671" lon="22.984326">
        <ele>1240.1</ele>
        <time>2026-05-06T15:26:52.000Z</time>
      </trkpt>
      <trkpt lat="41.81967" lon="22.984331">
        <ele>1240.3</ele>
        <time>2026-05-06T15:26:53.000Z</time>
      </trkpt>
      <trkpt lat="41.819668" lon="22.984337">
        <ele>1240.3</ele>
        <time>2026-05-06T15:26:54.000Z</time>
      </trkpt>
      <trkpt lat="41.819665" lon="22.984345">
        <ele>1240.3</ele>
        <time>2026-05-06T15:26:55.000Z</time>
      </trkpt>
      <trkpt lat="41.81966" lon="22.984355">
        <ele>1240.3</ele>
        <time>2026-05-06T15:26:56.000Z</time>
      </trkpt>
      <trkpt lat="41.819655" lon="22.984367">
        <ele>1240.3</ele>
        <time>2026-05-06T15:26:57.000Z</time>
      </trkpt>
      <trkpt lat="41.81965" lon="22.984379">
        <ele>1240.4</ele>
        <time>2026-05-06T15:26:58.000Z</time>
      </trkpt>
      <trkpt lat="41.819645" lon="22.984394">
        <ele>1240.4</ele>
        <time>2026-05-06T15:26:59.000Z</time>
      </trkpt>
      <trkpt lat="41.819643" lon="22.98441">
        <ele>1240.4</ele>
        <time>2026-05-06T15:27:00.000Z</time>
      </trkpt>
      <trkpt lat="41.819641" lon="22.984427">
        <ele>1240.4</ele>
        <time>2026-05-06T15:27:01.000Z</time>
      </trkpt>
      <trkpt lat="41.819638" lon="22.984443">
        <ele>1240.4</ele>
        <time>2026-05-06T15:27:02.000Z</time>
      </trkpt>
      <trkpt lat="41.819638" lon="22.984461">
        <ele>1240.5</ele>
        <time>2026-05-06T15:27:03.000Z</time>
      </trkpt>
      <trkpt lat="41.819639" lon="22.984478">
        <ele>1240.5</ele>
        <time>2026-05-06T15:27:04.000Z</time>
      </trkpt>
      <trkpt lat="41.819638" lon="22.984494">
        <ele>1240.5</ele>
        <time>2026-05-06T15:27:05.000Z</time>
      </trkpt>
      <trkpt lat="41.819637" lon="22.98451">
        <ele>1240.5</ele>
        <time>2026-05-06T15:27:06.000Z</time>
      </trkpt>
      <trkpt lat="41.819636" lon="22.984525">
        <ele>1240.5</ele>
        <time>2026-05-06T15:27:07.000Z</time>
      </trkpt>
      <trkpt lat="41.819634" lon="22.984539">
        <ele>1240.3</ele>
        <time>2026-05-06T15:27:08.000Z</time>
      </trkpt>
      <trkpt lat="41.819633" lon="22.984553">
        <ele>1240.3</ele>
        <time>2026-05-06T15:27:09.000Z</time>
      </trkpt>
      <trkpt lat="41.819631" lon="22.984566">
        <ele>1240.3</ele>
        <time>2026-05-06T15:27:10.000Z</time>
      </trkpt>
      <trkpt lat="41.819631" lon="22.98458">
        <ele>1240.3</ele>
        <time>2026-05-06T15:27:11.000Z</time>
      </trkpt>
      <trkpt lat="41.819631" lon="22.984595">
        <ele>1240.3</ele>
        <time>2026-05-06T15:27:12.000Z</time>
      </trkpt>
      <trkpt lat="41.819631" lon="22.98461">
        <ele>1240.2</ele>
        <time>2026-05-06T15:27:13.000Z</time>
      </trkpt>
      <trkpt lat="41.819631" lon="22.984626">
        <ele>1240.2</ele>
        <time>2026-05-06T15:27:14.000Z</time>
      </trkpt>
      <trkpt lat="41.81963" lon="22.984644">
        <ele>1240.2</ele>
        <time>2026-05-06T15:27:15.000Z</time>
      </trkpt>
      <trkpt lat="41.81963" lon="22.984662">
        <ele>1240.2</ele>
        <time>2026-05-06T15:27:16.000Z</time>
      </trkpt>
      <trkpt lat="41.81963" lon="22.984679">
        <ele>1240.2</ele>
        <time>2026-05-06T15:27:17.000Z</time>
      </trkpt>
      <trkpt lat="41.819629" lon="22.984698">
        <ele>1239.7</ele>
        <time>2026-05-06T15:27:18.000Z</time>
      </trkpt>
      <trkpt lat="41.819626" lon="22.984716">
        <ele>1239.7</ele>
        <time>2026-05-06T15:27:19.000Z</time>
      </trkpt>
      <trkpt lat="41.819623" lon="22.984734">
        <ele>1239.7</ele>
        <time>2026-05-06T15:27:20.000Z</time>
      </trkpt>
      <trkpt lat="41.819618" lon="22.984752">
        <ele>1239.7</ele>
        <time>2026-05-06T15:27:21.000Z</time>
      </trkpt>
      <trkpt lat="41.819613" lon="22.98477">
        <ele>1239.7</ele>
        <time>2026-05-06T15:27:22.000Z</time>
      </trkpt>
      <trkpt lat="41.819608" lon="22.984789">
        <ele>1239.3</ele>
        <time>2026-05-06T15:27:23.000Z</time>
      </trkpt>
      <trkpt lat="41.819603" lon="22.984808">
        <ele>1239.3</ele>
        <time>2026-05-06T15:27:24.000Z</time>
      </trkpt>
      <trkpt lat="41.819599" lon="22.984826">
        <ele>1239.3</ele>
        <time>2026-05-06T15:27:25.000Z</time>
      </trkpt>
      <trkpt lat="41.819594" lon="22.984846">
        <ele>1239.3</ele>
        <time>2026-05-06T15:27:26.000Z</time>
      </trkpt>
      <trkpt lat="41.81959" lon="22.984864">
        <ele>1239.3</ele>
        <time>2026-05-06T15:27:27.000Z</time>
      </trkpt>
      <trkpt lat="41.819586" lon="22.984881">
        <ele>1239</ele>
        <time>2026-05-06T15:27:28.000Z</time>
      </trkpt>
      <trkpt lat="41.819584" lon="22.984899">
        <ele>1239</ele>
        <time>2026-05-06T15:27:29.000Z</time>
      </trkpt>
      <trkpt lat="41.819582" lon="22.984917">
        <ele>1239</ele>
        <time>2026-05-06T15:27:30.000Z</time>
      </trkpt>
      <trkpt lat="41.819582" lon="22.984934">
        <ele>1239</ele>
        <time>2026-05-06T15:27:31.000Z</time>
      </trkpt>
      <trkpt lat="41.81958" lon="22.98495">
        <ele>1239</ele>
        <time>2026-05-06T15:27:32.000Z</time>
      </trkpt>
      <trkpt lat="41.819577" lon="22.984965">
        <ele>1238.7</ele>
        <time>2026-05-06T15:27:33.000Z</time>
      </trkpt>
      <trkpt lat="41.819574" lon="22.984981">
        <ele>1238.7</ele>
        <time>2026-05-06T15:27:34.000Z</time>
      </trkpt>
      <trkpt lat="41.819571" lon="22.984996">
        <ele>1238.7</ele>
        <time>2026-05-06T15:27:35.000Z</time>
      </trkpt>
      <trkpt lat="41.819566" lon="22.985012">
        <ele>1238.7</ele>
        <time>2026-05-06T15:27:36.000Z</time>
      </trkpt>
      <trkpt lat="41.81956" lon="22.985028">
        <ele>1238.7</ele>
        <time>2026-05-06T15:27:37.000Z</time>
      </trkpt>
      <trkpt lat="41.819554" lon="22.985045">
        <ele>1238.3</ele>
        <time>2026-05-06T15:27:38.000Z</time>
      </trkpt>
      <trkpt lat="41.819547" lon="22.985063">
        <ele>1238.3</ele>
        <time>2026-05-06T15:27:39.000Z</time>
      </trkpt>
      <trkpt lat="41.81954" lon="22.985079">
        <ele>1238.3</ele>
        <time>2026-05-06T15:27:40.000Z</time>
      </trkpt>
      <trkpt lat="41.819533" lon="22.985095">
        <ele>1238.3</ele>
        <time>2026-05-06T15:27:41.000Z</time>
      </trkpt>
      <trkpt lat="41.819527" lon="22.985113">
        <ele>1238.3</ele>
        <time>2026-05-06T15:27:42.000Z</time>
      </trkpt>
      <trkpt lat="41.819519" lon="22.98513">
        <ele>1238.2</ele>
        <time>2026-05-06T15:27:43.000Z</time>
      </trkpt>
      <trkpt lat="41.819512" lon="22.985146">
        <ele>1238.2</ele>
        <time>2026-05-06T15:27:44.000Z</time>
      </trkpt>
      <trkpt lat="41.819505" lon="22.985162">
        <ele>1238.2</ele>
        <time>2026-05-06T15:27:45.000Z</time>
      </trkpt>
      <trkpt lat="41.819497" lon="22.985177">
        <ele>1238.2</ele>
        <time>2026-05-06T15:27:46.000Z</time>
      </trkpt>
      <trkpt lat="41.819489" lon="22.98519">
        <ele>1238.2</ele>
        <time>2026-05-06T15:27:47.000Z</time>
      </trkpt>
      <trkpt lat="41.819481" lon="22.985203">
        <ele>1237.7</ele>
        <time>2026-05-06T15:27:48.000Z</time>
      </trkpt>
      <trkpt lat="41.819473" lon="22.985216">
        <ele>1237.7</ele>
        <time>2026-05-06T15:27:49.000Z</time>
      </trkpt>
      <trkpt lat="41.819464" lon="22.985229">
        <ele>1237.7</ele>
        <time>2026-05-06T15:27:50.000Z</time>
      </trkpt>
      <trkpt lat="41.819455" lon="22.985243">
        <ele>1237.7</ele>
        <time>2026-05-06T15:27:51.000Z</time>
      </trkpt>
      <trkpt lat="41.819446" lon="22.985257">
        <ele>1237.7</ele>
        <time>2026-05-06T15:27:52.000Z</time>
      </trkpt>
      <trkpt lat="41.819436" lon="22.985271">
        <ele>1237.2</ele>
        <time>2026-05-06T15:27:53.000Z</time>
      </trkpt>
      <trkpt lat="41.819427" lon="22.985286">
        <ele>1237.2</ele>
        <time>2026-05-06T15:27:54.000Z</time>
      </trkpt>
      <trkpt lat="41.819418" lon="22.9853">
        <ele>1237.2</ele>
        <time>2026-05-06T15:27:55.000Z</time>
      </trkpt>
      <trkpt lat="41.819409" lon="22.985313">
        <ele>1237.2</ele>
        <time>2026-05-06T15:27:56.000Z</time>
      </trkpt>
      <trkpt lat="41.819399" lon="22.985326">
        <ele>1237.2</ele>
        <time>2026-05-06T15:27:57.000Z</time>
      </trkpt>
      <trkpt lat="41.819389" lon="22.985338">
        <ele>1237</ele>
        <time>2026-05-06T15:27:58.000Z</time>
      </trkpt>
      <trkpt lat="41.819378" lon="22.985349">
        <ele>1237</ele>
        <time>2026-05-06T15:27:59.000Z</time>
      </trkpt>
      <trkpt lat="41.819368" lon="22.985361">
        <ele>1237</ele>
        <time>2026-05-06T15:28:00.000Z</time>
      </trkpt>
      <trkpt lat="41.819358" lon="22.985372">
        <ele>1237</ele>
        <time>2026-05-06T15:28:01.000Z</time>
      </trkpt>
      <trkpt lat="41.819347" lon="22.985383">
        <ele>1237</ele>
        <time>2026-05-06T15:28:02.000Z</time>
      </trkpt>
      <trkpt lat="41.819337" lon="22.985395">
        <ele>1236.4</ele>
        <time>2026-05-06T15:28:03.000Z</time>
      </trkpt>
      <trkpt lat="41.819327" lon="22.985408">
        <ele>1236.4</ele>
        <time>2026-05-06T15:28:04.000Z</time>
      </trkpt>
      <trkpt lat="41.819317" lon="22.985421">
        <ele>1236.4</ele>
        <time>2026-05-06T15:28:05.000Z</time>
      </trkpt>
      <trkpt lat="41.819308" lon="22.985435">
        <ele>1236.4</ele>
        <time>2026-05-06T15:28:06.000Z</time>
      </trkpt>
      <trkpt lat="41.8193" lon="22.98545">
        <ele>1236.4</ele>
        <time>2026-05-06T15:28:07.000Z</time>
      </trkpt>
      <trkpt lat="41.819291" lon="22.985464">
        <ele>1235.9</ele>
        <time>2026-05-06T15:28:08.000Z</time>
      </trkpt>
      <trkpt lat="41.819282" lon="22.985478">
        <ele>1235.9</ele>
        <time>2026-05-06T15:28:09.000Z</time>
      </trkpt>
      <trkpt lat="41.819274" lon="22.985492">
        <ele>1235.9</ele>
        <time>2026-05-06T15:28:10.000Z</time>
      </trkpt>
      <trkpt lat="41.819265" lon="22.985505">
        <ele>1235.9</ele>
        <time>2026-05-06T15:28:11.000Z</time>
      </trkpt>
      <trkpt lat="41.819256" lon="22.985517">
        <ele>1235.9</ele>
        <time>2026-05-06T15:28:12.000Z</time>
      </trkpt>
      <trkpt lat="41.819248" lon="22.985529">
        <ele>1235.7</ele>
        <time>2026-05-06T15:28:13.000Z</time>
      </trkpt>
      <trkpt lat="41.819241" lon="22.985542">
        <ele>1235.7</ele>
        <time>2026-05-06T15:28:14.000Z</time>
      </trkpt>
      <trkpt lat="41.819233" lon="22.985555">
        <ele>1235.7</ele>
        <time>2026-05-06T15:28:15.000Z</time>
      </trkpt>
      <trkpt lat="41.819224" lon="22.985569">
        <ele>1235.7</ele>
        <time>2026-05-06T15:28:16.000Z</time>
      </trkpt>
      <trkpt lat="41.819216" lon="22.985583">
        <ele>1235.7</ele>
        <time>2026-05-06T15:28:17.000Z</time>
      </trkpt>
      <trkpt lat="41.819208" lon="22.985598">
        <ele>1235.3</ele>
        <time>2026-05-06T15:28:18.000Z</time>
      </trkpt>
      <trkpt lat="41.819201" lon="22.985613">
        <ele>1235.3</ele>
        <time>2026-05-06T15:28:19.000Z</time>
      </trkpt>
      <trkpt lat="41.819194" lon="22.985629">
        <ele>1235.3</ele>
        <time>2026-05-06T15:28:20.000Z</time>
      </trkpt>
      <trkpt lat="41.819188" lon="22.985645">
        <ele>1235.3</ele>
        <time>2026-05-06T15:28:21.000Z</time>
      </trkpt>
      <trkpt lat="41.819182" lon="22.98566">
        <ele>1235.3</ele>
        <time>2026-05-06T15:28:22.000Z</time>
      </trkpt>
      <trkpt lat="41.819177" lon="22.985677">
        <ele>1234.8</ele>
        <time>2026-05-06T15:28:23.000Z</time>
      </trkpt>
      <trkpt lat="41.819171" lon="22.985693">
        <ele>1234.8</ele>
        <time>2026-05-06T15:28:24.000Z</time>
      </trkpt>
      <trkpt lat="41.819166" lon="22.985709">
        <ele>1234.8</ele>
        <time>2026-05-06T15:28:25.000Z</time>
      </trkpt>
      <trkpt lat="41.819162" lon="22.985725">
        <ele>1234.8</ele>
        <time>2026-05-06T15:28:26.000Z</time>
      </trkpt>
      <trkpt lat="41.81916" lon="22.985742">
        <ele>1234.8</ele>
        <time>2026-05-06T15:28:27.000Z</time>
      </trkpt>
      <trkpt lat="41.819158" lon="22.985759">
        <ele>1234.6</ele>
        <time>2026-05-06T15:28:28.000Z</time>
      </trkpt>
      <trkpt lat="41.819158" lon="22.985775">
        <ele>1234.6</ele>
        <time>2026-05-06T15:28:29.000Z</time>
      </trkpt>
      <trkpt lat="41.819159" lon="22.98579">
        <ele>1234.6</ele>
        <time>2026-05-06T15:28:30.000Z</time>
      </trkpt>
      <trkpt lat="41.819161" lon="22.985806">
        <ele>1234.6</ele>
        <time>2026-05-06T15:28:31.000Z</time>
      </trkpt>
      <trkpt lat="41.819164" lon="22.985821">
        <ele>1234.6</ele>
        <time>2026-05-06T15:28:32.000Z</time>
      </trkpt>
      <trkpt lat="41.819169" lon="22.985835">
        <ele>1234.2</ele>
        <time>2026-05-06T15:28:33.000Z</time>
      </trkpt>
      <trkpt lat="41.819174" lon="22.98585">
        <ele>1234.2</ele>
        <time>2026-05-06T15:28:34.000Z</time>
      </trkpt>
      <trkpt lat="41.819181" lon="22.985866">
        <ele>1234.2</ele>
        <time>2026-05-06T15:28:35.000Z</time>
      </trkpt>
      <trkpt lat="41.819188" lon="22.985882">
        <ele>1234.2</ele>
        <time>2026-05-06T15:28:36.000Z</time>
      </trkpt>
      <trkpt lat="41.819194" lon="22.985898">
        <ele>1234.2</ele>
        <time>2026-05-06T15:28:37.000Z</time>
      </trkpt>
      <trkpt lat="41.8192" lon="22.985915">
        <ele>1233.6</ele>
        <time>2026-05-06T15:28:38.000Z</time>
      </trkpt>
      <trkpt lat="41.819208" lon="22.985931">
        <ele>1233.6</ele>
        <time>2026-05-06T15:28:39.000Z</time>
      </trkpt>
      <trkpt lat="41.819214" lon="22.985945">
        <ele>1233.6</ele>
        <time>2026-05-06T15:28:40.000Z</time>
      </trkpt>
      <trkpt lat="41.819222" lon="22.985959">
        <ele>1233.6</ele>
        <time>2026-05-06T15:28:41.000Z</time>
      </trkpt>
      <trkpt lat="41.81923" lon="22.985973">
        <ele>1233.6</ele>
        <time>2026-05-06T15:28:42.000Z</time>
      </trkpt>
      <trkpt lat="41.819237" lon="22.985986">
        <ele>1233.3</ele>
        <time>2026-05-06T15:28:43.000Z</time>
      </trkpt>
      <trkpt lat="41.819247" lon="22.985999">
        <ele>1233.3</ele>
        <time>2026-05-06T15:28:44.000Z</time>
      </trkpt>
      <trkpt lat="41.819257" lon="22.98601">
        <ele>1233.3</ele>
        <time>2026-05-06T15:28:45.000Z</time>
      </trkpt>
      <trkpt lat="41.819268" lon="22.986021">
        <ele>1233.3</ele>
        <time>2026-05-06T15:28:46.000Z</time>
      </trkpt>
      <trkpt lat="41.81928" lon="22.986029">
        <ele>1233.3</ele>
        <time>2026-05-06T15:28:47.000Z</time>
      </trkpt>
      <trkpt lat="41.819293" lon="22.986038">
        <ele>1232.7</ele>
        <time>2026-05-06T15:28:48.000Z</time>
      </trkpt>
      <trkpt lat="41.819306" lon="22.986046">
        <ele>1232.7</ele>
        <time>2026-05-06T15:28:49.000Z</time>
      </trkpt>
      <trkpt lat="41.819319" lon="22.986056">
        <ele>1232.7</ele>
        <time>2026-05-06T15:28:50.000Z</time>
      </trkpt>
      <trkpt lat="41.819332" lon="22.986064">
        <ele>1232.7</ele>
        <time>2026-05-06T15:28:51.000Z</time>
      </trkpt>
      <trkpt lat="41.819343" lon="22.986072">
        <ele>1232.7</ele>
        <time>2026-05-06T15:28:52.000Z</time>
      </trkpt>
      <trkpt lat="41.819355" lon="22.98608">
        <ele>1232.1</ele>
        <time>2026-05-06T15:28:53.000Z</time>
      </trkpt>
      <trkpt lat="41.819365" lon="22.986088">
        <ele>1232.1</ele>
        <time>2026-05-06T15:28:54.000Z</time>
      </trkpt>
      <trkpt lat="41.819376" lon="22.986097">
        <ele>1232.1</ele>
        <time>2026-05-06T15:28:55.000Z</time>
      </trkpt>
      <trkpt lat="41.819386" lon="22.986108">
        <ele>1232.1</ele>
        <time>2026-05-06T15:28:56.000Z</time>
      </trkpt>
      <trkpt lat="41.819397" lon="22.986118">
        <ele>1232.1</ele>
        <time>2026-05-06T15:28:57.000Z</time>
      </trkpt>
      <trkpt lat="41.819409" lon="22.986129">
        <ele>1231.9</ele>
        <time>2026-05-06T15:28:58.000Z</time>
      </trkpt>
      <trkpt lat="41.819421" lon="22.98614">
        <ele>1231.9</ele>
        <time>2026-05-06T15:28:59.000Z</time>
      </trkpt>
      <trkpt lat="41.819433" lon="22.986151">
        <ele>1231.9</ele>
        <time>2026-05-06T15:29:00.000Z</time>
      </trkpt>
      <trkpt lat="41.819445" lon="22.986161">
        <ele>1231.9</ele>
        <time>2026-05-06T15:29:01.000Z</time>
      </trkpt>
      <trkpt lat="41.819456" lon="22.986174">
        <ele>1231.9</ele>
        <time>2026-05-06T15:29:02.000Z</time>
      </trkpt>
      <trkpt lat="41.819466" lon="22.986186">
        <ele>1231.4</ele>
        <time>2026-05-06T15:29:03.000Z</time>
      </trkpt>
      <trkpt lat="41.819475" lon="22.9862">
        <ele>1231.4</ele>
        <time>2026-05-06T15:29:04.000Z</time>
      </trkpt>
      <trkpt lat="41.819484" lon="22.986212">
        <ele>1231.4</ele>
        <time>2026-05-06T15:29:05.000Z</time>
      </trkpt>
      <trkpt lat="41.819494" lon="22.986225">
        <ele>1231.4</ele>
        <time>2026-05-06T15:29:06.000Z</time>
      </trkpt>
      <trkpt lat="41.819505" lon="22.986235">
        <ele>1231.4</ele>
        <time>2026-05-06T15:29:07.000Z</time>
      </trkpt>
      <trkpt lat="41.819516" lon="22.986245">
        <ele>1230.8</ele>
        <time>2026-05-06T15:29:08.000Z</time>
      </trkpt>
      <trkpt lat="41.819528" lon="22.986254">
        <ele>1230.8</ele>
        <time>2026-05-06T15:29:09.000Z</time>
      </trkpt>
      <trkpt lat="41.81954" lon="22.986264">
        <ele>1230.8</ele>
        <time>2026-05-06T15:29:10.000Z</time>
      </trkpt>
      <trkpt lat="41.819551" lon="22.986273">
        <ele>1230.8</ele>
        <time>2026-05-06T15:29:11.000Z</time>
      </trkpt>
      <trkpt lat="41.819561" lon="22.986283">
        <ele>1230.8</ele>
        <time>2026-05-06T15:29:12.000Z</time>
      </trkpt>
      <trkpt lat="41.819572" lon="22.986291">
        <ele>1230.5</ele>
        <time>2026-05-06T15:29:13.000Z</time>
      </trkpt>
      <trkpt lat="41.819582" lon="22.9863">
        <ele>1230.5</ele>
        <time>2026-05-06T15:29:14.000Z</time>
      </trkpt>
      <trkpt lat="41.819593" lon="22.986308">
        <ele>1230.5</ele>
        <time>2026-05-06T15:29:15.000Z</time>
      </trkpt>
      <trkpt lat="41.819604" lon="22.986315">
        <ele>1230.5</ele>
        <time>2026-05-06T15:29:16.000Z</time>
      </trkpt>
      <trkpt lat="41.819615" lon="22.986323">
        <ele>1230.5</ele>
        <time>2026-05-06T15:29:17.000Z</time>
      </trkpt>
      <trkpt lat="41.819627" lon="22.986333">
        <ele>1229.9</ele>
        <time>2026-05-06T15:29:18.000Z</time>
      </trkpt>
      <trkpt lat="41.819639" lon="22.986342">
        <ele>1229.9</ele>
        <time>2026-05-06T15:29:19.000Z</time>
      </trkpt>
      <trkpt lat="41.819651" lon="22.986353">
        <ele>1229.9</ele>
        <time>2026-05-06T15:29:20.000Z</time>
      </trkpt>
      <trkpt lat="41.819662" lon="22.986363">
        <ele>1229.9</ele>
        <time>2026-05-06T15:29:21.000Z</time>
      </trkpt>
      <trkpt lat="41.819674" lon="22.986373">
        <ele>1229.9</ele>
        <time>2026-05-06T15:29:22.000Z</time>
      </trkpt>
      <trkpt lat="41.819686" lon="22.986383">
        <ele>1229.4</ele>
        <time>2026-05-06T15:29:23.000Z</time>
      </trkpt>
      <trkpt lat="41.819699" lon="22.986392">
        <ele>1229.4</ele>
        <time>2026-05-06T15:29:24.000Z</time>
      </trkpt>
      <trkpt lat="41.819713" lon="22.9864">
        <ele>1229.4</ele>
        <time>2026-05-06T15:29:25.000Z</time>
      </trkpt>
      <trkpt lat="41.819727" lon="22.986406">
        <ele>1229.4</ele>
        <time>2026-05-06T15:29:26.000Z</time>
      </trkpt>
      <trkpt lat="41.819741" lon="22.98641">
        <ele>1229.4</ele>
        <time>2026-05-06T15:29:27.000Z</time>
      </trkpt>
      <trkpt lat="41.819755" lon="22.986412">
        <ele>1229.3</ele>
        <time>2026-05-06T15:29:28.000Z</time>
      </trkpt>
      <trkpt lat="41.819769" lon="22.986414">
        <ele>1229.3</ele>
        <time>2026-05-06T15:29:29.000Z</time>
      </trkpt>
      <trkpt lat="41.819783" lon="22.986417">
        <ele>1229.3</ele>
        <time>2026-05-06T15:29:30.000Z</time>
      </trkpt>
      <trkpt lat="41.819798" lon="22.986421">
        <ele>1229.3</ele>
        <time>2026-05-06T15:29:31.000Z</time>
      </trkpt>
      <trkpt lat="41.819813" lon="22.986426">
        <ele>1229.3</ele>
        <time>2026-05-06T15:29:32.000Z</time>
      </trkpt>
      <trkpt lat="41.819827" lon="22.986431">
        <ele>1228.9</ele>
        <time>2026-05-06T15:29:33.000Z</time>
      </trkpt>
      <trkpt lat="41.819841" lon="22.986437">
        <ele>1228.9</ele>
        <time>2026-05-06T15:29:34.000Z</time>
      </trkpt>
      <trkpt lat="41.819854" lon="22.986444">
        <ele>1228.9</ele>
        <time>2026-05-06T15:29:35.000Z</time>
      </trkpt>
      <trkpt lat="41.819867" lon="22.986451">
        <ele>1228.9</ele>
        <time>2026-05-06T15:29:36.000Z</time>
      </trkpt>
      <trkpt lat="41.81988" lon="22.986458">
        <ele>1228.9</ele>
        <time>2026-05-06T15:29:37.000Z</time>
      </trkpt>
      <trkpt lat="41.819892" lon="22.986465">
        <ele>1228.5</ele>
        <time>2026-05-06T15:29:38.000Z</time>
      </trkpt>
      <trkpt lat="41.819905" lon="22.986473">
        <ele>1228.5</ele>
        <time>2026-05-06T15:29:39.000Z</time>
      </trkpt>
      <trkpt lat="41.819918" lon="22.98648">
        <ele>1228.5</ele>
        <time>2026-05-06T15:29:40.000Z</time>
      </trkpt>
      <trkpt lat="41.819931" lon="22.986488">
        <ele>1228.5</ele>
        <time>2026-05-06T15:29:41.000Z</time>
      </trkpt>
      <trkpt lat="41.819944" lon="22.986497">
        <ele>1228.5</ele>
        <time>2026-05-06T15:29:42.000Z</time>
      </trkpt>
      <trkpt lat="41.819958" lon="22.986506">
        <ele>1228.2</ele>
        <time>2026-05-06T15:29:43.000Z</time>
      </trkpt>
      <trkpt lat="41.819971" lon="22.986515">
        <ele>1228.2</ele>
        <time>2026-05-06T15:29:44.000Z</time>
      </trkpt>
      <trkpt lat="41.819983" lon="22.986525">
        <ele>1228.2</ele>
        <time>2026-05-06T15:29:45.000Z</time>
      </trkpt>
      <trkpt lat="41.819996" lon="22.986535">
        <ele>1228.2</ele>
        <time>2026-05-06T15:29:46.000Z</time>
      </trkpt>
      <trkpt lat="41.820007" lon="22.986545">
        <ele>1228.2</ele>
        <time>2026-05-06T15:29:47.000Z</time>
      </trkpt>
      <trkpt lat="41.820018" lon="22.986558">
        <ele>1227.6</ele>
        <time>2026-05-06T15:29:48.000Z</time>
      </trkpt>
      <trkpt lat="41.820028" lon="22.986571">
        <ele>1227.6</ele>
        <time>2026-05-06T15:29:49.000Z</time>
      </trkpt>
      <trkpt lat="41.820038" lon="22.986585">
        <ele>1227.6</ele>
        <time>2026-05-06T15:29:50.000Z</time>
      </trkpt>
      <trkpt lat="41.820047" lon="22.9866">
        <ele>1227.6</ele>
        <time>2026-05-06T15:29:51.000Z</time>
      </trkpt>
      <trkpt lat="41.820055" lon="22.986616">
        <ele>1227.6</ele>
        <time>2026-05-06T15:29:52.000Z</time>
      </trkpt>
      <trkpt lat="41.820063" lon="22.986632">
        <ele>1227</ele>
        <time>2026-05-06T15:29:53.000Z</time>
      </trkpt>
      <trkpt lat="41.82007" lon="22.986648">
        <ele>1227</ele>
        <time>2026-05-06T15:29:54.000Z</time>
      </trkpt>
      <trkpt lat="41.820077" lon="22.986666">
        <ele>1227</ele>
        <time>2026-05-06T15:29:55.000Z</time>
      </trkpt>
      <trkpt lat="41.820083" lon="22.986684">
        <ele>1227</ele>
        <time>2026-05-06T15:29:56.000Z</time>
      </trkpt>
      <trkpt lat="41.820088" lon="22.986702">
        <ele>1227</ele>
        <time>2026-05-06T15:29:57.000Z</time>
      </trkpt>
      <trkpt lat="41.820092" lon="22.98672">
        <ele>1226.7</ele>
        <time>2026-05-06T15:29:58.000Z</time>
      </trkpt>
      <trkpt lat="41.820094" lon="22.986739">
        <ele>1226.7</ele>
        <time>2026-05-06T15:29:59.000Z</time>
      </trkpt>
      <trkpt lat="41.820096" lon="22.986757">
        <ele>1226.7</ele>
        <time>2026-05-06T15:30:00.000Z</time>
      </trkpt>
      <trkpt lat="41.820097" lon="22.986775">
        <ele>1226.7</ele>
        <time>2026-05-06T15:30:01.000Z</time>
      </trkpt>
      <trkpt lat="41.820097" lon="22.986793">
        <ele>1226.7</ele>
        <time>2026-05-06T15:30:02.000Z</time>
      </trkpt>
      <trkpt lat="41.820097" lon="22.986811">
        <ele>1226.3</ele>
        <time>2026-05-06T15:30:03.000Z</time>
      </trkpt>
      <trkpt lat="41.820097" lon="22.986829">
        <ele>1226.3</ele>
        <time>2026-05-06T15:30:04.000Z</time>
      </trkpt>
      <trkpt lat="41.820096" lon="22.986847">
        <ele>1226.3</ele>
        <time>2026-05-06T15:30:05.000Z</time>
      </trkpt>
      <trkpt lat="41.820095" lon="22.986866">
        <ele>1226.3</ele>
        <time>2026-05-06T15:30:06.000Z</time>
      </trkpt>
      <trkpt lat="41.820094" lon="22.986886">
        <ele>1226.3</ele>
        <time>2026-05-06T15:30:07.000Z</time>
      </trkpt>
      <trkpt lat="41.820093" lon="22.986905">
        <ele>1225.8</ele>
        <time>2026-05-06T15:30:08.000Z</time>
      </trkpt>
      <trkpt lat="41.82009" lon="22.986925">
        <ele>1225.8</ele>
        <time>2026-05-06T15:30:09.000Z</time>
      </trkpt>
      <trkpt lat="41.820087" lon="22.986944">
        <ele>1225.8</ele>
        <time>2026-05-06T15:30:10.000Z</time>
      </trkpt>
      <trkpt lat="41.820083" lon="22.986962">
        <ele>1225.8</ele>
        <time>2026-05-06T15:30:11.000Z</time>
      </trkpt>
      <trkpt lat="41.820078" lon="22.986979">
        <ele>1225.8</ele>
        <time>2026-05-06T15:30:12.000Z</time>
      </trkpt>
      <trkpt lat="41.820074" lon="22.986998">
        <ele>1225.5</ele>
        <time>2026-05-06T15:30:13.000Z</time>
      </trkpt>
      <trkpt lat="41.820071" lon="22.987015">
        <ele>1225.5</ele>
        <time>2026-05-06T15:30:14.000Z</time>
      </trkpt>
      <trkpt lat="41.820067" lon="22.987031">
        <ele>1225.5</ele>
        <time>2026-05-06T15:30:15.000Z</time>
      </trkpt>
      <trkpt lat="41.820064" lon="22.987048">
        <ele>1225.5</ele>
        <time>2026-05-06T15:30:16.000Z</time>
      </trkpt>
      <trkpt lat="41.820062" lon="22.987064">
        <ele>1225.5</ele>
        <time>2026-05-06T15:30:17.000Z</time>
      </trkpt>
      <trkpt lat="41.82006" lon="22.987079">
        <ele>1224.7</ele>
        <time>2026-05-06T15:30:18.000Z</time>
      </trkpt>
      <trkpt lat="41.820057" lon="22.987097">
        <ele>1224.7</ele>
        <time>2026-05-06T15:30:19.000Z</time>
      </trkpt>
      <trkpt lat="41.820055" lon="22.987115">
        <ele>1224.7</ele>
        <time>2026-05-06T15:30:20.000Z</time>
      </trkpt>
      <trkpt lat="41.820054" lon="22.987133">
        <ele>1224.7</ele>
        <time>2026-05-06T15:30:21.000Z</time>
      </trkpt>
      <trkpt lat="41.820052" lon="22.987153">
        <ele>1224.7</ele>
        <time>2026-05-06T15:30:22.000Z</time>
      </trkpt>
      <trkpt lat="41.82005" lon="22.987174">
        <ele>1224</ele>
        <time>2026-05-06T15:30:23.000Z</time>
      </trkpt>
      <trkpt lat="41.820048" lon="22.987194">
        <ele>1224</ele>
        <time>2026-05-06T15:30:24.000Z</time>
      </trkpt>
      <trkpt lat="41.820046" lon="22.987214">
        <ele>1224</ele>
        <time>2026-05-06T15:30:25.000Z</time>
      </trkpt>
      <trkpt lat="41.820044" lon="22.987233">
        <ele>1224</ele>
        <time>2026-05-06T15:30:26.000Z</time>
      </trkpt>
      <trkpt lat="41.820042" lon="22.987253">
        <ele>1224</ele>
        <time>2026-05-06T15:30:27.000Z</time>
      </trkpt>
      <trkpt lat="41.82004" lon="22.987271">
        <ele>1223.7</ele>
        <time>2026-05-06T15:30:28.000Z</time>
      </trkpt>
      <trkpt lat="41.820038" lon="22.98729">
        <ele>1223.7</ele>
        <time>2026-05-06T15:30:29.000Z</time>
      </trkpt>
      <trkpt lat="41.820037" lon="22.987307">
        <ele>1223.7</ele>
        <time>2026-05-06T15:30:30.000Z</time>
      </trkpt>
      <trkpt lat="41.820034" lon="22.987325">
        <ele>1223.7</ele>
        <time>2026-05-06T15:30:31.000Z</time>
      </trkpt>
      <trkpt lat="41.820032" lon="22.987341">
        <ele>1223.7</ele>
        <time>2026-05-06T15:30:32.000Z</time>
      </trkpt>
      <trkpt lat="41.82003" lon="22.987357">
        <ele>1223.1</ele>
        <time>2026-05-06T15:30:33.000Z</time>
      </trkpt>
      <trkpt lat="41.820028" lon="22.987373">
        <ele>1223.1</ele>
        <time>2026-05-06T15:30:34.000Z</time>
      </trkpt>
      <trkpt lat="41.820026" lon="22.98739">
        <ele>1223.1</ele>
        <time>2026-05-06T15:30:35.000Z</time>
      </trkpt>
      <trkpt lat="41.820023" lon="22.987406">
        <ele>1223.1</ele>
        <time>2026-05-06T15:30:36.000Z</time>
      </trkpt>
      <trkpt lat="41.82002" lon="22.987422">
        <ele>1223.1</ele>
        <time>2026-05-06T15:30:37.000Z</time>
      </trkpt>
      <trkpt lat="41.820016" lon="22.987441">
        <ele>1222.4</ele>
        <time>2026-05-06T15:30:38.000Z</time>
      </trkpt>
      <trkpt lat="41.820014" lon="22.987459">
        <ele>1222.4</ele>
        <time>2026-05-06T15:30:39.000Z</time>
      </trkpt>
      <trkpt lat="41.820012" lon="22.987479">
        <ele>1222.4</ele>
        <time>2026-05-06T15:30:40.000Z</time>
      </trkpt>
      <trkpt lat="41.820011" lon="22.987499">
        <ele>1222.4</ele>
        <time>2026-05-06T15:30:41.000Z</time>
      </trkpt>
      <trkpt lat="41.820009" lon="22.987519">
        <ele>1222.4</ele>
        <time>2026-05-06T15:30:42.000Z</time>
      </trkpt>
      <trkpt lat="41.820007" lon="22.98754">
        <ele>1222.1</ele>
        <time>2026-05-06T15:30:43.000Z</time>
      </trkpt>
      <trkpt lat="41.820002" lon="22.987561">
        <ele>1222.1</ele>
        <time>2026-05-06T15:30:44.000Z</time>
      </trkpt>
      <trkpt lat="41.819996" lon="22.987582">
        <ele>1222.1</ele>
        <time>2026-05-06T15:30:45.000Z</time>
      </trkpt>
      <trkpt lat="41.819991" lon="22.987604">
        <ele>1222.1</ele>
        <time>2026-05-06T15:30:46.000Z</time>
      </trkpt>
      <trkpt lat="41.819987" lon="22.987624">
        <ele>1222.1</ele>
        <time>2026-05-06T15:30:47.000Z</time>
      </trkpt>
      <trkpt lat="41.819983" lon="22.987643">
        <ele>1221.4</ele>
        <time>2026-05-06T15:30:48.000Z</time>
      </trkpt>
      <trkpt lat="41.819981" lon="22.987661">
        <ele>1221.4</ele>
        <time>2026-05-06T15:30:49.000Z</time>
      </trkpt>
      <trkpt lat="41.819979" lon="22.98768">
        <ele>1221.4</ele>
        <time>2026-05-06T15:30:50.000Z</time>
      </trkpt>
      <trkpt lat="41.819976" lon="22.9877">
        <ele>1221.4</ele>
        <time>2026-05-06T15:30:51.000Z</time>
      </trkpt>
      <trkpt lat="41.819972" lon="22.98772">
        <ele>1221.4</ele>
        <time>2026-05-06T15:30:52.000Z</time>
      </trkpt>
      <trkpt lat="41.819967" lon="22.98774">
        <ele>1220.8</ele>
        <time>2026-05-06T15:30:53.000Z</time>
      </trkpt>
      <trkpt lat="41.819963" lon="22.987759">
        <ele>1220.8</ele>
        <time>2026-05-06T15:30:54.000Z</time>
      </trkpt>
      <trkpt lat="41.819959" lon="22.987777">
        <ele>1220.8</ele>
        <time>2026-05-06T15:30:55.000Z</time>
      </trkpt>
      <trkpt lat="41.819955" lon="22.987794">
        <ele>1220.8</ele>
        <time>2026-05-06T15:30:56.000Z</time>
      </trkpt>
      <trkpt lat="41.819951" lon="22.987812">
        <ele>1220.8</ele>
        <time>2026-05-06T15:30:57.000Z</time>
      </trkpt>
      <trkpt lat="41.81995" lon="22.987831">
        <ele>1220.5</ele>
        <time>2026-05-06T15:30:58.000Z</time>
      </trkpt>
      <trkpt lat="41.819947" lon="22.98785">
        <ele>1220.5</ele>
        <time>2026-05-06T15:30:59.000Z</time>
      </trkpt>
      <trkpt lat="41.819945" lon="22.98787">
        <ele>1220.5</ele>
        <time>2026-05-06T15:31:00.000Z</time>
      </trkpt>
      <trkpt lat="41.819944" lon="22.98789">
        <ele>1220.5</ele>
        <time>2026-05-06T15:31:01.000Z</time>
      </trkpt>
      <trkpt lat="41.819942" lon="22.987911">
        <ele>1220.5</ele>
        <time>2026-05-06T15:31:02.000Z</time>
      </trkpt>
      <trkpt lat="41.819941" lon="22.98793">
        <ele>1219.7</ele>
        <time>2026-05-06T15:31:03.000Z</time>
      </trkpt>
      <trkpt lat="41.819939" lon="22.98795">
        <ele>1219.7</ele>
        <time>2026-05-06T15:31:04.000Z</time>
      </trkpt>
      <trkpt lat="41.819937" lon="22.987969">
        <ele>1219.7</ele>
        <time>2026-05-06T15:31:05.000Z</time>
      </trkpt>
      <trkpt lat="41.819934" lon="22.987987">
        <ele>1219.7</ele>
        <time>2026-05-06T15:31:06.000Z</time>
      </trkpt>
      <trkpt lat="41.819932" lon="22.988005">
        <ele>1219.7</ele>
        <time>2026-05-06T15:31:07.000Z</time>
      </trkpt>
      <trkpt lat="41.819929" lon="22.988022">
        <ele>1218.9</ele>
        <time>2026-05-06T15:31:08.000Z</time>
      </trkpt>
      <trkpt lat="41.819926" lon="22.988041">
        <ele>1218.9</ele>
        <time>2026-05-06T15:31:09.000Z</time>
      </trkpt>
      <trkpt lat="41.819923" lon="22.988061">
        <ele>1218.9</ele>
        <time>2026-05-06T15:31:10.000Z</time>
      </trkpt>
      <trkpt lat="41.819921" lon="22.988081">
        <ele>1218.9</ele>
        <time>2026-05-06T15:31:11.000Z</time>
      </trkpt>
      <trkpt lat="41.819918" lon="22.988101">
        <ele>1218.9</ele>
        <time>2026-05-06T15:31:12.000Z</time>
      </trkpt>
      <trkpt lat="41.819915" lon="22.988121">
        <ele>1218.5</ele>
        <time>2026-05-06T15:31:13.000Z</time>
      </trkpt>
      <trkpt lat="41.819912" lon="22.988139">
        <ele>1218.5</ele>
        <time>2026-05-06T15:31:14.000Z</time>
      </trkpt>
      <trkpt lat="41.81991" lon="22.988157">
        <ele>1218.5</ele>
        <time>2026-05-06T15:31:15.000Z</time>
      </trkpt>
      <trkpt lat="41.819907" lon="22.988176">
        <ele>1218.5</ele>
        <time>2026-05-06T15:31:16.000Z</time>
      </trkpt>
      <trkpt lat="41.819906" lon="22.988194">
        <ele>1218.5</ele>
        <time>2026-05-06T15:31:17.000Z</time>
      </trkpt>
      <trkpt lat="41.819903" lon="22.988213">
        <ele>1217.8</ele>
        <time>2026-05-06T15:31:18.000Z</time>
      </trkpt>
      <trkpt lat="41.8199" lon="22.988233">
        <ele>1217.8</ele>
        <time>2026-05-06T15:31:19.000Z</time>
      </trkpt>
      <trkpt lat="41.819898" lon="22.988252">
        <ele>1217.8</ele>
        <time>2026-05-06T15:31:20.000Z</time>
      </trkpt>
      <trkpt lat="41.819896" lon="22.988272">
        <ele>1217.8</ele>
        <time>2026-05-06T15:31:21.000Z</time>
      </trkpt>
      <trkpt lat="41.819894" lon="22.988291">
        <ele>1217.8</ele>
        <time>2026-05-06T15:31:22.000Z</time>
      </trkpt>
      <trkpt lat="41.819894" lon="22.98831">
        <ele>1217</ele>
        <time>2026-05-06T15:31:23.000Z</time>
      </trkpt>
      <trkpt lat="41.819893" lon="22.98833">
        <ele>1217</ele>
        <time>2026-05-06T15:31:24.000Z</time>
      </trkpt>
      <trkpt lat="41.819892" lon="22.988349">
        <ele>1217</ele>
        <time>2026-05-06T15:31:25.000Z</time>
      </trkpt>
      <trkpt lat="41.819893" lon="22.988368">
        <ele>1217</ele>
        <time>2026-05-06T15:31:26.000Z</time>
      </trkpt>
      <trkpt lat="41.819892" lon="22.988386">
        <ele>1217</ele>
        <time>2026-05-06T15:31:27.000Z</time>
      </trkpt>
      <trkpt lat="41.819892" lon="22.988404">
        <ele>1216.6</ele>
        <time>2026-05-06T15:31:28.000Z</time>
      </trkpt>
      <trkpt lat="41.819892" lon="22.988422">
        <ele>1216.6</ele>
        <time>2026-05-06T15:31:29.000Z</time>
      </trkpt>
      <trkpt lat="41.819892" lon="22.988437">
        <ele>1216.6</ele>
        <time>2026-05-06T15:31:30.000Z</time>
      </trkpt>
      <trkpt lat="41.819893" lon="22.988454">
        <ele>1216.6</ele>
        <time>2026-05-06T15:31:31.000Z</time>
      </trkpt>
      <trkpt lat="41.819894" lon="22.988469">
        <ele>1216.6</ele>
        <time>2026-05-06T15:31:32.000Z</time>
      </trkpt>
      <trkpt lat="41.819896" lon="22.988485">
        <ele>1215.9</ele>
        <time>2026-05-06T15:31:33.000Z</time>
      </trkpt>
      <trkpt lat="41.819898" lon="22.9885">
        <ele>1215.9</ele>
        <time>2026-05-06T15:31:34.000Z</time>
      </trkpt>
      <trkpt lat="41.819901" lon="22.988517">
        <ele>1215.9</ele>
        <time>2026-05-06T15:31:35.000Z</time>
      </trkpt>
      <trkpt lat="41.819905" lon="22.988534">
        <ele>1215.9</ele>
        <time>2026-05-06T15:31:36.000Z</time>
      </trkpt>
      <trkpt lat="41.819911" lon="22.988552">
        <ele>1215.9</ele>
        <time>2026-05-06T15:31:37.000Z</time>
      </trkpt>
      <trkpt lat="41.819916" lon="22.988571">
        <ele>1215.3</ele>
        <time>2026-05-06T15:31:38.000Z</time>
      </trkpt>
      <trkpt lat="41.819923" lon="22.98859">
        <ele>1215.3</ele>
        <time>2026-05-06T15:31:39.000Z</time>
      </trkpt>
      <trkpt lat="41.819928" lon="22.988609">
        <ele>1215.3</ele>
        <time>2026-05-06T15:31:40.000Z</time>
      </trkpt>
      <trkpt lat="41.819932" lon="22.988628">
        <ele>1215.3</ele>
        <time>2026-05-06T15:31:41.000Z</time>
      </trkpt>
      <trkpt lat="41.819934" lon="22.988648">
        <ele>1215.3</ele>
        <time>2026-05-06T15:31:42.000Z</time>
      </trkpt>
      <trkpt lat="41.819935" lon="22.988668">
        <ele>1215</ele>
        <time>2026-05-06T15:31:43.000Z</time>
      </trkpt>
      <trkpt lat="41.819936" lon="22.988689">
        <ele>1215</ele>
        <time>2026-05-06T15:31:44.000Z</time>
      </trkpt>
      <trkpt lat="41.819936" lon="22.988709">
        <ele>1215</ele>
        <time>2026-05-06T15:31:45.000Z</time>
      </trkpt>
      <trkpt lat="41.819938" lon="22.98873">
        <ele>1215</ele>
        <time>2026-05-06T15:31:46.000Z</time>
      </trkpt>
      <trkpt lat="41.81994" lon="22.98875">
        <ele>1215</ele>
        <time>2026-05-06T15:31:47.000Z</time>
      </trkpt>
      <trkpt lat="41.819943" lon="22.98877">
        <ele>1214.4</ele>
        <time>2026-05-06T15:31:48.000Z</time>
      </trkpt>
      <trkpt lat="41.819946" lon="22.988789">
        <ele>1214.4</ele>
        <time>2026-05-06T15:31:49.000Z</time>
      </trkpt>
      <trkpt lat="41.819948" lon="22.988807">
        <ele>1214.4</ele>
        <time>2026-05-06T15:31:50.000Z</time>
      </trkpt>
      <trkpt lat="41.819949" lon="22.988825">
        <ele>1214.4</ele>
        <time>2026-05-06T15:31:51.000Z</time>
      </trkpt>
      <trkpt lat="41.819949" lon="22.988842">
        <ele>1214.4</ele>
        <time>2026-05-06T15:31:52.000Z</time>
      </trkpt>
      <trkpt lat="41.819948" lon="22.98886">
        <ele>1213.9</ele>
        <time>2026-05-06T15:31:53.000Z</time>
      </trkpt>
      <trkpt lat="41.819948" lon="22.988879">
        <ele>1213.9</ele>
        <time>2026-05-06T15:31:54.000Z</time>
      </trkpt>
      <trkpt lat="41.819946" lon="22.988898">
        <ele>1213.9</ele>
        <time>2026-05-06T15:31:55.000Z</time>
      </trkpt>
      <trkpt lat="41.819945" lon="22.988919">
        <ele>1213.9</ele>
        <time>2026-05-06T15:31:56.000Z</time>
      </trkpt>
      <trkpt lat="41.819945" lon="22.98894">
        <ele>1213.9</ele>
        <time>2026-05-06T15:31:57.000Z</time>
      </trkpt>
      <trkpt lat="41.819945" lon="22.98896">
        <ele>1213.7</ele>
        <time>2026-05-06T15:31:58.000Z</time>
      </trkpt>
      <trkpt lat="41.819945" lon="22.988979">
        <ele>1213.7</ele>
        <time>2026-05-06T15:31:59.000Z</time>
      </trkpt>
      <trkpt lat="41.819948" lon="22.988999">
        <ele>1213.7</ele>
        <time>2026-05-06T15:32:00.000Z</time>
      </trkpt>
      <trkpt lat="41.81995" lon="22.989017">
        <ele>1213.7</ele>
        <time>2026-05-06T15:32:01.000Z</time>
      </trkpt>
      <trkpt lat="41.819952" lon="22.989035">
        <ele>1213.7</ele>
        <time>2026-05-06T15:32:02.000Z</time>
      </trkpt>
      <trkpt lat="41.819955" lon="22.989054">
        <ele>1213.2</ele>
        <time>2026-05-06T15:32:03.000Z</time>
      </trkpt>
      <trkpt lat="41.819958" lon="22.989072">
        <ele>1213.2</ele>
        <time>2026-05-06T15:32:04.000Z</time>
      </trkpt>
      <trkpt lat="41.819961" lon="22.989089">
        <ele>1213.2</ele>
        <time>2026-05-06T15:32:05.000Z</time>
      </trkpt>
      <trkpt lat="41.819964" lon="22.989106">
        <ele>1213.2</ele>
        <time>2026-05-06T15:32:06.000Z</time>
      </trkpt>
      <trkpt lat="41.819967" lon="22.989123">
        <ele>1213.2</ele>
        <time>2026-05-06T15:32:07.000Z</time>
      </trkpt>
      <trkpt lat="41.81997" lon="22.989139">
        <ele>1212.6</ele>
        <time>2026-05-06T15:32:08.000Z</time>
      </trkpt>
      <trkpt lat="41.819973" lon="22.989155">
        <ele>1212.6</ele>
        <time>2026-05-06T15:32:09.000Z</time>
      </trkpt>
      <trkpt lat="41.819976" lon="22.989172">
        <ele>1212.6</ele>
        <time>2026-05-06T15:32:10.000Z</time>
      </trkpt>
      <trkpt lat="41.819978" lon="22.989191">
        <ele>1212.6</ele>
        <time>2026-05-06T15:32:11.000Z</time>
      </trkpt>
      <trkpt lat="41.819981" lon="22.989209">
        <ele>1212.6</ele>
        <time>2026-05-06T15:32:12.000Z</time>
      </trkpt>
      <trkpt lat="41.819984" lon="22.989229">
        <ele>1212.2</ele>
        <time>2026-05-06T15:32:13.000Z</time>
      </trkpt>
      <trkpt lat="41.819985" lon="22.989249">
        <ele>1212.2</ele>
        <time>2026-05-06T15:32:14.000Z</time>
      </trkpt>
      <trkpt lat="41.819986" lon="22.989269">
        <ele>1212.2</ele>
        <time>2026-05-06T15:32:15.000Z</time>
      </trkpt>
      <trkpt lat="41.819988" lon="22.989289">
        <ele>1212.2</ele>
        <time>2026-05-06T15:32:16.000Z</time>
      </trkpt>
      <trkpt lat="41.81999" lon="22.989309">
        <ele>1212.2</ele>
        <time>2026-05-06T15:32:17.000Z</time>
      </trkpt>
      <trkpt lat="41.819991" lon="22.989329">
        <ele>1211.5</ele>
        <time>2026-05-06T15:32:18.000Z</time>
      </trkpt>
      <trkpt lat="41.819993" lon="22.989349">
        <ele>1211.5</ele>
        <time>2026-05-06T15:32:19.000Z</time>
      </trkpt>
      <trkpt lat="41.819996" lon="22.989367">
        <ele>1211.5</ele>
        <time>2026-05-06T15:32:20.000Z</time>
      </trkpt>
      <trkpt lat="41.82" lon="22.989384">
        <ele>1211.5</ele>
        <time>2026-05-06T15:32:21.000Z</time>
      </trkpt>
      <trkpt lat="41.820004" lon="22.989401">
        <ele>1211.5</ele>
        <time>2026-05-06T15:32:22.000Z</time>
      </trkpt>
      <trkpt lat="41.82001" lon="22.989418">
        <ele>1211</ele>
        <time>2026-05-06T15:32:23.000Z</time>
      </trkpt>
      <trkpt lat="41.820018" lon="22.989435">
        <ele>1211</ele>
        <time>2026-05-06T15:32:24.000Z</time>
      </trkpt>
      <trkpt lat="41.820026" lon="22.989452">
        <ele>1211</ele>
        <time>2026-05-06T15:32:25.000Z</time>
      </trkpt>
      <trkpt lat="41.820034" lon="22.989469">
        <ele>1211</ele>
        <time>2026-05-06T15:32:26.000Z</time>
      </trkpt>
      <trkpt lat="41.820042" lon="22.989487">
        <ele>1211</ele>
        <time>2026-05-06T15:32:27.000Z</time>
      </trkpt>
      <trkpt lat="41.820051" lon="22.989504">
        <ele>1210.7</ele>
        <time>2026-05-06T15:32:28.000Z</time>
      </trkpt>
      <trkpt lat="41.820059" lon="22.989521">
        <ele>1210.7</ele>
        <time>2026-05-06T15:32:29.000Z</time>
      </trkpt>
      <trkpt lat="41.820067" lon="22.989537">
        <ele>1210.7</ele>
        <time>2026-05-06T15:32:30.000Z</time>
      </trkpt>
      <trkpt lat="41.820073" lon="22.989552">
        <ele>1210.7</ele>
        <time>2026-05-06T15:32:31.000Z</time>
      </trkpt>
      <trkpt lat="41.820079" lon="22.989567">
        <ele>1210.7</ele>
        <time>2026-05-06T15:32:32.000Z</time>
      </trkpt>
      <trkpt lat="41.820085" lon="22.989583">
        <ele>1210.2</ele>
        <time>2026-05-06T15:32:33.000Z</time>
      </trkpt>
      <trkpt lat="41.820092" lon="22.989598">
        <ele>1210.2</ele>
        <time>2026-05-06T15:32:34.000Z</time>
      </trkpt>
      <trkpt lat="41.820099" lon="22.989614">
        <ele>1210.2</ele>
        <time>2026-05-06T15:32:35.000Z</time>
      </trkpt>
      <trkpt lat="41.820107" lon="22.989629">
        <ele>1210.2</ele>
        <time>2026-05-06T15:32:36.000Z</time>
      </trkpt>
      <trkpt lat="41.820118" lon="22.989641">
        <ele>1210.2</ele>
        <time>2026-05-06T15:32:37.000Z</time>
      </trkpt>
      <trkpt lat="41.820129" lon="22.989651">
        <ele>1209.7</ele>
        <time>2026-05-06T15:32:38.000Z</time>
      </trkpt>
      <trkpt lat="41.820141" lon="22.98966">
        <ele>1209.7</ele>
        <time>2026-05-06T15:32:39.000Z</time>
      </trkpt>
      <trkpt lat="41.820153" lon="22.989666">
        <ele>1209.7</ele>
        <time>2026-05-06T15:32:40.000Z</time>
      </trkpt>
      <trkpt lat="41.820166" lon="22.989672">
        <ele>1209.7</ele>
        <time>2026-05-06T15:32:41.000Z</time>
      </trkpt>
      <trkpt lat="41.820179" lon="22.989679">
        <ele>1209.7</ele>
        <time>2026-05-06T15:32:42.000Z</time>
      </trkpt>
      <trkpt lat="41.820191" lon="22.989687">
        <ele>1209.4</ele>
        <time>2026-05-06T15:32:43.000Z</time>
      </trkpt>
      <trkpt lat="41.820203" lon="22.989695">
        <ele>1209.4</ele>
        <time>2026-05-06T15:32:44.000Z</time>
      </trkpt>
      <trkpt lat="41.820215" lon="22.989702">
        <ele>1209.4</ele>
        <time>2026-05-06T15:32:45.000Z</time>
      </trkpt>
      <trkpt lat="41.820226" lon="22.98971">
        <ele>1209.4</ele>
        <time>2026-05-06T15:32:46.000Z</time>
      </trkpt>
      <trkpt lat="41.820238" lon="22.989715">
        <ele>1209.4</ele>
        <time>2026-05-06T15:32:47.000Z</time>
      </trkpt>
      <trkpt lat="41.82025" lon="22.989717">
        <ele>1208.7</ele>
        <time>2026-05-06T15:32:48.000Z</time>
      </trkpt>
      <trkpt lat="41.820263" lon="22.989718">
        <ele>1208.7</ele>
        <time>2026-05-06T15:32:49.000Z</time>
      </trkpt>
      <trkpt lat="41.820276" lon="22.989717">
        <ele>1208.7</ele>
        <time>2026-05-06T15:32:50.000Z</time>
      </trkpt>
      <trkpt lat="41.820291" lon="22.989715">
        <ele>1208.7</ele>
        <time>2026-05-06T15:32:51.000Z</time>
      </trkpt>
      <trkpt lat="41.820305" lon="22.989712">
        <ele>1208.7</ele>
        <time>2026-05-06T15:32:52.000Z</time>
      </trkpt>
      <trkpt lat="41.82032" lon="22.98971">
        <ele>1208</ele>
        <time>2026-05-06T15:32:53.000Z</time>
      </trkpt>
      <trkpt lat="41.820334" lon="22.989708">
        <ele>1208</ele>
        <time>2026-05-06T15:32:54.000Z</time>
      </trkpt>
      <trkpt lat="41.820348" lon="22.989706">
        <ele>1208</ele>
        <time>2026-05-06T15:32:55.000Z</time>
      </trkpt>
      <trkpt lat="41.820363" lon="22.989704">
        <ele>1208</ele>
        <time>2026-05-06T15:32:56.000Z</time>
      </trkpt>
      <trkpt lat="41.820377" lon="22.989703">
        <ele>1208</ele>
        <time>2026-05-06T15:32:57.000Z</time>
      </trkpt>
      <trkpt lat="41.820392" lon="22.989701">
        <ele>1207.6</ele>
        <time>2026-05-06T15:32:58.000Z</time>
      </trkpt>
      <trkpt lat="41.820405" lon="22.989698">
        <ele>1207.6</ele>
        <time>2026-05-06T15:32:59.000Z</time>
      </trkpt>
      <trkpt lat="41.820419" lon="22.989695">
        <ele>1207.6</ele>
        <time>2026-05-06T15:33:00.000Z</time>
      </trkpt>
      <trkpt lat="41.820432" lon="22.98969">
        <ele>1207.6</ele>
        <time>2026-05-06T15:33:01.000Z</time>
      </trkpt>
      <trkpt lat="41.820445" lon="22.989686">
        <ele>1207.6</ele>
        <time>2026-05-06T15:33:02.000Z</time>
      </trkpt>
      <trkpt lat="41.820459" lon="22.989681">
        <ele>1206.8</ele>
        <time>2026-05-06T15:33:03.000Z</time>
      </trkpt>
      <trkpt lat="41.820473" lon="22.989677">
        <ele>1206.8</ele>
        <time>2026-05-06T15:33:04.000Z</time>
      </trkpt>
      <trkpt lat="41.820488" lon="22.989673">
        <ele>1206.8</ele>
        <time>2026-05-06T15:33:05.000Z</time>
      </trkpt>
      <trkpt lat="41.820502" lon="22.989669">
        <ele>1206.8</ele>
        <time>2026-05-06T15:33:06.000Z</time>
      </trkpt>
      <trkpt lat="41.820517" lon="22.989665">
        <ele>1206.8</ele>
        <time>2026-05-06T15:33:07.000Z</time>
      </trkpt>
      <trkpt lat="41.820531" lon="22.98966">
        <ele>1205.9</ele>
        <time>2026-05-06T15:33:08.000Z</time>
      </trkpt>
      <trkpt lat="41.820545" lon="22.989655">
        <ele>1205.9</ele>
        <time>2026-05-06T15:33:09.000Z</time>
      </trkpt>
      <trkpt lat="41.82056" lon="22.98965">
        <ele>1205.9</ele>
        <time>2026-05-06T15:33:10.000Z</time>
      </trkpt>
      <trkpt lat="41.820575" lon="22.989645">
        <ele>1205.9</ele>
        <time>2026-05-06T15:33:11.000Z</time>
      </trkpt>
      <trkpt lat="41.82059" lon="22.98964">
        <ele>1205.9</ele>
        <time>2026-05-06T15:33:12.000Z</time>
      </trkpt>
      <trkpt lat="41.820605" lon="22.989637">
        <ele>1205.5</ele>
        <time>2026-05-06T15:33:13.000Z</time>
      </trkpt>
      <trkpt lat="41.82062" lon="22.989634">
        <ele>1205.5</ele>
        <time>2026-05-06T15:33:14.000Z</time>
      </trkpt>
      <trkpt lat="41.820634" lon="22.989632">
        <ele>1205.5</ele>
        <time>2026-05-06T15:33:15.000Z</time>
      </trkpt>
      <trkpt lat="41.820649" lon="22.989629">
        <ele>1205.5</ele>
        <time>2026-05-06T15:33:16.000Z</time>
      </trkpt>
      <trkpt lat="41.820663" lon="22.989626">
        <ele>1205.5</ele>
        <time>2026-05-06T15:33:17.000Z</time>
      </trkpt>
      <trkpt lat="41.820676" lon="22.98962">
        <ele>1204.6</ele>
        <time>2026-05-06T15:33:18.000Z</time>
      </trkpt>
      <trkpt lat="41.82069" lon="22.989614">
        <ele>1204.6</ele>
        <time>2026-05-06T15:33:19.000Z</time>
      </trkpt>
      <trkpt lat="41.820703" lon="22.989607">
        <ele>1204.6</ele>
        <time>2026-05-06T15:33:20.000Z</time>
      </trkpt>
      <trkpt lat="41.820716" lon="22.989601">
        <ele>1204.6</ele>
        <time>2026-05-06T15:33:21.000Z</time>
      </trkpt>
      <trkpt lat="41.820729" lon="22.989597">
        <ele>1204.6</ele>
        <time>2026-05-06T15:33:22.000Z</time>
      </trkpt>
      <trkpt lat="41.820741" lon="22.989593">
        <ele>1203.7</ele>
        <time>2026-05-06T15:33:23.000Z</time>
      </trkpt>
      <trkpt lat="41.820754" lon="22.989588">
        <ele>1203.7</ele>
        <time>2026-05-06T15:33:24.000Z</time>
      </trkpt>
      <trkpt lat="41.820767" lon="22.989583">
        <ele>1203.7</ele>
        <time>2026-05-06T15:33:25.000Z</time>
      </trkpt>
      <trkpt lat="41.820779" lon="22.989579">
        <ele>1203.7</ele>
        <time>2026-05-06T15:33:26.000Z</time>
      </trkpt>
      <trkpt lat="41.820793" lon="22.989573">
        <ele>1203.7</ele>
        <time>2026-05-06T15:33:27.000Z</time>
      </trkpt>
      <trkpt lat="41.820807" lon="22.989568">
        <ele>1203.3</ele>
        <time>2026-05-06T15:33:28.000Z</time>
      </trkpt>
      <trkpt lat="41.820821" lon="22.989564">
        <ele>1203.3</ele>
        <time>2026-05-06T15:33:29.000Z</time>
      </trkpt>
      <trkpt lat="41.820835" lon="22.989559">
        <ele>1203.3</ele>
        <time>2026-05-06T15:33:30.000Z</time>
      </trkpt>
      <trkpt lat="41.820851" lon="22.989555">
        <ele>1203.3</ele>
        <time>2026-05-06T15:33:31.000Z</time>
      </trkpt>
      <trkpt lat="41.820867" lon="22.989553">
        <ele>1203.3</ele>
        <time>2026-05-06T15:33:32.000Z</time>
      </trkpt>
      <trkpt lat="41.820883" lon="22.989551">
        <ele>1202.6</ele>
        <time>2026-05-06T15:33:33.000Z</time>
      </trkpt>
      <trkpt lat="41.820899" lon="22.989549">
        <ele>1202.6</ele>
        <time>2026-05-06T15:33:34.000Z</time>
      </trkpt>
      <trkpt lat="41.820915" lon="22.989548">
        <ele>1202.6</ele>
        <time>2026-05-06T15:33:35.000Z</time>
      </trkpt>
      <trkpt lat="41.820931" lon="22.989545">
        <ele>1202.6</ele>
        <time>2026-05-06T15:33:36.000Z</time>
      </trkpt>
      <trkpt lat="41.820947" lon="22.989542">
        <ele>1202.6</ele>
        <time>2026-05-06T15:33:37.000Z</time>
      </trkpt>
      <trkpt lat="41.820961" lon="22.989539">
        <ele>1201.9</ele>
        <time>2026-05-06T15:33:38.000Z</time>
      </trkpt>
      <trkpt lat="41.820976" lon="22.989536">
        <ele>1201.9</ele>
        <time>2026-05-06T15:33:39.000Z</time>
      </trkpt>
      <trkpt lat="41.82099" lon="22.989534">
        <ele>1201.9</ele>
        <time>2026-05-06T15:33:40.000Z</time>
      </trkpt>
      <trkpt lat="41.821003" lon="22.989531">
        <ele>1201.9</ele>
        <time>2026-05-06T15:33:41.000Z</time>
      </trkpt>
      <trkpt lat="41.821016" lon="22.989528">
        <ele>1201.9</ele>
        <time>2026-05-06T15:33:42.000Z</time>
      </trkpt>
      <trkpt lat="41.821029" lon="22.989525">
        <ele>1201.5</ele>
        <time>2026-05-06T15:33:43.000Z</time>
      </trkpt>
      <trkpt lat="41.821042" lon="22.989523">
        <ele>1201.5</ele>
        <time>2026-05-06T15:33:44.000Z</time>
      </trkpt>
      <trkpt lat="41.821056" lon="22.98952">
        <ele>1201.5</ele>
        <time>2026-05-06T15:33:45.000Z</time>
      </trkpt>
      <trkpt lat="41.82107" lon="22.989517">
        <ele>1201.5</ele>
        <time>2026-05-06T15:33:46.000Z</time>
      </trkpt>
      <trkpt lat="41.821084" lon="22.989515">
        <ele>1201.5</ele>
        <time>2026-05-06T15:33:47.000Z</time>
      </trkpt>
      <trkpt lat="41.821098" lon="22.989514">
        <ele>1200.8</ele>
        <time>2026-05-06T15:33:48.000Z</time>
      </trkpt>
      <trkpt lat="41.821111" lon="22.989511">
        <ele>1200.8</ele>
        <time>2026-05-06T15:33:49.000Z</time>
      </trkpt>
      <trkpt lat="41.821125" lon="22.98951">
        <ele>1200.8</ele>
        <time>2026-05-06T15:33:50.000Z</time>
      </trkpt>
      <trkpt lat="41.82114" lon="22.989507">
        <ele>1200.8</ele>
        <time>2026-05-06T15:33:51.000Z</time>
      </trkpt>
      <trkpt lat="41.821154" lon="22.989503">
        <ele>1200.8</ele>
        <time>2026-05-06T15:33:52.000Z</time>
      </trkpt>
      <trkpt lat="41.821169" lon="22.989498">
        <ele>1200.4</ele>
        <time>2026-05-06T15:33:53.000Z</time>
      </trkpt>
      <trkpt lat="41.821183" lon="22.989493">
        <ele>1200.4</ele>
        <time>2026-05-06T15:33:54.000Z</time>
      </trkpt>
      <trkpt lat="41.821197" lon="22.989487">
        <ele>1200.4</ele>
        <time>2026-05-06T15:33:55.000Z</time>
      </trkpt>
      <trkpt lat="41.821211" lon="22.989483">
        <ele>1200.4</ele>
        <time>2026-05-06T15:33:56.000Z</time>
      </trkpt>
      <trkpt lat="41.821225" lon="22.989481">
        <ele>1200.4</ele>
        <time>2026-05-06T15:33:57.000Z</time>
      </trkpt>
      <trkpt lat="41.82124" lon="22.989481">
        <ele>1200.2</ele>
        <time>2026-05-06T15:33:58.000Z</time>
      </trkpt>
      <trkpt lat="41.821254" lon="22.98948">
        <ele>1200.2</ele>
        <time>2026-05-06T15:33:59.000Z</time>
      </trkpt>
      <trkpt lat="41.821268" lon="22.98948">
        <ele>1200.2</ele>
        <time>2026-05-06T15:34:00.000Z</time>
      </trkpt>
      <trkpt lat="41.821282" lon="22.989478">
        <ele>1200.2</ele>
        <time>2026-05-06T15:34:01.000Z</time>
      </trkpt>
      <trkpt lat="41.821296" lon="22.989477">
        <ele>1200.2</ele>
        <time>2026-05-06T15:34:02.000Z</time>
      </trkpt>
      <trkpt lat="41.82131" lon="22.989475">
        <ele>1199.7</ele>
        <time>2026-05-06T15:34:03.000Z</time>
      </trkpt>
      <trkpt lat="41.821323" lon="22.989472">
        <ele>1199.7</ele>
        <time>2026-05-06T15:34:04.000Z</time>
      </trkpt>
      <trkpt lat="41.821337" lon="22.989468">
        <ele>1199.7</ele>
        <time>2026-05-06T15:34:05.000Z</time>
      </trkpt>
      <trkpt lat="41.821352" lon="22.989466">
        <ele>1199.7</ele>
        <time>2026-05-06T15:34:06.000Z</time>
      </trkpt>
      <trkpt lat="41.821367" lon="22.989463">
        <ele>1199.7</ele>
        <time>2026-05-06T15:34:07.000Z</time>
      </trkpt>
      <trkpt lat="41.821382" lon="22.98946">
        <ele>1198.8</ele>
        <time>2026-05-06T15:34:08.000Z</time>
      </trkpt>
      <trkpt lat="41.821397" lon="22.989459">
        <ele>1198.8</ele>
        <time>2026-05-06T15:34:09.000Z</time>
      </trkpt>
      <trkpt lat="41.821412" lon="22.989459">
        <ele>1198.8</ele>
        <time>2026-05-06T15:34:10.000Z</time>
      </trkpt>
      <trkpt lat="41.821427" lon="22.989459">
        <ele>1198.8</ele>
        <time>2026-05-06T15:34:11.000Z</time>
      </trkpt>
      <trkpt lat="41.821441" lon="22.98946">
        <ele>1198.8</ele>
        <time>2026-05-06T15:34:12.000Z</time>
      </trkpt>
      <trkpt lat="41.821455" lon="22.989463">
        <ele>1198.4</ele>
        <time>2026-05-06T15:34:13.000Z</time>
      </trkpt>
      <trkpt lat="41.821468" lon="22.989465">
        <ele>1198.4</ele>
        <time>2026-05-06T15:34:14.000Z</time>
      </trkpt>
      <trkpt lat="41.821482" lon="22.989468">
        <ele>1198.4</ele>
        <time>2026-05-06T15:34:15.000Z</time>
      </trkpt>
      <trkpt lat="41.821497" lon="22.989471">
        <ele>1198.4</ele>
        <time>2026-05-06T15:34:16.000Z</time>
      </trkpt>
      <trkpt lat="41.821512" lon="22.989473">
        <ele>1198.4</ele>
        <time>2026-05-06T15:34:17.000Z</time>
      </trkpt>
      <trkpt lat="41.821528" lon="22.989475">
        <ele>1197.6</ele>
        <time>2026-05-06T15:34:18.000Z</time>
      </trkpt>
      <trkpt lat="41.821544" lon="22.989476">
        <ele>1197.6</ele>
        <time>2026-05-06T15:34:19.000Z</time>
      </trkpt>
      <trkpt lat="41.82156" lon="22.989479">
        <ele>1197.6</ele>
        <time>2026-05-06T15:34:20.000Z</time>
      </trkpt>
      <trkpt lat="41.821574" lon="22.989482">
        <ele>1197.6</ele>
        <time>2026-05-06T15:34:21.000Z</time>
      </trkpt>
      <trkpt lat="41.821587" lon="22.989486">
        <ele>1197.6</ele>
        <time>2026-05-06T15:34:22.000Z</time>
      </trkpt>
      <trkpt lat="41.8216" lon="22.98949">
        <ele>1196.8</ele>
        <time>2026-05-06T15:34:23.000Z</time>
      </trkpt>
      <trkpt lat="41.821613" lon="22.989495">
        <ele>1196.8</ele>
        <time>2026-05-06T15:34:24.000Z</time>
      </trkpt>
      <trkpt lat="41.821627" lon="22.989499">
        <ele>1196.8</ele>
        <time>2026-05-06T15:34:25.000Z</time>
      </trkpt>
      <trkpt lat="41.821641" lon="22.989504">
        <ele>1196.8</ele>
        <time>2026-05-06T15:34:26.000Z</time>
      </trkpt>
      <trkpt lat="41.821654" lon="22.989511">
        <ele>1196.8</ele>
        <time>2026-05-06T15:34:27.000Z</time>
      </trkpt>
      <trkpt lat="41.821668" lon="22.989517">
        <ele>1196.4</ele>
        <time>2026-05-06T15:34:28.000Z</time>
      </trkpt>
      <trkpt lat="41.821682" lon="22.989524">
        <ele>1196.4</ele>
        <time>2026-05-06T15:34:29.000Z</time>
      </trkpt>
      <trkpt lat="41.821695" lon="22.989531">
        <ele>1196.4</ele>
        <time>2026-05-06T15:34:30.000Z</time>
      </trkpt>
      <trkpt lat="41.821709" lon="22.989538">
        <ele>1196.4</ele>
        <time>2026-05-06T15:34:31.000Z</time>
      </trkpt>
      <trkpt lat="41.821723" lon="22.989545">
        <ele>1196.4</ele>
        <time>2026-05-06T15:34:32.000Z</time>
      </trkpt>
      <trkpt lat="41.821738" lon="22.989552">
        <ele>1195.5</ele>
        <time>2026-05-06T15:34:33.000Z</time>
      </trkpt>
      <trkpt lat="41.821753" lon="22.989558">
        <ele>1195.5</ele>
        <time>2026-05-06T15:34:34.000Z</time>
      </trkpt>
      <trkpt lat="41.821768" lon="22.989565">
        <ele>1195.5</ele>
        <time>2026-05-06T15:34:35.000Z</time>
      </trkpt>
      <trkpt lat="41.821783" lon="22.989572">
        <ele>1195.5</ele>
        <time>2026-05-06T15:34:36.000Z</time>
      </trkpt>
      <trkpt lat="41.821798" lon="22.989576">
        <ele>1195.5</ele>
        <time>2026-05-06T15:34:37.000Z</time>
      </trkpt>
      <trkpt lat="41.821811" lon="22.989582">
        <ele>1194.5</ele>
        <time>2026-05-06T15:34:38.000Z</time>
      </trkpt>
      <trkpt lat="41.821824" lon="22.989587">
        <ele>1194.5</ele>
        <time>2026-05-06T15:34:39.000Z</time>
      </trkpt>
      <trkpt lat="41.821836" lon="22.98959">
        <ele>1194.5</ele>
        <time>2026-05-06T15:34:40.000Z</time>
      </trkpt>
      <trkpt lat="41.821847" lon="22.989593">
        <ele>1194.5</ele>
        <time>2026-05-06T15:34:41.000Z</time>
      </trkpt>
      <trkpt lat="41.821859" lon="22.989596">
        <ele>1194.5</ele>
        <time>2026-05-06T15:34:42.000Z</time>
      </trkpt>
      <trkpt lat="41.821872" lon="22.989597">
        <ele>1194.1</ele>
        <time>2026-05-06T15:34:43.000Z</time>
      </trkpt>
      <trkpt lat="41.821886" lon="22.989599">
        <ele>1194.1</ele>
        <time>2026-05-06T15:34:44.000Z</time>
      </trkpt>
      <trkpt lat="41.8219" lon="22.989601">
        <ele>1194.1</ele>
        <time>2026-05-06T15:34:45.000Z</time>
      </trkpt>
      <trkpt lat="41.821914" lon="22.989603">
        <ele>1194.1</ele>
        <time>2026-05-06T15:34:46.000Z</time>
      </trkpt>
      <trkpt lat="41.821928" lon="22.989604">
        <ele>1194.1</ele>
        <time>2026-05-06T15:34:47.000Z</time>
      </trkpt>
      <trkpt lat="41.821943" lon="22.989605">
        <ele>1193.5</ele>
        <time>2026-05-06T15:34:48.000Z</time>
      </trkpt>
      <trkpt lat="41.821958" lon="22.989606">
        <ele>1193.5</ele>
        <time>2026-05-06T15:34:49.000Z</time>
      </trkpt>
      <trkpt lat="41.821974" lon="22.989606">
        <ele>1193.5</ele>
        <time>2026-05-06T15:34:50.000Z</time>
      </trkpt>
      <trkpt lat="41.82199" lon="22.989606">
        <ele>1193.5</ele>
        <time>2026-05-06T15:34:51.000Z</time>
      </trkpt>
      <trkpt lat="41.822006" lon="22.989605">
        <ele>1193.5</ele>
        <time>2026-05-06T15:34:52.000Z</time>
      </trkpt>
      <trkpt lat="41.822022" lon="22.989604">
        <ele>1193.1</ele>
        <time>2026-05-06T15:34:53.000Z</time>
      </trkpt>
      <trkpt lat="41.822038" lon="22.989602">
        <ele>1193.1</ele>
        <time>2026-05-06T15:34:54.000Z</time>
      </trkpt>
      <trkpt lat="41.822053" lon="22.989599">
        <ele>1193.1</ele>
        <time>2026-05-06T15:34:55.000Z</time>
      </trkpt>
      <trkpt lat="41.822067" lon="22.989595">
        <ele>1193.1</ele>
        <time>2026-05-06T15:34:56.000Z</time>
      </trkpt>
      <trkpt lat="41.822081" lon="22.98959">
        <ele>1193.1</ele>
        <time>2026-05-06T15:34:57.000Z</time>
      </trkpt>
      <trkpt lat="41.822094" lon="22.989585">
        <ele>1192.9</ele>
        <time>2026-05-06T15:34:58.000Z</time>
      </trkpt>
      <trkpt lat="41.822108" lon="22.989579">
        <ele>1192.9</ele>
        <time>2026-05-06T15:34:59.000Z</time>
      </trkpt>
      <trkpt lat="41.822121" lon="22.989573">
        <ele>1192.9</ele>
        <time>2026-05-06T15:35:00.000Z</time>
      </trkpt>
      <trkpt lat="41.822136" lon="22.989567">
        <ele>1192.9</ele>
        <time>2026-05-06T15:35:01.000Z</time>
      </trkpt>
      <trkpt lat="41.822151" lon="22.989562">
        <ele>1192.9</ele>
        <time>2026-05-06T15:35:02.000Z</time>
      </trkpt>
      <trkpt lat="41.822166" lon="22.989558">
        <ele>1192.4</ele>
        <time>2026-05-06T15:35:03.000Z</time>
      </trkpt>
      <trkpt lat="41.822181" lon="22.989554">
        <ele>1192.4</ele>
        <time>2026-05-06T15:35:04.000Z</time>
      </trkpt>
      <trkpt lat="41.822196" lon="22.98955">
        <ele>1192.4</ele>
        <time>2026-05-06T15:35:05.000Z</time>
      </trkpt>
      <trkpt lat="41.822211" lon="22.989547">
        <ele>1192.4</ele>
        <time>2026-05-06T15:35:06.000Z</time>
      </trkpt>
      <trkpt lat="41.822226" lon="22.989543">
        <ele>1192.4</ele>
        <time>2026-05-06T15:35:07.000Z</time>
      </trkpt>
      <trkpt lat="41.822241" lon="22.989539">
        <ele>1191.6</ele>
        <time>2026-05-06T15:35:08.000Z</time>
      </trkpt>
      <trkpt lat="41.822254" lon="22.989536">
        <ele>1191.6</ele>
        <time>2026-05-06T15:35:09.000Z</time>
      </trkpt>
      <trkpt lat="41.822269" lon="22.989533">
        <ele>1191.6</ele>
        <time>2026-05-06T15:35:10.000Z</time>
      </trkpt>
      <trkpt lat="41.822283" lon="22.989532">
        <ele>1191.6</ele>
        <time>2026-05-06T15:35:11.000Z</time>
      </trkpt>
      <trkpt lat="41.822298" lon="22.989531">
        <ele>1191.6</ele>
        <time>2026-05-06T15:35:12.000Z</time>
      </trkpt>
      <trkpt lat="41.822313" lon="22.989531">
        <ele>1191.1</ele>
        <time>2026-05-06T15:35:13.000Z</time>
      </trkpt>
      <trkpt lat="41.822327" lon="22.989531">
        <ele>1191.1</ele>
        <time>2026-05-06T15:35:14.000Z</time>
      </trkpt>
      <trkpt lat="41.82234" lon="22.989531">
        <ele>1191.1</ele>
        <time>2026-05-06T15:35:15.000Z</time>
      </trkpt>
      <trkpt lat="41.822354" lon="22.98953">
        <ele>1191.1</ele>
        <time>2026-05-06T15:35:16.000Z</time>
      </trkpt>
      <trkpt lat="41.822368" lon="22.989529">
        <ele>1191.1</ele>
        <time>2026-05-06T15:35:17.000Z</time>
      </trkpt>
      <trkpt lat="41.822381" lon="22.98953">
        <ele>1190.2</ele>
        <time>2026-05-06T15:35:18.000Z</time>
      </trkpt>
      <trkpt lat="41.822395" lon="22.989532">
        <ele>1190.2</ele>
        <time>2026-05-06T15:35:19.000Z</time>
      </trkpt>
      <trkpt lat="41.822408" lon="22.989537">
        <ele>1190.2</ele>
        <time>2026-05-06T15:35:20.000Z</time>
      </trkpt>
      <trkpt lat="41.822421" lon="22.989542">
        <ele>1190.2</ele>
        <time>2026-05-06T15:35:21.000Z</time>
      </trkpt>
      <trkpt lat="41.822434" lon="22.989546">
        <ele>1190.2</ele>
        <time>2026-05-06T15:35:22.000Z</time>
      </trkpt>
      <trkpt lat="41.822448" lon="22.989549">
        <ele>1189.3</ele>
        <time>2026-05-06T15:35:23.000Z</time>
      </trkpt>
      <trkpt lat="41.822463" lon="22.98955">
        <ele>1189.3</ele>
        <time>2026-05-06T15:35:24.000Z</time>
      </trkpt>
      <trkpt lat="41.822478" lon="22.989549">
        <ele>1189.3</ele>
        <time>2026-05-06T15:35:25.000Z</time>
      </trkpt>
      <trkpt lat="41.822494" lon="22.989546">
        <ele>1189.3</ele>
        <time>2026-05-06T15:35:26.000Z</time>
      </trkpt>
      <trkpt lat="41.822509" lon="22.989543">
        <ele>1189.3</ele>
        <time>2026-05-06T15:35:27.000Z</time>
      </trkpt>
      <trkpt lat="41.822524" lon="22.989539">
        <ele>1188.9</ele>
        <time>2026-05-06T15:35:28.000Z</time>
      </trkpt>
      <trkpt lat="41.822539" lon="22.989536">
        <ele>1188.9</ele>
        <time>2026-05-06T15:35:29.000Z</time>
      </trkpt>
      <trkpt lat="41.822554" lon="22.989535">
        <ele>1188.9</ele>
        <time>2026-05-06T15:35:30.000Z</time>
      </trkpt>
      <trkpt lat="41.822569" lon="22.989535">
        <ele>1188.9</ele>
        <time>2026-05-06T15:35:31.000Z</time>
      </trkpt>
      <trkpt lat="41.822584" lon="22.989538">
        <ele>1188.9</ele>
        <time>2026-05-06T15:35:32.000Z</time>
      </trkpt>
      <trkpt lat="41.822598" lon="22.989541">
        <ele>1188.1</ele>
        <time>2026-05-06T15:35:33.000Z</time>
      </trkpt>
      <trkpt lat="41.822612" lon="22.989544">
        <ele>1188.1</ele>
        <time>2026-05-06T15:35:34.000Z</time>
      </trkpt>
      <trkpt lat="41.822626" lon="22.989547">
        <ele>1188.1</ele>
        <time>2026-05-06T15:35:35.000Z</time>
      </trkpt>
      <trkpt lat="41.82264" lon="22.98955">
        <ele>1188.1</ele>
        <time>2026-05-06T15:35:36.000Z</time>
      </trkpt>
      <trkpt lat="41.822654" lon="22.989553">
        <ele>1188.1</ele>
        <time>2026-05-06T15:35:37.000Z</time>
      </trkpt>
      <trkpt lat="41.822667" lon="22.989557">
        <ele>1187.6</ele>
        <time>2026-05-06T15:35:38.000Z</time>
      </trkpt>
      <trkpt lat="41.82268" lon="22.989561">
        <ele>1187.6</ele>
        <time>2026-05-06T15:35:39.000Z</time>
      </trkpt>
      <trkpt lat="41.822692" lon="22.989565">
        <ele>1187.6</ele>
        <time>2026-05-06T15:35:40.000Z</time>
      </trkpt>
      <trkpt lat="41.822703" lon="22.989569">
        <ele>1187.6</ele>
        <time>2026-05-06T15:35:41.000Z</time>
      </trkpt>
      <trkpt lat="41.822713" lon="22.989574">
        <ele>1187.6</ele>
        <time>2026-05-06T15:35:42.000Z</time>
      </trkpt>
      <trkpt lat="41.82272" lon="22.989576">
        <ele>1187.4</ele>
        <time>2026-05-06T15:35:43.000Z</time>
      </trkpt>
      <trkpt lat="41.822726" lon="22.989576">
        <ele>1187.4</ele>
        <time>2026-05-06T15:35:44.000Z</time>
      </trkpt>
      <trkpt lat="41.82273" lon="22.989574">
        <ele>1187.4</ele>
        <time>2026-05-06T15:35:45.000Z</time>
      </trkpt>
      <trkpt lat="41.822731" lon="22.989571">
        <ele>1187.4</ele>
        <time>2026-05-06T15:35:46.000Z</time>
      </trkpt>
      <trkpt lat="41.82273" lon="22.989567">
        <ele>1187.4</ele>
        <time>2026-05-06T15:35:47.000Z</time>
      </trkpt>
      <trkpt lat="41.822731" lon="22.989565">
        <ele>1187</ele>
        <time>2026-05-06T15:35:48.000Z</time>
      </trkpt>
      <trkpt lat="41.822731" lon="22.989565">
        <ele>1187</ele>
        <time>2026-05-06T15:35:49.000Z</time>
      </trkpt>
      <trkpt lat="41.82273" lon="22.989567">
        <ele>1187</ele>
        <time>2026-05-06T15:35:50.000Z</time>
      </trkpt>
      <trkpt lat="41.82273" lon="22.989568">
        <ele>1187</ele>
        <time>2026-05-06T15:35:51.000Z</time>
      </trkpt>
      <trkpt lat="41.822729" lon="22.989569">
        <ele>1187</ele>
        <time>2026-05-06T15:35:52.000Z</time>
      </trkpt>
      <trkpt lat="41.822728" lon="22.989569">
        <ele>1186.8</ele>
        <time>2026-05-06T15:35:53.000Z</time>
      </trkpt>
      <trkpt lat="41.822728" lon="22.98957">
        <ele>1186.8</ele>
        <time>2026-05-06T15:35:54.000Z</time>
      </trkpt>
      <trkpt lat="41.822728" lon="22.98957">
        <ele>1186.8</ele>
        <time>2026-05-06T15:35:55.000Z</time>
      </trkpt>
      <trkpt lat="41.822728" lon="22.989571">
        <ele>1186.8</ele>
        <time>2026-05-06T15:35:56.000Z</time>
      </trkpt>
      <trkpt lat="41.82273" lon="22.989569">
        <ele>1186.8</ele>
        <time>2026-05-06T15:35:57.000Z</time>
      </trkpt>
      <trkpt lat="41.822732" lon="22.989568">
        <ele>1186.8</ele>
        <time>2026-05-06T15:35:58.000Z</time>
      </trkpt>
      <trkpt lat="41.822734" lon="22.989566">
        <ele>1186.8</ele>
        <time>2026-05-06T15:35:59.000Z</time>
      </trkpt>
      <trkpt lat="41.822736" lon="22.989565">
        <ele>1186.8</ele>
        <time>2026-05-06T15:36:00.000Z</time>
      </trkpt>
      <trkpt lat="41.822737" lon="22.989563">
        <ele>1186.8</ele>
        <time>2026-05-06T15:36:01.000Z</time>
      </trkpt>
      <trkpt lat="41.822738" lon="22.989562">
        <ele>1186.8</ele>
        <time>2026-05-06T15:36:02.000Z</time>
      </trkpt>
      <trkpt lat="41.822737" lon="22.989562">
        <ele>1186.9</ele>
        <time>2026-05-06T15:36:03.000Z</time>
      </trkpt>
      <trkpt lat="41.822736" lon="22.989562">
        <ele>1186.9</ele>
        <time>2026-05-06T15:36:04.000Z</time>
      </trkpt>
      <trkpt lat="41.822735" lon="22.989563">
        <ele>1186.9</ele>
        <time>2026-05-06T15:36:05.000Z</time>
      </trkpt>
      <trkpt lat="41.822734" lon="22.989563">
        <ele>1186.9</ele>
        <time>2026-05-06T15:36:06.000Z</time>
      </trkpt>
      <trkpt lat="41.822734" lon="22.989564">
        <ele>1186.9</ele>
        <time>2026-05-06T15:36:07.000Z</time>
      </trkpt>
      <trkpt lat="41.822735" lon="22.989564">
        <ele>1186.8</ele>
        <time>2026-05-06T15:36:08.000Z</time>
      </trkpt>
      <trkpt lat="41.822737" lon="22.989564">
        <ele>1186.8</ele>
        <time>2026-05-06T15:36:09.000Z</time>
      </trkpt>
      <trkpt lat="41.82274" lon="22.989565">
        <ele>1186.8</ele>
        <time>2026-05-06T15:36:10.000Z</time>
      </trkpt>
      <trkpt lat="41.822742" lon="22.989565">
        <ele>1186.8</ele>
        <time>2026-05-06T15:36:11.000Z</time>
      </trkpt>
      <trkpt lat="41.822743" lon="22.989565">
        <ele>1186.8</ele>
        <time>2026-05-06T15:36:12.000Z</time>
      </trkpt>
      <trkpt lat="41.822744" lon="22.989566">
        <ele>1186.7</ele>
        <time>2026-05-06T15:36:13.000Z</time>
      </trkpt>
      <trkpt lat="41.822746" lon="22.989568">
        <ele>1186.7</ele>
        <time>2026-05-06T15:36:14.000Z</time>
      </trkpt>
      <trkpt lat="41.82275" lon="22.989572">
        <ele>1186.7</ele>
        <time>2026-05-06T15:36:15.000Z</time>
      </trkpt>
      <trkpt lat="41.822757" lon="22.989577">
        <ele>1186.7</ele>
        <time>2026-05-06T15:36:16.000Z</time>
      </trkpt>
      <trkpt lat="41.822765" lon="22.989584">
        <ele>1186.7</ele>
        <time>2026-05-06T15:36:17.000Z</time>
      </trkpt>
      <trkpt lat="41.822775" lon="22.989591">
        <ele>1186.3</ele>
        <time>2026-05-06T15:36:18.000Z</time>
      </trkpt>
      <trkpt lat="41.822786" lon="22.989598">
        <ele>1186.3</ele>
        <time>2026-05-06T15:36:19.000Z</time>
      </trkpt>
      <trkpt lat="41.822798" lon="22.989604">
        <ele>1186.3</ele>
        <time>2026-05-06T15:36:20.000Z</time>
      </trkpt>
      <trkpt lat="41.822809" lon="22.989611">
        <ele>1186.3</ele>
        <time>2026-05-06T15:36:21.000Z</time>
      </trkpt>
      <trkpt lat="41.822821" lon="22.989617">
        <ele>1186.3</ele>
        <time>2026-05-06T15:36:22.000Z</time>
      </trkpt>
      <trkpt lat="41.822832" lon="22.989625">
        <ele>1186</ele>
        <time>2026-05-06T15:36:23.000Z</time>
      </trkpt>
      <trkpt lat="41.822843" lon="22.989635">
        <ele>1186</ele>
        <time>2026-05-06T15:36:24.000Z</time>
      </trkpt>
      <trkpt lat="41.822854" lon="22.989646">
        <ele>1186</ele>
        <time>2026-05-06T15:36:25.000Z</time>
      </trkpt>
      <trkpt lat="41.822865" lon="22.989659">
        <ele>1186</ele>
        <time>2026-05-06T15:36:26.000Z</time>
      </trkpt>
      <trkpt lat="41.822876" lon="22.989672">
        <ele>1186</ele>
        <time>2026-05-06T15:36:27.000Z</time>
      </trkpt>
      <trkpt lat="41.822887" lon="22.989687">
        <ele>1186</ele>
        <time>2026-05-06T15:36:28.000Z</time>
      </trkpt>
      <trkpt lat="41.822897" lon="22.989702">
        <ele>1186</ele>
        <time>2026-05-06T15:36:29.000Z</time>
      </trkpt>
      <trkpt lat="41.822908" lon="22.989718">
        <ele>1186</ele>
        <time>2026-05-06T15:36:30.000Z</time>
      </trkpt>
      <trkpt lat="41.822917" lon="22.989734">
        <ele>1186</ele>
        <time>2026-05-06T15:36:31.000Z</time>
      </trkpt>
      <trkpt lat="41.822926" lon="22.989748">
        <ele>1186</ele>
        <time>2026-05-06T15:36:32.000Z</time>
      </trkpt>
      <trkpt lat="41.822934" lon="22.989761">
        <ele>1186.3</ele>
        <time>2026-05-06T15:36:33.000Z</time>
      </trkpt>
      <trkpt lat="41.822942" lon="22.989773">
        <ele>1186.3</ele>
        <time>2026-05-06T15:36:34.000Z</time>
      </trkpt>
      <trkpt lat="41.82295" lon="22.989783">
        <ele>1186.3</ele>
        <time>2026-05-06T15:36:35.000Z</time>
      </trkpt>
      <trkpt lat="41.822958" lon="22.989791">
        <ele>1186.3</ele>
        <time>2026-05-06T15:36:36.000Z</time>
      </trkpt>
      <trkpt lat="41.822966" lon="22.989797">
        <ele>1186.3</ele>
        <time>2026-05-06T15:36:37.000Z</time>
      </trkpt>
      <trkpt lat="41.822971" lon="22.9898">
        <ele>1186.6</ele>
        <time>2026-05-06T15:36:38.000Z</time>
      </trkpt>
      <trkpt lat="41.822976" lon="22.989803">
        <ele>1186.6</ele>
        <time>2026-05-06T15:36:39.000Z</time>
      </trkpt>
      <trkpt lat="41.822978" lon="22.989806">
        <ele>1186.6</ele>
        <time>2026-05-06T15:36:40.000Z</time>
      </trkpt>
      <trkpt lat="41.822979" lon="22.989811">
        <ele>1186.6</ele>
        <time>2026-05-06T15:36:41.000Z</time>
      </trkpt>
      <trkpt lat="41.822979" lon="22.989818">
        <ele>1186.6</ele>
        <time>2026-05-06T15:36:42.000Z</time>
      </trkpt>
      <trkpt lat="41.822981" lon="22.989829">
        <ele>1186.7</ele>
        <time>2026-05-06T15:36:43.000Z</time>
      </trkpt>
      <trkpt lat="41.822982" lon="22.989841">
        <ele>1186.7</ele>
        <time>2026-05-06T15:36:44.000Z</time>
      </trkpt>
      <trkpt lat="41.822982" lon="22.989851">
        <ele>1186.7</ele>
        <time>2026-05-06T15:36:45.000Z</time>
      </trkpt>
      <trkpt lat="41.822981" lon="22.989859">
        <ele>1186.7</ele>
        <time>2026-05-06T15:36:46.000Z</time>
      </trkpt>
      <trkpt lat="41.822979" lon="22.989867">
        <ele>1186.7</ele>
        <time>2026-05-06T15:36:47.000Z</time>
      </trkpt>
      <trkpt lat="41.822978" lon="22.989873">
        <ele>1186.7</ele>
        <time>2026-05-06T15:36:48.000Z</time>
      </trkpt>
      <trkpt lat="41.822977" lon="22.989878">
        <ele>1186.7</ele>
        <time>2026-05-06T15:36:49.000Z</time>
      </trkpt>
      <trkpt lat="41.822978" lon="22.989885">
        <ele>1186.7</ele>
        <time>2026-05-06T15:36:50.000Z</time>
      </trkpt>
      <trkpt lat="41.822982" lon="22.989893">
        <ele>1186.7</ele>
        <time>2026-05-06T15:36:51.000Z</time>
      </trkpt>
      <trkpt lat="41.822988" lon="22.989901">
        <ele>1186.7</ele>
        <time>2026-05-06T15:36:52.000Z</time>
      </trkpt>
      <trkpt lat="41.822995" lon="22.989908">
        <ele>1186.6</ele>
        <time>2026-05-06T15:36:53.000Z</time>
      </trkpt>
      <trkpt lat="41.823003" lon="22.989915">
        <ele>1186.6</ele>
        <time>2026-05-06T15:36:54.000Z</time>
      </trkpt>
      <trkpt lat="41.823011" lon="22.989921">
        <ele>1186.6</ele>
        <time>2026-05-06T15:36:55.000Z</time>
      </trkpt>
      <trkpt lat="41.823021" lon="22.989927">
        <ele>1186.6</ele>
        <time>2026-05-06T15:36:56.000Z</time>
      </trkpt>
      <trkpt lat="41.823029" lon="22.989932">
        <ele>1186.6</ele>
        <time>2026-05-06T15:36:57.000Z</time>
      </trkpt>
      <trkpt lat="41.823038" lon="22.989938">
        <ele>1186.5</ele>
        <time>2026-05-06T15:36:58.000Z</time>
      </trkpt>
      <trkpt lat="41.823047" lon="22.989944">
        <ele>1186.5</ele>
        <time>2026-05-06T15:36:59.000Z</time>
      </trkpt>
      <trkpt lat="41.823058" lon="22.989949">
        <ele>1186.5</ele>
        <time>2026-05-06T15:37:00.000Z</time>
      </trkpt>
      <trkpt lat="41.823068" lon="22.989953">
        <ele>1186.5</ele>
        <time>2026-05-06T15:37:01.000Z</time>
      </trkpt>
      <trkpt lat="41.823079" lon="22.989956">
        <ele>1186.5</ele>
        <time>2026-05-06T15:37:02.000Z</time>
      </trkpt>
      <trkpt lat="41.82309" lon="22.989957">
        <ele>1186.5</ele>
        <time>2026-05-06T15:37:03.000Z</time>
      </trkpt>
      <trkpt lat="41.823102" lon="22.989957">
        <ele>1186.5</ele>
        <time>2026-05-06T15:37:04.000Z</time>
      </trkpt>
      <trkpt lat="41.823114" lon="22.989957">
        <ele>1186.5</ele>
        <time>2026-05-06T15:37:05.000Z</time>
      </trkpt>
      <trkpt lat="41.823126" lon="22.989956">
        <ele>1186.5</ele>
        <time>2026-05-06T15:37:06.000Z</time>
      </trkpt>
      <trkpt lat="41.823138" lon="22.989954">
        <ele>1186.5</ele>
        <time>2026-05-06T15:37:07.000Z</time>
      </trkpt>
      <trkpt lat="41.823151" lon="22.989953">
        <ele>1186.6</ele>
        <time>2026-05-06T15:37:08.000Z</time>
      </trkpt>
      <trkpt lat="41.823163" lon="22.989951">
        <ele>1186.6</ele>
        <time>2026-05-06T15:37:09.000Z</time>
      </trkpt>
      <trkpt lat="41.823175" lon="22.98995">
        <ele>1186.6</ele>
        <time>2026-05-06T15:37:10.000Z</time>
      </trkpt>
      <trkpt lat="41.823185" lon="22.989951">
        <ele>1186.6</ele>
        <time>2026-05-06T15:37:11.000Z</time>
      </trkpt>
      <trkpt lat="41.823195" lon="22.98995">
        <ele>1186.6</ele>
        <time>2026-05-06T15:37:12.000Z</time>
      </trkpt>
      <trkpt lat="41.823204" lon="22.98995">
        <ele>1186.6</ele>
        <time>2026-05-06T15:37:13.000Z</time>
      </trkpt>
      <trkpt lat="41.823212" lon="22.98995">
        <ele>1186.6</ele>
        <time>2026-05-06T15:37:14.000Z</time>
      </trkpt>
      <trkpt lat="41.823218" lon="22.989948">
        <ele>1186.6</ele>
        <time>2026-05-06T15:37:15.000Z</time>
      </trkpt>
      <trkpt lat="41.823223" lon="22.989944">
        <ele>1186.6</ele>
        <time>2026-05-06T15:37:16.000Z</time>
      </trkpt>
      <trkpt lat="41.823226" lon="22.989942">
        <ele>1186.6</ele>
        <time>2026-05-06T15:37:17.000Z</time>
      </trkpt>
      <trkpt lat="41.823228" lon="22.98994">
        <ele>1186.7</ele>
        <time>2026-05-06T15:37:18.000Z</time>
      </trkpt>
      <trkpt lat="41.823228" lon="22.989937">
        <ele>1186.7</ele>
        <time>2026-05-06T15:37:19.000Z</time>
      </trkpt>
      <trkpt lat="41.82323" lon="22.989935">
        <ele>1186.7</ele>
        <time>2026-05-06T15:37:20.000Z</time>
      </trkpt>
      <trkpt lat="41.823231" lon="22.989934">
        <ele>1186.7</ele>
        <time>2026-05-06T15:37:21.000Z</time>
      </trkpt>
      <trkpt lat="41.823231" lon="22.989934">
        <ele>1186.7</ele>
        <time>2026-05-06T15:37:22.000Z</time>
      </trkpt>
      <trkpt lat="41.823233" lon="22.989934">
        <ele>1186.7</ele>
        <time>2026-05-06T15:37:23.000Z</time>
      </trkpt>
      <trkpt lat="41.823234" lon="22.989934">
        <ele>1186.7</ele>
        <time>2026-05-06T15:37:24.000Z</time>
      </trkpt>
      <trkpt lat="41.823235" lon="22.989934">
        <ele>1186.7</ele>
        <time>2026-05-06T15:37:25.000Z</time>
      </trkpt>
      <trkpt lat="41.823237" lon="22.989936">
        <ele>1186.7</ele>
        <time>2026-05-06T15:37:26.000Z</time>
      </trkpt>
      <trkpt lat="41.823238" lon="22.989936">
        <ele>1186.7</ele>
        <time>2026-05-06T15:37:27.000Z</time>
      </trkpt>
      <trkpt lat="41.823239" lon="22.989937">
        <ele>1186.7</ele>
        <time>2026-05-06T15:37:28.000Z</time>
      </trkpt>
      <trkpt lat="41.823238" lon="22.989937">
        <ele>1186.7</ele>
        <time>2026-05-06T15:37:29.000Z</time>
      </trkpt>
      <trkpt lat="41.823238" lon="22.989937">
        <ele>1186.7</ele>
        <time>2026-05-06T15:37:30.000Z</time>
      </trkpt>
      <trkpt lat="41.823237" lon="22.989936">
        <ele>1186.7</ele>
        <time>2026-05-06T15:37:31.000Z</time>
      </trkpt>
      <trkpt lat="41.823236" lon="22.989936">
        <ele>1186.7</ele>
        <time>2026-05-06T15:37:32.000Z</time>
      </trkpt>
      <trkpt lat="41.823236" lon="22.989935">
        <ele>1186.6</ele>
        <time>2026-05-06T15:37:33.000Z</time>
      </trkpt>
      <trkpt lat="41.823235" lon="22.989935">
        <ele>1186.6</ele>
        <time>2026-05-06T15:37:34.000Z</time>
      </trkpt>
      <trkpt lat="41.823235" lon="22.989935">
        <ele>1186.6</ele>
        <time>2026-05-06T15:37:35.000Z</time>
      </trkpt>
      <trkpt lat="41.823235" lon="22.989935">
        <ele>1186.6</ele>
        <time>2026-05-06T15:37:36.000Z</time>
      </trkpt>
      <trkpt lat="41.823235" lon="22.989935">
        <ele>1186.6</ele>
        <time>2026-05-06T15:37:37.000Z</time>
      </trkpt>
      <trkpt lat="41.823235" lon="22.989936">
        <ele>1186.6</ele>
        <time>2026-05-06T15:37:38.000Z</time>
      </trkpt>
      <trkpt lat="41.823236" lon="22.989937">
        <ele>1186.6</ele>
        <time>2026-05-06T15:37:39.000Z</time>
      </trkpt>
      <trkpt lat="41.823237" lon="22.989938">
        <ele>1186.6</ele>
        <time>2026-05-06T15:37:40.000Z</time>
      </trkpt>
      <trkpt lat="41.823238" lon="22.989938">
        <ele>1186.6</ele>
        <time>2026-05-06T15:37:41.000Z</time>
      </trkpt>
      <trkpt lat="41.823239" lon="22.989938">
        <ele>1186.6</ele>
        <time>2026-05-06T15:37:42.000Z</time>
      </trkpt>
      <trkpt lat="41.823239" lon="22.989938">
        <ele>1186.4</ele>
        <time>2026-05-06T15:37:43.000Z</time>
      </trkpt>
      <trkpt lat="41.823238" lon="22.989938">
        <ele>1186.4</ele>
        <time>2026-05-06T15:37:44.000Z</time>
      </trkpt>
      <trkpt lat="41.823238" lon="22.989938">
        <ele>1186.4</ele>
        <time>2026-05-06T15:37:45.000Z</time>
      </trkpt>
      <trkpt lat="41.823238" lon="22.989939">
        <ele>1186.4</ele>
        <time>2026-05-06T15:37:46.000Z</time>
      </trkpt>
      <trkpt lat="41.823238" lon="22.989939">
        <ele>1186.4</ele>
        <time>2026-05-06T15:37:47.000Z</time>
      </trkpt>
      <trkpt lat="41.823238" lon="22.989939">
        <ele>1186.3</ele>
        <time>2026-05-06T15:37:48.000Z</time>
      </trkpt>
      <trkpt lat="41.823238" lon="22.989939">
        <ele>1186.3</ele>
        <time>2026-05-06T15:37:49.000Z</time>
      </trkpt>
      <trkpt lat="41.823238" lon="22.989939">
        <ele>1186.3</ele>
        <time>2026-05-06T15:37:50.000Z</time>
      </trkpt>
      <trkpt lat="41.823238" lon="22.989939">
        <ele>1186.3</ele>
        <time>2026-05-06T15:37:51.000Z</time>
      </trkpt>
      <trkpt lat="41.823238" lon="22.989939">
        <ele>1186.3</ele>
        <time>2026-05-06T15:37:52.000Z</time>
      </trkpt>
      <trkpt lat="41.823238" lon="22.989939">
        <ele>1186.2</ele>
        <time>2026-05-06T15:37:53.000Z</time>
      </trkpt>
      <trkpt lat="41.823238" lon="22.989939">
        <ele>1186.2</ele>
        <time>2026-05-06T15:37:54.000Z</time>
      </trkpt>
      <trkpt lat="41.823238" lon="22.989939">
        <ele>1186.2</ele>
        <time>2026-05-06T15:37:55.000Z</time>
      </trkpt>
      <trkpt lat="41.823238" lon="22.989939">
        <ele>1186.2</ele>
        <time>2026-05-06T15:37:56.000Z</time>
      </trkpt>
      <trkpt lat="41.823238" lon="22.989939">
        <ele>1186.2</ele>
        <time>2026-05-06T15:37:57.000Z</time>
      </trkpt>
      <trkpt lat="41.823238" lon="22.989939">
        <ele>1186.2</ele>
        <time>2026-05-06T15:37:58.000Z</time>
      </trkpt>
      <trkpt lat="41.823238" lon="22.989939">
        <ele>1186.2</ele>
        <time>2026-05-06T15:37:59.000Z</time>
      </trkpt>
      <trkpt lat="41.823238" lon="22.989939">
        <ele>1186.2</ele>
        <time>2026-05-06T15:38:00.000Z</time>
      </trkpt>
      <trkpt lat="41.823238" lon="22.989939">
        <ele>1186.2</ele>
        <time>2026-05-06T15:38:01.000Z</time>
      </trkpt>
      <trkpt lat="41.823238" lon="22.989939">
        <ele>1186.2</ele>
        <time>2026-05-06T15:38:02.000Z</time>
      </trkpt>
      <trkpt lat="41.823238" lon="22.989939">
        <ele>1186.3</ele>
        <time>2026-05-06T15:38:03.000Z</time>
      </trkpt>
      <trkpt lat="41.823237" lon="22.989939">
        <ele>1186.3</ele>
        <time>2026-05-06T15:38:04.000Z</time>
      </trkpt>
      <trkpt lat="41.823236" lon="22.989939">
        <ele>1186.3</ele>
        <time>2026-05-06T15:38:05.000Z</time>
      </trkpt>
      <trkpt lat="41.823236" lon="22.989939">
        <ele>1186.3</ele>
        <time>2026-05-06T15:38:06.000Z</time>
      </trkpt>
      <trkpt lat="41.823235" lon="22.989939">
        <ele>1186.3</ele>
        <time>2026-05-06T15:38:07.000Z</time>
      </trkpt>
      <trkpt lat="41.823235" lon="22.989939">
        <ele>1186.2</ele>
        <time>2026-05-06T15:38:08.000Z</time>
      </trkpt>
      <trkpt lat="41.823235" lon="22.989939">
        <ele>1186.2</ele>
        <time>2026-05-06T15:38:09.000Z</time>
      </trkpt>
      <trkpt lat="41.823235" lon="22.989939">
        <ele>1186.2</ele>
        <time>2026-05-06T15:38:10.000Z</time>
      </trkpt>
      <trkpt lat="41.823235" lon="22.989939">
        <ele>1186.2</ele>
        <time>2026-05-06T15:38:11.000Z</time>
      </trkpt>
      <trkpt lat="41.823235" lon="22.989939">
        <ele>1186.2</ele>
        <time>2026-05-06T15:38:12.000Z</time>
      </trkpt>
      <trkpt lat="41.823235" lon="22.989939">
        <ele>1186</ele>
        <time>2026-05-06T15:38:13.000Z</time>
      </trkpt>
      <trkpt lat="41.823235" lon="22.989939">
        <ele>1186</ele>
        <time>2026-05-06T15:38:14.000Z</time>
      </trkpt>
      <trkpt lat="41.823235" lon="22.989939">
        <ele>1186</ele>
        <time>2026-05-06T15:38:15.000Z</time>
      </trkpt>
      <trkpt lat="41.823235" lon="22.989939">
        <ele>1186</ele>
        <time>2026-05-06T15:38:16.000Z</time>
      </trkpt>
      <trkpt lat="41.823234" lon="22.989939">
        <ele>1186</ele>
        <time>2026-05-06T15:38:17.000Z</time>
      </trkpt>
      <trkpt lat="41.823233" lon="22.989939">
        <ele>1185.7</ele>
        <time>2026-05-06T15:38:18.000Z</time>
      </trkpt>
      <trkpt lat="41.823231" lon="22.989939">
        <ele>1185.7</ele>
        <time>2026-05-06T15:38:19.000Z</time>
      </trkpt>
      <trkpt lat="41.82323" lon="22.989939">
        <ele>1185.7</ele>
        <time>2026-05-06T15:38:20.000Z</time>
      </trkpt>
      <trkpt lat="41.823229" lon="22.989938">
        <ele>1185.7</ele>
        <time>2026-05-06T15:38:21.000Z</time>
      </trkpt>
      <trkpt lat="41.823228" lon="22.98994">
        <ele>1185.7</ele>
        <time>2026-05-06T15:38:22.000Z</time>
      </trkpt>
      <trkpt lat="41.823228" lon="22.989942">
        <ele>1185.6</ele>
        <time>2026-05-06T15:38:23.000Z</time>
      </trkpt>
      <trkpt lat="41.823229" lon="22.989944">
        <ele>1185.6</ele>
        <time>2026-05-06T15:38:24.000Z</time>
      </trkpt>
      <trkpt lat="41.823228" lon="22.989947">
        <ele>1185.6</ele>
        <time>2026-05-06T15:38:25.000Z</time>
      </trkpt>
      <trkpt lat="41.823228" lon="22.98995">
        <ele>1185.6</ele>
        <time>2026-05-06T15:38:26.000Z</time>
      </trkpt>
      <trkpt lat="41.823227" lon="22.98995">
        <ele>1185.6</ele>
        <time>2026-05-06T15:38:27.000Z</time>
      </trkpt>
      <trkpt lat="41.823226" lon="22.98995">
        <ele>1185.6</ele>
        <time>2026-05-06T15:38:28.000Z</time>
      </trkpt>
      <trkpt lat="41.823225" lon="22.989949">
        <ele>1185.6</ele>
        <time>2026-05-06T15:38:29.000Z</time>
      </trkpt>
      <trkpt lat="41.823224" lon="22.989949">
        <ele>1185.6</ele>
        <time>2026-05-06T15:38:30.000Z</time>
      </trkpt>
      <trkpt lat="41.823223" lon="22.989947">
        <ele>1185.6</ele>
        <time>2026-05-06T15:38:31.000Z</time>
      </trkpt>
      <trkpt lat="41.823223" lon="22.989947">
        <ele>1185.6</ele>
        <time>2026-05-06T15:38:32.000Z</time>
      </trkpt>
      <trkpt lat="41.823222" lon="22.989946">
        <ele>1185.6</ele>
        <time>2026-05-06T15:38:33.000Z</time>
      </trkpt>
      <trkpt lat="41.823222" lon="22.989946">
        <ele>1185.6</ele>
        <time>2026-05-06T15:38:34.000Z</time>
      </trkpt>
      <trkpt lat="41.823222" lon="22.989946">
        <ele>1185.6</ele>
        <time>2026-05-06T15:38:35.000Z</time>
      </trkpt>
      <trkpt lat="41.823222" lon="22.989946">
        <ele>1185.6</ele>
        <time>2026-05-06T15:38:36.000Z</time>
      </trkpt>
      <trkpt lat="41.823222" lon="22.989946">
        <ele>1185.6</ele>
        <time>2026-05-06T15:38:37.000Z</time>
      </trkpt>
      <trkpt lat="41.823222" lon="22.989946">
        <ele>1185.6</ele>
        <time>2026-05-06T15:38:38.000Z</time>
      </trkpt>
      <trkpt lat="41.823222" lon="22.989946">
        <ele>1185.6</ele>
        <time>2026-05-06T15:38:39.000Z</time>
      </trkpt>
      <trkpt lat="41.823222" lon="22.989946">
        <ele>1185.6</ele>
        <time>2026-05-06T15:38:40.000Z</time>
      </trkpt>
      <trkpt lat="41.823222" lon="22.989946">
        <ele>1185.6</ele>
        <time>2026-05-06T15:38:41.000Z</time>
      </trkpt>
      <trkpt lat="41.823222" lon="22.989946">
        <ele>1185.6</ele>
        <time>2026-05-06T15:38:42.000Z</time>
      </trkpt>
      <trkpt lat="41.823222" lon="22.989946">
        <ele>1185.7</ele>
        <time>2026-05-06T15:38:43.000Z</time>
      </trkpt>
      <trkpt lat="41.823222" lon="22.989946">
        <ele>1185.7</ele>
        <time>2026-05-06T15:38:44.000Z</time>
      </trkpt>
      <trkpt lat="41.823222" lon="22.989946">
        <ele>1185.7</ele>
        <time>2026-05-06T15:38:45.000Z</time>
      </trkpt>
      <trkpt lat="41.823222" lon="22.989946">
        <ele>1185.7</ele>
        <time>2026-05-06T15:38:46.000Z</time>
      </trkpt>
      <trkpt lat="41.823222" lon="22.989946">
        <ele>1185.7</ele>
        <time>2026-05-06T15:38:47.000Z</time>
      </trkpt>
      <trkpt lat="41.823222" lon="22.989946">
        <ele>1185.8</ele>
        <time>2026-05-06T15:38:48.000Z</time>
      </trkpt>
      <trkpt lat="41.823222" lon="22.989946">
        <ele>1185.8</ele>
        <time>2026-05-06T15:38:49.000Z</time>
      </trkpt>
      <trkpt lat="41.823222" lon="22.989946">
        <ele>1185.8</ele>
        <time>2026-05-06T15:38:50.000Z</time>
      </trkpt>
      <trkpt lat="41.823222" lon="22.989946">
        <ele>1185.8</ele>
        <time>2026-05-06T15:38:51.000Z</time>
      </trkpt>
      <trkpt lat="41.823222" lon="22.989946">
        <ele>1185.8</ele>
        <time>2026-05-06T15:38:52.000Z</time>
      </trkpt>
      <trkpt lat="41.823222" lon="22.989946">
        <ele>1185.8</ele>
        <time>2026-05-06T15:38:53.000Z</time>
      </trkpt>
      <trkpt lat="41.823222" lon="22.989946">
        <ele>1185.8</ele>
        <time>2026-05-06T15:38:54.000Z</time>
      </trkpt>
      <trkpt lat="41.823222" lon="22.989946">
        <ele>1185.8</ele>
        <time>2026-05-06T15:38:55.000Z</time>
      </trkpt>
      <trkpt lat="41.823222" lon="22.989946">
        <ele>1185.8</ele>
        <time>2026-05-06T15:38:56.000Z</time>
      </trkpt>
      <trkpt lat="41.823222" lon="22.989946">
        <ele>1185.8</ele>
        <time>2026-05-06T15:38:57.000Z</time>
      </trkpt>
      <trkpt lat="41.823222" lon="22.989946">
        <ele>1185.7</ele>
        <time>2026-05-06T15:38:58.000Z</time>
      </trkpt>
      <trkpt lat="41.823222" lon="22.989946">
        <ele>1185.7</ele>
        <time>2026-05-06T15:38:59.000Z</time>
      </trkpt>
      <trkpt lat="41.823222" lon="22.989946">
        <ele>1185.7</ele>
        <time>2026-05-06T15:39:00.000Z</time>
      </trkpt>
      <trkpt lat="41.823222" lon="22.989946">
        <ele>1185.7</ele>
        <time>2026-05-06T15:39:01.000Z</time>
      </trkpt>
      <trkpt lat="41.823222" lon="22.989946">
        <ele>1185.7</ele>
        <time>2026-05-06T15:39:02.000Z</time>
      </trkpt>
      <trkpt lat="41.823222" lon="22.989946">
        <ele>1185.7</ele>
        <time>2026-05-06T15:39:03.000Z</time>
      </trkpt>
      <trkpt lat="41.823222" lon="22.989946">
        <ele>1185.7</ele>
        <time>2026-05-06T15:39:04.000Z</time>
      </trkpt>
      <trkpt lat="41.823222" lon="22.989946">
        <ele>1185.7</ele>
        <time>2026-05-06T15:39:05.000Z</time>
      </trkpt>
      <trkpt lat="41.823222" lon="22.989946">
        <ele>1185.7</ele>
        <time>2026-05-06T15:39:06.000Z</time>
      </trkpt>
      <trkpt lat="41.823222" lon="22.989946">
        <ele>1185.7</ele>
        <time>2026-05-06T15:39:07.000Z</time>
      </trkpt>
      <trkpt lat="41.823222" lon="22.989946">
        <ele>1185.8</ele>
        <time>2026-05-06T15:39:08.000Z</time>
      </trkpt>
      <trkpt lat="41.823222" lon="22.989946">
        <ele>1185.8</ele>
        <time>2026-05-06T15:39:09.000Z</time>
      </trkpt>
      <trkpt lat="41.823222" lon="22.989946">
        <ele>1185.8</ele>
        <time>2026-05-06T15:39:10.000Z</time>
      </trkpt>
      <trkpt lat="41.823222" lon="22.989946">
        <ele>1185.8</ele>
        <time>2026-05-06T15:39:11.000Z</time>
      </trkpt>
      <trkpt lat="41.823222" lon="22.989946">
        <ele>1185.8</ele>
        <time>2026-05-06T15:39:12.000Z</time>
      </trkpt>
      <trkpt lat="41.823222" lon="22.989946">
        <ele>1185.9</ele>
        <time>2026-05-06T15:39:13.000Z</time>
      </trkpt>
      <trkpt lat="41.823222" lon="22.989946">
        <ele>1185.9</ele>
        <time>2026-05-06T15:39:14.000Z</time>
      </trkpt>
      <trkpt lat="41.823222" lon="22.989946">
        <ele>1185.9</ele>
        <time>2026-05-06T15:39:15.000Z</time>
      </trkpt>
      <trkpt lat="41.823222" lon="22.989946">
        <ele>1185.9</ele>
        <time>2026-05-06T15:39:16.000Z</time>
      </trkpt>
      <trkpt lat="41.823222" lon="22.989946">
        <ele>1185.9</ele>
        <time>2026-05-06T15:39:17.000Z</time>
      </trkpt>
      <trkpt lat="41.823222" lon="22.989946">
        <ele>1186</ele>
        <time>2026-05-06T15:39:18.000Z</time>
      </trkpt>
      <trkpt lat="41.823222" lon="22.989946">
        <ele>1186</ele>
        <time>2026-05-06T15:39:19.000Z</time>
      </trkpt>
      <trkpt lat="41.823222" lon="22.989946">
        <ele>1186</ele>
        <time>2026-05-06T15:39:20.000Z</time>
      </trkpt>
      <trkpt lat="41.823222" lon="22.989946">
        <ele>1186</ele>
        <time>2026-05-06T15:39:21.000Z</time>
      </trkpt>
      <trkpt lat="41.823222" lon="22.989946">
        <ele>1186</ele>
        <time>2026-05-06T15:39:22.000Z</time>
      </trkpt>
      <trkpt lat="41.823222" lon="22.989946">
        <ele>1186.2</ele>
        <time>2026-05-06T15:39:23.000Z</time>
      </trkpt>
      <trkpt lat="41.823222" lon="22.989946">
        <ele>1186.2</ele>
        <time>2026-05-06T15:39:24.000Z</time>
      </trkpt>
      <trkpt lat="41.823222" lon="22.989946">
        <ele>1186.2</ele>
        <time>2026-05-06T15:39:25.000Z</time>
      </trkpt>
      <trkpt lat="41.823222" lon="22.989946">
        <ele>1186.2</ele>
        <time>2026-05-06T15:39:26.000Z</time>
      </trkpt>
      <trkpt lat="41.823222" lon="22.989946">
        <ele>1186.2</ele>
        <time>2026-05-06T15:39:27.000Z</time>
      </trkpt>
      <trkpt lat="41.823222" lon="22.989947">
        <ele>1186.3</ele>
        <time>2026-05-06T15:39:28.000Z</time>
      </trkpt>
      <trkpt lat="41.823222" lon="22.989947">
        <ele>1186.3</ele>
        <time>2026-05-06T15:39:29.000Z</time>
      </trkpt>
      <trkpt lat="41.823222" lon="22.989947">
        <ele>1186.3</ele>
        <time>2026-05-06T15:39:30.000Z</time>
      </trkpt>
      <trkpt lat="41.823222" lon="22.989947">
        <ele>1186.3</ele>
        <time>2026-05-06T15:39:31.000Z</time>
      </trkpt>
      <trkpt lat="41.823222" lon="22.989947">
        <ele>1186.3</ele>
        <time>2026-05-06T15:39:32.000Z</time>
      </trkpt>
      <trkpt lat="41.823222" lon="22.989947">
        <ele>1186.4</ele>
        <time>2026-05-06T15:39:33.000Z</time>
      </trkpt>
      <trkpt lat="41.823222" lon="22.989947">
        <ele>1186.4</ele>
        <time>2026-05-06T15:39:34.000Z</time>
      </trkpt>
      <trkpt lat="41.823222" lon="22.989947">
        <ele>1186.4</ele>
        <time>2026-05-06T15:39:35.000Z</time>
      </trkpt>
      <trkpt lat="41.823222" lon="22.989947">
        <ele>1186.4</ele>
        <time>2026-05-06T15:39:36.000Z</time>
      </trkpt>
      <trkpt lat="41.823222" lon="22.989947">
        <ele>1186.4</ele>
        <time>2026-05-06T15:39:37.000Z</time>
      </trkpt>
      <trkpt lat="41.823222" lon="22.989947">
        <ele>1186.4</ele>
        <time>2026-05-06T15:39:38.000Z</time>
      </trkpt>
      <trkpt lat="41.823222" lon="22.989947">
        <ele>1186.4</ele>
        <time>2026-05-06T15:39:39.000Z</time>
      </trkpt>
      <trkpt lat="41.823222" lon="22.989947">
        <ele>1186.4</ele>
        <time>2026-05-06T15:39:40.000Z</time>
      </trkpt>
      <trkpt lat="41.823222" lon="22.989947">
        <ele>1186.4</ele>
        <time>2026-05-06T15:39:41.000Z</time>
      </trkpt>
      <trkpt lat="41.823222" lon="22.989947">
        <ele>1186.4</ele>
        <time>2026-05-06T15:39:42.000Z</time>
      </trkpt>
      <trkpt lat="41.823222" lon="22.989947">
        <ele>1186.3</ele>
        <time>2026-05-06T15:39:43.000Z</time>
      </trkpt>
      <trkpt lat="41.823222" lon="22.989947">
        <ele>1186.3</ele>
        <time>2026-05-06T15:39:44.000Z</time>
      </trkpt>
      <trkpt lat="41.823222" lon="22.989947">
        <ele>1186.3</ele>
        <time>2026-05-06T15:39:45.000Z</time>
      </trkpt>
      <trkpt lat="41.823222" lon="22.989947">
        <ele>1186.3</ele>
        <time>2026-05-06T15:39:46.000Z</time>
      </trkpt>
      <trkpt lat="41.823222" lon="22.989947">
        <ele>1186.3</ele>
        <time>2026-05-06T15:39:47.000Z</time>
      </trkpt>
      <trkpt lat="41.823222" lon="22.989947">
        <ele>1186.2</ele>
        <time>2026-05-06T15:39:48.000Z</time>
      </trkpt>
      <trkpt lat="41.823222" lon="22.989947">
        <ele>1186.2</ele>
        <time>2026-05-06T15:39:49.000Z</time>
      </trkpt>
      <trkpt lat="41.823222" lon="22.989947">
        <ele>1186.2</ele>
        <time>2026-05-06T15:39:50.000Z</time>
      </trkpt>
      <trkpt lat="41.823222" lon="22.989947">
        <ele>1186.2</ele>
        <time>2026-05-06T15:39:51.000Z</time>
      </trkpt>
      <trkpt lat="41.823222" lon="22.989947">
        <ele>1186.2</ele>
        <time>2026-05-06T15:39:52.000Z</time>
      </trkpt>
      <trkpt lat="41.823222" lon="22.989947">
        <ele>1186.2</ele>
        <time>2026-05-06T15:39:53.000Z</time>
      </trkpt>
      <trkpt lat="41.823222" lon="22.989947">
        <ele>1186.2</ele>
        <time>2026-05-06T15:39:54.000Z</time>
      </trkpt>
      <trkpt lat="41.823222" lon="22.989947">
        <ele>1186.2</ele>
        <time>2026-05-06T15:39:55.000Z</time>
      </trkpt>
      <trkpt lat="41.823222" lon="22.989947">
        <ele>1186.2</ele>
        <time>2026-05-06T15:39:56.000Z</time>
      </trkpt>
      <trkpt lat="41.823222" lon="22.989947">
        <ele>1186.2</ele>
        <time>2026-05-06T15:39:57.000Z</time>
      </trkpt>
      <trkpt lat="41.823222" lon="22.989947">
        <ele>1186.2</ele>
        <time>2026-05-06T15:39:58.000Z</time>
      </trkpt>
      <trkpt lat="41.823222" lon="22.989947">
        <ele>1186.2</ele>
        <time>2026-05-06T15:39:59.000Z</time>
      </trkpt>
      <trkpt lat="41.823222" lon="22.989947">
        <ele>1186.2</ele>
        <time>2026-05-06T15:40:00.000Z</time>
      </trkpt>
      <trkpt lat="41.823222" lon="22.989947">
        <ele>1186.2</ele>
        <time>2026-05-06T15:40:01.000Z</time>
      </trkpt>
      <trkpt lat="41.823222" lon="22.989946">
        <ele>1186.2</ele>
        <time>2026-05-06T15:40:02.000Z</time>
      </trkpt>
      <trkpt lat="41.823222" lon="22.989946">
        <ele>1186.4</ele>
        <time>2026-05-06T15:40:03.000Z</time>
      </trkpt>
      <trkpt lat="41.823222" lon="22.989946">
        <ele>1186.4</ele>
        <time>2026-05-06T15:40:04.000Z</time>
      </trkpt>
      <trkpt lat="41.823222" lon="22.989946">
        <ele>1186.4</ele>
        <time>2026-05-06T15:40:05.000Z</time>
      </trkpt>
      <trkpt lat="41.823222" lon="22.989946">
        <ele>1186.4</ele>
        <time>2026-05-06T15:40:06.000Z</time>
      </trkpt>
      <trkpt lat="41.823222" lon="22.989946">
        <ele>1186.4</ele>
        <time>2026-05-06T15:40:07.000Z</time>
      </trkpt>
      <trkpt lat="41.823222" lon="22.989946">
        <ele>1186.6</ele>
        <time>2026-05-06T15:40:08.000Z</time>
      </trkpt>
      <trkpt lat="41.823222" lon="22.989946">
        <ele>1186.6</ele>
        <time>2026-05-06T15:40:09.000Z</time>
      </trkpt>
      <trkpt lat="41.823222" lon="22.989946">
        <ele>1186.6</ele>
        <time>2026-05-06T15:40:10.000Z</time>
      </trkpt>
      <trkpt lat="41.823222" lon="22.989946">
        <ele>1186.6</ele>
        <time>2026-05-06T15:40:11.000Z</time>
      </trkpt>
      <trkpt lat="41.823222" lon="22.989946">
        <ele>1186.6</ele>
        <time>2026-05-06T15:40:12.000Z</time>
      </trkpt>
      <trkpt lat="41.823222" lon="22.989946">
        <ele>1186.6</ele>
        <time>2026-05-06T15:40:13.000Z</time>
      </trkpt>
      <trkpt lat="41.823222" lon="22.989946">
        <ele>1186.6</ele>
        <time>2026-05-06T15:40:14.000Z</time>
      </trkpt>
      <trkpt lat="41.823222" lon="22.989946">
        <ele>1186.6</ele>
        <time>2026-05-06T15:40:15.000Z</time>
      </trkpt>
      <trkpt lat="41.823222" lon="22.989946">
        <ele>1186.6</ele>
        <time>2026-05-06T15:40:16.000Z</time>
      </trkpt>
      <trkpt lat="41.823222" lon="22.989946">
        <ele>1186.6</ele>
        <time>2026-05-06T15:40:17.000Z</time>
      </trkpt>
      <trkpt lat="41.823222" lon="22.989946">
        <ele>1186.5</ele>
        <time>2026-05-06T15:40:18.000Z</time>
      </trkpt>
      <trkpt lat="41.823222" lon="22.989946">
        <ele>1186.5</ele>
        <time>2026-05-06T15:40:19.000Z</time>
      </trkpt>
      <trkpt lat="41.823222" lon="22.989946">
        <ele>1186.5</ele>
        <time>2026-05-06T15:40:20.000Z</time>
      </trkpt>
      <trkpt lat="41.823222" lon="22.989946">
        <ele>1186.5</ele>
        <time>2026-05-06T15:40:21.000Z</time>
      </trkpt>
      <trkpt lat="41.823222" lon="22.989946">
        <ele>1186.5</ele>
        <time>2026-05-06T15:40:22.000Z</time>
      </trkpt>
      <trkpt lat="41.823222" lon="22.989946">
        <ele>1186.4</ele>
        <time>2026-05-06T15:40:23.000Z</time>
      </trkpt>
      <trkpt lat="41.823222" lon="22.989946">
        <ele>1186.4</ele>
        <time>2026-05-06T15:40:24.000Z</time>
      </trkpt>
      <trkpt lat="41.823222" lon="22.989946">
        <ele>1186.4</ele>
        <time>2026-05-06T15:40:25.000Z</time>
      </trkpt>
      <trkpt lat="41.823222" lon="22.989946">
        <ele>1186.4</ele>
        <time>2026-05-06T15:40:26.000Z</time>
      </trkpt>
      <trkpt lat="41.823222" lon="22.989946">
        <ele>1186.4</ele>
        <time>2026-05-06T15:40:27.000Z</time>
      </trkpt>
      <trkpt lat="41.823222" lon="22.989946">
        <ele>1186.3</ele>
        <time>2026-05-06T15:40:28.000Z</time>
      </trkpt>
      <trkpt lat="41.823222" lon="22.989946">
        <ele>1186.3</ele>
        <time>2026-05-06T15:40:29.000Z</time>
      </trkpt>
      <trkpt lat="41.823222" lon="22.989946">
        <ele>1186.3</ele>
        <time>2026-05-06T15:40:30.000Z</time>
      </trkpt>
      <trkpt lat="41.823222" lon="22.989946">
        <ele>1186.3</ele>
        <time>2026-05-06T15:40:31.000Z</time>
      </trkpt>
      <trkpt lat="41.823222" lon="22.989945">
        <ele>1186.3</ele>
        <time>2026-05-06T15:40:32.000Z</time>
      </trkpt>
      <trkpt lat="41.823222" lon="22.989945">
        <ele>1186.3</ele>
        <time>2026-05-06T15:40:33.000Z</time>
      </trkpt>
      <trkpt lat="41.823222" lon="22.989945">
        <ele>1186.3</ele>
        <time>2026-05-06T15:40:34.000Z</time>
      </trkpt>
      <trkpt lat="41.823222" lon="22.989945">
        <ele>1186.3</ele>
        <time>2026-05-06T15:40:35.000Z</time>
      </trkpt>
      <trkpt lat="41.823222" lon="22.989944">
        <ele>1186.3</ele>
        <time>2026-05-06T15:40:36.000Z</time>
      </trkpt>
      <trkpt lat="41.823222" lon="22.989944">
        <ele>1186.3</ele>
        <time>2026-05-06T15:40:37.000Z</time>
      </trkpt>
      <trkpt lat="41.823222" lon="22.989944">
        <ele>1186.5</ele>
        <time>2026-05-06T15:40:38.000Z</time>
      </trkpt>
      <trkpt lat="41.823222" lon="22.989944">
        <ele>1186.5</ele>
        <time>2026-05-06T15:40:39.000Z</time>
      </trkpt>
      <trkpt lat="41.823222" lon="22.989944">
        <ele>1186.5</ele>
        <time>2026-05-06T15:40:40.000Z</time>
      </trkpt>
      <trkpt lat="41.823222" lon="22.989944">
        <ele>1186.5</ele>
        <time>2026-05-06T15:40:41.000Z</time>
      </trkpt>
      <trkpt lat="41.823222" lon="22.989944">
        <ele>1186.5</ele>
        <time>2026-05-06T15:40:42.000Z</time>
      </trkpt>
      <trkpt lat="41.823222" lon="22.989944">
        <ele>1186.5</ele>
        <time>2026-05-06T15:40:43.000Z</time>
      </trkpt>
      <trkpt lat="41.823222" lon="22.989944">
        <ele>1186.5</ele>
        <time>2026-05-06T15:40:44.000Z</time>
      </trkpt>
      <trkpt lat="41.823222" lon="22.989944">
        <ele>1186.5</ele>
        <time>2026-05-06T15:40:45.000Z</time>
      </trkpt>
      <trkpt lat="41.823222" lon="22.989944">
        <ele>1186.5</ele>
        <time>2026-05-06T15:40:46.000Z</time>
      </trkpt>
      <trkpt lat="41.823222" lon="22.989944">
        <ele>1186.5</ele>
        <time>2026-05-06T15:40:47.000Z</time>
      </trkpt>
      <trkpt lat="41.823222" lon="22.989944">
        <ele>1186.5</ele>
        <time>2026-05-06T15:40:48.000Z</time>
      </trkpt>
      <trkpt lat="41.823222" lon="22.989944">
        <ele>1186.5</ele>
        <time>2026-05-06T15:40:49.000Z</time>
      </trkpt>
      <trkpt lat="41.823222" lon="22.989944">
        <ele>1186.5</ele>
        <time>2026-05-06T15:40:50.000Z</time>
      </trkpt>
      <trkpt lat="41.823222" lon="22.989944">
        <ele>1186.5</ele>
        <time>2026-05-06T15:40:51.000Z</time>
      </trkpt>
      <trkpt lat="41.823222" lon="22.989944">
        <ele>1186.5</ele>
        <time>2026-05-06T15:40:52.000Z</time>
      </trkpt>
      <trkpt lat="41.823222" lon="22.989944">
        <ele>1186.3</ele>
        <time>2026-05-06T15:40:53.000Z</time>
      </trkpt>
      <trkpt lat="41.823222" lon="22.989944">
        <ele>1186.3</ele>
        <time>2026-05-06T15:40:54.000Z</time>
      </trkpt>
      <trkpt lat="41.823222" lon="22.989944">
        <ele>1186.3</ele>
        <time>2026-05-06T15:40:55.000Z</time>
      </trkpt>
      <trkpt lat="41.823222" lon="22.989944">
        <ele>1186.3</ele>
        <time>2026-05-06T15:40:56.000Z</time>
      </trkpt>
      <trkpt lat="41.823222" lon="22.989944">
        <ele>1186.3</ele>
        <time>2026-05-06T15:40:57.000Z</time>
      </trkpt>
      <trkpt lat="41.823222" lon="22.989944">
        <ele>1186.3</ele>
        <time>2026-05-06T15:40:58.000Z</time>
      </trkpt>
      <trkpt lat="41.823222" lon="22.989944">
        <ele>1186.3</ele>
        <time>2026-05-06T15:40:59.000Z</time>
      </trkpt>
      <trkpt lat="41.823222" lon="22.989944">
        <ele>1186.3</ele>
        <time>2026-05-06T15:41:00.000Z</time>
      </trkpt>
      <trkpt lat="41.823222" lon="22.989944">
        <ele>1186.3</ele>
        <time>2026-05-06T15:41:01.000Z</time>
      </trkpt>
      <trkpt lat="41.823222" lon="22.989944">
        <ele>1186.3</ele>
        <time>2026-05-06T15:41:02.000Z</time>
      </trkpt>
      <trkpt lat="41.823222" lon="22.989944">
        <ele>1186.2</ele>
        <time>2026-05-06T15:41:03.000Z</time>
      </trkpt>
      <trkpt lat="41.823222" lon="22.989944">
        <ele>1186.2</ele>
        <time>2026-05-06T15:41:04.000Z</time>
      </trkpt>
      <trkpt lat="41.823222" lon="22.989943">
        <ele>1186.2</ele>
        <time>2026-05-06T15:41:05.000Z</time>
      </trkpt>
      <trkpt lat="41.823222" lon="22.989943">
        <ele>1186.2</ele>
        <time>2026-05-06T15:41:06.000Z</time>
      </trkpt>
      <trkpt lat="41.823222" lon="22.989943">
        <ele>1186.2</ele>
        <time>2026-05-06T15:41:07.000Z</time>
      </trkpt>
      <trkpt lat="41.823222" lon="22.989943">
        <ele>1186.2</ele>
        <time>2026-05-06T15:41:08.000Z</time>
      </trkpt>
      <trkpt lat="41.823222" lon="22.989943">
        <ele>1186.2</ele>
        <time>2026-05-06T15:41:09.000Z</time>
      </trkpt>
      <trkpt lat="41.823222" lon="22.989943">
        <ele>1186.2</ele>
        <time>2026-05-06T15:41:10.000Z</time>
      </trkpt>
      <trkpt lat="41.823223" lon="22.989943">
        <ele>1186.2</ele>
        <time>2026-05-06T15:41:11.000Z</time>
      </trkpt>
      <trkpt lat="41.823223" lon="22.989944">
        <ele>1186.2</ele>
        <time>2026-05-06T15:41:12.000Z</time>
      </trkpt>
      <trkpt lat="41.823224" lon="22.989944">
        <ele>1186.2</ele>
        <time>2026-05-06T15:41:13.000Z</time>
      </trkpt>
      <trkpt lat="41.823224" lon="22.989944">
        <ele>1186.2</ele>
        <time>2026-05-06T15:41:14.000Z</time>
      </trkpt>
      <trkpt lat="41.823224" lon="22.989944">
        <ele>1186.2</ele>
        <time>2026-05-06T15:41:15.000Z</time>
      </trkpt>
      <trkpt lat="41.823224" lon="22.989944">
        <ele>1186.2</ele>
        <time>2026-05-06T15:41:16.000Z</time>
      </trkpt>
      <trkpt lat="41.823224" lon="22.989944">
        <ele>1186.2</ele>
        <time>2026-05-06T15:41:17.000Z</time>
      </trkpt>
      <trkpt lat="41.823223" lon="22.989944">
        <ele>1186.3</ele>
        <time>2026-05-06T15:41:18.000Z</time>
      </trkpt>
      <trkpt lat="41.823223" lon="22.989944">
        <ele>1186.3</ele>
        <time>2026-05-06T15:41:19.000Z</time>
      </trkpt>
      <trkpt lat="41.823223" lon="22.989944">
        <ele>1186.3</ele>
        <time>2026-05-06T15:41:20.000Z</time>
      </trkpt>
      <trkpt lat="41.823223" lon="22.989944">
        <ele>1186.3</ele>
        <time>2026-05-06T15:41:21.000Z</time>
      </trkpt>
      <trkpt lat="41.823222" lon="22.989943">
        <ele>1186.3</ele>
        <time>2026-05-06T15:41:22.000Z</time>
      </trkpt>
      <trkpt lat="41.823221" lon="22.989942">
        <ele>1186.2</ele>
        <time>2026-05-06T15:41:23.000Z</time>
      </trkpt>
      <trkpt lat="41.82322" lon="22.989941">
        <ele>1186.2</ele>
        <time>2026-05-06T15:41:24.000Z</time>
      </trkpt>
      <trkpt lat="41.823219" lon="22.989939">
        <ele>1186.2</ele>
        <time>2026-05-06T15:41:25.000Z</time>
      </trkpt>
      <trkpt lat="41.823217" lon="22.989937">
        <ele>1186.2</ele>
        <time>2026-05-06T15:41:26.000Z</time>
      </trkpt>
      <trkpt lat="41.823215" lon="22.989937">
        <ele>1186.2</ele>
        <time>2026-05-06T15:41:27.000Z</time>
      </trkpt>
      <trkpt lat="41.823214" lon="22.989936">
        <ele>1186.2</ele>
        <time>2026-05-06T15:41:28.000Z</time>
      </trkpt>
      <trkpt lat="41.823213" lon="22.989936">
        <ele>1186.2</ele>
        <time>2026-05-06T15:41:29.000Z</time>
      </trkpt>
      <trkpt lat="41.823212" lon="22.989936">
        <ele>1186.2</ele>
        <time>2026-05-06T15:41:30.000Z</time>
      </trkpt>
      <trkpt lat="41.823212" lon="22.989938">
        <ele>1186.2</ele>
        <time>2026-05-06T15:41:31.000Z</time>
      </trkpt>
      <trkpt lat="41.823212" lon="22.989939">
        <ele>1186.2</ele>
        <time>2026-05-06T15:41:32.000Z</time>
      </trkpt>
      <trkpt lat="41.823213" lon="22.98994">
        <ele>1186.3</ele>
        <time>2026-05-06T15:41:33.000Z</time>
      </trkpt>
      <trkpt lat="41.823213" lon="22.989942">
        <ele>1186.3</ele>
        <time>2026-05-06T15:41:34.000Z</time>
      </trkpt>
      <trkpt lat="41.823214" lon="22.989944">
        <ele>1186.3</ele>
        <time>2026-05-06T15:41:35.000Z</time>
      </trkpt>
      <trkpt lat="41.823215" lon="22.989944">
        <ele>1186.3</ele>
        <time>2026-05-06T15:41:36.000Z</time>
      </trkpt>
      <trkpt lat="41.823215" lon="22.989944">
        <ele>1186.3</ele>
        <time>2026-05-06T15:41:37.000Z</time>
      </trkpt>
      <trkpt lat="41.823216" lon="22.989944">
        <ele>1186.3</ele>
        <time>2026-05-06T15:41:38.000Z</time>
      </trkpt>
      <trkpt lat="41.823216" lon="22.989944">
        <ele>1186.3</ele>
        <time>2026-05-06T15:41:39.000Z</time>
      </trkpt>
      <trkpt lat="41.823216" lon="22.989944">
        <ele>1186.3</ele>
        <time>2026-05-06T15:41:40.000Z</time>
      </trkpt>
      <trkpt lat="41.823216" lon="22.989944">
        <ele>1186.3</ele>
        <time>2026-05-06T15:41:41.000Z</time>
      </trkpt>
      <trkpt lat="41.823216" lon="22.989944">
        <ele>1186.3</ele>
        <time>2026-05-06T15:41:42.000Z</time>
      </trkpt>
      <trkpt lat="41.823216" lon="22.989942">
        <ele>1186.2</ele>
        <time>2026-05-06T15:41:43.000Z</time>
      </trkpt>
      <trkpt lat="41.823216" lon="22.98994">
        <ele>1186.2</ele>
        <time>2026-05-06T15:41:44.000Z</time>
      </trkpt>
      <trkpt lat="41.823216" lon="22.989939">
        <ele>1186.2</ele>
        <time>2026-05-06T15:41:45.000Z</time>
      </trkpt>
      <trkpt lat="41.823217" lon="22.989939">
        <ele>1186.2</ele>
        <time>2026-05-06T15:41:46.000Z</time>
      </trkpt>
      <trkpt lat="41.82322" lon="22.989939">
        <ele>1186.2</ele>
        <time>2026-05-06T15:41:47.000Z</time>
      </trkpt>
      <trkpt lat="41.823223" lon="22.989944">
        <ele>1185.9</ele>
        <time>2026-05-06T15:41:48.000Z</time>
      </trkpt>
      <trkpt lat="41.823227" lon="22.989949">
        <ele>1185.9</ele>
        <time>2026-05-06T15:41:49.000Z</time>
      </trkpt>
      <trkpt lat="41.823232" lon="22.989955">
        <ele>1185.9</ele>
        <time>2026-05-06T15:41:50.000Z</time>
      </trkpt>
      <trkpt lat="41.823238" lon="22.989962">
        <ele>1185.9</ele>
        <time>2026-05-06T15:41:51.000Z</time>
      </trkpt>
      <trkpt lat="41.823244" lon="22.989969">
        <ele>1185.9</ele>
        <time>2026-05-06T15:41:52.000Z</time>
      </trkpt>
      <trkpt lat="41.823252" lon="22.989977">
        <ele>1186.1</ele>
        <time>2026-05-06T15:41:53.000Z</time>
      </trkpt>
      <trkpt lat="41.823261" lon="22.989985">
        <ele>1186.1</ele>
        <time>2026-05-06T15:41:54.000Z</time>
      </trkpt>
      <trkpt lat="41.82327" lon="22.989993">
        <ele>1186.1</ele>
        <time>2026-05-06T15:41:55.000Z</time>
      </trkpt>
      <trkpt lat="41.82328" lon="22.990001">
        <ele>1186.1</ele>
        <time>2026-05-06T15:41:56.000Z</time>
      </trkpt>
      <trkpt lat="41.823291" lon="22.990008">
        <ele>1186.1</ele>
        <time>2026-05-06T15:41:57.000Z</time>
      </trkpt>
      <trkpt lat="41.8233" lon="22.990016">
        <ele>1186.2</ele>
        <time>2026-05-06T15:41:58.000Z</time>
      </trkpt>
      <trkpt lat="41.82331" lon="22.990022">
        <ele>1186.2</ele>
        <time>2026-05-06T15:41:59.000Z</time>
      </trkpt>
      <trkpt lat="41.82332" lon="22.990027">
        <ele>1186.2</ele>
        <time>2026-05-06T15:42:00.000Z</time>
      </trkpt>
      <trkpt lat="41.82333" lon="22.990029">
        <ele>1186.2</ele>
        <time>2026-05-06T15:42:01.000Z</time>
      </trkpt>
      <trkpt lat="41.823341" lon="22.99003">
        <ele>1186.2</ele>
        <time>2026-05-06T15:42:02.000Z</time>
      </trkpt>
      <trkpt lat="41.823352" lon="22.990029">
        <ele>1186.4</ele>
        <time>2026-05-06T15:42:03.000Z</time>
      </trkpt>
      <trkpt lat="41.823364" lon="22.990028">
        <ele>1186.4</ele>
        <time>2026-05-06T15:42:04.000Z</time>
      </trkpt>
      <trkpt lat="41.823376" lon="22.990028">
        <ele>1186.4</ele>
        <time>2026-05-06T15:42:05.000Z</time>
      </trkpt>
      <trkpt lat="41.823388" lon="22.990027">
        <ele>1186.4</ele>
        <time>2026-05-06T15:42:06.000Z</time>
      </trkpt>
      <trkpt lat="41.8234" lon="22.990027">
        <ele>1186.4</ele>
        <time>2026-05-06T15:42:07.000Z</time>
      </trkpt>
      <trkpt lat="41.823412" lon="22.990027">
        <ele>1185.9</ele>
        <time>2026-05-06T15:42:08.000Z</time>
      </trkpt>
      <trkpt lat="41.823424" lon="22.990026">
        <ele>1185.9</ele>
        <time>2026-05-06T15:42:09.000Z</time>
      </trkpt>
      <trkpt lat="41.823437" lon="22.990027">
        <ele>1185.9</ele>
        <time>2026-05-06T15:42:10.000Z</time>
      </trkpt>
      <trkpt lat="41.823449" lon="22.990028">
        <ele>1185.9</ele>
        <time>2026-05-06T15:42:11.000Z</time>
      </trkpt>
      <trkpt lat="41.82346" lon="22.990029">
        <ele>1185.9</ele>
        <time>2026-05-06T15:42:12.000Z</time>
      </trkpt>
      <trkpt lat="41.823471" lon="22.99003">
        <ele>1185.5</ele>
        <time>2026-05-06T15:42:13.000Z</time>
      </trkpt>
      <trkpt lat="41.823483" lon="22.99003">
        <ele>1185.5</ele>
        <time>2026-05-06T15:42:14.000Z</time>
      </trkpt>
      <trkpt lat="41.823494" lon="22.990028">
        <ele>1185.5</ele>
        <time>2026-05-06T15:42:15.000Z</time>
      </trkpt>
      <trkpt lat="41.823504" lon="22.990024">
        <ele>1185.5</ele>
        <time>2026-05-06T15:42:16.000Z</time>
      </trkpt>
      <trkpt lat="41.823515" lon="22.990021">
        <ele>1185.5</ele>
        <time>2026-05-06T15:42:17.000Z</time>
      </trkpt>
      <trkpt lat="41.823527" lon="22.990017">
        <ele>1184.8</ele>
        <time>2026-05-06T15:42:18.000Z</time>
      </trkpt>
      <trkpt lat="41.823538" lon="22.990012">
        <ele>1184.8</ele>
        <time>2026-05-06T15:42:19.000Z</time>
      </trkpt>
      <trkpt lat="41.82355" lon="22.990009">
        <ele>1184.8</ele>
        <time>2026-05-06T15:42:20.000Z</time>
      </trkpt>
      <trkpt lat="41.823563" lon="22.990005">
        <ele>1184.8</ele>
        <time>2026-05-06T15:42:21.000Z</time>
      </trkpt>
      <trkpt lat="41.823575" lon="22.989999">
        <ele>1184.8</ele>
        <time>2026-05-06T15:42:22.000Z</time>
      </trkpt>
      <trkpt lat="41.823588" lon="22.989992">
        <ele>1184.1</ele>
        <time>2026-05-06T15:42:23.000Z</time>
      </trkpt>
      <trkpt lat="41.823601" lon="22.989984">
        <ele>1184.1</ele>
        <time>2026-05-06T15:42:24.000Z</time>
      </trkpt>
      <trkpt lat="41.823613" lon="22.989974">
        <ele>1184.1</ele>
        <time>2026-05-06T15:42:25.000Z</time>
      </trkpt>
      <trkpt lat="41.823626" lon="22.989965">
        <ele>1184.1</ele>
        <time>2026-05-06T15:42:26.000Z</time>
      </trkpt>
      <trkpt lat="41.823637" lon="22.989957">
        <ele>1184.1</ele>
        <time>2026-05-06T15:42:27.000Z</time>
      </trkpt>
      <trkpt lat="41.823648" lon="22.989949">
        <ele>1183.8</ele>
        <time>2026-05-06T15:42:28.000Z</time>
      </trkpt>
      <trkpt lat="41.823658" lon="22.989942">
        <ele>1183.8</ele>
        <time>2026-05-06T15:42:29.000Z</time>
      </trkpt>
      <trkpt lat="41.823668" lon="22.989934">
        <ele>1183.8</ele>
        <time>2026-05-06T15:42:30.000Z</time>
      </trkpt>
      <trkpt lat="41.823677" lon="22.989925">
        <ele>1183.8</ele>
        <time>2026-05-06T15:42:31.000Z</time>
      </trkpt>
      <trkpt lat="41.823687" lon="22.989915">
        <ele>1183.8</ele>
        <time>2026-05-06T15:42:32.000Z</time>
      </trkpt>
      <trkpt lat="41.823697" lon="22.989904">
        <ele>1183</ele>
        <time>2026-05-06T15:42:33.000Z</time>
      </trkpt>
      <trkpt lat="41.823708" lon="22.989894">
        <ele>1183</ele>
        <time>2026-05-06T15:42:34.000Z</time>
      </trkpt>
      <trkpt lat="41.82372" lon="22.989885">
        <ele>1183</ele>
        <time>2026-05-06T15:42:35.000Z</time>
      </trkpt>
      <trkpt lat="41.823733" lon="22.989878">
        <ele>1183</ele>
        <time>2026-05-06T15:42:36.000Z</time>
      </trkpt>
      <trkpt lat="41.823744" lon="22.989871">
        <ele>1183</ele>
        <time>2026-05-06T15:42:37.000Z</time>
      </trkpt>
      <trkpt lat="41.823755" lon="22.989861">
        <ele>1181.9</ele>
        <time>2026-05-06T15:42:38.000Z</time>
      </trkpt>
      <trkpt lat="41.823764" lon="22.98985">
        <ele>1181.9</ele>
        <time>2026-05-06T15:42:39.000Z</time>
      </trkpt>
      <trkpt lat="41.823772" lon="22.989839">
        <ele>1181.9</ele>
        <time>2026-05-06T15:42:40.000Z</time>
      </trkpt>
      <trkpt lat="41.823781" lon="22.989827">
        <ele>1181.9</ele>
        <time>2026-05-06T15:42:41.000Z</time>
      </trkpt>
      <trkpt lat="41.82379" lon="22.989815">
        <ele>1181.9</ele>
        <time>2026-05-06T15:42:42.000Z</time>
      </trkpt>
      <trkpt lat="41.823799" lon="22.989804">
        <ele>1181.3</ele>
        <time>2026-05-06T15:42:43.000Z</time>
      </trkpt>
      <trkpt lat="41.82381" lon="22.989794">
        <ele>1181.3</ele>
        <time>2026-05-06T15:42:44.000Z</time>
      </trkpt>
      <trkpt lat="41.82382" lon="22.989785">
        <ele>1181.3</ele>
        <time>2026-05-06T15:42:45.000Z</time>
      </trkpt>
      <trkpt lat="41.82383" lon="22.989777">
        <ele>1181.3</ele>
        <time>2026-05-06T15:42:46.000Z</time>
      </trkpt>
      <trkpt lat="41.82384" lon="22.989769">
        <ele>1181.3</ele>
        <time>2026-05-06T15:42:47.000Z</time>
      </trkpt>
      <trkpt lat="41.823852" lon="22.989764">
        <ele>1180.1</ele>
        <time>2026-05-06T15:42:48.000Z</time>
      </trkpt>
      <trkpt lat="41.823864" lon="22.98976">
        <ele>1180.1</ele>
        <time>2026-05-06T15:42:49.000Z</time>
      </trkpt>
      <trkpt lat="41.823878" lon="22.989756">
        <ele>1180.1</ele>
        <time>2026-05-06T15:42:50.000Z</time>
      </trkpt>
      <trkpt lat="41.823893" lon="22.989753">
        <ele>1180.1</ele>
        <time>2026-05-06T15:42:51.000Z</time>
      </trkpt>
      <trkpt lat="41.823908" lon="22.989751">
        <ele>1180.1</ele>
        <time>2026-05-06T15:42:52.000Z</time>
      </trkpt>
      <trkpt lat="41.823923" lon="22.989752">
        <ele>1178.9</ele>
        <time>2026-05-06T15:42:53.000Z</time>
      </trkpt>
      <trkpt lat="41.823936" lon="22.989755">
        <ele>1178.9</ele>
        <time>2026-05-06T15:42:54.000Z</time>
      </trkpt>
      <trkpt lat="41.823949" lon="22.989758">
        <ele>1178.9</ele>
        <time>2026-05-06T15:42:55.000Z</time>
      </trkpt>
      <trkpt lat="41.823961" lon="22.989763">
        <ele>1178.9</ele>
        <time>2026-05-06T15:42:56.000Z</time>
      </trkpt>
      <trkpt lat="41.823973" lon="22.989767">
        <ele>1178.9</ele>
        <time>2026-05-06T15:42:57.000Z</time>
      </trkpt>
      <trkpt lat="41.823986" lon="22.989768">
        <ele>1178.2</ele>
        <time>2026-05-06T15:42:58.000Z</time>
      </trkpt>
      <trkpt lat="41.823999" lon="22.989769">
        <ele>1178.2</ele>
        <time>2026-05-06T15:42:59.000Z</time>
      </trkpt>
      <trkpt lat="41.824013" lon="22.98977">
        <ele>1178.2</ele>
        <time>2026-05-06T15:43:00.000Z</time>
      </trkpt>
      <trkpt lat="41.824028" lon="22.989771">
        <ele>1178.2</ele>
        <time>2026-05-06T15:43:01.000Z</time>
      </trkpt>
      <trkpt lat="41.824043" lon="22.989774">
        <ele>1178.2</ele>
        <time>2026-05-06T15:43:02.000Z</time>
      </trkpt>
      <trkpt lat="41.824057" lon="22.989779">
        <ele>1176.8</ele>
        <time>2026-05-06T15:43:03.000Z</time>
      </trkpt>
      <trkpt lat="41.824072" lon="22.989784">
        <ele>1176.8</ele>
        <time>2026-05-06T15:43:04.000Z</time>
      </trkpt>
      <trkpt lat="41.824086" lon="22.989789">
        <ele>1176.8</ele>
        <time>2026-05-06T15:43:05.000Z</time>
      </trkpt>
      <trkpt lat="41.824098" lon="22.989795">
        <ele>1176.8</ele>
        <time>2026-05-06T15:43:06.000Z</time>
      </trkpt>
      <trkpt lat="41.824112" lon="22.9898">
        <ele>1176.8</ele>
        <time>2026-05-06T15:43:07.000Z</time>
      </trkpt>
      <trkpt lat="41.824124" lon="22.989806">
        <ele>1175.5</ele>
        <time>2026-05-06T15:43:08.000Z</time>
      </trkpt>
      <trkpt lat="41.824136" lon="22.989812">
        <ele>1175.5</ele>
        <time>2026-05-06T15:43:09.000Z</time>
      </trkpt>
      <trkpt lat="41.824146" lon="22.98982">
        <ele>1175.5</ele>
        <time>2026-05-06T15:43:10.000Z</time>
      </trkpt>
      <trkpt lat="41.824156" lon="22.989828">
        <ele>1175.5</ele>
        <time>2026-05-06T15:43:11.000Z</time>
      </trkpt>
      <trkpt lat="41.824167" lon="22.989836">
        <ele>1175.5</ele>
        <time>2026-05-06T15:43:12.000Z</time>
      </trkpt>
      <trkpt lat="41.824177" lon="22.989842">
        <ele>1174.9</ele>
        <time>2026-05-06T15:43:13.000Z</time>
      </trkpt>
      <trkpt lat="41.824188" lon="22.989848">
        <ele>1174.9</ele>
        <time>2026-05-06T15:43:14.000Z</time>
      </trkpt>
      <trkpt lat="41.824199" lon="22.989853">
        <ele>1174.9</ele>
        <time>2026-05-06T15:43:15.000Z</time>
      </trkpt>
      <trkpt lat="41.824212" lon="22.989858">
        <ele>1174.9</ele>
        <time>2026-05-06T15:43:16.000Z</time>
      </trkpt>
      <trkpt lat="41.824224" lon="22.989861">
        <ele>1174.9</ele>
        <time>2026-05-06T15:43:17.000Z</time>
      </trkpt>
      <trkpt lat="41.824237" lon="22.989863">
        <ele>1173.8</ele>
        <time>2026-05-06T15:43:18.000Z</time>
      </trkpt>
      <trkpt lat="41.82425" lon="22.989864">
        <ele>1173.8</ele>
        <time>2026-05-06T15:43:19.000Z</time>
      </trkpt>
      <trkpt lat="41.824264" lon="22.989863">
        <ele>1173.8</ele>
        <time>2026-05-06T15:43:20.000Z</time>
      </trkpt>
      <trkpt lat="41.824278" lon="22.989863">
        <ele>1173.8</ele>
        <time>2026-05-06T15:43:21.000Z</time>
      </trkpt>
      <trkpt lat="41.824293" lon="22.989862">
        <ele>1173.8</ele>
        <time>2026-05-06T15:43:22.000Z</time>
      </trkpt>
      <trkpt lat="41.824306" lon="22.989861">
        <ele>1172.9</ele>
        <time>2026-05-06T15:43:23.000Z</time>
      </trkpt>
      <trkpt lat="41.824319" lon="22.98986">
        <ele>1172.9</ele>
        <time>2026-05-06T15:43:24.000Z</time>
      </trkpt>
      <trkpt lat="41.824331" lon="22.989856">
        <ele>1172.9</ele>
        <time>2026-05-06T15:43:25.000Z</time>
      </trkpt>
      <trkpt lat="41.824343" lon="22.989851">
        <ele>1172.9</ele>
        <time>2026-05-06T15:43:26.000Z</time>
      </trkpt>
      <trkpt lat="41.824355" lon="22.989844">
        <ele>1172.9</ele>
        <time>2026-05-06T15:43:27.000Z</time>
      </trkpt>
      <trkpt lat="41.824367" lon="22.989835">
        <ele>1172.5</ele>
        <time>2026-05-06T15:43:28.000Z</time>
      </trkpt>
      <trkpt lat="41.82438" lon="22.989828">
        <ele>1172.5</ele>
        <time>2026-05-06T15:43:29.000Z</time>
      </trkpt>
      <trkpt lat="41.824394" lon="22.989822">
        <ele>1172.5</ele>
        <time>2026-05-06T15:43:30.000Z</time>
      </trkpt>
      <trkpt lat="41.824407" lon="22.989816">
        <ele>1172.5</ele>
        <time>2026-05-06T15:43:31.000Z</time>
      </trkpt>
      <trkpt lat="41.82442" lon="22.989809">
        <ele>1172.5</ele>
        <time>2026-05-06T15:43:32.000Z</time>
      </trkpt>
      <trkpt lat="41.824433" lon="22.989804">
        <ele>1172</ele>
        <time>2026-05-06T15:43:33.000Z</time>
      </trkpt>
      <trkpt lat="41.824446" lon="22.989799">
        <ele>1172</ele>
        <time>2026-05-06T15:43:34.000Z</time>
      </trkpt>
      <trkpt lat="41.824458" lon="22.989793">
        <ele>1172</ele>
        <time>2026-05-06T15:43:35.000Z</time>
      </trkpt>
      <trkpt lat="41.82447" lon="22.989786">
        <ele>1172</ele>
        <time>2026-05-06T15:43:36.000Z</time>
      </trkpt>
      <trkpt lat="41.824483" lon="22.98978">
        <ele>1172</ele>
        <time>2026-05-06T15:43:37.000Z</time>
      </trkpt>
      <trkpt lat="41.824496" lon="22.989772">
        <ele>1171.6</ele>
        <time>2026-05-06T15:43:38.000Z</time>
      </trkpt>
      <trkpt lat="41.824509" lon="22.989763">
        <ele>1171.6</ele>
        <time>2026-05-06T15:43:39.000Z</time>
      </trkpt>
      <trkpt lat="41.824522" lon="22.989754">
        <ele>1171.6</ele>
        <time>2026-05-06T15:43:40.000Z</time>
      </trkpt>
      <trkpt lat="41.824534" lon="22.989744">
        <ele>1171.6</ele>
        <time>2026-05-06T15:43:41.000Z</time>
      </trkpt>
      <trkpt lat="41.824545" lon="22.989734">
        <ele>1171.6</ele>
        <time>2026-05-06T15:43:42.000Z</time>
      </trkpt>
      <trkpt lat="41.824557" lon="22.989724">
        <ele>1171.4</ele>
        <time>2026-05-06T15:43:43.000Z</time>
      </trkpt>
      <trkpt lat="41.824569" lon="22.989715">
        <ele>1171.4</ele>
        <time>2026-05-06T15:43:44.000Z</time>
      </trkpt>
      <trkpt lat="41.82458" lon="22.989706">
        <ele>1171.4</ele>
        <time>2026-05-06T15:43:45.000Z</time>
      </trkpt>
      <trkpt lat="41.824592" lon="22.989697">
        <ele>1171.4</ele>
        <time>2026-05-06T15:43:46.000Z</time>
      </trkpt>
      <trkpt lat="41.824604" lon="22.989687">
        <ele>1171.4</ele>
        <time>2026-05-06T15:43:47.000Z</time>
      </trkpt>
      <trkpt lat="41.824616" lon="22.989678">
        <ele>1170.8</ele>
        <time>2026-05-06T15:43:48.000Z</time>
      </trkpt>
      <trkpt lat="41.824628" lon="22.989669">
        <ele>1170.8</ele>
        <time>2026-05-06T15:43:49.000Z</time>
      </trkpt>
      <trkpt lat="41.824641" lon="22.989661">
        <ele>1170.8</ele>
        <time>2026-05-06T15:43:50.000Z</time>
      </trkpt>
      <trkpt lat="41.824654" lon="22.989653">
        <ele>1170.8</ele>
        <time>2026-05-06T15:43:51.000Z</time>
      </trkpt>
      <trkpt lat="41.824667" lon="22.989644">
        <ele>1170.8</ele>
        <time>2026-05-06T15:43:52.000Z</time>
      </trkpt>
      <trkpt lat="41.82468" lon="22.989634">
        <ele>1170.1</ele>
        <time>2026-05-06T15:43:53.000Z</time>
      </trkpt>
      <trkpt lat="41.824694" lon="22.989624">
        <ele>1170.1</ele>
        <time>2026-05-06T15:43:54.000Z</time>
      </trkpt>
      <trkpt lat="41.824708" lon="22.989614">
        <ele>1170.1</ele>
        <time>2026-05-06T15:43:55.000Z</time>
      </trkpt>
      <trkpt lat="41.824722" lon="22.989604">
        <ele>1170.1</ele>
        <time>2026-05-06T15:43:56.000Z</time>
      </trkpt>
      <trkpt lat="41.824736" lon="22.989595">
        <ele>1170.1</ele>
        <time>2026-05-06T15:43:57.000Z</time>
      </trkpt>
      <trkpt lat="41.824748" lon="22.989587">
        <ele>1169.7</ele>
        <time>2026-05-06T15:43:58.000Z</time>
      </trkpt>
      <trkpt lat="41.82476" lon="22.989579">
        <ele>1169.7</ele>
        <time>2026-05-06T15:43:59.000Z</time>
      </trkpt>
      <trkpt lat="41.824772" lon="22.989572">
        <ele>1169.7</ele>
        <time>2026-05-06T15:44:00.000Z</time>
      </trkpt>
      <trkpt lat="41.824783" lon="22.989565">
        <ele>1169.7</ele>
        <time>2026-05-06T15:44:01.000Z</time>
      </trkpt>
      <trkpt lat="41.824795" lon="22.989558">
        <ele>1169.7</ele>
        <time>2026-05-06T15:44:02.000Z</time>
      </trkpt>
      <trkpt lat="41.824808" lon="22.989551">
        <ele>1169</ele>
        <time>2026-05-06T15:44:03.000Z</time>
      </trkpt>
      <trkpt lat="41.824821" lon="22.989544">
        <ele>1169</ele>
        <time>2026-05-06T15:44:04.000Z</time>
      </trkpt>
      <trkpt lat="41.824834" lon="22.989538">
        <ele>1169</ele>
        <time>2026-05-06T15:44:05.000Z</time>
      </trkpt>
      <trkpt lat="41.824848" lon="22.989532">
        <ele>1169</ele>
        <time>2026-05-06T15:44:06.000Z</time>
      </trkpt>
      <trkpt lat="41.824862" lon="22.989528">
        <ele>1169</ele>
        <time>2026-05-06T15:44:07.000Z</time>
      </trkpt>
      <trkpt lat="41.824877" lon="22.989524">
        <ele>1168.5</ele>
        <time>2026-05-06T15:44:08.000Z</time>
      </trkpt>
      <trkpt lat="41.824892" lon="22.98952">
        <ele>1168.5</ele>
        <time>2026-05-06T15:44:09.000Z</time>
      </trkpt>
      <trkpt lat="41.824907" lon="22.989515">
        <ele>1168.5</ele>
        <time>2026-05-06T15:44:10.000Z</time>
      </trkpt>
      <trkpt lat="41.824921" lon="22.98951">
        <ele>1168.5</ele>
        <time>2026-05-06T15:44:11.000Z</time>
      </trkpt>
      <trkpt lat="41.824936" lon="22.989504">
        <ele>1168.5</ele>
        <time>2026-05-06T15:44:12.000Z</time>
      </trkpt>
      <trkpt lat="41.82495" lon="22.989498">
        <ele>1168.2</ele>
        <time>2026-05-06T15:44:13.000Z</time>
      </trkpt>
      <trkpt lat="41.824965" lon="22.989492">
        <ele>1168.2</ele>
        <time>2026-05-06T15:44:14.000Z</time>
      </trkpt>
      <trkpt lat="41.824979" lon="22.989487">
        <ele>1168.2</ele>
        <time>2026-05-06T15:44:15.000Z</time>
      </trkpt>
      <trkpt lat="41.824993" lon="22.98948">
        <ele>1168.2</ele>
        <time>2026-05-06T15:44:16.000Z</time>
      </trkpt>
      <trkpt lat="41.825007" lon="22.989474">
        <ele>1168.2</ele>
        <time>2026-05-06T15:44:17.000Z</time>
      </trkpt>
      <trkpt lat="41.825021" lon="22.989467">
        <ele>1167.7</ele>
        <time>2026-05-06T15:44:18.000Z</time>
      </trkpt>
      <trkpt lat="41.825034" lon="22.98946">
        <ele>1167.7</ele>
        <time>2026-05-06T15:44:19.000Z</time>
      </trkpt>
      <trkpt lat="41.825047" lon="22.989454">
        <ele>1167.7</ele>
        <time>2026-05-06T15:44:20.000Z</time>
      </trkpt>
      <trkpt lat="41.825059" lon="22.989449">
        <ele>1167.7</ele>
        <time>2026-05-06T15:44:21.000Z</time>
      </trkpt>
      <trkpt lat="41.825071" lon="22.989442">
        <ele>1167.7</ele>
        <time>2026-05-06T15:44:22.000Z</time>
      </trkpt>
      <trkpt lat="41.825082" lon="22.989435">
        <ele>1167.1</ele>
        <time>2026-05-06T15:44:23.000Z</time>
      </trkpt>
      <trkpt lat="41.825094" lon="22.989427">
        <ele>1167.1</ele>
        <time>2026-05-06T15:44:24.000Z</time>
      </trkpt>
      <trkpt lat="41.825105" lon="22.989418">
        <ele>1167.1</ele>
        <time>2026-05-06T15:44:25.000Z</time>
      </trkpt>
      <trkpt lat="41.825116" lon="22.989407">
        <ele>1167.1</ele>
        <time>2026-05-06T15:44:26.000Z</time>
      </trkpt>
      <trkpt lat="41.825128" lon="22.989396">
        <ele>1167.1</ele>
        <time>2026-05-06T15:44:27.000Z</time>
      </trkpt>
      <trkpt lat="41.825141" lon="22.989384">
        <ele>1166.7</ele>
        <time>2026-05-06T15:44:28.000Z</time>
      </trkpt>
      <trkpt lat="41.825154" lon="22.989372">
        <ele>1166.7</ele>
        <time>2026-05-06T15:44:29.000Z</time>
      </trkpt>
      <trkpt lat="41.825167" lon="22.98936">
        <ele>1166.7</ele>
        <time>2026-05-06T15:44:30.000Z</time>
      </trkpt>
      <trkpt lat="41.82518" lon="22.989349">
        <ele>1166.7</ele>
        <time>2026-05-06T15:44:31.000Z</time>
      </trkpt>
      <trkpt lat="41.825194" lon="22.989338">
        <ele>1166.7</ele>
        <time>2026-05-06T15:44:32.000Z</time>
      </trkpt>
      <trkpt lat="41.825206" lon="22.989328">
        <ele>1166.3</ele>
        <time>2026-05-06T15:44:33.000Z</time>
      </trkpt>
      <trkpt lat="41.825219" lon="22.989318">
        <ele>1166.3</ele>
        <time>2026-05-06T15:44:34.000Z</time>
      </trkpt>
      <trkpt lat="41.825231" lon="22.989308">
        <ele>1166.3</ele>
        <time>2026-05-06T15:44:35.000Z</time>
      </trkpt>
      <trkpt lat="41.825243" lon="22.989299">
        <ele>1166.3</ele>
        <time>2026-05-06T15:44:36.000Z</time>
      </trkpt>
      <trkpt lat="41.825255" lon="22.98929">
        <ele>1166.3</ele>
        <time>2026-05-06T15:44:37.000Z</time>
      </trkpt>
      <trkpt lat="41.825268" lon="22.989283">
        <ele>1166.2</ele>
        <time>2026-05-06T15:44:38.000Z</time>
      </trkpt>
      <trkpt lat="41.825282" lon="22.989276">
        <ele>1166.2</ele>
        <time>2026-05-06T15:44:39.000Z</time>
      </trkpt>
      <trkpt lat="41.825296" lon="22.989272">
        <ele>1166.2</ele>
        <time>2026-05-06T15:44:40.000Z</time>
      </trkpt>
      <trkpt lat="41.825311" lon="22.989269">
        <ele>1166.2</ele>
        <time>2026-05-06T15:44:41.000Z</time>
      </trkpt>
      <trkpt lat="41.825326" lon="22.989266">
        <ele>1166.2</ele>
        <time>2026-05-06T15:44:42.000Z</time>
      </trkpt>
      <trkpt lat="41.825341" lon="22.989263">
        <ele>1166.2</ele>
        <time>2026-05-06T15:44:43.000Z</time>
      </trkpt>
      <trkpt lat="41.825355" lon="22.989263">
        <ele>1166.2</ele>
        <time>2026-05-06T15:44:44.000Z</time>
      </trkpt>
      <trkpt lat="41.825368" lon="22.989261">
        <ele>1166.2</ele>
        <time>2026-05-06T15:44:45.000Z</time>
      </trkpt>
      <trkpt lat="41.825381" lon="22.989259">
        <ele>1166.2</ele>
        <time>2026-05-06T15:44:46.000Z</time>
      </trkpt>
      <trkpt lat="41.825393" lon="22.989259">
        <ele>1166.2</ele>
        <time>2026-05-06T15:44:47.000Z</time>
      </trkpt>
      <trkpt lat="41.825404" lon="22.989258">
        <ele>1165.7</ele>
        <time>2026-05-06T15:44:48.000Z</time>
      </trkpt>
      <trkpt lat="41.825414" lon="22.989257">
        <ele>1165.7</ele>
        <time>2026-05-06T15:44:49.000Z</time>
      </trkpt>
      <trkpt lat="41.825425" lon="22.989258">
        <ele>1165.7</ele>
        <time>2026-05-06T15:44:50.000Z</time>
      </trkpt>
      <trkpt lat="41.825436" lon="22.989258">
        <ele>1165.7</ele>
        <time>2026-05-06T15:44:51.000Z</time>
      </trkpt>
      <trkpt lat="41.825447" lon="22.98926">
        <ele>1165.7</ele>
        <time>2026-05-06T15:44:52.000Z</time>
      </trkpt>
      <trkpt lat="41.82546" lon="22.989262">
        <ele>1165</ele>
        <time>2026-05-06T15:44:53.000Z</time>
      </trkpt>
      <trkpt lat="41.825473" lon="22.989264">
        <ele>1165</ele>
        <time>2026-05-06T15:44:54.000Z</time>
      </trkpt>
      <trkpt lat="41.825487" lon="22.989266">
        <ele>1165</ele>
        <time>2026-05-06T15:44:55.000Z</time>
      </trkpt>
      <trkpt lat="41.825502" lon="22.989268">
        <ele>1165</ele>
        <time>2026-05-06T15:44:56.000Z</time>
      </trkpt>
      <trkpt lat="41.825516" lon="22.989268">
        <ele>1165</ele>
        <time>2026-05-06T15:44:57.000Z</time>
      </trkpt>
      <trkpt lat="41.82553" lon="22.989267">
        <ele>1164.6</ele>
        <time>2026-05-06T15:44:58.000Z</time>
      </trkpt>
      <trkpt lat="41.825544" lon="22.989267">
        <ele>1164.6</ele>
        <time>2026-05-06T15:44:59.000Z</time>
      </trkpt>
      <trkpt lat="41.825557" lon="22.989267">
        <ele>1164.6</ele>
        <time>2026-05-06T15:45:00.000Z</time>
      </trkpt>
      <trkpt lat="41.82557" lon="22.989266">
        <ele>1164.6</ele>
        <time>2026-05-06T15:45:01.000Z</time>
      </trkpt>
      <trkpt lat="41.825583" lon="22.989266">
        <ele>1164.6</ele>
        <time>2026-05-06T15:45:02.000Z</time>
      </trkpt>
      <trkpt lat="41.825596" lon="22.989265">
        <ele>1163.6</ele>
        <time>2026-05-06T15:45:03.000Z</time>
      </trkpt>
      <trkpt lat="41.825609" lon="22.989264">
        <ele>1163.6</ele>
        <time>2026-05-06T15:45:04.000Z</time>
      </trkpt>
      <trkpt lat="41.825621" lon="22.989263">
        <ele>1163.6</ele>
        <time>2026-05-06T15:45:05.000Z</time>
      </trkpt>
      <trkpt lat="41.825632" lon="22.989262">
        <ele>1163.6</ele>
        <time>2026-05-06T15:45:06.000Z</time>
      </trkpt>
      <trkpt lat="41.82564" lon="22.989263">
        <ele>1163.6</ele>
        <time>2026-05-06T15:45:07.000Z</time>
      </trkpt>
      <trkpt lat="41.825647" lon="22.989264">
        <ele>1162.6</ele>
        <time>2026-05-06T15:45:08.000Z</time>
      </trkpt>
      <trkpt lat="41.825651" lon="22.989264">
        <ele>1162.6</ele>
        <time>2026-05-06T15:45:09.000Z</time>
      </trkpt>
      <trkpt lat="41.825653" lon="22.989264">
        <ele>1162.6</ele>
        <time>2026-05-06T15:45:10.000Z</time>
      </trkpt>
      <trkpt lat="41.825654" lon="22.989263">
        <ele>1162.6</ele>
        <time>2026-05-06T15:45:11.000Z</time>
      </trkpt>
      <trkpt lat="41.825656" lon="22.989262">
        <ele>1162.6</ele>
        <time>2026-05-06T15:45:12.000Z</time>
      </trkpt>
      <trkpt lat="41.825657" lon="22.98926">
        <ele>1162.1</ele>
        <time>2026-05-06T15:45:13.000Z</time>
      </trkpt>
      <trkpt lat="41.825657" lon="22.989259">
        <ele>1162.1</ele>
        <time>2026-05-06T15:45:14.000Z</time>
      </trkpt>
      <trkpt lat="41.825658" lon="22.989259">
        <ele>1162.1</ele>
        <time>2026-05-06T15:45:15.000Z</time>
      </trkpt>
      <trkpt lat="41.825658" lon="22.989258">
        <ele>1162.1</ele>
        <time>2026-05-06T15:45:16.000Z</time>
      </trkpt>
      <trkpt lat="41.825658" lon="22.989258">
        <ele>1162.1</ele>
        <time>2026-05-06T15:45:17.000Z</time>
      </trkpt>
      <trkpt lat="41.825658" lon="22.989258">
        <ele>1161.3</ele>
        <time>2026-05-06T15:45:18.000Z</time>
      </trkpt>
      <trkpt lat="41.825658" lon="22.989258">
        <ele>1161.3</ele>
        <time>2026-05-06T15:45:19.000Z</time>
      </trkpt>
      <trkpt lat="41.825658" lon="22.989258">
        <ele>1161.3</ele>
        <time>2026-05-06T15:45:20.000Z</time>
      </trkpt>
      <trkpt lat="41.825658" lon="22.989258">
        <ele>1161.3</ele>
        <time>2026-05-06T15:45:21.000Z</time>
      </trkpt>
      <trkpt lat="41.825658" lon="22.989258">
        <ele>1161.3</ele>
        <time>2026-05-06T15:45:22.000Z</time>
      </trkpt>
      <trkpt lat="41.825658" lon="22.989258">
        <ele>1161</ele>
        <time>2026-05-06T15:45:23.000Z</time>
      </trkpt>
      <trkpt lat="41.825658" lon="22.989257">
        <ele>1161</ele>
        <time>2026-05-06T15:45:24.000Z</time>
      </trkpt>
      <trkpt lat="41.82566" lon="22.989257">
        <ele>1161</ele>
        <time>2026-05-06T15:45:25.000Z</time>
      </trkpt>
      <trkpt lat="41.825665" lon="22.989257">
        <ele>1161</ele>
        <time>2026-05-06T15:45:26.000Z</time>
      </trkpt>
      <trkpt lat="41.825671" lon="22.989257">
        <ele>1161</ele>
        <time>2026-05-06T15:45:27.000Z</time>
      </trkpt>
      <trkpt lat="41.82568" lon="22.989259">
        <ele>1161</ele>
        <time>2026-05-06T15:45:28.000Z</time>
      </trkpt>
      <trkpt lat="41.82569" lon="22.989262">
        <ele>1161</ele>
        <time>2026-05-06T15:45:29.000Z</time>
      </trkpt>
      <trkpt lat="41.825701" lon="22.989266">
        <ele>1161</ele>
        <time>2026-05-06T15:45:30.000Z</time>
      </trkpt>
      <trkpt lat="41.825712" lon="22.989271">
        <ele>1161</ele>
        <time>2026-05-06T15:45:31.000Z</time>
      </trkpt>
      <trkpt lat="41.825724" lon="22.989276">
        <ele>1161</ele>
        <time>2026-05-06T15:45:32.000Z</time>
      </trkpt>
      <trkpt lat="41.825735" lon="22.989282">
        <ele>1161.2</ele>
        <time>2026-05-06T15:45:33.000Z</time>
      </trkpt>
      <trkpt lat="41.825746" lon="22.989287">
        <ele>1161.2</ele>
        <time>2026-05-06T15:45:34.000Z</time>
      </trkpt>
      <trkpt lat="41.825759" lon="22.98929">
        <ele>1161.2</ele>
        <time>2026-05-06T15:45:35.000Z</time>
      </trkpt>
      <trkpt lat="41.825771" lon="22.989293">
        <ele>1161.2</ele>
        <time>2026-05-06T15:45:36.000Z</time>
      </trkpt>
      <trkpt lat="41.825783" lon="22.989295">
        <ele>1161.2</ele>
        <time>2026-05-06T15:45:37.000Z</time>
      </trkpt>
      <trkpt lat="41.825794" lon="22.989296">
        <ele>1161.2</ele>
        <time>2026-05-06T15:45:38.000Z</time>
      </trkpt>
      <trkpt lat="41.825805" lon="22.989297">
        <ele>1161.2</ele>
        <time>2026-05-06T15:45:39.000Z</time>
      </trkpt>
      <trkpt lat="41.825816" lon="22.989298">
        <ele>1161.2</ele>
        <time>2026-05-06T15:45:40.000Z</time>
      </trkpt>
      <trkpt lat="41.825827" lon="22.989299">
        <ele>1161.2</ele>
        <time>2026-05-06T15:45:41.000Z</time>
      </trkpt>
      <trkpt lat="41.825838" lon="22.989299">
        <ele>1161.2</ele>
        <time>2026-05-06T15:45:42.000Z</time>
      </trkpt>
      <trkpt lat="41.82585" lon="22.989299">
        <ele>1161.2</ele>
        <time>2026-05-06T15:45:43.000Z</time>
      </trkpt>
      <trkpt lat="41.825863" lon="22.989299">
        <ele>1161.2</ele>
        <time>2026-05-06T15:45:44.000Z</time>
      </trkpt>
      <trkpt lat="41.825876" lon="22.989298">
        <ele>1161.2</ele>
        <time>2026-05-06T15:45:45.000Z</time>
      </trkpt>
      <trkpt lat="41.825888" lon="22.989299">
        <ele>1161.2</ele>
        <time>2026-05-06T15:45:46.000Z</time>
      </trkpt>
      <trkpt lat="41.8259" lon="22.989299">
        <ele>1161.2</ele>
        <time>2026-05-06T15:45:47.000Z</time>
      </trkpt>
      <trkpt lat="41.825911" lon="22.989298">
        <ele>1161</ele>
        <time>2026-05-06T15:45:48.000Z</time>
      </trkpt>
      <trkpt lat="41.825922" lon="22.989298">
        <ele>1161</ele>
        <time>2026-05-06T15:45:49.000Z</time>
      </trkpt>
      <trkpt lat="41.825932" lon="22.989299">
        <ele>1161</ele>
        <time>2026-05-06T15:45:50.000Z</time>
      </trkpt>
      <trkpt lat="41.825942" lon="22.989298">
        <ele>1161</ele>
        <time>2026-05-06T15:45:51.000Z</time>
      </trkpt>
      <trkpt lat="41.825953" lon="22.989297">
        <ele>1161</ele>
        <time>2026-05-06T15:45:52.000Z</time>
      </trkpt>
      <trkpt lat="41.825966" lon="22.989297">
        <ele>1160.9</ele>
        <time>2026-05-06T15:45:53.000Z</time>
      </trkpt>
      <trkpt lat="41.825979" lon="22.989295">
        <ele>1160.9</ele>
        <time>2026-05-06T15:45:54.000Z</time>
      </trkpt>
      <trkpt lat="41.825991" lon="22.989294">
        <ele>1160.9</ele>
        <time>2026-05-06T15:45:55.000Z</time>
      </trkpt>
      <trkpt lat="41.826004" lon="22.989292">
        <ele>1160.9</ele>
        <time>2026-05-06T15:45:56.000Z</time>
      </trkpt>
      <trkpt lat="41.826015" lon="22.989292">
        <ele>1160.9</ele>
        <time>2026-05-06T15:45:57.000Z</time>
      </trkpt>
      <trkpt lat="41.826026" lon="22.989291">
        <ele>1160.9</ele>
        <time>2026-05-06T15:45:58.000Z</time>
      </trkpt>
      <trkpt lat="41.826037" lon="22.98929">
        <ele>1160.9</ele>
        <time>2026-05-06T15:45:59.000Z</time>
      </trkpt>
      <trkpt lat="41.826049" lon="22.989289">
        <ele>1160.9</ele>
        <time>2026-05-06T15:46:00.000Z</time>
      </trkpt>
      <trkpt lat="41.82606" lon="22.989287">
        <ele>1160.9</ele>
        <time>2026-05-06T15:46:01.000Z</time>
      </trkpt>
      <trkpt lat="41.826071" lon="22.989283">
        <ele>1160.9</ele>
        <time>2026-05-06T15:46:02.000Z</time>
      </trkpt>
      <trkpt lat="41.826083" lon="22.989279">
        <ele>1160.7</ele>
        <time>2026-05-06T15:46:03.000Z</time>
      </trkpt>
      <trkpt lat="41.826093" lon="22.989274">
        <ele>1160.7</ele>
        <time>2026-05-06T15:46:04.000Z</time>
      </trkpt>
      <trkpt lat="41.826103" lon="22.989268">
        <ele>1160.7</ele>
        <time>2026-05-06T15:46:05.000Z</time>
      </trkpt>
      <trkpt lat="41.826112" lon="22.989259">
        <ele>1160.7</ele>
        <time>2026-05-06T15:46:06.000Z</time>
      </trkpt>
      <trkpt lat="41.826123" lon="22.98925">
        <ele>1160.7</ele>
        <time>2026-05-06T15:46:07.000Z</time>
      </trkpt>
      <trkpt lat="41.826132" lon="22.989239">
        <ele>1160.6</ele>
        <time>2026-05-06T15:46:08.000Z</time>
      </trkpt>
      <trkpt lat="41.826143" lon="22.989229">
        <ele>1160.6</ele>
        <time>2026-05-06T15:46:09.000Z</time>
      </trkpt>
      <trkpt lat="41.826153" lon="22.989221">
        <ele>1160.6</ele>
        <time>2026-05-06T15:46:10.000Z</time>
      </trkpt>
      <trkpt lat="41.826165" lon="22.989214">
        <ele>1160.6</ele>
        <time>2026-05-06T15:46:11.000Z</time>
      </trkpt>
      <trkpt lat="41.826178" lon="22.989208">
        <ele>1160.6</ele>
        <time>2026-05-06T15:46:12.000Z</time>
      </trkpt>
      <trkpt lat="41.826193" lon="22.989204">
        <ele>1160.7</ele>
        <time>2026-05-06T15:46:13.000Z</time>
      </trkpt>
      <trkpt lat="41.826207" lon="22.989201">
        <ele>1160.7</ele>
        <time>2026-05-06T15:46:14.000Z</time>
      </trkpt>
      <trkpt lat="41.826221" lon="22.989197">
        <ele>1160.7</ele>
        <time>2026-05-06T15:46:15.000Z</time>
      </trkpt>
      <trkpt lat="41.826234" lon="22.989195">
        <ele>1160.7</ele>
        <time>2026-05-06T15:46:16.000Z</time>
      </trkpt>
      <trkpt lat="41.826245" lon="22.989194">
        <ele>1160.7</ele>
        <time>2026-05-06T15:46:17.000Z</time>
      </trkpt>
      <trkpt lat="41.826256" lon="22.989192">
        <ele>1160.6</ele>
        <time>2026-05-06T15:46:18.000Z</time>
      </trkpt>
      <trkpt lat="41.826265" lon="22.98919">
        <ele>1160.6</ele>
        <time>2026-05-06T15:46:19.000Z</time>
      </trkpt>
      <trkpt lat="41.826275" lon="22.989186">
        <ele>1160.6</ele>
        <time>2026-05-06T15:46:20.000Z</time>
      </trkpt>
      <trkpt lat="41.826286" lon="22.989182">
        <ele>1160.6</ele>
        <time>2026-05-06T15:46:21.000Z</time>
      </trkpt>
      <trkpt lat="41.826296" lon="22.989177">
        <ele>1160.6</ele>
        <time>2026-05-06T15:46:22.000Z</time>
      </trkpt>
      <trkpt lat="41.826305" lon="22.989171">
        <ele>1160.8</ele>
        <time>2026-05-06T15:46:23.000Z</time>
      </trkpt>
      <trkpt lat="41.826315" lon="22.989165">
        <ele>1160.8</ele>
        <time>2026-05-06T15:46:24.000Z</time>
      </trkpt>
      <trkpt lat="41.826324" lon="22.989161">
        <ele>1160.8</ele>
        <time>2026-05-06T15:46:25.000Z</time>
      </trkpt>
      <trkpt lat="41.826333" lon="22.989156">
        <ele>1160.8</ele>
        <time>2026-05-06T15:46:26.000Z</time>
      </trkpt>
      <trkpt lat="41.826341" lon="22.989151">
        <ele>1160.8</ele>
        <time>2026-05-06T15:46:27.000Z</time>
      </trkpt>
      <trkpt lat="41.826351" lon="22.989146">
        <ele>1160.9</ele>
        <time>2026-05-06T15:46:28.000Z</time>
      </trkpt>
      <trkpt lat="41.826361" lon="22.98914">
        <ele>1160.9</ele>
        <time>2026-05-06T15:46:29.000Z</time>
      </trkpt>
      <trkpt lat="41.82637" lon="22.989133">
        <ele>1160.9</ele>
        <time>2026-05-06T15:46:30.000Z</time>
      </trkpt>
      <trkpt lat="41.826379" lon="22.989126">
        <ele>1160.9</ele>
        <time>2026-05-06T15:46:31.000Z</time>
      </trkpt>
      <trkpt lat="41.826389" lon="22.989119">
        <ele>1160.9</ele>
        <time>2026-05-06T15:46:32.000Z</time>
      </trkpt>
      <trkpt lat="41.826399" lon="22.989112">
        <ele>1161.3</ele>
        <time>2026-05-06T15:46:33.000Z</time>
      </trkpt>
      <trkpt lat="41.826408" lon="22.989106">
        <ele>1161.3</ele>
        <time>2026-05-06T15:46:34.000Z</time>
      </trkpt>
      <trkpt lat="41.826417" lon="22.9891">
        <ele>1161.3</ele>
        <time>2026-05-06T15:46:35.000Z</time>
      </trkpt>
      <trkpt lat="41.826426" lon="22.989093">
        <ele>1161.3</ele>
        <time>2026-05-06T15:46:36.000Z</time>
      </trkpt>
      <trkpt lat="41.826437" lon="22.989085">
        <ele>1161.3</ele>
        <time>2026-05-06T15:46:37.000Z</time>
      </trkpt>
      <trkpt lat="41.826446" lon="22.989078">
        <ele>1161.8</ele>
        <time>2026-05-06T15:46:38.000Z</time>
      </trkpt>
      <trkpt lat="41.826455" lon="22.989072">
        <ele>1161.8</ele>
        <time>2026-05-06T15:46:39.000Z</time>
      </trkpt>
      <trkpt lat="41.826462" lon="22.989069">
        <ele>1161.8</ele>
        <time>2026-05-06T15:46:40.000Z</time>
      </trkpt>
      <trkpt lat="41.826469" lon="22.98907">
        <ele>1161.8</ele>
        <time>2026-05-06T15:46:41.000Z</time>
      </trkpt>
      <trkpt lat="41.826473" lon="22.989076">
        <ele>1161.8</ele>
        <time>2026-05-06T15:46:42.000Z</time>
      </trkpt>
      <trkpt lat="41.826477" lon="22.989086">
        <ele>1162.1</ele>
        <time>2026-05-06T15:46:43.000Z</time>
      </trkpt>
      <trkpt lat="41.82648" lon="22.989097">
        <ele>1162.1</ele>
        <time>2026-05-06T15:46:44.000Z</time>
      </trkpt>
      <trkpt lat="41.826486" lon="22.989108">
        <ele>1162.1</ele>
        <time>2026-05-06T15:46:45.000Z</time>
      </trkpt>
      <trkpt lat="41.826493" lon="22.989117">
        <ele>1162.1</ele>
        <time>2026-05-06T15:46:46.000Z</time>
      </trkpt>
      <trkpt lat="41.826501" lon="22.989124">
        <ele>1162.1</ele>
        <time>2026-05-06T15:46:47.000Z</time>
      </trkpt>
      <trkpt lat="41.826511" lon="22.989128">
        <ele>1162.7</ele>
        <time>2026-05-06T15:46:48.000Z</time>
      </trkpt>
      <trkpt lat="41.826522" lon="22.98913">
        <ele>1162.7</ele>
        <time>2026-05-06T15:46:49.000Z</time>
      </trkpt>
      <trkpt lat="41.826534" lon="22.989131">
        <ele>1162.7</ele>
        <time>2026-05-06T15:46:50.000Z</time>
      </trkpt>
      <trkpt lat="41.826546" lon="22.98913">
        <ele>1162.7</ele>
        <time>2026-05-06T15:46:51.000Z</time>
      </trkpt>
      <trkpt lat="41.826559" lon="22.989129">
        <ele>1162.7</ele>
        <time>2026-05-06T15:46:52.000Z</time>
      </trkpt>
      <trkpt lat="41.826571" lon="22.989127">
        <ele>1163.2</ele>
        <time>2026-05-06T15:46:53.000Z</time>
      </trkpt>
      <trkpt lat="41.826584" lon="22.989126">
        <ele>1163.2</ele>
        <time>2026-05-06T15:46:54.000Z</time>
      </trkpt>
      <trkpt lat="41.826596" lon="22.989124">
        <ele>1163.2</ele>
        <time>2026-05-06T15:46:55.000Z</time>
      </trkpt>
      <trkpt lat="41.826607" lon="22.989123">
        <ele>1163.2</ele>
        <time>2026-05-06T15:46:56.000Z</time>
      </trkpt>
      <trkpt lat="41.826619" lon="22.989122">
        <ele>1163.2</ele>
        <time>2026-05-06T15:46:57.000Z</time>
      </trkpt>
      <trkpt lat="41.826632" lon="22.989122">
        <ele>1163.4</ele>
        <time>2026-05-06T15:46:58.000Z</time>
      </trkpt>
      <trkpt lat="41.826644" lon="22.98912">
        <ele>1163.4</ele>
        <time>2026-05-06T15:46:59.000Z</time>
      </trkpt>
      <trkpt lat="41.826655" lon="22.989118">
        <ele>1163.4</ele>
        <time>2026-05-06T15:47:00.000Z</time>
      </trkpt>
      <trkpt lat="41.826666" lon="22.989117">
        <ele>1163.4</ele>
        <time>2026-05-06T15:47:01.000Z</time>
      </trkpt>
      <trkpt lat="41.826676" lon="22.989114">
        <ele>1163.4</ele>
        <time>2026-05-06T15:47:02.000Z</time>
      </trkpt>
      <trkpt lat="41.826686" lon="22.989111">
        <ele>1163.7</ele>
        <time>2026-05-06T15:47:03.000Z</time>
      </trkpt>
      <trkpt lat="41.826696" lon="22.989107">
        <ele>1163.7</ele>
        <time>2026-05-06T15:47:04.000Z</time>
      </trkpt>
      <trkpt lat="41.826707" lon="22.989104">
        <ele>1163.7</ele>
        <time>2026-05-06T15:47:05.000Z</time>
      </trkpt>
      <trkpt lat="41.826718" lon="22.989101">
        <ele>1163.7</ele>
        <time>2026-05-06T15:47:06.000Z</time>
      </trkpt>
      <trkpt lat="41.826729" lon="22.989097">
        <ele>1163.7</ele>
        <time>2026-05-06T15:47:07.000Z</time>
      </trkpt>
      <trkpt lat="41.826739" lon="22.989093">
        <ele>1164.4</ele>
        <time>2026-05-06T15:47:08.000Z</time>
      </trkpt>
      <trkpt lat="41.826751" lon="22.989088">
        <ele>1164.4</ele>
        <time>2026-05-06T15:47:09.000Z</time>
      </trkpt>
      <trkpt lat="41.826761" lon="22.989083">
        <ele>1164.4</ele>
        <time>2026-05-06T15:47:10.000Z</time>
      </trkpt>
      <trkpt lat="41.826772" lon="22.989077">
        <ele>1164.4</ele>
        <time>2026-05-06T15:47:11.000Z</time>
      </trkpt>
      <trkpt lat="41.826783" lon="22.989071">
        <ele>1164.4</ele>
        <time>2026-05-06T15:47:12.000Z</time>
      </trkpt>
      <trkpt lat="41.826793" lon="22.989067">
        <ele>1164.8</ele>
        <time>2026-05-06T15:47:13.000Z</time>
      </trkpt>
      <trkpt lat="41.826801" lon="22.989064">
        <ele>1164.8</ele>
        <time>2026-05-06T15:47:14.000Z</time>
      </trkpt>
      <trkpt lat="41.82681" lon="22.98906">
        <ele>1164.8</ele>
        <time>2026-05-06T15:47:15.000Z</time>
      </trkpt>
      <trkpt lat="41.826819" lon="22.989058">
        <ele>1164.8</ele>
        <time>2026-05-06T15:47:16.000Z</time>
      </trkpt>
      <trkpt lat="41.826828" lon="22.989055">
        <ele>1164.8</ele>
        <time>2026-05-06T15:47:17.000Z</time>
      </trkpt>
      <trkpt lat="41.826839" lon="22.989051">
        <ele>1165.6</ele>
        <time>2026-05-06T15:47:18.000Z</time>
      </trkpt>
      <trkpt lat="41.82685" lon="22.989047">
        <ele>1165.6</ele>
        <time>2026-05-06T15:47:19.000Z</time>
      </trkpt>
      <trkpt lat="41.826862" lon="22.989044">
        <ele>1165.6</ele>
        <time>2026-05-06T15:47:20.000Z</time>
      </trkpt>
      <trkpt lat="41.826873" lon="22.989041">
        <ele>1165.6</ele>
        <time>2026-05-06T15:47:21.000Z</time>
      </trkpt>
      <trkpt lat="41.826884" lon="22.989039">
        <ele>1165.6</ele>
        <time>2026-05-06T15:47:22.000Z</time>
      </trkpt>
      <trkpt lat="41.826895" lon="22.989038">
        <ele>1166.3</ele>
        <time>2026-05-06T15:47:23.000Z</time>
      </trkpt>
      <trkpt lat="41.826906" lon="22.989037">
        <ele>1166.3</ele>
        <time>2026-05-06T15:47:24.000Z</time>
      </trkpt>
      <trkpt lat="41.826918" lon="22.989036">
        <ele>1166.3</ele>
        <time>2026-05-06T15:47:25.000Z</time>
      </trkpt>
      <trkpt lat="41.82693" lon="22.989035">
        <ele>1166.3</ele>
        <time>2026-05-06T15:47:26.000Z</time>
      </trkpt>
      <trkpt lat="41.826941" lon="22.989034">
        <ele>1166.3</ele>
        <time>2026-05-06T15:47:27.000Z</time>
      </trkpt>
      <trkpt lat="41.826951" lon="22.989033">
        <ele>1166.6</ele>
        <time>2026-05-06T15:47:28.000Z</time>
      </trkpt>
      <trkpt lat="41.826961" lon="22.989032">
        <ele>1166.6</ele>
        <time>2026-05-06T15:47:29.000Z</time>
      </trkpt>
      <trkpt lat="41.826972" lon="22.98903">
        <ele>1166.6</ele>
        <time>2026-05-06T15:47:30.000Z</time>
      </trkpt>
      <trkpt lat="41.826982" lon="22.989028">
        <ele>1166.6</ele>
        <time>2026-05-06T15:47:31.000Z</time>
      </trkpt>
      <trkpt lat="41.826991" lon="22.989027">
        <ele>1166.6</ele>
        <time>2026-05-06T15:47:32.000Z</time>
      </trkpt>
      <trkpt lat="41.827" lon="22.989026">
        <ele>1167.1</ele>
        <time>2026-05-06T15:47:33.000Z</time>
      </trkpt>
      <trkpt lat="41.827009" lon="22.989024">
        <ele>1167.1</ele>
        <time>2026-05-06T15:47:34.000Z</time>
      </trkpt>
      <trkpt lat="41.827016" lon="22.989022">
        <ele>1167.1</ele>
        <time>2026-05-06T15:47:35.000Z</time>
      </trkpt>
      <trkpt lat="41.827024" lon="22.98902">
        <ele>1167.1</ele>
        <time>2026-05-06T15:47:36.000Z</time>
      </trkpt>
      <trkpt lat="41.827033" lon="22.989017">
        <ele>1167.1</ele>
        <time>2026-05-06T15:47:37.000Z</time>
      </trkpt>
      <trkpt lat="41.827044" lon="22.989014">
        <ele>1167.5</ele>
        <time>2026-05-06T15:47:38.000Z</time>
      </trkpt>
      <trkpt lat="41.827055" lon="22.989011">
        <ele>1167.5</ele>
        <time>2026-05-06T15:47:39.000Z</time>
      </trkpt>
      <trkpt lat="41.827066" lon="22.989009">
        <ele>1167.5</ele>
        <time>2026-05-06T15:47:40.000Z</time>
      </trkpt>
      <trkpt lat="41.827077" lon="22.989007">
        <ele>1167.5</ele>
        <time>2026-05-06T15:47:41.000Z</time>
      </trkpt>
      <trkpt lat="41.827088" lon="22.989006">
        <ele>1167.5</ele>
        <time>2026-05-06T15:47:42.000Z</time>
      </trkpt>
      <trkpt lat="41.827099" lon="22.989004">
        <ele>1167.8</ele>
        <time>2026-05-06T15:47:43.000Z</time>
      </trkpt>
      <trkpt lat="41.827109" lon="22.989003">
        <ele>1167.8</ele>
        <time>2026-05-06T15:47:44.000Z</time>
      </trkpt>
      <trkpt lat="41.82712" lon="22.989002">
        <ele>1167.8</ele>
        <time>2026-05-06T15:47:45.000Z</time>
      </trkpt>
      <trkpt lat="41.827131" lon="22.989001">
        <ele>1167.8</ele>
        <time>2026-05-06T15:47:46.000Z</time>
      </trkpt>
      <trkpt lat="41.82714" lon="22.988997">
        <ele>1167.8</ele>
        <time>2026-05-06T15:47:47.000Z</time>
      </trkpt>
      <trkpt lat="41.82715" lon="22.988993">
        <ele>1168.2</ele>
        <time>2026-05-06T15:47:48.000Z</time>
      </trkpt>
      <trkpt lat="41.827161" lon="22.988988">
        <ele>1168.2</ele>
        <time>2026-05-06T15:47:49.000Z</time>
      </trkpt>
      <trkpt lat="41.827171" lon="22.988983">
        <ele>1168.2</ele>
        <time>2026-05-06T15:47:50.000Z</time>
      </trkpt>
      <trkpt lat="41.827181" lon="22.988978">
        <ele>1168.2</ele>
        <time>2026-05-06T15:47:51.000Z</time>
      </trkpt>
      <trkpt lat="41.827191" lon="22.988976">
        <ele>1168.2</ele>
        <time>2026-05-06T15:47:52.000Z</time>
      </trkpt>
      <trkpt lat="41.827201" lon="22.988976">
        <ele>1168.6</ele>
        <time>2026-05-06T15:47:53.000Z</time>
      </trkpt>
      <trkpt lat="41.827209" lon="22.988976">
        <ele>1168.6</ele>
        <time>2026-05-06T15:47:54.000Z</time>
      </trkpt>
      <trkpt lat="41.827214" lon="22.988977">
        <ele>1168.6</ele>
        <time>2026-05-06T15:47:55.000Z</time>
      </trkpt>
      <trkpt lat="41.827217" lon="22.988979">
        <ele>1168.6</ele>
        <time>2026-05-06T15:47:56.000Z</time>
      </trkpt>
      <trkpt lat="41.827219" lon="22.98898">
        <ele>1168.6</ele>
        <time>2026-05-06T15:47:57.000Z</time>
      </trkpt>
      <trkpt lat="41.827219" lon="22.98898">
        <ele>1168.8</ele>
        <time>2026-05-06T15:47:58.000Z</time>
      </trkpt>
      <trkpt lat="41.827219" lon="22.98898">
        <ele>1168.8</ele>
        <time>2026-05-06T15:47:59.000Z</time>
      </trkpt>
      <trkpt lat="41.827219" lon="22.98898">
        <ele>1168.8</ele>
        <time>2026-05-06T15:48:00.000Z</time>
      </trkpt>
      <trkpt lat="41.82722" lon="22.98898">
        <ele>1168.8</ele>
        <time>2026-05-06T15:48:01.000Z</time>
      </trkpt>
      <trkpt lat="41.82722" lon="22.98898">
        <ele>1168.8</ele>
        <time>2026-05-06T15:48:02.000Z</time>
      </trkpt>
      <trkpt lat="41.827221" lon="22.98898">
        <ele>1169.3</ele>
        <time>2026-05-06T15:48:03.000Z</time>
      </trkpt>
      <trkpt lat="41.827223" lon="22.988979">
        <ele>1169.3</ele>
        <time>2026-05-06T15:48:04.000Z</time>
      </trkpt>
      <trkpt lat="41.827224" lon="22.988979">
        <ele>1169.3</ele>
        <time>2026-05-06T15:48:05.000Z</time>
      </trkpt>
      <trkpt lat="41.827228" lon="22.988978">
        <ele>1169.3</ele>
        <time>2026-05-06T15:48:06.000Z</time>
      </trkpt>
      <trkpt lat="41.827232" lon="22.988978">
        <ele>1169.3</ele>
        <time>2026-05-06T15:48:07.000Z</time>
      </trkpt>
      <trkpt lat="41.827238" lon="22.988977">
        <ele>1169.8</ele>
        <time>2026-05-06T15:48:08.000Z</time>
      </trkpt>
      <trkpt lat="41.827245" lon="22.988976">
        <ele>1169.8</ele>
        <time>2026-05-06T15:48:09.000Z</time>
      </trkpt>
      <trkpt lat="41.827252" lon="22.988975">
        <ele>1169.8</ele>
        <time>2026-05-06T15:48:10.000Z</time>
      </trkpt>
      <trkpt lat="41.827261" lon="22.988974">
        <ele>1169.8</ele>
        <time>2026-05-06T15:48:11.000Z</time>
      </trkpt>
      <trkpt lat="41.827269" lon="22.988973">
        <ele>1169.8</ele>
        <time>2026-05-06T15:48:12.000Z</time>
      </trkpt>
      <trkpt lat="41.827278" lon="22.988971">
        <ele>1170</ele>
        <time>2026-05-06T15:48:13.000Z</time>
      </trkpt>
      <trkpt lat="41.827289" lon="22.988969">
        <ele>1170</ele>
        <time>2026-05-06T15:48:14.000Z</time>
      </trkpt>
      <trkpt lat="41.827299" lon="22.988966">
        <ele>1170</ele>
        <time>2026-05-06T15:48:15.000Z</time>
      </trkpt>
      <trkpt lat="41.827309" lon="22.988962">
        <ele>1170</ele>
        <time>2026-05-06T15:48:16.000Z</time>
      </trkpt>
      <trkpt lat="41.827319" lon="22.988957">
        <ele>1170</ele>
        <time>2026-05-06T15:48:17.000Z</time>
      </trkpt>
      <trkpt lat="41.82733" lon="22.988951">
        <ele>1170</ele>
        <time>2026-05-06T15:48:18.000Z</time>
      </trkpt>
      <trkpt lat="41.827341" lon="22.988945">
        <ele>1170</ele>
        <time>2026-05-06T15:48:19.000Z</time>
      </trkpt>
      <trkpt lat="41.827352" lon="22.988942">
        <ele>1170</ele>
        <time>2026-05-06T15:48:20.000Z</time>
      </trkpt>
      <trkpt lat="41.827361" lon="22.988939">
        <ele>1170</ele>
        <time>2026-05-06T15:48:21.000Z</time>
      </trkpt>
      <trkpt lat="41.827369" lon="22.988936">
        <ele>1170</ele>
        <time>2026-05-06T15:48:22.000Z</time>
      </trkpt>
      <trkpt lat="41.827375" lon="22.988934">
        <ele>1170.1</ele>
        <time>2026-05-06T15:48:23.000Z</time>
      </trkpt>
      <trkpt lat="41.82738" lon="22.988933">
        <ele>1170.1</ele>
        <time>2026-05-06T15:48:24.000Z</time>
      </trkpt>
      <trkpt lat="41.827385" lon="22.988931">
        <ele>1170.1</ele>
        <time>2026-05-06T15:48:25.000Z</time>
      </trkpt>
      <trkpt lat="41.82739" lon="22.988928">
        <ele>1170.1</ele>
        <time>2026-05-06T15:48:26.000Z</time>
      </trkpt>
      <trkpt lat="41.827396" lon="22.988925">
        <ele>1170.1</ele>
        <time>2026-05-06T15:48:27.000Z</time>
      </trkpt>
      <trkpt lat="41.827403" lon="22.988922">
        <ele>1170.4</ele>
        <time>2026-05-06T15:48:28.000Z</time>
      </trkpt>
      <trkpt lat="41.82741" lon="22.988918">
        <ele>1170.4</ele>
        <time>2026-05-06T15:48:29.000Z</time>
      </trkpt>
      <trkpt lat="41.827417" lon="22.988914">
        <ele>1170.4</ele>
        <time>2026-05-06T15:48:30.000Z</time>
      </trkpt>
      <trkpt lat="41.827425" lon="22.988908">
        <ele>1170.4</ele>
        <time>2026-05-06T15:48:31.000Z</time>
      </trkpt>
      <trkpt lat="41.827435" lon="22.988903">
        <ele>1170.4</ele>
        <time>2026-05-06T15:48:32.000Z</time>
      </trkpt>
      <trkpt lat="41.827444" lon="22.988897">
        <ele>1171.2</ele>
        <time>2026-05-06T15:48:33.000Z</time>
      </trkpt>
      <trkpt lat="41.827454" lon="22.988891">
        <ele>1171.2</ele>
        <time>2026-05-06T15:48:34.000Z</time>
      </trkpt>
      <trkpt lat="41.827464" lon="22.988884">
        <ele>1171.2</ele>
        <time>2026-05-06T15:48:35.000Z</time>
      </trkpt>
      <trkpt lat="41.827475" lon="22.988878">
        <ele>1171.2</ele>
        <time>2026-05-06T15:48:36.000Z</time>
      </trkpt>
      <trkpt lat="41.827486" lon="22.988872">
        <ele>1171.2</ele>
        <time>2026-05-06T15:48:37.000Z</time>
      </trkpt>
      <trkpt lat="41.827497" lon="22.988867">
        <ele>1171.8</ele>
        <time>2026-05-06T15:48:38.000Z</time>
      </trkpt>
      <trkpt lat="41.827507" lon="22.988862">
        <ele>1171.8</ele>
        <time>2026-05-06T15:48:39.000Z</time>
      </trkpt>
      <trkpt lat="41.827518" lon="22.988858">
        <ele>1171.8</ele>
        <time>2026-05-06T15:48:40.000Z</time>
      </trkpt>
      <trkpt lat="41.827529" lon="22.988853">
        <ele>1171.8</ele>
        <time>2026-05-06T15:48:41.000Z</time>
      </trkpt>
      <trkpt lat="41.827539" lon="22.988848">
        <ele>1171.8</ele>
        <time>2026-05-06T15:48:42.000Z</time>
      </trkpt>
      <trkpt lat="41.82755" lon="22.988844">
        <ele>1172.1</ele>
        <time>2026-05-06T15:48:43.000Z</time>
      </trkpt>
      <trkpt lat="41.82756" lon="22.98884">
        <ele>1172.1</ele>
        <time>2026-05-06T15:48:44.000Z</time>
      </trkpt>
      <trkpt lat="41.827572" lon="22.988835">
        <ele>1172.1</ele>
        <time>2026-05-06T15:48:45.000Z</time>
      </trkpt>
      <trkpt lat="41.827582" lon="22.988831">
        <ele>1172.1</ele>
        <time>2026-05-06T15:48:46.000Z</time>
      </trkpt>
      <trkpt lat="41.827594" lon="22.988826">
        <ele>1172.1</ele>
        <time>2026-05-06T15:48:47.000Z</time>
      </trkpt>
      <trkpt lat="41.827606" lon="22.988822">
        <ele>1172.5</ele>
        <time>2026-05-06T15:48:48.000Z</time>
      </trkpt>
      <trkpt lat="41.827617" lon="22.988818">
        <ele>1172.5</ele>
        <time>2026-05-06T15:48:49.000Z</time>
      </trkpt>
      <trkpt lat="41.827628" lon="22.988812">
        <ele>1172.5</ele>
        <time>2026-05-06T15:48:50.000Z</time>
      </trkpt>
      <trkpt lat="41.827637" lon="22.988805">
        <ele>1172.5</ele>
        <time>2026-05-06T15:48:51.000Z</time>
      </trkpt>
      <trkpt lat="41.827646" lon="22.988798">
        <ele>1172.5</ele>
        <time>2026-05-06T15:48:52.000Z</time>
      </trkpt>
      <trkpt lat="41.827656" lon="22.98879">
        <ele>1173.1</ele>
        <time>2026-05-06T15:48:53.000Z</time>
      </trkpt>
      <trkpt lat="41.827665" lon="22.988782">
        <ele>1173.1</ele>
        <time>2026-05-06T15:48:54.000Z</time>
      </trkpt>
      <trkpt lat="41.827674" lon="22.988776">
        <ele>1173.1</ele>
        <time>2026-05-06T15:48:55.000Z</time>
      </trkpt>
      <trkpt lat="41.827683" lon="22.988772">
        <ele>1173.1</ele>
        <time>2026-05-06T15:48:56.000Z</time>
      </trkpt>
      <trkpt lat="41.827693" lon="22.98877">
        <ele>1173.1</ele>
        <time>2026-05-06T15:48:57.000Z</time>
      </trkpt>
      <trkpt lat="41.827703" lon="22.988768">
        <ele>1173.4</ele>
        <time>2026-05-06T15:48:58.000Z</time>
      </trkpt>
      <trkpt lat="41.827713" lon="22.988766">
        <ele>1173.4</ele>
        <time>2026-05-06T15:48:59.000Z</time>
      </trkpt>
      <trkpt lat="41.827723" lon="22.988765">
        <ele>1173.4</ele>
        <time>2026-05-06T15:49:00.000Z</time>
      </trkpt>
      <trkpt lat="41.827734" lon="22.988763">
        <ele>1173.4</ele>
        <time>2026-05-06T15:49:01.000Z</time>
      </trkpt>
      <trkpt lat="41.827745" lon="22.98876">
        <ele>1173.4</ele>
        <time>2026-05-06T15:49:02.000Z</time>
      </trkpt>
      <trkpt lat="41.827755" lon="22.988758">
        <ele>1174.2</ele>
        <time>2026-05-06T15:49:03.000Z</time>
      </trkpt>
      <trkpt lat="41.827765" lon="22.988754">
        <ele>1174.2</ele>
        <time>2026-05-06T15:49:04.000Z</time>
      </trkpt>
      <trkpt lat="41.827775" lon="22.988749">
        <ele>1174.2</ele>
        <time>2026-05-06T15:49:05.000Z</time>
      </trkpt>
      <trkpt lat="41.827786" lon="22.988745">
        <ele>1174.2</ele>
        <time>2026-05-06T15:49:06.000Z</time>
      </trkpt>
      <trkpt lat="41.827797" lon="22.988741">
        <ele>1174.2</ele>
        <time>2026-05-06T15:49:07.000Z</time>
      </trkpt>
      <trkpt lat="41.827808" lon="22.988737">
        <ele>1175.1</ele>
        <time>2026-05-06T15:49:08.000Z</time>
      </trkpt>
      <trkpt lat="41.827819" lon="22.988734">
        <ele>1175.1</ele>
        <time>2026-05-06T15:49:09.000Z</time>
      </trkpt>
      <trkpt lat="41.827831" lon="22.988731">
        <ele>1175.1</ele>
        <time>2026-05-06T15:49:10.000Z</time>
      </trkpt>
      <trkpt lat="41.827841" lon="22.98873">
        <ele>1175.1</ele>
        <time>2026-05-06T15:49:11.000Z</time>
      </trkpt>
      <trkpt lat="41.82785" lon="22.988729">
        <ele>1175.1</ele>
        <time>2026-05-06T15:49:12.000Z</time>
      </trkpt>
      <trkpt lat="41.82786" lon="22.988729">
        <ele>1175.6</ele>
        <time>2026-05-06T15:49:13.000Z</time>
      </trkpt>
      <trkpt lat="41.827868" lon="22.988728">
        <ele>1175.6</ele>
        <time>2026-05-06T15:49:14.000Z</time>
      </trkpt>
      <trkpt lat="41.827876" lon="22.988727">
        <ele>1175.6</ele>
        <time>2026-05-06T15:49:15.000Z</time>
      </trkpt>
      <trkpt lat="41.827886" lon="22.988725">
        <ele>1175.6</ele>
        <time>2026-05-06T15:49:16.000Z</time>
      </trkpt>
      <trkpt lat="41.827898" lon="22.988722">
        <ele>1175.6</ele>
        <time>2026-05-06T15:49:17.000Z</time>
      </trkpt>
      <trkpt lat="41.827909" lon="22.98872">
        <ele>1176.5</ele>
        <time>2026-05-06T15:49:18.000Z</time>
      </trkpt>
      <trkpt lat="41.827921" lon="22.988717">
        <ele>1176.5</ele>
        <time>2026-05-06T15:49:19.000Z</time>
      </trkpt>
      <trkpt lat="41.827933" lon="22.988716">
        <ele>1176.5</ele>
        <time>2026-05-06T15:49:20.000Z</time>
      </trkpt>
      <trkpt lat="41.827945" lon="22.988714">
        <ele>1176.5</ele>
        <time>2026-05-06T15:49:21.000Z</time>
      </trkpt>
      <trkpt lat="41.827957" lon="22.988713">
        <ele>1176.5</ele>
        <time>2026-05-06T15:49:22.000Z</time>
      </trkpt>
      <trkpt lat="41.827968" lon="22.988711">
        <ele>1177.2</ele>
        <time>2026-05-06T15:49:23.000Z</time>
      </trkpt>
      <trkpt lat="41.82798" lon="22.988709">
        <ele>1177.2</ele>
        <time>2026-05-06T15:49:24.000Z</time>
      </trkpt>
      <trkpt lat="41.827992" lon="22.988706">
        <ele>1177.2</ele>
        <time>2026-05-06T15:49:25.000Z</time>
      </trkpt>
      <trkpt lat="41.828004" lon="22.988703">
        <ele>1177.2</ele>
        <time>2026-05-06T15:49:26.000Z</time>
      </trkpt>
      <trkpt lat="41.828017" lon="22.9887">
        <ele>1177.2</ele>
        <time>2026-05-06T15:49:27.000Z</time>
      </trkpt>
      <trkpt lat="41.82803" lon="22.988699">
        <ele>1177.5</ele>
        <time>2026-05-06T15:49:28.000Z</time>
      </trkpt>
      <trkpt lat="41.828042" lon="22.988699">
        <ele>1177.5</ele>
        <time>2026-05-06T15:49:29.000Z</time>
      </trkpt>
      <trkpt lat="41.828055" lon="22.988699">
        <ele>1177.5</ele>
        <time>2026-05-06T15:49:30.000Z</time>
      </trkpt>
      <trkpt lat="41.828067" lon="22.9887">
        <ele>1177.5</ele>
        <time>2026-05-06T15:49:31.000Z</time>
      </trkpt>
      <trkpt lat="41.828078" lon="22.988701">
        <ele>1177.5</ele>
        <time>2026-05-06T15:49:32.000Z</time>
      </trkpt>
      <trkpt lat="41.82809" lon="22.988701">
        <ele>1177.7</ele>
        <time>2026-05-06T15:49:33.000Z</time>
      </trkpt>
      <trkpt lat="41.828102" lon="22.988701">
        <ele>1177.7</ele>
        <time>2026-05-06T15:49:34.000Z</time>
      </trkpt>
      <trkpt lat="41.828115" lon="22.988701">
        <ele>1177.7</ele>
        <time>2026-05-06T15:49:35.000Z</time>
      </trkpt>
      <trkpt lat="41.828127" lon="22.988701">
        <ele>1177.7</ele>
        <time>2026-05-06T15:49:36.000Z</time>
      </trkpt>
      <trkpt lat="41.828138" lon="22.988701">
        <ele>1177.7</ele>
        <time>2026-05-06T15:49:37.000Z</time>
      </trkpt>
      <trkpt lat="41.828149" lon="22.988701">
        <ele>1177.9</ele>
        <time>2026-05-06T15:49:38.000Z</time>
      </trkpt>
      <trkpt lat="41.828161" lon="22.988702">
        <ele>1177.9</ele>
        <time>2026-05-06T15:49:39.000Z</time>
      </trkpt>
      <trkpt lat="41.828172" lon="22.988703">
        <ele>1177.9</ele>
        <time>2026-05-06T15:49:40.000Z</time>
      </trkpt>
      <trkpt lat="41.828184" lon="22.988705">
        <ele>1177.9</ele>
        <time>2026-05-06T15:49:41.000Z</time>
      </trkpt>
      <trkpt lat="41.828197" lon="22.988708">
        <ele>1177.9</ele>
        <time>2026-05-06T15:49:42.000Z</time>
      </trkpt>
      <trkpt lat="41.82821" lon="22.988711">
        <ele>1178</ele>
        <time>2026-05-06T15:49:43.000Z</time>
      </trkpt>
      <trkpt lat="41.828222" lon="22.988713">
        <ele>1178</ele>
        <time>2026-05-06T15:49:44.000Z</time>
      </trkpt>
      <trkpt lat="41.828235" lon="22.988715">
        <ele>1178</ele>
        <time>2026-05-06T15:49:45.000Z</time>
      </trkpt>
      <trkpt lat="41.828248" lon="22.988717">
        <ele>1178</ele>
        <time>2026-05-06T15:49:46.000Z</time>
      </trkpt>
      <trkpt lat="41.82826" lon="22.988719">
        <ele>1178</ele>
        <time>2026-05-06T15:49:47.000Z</time>
      </trkpt>
      <trkpt lat="41.828271" lon="22.98872">
        <ele>1178</ele>
        <time>2026-05-06T15:49:48.000Z</time>
      </trkpt>
      <trkpt lat="41.828282" lon="22.988721">
        <ele>1178</ele>
        <time>2026-05-06T15:49:49.000Z</time>
      </trkpt>
      <trkpt lat="41.828293" lon="22.988723">
        <ele>1178</ele>
        <time>2026-05-06T15:49:50.000Z</time>
      </trkpt>
      <trkpt lat="41.828302" lon="22.988725">
        <ele>1178</ele>
        <time>2026-05-06T15:49:51.000Z</time>
      </trkpt>
      <trkpt lat="41.828309" lon="22.988726">
        <ele>1178</ele>
        <time>2026-05-06T15:49:52.000Z</time>
      </trkpt>
      <trkpt lat="41.828317" lon="22.988727">
        <ele>1178.3</ele>
        <time>2026-05-06T15:49:53.000Z</time>
      </trkpt>
      <trkpt lat="41.828326" lon="22.98873">
        <ele>1178.3</ele>
        <time>2026-05-06T15:49:54.000Z</time>
      </trkpt>
      <trkpt lat="41.828334" lon="22.988734">
        <ele>1178.3</ele>
        <time>2026-05-06T15:49:55.000Z</time>
      </trkpt>
      <trkpt lat="41.828343" lon="22.988739">
        <ele>1178.3</ele>
        <time>2026-05-06T15:49:56.000Z</time>
      </trkpt>
      <trkpt lat="41.828354" lon="22.988744">
        <ele>1178.3</ele>
        <time>2026-05-06T15:49:57.000Z</time>
      </trkpt>
      <trkpt lat="41.828364" lon="22.988749">
        <ele>1178.5</ele>
        <time>2026-05-06T15:49:58.000Z</time>
      </trkpt>
      <trkpt lat="41.828375" lon="22.988754">
        <ele>1178.5</ele>
        <time>2026-05-06T15:49:59.000Z</time>
      </trkpt>
      <trkpt lat="41.828387" lon="22.988757">
        <ele>1178.5</ele>
        <time>2026-05-06T15:50:00.000Z</time>
      </trkpt>
      <trkpt lat="41.828399" lon="22.988759">
        <ele>1178.5</ele>
        <time>2026-05-06T15:50:01.000Z</time>
      </trkpt>
      <trkpt lat="41.828411" lon="22.98876">
        <ele>1178.5</ele>
        <time>2026-05-06T15:50:02.000Z</time>
      </trkpt>
      <trkpt lat="41.828422" lon="22.988763">
        <ele>1179</ele>
        <time>2026-05-06T15:50:03.000Z</time>
      </trkpt>
      <trkpt lat="41.828433" lon="22.988768">
        <ele>1179</ele>
        <time>2026-05-06T15:50:04.000Z</time>
      </trkpt>
      <trkpt lat="41.828443" lon="22.988774">
        <ele>1179</ele>
        <time>2026-05-06T15:50:05.000Z</time>
      </trkpt>
      <trkpt lat="41.828453" lon="22.988781">
        <ele>1179</ele>
        <time>2026-05-06T15:50:06.000Z</time>
      </trkpt>
      <trkpt lat="41.828463" lon="22.988789">
        <ele>1179</ele>
        <time>2026-05-06T15:50:07.000Z</time>
      </trkpt>
      <trkpt lat="41.828474" lon="22.988796">
        <ele>1179.6</ele>
        <time>2026-05-06T15:50:08.000Z</time>
      </trkpt>
      <trkpt lat="41.828483" lon="22.988803">
        <ele>1179.6</ele>
        <time>2026-05-06T15:50:09.000Z</time>
      </trkpt>
      <trkpt lat="41.828493" lon="22.98881">
        <ele>1179.6</ele>
        <time>2026-05-06T15:50:10.000Z</time>
      </trkpt>
      <trkpt lat="41.828502" lon="22.988816">
        <ele>1179.6</ele>
        <time>2026-05-06T15:50:11.000Z</time>
      </trkpt>
      <trkpt lat="41.828511" lon="22.988823">
        <ele>1179.6</ele>
        <time>2026-05-06T15:50:12.000Z</time>
      </trkpt>
      <trkpt lat="41.82852" lon="22.988829">
        <ele>1180</ele>
        <time>2026-05-06T15:50:13.000Z</time>
      </trkpt>
      <trkpt lat="41.828529" lon="22.988837">
        <ele>1180</ele>
        <time>2026-05-06T15:50:14.000Z</time>
      </trkpt>
      <trkpt lat="41.828539" lon="22.988845">
        <ele>1180</ele>
        <time>2026-05-06T15:50:15.000Z</time>
      </trkpt>
      <trkpt lat="41.82855" lon="22.988852">
        <ele>1180</ele>
        <time>2026-05-06T15:50:16.000Z</time>
      </trkpt>
      <trkpt lat="41.82856" lon="22.98886">
        <ele>1180</ele>
        <time>2026-05-06T15:50:17.000Z</time>
      </trkpt>
      <trkpt lat="41.828569" lon="22.988868">
        <ele>1180.7</ele>
        <time>2026-05-06T15:50:18.000Z</time>
      </trkpt>
      <trkpt lat="41.828579" lon="22.988875">
        <ele>1180.7</ele>
        <time>2026-05-06T15:50:19.000Z</time>
      </trkpt>
      <trkpt lat="41.82859" lon="22.988881">
        <ele>1180.7</ele>
        <time>2026-05-06T15:50:20.000Z</time>
      </trkpt>
      <trkpt lat="41.828601" lon="22.988887">
        <ele>1180.7</ele>
        <time>2026-05-06T15:50:21.000Z</time>
      </trkpt>
      <trkpt lat="41.828613" lon="22.988894">
        <ele>1180.7</ele>
        <time>2026-05-06T15:50:22.000Z</time>
      </trkpt>
      <trkpt lat="41.828625" lon="22.9889">
        <ele>1181.4</ele>
        <time>2026-05-06T15:50:23.000Z</time>
      </trkpt>
      <trkpt lat="41.828637" lon="22.988906">
        <ele>1181.4</ele>
        <time>2026-05-06T15:50:24.000Z</time>
      </trkpt>
      <trkpt lat="41.828648" lon="22.988913">
        <ele>1181.4</ele>
        <time>2026-05-06T15:50:25.000Z</time>
      </trkpt>
      <trkpt lat="41.82866" lon="22.98892">
        <ele>1181.4</ele>
        <time>2026-05-06T15:50:26.000Z</time>
      </trkpt>
      <trkpt lat="41.828672" lon="22.988927">
        <ele>1181.4</ele>
        <time>2026-05-06T15:50:27.000Z</time>
      </trkpt>
      <trkpt lat="41.828684" lon="22.988934">
        <ele>1181.7</ele>
        <time>2026-05-06T15:50:28.000Z</time>
      </trkpt>
      <trkpt lat="41.828695" lon="22.98894">
        <ele>1181.7</ele>
        <time>2026-05-06T15:50:29.000Z</time>
      </trkpt>
      <trkpt lat="41.828707" lon="22.988946">
        <ele>1181.7</ele>
        <time>2026-05-06T15:50:30.000Z</time>
      </trkpt>
      <trkpt lat="41.82872" lon="22.988951">
        <ele>1181.7</ele>
        <time>2026-05-06T15:50:31.000Z</time>
      </trkpt>
      <trkpt lat="41.828731" lon="22.988956">
        <ele>1181.7</ele>
        <time>2026-05-06T15:50:32.000Z</time>
      </trkpt>
      <trkpt lat="41.828743" lon="22.988961">
        <ele>1182.4</ele>
        <time>2026-05-06T15:50:33.000Z</time>
      </trkpt>
      <trkpt lat="41.828754" lon="22.988966">
        <ele>1182.4</ele>
        <time>2026-05-06T15:50:34.000Z</time>
      </trkpt>
      <trkpt lat="41.828765" lon="22.98897">
        <ele>1182.4</ele>
        <time>2026-05-06T15:50:35.000Z</time>
      </trkpt>
      <trkpt lat="41.828775" lon="22.988975">
        <ele>1182.4</ele>
        <time>2026-05-06T15:50:36.000Z</time>
      </trkpt>
      <trkpt lat="41.828785" lon="22.988978">
        <ele>1182.4</ele>
        <time>2026-05-06T15:50:37.000Z</time>
      </trkpt>
      <trkpt lat="41.828794" lon="22.988981">
        <ele>1183.1</ele>
        <time>2026-05-06T15:50:38.000Z</time>
      </trkpt>
      <trkpt lat="41.828804" lon="22.988985">
        <ele>1183.1</ele>
        <time>2026-05-06T15:50:39.000Z</time>
      </trkpt>
      <trkpt lat="41.828814" lon="22.98899">
        <ele>1183.1</ele>
        <time>2026-05-06T15:50:40.000Z</time>
      </trkpt>
      <trkpt lat="41.828824" lon="22.988994">
        <ele>1183.1</ele>
        <time>2026-05-06T15:50:41.000Z</time>
      </trkpt>
      <trkpt lat="41.828835" lon="22.989">
        <ele>1183.1</ele>
        <time>2026-05-06T15:50:42.000Z</time>
      </trkpt>
      <trkpt lat="41.828847" lon="22.989005">
        <ele>1183.4</ele>
        <time>2026-05-06T15:50:43.000Z</time>
      </trkpt>
      <trkpt lat="41.828859" lon="22.98901">
        <ele>1183.4</ele>
        <time>2026-05-06T15:50:44.000Z</time>
      </trkpt>
      <trkpt lat="41.828872" lon="22.989013">
        <ele>1183.4</ele>
        <time>2026-05-06T15:50:45.000Z</time>
      </trkpt>
      <trkpt lat="41.828884" lon="22.989017">
        <ele>1183.4</ele>
        <time>2026-05-06T15:50:46.000Z</time>
      </trkpt>
      <trkpt lat="41.828897" lon="22.98902">
        <ele>1183.4</ele>
        <time>2026-05-06T15:50:47.000Z</time>
      </trkpt>
      <trkpt lat="41.828909" lon="22.989023">
        <ele>1184</ele>
        <time>2026-05-06T15:50:48.000Z</time>
      </trkpt>
      <trkpt lat="41.828922" lon="22.989025">
        <ele>1184</ele>
        <time>2026-05-06T15:50:49.000Z</time>
      </trkpt>
      <trkpt lat="41.828934" lon="22.989027">
        <ele>1184</ele>
        <time>2026-05-06T15:50:50.000Z</time>
      </trkpt>
      <trkpt lat="41.828945" lon="22.989028">
        <ele>1184</ele>
        <time>2026-05-06T15:50:51.000Z</time>
      </trkpt>
      <trkpt lat="41.828957" lon="22.989029">
        <ele>1184</ele>
        <time>2026-05-06T15:50:52.000Z</time>
      </trkpt>
      <trkpt lat="41.828969" lon="22.98903">
        <ele>1184.6</ele>
        <time>2026-05-06T15:50:53.000Z</time>
      </trkpt>
      <trkpt lat="41.82898" lon="22.989031">
        <ele>1184.6</ele>
        <time>2026-05-06T15:50:54.000Z</time>
      </trkpt>
      <trkpt lat="41.828991" lon="22.989033">
        <ele>1184.6</ele>
        <time>2026-05-06T15:50:55.000Z</time>
      </trkpt>
      <trkpt lat="41.829002" lon="22.989036">
        <ele>1184.6</ele>
        <time>2026-05-06T15:50:56.000Z</time>
      </trkpt>
      <trkpt lat="41.829013" lon="22.989039">
        <ele>1184.6</ele>
        <time>2026-05-06T15:50:57.000Z</time>
      </trkpt>
      <trkpt lat="41.829025" lon="22.989042">
        <ele>1185</ele>
        <time>2026-05-06T15:50:58.000Z</time>
      </trkpt>
      <trkpt lat="41.829037" lon="22.989045">
        <ele>1185</ele>
        <time>2026-05-06T15:50:59.000Z</time>
      </trkpt>
      <trkpt lat="41.82905" lon="22.989049">
        <ele>1185</ele>
        <time>2026-05-06T15:51:00.000Z</time>
      </trkpt>
      <trkpt lat="41.829063" lon="22.989052">
        <ele>1185</ele>
        <time>2026-05-06T15:51:01.000Z</time>
      </trkpt>
      <trkpt lat="41.829075" lon="22.989056">
        <ele>1185</ele>
        <time>2026-05-06T15:51:02.000Z</time>
      </trkpt>
      <trkpt lat="41.829088" lon="22.989058">
        <ele>1185.6</ele>
        <time>2026-05-06T15:51:03.000Z</time>
      </trkpt>
      <trkpt lat="41.8291" lon="22.98906">
        <ele>1185.6</ele>
        <time>2026-05-06T15:51:04.000Z</time>
      </trkpt>
      <trkpt lat="41.829113" lon="22.989062">
        <ele>1185.6</ele>
        <time>2026-05-06T15:51:05.000Z</time>
      </trkpt>
      <trkpt lat="41.829126" lon="22.989064">
        <ele>1185.6</ele>
        <time>2026-05-06T15:51:06.000Z</time>
      </trkpt>
      <trkpt lat="41.829139" lon="22.989066">
        <ele>1185.6</ele>
        <time>2026-05-06T15:51:07.000Z</time>
      </trkpt>
      <trkpt lat="41.829152" lon="22.98907">
        <ele>1186</ele>
        <time>2026-05-06T15:51:08.000Z</time>
      </trkpt>
      <trkpt lat="41.829164" lon="22.989074">
        <ele>1186</ele>
        <time>2026-05-06T15:51:09.000Z</time>
      </trkpt>
      <trkpt lat="41.829175" lon="22.989078">
        <ele>1186</ele>
        <time>2026-05-06T15:51:10.000Z</time>
      </trkpt>
      <trkpt lat="41.829187" lon="22.989081">
        <ele>1186</ele>
        <time>2026-05-06T15:51:11.000Z</time>
      </trkpt>
      <trkpt lat="41.829199" lon="22.989085">
        <ele>1186</ele>
        <time>2026-05-06T15:51:12.000Z</time>
      </trkpt>
      <trkpt lat="41.829211" lon="22.989089">
        <ele>1186.1</ele>
        <time>2026-05-06T15:51:13.000Z</time>
      </trkpt>
      <trkpt lat="41.829223" lon="22.989093">
        <ele>1186.1</ele>
        <time>2026-05-06T15:51:14.000Z</time>
      </trkpt>
      <trkpt lat="41.829236" lon="22.989098">
        <ele>1186.1</ele>
        <time>2026-05-06T15:51:15.000Z</time>
      </trkpt>
      <trkpt lat="41.829248" lon="22.989104">
        <ele>1186.1</ele>
        <time>2026-05-06T15:51:16.000Z</time>
      </trkpt>
      <trkpt lat="41.829259" lon="22.98911">
        <ele>1186.1</ele>
        <time>2026-05-06T15:51:17.000Z</time>
      </trkpt>
      <trkpt lat="41.829269" lon="22.989118">
        <ele>1186.2</ele>
        <time>2026-05-06T15:51:18.000Z</time>
      </trkpt>
      <trkpt lat="41.829279" lon="22.989128">
        <ele>1186.2</ele>
        <time>2026-05-06T15:51:19.000Z</time>
      </trkpt>
      <trkpt lat="41.829286" lon="22.989136">
        <ele>1186.2</ele>
        <time>2026-05-06T15:51:20.000Z</time>
      </trkpt>
      <trkpt lat="41.829292" lon="22.98914">
        <ele>1186.2</ele>
        <time>2026-05-06T15:51:21.000Z</time>
      </trkpt>
      <trkpt lat="41.829297" lon="22.989142">
        <ele>1186.2</ele>
        <time>2026-05-06T15:51:22.000Z</time>
      </trkpt>
      <trkpt lat="41.829302" lon="22.989141">
        <ele>1186.3</ele>
        <time>2026-05-06T15:51:23.000Z</time>
      </trkpt>
      <trkpt lat="41.829305" lon="22.989137">
        <ele>1186.3</ele>
        <time>2026-05-06T15:51:24.000Z</time>
      </trkpt>
      <trkpt lat="41.829307" lon="22.989133">
        <ele>1186.3</ele>
        <time>2026-05-06T15:51:25.000Z</time>
      </trkpt>
      <trkpt lat="41.829309" lon="22.98913">
        <ele>1186.3</ele>
        <time>2026-05-06T15:51:26.000Z</time>
      </trkpt>
      <trkpt lat="41.82931" lon="22.989128">
        <ele>1186.3</ele>
        <time>2026-05-06T15:51:27.000Z</time>
      </trkpt>
      <trkpt lat="41.82931" lon="22.989126">
        <ele>1186.3</ele>
        <time>2026-05-06T15:51:28.000Z</time>
      </trkpt>
      <trkpt lat="41.82931" lon="22.989126">
        <ele>1186.3</ele>
        <time>2026-05-06T15:51:29.000Z</time>
      </trkpt>
      <trkpt lat="41.82931" lon="22.989127">
        <ele>1186.3</ele>
        <time>2026-05-06T15:51:30.000Z</time>
      </trkpt>
      <trkpt lat="41.829311" lon="22.989129">
        <ele>1186.3</ele>
        <time>2026-05-06T15:51:31.000Z</time>
      </trkpt>
      <trkpt lat="41.829313" lon="22.989132">
        <ele>1186.3</ele>
        <time>2026-05-06T15:51:32.000Z</time>
      </trkpt>
      <trkpt lat="41.829318" lon="22.989137">
        <ele>1186.4</ele>
        <time>2026-05-06T15:51:33.000Z</time>
      </trkpt>
      <trkpt lat="41.829326" lon="22.989141">
        <ele>1186.4</ele>
        <time>2026-05-06T15:51:34.000Z</time>
      </trkpt>
      <trkpt lat="41.829337" lon="22.989145">
        <ele>1186.4</ele>
        <time>2026-05-06T15:51:35.000Z</time>
      </trkpt>
      <trkpt lat="41.829349" lon="22.989151">
        <ele>1186.4</ele>
        <time>2026-05-06T15:51:36.000Z</time>
      </trkpt>
      <trkpt lat="41.829363" lon="22.989157">
        <ele>1186.4</ele>
        <time>2026-05-06T15:51:37.000Z</time>
      </trkpt>
      <trkpt lat="41.829376" lon="22.989164">
        <ele>1186.5</ele>
        <time>2026-05-06T15:51:38.000Z</time>
      </trkpt>
      <trkpt lat="41.829389" lon="22.989171">
        <ele>1186.5</ele>
        <time>2026-05-06T15:51:39.000Z</time>
      </trkpt>
      <trkpt lat="41.829402" lon="22.989178">
        <ele>1186.5</ele>
        <time>2026-05-06T15:51:40.000Z</time>
      </trkpt>
      <trkpt lat="41.829415" lon="22.989185">
        <ele>1186.5</ele>
        <time>2026-05-06T15:51:41.000Z</time>
      </trkpt>
      <trkpt lat="41.829428" lon="22.989193">
        <ele>1186.5</ele>
        <time>2026-05-06T15:51:42.000Z</time>
      </trkpt>
      <trkpt lat="41.829441" lon="22.9892">
        <ele>1186.5</ele>
        <time>2026-05-06T15:51:43.000Z</time>
      </trkpt>
      <trkpt lat="41.829454" lon="22.989207">
        <ele>1186.5</ele>
        <time>2026-05-06T15:51:44.000Z</time>
      </trkpt>
      <trkpt lat="41.829468" lon="22.989215">
        <ele>1186.5</ele>
        <time>2026-05-06T15:51:45.000Z</time>
      </trkpt>
      <trkpt lat="41.829482" lon="22.989224">
        <ele>1186.5</ele>
        <time>2026-05-06T15:51:46.000Z</time>
      </trkpt>
      <trkpt lat="41.829495" lon="22.989231">
        <ele>1186.5</ele>
        <time>2026-05-06T15:51:47.000Z</time>
      </trkpt>
      <trkpt lat="41.829509" lon="22.989238">
        <ele>1186.5</ele>
        <time>2026-05-06T15:51:48.000Z</time>
      </trkpt>
      <trkpt lat="41.829522" lon="22.989245">
        <ele>1186.5</ele>
        <time>2026-05-06T15:51:49.000Z</time>
      </trkpt>
      <trkpt lat="41.829536" lon="22.989251">
        <ele>1186.5</ele>
        <time>2026-05-06T15:51:50.000Z</time>
      </trkpt>
      <trkpt lat="41.829549" lon="22.989257">
        <ele>1186.5</ele>
        <time>2026-05-06T15:51:51.000Z</time>
      </trkpt>
      <trkpt lat="41.829561" lon="22.989262">
        <ele>1186.5</ele>
        <time>2026-05-06T15:51:52.000Z</time>
      </trkpt>
      <trkpt lat="41.829573" lon="22.989265">
        <ele>1186.5</ele>
        <time>2026-05-06T15:51:53.000Z</time>
      </trkpt>
      <trkpt lat="41.829586" lon="22.989268">
        <ele>1186.5</ele>
        <time>2026-05-06T15:51:54.000Z</time>
      </trkpt>
      <trkpt lat="41.829599" lon="22.989272">
        <ele>1186.5</ele>
        <time>2026-05-06T15:51:55.000Z</time>
      </trkpt>
      <trkpt lat="41.829612" lon="22.989275">
        <ele>1186.5</ele>
        <time>2026-05-06T15:51:56.000Z</time>
      </trkpt>
      <trkpt lat="41.829625" lon="22.989278">
        <ele>1186.5</ele>
        <time>2026-05-06T15:51:57.000Z</time>
      </trkpt>
      <trkpt lat="41.829638" lon="22.989282">
        <ele>1186.5</ele>
        <time>2026-05-06T15:51:58.000Z</time>
      </trkpt>
      <trkpt lat="41.82965" lon="22.989286">
        <ele>1186.5</ele>
        <time>2026-05-06T15:51:59.000Z</time>
      </trkpt>
      <trkpt lat="41.829661" lon="22.98929">
        <ele>1186.5</ele>
        <time>2026-05-06T15:52:00.000Z</time>
      </trkpt>
      <trkpt lat="41.829673" lon="22.989294">
        <ele>1186.5</ele>
        <time>2026-05-06T15:52:01.000Z</time>
      </trkpt>
      <trkpt lat="41.829685" lon="22.989298">
        <ele>1186.5</ele>
        <time>2026-05-06T15:52:02.000Z</time>
      </trkpt>
      <trkpt lat="41.829697" lon="22.989303">
        <ele>1186.3</ele>
        <time>2026-05-06T15:52:03.000Z</time>
      </trkpt>
      <trkpt lat="41.829709" lon="22.989306">
        <ele>1186.3</ele>
        <time>2026-05-06T15:52:04.000Z</time>
      </trkpt>
      <trkpt lat="41.829721" lon="22.98931">
        <ele>1186.3</ele>
        <time>2026-05-06T15:52:05.000Z</time>
      </trkpt>
      <trkpt lat="41.829733" lon="22.989314">
        <ele>1186.3</ele>
        <time>2026-05-06T15:52:06.000Z</time>
      </trkpt>
      <trkpt lat="41.829746" lon="22.989318">
        <ele>1186.3</ele>
        <time>2026-05-06T15:52:07.000Z</time>
      </trkpt>
      <trkpt lat="41.829759" lon="22.989322">
        <ele>1186</ele>
        <time>2026-05-06T15:52:08.000Z</time>
      </trkpt>
      <trkpt lat="41.829774" lon="22.989326">
        <ele>1186</ele>
        <time>2026-05-06T15:52:09.000Z</time>
      </trkpt>
      <trkpt lat="41.829789" lon="22.989331">
        <ele>1186</ele>
        <time>2026-05-06T15:52:10.000Z</time>
      </trkpt>
      <trkpt lat="41.829804" lon="22.989336">
        <ele>1186</ele>
        <time>2026-05-06T15:52:11.000Z</time>
      </trkpt>
      <trkpt lat="41.82982" lon="22.98934">
        <ele>1186</ele>
        <time>2026-05-06T15:52:12.000Z</time>
      </trkpt>
      <trkpt lat="41.829836" lon="22.989345">
        <ele>1185.8</ele>
        <time>2026-05-06T15:52:13.000Z</time>
      </trkpt>
      <trkpt lat="41.829851" lon="22.989349">
        <ele>1185.8</ele>
        <time>2026-05-06T15:52:14.000Z</time>
      </trkpt>
      <trkpt lat="41.829865" lon="22.989353">
        <ele>1185.8</ele>
        <time>2026-05-06T15:52:15.000Z</time>
      </trkpt>
      <trkpt lat="41.829879" lon="22.989358">
        <ele>1185.8</ele>
        <time>2026-05-06T15:52:16.000Z</time>
      </trkpt>
      <trkpt lat="41.829892" lon="22.989363">
        <ele>1185.8</ele>
        <time>2026-05-06T15:52:17.000Z</time>
      </trkpt>
      <trkpt lat="41.829904" lon="22.989368">
        <ele>1185.2</ele>
        <time>2026-05-06T15:52:18.000Z</time>
      </trkpt>
      <trkpt lat="41.829915" lon="22.989373">
        <ele>1185.2</ele>
        <time>2026-05-06T15:52:19.000Z</time>
      </trkpt>
      <trkpt lat="41.829925" lon="22.989377">
        <ele>1185.2</ele>
        <time>2026-05-06T15:52:20.000Z</time>
      </trkpt>
      <trkpt lat="41.829936" lon="22.989383">
        <ele>1185.2</ele>
        <time>2026-05-06T15:52:21.000Z</time>
      </trkpt>
      <trkpt lat="41.829946" lon="22.989387">
        <ele>1185.2</ele>
        <time>2026-05-06T15:52:22.000Z</time>
      </trkpt>
      <trkpt lat="41.829958" lon="22.989392">
        <ele>1184.4</ele>
        <time>2026-05-06T15:52:23.000Z</time>
      </trkpt>
      <trkpt lat="41.829969" lon="22.989398">
        <ele>1184.4</ele>
        <time>2026-05-06T15:52:24.000Z</time>
      </trkpt>
      <trkpt lat="41.829981" lon="22.989404">
        <ele>1184.4</ele>
        <time>2026-05-06T15:52:25.000Z</time>
      </trkpt>
      <trkpt lat="41.829994" lon="22.98941">
        <ele>1184.4</ele>
        <time>2026-05-06T15:52:26.000Z</time>
      </trkpt>
      <trkpt lat="41.830006" lon="22.989416">
        <ele>1184.4</ele>
        <time>2026-05-06T15:52:27.000Z</time>
      </trkpt>
      <trkpt lat="41.830019" lon="22.989423">
        <ele>1184.1</ele>
        <time>2026-05-06T15:52:28.000Z</time>
      </trkpt>
      <trkpt lat="41.830032" lon="22.989429">
        <ele>1184.1</ele>
        <time>2026-05-06T15:52:29.000Z</time>
      </trkpt>
      <trkpt lat="41.830044" lon="22.989434">
        <ele>1184.1</ele>
        <time>2026-05-06T15:52:30.000Z</time>
      </trkpt>
      <trkpt lat="41.830056" lon="22.989438">
        <ele>1184.1</ele>
        <time>2026-05-06T15:52:31.000Z</time>
      </trkpt>
      <trkpt lat="41.830069" lon="22.989442">
        <ele>1184.1</ele>
        <time>2026-05-06T15:52:32.000Z</time>
      </trkpt>
      <trkpt lat="41.830081" lon="22.989444">
        <ele>1183.5</ele>
        <time>2026-05-06T15:52:33.000Z</time>
      </trkpt>
      <trkpt lat="41.830094" lon="22.989446">
        <ele>1183.5</ele>
        <time>2026-05-06T15:52:34.000Z</time>
      </trkpt>
      <trkpt lat="41.830106" lon="22.989449">
        <ele>1183.5</ele>
        <time>2026-05-06T15:52:35.000Z</time>
      </trkpt>
      <trkpt lat="41.830119" lon="22.989452">
        <ele>1183.5</ele>
        <time>2026-05-06T15:52:36.000Z</time>
      </trkpt>
      <trkpt lat="41.830132" lon="22.989453">
        <ele>1183.5</ele>
        <time>2026-05-06T15:52:37.000Z</time>
      </trkpt>
      <trkpt lat="41.830145" lon="22.989455">
        <ele>1182.8</ele>
        <time>2026-05-06T15:52:38.000Z</time>
      </trkpt>
      <trkpt lat="41.830159" lon="22.989457">
        <ele>1182.8</ele>
        <time>2026-05-06T15:52:39.000Z</time>
      </trkpt>
      <trkpt lat="41.830173" lon="22.989458">
        <ele>1182.8</ele>
        <time>2026-05-06T15:52:40.000Z</time>
      </trkpt>
      <trkpt lat="41.830187" lon="22.98946">
        <ele>1182.8</ele>
        <time>2026-05-06T15:52:41.000Z</time>
      </trkpt>
      <trkpt lat="41.830202" lon="22.989462">
        <ele>1182.8</ele>
        <time>2026-05-06T15:52:42.000Z</time>
      </trkpt>
      <trkpt lat="41.830216" lon="22.989464">
        <ele>1182.3</ele>
        <time>2026-05-06T15:52:43.000Z</time>
      </trkpt>
      <trkpt lat="41.830229" lon="22.989467">
        <ele>1182.3</ele>
        <time>2026-05-06T15:52:44.000Z</time>
      </trkpt>
      <trkpt lat="41.830243" lon="22.98947">
        <ele>1182.3</ele>
        <time>2026-05-06T15:52:45.000Z</time>
      </trkpt>
      <trkpt lat="41.830257" lon="22.989471">
        <ele>1182.3</ele>
        <time>2026-05-06T15:52:46.000Z</time>
      </trkpt>
      <trkpt lat="41.830271" lon="22.989472">
        <ele>1182.3</ele>
        <time>2026-05-06T15:52:47.000Z</time>
      </trkpt>
      <trkpt lat="41.830284" lon="22.98947">
        <ele>1181.2</ele>
        <time>2026-05-06T15:52:48.000Z</time>
      </trkpt>
      <trkpt lat="41.830296" lon="22.989465">
        <ele>1181.2</ele>
        <time>2026-05-06T15:52:49.000Z</time>
      </trkpt>
      <trkpt lat="41.830309" lon="22.989459">
        <ele>1181.2</ele>
        <time>2026-05-06T15:52:50.000Z</time>
      </trkpt>
      <trkpt lat="41.830321" lon="22.989452">
        <ele>1181.2</ele>
        <time>2026-05-06T15:52:51.000Z</time>
      </trkpt>
      <trkpt lat="41.830332" lon="22.989445">
        <ele>1181.2</ele>
        <time>2026-05-06T15:52:52.000Z</time>
      </trkpt>
      <trkpt lat="41.830343" lon="22.989438">
        <ele>1180</ele>
        <time>2026-05-06T15:52:53.000Z</time>
      </trkpt>
      <trkpt lat="41.830355" lon="22.989432">
        <ele>1180</ele>
        <time>2026-05-06T15:52:54.000Z</time>
      </trkpt>
      <trkpt lat="41.830365" lon="22.989425">
        <ele>1180</ele>
        <time>2026-05-06T15:52:55.000Z</time>
      </trkpt>
      <trkpt lat="41.830377" lon="22.989417">
        <ele>1180</ele>
        <time>2026-05-06T15:52:56.000Z</time>
      </trkpt>
      <trkpt lat="41.830388" lon="22.989408">
        <ele>1180</ele>
        <time>2026-05-06T15:52:57.000Z</time>
      </trkpt>
      <trkpt lat="41.830399" lon="22.989399">
        <ele>1179.4</ele>
        <time>2026-05-06T15:52:58.000Z</time>
      </trkpt>
      <trkpt lat="41.830409" lon="22.989391">
        <ele>1179.4</ele>
        <time>2026-05-06T15:52:59.000Z</time>
      </trkpt>
      <trkpt lat="41.830419" lon="22.989382">
        <ele>1179.4</ele>
        <time>2026-05-06T15:53:00.000Z</time>
      </trkpt>
      <trkpt lat="41.83043" lon="22.989375">
        <ele>1179.4</ele>
        <time>2026-05-06T15:53:01.000Z</time>
      </trkpt>
      <trkpt lat="41.83044" lon="22.989369">
        <ele>1179.4</ele>
        <time>2026-05-06T15:53:02.000Z</time>
      </trkpt>
      <trkpt lat="41.830452" lon="22.989363">
        <ele>1178.5</ele>
        <time>2026-05-06T15:53:03.000Z</time>
      </trkpt>
      <trkpt lat="41.830464" lon="22.989356">
        <ele>1178.5</ele>
        <time>2026-05-06T15:53:04.000Z</time>
      </trkpt>
      <trkpt lat="41.830476" lon="22.989348">
        <ele>1178.5</ele>
        <time>2026-05-06T15:53:05.000Z</time>
      </trkpt>
      <trkpt lat="41.830488" lon="22.989341">
        <ele>1178.5</ele>
        <time>2026-05-06T15:53:06.000Z</time>
      </trkpt>
      <trkpt lat="41.8305" lon="22.989335">
        <ele>1178.5</ele>
        <time>2026-05-06T15:53:07.000Z</time>
      </trkpt>
      <trkpt lat="41.830511" lon="22.98933">
        <ele>1177.8</ele>
        <time>2026-05-06T15:53:08.000Z</time>
      </trkpt>
      <trkpt lat="41.830522" lon="22.989327">
        <ele>1177.8</ele>
        <time>2026-05-06T15:53:09.000Z</time>
      </trkpt>
      <trkpt lat="41.830533" lon="22.989324">
        <ele>1177.8</ele>
        <time>2026-05-06T15:53:10.000Z</time>
      </trkpt>
      <trkpt lat="41.830545" lon="22.989321">
        <ele>1177.8</ele>
        <time>2026-05-06T15:53:11.000Z</time>
      </trkpt>
      <trkpt lat="41.830556" lon="22.989318">
        <ele>1177.8</ele>
        <time>2026-05-06T15:53:12.000Z</time>
      </trkpt>
      <trkpt lat="41.830568" lon="22.989316">
        <ele>1177.5</ele>
        <time>2026-05-06T15:53:13.000Z</time>
      </trkpt>
      <trkpt lat="41.830581" lon="22.989313">
        <ele>1177.5</ele>
        <time>2026-05-06T15:53:14.000Z</time>
      </trkpt>
      <trkpt lat="41.830593" lon="22.989311">
        <ele>1177.5</ele>
        <time>2026-05-06T15:53:15.000Z</time>
      </trkpt>
      <trkpt lat="41.830606" lon="22.989309">
        <ele>1177.5</ele>
        <time>2026-05-06T15:53:16.000Z</time>
      </trkpt>
      <trkpt lat="41.830617" lon="22.989307">
        <ele>1177.5</ele>
        <time>2026-05-06T15:53:17.000Z</time>
      </trkpt>
      <trkpt lat="41.830629" lon="22.989305">
        <ele>1176.8</ele>
        <time>2026-05-06T15:53:18.000Z</time>
      </trkpt>
      <trkpt lat="41.83064" lon="22.989303">
        <ele>1176.8</ele>
        <time>2026-05-06T15:53:19.000Z</time>
      </trkpt>
      <trkpt lat="41.830652" lon="22.9893">
        <ele>1176.8</ele>
        <time>2026-05-06T15:53:20.000Z</time>
      </trkpt>
      <trkpt lat="41.830664" lon="22.989299">
        <ele>1176.8</ele>
        <time>2026-05-06T15:53:21.000Z</time>
      </trkpt>
      <trkpt lat="41.830676" lon="22.989297">
        <ele>1176.8</ele>
        <time>2026-05-06T15:53:22.000Z</time>
      </trkpt>
      <trkpt lat="41.83069" lon="22.989294">
        <ele>1176.2</ele>
        <time>2026-05-06T15:53:23.000Z</time>
      </trkpt>
      <trkpt lat="41.830704" lon="22.989291">
        <ele>1176.2</ele>
        <time>2026-05-06T15:53:24.000Z</time>
      </trkpt>
      <trkpt lat="41.830718" lon="22.989287">
        <ele>1176.2</ele>
        <time>2026-05-06T15:53:25.000Z</time>
      </trkpt>
      <trkpt lat="41.830732" lon="22.989283">
        <ele>1176.2</ele>
        <time>2026-05-06T15:53:26.000Z</time>
      </trkpt>
      <trkpt lat="41.830746" lon="22.989277">
        <ele>1176.2</ele>
        <time>2026-05-06T15:53:27.000Z</time>
      </trkpt>
      <trkpt lat="41.830759" lon="22.989272">
        <ele>1176</ele>
        <time>2026-05-06T15:53:28.000Z</time>
      </trkpt>
      <trkpt lat="41.830772" lon="22.989267">
        <ele>1176</ele>
        <time>2026-05-06T15:53:29.000Z</time>
      </trkpt>
      <trkpt lat="41.830785" lon="22.989263">
        <ele>1176</ele>
        <time>2026-05-06T15:53:30.000Z</time>
      </trkpt>
      <trkpt lat="41.830798" lon="22.989258">
        <ele>1176</ele>
        <time>2026-05-06T15:53:31.000Z</time>
      </trkpt>
      <trkpt lat="41.830811" lon="22.989254">
        <ele>1176</ele>
        <time>2026-05-06T15:53:32.000Z</time>
      </trkpt>
      <trkpt lat="41.830825" lon="22.989249">
        <ele>1175.7</ele>
        <time>2026-05-06T15:53:33.000Z</time>
      </trkpt>
      <trkpt lat="41.83084" lon="22.989246">
        <ele>1175.7</ele>
        <time>2026-05-06T15:53:34.000Z</time>
      </trkpt>
      <trkpt lat="41.830853" lon="22.989243">
        <ele>1175.7</ele>
        <time>2026-05-06T15:53:35.000Z</time>
      </trkpt>
      <trkpt lat="41.830866" lon="22.989241">
        <ele>1175.7</ele>
        <time>2026-05-06T15:53:36.000Z</time>
      </trkpt>
      <trkpt lat="41.830878" lon="22.989239">
        <ele>1175.7</ele>
        <time>2026-05-06T15:53:37.000Z</time>
      </trkpt>
      <trkpt lat="41.830891" lon="22.98924">
        <ele>1175.5</ele>
        <time>2026-05-06T15:53:38.000Z</time>
      </trkpt>
      <trkpt lat="41.830904" lon="22.989243">
        <ele>1175.5</ele>
        <time>2026-05-06T15:53:39.000Z</time>
      </trkpt>
      <trkpt lat="41.830917" lon="22.989246">
        <ele>1175.5</ele>
        <time>2026-05-06T15:53:40.000Z</time>
      </trkpt>
      <trkpt lat="41.83093" lon="22.98925">
        <ele>1175.5</ele>
        <time>2026-05-06T15:53:41.000Z</time>
      </trkpt>
      <trkpt lat="41.830944" lon="22.989254">
        <ele>1175.5</ele>
        <time>2026-05-06T15:53:42.000Z</time>
      </trkpt>
      <trkpt lat="41.830956" lon="22.989256">
        <ele>1175.3</ele>
        <time>2026-05-06T15:53:43.000Z</time>
      </trkpt>
      <trkpt lat="41.830968" lon="22.989257">
        <ele>1175.3</ele>
        <time>2026-05-06T15:53:44.000Z</time>
      </trkpt>
      <trkpt lat="41.83098" lon="22.989256">
        <ele>1175.3</ele>
        <time>2026-05-06T15:53:45.000Z</time>
      </trkpt>
      <trkpt lat="41.830993" lon="22.989256">
        <ele>1175.3</ele>
        <time>2026-05-06T15:53:46.000Z</time>
      </trkpt>
      <trkpt lat="41.831006" lon="22.989256">
        <ele>1175.3</ele>
        <time>2026-05-06T15:53:47.000Z</time>
      </trkpt>
      <trkpt lat="41.831019" lon="22.989255">
        <ele>1174.9</ele>
        <time>2026-05-06T15:53:48.000Z</time>
      </trkpt>
      <trkpt lat="41.831032" lon="22.989253">
        <ele>1174.9</ele>
        <time>2026-05-06T15:53:49.000Z</time>
      </trkpt>
      <trkpt lat="41.831044" lon="22.989251">
        <ele>1174.9</ele>
        <time>2026-05-06T15:53:50.000Z</time>
      </trkpt>
      <trkpt lat="41.831055" lon="22.989249">
        <ele>1174.9</ele>
        <time>2026-05-06T15:53:51.000Z</time>
      </trkpt>
      <trkpt lat="41.831065" lon="22.989248">
        <ele>1174.9</ele>
        <time>2026-05-06T15:53:52.000Z</time>
      </trkpt>
      <trkpt lat="41.831077" lon="22.989249">
        <ele>1174.7</ele>
        <time>2026-05-06T15:53:53.000Z</time>
      </trkpt>
      <trkpt lat="41.831088" lon="22.989251">
        <ele>1174.7</ele>
        <time>2026-05-06T15:53:54.000Z</time>
      </trkpt>
      <trkpt lat="41.831101" lon="22.989254">
        <ele>1174.7</ele>
        <time>2026-05-06T15:53:55.000Z</time>
      </trkpt>
      <trkpt lat="41.831113" lon="22.989256">
        <ele>1174.7</ele>
        <time>2026-05-06T15:53:56.000Z</time>
      </trkpt>
      <trkpt lat="41.831125" lon="22.989257">
        <ele>1174.7</ele>
        <time>2026-05-06T15:53:57.000Z</time>
      </trkpt>
      <trkpt lat="41.831137" lon="22.989257">
        <ele>1174.8</ele>
        <time>2026-05-06T15:53:58.000Z</time>
      </trkpt>
      <trkpt lat="41.831148" lon="22.989257">
        <ele>1174.8</ele>
        <time>2026-05-06T15:53:59.000Z</time>
      </trkpt>
      <trkpt lat="41.83116" lon="22.989258">
        <ele>1174.8</ele>
        <time>2026-05-06T15:54:00.000Z</time>
      </trkpt>
      <trkpt lat="41.831172" lon="22.989259">
        <ele>1174.8</ele>
        <time>2026-05-06T15:54:01.000Z</time>
      </trkpt>
      <trkpt lat="41.831185" lon="22.989261">
        <ele>1174.8</ele>
        <time>2026-05-06T15:54:02.000Z</time>
      </trkpt>
      <trkpt lat="41.831198" lon="22.989263">
        <ele>1175</ele>
        <time>2026-05-06T15:54:03.000Z</time>
      </trkpt>
      <trkpt lat="41.831212" lon="22.989266">
        <ele>1175</ele>
        <time>2026-05-06T15:54:04.000Z</time>
      </trkpt>
      <trkpt lat="41.831225" lon="22.989269">
        <ele>1175</ele>
        <time>2026-05-06T15:54:05.000Z</time>
      </trkpt>
      <trkpt lat="41.831237" lon="22.989273">
        <ele>1175</ele>
        <time>2026-05-06T15:54:06.000Z</time>
      </trkpt>
      <trkpt lat="41.831249" lon="22.989276">
        <ele>1175</ele>
        <time>2026-05-06T15:54:07.000Z</time>
      </trkpt>
      <trkpt lat="41.831261" lon="22.98928">
        <ele>1175.2</ele>
        <time>2026-05-06T15:54:08.000Z</time>
      </trkpt>
      <trkpt lat="41.831273" lon="22.989284">
        <ele>1175.2</ele>
        <time>2026-05-06T15:54:09.000Z</time>
      </trkpt>
      <trkpt lat="41.831287" lon="22.989287">
        <ele>1175.2</ele>
        <time>2026-05-06T15:54:10.000Z</time>
      </trkpt>
      <trkpt lat="41.831301" lon="22.98929">
        <ele>1175.2</ele>
        <time>2026-05-06T15:54:11.000Z</time>
      </trkpt>
      <trkpt lat="41.831316" lon="22.989293">
        <ele>1175.2</ele>
        <time>2026-05-06T15:54:12.000Z</time>
      </trkpt>
      <trkpt lat="41.831329" lon="22.989295">
        <ele>1175.2</ele>
        <time>2026-05-06T15:54:13.000Z</time>
      </trkpt>
      <trkpt lat="41.831343" lon="22.989297">
        <ele>1175.2</ele>
        <time>2026-05-06T15:54:14.000Z</time>
      </trkpt>
      <trkpt lat="41.831355" lon="22.989298">
        <ele>1175.2</ele>
        <time>2026-05-06T15:54:15.000Z</time>
      </trkpt>
      <trkpt lat="41.831367" lon="22.9893">
        <ele>1175.2</ele>
        <time>2026-05-06T15:54:16.000Z</time>
      </trkpt>
      <trkpt lat="41.831378" lon="22.989301">
        <ele>1175.2</ele>
        <time>2026-05-06T15:54:17.000Z</time>
      </trkpt>
      <trkpt lat="41.831391" lon="22.989301">
        <ele>1174.8</ele>
        <time>2026-05-06T15:54:18.000Z</time>
      </trkpt>
      <trkpt lat="41.831404" lon="22.989303">
        <ele>1174.8</ele>
        <time>2026-05-06T15:54:19.000Z</time>
      </trkpt>
      <trkpt lat="41.831417" lon="22.989304">
        <ele>1174.8</ele>
        <time>2026-05-06T15:54:20.000Z</time>
      </trkpt>
      <trkpt lat="41.831431" lon="22.989306">
        <ele>1174.8</ele>
        <time>2026-05-06T15:54:21.000Z</time>
      </trkpt>
      <trkpt lat="41.831444" lon="22.989308">
        <ele>1174.8</ele>
        <time>2026-05-06T15:54:22.000Z</time>
      </trkpt>
      <trkpt lat="41.831456" lon="22.98931">
        <ele>1174.4</ele>
        <time>2026-05-06T15:54:23.000Z</time>
      </trkpt>
      <trkpt lat="41.831469" lon="22.989313">
        <ele>1174.4</ele>
        <time>2026-05-06T15:54:24.000Z</time>
      </trkpt>
      <trkpt lat="41.831481" lon="22.989315">
        <ele>1174.4</ele>
        <time>2026-05-06T15:54:25.000Z</time>
      </trkpt>
      <trkpt lat="41.831494" lon="22.989317">
        <ele>1174.4</ele>
        <time>2026-05-06T15:54:26.000Z</time>
      </trkpt>
      <trkpt lat="41.831507" lon="22.98932">
        <ele>1174.4</ele>
        <time>2026-05-06T15:54:27.000Z</time>
      </trkpt>
      <trkpt lat="41.831521" lon="22.989323">
        <ele>1174.4</ele>
        <time>2026-05-06T15:54:28.000Z</time>
      </trkpt>
      <trkpt lat="41.831534" lon="22.989327">
        <ele>1174.4</ele>
        <time>2026-05-06T15:54:29.000Z</time>
      </trkpt>
      <trkpt lat="41.831548" lon="22.989332">
        <ele>1174.4</ele>
        <time>2026-05-06T15:54:30.000Z</time>
      </trkpt>
      <trkpt lat="41.831561" lon="22.989338">
        <ele>1174.4</ele>
        <time>2026-05-06T15:54:31.000Z</time>
      </trkpt>
      <trkpt lat="41.831575" lon="22.989346">
        <ele>1174.4</ele>
        <time>2026-05-06T15:54:32.000Z</time>
      </trkpt>
      <trkpt lat="41.831587" lon="22.989353">
        <ele>1174.3</ele>
        <time>2026-05-06T15:54:33.000Z</time>
      </trkpt>
      <trkpt lat="41.831599" lon="22.989361">
        <ele>1174.3</ele>
        <time>2026-05-06T15:54:34.000Z</time>
      </trkpt>
      <trkpt lat="41.83161" lon="22.989369">
        <ele>1174.3</ele>
        <time>2026-05-06T15:54:35.000Z</time>
      </trkpt>
      <trkpt lat="41.831622" lon="22.989375">
        <ele>1174.3</ele>
        <time>2026-05-06T15:54:36.000Z</time>
      </trkpt>
      <trkpt lat="41.831632" lon="22.989382">
        <ele>1174.3</ele>
        <time>2026-05-06T15:54:37.000Z</time>
      </trkpt>
      <trkpt lat="41.831643" lon="22.989388">
        <ele>1174.2</ele>
        <time>2026-05-06T15:54:38.000Z</time>
      </trkpt>
      <trkpt lat="41.831654" lon="22.989395">
        <ele>1174.2</ele>
        <time>2026-05-06T15:54:39.000Z</time>
      </trkpt>
      <trkpt lat="41.831664" lon="22.989402">
        <ele>1174.2</ele>
        <time>2026-05-06T15:54:40.000Z</time>
      </trkpt>
      <trkpt lat="41.831674" lon="22.98941">
        <ele>1174.2</ele>
        <time>2026-05-06T15:54:41.000Z</time>
      </trkpt>
      <trkpt lat="41.831685" lon="22.989418">
        <ele>1174.2</ele>
        <time>2026-05-06T15:54:42.000Z</time>
      </trkpt>
      <trkpt lat="41.831697" lon="22.989426">
        <ele>1174.2</ele>
        <time>2026-05-06T15:54:43.000Z</time>
      </trkpt>
      <trkpt lat="41.831708" lon="22.989432">
        <ele>1174.2</ele>
        <time>2026-05-06T15:54:44.000Z</time>
      </trkpt>
      <trkpt lat="41.83172" lon="22.989439">
        <ele>1174.2</ele>
        <time>2026-05-06T15:54:45.000Z</time>
      </trkpt>
      <trkpt lat="41.831731" lon="22.989445">
        <ele>1174.2</ele>
        <time>2026-05-06T15:54:46.000Z</time>
      </trkpt>
      <trkpt lat="41.831743" lon="22.98945">
        <ele>1174.2</ele>
        <time>2026-05-06T15:54:47.000Z</time>
      </trkpt>
      <trkpt lat="41.831754" lon="22.989456">
        <ele>1173.9</ele>
        <time>2026-05-06T15:54:48.000Z</time>
      </trkpt>
      <trkpt lat="41.831765" lon="22.989462">
        <ele>1173.9</ele>
        <time>2026-05-06T15:54:49.000Z</time>
      </trkpt>
      <trkpt lat="41.831776" lon="22.989467">
        <ele>1173.9</ele>
        <time>2026-05-06T15:54:50.000Z</time>
      </trkpt>
      <trkpt lat="41.831787" lon="22.989473">
        <ele>1173.9</ele>
        <time>2026-05-06T15:54:51.000Z</time>
      </trkpt>
      <trkpt lat="41.831799" lon="22.989477">
        <ele>1173.9</ele>
        <time>2026-05-06T15:54:52.000Z</time>
      </trkpt>
      <trkpt lat="41.831812" lon="22.989481">
        <ele>1173.6</ele>
        <time>2026-05-06T15:54:53.000Z</time>
      </trkpt>
      <trkpt lat="41.831825" lon="22.989485">
        <ele>1173.6</ele>
        <time>2026-05-06T15:54:54.000Z</time>
      </trkpt>
      <trkpt lat="41.831839" lon="22.989487">
        <ele>1173.6</ele>
        <time>2026-05-06T15:54:55.000Z</time>
      </trkpt>
      <trkpt lat="41.831851" lon="22.989489">
        <ele>1173.6</ele>
        <time>2026-05-06T15:54:56.000Z</time>
      </trkpt>
      <trkpt lat="41.831863" lon="22.989491">
        <ele>1173.6</ele>
        <time>2026-05-06T15:54:57.000Z</time>
      </trkpt>
      <trkpt lat="41.831874" lon="22.989493">
        <ele>1173.4</ele>
        <time>2026-05-06T15:54:58.000Z</time>
      </trkpt>
      <trkpt lat="41.831886" lon="22.989494">
        <ele>1173.4</ele>
        <time>2026-05-06T15:54:59.000Z</time>
      </trkpt>
      <trkpt lat="41.831897" lon="22.989496">
        <ele>1173.4</ele>
        <time>2026-05-06T15:55:00.000Z</time>
      </trkpt>
      <trkpt lat="41.831908" lon="22.989497">
        <ele>1173.4</ele>
        <time>2026-05-06T15:55:01.000Z</time>
      </trkpt>
      <trkpt lat="41.83192" lon="22.989498">
        <ele>1173.4</ele>
        <time>2026-05-06T15:55:02.000Z</time>
      </trkpt>
      <trkpt lat="41.831932" lon="22.989499">
        <ele>1173.2</ele>
        <time>2026-05-06T15:55:03.000Z</time>
      </trkpt>
      <trkpt lat="41.831943" lon="22.9895">
        <ele>1173.2</ele>
        <time>2026-05-06T15:55:04.000Z</time>
      </trkpt>
      <trkpt lat="41.831956" lon="22.9895">
        <ele>1173.2</ele>
        <time>2026-05-06T15:55:05.000Z</time>
      </trkpt>
      <trkpt lat="41.831969" lon="22.9895">
        <ele>1173.2</ele>
        <time>2026-05-06T15:55:06.000Z</time>
      </trkpt>
      <trkpt lat="41.831981" lon="22.989501">
        <ele>1173.2</ele>
        <time>2026-05-06T15:55:07.000Z</time>
      </trkpt>
      <trkpt lat="41.831994" lon="22.989503">
        <ele>1173.1</ele>
        <time>2026-05-06T15:55:08.000Z</time>
      </trkpt>
      <trkpt lat="41.832007" lon="22.989507">
        <ele>1173.1</ele>
        <time>2026-05-06T15:55:09.000Z</time>
      </trkpt>
      <trkpt lat="41.832019" lon="22.989512">
        <ele>1173.1</ele>
        <time>2026-05-06T15:55:10.000Z</time>
      </trkpt>
      <trkpt lat="41.832033" lon="22.989518">
        <ele>1173.1</ele>
        <time>2026-05-06T15:55:11.000Z</time>
      </trkpt>
      <trkpt lat="41.832046" lon="22.989525">
        <ele>1173.1</ele>
        <time>2026-05-06T15:55:12.000Z</time>
      </trkpt>
      <trkpt lat="41.832059" lon="22.989531">
        <ele>1173.1</ele>
        <time>2026-05-06T15:55:13.000Z</time>
      </trkpt>
      <trkpt lat="41.832072" lon="22.989537">
        <ele>1173.1</ele>
        <time>2026-05-06T15:55:14.000Z</time>
      </trkpt>
      <trkpt lat="41.832084" lon="22.989543">
        <ele>1173.1</ele>
        <time>2026-05-06T15:55:15.000Z</time>
      </trkpt>
      <trkpt lat="41.832097" lon="22.989549">
        <ele>1173.1</ele>
        <time>2026-05-06T15:55:16.000Z</time>
      </trkpt>
      <trkpt lat="41.832108" lon="22.989556">
        <ele>1173.1</ele>
        <time>2026-05-06T15:55:17.000Z</time>
      </trkpt>
      <trkpt lat="41.83212" lon="22.989563">
        <ele>1173.1</ele>
        <time>2026-05-06T15:55:18.000Z</time>
      </trkpt>
      <trkpt lat="41.832131" lon="22.989571">
        <ele>1173.1</ele>
        <time>2026-05-06T15:55:19.000Z</time>
      </trkpt>
      <trkpt lat="41.832143" lon="22.98958">
        <ele>1173.1</ele>
        <time>2026-05-06T15:55:20.000Z</time>
      </trkpt>
      <trkpt lat="41.832155" lon="22.989589">
        <ele>1173.1</ele>
        <time>2026-05-06T15:55:21.000Z</time>
      </trkpt>
      <trkpt lat="41.832167" lon="22.989599">
        <ele>1173.1</ele>
        <time>2026-05-06T15:55:22.000Z</time>
      </trkpt>
      <trkpt lat="41.832179" lon="22.989608">
        <ele>1172.7</ele>
        <time>2026-05-06T15:55:23.000Z</time>
      </trkpt>
      <trkpt lat="41.832191" lon="22.989616">
        <ele>1172.7</ele>
        <time>2026-05-06T15:55:24.000Z</time>
      </trkpt>
      <trkpt lat="41.832202" lon="22.989624">
        <ele>1172.7</ele>
        <time>2026-05-06T15:55:25.000Z</time>
      </trkpt>
      <trkpt lat="41.832213" lon="22.989631">
        <ele>1172.7</ele>
        <time>2026-05-06T15:55:26.000Z</time>
      </trkpt>
      <trkpt lat="41.832224" lon="22.989639">
        <ele>1172.7</ele>
        <time>2026-05-06T15:55:27.000Z</time>
      </trkpt>
      <trkpt lat="41.832232" lon="22.989647">
        <ele>1172.4</ele>
        <time>2026-05-06T15:55:28.000Z</time>
      </trkpt>
      <trkpt lat="41.832238" lon="22.989654">
        <ele>1172.4</ele>
        <time>2026-05-06T15:55:29.000Z</time>
      </trkpt>
      <trkpt lat="41.832239" lon="22.989661">
        <ele>1172.4</ele>
        <time>2026-05-06T15:55:30.000Z</time>
      </trkpt>
      <trkpt lat="41.832238" lon="22.989667">
        <ele>1172.4</ele>
        <time>2026-05-06T15:55:31.000Z</time>
      </trkpt>
      <trkpt lat="41.832233" lon="22.989671">
        <ele>1172.4</ele>
        <time>2026-05-06T15:55:32.000Z</time>
      </trkpt>
      <trkpt lat="41.832228" lon="22.989673">
        <ele>1171.6</ele>
        <time>2026-05-06T15:55:33.000Z</time>
      </trkpt>
      <trkpt lat="41.832224" lon="22.989676">
        <ele>1171.6</ele>
        <time>2026-05-06T15:55:34.000Z</time>
      </trkpt>
      <trkpt lat="41.83222" lon="22.989677">
        <ele>1171.6</ele>
        <time>2026-05-06T15:55:35.000Z</time>
      </trkpt>
      <trkpt lat="41.832218" lon="22.989677">
        <ele>1171.6</ele>
        <time>2026-05-06T15:55:36.000Z</time>
      </trkpt>
      <trkpt lat="41.832217" lon="22.989676">
        <ele>1171.6</ele>
        <time>2026-05-06T15:55:37.000Z</time>
      </trkpt>
      <trkpt lat="41.832216" lon="22.989676">
        <ele>1171</ele>
        <time>2026-05-06T15:55:38.000Z</time>
      </trkpt>
      <trkpt lat="41.832215" lon="22.989676">
        <ele>1171</ele>
        <time>2026-05-06T15:55:39.000Z</time>
      </trkpt>
      <trkpt lat="41.832215" lon="22.989676">
        <ele>1171</ele>
        <time>2026-05-06T15:55:40.000Z</time>
      </trkpt>
      <trkpt lat="41.832215" lon="22.989676">
        <ele>1171</ele>
        <time>2026-05-06T15:55:41.000Z</time>
      </trkpt>
      <trkpt lat="41.832215" lon="22.989676">
        <ele>1171</ele>
        <time>2026-05-06T15:55:42.000Z</time>
      </trkpt>
      <trkpt lat="41.832216" lon="22.989676">
        <ele>1170.8</ele>
        <time>2026-05-06T15:55:43.000Z</time>
      </trkpt>
      <trkpt lat="41.832216" lon="22.989676">
        <ele>1170.8</ele>
        <time>2026-05-06T15:55:44.000Z</time>
      </trkpt>
      <trkpt lat="41.832216" lon="22.989676">
        <ele>1170.8</ele>
        <time>2026-05-06T15:55:45.000Z</time>
      </trkpt>
      <trkpt lat="41.832216" lon="22.989676">
        <ele>1170.8</ele>
        <time>2026-05-06T15:55:46.000Z</time>
      </trkpt>
      <trkpt lat="41.832217" lon="22.989675">
        <ele>1170.8</ele>
        <time>2026-05-06T15:55:47.000Z</time>
      </trkpt>
      <trkpt lat="41.83222" lon="22.989672">
        <ele>1170.7</ele>
        <time>2026-05-06T15:55:48.000Z</time>
      </trkpt>
      <trkpt lat="41.832224" lon="22.989669">
        <ele>1170.7</ele>
        <time>2026-05-06T15:55:49.000Z</time>
      </trkpt>
      <trkpt lat="41.83223" lon="22.989666">
        <ele>1170.7</ele>
        <time>2026-05-06T15:55:50.000Z</time>
      </trkpt>
      <trkpt lat="41.832239" lon="22.989663">
        <ele>1170.7</ele>
        <time>2026-05-06T15:55:51.000Z</time>
      </trkpt>
      <trkpt lat="41.832248" lon="22.989663">
        <ele>1170.7</ele>
        <time>2026-05-06T15:55:52.000Z</time>
      </trkpt>
      <trkpt lat="41.832258" lon="22.989668">
        <ele>1170.7</ele>
        <time>2026-05-06T15:55:53.000Z</time>
      </trkpt>
      <trkpt lat="41.832271" lon="22.989676">
        <ele>1170.7</ele>
        <time>2026-05-06T15:55:54.000Z</time>
      </trkpt>
      <trkpt lat="41.832284" lon="22.989685">
        <ele>1170.7</ele>
        <time>2026-05-06T15:55:55.000Z</time>
      </trkpt>
      <trkpt lat="41.832298" lon="22.989695">
        <ele>1170.7</ele>
        <time>2026-05-06T15:55:56.000Z</time>
      </trkpt>
      <trkpt lat="41.832312" lon="22.989703">
        <ele>1170.7</ele>
        <time>2026-05-06T15:55:57.000Z</time>
      </trkpt>
      <trkpt lat="41.832325" lon="22.989709">
        <ele>1170.7</ele>
        <time>2026-05-06T15:55:58.000Z</time>
      </trkpt>
      <trkpt lat="41.832339" lon="22.989714">
        <ele>1170.7</ele>
        <time>2026-05-06T15:55:59.000Z</time>
      </trkpt>
      <trkpt lat="41.832352" lon="22.989716">
        <ele>1170.7</ele>
        <time>2026-05-06T15:56:00.000Z</time>
      </trkpt>
      <trkpt lat="41.832365" lon="22.989717">
        <ele>1170.7</ele>
        <time>2026-05-06T15:56:01.000Z</time>
      </trkpt>
      <trkpt lat="41.832379" lon="22.989718">
        <ele>1170.7</ele>
        <time>2026-05-06T15:56:02.000Z</time>
      </trkpt>
      <trkpt lat="41.832393" lon="22.989718">
        <ele>1170.4</ele>
        <time>2026-05-06T15:56:03.000Z</time>
      </trkpt>
      <trkpt lat="41.832408" lon="22.989719">
        <ele>1170.4</ele>
        <time>2026-05-06T15:56:04.000Z</time>
      </trkpt>
      <trkpt lat="41.832422" lon="22.989721">
        <ele>1170.4</ele>
        <time>2026-05-06T15:56:05.000Z</time>
      </trkpt>
      <trkpt lat="41.832437" lon="22.989724">
        <ele>1170.4</ele>
        <time>2026-05-06T15:56:06.000Z</time>
      </trkpt>
      <trkpt lat="41.832453" lon="22.989726">
        <ele>1170.4</ele>
        <time>2026-05-06T15:56:07.000Z</time>
      </trkpt>
      <trkpt lat="41.832468" lon="22.989729">
        <ele>1169.8</ele>
        <time>2026-05-06T15:56:08.000Z</time>
      </trkpt>
      <trkpt lat="41.832484" lon="22.989731">
        <ele>1169.8</ele>
        <time>2026-05-06T15:56:09.000Z</time>
      </trkpt>
      <trkpt lat="41.8325" lon="22.989734">
        <ele>1169.8</ele>
        <time>2026-05-06T15:56:10.000Z</time>
      </trkpt>
      <trkpt lat="41.832516" lon="22.989737">
        <ele>1169.8</ele>
        <time>2026-05-06T15:56:11.000Z</time>
      </trkpt>
      <trkpt lat="41.832532" lon="22.989739">
        <ele>1169.8</ele>
        <time>2026-05-06T15:56:12.000Z</time>
      </trkpt>
      <trkpt lat="41.832548" lon="22.989741">
        <ele>1169.5</ele>
        <time>2026-05-06T15:56:13.000Z</time>
      </trkpt>
      <trkpt lat="41.832564" lon="22.989744">
        <ele>1169.5</ele>
        <time>2026-05-06T15:56:14.000Z</time>
      </trkpt>
      <trkpt lat="41.83258" lon="22.989745">
        <ele>1169.5</ele>
        <time>2026-05-06T15:56:15.000Z</time>
      </trkpt>
      <trkpt lat="41.832595" lon="22.989746">
        <ele>1169.5</ele>
        <time>2026-05-06T15:56:16.000Z</time>
      </trkpt>
      <trkpt lat="41.832611" lon="22.989747">
        <ele>1169.5</ele>
        <time>2026-05-06T15:56:17.000Z</time>
      </trkpt>
      <trkpt lat="41.832627" lon="22.989747">
        <ele>1169.1</ele>
        <time>2026-05-06T15:56:18.000Z</time>
      </trkpt>
      <trkpt lat="41.832642" lon="22.989747">
        <ele>1169.1</ele>
        <time>2026-05-06T15:56:19.000Z</time>
      </trkpt>
      <trkpt lat="41.832657" lon="22.989747">
        <ele>1169.1</ele>
        <time>2026-05-06T15:56:20.000Z</time>
      </trkpt>
      <trkpt lat="41.832671" lon="22.989747">
        <ele>1169.1</ele>
        <time>2026-05-06T15:56:21.000Z</time>
      </trkpt>
      <trkpt lat="41.832685" lon="22.989747">
        <ele>1169.1</ele>
        <time>2026-05-06T15:56:22.000Z</time>
      </trkpt>
      <trkpt lat="41.832699" lon="22.989746">
        <ele>1169</ele>
        <time>2026-05-06T15:56:23.000Z</time>
      </trkpt>
      <trkpt lat="41.832714" lon="22.989746">
        <ele>1169</ele>
        <time>2026-05-06T15:56:24.000Z</time>
      </trkpt>
      <trkpt lat="41.832729" lon="22.989746">
        <ele>1169</ele>
        <time>2026-05-06T15:56:25.000Z</time>
      </trkpt>
      <trkpt lat="41.832746" lon="22.989746">
        <ele>1169</ele>
        <time>2026-05-06T15:56:26.000Z</time>
      </trkpt>
      <trkpt lat="41.832762" lon="22.989747">
        <ele>1169</ele>
        <time>2026-05-06T15:56:27.000Z</time>
      </trkpt>
      <trkpt lat="41.83278" lon="22.989748">
        <ele>1169</ele>
        <time>2026-05-06T15:56:28.000Z</time>
      </trkpt>
      <trkpt lat="41.832797" lon="22.989749">
        <ele>1169</ele>
        <time>2026-05-06T15:56:29.000Z</time>
      </trkpt>
      <trkpt lat="41.832813" lon="22.989752">
        <ele>1169</ele>
        <time>2026-05-06T15:56:30.000Z</time>
      </trkpt>
      <trkpt lat="41.832829" lon="22.989757">
        <ele>1169</ele>
        <time>2026-05-06T15:56:31.000Z</time>
      </trkpt>
      <trkpt lat="41.832845" lon="22.989762">
        <ele>1169</ele>
        <time>2026-05-06T15:56:32.000Z</time>
      </trkpt>
      <trkpt lat="41.832859" lon="22.989769">
        <ele>1168.9</ele>
        <time>2026-05-06T15:56:33.000Z</time>
      </trkpt>
      <trkpt lat="41.832872" lon="22.989777">
        <ele>1168.9</ele>
        <time>2026-05-06T15:56:34.000Z</time>
      </trkpt>
      <trkpt lat="41.832886" lon="22.989786">
        <ele>1168.9</ele>
        <time>2026-05-06T15:56:35.000Z</time>
      </trkpt>
      <trkpt lat="41.832898" lon="22.989794">
        <ele>1168.9</ele>
        <time>2026-05-06T15:56:36.000Z</time>
      </trkpt>
      <trkpt lat="41.83291" lon="22.989804">
        <ele>1168.9</ele>
        <time>2026-05-06T15:56:37.000Z</time>
      </trkpt>
      <trkpt lat="41.832921" lon="22.989813">
        <ele>1168.6</ele>
        <time>2026-05-06T15:56:38.000Z</time>
      </trkpt>
      <trkpt lat="41.832933" lon="22.989823">
        <ele>1168.6</ele>
        <time>2026-05-06T15:56:39.000Z</time>
      </trkpt>
      <trkpt lat="41.832943" lon="22.989832">
        <ele>1168.6</ele>
        <time>2026-05-06T15:56:40.000Z</time>
      </trkpt>
      <trkpt lat="41.832955" lon="22.989843">
        <ele>1168.6</ele>
        <time>2026-05-06T15:56:41.000Z</time>
      </trkpt>
      <trkpt lat="41.832966" lon="22.989855">
        <ele>1168.6</ele>
        <time>2026-05-06T15:56:42.000Z</time>
      </trkpt>
      <trkpt lat="41.832976" lon="22.989868">
        <ele>1168.4</ele>
        <time>2026-05-06T15:56:43.000Z</time>
      </trkpt>
      <trkpt lat="41.832986" lon="22.989881">
        <ele>1168.4</ele>
        <time>2026-05-06T15:56:44.000Z</time>
      </trkpt>
      <trkpt lat="41.832996" lon="22.989894">
        <ele>1168.4</ele>
        <time>2026-05-06T15:56:45.000Z</time>
      </trkpt>
      <trkpt lat="41.833006" lon="22.989907">
        <ele>1168.4</ele>
        <time>2026-05-06T15:56:46.000Z</time>
      </trkpt>
      <trkpt lat="41.833017" lon="22.98992">
        <ele>1168.4</ele>
        <time>2026-05-06T15:56:47.000Z</time>
      </trkpt>
      <trkpt lat="41.833029" lon="22.989934">
        <ele>1168.1</ele>
        <time>2026-05-06T15:56:48.000Z</time>
      </trkpt>
      <trkpt lat="41.833041" lon="22.989947">
        <ele>1168.1</ele>
        <time>2026-05-06T15:56:49.000Z</time>
      </trkpt>
      <trkpt lat="41.833053" lon="22.989961">
        <ele>1168.1</ele>
        <time>2026-05-06T15:56:50.000Z</time>
      </trkpt>
      <trkpt lat="41.833066" lon="22.989974">
        <ele>1168.1</ele>
        <time>2026-05-06T15:56:51.000Z</time>
      </trkpt>
      <trkpt lat="41.833079" lon="22.989986">
        <ele>1168.1</ele>
        <time>2026-05-06T15:56:52.000Z</time>
      </trkpt>
      <trkpt lat="41.833093" lon="22.989997">
        <ele>1167.9</ele>
        <time>2026-05-06T15:56:53.000Z</time>
      </trkpt>
      <trkpt lat="41.833106" lon="22.990007">
        <ele>1167.9</ele>
        <time>2026-05-06T15:56:54.000Z</time>
      </trkpt>
      <trkpt lat="41.833121" lon="22.990016">
        <ele>1167.9</ele>
        <time>2026-05-06T15:56:55.000Z</time>
      </trkpt>
      <trkpt lat="41.833136" lon="22.990024">
        <ele>1167.9</ele>
        <time>2026-05-06T15:56:56.000Z</time>
      </trkpt>
      <trkpt lat="41.833151" lon="22.990032">
        <ele>1167.9</ele>
        <time>2026-05-06T15:56:57.000Z</time>
      </trkpt>
      <trkpt lat="41.833168" lon="22.99004">
        <ele>1168</ele>
        <time>2026-05-06T15:56:58.000Z</time>
      </trkpt>
      <trkpt lat="41.833183" lon="22.990047">
        <ele>1168</ele>
        <time>2026-05-06T15:56:59.000Z</time>
      </trkpt>
      <trkpt lat="41.833198" lon="22.990054">
        <ele>1168</ele>
        <time>2026-05-06T15:57:00.000Z</time>
      </trkpt>
      <trkpt lat="41.833213" lon="22.99006">
        <ele>1168</ele>
        <time>2026-05-06T15:57:01.000Z</time>
      </trkpt>
      <trkpt lat="41.833228" lon="22.990063">
        <ele>1168</ele>
        <time>2026-05-06T15:57:02.000Z</time>
      </trkpt>
      <trkpt lat="41.833243" lon="22.990065">
        <ele>1168.1</ele>
        <time>2026-05-06T15:57:03.000Z</time>
      </trkpt>
      <trkpt lat="41.833259" lon="22.990065">
        <ele>1168.1</ele>
        <time>2026-05-06T15:57:04.000Z</time>
      </trkpt>
      <trkpt lat="41.833275" lon="22.990064">
        <ele>1168.1</ele>
        <time>2026-05-06T15:57:05.000Z</time>
      </trkpt>
      <trkpt lat="41.833291" lon="22.990062">
        <ele>1168.1</ele>
        <time>2026-05-06T15:57:06.000Z</time>
      </trkpt>
      <trkpt lat="41.833306" lon="22.990058">
        <ele>1168.1</ele>
        <time>2026-05-06T15:57:07.000Z</time>
      </trkpt>
      <trkpt lat="41.833321" lon="22.990055">
        <ele>1167.9</ele>
        <time>2026-05-06T15:57:08.000Z</time>
      </trkpt>
      <trkpt lat="41.833336" lon="22.990052">
        <ele>1167.9</ele>
        <time>2026-05-06T15:57:09.000Z</time>
      </trkpt>
      <trkpt lat="41.83335" lon="22.990048">
        <ele>1167.9</ele>
        <time>2026-05-06T15:57:10.000Z</time>
      </trkpt>
      <trkpt lat="41.833364" lon="22.990044">
        <ele>1167.9</ele>
        <time>2026-05-06T15:57:11.000Z</time>
      </trkpt>
      <trkpt lat="41.833378" lon="22.990041">
        <ele>1167.9</ele>
        <time>2026-05-06T15:57:12.000Z</time>
      </trkpt>
      <trkpt lat="41.833391" lon="22.990038">
        <ele>1167.5</ele>
        <time>2026-05-06T15:57:13.000Z</time>
      </trkpt>
      <trkpt lat="41.833404" lon="22.990034">
        <ele>1167.5</ele>
        <time>2026-05-06T15:57:14.000Z</time>
      </trkpt>
      <trkpt lat="41.833417" lon="22.990031">
        <ele>1167.5</ele>
        <time>2026-05-06T15:57:15.000Z</time>
      </trkpt>
      <trkpt lat="41.833431" lon="22.990027">
        <ele>1167.5</ele>
        <time>2026-05-06T15:57:16.000Z</time>
      </trkpt>
      <trkpt lat="41.833445" lon="22.990024">
        <ele>1167.5</ele>
        <time>2026-05-06T15:57:17.000Z</time>
      </trkpt>
      <trkpt lat="41.833458" lon="22.99002">
        <ele>1166.5</ele>
        <time>2026-05-06T15:57:18.000Z</time>
      </trkpt>
      <trkpt lat="41.833472" lon="22.990015">
        <ele>1166.5</ele>
        <time>2026-05-06T15:57:19.000Z</time>
      </trkpt>
      <trkpt lat="41.833485" lon="22.990009">
        <ele>1166.5</ele>
        <time>2026-05-06T15:57:20.000Z</time>
      </trkpt>
      <trkpt lat="41.833498" lon="22.990003">
        <ele>1166.5</ele>
        <time>2026-05-06T15:57:21.000Z</time>
      </trkpt>
      <trkpt lat="41.833511" lon="22.989996">
        <ele>1166.5</ele>
        <time>2026-05-06T15:57:22.000Z</time>
      </trkpt>
      <trkpt lat="41.833523" lon="22.989988">
        <ele>1165.4</ele>
        <time>2026-05-06T15:57:23.000Z</time>
      </trkpt>
      <trkpt lat="41.833534" lon="22.989981">
        <ele>1165.4</ele>
        <time>2026-05-06T15:57:24.000Z</time>
      </trkpt>
      <trkpt lat="41.833545" lon="22.989975">
        <ele>1165.4</ele>
        <time>2026-05-06T15:57:25.000Z</time>
      </trkpt>
      <trkpt lat="41.833556" lon="22.989969">
        <ele>1165.4</ele>
        <time>2026-05-06T15:57:26.000Z</time>
      </trkpt>
      <trkpt lat="41.833567" lon="22.989962">
        <ele>1165.4</ele>
        <time>2026-05-06T15:57:27.000Z</time>
      </trkpt>
      <trkpt lat="41.833579" lon="22.989956">
        <ele>1164.9</ele>
        <time>2026-05-06T15:57:28.000Z</time>
      </trkpt>
      <trkpt lat="41.833592" lon="22.989948">
        <ele>1164.9</ele>
        <time>2026-05-06T15:57:29.000Z</time>
      </trkpt>
      <trkpt lat="41.833605" lon="22.98994">
        <ele>1164.9</ele>
        <time>2026-05-06T15:57:30.000Z</time>
      </trkpt>
      <trkpt lat="41.833618" lon="22.989932">
        <ele>1164.9</ele>
        <time>2026-05-06T15:57:31.000Z</time>
      </trkpt>
      <trkpt lat="41.83363" lon="22.989924">
        <ele>1164.9</ele>
        <time>2026-05-06T15:57:32.000Z</time>
      </trkpt>
      <trkpt lat="41.833641" lon="22.989916">
        <ele>1163.9</ele>
        <time>2026-05-06T15:57:33.000Z</time>
      </trkpt>
      <trkpt lat="41.833653" lon="22.989908">
        <ele>1163.9</ele>
        <time>2026-05-06T15:57:34.000Z</time>
      </trkpt>
      <trkpt lat="41.833663" lon="22.9899">
        <ele>1163.9</ele>
        <time>2026-05-06T15:57:35.000Z</time>
      </trkpt>
      <trkpt lat="41.833675" lon="22.989893">
        <ele>1163.9</ele>
        <time>2026-05-06T15:57:36.000Z</time>
      </trkpt>
      <trkpt lat="41.833687" lon="22.989885">
        <ele>1163.9</ele>
        <time>2026-05-06T15:57:37.000Z</time>
      </trkpt>
      <trkpt lat="41.8337" lon="22.989878">
        <ele>1163.3</ele>
        <time>2026-05-06T15:57:38.000Z</time>
      </trkpt>
      <trkpt lat="41.833713" lon="22.989871">
        <ele>1163.3</ele>
        <time>2026-05-06T15:57:39.000Z</time>
      </trkpt>
      <trkpt lat="41.833725" lon="22.989864">
        <ele>1163.3</ele>
        <time>2026-05-06T15:57:40.000Z</time>
      </trkpt>
      <trkpt lat="41.833738" lon="22.989856">
        <ele>1163.3</ele>
        <time>2026-05-06T15:57:41.000Z</time>
      </trkpt>
      <trkpt lat="41.83375" lon="22.98985">
        <ele>1163.3</ele>
        <time>2026-05-06T15:57:42.000Z</time>
      </trkpt>
      <trkpt lat="41.833762" lon="22.989842">
        <ele>1163.1</ele>
        <time>2026-05-06T15:57:43.000Z</time>
      </trkpt>
      <trkpt lat="41.833773" lon="22.989835">
        <ele>1163.1</ele>
        <time>2026-05-06T15:57:44.000Z</time>
      </trkpt>
      <trkpt lat="41.833785" lon="22.989829">
        <ele>1163.1</ele>
        <time>2026-05-06T15:57:45.000Z</time>
      </trkpt>
      <trkpt lat="41.833797" lon="22.989823">
        <ele>1163.1</ele>
        <time>2026-05-06T15:57:46.000Z</time>
      </trkpt>
      <trkpt lat="41.83381" lon="22.989817">
        <ele>1163.1</ele>
        <time>2026-05-06T15:57:47.000Z</time>
      </trkpt>
      <trkpt lat="41.833822" lon="22.989812">
        <ele>1162.8</ele>
        <time>2026-05-06T15:57:48.000Z</time>
      </trkpt>
      <trkpt lat="41.833835" lon="22.989806">
        <ele>1162.8</ele>
        <time>2026-05-06T15:57:49.000Z</time>
      </trkpt>
      <trkpt lat="41.833847" lon="22.989801">
        <ele>1162.8</ele>
        <time>2026-05-06T15:57:50.000Z</time>
      </trkpt>
      <trkpt lat="41.833858" lon="22.989796">
        <ele>1162.8</ele>
        <time>2026-05-06T15:57:51.000Z</time>
      </trkpt>
      <trkpt lat="41.833869" lon="22.98979">
        <ele>1162.8</ele>
        <time>2026-05-06T15:57:52.000Z</time>
      </trkpt>
      <trkpt lat="41.83388" lon="22.989785">
        <ele>1162.6</ele>
        <time>2026-05-06T15:57:53.000Z</time>
      </trkpt>
      <trkpt lat="41.833891" lon="22.989778">
        <ele>1162.6</ele>
        <time>2026-05-06T15:57:54.000Z</time>
      </trkpt>
      <trkpt lat="41.833902" lon="22.989772">
        <ele>1162.6</ele>
        <time>2026-05-06T15:57:55.000Z</time>
      </trkpt>
      <trkpt lat="41.833914" lon="22.989764">
        <ele>1162.6</ele>
        <time>2026-05-06T15:57:56.000Z</time>
      </trkpt>
      <trkpt lat="41.833925" lon="22.989756">
        <ele>1162.6</ele>
        <time>2026-05-06T15:57:57.000Z</time>
      </trkpt>
      <trkpt lat="41.833935" lon="22.989748">
        <ele>1162.5</ele>
        <time>2026-05-06T15:57:58.000Z</time>
      </trkpt>
      <trkpt lat="41.833945" lon="22.98974">
        <ele>1162.5</ele>
        <time>2026-05-06T15:57:59.000Z</time>
      </trkpt>
      <trkpt lat="41.833955" lon="22.989733">
        <ele>1162.5</ele>
        <time>2026-05-06T15:58:00.000Z</time>
      </trkpt>
      <trkpt lat="41.833965" lon="22.989726">
        <ele>1162.5</ele>
        <time>2026-05-06T15:58:01.000Z</time>
      </trkpt>
      <trkpt lat="41.833975" lon="22.989718">
        <ele>1162.5</ele>
        <time>2026-05-06T15:58:02.000Z</time>
      </trkpt>
      <trkpt lat="41.833986" lon="22.989711">
        <ele>1162.4</ele>
        <time>2026-05-06T15:58:03.000Z</time>
      </trkpt>
      <trkpt lat="41.833997" lon="22.989701">
        <ele>1162.4</ele>
        <time>2026-05-06T15:58:04.000Z</time>
      </trkpt>
      <trkpt lat="41.834007" lon="22.98969">
        <ele>1162.4</ele>
        <time>2026-05-06T15:58:05.000Z</time>
      </trkpt>
      <trkpt lat="41.834017" lon="22.98968">
        <ele>1162.4</ele>
        <time>2026-05-06T15:58:06.000Z</time>
      </trkpt>
      <trkpt lat="41.834027" lon="22.98967">
        <ele>1162.4</ele>
        <time>2026-05-06T15:58:07.000Z</time>
      </trkpt>
      <trkpt lat="41.834038" lon="22.98966">
        <ele>1162.5</ele>
        <time>2026-05-06T15:58:08.000Z</time>
      </trkpt>
      <trkpt lat="41.834048" lon="22.98965">
        <ele>1162.5</ele>
        <time>2026-05-06T15:58:09.000Z</time>
      </trkpt>
      <trkpt lat="41.834058" lon="22.989642">
        <ele>1162.5</ele>
        <time>2026-05-06T15:58:10.000Z</time>
      </trkpt>
      <trkpt lat="41.834068" lon="22.989634">
        <ele>1162.5</ele>
        <time>2026-05-06T15:58:11.000Z</time>
      </trkpt>
      <trkpt lat="41.834078" lon="22.989627">
        <ele>1162.5</ele>
        <time>2026-05-06T15:58:12.000Z</time>
      </trkpt>
      <trkpt lat="41.834088" lon="22.98962">
        <ele>1162.6</ele>
        <time>2026-05-06T15:58:13.000Z</time>
      </trkpt>
      <trkpt lat="41.834098" lon="22.989614">
        <ele>1162.6</ele>
        <time>2026-05-06T15:58:14.000Z</time>
      </trkpt>
      <trkpt lat="41.834108" lon="22.989609">
        <ele>1162.6</ele>
        <time>2026-05-06T15:58:15.000Z</time>
      </trkpt>
      <trkpt lat="41.834118" lon="22.989603">
        <ele>1162.6</ele>
        <time>2026-05-06T15:58:16.000Z</time>
      </trkpt>
      <trkpt lat="41.834127" lon="22.989597">
        <ele>1162.6</ele>
        <time>2026-05-06T15:58:17.000Z</time>
      </trkpt>
      <trkpt lat="41.834136" lon="22.98959">
        <ele>1162.9</ele>
        <time>2026-05-06T15:58:18.000Z</time>
      </trkpt>
      <trkpt lat="41.834144" lon="22.989584">
        <ele>1162.9</ele>
        <time>2026-05-06T15:58:19.000Z</time>
      </trkpt>
      <trkpt lat="41.834152" lon="22.989577">
        <ele>1162.9</ele>
        <time>2026-05-06T15:58:20.000Z</time>
      </trkpt>
      <trkpt lat="41.834161" lon="22.98957">
        <ele>1162.9</ele>
        <time>2026-05-06T15:58:21.000Z</time>
      </trkpt>
      <trkpt lat="41.83417" lon="22.989563">
        <ele>1162.9</ele>
        <time>2026-05-06T15:58:22.000Z</time>
      </trkpt>
      <trkpt lat="41.834179" lon="22.989557">
        <ele>1163.5</ele>
        <time>2026-05-06T15:58:23.000Z</time>
      </trkpt>
      <trkpt lat="41.834188" lon="22.98955">
        <ele>1163.5</ele>
        <time>2026-05-06T15:58:24.000Z</time>
      </trkpt>
      <trkpt lat="41.834196" lon="22.989543">
        <ele>1163.5</ele>
        <time>2026-05-06T15:58:25.000Z</time>
      </trkpt>
      <trkpt lat="41.834205" lon="22.989536">
        <ele>1163.5</ele>
        <time>2026-05-06T15:58:26.000Z</time>
      </trkpt>
      <trkpt lat="41.834214" lon="22.989529">
        <ele>1163.5</ele>
        <time>2026-05-06T15:58:27.000Z</time>
      </trkpt>
      <trkpt lat="41.834224" lon="22.989522">
        <ele>1163.9</ele>
        <time>2026-05-06T15:58:28.000Z</time>
      </trkpt>
      <trkpt lat="41.834235" lon="22.989515">
        <ele>1163.9</ele>
        <time>2026-05-06T15:58:29.000Z</time>
      </trkpt>
      <trkpt lat="41.834245" lon="22.989508">
        <ele>1163.9</ele>
        <time>2026-05-06T15:58:30.000Z</time>
      </trkpt>
      <trkpt lat="41.834255" lon="22.989502">
        <ele>1163.9</ele>
        <time>2026-05-06T15:58:31.000Z</time>
      </trkpt>
      <trkpt lat="41.834265" lon="22.989496">
        <ele>1163.9</ele>
        <time>2026-05-06T15:58:32.000Z</time>
      </trkpt>
      <trkpt lat="41.834275" lon="22.98949">
        <ele>1164.9</ele>
        <time>2026-05-06T15:58:33.000Z</time>
      </trkpt>
      <trkpt lat="41.834285" lon="22.989484">
        <ele>1164.9</ele>
        <time>2026-05-06T15:58:34.000Z</time>
      </trkpt>
      <trkpt lat="41.834295" lon="22.989479">
        <ele>1164.9</ele>
        <time>2026-05-06T15:58:35.000Z</time>
      </trkpt>
      <trkpt lat="41.834305" lon="22.989473">
        <ele>1164.9</ele>
        <time>2026-05-06T15:58:36.000Z</time>
      </trkpt>
      <trkpt lat="41.834315" lon="22.989468">
        <ele>1164.9</ele>
        <time>2026-05-06T15:58:37.000Z</time>
      </trkpt>
      <trkpt lat="41.834325" lon="22.989463">
        <ele>1166.1</ele>
        <time>2026-05-06T15:58:38.000Z</time>
      </trkpt>
      <trkpt lat="41.834335" lon="22.989458">
        <ele>1166.1</ele>
        <time>2026-05-06T15:58:39.000Z</time>
      </trkpt>
      <trkpt lat="41.834346" lon="22.989454">
        <ele>1166.1</ele>
        <time>2026-05-06T15:58:40.000Z</time>
      </trkpt>
      <trkpt lat="41.834356" lon="22.989449">
        <ele>1166.1</ele>
        <time>2026-05-06T15:58:41.000Z</time>
      </trkpt>
      <trkpt lat="41.834365" lon="22.989442">
        <ele>1166.1</ele>
        <time>2026-05-06T15:58:42.000Z</time>
      </trkpt>
      <trkpt lat="41.834375" lon="22.989434">
        <ele>1166.5</ele>
        <time>2026-05-06T15:58:43.000Z</time>
      </trkpt>
      <trkpt lat="41.834386" lon="22.989425">
        <ele>1166.5</ele>
        <time>2026-05-06T15:58:44.000Z</time>
      </trkpt>
      <trkpt lat="41.834398" lon="22.989416">
        <ele>1166.5</ele>
        <time>2026-05-06T15:58:45.000Z</time>
      </trkpt>
      <trkpt lat="41.834409" lon="22.989407">
        <ele>1166.5</ele>
        <time>2026-05-06T15:58:46.000Z</time>
      </trkpt>
      <trkpt lat="41.834421" lon="22.989399">
        <ele>1166.5</ele>
        <time>2026-05-06T15:58:47.000Z</time>
      </trkpt>
      <trkpt lat="41.834433" lon="22.989393">
        <ele>1167.2</ele>
        <time>2026-05-06T15:58:48.000Z</time>
      </trkpt>
      <trkpt lat="41.834445" lon="22.989388">
        <ele>1167.2</ele>
        <time>2026-05-06T15:58:49.000Z</time>
      </trkpt>
      <trkpt lat="41.834457" lon="22.989384">
        <ele>1167.2</ele>
        <time>2026-05-06T15:58:50.000Z</time>
      </trkpt>
      <trkpt lat="41.83447" lon="22.989381">
        <ele>1167.2</ele>
        <time>2026-05-06T15:58:51.000Z</time>
      </trkpt>
      <trkpt lat="41.834483" lon="22.989378">
        <ele>1167.2</ele>
        <time>2026-05-06T15:58:52.000Z</time>
      </trkpt>
      <trkpt lat="41.834497" lon="22.989376">
        <ele>1167.4</ele>
        <time>2026-05-06T15:58:53.000Z</time>
      </trkpt>
      <trkpt lat="41.834511" lon="22.989373">
        <ele>1167.4</ele>
        <time>2026-05-06T15:58:54.000Z</time>
      </trkpt>
      <trkpt lat="41.834524" lon="22.989372">
        <ele>1167.4</ele>
        <time>2026-05-06T15:58:55.000Z</time>
      </trkpt>
      <trkpt lat="41.834537" lon="22.989371">
        <ele>1167.4</ele>
        <time>2026-05-06T15:58:56.000Z</time>
      </trkpt>
      <trkpt lat="41.83455" lon="22.98937">
        <ele>1167.4</ele>
        <time>2026-05-06T15:58:57.000Z</time>
      </trkpt>
      <trkpt lat="41.834562" lon="22.989369">
        <ele>1167.5</ele>
        <time>2026-05-06T15:58:58.000Z</time>
      </trkpt>
      <trkpt lat="41.834574" lon="22.989369">
        <ele>1167.5</ele>
        <time>2026-05-06T15:58:59.000Z</time>
      </trkpt>
      <trkpt lat="41.834586" lon="22.989368">
        <ele>1167.5</ele>
        <time>2026-05-06T15:59:00.000Z</time>
      </trkpt>
      <trkpt lat="41.834597" lon="22.989366">
        <ele>1167.5</ele>
        <time>2026-05-06T15:59:01.000Z</time>
      </trkpt>
      <trkpt lat="41.83461" lon="22.989365">
        <ele>1167.5</ele>
        <time>2026-05-06T15:59:02.000Z</time>
      </trkpt>
      <trkpt lat="41.834623" lon="22.989366">
        <ele>1167.5</ele>
        <time>2026-05-06T15:59:03.000Z</time>
      </trkpt>
      <trkpt lat="41.834636" lon="22.989366">
        <ele>1167.5</ele>
        <time>2026-05-06T15:59:04.000Z</time>
      </trkpt>
      <trkpt lat="41.83465" lon="22.989367">
        <ele>1167.5</ele>
        <time>2026-05-06T15:59:05.000Z</time>
      </trkpt>
      <trkpt lat="41.834663" lon="22.989369">
        <ele>1167.5</ele>
        <time>2026-05-06T15:59:06.000Z</time>
      </trkpt>
      <trkpt lat="41.834676" lon="22.989369">
        <ele>1167.5</ele>
        <time>2026-05-06T15:59:07.000Z</time>
      </trkpt>
      <trkpt lat="41.83469" lon="22.989369">
        <ele>1167.5</ele>
        <time>2026-05-06T15:59:08.000Z</time>
      </trkpt>
      <trkpt lat="41.834702" lon="22.989368">
        <ele>1167.5</ele>
        <time>2026-05-06T15:59:09.000Z</time>
      </trkpt>
      <trkpt lat="41.834715" lon="22.989367">
        <ele>1167.5</ele>
        <time>2026-05-06T15:59:10.000Z</time>
      </trkpt>
      <trkpt lat="41.834727" lon="22.989366">
        <ele>1167.5</ele>
        <time>2026-05-06T15:59:11.000Z</time>
      </trkpt>
      <trkpt lat="41.83474" lon="22.989365">
        <ele>1167.5</ele>
        <time>2026-05-06T15:59:12.000Z</time>
      </trkpt>
      <trkpt lat="41.834753" lon="22.989365">
        <ele>1167.4</ele>
        <time>2026-05-06T15:59:13.000Z</time>
      </trkpt>
      <trkpt lat="41.834766" lon="22.989364">
        <ele>1167.4</ele>
        <time>2026-05-06T15:59:14.000Z</time>
      </trkpt>
      <trkpt lat="41.834778" lon="22.989364">
        <ele>1167.4</ele>
        <time>2026-05-06T15:59:15.000Z</time>
      </trkpt>
      <trkpt lat="41.83479" lon="22.989364">
        <ele>1167.4</ele>
        <time>2026-05-06T15:59:16.000Z</time>
      </trkpt>
      <trkpt lat="41.834801" lon="22.989364">
        <ele>1167.4</ele>
        <time>2026-05-06T15:59:17.000Z</time>
      </trkpt>
      <trkpt lat="41.834813" lon="22.989364">
        <ele>1167</ele>
        <time>2026-05-06T15:59:18.000Z</time>
      </trkpt>
      <trkpt lat="41.834826" lon="22.989363">
        <ele>1167</ele>
        <time>2026-05-06T15:59:19.000Z</time>
      </trkpt>
      <trkpt lat="41.834839" lon="22.989363">
        <ele>1167</ele>
        <time>2026-05-06T15:59:20.000Z</time>
      </trkpt>
      <trkpt lat="41.834853" lon="22.989363">
        <ele>1167</ele>
        <time>2026-05-06T15:59:21.000Z</time>
      </trkpt>
      <trkpt lat="41.834868" lon="22.989364">
        <ele>1167</ele>
        <time>2026-05-06T15:59:22.000Z</time>
      </trkpt>
      <trkpt lat="41.834884" lon="22.989365">
        <ele>1166.1</ele>
        <time>2026-05-06T15:59:23.000Z</time>
      </trkpt>
      <trkpt lat="41.834899" lon="22.989366">
        <ele>1166.1</ele>
        <time>2026-05-06T15:59:24.000Z</time>
      </trkpt>
      <trkpt lat="41.834914" lon="22.989366">
        <ele>1166.1</ele>
        <time>2026-05-06T15:59:25.000Z</time>
      </trkpt>
      <trkpt lat="41.834929" lon="22.989367">
        <ele>1166.1</ele>
        <time>2026-05-06T15:59:26.000Z</time>
      </trkpt>
      <trkpt lat="41.834944" lon="22.989367">
        <ele>1166.1</ele>
        <time>2026-05-06T15:59:27.000Z</time>
      </trkpt>
      <trkpt lat="41.834957" lon="22.989367">
        <ele>1165.5</ele>
        <time>2026-05-06T15:59:28.000Z</time>
      </trkpt>
      <trkpt lat="41.83497" lon="22.989368">
        <ele>1165.5</ele>
        <time>2026-05-06T15:59:29.000Z</time>
      </trkpt>
      <trkpt lat="41.834982" lon="22.989369">
        <ele>1165.5</ele>
        <time>2026-05-06T15:59:30.000Z</time>
      </trkpt>
      <trkpt lat="41.834993" lon="22.989371">
        <ele>1165.5</ele>
        <time>2026-05-06T15:59:31.000Z</time>
      </trkpt>
      <trkpt lat="41.835004" lon="22.989373">
        <ele>1165.5</ele>
        <time>2026-05-06T15:59:32.000Z</time>
      </trkpt>
      <trkpt lat="41.835015" lon="22.989375">
        <ele>1164.3</ele>
        <time>2026-05-06T15:59:33.000Z</time>
      </trkpt>
      <trkpt lat="41.835024" lon="22.989378">
        <ele>1164.3</ele>
        <time>2026-05-06T15:59:34.000Z</time>
      </trkpt>
      <trkpt lat="41.835033" lon="22.989381">
        <ele>1164.3</ele>
        <time>2026-05-06T15:59:35.000Z</time>
      </trkpt>
      <trkpt lat="41.835041" lon="22.989385">
        <ele>1164.3</ele>
        <time>2026-05-06T15:59:36.000Z</time>
      </trkpt>
      <trkpt lat="41.835049" lon="22.989391">
        <ele>1164.3</ele>
        <time>2026-05-06T15:59:37.000Z</time>
      </trkpt>
      <trkpt lat="41.835058" lon="22.989396">
        <ele>1163.2</ele>
        <time>2026-05-06T15:59:38.000Z</time>
      </trkpt>
      <trkpt lat="41.835069" lon="22.9894">
        <ele>1163.2</ele>
        <time>2026-05-06T15:59:39.000Z</time>
      </trkpt>
      <trkpt lat="41.83508" lon="22.989405">
        <ele>1163.2</ele>
        <time>2026-05-06T15:59:40.000Z</time>
      </trkpt>
      <trkpt lat="41.835091" lon="22.989409">
        <ele>1163.2</ele>
        <time>2026-05-06T15:59:41.000Z</time>
      </trkpt>
      <trkpt lat="41.835101" lon="22.989415">
        <ele>1163.2</ele>
        <time>2026-05-06T15:59:42.000Z</time>
      </trkpt>
      <trkpt lat="41.835109" lon="22.98942">
        <ele>1162.7</ele>
        <time>2026-05-06T15:59:43.000Z</time>
      </trkpt>
      <trkpt lat="41.835117" lon="22.989426">
        <ele>1162.7</ele>
        <time>2026-05-06T15:59:44.000Z</time>
      </trkpt>
      <trkpt lat="41.835124" lon="22.98943">
        <ele>1162.7</ele>
        <time>2026-05-06T15:59:45.000Z</time>
      </trkpt>
      <trkpt lat="41.835132" lon="22.989435">
        <ele>1162.7</ele>
        <time>2026-05-06T15:59:46.000Z</time>
      </trkpt>
      <trkpt lat="41.835141" lon="22.989439">
        <ele>1162.7</ele>
        <time>2026-05-06T15:59:47.000Z</time>
      </trkpt>
      <trkpt lat="41.835151" lon="22.989442">
        <ele>1161.8</ele>
        <time>2026-05-06T15:59:48.000Z</time>
      </trkpt>
      <trkpt lat="41.835162" lon="22.989444">
        <ele>1161.8</ele>
        <time>2026-05-06T15:59:49.000Z</time>
      </trkpt>
      <trkpt lat="41.835175" lon="22.989445">
        <ele>1161.8</ele>
        <time>2026-05-06T15:59:50.000Z</time>
      </trkpt>
      <trkpt lat="41.835188" lon="22.989444">
        <ele>1161.8</ele>
        <time>2026-05-06T15:59:51.000Z</time>
      </trkpt>
      <trkpt lat="41.835202" lon="22.989443">
        <ele>1161.8</ele>
        <time>2026-05-06T15:59:52.000Z</time>
      </trkpt>
      <trkpt lat="41.835216" lon="22.989441">
        <ele>1160.8</ele>
        <time>2026-05-06T15:59:53.000Z</time>
      </trkpt>
      <trkpt lat="41.83523" lon="22.989439">
        <ele>1160.8</ele>
        <time>2026-05-06T15:59:54.000Z</time>
      </trkpt>
      <trkpt lat="41.835244" lon="22.989438">
        <ele>1160.8</ele>
        <time>2026-05-06T15:59:55.000Z</time>
      </trkpt>
      <trkpt lat="41.835257" lon="22.989437">
        <ele>1160.8</ele>
        <time>2026-05-06T15:59:56.000Z</time>
      </trkpt>
      <trkpt lat="41.83527" lon="22.989438">
        <ele>1160.8</ele>
        <time>2026-05-06T15:59:57.000Z</time>
      </trkpt>
      <trkpt lat="41.835282" lon="22.98944">
        <ele>1160.2</ele>
        <time>2026-05-06T15:59:58.000Z</time>
      </trkpt>
      <trkpt lat="41.835293" lon="22.989444">
        <ele>1160.2</ele>
        <time>2026-05-06T15:59:59.000Z</time>
      </trkpt>
      <trkpt lat="41.835304" lon="22.989448">
        <ele>1160.2</ele>
        <time>2026-05-06T16:00:00.000Z</time>
      </trkpt>
      <trkpt lat="41.835316" lon="22.989452">
        <ele>1160.2</ele>
        <time>2026-05-06T16:00:01.000Z</time>
      </trkpt>
      <trkpt lat="41.835328" lon="22.989455">
        <ele>1160.2</ele>
        <time>2026-05-06T16:00:02.000Z</time>
      </trkpt>
      <trkpt lat="41.835341" lon="22.989458">
        <ele>1158.9</ele>
        <time>2026-05-06T16:00:03.000Z</time>
      </trkpt>
      <trkpt lat="41.835354" lon="22.989461">
        <ele>1158.9</ele>
        <time>2026-05-06T16:00:04.000Z</time>
      </trkpt>
      <trkpt lat="41.835368" lon="22.989464">
        <ele>1158.9</ele>
        <time>2026-05-06T16:00:05.000Z</time>
      </trkpt>
      <trkpt lat="41.835381" lon="22.989469">
        <ele>1158.9</ele>
        <time>2026-05-06T16:00:06.000Z</time>
      </trkpt>
      <trkpt lat="41.835394" lon="22.989473">
        <ele>1158.9</ele>
        <time>2026-05-06T16:00:07.000Z</time>
      </trkpt>
      <trkpt lat="41.835407" lon="22.989479">
        <ele>1157.7</ele>
        <time>2026-05-06T16:00:08.000Z</time>
      </trkpt>
      <trkpt lat="41.83542" lon="22.989486">
        <ele>1157.7</ele>
        <time>2026-05-06T16:00:09.000Z</time>
      </trkpt>
      <trkpt lat="41.835433" lon="22.989495">
        <ele>1157.7</ele>
        <time>2026-05-06T16:00:10.000Z</time>
      </trkpt>
      <trkpt lat="41.835444" lon="22.989503">
        <ele>1157.7</ele>
        <time>2026-05-06T16:00:11.000Z</time>
      </trkpt>
      <trkpt lat="41.835456" lon="22.989511">
        <ele>1157.7</ele>
        <time>2026-05-06T16:00:12.000Z</time>
      </trkpt>
      <trkpt lat="41.835467" lon="22.989518">
        <ele>1157.1</ele>
        <time>2026-05-06T16:00:13.000Z</time>
      </trkpt>
      <trkpt lat="41.835477" lon="22.989524">
        <ele>1157.1</ele>
        <time>2026-05-06T16:00:14.000Z</time>
      </trkpt>
      <trkpt lat="41.835486" lon="22.989528">
        <ele>1157.1</ele>
        <time>2026-05-06T16:00:15.000Z</time>
      </trkpt>
      <trkpt lat="41.835496" lon="22.989533">
        <ele>1157.1</ele>
        <time>2026-05-06T16:00:16.000Z</time>
      </trkpt>
      <trkpt lat="41.835505" lon="22.989538">
        <ele>1157.1</ele>
        <time>2026-05-06T16:00:17.000Z</time>
      </trkpt>
      <trkpt lat="41.835512" lon="22.989542">
        <ele>1155.9</ele>
        <time>2026-05-06T16:00:18.000Z</time>
      </trkpt>
      <trkpt lat="41.835519" lon="22.989545">
        <ele>1155.9</ele>
        <time>2026-05-06T16:00:19.000Z</time>
      </trkpt>
      <trkpt lat="41.835526" lon="22.989546">
        <ele>1155.9</ele>
        <time>2026-05-06T16:00:20.000Z</time>
      </trkpt>
      <trkpt lat="41.835534" lon="22.989545">
        <ele>1155.9</ele>
        <time>2026-05-06T16:00:21.000Z</time>
      </trkpt>
      <trkpt lat="41.835543" lon="22.989544">
        <ele>1155.9</ele>
        <time>2026-05-06T16:00:22.000Z</time>
      </trkpt>
      <trkpt lat="41.835552" lon="22.989542">
        <ele>1154.8</ele>
        <time>2026-05-06T16:00:23.000Z</time>
      </trkpt>
      <trkpt lat="41.835563" lon="22.98954">
        <ele>1154.8</ele>
        <time>2026-05-06T16:00:24.000Z</time>
      </trkpt>
      <trkpt lat="41.835574" lon="22.989539">
        <ele>1154.8</ele>
        <time>2026-05-06T16:00:25.000Z</time>
      </trkpt>
      <trkpt lat="41.835584" lon="22.989539">
        <ele>1154.8</ele>
        <time>2026-05-06T16:00:26.000Z</time>
      </trkpt>
      <trkpt lat="41.835595" lon="22.989537">
        <ele>1154.8</ele>
        <time>2026-05-06T16:00:27.000Z</time>
      </trkpt>
      <trkpt lat="41.835605" lon="22.989536">
        <ele>1154.4</ele>
        <time>2026-05-06T16:00:28.000Z</time>
      </trkpt>
      <trkpt lat="41.835615" lon="22.989534">
        <ele>1154.4</ele>
        <time>2026-05-06T16:00:29.000Z</time>
      </trkpt>
      <trkpt lat="41.835626" lon="22.989532">
        <ele>1154.4</ele>
        <time>2026-05-06T16:00:30.000Z</time>
      </trkpt>
      <trkpt lat="41.835639" lon="22.989529">
        <ele>1154.4</ele>
        <time>2026-05-06T16:00:31.000Z</time>
      </trkpt>
      <trkpt lat="41.835652" lon="22.989525">
        <ele>1154.4</ele>
        <time>2026-05-06T16:00:32.000Z</time>
      </trkpt>
      <trkpt lat="41.835666" lon="22.989522">
        <ele>1154</ele>
        <time>2026-05-06T16:00:33.000Z</time>
      </trkpt>
      <trkpt lat="41.835681" lon="22.989519">
        <ele>1154</ele>
        <time>2026-05-06T16:00:34.000Z</time>
      </trkpt>
      <trkpt lat="41.835695" lon="22.989517">
        <ele>1154</ele>
        <time>2026-05-06T16:00:35.000Z</time>
      </trkpt>
      <trkpt lat="41.835709" lon="22.989516">
        <ele>1154</ele>
        <time>2026-05-06T16:00:36.000Z</time>
      </trkpt>
      <trkpt lat="41.835723" lon="22.989516">
        <ele>1154</ele>
        <time>2026-05-06T16:00:37.000Z</time>
      </trkpt>
      <trkpt lat="41.835736" lon="22.989516">
        <ele>1153.8</ele>
        <time>2026-05-06T16:00:38.000Z</time>
      </trkpt>
      <trkpt lat="41.835749" lon="22.989515">
        <ele>1153.8</ele>
        <time>2026-05-06T16:00:39.000Z</time>
      </trkpt>
      <trkpt lat="41.835762" lon="22.989514">
        <ele>1153.8</ele>
        <time>2026-05-06T16:00:40.000Z</time>
      </trkpt>
      <trkpt lat="41.835775" lon="22.989513">
        <ele>1153.8</ele>
        <time>2026-05-06T16:00:41.000Z</time>
      </trkpt>
      <trkpt lat="41.835787" lon="22.989512">
        <ele>1153.8</ele>
        <time>2026-05-06T16:00:42.000Z</time>
      </trkpt>
      <trkpt lat="41.835801" lon="22.98951">
        <ele>1153.8</ele>
        <time>2026-05-06T16:00:43.000Z</time>
      </trkpt>
      <trkpt lat="41.835814" lon="22.989509">
        <ele>1153.8</ele>
        <time>2026-05-06T16:00:44.000Z</time>
      </trkpt>
      <trkpt lat="41.835827" lon="22.989507">
        <ele>1153.8</ele>
        <time>2026-05-06T16:00:45.000Z</time>
      </trkpt>
      <trkpt lat="41.83584" lon="22.989504">
        <ele>1153.8</ele>
        <time>2026-05-06T16:00:46.000Z</time>
      </trkpt>
      <trkpt lat="41.835853" lon="22.989502">
        <ele>1153.8</ele>
        <time>2026-05-06T16:00:47.000Z</time>
      </trkpt>
      <trkpt lat="41.835864" lon="22.9895">
        <ele>1153.6</ele>
        <time>2026-05-06T16:00:48.000Z</time>
      </trkpt>
      <trkpt lat="41.835875" lon="22.989497">
        <ele>1153.6</ele>
        <time>2026-05-06T16:00:49.000Z</time>
      </trkpt>
      <trkpt lat="41.835885" lon="22.989496">
        <ele>1153.6</ele>
        <time>2026-05-06T16:00:50.000Z</time>
      </trkpt>
      <trkpt lat="41.835895" lon="22.989495">
        <ele>1153.6</ele>
        <time>2026-05-06T16:00:51.000Z</time>
      </trkpt>
      <trkpt lat="41.835906" lon="22.989493">
        <ele>1153.6</ele>
        <time>2026-05-06T16:00:52.000Z</time>
      </trkpt>
      <trkpt lat="41.835917" lon="22.989491">
        <ele>1153.4</ele>
        <time>2026-05-06T16:00:53.000Z</time>
      </trkpt>
      <trkpt lat="41.83593" lon="22.989487">
        <ele>1153.4</ele>
        <time>2026-05-06T16:00:54.000Z</time>
      </trkpt>
      <trkpt lat="41.835942" lon="22.989483">
        <ele>1153.4</ele>
        <time>2026-05-06T16:00:55.000Z</time>
      </trkpt>
      <trkpt lat="41.835953" lon="22.989477">
        <ele>1153.4</ele>
        <time>2026-05-06T16:00:56.000Z</time>
      </trkpt>
      <trkpt lat="41.835965" lon="22.989471">
        <ele>1153.4</ele>
        <time>2026-05-06T16:00:57.000Z</time>
      </trkpt>
      <trkpt lat="41.835977" lon="22.989465">
        <ele>1153.3</ele>
        <time>2026-05-06T16:00:58.000Z</time>
      </trkpt>
      <trkpt lat="41.835989" lon="22.989459">
        <ele>1153.3</ele>
        <time>2026-05-06T16:00:59.000Z</time>
      </trkpt>
      <trkpt lat="41.836001" lon="22.989455">
        <ele>1153.3</ele>
        <time>2026-05-06T16:01:00.000Z</time>
      </trkpt>
      <trkpt lat="41.836012" lon="22.989453">
        <ele>1153.3</ele>
        <time>2026-05-06T16:01:01.000Z</time>
      </trkpt>
      <trkpt lat="41.836022" lon="22.989452">
        <ele>1153.3</ele>
        <time>2026-05-06T16:01:02.000Z</time>
      </trkpt>
      <trkpt lat="41.836031" lon="22.989452">
        <ele>1152.8</ele>
        <time>2026-05-06T16:01:03.000Z</time>
      </trkpt>
      <trkpt lat="41.83604" lon="22.989452">
        <ele>1152.8</ele>
        <time>2026-05-06T16:01:04.000Z</time>
      </trkpt>
      <trkpt lat="41.83605" lon="22.98945">
        <ele>1152.8</ele>
        <time>2026-05-06T16:01:05.000Z</time>
      </trkpt>
      <trkpt lat="41.836061" lon="22.989447">
        <ele>1152.8</ele>
        <time>2026-05-06T16:01:06.000Z</time>
      </trkpt>
      <trkpt lat="41.836072" lon="22.989442">
        <ele>1152.8</ele>
        <time>2026-05-06T16:01:07.000Z</time>
      </trkpt>
      <trkpt lat="41.836082" lon="22.989437">
        <ele>1151.9</ele>
        <time>2026-05-06T16:01:08.000Z</time>
      </trkpt>
      <trkpt lat="41.836093" lon="22.989431">
        <ele>1151.9</ele>
        <time>2026-05-06T16:01:09.000Z</time>
      </trkpt>
      <trkpt lat="41.836103" lon="22.989427">
        <ele>1151.9</ele>
        <time>2026-05-06T16:01:10.000Z</time>
      </trkpt>
      <trkpt lat="41.836114" lon="22.989424">
        <ele>1151.9</ele>
        <time>2026-05-06T16:01:11.000Z</time>
      </trkpt>
      <trkpt lat="41.836126" lon="22.989422">
        <ele>1151.9</ele>
        <time>2026-05-06T16:01:12.000Z</time>
      </trkpt>
      <trkpt lat="41.83614" lon="22.989422">
        <ele>1151.6</ele>
        <time>2026-05-06T16:01:13.000Z</time>
      </trkpt>
      <trkpt lat="41.836154" lon="22.989422">
        <ele>1151.6</ele>
        <time>2026-05-06T16:01:14.000Z</time>
      </trkpt>
      <trkpt lat="41.836167" lon="22.98942">
        <ele>1151.6</ele>
        <time>2026-05-06T16:01:15.000Z</time>
      </trkpt>
      <trkpt lat="41.83618" lon="22.989418">
        <ele>1151.6</ele>
        <time>2026-05-06T16:01:16.000Z</time>
      </trkpt>
      <trkpt lat="41.836192" lon="22.989416">
        <ele>1151.6</ele>
        <time>2026-05-06T16:01:17.000Z</time>
      </trkpt>
      <trkpt lat="41.836203" lon="22.989413">
        <ele>1151</ele>
        <time>2026-05-06T16:01:18.000Z</time>
      </trkpt>
      <trkpt lat="41.836214" lon="22.98941">
        <ele>1151</ele>
        <time>2026-05-06T16:01:19.000Z</time>
      </trkpt>
      <trkpt lat="41.836226" lon="22.989406">
        <ele>1151</ele>
        <time>2026-05-06T16:01:20.000Z</time>
      </trkpt>
      <trkpt lat="41.836238" lon="22.989403">
        <ele>1151</ele>
        <time>2026-05-06T16:01:21.000Z</time>
      </trkpt>
      <trkpt lat="41.83625" lon="22.989399">
        <ele>1151</ele>
        <time>2026-05-06T16:01:22.000Z</time>
      </trkpt>
      <trkpt lat="41.836262" lon="22.989394">
        <ele>1150.9</ele>
        <time>2026-05-06T16:01:23.000Z</time>
      </trkpt>
      <trkpt lat="41.836274" lon="22.989389">
        <ele>1150.9</ele>
        <time>2026-05-06T16:01:24.000Z</time>
      </trkpt>
      <trkpt lat="41.836284" lon="22.989384">
        <ele>1150.9</ele>
        <time>2026-05-06T16:01:25.000Z</time>
      </trkpt>
      <trkpt lat="41.836295" lon="22.989378">
        <ele>1150.9</ele>
        <time>2026-05-06T16:01:26.000Z</time>
      </trkpt>
      <trkpt lat="41.836306" lon="22.989372">
        <ele>1150.9</ele>
        <time>2026-05-06T16:01:27.000Z</time>
      </trkpt>
      <trkpt lat="41.836317" lon="22.989365">
        <ele>1150.9</ele>
        <time>2026-05-06T16:01:28.000Z</time>
      </trkpt>
      <trkpt lat="41.83633" lon="22.989358">
        <ele>1150.9</ele>
        <time>2026-05-06T16:01:29.000Z</time>
      </trkpt>
      <trkpt lat="41.836343" lon="22.989351">
        <ele>1150.9</ele>
        <time>2026-05-06T16:01:30.000Z</time>
      </trkpt>
      <trkpt lat="41.836355" lon="22.989345">
        <ele>1150.9</ele>
        <time>2026-05-06T16:01:31.000Z</time>
      </trkpt>
      <trkpt lat="41.836367" lon="22.989339">
        <ele>1150.9</ele>
        <time>2026-05-06T16:01:32.000Z</time>
      </trkpt>
      <trkpt lat="41.836379" lon="22.989333">
        <ele>1151</ele>
        <time>2026-05-06T16:01:33.000Z</time>
      </trkpt>
      <trkpt lat="41.83639" lon="22.989327">
        <ele>1151</ele>
        <time>2026-05-06T16:01:34.000Z</time>
      </trkpt>
      <trkpt lat="41.836401" lon="22.989321">
        <ele>1151</ele>
        <time>2026-05-06T16:01:35.000Z</time>
      </trkpt>
      <trkpt lat="41.836413" lon="22.989315">
        <ele>1151</ele>
        <time>2026-05-06T16:01:36.000Z</time>
      </trkpt>
      <trkpt lat="41.836424" lon="22.989309">
        <ele>1151</ele>
        <time>2026-05-06T16:01:37.000Z</time>
      </trkpt>
      <trkpt lat="41.836435" lon="22.989301">
        <ele>1151.2</ele>
        <time>2026-05-06T16:01:38.000Z</time>
      </trkpt>
      <trkpt lat="41.836446" lon="22.989294">
        <ele>1151.2</ele>
        <time>2026-05-06T16:01:39.000Z</time>
      </trkpt>
      <trkpt lat="41.836456" lon="22.989287">
        <ele>1151.2</ele>
        <time>2026-05-06T16:01:40.000Z</time>
      </trkpt>
      <trkpt lat="41.836466" lon="22.989281">
        <ele>1151.2</ele>
        <time>2026-05-06T16:01:41.000Z</time>
      </trkpt>
      <trkpt lat="41.836477" lon="22.989274">
        <ele>1151.2</ele>
        <time>2026-05-06T16:01:42.000Z</time>
      </trkpt>
      <trkpt lat="41.836487" lon="22.989268">
        <ele>1151.4</ele>
        <time>2026-05-06T16:01:43.000Z</time>
      </trkpt>
      <trkpt lat="41.8365" lon="22.989261">
        <ele>1151.4</ele>
        <time>2026-05-06T16:01:44.000Z</time>
      </trkpt>
      <trkpt lat="41.836512" lon="22.989254">
        <ele>1151.4</ele>
        <time>2026-05-06T16:01:45.000Z</time>
      </trkpt>
      <trkpt lat="41.836524" lon="22.989248">
        <ele>1151.4</ele>
        <time>2026-05-06T16:01:46.000Z</time>
      </trkpt>
      <trkpt lat="41.836536" lon="22.989242">
        <ele>1151.4</ele>
        <time>2026-05-06T16:01:47.000Z</time>
      </trkpt>
      <trkpt lat="41.836548" lon="22.989238">
        <ele>1151.8</ele>
        <time>2026-05-06T16:01:48.000Z</time>
      </trkpt>
      <trkpt lat="41.836558" lon="22.989235">
        <ele>1151.8</ele>
        <time>2026-05-06T16:01:49.000Z</time>
      </trkpt>
      <trkpt lat="41.836569" lon="22.989233">
        <ele>1151.8</ele>
        <time>2026-05-06T16:01:50.000Z</time>
      </trkpt>
      <trkpt lat="41.83658" lon="22.98923">
        <ele>1151.8</ele>
        <time>2026-05-06T16:01:51.000Z</time>
      </trkpt>
      <trkpt lat="41.836593" lon="22.989228">
        <ele>1151.8</ele>
        <time>2026-05-06T16:01:52.000Z</time>
      </trkpt>
      <trkpt lat="41.836606" lon="22.989226">
        <ele>1151.6</ele>
        <time>2026-05-06T16:01:53.000Z</time>
      </trkpt>
      <trkpt lat="41.83662" lon="22.989223">
        <ele>1151.6</ele>
        <time>2026-05-06T16:01:54.000Z</time>
      </trkpt>
      <trkpt lat="41.836633" lon="22.98922">
        <ele>1151.6</ele>
        <time>2026-05-06T16:01:55.000Z</time>
      </trkpt>
      <trkpt lat="41.836645" lon="22.989216">
        <ele>1151.6</ele>
        <time>2026-05-06T16:01:56.000Z</time>
      </trkpt>
      <trkpt lat="41.836657" lon="22.989212">
        <ele>1151.6</ele>
        <time>2026-05-06T16:01:57.000Z</time>
      </trkpt>
      <trkpt lat="41.836669" lon="22.989207">
        <ele>1151.3</ele>
        <time>2026-05-06T16:01:58.000Z</time>
      </trkpt>
      <trkpt lat="41.836681" lon="22.989203">
        <ele>1151.3</ele>
        <time>2026-05-06T16:01:59.000Z</time>
      </trkpt>
      <trkpt lat="41.836693" lon="22.989201">
        <ele>1151.3</ele>
        <time>2026-05-06T16:02:00.000Z</time>
      </trkpt>
      <trkpt lat="41.836706" lon="22.989198">
        <ele>1151.3</ele>
        <time>2026-05-06T16:02:01.000Z</time>
      </trkpt>
      <trkpt lat="41.836719" lon="22.989195">
        <ele>1151.3</ele>
        <time>2026-05-06T16:02:02.000Z</time>
      </trkpt>
      <trkpt lat="41.836732" lon="22.989193">
        <ele>1150.8</ele>
        <time>2026-05-06T16:02:03.000Z</time>
      </trkpt>
      <trkpt lat="41.836746" lon="22.989191">
        <ele>1150.8</ele>
        <time>2026-05-06T16:02:04.000Z</time>
      </trkpt>
      <trkpt lat="41.83676" lon="22.989187">
        <ele>1150.8</ele>
        <time>2026-05-06T16:02:05.000Z</time>
      </trkpt>
      <trkpt lat="41.836775" lon="22.989184">
        <ele>1150.8</ele>
        <time>2026-05-06T16:02:06.000Z</time>
      </trkpt>
      <trkpt lat="41.836788" lon="22.989181">
        <ele>1150.8</ele>
        <time>2026-05-06T16:02:07.000Z</time>
      </trkpt>
      <trkpt lat="41.836801" lon="22.989179">
        <ele>1150.2</ele>
        <time>2026-05-06T16:02:08.000Z</time>
      </trkpt>
      <trkpt lat="41.836813" lon="22.989177">
        <ele>1150.2</ele>
        <time>2026-05-06T16:02:09.000Z</time>
      </trkpt>
      <trkpt lat="41.836825" lon="22.989177">
        <ele>1150.2</ele>
        <time>2026-05-06T16:02:10.000Z</time>
      </trkpt>
      <trkpt lat="41.836838" lon="22.989176">
        <ele>1150.2</ele>
        <time>2026-05-06T16:02:11.000Z</time>
      </trkpt>
      <trkpt lat="41.836851" lon="22.989176">
        <ele>1150.2</ele>
        <time>2026-05-06T16:02:12.000Z</time>
      </trkpt>
      <trkpt lat="41.836863" lon="22.989175">
        <ele>1149.8</ele>
        <time>2026-05-06T16:02:13.000Z</time>
      </trkpt>
      <trkpt lat="41.836875" lon="22.989172">
        <ele>1149.8</ele>
        <time>2026-05-06T16:02:14.000Z</time>
      </trkpt>
      <trkpt lat="41.836887" lon="22.989169">
        <ele>1149.8</ele>
        <time>2026-05-06T16:02:15.000Z</time>
      </trkpt>
      <trkpt lat="41.836899" lon="22.989167">
        <ele>1149.8</ele>
        <time>2026-05-06T16:02:16.000Z</time>
      </trkpt>
      <trkpt lat="41.836911" lon="22.989165">
        <ele>1149.8</ele>
        <time>2026-05-06T16:02:17.000Z</time>
      </trkpt>
      <trkpt lat="41.836924" lon="22.989163">
        <ele>1148.7</ele>
        <time>2026-05-06T16:02:18.000Z</time>
      </trkpt>
      <trkpt lat="41.836938" lon="22.989164">
        <ele>1148.7</ele>
        <time>2026-05-06T16:02:19.000Z</time>
      </trkpt>
      <trkpt lat="41.836952" lon="22.989165">
        <ele>1148.7</ele>
        <time>2026-05-06T16:02:20.000Z</time>
      </trkpt>
      <trkpt lat="41.836967" lon="22.989166">
        <ele>1148.7</ele>
        <time>2026-05-06T16:02:21.000Z</time>
      </trkpt>
      <trkpt lat="41.83698" lon="22.989168">
        <ele>1148.7</ele>
        <time>2026-05-06T16:02:22.000Z</time>
      </trkpt>
      <trkpt lat="41.836993" lon="22.98917">
        <ele>1147.7</ele>
        <time>2026-05-06T16:02:23.000Z</time>
      </trkpt>
      <trkpt lat="41.837005" lon="22.989171">
        <ele>1147.7</ele>
        <time>2026-05-06T16:02:24.000Z</time>
      </trkpt>
      <trkpt lat="41.837016" lon="22.989174">
        <ele>1147.7</ele>
        <time>2026-05-06T16:02:25.000Z</time>
      </trkpt>
      <trkpt lat="41.837027" lon="22.989177">
        <ele>1147.7</ele>
        <time>2026-05-06T16:02:26.000Z</time>
      </trkpt>
      <trkpt lat="41.837038" lon="22.98918">
        <ele>1147.7</ele>
        <time>2026-05-06T16:02:27.000Z</time>
      </trkpt>
      <trkpt lat="41.83705" lon="22.989182">
        <ele>1147.3</ele>
        <time>2026-05-06T16:02:28.000Z</time>
      </trkpt>
      <trkpt lat="41.837063" lon="22.989185">
        <ele>1147.3</ele>
        <time>2026-05-06T16:02:29.000Z</time>
      </trkpt>
      <trkpt lat="41.837076" lon="22.989187">
        <ele>1147.3</ele>
        <time>2026-05-06T16:02:30.000Z</time>
      </trkpt>
      <trkpt lat="41.837086" lon="22.989188">
        <ele>1147.3</ele>
        <time>2026-05-06T16:02:31.000Z</time>
      </trkpt>
      <trkpt lat="41.837097" lon="22.989189">
        <ele>1147.3</ele>
        <time>2026-05-06T16:02:32.000Z</time>
      </trkpt>
      <trkpt lat="41.837108" lon="22.98919">
        <ele>1146.7</ele>
        <time>2026-05-06T16:02:33.000Z</time>
      </trkpt>
      <trkpt lat="41.837118" lon="22.989189">
        <ele>1146.7</ele>
        <time>2026-05-06T16:02:34.000Z</time>
      </trkpt>
      <trkpt lat="41.837128" lon="22.989187">
        <ele>1146.7</ele>
        <time>2026-05-06T16:02:35.000Z</time>
      </trkpt>
      <trkpt lat="41.83714" lon="22.989185">
        <ele>1146.7</ele>
        <time>2026-05-06T16:02:36.000Z</time>
      </trkpt>
      <trkpt lat="41.83715" lon="22.989183">
        <ele>1146.7</ele>
        <time>2026-05-06T16:02:37.000Z</time>
      </trkpt>
      <trkpt lat="41.837158" lon="22.989181">
        <ele>1146.3</ele>
        <time>2026-05-06T16:02:38.000Z</time>
      </trkpt>
      <trkpt lat="41.837166" lon="22.989178">
        <ele>1146.3</ele>
        <time>2026-05-06T16:02:39.000Z</time>
      </trkpt>
      <trkpt lat="41.837174" lon="22.989175">
        <ele>1146.3</ele>
        <time>2026-05-06T16:02:40.000Z</time>
      </trkpt>
      <trkpt lat="41.837183" lon="22.989172">
        <ele>1146.3</ele>
        <time>2026-05-06T16:02:41.000Z</time>
      </trkpt>
      <trkpt lat="41.837193" lon="22.989169">
        <ele>1146.3</ele>
        <time>2026-05-06T16:02:42.000Z</time>
      </trkpt>
      <trkpt lat="41.837204" lon="22.989165">
        <ele>1146</ele>
        <time>2026-05-06T16:02:43.000Z</time>
      </trkpt>
      <trkpt lat="41.837215" lon="22.989163">
        <ele>1146</ele>
        <time>2026-05-06T16:02:44.000Z</time>
      </trkpt>
      <trkpt lat="41.837226" lon="22.98916">
        <ele>1146</ele>
        <time>2026-05-06T16:02:45.000Z</time>
      </trkpt>
      <trkpt lat="41.837237" lon="22.989156">
        <ele>1146</ele>
        <time>2026-05-06T16:02:46.000Z</time>
      </trkpt>
      <trkpt lat="41.837248" lon="22.989151">
        <ele>1146</ele>
        <time>2026-05-06T16:02:47.000Z</time>
      </trkpt>
      <trkpt lat="41.837258" lon="22.989145">
        <ele>1145.7</ele>
        <time>2026-05-06T16:02:48.000Z</time>
      </trkpt>
      <trkpt lat="41.837268" lon="22.989139">
        <ele>1145.7</ele>
        <time>2026-05-06T16:02:49.000Z</time>
      </trkpt>
      <trkpt lat="41.837278" lon="22.989134">
        <ele>1145.7</ele>
        <time>2026-05-06T16:02:50.000Z</time>
      </trkpt>
      <trkpt lat="41.837288" lon="22.989129">
        <ele>1145.7</ele>
        <time>2026-05-06T16:02:51.000Z</time>
      </trkpt>
      <trkpt lat="41.837299" lon="22.989125">
        <ele>1145.7</ele>
        <time>2026-05-06T16:02:52.000Z</time>
      </trkpt>
      <trkpt lat="41.837312" lon="22.989122">
        <ele>1145.6</ele>
        <time>2026-05-06T16:02:53.000Z</time>
      </trkpt>
      <trkpt lat="41.837326" lon="22.98912">
        <ele>1145.6</ele>
        <time>2026-05-06T16:02:54.000Z</time>
      </trkpt>
      <trkpt lat="41.837339" lon="22.989121">
        <ele>1145.6</ele>
        <time>2026-05-06T16:02:55.000Z</time>
      </trkpt>
      <trkpt lat="41.837352" lon="22.989121">
        <ele>1145.6</ele>
        <time>2026-05-06T16:02:56.000Z</time>
      </trkpt>
      <trkpt lat="41.837364" lon="22.989123">
        <ele>1145.6</ele>
        <time>2026-05-06T16:02:57.000Z</time>
      </trkpt>
      <trkpt lat="41.837376" lon="22.989125">
        <ele>1145.6</ele>
        <time>2026-05-06T16:02:58.000Z</time>
      </trkpt>
      <trkpt lat="41.837388" lon="22.989127">
        <ele>1145.6</ele>
        <time>2026-05-06T16:02:59.000Z</time>
      </trkpt>
      <trkpt lat="41.8374" lon="22.989129">
        <ele>1145.6</ele>
        <time>2026-05-06T16:03:00.000Z</time>
      </trkpt>
      <trkpt lat="41.837411" lon="22.989131">
        <ele>1145.6</ele>
        <time>2026-05-06T16:03:01.000Z</time>
      </trkpt>
      <trkpt lat="41.837425" lon="22.989133">
        <ele>1145.6</ele>
        <time>2026-05-06T16:03:02.000Z</time>
      </trkpt>
      <trkpt lat="41.837437" lon="22.989134">
        <ele>1145.6</ele>
        <time>2026-05-06T16:03:03.000Z</time>
      </trkpt>
      <trkpt lat="41.83745" lon="22.989135">
        <ele>1145.6</ele>
        <time>2026-05-06T16:03:04.000Z</time>
      </trkpt>
      <trkpt lat="41.837463" lon="22.989134">
        <ele>1145.6</ele>
        <time>2026-05-06T16:03:05.000Z</time>
      </trkpt>
      <trkpt lat="41.837476" lon="22.989134">
        <ele>1145.6</ele>
        <time>2026-05-06T16:03:06.000Z</time>
      </trkpt>
      <trkpt lat="41.837487" lon="22.989132">
        <ele>1145.6</ele>
        <time>2026-05-06T16:03:07.000Z</time>
      </trkpt>
      <trkpt lat="41.837498" lon="22.989131">
        <ele>1145.7</ele>
        <time>2026-05-06T16:03:08.000Z</time>
      </trkpt>
      <trkpt lat="41.83751" lon="22.98913">
        <ele>1145.7</ele>
        <time>2026-05-06T16:03:09.000Z</time>
      </trkpt>
      <trkpt lat="41.837523" lon="22.98913">
        <ele>1145.7</ele>
        <time>2026-05-06T16:03:10.000Z</time>
      </trkpt>
      <trkpt lat="41.837536" lon="22.989131">
        <ele>1145.7</ele>
        <time>2026-05-06T16:03:11.000Z</time>
      </trkpt>
      <trkpt lat="41.83755" lon="22.989133">
        <ele>1145.7</ele>
        <time>2026-05-06T16:03:12.000Z</time>
      </trkpt>
      <trkpt lat="41.837563" lon="22.989137">
        <ele>1145.7</ele>
        <time>2026-05-06T16:03:13.000Z</time>
      </trkpt>
      <trkpt lat="41.837577" lon="22.989141">
        <ele>1145.7</ele>
        <time>2026-05-06T16:03:14.000Z</time>
      </trkpt>
      <trkpt lat="41.83759" lon="22.989145">
        <ele>1145.7</ele>
        <time>2026-05-06T16:03:15.000Z</time>
      </trkpt>
      <trkpt lat="41.837603" lon="22.989149">
        <ele>1145.7</ele>
        <time>2026-05-06T16:03:16.000Z</time>
      </trkpt>
      <trkpt lat="41.837615" lon="22.989152">
        <ele>1145.7</ele>
        <time>2026-05-06T16:03:17.000Z</time>
      </trkpt>
      <trkpt lat="41.837628" lon="22.989155">
        <ele>1145.7</ele>
        <time>2026-05-06T16:03:18.000Z</time>
      </trkpt>
      <trkpt lat="41.83764" lon="22.989158">
        <ele>1145.7</ele>
        <time>2026-05-06T16:03:19.000Z</time>
      </trkpt>
      <trkpt lat="41.837653" lon="22.989161">
        <ele>1145.7</ele>
        <time>2026-05-06T16:03:20.000Z</time>
      </trkpt>
      <trkpt lat="41.837665" lon="22.989164">
        <ele>1145.7</ele>
        <time>2026-05-06T16:03:21.000Z</time>
      </trkpt>
      <trkpt lat="41.837677" lon="22.989167">
        <ele>1145.7</ele>
        <time>2026-05-06T16:03:22.000Z</time>
      </trkpt>
      <trkpt lat="41.837688" lon="22.989169">
        <ele>1145.8</ele>
        <time>2026-05-06T16:03:23.000Z</time>
      </trkpt>
      <trkpt lat="41.837699" lon="22.989172">
        <ele>1145.8</ele>
        <time>2026-05-06T16:03:24.000Z</time>
      </trkpt>
      <trkpt lat="41.83771" lon="22.989174">
        <ele>1145.8</ele>
        <time>2026-05-06T16:03:25.000Z</time>
      </trkpt>
      <trkpt lat="41.837721" lon="22.989175">
        <ele>1145.8</ele>
        <time>2026-05-06T16:03:26.000Z</time>
      </trkpt>
      <trkpt lat="41.837732" lon="22.989177">
        <ele>1145.8</ele>
        <time>2026-05-06T16:03:27.000Z</time>
      </trkpt>
      <trkpt lat="41.837745" lon="22.989179">
        <ele>1145.9</ele>
        <time>2026-05-06T16:03:28.000Z</time>
      </trkpt>
      <trkpt lat="41.837759" lon="22.989182">
        <ele>1145.9</ele>
        <time>2026-05-06T16:03:29.000Z</time>
      </trkpt>
      <trkpt lat="41.837772" lon="22.989184">
        <ele>1145.9</ele>
        <time>2026-05-06T16:03:30.000Z</time>
      </trkpt>
      <trkpt lat="41.837785" lon="22.989187">
        <ele>1145.9</ele>
        <time>2026-05-06T16:03:31.000Z</time>
      </trkpt>
      <trkpt lat="41.837798" lon="22.989189">
        <ele>1145.9</ele>
        <time>2026-05-06T16:03:32.000Z</time>
      </trkpt>
      <trkpt lat="41.837811" lon="22.989191">
        <ele>1146.1</ele>
        <time>2026-05-06T16:03:33.000Z</time>
      </trkpt>
      <trkpt lat="41.837823" lon="22.989192">
        <ele>1146.1</ele>
        <time>2026-05-06T16:03:34.000Z</time>
      </trkpt>
      <trkpt lat="41.837835" lon="22.989192">
        <ele>1146.1</ele>
        <time>2026-05-06T16:03:35.000Z</time>
      </trkpt>
      <trkpt lat="41.837848" lon="22.989192">
        <ele>1146.1</ele>
        <time>2026-05-06T16:03:36.000Z</time>
      </trkpt>
      <trkpt lat="41.837863" lon="22.989191">
        <ele>1146.1</ele>
        <time>2026-05-06T16:03:37.000Z</time>
      </trkpt>
      <trkpt lat="41.837877" lon="22.98919">
        <ele>1146.3</ele>
        <time>2026-05-06T16:03:38.000Z</time>
      </trkpt>
      <trkpt lat="41.837892" lon="22.98919">
        <ele>1146.3</ele>
        <time>2026-05-06T16:03:39.000Z</time>
      </trkpt>
      <trkpt lat="41.837905" lon="22.98919">
        <ele>1146.3</ele>
        <time>2026-05-06T16:03:40.000Z</time>
      </trkpt>
      <trkpt lat="41.837918" lon="22.989191">
        <ele>1146.3</ele>
        <time>2026-05-06T16:03:41.000Z</time>
      </trkpt>
      <trkpt lat="41.837931" lon="22.989193">
        <ele>1146.3</ele>
        <time>2026-05-06T16:03:42.000Z</time>
      </trkpt>
      <trkpt lat="41.837943" lon="22.989195">
        <ele>1146.4</ele>
        <time>2026-05-06T16:03:43.000Z</time>
      </trkpt>
      <trkpt lat="41.837956" lon="22.989196">
        <ele>1146.4</ele>
        <time>2026-05-06T16:03:44.000Z</time>
      </trkpt>
      <trkpt lat="41.837969" lon="22.989198">
        <ele>1146.4</ele>
        <time>2026-05-06T16:03:45.000Z</time>
      </trkpt>
      <trkpt lat="41.837983" lon="22.9892">
        <ele>1146.4</ele>
        <time>2026-05-06T16:03:46.000Z</time>
      </trkpt>
      <trkpt lat="41.837997" lon="22.989202">
        <ele>1146.4</ele>
        <time>2026-05-06T16:03:47.000Z</time>
      </trkpt>
      <trkpt lat="41.838011" lon="22.989204">
        <ele>1146.7</ele>
        <time>2026-05-06T16:03:48.000Z</time>
      </trkpt>
      <trkpt lat="41.838024" lon="22.989208">
        <ele>1146.7</ele>
        <time>2026-05-06T16:03:49.000Z</time>
      </trkpt>
      <trkpt lat="41.838036" lon="22.98921">
        <ele>1146.7</ele>
        <time>2026-05-06T16:03:50.000Z</time>
      </trkpt>
      <trkpt lat="41.838048" lon="22.989213">
        <ele>1146.7</ele>
        <time>2026-05-06T16:03:51.000Z</time>
      </trkpt>
      <trkpt lat="41.838059" lon="22.989216">
        <ele>1146.7</ele>
        <time>2026-05-06T16:03:52.000Z</time>
      </trkpt>
      <trkpt lat="41.83807" lon="22.989217">
        <ele>1146.8</ele>
        <time>2026-05-06T16:03:53.000Z</time>
      </trkpt>
      <trkpt lat="41.838082" lon="22.989219">
        <ele>1146.8</ele>
        <time>2026-05-06T16:03:54.000Z</time>
      </trkpt>
      <trkpt lat="41.838095" lon="22.98922">
        <ele>1146.8</ele>
        <time>2026-05-06T16:03:55.000Z</time>
      </trkpt>
      <trkpt lat="41.838107" lon="22.989222">
        <ele>1146.8</ele>
        <time>2026-05-06T16:03:56.000Z</time>
      </trkpt>
      <trkpt lat="41.838119" lon="22.989222">
        <ele>1146.8</ele>
        <time>2026-05-06T16:03:57.000Z</time>
      </trkpt>
      <trkpt lat="41.838131" lon="22.989223">
        <ele>1146.8</ele>
        <time>2026-05-06T16:03:58.000Z</time>
      </trkpt>
      <trkpt lat="41.838142" lon="22.989223">
        <ele>1146.8</ele>
        <time>2026-05-06T16:03:59.000Z</time>
      </trkpt>
      <trkpt lat="41.838155" lon="22.989224">
        <ele>1146.8</ele>
        <time>2026-05-06T16:04:00.000Z</time>
      </trkpt>
      <trkpt lat="41.838168" lon="22.989225">
        <ele>1146.8</ele>
        <time>2026-05-06T16:04:01.000Z</time>
      </trkpt>
      <trkpt lat="41.838182" lon="22.989226">
        <ele>1146.8</ele>
        <time>2026-05-06T16:04:02.000Z</time>
      </trkpt>
      <trkpt lat="41.838196" lon="22.989226">
        <ele>1146.8</ele>
        <time>2026-05-06T16:04:03.000Z</time>
      </trkpt>
      <trkpt lat="41.83821" lon="22.989226">
        <ele>1146.8</ele>
        <time>2026-05-06T16:04:04.000Z</time>
      </trkpt>
      <trkpt lat="41.838223" lon="22.989226">
        <ele>1146.8</ele>
        <time>2026-05-06T16:04:05.000Z</time>
      </trkpt>
      <trkpt lat="41.838235" lon="22.989228">
        <ele>1146.8</ele>
        <time>2026-05-06T16:04:06.000Z</time>
      </trkpt>
      <trkpt lat="41.838248" lon="22.98923">
        <ele>1146.8</ele>
        <time>2026-05-06T16:04:07.000Z</time>
      </trkpt>
      <trkpt lat="41.83826" lon="22.989235">
        <ele>1147</ele>
        <time>2026-05-06T16:04:08.000Z</time>
      </trkpt>
      <trkpt lat="41.838272" lon="22.989239">
        <ele>1147</ele>
        <time>2026-05-06T16:04:09.000Z</time>
      </trkpt>
      <trkpt lat="41.838283" lon="22.989243">
        <ele>1147</ele>
        <time>2026-05-06T16:04:10.000Z</time>
      </trkpt>
      <trkpt lat="41.838295" lon="22.989245">
        <ele>1147</ele>
        <time>2026-05-06T16:04:11.000Z</time>
      </trkpt>
      <trkpt lat="41.838306" lon="22.989245">
        <ele>1147</ele>
        <time>2026-05-06T16:04:12.000Z</time>
      </trkpt>
      <trkpt lat="41.838317" lon="22.989245">
        <ele>1147.2</ele>
        <time>2026-05-06T16:04:13.000Z</time>
      </trkpt>
      <trkpt lat="41.838329" lon="22.989246">
        <ele>1147.2</ele>
        <time>2026-05-06T16:04:14.000Z</time>
      </trkpt>
      <trkpt lat="41.83834" lon="22.989246">
        <ele>1147.2</ele>
        <time>2026-05-06T16:04:15.000Z</time>
      </trkpt>
      <trkpt lat="41.838351" lon="22.989247">
        <ele>1147.2</ele>
        <time>2026-05-06T16:04:16.000Z</time>
      </trkpt>
      <trkpt lat="41.838362" lon="22.989246">
        <ele>1147.2</ele>
        <time>2026-05-06T16:04:17.000Z</time>
      </trkpt>
      <trkpt lat="41.838373" lon="22.989245">
        <ele>1147.5</ele>
        <time>2026-05-06T16:04:18.000Z</time>
      </trkpt>
      <trkpt lat="41.838384" lon="22.989244">
        <ele>1147.5</ele>
        <time>2026-05-06T16:04:19.000Z</time>
      </trkpt>
      <trkpt lat="41.838396" lon="22.989245">
        <ele>1147.5</ele>
        <time>2026-05-06T16:04:20.000Z</time>
      </trkpt>
      <trkpt lat="41.838406" lon="22.989247">
        <ele>1147.5</ele>
        <time>2026-05-06T16:04:21.000Z</time>
      </trkpt>
      <trkpt lat="41.838414" lon="22.98925">
        <ele>1147.5</ele>
        <time>2026-05-06T16:04:22.000Z</time>
      </trkpt>
      <trkpt lat="41.838421" lon="22.989252">
        <ele>1147.8</ele>
        <time>2026-05-06T16:04:23.000Z</time>
      </trkpt>
      <trkpt lat="41.838427" lon="22.989252">
        <ele>1147.8</ele>
        <time>2026-05-06T16:04:24.000Z</time>
      </trkpt>
      <trkpt lat="41.838432" lon="22.989251">
        <ele>1147.8</ele>
        <time>2026-05-06T16:04:25.000Z</time>
      </trkpt>
      <trkpt lat="41.838439" lon="22.989248">
        <ele>1147.8</ele>
        <time>2026-05-06T16:04:26.000Z</time>
      </trkpt>
      <trkpt lat="41.838447" lon="22.989246">
        <ele>1147.8</ele>
        <time>2026-05-06T16:04:27.000Z</time>
      </trkpt>
      <trkpt lat="41.838455" lon="22.989244">
        <ele>1148</ele>
        <time>2026-05-06T16:04:28.000Z</time>
      </trkpt>
      <trkpt lat="41.838463" lon="22.989244">
        <ele>1148</ele>
        <time>2026-05-06T16:04:29.000Z</time>
      </trkpt>
      <trkpt lat="41.838474" lon="22.989244">
        <ele>1148</ele>
        <time>2026-05-06T16:04:30.000Z</time>
      </trkpt>
      <trkpt lat="41.838485" lon="22.989244">
        <ele>1148</ele>
        <time>2026-05-06T16:04:31.000Z</time>
      </trkpt>
      <trkpt lat="41.838496" lon="22.989245">
        <ele>1148</ele>
        <time>2026-05-06T16:04:32.000Z</time>
      </trkpt>
      <trkpt lat="41.838508" lon="22.989247">
        <ele>1148.5</ele>
        <time>2026-05-06T16:04:33.000Z</time>
      </trkpt>
      <trkpt lat="41.838518" lon="22.98925">
        <ele>1148.5</ele>
        <time>2026-05-06T16:04:34.000Z</time>
      </trkpt>
      <trkpt lat="41.838528" lon="22.989255">
        <ele>1148.5</ele>
        <time>2026-05-06T16:04:35.000Z</time>
      </trkpt>
      <trkpt lat="41.838538" lon="22.98926">
        <ele>1148.5</ele>
        <time>2026-05-06T16:04:36.000Z</time>
      </trkpt>
      <trkpt lat="41.838547" lon="22.989265">
        <ele>1148.5</ele>
        <time>2026-05-06T16:04:37.000Z</time>
      </trkpt>
      <trkpt lat="41.838557" lon="22.989268">
        <ele>1148.8</ele>
        <time>2026-05-06T16:04:38.000Z</time>
      </trkpt>
      <trkpt lat="41.838568" lon="22.989269">
        <ele>1148.8</ele>
        <time>2026-05-06T16:04:39.000Z</time>
      </trkpt>
      <trkpt lat="41.838579" lon="22.98927">
        <ele>1148.8</ele>
        <time>2026-05-06T16:04:40.000Z</time>
      </trkpt>
      <trkpt lat="41.838591" lon="22.989271">
        <ele>1148.8</ele>
        <time>2026-05-06T16:04:41.000Z</time>
      </trkpt>
      <trkpt lat="41.838602" lon="22.989272">
        <ele>1148.8</ele>
        <time>2026-05-06T16:04:42.000Z</time>
      </trkpt>
      <trkpt lat="41.838613" lon="22.989274">
        <ele>1149</ele>
        <time>2026-05-06T16:04:43.000Z</time>
      </trkpt>
      <trkpt lat="41.838624" lon="22.989277">
        <ele>1149</ele>
        <time>2026-05-06T16:04:44.000Z</time>
      </trkpt>
      <trkpt lat="41.838635" lon="22.98928">
        <ele>1149</ele>
        <time>2026-05-06T16:04:45.000Z</time>
      </trkpt>
      <trkpt lat="41.838646" lon="22.989284">
        <ele>1149</ele>
        <time>2026-05-06T16:04:46.000Z</time>
      </trkpt>
      <trkpt lat="41.838657" lon="22.989287">
        <ele>1149</ele>
        <time>2026-05-06T16:04:47.000Z</time>
      </trkpt>
      <trkpt lat="41.838669" lon="22.989291">
        <ele>1149.3</ele>
        <time>2026-05-06T16:04:48.000Z</time>
      </trkpt>
      <trkpt lat="41.838681" lon="22.989294">
        <ele>1149.3</ele>
        <time>2026-05-06T16:04:49.000Z</time>
      </trkpt>
      <trkpt lat="41.838692" lon="22.989297">
        <ele>1149.3</ele>
        <time>2026-05-06T16:04:50.000Z</time>
      </trkpt>
      <trkpt lat="41.838704" lon="22.989301">
        <ele>1149.3</ele>
        <time>2026-05-06T16:04:51.000Z</time>
      </trkpt>
      <trkpt lat="41.838716" lon="22.989305">
        <ele>1149.3</ele>
        <time>2026-05-06T16:04:52.000Z</time>
      </trkpt>
      <trkpt lat="41.838728" lon="22.989311">
        <ele>1149.7</ele>
        <time>2026-05-06T16:04:53.000Z</time>
      </trkpt>
      <trkpt lat="41.838739" lon="22.989316">
        <ele>1149.7</ele>
        <time>2026-05-06T16:04:54.000Z</time>
      </trkpt>
      <trkpt lat="41.838749" lon="22.989322">
        <ele>1149.7</ele>
        <time>2026-05-06T16:04:55.000Z</time>
      </trkpt>
      <trkpt lat="41.838756" lon="22.989325">
        <ele>1149.7</ele>
        <time>2026-05-06T16:04:56.000Z</time>
      </trkpt>
      <trkpt lat="41.838761" lon="22.989328">
        <ele>1149.7</ele>
        <time>2026-05-06T16:04:57.000Z</time>
      </trkpt>
      <trkpt lat="41.838767" lon="22.989329">
        <ele>1149.9</ele>
        <time>2026-05-06T16:04:58.000Z</time>
      </trkpt>
      <trkpt lat="41.838772" lon="22.98933">
        <ele>1149.9</ele>
        <time>2026-05-06T16:04:59.000Z</time>
      </trkpt>
      <trkpt lat="41.838779" lon="22.989332">
        <ele>1149.9</ele>
        <time>2026-05-06T16:05:00.000Z</time>
      </trkpt>
      <trkpt lat="41.838788" lon="22.989337">
        <ele>1149.9</ele>
        <time>2026-05-06T16:05:01.000Z</time>
      </trkpt>
      <trkpt lat="41.838798" lon="22.989343">
        <ele>1149.9</ele>
        <time>2026-05-06T16:05:02.000Z</time>
      </trkpt>
      <trkpt lat="41.838809" lon="22.989351">
        <ele>1150.4</ele>
        <time>2026-05-06T16:05:03.000Z</time>
      </trkpt>
      <trkpt lat="41.838819" lon="22.989359">
        <ele>1150.4</ele>
        <time>2026-05-06T16:05:04.000Z</time>
      </trkpt>
      <trkpt lat="41.838828" lon="22.989366">
        <ele>1150.4</ele>
        <time>2026-05-06T16:05:05.000Z</time>
      </trkpt>
      <trkpt lat="41.838835" lon="22.98937">
        <ele>1150.4</ele>
        <time>2026-05-06T16:05:06.000Z</time>
      </trkpt>
      <trkpt lat="41.83884" lon="22.989373">
        <ele>1150.4</ele>
        <time>2026-05-06T16:05:07.000Z</time>
      </trkpt>
      <trkpt lat="41.838842" lon="22.989375">
        <ele>1150.8</ele>
        <time>2026-05-06T16:05:08.000Z</time>
      </trkpt>
      <trkpt lat="41.838843" lon="22.989376">
        <ele>1150.8</ele>
        <time>2026-05-06T16:05:09.000Z</time>
      </trkpt>
      <trkpt lat="41.838842" lon="22.989377">
        <ele>1150.8</ele>
        <time>2026-05-06T16:05:10.000Z</time>
      </trkpt>
      <trkpt lat="41.838842" lon="22.989377">
        <ele>1150.8</ele>
        <time>2026-05-06T16:05:11.000Z</time>
      </trkpt>
      <trkpt lat="41.838843" lon="22.989378">
        <ele>1150.8</ele>
        <time>2026-05-06T16:05:12.000Z</time>
      </trkpt>
      <trkpt lat="41.838846" lon="22.989379">
        <ele>1150.9</ele>
        <time>2026-05-06T16:05:13.000Z</time>
      </trkpt>
      <trkpt lat="41.83885" lon="22.98938">
        <ele>1150.9</ele>
        <time>2026-05-06T16:05:14.000Z</time>
      </trkpt>
      <trkpt lat="41.838855" lon="22.989381">
        <ele>1150.9</ele>
        <time>2026-05-06T16:05:15.000Z</time>
      </trkpt>
      <trkpt lat="41.838862" lon="22.989382">
        <ele>1150.9</ele>
        <time>2026-05-06T16:05:16.000Z</time>
      </trkpt>
      <trkpt lat="41.83887" lon="22.989386">
        <ele>1150.9</ele>
        <time>2026-05-06T16:05:17.000Z</time>
      </trkpt>
      <trkpt lat="41.838877" lon="22.989391">
        <ele>1151.3</ele>
        <time>2026-05-06T16:05:18.000Z</time>
      </trkpt>
      <trkpt lat="41.838886" lon="22.989397">
        <ele>1151.3</ele>
        <time>2026-05-06T16:05:19.000Z</time>
      </trkpt>
      <trkpt lat="41.838894" lon="22.989405">
        <ele>1151.3</ele>
        <time>2026-05-06T16:05:20.000Z</time>
      </trkpt>
      <trkpt lat="41.8389" lon="22.989416">
        <ele>1151.3</ele>
        <time>2026-05-06T16:05:21.000Z</time>
      </trkpt>
      <trkpt lat="41.838907" lon="22.989427">
        <ele>1151.3</ele>
        <time>2026-05-06T16:05:22.000Z</time>
      </trkpt>
      <trkpt lat="41.838914" lon="22.989437">
        <ele>1151.9</ele>
        <time>2026-05-06T16:05:23.000Z</time>
      </trkpt>
      <trkpt lat="41.83892" lon="22.989448">
        <ele>1151.9</ele>
        <time>2026-05-06T16:05:24.000Z</time>
      </trkpt>
      <trkpt lat="41.838926" lon="22.989459">
        <ele>1151.9</ele>
        <time>2026-05-06T16:05:25.000Z</time>
      </trkpt>
      <trkpt lat="41.838933" lon="22.98947">
        <ele>1151.9</ele>
        <time>2026-05-06T16:05:26.000Z</time>
      </trkpt>
      <trkpt lat="41.83894" lon="22.989481">
        <ele>1151.9</ele>
        <time>2026-05-06T16:05:27.000Z</time>
      </trkpt>
      <trkpt lat="41.838946" lon="22.989491">
        <ele>1152.2</ele>
        <time>2026-05-06T16:05:28.000Z</time>
      </trkpt>
      <trkpt lat="41.838953" lon="22.9895">
        <ele>1152.2</ele>
        <time>2026-05-06T16:05:29.000Z</time>
      </trkpt>
      <trkpt lat="41.838961" lon="22.989507">
        <ele>1152.2</ele>
        <time>2026-05-06T16:05:30.000Z</time>
      </trkpt>
      <trkpt lat="41.83897" lon="22.989514">
        <ele>1152.2</ele>
        <time>2026-05-06T16:05:31.000Z</time>
      </trkpt>
      <trkpt lat="41.838979" lon="22.989521">
        <ele>1152.2</ele>
        <time>2026-05-06T16:05:32.000Z</time>
      </trkpt>
      <trkpt lat="41.838987" lon="22.989528">
        <ele>1152.8</ele>
        <time>2026-05-06T16:05:33.000Z</time>
      </trkpt>
      <trkpt lat="41.838996" lon="22.989533">
        <ele>1152.8</ele>
        <time>2026-05-06T16:05:34.000Z</time>
      </trkpt>
      <trkpt lat="41.839005" lon="22.98954">
        <ele>1152.8</ele>
        <time>2026-05-06T16:05:35.000Z</time>
      </trkpt>
      <trkpt lat="41.839013" lon="22.989544">
        <ele>1152.8</ele>
        <time>2026-05-06T16:05:36.000Z</time>
      </trkpt>
      <trkpt lat="41.839023" lon="22.989548">
        <ele>1152.8</ele>
        <time>2026-05-06T16:05:37.000Z</time>
      </trkpt>
      <trkpt lat="41.839033" lon="22.989553">
        <ele>1153.3</ele>
        <time>2026-05-06T16:05:38.000Z</time>
      </trkpt>
      <trkpt lat="41.839044" lon="22.989559">
        <ele>1153.3</ele>
        <time>2026-05-06T16:05:39.000Z</time>
      </trkpt>
      <trkpt lat="41.839054" lon="22.989565">
        <ele>1153.3</ele>
        <time>2026-05-06T16:05:40.000Z</time>
      </trkpt>
      <trkpt lat="41.839063" lon="22.98957">
        <ele>1153.3</ele>
        <time>2026-05-06T16:05:41.000Z</time>
      </trkpt>
      <trkpt lat="41.839072" lon="22.989576">
        <ele>1153.3</ele>
        <time>2026-05-06T16:05:42.000Z</time>
      </trkpt>
      <trkpt lat="41.83908" lon="22.989583">
        <ele>1153.6</ele>
        <time>2026-05-06T16:05:43.000Z</time>
      </trkpt>
      <trkpt lat="41.839089" lon="22.989589">
        <ele>1153.6</ele>
        <time>2026-05-06T16:05:44.000Z</time>
      </trkpt>
      <trkpt lat="41.839098" lon="22.989595">
        <ele>1153.6</ele>
        <time>2026-05-06T16:05:45.000Z</time>
      </trkpt>
      <trkpt lat="41.839106" lon="22.989601">
        <ele>1153.6</ele>
        <time>2026-05-06T16:05:46.000Z</time>
      </trkpt>
      <trkpt lat="41.839115" lon="22.989608">
        <ele>1153.6</ele>
        <time>2026-05-06T16:05:47.000Z</time>
      </trkpt>
      <trkpt lat="41.839122" lon="22.989616">
        <ele>1154.2</ele>
        <time>2026-05-06T16:05:48.000Z</time>
      </trkpt>
      <trkpt lat="41.839129" lon="22.989624">
        <ele>1154.2</ele>
        <time>2026-05-06T16:05:49.000Z</time>
      </trkpt>
      <trkpt lat="41.839135" lon="22.989632">
        <ele>1154.2</ele>
        <time>2026-05-06T16:05:50.000Z</time>
      </trkpt>
      <trkpt lat="41.839142" lon="22.989642">
        <ele>1154.2</ele>
        <time>2026-05-06T16:05:51.000Z</time>
      </trkpt>
      <trkpt lat="41.839149" lon="22.989652">
        <ele>1154.2</ele>
        <time>2026-05-06T16:05:52.000Z</time>
      </trkpt>
      <trkpt lat="41.839156" lon="22.989661">
        <ele>1155</ele>
        <time>2026-05-06T16:05:53.000Z</time>
      </trkpt>
      <trkpt lat="41.839164" lon="22.98967">
        <ele>1155</ele>
        <time>2026-05-06T16:05:54.000Z</time>
      </trkpt>
      <trkpt lat="41.839172" lon="22.989679">
        <ele>1155</ele>
        <time>2026-05-06T16:05:55.000Z</time>
      </trkpt>
      <trkpt lat="41.839181" lon="22.989688">
        <ele>1155</ele>
        <time>2026-05-06T16:05:56.000Z</time>
      </trkpt>
      <trkpt lat="41.83919" lon="22.989697">
        <ele>1155</ele>
        <time>2026-05-06T16:05:57.000Z</time>
      </trkpt>
      <trkpt lat="41.8392" lon="22.989705">
        <ele>1155.4</ele>
        <time>2026-05-06T16:05:58.000Z</time>
      </trkpt>
      <trkpt lat="41.839209" lon="22.989714">
        <ele>1155.4</ele>
        <time>2026-05-06T16:05:59.000Z</time>
      </trkpt>
      <trkpt lat="41.839219" lon="22.989722">
        <ele>1155.4</ele>
        <time>2026-05-06T16:06:00.000Z</time>
      </trkpt>
      <trkpt lat="41.839229" lon="22.98973">
        <ele>1155.4</ele>
        <time>2026-05-06T16:06:01.000Z</time>
      </trkpt>
      <trkpt lat="41.839237" lon="22.989739">
        <ele>1155.4</ele>
        <time>2026-05-06T16:06:02.000Z</time>
      </trkpt>
      <trkpt lat="41.839245" lon="22.989746">
        <ele>1156.4</ele>
        <time>2026-05-06T16:06:03.000Z</time>
      </trkpt>
      <trkpt lat="41.839254" lon="22.989751">
        <ele>1156.4</ele>
        <time>2026-05-06T16:06:04.000Z</time>
      </trkpt>
      <trkpt lat="41.839263" lon="22.989757">
        <ele>1156.4</ele>
        <time>2026-05-06T16:06:05.000Z</time>
      </trkpt>
      <trkpt lat="41.839272" lon="22.989762">
        <ele>1156.4</ele>
        <time>2026-05-06T16:06:06.000Z</time>
      </trkpt>
      <trkpt lat="41.839282" lon="22.989767">
        <ele>1156.4</ele>
        <time>2026-05-06T16:06:07.000Z</time>
      </trkpt>
      <trkpt lat="41.839293" lon="22.989773">
        <ele>1157.2</ele>
        <time>2026-05-06T16:06:08.000Z</time>
      </trkpt>
      <trkpt lat="41.839303" lon="22.98978">
        <ele>1157.2</ele>
        <time>2026-05-06T16:06:09.000Z</time>
      </trkpt>
      <trkpt lat="41.839314" lon="22.989786">
        <ele>1157.2</ele>
        <time>2026-05-06T16:06:10.000Z</time>
      </trkpt>
      <trkpt lat="41.839325" lon="22.989791">
        <ele>1157.2</ele>
        <time>2026-05-06T16:06:11.000Z</time>
      </trkpt>
      <trkpt lat="41.839335" lon="22.989797">
        <ele>1157.2</ele>
        <time>2026-05-06T16:06:12.000Z</time>
      </trkpt>
      <trkpt lat="41.839345" lon="22.989803">
        <ele>1157.6</ele>
        <time>2026-05-06T16:06:13.000Z</time>
      </trkpt>
      <trkpt lat="41.839355" lon="22.989809">
        <ele>1157.6</ele>
        <time>2026-05-06T16:06:14.000Z</time>
      </trkpt>
      <trkpt lat="41.839366" lon="22.989817">
        <ele>1157.6</ele>
        <time>2026-05-06T16:06:15.000Z</time>
      </trkpt>
      <trkpt lat="41.839378" lon="22.989825">
        <ele>1157.6</ele>
        <time>2026-05-06T16:06:16.000Z</time>
      </trkpt>
      <trkpt lat="41.83939" lon="22.989833">
        <ele>1157.6</ele>
        <time>2026-05-06T16:06:17.000Z</time>
      </trkpt>
      <trkpt lat="41.839402" lon="22.98984">
        <ele>1158.1</ele>
        <time>2026-05-06T16:06:18.000Z</time>
      </trkpt>
      <trkpt lat="41.839414" lon="22.989847">
        <ele>1158.1</ele>
        <time>2026-05-06T16:06:19.000Z</time>
      </trkpt>
      <trkpt lat="41.839426" lon="22.989853">
        <ele>1158.1</ele>
        <time>2026-05-06T16:06:20.000Z</time>
      </trkpt>
      <trkpt lat="41.839438" lon="22.989859">
        <ele>1158.1</ele>
        <time>2026-05-06T16:06:21.000Z</time>
      </trkpt>
      <trkpt lat="41.83945" lon="22.989865">
        <ele>1158.1</ele>
        <time>2026-05-06T16:06:22.000Z</time>
      </trkpt>
      <trkpt lat="41.839463" lon="22.989871">
        <ele>1158.2</ele>
        <time>2026-05-06T16:06:23.000Z</time>
      </trkpt>
      <trkpt lat="41.839475" lon="22.989878">
        <ele>1158.2</ele>
        <time>2026-05-06T16:06:24.000Z</time>
      </trkpt>
      <trkpt lat="41.839488" lon="22.989885">
        <ele>1158.2</ele>
        <time>2026-05-06T16:06:25.000Z</time>
      </trkpt>
      <trkpt lat="41.8395" lon="22.989893">
        <ele>1158.2</ele>
        <time>2026-05-06T16:06:26.000Z</time>
      </trkpt>
      <trkpt lat="41.839511" lon="22.9899">
        <ele>1158.2</ele>
        <time>2026-05-06T16:06:27.000Z</time>
      </trkpt>
      <trkpt lat="41.839522" lon="22.989906">
        <ele>1158</ele>
        <time>2026-05-06T16:06:28.000Z</time>
      </trkpt>
      <trkpt lat="41.839534" lon="22.989911">
        <ele>1158</ele>
        <time>2026-05-06T16:06:29.000Z</time>
      </trkpt>
      <trkpt lat="41.839545" lon="22.989916">
        <ele>1158</ele>
        <time>2026-05-06T16:06:30.000Z</time>
      </trkpt>
      <trkpt lat="41.839556" lon="22.989922">
        <ele>1158</ele>
        <time>2026-05-06T16:06:31.000Z</time>
      </trkpt>
      <trkpt lat="41.839568" lon="22.989929">
        <ele>1158</ele>
        <time>2026-05-06T16:06:32.000Z</time>
      </trkpt>
      <trkpt lat="41.839578" lon="22.989937">
        <ele>1157.7</ele>
        <time>2026-05-06T16:06:33.000Z</time>
      </trkpt>
      <trkpt lat="41.839588" lon="22.989946">
        <ele>1157.7</ele>
        <time>2026-05-06T16:06:34.000Z</time>
      </trkpt>
      <trkpt lat="41.839598" lon="22.989955">
        <ele>1157.7</ele>
        <time>2026-05-06T16:06:35.000Z</time>
      </trkpt>
      <trkpt lat="41.839608" lon="22.989962">
        <ele>1157.7</ele>
        <time>2026-05-06T16:06:36.000Z</time>
      </trkpt>
      <trkpt lat="41.839618" lon="22.98997">
        <ele>1157.7</ele>
        <time>2026-05-06T16:06:37.000Z</time>
      </trkpt>
      <trkpt lat="41.839628" lon="22.989978">
        <ele>1157.6</ele>
        <time>2026-05-06T16:06:38.000Z</time>
      </trkpt>
      <trkpt lat="41.83964" lon="22.989985">
        <ele>1157.6</ele>
        <time>2026-05-06T16:06:39.000Z</time>
      </trkpt>
      <trkpt lat="41.839652" lon="22.989993">
        <ele>1157.6</ele>
        <time>2026-05-06T16:06:40.000Z</time>
      </trkpt>
      <trkpt lat="41.839664" lon="22.990002">
        <ele>1157.6</ele>
        <time>2026-05-06T16:06:41.000Z</time>
      </trkpt>
      <trkpt lat="41.839676" lon="22.99001">
        <ele>1157.6</ele>
        <time>2026-05-06T16:06:42.000Z</time>
      </trkpt>
      <trkpt lat="41.839689" lon="22.990018">
        <ele>1157.6</ele>
        <time>2026-05-06T16:06:43.000Z</time>
      </trkpt>
      <trkpt lat="41.8397" lon="22.990027">
        <ele>1157.6</ele>
        <time>2026-05-06T16:06:44.000Z</time>
      </trkpt>
      <trkpt lat="41.839712" lon="22.990036">
        <ele>1157.6</ele>
        <time>2026-05-06T16:06:45.000Z</time>
      </trkpt>
      <trkpt lat="41.839724" lon="22.990044">
        <ele>1157.6</ele>
        <time>2026-05-06T16:06:46.000Z</time>
      </trkpt>
      <trkpt lat="41.839736" lon="22.990052">
        <ele>1157.6</ele>
        <time>2026-05-06T16:06:47.000Z</time>
      </trkpt>
      <trkpt lat="41.839746" lon="22.990061">
        <ele>1157.5</ele>
        <time>2026-05-06T16:06:48.000Z</time>
      </trkpt>
      <trkpt lat="41.839758" lon="22.990069">
        <ele>1157.5</ele>
        <time>2026-05-06T16:06:49.000Z</time>
      </trkpt>
      <trkpt lat="41.83977" lon="22.990078">
        <ele>1157.5</ele>
        <time>2026-05-06T16:06:50.000Z</time>
      </trkpt>
      <trkpt lat="41.839782" lon="22.990088">
        <ele>1157.5</ele>
        <time>2026-05-06T16:06:51.000Z</time>
      </trkpt>
      <trkpt lat="41.839795" lon="22.990098">
        <ele>1157.5</ele>
        <time>2026-05-06T16:06:52.000Z</time>
      </trkpt>
      <trkpt lat="41.839808" lon="22.99011">
        <ele>1157.1</ele>
        <time>2026-05-06T16:06:53.000Z</time>
      </trkpt>
      <trkpt lat="41.83982" lon="22.990121">
        <ele>1157.1</ele>
        <time>2026-05-06T16:06:54.000Z</time>
      </trkpt>
      <trkpt lat="41.839833" lon="22.990133">
        <ele>1157.1</ele>
        <time>2026-05-06T16:06:55.000Z</time>
      </trkpt>
      <trkpt lat="41.839844" lon="22.990145">
        <ele>1157.1</ele>
        <time>2026-05-06T16:06:56.000Z</time>
      </trkpt>
      <trkpt lat="41.839855" lon="22.990156">
        <ele>1157.1</ele>
        <time>2026-05-06T16:06:57.000Z</time>
      </trkpt>
      <trkpt lat="41.839865" lon="22.990169">
        <ele>1156.7</ele>
        <time>2026-05-06T16:06:58.000Z</time>
      </trkpt>
      <trkpt lat="41.839874" lon="22.990181">
        <ele>1156.7</ele>
        <time>2026-05-06T16:06:59.000Z</time>
      </trkpt>
      <trkpt lat="41.839882" lon="22.990193">
        <ele>1156.7</ele>
        <time>2026-05-06T16:07:00.000Z</time>
      </trkpt>
      <trkpt lat="41.83989" lon="22.990205">
        <ele>1156.7</ele>
        <time>2026-05-06T16:07:01.000Z</time>
      </trkpt>
      <trkpt lat="41.839897" lon="22.990216">
        <ele>1156.7</ele>
        <time>2026-05-06T16:07:02.000Z</time>
      </trkpt>
      <trkpt lat="41.839905" lon="22.990228">
        <ele>1155.8</ele>
        <time>2026-05-06T16:07:03.000Z</time>
      </trkpt>
      <trkpt lat="41.839913" lon="22.990239">
        <ele>1155.8</ele>
        <time>2026-05-06T16:07:04.000Z</time>
      </trkpt>
      <trkpt lat="41.839921" lon="22.990251">
        <ele>1155.8</ele>
        <time>2026-05-06T16:07:05.000Z</time>
      </trkpt>
      <trkpt lat="41.839929" lon="22.990262">
        <ele>1155.8</ele>
        <time>2026-05-06T16:07:06.000Z</time>
      </trkpt>
      <trkpt lat="41.839937" lon="22.990273">
        <ele>1155.8</ele>
        <time>2026-05-06T16:07:07.000Z</time>
      </trkpt>
      <trkpt lat="41.839944" lon="22.990284">
        <ele>1154.6</ele>
        <time>2026-05-06T16:07:08.000Z</time>
      </trkpt>
      <trkpt lat="41.839953" lon="22.990293">
        <ele>1154.6</ele>
        <time>2026-05-06T16:07:09.000Z</time>
      </trkpt>
      <trkpt lat="41.839962" lon="22.990304">
        <ele>1154.6</ele>
        <time>2026-05-06T16:07:10.000Z</time>
      </trkpt>
      <trkpt lat="41.83997" lon="22.990315">
        <ele>1154.6</ele>
        <time>2026-05-06T16:07:11.000Z</time>
      </trkpt>
      <trkpt lat="41.839979" lon="22.990326">
        <ele>1154.6</ele>
        <time>2026-05-06T16:07:12.000Z</time>
      </trkpt>
      <trkpt lat="41.839989" lon="22.990336">
        <ele>1154</ele>
        <time>2026-05-06T16:07:13.000Z</time>
      </trkpt>
      <trkpt lat="41.839999" lon="22.990346">
        <ele>1154</ele>
        <time>2026-05-06T16:07:14.000Z</time>
      </trkpt>
      <trkpt lat="41.840009" lon="22.990355">
        <ele>1154</ele>
        <time>2026-05-06T16:07:15.000Z</time>
      </trkpt>
      <trkpt lat="41.840017" lon="22.990362">
        <ele>1154</ele>
        <time>2026-05-06T16:07:16.000Z</time>
      </trkpt>
      <trkpt lat="41.840025" lon="22.990366">
        <ele>1154</ele>
        <time>2026-05-06T16:07:17.000Z</time>
      </trkpt>
      <trkpt lat="41.840032" lon="22.990368">
        <ele>1152.8</ele>
        <time>2026-05-06T16:07:18.000Z</time>
      </trkpt>
      <trkpt lat="41.84004" lon="22.99037">
        <ele>1152.8</ele>
        <time>2026-05-06T16:07:19.000Z</time>
      </trkpt>
      <trkpt lat="41.84005" lon="22.990371">
        <ele>1152.8</ele>
        <time>2026-05-06T16:07:20.000Z</time>
      </trkpt>
      <trkpt lat="41.840062" lon="22.990373">
        <ele>1152.8</ele>
        <time>2026-05-06T16:07:21.000Z</time>
      </trkpt>
      <trkpt lat="41.840076" lon="22.990378">
        <ele>1152.8</ele>
        <time>2026-05-06T16:07:22.000Z</time>
      </trkpt>
      <trkpt lat="41.840089" lon="22.990385">
        <ele>1151.6</ele>
        <time>2026-05-06T16:07:23.000Z</time>
      </trkpt>
      <trkpt lat="41.840103" lon="22.990394">
        <ele>1151.6</ele>
        <time>2026-05-06T16:07:24.000Z</time>
      </trkpt>
      <trkpt lat="41.840115" lon="22.990404">
        <ele>1151.6</ele>
        <time>2026-05-06T16:07:25.000Z</time>
      </trkpt>
      <trkpt lat="41.840127" lon="22.990413">
        <ele>1151.6</ele>
        <time>2026-05-06T16:07:26.000Z</time>
      </trkpt>
      <trkpt lat="41.840139" lon="22.990422">
        <ele>1151.6</ele>
        <time>2026-05-06T16:07:27.000Z</time>
      </trkpt>
      <trkpt lat="41.840151" lon="22.99043">
        <ele>1151</ele>
        <time>2026-05-06T16:07:28.000Z</time>
      </trkpt>
      <trkpt lat="41.840163" lon="22.990436">
        <ele>1151</ele>
        <time>2026-05-06T16:07:29.000Z</time>
      </trkpt>
      <trkpt lat="41.840176" lon="22.990441">
        <ele>1151</ele>
        <time>2026-05-06T16:07:30.000Z</time>
      </trkpt>
      <trkpt lat="41.84019" lon="22.990444">
        <ele>1151</ele>
        <time>2026-05-06T16:07:31.000Z</time>
      </trkpt>
      <trkpt lat="41.840205" lon="22.990446">
        <ele>1151</ele>
        <time>2026-05-06T16:07:32.000Z</time>
      </trkpt>
      <trkpt lat="41.840219" lon="22.990447">
        <ele>1150</ele>
        <time>2026-05-06T16:07:33.000Z</time>
      </trkpt>
      <trkpt lat="41.840233" lon="22.990448">
        <ele>1150</ele>
        <time>2026-05-06T16:07:34.000Z</time>
      </trkpt>
      <trkpt lat="41.840247" lon="22.99045">
        <ele>1150</ele>
        <time>2026-05-06T16:07:35.000Z</time>
      </trkpt>
      <trkpt lat="41.84026" lon="22.990452">
        <ele>1150</ele>
        <time>2026-05-06T16:07:36.000Z</time>
      </trkpt>
      <trkpt lat="41.840274" lon="22.990456">
        <ele>1150</ele>
        <time>2026-05-06T16:07:37.000Z</time>
      </trkpt>
      <trkpt lat="41.840286" lon="22.990459">
        <ele>1149</ele>
        <time>2026-05-06T16:07:38.000Z</time>
      </trkpt>
      <trkpt lat="41.840299" lon="22.990462">
        <ele>1149</ele>
        <time>2026-05-06T16:07:39.000Z</time>
      </trkpt>
      <trkpt lat="41.840311" lon="22.990465">
        <ele>1149</ele>
        <time>2026-05-06T16:07:40.000Z</time>
      </trkpt>
      <trkpt lat="41.84032" lon="22.990469">
        <ele>1149</ele>
        <time>2026-05-06T16:07:41.000Z</time>
      </trkpt>
      <trkpt lat="41.840327" lon="22.990472">
        <ele>1149</ele>
        <time>2026-05-06T16:07:42.000Z</time>
      </trkpt>
      <trkpt lat="41.840332" lon="22.990475">
        <ele>1148.6</ele>
        <time>2026-05-06T16:07:43.000Z</time>
      </trkpt>
      <trkpt lat="41.840336" lon="22.990478">
        <ele>1148.6</ele>
        <time>2026-05-06T16:07:44.000Z</time>
      </trkpt>
      <trkpt lat="41.840339" lon="22.990481">
        <ele>1148.6</ele>
        <time>2026-05-06T16:07:45.000Z</time>
      </trkpt>
      <trkpt lat="41.840345" lon="22.990483">
        <ele>1148.6</ele>
        <time>2026-05-06T16:07:46.000Z</time>
      </trkpt>
      <trkpt lat="41.840353" lon="22.990487">
        <ele>1148.6</ele>
        <time>2026-05-06T16:07:47.000Z</time>
      </trkpt>
      <trkpt lat="41.840362" lon="22.990492">
        <ele>1147.9</ele>
        <time>2026-05-06T16:07:48.000Z</time>
      </trkpt>
      <trkpt lat="41.840373" lon="22.990498">
        <ele>1147.9</ele>
        <time>2026-05-06T16:07:49.000Z</time>
      </trkpt>
      <trkpt lat="41.840385" lon="22.990503">
        <ele>1147.9</ele>
        <time>2026-05-06T16:07:50.000Z</time>
      </trkpt>
      <trkpt lat="41.840398" lon="22.990509">
        <ele>1147.9</ele>
        <time>2026-05-06T16:07:51.000Z</time>
      </trkpt>
      <trkpt lat="41.840411" lon="22.990517">
        <ele>1147.9</ele>
        <time>2026-05-06T16:07:52.000Z</time>
      </trkpt>
      <trkpt lat="41.840422" lon="22.990524">
        <ele>1147.2</ele>
        <time>2026-05-06T16:07:53.000Z</time>
      </trkpt>
      <trkpt lat="41.840434" lon="22.990532">
        <ele>1147.2</ele>
        <time>2026-05-06T16:07:54.000Z</time>
      </trkpt>
      <trkpt lat="41.840445" lon="22.990542">
        <ele>1147.2</ele>
        <time>2026-05-06T16:07:55.000Z</time>
      </trkpt>
      <trkpt lat="41.840456" lon="22.990552">
        <ele>1147.2</ele>
        <time>2026-05-06T16:07:56.000Z</time>
      </trkpt>
      <trkpt lat="41.840467" lon="22.990561">
        <ele>1147.2</ele>
        <time>2026-05-06T16:07:57.000Z</time>
      </trkpt>
      <trkpt lat="41.840478" lon="22.99057">
        <ele>1146.7</ele>
        <time>2026-05-06T16:07:58.000Z</time>
      </trkpt>
      <trkpt lat="41.840489" lon="22.990579">
        <ele>1146.7</ele>
        <time>2026-05-06T16:07:59.000Z</time>
      </trkpt>
      <trkpt lat="41.8405" lon="22.990588">
        <ele>1146.7</ele>
        <time>2026-05-06T16:08:00.000Z</time>
      </trkpt>
      <trkpt lat="41.84051" lon="22.990595">
        <ele>1146.7</ele>
        <time>2026-05-06T16:08:01.000Z</time>
      </trkpt>
      <trkpt lat="41.840521" lon="22.990601">
        <ele>1146.7</ele>
        <time>2026-05-06T16:08:02.000Z</time>
      </trkpt>
      <trkpt lat="41.840532" lon="22.990607">
        <ele>1145.5</ele>
        <time>2026-05-06T16:08:03.000Z</time>
      </trkpt>
      <trkpt lat="41.840542" lon="22.990613">
        <ele>1145.5</ele>
        <time>2026-05-06T16:08:04.000Z</time>
      </trkpt>
      <trkpt lat="41.840552" lon="22.990619">
        <ele>1145.5</ele>
        <time>2026-05-06T16:08:05.000Z</time>
      </trkpt>
      <trkpt lat="41.84056" lon="22.990624">
        <ele>1145.5</ele>
        <time>2026-05-06T16:08:06.000Z</time>
      </trkpt>
      <trkpt lat="41.840567" lon="22.990629">
        <ele>1145.5</ele>
        <time>2026-05-06T16:08:07.000Z</time>
      </trkpt>
      <trkpt lat="41.840574" lon="22.990635">
        <ele>1144.4</ele>
        <time>2026-05-06T16:08:08.000Z</time>
      </trkpt>
      <trkpt lat="41.84058" lon="22.990639">
        <ele>1144.4</ele>
        <time>2026-05-06T16:08:09.000Z</time>
      </trkpt>
      <trkpt lat="41.840587" lon="22.990644">
        <ele>1144.4</ele>
        <time>2026-05-06T16:08:10.000Z</time>
      </trkpt>
      <trkpt lat="41.840597" lon="22.990649">
        <ele>1144.4</ele>
        <time>2026-05-06T16:08:11.000Z</time>
      </trkpt>
      <trkpt lat="41.840607" lon="22.990654">
        <ele>1144.4</ele>
        <time>2026-05-06T16:08:12.000Z</time>
      </trkpt>
      <trkpt lat="41.840617" lon="22.990659">
        <ele>1143.9</ele>
        <time>2026-05-06T16:08:13.000Z</time>
      </trkpt>
      <trkpt lat="41.840628" lon="22.990663">
        <ele>1143.9</ele>
        <time>2026-05-06T16:08:14.000Z</time>
      </trkpt>
      <trkpt lat="41.840639" lon="22.990666">
        <ele>1143.9</ele>
        <time>2026-05-06T16:08:15.000Z</time>
      </trkpt>
      <trkpt lat="41.840649" lon="22.990668">
        <ele>1143.9</ele>
        <time>2026-05-06T16:08:16.000Z</time>
      </trkpt>
      <trkpt lat="41.84066" lon="22.990669">
        <ele>1143.9</ele>
        <time>2026-05-06T16:08:17.000Z</time>
      </trkpt>
      <trkpt lat="41.840672" lon="22.99067">
        <ele>1143.2</ele>
        <time>2026-05-06T16:08:18.000Z</time>
      </trkpt>
      <trkpt lat="41.840684" lon="22.990672">
        <ele>1143.2</ele>
        <time>2026-05-06T16:08:19.000Z</time>
      </trkpt>
      <trkpt lat="41.840697" lon="22.990674">
        <ele>1143.2</ele>
        <time>2026-05-06T16:08:20.000Z</time>
      </trkpt>
      <trkpt lat="41.840712" lon="22.990676">
        <ele>1143.2</ele>
        <time>2026-05-06T16:08:21.000Z</time>
      </trkpt>
      <trkpt lat="41.840726" lon="22.990679">
        <ele>1143.2</ele>
        <time>2026-05-06T16:08:22.000Z</time>
      </trkpt>
      <trkpt lat="41.84074" lon="22.990682">
        <ele>1142.6</ele>
        <time>2026-05-06T16:08:23.000Z</time>
      </trkpt>
      <trkpt lat="41.840754" lon="22.990685">
        <ele>1142.6</ele>
        <time>2026-05-06T16:08:24.000Z</time>
      </trkpt>
      <trkpt lat="41.840767" lon="22.990688">
        <ele>1142.6</ele>
        <time>2026-05-06T16:08:25.000Z</time>
      </trkpt>
      <trkpt lat="41.84078" lon="22.990691">
        <ele>1142.6</ele>
        <time>2026-05-06T16:08:26.000Z</time>
      </trkpt>
      <trkpt lat="41.840793" lon="22.990692">
        <ele>1142.6</ele>
        <time>2026-05-06T16:08:27.000Z</time>
      </trkpt>
      <trkpt lat="41.840806" lon="22.990694">
        <ele>1142.3</ele>
        <time>2026-05-06T16:08:28.000Z</time>
      </trkpt>
      <trkpt lat="41.840819" lon="22.990697">
        <ele>1142.3</ele>
        <time>2026-05-06T16:08:29.000Z</time>
      </trkpt>
      <trkpt lat="41.840832" lon="22.990699">
        <ele>1142.3</ele>
        <time>2026-05-06T16:08:30.000Z</time>
      </trkpt>
      <trkpt lat="41.840844" lon="22.990701">
        <ele>1142.3</ele>
        <time>2026-05-06T16:08:31.000Z</time>
      </trkpt>
      <trkpt lat="41.840856" lon="22.990703">
        <ele>1142.3</ele>
        <time>2026-05-06T16:08:32.000Z</time>
      </trkpt>
      <trkpt lat="41.840869" lon="22.990705">
        <ele>1141.7</ele>
        <time>2026-05-06T16:08:33.000Z</time>
      </trkpt>
      <trkpt lat="41.840881" lon="22.990706">
        <ele>1141.7</ele>
        <time>2026-05-06T16:08:34.000Z</time>
      </trkpt>
      <trkpt lat="41.840894" lon="22.990707">
        <ele>1141.7</ele>
        <time>2026-05-06T16:08:35.000Z</time>
      </trkpt>
      <trkpt lat="41.840907" lon="22.990707">
        <ele>1141.7</ele>
        <time>2026-05-06T16:08:36.000Z</time>
      </trkpt>
      <trkpt lat="41.84092" lon="22.990709">
        <ele>1141.7</ele>
        <time>2026-05-06T16:08:37.000Z</time>
      </trkpt>
      <trkpt lat="41.840932" lon="22.99071">
        <ele>1141.3</ele>
        <time>2026-05-06T16:08:38.000Z</time>
      </trkpt>
      <trkpt lat="41.840944" lon="22.990713">
        <ele>1141.3</ele>
        <time>2026-05-06T16:08:39.000Z</time>
      </trkpt>
      <trkpt lat="41.840955" lon="22.990717">
        <ele>1141.3</ele>
        <time>2026-05-06T16:08:40.000Z</time>
      </trkpt>
      <trkpt lat="41.840966" lon="22.990721">
        <ele>1141.3</ele>
        <time>2026-05-06T16:08:41.000Z</time>
      </trkpt>
      <trkpt lat="41.840978" lon="22.990724">
        <ele>1141.3</ele>
        <time>2026-05-06T16:08:42.000Z</time>
      </trkpt>
      <trkpt lat="41.84099" lon="22.990726">
        <ele>1141</ele>
        <time>2026-05-06T16:08:43.000Z</time>
      </trkpt>
      <trkpt lat="41.841002" lon="22.990729">
        <ele>1141</ele>
        <time>2026-05-06T16:08:44.000Z</time>
      </trkpt>
      <trkpt lat="41.841012" lon="22.990731">
        <ele>1141</ele>
        <time>2026-05-06T16:08:45.000Z</time>
      </trkpt>
      <trkpt lat="41.84102" lon="22.990733">
        <ele>1141</ele>
        <time>2026-05-06T16:08:46.000Z</time>
      </trkpt>
      <trkpt lat="41.841026" lon="22.990734">
        <ele>1141</ele>
        <time>2026-05-06T16:08:47.000Z</time>
      </trkpt>
      <trkpt lat="41.84103" lon="22.990735">
        <ele>1140.6</ele>
        <time>2026-05-06T16:08:48.000Z</time>
      </trkpt>
      <trkpt lat="41.841032" lon="22.990734">
        <ele>1140.6</ele>
        <time>2026-05-06T16:08:49.000Z</time>
      </trkpt>
      <trkpt lat="41.841033" lon="22.990732">
        <ele>1140.6</ele>
        <time>2026-05-06T16:08:50.000Z</time>
      </trkpt>
      <trkpt lat="41.841034" lon="22.990731">
        <ele>1140.6</ele>
        <time>2026-05-06T16:08:51.000Z</time>
      </trkpt>
      <trkpt lat="41.841035" lon="22.990729">
        <ele>1140.6</ele>
        <time>2026-05-06T16:08:52.000Z</time>
      </trkpt>
      <trkpt lat="41.841036" lon="22.990728">
        <ele>1140.2</ele>
        <time>2026-05-06T16:08:53.000Z</time>
      </trkpt>
      <trkpt lat="41.841037" lon="22.990727">
        <ele>1140.2</ele>
        <time>2026-05-06T16:08:54.000Z</time>
      </trkpt>
      <trkpt lat="41.84104" lon="22.990726">
        <ele>1140.2</ele>
        <time>2026-05-06T16:08:55.000Z</time>
      </trkpt>
      <trkpt lat="41.841044" lon="22.990727">
        <ele>1140.2</ele>
        <time>2026-05-06T16:08:56.000Z</time>
      </trkpt>
      <trkpt lat="41.84105" lon="22.990728">
        <ele>1140.2</ele>
        <time>2026-05-06T16:08:57.000Z</time>
      </trkpt>
      <trkpt lat="41.841058" lon="22.99073">
        <ele>1140.1</ele>
        <time>2026-05-06T16:08:58.000Z</time>
      </trkpt>
      <trkpt lat="41.841066" lon="22.990734">
        <ele>1140.1</ele>
        <time>2026-05-06T16:08:59.000Z</time>
      </trkpt>
      <trkpt lat="41.841073" lon="22.990738">
        <ele>1140.1</ele>
        <time>2026-05-06T16:09:00.000Z</time>
      </trkpt>
      <trkpt lat="41.841079" lon="22.99074">
        <ele>1140.1</ele>
        <time>2026-05-06T16:09:01.000Z</time>
      </trkpt>
      <trkpt lat="41.841084" lon="22.990742">
        <ele>1140.1</ele>
        <time>2026-05-06T16:09:02.000Z</time>
      </trkpt>
      <trkpt lat="41.84109" lon="22.990744">
        <ele>1139.8</ele>
        <time>2026-05-06T16:09:03.000Z</time>
      </trkpt>
      <trkpt lat="41.841096" lon="22.990746">
        <ele>1139.8</ele>
        <time>2026-05-06T16:09:04.000Z</time>
      </trkpt>
      <trkpt lat="41.841103" lon="22.990749">
        <ele>1139.8</ele>
        <time>2026-05-06T16:09:05.000Z</time>
      </trkpt>
      <trkpt lat="41.841113" lon="22.990753">
        <ele>1139.8</ele>
        <time>2026-05-06T16:09:06.000Z</time>
      </trkpt>
      <trkpt lat="41.841125" lon="22.990759">
        <ele>1139.8</ele>
        <time>2026-05-06T16:09:07.000Z</time>
      </trkpt>
      <trkpt lat="41.841136" lon="22.990766">
        <ele>1139.7</ele>
        <time>2026-05-06T16:09:08.000Z</time>
      </trkpt>
      <trkpt lat="41.841147" lon="22.990772">
        <ele>1139.7</ele>
        <time>2026-05-06T16:09:09.000Z</time>
      </trkpt>
      <trkpt lat="41.841158" lon="22.990779">
        <ele>1139.7</ele>
        <time>2026-05-06T16:09:10.000Z</time>
      </trkpt>
      <trkpt lat="41.841168" lon="22.990785">
        <ele>1139.7</ele>
        <time>2026-05-06T16:09:11.000Z</time>
      </trkpt>
      <trkpt lat="41.841179" lon="22.990791">
        <ele>1139.7</ele>
        <time>2026-05-06T16:09:12.000Z</time>
      </trkpt>
      <trkpt lat="41.84119" lon="22.990798">
        <ele>1139.7</ele>
        <time>2026-05-06T16:09:13.000Z</time>
      </trkpt>
      <trkpt lat="41.8412" lon="22.990805">
        <ele>1139.7</ele>
        <time>2026-05-06T16:09:14.000Z</time>
      </trkpt>
      <trkpt lat="41.841209" lon="22.990812">
        <ele>1139.7</ele>
        <time>2026-05-06T16:09:15.000Z</time>
      </trkpt>
      <trkpt lat="41.841218" lon="22.99082">
        <ele>1139.7</ele>
        <time>2026-05-06T16:09:16.000Z</time>
      </trkpt>
      <trkpt lat="41.841227" lon="22.990828">
        <ele>1139.7</ele>
        <time>2026-05-06T16:09:17.000Z</time>
      </trkpt>
      <trkpt lat="41.841236" lon="22.990837">
        <ele>1139.8</ele>
        <time>2026-05-06T16:09:18.000Z</time>
      </trkpt>
      <trkpt lat="41.841245" lon="22.990845">
        <ele>1139.8</ele>
        <time>2026-05-06T16:09:19.000Z</time>
      </trkpt>
      <trkpt lat="41.841254" lon="22.990852">
        <ele>1139.8</ele>
        <time>2026-05-06T16:09:20.000Z</time>
      </trkpt>
      <trkpt lat="41.841263" lon="22.990859">
        <ele>1139.8</ele>
        <time>2026-05-06T16:09:21.000Z</time>
      </trkpt>
      <trkpt lat="41.841273" lon="22.990866">
        <ele>1139.8</ele>
        <time>2026-05-06T16:09:22.000Z</time>
      </trkpt>
      <trkpt lat="41.841284" lon="22.990873">
        <ele>1139.6</ele>
        <time>2026-05-06T16:09:23.000Z</time>
      </trkpt>
      <trkpt lat="41.841294" lon="22.990879">
        <ele>1139.6</ele>
        <time>2026-05-06T16:09:24.000Z</time>
      </trkpt>
      <trkpt lat="41.841305" lon="22.990884">
        <ele>1139.6</ele>
        <time>2026-05-06T16:09:25.000Z</time>
      </trkpt>
      <trkpt lat="41.841315" lon="22.99089">
        <ele>1139.6</ele>
        <time>2026-05-06T16:09:26.000Z</time>
      </trkpt>
      <trkpt lat="41.841325" lon="22.990894">
        <ele>1139.6</ele>
        <time>2026-05-06T16:09:27.000Z</time>
      </trkpt>
      <trkpt lat="41.841335" lon="22.990898">
        <ele>1139.4</ele>
        <time>2026-05-06T16:09:28.000Z</time>
      </trkpt>
      <trkpt lat="41.841345" lon="22.990901">
        <ele>1139.4</ele>
        <time>2026-05-06T16:09:29.000Z</time>
      </trkpt>
      <trkpt lat="41.841356" lon="22.990903">
        <ele>1139.4</ele>
        <time>2026-05-06T16:09:30.000Z</time>
      </trkpt>
      <trkpt lat="41.841367" lon="22.990905">
        <ele>1139.4</ele>
        <time>2026-05-06T16:09:31.000Z</time>
      </trkpt>
      <trkpt lat="41.841379" lon="22.990908">
        <ele>1139.4</ele>
        <time>2026-05-06T16:09:32.000Z</time>
      </trkpt>
      <trkpt lat="41.84139" lon="22.99091">
        <ele>1139.1</ele>
        <time>2026-05-06T16:09:33.000Z</time>
      </trkpt>
      <trkpt lat="41.841403" lon="22.990913">
        <ele>1139.1</ele>
        <time>2026-05-06T16:09:34.000Z</time>
      </trkpt>
      <trkpt lat="41.841415" lon="22.990916">
        <ele>1139.1</ele>
        <time>2026-05-06T16:09:35.000Z</time>
      </trkpt>
      <trkpt lat="41.841427" lon="22.990918">
        <ele>1139.1</ele>
        <time>2026-05-06T16:09:36.000Z</time>
      </trkpt>
      <trkpt lat="41.84144" lon="22.990919">
        <ele>1139.1</ele>
        <time>2026-05-06T16:09:37.000Z</time>
      </trkpt>
      <trkpt lat="41.841452" lon="22.990919">
        <ele>1139.1</ele>
        <time>2026-05-06T16:09:38.000Z</time>
      </trkpt>
      <trkpt lat="41.841464" lon="22.99092">
        <ele>1139.1</ele>
        <time>2026-05-06T16:09:39.000Z</time>
      </trkpt>
      <trkpt lat="41.841476" lon="22.990922">
        <ele>1139.1</ele>
        <time>2026-05-06T16:09:40.000Z</time>
      </trkpt>
      <trkpt lat="41.841487" lon="22.990924">
        <ele>1139.1</ele>
        <time>2026-05-06T16:09:41.000Z</time>
      </trkpt>
      <trkpt lat="41.841498" lon="22.990927">
        <ele>1139.1</ele>
        <time>2026-05-06T16:09:42.000Z</time>
      </trkpt>
      <trkpt lat="41.841509" lon="22.990932">
        <ele>1139.2</ele>
        <time>2026-05-06T16:09:43.000Z</time>
      </trkpt>
      <trkpt lat="41.841521" lon="22.990935">
        <ele>1139.2</ele>
        <time>2026-05-06T16:09:44.000Z</time>
      </trkpt>
      <trkpt lat="41.841532" lon="22.990938">
        <ele>1139.2</ele>
        <time>2026-05-06T16:09:45.000Z</time>
      </trkpt>
      <trkpt lat="41.841544" lon="22.99094">
        <ele>1139.2</ele>
        <time>2026-05-06T16:09:46.000Z</time>
      </trkpt>
      <trkpt lat="41.841557" lon="22.990943">
        <ele>1139.2</ele>
        <time>2026-05-06T16:09:47.000Z</time>
      </trkpt>
      <trkpt lat="41.841569" lon="22.990947">
        <ele>1139.3</ele>
        <time>2026-05-06T16:09:48.000Z</time>
      </trkpt>
      <trkpt lat="41.841581" lon="22.990951">
        <ele>1139.3</ele>
        <time>2026-05-06T16:09:49.000Z</time>
      </trkpt>
      <trkpt lat="41.841593" lon="22.990955">
        <ele>1139.3</ele>
        <time>2026-05-06T16:09:50.000Z</time>
      </trkpt>
      <trkpt lat="41.841605" lon="22.99096">
        <ele>1139.3</ele>
        <time>2026-05-06T16:09:51.000Z</time>
      </trkpt>
      <trkpt lat="41.841616" lon="22.990964">
        <ele>1139.3</ele>
        <time>2026-05-06T16:09:52.000Z</time>
      </trkpt>
      <trkpt lat="41.841627" lon="22.990968">
        <ele>1139.1</ele>
        <time>2026-05-06T16:09:53.000Z</time>
      </trkpt>
      <trkpt lat="41.841638" lon="22.990972">
        <ele>1139.1</ele>
        <time>2026-05-06T16:09:54.000Z</time>
      </trkpt>
      <trkpt lat="41.841649" lon="22.990975">
        <ele>1139.1</ele>
        <time>2026-05-06T16:09:55.000Z</time>
      </trkpt>
      <trkpt lat="41.84166" lon="22.990977">
        <ele>1139.1</ele>
        <time>2026-05-06T16:09:56.000Z</time>
      </trkpt>
      <trkpt lat="41.841671" lon="22.990979">
        <ele>1139.1</ele>
        <time>2026-05-06T16:09:57.000Z</time>
      </trkpt>
      <trkpt lat="41.841682" lon="22.990981">
        <ele>1138.8</ele>
        <time>2026-05-06T16:09:58.000Z</time>
      </trkpt>
      <trkpt lat="41.841692" lon="22.990984">
        <ele>1138.8</ele>
        <time>2026-05-06T16:09:59.000Z</time>
      </trkpt>
      <trkpt lat="41.841702" lon="22.990988">
        <ele>1138.8</ele>
        <time>2026-05-06T16:10:00.000Z</time>
      </trkpt>
      <trkpt lat="41.841712" lon="22.990993">
        <ele>1138.8</ele>
        <time>2026-05-06T16:10:01.000Z</time>
      </trkpt>
      <trkpt lat="41.841719" lon="22.990998">
        <ele>1138.8</ele>
        <time>2026-05-06T16:10:02.000Z</time>
      </trkpt>
      <trkpt lat="41.841725" lon="22.991002">
        <ele>1138.2</ele>
        <time>2026-05-06T16:10:03.000Z</time>
      </trkpt>
      <trkpt lat="41.841728" lon="22.991005">
        <ele>1138.2</ele>
        <time>2026-05-06T16:10:04.000Z</time>
      </trkpt>
      <trkpt lat="41.841731" lon="22.991008">
        <ele>1138.2</ele>
        <time>2026-05-06T16:10:05.000Z</time>
      </trkpt>
      <trkpt lat="41.841735" lon="22.991012">
        <ele>1138.2</ele>
        <time>2026-05-06T16:10:06.000Z</time>
      </trkpt>
      <trkpt lat="41.841741" lon="22.991017">
        <ele>1138.2</ele>
        <time>2026-05-06T16:10:07.000Z</time>
      </trkpt>
      <trkpt lat="41.841748" lon="22.991023">
        <ele>1137.6</ele>
        <time>2026-05-06T16:10:08.000Z</time>
      </trkpt>
      <trkpt lat="41.841757" lon="22.991031">
        <ele>1137.6</ele>
        <time>2026-05-06T16:10:09.000Z</time>
      </trkpt>
      <trkpt lat="41.841766" lon="22.991037">
        <ele>1137.6</ele>
        <time>2026-05-06T16:10:10.000Z</time>
      </trkpt>
      <trkpt lat="41.841774" lon="22.991043">
        <ele>1137.6</ele>
        <time>2026-05-06T16:10:11.000Z</time>
      </trkpt>
      <trkpt lat="41.841779" lon="22.991049">
        <ele>1137.6</ele>
        <time>2026-05-06T16:10:12.000Z</time>
      </trkpt>
      <trkpt lat="41.841783" lon="22.991054">
        <ele>1137.2</ele>
        <time>2026-05-06T16:10:13.000Z</time>
      </trkpt>
      <trkpt lat="41.841787" lon="22.99106">
        <ele>1137.2</ele>
        <time>2026-05-06T16:10:14.000Z</time>
      </trkpt>
      <trkpt lat="41.841791" lon="22.991067">
        <ele>1137.2</ele>
        <time>2026-05-06T16:10:15.000Z</time>
      </trkpt>
      <trkpt lat="41.841795" lon="22.991075">
        <ele>1137.2</ele>
        <time>2026-05-06T16:10:16.000Z</time>
      </trkpt>
      <trkpt lat="41.841799" lon="22.991083">
        <ele>1137.2</ele>
        <time>2026-05-06T16:10:17.000Z</time>
      </trkpt>
      <trkpt lat="41.841803" lon="22.991093">
        <ele>1136.2</ele>
        <time>2026-05-06T16:10:18.000Z</time>
      </trkpt>
      <trkpt lat="41.841806" lon="22.991101">
        <ele>1136.2</ele>
        <time>2026-05-06T16:10:19.000Z</time>
      </trkpt>
      <trkpt lat="41.841807" lon="22.991107">
        <ele>1136.2</ele>
        <time>2026-05-06T16:10:20.000Z</time>
      </trkpt>
      <trkpt lat="41.841808" lon="22.991111">
        <ele>1136.2</ele>
        <time>2026-05-06T16:10:21.000Z</time>
      </trkpt>
      <trkpt lat="41.84181" lon="22.991113">
        <ele>1136.2</ele>
        <time>2026-05-06T16:10:22.000Z</time>
      </trkpt>
      <trkpt lat="41.84181" lon="22.991114">
        <ele>1135.5</ele>
        <time>2026-05-06T16:10:23.000Z</time>
      </trkpt>
      <trkpt lat="41.84181" lon="22.991114">
        <ele>1135.5</ele>
        <time>2026-05-06T16:10:24.000Z</time>
      </trkpt>
      <trkpt lat="41.841811" lon="22.991116">
        <ele>1135.5</ele>
        <time>2026-05-06T16:10:25.000Z</time>
      </trkpt>
      <trkpt lat="41.841811" lon="22.991117">
        <ele>1135.5</ele>
        <time>2026-05-06T16:10:26.000Z</time>
      </trkpt>
      <trkpt lat="41.841809" lon="22.991119">
        <ele>1135.5</ele>
        <time>2026-05-06T16:10:27.000Z</time>
      </trkpt>
      <trkpt lat="41.841808" lon="22.99112">
        <ele>1135.3</ele>
        <time>2026-05-06T16:10:28.000Z</time>
      </trkpt>
      <trkpt lat="41.841806" lon="22.991121">
        <ele>1135.3</ele>
        <time>2026-05-06T16:10:29.000Z</time>
      </trkpt>
      <trkpt lat="41.841805" lon="22.991122">
        <ele>1135.3</ele>
        <time>2026-05-06T16:10:30.000Z</time>
      </trkpt>
      <trkpt lat="41.841805" lon="22.991122">
        <ele>1135.3</ele>
        <time>2026-05-06T16:10:31.000Z</time>
      </trkpt>
      <trkpt lat="41.841806" lon="22.991122">
        <ele>1135.3</ele>
        <time>2026-05-06T16:10:32.000Z</time>
      </trkpt>
      <trkpt lat="41.841807" lon="22.991122">
        <ele>1135.2</ele>
        <time>2026-05-06T16:10:33.000Z</time>
      </trkpt>
      <trkpt lat="41.841809" lon="22.991122">
        <ele>1135.2</ele>
        <time>2026-05-06T16:10:34.000Z</time>
      </trkpt>
      <trkpt lat="41.84181" lon="22.991121">
        <ele>1135.2</ele>
        <time>2026-05-06T16:10:35.000Z</time>
      </trkpt>
      <trkpt lat="41.84181" lon="22.991121">
        <ele>1135.2</ele>
        <time>2026-05-06T16:10:36.000Z</time>
      </trkpt>
      <trkpt lat="41.841809" lon="22.991122">
        <ele>1135.2</ele>
        <time>2026-05-06T16:10:37.000Z</time>
      </trkpt>
      <trkpt lat="41.841809" lon="22.991122">
        <ele>1135</ele>
        <time>2026-05-06T16:10:38.000Z</time>
      </trkpt>
      <trkpt lat="41.841808" lon="22.991122">
        <ele>1135</ele>
        <time>2026-05-06T16:10:39.000Z</time>
      </trkpt>
      <trkpt lat="41.841807" lon="22.991122">
        <ele>1135</ele>
        <time>2026-05-06T16:10:40.000Z</time>
      </trkpt>
      <trkpt lat="41.841807" lon="22.991122">
        <ele>1135</ele>
        <time>2026-05-06T16:10:41.000Z</time>
      </trkpt>
      <trkpt lat="41.841807" lon="22.991122">
        <ele>1135</ele>
        <time>2026-05-06T16:10:42.000Z</time>
      </trkpt>
      <trkpt lat="41.841807" lon="22.991123">
        <ele>1134.7</ele>
        <time>2026-05-06T16:10:43.000Z</time>
      </trkpt>
      <trkpt lat="41.841806" lon="22.991123">
        <ele>1134.7</ele>
        <time>2026-05-06T16:10:44.000Z</time>
      </trkpt>
      <trkpt lat="41.841806" lon="22.991123">
        <ele>1134.7</ele>
        <time>2026-05-06T16:10:45.000Z</time>
      </trkpt>
      <trkpt lat="41.841806" lon="22.991123">
        <ele>1134.7</ele>
        <time>2026-05-06T16:10:46.000Z</time>
      </trkpt>
      <trkpt lat="41.841806" lon="22.991123">
        <ele>1134.7</ele>
        <time>2026-05-06T16:10:47.000Z</time>
      </trkpt>
      <trkpt lat="41.841807" lon="22.991123">
        <ele>1134.2</ele>
        <time>2026-05-06T16:10:48.000Z</time>
      </trkpt>
      <trkpt lat="41.841807" lon="22.991123">
        <ele>1134.2</ele>
        <time>2026-05-06T16:10:49.000Z</time>
      </trkpt>
      <trkpt lat="41.841807" lon="22.991124">
        <ele>1134.2</ele>
        <time>2026-05-06T16:10:50.000Z</time>
      </trkpt>
      <trkpt lat="41.841807" lon="22.991124">
        <ele>1134.2</ele>
        <time>2026-05-06T16:10:51.000Z</time>
      </trkpt>
      <trkpt lat="41.841807" lon="22.991124">
        <ele>1134.2</ele>
        <time>2026-05-06T16:10:52.000Z</time>
      </trkpt>
      <trkpt lat="41.841807" lon="22.991126">
        <ele>1134</ele>
        <time>2026-05-06T16:10:53.000Z</time>
      </trkpt>
      <trkpt lat="41.841807" lon="22.991126">
        <ele>1134</ele>
        <time>2026-05-06T16:10:54.000Z</time>
      </trkpt>
      <trkpt lat="41.841807" lon="22.991127">
        <ele>1134</ele>
        <time>2026-05-06T16:10:55.000Z</time>
      </trkpt>
      <trkpt lat="41.841809" lon="22.991128">
        <ele>1134</ele>
        <time>2026-05-06T16:10:56.000Z</time>
      </trkpt>
      <trkpt lat="41.84181" lon="22.991128">
        <ele>1134</ele>
        <time>2026-05-06T16:10:57.000Z</time>
      </trkpt>
      <trkpt lat="41.841811" lon="22.991128">
        <ele>1134</ele>
        <time>2026-05-06T16:10:58.000Z</time>
      </trkpt>
      <trkpt lat="41.841812" lon="22.991128">
        <ele>1134</ele>
        <time>2026-05-06T16:10:59.000Z</time>
      </trkpt>
      <trkpt lat="41.841812" lon="22.991128">
        <ele>1134</ele>
        <time>2026-05-06T16:11:00.000Z</time>
      </trkpt>
      <trkpt lat="41.841812" lon="22.991127">
        <ele>1134</ele>
        <time>2026-05-06T16:11:01.000Z</time>
      </trkpt>
      <trkpt lat="41.841812" lon="22.991128">
        <ele>1134</ele>
        <time>2026-05-06T16:11:02.000Z</time>
      </trkpt>
      <trkpt lat="41.841813" lon="22.991128">
        <ele>1134.2</ele>
        <time>2026-05-06T16:11:03.000Z</time>
      </trkpt>
      <trkpt lat="41.841813" lon="22.991129">
        <ele>1134.2</ele>
        <time>2026-05-06T16:11:04.000Z</time>
      </trkpt>
      <trkpt lat="41.841812" lon="22.99113">
        <ele>1134.2</ele>
        <time>2026-05-06T16:11:05.000Z</time>
      </trkpt>
      <trkpt lat="41.841812" lon="22.991132">
        <ele>1134.2</ele>
        <time>2026-05-06T16:11:06.000Z</time>
      </trkpt>
      <trkpt lat="41.841812" lon="22.991133">
        <ele>1134.2</ele>
        <time>2026-05-06T16:11:07.000Z</time>
      </trkpt>
      <trkpt lat="41.841812" lon="22.991133">
        <ele>1134.5</ele>
        <time>2026-05-06T16:11:08.000Z</time>
      </trkpt>
      <trkpt lat="41.841812" lon="22.991133">
        <ele>1134.5</ele>
        <time>2026-05-06T16:11:09.000Z</time>
      </trkpt>
      <trkpt lat="41.841813" lon="22.991133">
        <ele>1134.5</ele>
        <time>2026-05-06T16:11:10.000Z</time>
      </trkpt>
      <trkpt lat="41.841813" lon="22.991133">
        <ele>1134.5</ele>
        <time>2026-05-06T16:11:11.000Z</time>
      </trkpt>
      <trkpt lat="41.841812" lon="22.991133">
        <ele>1134.5</ele>
        <time>2026-05-06T16:11:12.000Z</time>
      </trkpt>
      <trkpt lat="41.841811" lon="22.991134">
        <ele>1134.6</ele>
        <time>2026-05-06T16:11:13.000Z</time>
      </trkpt>
      <trkpt lat="41.841809" lon="22.991135">
        <ele>1134.6</ele>
        <time>2026-05-06T16:11:14.000Z</time>
      </trkpt>
      <trkpt lat="41.841806" lon="22.991136">
        <ele>1134.6</ele>
        <time>2026-05-06T16:11:15.000Z</time>
      </trkpt>
      <trkpt lat="41.841801" lon="22.991136">
        <ele>1134.6</ele>
        <time>2026-05-06T16:11:16.000Z</time>
      </trkpt>
      <trkpt lat="41.841798" lon="22.991134">
        <ele>1134.6</ele>
        <time>2026-05-06T16:11:17.000Z</time>
      </trkpt>
      <trkpt lat="41.841794" lon="22.991131">
        <ele>1134.6</ele>
        <time>2026-05-06T16:11:18.000Z</time>
      </trkpt>
      <trkpt lat="41.84179" lon="22.991125">
        <ele>1134.6</ele>
        <time>2026-05-06T16:11:19.000Z</time>
      </trkpt>
      <trkpt lat="41.841786" lon="22.991117">
        <ele>1134.6</ele>
        <time>2026-05-06T16:11:20.000Z</time>
      </trkpt>
      <trkpt lat="41.841782" lon="22.99111">
        <ele>1134.6</ele>
        <time>2026-05-06T16:11:21.000Z</time>
      </trkpt>
      <trkpt lat="41.841775" lon="22.991103">
        <ele>1134.6</ele>
        <time>2026-05-06T16:11:22.000Z</time>
      </trkpt>
      <trkpt lat="41.841767" lon="22.991097">
        <ele>1134.5</ele>
        <time>2026-05-06T16:11:23.000Z</time>
      </trkpt>
      <trkpt lat="41.841758" lon="22.99109">
        <ele>1134.5</ele>
        <time>2026-05-06T16:11:24.000Z</time>
      </trkpt>
      <trkpt lat="41.84175" lon="22.991084">
        <ele>1134.5</ele>
        <time>2026-05-06T16:11:25.000Z</time>
      </trkpt>
      <trkpt lat="41.841742" lon="22.991078">
        <ele>1134.5</ele>
        <time>2026-05-06T16:11:26.000Z</time>
      </trkpt>
      <trkpt lat="41.841735" lon="22.991072">
        <ele>1134.5</ele>
        <time>2026-05-06T16:11:27.000Z</time>
      </trkpt>
      <trkpt lat="41.84173" lon="22.991068">
        <ele>1134.5</ele>
        <time>2026-05-06T16:11:28.000Z</time>
      </trkpt>
      <trkpt lat="41.841728" lon="22.991068">
        <ele>1134.5</ele>
        <time>2026-05-06T16:11:29.000Z</time>
      </trkpt>
      <trkpt lat="41.841725" lon="22.991072">
        <ele>1134.5</ele>
        <time>2026-05-06T16:11:30.000Z</time>
      </trkpt>
      <trkpt lat="41.841723" lon="22.991079">
        <ele>1134.5</ele>
        <time>2026-05-06T16:11:31.000Z</time>
      </trkpt>
      <trkpt lat="41.841718" lon="22.991088">
        <ele>1134.5</ele>
        <time>2026-05-06T16:11:32.000Z</time>
      </trkpt>
      <trkpt lat="41.841711" lon="22.991096">
        <ele>1134.5</ele>
        <time>2026-05-06T16:11:33.000Z</time>
      </trkpt>
      <trkpt lat="41.841701" lon="22.991103">
        <ele>1134.5</ele>
        <time>2026-05-06T16:11:34.000Z</time>
      </trkpt>
      <trkpt lat="41.841688" lon="22.991108">
        <ele>1134.5</ele>
        <time>2026-05-06T16:11:35.000Z</time>
      </trkpt>
      <trkpt lat="41.841676" lon="22.991112">
        <ele>1134.5</ele>
        <time>2026-05-06T16:11:36.000Z</time>
      </trkpt>
      <trkpt lat="41.841664" lon="22.991116">
        <ele>1134.5</ele>
        <time>2026-05-06T16:11:37.000Z</time>
      </trkpt>
      <trkpt lat="41.841653" lon="22.99112">
        <ele>1134.6</ele>
        <time>2026-05-06T16:11:38.000Z</time>
      </trkpt>
      <trkpt lat="41.841641" lon="22.991124">
        <ele>1134.6</ele>
        <time>2026-05-06T16:11:39.000Z</time>
      </trkpt>
      <trkpt lat="41.841631" lon="22.991125">
        <ele>1134.6</ele>
        <time>2026-05-06T16:11:40.000Z</time>
      </trkpt>
      <trkpt lat="41.841621" lon="22.991125">
        <ele>1134.6</ele>
        <time>2026-05-06T16:11:41.000Z</time>
      </trkpt>
      <trkpt lat="41.841611" lon="22.991125">
        <ele>1134.6</ele>
        <time>2026-05-06T16:11:42.000Z</time>
      </trkpt>
      <trkpt lat="41.841603" lon="22.991125">
        <ele>1134.5</ele>
        <time>2026-05-06T16:11:43.000Z</time>
      </trkpt>
      <trkpt lat="41.841595" lon="22.991126">
        <ele>1134.5</ele>
        <time>2026-05-06T16:11:44.000Z</time>
      </trkpt>
      <trkpt lat="41.841588" lon="22.991129">
        <ele>1134.5</ele>
        <time>2026-05-06T16:11:45.000Z</time>
      </trkpt>
      <trkpt lat="41.841583" lon="22.991132">
        <ele>1134.5</ele>
        <time>2026-05-06T16:11:46.000Z</time>
      </trkpt>
      <trkpt lat="41.84158" lon="22.991135">
        <ele>1134.5</ele>
        <time>2026-05-06T16:11:47.000Z</time>
      </trkpt>
      <trkpt lat="41.841578" lon="22.991138">
        <ele>1134.2</ele>
        <time>2026-05-06T16:11:48.000Z</time>
      </trkpt>
      <trkpt lat="41.841577" lon="22.991141">
        <ele>1134.2</ele>
        <time>2026-05-06T16:11:49.000Z</time>
      </trkpt>
      <trkpt lat="41.841577" lon="22.991142">
        <ele>1134.2</ele>
        <time>2026-05-06T16:11:50.000Z</time>
      </trkpt>
      <trkpt lat="41.841578" lon="22.991142">
        <ele>1134.2</ele>
        <time>2026-05-06T16:11:51.000Z</time>
      </trkpt>
      <trkpt lat="41.841577" lon="22.991143">
        <ele>1134.2</ele>
        <time>2026-05-06T16:11:52.000Z</time>
      </trkpt>
      <trkpt lat="41.841577" lon="22.991143">
        <ele>1134</ele>
        <time>2026-05-06T16:11:53.000Z</time>
      </trkpt>
      <trkpt lat="41.841577" lon="22.991143">
        <ele>1134</ele>
        <time>2026-05-06T16:11:54.000Z</time>
      </trkpt>
      <trkpt lat="41.841577" lon="22.991143">
        <ele>1134</ele>
        <time>2026-05-06T16:11:55.000Z</time>
      </trkpt>
      <trkpt lat="41.841577" lon="22.991143">
        <ele>1134</ele>
        <time>2026-05-06T16:11:56.000Z</time>
      </trkpt>
      <trkpt lat="41.841577" lon="22.991143">
        <ele>1134</ele>
        <time>2026-05-06T16:11:57.000Z</time>
      </trkpt>
      <trkpt lat="41.841577" lon="22.991143">
        <ele>1134</ele>
        <time>2026-05-06T16:11:58.000Z</time>
      </trkpt>
      <trkpt lat="41.841577" lon="22.991143">
        <ele>1134</ele>
        <time>2026-05-06T16:11:59.000Z</time>
      </trkpt>
      <trkpt lat="41.841577" lon="22.991143">
        <ele>1134</ele>
        <time>2026-05-06T16:12:00.000Z</time>
      </trkpt>
      <trkpt lat="41.841577" lon="22.991143">
        <ele>1134</ele>
        <time>2026-05-06T16:12:01.000Z</time>
      </trkpt>
      <trkpt lat="41.841577" lon="22.991143">
        <ele>1134</ele>
        <time>2026-05-06T16:12:02.000Z</time>
      </trkpt>
      <trkpt lat="41.841577" lon="22.991143">
        <ele>1134</ele>
        <time>2026-05-06T16:12:03.000Z</time>
      </trkpt>
      <trkpt lat="41.841577" lon="22.991143">
        <ele>1134</ele>
        <time>2026-05-06T16:12:04.000Z</time>
      </trkpt>
      <trkpt lat="41.841577" lon="22.991143">
        <ele>1134</ele>
        <time>2026-05-06T16:12:05.000Z</time>
      </trkpt>
      <trkpt lat="41.841577" lon="22.991143">
        <ele>1134</ele>
        <time>2026-05-06T16:12:06.000Z</time>
      </trkpt>
      <trkpt lat="41.841577" lon="22.991143">
        <ele>1134</ele>
        <time>2026-05-06T16:12:07.000Z</time>
      </trkpt>
      <trkpt lat="41.841577" lon="22.991143">
        <ele>1134.1</ele>
        <time>2026-05-06T16:12:08.000Z</time>
      </trkpt>
      <trkpt lat="41.841577" lon="22.991143">
        <ele>1134.1</ele>
        <time>2026-05-06T16:12:09.000Z</time>
      </trkpt>
      <trkpt lat="41.841577" lon="22.991143">
        <ele>1134.1</ele>
        <time>2026-05-06T16:12:10.000Z</time>
      </trkpt>
      <trkpt lat="41.841577" lon="22.991143">
        <ele>1134.1</ele>
        <time>2026-05-06T16:12:11.000Z</time>
      </trkpt>
      <trkpt lat="41.841577" lon="22.991143">
        <ele>1134.1</ele>
        <time>2026-05-06T16:12:12.000Z</time>
      </trkpt>
      <trkpt lat="41.841577" lon="22.991143">
        <ele>1134.1</ele>
        <time>2026-05-06T16:12:13.000Z</time>
      </trkpt>
      <trkpt lat="41.841577" lon="22.991143">
        <ele>1134.1</ele>
        <time>2026-05-06T16:12:14.000Z</time>
      </trkpt>
      <trkpt lat="41.841577" lon="22.991143">
        <ele>1134.1</ele>
        <time>2026-05-06T16:12:15.000Z</time>
      </trkpt>
      <trkpt lat="41.841577" lon="22.991143">
        <ele>1134.1</ele>
        <time>2026-05-06T16:12:16.000Z</time>
      </trkpt>
      <trkpt lat="41.841577" lon="22.991143">
        <ele>1134.1</ele>
        <time>2026-05-06T16:12:17.000Z</time>
      </trkpt>
      <trkpt lat="41.841577" lon="22.991142">
        <ele>1134.3</ele>
        <time>2026-05-06T16:12:18.000Z</time>
      </trkpt>
      <trkpt lat="41.841577" lon="22.991142">
        <ele>1134.3</ele>
        <time>2026-05-06T16:12:19.000Z</time>
      </trkpt>
      <trkpt lat="41.841577" lon="22.991142">
        <ele>1134.3</ele>
        <time>2026-05-06T16:12:20.000Z</time>
      </trkpt>
      <trkpt lat="41.841577" lon="22.991142">
        <ele>1134.3</ele>
        <time>2026-05-06T16:12:21.000Z</time>
      </trkpt>
      <trkpt lat="41.841577" lon="22.991142">
        <ele>1134.3</ele>
        <time>2026-05-06T16:12:22.000Z</time>
      </trkpt>
      <trkpt lat="41.841577" lon="22.991142">
        <ele>1134.2</ele>
        <time>2026-05-06T16:12:23.000Z</time>
      </trkpt>
      <trkpt lat="41.841577" lon="22.991142">
        <ele>1134.2</ele>
        <time>2026-05-06T16:12:24.000Z</time>
      </trkpt>
      <trkpt lat="41.841577" lon="22.991142">
        <ele>1134.2</ele>
        <time>2026-05-06T16:12:25.000Z</time>
      </trkpt>
      <trkpt lat="41.841577" lon="22.991142">
        <ele>1134.2</ele>
        <time>2026-05-06T16:12:26.000Z</time>
      </trkpt>
      <trkpt lat="41.841577" lon="22.991142">
        <ele>1134.2</ele>
        <time>2026-05-06T16:12:27.000Z</time>
      </trkpt>
      <trkpt lat="41.841577" lon="22.991142">
        <ele>1134.2</ele>
        <time>2026-05-06T16:12:28.000Z</time>
      </trkpt>
      <trkpt lat="41.841577" lon="22.991142">
        <ele>1134.2</ele>
        <time>2026-05-06T16:12:29.000Z</time>
      </trkpt>
      <trkpt lat="41.841577" lon="22.991142">
        <ele>1134.2</ele>
        <time>2026-05-06T16:12:30.000Z</time>
      </trkpt>
      <trkpt lat="41.841577" lon="22.991142">
        <ele>1134.2</ele>
        <time>2026-05-06T16:12:31.000Z</time>
      </trkpt>
      <trkpt lat="41.841577" lon="22.991142">
        <ele>1134.2</ele>
        <time>2026-05-06T16:12:32.000Z</time>
      </trkpt>
      <trkpt lat="41.841577" lon="22.991142">
        <ele>1134.1</ele>
        <time>2026-05-06T16:12:33.000Z</time>
      </trkpt>
      <trkpt lat="41.841577" lon="22.991142">
        <ele>1134.1</ele>
        <time>2026-05-06T16:12:34.000Z</time>
      </trkpt>
      <trkpt lat="41.841577" lon="22.991142">
        <ele>1134.1</ele>
        <time>2026-05-06T16:12:35.000Z</time>
      </trkpt>
      <trkpt lat="41.841577" lon="22.991142">
        <ele>1134.1</ele>
        <time>2026-05-06T16:12:36.000Z</time>
      </trkpt>
      <trkpt lat="41.841577" lon="22.991142">
        <ele>1134.1</ele>
        <time>2026-05-06T16:12:37.000Z</time>
      </trkpt>
      <trkpt lat="41.841577" lon="22.991142">
        <ele>1134.2</ele>
        <time>2026-05-06T16:12:38.000Z</time>
      </trkpt>
      <trkpt lat="41.841577" lon="22.991142">
        <ele>1134.2</ele>
        <time>2026-05-06T16:12:39.000Z</time>
      </trkpt>
      <trkpt lat="41.841577" lon="22.991142">
        <ele>1134.2</ele>
        <time>2026-05-06T16:12:40.000Z</time>
      </trkpt>
      <trkpt lat="41.841577" lon="22.991142">
        <ele>1134.2</ele>
        <time>2026-05-06T16:12:41.000Z</time>
      </trkpt>
      <trkpt lat="41.841577" lon="22.991142">
        <ele>1134.2</ele>
        <time>2026-05-06T16:12:42.000Z</time>
      </trkpt>
      <trkpt lat="41.841577" lon="22.991142">
        <ele>1134.2</ele>
        <time>2026-05-06T16:12:43.000Z</time>
      </trkpt>
      <trkpt lat="41.841577" lon="22.991142">
        <ele>1134.2</ele>
        <time>2026-05-06T16:12:44.000Z</time>
      </trkpt>
      <trkpt lat="41.841577" lon="22.991142">
        <ele>1134.2</ele>
        <time>2026-05-06T16:12:45.000Z</time>
      </trkpt>
      <trkpt lat="41.841577" lon="22.991142">
        <ele>1134.2</ele>
        <time>2026-05-06T16:12:46.000Z</time>
      </trkpt>
      <trkpt lat="41.841577" lon="22.991142">
        <ele>1134.2</ele>
        <time>2026-05-06T16:12:47.000Z</time>
      </trkpt>
      <trkpt lat="41.841577" lon="22.991142">
        <ele>1134.2</ele>
        <time>2026-05-06T16:12:48.000Z</time>
      </trkpt>
      <trkpt lat="41.841577" lon="22.991142">
        <ele>1134.2</ele>
        <time>2026-05-06T16:12:49.000Z</time>
      </trkpt>
      <trkpt lat="41.841577" lon="22.991142">
        <ele>1134.2</ele>
        <time>2026-05-06T16:12:50.000Z</time>
      </trkpt>
      <trkpt lat="41.841577" lon="22.991142">
        <ele>1134.2</ele>
        <time>2026-05-06T16:12:51.000Z</time>
      </trkpt>
      <trkpt lat="41.841577" lon="22.991142">
        <ele>1134.2</ele>
        <time>2026-05-06T16:12:52.000Z</time>
      </trkpt>
      <trkpt lat="41.841577" lon="22.991142">
        <ele>1134.2</ele>
        <time>2026-05-06T16:12:53.000Z</time>
      </trkpt>
      <trkpt lat="41.841577" lon="22.991142">
        <ele>1134.2</ele>
        <time>2026-05-06T16:12:54.000Z</time>
      </trkpt>
      <trkpt lat="41.841577" lon="22.991142">
        <ele>1134.2</ele>
        <time>2026-05-06T16:12:55.000Z</time>
      </trkpt>
      <trkpt lat="41.841577" lon="22.991141">
        <ele>1134.2</ele>
        <time>2026-05-06T16:12:56.000Z</time>
      </trkpt>
      <trkpt lat="41.841576" lon="22.991141">
        <ele>1134.2</ele>
        <time>2026-05-06T16:12:57.000Z</time>
      </trkpt>
      <trkpt lat="41.841576" lon="22.991141">
        <ele>1134.2</ele>
        <time>2026-05-06T16:12:58.000Z</time>
      </trkpt>
      <trkpt lat="41.841576" lon="22.99114">
        <ele>1134.2</ele>
        <time>2026-05-06T16:12:59.000Z</time>
      </trkpt>
      <trkpt lat="41.841576" lon="22.99114">
        <ele>1134.2</ele>
        <time>2026-05-06T16:13:00.000Z</time>
      </trkpt>
      <trkpt lat="41.841576" lon="22.991141">
        <ele>1134.2</ele>
        <time>2026-05-06T16:13:01.000Z</time>
      </trkpt>
      <trkpt lat="41.841577" lon="22.991141">
        <ele>1134.2</ele>
        <time>2026-05-06T16:13:02.000Z</time>
      </trkpt>
      <trkpt lat="41.841577" lon="22.991142">
        <ele>1134.2</ele>
        <time>2026-05-06T16:13:03.000Z</time>
      </trkpt>
      <trkpt lat="41.841577" lon="22.991142">
        <ele>1134.2</ele>
        <time>2026-05-06T16:13:04.000Z</time>
      </trkpt>
      <trkpt lat="41.841577" lon="22.991142">
        <ele>1134.2</ele>
        <time>2026-05-06T16:13:05.000Z</time>
      </trkpt>
      <trkpt lat="41.841577" lon="22.991143">
        <ele>1134.2</ele>
        <time>2026-05-06T16:13:06.000Z</time>
      </trkpt>
      <trkpt lat="41.841577" lon="22.991143">
        <ele>1134.2</ele>
        <time>2026-05-06T16:13:07.000Z</time>
      </trkpt>
      <trkpt lat="41.841578" lon="22.991143">
        <ele>1134.1</ele>
        <time>2026-05-06T16:13:08.000Z</time>
      </trkpt>
      <trkpt lat="41.841578" lon="22.991143">
        <ele>1134.1</ele>
        <time>2026-05-06T16:13:09.000Z</time>
      </trkpt>
      <trkpt lat="41.841578" lon="22.991143">
        <ele>1134.1</ele>
        <time>2026-05-06T16:13:10.000Z</time>
      </trkpt>
      <trkpt lat="41.841578" lon="22.991142">
        <ele>1134.1</ele>
        <time>2026-05-06T16:13:11.000Z</time>
      </trkpt>
      <trkpt lat="41.841578" lon="22.991143">
        <ele>1134.1</ele>
        <time>2026-05-06T16:13:12.000Z</time>
      </trkpt>
      <trkpt lat="41.841578" lon="22.991143">
        <ele>1134</ele>
        <time>2026-05-06T16:13:13.000Z</time>
      </trkpt>
      <trkpt lat="41.841578" lon="22.991143">
        <ele>1134</ele>
        <time>2026-05-06T16:13:14.000Z</time>
      </trkpt>
      <trkpt lat="41.841578" lon="22.991143">
        <ele>1134</ele>
        <time>2026-05-06T16:13:15.000Z</time>
      </trkpt>
      <trkpt lat="41.841578" lon="22.991143">
        <ele>1134</ele>
        <time>2026-05-06T16:13:16.000Z</time>
      </trkpt>
      <trkpt lat="41.841579" lon="22.991142">
        <ele>1134</ele>
        <time>2026-05-06T16:13:17.000Z</time>
      </trkpt>
      <trkpt lat="41.841579" lon="22.991142">
        <ele>1133.8</ele>
        <time>2026-05-06T16:13:18.000Z</time>
      </trkpt>
      <trkpt lat="41.841579" lon="22.991142">
        <ele>1133.8</ele>
        <time>2026-05-06T16:13:19.000Z</time>
      </trkpt>
      <trkpt lat="41.84158" lon="22.991142">
        <ele>1133.8</ele>
        <time>2026-05-06T16:13:20.000Z</time>
      </trkpt>
      <trkpt lat="41.84158" lon="22.991142">
        <ele>1133.8</ele>
        <time>2026-05-06T16:13:21.000Z</time>
      </trkpt>
      <trkpt lat="41.84158" lon="22.991143">
        <ele>1133.8</ele>
        <time>2026-05-06T16:13:22.000Z</time>
      </trkpt>
      <trkpt lat="41.841581" lon="22.991142">
        <ele>1133.8</ele>
        <time>2026-05-06T16:13:23.000Z</time>
      </trkpt>
      <trkpt lat="41.841581" lon="22.99114">
        <ele>1133.8</ele>
        <time>2026-05-06T16:13:24.000Z</time>
      </trkpt>
      <trkpt lat="41.841583" lon="22.991137">
        <ele>1133.8</ele>
        <time>2026-05-06T16:13:25.000Z</time>
      </trkpt>
      <trkpt lat="41.841586" lon="22.991134">
        <ele>1133.8</ele>
        <time>2026-05-06T16:13:26.000Z</time>
      </trkpt>
      <trkpt lat="41.84159" lon="22.991129">
        <ele>1133.8</ele>
        <time>2026-05-06T16:13:27.000Z</time>
      </trkpt>
      <trkpt lat="41.841595" lon="22.991127">
        <ele>1133.9</ele>
        <time>2026-05-06T16:13:28.000Z</time>
      </trkpt>
      <trkpt lat="41.841602" lon="22.991125">
        <ele>1133.9</ele>
        <time>2026-05-06T16:13:29.000Z</time>
      </trkpt>
      <trkpt lat="41.84161" lon="22.991125">
        <ele>1133.9</ele>
        <time>2026-05-06T16:13:30.000Z</time>
      </trkpt>
      <trkpt lat="41.841618" lon="22.991125">
        <ele>1133.9</ele>
        <time>2026-05-06T16:13:31.000Z</time>
      </trkpt>
      <trkpt lat="41.841626" lon="22.991125">
        <ele>1133.9</ele>
        <time>2026-05-06T16:13:32.000Z</time>
      </trkpt>
      <trkpt lat="41.841635" lon="22.991125">
        <ele>1134</ele>
        <time>2026-05-06T16:13:33.000Z</time>
      </trkpt>
      <trkpt lat="41.841644" lon="22.991124">
        <ele>1134</ele>
        <time>2026-05-06T16:13:34.000Z</time>
      </trkpt>
      <trkpt lat="41.841654" lon="22.991123">
        <ele>1134</ele>
        <time>2026-05-06T16:13:35.000Z</time>
      </trkpt>
      <trkpt lat="41.841663" lon="22.991124">
        <ele>1134</ele>
        <time>2026-05-06T16:13:36.000Z</time>
      </trkpt>
      <trkpt lat="41.841672" lon="22.991123">
        <ele>1134</ele>
        <time>2026-05-06T16:13:37.000Z</time>
      </trkpt>
      <trkpt lat="41.841681" lon="22.991122">
        <ele>1134.1</ele>
        <time>2026-05-06T16:13:38.000Z</time>
      </trkpt>
      <trkpt lat="41.84169" lon="22.991121">
        <ele>1134.1</ele>
        <time>2026-05-06T16:13:39.000Z</time>
      </trkpt>
      <trkpt lat="41.841698" lon="22.99112">
        <ele>1134.1</ele>
        <time>2026-05-06T16:13:40.000Z</time>
      </trkpt>
      <trkpt lat="41.841706" lon="22.991118">
        <ele>1134.1</ele>
        <time>2026-05-06T16:13:41.000Z</time>
      </trkpt>
      <trkpt lat="41.841714" lon="22.991115">
        <ele>1134.1</ele>
        <time>2026-05-06T16:13:42.000Z</time>
      </trkpt>
      <trkpt lat="41.841723" lon="22.991113">
        <ele>1134.1</ele>
        <time>2026-05-06T16:13:43.000Z</time>
      </trkpt>
      <trkpt lat="41.841731" lon="22.991108">
        <ele>1134.1</ele>
        <time>2026-05-06T16:13:44.000Z</time>
      </trkpt>
      <trkpt lat="41.84174" lon="22.991105">
        <ele>1134.1</ele>
        <time>2026-05-06T16:13:45.000Z</time>
      </trkpt>
    </trkseg>
  </trk>
</gpx>
